<?xml version="1.0" encoding="UTF-8" standalone="no" ?>
<gpx xmlns="http://www.topografix.com/GPX/1/1" xmlns:xsi="http://www.w3.org/2001/XMLSchema-instance" xsi:schemaLocation="http://www.topografix.com/GPX/1/1 http://www.topografix.com/GPX/1/1/gpx.xsd" version="1.1" creator="VisuGPX - https://www.visugpx.com">
  <metadata>
    <name>GRAN ALTA GARROTXA I SALINES</name>
    <desc><![CDATA[GRAN ALTA GARROTXA I SALINES------]]></desc>
  </metadata>
  <trk>
    <name><![CDATA[GranAltaGarrotxaiSalines]]></name>
    <trkseg>
      <trkpt lat="42.26927" lon="2.59354">
        <ele>306.3</ele>
        <time>2018-11-25T23:03:09Z</time>
      </trkpt>
      <trkpt lat="42.26926" lon="2.59352">
        <ele>306.2</ele>
        <time>2018-11-25T23:03:09Z</time>
      </trkpt>
      <trkpt lat="42.26921" lon="2.59343">
        <ele>305.8</ele>
        <time>2018-11-25T23:03:13Z</time>
      </trkpt>
      <trkpt lat="42.26915" lon="2.5934">
        <ele>305.5</ele>
        <time>2018-11-25T23:03:15Z</time>
      </trkpt>
      <trkpt lat="42.26913" lon="2.59338">
        <ele>305.2</ele>
        <time>2018-11-25T23:03:16Z</time>
      </trkpt>
      <trkpt lat="42.26912" lon="2.59333">
        <ele>304.5</ele>
        <time>2018-11-25T23:03:18Z</time>
      </trkpt>
      <trkpt lat="42.26904" lon="2.59332">
        <ele>302.1</ele>
        <time>2018-11-25T23:03:21Z</time>
      </trkpt>
      <trkpt lat="42.26902" lon="2.59336">
        <ele>299.6</ele>
        <time>2018-11-25T23:03:22Z</time>
      </trkpt>
      <trkpt lat="42.26899" lon="2.59334">
        <ele>298.7</ele>
        <time>2018-11-25T23:03:24Z</time>
      </trkpt>
      <trkpt lat="42.26891" lon="2.59326">
        <ele>295.4</ele>
        <time>2018-11-25T23:03:27Z</time>
      </trkpt>
      <trkpt lat="42.26889" lon="2.59321">
        <ele>294.7</ele>
        <time>2018-11-25T23:03:29Z</time>
      </trkpt>
      <trkpt lat="42.26888" lon="2.59316">
        <ele>294.5</ele>
        <time>2018-11-25T23:03:31Z</time>
      </trkpt>
      <trkpt lat="42.26893" lon="2.59299">
        <ele>294.1</ele>
        <time>2018-11-25T23:03:36Z</time>
      </trkpt>
      <trkpt lat="42.26896" lon="2.59296">
        <ele>293.9</ele>
        <time>2018-11-25T23:03:38Z</time>
      </trkpt>
      <trkpt lat="42.26903" lon="2.5929">
        <ele>293.2</ele>
        <time>2018-11-25T23:03:41Z</time>
      </trkpt>
      <trkpt lat="42.26908" lon="2.59286">
        <ele>292.7</ele>
        <time>2018-11-25T23:03:43Z</time>
      </trkpt>
      <trkpt lat="42.26913" lon="2.59281">
        <ele>292.1</ele>
        <time>2018-11-25T23:03:46Z</time>
      </trkpt>
      <trkpt lat="42.26915" lon="2.5928">
        <ele>292</ele>
        <time>2018-11-25T23:03:47Z</time>
      </trkpt>
      <trkpt lat="42.26918" lon="2.59275">
        <ele>291.8</ele>
        <time>2018-11-25T23:03:49Z</time>
      </trkpt>
      <trkpt lat="42.26929" lon="2.59266">
        <ele>290.4</ele>
        <time>2018-11-25T23:03:54Z</time>
      </trkpt>
      <trkpt lat="42.26936" lon="2.59258">
        <ele>290.1</ele>
        <time>2018-11-25T23:03:58Z</time>
      </trkpt>
      <trkpt lat="42.2694" lon="2.59255">
        <ele>290.1</ele>
        <time>2018-11-25T23:03:59Z</time>
      </trkpt>
      <trkpt lat="42.26945" lon="2.59254">
        <ele>290.2</ele>
        <time>2018-11-25T23:04:02Z</time>
      </trkpt>
      <trkpt lat="42.26953" lon="2.59245">
        <ele>289.4</ele>
        <time>2018-11-25T23:04:06Z</time>
      </trkpt>
      <trkpt lat="42.26961" lon="2.59238">
        <ele>289</ele>
        <time>2018-11-25T23:04:09Z</time>
      </trkpt>
      <trkpt lat="42.26964" lon="2.59236">
        <ele>288.9</ele>
        <time>2018-11-25T23:04:11Z</time>
      </trkpt>
      <trkpt lat="42.26971" lon="2.5923">
        <ele>288.7</ele>
        <time>2018-11-25T23:04:14Z</time>
      </trkpt>
      <trkpt lat="42.26981" lon="2.59224">
        <ele>288.3</ele>
        <time>2018-11-25T23:04:18Z</time>
      </trkpt>
      <trkpt lat="42.26988" lon="2.59216">
        <ele>288.4</ele>
        <time>2018-11-25T23:04:22Z</time>
      </trkpt>
      <trkpt lat="42.26996" lon="2.5921">
        <ele>288.3</ele>
        <time>2018-11-25T23:04:26Z</time>
      </trkpt>
      <trkpt lat="42.27003" lon="2.59204">
        <ele>288.2</ele>
        <time>2018-11-25T23:04:29Z</time>
      </trkpt>
      <trkpt lat="42.27006" lon="2.59203">
        <ele>288.4</ele>
        <time>2018-11-25T23:04:30Z</time>
      </trkpt>
      <trkpt lat="42.27021" lon="2.59197">
        <ele>288.4</ele>
        <time>2018-11-25T23:04:37Z</time>
      </trkpt>
      <trkpt lat="42.27024" lon="2.59195">
        <ele>288.6</ele>
        <time>2018-11-25T23:04:38Z</time>
      </trkpt>
      <trkpt lat="42.2703" lon="2.59193">
        <ele>288.6</ele>
        <time>2018-11-25T23:04:41Z</time>
      </trkpt>
      <trkpt lat="42.27036" lon="2.59191">
        <ele>288.7</ele>
        <time>2018-11-25T23:04:43Z</time>
      </trkpt>
      <trkpt lat="42.27039" lon="2.59189">
        <ele>288.7</ele>
        <time>2018-11-25T23:04:44Z</time>
      </trkpt>
      <trkpt lat="42.27041" lon="2.59189">
        <ele>288.7</ele>
        <time>2018-11-25T23:04:45Z</time>
      </trkpt>
      <trkpt lat="42.27042" lon="2.59188">
        <ele>288.7</ele>
        <time>2018-11-25T23:04:46Z</time>
      </trkpt>
      <trkpt lat="42.27045" lon="2.59187">
        <ele>288.7</ele>
        <time>2018-11-25T23:04:46Z</time>
      </trkpt>
      <trkpt lat="42.27046" lon="2.59187">
        <ele>288.7</ele>
        <time>2018-11-25T23:04:47Z</time>
      </trkpt>
      <trkpt lat="42.27054" lon="2.59183">
        <ele>288.5</ele>
        <time>2018-11-25T23:04:50Z</time>
      </trkpt>
      <trkpt lat="42.27056" lon="2.59182">
        <ele>288.6</ele>
        <time>2018-11-25T23:04:51Z</time>
      </trkpt>
      <trkpt lat="42.27063" lon="2.59182">
        <ele>288.7</ele>
        <time>2018-11-25T23:04:54Z</time>
      </trkpt>
      <trkpt lat="42.27071" lon="2.59181">
        <ele>288.6</ele>
        <time>2018-11-25T23:04:57Z</time>
      </trkpt>
      <trkpt lat="42.27083" lon="2.59177">
        <ele>288.5</ele>
        <time>2018-11-25T23:05:02Z</time>
      </trkpt>
      <trkpt lat="42.27094" lon="2.59175">
        <ele>287.9</ele>
        <time>2018-11-25T23:05:07Z</time>
      </trkpt>
      <trkpt lat="42.27102" lon="2.5917">
        <ele>287.9</ele>
        <time>2018-11-25T23:05:10Z</time>
      </trkpt>
      <trkpt lat="42.2711" lon="2.59165">
        <ele>287.3</ele>
        <time>2018-11-25T23:05:14Z</time>
      </trkpt>
      <trkpt lat="42.27112" lon="2.59163">
        <ele>287.2</ele>
        <time>2018-11-25T23:05:15Z</time>
      </trkpt>
      <trkpt lat="42.27113" lon="2.59163">
        <ele>287.2</ele>
        <time>2018-11-25T23:05:15Z</time>
      </trkpt>
      <trkpt lat="42.27115" lon="2.59163">
        <ele>287.2</ele>
        <time>2018-11-25T23:05:16Z</time>
      </trkpt>
      <trkpt lat="42.27116" lon="2.59162">
        <ele>287.2</ele>
        <time>2018-11-25T23:05:16Z</time>
      </trkpt>
      <trkpt lat="42.27118" lon="2.59161">
        <ele>287.3</ele>
        <time>2018-11-25T23:05:17Z</time>
      </trkpt>
      <trkpt lat="42.2712" lon="2.5916">
        <ele>287.3</ele>
        <time>2018-11-25T23:05:18Z</time>
      </trkpt>
      <trkpt lat="42.27122" lon="2.59159">
        <ele>287.3</ele>
        <time>2018-11-25T23:05:19Z</time>
      </trkpt>
      <trkpt lat="42.27124" lon="2.59158">
        <ele>287.4</ele>
        <time>2018-11-25T23:05:20Z</time>
      </trkpt>
      <trkpt lat="42.27126" lon="2.59157">
        <ele>287.5</ele>
        <time>2018-11-25T23:05:20Z</time>
      </trkpt>
      <trkpt lat="42.27132" lon="2.59154">
        <ele>287.5</ele>
        <time>2018-11-25T23:05:23Z</time>
      </trkpt>
      <trkpt lat="42.27133" lon="2.59153">
        <ele>287.6</ele>
        <time>2018-11-25T23:05:24Z</time>
      </trkpt>
      <trkpt lat="42.27134" lon="2.59153">
        <ele>287.6</ele>
        <time>2018-11-25T23:05:24Z</time>
      </trkpt>
      <trkpt lat="42.27141" lon="2.59152">
        <ele>287.5</ele>
        <time>2018-11-25T23:05:27Z</time>
      </trkpt>
      <trkpt lat="42.27154" lon="2.59155">
        <ele>287.6</ele>
        <time>2018-11-25T23:05:32Z</time>
      </trkpt>
      <trkpt lat="42.27164" lon="2.59163">
        <ele>287.4</ele>
        <time>2018-11-25T23:05:37Z</time>
      </trkpt>
      <trkpt lat="42.27168" lon="2.59162">
        <ele>287.5</ele>
        <time>2018-11-25T23:05:38Z</time>
      </trkpt>
      <trkpt lat="42.27177" lon="2.59163">
        <ele>287.5</ele>
        <time>2018-11-25T23:05:42Z</time>
      </trkpt>
      <trkpt lat="42.27184" lon="2.59162">
        <ele>287.3</ele>
        <time>2018-11-25T23:05:45Z</time>
      </trkpt>
      <trkpt lat="42.27196" lon="2.59156">
        <ele>287.5</ele>
        <time>2018-11-25T23:05:50Z</time>
      </trkpt>
      <trkpt lat="42.27203" lon="2.59151">
        <ele>287.4</ele>
        <time>2018-11-25T23:05:53Z</time>
      </trkpt>
      <trkpt lat="42.27212" lon="2.59146">
        <ele>287.5</ele>
        <time>2018-11-25T23:05:57Z</time>
      </trkpt>
      <trkpt lat="42.27225" lon="2.59138">
        <ele>287.8</ele>
        <time>2018-11-25T23:06:03Z</time>
      </trkpt>
      <trkpt lat="42.27232" lon="2.59138">
        <ele>287.9</ele>
        <time>2018-11-25T23:06:05Z</time>
      </trkpt>
      <trkpt lat="42.27245" lon="2.59137">
        <ele>287.5</ele>
        <time>2018-11-25T23:06:11Z</time>
      </trkpt>
      <trkpt lat="42.27249" lon="2.59134">
        <ele>287.5</ele>
        <time>2018-11-25T23:06:12Z</time>
      </trkpt>
      <trkpt lat="42.27252" lon="2.59133">
        <ele>287.5</ele>
        <time>2018-11-25T23:06:14Z</time>
      </trkpt>
      <trkpt lat="42.27263" lon="2.59132">
        <ele>287.6</ele>
        <time>2018-11-25T23:06:18Z</time>
      </trkpt>
      <trkpt lat="42.27268" lon="2.59128">
        <ele>288.4</ele>
        <time>2018-11-25T23:06:20Z</time>
      </trkpt>
      <trkpt lat="42.27281" lon="2.59128">
        <ele>288.2</ele>
        <time>2018-11-25T23:06:26Z</time>
      </trkpt>
      <trkpt lat="42.27288" lon="2.59127">
        <ele>287.5</ele>
        <time>2018-11-25T23:06:28Z</time>
      </trkpt>
      <trkpt lat="42.27292" lon="2.59126">
        <ele>287.2</ele>
        <time>2018-11-25T23:06:30Z</time>
      </trkpt>
      <trkpt lat="42.27296" lon="2.59123">
        <ele>286.9</ele>
        <time>2018-11-25T23:06:32Z</time>
      </trkpt>
      <trkpt lat="42.27307" lon="2.59118">
        <ele>286.5</ele>
        <time>2018-11-25T23:06:37Z</time>
      </trkpt>
      <trkpt lat="42.2731" lon="2.59115">
        <ele>286.4</ele>
        <time>2018-11-25T23:06:38Z</time>
      </trkpt>
      <trkpt lat="42.27314" lon="2.59113">
        <ele>286.4</ele>
        <time>2018-11-25T23:06:40Z</time>
      </trkpt>
      <trkpt lat="42.2732" lon="2.59112">
        <ele>286.4</ele>
        <time>2018-11-25T23:06:42Z</time>
      </trkpt>
      <trkpt lat="42.27333" lon="2.59106">
        <ele>286.3</ele>
        <time>2018-11-25T23:06:48Z</time>
      </trkpt>
      <trkpt lat="42.27337" lon="2.59105">
        <ele>286.3</ele>
        <time>2018-11-25T23:06:49Z</time>
      </trkpt>
      <trkpt lat="42.27347" lon="2.59105">
        <ele>286.6</ele>
        <time>2018-11-25T23:06:53Z</time>
      </trkpt>
      <trkpt lat="42.2735" lon="2.59103">
        <ele>286.9</ele>
        <time>2018-11-25T23:06:55Z</time>
      </trkpt>
      <trkpt lat="42.27359" lon="2.59102">
        <ele>287.8</ele>
        <time>2018-11-25T23:06:58Z</time>
      </trkpt>
      <trkpt lat="42.27364" lon="2.59099">
        <ele>288.8</ele>
        <time>2018-11-25T23:07:00Z</time>
      </trkpt>
      <trkpt lat="42.27367" lon="2.59099">
        <ele>289</ele>
        <time>2018-11-25T23:07:01Z</time>
      </trkpt>
      <trkpt lat="42.27383" lon="2.59095">
        <ele>290.7</ele>
        <time>2018-11-25T23:07:08Z</time>
      </trkpt>
      <trkpt lat="42.27397" lon="2.59096">
        <ele>292.4</ele>
        <time>2018-11-25T23:07:14Z</time>
      </trkpt>
      <trkpt lat="42.27398" lon="2.59096">
        <ele>292.5</ele>
        <time>2018-11-25T23:07:14Z</time>
      </trkpt>
      <trkpt lat="42.27404" lon="2.59098">
        <ele>292.9</ele>
        <time>2018-11-25T23:07:17Z</time>
      </trkpt>
      <trkpt lat="42.27409" lon="2.59098">
        <ele>292.9</ele>
        <time>2018-11-25T23:07:19Z</time>
      </trkpt>
      <trkpt lat="42.27416" lon="2.59094">
        <ele>294</ele>
        <time>2018-11-25T23:07:22Z</time>
      </trkpt>
      <trkpt lat="42.27425" lon="2.59094">
        <ele>294</ele>
        <time>2018-11-25T23:07:25Z</time>
      </trkpt>
      <trkpt lat="42.27427" lon="2.59092">
        <ele>293.9</ele>
        <time>2018-11-25T23:07:26Z</time>
      </trkpt>
      <trkpt lat="42.27431" lon="2.59087">
        <ele>293.5</ele>
        <time>2018-11-25T23:07:28Z</time>
      </trkpt>
      <trkpt lat="42.2744" lon="2.59081">
        <ele>292.6</ele>
        <time>2018-11-25T23:07:32Z</time>
      </trkpt>
      <trkpt lat="42.27443" lon="2.5908">
        <ele>292.3</ele>
        <time>2018-11-25T23:07:34Z</time>
      </trkpt>
      <trkpt lat="42.27446" lon="2.59079">
        <ele>292.2</ele>
        <time>2018-11-25T23:07:35Z</time>
      </trkpt>
      <trkpt lat="42.27456" lon="2.59079">
        <ele>291.4</ele>
        <time>2018-11-25T23:07:39Z</time>
      </trkpt>
      <trkpt lat="42.2746" lon="2.59077">
        <ele>291</ele>
        <time>2018-11-25T23:07:40Z</time>
      </trkpt>
      <trkpt lat="42.27469" lon="2.59078">
        <ele>290.1</ele>
        <time>2018-11-25T23:07:44Z</time>
      </trkpt>
      <trkpt lat="42.27473" lon="2.59079">
        <ele>289.9</ele>
        <time>2018-11-25T23:07:46Z</time>
      </trkpt>
      <trkpt lat="42.27483" lon="2.59082">
        <ele>288.6</ele>
        <time>2018-11-25T23:07:50Z</time>
      </trkpt>
      <trkpt lat="42.2749" lon="2.5908">
        <ele>287.9</ele>
        <time>2018-11-25T23:07:53Z</time>
      </trkpt>
      <trkpt lat="42.27498" lon="2.5908">
        <ele>287.4</ele>
        <time>2018-11-25T23:07:56Z</time>
      </trkpt>
      <trkpt lat="42.2751" lon="2.59084">
        <ele>287.5</ele>
        <time>2018-11-25T23:08:01Z</time>
      </trkpt>
      <trkpt lat="42.27516" lon="2.59088">
        <ele>287.7</ele>
        <time>2018-11-25T23:08:03Z</time>
      </trkpt>
      <trkpt lat="42.27517" lon="2.59089">
        <ele>288.1</ele>
        <time>2018-11-25T23:08:04Z</time>
      </trkpt>
      <trkpt lat="42.27524" lon="2.59092">
        <ele>288.4</ele>
        <time>2018-11-25T23:08:07Z</time>
      </trkpt>
      <trkpt lat="42.27536" lon="2.59097">
        <ele>288.3</ele>
        <time>2018-11-25T23:08:12Z</time>
      </trkpt>
      <trkpt lat="42.27544" lon="2.59099">
        <ele>288.7</ele>
        <time>2018-11-25T23:08:15Z</time>
      </trkpt>
      <trkpt lat="42.27548" lon="2.591">
        <ele>288.8</ele>
        <time>2018-11-25T23:08:17Z</time>
      </trkpt>
      <trkpt lat="42.27554" lon="2.59102">
        <ele>288.9</ele>
        <time>2018-11-25T23:08:20Z</time>
      </trkpt>
      <trkpt lat="42.2756" lon="2.59099">
        <ele>289.5</ele>
        <time>2018-11-25T23:08:22Z</time>
      </trkpt>
      <trkpt lat="42.27571" lon="2.59094">
        <ele>289.1</ele>
        <time>2018-11-25T23:08:27Z</time>
      </trkpt>
      <trkpt lat="42.27581" lon="2.59092">
        <ele>288.5</ele>
        <time>2018-11-25T23:08:31Z</time>
      </trkpt>
      <trkpt lat="42.27591" lon="2.59088">
        <ele>287.8</ele>
        <time>2018-11-25T23:08:35Z</time>
      </trkpt>
      <trkpt lat="42.27605" lon="2.59093">
        <ele>287.7</ele>
        <time>2018-11-25T23:08:40Z</time>
      </trkpt>
      <trkpt lat="42.27615" lon="2.59097">
        <ele>287.6</ele>
        <time>2018-11-25T23:08:45Z</time>
      </trkpt>
      <trkpt lat="42.27619" lon="2.59102">
        <ele>287.2</ele>
        <time>2018-11-25T23:08:47Z</time>
      </trkpt>
      <trkpt lat="42.27629" lon="2.59104">
        <ele>287.2</ele>
        <time>2018-11-25T23:08:51Z</time>
      </trkpt>
      <trkpt lat="42.27631" lon="2.59104">
        <ele>287.2</ele>
        <time>2018-11-25T23:08:52Z</time>
      </trkpt>
      <trkpt lat="42.27638" lon="2.59105">
        <ele>287.4</ele>
        <time>2018-11-25T23:08:55Z</time>
      </trkpt>
      <trkpt lat="42.27642" lon="2.59106">
        <ele>287.7</ele>
        <time>2018-11-25T23:08:56Z</time>
      </trkpt>
      <trkpt lat="42.2765" lon="2.59107">
        <ele>287.9</ele>
        <time>2018-11-25T23:08:59Z</time>
      </trkpt>
      <trkpt lat="42.27658" lon="2.59106">
        <ele>288.1</ele>
        <time>2018-11-25T23:09:03Z</time>
      </trkpt>
      <trkpt lat="42.2766" lon="2.59106">
        <ele>288</ele>
        <time>2018-11-25T23:09:03Z</time>
      </trkpt>
      <trkpt lat="42.27674" lon="2.59111">
        <ele>288.4</ele>
        <time>2018-11-25T23:09:09Z</time>
      </trkpt>
      <trkpt lat="42.27679" lon="2.59113">
        <ele>288.5</ele>
        <time>2018-11-25T23:09:11Z</time>
      </trkpt>
      <trkpt lat="42.27686" lon="2.59114">
        <ele>288.8</ele>
        <time>2018-11-25T23:09:14Z</time>
      </trkpt>
      <trkpt lat="42.27691" lon="2.59115">
        <ele>288.8</ele>
        <time>2018-11-25T23:09:16Z</time>
      </trkpt>
      <trkpt lat="42.27694" lon="2.59115">
        <ele>288.7</ele>
        <time>2018-11-25T23:09:17Z</time>
      </trkpt>
      <trkpt lat="42.27698" lon="2.59109">
        <ele>288.6</ele>
        <time>2018-11-25T23:09:20Z</time>
      </trkpt>
      <trkpt lat="42.27703" lon="2.59094">
        <ele>288</ele>
        <time>2018-11-25T23:09:25Z</time>
      </trkpt>
      <trkpt lat="42.27704" lon="2.59079">
        <ele>287.8</ele>
        <time>2018-11-25T23:09:29Z</time>
      </trkpt>
      <trkpt lat="42.27706" lon="2.59074">
        <ele>287.5</ele>
        <time>2018-11-25T23:09:31Z</time>
      </trkpt>
      <trkpt lat="42.2771" lon="2.59071">
        <ele>287.8</ele>
        <time>2018-11-25T23:09:33Z</time>
      </trkpt>
      <trkpt lat="42.27719" lon="2.59069">
        <ele>288.7</ele>
        <time>2018-11-25T23:09:36Z</time>
      </trkpt>
      <trkpt lat="42.27732" lon="2.59073">
        <ele>289.8</ele>
        <time>2018-11-25T23:09:42Z</time>
      </trkpt>
      <trkpt lat="42.27741" lon="2.59066">
        <ele>290.3</ele>
        <time>2018-11-25T23:09:46Z</time>
      </trkpt>
      <trkpt lat="42.27748" lon="2.59055">
        <ele>291.1</ele>
        <time>2018-11-25T23:09:50Z</time>
      </trkpt>
      <trkpt lat="42.27749" lon="2.59053">
        <ele>291.2</ele>
        <time>2018-11-25T23:09:51Z</time>
      </trkpt>
      <trkpt lat="42.27754" lon="2.5904">
        <ele>291.8</ele>
        <time>2018-11-25T23:09:55Z</time>
      </trkpt>
      <trkpt lat="42.27756" lon="2.59034">
        <ele>292.2</ele>
        <time>2018-11-25T23:09:57Z</time>
      </trkpt>
      <trkpt lat="42.27762" lon="2.59026">
        <ele>293.3</ele>
        <time>2018-11-25T23:10:00Z</time>
      </trkpt>
      <trkpt lat="42.27767" lon="2.59016">
        <ele>293</ele>
        <time>2018-11-25T23:10:04Z</time>
      </trkpt>
      <trkpt lat="42.2777" lon="2.59008">
        <ele>293.3</ele>
        <time>2018-11-25T23:10:07Z</time>
      </trkpt>
      <trkpt lat="42.27774" lon="2.59001">
        <ele>293.8</ele>
        <time>2018-11-25T23:10:09Z</time>
      </trkpt>
      <trkpt lat="42.27783" lon="2.5899">
        <ele>294.7</ele>
        <time>2018-11-25T23:10:14Z</time>
      </trkpt>
      <trkpt lat="42.27789" lon="2.58982">
        <ele>295.5</ele>
        <time>2018-11-25T23:10:18Z</time>
      </trkpt>
      <trkpt lat="42.27792" lon="2.58979">
        <ele>295.7</ele>
        <time>2018-11-25T23:10:19Z</time>
      </trkpt>
      <trkpt lat="42.27805" lon="2.58967">
        <ele>296.5</ele>
        <time>2018-11-25T23:10:26Z</time>
      </trkpt>
      <trkpt lat="42.27814" lon="2.58962">
        <ele>297</ele>
        <time>2018-11-25T23:10:29Z</time>
      </trkpt>
      <trkpt lat="42.27819" lon="2.58958">
        <ele>297.2</ele>
        <time>2018-11-25T23:10:32Z</time>
      </trkpt>
      <trkpt lat="42.27828" lon="2.58954">
        <ele>297.9</ele>
        <time>2018-11-25T23:10:36Z</time>
      </trkpt>
      <trkpt lat="42.27834" lon="2.58951">
        <ele>297.9</ele>
        <time>2018-11-25T23:10:38Z</time>
      </trkpt>
      <trkpt lat="42.27842" lon="2.5895">
        <ele>298.2</ele>
        <time>2018-11-25T23:10:41Z</time>
      </trkpt>
      <trkpt lat="42.27847" lon="2.58949">
        <ele>298.4</ele>
        <time>2018-11-25T23:10:43Z</time>
      </trkpt>
      <trkpt lat="42.27848" lon="2.58949">
        <ele>298.4</ele>
        <time>2018-11-25T23:10:44Z</time>
      </trkpt>
      <trkpt lat="42.27855" lon="2.58948">
        <ele>299</ele>
        <time>2018-11-25T23:10:46Z</time>
      </trkpt>
      <trkpt lat="42.27864" lon="2.58946">
        <ele>298.5</ele>
        <time>2018-11-25T23:10:50Z</time>
      </trkpt>
      <trkpt lat="42.27873" lon="2.58944">
        <ele>299.3</ele>
        <time>2018-11-25T23:10:54Z</time>
      </trkpt>
      <trkpt lat="42.27879" lon="2.58942">
        <ele>300.5</ele>
        <time>2018-11-25T23:10:56Z</time>
      </trkpt>
      <trkpt lat="42.2789" lon="2.5894">
        <ele>302.1</ele>
        <time>2018-11-25T23:11:01Z</time>
      </trkpt>
      <trkpt lat="42.27896" lon="2.58937">
        <ele>303.2</ele>
        <time>2018-11-25T23:11:03Z</time>
      </trkpt>
      <trkpt lat="42.27903" lon="2.58937">
        <ele>304.7</ele>
        <time>2018-11-25T23:11:06Z</time>
      </trkpt>
      <trkpt lat="42.27912" lon="2.58935">
        <ele>306.3</ele>
        <time>2018-11-25T23:11:09Z</time>
      </trkpt>
      <trkpt lat="42.27918" lon="2.58935">
        <ele>306.7</ele>
        <time>2018-11-25T23:11:12Z</time>
      </trkpt>
      <trkpt lat="42.2792" lon="2.58935">
        <ele>306.7</ele>
        <time>2018-11-25T23:11:13Z</time>
      </trkpt>
      <trkpt lat="42.27922" lon="2.58935">
        <ele>306.5</ele>
        <time>2018-11-25T23:11:14Z</time>
      </trkpt>
      <trkpt lat="42.27934" lon="2.58936">
        <ele>306.1</ele>
        <time>2018-11-25T23:11:18Z</time>
      </trkpt>
      <trkpt lat="42.27945" lon="2.58936">
        <ele>305.9</ele>
        <time>2018-11-25T23:11:23Z</time>
      </trkpt>
      <trkpt lat="42.27952" lon="2.58938">
        <ele>306</ele>
        <time>2018-11-25T23:11:26Z</time>
      </trkpt>
      <trkpt lat="42.27956" lon="2.58938">
        <ele>306</ele>
        <time>2018-11-25T23:11:27Z</time>
      </trkpt>
      <trkpt lat="42.2796" lon="2.58935">
        <ele>305.9</ele>
        <time>2018-11-25T23:11:29Z</time>
      </trkpt>
      <trkpt lat="42.27967" lon="2.58936">
        <ele>305.9</ele>
        <time>2018-11-25T23:11:32Z</time>
      </trkpt>
      <trkpt lat="42.2797" lon="2.58938">
        <ele>305.7</ele>
        <time>2018-11-25T23:11:33Z</time>
      </trkpt>
      <trkpt lat="42.27982" lon="2.5894">
        <ele>305.6</ele>
        <time>2018-11-25T23:11:38Z</time>
      </trkpt>
      <trkpt lat="42.27986" lon="2.58941">
        <ele>305.8</ele>
        <time>2018-11-25T23:11:40Z</time>
      </trkpt>
      <trkpt lat="42.27996" lon="2.58939">
        <ele>305.7</ele>
        <time>2018-11-25T23:11:44Z</time>
      </trkpt>
      <trkpt lat="42.28005" lon="2.58934">
        <ele>305.9</ele>
        <time>2018-11-25T23:11:48Z</time>
      </trkpt>
      <trkpt lat="42.28011" lon="2.58926">
        <ele>306.5</ele>
        <time>2018-11-25T23:11:51Z</time>
      </trkpt>
      <trkpt lat="42.28019" lon="2.5892">
        <ele>306.2</ele>
        <time>2018-11-25T23:11:55Z</time>
      </trkpt>
      <trkpt lat="42.28026" lon="2.58916">
        <ele>306.2</ele>
        <time>2018-11-25T23:11:58Z</time>
      </trkpt>
      <trkpt lat="42.28029" lon="2.58915">
        <ele>306.2</ele>
        <time>2018-11-25T23:11:59Z</time>
      </trkpt>
      <trkpt lat="42.28042" lon="2.58911">
        <ele>305.8</ele>
        <time>2018-11-25T23:12:04Z</time>
      </trkpt>
      <trkpt lat="42.28047" lon="2.58908">
        <ele>305.4</ele>
        <time>2018-11-25T23:12:07Z</time>
      </trkpt>
      <trkpt lat="42.28051" lon="2.58911">
        <ele>305.1</ele>
        <time>2018-11-25T23:12:08Z</time>
      </trkpt>
      <trkpt lat="42.2806" lon="2.58913">
        <ele>305</ele>
        <time>2018-11-25T23:12:12Z</time>
      </trkpt>
      <trkpt lat="42.28062" lon="2.58913">
        <ele>304.9</ele>
        <time>2018-11-25T23:12:13Z</time>
      </trkpt>
      <trkpt lat="42.28064" lon="2.58915">
        <ele>304.9</ele>
        <time>2018-11-25T23:12:14Z</time>
      </trkpt>
      <trkpt lat="42.28069" lon="2.58927">
        <ele>305.1</ele>
        <time>2018-11-25T23:12:18Z</time>
      </trkpt>
      <trkpt lat="42.28072" lon="2.5893">
        <ele>305.1</ele>
        <time>2018-11-25T23:12:19Z</time>
      </trkpt>
      <trkpt lat="42.28079" lon="2.58938">
        <ele>305.6</ele>
        <time>2018-11-25T23:12:23Z</time>
      </trkpt>
      <trkpt lat="42.28083" lon="2.58944">
        <ele>305.6</ele>
        <time>2018-11-25T23:12:25Z</time>
      </trkpt>
      <trkpt lat="42.28088" lon="2.58954">
        <ele>306</ele>
        <time>2018-11-25T23:12:29Z</time>
      </trkpt>
      <trkpt lat="42.28089" lon="2.58964">
        <ele>306</ele>
        <time>2018-11-25T23:12:32Z</time>
      </trkpt>
      <trkpt lat="42.28095" lon="2.5897">
        <ele>306.5</ele>
        <time>2018-11-25T23:12:35Z</time>
      </trkpt>
      <trkpt lat="42.28096" lon="2.58981">
        <ele>306.6</ele>
        <time>2018-11-25T23:12:38Z</time>
      </trkpt>
      <trkpt lat="42.28103" lon="2.58986">
        <ele>306.6</ele>
        <time>2018-11-25T23:12:41Z</time>
      </trkpt>
      <trkpt lat="42.2811" lon="2.58992">
        <ele>306.4</ele>
        <time>2018-11-25T23:12:44Z</time>
      </trkpt>
      <trkpt lat="42.28109" lon="2.58998">
        <ele>306.4</ele>
        <time>2018-11-25T23:12:46Z</time>
      </trkpt>
      <trkpt lat="42.28109" lon="2.59004">
        <ele>306.4</ele>
        <time>2018-11-25T23:12:48Z</time>
      </trkpt>
      <trkpt lat="42.28114" lon="2.59017">
        <ele>306</ele>
        <time>2018-11-25T23:12:52Z</time>
      </trkpt>
      <trkpt lat="42.28116" lon="2.5902">
        <ele>306</ele>
        <time>2018-11-25T23:12:54Z</time>
      </trkpt>
      <trkpt lat="42.28118" lon="2.59022">
        <ele>306</ele>
        <time>2018-11-25T23:12:55Z</time>
      </trkpt>
      <trkpt lat="42.28121" lon="2.59033">
        <ele>305.6</ele>
        <time>2018-11-25T23:12:58Z</time>
      </trkpt>
      <trkpt lat="42.28121" lon="2.5904">
        <ele>305.1</ele>
        <time>2018-11-25T23:13:00Z</time>
      </trkpt>
      <trkpt lat="42.28129" lon="2.59047">
        <ele>304.7</ele>
        <time>2018-11-25T23:13:04Z</time>
      </trkpt>
      <trkpt lat="42.28136" lon="2.59055">
        <ele>304.5</ele>
        <time>2018-11-25T23:13:07Z</time>
      </trkpt>
      <trkpt lat="42.28144" lon="2.59061">
        <ele>304.6</ele>
        <time>2018-11-25T23:13:11Z</time>
      </trkpt>
      <trkpt lat="42.2816" lon="2.59056">
        <ele>304.8</ele>
        <time>2018-11-25T23:13:18Z</time>
      </trkpt>
      <trkpt lat="42.28164" lon="2.59053">
        <ele>304.8</ele>
        <time>2018-11-25T23:13:19Z</time>
      </trkpt>
      <trkpt lat="42.28175" lon="2.59041">
        <ele>304.9</ele>
        <time>2018-11-25T23:13:25Z</time>
      </trkpt>
      <trkpt lat="42.28183" lon="2.59032">
        <ele>305.7</ele>
        <time>2018-11-25T23:13:30Z</time>
      </trkpt>
      <trkpt lat="42.28192" lon="2.5902">
        <ele>307.1</ele>
        <time>2018-11-25T23:13:34Z</time>
      </trkpt>
      <trkpt lat="42.28201" lon="2.59013">
        <ele>308.5</ele>
        <time>2018-11-25T23:13:39Z</time>
      </trkpt>
      <trkpt lat="42.28205" lon="2.5901">
        <ele>309.8</ele>
        <time>2018-11-25T23:13:41Z</time>
      </trkpt>
      <trkpt lat="42.28217" lon="2.59003">
        <ele>311.4</ele>
        <time>2018-11-25T23:13:46Z</time>
      </trkpt>
      <trkpt lat="42.2822" lon="2.59001">
        <ele>311.8</ele>
        <time>2018-11-25T23:13:47Z</time>
      </trkpt>
      <trkpt lat="42.28227" lon="2.58997">
        <ele>312.6</ele>
        <time>2018-11-25T23:13:50Z</time>
      </trkpt>
      <trkpt lat="42.28236" lon="2.58994">
        <ele>313.1</ele>
        <time>2018-11-25T23:13:54Z</time>
      </trkpt>
      <trkpt lat="42.28246" lon="2.58993">
        <ele>313.5</ele>
        <time>2018-11-25T23:13:58Z</time>
      </trkpt>
      <trkpt lat="42.28252" lon="2.58993">
        <ele>313.8</ele>
        <time>2018-11-25T23:14:00Z</time>
      </trkpt>
      <trkpt lat="42.28266" lon="2.58996">
        <ele>314.6</ele>
        <time>2018-11-25T23:14:06Z</time>
      </trkpt>
      <trkpt lat="42.28278" lon="2.59001">
        <ele>316.1</ele>
        <time>2018-11-25T23:14:11Z</time>
      </trkpt>
      <trkpt lat="42.28287" lon="2.59009">
        <ele>317.2</ele>
        <time>2018-11-25T23:14:15Z</time>
      </trkpt>
      <trkpt lat="42.28289" lon="2.59008">
        <ele>317.5</ele>
        <time>2018-11-25T23:14:16Z</time>
      </trkpt>
      <trkpt lat="42.283" lon="2.59011">
        <ele>318.9</ele>
        <time>2018-11-25T23:14:21Z</time>
      </trkpt>
      <trkpt lat="42.28303" lon="2.59012">
        <ele>319.1</ele>
        <time>2018-11-25T23:14:22Z</time>
      </trkpt>
      <trkpt lat="42.28307" lon="2.59014">
        <ele>319.4</ele>
        <time>2018-11-25T23:14:24Z</time>
      </trkpt>
      <trkpt lat="42.28311" lon="2.59021">
        <ele>319.6</ele>
        <time>2018-11-25T23:14:26Z</time>
      </trkpt>
      <trkpt lat="42.28321" lon="2.59036">
        <ele>320.1</ele>
        <time>2018-11-25T23:14:32Z</time>
      </trkpt>
      <trkpt lat="42.28327" lon="2.59037">
        <ele>320.3</ele>
        <time>2018-11-25T23:14:35Z</time>
      </trkpt>
      <trkpt lat="42.28336" lon="2.59041">
        <ele>320.4</ele>
        <time>2018-11-25T23:14:38Z</time>
      </trkpt>
      <trkpt lat="42.2834" lon="2.59045">
        <ele>320.9</ele>
        <time>2018-11-25T23:14:40Z</time>
      </trkpt>
      <trkpt lat="42.28349" lon="2.59049">
        <ele>321.4</ele>
        <time>2018-11-25T23:14:44Z</time>
      </trkpt>
      <trkpt lat="42.2835" lon="2.59049">
        <ele>321.3</ele>
        <time>2018-11-25T23:14:45Z</time>
      </trkpt>
      <trkpt lat="42.28353" lon="2.59048">
        <ele>321.3</ele>
        <time>2018-11-25T23:14:46Z</time>
      </trkpt>
      <trkpt lat="42.28365" lon="2.59042">
        <ele>322</ele>
        <time>2018-11-25T23:14:51Z</time>
      </trkpt>
      <trkpt lat="42.28372" lon="2.59039">
        <ele>322.2</ele>
        <time>2018-11-25T23:14:54Z</time>
      </trkpt>
      <trkpt lat="42.28379" lon="2.59036">
        <ele>322.7</ele>
        <time>2018-11-25T23:14:57Z</time>
      </trkpt>
      <trkpt lat="42.28384" lon="2.59032">
        <ele>324</ele>
        <time>2018-11-25T23:14:59Z</time>
      </trkpt>
      <trkpt lat="42.28391" lon="2.59027">
        <ele>325.3</ele>
        <time>2018-11-25T23:15:03Z</time>
      </trkpt>
      <trkpt lat="42.28395" lon="2.59024">
        <ele>326.3</ele>
        <time>2018-11-25T23:15:04Z</time>
      </trkpt>
      <trkpt lat="42.28396" lon="2.59024">
        <ele>326.4</ele>
        <time>2018-11-25T23:15:05Z</time>
      </trkpt>
      <trkpt lat="42.28406" lon="2.59022">
        <ele>326.7</ele>
        <time>2018-11-25T23:15:09Z</time>
      </trkpt>
      <trkpt lat="42.28408" lon="2.59023">
        <ele>326.8</ele>
        <time>2018-11-25T23:15:10Z</time>
      </trkpt>
      <trkpt lat="42.28417" lon="2.5902">
        <ele>327.2</ele>
        <time>2018-11-25T23:15:13Z</time>
      </trkpt>
      <trkpt lat="42.28425" lon="2.59016">
        <ele>328</ele>
        <time>2018-11-25T23:15:17Z</time>
      </trkpt>
      <trkpt lat="42.28431" lon="2.59015">
        <ele>328.4</ele>
        <time>2018-11-25T23:15:19Z</time>
      </trkpt>
      <trkpt lat="42.28436" lon="2.5901">
        <ele>328.6</ele>
        <time>2018-11-25T23:15:21Z</time>
      </trkpt>
      <trkpt lat="42.28446" lon="2.59009">
        <ele>328.9</ele>
        <time>2018-11-25T23:15:25Z</time>
      </trkpt>
      <trkpt lat="42.28447" lon="2.59007">
        <ele>329</ele>
        <time>2018-11-25T23:15:26Z</time>
      </trkpt>
      <trkpt lat="42.28457" lon="2.59007">
        <ele>329.2</ele>
        <time>2018-11-25T23:15:30Z</time>
      </trkpt>
      <trkpt lat="42.28458" lon="2.59006">
        <ele>329.4</ele>
        <time>2018-11-25T23:15:31Z</time>
      </trkpt>
      <trkpt lat="42.28462" lon="2.59001">
        <ele>329.9</ele>
        <time>2018-11-25T23:15:33Z</time>
      </trkpt>
      <trkpt lat="42.28468" lon="2.59">
        <ele>330.2</ele>
        <time>2018-11-25T23:15:35Z</time>
      </trkpt>
      <trkpt lat="42.28476" lon="2.59002">
        <ele>330.4</ele>
        <time>2018-11-25T23:15:39Z</time>
      </trkpt>
      <trkpt lat="42.28482" lon="2.59001">
        <ele>330.7</ele>
        <time>2018-11-25T23:15:41Z</time>
      </trkpt>
      <trkpt lat="42.28487" lon="2.58996">
        <ele>330.9</ele>
        <time>2018-11-25T23:15:44Z</time>
      </trkpt>
      <trkpt lat="42.2849" lon="2.58993">
        <ele>331</ele>
        <time>2018-11-25T23:15:45Z</time>
      </trkpt>
      <trkpt lat="42.28499" lon="2.58978">
        <ele>331.8</ele>
        <time>2018-11-25T23:15:51Z</time>
      </trkpt>
      <trkpt lat="42.28502" lon="2.58976">
        <ele>331.8</ele>
        <time>2018-11-25T23:15:52Z</time>
      </trkpt>
      <trkpt lat="42.28503" lon="2.58973">
        <ele>332.1</ele>
        <time>2018-11-25T23:15:53Z</time>
      </trkpt>
      <trkpt lat="42.28512" lon="2.5897">
        <ele>333.3</ele>
        <time>2018-11-25T23:15:57Z</time>
      </trkpt>
      <trkpt lat="42.28522" lon="2.58975">
        <ele>334.3</ele>
        <time>2018-11-25T23:16:01Z</time>
      </trkpt>
      <trkpt lat="42.28523" lon="2.58975">
        <ele>334.3</ele>
        <time>2018-11-25T23:16:02Z</time>
      </trkpt>
      <trkpt lat="42.2853" lon="2.58982">
        <ele>335.1</ele>
        <time>2018-11-25T23:16:05Z</time>
      </trkpt>
      <trkpt lat="42.28532" lon="2.58984">
        <ele>335.3</ele>
        <time>2018-11-25T23:16:06Z</time>
      </trkpt>
      <trkpt lat="42.28539" lon="2.58988">
        <ele>335.8</ele>
        <time>2018-11-25T23:16:09Z</time>
      </trkpt>
      <trkpt lat="42.28549" lon="2.5899">
        <ele>337.4</ele>
        <time>2018-11-25T23:16:13Z</time>
      </trkpt>
      <trkpt lat="42.28555" lon="2.58998">
        <ele>337.9</ele>
        <time>2018-11-25T23:16:16Z</time>
      </trkpt>
      <trkpt lat="42.28557" lon="2.59001">
        <ele>338</ele>
        <time>2018-11-25T23:16:17Z</time>
      </trkpt>
      <trkpt lat="42.28564" lon="2.59003">
        <ele>337.8</ele>
        <time>2018-11-25T23:16:20Z</time>
      </trkpt>
      <trkpt lat="42.2857" lon="2.58999">
        <ele>337.3</ele>
        <time>2018-11-25T23:16:23Z</time>
      </trkpt>
      <trkpt lat="42.28579" lon="2.58995">
        <ele>336</ele>
        <time>2018-11-25T23:16:27Z</time>
      </trkpt>
      <trkpt lat="42.28578" lon="2.58989">
        <ele>334.4</ele>
        <time>2018-11-25T23:16:29Z</time>
      </trkpt>
      <trkpt lat="42.28576" lon="2.58989">
        <ele>333.8</ele>
        <time>2018-11-25T23:16:29Z</time>
      </trkpt>
      <trkpt lat="42.28573" lon="2.58987">
        <ele>332.3</ele>
        <time>2018-11-25T23:16:31Z</time>
      </trkpt>
      <trkpt lat="42.28575" lon="2.58984">
        <ele>331.5</ele>
        <time>2018-11-25T23:16:32Z</time>
      </trkpt>
      <trkpt lat="42.28584" lon="2.58977">
        <ele>329.5</ele>
        <time>2018-11-25T23:16:36Z</time>
      </trkpt>
      <trkpt lat="42.2859" lon="2.58973">
        <ele>328.2</ele>
        <time>2018-11-25T23:16:39Z</time>
      </trkpt>
      <trkpt lat="42.28595" lon="2.58962">
        <ele>326.5</ele>
        <time>2018-11-25T23:16:42Z</time>
      </trkpt>
      <trkpt lat="42.28598" lon="2.5895">
        <ele>325.2</ele>
        <time>2018-11-25T23:16:46Z</time>
      </trkpt>
      <trkpt lat="42.286" lon="2.58942">
        <ele>324.6</ele>
        <time>2018-11-25T23:16:49Z</time>
      </trkpt>
      <trkpt lat="42.28603" lon="2.58936">
        <ele>323.7</ele>
        <time>2018-11-25T23:16:51Z</time>
      </trkpt>
      <trkpt lat="42.28606" lon="2.58939">
        <ele>322.9</ele>
        <time>2018-11-25T23:16:52Z</time>
      </trkpt>
      <trkpt lat="42.28611" lon="2.58944">
        <ele>322.2</ele>
        <time>2018-11-25T23:16:55Z</time>
      </trkpt>
      <trkpt lat="42.28618" lon="2.58945">
        <ele>321.7</ele>
        <time>2018-11-25T23:16:58Z</time>
      </trkpt>
      <trkpt lat="42.28624" lon="2.58946">
        <ele>321.6</ele>
        <time>2018-11-25T23:17:00Z</time>
      </trkpt>
      <trkpt lat="42.28627" lon="2.58946">
        <ele>321.8</ele>
        <time>2018-11-25T23:17:01Z</time>
      </trkpt>
      <trkpt lat="42.28636" lon="2.58948">
        <ele>322.5</ele>
        <time>2018-11-25T23:17:05Z</time>
      </trkpt>
      <trkpt lat="42.28638" lon="2.58948">
        <ele>322.6</ele>
        <time>2018-11-25T23:17:05Z</time>
      </trkpt>
      <trkpt lat="42.28644" lon="2.58948">
        <ele>322.7</ele>
        <time>2018-11-25T23:17:08Z</time>
      </trkpt>
      <trkpt lat="42.28652" lon="2.58949">
        <ele>322.7</ele>
        <time>2018-11-25T23:17:11Z</time>
      </trkpt>
      <trkpt lat="42.28658" lon="2.58949">
        <ele>322.7</ele>
        <time>2018-11-25T23:17:13Z</time>
      </trkpt>
      <trkpt lat="42.28666" lon="2.58949">
        <ele>322.7</ele>
        <time>2018-11-25T23:17:17Z</time>
      </trkpt>
      <trkpt lat="42.28674" lon="2.58947">
        <ele>322.9</ele>
        <time>2018-11-25T23:17:20Z</time>
      </trkpt>
      <trkpt lat="42.28676" lon="2.58947">
        <ele>323.2</ele>
        <time>2018-11-25T23:17:21Z</time>
      </trkpt>
      <trkpt lat="42.28701" lon="2.58947">
        <ele>323.7</ele>
        <time>2018-11-25T23:17:31Z</time>
      </trkpt>
      <trkpt lat="42.28709" lon="2.58946">
        <ele>323.1</ele>
        <time>2018-11-25T23:17:34Z</time>
      </trkpt>
      <trkpt lat="42.28712" lon="2.58944">
        <ele>323.6</ele>
        <time>2018-11-25T23:17:35Z</time>
      </trkpt>
      <trkpt lat="42.28726" lon="2.5894">
        <ele>323.7</ele>
        <time>2018-11-25T23:17:41Z</time>
      </trkpt>
      <trkpt lat="42.2873" lon="2.58938">
        <ele>324</ele>
        <time>2018-11-25T23:17:43Z</time>
      </trkpt>
      <trkpt lat="42.28804" lon="2.58921">
        <ele>324.1</ele>
        <time>2018-11-25T23:18:13Z</time>
      </trkpt>
      <trkpt lat="42.28811" lon="2.58919">
        <ele>324.1</ele>
        <time>2018-11-25T23:18:16Z</time>
      </trkpt>
      <trkpt lat="42.28813" lon="2.58919">
        <ele>324.2</ele>
        <time>2018-11-25T23:18:16Z</time>
      </trkpt>
      <trkpt lat="42.28815" lon="2.5892">
        <ele>324.4</ele>
        <time>2018-11-25T23:18:18Z</time>
      </trkpt>
      <trkpt lat="42.28819" lon="2.5892">
        <ele>324.6</ele>
        <time>2018-11-25T23:18:19Z</time>
      </trkpt>
      <trkpt lat="42.28826" lon="2.58912">
        <ele>325</ele>
        <time>2018-11-25T23:18:23Z</time>
      </trkpt>
      <trkpt lat="42.28834" lon="2.58906">
        <ele>325.2</ele>
        <time>2018-11-25T23:18:26Z</time>
      </trkpt>
      <trkpt lat="42.28838" lon="2.58905">
        <ele>325.4</ele>
        <time>2018-11-25T23:18:28Z</time>
      </trkpt>
      <trkpt lat="42.28848" lon="2.58899">
        <ele>324.6</ele>
        <time>2018-11-25T23:18:32Z</time>
      </trkpt>
      <trkpt lat="42.28856" lon="2.58891">
        <ele>324.7</ele>
        <time>2018-11-25T23:18:36Z</time>
      </trkpt>
      <trkpt lat="42.28859" lon="2.58879">
        <ele>325.8</ele>
        <time>2018-11-25T23:18:40Z</time>
      </trkpt>
      <trkpt lat="42.28859" lon="2.58879">
        <ele>325.9</ele>
        <time>2018-11-25T23:18:40Z</time>
      </trkpt>
      <trkpt lat="42.28985" lon="2.58835">
        <ele>342.4</ele>
        <time>2018-11-25T23:19:32Z</time>
      </trkpt>
      <trkpt lat="42.28988" lon="2.58829">
        <ele>343.3</ele>
        <time>2018-11-25T23:19:34Z</time>
      </trkpt>
      <trkpt lat="42.28989" lon="2.58829">
        <ele>343.5</ele>
        <time>2018-11-25T23:19:35Z</time>
      </trkpt>
      <trkpt lat="42.29027" lon="2.58775">
        <ele>348</ele>
        <time>2018-11-25T23:19:56Z</time>
      </trkpt>
      <trkpt lat="42.29031" lon="2.58776">
        <ele>348.3</ele>
        <time>2018-11-25T23:19:58Z</time>
      </trkpt>
      <trkpt lat="42.29038" lon="2.58775">
        <ele>349.1</ele>
        <time>2018-11-25T23:20:01Z</time>
      </trkpt>
      <trkpt lat="42.29046" lon="2.58767">
        <ele>350.8</ele>
        <time>2018-11-25T23:20:05Z</time>
      </trkpt>
      <trkpt lat="42.2905" lon="2.58758">
        <ele>352.1</ele>
        <time>2018-11-25T23:20:08Z</time>
      </trkpt>
      <trkpt lat="42.29055" lon="2.5875">
        <ele>353.9</ele>
        <time>2018-11-25T23:20:11Z</time>
      </trkpt>
      <trkpt lat="42.29059" lon="2.58739">
        <ele>356.4</ele>
        <time>2018-11-25T23:20:15Z</time>
      </trkpt>
      <trkpt lat="42.29065" lon="2.58735">
        <ele>358</ele>
        <time>2018-11-25T23:20:18Z</time>
      </trkpt>
      <trkpt lat="42.29077" lon="2.58729">
        <ele>360.7</ele>
        <time>2018-11-25T23:20:22Z</time>
      </trkpt>
      <trkpt lat="42.29079" lon="2.58722">
        <ele>361.3</ele>
        <time>2018-11-25T23:20:25Z</time>
      </trkpt>
      <trkpt lat="42.29081" lon="2.58713">
        <ele>362.9</ele>
        <time>2018-11-25T23:20:28Z</time>
      </trkpt>
      <trkpt lat="42.29082" lon="2.58706">
        <ele>363.8</ele>
        <time>2018-11-25T23:20:30Z</time>
      </trkpt>
      <trkpt lat="42.29084" lon="2.58696">
        <ele>364.2</ele>
        <time>2018-11-25T23:20:33Z</time>
      </trkpt>
      <trkpt lat="42.29085" lon="2.58694">
        <ele>364.3</ele>
        <time>2018-11-25T23:20:33Z</time>
      </trkpt>
      <trkpt lat="42.29088" lon="2.58683">
        <ele>364.5</ele>
        <time>2018-11-25T23:20:37Z</time>
      </trkpt>
      <trkpt lat="42.29097" lon="2.58671">
        <ele>363.9</ele>
        <time>2018-11-25T23:20:42Z</time>
      </trkpt>
      <trkpt lat="42.29098" lon="2.58658">
        <ele>365</ele>
        <time>2018-11-25T23:20:46Z</time>
      </trkpt>
      <trkpt lat="42.29099" lon="2.5865">
        <ele>366.1</ele>
        <time>2018-11-25T23:20:48Z</time>
      </trkpt>
      <trkpt lat="42.29149" lon="2.58656">
        <ele>378.4</ele>
        <time>2018-11-25T23:21:08Z</time>
      </trkpt>
      <trkpt lat="42.29153" lon="2.5866">
        <ele>380.3</ele>
        <time>2018-11-25T23:21:10Z</time>
      </trkpt>
      <trkpt lat="42.29154" lon="2.58661">
        <ele>380.8</ele>
        <time>2018-11-25T23:21:10Z</time>
      </trkpt>
      <trkpt lat="42.2918" lon="2.58682">
        <ele>383.7</ele>
        <time>2018-11-25T23:21:23Z</time>
      </trkpt>
      <trkpt lat="42.29186" lon="2.58684">
        <ele>384.4</ele>
        <time>2018-11-25T23:21:25Z</time>
      </trkpt>
      <trkpt lat="42.29192" lon="2.58685">
        <ele>385.4</ele>
        <time>2018-11-25T23:21:28Z</time>
      </trkpt>
      <trkpt lat="42.29198" lon="2.58689">
        <ele>387</ele>
        <time>2018-11-25T23:21:30Z</time>
      </trkpt>
      <trkpt lat="42.29201" lon="2.58691">
        <ele>387.6</ele>
        <time>2018-11-25T23:21:32Z</time>
      </trkpt>
      <trkpt lat="42.29205" lon="2.58694">
        <ele>388.2</ele>
        <time>2018-11-25T23:21:34Z</time>
      </trkpt>
      <trkpt lat="42.29207" lon="2.58696">
        <ele>388.3</ele>
        <time>2018-11-25T23:21:35Z</time>
      </trkpt>
      <trkpt lat="42.29214" lon="2.587">
        <ele>388.7</ele>
        <time>2018-11-25T23:21:38Z</time>
      </trkpt>
      <trkpt lat="42.29221" lon="2.58704">
        <ele>389.5</ele>
        <time>2018-11-25T23:21:41Z</time>
      </trkpt>
      <trkpt lat="42.29229" lon="2.58708">
        <ele>391.5</ele>
        <time>2018-11-25T23:21:44Z</time>
      </trkpt>
      <trkpt lat="42.29235" lon="2.58713">
        <ele>392.8</ele>
        <time>2018-11-25T23:21:47Z</time>
      </trkpt>
      <trkpt lat="42.29241" lon="2.58716">
        <ele>394.1</ele>
        <time>2018-11-25T23:21:49Z</time>
      </trkpt>
      <trkpt lat="42.29247" lon="2.58718">
        <ele>395.8</ele>
        <time>2018-11-25T23:21:52Z</time>
      </trkpt>
      <trkpt lat="42.29254" lon="2.58717">
        <ele>397.7</ele>
        <time>2018-11-25T23:21:55Z</time>
      </trkpt>
      <trkpt lat="42.29258" lon="2.58714">
        <ele>398.8</ele>
        <time>2018-11-25T23:21:57Z</time>
      </trkpt>
      <trkpt lat="42.29262" lon="2.58716">
        <ele>400.5</ele>
        <time>2018-11-25T23:21:58Z</time>
      </trkpt>
      <trkpt lat="42.29297" lon="2.58619">
        <ele>444.8</ele>
        <time>2018-11-25T23:22:30Z</time>
      </trkpt>
      <trkpt lat="42.29301" lon="2.58619">
        <ele>445.2</ele>
        <time>2018-11-25T23:22:31Z</time>
      </trkpt>
      <trkpt lat="42.29304" lon="2.58619">
        <ele>445.9</ele>
        <time>2018-11-25T23:22:33Z</time>
      </trkpt>
      <trkpt lat="42.29313" lon="2.58619">
        <ele>447.2</ele>
        <time>2018-11-25T23:22:36Z</time>
      </trkpt>
      <trkpt lat="42.29322" lon="2.58618">
        <ele>448.3</ele>
        <time>2018-11-25T23:22:40Z</time>
      </trkpt>
      <trkpt lat="42.29327" lon="2.58617">
        <ele>449</ele>
        <time>2018-11-25T23:22:42Z</time>
      </trkpt>
      <trkpt lat="42.2936" lon="2.58618">
        <ele>455.3</ele>
        <time>2018-11-25T23:22:55Z</time>
      </trkpt>
      <trkpt lat="42.29367" lon="2.58622">
        <ele>456.2</ele>
        <time>2018-11-25T23:22:58Z</time>
      </trkpt>
      <trkpt lat="42.29369" lon="2.58623">
        <ele>456.3</ele>
        <time>2018-11-25T23:22:59Z</time>
      </trkpt>
      <trkpt lat="42.29377" lon="2.58626">
        <ele>457.9</ele>
        <time>2018-11-25T23:23:02Z</time>
      </trkpt>
      <trkpt lat="42.29382" lon="2.58628">
        <ele>458.9</ele>
        <time>2018-11-25T23:23:05Z</time>
      </trkpt>
      <trkpt lat="42.29389" lon="2.58634">
        <ele>459.3</ele>
        <time>2018-11-25T23:23:08Z</time>
      </trkpt>
      <trkpt lat="42.29397" lon="2.58636">
        <ele>460.5</ele>
        <time>2018-11-25T23:23:11Z</time>
      </trkpt>
      <trkpt lat="42.29408" lon="2.58637">
        <ele>462.1</ele>
        <time>2018-11-25T23:23:15Z</time>
      </trkpt>
      <trkpt lat="42.29413" lon="2.58639">
        <ele>462.8</ele>
        <time>2018-11-25T23:23:18Z</time>
      </trkpt>
      <trkpt lat="42.29421" lon="2.58641">
        <ele>463.7</ele>
        <time>2018-11-25T23:23:21Z</time>
      </trkpt>
      <trkpt lat="42.29426" lon="2.58642">
        <ele>464.3</ele>
        <time>2018-11-25T23:23:23Z</time>
      </trkpt>
      <trkpt lat="42.29435" lon="2.58644">
        <ele>465.3</ele>
        <time>2018-11-25T23:23:27Z</time>
      </trkpt>
      <trkpt lat="42.29442" lon="2.58642">
        <ele>466.7</ele>
        <time>2018-11-25T23:23:29Z</time>
      </trkpt>
      <trkpt lat="42.29443" lon="2.58642">
        <ele>467</ele>
        <time>2018-11-25T23:23:30Z</time>
      </trkpt>
      <trkpt lat="42.29477" lon="2.58604">
        <ele>479.9</ele>
        <time>2018-11-25T23:23:47Z</time>
      </trkpt>
      <trkpt lat="42.29482" lon="2.58604">
        <ele>480.4</ele>
        <time>2018-11-25T23:23:49Z</time>
      </trkpt>
      <trkpt lat="42.29487" lon="2.58603">
        <ele>481.1</ele>
        <time>2018-11-25T23:23:51Z</time>
      </trkpt>
      <trkpt lat="42.29492" lon="2.58601">
        <ele>482.4</ele>
        <time>2018-11-25T23:23:54Z</time>
      </trkpt>
      <trkpt lat="42.29497" lon="2.58599">
        <ele>483.3</ele>
        <time>2018-11-25T23:23:56Z</time>
      </trkpt>
      <trkpt lat="42.29498" lon="2.58541">
        <ele>496.9</ele>
        <time>2018-11-25T23:24:13Z</time>
      </trkpt>
      <trkpt lat="42.29494" lon="2.58537">
        <ele>497.5</ele>
        <time>2018-11-25T23:24:15Z</time>
      </trkpt>
      <trkpt lat="42.2949" lon="2.58535">
        <ele>497.9</ele>
        <time>2018-11-25T23:24:17Z</time>
      </trkpt>
      <trkpt lat="42.29486" lon="2.58532">
        <ele>498.3</ele>
        <time>2018-11-25T23:24:19Z</time>
      </trkpt>
      <trkpt lat="42.2948" lon="2.58529">
        <ele>499.4</ele>
        <time>2018-11-25T23:24:21Z</time>
      </trkpt>
      <trkpt lat="42.29474" lon="2.58519">
        <ele>500.2</ele>
        <time>2018-11-25T23:24:25Z</time>
      </trkpt>
      <trkpt lat="42.29475" lon="2.58512">
        <ele>502</ele>
        <time>2018-11-25T23:24:27Z</time>
      </trkpt>
      <trkpt lat="42.29502" lon="2.584">
        <ele>539.7</ele>
        <time>2018-11-25T23:25:02Z</time>
      </trkpt>
      <trkpt lat="42.29508" lon="2.58399">
        <ele>540.6</ele>
        <time>2018-11-25T23:25:04Z</time>
      </trkpt>
      <trkpt lat="42.29511" lon="2.58393">
        <ele>541.8</ele>
        <time>2018-11-25T23:25:07Z</time>
      </trkpt>
      <trkpt lat="42.29509" lon="2.58391">
        <ele>542.3</ele>
        <time>2018-11-25T23:25:07Z</time>
      </trkpt>
      <trkpt lat="42.29504" lon="2.58388">
        <ele>543.8</ele>
        <time>2018-11-25T23:25:10Z</time>
      </trkpt>
      <trkpt lat="42.29503" lon="2.58385">
        <ele>544.6</ele>
        <time>2018-11-25T23:25:11Z</time>
      </trkpt>
      <trkpt lat="42.29461" lon="2.58361">
        <ele>552.1</ele>
        <time>2018-11-25T23:25:29Z</time>
      </trkpt>
      <trkpt lat="42.29455" lon="2.5836">
        <ele>553.1</ele>
        <time>2018-11-25T23:25:31Z</time>
      </trkpt>
      <trkpt lat="42.29443" lon="2.58364">
        <ele>555.4</ele>
        <time>2018-11-25T23:25:36Z</time>
      </trkpt>
      <trkpt lat="42.29437" lon="2.58361">
        <ele>556.9</ele>
        <time>2018-11-25T23:25:39Z</time>
      </trkpt>
      <trkpt lat="42.29437" lon="2.5836">
        <ele>557</ele>
        <time>2018-11-25T23:25:39Z</time>
      </trkpt>
      <trkpt lat="42.29445" lon="2.5835">
        <ele>557.9</ele>
        <time>2018-11-25T23:25:43Z</time>
      </trkpt>
      <trkpt lat="42.29449" lon="2.58346">
        <ele>558.3</ele>
        <time>2018-11-25T23:25:45Z</time>
      </trkpt>
      <trkpt lat="42.29455" lon="2.58341">
        <ele>559.8</ele>
        <time>2018-11-25T23:25:48Z</time>
      </trkpt>
      <trkpt lat="42.29461" lon="2.58335">
        <ele>561.1</ele>
        <time>2018-11-25T23:25:51Z</time>
      </trkpt>
      <trkpt lat="42.29468" lon="2.5833">
        <ele>562.1</ele>
        <time>2018-11-25T23:25:54Z</time>
      </trkpt>
      <trkpt lat="42.29478" lon="2.58321">
        <ele>563.5</ele>
        <time>2018-11-25T23:25:59Z</time>
      </trkpt>
      <trkpt lat="42.29485" lon="2.58318">
        <ele>564.7</ele>
        <time>2018-11-25T23:26:02Z</time>
      </trkpt>
      <trkpt lat="42.29543" lon="2.58234">
        <ele>588.2</ele>
        <time>2018-11-25T23:26:36Z</time>
      </trkpt>
      <trkpt lat="42.29545" lon="2.58224">
        <ele>589.8</ele>
        <time>2018-11-25T23:26:39Z</time>
      </trkpt>
      <trkpt lat="42.29545" lon="2.58214">
        <ele>591.4</ele>
        <time>2018-11-25T23:26:42Z</time>
      </trkpt>
      <trkpt lat="42.29546" lon="2.58202">
        <ele>594</ele>
        <time>2018-11-25T23:26:46Z</time>
      </trkpt>
      <trkpt lat="42.29547" lon="2.58198">
        <ele>594.5</ele>
        <time>2018-11-25T23:26:47Z</time>
      </trkpt>
      <trkpt lat="42.2955" lon="2.58188">
        <ele>595.2</ele>
        <time>2018-11-25T23:26:50Z</time>
      </trkpt>
      <trkpt lat="42.29553" lon="2.58177">
        <ele>596.1</ele>
        <time>2018-11-25T23:26:53Z</time>
      </trkpt>
      <trkpt lat="42.29556" lon="2.58172">
        <ele>596.4</ele>
        <time>2018-11-25T23:26:55Z</time>
      </trkpt>
      <trkpt lat="42.2956" lon="2.58163">
        <ele>597</ele>
        <time>2018-11-25T23:26:58Z</time>
      </trkpt>
      <trkpt lat="42.29567" lon="2.58156">
        <ele>597.7</ele>
        <time>2018-11-25T23:27:02Z</time>
      </trkpt>
      <trkpt lat="42.29569" lon="2.58153">
        <ele>597.9</ele>
        <time>2018-11-25T23:27:03Z</time>
      </trkpt>
      <trkpt lat="42.29574" lon="2.58147">
        <ele>599.4</ele>
        <time>2018-11-25T23:27:06Z</time>
      </trkpt>
      <trkpt lat="42.29577" lon="2.58147">
        <ele>599.8</ele>
        <time>2018-11-25T23:27:07Z</time>
      </trkpt>
      <trkpt lat="42.29584" lon="2.58145">
        <ele>600.4</ele>
        <time>2018-11-25T23:27:10Z</time>
      </trkpt>
      <trkpt lat="42.29591" lon="2.58144">
        <ele>601.2</ele>
        <time>2018-11-25T23:27:13Z</time>
      </trkpt>
      <trkpt lat="42.29594" lon="2.58144">
        <ele>601.8</ele>
        <time>2018-11-25T23:27:14Z</time>
      </trkpt>
      <trkpt lat="42.29598" lon="2.58141">
        <ele>602</ele>
        <time>2018-11-25T23:27:15Z</time>
      </trkpt>
      <trkpt lat="42.29604" lon="2.58137">
        <ele>602.7</ele>
        <time>2018-11-25T23:27:18Z</time>
      </trkpt>
      <trkpt lat="42.29608" lon="2.58132">
        <ele>604.5</ele>
        <time>2018-11-25T23:27:21Z</time>
      </trkpt>
      <trkpt lat="42.29614" lon="2.58125">
        <ele>606.1</ele>
        <time>2018-11-25T23:27:24Z</time>
      </trkpt>
      <trkpt lat="42.29616" lon="2.58122">
        <ele>607.2</ele>
        <time>2018-11-25T23:27:25Z</time>
      </trkpt>
      <trkpt lat="42.2962" lon="2.58013">
        <ele>639</ele>
        <time>2018-11-25T23:27:57Z</time>
      </trkpt>
      <trkpt lat="42.29623" lon="2.58007">
        <ele>639.5</ele>
        <time>2018-11-25T23:27:59Z</time>
      </trkpt>
      <trkpt lat="42.29622" lon="2.58007">
        <ele>639.8</ele>
        <time>2018-11-25T23:27:59Z</time>
      </trkpt>
      <trkpt lat="42.29628" lon="2.58002">
        <ele>641.8</ele>
        <time>2018-11-25T23:28:02Z</time>
      </trkpt>
      <trkpt lat="42.29628" lon="2.58001">
        <ele>642.6</ele>
        <time>2018-11-25T23:28:02Z</time>
      </trkpt>
      <trkpt lat="42.29661" lon="2.57931">
        <ele>654.7</ele>
        <time>2018-11-25T23:28:27Z</time>
      </trkpt>
      <trkpt lat="42.29668" lon="2.57931">
        <ele>654.8</ele>
        <time>2018-11-25T23:28:30Z</time>
      </trkpt>
      <trkpt lat="42.2968" lon="2.57924">
        <ele>654.7</ele>
        <time>2018-11-25T23:28:35Z</time>
      </trkpt>
      <trkpt lat="42.29683" lon="2.57921">
        <ele>654.9</ele>
        <time>2018-11-25T23:28:36Z</time>
      </trkpt>
      <trkpt lat="42.29687" lon="2.57912">
        <ele>654.7</ele>
        <time>2018-11-25T23:28:39Z</time>
      </trkpt>
      <trkpt lat="42.2969" lon="2.57904">
        <ele>655.2</ele>
        <time>2018-11-25T23:28:42Z</time>
      </trkpt>
      <trkpt lat="42.29696" lon="2.57894">
        <ele>656.4</ele>
        <time>2018-11-25T23:28:46Z</time>
      </trkpt>
      <trkpt lat="42.29701" lon="2.57885">
        <ele>657.4</ele>
        <time>2018-11-25T23:28:49Z</time>
      </trkpt>
      <trkpt lat="42.29706" lon="2.57875">
        <ele>658.2</ele>
        <time>2018-11-25T23:28:52Z</time>
      </trkpt>
      <trkpt lat="42.29708" lon="2.57865">
        <ele>660.1</ele>
        <time>2018-11-25T23:28:56Z</time>
      </trkpt>
      <trkpt lat="42.29709" lon="2.5786">
        <ele>661.5</ele>
        <time>2018-11-25T23:28:57Z</time>
      </trkpt>
      <trkpt lat="42.29712" lon="2.57851">
        <ele>662.3</ele>
        <time>2018-11-25T23:29:00Z</time>
      </trkpt>
      <trkpt lat="42.29713" lon="2.5785">
        <ele>662.5</ele>
        <time>2018-11-25T23:29:00Z</time>
      </trkpt>
      <trkpt lat="42.29822" lon="2.57734">
        <ele>689.4</ele>
        <time>2018-11-25T23:29:56Z</time>
      </trkpt>
      <trkpt lat="42.29827" lon="2.57719">
        <ele>690.9</ele>
        <time>2018-11-25T23:30:01Z</time>
      </trkpt>
      <trkpt lat="42.29831" lon="2.57709">
        <ele>691.9</ele>
        <time>2018-11-25T23:30:05Z</time>
      </trkpt>
      <trkpt lat="42.29839" lon="2.57685">
        <ele>691.3</ele>
        <time>2018-11-25T23:30:12Z</time>
      </trkpt>
      <trkpt lat="42.29842" lon="2.57676">
        <ele>691.2</ele>
        <time>2018-11-25T23:30:15Z</time>
      </trkpt>
      <trkpt lat="42.29842" lon="2.57668">
        <ele>691.5</ele>
        <time>2018-11-25T23:30:18Z</time>
      </trkpt>
      <trkpt lat="42.29844" lon="2.5766">
        <ele>692.5</ele>
        <time>2018-11-25T23:30:20Z</time>
      </trkpt>
      <trkpt lat="42.29951" lon="2.57534">
        <ele>709</ele>
        <time>2018-11-25T23:31:17Z</time>
      </trkpt>
      <trkpt lat="42.29954" lon="2.57528">
        <ele>709.4</ele>
        <time>2018-11-25T23:31:19Z</time>
      </trkpt>
      <trkpt lat="42.29956" lon="2.57516">
        <ele>709.9</ele>
        <time>2018-11-25T23:31:23Z</time>
      </trkpt>
      <trkpt lat="42.29956" lon="2.57504">
        <ele>710.6</ele>
        <time>2018-11-25T23:31:26Z</time>
      </trkpt>
      <trkpt lat="42.29957" lon="2.57488">
        <ele>711.5</ele>
        <time>2018-11-25T23:31:31Z</time>
      </trkpt>
      <trkpt lat="42.29961" lon="2.57471">
        <ele>712.6</ele>
        <time>2018-11-25T23:31:36Z</time>
      </trkpt>
      <trkpt lat="42.29963" lon="2.57459">
        <ele>714.2</ele>
        <time>2018-11-25T23:31:40Z</time>
      </trkpt>
      <trkpt lat="42.29962" lon="2.57454">
        <ele>714.7</ele>
        <time>2018-11-25T23:31:41Z</time>
      </trkpt>
      <trkpt lat="42.29963" lon="2.57451">
        <ele>715.2</ele>
        <time>2018-11-25T23:31:42Z</time>
      </trkpt>
      <trkpt lat="42.29969" lon="2.57434">
        <ele>715.8</ele>
        <time>2018-11-25T23:31:48Z</time>
      </trkpt>
      <trkpt lat="42.29968" lon="2.57424">
        <ele>717.2</ele>
        <time>2018-11-25T23:31:51Z</time>
      </trkpt>
      <trkpt lat="42.29969" lon="2.5742">
        <ele>717.4</ele>
        <time>2018-11-25T23:31:52Z</time>
      </trkpt>
      <trkpt lat="42.2997" lon="2.57412">
        <ele>717.9</ele>
        <time>2018-11-25T23:31:54Z</time>
      </trkpt>
      <trkpt lat="42.29975" lon="2.57397">
        <ele>718.7</ele>
        <time>2018-11-25T23:31:59Z</time>
      </trkpt>
      <trkpt lat="42.29974" lon="2.57387">
        <ele>719.8</ele>
        <time>2018-11-25T23:32:02Z</time>
      </trkpt>
      <trkpt lat="42.29977" lon="2.57378">
        <ele>718.3</ele>
        <time>2018-11-25T23:32:05Z</time>
      </trkpt>
      <trkpt lat="42.29977" lon="2.57372">
        <ele>719.4</ele>
        <time>2018-11-25T23:32:07Z</time>
      </trkpt>
      <trkpt lat="42.29981" lon="2.57367">
        <ele>719.7</ele>
        <time>2018-11-25T23:32:09Z</time>
      </trkpt>
      <trkpt lat="42.29984" lon="2.5736">
        <ele>720</ele>
        <time>2018-11-25T23:32:11Z</time>
      </trkpt>
      <trkpt lat="42.29983" lon="2.57358">
        <ele>720.3</ele>
        <time>2018-11-25T23:32:12Z</time>
      </trkpt>
      <trkpt lat="42.29985" lon="2.57345">
        <ele>721.3</ele>
        <time>2018-11-25T23:32:16Z</time>
      </trkpt>
      <trkpt lat="42.29983" lon="2.57338">
        <ele>722.4</ele>
        <time>2018-11-25T23:32:18Z</time>
      </trkpt>
      <trkpt lat="42.29979" lon="2.57327">
        <ele>723.6</ele>
        <time>2018-11-25T23:32:22Z</time>
      </trkpt>
      <trkpt lat="42.2998" lon="2.57313">
        <ele>725.1</ele>
        <time>2018-11-25T23:32:26Z</time>
      </trkpt>
      <trkpt lat="42.29973" lon="2.57302">
        <ele>727.5</ele>
        <time>2018-11-25T23:32:30Z</time>
      </trkpt>
      <trkpt lat="42.29972" lon="2.573">
        <ele>727.9</ele>
        <time>2018-11-25T23:32:31Z</time>
      </trkpt>
      <trkpt lat="42.29967" lon="2.57286">
        <ele>730</ele>
        <time>2018-11-25T23:32:36Z</time>
      </trkpt>
      <trkpt lat="42.29965" lon="2.57272">
        <ele>731.6</ele>
        <time>2018-11-25T23:32:40Z</time>
      </trkpt>
      <trkpt lat="42.29971" lon="2.57261">
        <ele>732.7</ele>
        <time>2018-11-25T23:32:44Z</time>
      </trkpt>
      <trkpt lat="42.29976" lon="2.57248">
        <ele>733.5</ele>
        <time>2018-11-25T23:32:48Z</time>
      </trkpt>
      <trkpt lat="42.29982" lon="2.57241">
        <ele>734.2</ele>
        <time>2018-11-25T23:32:51Z</time>
      </trkpt>
      <trkpt lat="42.29983" lon="2.57239">
        <ele>734.5</ele>
        <time>2018-11-25T23:32:52Z</time>
      </trkpt>
      <trkpt lat="42.30002" lon="2.57233">
        <ele>737.3</ele>
        <time>2018-11-25T23:33:00Z</time>
      </trkpt>
      <trkpt lat="42.30005" lon="2.57232">
        <ele>737.5</ele>
        <time>2018-11-25T23:33:01Z</time>
      </trkpt>
      <trkpt lat="42.30012" lon="2.5723">
        <ele>738.8</ele>
        <time>2018-11-25T23:33:04Z</time>
      </trkpt>
      <trkpt lat="42.30017" lon="2.57233">
        <ele>739.4</ele>
        <time>2018-11-25T23:33:06Z</time>
      </trkpt>
      <trkpt lat="42.30017" lon="2.57239">
        <ele>740.2</ele>
        <time>2018-11-25T23:33:08Z</time>
      </trkpt>
      <trkpt lat="42.30016" lon="2.57245">
        <ele>741.5</ele>
        <time>2018-11-25T23:33:10Z</time>
      </trkpt>
      <trkpt lat="42.30016" lon="2.57245">
        <ele>741.6</ele>
        <time>2018-11-25T23:33:10Z</time>
      </trkpt>
      <trkpt lat="42.3006" lon="2.57241">
        <ele>757.1</ele>
        <time>2018-11-25T23:33:27Z</time>
      </trkpt>
      <trkpt lat="42.3007" lon="2.57241">
        <ele>758.1</ele>
        <time>2018-11-25T23:33:31Z</time>
      </trkpt>
      <trkpt lat="42.30078" lon="2.57241">
        <ele>758.9</ele>
        <time>2018-11-25T23:33:35Z</time>
      </trkpt>
      <trkpt lat="42.30085" lon="2.57242">
        <ele>759.3</ele>
        <time>2018-11-25T23:33:38Z</time>
      </trkpt>
      <trkpt lat="42.30087" lon="2.57243">
        <ele>759.4</ele>
        <time>2018-11-25T23:33:38Z</time>
      </trkpt>
      <trkpt lat="42.30089" lon="2.57251">
        <ele>759.8</ele>
        <time>2018-11-25T23:33:41Z</time>
      </trkpt>
      <trkpt lat="42.30092" lon="2.57258">
        <ele>760.6</ele>
        <time>2018-11-25T23:33:43Z</time>
      </trkpt>
      <trkpt lat="42.30094" lon="2.57259">
        <ele>760.7</ele>
        <time>2018-11-25T23:33:44Z</time>
      </trkpt>
      <trkpt lat="42.30116" lon="2.57257">
        <ele>762.2</ele>
        <time>2018-11-25T23:33:53Z</time>
      </trkpt>
      <trkpt lat="42.30126" lon="2.57254">
        <ele>762.6</ele>
        <time>2018-11-25T23:33:57Z</time>
      </trkpt>
      <trkpt lat="42.30135" lon="2.5725">
        <ele>763.2</ele>
        <time>2018-11-25T23:34:01Z</time>
      </trkpt>
      <trkpt lat="42.30136" lon="2.57249">
        <ele>763.6</ele>
        <time>2018-11-25T23:34:01Z</time>
      </trkpt>
      <trkpt lat="42.30237" lon="2.57031">
        <ele>829</ele>
        <time>2018-11-25T23:35:18Z</time>
      </trkpt>
      <trkpt lat="42.30241" lon="2.57035">
        <ele>829</ele>
        <time>2018-11-25T23:35:20Z</time>
      </trkpt>
      <trkpt lat="42.30321" lon="2.56957">
        <ele>856.8</ele>
        <time>2018-11-25T23:35:59Z</time>
      </trkpt>
      <trkpt lat="42.30323" lon="2.56958">
        <ele>858.2</ele>
        <time>2018-11-25T23:36:00Z</time>
      </trkpt>
      <trkpt lat="42.30341" lon="2.56936">
        <ele>867.5</ele>
        <time>2018-11-25T23:36:10Z</time>
      </trkpt>
      <trkpt lat="42.30346" lon="2.56935">
        <ele>869.8</ele>
        <time>2018-11-25T23:36:12Z</time>
      </trkpt>
      <trkpt lat="42.30347" lon="2.56933">
        <ele>870.4</ele>
        <time>2018-11-25T23:36:12Z</time>
      </trkpt>
      <trkpt lat="42.30349" lon="2.56927">
        <ele>872.8</ele>
        <time>2018-11-25T23:36:15Z</time>
      </trkpt>
      <trkpt lat="42.30351" lon="2.56924">
        <ele>874.2</ele>
        <time>2018-11-25T23:36:16Z</time>
      </trkpt>
      <trkpt lat="42.30478" lon="2.56857">
        <ele>940.7</ele>
        <time>2018-11-25T23:37:10Z</time>
      </trkpt>
      <trkpt lat="42.3048" lon="2.56857">
        <ele>941.5</ele>
        <time>2018-11-25T23:37:11Z</time>
      </trkpt>
      <trkpt lat="42.30519" lon="2.56915">
        <ele>948.1</ele>
        <time>2018-11-25T23:37:34Z</time>
      </trkpt>
      <trkpt lat="42.30523" lon="2.56917">
        <ele>948.3</ele>
        <time>2018-11-25T23:37:36Z</time>
      </trkpt>
      <trkpt lat="42.30527" lon="2.56923">
        <ele>949.2</ele>
        <time>2018-11-25T23:37:38Z</time>
      </trkpt>
      <trkpt lat="42.30528" lon="2.56927">
        <ele>949.7</ele>
        <time>2018-11-25T23:37:40Z</time>
      </trkpt>
      <trkpt lat="42.30535" lon="2.56933">
        <ele>950.8</ele>
        <time>2018-11-25T23:37:43Z</time>
      </trkpt>
      <trkpt lat="42.30536" lon="2.56934">
        <ele>950.9</ele>
        <time>2018-11-25T23:37:43Z</time>
      </trkpt>
      <trkpt lat="42.30542" lon="2.56935">
        <ele>952.5</ele>
        <time>2018-11-25T23:37:46Z</time>
      </trkpt>
      <trkpt lat="42.30546" lon="2.56941">
        <ele>955.3</ele>
        <time>2018-11-25T23:37:48Z</time>
      </trkpt>
      <trkpt lat="42.3055" lon="2.56944">
        <ele>956.7</ele>
        <time>2018-11-25T23:37:50Z</time>
      </trkpt>
      <trkpt lat="42.30555" lon="2.56948">
        <ele>957.1</ele>
        <time>2018-11-25T23:37:52Z</time>
      </trkpt>
      <trkpt lat="42.30555" lon="2.56948">
        <ele>957</ele>
        <time>2018-11-25T23:37:52Z</time>
      </trkpt>
      <trkpt lat="42.30634" lon="2.56971">
        <ele>996.2</ele>
        <time>2018-11-25T23:38:25Z</time>
      </trkpt>
      <trkpt lat="42.30636" lon="2.56972">
        <ele>996.6</ele>
        <time>2018-11-25T23:38:25Z</time>
      </trkpt>
      <trkpt lat="42.30689" lon="2.57013">
        <ele>1004.8</ele>
        <time>2018-11-25T23:38:50Z</time>
      </trkpt>
      <trkpt lat="42.30695" lon="2.57012">
        <ele>1005.2</ele>
        <time>2018-11-25T23:38:52Z</time>
      </trkpt>
      <trkpt lat="42.30703" lon="2.57011">
        <ele>1006.2</ele>
        <time>2018-11-25T23:38:56Z</time>
      </trkpt>
      <trkpt lat="42.30707" lon="2.57013">
        <ele>1006.8</ele>
        <time>2018-11-25T23:38:57Z</time>
      </trkpt>
      <trkpt lat="42.3071" lon="2.57014">
        <ele>1007.7</ele>
        <time>2018-11-25T23:38:59Z</time>
      </trkpt>
      <trkpt lat="42.30771" lon="2.57122">
        <ele>1021.1</ele>
        <time>2018-11-25T23:39:39Z</time>
      </trkpt>
      <trkpt lat="42.30778" lon="2.57135">
        <ele>1021.3</ele>
        <time>2018-11-25T23:39:44Z</time>
      </trkpt>
      <trkpt lat="42.30783" lon="2.57152">
        <ele>1021.5</ele>
        <time>2018-11-25T23:39:49Z</time>
      </trkpt>
      <trkpt lat="42.30787" lon="2.57158">
        <ele>1021.3</ele>
        <time>2018-11-25T23:39:51Z</time>
      </trkpt>
      <trkpt lat="42.30793" lon="2.57166">
        <ele>1022</ele>
        <time>2018-11-25T23:39:55Z</time>
      </trkpt>
      <trkpt lat="42.30801" lon="2.57173">
        <ele>1023.6</ele>
        <time>2018-11-25T23:39:58Z</time>
      </trkpt>
      <trkpt lat="42.30824" lon="2.57184">
        <ele>1025.7</ele>
        <time>2018-11-25T23:40:08Z</time>
      </trkpt>
      <trkpt lat="42.30828" lon="2.57186">
        <ele>1026.1</ele>
        <time>2018-11-25T23:40:10Z</time>
      </trkpt>
      <trkpt lat="42.30839" lon="2.57194">
        <ele>1027.4</ele>
        <time>2018-11-25T23:40:15Z</time>
      </trkpt>
      <trkpt lat="42.30845" lon="2.572">
        <ele>1028.5</ele>
        <time>2018-11-25T23:40:18Z</time>
      </trkpt>
      <trkpt lat="42.30849" lon="2.57205">
        <ele>1030.5</ele>
        <time>2018-11-25T23:40:20Z</time>
      </trkpt>
      <trkpt lat="42.30853" lon="2.57213">
        <ele>1032.6</ele>
        <time>2018-11-25T23:40:23Z</time>
      </trkpt>
      <trkpt lat="42.30858" lon="2.5722">
        <ele>1034.1</ele>
        <time>2018-11-25T23:40:26Z</time>
      </trkpt>
      <trkpt lat="42.30861" lon="2.57223">
        <ele>1034.5</ele>
        <time>2018-11-25T23:40:28Z</time>
      </trkpt>
      <trkpt lat="42.30866" lon="2.57227">
        <ele>1035.7</ele>
        <time>2018-11-25T23:40:30Z</time>
      </trkpt>
      <trkpt lat="42.30869" lon="2.57237">
        <ele>1036.9</ele>
        <time>2018-11-25T23:40:33Z</time>
      </trkpt>
      <trkpt lat="42.30874" lon="2.57248">
        <ele>1037.5</ele>
        <time>2018-11-25T23:40:37Z</time>
      </trkpt>
      <trkpt lat="42.30876" lon="2.57255">
        <ele>1038</ele>
        <time>2018-11-25T23:40:39Z</time>
      </trkpt>
      <trkpt lat="42.3088" lon="2.57265">
        <ele>1039.6</ele>
        <time>2018-11-25T23:40:42Z</time>
      </trkpt>
      <trkpt lat="42.30881" lon="2.57267">
        <ele>1040</ele>
        <time>2018-11-25T23:40:43Z</time>
      </trkpt>
      <trkpt lat="42.30886" lon="2.57278">
        <ele>1039.2</ele>
        <time>2018-11-25T23:40:47Z</time>
      </trkpt>
      <trkpt lat="42.30887" lon="2.57281">
        <ele>1039.9</ele>
        <time>2018-11-25T23:40:48Z</time>
      </trkpt>
      <trkpt lat="42.3089" lon="2.57289">
        <ele>1040.4</ele>
        <time>2018-11-25T23:40:51Z</time>
      </trkpt>
      <trkpt lat="42.30895" lon="2.57302">
        <ele>1041</ele>
        <time>2018-11-25T23:40:55Z</time>
      </trkpt>
      <trkpt lat="42.30897" lon="2.57304">
        <ele>1041.1</ele>
        <time>2018-11-25T23:40:56Z</time>
      </trkpt>
      <trkpt lat="42.30906" lon="2.57313">
        <ele>1042.7</ele>
        <time>2018-11-25T23:41:00Z</time>
      </trkpt>
      <trkpt lat="42.30909" lon="2.57319">
        <ele>1043.1</ele>
        <time>2018-11-25T23:41:02Z</time>
      </trkpt>
      <trkpt lat="42.3091" lon="2.57324">
        <ele>1043.3</ele>
        <time>2018-11-25T23:41:04Z</time>
      </trkpt>
      <trkpt lat="42.30913" lon="2.57332">
        <ele>1044.9</ele>
        <time>2018-11-25T23:41:07Z</time>
      </trkpt>
      <trkpt lat="42.30918" lon="2.5734">
        <ele>1045.5</ele>
        <time>2018-11-25T23:41:10Z</time>
      </trkpt>
      <trkpt lat="42.30924" lon="2.5735">
        <ele>1045.9</ele>
        <time>2018-11-25T23:41:14Z</time>
      </trkpt>
      <trkpt lat="42.30929" lon="2.57361">
        <ele>1047</ele>
        <time>2018-11-25T23:41:17Z</time>
      </trkpt>
      <trkpt lat="42.30934" lon="2.57369">
        <ele>1048.5</ele>
        <time>2018-11-25T23:41:21Z</time>
      </trkpt>
      <trkpt lat="42.30938" lon="2.57375">
        <ele>1049.9</ele>
        <time>2018-11-25T23:41:23Z</time>
      </trkpt>
      <trkpt lat="42.30938" lon="2.57375">
        <ele>1050.1</ele>
        <time>2018-11-25T23:41:23Z</time>
      </trkpt>
      <trkpt lat="42.30968" lon="2.57454">
        <ele>1057.6</ele>
        <time>2018-11-25T23:41:49Z</time>
      </trkpt>
      <trkpt lat="42.30977" lon="2.57458">
        <ele>1060.2</ele>
        <time>2018-11-25T23:41:53Z</time>
      </trkpt>
      <trkpt lat="42.30981" lon="2.57466">
        <ele>1060.4</ele>
        <time>2018-11-25T23:41:56Z</time>
      </trkpt>
      <trkpt lat="42.30981" lon="2.57468">
        <ele>1060.1</ele>
        <time>2018-11-25T23:41:56Z</time>
      </trkpt>
      <trkpt lat="42.31115" lon="2.57319">
        <ele>1007.5</ele>
        <time>2018-11-25T23:43:06Z</time>
      </trkpt>
      <trkpt lat="42.31121" lon="2.57313">
        <ele>1005.2</ele>
        <time>2018-11-25T23:43:09Z</time>
      </trkpt>
      <trkpt lat="42.31128" lon="2.57306">
        <ele>1003.5</ele>
        <time>2018-11-25T23:43:12Z</time>
      </trkpt>
      <trkpt lat="42.31189" lon="2.57283">
        <ele>999</ele>
        <time>2018-11-25T23:43:37Z</time>
      </trkpt>
      <trkpt lat="42.31191" lon="2.57282">
        <ele>999.1</ele>
        <time>2018-11-25T23:43:38Z</time>
      </trkpt>
      <trkpt lat="42.31192" lon="2.57284">
        <ele>999.8</ele>
        <time>2018-11-25T23:43:39Z</time>
      </trkpt>
      <trkpt lat="42.31203" lon="2.57293">
        <ele>998.6</ele>
        <time>2018-11-25T23:43:44Z</time>
      </trkpt>
      <trkpt lat="42.31209" lon="2.57295">
        <ele>997.8</ele>
        <time>2018-11-25T23:43:47Z</time>
      </trkpt>
      <trkpt lat="42.3122" lon="2.57297">
        <ele>997.3</ele>
        <time>2018-11-25T23:43:51Z</time>
      </trkpt>
      <trkpt lat="42.31226" lon="2.57299">
        <ele>997.4</ele>
        <time>2018-11-25T23:43:54Z</time>
      </trkpt>
      <trkpt lat="42.31236" lon="2.57299">
        <ele>997.7</ele>
        <time>2018-11-25T23:43:57Z</time>
      </trkpt>
      <trkpt lat="42.31238" lon="2.57299">
        <ele>997.6</ele>
        <time>2018-11-25T23:43:58Z</time>
      </trkpt>
      <trkpt lat="42.31247" lon="2.57301">
        <ele>997.4</ele>
        <time>2018-11-25T23:44:02Z</time>
      </trkpt>
      <trkpt lat="42.31249" lon="2.57302">
        <ele>997.3</ele>
        <time>2018-11-25T23:44:03Z</time>
      </trkpt>
      <trkpt lat="42.31257" lon="2.57307">
        <ele>996.3</ele>
        <time>2018-11-25T23:44:06Z</time>
      </trkpt>
      <trkpt lat="42.31261" lon="2.57309">
        <ele>996.2</ele>
        <time>2018-11-25T23:44:08Z</time>
      </trkpt>
      <trkpt lat="42.31269" lon="2.57315">
        <ele>996.2</ele>
        <time>2018-11-25T23:44:12Z</time>
      </trkpt>
      <trkpt lat="42.3127" lon="2.57316">
        <ele>996.1</ele>
        <time>2018-11-25T23:44:12Z</time>
      </trkpt>
      <trkpt lat="42.31279" lon="2.57319">
        <ele>996.6</ele>
        <time>2018-11-25T23:44:16Z</time>
      </trkpt>
      <trkpt lat="42.31289" lon="2.57325">
        <ele>998.2</ele>
        <time>2018-11-25T23:44:20Z</time>
      </trkpt>
      <trkpt lat="42.31299" lon="2.57335">
        <ele>1001.2</ele>
        <time>2018-11-25T23:44:25Z</time>
      </trkpt>
      <trkpt lat="42.31301" lon="2.57337">
        <ele>1001.5</ele>
        <time>2018-11-25T23:44:26Z</time>
      </trkpt>
      <trkpt lat="42.31316" lon="2.57344">
        <ele>1000.7</ele>
        <time>2018-11-25T23:44:32Z</time>
      </trkpt>
      <trkpt lat="42.31322" lon="2.57345">
        <ele>1001.4</ele>
        <time>2018-11-25T23:44:35Z</time>
      </trkpt>
      <trkpt lat="42.31323" lon="2.57346">
        <ele>1001.3</ele>
        <time>2018-11-25T23:44:36Z</time>
      </trkpt>
      <trkpt lat="42.31325" lon="2.57347">
        <ele>1001.5</ele>
        <time>2018-11-25T23:44:36Z</time>
      </trkpt>
      <trkpt lat="42.31331" lon="2.57349">
        <ele>1002.1</ele>
        <time>2018-11-25T23:44:39Z</time>
      </trkpt>
      <trkpt lat="42.31339" lon="2.57351">
        <ele>1004.2</ele>
        <time>2018-11-25T23:44:42Z</time>
      </trkpt>
      <trkpt lat="42.31347" lon="2.57354">
        <ele>1004.9</ele>
        <time>2018-11-25T23:44:45Z</time>
      </trkpt>
      <trkpt lat="42.31352" lon="2.57355">
        <ele>1005.1</ele>
        <time>2018-11-25T23:44:47Z</time>
      </trkpt>
      <trkpt lat="42.31358" lon="2.57353">
        <ele>1004.9</ele>
        <time>2018-11-25T23:44:50Z</time>
      </trkpt>
      <trkpt lat="42.31362" lon="2.57349">
        <ele>1004.8</ele>
        <time>2018-11-25T23:44:52Z</time>
      </trkpt>
      <trkpt lat="42.31412" lon="2.57317">
        <ele>1005.5</ele>
        <time>2018-11-25T23:45:14Z</time>
      </trkpt>
      <trkpt lat="42.31414" lon="2.57315">
        <ele>1005.2</ele>
        <time>2018-11-25T23:45:15Z</time>
      </trkpt>
      <trkpt lat="42.31423" lon="2.57307">
        <ele>1003.8</ele>
        <time>2018-11-25T23:45:19Z</time>
      </trkpt>
      <trkpt lat="42.31425" lon="2.57305">
        <ele>1002.9</ele>
        <time>2018-11-25T23:45:20Z</time>
      </trkpt>
      <trkpt lat="42.31429" lon="2.57295">
        <ele>1001</ele>
        <time>2018-11-25T23:45:24Z</time>
      </trkpt>
      <trkpt lat="42.3143" lon="2.57292">
        <ele>1000.3</ele>
        <time>2018-11-25T23:45:24Z</time>
      </trkpt>
      <trkpt lat="42.31441" lon="2.57274">
        <ele>1000.9</ele>
        <time>2018-11-25T23:45:32Z</time>
      </trkpt>
      <trkpt lat="42.31447" lon="2.5727">
        <ele>1000.9</ele>
        <time>2018-11-25T23:45:34Z</time>
      </trkpt>
      <trkpt lat="42.31447" lon="2.5727">
        <ele>1000.8</ele>
        <time>2018-11-25T23:45:34Z</time>
      </trkpt>
      <trkpt lat="42.31452" lon="2.57261">
        <ele>1001</ele>
        <time>2018-11-25T23:45:38Z</time>
      </trkpt>
      <trkpt lat="42.31456" lon="2.57254">
        <ele>1000.9</ele>
        <time>2018-11-25T23:45:40Z</time>
      </trkpt>
      <trkpt lat="42.31461" lon="2.57246">
        <ele>1001.3</ele>
        <time>2018-11-25T23:45:43Z</time>
      </trkpt>
      <trkpt lat="42.31467" lon="2.57238">
        <ele>1001.6</ele>
        <time>2018-11-25T23:45:47Z</time>
      </trkpt>
      <trkpt lat="42.31475" lon="2.5723">
        <ele>1002.2</ele>
        <time>2018-11-25T23:45:51Z</time>
      </trkpt>
      <trkpt lat="42.31484" lon="2.57229">
        <ele>1003.9</ele>
        <time>2018-11-25T23:45:54Z</time>
      </trkpt>
      <trkpt lat="42.31486" lon="2.5723">
        <ele>1004</ele>
        <time>2018-11-25T23:45:55Z</time>
      </trkpt>
      <trkpt lat="42.31494" lon="2.57217">
        <ele>1003.2</ele>
        <time>2018-11-25T23:46:00Z</time>
      </trkpt>
      <trkpt lat="42.31495" lon="2.57213">
        <ele>1003.3</ele>
        <time>2018-11-25T23:46:01Z</time>
      </trkpt>
      <trkpt lat="42.31496" lon="2.57206">
        <ele>1003.7</ele>
        <time>2018-11-25T23:46:03Z</time>
      </trkpt>
      <trkpt lat="42.31496" lon="2.57206">
        <ele>1003.8</ele>
        <time>2018-11-25T23:46:03Z</time>
      </trkpt>
      <trkpt lat="42.31599" lon="2.56856">
        <ele>965.8</ele>
        <time>2018-11-25T23:47:55Z</time>
      </trkpt>
      <trkpt lat="42.31609" lon="2.56853">
        <ele>964.9</ele>
        <time>2018-11-25T23:47:59Z</time>
      </trkpt>
      <trkpt lat="42.31613" lon="2.56851">
        <ele>964.5</ele>
        <time>2018-11-25T23:48:00Z</time>
      </trkpt>
      <trkpt lat="42.31622" lon="2.56841">
        <ele>963</ele>
        <time>2018-11-25T23:48:05Z</time>
      </trkpt>
      <trkpt lat="42.31626" lon="2.56835">
        <ele>961.6</ele>
        <time>2018-11-25T23:48:08Z</time>
      </trkpt>
      <trkpt lat="42.3163" lon="2.5683">
        <ele>960.5</ele>
        <time>2018-11-25T23:48:10Z</time>
      </trkpt>
      <trkpt lat="42.31798" lon="2.56837">
        <ele>959.7</ele>
        <time>2018-11-25T23:49:17Z</time>
      </trkpt>
      <trkpt lat="42.31801" lon="2.56836">
        <ele>959.1</ele>
        <time>2018-11-25T23:49:18Z</time>
      </trkpt>
      <trkpt lat="42.31805" lon="2.56835">
        <ele>959.5</ele>
        <time>2018-11-25T23:49:20Z</time>
      </trkpt>
      <trkpt lat="42.31809" lon="2.56841">
        <ele>960</ele>
        <time>2018-11-25T23:49:22Z</time>
      </trkpt>
      <trkpt lat="42.31813" lon="2.56841">
        <ele>959.7</ele>
        <time>2018-11-25T23:49:24Z</time>
      </trkpt>
      <trkpt lat="42.31815" lon="2.56841">
        <ele>960</ele>
        <time>2018-11-25T23:49:25Z</time>
      </trkpt>
      <trkpt lat="42.31894" lon="2.56924">
        <ele>965.2</ele>
        <time>2018-11-25T23:50:04Z</time>
      </trkpt>
      <trkpt lat="42.31905" lon="2.56936">
        <ele>966.1</ele>
        <time>2018-11-25T23:50:10Z</time>
      </trkpt>
      <trkpt lat="42.31916" lon="2.56948">
        <ele>966.9</ele>
        <time>2018-11-25T23:50:16Z</time>
      </trkpt>
      <trkpt lat="42.31918" lon="2.56952">
        <ele>967.5</ele>
        <time>2018-11-25T23:50:17Z</time>
      </trkpt>
      <trkpt lat="42.3192" lon="2.56978">
        <ele>965.3</ele>
        <time>2018-11-25T23:50:25Z</time>
      </trkpt>
      <trkpt lat="42.31917" lon="2.5699">
        <ele>963.4</ele>
        <time>2018-11-25T23:50:29Z</time>
      </trkpt>
      <trkpt lat="42.31949" lon="2.57034">
        <ele>998.6</ele>
        <time>2018-11-26T00:15:48Z</time>
      </trkpt>
      <trkpt lat="42.31963" lon="2.57043">
        <ele>999.5</ele>
        <time>2018-11-26T00:15:54Z</time>
      </trkpt>
      <trkpt lat="42.31974" lon="2.57045">
        <ele>1000.4</ele>
        <time>2018-11-26T00:15:58Z</time>
      </trkpt>
      <trkpt lat="42.31982" lon="2.57043">
        <ele>1002.4</ele>
        <time>2018-11-26T00:16:01Z</time>
      </trkpt>
      <trkpt lat="42.31997" lon="2.5704">
        <ele>1004.7</ele>
        <time>2018-11-26T00:16:07Z</time>
      </trkpt>
      <trkpt lat="42.32006" lon="2.57045">
        <ele>1006.2</ele>
        <time>2018-11-26T00:16:12Z</time>
      </trkpt>
      <trkpt lat="42.32014" lon="2.57049">
        <ele>1009.1</ele>
        <time>2018-11-26T00:16:15Z</time>
      </trkpt>
      <trkpt lat="42.32019" lon="2.57054">
        <ele>1010</ele>
        <time>2018-11-26T00:16:17Z</time>
      </trkpt>
      <trkpt lat="42.32019" lon="2.57054">
        <ele>1011.5</ele>
        <time>2018-11-26T00:16:17Z</time>
      </trkpt>
      <trkpt lat="42.32023" lon="2.57055">
        <ele>1011.9</ele>
        <time>2018-11-26T00:16:19Z</time>
      </trkpt>
      <trkpt lat="42.32023" lon="2.57055">
        <ele>1012.4</ele>
        <time>2018-11-26T00:16:19Z</time>
      </trkpt>
      <trkpt lat="42.32024" lon="2.57055">
        <ele>1011.5</ele>
        <time>2018-11-26T00:16:19Z</time>
      </trkpt>
      <trkpt lat="42.32024" lon="2.57055">
        <ele>1012.4</ele>
        <time>2018-11-26T00:16:19Z</time>
      </trkpt>
      <trkpt lat="42.32026" lon="2.57055">
        <ele>1011.1</ele>
        <time>2018-11-26T00:16:20Z</time>
      </trkpt>
      <trkpt lat="42.32036" lon="2.57049">
        <ele>1008.7</ele>
        <time>2018-11-26T00:16:25Z</time>
      </trkpt>
      <trkpt lat="42.32038" lon="2.57046">
        <ele>1007.7</ele>
        <time>2018-11-26T00:16:26Z</time>
      </trkpt>
      <trkpt lat="42.32044" lon="2.57026">
        <ele>1005.2</ele>
        <time>2018-11-26T00:16:32Z</time>
      </trkpt>
      <trkpt lat="42.32045" lon="2.57022">
        <ele>1004.8</ele>
        <time>2018-11-26T00:16:34Z</time>
      </trkpt>
      <trkpt lat="42.32047" lon="2.57014">
        <ele>1003.3</ele>
        <time>2018-11-26T00:16:36Z</time>
      </trkpt>
      <trkpt lat="42.32051" lon="2.56996">
        <ele>1003.3</ele>
        <time>2018-11-26T00:16:41Z</time>
      </trkpt>
      <trkpt lat="42.32054" lon="2.56991">
        <ele>1003.8</ele>
        <time>2018-11-26T00:16:43Z</time>
      </trkpt>
      <trkpt lat="42.32075" lon="2.56973">
        <ele>1004.7</ele>
        <time>2018-11-26T00:16:53Z</time>
      </trkpt>
      <trkpt lat="42.32085" lon="2.56971">
        <ele>1006.2</ele>
        <time>2018-11-26T00:16:57Z</time>
      </trkpt>
      <trkpt lat="42.32085" lon="2.56938">
        <ele>1008.1</ele>
        <time>2018-11-26T00:17:07Z</time>
      </trkpt>
      <trkpt lat="42.32085" lon="2.56922">
        <ele>1010.6</ele>
        <time>2018-11-26T00:17:12Z</time>
      </trkpt>
      <trkpt lat="42.32083" lon="2.569">
        <ele>1012</ele>
        <time>2018-11-26T00:17:18Z</time>
      </trkpt>
      <trkpt lat="42.32082" lon="2.56891">
        <ele>1013.5</ele>
        <time>2018-11-26T00:17:21Z</time>
      </trkpt>
      <trkpt lat="42.32084" lon="2.56876">
        <ele>1014.9</ele>
        <time>2018-11-26T00:17:25Z</time>
      </trkpt>
      <trkpt lat="42.32087" lon="2.56853">
        <ele>1015.3</ele>
        <time>2018-11-26T00:17:32Z</time>
      </trkpt>
      <trkpt lat="42.32096" lon="2.56854">
        <ele>1014</ele>
        <time>2018-11-26T00:17:36Z</time>
      </trkpt>
      <trkpt lat="42.32102" lon="2.56852">
        <ele>1011.5</ele>
        <time>2018-11-26T00:17:39Z</time>
      </trkpt>
      <trkpt lat="42.32116" lon="2.56849">
        <ele>1008.2</ele>
        <time>2018-11-26T00:17:44Z</time>
      </trkpt>
      <trkpt lat="42.32137" lon="2.56845">
        <ele>1007.2</ele>
        <time>2018-11-26T00:17:53Z</time>
      </trkpt>
      <trkpt lat="42.3215" lon="2.56855">
        <ele>1008.1</ele>
        <time>2018-11-26T00:17:59Z</time>
      </trkpt>
      <trkpt lat="42.32162" lon="2.5687">
        <ele>1007.1</ele>
        <time>2018-11-26T00:18:05Z</time>
      </trkpt>
      <trkpt lat="42.32165" lon="2.56872">
        <ele>1006.3</ele>
        <time>2018-11-26T00:18:07Z</time>
      </trkpt>
      <trkpt lat="42.32174" lon="2.56879">
        <ele>1003.8</ele>
        <time>2018-11-26T00:18:11Z</time>
      </trkpt>
      <trkpt lat="42.3219" lon="2.56878">
        <ele>1002.4</ele>
        <time>2018-11-26T00:18:17Z</time>
      </trkpt>
      <trkpt lat="42.32198" lon="2.56869">
        <ele>1000.5</ele>
        <time>2018-11-26T00:18:21Z</time>
      </trkpt>
      <trkpt lat="42.322" lon="2.56866">
        <ele>1001.5</ele>
        <time>2018-11-26T00:18:22Z</time>
      </trkpt>
      <trkpt lat="42.32201" lon="2.56864">
        <ele>1000.5</ele>
        <time>2018-11-26T00:18:23Z</time>
      </trkpt>
      <trkpt lat="42.32202" lon="2.56861">
        <ele>1001.5</ele>
        <time>2018-11-26T00:18:24Z</time>
      </trkpt>
      <trkpt lat="42.32213" lon="2.5685">
        <ele>1000</ele>
        <time>2018-11-26T00:18:30Z</time>
      </trkpt>
      <trkpt lat="42.32223" lon="2.56842">
        <ele>998.6</ele>
        <time>2018-11-26T00:18:34Z</time>
      </trkpt>
      <trkpt lat="42.32231" lon="2.56838">
        <ele>998.1</ele>
        <time>2018-11-26T00:18:38Z</time>
      </trkpt>
      <trkpt lat="42.32239" lon="2.56838">
        <ele>999</ele>
        <time>2018-11-26T00:18:41Z</time>
      </trkpt>
      <trkpt lat="42.32248" lon="2.56837">
        <ele>999.4</ele>
        <time>2018-11-26T00:18:44Z</time>
      </trkpt>
      <trkpt lat="42.32249" lon="2.56836">
        <ele>999</ele>
        <time>2018-11-26T00:18:45Z</time>
      </trkpt>
      <trkpt lat="42.32249" lon="2.56836">
        <ele>999.1</ele>
        <time>2018-11-26T00:18:45Z</time>
      </trkpt>
      <trkpt lat="42.32249" lon="2.56836">
        <ele>998.5</ele>
        <time>2018-11-26T00:18:45Z</time>
      </trkpt>
      <trkpt lat="42.3225" lon="2.56836">
        <ele>998.6</ele>
        <time>2018-11-26T00:18:45Z</time>
      </trkpt>
      <trkpt lat="42.3225" lon="2.56836">
        <ele>998</ele>
        <time>2018-11-26T00:18:45Z</time>
      </trkpt>
      <trkpt lat="42.32255" lon="2.56833">
        <ele>997.5</ele>
        <time>2018-11-26T00:18:48Z</time>
      </trkpt>
      <trkpt lat="42.32257" lon="2.56831">
        <ele>997.5</ele>
        <time>2018-11-26T00:18:48Z</time>
      </trkpt>
      <trkpt lat="42.32257" lon="2.56831">
        <ele>996.5</ele>
        <time>2018-11-26T00:18:48Z</time>
      </trkpt>
      <trkpt lat="42.32257" lon="2.56831">
        <ele>997.6</ele>
        <time>2018-11-26T00:18:49Z</time>
      </trkpt>
      <trkpt lat="42.32257" lon="2.56831">
        <ele>997.6</ele>
        <time>2018-11-26T00:18:49Z</time>
      </trkpt>
      <trkpt lat="42.32257" lon="2.56831">
        <ele>997.5</ele>
        <time>2018-11-26T00:18:49Z</time>
      </trkpt>
      <trkpt lat="42.32257" lon="2.5683">
        <ele>997.5</ele>
        <time>2018-11-26T00:18:49Z</time>
      </trkpt>
      <trkpt lat="42.32257" lon="2.5683">
        <ele>997</ele>
        <time>2018-11-26T00:18:49Z</time>
      </trkpt>
      <trkpt lat="42.32257" lon="2.5683">
        <ele>997.5</ele>
        <time>2018-11-26T00:18:49Z</time>
      </trkpt>
      <trkpt lat="42.32257" lon="2.56831">
        <ele>997.6</ele>
        <time>2018-11-26T00:18:49Z</time>
      </trkpt>
      <trkpt lat="42.32261" lon="2.56833">
        <ele>996.5</ele>
        <time>2018-11-26T00:18:50Z</time>
      </trkpt>
      <trkpt lat="42.32262" lon="2.56832">
        <ele>996.6</ele>
        <time>2018-11-26T00:18:51Z</time>
      </trkpt>
      <trkpt lat="42.32262" lon="2.56832">
        <ele>996.1</ele>
        <time>2018-11-26T00:18:51Z</time>
      </trkpt>
      <trkpt lat="42.32263" lon="2.56837">
        <ele>995.1</ele>
        <time>2018-11-26T00:18:52Z</time>
      </trkpt>
      <trkpt lat="42.32264" lon="2.56839">
        <ele>994.6</ele>
        <time>2018-11-26T00:18:53Z</time>
      </trkpt>
      <trkpt lat="42.32265" lon="2.56839">
        <ele>995.1</ele>
        <time>2018-11-26T00:18:53Z</time>
      </trkpt>
      <trkpt lat="42.32265" lon="2.56839">
        <ele>994.6</ele>
        <time>2018-11-26T00:18:53Z</time>
      </trkpt>
      <trkpt lat="42.32265" lon="2.56838">
        <ele>994.1</ele>
        <time>2018-11-26T00:18:53Z</time>
      </trkpt>
      <trkpt lat="42.32265" lon="2.56838">
        <ele>994.1</ele>
        <time>2018-11-26T00:18:54Z</time>
      </trkpt>
      <trkpt lat="42.32266" lon="2.56838">
        <ele>994.6</ele>
        <time>2018-11-26T00:18:54Z</time>
      </trkpt>
      <trkpt lat="42.32266" lon="2.56838">
        <ele>994.2</ele>
        <time>2018-11-26T00:18:54Z</time>
      </trkpt>
      <trkpt lat="42.32253" lon="2.5683">
        <ele>997.1</ele>
        <time>2018-11-26T00:19:00Z</time>
      </trkpt>
      <trkpt lat="42.32246" lon="2.56828">
        <ele>998.1</ele>
        <time>2018-11-26T00:19:02Z</time>
      </trkpt>
      <trkpt lat="42.32238" lon="2.56826">
        <ele>1000.5</ele>
        <time>2018-11-26T00:19:05Z</time>
      </trkpt>
      <trkpt lat="42.32237" lon="2.56826">
        <ele>1000.5</ele>
        <time>2018-11-26T00:19:06Z</time>
      </trkpt>
      <trkpt lat="42.32229" lon="2.56827">
        <ele>1002.3</ele>
        <time>2018-11-26T00:19:09Z</time>
      </trkpt>
      <trkpt lat="42.32225" lon="2.5683">
        <ele>1002.8</ele>
        <time>2018-11-26T00:19:11Z</time>
      </trkpt>
      <trkpt lat="42.32219" lon="2.56836">
        <ele>1004.3</ele>
        <time>2018-11-26T00:19:14Z</time>
      </trkpt>
      <trkpt lat="42.32214" lon="2.56834">
        <ele>1006.2</ele>
        <time>2018-11-26T00:19:16Z</time>
      </trkpt>
      <trkpt lat="42.32216" lon="2.56826">
        <ele>1008.1</ele>
        <time>2018-11-26T00:19:18Z</time>
      </trkpt>
      <trkpt lat="42.32216" lon="2.56824">
        <ele>1008.6</ele>
        <time>2018-11-26T00:19:19Z</time>
      </trkpt>
      <trkpt lat="42.32217" lon="2.56814">
        <ele>1011</ele>
        <time>2018-11-26T00:19:22Z</time>
      </trkpt>
      <trkpt lat="42.32221" lon="2.56806">
        <ele>1012.5</ele>
        <time>2018-11-26T00:19:25Z</time>
      </trkpt>
      <trkpt lat="42.32221" lon="2.56795">
        <ele>1014.9</ele>
        <time>2018-11-26T00:19:28Z</time>
      </trkpt>
      <trkpt lat="42.32228" lon="2.5679">
        <ele>1016.7</ele>
        <time>2018-11-26T00:19:31Z</time>
      </trkpt>
      <trkpt lat="42.32234" lon="2.56785">
        <ele>1017.7</ele>
        <time>2018-11-26T00:19:34Z</time>
      </trkpt>
      <trkpt lat="42.32239" lon="2.5678">
        <ele>1019.7</ele>
        <time>2018-11-26T00:19:37Z</time>
      </trkpt>
      <trkpt lat="42.32241" lon="2.56778">
        <ele>1019.7</ele>
        <time>2018-11-26T00:19:37Z</time>
      </trkpt>
      <trkpt lat="42.32246" lon="2.56771">
        <ele>1020.6</ele>
        <time>2018-11-26T00:19:40Z</time>
      </trkpt>
      <trkpt lat="42.32247" lon="2.56758">
        <ele>1023.1</ele>
        <time>2018-11-26T00:19:44Z</time>
      </trkpt>
      <trkpt lat="42.32246" lon="2.56751">
        <ele>1024.4</ele>
        <time>2018-11-26T00:19:46Z</time>
      </trkpt>
      <trkpt lat="42.32244" lon="2.56742">
        <ele>1025.4</ele>
        <time>2018-11-26T00:19:49Z</time>
      </trkpt>
      <trkpt lat="42.32245" lon="2.56739">
        <ele>1021.1</ele>
        <time>2018-11-26T00:19:50Z</time>
      </trkpt>
      <trkpt lat="42.32245" lon="2.56739">
        <ele>1027.8</ele>
        <time>2018-11-26T00:19:50Z</time>
      </trkpt>
      <trkpt lat="42.32245" lon="2.56738">
        <ele>1026.8</ele>
        <time>2018-11-26T00:19:50Z</time>
      </trkpt>
      <trkpt lat="42.32244" lon="2.56725">
        <ele>1029.3</ele>
        <time>2018-11-26T00:19:54Z</time>
      </trkpt>
      <trkpt lat="42.32245" lon="2.56706">
        <ele>1032.2</ele>
        <time>2018-11-26T00:20:00Z</time>
      </trkpt>
      <trkpt lat="42.32245" lon="2.56704">
        <ele>1032.7</ele>
        <time>2018-11-26T00:20:01Z</time>
      </trkpt>
      <trkpt lat="42.32242" lon="2.56688">
        <ele>1034.6</ele>
        <time>2018-11-26T00:20:05Z</time>
      </trkpt>
      <trkpt lat="42.32241" lon="2.56674">
        <ele>1036.4</ele>
        <time>2018-11-26T00:20:10Z</time>
      </trkpt>
      <trkpt lat="42.32244" lon="2.56662">
        <ele>1038.5</ele>
        <time>2018-11-26T00:20:13Z</time>
      </trkpt>
      <trkpt lat="42.32243" lon="2.56647">
        <ele>1040.9</ele>
        <time>2018-11-26T00:20:18Z</time>
      </trkpt>
      <trkpt lat="42.32243" lon="2.56638">
        <ele>1042.3</ele>
        <time>2018-11-26T00:20:21Z</time>
      </trkpt>
      <trkpt lat="42.32243" lon="2.56626">
        <ele>1043.2</ele>
        <time>2018-11-26T00:20:24Z</time>
      </trkpt>
      <trkpt lat="42.32245" lon="2.56614">
        <ele>1045.6</ele>
        <time>2018-11-26T00:20:28Z</time>
      </trkpt>
      <trkpt lat="42.32239" lon="2.56602">
        <ele>1047.1</ele>
        <time>2018-11-26T00:20:32Z</time>
      </trkpt>
      <trkpt lat="42.32238" lon="2.56597">
        <ele>1047</ele>
        <time>2018-11-26T00:20:33Z</time>
      </trkpt>
      <trkpt lat="42.32238" lon="2.56596">
        <ele>1047.5</ele>
        <time>2018-11-26T00:20:34Z</time>
      </trkpt>
      <trkpt lat="42.32232" lon="2.56581">
        <ele>1047</ele>
        <time>2018-11-26T00:20:39Z</time>
      </trkpt>
      <trkpt lat="42.32228" lon="2.56565">
        <ele>1046.1</ele>
        <time>2018-11-26T00:20:44Z</time>
      </trkpt>
      <trkpt lat="42.32225" lon="2.56542">
        <ele>1045.7</ele>
        <time>2018-11-26T00:20:51Z</time>
      </trkpt>
      <trkpt lat="42.32221" lon="2.56528">
        <ele>1044.6</ele>
        <time>2018-11-26T00:20:55Z</time>
      </trkpt>
      <trkpt lat="42.32215" lon="2.56515">
        <ele>1045.1</ele>
        <time>2018-11-26T00:21:00Z</time>
      </trkpt>
      <trkpt lat="42.32206" lon="2.56502">
        <ele>1045.2</ele>
        <time>2018-11-26T00:21:05Z</time>
      </trkpt>
      <trkpt lat="42.32205" lon="2.565">
        <ele>1044.6</ele>
        <time>2018-11-26T00:21:06Z</time>
      </trkpt>
      <trkpt lat="42.32203" lon="2.56495">
        <ele>1044.1</ele>
        <time>2018-11-26T00:21:07Z</time>
      </trkpt>
      <trkpt lat="42.322" lon="2.56491">
        <ele>1044.1</ele>
        <time>2018-11-26T00:21:09Z</time>
      </trkpt>
      <trkpt lat="42.32197" lon="2.56484">
        <ele>1043.8</ele>
        <time>2018-11-26T00:21:12Z</time>
      </trkpt>
      <trkpt lat="42.32201" lon="2.56468">
        <ele>1042.8</ele>
        <time>2018-11-26T00:21:17Z</time>
      </trkpt>
      <trkpt lat="42.32203" lon="2.56463">
        <ele>1042.3</ele>
        <time>2018-11-26T00:21:18Z</time>
      </trkpt>
      <trkpt lat="42.32206" lon="2.56454">
        <ele>1040.9</ele>
        <time>2018-11-26T00:21:21Z</time>
      </trkpt>
      <trkpt lat="42.32207" lon="2.56448">
        <ele>1039.8</ele>
        <time>2018-11-26T00:21:23Z</time>
      </trkpt>
      <trkpt lat="42.32223" lon="2.56442">
        <ele>1041.7</ele>
        <time>2018-11-26T00:21:30Z</time>
      </trkpt>
      <trkpt lat="42.32228" lon="2.56442">
        <ele>1040.8</ele>
        <time>2018-11-26T00:21:32Z</time>
      </trkpt>
      <trkpt lat="42.32231" lon="2.56438">
        <ele>1041.3</ele>
        <time>2018-11-26T00:21:33Z</time>
      </trkpt>
      <trkpt lat="42.32231" lon="2.56438">
        <ele>1041.3</ele>
        <time>2018-11-26T00:21:33Z</time>
      </trkpt>
      <trkpt lat="42.32231" lon="2.56433">
        <ele>1041.8</ele>
        <time>2018-11-26T00:21:35Z</time>
      </trkpt>
      <trkpt lat="42.32243" lon="2.56415">
        <ele>1043.2</ele>
        <time>2018-11-26T00:21:42Z</time>
      </trkpt>
      <trkpt lat="42.32249" lon="2.564">
        <ele>1043.7</ele>
        <time>2018-11-26T00:21:47Z</time>
      </trkpt>
      <trkpt lat="42.32248" lon="2.56388">
        <ele>1045.2</ele>
        <time>2018-11-26T00:21:50Z</time>
      </trkpt>
      <trkpt lat="42.32244" lon="2.56378">
        <ele>1047.1</ele>
        <time>2018-11-26T00:21:54Z</time>
      </trkpt>
      <trkpt lat="42.32247" lon="2.56367">
        <ele>1047.6</ele>
        <time>2018-11-26T00:21:58Z</time>
      </trkpt>
      <trkpt lat="42.32259" lon="2.56349">
        <ele>1048</ele>
        <time>2018-11-26T00:22:05Z</time>
      </trkpt>
      <trkpt lat="42.32264" lon="2.56336">
        <ele>1047.5</ele>
        <time>2018-11-26T00:22:09Z</time>
      </trkpt>
      <trkpt lat="42.32279" lon="2.56322">
        <ele>1047</ele>
        <time>2018-11-26T00:22:16Z</time>
      </trkpt>
      <trkpt lat="42.32291" lon="2.56303">
        <ele>1047.5</ele>
        <time>2018-11-26T00:22:24Z</time>
      </trkpt>
      <trkpt lat="42.32292" lon="2.56285">
        <ele>1046.5</ele>
        <time>2018-11-26T00:22:29Z</time>
      </trkpt>
      <trkpt lat="42.32294" lon="2.5627">
        <ele>1046.2</ele>
        <time>2018-11-26T00:22:33Z</time>
      </trkpt>
      <trkpt lat="42.32294" lon="2.56267">
        <ele>1046.1</ele>
        <time>2018-11-26T00:22:34Z</time>
      </trkpt>
      <trkpt lat="42.32296" lon="2.56262">
        <ele>1047.5</ele>
        <time>2018-11-26T00:22:36Z</time>
      </trkpt>
      <trkpt lat="42.32296" lon="2.56262">
        <ele>1047.5</ele>
        <time>2018-11-26T00:22:36Z</time>
      </trkpt>
      <trkpt lat="42.32301" lon="2.56243">
        <ele>1048.5</ele>
        <time>2018-11-26T00:22:42Z</time>
      </trkpt>
      <trkpt lat="42.32306" lon="2.56233">
        <ele>1050.9</ele>
        <time>2018-11-26T00:22:46Z</time>
      </trkpt>
      <trkpt lat="42.32308" lon="2.5623">
        <ele>1050.4</ele>
        <time>2018-11-26T00:22:47Z</time>
      </trkpt>
      <trkpt lat="42.32314" lon="2.56221">
        <ele>1049</ele>
        <time>2018-11-26T00:22:51Z</time>
      </trkpt>
      <trkpt lat="42.32315" lon="2.56219">
        <ele>1048.6</ele>
        <time>2018-11-26T00:22:51Z</time>
      </trkpt>
      <trkpt lat="42.3232" lon="2.56193">
        <ele>1050.4</ele>
        <time>2018-11-26T00:22:59Z</time>
      </trkpt>
      <trkpt lat="42.32332" lon="2.56178">
        <ele>1051</ele>
        <time>2018-11-26T00:23:06Z</time>
      </trkpt>
      <trkpt lat="42.32335" lon="2.56163">
        <ele>1051.8</ele>
        <time>2018-11-26T00:23:10Z</time>
      </trkpt>
      <trkpt lat="42.32335" lon="2.56145">
        <ele>1053.8</ele>
        <time>2018-11-26T00:23:16Z</time>
      </trkpt>
      <trkpt lat="42.32335" lon="2.56133">
        <ele>1054.8</ele>
        <time>2018-11-26T00:23:19Z</time>
      </trkpt>
      <trkpt lat="42.32338" lon="2.56117">
        <ele>1056.6</ele>
        <time>2018-11-26T00:23:24Z</time>
      </trkpt>
      <trkpt lat="42.32339" lon="2.56115">
        <ele>1056.2</ele>
        <time>2018-11-26T00:23:25Z</time>
      </trkpt>
      <trkpt lat="42.32339" lon="2.56115">
        <ele>1056.2</ele>
        <time>2018-11-26T00:23:25Z</time>
      </trkpt>
      <trkpt lat="42.32339" lon="2.56115">
        <ele>1056.2</ele>
        <time>2018-11-26T00:23:25Z</time>
      </trkpt>
      <trkpt lat="42.32339" lon="2.56113">
        <ele>1057.2</ele>
        <time>2018-11-26T00:23:25Z</time>
      </trkpt>
      <trkpt lat="42.32341" lon="2.561">
        <ele>1058.6</ele>
        <time>2018-11-26T00:23:29Z</time>
      </trkpt>
      <trkpt lat="42.32346" lon="2.56098">
        <ele>1059.1</ele>
        <time>2018-11-26T00:23:31Z</time>
      </trkpt>
      <trkpt lat="42.32361" lon="2.56099">
        <ele>1058.2</ele>
        <time>2018-11-26T00:23:37Z</time>
      </trkpt>
      <trkpt lat="42.32377" lon="2.56094">
        <ele>1056.3</ele>
        <time>2018-11-26T00:23:44Z</time>
      </trkpt>
      <trkpt lat="42.32388" lon="2.56081">
        <ele>1054.8</ele>
        <time>2018-11-26T00:23:50Z</time>
      </trkpt>
      <trkpt lat="42.32393" lon="2.56077">
        <ele>1054.7</ele>
        <time>2018-11-26T00:23:52Z</time>
      </trkpt>
      <trkpt lat="42.32409" lon="2.56072">
        <ele>1053.3</ele>
        <time>2018-11-26T00:23:59Z</time>
      </trkpt>
      <trkpt lat="42.32423" lon="2.56082">
        <ele>1051.8</ele>
        <time>2018-11-26T00:24:05Z</time>
      </trkpt>
      <trkpt lat="42.32426" lon="2.56083">
        <ele>1051.3</ele>
        <time>2018-11-26T00:24:06Z</time>
      </trkpt>
      <trkpt lat="42.32429" lon="2.56088">
        <ele>1051.3</ele>
        <time>2018-11-26T00:24:08Z</time>
      </trkpt>
      <trkpt lat="42.32433" lon="2.56093">
        <ele>1051</ele>
        <time>2018-11-26T00:24:10Z</time>
      </trkpt>
      <trkpt lat="42.32442" lon="2.56102">
        <ele>1049.9</ele>
        <time>2018-11-26T00:24:15Z</time>
      </trkpt>
      <trkpt lat="42.32453" lon="2.56104">
        <ele>1049.5</ele>
        <time>2018-11-26T00:24:19Z</time>
      </trkpt>
      <trkpt lat="42.32464" lon="2.56095">
        <ele>1048.9</ele>
        <time>2018-11-26T00:24:25Z</time>
      </trkpt>
      <trkpt lat="42.32468" lon="2.56092">
        <ele>1049.4</ele>
        <time>2018-11-26T00:24:26Z</time>
      </trkpt>
      <trkpt lat="42.32468" lon="2.56092">
        <ele>1048.9</ele>
        <time>2018-11-26T00:24:26Z</time>
      </trkpt>
      <trkpt lat="42.32476" lon="2.56091">
        <ele>1048.9</ele>
        <time>2018-11-26T00:24:29Z</time>
      </trkpt>
      <trkpt lat="42.32479" lon="2.56093">
        <ele>1048.9</ele>
        <time>2018-11-26T00:24:31Z</time>
      </trkpt>
      <trkpt lat="42.32492" lon="2.56108">
        <ele>1049</ele>
        <time>2018-11-26T00:24:38Z</time>
      </trkpt>
      <trkpt lat="42.32499" lon="2.56116">
        <ele>1049.9</ele>
        <time>2018-11-26T00:24:41Z</time>
      </trkpt>
      <trkpt lat="42.32507" lon="2.56125">
        <ele>1049.4</ele>
        <time>2018-11-26T00:24:46Z</time>
      </trkpt>
      <trkpt lat="42.32511" lon="2.56125">
        <ele>1049.9</ele>
        <time>2018-11-26T00:24:47Z</time>
      </trkpt>
      <trkpt lat="42.32518" lon="2.56126">
        <ele>1051.4</ele>
        <time>2018-11-26T00:24:50Z</time>
      </trkpt>
      <trkpt lat="42.3252" lon="2.56126">
        <ele>1052.4</ele>
        <time>2018-11-26T00:24:51Z</time>
      </trkpt>
      <trkpt lat="42.3252" lon="2.56126">
        <ele>1052.4</ele>
        <time>2018-11-26T00:24:51Z</time>
      </trkpt>
      <trkpt lat="42.32525" lon="2.56124">
        <ele>1053.3</ele>
        <time>2018-11-26T00:24:53Z</time>
      </trkpt>
      <trkpt lat="42.32531" lon="2.56124">
        <ele>1052.8</ele>
        <time>2018-11-26T00:24:55Z</time>
      </trkpt>
      <trkpt lat="42.32543" lon="2.56122">
        <ele>1053.8</ele>
        <time>2018-11-26T00:25:00Z</time>
      </trkpt>
      <trkpt lat="42.32554" lon="2.5612">
        <ele>1055.8</ele>
        <time>2018-11-26T00:25:05Z</time>
      </trkpt>
      <trkpt lat="42.32555" lon="2.5612">
        <ele>1056.2</ele>
        <time>2018-11-26T00:25:05Z</time>
      </trkpt>
      <trkpt lat="42.32555" lon="2.5612">
        <ele>1056.7</ele>
        <time>2018-11-26T00:25:05Z</time>
      </trkpt>
      <trkpt lat="42.32564" lon="2.56117">
        <ele>1056.2</ele>
        <time>2018-11-26T00:25:09Z</time>
      </trkpt>
      <trkpt lat="42.32602" lon="2.56112">
        <ele>1056.2</ele>
        <time>2018-11-26T00:25:24Z</time>
      </trkpt>
      <trkpt lat="42.32612" lon="2.56114">
        <ele>1056.2</ele>
        <time>2018-11-26T00:25:28Z</time>
      </trkpt>
      <trkpt lat="42.32614" lon="2.56113">
        <ele>1056.7</ele>
        <time>2018-11-26T00:25:29Z</time>
      </trkpt>
      <trkpt lat="42.32621" lon="2.56114">
        <ele>1056.3</ele>
        <time>2018-11-26T00:25:32Z</time>
      </trkpt>
      <trkpt lat="42.32633" lon="2.56115">
        <ele>1056.3</ele>
        <time>2018-11-26T00:25:37Z</time>
      </trkpt>
      <trkpt lat="42.32644" lon="2.56117">
        <ele>1056.3</ele>
        <time>2018-11-26T00:25:41Z</time>
      </trkpt>
      <trkpt lat="42.32655" lon="2.56123">
        <ele>1055.2</ele>
        <time>2018-11-26T00:25:46Z</time>
      </trkpt>
      <trkpt lat="42.32664" lon="2.56128">
        <ele>1056.3</ele>
        <time>2018-11-26T00:25:50Z</time>
      </trkpt>
      <trkpt lat="42.32674" lon="2.56137">
        <ele>1058.2</ele>
        <time>2018-11-26T00:25:55Z</time>
      </trkpt>
      <trkpt lat="42.32683" lon="2.56146">
        <ele>1059.1</ele>
        <time>2018-11-26T00:25:59Z</time>
      </trkpt>
      <trkpt lat="42.32688" lon="2.56148">
        <ele>1059.6</ele>
        <time>2018-11-26T00:26:01Z</time>
      </trkpt>
      <trkpt lat="42.32696" lon="2.56152">
        <ele>1059.5</ele>
        <time>2018-11-26T00:26:05Z</time>
      </trkpt>
      <trkpt lat="42.32708" lon="2.56152">
        <ele>1060</ele>
        <time>2018-11-26T00:26:09Z</time>
      </trkpt>
      <trkpt lat="42.32717" lon="2.56154">
        <ele>1060.6</ele>
        <time>2018-11-26T00:26:13Z</time>
      </trkpt>
      <trkpt lat="42.32729" lon="2.56153">
        <ele>1061</ele>
        <time>2018-11-26T00:26:18Z</time>
      </trkpt>
      <trkpt lat="42.3274" lon="2.56162">
        <ele>1060.5</ele>
        <time>2018-11-26T00:26:23Z</time>
      </trkpt>
      <trkpt lat="42.32747" lon="2.56167">
        <ele>1060.1</ele>
        <time>2018-11-26T00:26:26Z</time>
      </trkpt>
      <trkpt lat="42.32757" lon="2.56177">
        <ele>1059.1</ele>
        <time>2018-11-26T00:26:31Z</time>
      </trkpt>
      <trkpt lat="42.32764" lon="2.56182">
        <ele>1059.1</ele>
        <time>2018-11-26T00:26:34Z</time>
      </trkpt>
      <trkpt lat="42.32766" lon="2.56185">
        <ele>1059.1</ele>
        <time>2018-11-26T00:26:35Z</time>
      </trkpt>
      <trkpt lat="42.32772" lon="2.56188">
        <ele>1060</ele>
        <time>2018-11-26T00:26:38Z</time>
      </trkpt>
      <trkpt lat="42.32772" lon="2.56188">
        <ele>1059.6</ele>
        <time>2018-11-26T00:26:38Z</time>
      </trkpt>
      <trkpt lat="42.32785" lon="2.56188">
        <ele>1060.5</ele>
        <time>2018-11-26T00:26:43Z</time>
      </trkpt>
      <trkpt lat="42.32797" lon="2.56189">
        <ele>1061.9</ele>
        <time>2018-11-26T00:26:48Z</time>
      </trkpt>
      <trkpt lat="42.32808" lon="2.56197">
        <ele>1063.8</ele>
        <time>2018-11-26T00:26:53Z</time>
      </trkpt>
      <trkpt lat="42.32809" lon="2.56198">
        <ele>1064.8</ele>
        <time>2018-11-26T00:26:53Z</time>
      </trkpt>
      <trkpt lat="42.32812" lon="2.56201">
        <ele>1065.9</ele>
        <time>2018-11-26T00:26:55Z</time>
      </trkpt>
      <trkpt lat="42.32824" lon="2.56201">
        <ele>1067.2</ele>
        <time>2018-11-26T00:27:00Z</time>
      </trkpt>
      <trkpt lat="42.32827" lon="2.562">
        <ele>1066.7</ele>
        <time>2018-11-26T00:27:01Z</time>
      </trkpt>
      <trkpt lat="42.32827" lon="2.562">
        <ele>1066.7</ele>
        <time>2018-11-26T00:27:01Z</time>
      </trkpt>
      <trkpt lat="42.32827" lon="2.562">
        <ele>1066.7</ele>
        <time>2018-11-26T00:27:01Z</time>
      </trkpt>
      <trkpt lat="42.32827" lon="2.562">
        <ele>1067.8</ele>
        <time>2018-11-26T00:27:01Z</time>
      </trkpt>
      <trkpt lat="42.32827" lon="2.562">
        <ele>1067.8</ele>
        <time>2018-11-26T00:27:01Z</time>
      </trkpt>
      <trkpt lat="42.32827" lon="2.562">
        <ele>1068.2</ele>
        <time>2018-11-26T00:27:01Z</time>
      </trkpt>
      <trkpt lat="42.32827" lon="2.562">
        <ele>1068.3</ele>
        <time>2018-11-26T00:27:01Z</time>
      </trkpt>
      <trkpt lat="42.32827" lon="2.562">
        <ele>1068.6</ele>
        <time>2018-11-26T00:27:01Z</time>
      </trkpt>
      <trkpt lat="42.32827" lon="2.56199">
        <ele>1068.6</ele>
        <time>2018-11-26T00:27:02Z</time>
      </trkpt>
      <trkpt lat="42.32828" lon="2.56201">
        <ele>1068.6</ele>
        <time>2018-11-26T00:27:02Z</time>
      </trkpt>
      <trkpt lat="42.32828" lon="2.56202">
        <ele>1068.6</ele>
        <time>2018-11-26T00:27:02Z</time>
      </trkpt>
      <trkpt lat="42.32828" lon="2.56202">
        <ele>1068.7</ele>
        <time>2018-11-26T00:27:02Z</time>
      </trkpt>
      <trkpt lat="42.32828" lon="2.56203">
        <ele>1068.7</ele>
        <time>2018-11-26T00:27:03Z</time>
      </trkpt>
      <trkpt lat="42.32828" lon="2.56203">
        <ele>1069.2</ele>
        <time>2018-11-26T00:27:03Z</time>
      </trkpt>
      <trkpt lat="42.32829" lon="2.56201">
        <ele>1068.6</ele>
        <time>2018-11-26T00:27:04Z</time>
      </trkpt>
      <trkpt lat="42.32831" lon="2.56186">
        <ele>1067.8</ele>
        <time>2018-11-26T00:27:08Z</time>
      </trkpt>
      <trkpt lat="42.32835" lon="2.5618">
        <ele>1066.3</ele>
        <time>2018-11-26T00:27:10Z</time>
      </trkpt>
      <trkpt lat="42.32841" lon="2.56174">
        <ele>1063.9</ele>
        <time>2018-11-26T00:27:13Z</time>
      </trkpt>
      <trkpt lat="42.32841" lon="2.56173">
        <ele>1062.4</ele>
        <time>2018-11-26T00:27:14Z</time>
      </trkpt>
      <trkpt lat="42.32842" lon="2.56172">
        <ele>1062.4</ele>
        <time>2018-11-26T00:27:14Z</time>
      </trkpt>
      <trkpt lat="42.32845" lon="2.56164">
        <ele>1060</ele>
        <time>2018-11-26T00:27:17Z</time>
      </trkpt>
      <trkpt lat="42.32851" lon="2.56144">
        <ele>1057.7</ele>
        <time>2018-11-26T00:27:23Z</time>
      </trkpt>
      <trkpt lat="42.32851" lon="2.56143">
        <ele>1056.6</ele>
        <time>2018-11-26T00:27:24Z</time>
      </trkpt>
      <trkpt lat="42.32851" lon="2.56133">
        <ele>1055.3</ele>
        <time>2018-11-26T00:27:27Z</time>
      </trkpt>
      <trkpt lat="42.3285" lon="2.56122">
        <ele>1054.2</ele>
        <time>2018-11-26T00:27:30Z</time>
      </trkpt>
      <trkpt lat="42.32855" lon="2.56106">
        <ele>1052.3</ele>
        <time>2018-11-26T00:27:35Z</time>
      </trkpt>
      <trkpt lat="42.32858" lon="2.56088">
        <ele>1050</ele>
        <time>2018-11-26T00:27:40Z</time>
      </trkpt>
      <trkpt lat="42.32862" lon="2.56069">
        <ele>1048.6</ele>
        <time>2018-11-26T00:27:46Z</time>
      </trkpt>
      <trkpt lat="42.32866" lon="2.56051">
        <ele>1046.6</ele>
        <time>2018-11-26T00:27:52Z</time>
      </trkpt>
      <trkpt lat="42.32867" lon="2.56037">
        <ele>1045.2</ele>
        <time>2018-11-26T00:27:56Z</time>
      </trkpt>
      <trkpt lat="42.32871" lon="2.56026">
        <ele>1044.2</ele>
        <time>2018-11-26T00:28:00Z</time>
      </trkpt>
      <trkpt lat="42.32874" lon="2.56018">
        <ele>1042.2</ele>
        <time>2018-11-26T00:28:03Z</time>
      </trkpt>
      <trkpt lat="42.32876" lon="2.56005">
        <ele>1041.3</ele>
        <time>2018-11-26T00:28:06Z</time>
      </trkpt>
      <trkpt lat="42.32881" lon="2.55994">
        <ele>1040.3</ele>
        <time>2018-11-26T00:28:10Z</time>
      </trkpt>
      <trkpt lat="42.32883" lon="2.55986">
        <ele>1037.5</ele>
        <time>2018-11-26T00:28:13Z</time>
      </trkpt>
      <trkpt lat="42.32884" lon="2.55983">
        <ele>1036.9</ele>
        <time>2018-11-26T00:28:14Z</time>
      </trkpt>
      <trkpt lat="42.32888" lon="2.55978">
        <ele>1036.4</ele>
        <time>2018-11-26T00:28:16Z</time>
      </trkpt>
      <trkpt lat="42.32898" lon="2.5596">
        <ele>1034.6</ele>
        <time>2018-11-26T00:28:22Z</time>
      </trkpt>
      <trkpt lat="42.32901" lon="2.55955">
        <ele>1034.1</ele>
        <time>2018-11-26T00:28:24Z</time>
      </trkpt>
      <trkpt lat="42.32905" lon="2.55943">
        <ele>1032.1</ele>
        <time>2018-11-26T00:28:28Z</time>
      </trkpt>
      <trkpt lat="42.32905" lon="2.55937">
        <ele>1031.2</ele>
        <time>2018-11-26T00:28:30Z</time>
      </trkpt>
      <trkpt lat="42.32905" lon="2.55928">
        <ele>1028.4</ele>
        <time>2018-11-26T00:28:33Z</time>
      </trkpt>
      <trkpt lat="42.32905" lon="2.55916">
        <ele>1026.8</ele>
        <time>2018-11-26T00:28:36Z</time>
      </trkpt>
      <trkpt lat="42.32906" lon="2.55906">
        <ele>1025.4</ele>
        <time>2018-11-26T00:28:39Z</time>
      </trkpt>
      <trkpt lat="42.32909" lon="2.55892">
        <ele>1023.9</ele>
        <time>2018-11-26T00:28:44Z</time>
      </trkpt>
      <trkpt lat="42.32917" lon="2.55875">
        <ele>1023.1</ele>
        <time>2018-11-26T00:28:50Z</time>
      </trkpt>
      <trkpt lat="42.32919" lon="2.55867">
        <ele>1022.5</ele>
        <time>2018-11-26T00:28:52Z</time>
      </trkpt>
      <trkpt lat="42.32918" lon="2.55862">
        <ele>1022.1</ele>
        <time>2018-11-26T00:28:54Z</time>
      </trkpt>
      <trkpt lat="42.32913" lon="2.55847">
        <ele>1020.7</ele>
        <time>2018-11-26T00:28:58Z</time>
      </trkpt>
      <trkpt lat="42.32911" lon="2.55835">
        <ele>1017.8</ele>
        <time>2018-11-26T00:29:02Z</time>
      </trkpt>
      <trkpt lat="42.32913" lon="2.55826">
        <ele>1015.4</ele>
        <time>2018-11-26T00:29:05Z</time>
      </trkpt>
      <trkpt lat="42.32912" lon="2.55822">
        <ele>1016.3</ele>
        <time>2018-11-26T00:29:06Z</time>
      </trkpt>
      <trkpt lat="42.32916" lon="2.55818">
        <ele>1014.8</ele>
        <time>2018-11-26T00:29:08Z</time>
      </trkpt>
      <trkpt lat="42.32929" lon="2.55805">
        <ele>1015.3</ele>
        <time>2018-11-26T00:29:14Z</time>
      </trkpt>
      <trkpt lat="42.32937" lon="2.55795">
        <ele>1014.9</ele>
        <time>2018-11-26T00:29:19Z</time>
      </trkpt>
      <trkpt lat="42.32947" lon="2.55781">
        <ele>1014.8</ele>
        <time>2018-11-26T00:29:25Z</time>
      </trkpt>
      <trkpt lat="42.32951" lon="2.55778">
        <ele>1013.9</ele>
        <time>2018-11-26T00:29:26Z</time>
      </trkpt>
      <trkpt lat="42.32955" lon="2.55776">
        <ele>1013.4</ele>
        <time>2018-11-26T00:29:28Z</time>
      </trkpt>
      <trkpt lat="42.32962" lon="2.55774">
        <ele>1013</ele>
        <time>2018-11-26T00:29:31Z</time>
      </trkpt>
      <trkpt lat="42.32969" lon="2.5577">
        <ele>1012.5</ele>
        <time>2018-11-26T00:29:34Z</time>
      </trkpt>
      <trkpt lat="42.32984" lon="2.55761">
        <ele>1011.4</ele>
        <time>2018-11-26T00:29:41Z</time>
      </trkpt>
      <trkpt lat="42.32991" lon="2.55747">
        <ele>1008.7</ele>
        <time>2018-11-26T00:29:46Z</time>
      </trkpt>
      <trkpt lat="42.32991" lon="2.55746">
        <ele>1008.1</ele>
        <time>2018-11-26T00:29:46Z</time>
      </trkpt>
      <trkpt lat="42.32993" lon="2.55733">
        <ele>1007.1</ele>
        <time>2018-11-26T00:29:50Z</time>
      </trkpt>
      <trkpt lat="42.32988" lon="2.55721">
        <ele>1006.2</ele>
        <time>2018-11-26T00:29:54Z</time>
      </trkpt>
      <trkpt lat="42.32985" lon="2.55704">
        <ele>1004.3</ele>
        <time>2018-11-26T00:29:59Z</time>
      </trkpt>
      <trkpt lat="42.32983" lon="2.55693">
        <ele>1002.9</ele>
        <time>2018-11-26T00:30:02Z</time>
      </trkpt>
      <trkpt lat="42.32981" lon="2.55682">
        <ele>1000.9</ele>
        <time>2018-11-26T00:30:06Z</time>
      </trkpt>
      <trkpt lat="42.32973" lon="2.55671">
        <ele>1000.4</ele>
        <time>2018-11-26T00:30:10Z</time>
      </trkpt>
      <trkpt lat="42.32974" lon="2.55659">
        <ele>998.6</ele>
        <time>2018-11-26T00:30:14Z</time>
      </trkpt>
      <trkpt lat="42.32973" lon="2.55655">
        <ele>996.2</ele>
        <time>2018-11-26T00:30:15Z</time>
      </trkpt>
      <trkpt lat="42.32966" lon="2.5564">
        <ele>994.2</ele>
        <time>2018-11-26T00:30:20Z</time>
      </trkpt>
      <trkpt lat="42.32967" lon="2.5563">
        <ele>995.1</ele>
        <time>2018-11-26T00:30:23Z</time>
      </trkpt>
      <trkpt lat="42.32967" lon="2.55625">
        <ele>996.6</ele>
        <time>2018-11-26T00:30:25Z</time>
      </trkpt>
      <trkpt lat="42.32969" lon="2.55608">
        <ele>998</ele>
        <time>2018-11-26T00:30:30Z</time>
      </trkpt>
      <trkpt lat="42.32971" lon="2.55603">
        <ele>998</ele>
        <time>2018-11-26T00:30:31Z</time>
      </trkpt>
      <trkpt lat="42.32977" lon="2.55584">
        <ele>998.6</ele>
        <time>2018-11-26T00:30:38Z</time>
      </trkpt>
      <trkpt lat="42.3298" lon="2.55562">
        <ele>997.6</ele>
        <time>2018-11-26T00:30:44Z</time>
      </trkpt>
      <trkpt lat="42.32982" lon="2.55548">
        <ele>998.1</ele>
        <time>2018-11-26T00:30:48Z</time>
      </trkpt>
      <trkpt lat="42.32987" lon="2.55533">
        <ele>998</ele>
        <time>2018-11-26T00:30:53Z</time>
      </trkpt>
      <trkpt lat="42.32989" lon="2.55526">
        <ele>998</ele>
        <time>2018-11-26T00:30:55Z</time>
      </trkpt>
      <trkpt lat="42.32996" lon="2.55511">
        <ele>999</ele>
        <time>2018-11-26T00:31:01Z</time>
      </trkpt>
      <trkpt lat="42.32999" lon="2.55501">
        <ele>999.1</ele>
        <time>2018-11-26T00:31:04Z</time>
      </trkpt>
      <trkpt lat="42.32999" lon="2.55501">
        <ele>998</ele>
        <time>2018-11-26T00:31:04Z</time>
      </trkpt>
      <trkpt lat="42.32999" lon="2.55501">
        <ele>998.6</ele>
        <time>2018-11-26T00:31:04Z</time>
      </trkpt>
      <trkpt lat="42.32998" lon="2.55501">
        <ele>998.6</ele>
        <time>2018-11-26T00:31:04Z</time>
      </trkpt>
      <trkpt lat="42.32997" lon="2.555">
        <ele>997</ele>
        <time>2018-11-26T00:31:05Z</time>
      </trkpt>
      <trkpt lat="42.32998" lon="2.55499">
        <ele>996.5</ele>
        <time>2018-11-26T00:31:05Z</time>
      </trkpt>
      <trkpt lat="42.33003" lon="2.55499">
        <ele>996.6</ele>
        <time>2018-11-26T00:31:08Z</time>
      </trkpt>
      <trkpt lat="42.33003" lon="2.55499">
        <ele>996.6</ele>
        <time>2018-11-26T00:31:08Z</time>
      </trkpt>
      <trkpt lat="42.33017" lon="2.55498">
        <ele>995.7</ele>
        <time>2018-11-26T00:31:13Z</time>
      </trkpt>
      <trkpt lat="42.3303" lon="2.55499">
        <ele>996.5</ele>
        <time>2018-11-26T00:31:19Z</time>
      </trkpt>
      <trkpt lat="42.33032" lon="2.55498">
        <ele>997</ele>
        <time>2018-11-26T00:31:19Z</time>
      </trkpt>
      <trkpt lat="42.33032" lon="2.55498">
        <ele>995.6</ele>
        <time>2018-11-26T00:31:19Z</time>
      </trkpt>
      <trkpt lat="42.33033" lon="2.55497">
        <ele>997</ele>
        <time>2018-11-26T00:31:20Z</time>
      </trkpt>
      <trkpt lat="42.33036" lon="2.55492">
        <ele>997</ele>
        <time>2018-11-26T00:31:22Z</time>
      </trkpt>
      <trkpt lat="42.33038" lon="2.55486">
        <ele>997</ele>
        <time>2018-11-26T00:31:24Z</time>
      </trkpt>
      <trkpt lat="42.33046" lon="2.55477">
        <ele>996.5</ele>
        <time>2018-11-26T00:31:28Z</time>
      </trkpt>
      <trkpt lat="42.33056" lon="2.55476">
        <ele>997</ele>
        <time>2018-11-26T00:31:32Z</time>
      </trkpt>
      <trkpt lat="42.33075" lon="2.55477">
        <ele>998.6</ele>
        <time>2018-11-26T00:31:39Z</time>
      </trkpt>
      <trkpt lat="42.33085" lon="2.55481">
        <ele>999.5</ele>
        <time>2018-11-26T00:31:44Z</time>
      </trkpt>
      <trkpt lat="42.33101" lon="2.55487">
        <ele>1000.5</ele>
        <time>2018-11-26T00:31:50Z</time>
      </trkpt>
      <trkpt lat="42.33106" lon="2.55479">
        <ele>1002.3</ele>
        <time>2018-11-26T00:31:53Z</time>
      </trkpt>
      <trkpt lat="42.33114" lon="2.55461">
        <ele>1002.3</ele>
        <time>2018-11-26T00:31:59Z</time>
      </trkpt>
      <trkpt lat="42.33125" lon="2.55452">
        <ele>1003.3</ele>
        <time>2018-11-26T00:32:05Z</time>
      </trkpt>
      <trkpt lat="42.33134" lon="2.55448">
        <ele>1006.2</ele>
        <time>2018-11-26T00:32:08Z</time>
      </trkpt>
      <trkpt lat="42.33137" lon="2.55448">
        <ele>1007.1</ele>
        <time>2018-11-26T00:32:10Z</time>
      </trkpt>
      <trkpt lat="42.33139" lon="2.55447">
        <ele>1007.2</ele>
        <time>2018-11-26T00:32:11Z</time>
      </trkpt>
      <trkpt lat="42.33145" lon="2.55431">
        <ele>1008.2</ele>
        <time>2018-11-26T00:32:16Z</time>
      </trkpt>
      <trkpt lat="42.33149" lon="2.55421">
        <ele>1009.6</ele>
        <time>2018-11-26T00:32:19Z</time>
      </trkpt>
      <trkpt lat="42.33149" lon="2.55414">
        <ele>1009.5</ele>
        <time>2018-11-26T00:32:21Z</time>
      </trkpt>
      <trkpt lat="42.33152" lon="2.55408">
        <ele>1010.6</ele>
        <time>2018-11-26T00:32:23Z</time>
      </trkpt>
      <trkpt lat="42.33155" lon="2.55394">
        <ele>1011</ele>
        <time>2018-11-26T00:32:28Z</time>
      </trkpt>
      <trkpt lat="42.33156" lon="2.5538">
        <ele>1010.6</ele>
        <time>2018-11-26T00:32:32Z</time>
      </trkpt>
      <trkpt lat="42.33157" lon="2.55364">
        <ele>1010.6</ele>
        <time>2018-11-26T00:32:37Z</time>
      </trkpt>
      <trkpt lat="42.33158" lon="2.55362">
        <ele>1010.5</ele>
        <time>2018-11-26T00:32:37Z</time>
      </trkpt>
      <trkpt lat="42.33158" lon="2.55362">
        <ele>1011.4</ele>
        <time>2018-11-26T00:32:37Z</time>
      </trkpt>
      <trkpt lat="42.33159" lon="2.5536">
        <ele>1010.5</ele>
        <time>2018-11-26T00:32:38Z</time>
      </trkpt>
      <trkpt lat="42.33159" lon="2.55348">
        <ele>1014</ele>
        <time>2018-11-26T00:32:41Z</time>
      </trkpt>
      <trkpt lat="42.3316" lon="2.55344">
        <ele>1011</ele>
        <time>2018-11-26T00:32:43Z</time>
      </trkpt>
      <trkpt lat="42.33166" lon="2.55326">
        <ele>1012.4</ele>
        <time>2018-11-26T00:32:49Z</time>
      </trkpt>
      <trkpt lat="42.33171" lon="2.55317">
        <ele>1011.9</ele>
        <time>2018-11-26T00:32:52Z</time>
      </trkpt>
      <trkpt lat="42.3318" lon="2.55314">
        <ele>1012</ele>
        <time>2018-11-26T00:32:55Z</time>
      </trkpt>
      <trkpt lat="42.33191" lon="2.55311">
        <ele>1011.5</ele>
        <time>2018-11-26T00:33:00Z</time>
      </trkpt>
      <trkpt lat="42.33205" lon="2.55311">
        <ele>1012.5</ele>
        <time>2018-11-26T00:33:06Z</time>
      </trkpt>
      <trkpt lat="42.33217" lon="2.5531">
        <ele>1014.9</ele>
        <time>2018-11-26T00:33:11Z</time>
      </trkpt>
      <trkpt lat="42.33221" lon="2.55304">
        <ele>1015.3</ele>
        <time>2018-11-26T00:33:13Z</time>
      </trkpt>
      <trkpt lat="42.33226" lon="2.55297">
        <ele>1015.8</ele>
        <time>2018-11-26T00:33:16Z</time>
      </trkpt>
      <trkpt lat="42.33232" lon="2.55286">
        <ele>1022</ele>
        <time>2018-11-26T00:33:20Z</time>
      </trkpt>
      <trkpt lat="42.33233" lon="2.55285">
        <ele>1019.1</ele>
        <time>2018-11-26T00:33:20Z</time>
      </trkpt>
      <trkpt lat="42.33238" lon="2.55278">
        <ele>1016.4</ele>
        <time>2018-11-26T00:33:23Z</time>
      </trkpt>
      <trkpt lat="42.33246" lon="2.55265">
        <ele>1015.8</ele>
        <time>2018-11-26T00:33:28Z</time>
      </trkpt>
      <trkpt lat="42.33251" lon="2.55242">
        <ele>1016.7</ele>
        <time>2018-11-26T00:33:35Z</time>
      </trkpt>
      <trkpt lat="42.33257" lon="2.55223">
        <ele>1016.7</ele>
        <time>2018-11-26T00:33:41Z</time>
      </trkpt>
      <trkpt lat="42.3326" lon="2.55206">
        <ele>1016.7</ele>
        <time>2018-11-26T00:33:47Z</time>
      </trkpt>
      <trkpt lat="42.3326" lon="2.55206">
        <ele>1016.7</ele>
        <time>2018-11-26T00:33:47Z</time>
      </trkpt>
      <trkpt lat="42.33259" lon="2.55206">
        <ele>1016.4</ele>
        <time>2018-11-26T00:33:47Z</time>
      </trkpt>
      <trkpt lat="42.33259" lon="2.55206">
        <ele>1016.3</ele>
        <time>2018-11-26T00:33:47Z</time>
      </trkpt>
      <trkpt lat="42.33262" lon="2.55201">
        <ele>1015.8</ele>
        <time>2018-11-26T00:33:49Z</time>
      </trkpt>
      <trkpt lat="42.33265" lon="2.5518">
        <ele>1016.3</ele>
        <time>2018-11-26T00:33:55Z</time>
      </trkpt>
      <trkpt lat="42.33268" lon="2.55158">
        <ele>1016.7</ele>
        <time>2018-11-26T00:34:01Z</time>
      </trkpt>
      <trkpt lat="42.33268" lon="2.55157">
        <ele>1016.7</ele>
        <time>2018-11-26T00:34:02Z</time>
      </trkpt>
      <trkpt lat="42.33274" lon="2.55149">
        <ele>1018.8</ele>
        <time>2018-11-26T00:34:05Z</time>
      </trkpt>
      <trkpt lat="42.33274" lon="2.55145">
        <ele>1017.7</ele>
        <time>2018-11-26T00:34:06Z</time>
      </trkpt>
      <trkpt lat="42.33274" lon="2.55145">
        <ele>1017.7</ele>
        <time>2018-11-26T00:34:06Z</time>
      </trkpt>
      <trkpt lat="42.33274" lon="2.55143">
        <ele>1018.3</ele>
        <time>2018-11-26T00:34:07Z</time>
      </trkpt>
      <trkpt lat="42.33275" lon="2.55142">
        <ele>1018.2</ele>
        <time>2018-11-26T00:34:08Z</time>
      </trkpt>
      <trkpt lat="42.33276" lon="2.55136">
        <ele>1019.2</ele>
        <time>2018-11-26T00:34:09Z</time>
      </trkpt>
      <trkpt lat="42.33278" lon="2.55137">
        <ele>1019.1</ele>
        <time>2018-11-26T00:34:10Z</time>
      </trkpt>
      <trkpt lat="42.33281" lon="2.55136">
        <ele>1018.7</ele>
        <time>2018-11-26T00:34:11Z</time>
      </trkpt>
      <trkpt lat="42.333" lon="2.55131">
        <ele>1020.1</ele>
        <time>2018-11-26T00:34:19Z</time>
      </trkpt>
      <trkpt lat="42.3331" lon="2.55116">
        <ele>1020.6</ele>
        <time>2018-11-26T00:34:25Z</time>
      </trkpt>
      <trkpt lat="42.33313" lon="2.55112">
        <ele>1021.5</ele>
        <time>2018-11-26T00:34:27Z</time>
      </trkpt>
      <trkpt lat="42.33315" lon="2.5509">
        <ele>1023.1</ele>
        <time>2018-11-26T00:34:33Z</time>
      </trkpt>
      <trkpt lat="42.33314" lon="2.55074">
        <ele>1024.4</ele>
        <time>2018-11-26T00:34:38Z</time>
      </trkpt>
      <trkpt lat="42.33313" lon="2.55071">
        <ele>1025</ele>
        <time>2018-11-26T00:34:39Z</time>
      </trkpt>
      <trkpt lat="42.33314" lon="2.55071">
        <ele>1026</ele>
        <time>2018-11-26T00:34:39Z</time>
      </trkpt>
      <trkpt lat="42.33315" lon="2.55066">
        <ele>1025.4</ele>
        <time>2018-11-26T00:34:40Z</time>
      </trkpt>
      <trkpt lat="42.3332" lon="2.5506">
        <ele>1025.9</ele>
        <time>2018-11-26T00:34:43Z</time>
      </trkpt>
      <trkpt lat="42.3332" lon="2.55059">
        <ele>1026.4</ele>
        <time>2018-11-26T00:34:43Z</time>
      </trkpt>
      <trkpt lat="42.3333" lon="2.55039">
        <ele>1028.9</ele>
        <time>2018-11-26T00:34:50Z</time>
      </trkpt>
      <trkpt lat="42.33332" lon="2.55037">
        <ele>1030.3</ele>
        <time>2018-11-26T00:34:52Z</time>
      </trkpt>
      <trkpt lat="42.33338" lon="2.55025">
        <ele>1031.7</ele>
        <time>2018-11-26T00:34:56Z</time>
      </trkpt>
      <trkpt lat="42.3334" lon="2.55021">
        <ele>1034</ele>
        <time>2018-11-26T00:34:57Z</time>
      </trkpt>
      <trkpt lat="42.33341" lon="2.55019">
        <ele>1035</ele>
        <time>2018-11-26T00:34:58Z</time>
      </trkpt>
      <trkpt lat="42.33342" lon="2.55017">
        <ele>1034.5</ele>
        <time>2018-11-26T00:34:59Z</time>
      </trkpt>
      <trkpt lat="42.33346" lon="2.55013">
        <ele>1034.5</ele>
        <time>2018-11-26T00:35:01Z</time>
      </trkpt>
      <trkpt lat="42.33356" lon="2.55002">
        <ele>1036.1</ele>
        <time>2018-11-26T00:35:06Z</time>
      </trkpt>
      <trkpt lat="42.33372" lon="2.54983">
        <ele>1036.9</ele>
        <time>2018-11-26T00:35:14Z</time>
      </trkpt>
      <trkpt lat="42.33384" lon="2.54963">
        <ele>1038.9</ele>
        <time>2018-11-26T00:35:22Z</time>
      </trkpt>
      <trkpt lat="42.33392" lon="2.54949">
        <ele>1041.4</ele>
        <time>2018-11-26T00:35:27Z</time>
      </trkpt>
      <trkpt lat="42.33398" lon="2.54939">
        <ele>1042.3</ele>
        <time>2018-11-26T00:35:31Z</time>
      </trkpt>
      <trkpt lat="42.33408" lon="2.54921">
        <ele>1041.4</ele>
        <time>2018-11-26T00:35:38Z</time>
      </trkpt>
      <trkpt lat="42.3341" lon="2.54911">
        <ele>1040.4</ele>
        <time>2018-11-26T00:35:41Z</time>
      </trkpt>
      <trkpt lat="42.33412" lon="2.54904">
        <ele>1040.9</ele>
        <time>2018-11-26T00:35:43Z</time>
      </trkpt>
      <trkpt lat="42.33412" lon="2.54904">
        <ele>1038.8</ele>
        <time>2018-11-26T00:35:43Z</time>
      </trkpt>
      <trkpt lat="42.3341" lon="2.54899">
        <ele>1039.3</ele>
        <time>2018-11-26T00:35:45Z</time>
      </trkpt>
      <trkpt lat="42.33411" lon="2.54894">
        <ele>1039.8</ele>
        <time>2018-11-26T00:35:46Z</time>
      </trkpt>
      <trkpt lat="42.33418" lon="2.54891">
        <ele>1039.4</ele>
        <time>2018-11-26T00:35:49Z</time>
      </trkpt>
      <trkpt lat="42.33429" lon="2.54886">
        <ele>1039.9</ele>
        <time>2018-11-26T00:35:54Z</time>
      </trkpt>
      <trkpt lat="42.33429" lon="2.54886">
        <ele>1039.8</ele>
        <time>2018-11-26T00:35:54Z</time>
      </trkpt>
      <trkpt lat="42.33429" lon="2.54886">
        <ele>1040.4</ele>
        <time>2018-11-26T00:35:54Z</time>
      </trkpt>
      <trkpt lat="42.33431" lon="2.54885">
        <ele>1041.4</ele>
        <time>2018-11-26T00:35:54Z</time>
      </trkpt>
      <trkpt lat="42.33437" lon="2.54879">
        <ele>1041.3</ele>
        <time>2018-11-26T00:35:57Z</time>
      </trkpt>
      <trkpt lat="42.33447" lon="2.54869">
        <ele>1041.3</ele>
        <time>2018-11-26T00:36:03Z</time>
      </trkpt>
      <trkpt lat="42.33467" lon="2.54857">
        <ele>1041.3</ele>
        <time>2018-11-26T00:36:11Z</time>
      </trkpt>
      <trkpt lat="42.33482" lon="2.54851">
        <ele>1042.7</ele>
        <time>2018-11-26T00:36:18Z</time>
      </trkpt>
      <trkpt lat="42.33491" lon="2.5484">
        <ele>1042.7</ele>
        <time>2018-11-26T00:36:22Z</time>
      </trkpt>
      <trkpt lat="42.33496" lon="2.54832">
        <ele>1042.2</ele>
        <time>2018-11-26T00:36:26Z</time>
      </trkpt>
      <trkpt lat="42.33505" lon="2.54814">
        <ele>1043.3</ele>
        <time>2018-11-26T00:36:32Z</time>
      </trkpt>
      <trkpt lat="42.33507" lon="2.54809">
        <ele>1043.3</ele>
        <time>2018-11-26T00:36:34Z</time>
      </trkpt>
      <trkpt lat="42.33511" lon="2.54801">
        <ele>1043.7</ele>
        <time>2018-11-26T00:36:37Z</time>
      </trkpt>
      <trkpt lat="42.33517" lon="2.54782">
        <ele>1046.2</ele>
        <time>2018-11-26T00:36:43Z</time>
      </trkpt>
      <trkpt lat="42.33526" lon="2.54767">
        <ele>1048</ele>
        <time>2018-11-26T00:36:48Z</time>
      </trkpt>
      <trkpt lat="42.33526" lon="2.54755">
        <ele>1050</ele>
        <time>2018-11-26T00:36:52Z</time>
      </trkpt>
      <trkpt lat="42.33531" lon="2.54742">
        <ele>1051.8</ele>
        <time>2018-11-26T00:36:56Z</time>
      </trkpt>
      <trkpt lat="42.33536" lon="2.54722">
        <ele>1053.7</ele>
        <time>2018-11-26T00:37:03Z</time>
      </trkpt>
      <trkpt lat="42.33543" lon="2.54718">
        <ele>1054.3</ele>
        <time>2018-11-26T00:37:05Z</time>
      </trkpt>
      <trkpt lat="42.33551" lon="2.54714">
        <ele>1056.3</ele>
        <time>2018-11-26T00:37:09Z</time>
      </trkpt>
      <trkpt lat="42.33553" lon="2.54713">
        <ele>1057.6</ele>
        <time>2018-11-26T00:37:10Z</time>
      </trkpt>
      <trkpt lat="42.3356" lon="2.54709">
        <ele>1058.6</ele>
        <time>2018-11-26T00:37:13Z</time>
      </trkpt>
      <trkpt lat="42.33566" lon="2.54707">
        <ele>1060.6</ele>
        <time>2018-11-26T00:37:15Z</time>
      </trkpt>
      <trkpt lat="42.33569" lon="2.54699">
        <ele>1063.8</ele>
        <time>2018-11-26T00:37:18Z</time>
      </trkpt>
      <trkpt lat="42.33572" lon="2.54687">
        <ele>1066.8</ele>
        <time>2018-11-26T00:37:22Z</time>
      </trkpt>
      <trkpt lat="42.33575" lon="2.54684">
        <ele>1069.1</ele>
        <time>2018-11-26T00:37:23Z</time>
      </trkpt>
      <trkpt lat="42.33583" lon="2.54691">
        <ele>1071.2</ele>
        <time>2018-11-26T00:37:27Z</time>
      </trkpt>
      <trkpt lat="42.33584" lon="2.54692">
        <ele>1071.5</ele>
        <time>2018-11-26T00:37:28Z</time>
      </trkpt>
      <trkpt lat="42.33595" lon="2.54696">
        <ele>1073.5</ele>
        <time>2018-11-26T00:37:32Z</time>
      </trkpt>
      <trkpt lat="42.33597" lon="2.54694">
        <ele>1074.5</ele>
        <time>2018-11-26T00:37:33Z</time>
      </trkpt>
      <trkpt lat="42.33601" lon="2.54692">
        <ele>1074.4</ele>
        <time>2018-11-26T00:37:35Z</time>
      </trkpt>
      <trkpt lat="42.33612" lon="2.54682">
        <ele>1076.9</ele>
        <time>2018-11-26T00:37:40Z</time>
      </trkpt>
      <trkpt lat="42.33622" lon="2.54673">
        <ele>1079.2</ele>
        <time>2018-11-26T00:37:45Z</time>
      </trkpt>
      <trkpt lat="42.33632" lon="2.54663">
        <ele>1081.1</ele>
        <time>2018-11-26T00:37:50Z</time>
      </trkpt>
      <trkpt lat="42.33639" lon="2.54652">
        <ele>1083.5</ele>
        <time>2018-11-26T00:37:54Z</time>
      </trkpt>
      <trkpt lat="42.33644" lon="2.54641">
        <ele>1086.1</ele>
        <time>2018-11-26T00:37:58Z</time>
      </trkpt>
      <trkpt lat="42.33648" lon="2.54632">
        <ele>1088.5</ele>
        <time>2018-11-26T00:38:01Z</time>
      </trkpt>
      <trkpt lat="42.33653" lon="2.54626">
        <ele>1090.9</ele>
        <time>2018-11-26T00:38:04Z</time>
      </trkpt>
      <trkpt lat="42.33657" lon="2.5462">
        <ele>1092.8</ele>
        <time>2018-11-26T00:38:06Z</time>
      </trkpt>
      <trkpt lat="42.33664" lon="2.54612">
        <ele>1095.2</ele>
        <time>2018-11-26T00:38:10Z</time>
      </trkpt>
      <trkpt lat="42.33671" lon="2.54603">
        <ele>1097.1</ele>
        <time>2018-11-26T00:38:14Z</time>
      </trkpt>
      <trkpt lat="42.33676" lon="2.5459">
        <ele>1099.9</ele>
        <time>2018-11-26T00:38:18Z</time>
      </trkpt>
      <trkpt lat="42.33686" lon="2.54578">
        <ele>1102.4</ele>
        <time>2018-11-26T00:38:23Z</time>
      </trkpt>
      <trkpt lat="42.3369" lon="2.54572">
        <ele>1104.8</ele>
        <time>2018-11-26T00:38:26Z</time>
      </trkpt>
      <trkpt lat="42.33695" lon="2.54562">
        <ele>1107.1</ele>
        <time>2018-11-26T00:38:30Z</time>
      </trkpt>
      <trkpt lat="42.33701" lon="2.54551">
        <ele>1109.5</ele>
        <time>2018-11-26T00:38:34Z</time>
      </trkpt>
      <trkpt lat="42.33702" lon="2.54538">
        <ele>1111.4</ele>
        <time>2018-11-26T00:38:38Z</time>
      </trkpt>
      <trkpt lat="42.33703" lon="2.54534">
        <ele>1112.5</ele>
        <time>2018-11-26T00:38:39Z</time>
      </trkpt>
      <trkpt lat="42.33707" lon="2.54525">
        <ele>1114.3</ele>
        <time>2018-11-26T00:38:42Z</time>
      </trkpt>
      <trkpt lat="42.33716" lon="2.54514">
        <ele>1115.8</ele>
        <time>2018-11-26T00:38:47Z</time>
      </trkpt>
      <trkpt lat="42.33717" lon="2.54509">
        <ele>1116.8</ele>
        <time>2018-11-26T00:38:48Z</time>
      </trkpt>
      <trkpt lat="42.33719" lon="2.54505">
        <ele>1118.6</ele>
        <time>2018-11-26T00:38:50Z</time>
      </trkpt>
      <trkpt lat="42.33716" lon="2.54489">
        <ele>1121.1</ele>
        <time>2018-11-26T00:38:55Z</time>
      </trkpt>
      <trkpt lat="42.33715" lon="2.54472">
        <ele>1123.1</ele>
        <time>2018-11-26T00:39:00Z</time>
      </trkpt>
      <trkpt lat="42.33715" lon="2.54457">
        <ele>1125</ele>
        <time>2018-11-26T00:39:04Z</time>
      </trkpt>
      <trkpt lat="42.33719" lon="2.54442">
        <ele>1126.3</ele>
        <time>2018-11-26T00:39:09Z</time>
      </trkpt>
      <trkpt lat="42.33722" lon="2.54426">
        <ele>1128.2</ele>
        <time>2018-11-26T00:39:14Z</time>
      </trkpt>
      <trkpt lat="42.33724" lon="2.54417">
        <ele>1129.7</ele>
        <time>2018-11-26T00:39:17Z</time>
      </trkpt>
      <trkpt lat="42.33729" lon="2.54407">
        <ele>1130.7</ele>
        <time>2018-11-26T00:39:20Z</time>
      </trkpt>
      <trkpt lat="42.33732" lon="2.54403">
        <ele>1131.2</ele>
        <time>2018-11-26T00:39:22Z</time>
      </trkpt>
      <trkpt lat="42.33733" lon="2.54401">
        <ele>1130.3</ele>
        <time>2018-11-26T00:39:22Z</time>
      </trkpt>
      <trkpt lat="42.33733" lon="2.54401">
        <ele>1129.7</ele>
        <time>2018-11-26T00:39:22Z</time>
      </trkpt>
      <trkpt lat="42.33732" lon="2.544">
        <ele>1129.3</ele>
        <time>2018-11-26T00:39:23Z</time>
      </trkpt>
      <trkpt lat="42.33732" lon="2.54397">
        <ele>1130.7</ele>
        <time>2018-11-26T00:39:24Z</time>
      </trkpt>
      <trkpt lat="42.33765" lon="2.54368">
        <ele>1152.4</ele>
        <time>2018-11-26T01:04:26Z</time>
      </trkpt>
      <trkpt lat="42.33758" lon="2.54375">
        <ele>1152.4</ele>
        <time>2018-11-26T01:04:29Z</time>
      </trkpt>
      <trkpt lat="42.33755" lon="2.54375">
        <ele>1152.1</ele>
        <time>2018-11-26T01:04:30Z</time>
      </trkpt>
      <trkpt lat="42.33756" lon="2.54374">
        <ele>1153.2</ele>
        <time>2018-11-26T01:04:30Z</time>
      </trkpt>
      <trkpt lat="42.33763" lon="2.54376">
        <ele>1151.8</ele>
        <time>2018-11-26T01:04:34Z</time>
      </trkpt>
      <trkpt lat="42.33764" lon="2.54378">
        <ele>1153</ele>
        <time>2018-11-26T01:04:34Z</time>
      </trkpt>
      <trkpt lat="42.33768" lon="2.54377">
        <ele>1152.4</ele>
        <time>2018-11-26T01:04:36Z</time>
      </trkpt>
      <trkpt lat="42.3377" lon="2.5438">
        <ele>1150.8</ele>
        <time>2018-11-26T01:04:37Z</time>
      </trkpt>
      <trkpt lat="42.33773" lon="2.54383">
        <ele>1150.6</ele>
        <time>2018-11-26T01:04:38Z</time>
      </trkpt>
      <trkpt lat="42.33773" lon="2.54382">
        <ele>1150.4</ele>
        <time>2018-11-26T01:04:39Z</time>
      </trkpt>
      <trkpt lat="42.33773" lon="2.5438">
        <ele>1150.7</ele>
        <time>2018-11-26T01:04:39Z</time>
      </trkpt>
      <trkpt lat="42.33774" lon="2.54379">
        <ele>1151</ele>
        <time>2018-11-26T01:04:40Z</time>
      </trkpt>
      <trkpt lat="42.33771" lon="2.54378">
        <ele>1151.3</ele>
        <time>2018-11-26T01:04:41Z</time>
      </trkpt>
      <trkpt lat="42.3377" lon="2.54378">
        <ele>1151.5</ele>
        <time>2018-11-26T01:04:41Z</time>
      </trkpt>
      <trkpt lat="42.33765" lon="2.54377">
        <ele>1151.1</ele>
        <time>2018-11-26T01:04:43Z</time>
      </trkpt>
      <trkpt lat="42.33767" lon="2.5438">
        <ele>1150.8</ele>
        <time>2018-11-26T01:04:45Z</time>
      </trkpt>
      <trkpt lat="42.33775" lon="2.54397">
        <ele>1149.7</ele>
        <time>2018-11-26T01:04:50Z</time>
      </trkpt>
      <trkpt lat="42.33778" lon="2.54404">
        <ele>1149.6</ele>
        <time>2018-11-26T01:04:53Z</time>
      </trkpt>
      <trkpt lat="42.33785" lon="2.54412">
        <ele>1148.1</ele>
        <time>2018-11-26T01:04:57Z</time>
      </trkpt>
      <trkpt lat="42.33784" lon="2.54415">
        <ele>1147.4</ele>
        <time>2018-11-26T01:04:57Z</time>
      </trkpt>
      <trkpt lat="42.33789" lon="2.54414">
        <ele>1147.7</ele>
        <time>2018-11-26T01:04:59Z</time>
      </trkpt>
      <trkpt lat="42.33787" lon="2.5441">
        <ele>1147.7</ele>
        <time>2018-11-26T01:05:01Z</time>
      </trkpt>
      <trkpt lat="42.33791" lon="2.54411">
        <ele>1147.4</ele>
        <time>2018-11-26T01:05:02Z</time>
      </trkpt>
      <trkpt lat="42.33792" lon="2.54411">
        <ele>1146.9</ele>
        <time>2018-11-26T01:05:03Z</time>
      </trkpt>
      <trkpt lat="42.33794" lon="2.54412">
        <ele>1147</ele>
        <time>2018-11-26T01:05:04Z</time>
      </trkpt>
      <trkpt lat="42.33798" lon="2.54412">
        <ele>1148.4</ele>
        <time>2018-11-26T01:05:05Z</time>
      </trkpt>
      <trkpt lat="42.33807" lon="2.54417">
        <ele>1147.3</ele>
        <time>2018-11-26T01:05:09Z</time>
      </trkpt>
      <trkpt lat="42.33814" lon="2.54418">
        <ele>1146.7</ele>
        <time>2018-11-26T01:05:12Z</time>
      </trkpt>
      <trkpt lat="42.33817" lon="2.5442">
        <ele>1146.8</ele>
        <time>2018-11-26T01:05:14Z</time>
      </trkpt>
      <trkpt lat="42.33812" lon="2.5442">
        <ele>1146.8</ele>
        <time>2018-11-26T01:05:16Z</time>
      </trkpt>
      <trkpt lat="42.33809" lon="2.54418">
        <ele>1146.2</ele>
        <time>2018-11-26T01:05:17Z</time>
      </trkpt>
      <trkpt lat="42.33812" lon="2.54412">
        <ele>1146.7</ele>
        <time>2018-11-26T01:05:19Z</time>
      </trkpt>
      <trkpt lat="42.33813" lon="2.54412">
        <ele>1146.5</ele>
        <time>2018-11-26T01:05:19Z</time>
      </trkpt>
      <trkpt lat="42.33814" lon="2.54416">
        <ele>1146.8</ele>
        <time>2018-11-26T01:05:21Z</time>
      </trkpt>
      <trkpt lat="42.33807" lon="2.54426">
        <ele>1144.9</ele>
        <time>2018-11-26T01:05:25Z</time>
      </trkpt>
      <trkpt lat="42.33809" lon="2.54425">
        <ele>1144.5</ele>
        <time>2018-11-26T01:05:25Z</time>
      </trkpt>
      <trkpt lat="42.33812" lon="2.54426">
        <ele>1144.5</ele>
        <time>2018-11-26T01:05:26Z</time>
      </trkpt>
      <trkpt lat="42.33809" lon="2.54428">
        <ele>1144.5</ele>
        <time>2018-11-26T01:05:28Z</time>
      </trkpt>
      <trkpt lat="42.33814" lon="2.54425">
        <ele>1144.3</ele>
        <time>2018-11-26T01:05:30Z</time>
      </trkpt>
      <trkpt lat="42.33813" lon="2.54424">
        <ele>1144.6</ele>
        <time>2018-11-26T01:05:30Z</time>
      </trkpt>
      <trkpt lat="42.33815" lon="2.54426">
        <ele>1143.8</ele>
        <time>2018-11-26T01:05:31Z</time>
      </trkpt>
      <trkpt lat="42.33817" lon="2.54425">
        <ele>1143.8</ele>
        <time>2018-11-26T01:05:32Z</time>
      </trkpt>
      <trkpt lat="42.33816" lon="2.54425">
        <ele>1144.5</ele>
        <time>2018-11-26T01:05:33Z</time>
      </trkpt>
      <trkpt lat="42.33822" lon="2.54421">
        <ele>1145</ele>
        <time>2018-11-26T01:05:35Z</time>
      </trkpt>
      <trkpt lat="42.33823" lon="2.54419">
        <ele>1144.8</ele>
        <time>2018-11-26T01:05:36Z</time>
      </trkpt>
      <trkpt lat="42.33822" lon="2.54417">
        <ele>1144.4</ele>
        <time>2018-11-26T01:05:37Z</time>
      </trkpt>
      <trkpt lat="42.33819" lon="2.54419">
        <ele>1144</ele>
        <time>2018-11-26T01:05:38Z</time>
      </trkpt>
      <trkpt lat="42.33813" lon="2.54417">
        <ele>1143.4</ele>
        <time>2018-11-26T01:05:40Z</time>
      </trkpt>
      <trkpt lat="42.33818" lon="2.54416">
        <ele>1144.3</ele>
        <time>2018-11-26T01:05:42Z</time>
      </trkpt>
      <trkpt lat="42.33819" lon="2.54413">
        <ele>1144.5</ele>
        <time>2018-11-26T01:05:43Z</time>
      </trkpt>
      <trkpt lat="42.33825" lon="2.54411">
        <ele>1143.8</ele>
        <time>2018-11-26T01:05:46Z</time>
      </trkpt>
      <trkpt lat="42.3383" lon="2.54418">
        <ele>1144.8</ele>
        <time>2018-11-26T01:05:48Z</time>
      </trkpt>
      <trkpt lat="42.33832" lon="2.54426">
        <ele>1144.6</ele>
        <time>2018-11-26T01:05:51Z</time>
      </trkpt>
      <trkpt lat="42.33835" lon="2.54433">
        <ele>1144.2</ele>
        <time>2018-11-26T01:05:54Z</time>
      </trkpt>
      <trkpt lat="42.33839" lon="2.54445">
        <ele>1143.7</ele>
        <time>2018-11-26T01:05:57Z</time>
      </trkpt>
      <trkpt lat="42.33835" lon="2.54452">
        <ele>1143.2</ele>
        <time>2018-11-26T01:06:00Z</time>
      </trkpt>
      <trkpt lat="42.33834" lon="2.54459">
        <ele>1143.2</ele>
        <time>2018-11-26T01:06:02Z</time>
      </trkpt>
      <trkpt lat="42.33837" lon="2.5447">
        <ele>1142.2</ele>
        <time>2018-11-26T01:06:06Z</time>
      </trkpt>
      <trkpt lat="42.33844" lon="2.54483">
        <ele>1142.1</ele>
        <time>2018-11-26T01:06:10Z</time>
      </trkpt>
      <trkpt lat="42.33848" lon="2.54489">
        <ele>1141.8</ele>
        <time>2018-11-26T01:06:13Z</time>
      </trkpt>
      <trkpt lat="42.33849" lon="2.54498">
        <ele>1141.9</ele>
        <time>2018-11-26T01:06:15Z</time>
      </trkpt>
      <trkpt lat="42.33858" lon="2.54505">
        <ele>1142.7</ele>
        <time>2018-11-26T01:06:20Z</time>
      </trkpt>
      <trkpt lat="42.3387" lon="2.54509">
        <ele>1141.8</ele>
        <time>2018-11-26T01:06:25Z</time>
      </trkpt>
      <trkpt lat="42.33879" lon="2.54509">
        <ele>1141.2</ele>
        <time>2018-11-26T01:06:28Z</time>
      </trkpt>
      <trkpt lat="42.33882" lon="2.54508">
        <ele>1140.2</ele>
        <time>2018-11-26T01:06:30Z</time>
      </trkpt>
      <trkpt lat="42.33888" lon="2.54509">
        <ele>1139.6</ele>
        <time>2018-11-26T01:06:32Z</time>
      </trkpt>
      <trkpt lat="42.33892" lon="2.54503">
        <ele>1139.8</ele>
        <time>2018-11-26T01:06:34Z</time>
      </trkpt>
      <trkpt lat="42.33895" lon="2.54501">
        <ele>1140.2</ele>
        <time>2018-11-26T01:06:36Z</time>
      </trkpt>
      <trkpt lat="42.33901" lon="2.54489">
        <ele>1141.1</ele>
        <time>2018-11-26T01:06:40Z</time>
      </trkpt>
      <trkpt lat="42.339" lon="2.54487">
        <ele>1140.9</ele>
        <time>2018-11-26T01:06:41Z</time>
      </trkpt>
      <trkpt lat="42.33899" lon="2.54489">
        <ele>1140.8</ele>
        <time>2018-11-26T01:06:42Z</time>
      </trkpt>
      <trkpt lat="42.33903" lon="2.54498">
        <ele>1141.2</ele>
        <time>2018-11-26T01:06:45Z</time>
      </trkpt>
      <trkpt lat="42.33904" lon="2.54513">
        <ele>1140.9</ele>
        <time>2018-11-26T01:06:49Z</time>
      </trkpt>
      <trkpt lat="42.3391" lon="2.54527">
        <ele>1141.1</ele>
        <time>2018-11-26T01:06:54Z</time>
      </trkpt>
      <trkpt lat="42.33909" lon="2.54532">
        <ele>1140.6</ele>
        <time>2018-11-26T01:06:56Z</time>
      </trkpt>
      <trkpt lat="42.33911" lon="2.54537">
        <ele>1140.5</ele>
        <time>2018-11-26T01:06:57Z</time>
      </trkpt>
      <trkpt lat="42.33906" lon="2.54546">
        <ele>1140</ele>
        <time>2018-11-26T01:07:01Z</time>
      </trkpt>
      <trkpt lat="42.33906" lon="2.54553">
        <ele>1139.3</ele>
        <time>2018-11-26T01:07:02Z</time>
      </trkpt>
      <trkpt lat="42.33912" lon="2.54562">
        <ele>1138.3</ele>
        <time>2018-11-26T01:07:06Z</time>
      </trkpt>
      <trkpt lat="42.33916" lon="2.54564">
        <ele>1138.2</ele>
        <time>2018-11-26T01:07:08Z</time>
      </trkpt>
      <trkpt lat="42.33921" lon="2.54576">
        <ele>1137.7</ele>
        <time>2018-11-26T01:07:12Z</time>
      </trkpt>
      <trkpt lat="42.33921" lon="2.54586">
        <ele>1137.2</ele>
        <time>2018-11-26T01:07:15Z</time>
      </trkpt>
      <trkpt lat="42.33919" lon="2.54591">
        <ele>1136.7</ele>
        <time>2018-11-26T01:07:16Z</time>
      </trkpt>
      <trkpt lat="42.33919" lon="2.54599">
        <ele>1136</ele>
        <time>2018-11-26T01:07:19Z</time>
      </trkpt>
      <trkpt lat="42.33922" lon="2.54603">
        <ele>1135.3</ele>
        <time>2018-11-26T01:07:20Z</time>
      </trkpt>
      <trkpt lat="42.33921" lon="2.54607">
        <ele>1135</ele>
        <time>2018-11-26T01:07:21Z</time>
      </trkpt>
      <trkpt lat="42.33923" lon="2.5462">
        <ele>1134.4</ele>
        <time>2018-11-26T01:07:25Z</time>
      </trkpt>
      <trkpt lat="42.33922" lon="2.54626">
        <ele>1132.9</ele>
        <time>2018-11-26T01:07:27Z</time>
      </trkpt>
      <trkpt lat="42.33923" lon="2.54643">
        <ele>1131.1</ele>
        <time>2018-11-26T01:07:32Z</time>
      </trkpt>
      <trkpt lat="42.33922" lon="2.54653">
        <ele>1130</ele>
        <time>2018-11-26T01:07:35Z</time>
      </trkpt>
      <trkpt lat="42.33927" lon="2.54657">
        <ele>1129.6</ele>
        <time>2018-11-26T01:07:37Z</time>
      </trkpt>
      <trkpt lat="42.33928" lon="2.5466">
        <ele>1129.5</ele>
        <time>2018-11-26T01:07:38Z</time>
      </trkpt>
      <trkpt lat="42.33928" lon="2.54672">
        <ele>1128.7</ele>
        <time>2018-11-26T01:07:42Z</time>
      </trkpt>
      <trkpt lat="42.33926" lon="2.54676">
        <ele>1128.2</ele>
        <time>2018-11-26T01:07:43Z</time>
      </trkpt>
      <trkpt lat="42.33928" lon="2.54681">
        <ele>1127.6</ele>
        <time>2018-11-26T01:07:45Z</time>
      </trkpt>
      <trkpt lat="42.33935" lon="2.5469">
        <ele>1127.3</ele>
        <time>2018-11-26T01:07:49Z</time>
      </trkpt>
      <trkpt lat="42.33946" lon="2.54703">
        <ele>1127.3</ele>
        <time>2018-11-26T01:07:55Z</time>
      </trkpt>
      <trkpt lat="42.33953" lon="2.5472">
        <ele>1127.3</ele>
        <time>2018-11-26T01:08:00Z</time>
      </trkpt>
      <trkpt lat="42.33952" lon="2.54725">
        <ele>1127.5</ele>
        <time>2018-11-26T01:08:01Z</time>
      </trkpt>
      <trkpt lat="42.33946" lon="2.54734">
        <ele>1127.7</ele>
        <time>2018-11-26T01:08:05Z</time>
      </trkpt>
      <trkpt lat="42.33946" lon="2.54742">
        <ele>1128.6</ele>
        <time>2018-11-26T01:08:08Z</time>
      </trkpt>
      <trkpt lat="42.33944" lon="2.54752">
        <ele>1129.3</ele>
        <time>2018-11-26T01:08:11Z</time>
      </trkpt>
      <trkpt lat="42.33935" lon="2.54756">
        <ele>1128.9</ele>
        <time>2018-11-26T01:08:14Z</time>
      </trkpt>
      <trkpt lat="42.33928" lon="2.54766">
        <ele>1128.8</ele>
        <time>2018-11-26T01:08:18Z</time>
      </trkpt>
      <trkpt lat="42.33925" lon="2.54771">
        <ele>1129.6</ele>
        <time>2018-11-26T01:08:20Z</time>
      </trkpt>
      <trkpt lat="42.33922" lon="2.54774">
        <ele>1129.8</ele>
        <time>2018-11-26T01:08:22Z</time>
      </trkpt>
      <trkpt lat="42.33912" lon="2.54778">
        <ele>1128.9</ele>
        <time>2018-11-26T01:08:26Z</time>
      </trkpt>
      <trkpt lat="42.3391" lon="2.5478">
        <ele>1128.6</ele>
        <time>2018-11-26T01:08:27Z</time>
      </trkpt>
      <trkpt lat="42.339" lon="2.54795">
        <ele>1129.3</ele>
        <time>2018-11-26T01:08:33Z</time>
      </trkpt>
      <trkpt lat="42.33891" lon="2.54813">
        <ele>1130</ele>
        <time>2018-11-26T01:08:39Z</time>
      </trkpt>
      <trkpt lat="42.33889" lon="2.54815">
        <ele>1130.3</ele>
        <time>2018-11-26T01:08:41Z</time>
      </trkpt>
      <trkpt lat="42.33885" lon="2.54829">
        <ele>1130.6</ele>
        <time>2018-11-26T01:08:45Z</time>
      </trkpt>
      <trkpt lat="42.33887" lon="2.54836">
        <ele>1130.9</ele>
        <time>2018-11-26T01:08:47Z</time>
      </trkpt>
      <trkpt lat="42.33891" lon="2.54844">
        <ele>1131.9</ele>
        <time>2018-11-26T01:08:50Z</time>
      </trkpt>
      <trkpt lat="42.33892" lon="2.54848">
        <ele>1132</ele>
        <time>2018-11-26T01:08:51Z</time>
      </trkpt>
      <trkpt lat="42.33892" lon="2.54852">
        <ele>1131.9</ele>
        <time>2018-11-26T01:08:52Z</time>
      </trkpt>
      <trkpt lat="42.33896" lon="2.54867">
        <ele>1132.2</ele>
        <time>2018-11-26T01:08:57Z</time>
      </trkpt>
      <trkpt lat="42.33899" lon="2.54869">
        <ele>1133.3</ele>
        <time>2018-11-26T01:08:59Z</time>
      </trkpt>
      <trkpt lat="42.33916" lon="2.54889">
        <ele>1133.6</ele>
        <time>2018-11-26T01:09:08Z</time>
      </trkpt>
      <trkpt lat="42.33921" lon="2.54892">
        <ele>1133.2</ele>
        <time>2018-11-26T01:09:10Z</time>
      </trkpt>
      <trkpt lat="42.33923" lon="2.54895">
        <ele>1134.1</ele>
        <time>2018-11-26T01:09:11Z</time>
      </trkpt>
      <trkpt lat="42.3393" lon="2.54902">
        <ele>1134.4</ele>
        <time>2018-11-26T01:09:15Z</time>
      </trkpt>
      <trkpt lat="42.33951" lon="2.54905">
        <ele>1134.1</ele>
        <time>2018-11-26T01:09:23Z</time>
      </trkpt>
      <trkpt lat="42.33966" lon="2.54908">
        <ele>1132.9</ele>
        <time>2018-11-26T01:09:29Z</time>
      </trkpt>
      <trkpt lat="42.33968" lon="2.5491">
        <ele>1133.4</ele>
        <time>2018-11-26T01:09:30Z</time>
      </trkpt>
      <trkpt lat="42.33975" lon="2.54913">
        <ele>1132.1</ele>
        <time>2018-11-26T01:09:33Z</time>
      </trkpt>
      <trkpt lat="42.33982" lon="2.54919">
        <ele>1132</ele>
        <time>2018-11-26T01:09:36Z</time>
      </trkpt>
      <trkpt lat="42.33985" lon="2.54925">
        <ele>1131.3</ele>
        <time>2018-11-26T01:09:38Z</time>
      </trkpt>
      <trkpt lat="42.33992" lon="2.54941">
        <ele>1131.2</ele>
        <time>2018-11-26T01:09:44Z</time>
      </trkpt>
      <trkpt lat="42.33997" lon="2.54947">
        <ele>1131.3</ele>
        <time>2018-11-26T01:09:47Z</time>
      </trkpt>
      <trkpt lat="42.34003" lon="2.54961">
        <ele>1131</ele>
        <time>2018-11-26T01:09:51Z</time>
      </trkpt>
      <trkpt lat="42.34005" lon="2.54972">
        <ele>1131.4</ele>
        <time>2018-11-26T01:09:55Z</time>
      </trkpt>
      <trkpt lat="42.34011" lon="2.5499">
        <ele>1132.2</ele>
        <time>2018-11-26T01:10:00Z</time>
      </trkpt>
      <trkpt lat="42.34014" lon="2.55031">
        <ele>1132.8</ele>
        <time>2018-11-26T01:10:13Z</time>
      </trkpt>
      <trkpt lat="42.34014" lon="2.55032">
        <ele>1132.3</ele>
        <time>2018-11-26T01:10:13Z</time>
      </trkpt>
      <trkpt lat="42.34013" lon="2.55042">
        <ele>1132.5</ele>
        <time>2018-11-26T01:10:16Z</time>
      </trkpt>
      <trkpt lat="42.34011" lon="2.55047">
        <ele>1132.3</ele>
        <time>2018-11-26T01:10:18Z</time>
      </trkpt>
      <trkpt lat="42.34013" lon="2.55053">
        <ele>1132.5</ele>
        <time>2018-11-26T01:10:20Z</time>
      </trkpt>
      <trkpt lat="42.34011" lon="2.55064">
        <ele>1132</ele>
        <time>2018-11-26T01:10:23Z</time>
      </trkpt>
      <trkpt lat="42.34012" lon="2.55067">
        <ele>1131.7</ele>
        <time>2018-11-26T01:10:24Z</time>
      </trkpt>
      <trkpt lat="42.34011" lon="2.55074">
        <ele>1131.1</ele>
        <time>2018-11-26T01:10:26Z</time>
      </trkpt>
      <trkpt lat="42.34011" lon="2.55077">
        <ele>1131.2</ele>
        <time>2018-11-26T01:10:27Z</time>
      </trkpt>
      <trkpt lat="42.34007" lon="2.55102">
        <ele>1131.1</ele>
        <time>2018-11-26T01:10:35Z</time>
      </trkpt>
      <trkpt lat="42.34008" lon="2.55106">
        <ele>1131.6</ele>
        <time>2018-11-26T01:10:36Z</time>
      </trkpt>
      <trkpt lat="42.34006" lon="2.55111">
        <ele>1131.7</ele>
        <time>2018-11-26T01:10:38Z</time>
      </trkpt>
      <trkpt lat="42.34003" lon="2.5512">
        <ele>1130</ele>
        <time>2018-11-26T01:10:41Z</time>
      </trkpt>
      <trkpt lat="42.33996" lon="2.55133">
        <ele>1130.1</ele>
        <time>2018-11-26T01:10:45Z</time>
      </trkpt>
      <trkpt lat="42.33989" lon="2.55163">
        <ele>1130.3</ele>
        <time>2018-11-26T01:10:55Z</time>
      </trkpt>
      <trkpt lat="42.33985" lon="2.55171">
        <ele>1130.3</ele>
        <time>2018-11-26T01:10:58Z</time>
      </trkpt>
      <trkpt lat="42.33985" lon="2.55173">
        <ele>1130.1</ele>
        <time>2018-11-26T01:10:58Z</time>
      </trkpt>
      <trkpt lat="42.33983" lon="2.55194">
        <ele>1129.4</ele>
        <time>2018-11-26T01:11:05Z</time>
      </trkpt>
      <trkpt lat="42.33985" lon="2.55202">
        <ele>1129.5</ele>
        <time>2018-11-26T01:11:07Z</time>
      </trkpt>
      <trkpt lat="42.33984" lon="2.55207">
        <ele>1129.4</ele>
        <time>2018-11-26T01:11:08Z</time>
      </trkpt>
      <trkpt lat="42.33984" lon="2.55214">
        <ele>1129.7</ele>
        <time>2018-11-26T01:11:11Z</time>
      </trkpt>
      <trkpt lat="42.33979" lon="2.55232">
        <ele>1128.8</ele>
        <time>2018-11-26T01:11:16Z</time>
      </trkpt>
      <trkpt lat="42.33978" lon="2.55233">
        <ele>1128.8</ele>
        <time>2018-11-26T01:11:17Z</time>
      </trkpt>
      <trkpt lat="42.33966" lon="2.55268">
        <ele>1127.5</ele>
        <time>2018-11-26T01:11:28Z</time>
      </trkpt>
      <trkpt lat="42.33965" lon="2.55271">
        <ele>1127.7</ele>
        <time>2018-11-26T01:11:29Z</time>
      </trkpt>
      <trkpt lat="42.33961" lon="2.5528">
        <ele>1127.6</ele>
        <time>2018-11-26T01:11:32Z</time>
      </trkpt>
      <trkpt lat="42.33961" lon="2.55282">
        <ele>1127.8</ele>
        <time>2018-11-26T01:11:33Z</time>
      </trkpt>
      <trkpt lat="42.33959" lon="2.55283">
        <ele>1126.5</ele>
        <time>2018-11-26T01:11:34Z</time>
      </trkpt>
      <trkpt lat="42.33961" lon="2.55283">
        <ele>1127.3</ele>
        <time>2018-11-26T01:11:35Z</time>
      </trkpt>
      <trkpt lat="42.33969" lon="2.55294">
        <ele>1125.7</ele>
        <time>2018-11-26T01:11:39Z</time>
      </trkpt>
      <trkpt lat="42.33978" lon="2.55307">
        <ele>1123.1</ele>
        <time>2018-11-26T01:11:45Z</time>
      </trkpt>
      <trkpt lat="42.33981" lon="2.55317">
        <ele>1121</ele>
        <time>2018-11-26T01:11:48Z</time>
      </trkpt>
      <trkpt lat="42.33985" lon="2.55323">
        <ele>1119.7</ele>
        <time>2018-11-26T01:11:50Z</time>
      </trkpt>
      <trkpt lat="42.33999" lon="2.5533">
        <ele>1116.1</ele>
        <time>2018-11-26T01:11:56Z</time>
      </trkpt>
      <trkpt lat="42.34001" lon="2.55331">
        <ele>1116.3</ele>
        <time>2018-11-26T01:11:57Z</time>
      </trkpt>
      <trkpt lat="42.34024" lon="2.55334">
        <ele>1115.9</ele>
        <time>2018-11-26T01:12:06Z</time>
      </trkpt>
      <trkpt lat="42.34033" lon="2.55337">
        <ele>1115.7</ele>
        <time>2018-11-26T01:12:10Z</time>
      </trkpt>
      <trkpt lat="42.34036" lon="2.5534">
        <ele>1115</ele>
        <time>2018-11-26T01:12:11Z</time>
      </trkpt>
      <trkpt lat="42.34043" lon="2.55342">
        <ele>1114.4</ele>
        <time>2018-11-26T01:12:14Z</time>
      </trkpt>
      <trkpt lat="42.34044" lon="2.55343">
        <ele>1114.6</ele>
        <time>2018-11-26T01:12:15Z</time>
      </trkpt>
      <trkpt lat="42.3405" lon="2.55345">
        <ele>1114.7</ele>
        <time>2018-11-26T01:12:17Z</time>
      </trkpt>
      <trkpt lat="42.34059" lon="2.55341">
        <ele>1113.8</ele>
        <time>2018-11-26T01:12:21Z</time>
      </trkpt>
      <trkpt lat="42.34086" lon="2.55325">
        <ele>1113</ele>
        <time>2018-11-26T01:12:33Z</time>
      </trkpt>
      <trkpt lat="42.34093" lon="2.55324">
        <ele>1112.6</ele>
        <time>2018-11-26T01:12:36Z</time>
      </trkpt>
      <trkpt lat="42.34107" lon="2.55326">
        <ele>1113.2</ele>
        <time>2018-11-26T01:12:41Z</time>
      </trkpt>
      <trkpt lat="42.3411" lon="2.55325">
        <ele>1113.1</ele>
        <time>2018-11-26T01:12:42Z</time>
      </trkpt>
      <trkpt lat="42.34131" lon="2.55334">
        <ele>1113.3</ele>
        <time>2018-11-26T01:12:51Z</time>
      </trkpt>
      <trkpt lat="42.34135" lon="2.55334">
        <ele>1113.4</ele>
        <time>2018-11-26T01:12:53Z</time>
      </trkpt>
      <trkpt lat="42.3414" lon="2.55339">
        <ele>1112.7</ele>
        <time>2018-11-26T01:12:55Z</time>
      </trkpt>
      <trkpt lat="42.34149" lon="2.5534">
        <ele>1112.2</ele>
        <time>2018-11-26T01:12:59Z</time>
      </trkpt>
      <trkpt lat="42.34156" lon="2.55348">
        <ele>1112.2</ele>
        <time>2018-11-26T01:13:03Z</time>
      </trkpt>
      <trkpt lat="42.34168" lon="2.5535">
        <ele>1111.8</ele>
        <time>2018-11-26T01:13:07Z</time>
      </trkpt>
      <trkpt lat="42.34178" lon="2.55354">
        <ele>1112.9</ele>
        <time>2018-11-26T01:13:12Z</time>
      </trkpt>
      <trkpt lat="42.34189" lon="2.55357">
        <ele>1112.3</ele>
        <time>2018-11-26T01:13:16Z</time>
      </trkpt>
      <trkpt lat="42.34197" lon="2.55355">
        <ele>1112.6</ele>
        <time>2018-11-26T01:13:19Z</time>
      </trkpt>
      <trkpt lat="42.342" lon="2.55356">
        <ele>1112.3</ele>
        <time>2018-11-26T01:13:21Z</time>
      </trkpt>
      <trkpt lat="42.34208" lon="2.55353">
        <ele>1111.7</ele>
        <time>2018-11-26T01:13:24Z</time>
      </trkpt>
      <trkpt lat="42.3422" lon="2.55361">
        <ele>1110.5</ele>
        <time>2018-11-26T01:13:29Z</time>
      </trkpt>
      <trkpt lat="42.34221" lon="2.55361">
        <ele>1110.8</ele>
        <time>2018-11-26T01:13:30Z</time>
      </trkpt>
      <trkpt lat="42.3423" lon="2.55364">
        <ele>1110.4</ele>
        <time>2018-11-26T01:13:33Z</time>
      </trkpt>
      <trkpt lat="42.34244" lon="2.55378">
        <ele>1109.4</ele>
        <time>2018-11-26T01:13:40Z</time>
      </trkpt>
      <trkpt lat="42.34252" lon="2.55383">
        <ele>1110.1</ele>
        <time>2018-11-26T01:13:44Z</time>
      </trkpt>
      <trkpt lat="42.34263" lon="2.55401">
        <ele>1109.6</ele>
        <time>2018-11-26T01:13:51Z</time>
      </trkpt>
      <trkpt lat="42.34267" lon="2.55422">
        <ele>1108.9</ele>
        <time>2018-11-26T01:13:57Z</time>
      </trkpt>
      <trkpt lat="42.3427" lon="2.55432">
        <ele>1108.3</ele>
        <time>2018-11-26T01:14:00Z</time>
      </trkpt>
      <trkpt lat="42.34272" lon="2.55435">
        <ele>1108.3</ele>
        <time>2018-11-26T01:14:02Z</time>
      </trkpt>
      <trkpt lat="42.3428" lon="2.55466">
        <ele>1108.3</ele>
        <time>2018-11-26T01:14:11Z</time>
      </trkpt>
      <trkpt lat="42.34279" lon="2.55473">
        <ele>1108.5</ele>
        <time>2018-11-26T01:14:13Z</time>
      </trkpt>
      <trkpt lat="42.3428" lon="2.55481">
        <ele>1109</ele>
        <time>2018-11-26T01:14:16Z</time>
      </trkpt>
      <trkpt lat="42.34283" lon="2.55486">
        <ele>1108.9</ele>
        <time>2018-11-26T01:14:18Z</time>
      </trkpt>
      <trkpt lat="42.34291" lon="2.55493">
        <ele>1109.5</ele>
        <time>2018-11-26T01:14:22Z</time>
      </trkpt>
      <trkpt lat="42.34297" lon="2.55492">
        <ele>1108.9</ele>
        <time>2018-11-26T01:14:24Z</time>
      </trkpt>
      <trkpt lat="42.343" lon="2.55493">
        <ele>1109.2</ele>
        <time>2018-11-26T01:14:25Z</time>
      </trkpt>
      <trkpt lat="42.34312" lon="2.55489">
        <ele>1109.1</ele>
        <time>2018-11-26T01:14:30Z</time>
      </trkpt>
      <trkpt lat="42.34316" lon="2.55491">
        <ele>1109.5</ele>
        <time>2018-11-26T01:14:32Z</time>
      </trkpt>
      <trkpt lat="42.34321" lon="2.55488">
        <ele>1109.6</ele>
        <time>2018-11-26T01:14:34Z</time>
      </trkpt>
      <trkpt lat="42.34327" lon="2.55483">
        <ele>1110.2</ele>
        <time>2018-11-26T01:14:37Z</time>
      </trkpt>
      <trkpt lat="42.34326" lon="2.55484">
        <ele>1110</ele>
        <time>2018-11-26T01:14:37Z</time>
      </trkpt>
      <trkpt lat="42.34332" lon="2.55485">
        <ele>1110.6</ele>
        <time>2018-11-26T01:14:40Z</time>
      </trkpt>
      <trkpt lat="42.34348" lon="2.55474">
        <ele>1111.5</ele>
        <time>2018-11-26T01:14:47Z</time>
      </trkpt>
      <trkpt lat="42.34356" lon="2.55463">
        <ele>1111.3</ele>
        <time>2018-11-26T01:14:51Z</time>
      </trkpt>
      <trkpt lat="42.34362" lon="2.55459">
        <ele>1111.2</ele>
        <time>2018-11-26T01:14:54Z</time>
      </trkpt>
      <trkpt lat="42.34376" lon="2.55446">
        <ele>1111</ele>
        <time>2018-11-26T01:15:01Z</time>
      </trkpt>
      <trkpt lat="42.34377" lon="2.55444">
        <ele>1110.8</ele>
        <time>2018-11-26T01:15:01Z</time>
      </trkpt>
      <trkpt lat="42.34396" lon="2.55431">
        <ele>1110.7</ele>
        <time>2018-11-26T01:15:10Z</time>
      </trkpt>
      <trkpt lat="42.34401" lon="2.55429">
        <ele>1110.5</ele>
        <time>2018-11-26T01:15:12Z</time>
      </trkpt>
      <trkpt lat="42.34416" lon="2.55417">
        <ele>1110.7</ele>
        <time>2018-11-26T01:15:19Z</time>
      </trkpt>
      <trkpt lat="42.34429" lon="2.55399">
        <ele>1108.3</ele>
        <time>2018-11-26T01:15:26Z</time>
      </trkpt>
      <trkpt lat="42.34445" lon="2.55384">
        <ele>1106.2</ele>
        <time>2018-11-26T01:15:34Z</time>
      </trkpt>
      <trkpt lat="42.34475" lon="2.55369">
        <ele>1102.9</ele>
        <time>2018-11-26T01:15:47Z</time>
      </trkpt>
      <trkpt lat="42.34496" lon="2.55372">
        <ele>1102.2</ele>
        <time>2018-11-26T01:15:55Z</time>
      </trkpt>
      <trkpt lat="42.34508" lon="2.55371">
        <ele>1102.1</ele>
        <time>2018-11-26T01:16:00Z</time>
      </trkpt>
      <trkpt lat="42.3451" lon="2.55372">
        <ele>1101.4</ele>
        <time>2018-11-26T01:16:01Z</time>
      </trkpt>
      <trkpt lat="42.34519" lon="2.55372">
        <ele>1101.5</ele>
        <time>2018-11-26T01:16:05Z</time>
      </trkpt>
      <trkpt lat="42.34533" lon="2.55377">
        <ele>1100.3</ele>
        <time>2018-11-26T01:16:11Z</time>
      </trkpt>
      <trkpt lat="42.34535" lon="2.55379">
        <ele>1099.8</ele>
        <time>2018-11-26T01:16:12Z</time>
      </trkpt>
      <trkpt lat="42.34551" lon="2.55384">
        <ele>1100.3</ele>
        <time>2018-11-26T01:16:18Z</time>
      </trkpt>
      <trkpt lat="42.34565" lon="2.55378">
        <ele>1098.5</ele>
        <time>2018-11-26T01:16:24Z</time>
      </trkpt>
      <trkpt lat="42.34568" lon="2.55375">
        <ele>1098.6</ele>
        <time>2018-11-26T01:16:25Z</time>
      </trkpt>
      <trkpt lat="42.34562" lon="2.55371">
        <ele>1098.7</ele>
        <time>2018-11-26T01:16:28Z</time>
      </trkpt>
      <trkpt lat="42.34555" lon="2.55374">
        <ele>1099.9</ele>
        <time>2018-11-26T01:16:31Z</time>
      </trkpt>
      <trkpt lat="42.34553" lon="2.55377">
        <ele>1099.9</ele>
        <time>2018-11-26T01:16:32Z</time>
      </trkpt>
      <trkpt lat="42.34547" lon="2.55383">
        <ele>1100.2</ele>
        <time>2018-11-26T01:16:35Z</time>
      </trkpt>
      <trkpt lat="42.34548" lon="2.55388">
        <ele>1100.8</ele>
        <time>2018-11-26T01:16:37Z</time>
      </trkpt>
      <trkpt lat="42.34548" lon="2.55389">
        <ele>1100.8</ele>
        <time>2018-11-26T01:16:37Z</time>
      </trkpt>
      <trkpt lat="42.34545" lon="2.55389">
        <ele>1100.3</ele>
        <time>2018-11-26T01:16:38Z</time>
      </trkpt>
      <trkpt lat="42.34545" lon="2.55391">
        <ele>1100.3</ele>
        <time>2018-11-26T01:16:38Z</time>
      </trkpt>
      <trkpt lat="42.34546" lon="2.55385">
        <ele>1099.7</ele>
        <time>2018-11-26T01:16:40Z</time>
      </trkpt>
      <trkpt lat="42.34547" lon="2.55387">
        <ele>1100.9</ele>
        <time>2018-11-26T01:16:41Z</time>
      </trkpt>
      <trkpt lat="42.34548" lon="2.55387">
        <ele>1101.3</ele>
        <time>2018-11-26T01:16:41Z</time>
      </trkpt>
      <trkpt lat="42.34551" lon="2.5538">
        <ele>1100.7</ele>
        <time>2018-11-26T01:16:44Z</time>
      </trkpt>
      <trkpt lat="42.3456" lon="2.55374">
        <ele>1099.2</ele>
        <time>2018-11-26T01:16:48Z</time>
      </trkpt>
      <trkpt lat="42.3456" lon="2.55376">
        <ele>1099.6</ele>
        <time>2018-11-26T01:16:49Z</time>
      </trkpt>
      <trkpt lat="42.34562" lon="2.55376">
        <ele>1099.2</ele>
        <time>2018-11-26T01:16:50Z</time>
      </trkpt>
      <trkpt lat="42.3456" lon="2.55376">
        <ele>1099.5</ele>
        <time>2018-11-26T01:16:50Z</time>
      </trkpt>
      <trkpt lat="42.34559" lon="2.55375">
        <ele>1099.4</ele>
        <time>2018-11-26T01:16:51Z</time>
      </trkpt>
      <trkpt lat="42.34563" lon="2.55374">
        <ele>1099.4</ele>
        <time>2018-11-26T01:16:52Z</time>
      </trkpt>
      <trkpt lat="42.34568" lon="2.55377">
        <ele>1099.5</ele>
        <time>2018-11-26T01:16:54Z</time>
      </trkpt>
      <trkpt lat="42.34572" lon="2.55375">
        <ele>1100</ele>
        <time>2018-11-26T01:16:56Z</time>
      </trkpt>
      <trkpt lat="42.3457" lon="2.55383">
        <ele>1099.7</ele>
        <time>2018-11-26T01:16:59Z</time>
      </trkpt>
      <trkpt lat="42.34576" lon="2.55397">
        <ele>1100</ele>
        <time>2018-11-26T01:17:04Z</time>
      </trkpt>
      <trkpt lat="42.34576" lon="2.55406">
        <ele>1100</ele>
        <time>2018-11-26T01:17:06Z</time>
      </trkpt>
      <trkpt lat="42.34578" lon="2.55415">
        <ele>1100.3</ele>
        <time>2018-11-26T01:17:09Z</time>
      </trkpt>
      <trkpt lat="42.34579" lon="2.55433">
        <ele>1102</ele>
        <time>2018-11-26T01:17:14Z</time>
      </trkpt>
      <trkpt lat="42.34582" lon="2.5544">
        <ele>1101.9</ele>
        <time>2018-11-26T01:17:17Z</time>
      </trkpt>
      <trkpt lat="42.34588" lon="2.55448">
        <ele>1102.3</ele>
        <time>2018-11-26T01:17:20Z</time>
      </trkpt>
      <trkpt lat="42.34589" lon="2.55449">
        <ele>1102.2</ele>
        <time>2018-11-26T01:17:21Z</time>
      </trkpt>
      <trkpt lat="42.34601" lon="2.55451">
        <ele>1102.9</ele>
        <time>2018-11-26T01:17:26Z</time>
      </trkpt>
      <trkpt lat="42.34614" lon="2.55448">
        <ele>1105.5</ele>
        <time>2018-11-26T01:17:31Z</time>
      </trkpt>
      <trkpt lat="42.34622" lon="2.55447">
        <ele>1106.6</ele>
        <time>2018-11-26T01:17:34Z</time>
      </trkpt>
      <trkpt lat="42.34634" lon="2.55441">
        <ele>1108.5</ele>
        <time>2018-11-26T01:17:39Z</time>
      </trkpt>
      <trkpt lat="42.34656" lon="2.55442">
        <ele>1113</ele>
        <time>2018-11-26T01:17:48Z</time>
      </trkpt>
      <trkpt lat="42.34669" lon="2.55449">
        <ele>1115.2</ele>
        <time>2018-11-26T01:17:54Z</time>
      </trkpt>
      <trkpt lat="42.34674" lon="2.55449">
        <ele>1115.2</ele>
        <time>2018-11-26T01:17:56Z</time>
      </trkpt>
      <trkpt lat="42.34685" lon="2.55457">
        <ele>1117</ele>
        <time>2018-11-26T01:18:01Z</time>
      </trkpt>
      <trkpt lat="42.3469" lon="2.55459">
        <ele>1118.2</ele>
        <time>2018-11-26T01:18:03Z</time>
      </trkpt>
      <trkpt lat="42.34694" lon="2.55464">
        <ele>1119.1</ele>
        <time>2018-11-26T01:18:05Z</time>
      </trkpt>
      <trkpt lat="42.34693" lon="2.55465">
        <ele>1118.9</ele>
        <time>2018-11-26T01:18:06Z</time>
      </trkpt>
      <trkpt lat="42.34701" lon="2.55468">
        <ele>1119.7</ele>
        <time>2018-11-26T01:18:09Z</time>
      </trkpt>
      <trkpt lat="42.34712" lon="2.55468">
        <ele>1120.5</ele>
        <time>2018-11-26T01:18:13Z</time>
      </trkpt>
      <trkpt lat="42.34719" lon="2.55476">
        <ele>1122</ele>
        <time>2018-11-26T01:18:17Z</time>
      </trkpt>
      <trkpt lat="42.34731" lon="2.55481">
        <ele>1126.2</ele>
        <time>2018-11-26T01:18:22Z</time>
      </trkpt>
      <trkpt lat="42.34733" lon="2.55488">
        <ele>1126.6</ele>
        <time>2018-11-26T01:18:24Z</time>
      </trkpt>
      <trkpt lat="42.34742" lon="2.55504">
        <ele>1131.9</ele>
        <time>2018-11-26T01:18:30Z</time>
      </trkpt>
      <trkpt lat="42.34746" lon="2.55508">
        <ele>1134.7</ele>
        <time>2018-11-26T01:18:32Z</time>
      </trkpt>
      <trkpt lat="42.34748" lon="2.55512">
        <ele>1136.2</ele>
        <time>2018-11-26T01:18:33Z</time>
      </trkpt>
      <trkpt lat="42.34754" lon="2.55509">
        <ele>1139.9</ele>
        <time>2018-11-26T01:18:36Z</time>
      </trkpt>
      <trkpt lat="42.34758" lon="2.55515">
        <ele>1142.2</ele>
        <time>2018-11-26T01:18:38Z</time>
      </trkpt>
      <trkpt lat="42.34765" lon="2.55518">
        <ele>1144.7</ele>
        <time>2018-11-26T01:18:41Z</time>
      </trkpt>
      <trkpt lat="42.34768" lon="2.5552">
        <ele>1146.1</ele>
        <time>2018-11-26T01:18:43Z</time>
      </trkpt>
      <trkpt lat="42.34771" lon="2.5552">
        <ele>1147.5</ele>
        <time>2018-11-26T01:18:44Z</time>
      </trkpt>
      <trkpt lat="42.34773" lon="2.55517">
        <ele>1148.1</ele>
        <time>2018-11-26T01:18:45Z</time>
      </trkpt>
      <trkpt lat="42.34777" lon="2.55522">
        <ele>1149.9</ele>
        <time>2018-11-26T01:18:47Z</time>
      </trkpt>
      <trkpt lat="42.34781" lon="2.5552">
        <ele>1150.2</ele>
        <time>2018-11-26T01:18:49Z</time>
      </trkpt>
      <trkpt lat="42.34786" lon="2.55514">
        <ele>1150</ele>
        <time>2018-11-26T01:18:51Z</time>
      </trkpt>
      <trkpt lat="42.34791" lon="2.55513">
        <ele>1150.4</ele>
        <time>2018-11-26T01:18:53Z</time>
      </trkpt>
      <trkpt lat="42.34793" lon="2.55514">
        <ele>1150.5</ele>
        <time>2018-11-26T01:18:54Z</time>
      </trkpt>
      <trkpt lat="42.34808" lon="2.55525">
        <ele>1152.9</ele>
        <time>2018-11-26T01:19:01Z</time>
      </trkpt>
      <trkpt lat="42.34811" lon="2.55525">
        <ele>1152.7</ele>
        <time>2018-11-26T01:19:02Z</time>
      </trkpt>
      <trkpt lat="42.34829" lon="2.55512">
        <ele>1157.1</ele>
        <time>2018-11-26T01:19:11Z</time>
      </trkpt>
      <trkpt lat="42.34838" lon="2.55508">
        <ele>1158.1</ele>
        <time>2018-11-26T01:19:14Z</time>
      </trkpt>
      <trkpt lat="42.34839" lon="2.55508">
        <ele>1158.1</ele>
        <time>2018-11-26T01:19:15Z</time>
      </trkpt>
      <trkpt lat="42.34859" lon="2.55498">
        <ele>1157.8</ele>
        <time>2018-11-26T01:19:23Z</time>
      </trkpt>
      <trkpt lat="42.3487" lon="2.55497">
        <ele>1156.9</ele>
        <time>2018-11-26T01:19:28Z</time>
      </trkpt>
      <trkpt lat="42.34907" lon="2.55502">
        <ele>1155.8</ele>
        <time>2018-11-26T01:19:43Z</time>
      </trkpt>
      <trkpt lat="42.34923" lon="2.55501">
        <ele>1155.5</ele>
        <time>2018-11-26T01:19:49Z</time>
      </trkpt>
      <trkpt lat="42.34933" lon="2.55506">
        <ele>1154.5</ele>
        <time>2018-11-26T01:19:53Z</time>
      </trkpt>
      <trkpt lat="42.34955" lon="2.55503">
        <ele>1152.6</ele>
        <time>2018-11-26T01:20:02Z</time>
      </trkpt>
      <trkpt lat="42.3497" lon="2.55497">
        <ele>1151.6</ele>
        <time>2018-11-26T01:20:08Z</time>
      </trkpt>
      <trkpt lat="42.3498" lon="2.55492">
        <ele>1151.2</ele>
        <time>2018-11-26T01:20:13Z</time>
      </trkpt>
      <trkpt lat="42.34993" lon="2.55481">
        <ele>1149.8</ele>
        <time>2018-11-26T01:20:19Z</time>
      </trkpt>
      <trkpt lat="42.34996" lon="2.5548">
        <ele>1149.5</ele>
        <time>2018-11-26T01:20:20Z</time>
      </trkpt>
      <trkpt lat="42.35008" lon="2.55479">
        <ele>1148.7</ele>
        <time>2018-11-26T01:20:25Z</time>
      </trkpt>
      <trkpt lat="42.35015" lon="2.55478">
        <ele>1149.9</ele>
        <time>2018-11-26T01:20:28Z</time>
      </trkpt>
      <trkpt lat="42.35029" lon="2.5547">
        <ele>1149.3</ele>
        <time>2018-11-26T01:20:34Z</time>
      </trkpt>
      <trkpt lat="42.35046" lon="2.55457">
        <ele>1150.1</ele>
        <time>2018-11-26T01:20:42Z</time>
      </trkpt>
      <trkpt lat="42.35058" lon="2.55447">
        <ele>1151.1</ele>
        <time>2018-11-26T01:20:47Z</time>
      </trkpt>
      <trkpt lat="42.35059" lon="2.55446">
        <ele>1151.3</ele>
        <time>2018-11-26T01:20:48Z</time>
      </trkpt>
      <trkpt lat="42.35066" lon="2.55443">
        <ele>1152.3</ele>
        <time>2018-11-26T01:20:51Z</time>
      </trkpt>
      <trkpt lat="42.35075" lon="2.55439">
        <ele>1152.3</ele>
        <time>2018-11-26T01:20:54Z</time>
      </trkpt>
      <trkpt lat="42.35075" lon="2.55441">
        <ele>1151.8</ele>
        <time>2018-11-26T01:20:55Z</time>
      </trkpt>
      <trkpt lat="42.35075" lon="2.55441">
        <ele>1153.2</ele>
        <time>2018-11-26T01:20:55Z</time>
      </trkpt>
      <trkpt lat="42.35086" lon="2.55435">
        <ele>1151.3</ele>
        <time>2018-11-26T01:21:00Z</time>
      </trkpt>
      <trkpt lat="42.35082" lon="2.55438">
        <ele>1151.7</ele>
        <time>2018-11-26T01:21:01Z</time>
      </trkpt>
      <trkpt lat="42.35088" lon="2.55434">
        <ele>1151.4</ele>
        <time>2018-11-26T01:21:04Z</time>
      </trkpt>
      <trkpt lat="42.35094" lon="2.55433">
        <ele>1150.5</ele>
        <time>2018-11-26T01:21:07Z</time>
      </trkpt>
      <trkpt lat="42.35099" lon="2.55435">
        <ele>1150</ele>
        <time>2018-11-26T01:21:09Z</time>
      </trkpt>
      <trkpt lat="42.35099" lon="2.55434">
        <ele>1150.3</ele>
        <time>2018-11-26T01:21:09Z</time>
      </trkpt>
      <trkpt lat="42.35101" lon="2.55435">
        <ele>1150.9</ele>
        <time>2018-11-26T01:21:10Z</time>
      </trkpt>
      <trkpt lat="42.35102" lon="2.55437">
        <ele>1151.4</ele>
        <time>2018-11-26T01:21:10Z</time>
      </trkpt>
      <trkpt lat="42.35099" lon="2.55437">
        <ele>1151.6</ele>
        <time>2018-11-26T01:21:11Z</time>
      </trkpt>
      <trkpt lat="42.35103" lon="2.55442">
        <ele>1151.3</ele>
        <time>2018-11-26T01:21:14Z</time>
      </trkpt>
      <trkpt lat="42.3511" lon="2.5546">
        <ele>1151.5</ele>
        <time>2018-11-26T01:21:20Z</time>
      </trkpt>
      <trkpt lat="42.35114" lon="2.55467">
        <ele>1152.2</ele>
        <time>2018-11-26T01:21:22Z</time>
      </trkpt>
      <trkpt lat="42.35117" lon="2.55476">
        <ele>1152.6</ele>
        <time>2018-11-26T01:21:25Z</time>
      </trkpt>
      <trkpt lat="42.35117" lon="2.5548">
        <ele>1153</ele>
        <time>2018-11-26T01:21:26Z</time>
      </trkpt>
      <trkpt lat="42.3512" lon="2.55494">
        <ele>1153.7</ele>
        <time>2018-11-26T01:21:31Z</time>
      </trkpt>
      <trkpt lat="42.35119" lon="2.555">
        <ele>1154.1</ele>
        <time>2018-11-26T01:21:32Z</time>
      </trkpt>
      <trkpt lat="42.3512" lon="2.55513">
        <ele>1155</ele>
        <time>2018-11-26T01:21:36Z</time>
      </trkpt>
      <trkpt lat="42.3513" lon="2.5553">
        <ele>1157.2</ele>
        <time>2018-11-26T01:21:43Z</time>
      </trkpt>
      <trkpt lat="42.35133" lon="2.55532">
        <ele>1156.8</ele>
        <time>2018-11-26T01:21:44Z</time>
      </trkpt>
      <trkpt lat="42.35138" lon="2.55548">
        <ele>1157.7</ele>
        <time>2018-11-26T01:21:49Z</time>
      </trkpt>
      <trkpt lat="42.35138" lon="2.55551">
        <ele>1157.9</ele>
        <time>2018-11-26T01:21:50Z</time>
      </trkpt>
      <trkpt lat="42.3514" lon="2.55559">
        <ele>1158.8</ele>
        <time>2018-11-26T01:21:53Z</time>
      </trkpt>
      <trkpt lat="42.35139" lon="2.55568">
        <ele>1159.1</ele>
        <time>2018-11-26T01:21:56Z</time>
      </trkpt>
      <trkpt lat="42.35141" lon="2.55575">
        <ele>1159.6</ele>
        <time>2018-11-26T01:21:58Z</time>
      </trkpt>
      <trkpt lat="42.35142" lon="2.55586">
        <ele>1159.5</ele>
        <time>2018-11-26T01:22:01Z</time>
      </trkpt>
      <trkpt lat="42.35145" lon="2.55594">
        <ele>1160.5</ele>
        <time>2018-11-26T01:22:04Z</time>
      </trkpt>
      <trkpt lat="42.3515" lon="2.55611">
        <ele>1161.4</ele>
        <time>2018-11-26T01:22:09Z</time>
      </trkpt>
      <trkpt lat="42.35152" lon="2.55614">
        <ele>1161.7</ele>
        <time>2018-11-26T01:22:11Z</time>
      </trkpt>
      <trkpt lat="42.35154" lon="2.5562">
        <ele>1161.4</ele>
        <time>2018-11-26T01:22:12Z</time>
      </trkpt>
      <trkpt lat="42.3516" lon="2.5563">
        <ele>1162.3</ele>
        <time>2018-11-26T01:22:16Z</time>
      </trkpt>
      <trkpt lat="42.35161" lon="2.55632">
        <ele>1163</ele>
        <time>2018-11-26T01:22:17Z</time>
      </trkpt>
      <trkpt lat="42.35171" lon="2.55641">
        <ele>1164.4</ele>
        <time>2018-11-26T01:22:22Z</time>
      </trkpt>
      <trkpt lat="42.35176" lon="2.55642">
        <ele>1164.4</ele>
        <time>2018-11-26T01:22:24Z</time>
      </trkpt>
      <trkpt lat="42.3518" lon="2.55645">
        <ele>1165</ele>
        <time>2018-11-26T01:22:25Z</time>
      </trkpt>
      <trkpt lat="42.35183" lon="2.55651">
        <ele>1165.2</ele>
        <time>2018-11-26T01:22:28Z</time>
      </trkpt>
      <trkpt lat="42.35183" lon="2.55659">
        <ele>1165</ele>
        <time>2018-11-26T01:22:30Z</time>
      </trkpt>
      <trkpt lat="42.35187" lon="2.55676">
        <ele>1166.3</ele>
        <time>2018-11-26T01:22:35Z</time>
      </trkpt>
      <trkpt lat="42.35187" lon="2.55694">
        <ele>1166.4</ele>
        <time>2018-11-26T01:22:40Z</time>
      </trkpt>
      <trkpt lat="42.35189" lon="2.55711">
        <ele>1168.1</ele>
        <time>2018-11-26T01:22:46Z</time>
      </trkpt>
      <trkpt lat="42.35188" lon="2.55714">
        <ele>1168.1</ele>
        <time>2018-11-26T01:22:47Z</time>
      </trkpt>
      <trkpt lat="42.35192" lon="2.55724">
        <ele>1168</ele>
        <time>2018-11-26T01:22:50Z</time>
      </trkpt>
      <trkpt lat="42.35191" lon="2.5573">
        <ele>1168</ele>
        <time>2018-11-26T01:22:52Z</time>
      </trkpt>
      <trkpt lat="42.35194" lon="2.55752">
        <ele>1168.6</ele>
        <time>2018-11-26T01:22:58Z</time>
      </trkpt>
      <trkpt lat="42.35196" lon="2.55766">
        <ele>1169.8</ele>
        <time>2018-11-26T01:23:03Z</time>
      </trkpt>
      <trkpt lat="42.35201" lon="2.55792">
        <ele>1170.6</ele>
        <time>2018-11-26T01:23:11Z</time>
      </trkpt>
      <trkpt lat="42.35206" lon="2.55807">
        <ele>1171.6</ele>
        <time>2018-11-26T01:23:16Z</time>
      </trkpt>
      <trkpt lat="42.35213" lon="2.55818">
        <ele>1171.6</ele>
        <time>2018-11-26T01:23:20Z</time>
      </trkpt>
      <trkpt lat="42.35219" lon="2.55821">
        <ele>1171.6</ele>
        <time>2018-11-26T01:23:22Z</time>
      </trkpt>
      <trkpt lat="42.35232" lon="2.55837">
        <ele>1172.2</ele>
        <time>2018-11-26T01:23:29Z</time>
      </trkpt>
      <trkpt lat="42.35237" lon="2.55841">
        <ele>1173.8</ele>
        <time>2018-11-26T01:23:32Z</time>
      </trkpt>
      <trkpt lat="42.35243" lon="2.55843">
        <ele>1174.9</ele>
        <time>2018-11-26T01:23:34Z</time>
      </trkpt>
      <trkpt lat="42.35255" lon="2.55852">
        <ele>1174.9</ele>
        <time>2018-11-26T01:23:40Z</time>
      </trkpt>
      <trkpt lat="42.35264" lon="2.55863">
        <ele>1176.2</ele>
        <time>2018-11-26T01:23:45Z</time>
      </trkpt>
      <trkpt lat="42.35268" lon="2.55868">
        <ele>1176.5</ele>
        <time>2018-11-26T01:23:47Z</time>
      </trkpt>
      <trkpt lat="42.35272" lon="2.55872">
        <ele>1176.8</ele>
        <time>2018-11-26T01:23:49Z</time>
      </trkpt>
      <trkpt lat="42.35287" lon="2.55907">
        <ele>1180.4</ele>
        <time>2018-11-26T01:24:01Z</time>
      </trkpt>
      <trkpt lat="42.35288" lon="2.55915">
        <ele>1181.2</ele>
        <time>2018-11-26T01:24:03Z</time>
      </trkpt>
      <trkpt lat="42.35299" lon="2.55968">
        <ele>1184.1</ele>
        <time>2018-11-26T01:24:19Z</time>
      </trkpt>
      <trkpt lat="42.35301" lon="2.55987">
        <ele>1184.5</ele>
        <time>2018-11-26T01:24:25Z</time>
      </trkpt>
      <trkpt lat="42.35298" lon="2.55991">
        <ele>1184.3</ele>
        <time>2018-11-26T01:24:27Z</time>
      </trkpt>
      <trkpt lat="42.353" lon="2.56005">
        <ele>1184.4</ele>
        <time>2018-11-26T01:24:31Z</time>
      </trkpt>
      <trkpt lat="42.35296" lon="2.56024">
        <ele>1185.7</ele>
        <time>2018-11-26T01:24:37Z</time>
      </trkpt>
      <trkpt lat="42.35296" lon="2.56051">
        <ele>1186.2</ele>
        <time>2018-11-26T01:24:44Z</time>
      </trkpt>
      <trkpt lat="42.35295" lon="2.56073">
        <ele>1186.1</ele>
        <time>2018-11-26T01:24:51Z</time>
      </trkpt>
      <trkpt lat="42.35298" lon="2.56105">
        <ele>1188.7</ele>
        <time>2018-11-26T01:25:01Z</time>
      </trkpt>
      <trkpt lat="42.35296" lon="2.56112">
        <ele>1189</ele>
        <time>2018-11-26T01:25:03Z</time>
      </trkpt>
      <trkpt lat="42.35305" lon="2.56146">
        <ele>1191.7</ele>
        <time>2018-11-26T01:25:13Z</time>
      </trkpt>
      <trkpt lat="42.35306" lon="2.56165">
        <ele>1193.3</ele>
        <time>2018-11-26T01:25:19Z</time>
      </trkpt>
      <trkpt lat="42.35309" lon="2.56174">
        <ele>1193.8</ele>
        <time>2018-11-26T01:25:22Z</time>
      </trkpt>
      <trkpt lat="42.35316" lon="2.56199">
        <ele>1195.1</ele>
        <time>2018-11-26T01:25:30Z</time>
      </trkpt>
      <trkpt lat="42.35318" lon="2.56211">
        <ele>1196.6</ele>
        <time>2018-11-26T01:25:34Z</time>
      </trkpt>
      <trkpt lat="42.35316" lon="2.56221">
        <ele>1196.1</ele>
        <time>2018-11-26T01:25:36Z</time>
      </trkpt>
      <trkpt lat="42.35317" lon="2.5623">
        <ele>1197.4</ele>
        <time>2018-11-26T01:25:39Z</time>
      </trkpt>
      <trkpt lat="42.35316" lon="2.56234">
        <ele>1196.7</ele>
        <time>2018-11-26T01:25:41Z</time>
      </trkpt>
      <trkpt lat="42.35318" lon="2.56263">
        <ele>1197.8</ele>
        <time>2018-11-26T01:25:49Z</time>
      </trkpt>
      <trkpt lat="42.35315" lon="2.56278">
        <ele>1198.6</ele>
        <time>2018-11-26T01:25:54Z</time>
      </trkpt>
      <trkpt lat="42.35322" lon="2.56294">
        <ele>1198.7</ele>
        <time>2018-11-26T01:25:59Z</time>
      </trkpt>
      <trkpt lat="42.35327" lon="2.56298">
        <ele>1199.3</ele>
        <time>2018-11-26T01:26:01Z</time>
      </trkpt>
      <trkpt lat="42.35337" lon="2.56314">
        <ele>1198.8</ele>
        <time>2018-11-26T01:26:08Z</time>
      </trkpt>
      <trkpt lat="42.35352" lon="2.56362">
        <ele>1198.8</ele>
        <time>2018-11-26T01:26:23Z</time>
      </trkpt>
      <trkpt lat="42.35357" lon="2.56382">
        <ele>1199.8</ele>
        <time>2018-11-26T01:26:30Z</time>
      </trkpt>
      <trkpt lat="42.35364" lon="2.56394">
        <ele>1200.5</ele>
        <time>2018-11-26T01:26:34Z</time>
      </trkpt>
      <trkpt lat="42.35364" lon="2.56403">
        <ele>1201.2</ele>
        <time>2018-11-26T01:26:37Z</time>
      </trkpt>
      <trkpt lat="42.35361" lon="2.56414">
        <ele>1201.3</ele>
        <time>2018-11-26T01:26:40Z</time>
      </trkpt>
      <trkpt lat="42.3536" lon="2.56447">
        <ele>1204.4</ele>
        <time>2018-11-26T01:26:50Z</time>
      </trkpt>
      <trkpt lat="42.35359" lon="2.5645">
        <ele>1204.3</ele>
        <time>2018-11-26T01:26:51Z</time>
      </trkpt>
      <trkpt lat="42.35359" lon="2.56487">
        <ele>1206.3</ele>
        <time>2018-11-26T01:27:02Z</time>
      </trkpt>
      <trkpt lat="42.35363" lon="2.56501">
        <ele>1208.8</ele>
        <time>2018-11-26T01:27:06Z</time>
      </trkpt>
      <trkpt lat="42.35362" lon="2.56506">
        <ele>1208.1</ele>
        <time>2018-11-26T01:27:08Z</time>
      </trkpt>
      <trkpt lat="42.35368" lon="2.56521">
        <ele>1208.7</ele>
        <time>2018-11-26T01:27:13Z</time>
      </trkpt>
      <trkpt lat="42.35373" lon="2.56534">
        <ele>1209.7</ele>
        <time>2018-11-26T01:27:17Z</time>
      </trkpt>
      <trkpt lat="42.35372" lon="2.56539">
        <ele>1210.4</ele>
        <time>2018-11-26T01:27:19Z</time>
      </trkpt>
      <trkpt lat="42.35373" lon="2.56544">
        <ele>1211.2</ele>
        <time>2018-11-26T01:27:21Z</time>
      </trkpt>
      <trkpt lat="42.35377" lon="2.5655">
        <ele>1211.4</ele>
        <time>2018-11-26T01:27:23Z</time>
      </trkpt>
      <trkpt lat="42.35378" lon="2.56553">
        <ele>1211.3</ele>
        <time>2018-11-26T01:27:24Z</time>
      </trkpt>
      <trkpt lat="42.3539" lon="2.5657">
        <ele>1212.2</ele>
        <time>2018-11-26T01:27:31Z</time>
      </trkpt>
      <trkpt lat="42.35391" lon="2.56583">
        <ele>1213.6</ele>
        <time>2018-11-26T01:27:34Z</time>
      </trkpt>
      <trkpt lat="42.35402" lon="2.56595">
        <ele>1216.1</ele>
        <time>2018-11-26T01:27:40Z</time>
      </trkpt>
      <trkpt lat="42.35403" lon="2.56597">
        <ele>1216.2</ele>
        <time>2018-11-26T01:27:41Z</time>
      </trkpt>
      <trkpt lat="42.35411" lon="2.56613">
        <ele>1216.7</ele>
        <time>2018-11-26T01:27:47Z</time>
      </trkpt>
      <trkpt lat="42.35411" lon="2.56614">
        <ele>1217.7</ele>
        <time>2018-11-26T01:27:47Z</time>
      </trkpt>
      <trkpt lat="42.35411" lon="2.56615">
        <ele>1216.1</ele>
        <time>2018-11-26T01:27:47Z</time>
      </trkpt>
      <trkpt lat="42.35414" lon="2.56621">
        <ele>1216.7</ele>
        <time>2018-11-26T01:27:49Z</time>
      </trkpt>
      <trkpt lat="42.35423" lon="2.56633">
        <ele>1214.2</ele>
        <time>2018-11-26T01:27:54Z</time>
      </trkpt>
      <trkpt lat="42.35426" lon="2.56641">
        <ele>1213.4</ele>
        <time>2018-11-26T01:27:57Z</time>
      </trkpt>
      <trkpt lat="42.35427" lon="2.56645">
        <ele>1213</ele>
        <time>2018-11-26T01:27:58Z</time>
      </trkpt>
      <trkpt lat="42.35432" lon="2.56657">
        <ele>1212.2</ele>
        <time>2018-11-26T01:28:02Z</time>
      </trkpt>
      <trkpt lat="42.35449" lon="2.56673">
        <ele>1212.1</ele>
        <time>2018-11-26T01:28:11Z</time>
      </trkpt>
      <trkpt lat="42.35457" lon="2.56686">
        <ele>1211.2</ele>
        <time>2018-11-26T01:28:16Z</time>
      </trkpt>
      <trkpt lat="42.35466" lon="2.56699">
        <ele>1209.9</ele>
        <time>2018-11-26T01:28:21Z</time>
      </trkpt>
      <trkpt lat="42.35469" lon="2.56705">
        <ele>1209.4</ele>
        <time>2018-11-26T01:28:23Z</time>
      </trkpt>
      <trkpt lat="42.35467" lon="2.5671">
        <ele>1209.6</ele>
        <time>2018-11-26T01:28:25Z</time>
      </trkpt>
      <trkpt lat="42.35473" lon="2.56711">
        <ele>1209.6</ele>
        <time>2018-11-26T01:28:27Z</time>
      </trkpt>
      <trkpt lat="42.3548" lon="2.5671">
        <ele>1209.3</ele>
        <time>2018-11-26T01:28:30Z</time>
      </trkpt>
      <trkpt lat="42.35492" lon="2.56711">
        <ele>1209.4</ele>
        <time>2018-11-26T01:28:35Z</time>
      </trkpt>
      <trkpt lat="42.35499" lon="2.56718">
        <ele>1209.5</ele>
        <time>2018-11-26T01:28:38Z</time>
      </trkpt>
      <trkpt lat="42.3552" lon="2.56719">
        <ele>1209.5</ele>
        <time>2018-11-26T01:28:47Z</time>
      </trkpt>
      <trkpt lat="42.35528" lon="2.56719">
        <ele>1208.3</ele>
        <time>2018-11-26T01:28:50Z</time>
      </trkpt>
      <trkpt lat="42.35539" lon="2.5672">
        <ele>1207.3</ele>
        <time>2018-11-26T01:28:54Z</time>
      </trkpt>
      <trkpt lat="42.35543" lon="2.56719">
        <ele>1207.5</ele>
        <time>2018-11-26T01:28:56Z</time>
      </trkpt>
      <trkpt lat="42.35551" lon="2.56708">
        <ele>1207.4</ele>
        <time>2018-11-26T01:29:00Z</time>
      </trkpt>
      <trkpt lat="42.35567" lon="2.56691">
        <ele>1207.2</ele>
        <time>2018-11-26T01:29:09Z</time>
      </trkpt>
      <trkpt lat="42.3558" lon="2.5668">
        <ele>1205.9</ele>
        <time>2018-11-26T01:29:15Z</time>
      </trkpt>
      <trkpt lat="42.3558" lon="2.56678">
        <ele>1205.2</ele>
        <time>2018-11-26T01:29:15Z</time>
      </trkpt>
      <trkpt lat="42.3559" lon="2.56663">
        <ele>1203.8</ele>
        <time>2018-11-26T01:29:21Z</time>
      </trkpt>
      <trkpt lat="42.35594" lon="2.56663">
        <ele>1202.6</ele>
        <time>2018-11-26T01:29:23Z</time>
      </trkpt>
      <trkpt lat="42.35599" lon="2.56664">
        <ele>1203</ele>
        <time>2018-11-26T01:29:25Z</time>
      </trkpt>
      <trkpt lat="42.356" lon="2.56669">
        <ele>1202.5</ele>
        <time>2018-11-26T01:29:26Z</time>
      </trkpt>
      <trkpt lat="42.35605" lon="2.5667">
        <ele>1200.8</ele>
        <time>2018-11-26T01:29:28Z</time>
      </trkpt>
      <trkpt lat="42.35607" lon="2.56678">
        <ele>1199.4</ele>
        <time>2018-11-26T01:29:31Z</time>
      </trkpt>
      <trkpt lat="42.35606" lon="2.56686">
        <ele>1199.4</ele>
        <time>2018-11-26T01:29:33Z</time>
      </trkpt>
      <trkpt lat="42.35607" lon="2.56695">
        <ele>1198.8</ele>
        <time>2018-11-26T01:29:35Z</time>
      </trkpt>
      <trkpt lat="42.35604" lon="2.56702">
        <ele>1198.4</ele>
        <time>2018-11-26T01:29:38Z</time>
      </trkpt>
      <trkpt lat="42.35606" lon="2.56707">
        <ele>1197.3</ele>
        <time>2018-11-26T01:29:40Z</time>
      </trkpt>
      <trkpt lat="42.35606" lon="2.56708">
        <ele>1197.4</ele>
        <time>2018-11-26T01:29:40Z</time>
      </trkpt>
      <trkpt lat="42.35609" lon="2.56707">
        <ele>1196.9</ele>
        <time>2018-11-26T01:29:41Z</time>
      </trkpt>
      <trkpt lat="42.35609" lon="2.56705">
        <ele>1196.6</ele>
        <time>2018-11-26T01:29:42Z</time>
      </trkpt>
      <trkpt lat="42.35608" lon="2.56707">
        <ele>1197.4</ele>
        <time>2018-11-26T01:29:43Z</time>
      </trkpt>
      <trkpt lat="42.35606" lon="2.56704">
        <ele>1197.7</ele>
        <time>2018-11-26T01:29:44Z</time>
      </trkpt>
      <trkpt lat="42.35607" lon="2.56706">
        <ele>1196.1</ele>
        <time>2018-11-26T01:29:45Z</time>
      </trkpt>
      <trkpt lat="42.35607" lon="2.56706">
        <ele>1195.9</ele>
        <time>2018-11-26T01:29:45Z</time>
      </trkpt>
      <trkpt lat="42.35607" lon="2.56706">
        <ele>1196.8</ele>
        <time>2018-11-26T01:29:45Z</time>
      </trkpt>
      <trkpt lat="42.35611" lon="2.56705">
        <ele>1196.8</ele>
        <time>2018-11-26T01:29:47Z</time>
      </trkpt>
      <trkpt lat="42.35609" lon="2.56705">
        <ele>1195.8</ele>
        <time>2018-11-26T01:29:48Z</time>
      </trkpt>
      <trkpt lat="42.35604" lon="2.56712">
        <ele>1195.6</ele>
        <time>2018-11-26T01:29:50Z</time>
      </trkpt>
      <trkpt lat="42.35603" lon="2.56711">
        <ele>1196.9</ele>
        <time>2018-11-26T01:29:51Z</time>
      </trkpt>
      <trkpt lat="42.35603" lon="2.56709">
        <ele>1197.2</ele>
        <time>2018-11-26T01:29:52Z</time>
      </trkpt>
      <trkpt lat="42.35607" lon="2.56714">
        <ele>1196.9</ele>
        <time>2018-11-26T01:29:54Z</time>
      </trkpt>
      <trkpt lat="42.35605" lon="2.56717">
        <ele>1196.7</ele>
        <time>2018-11-26T01:29:55Z</time>
      </trkpt>
      <trkpt lat="42.35604" lon="2.56715">
        <ele>1196.7</ele>
        <time>2018-11-26T01:29:56Z</time>
      </trkpt>
      <trkpt lat="42.35604" lon="2.56714">
        <ele>1197</ele>
        <time>2018-11-26T01:29:56Z</time>
      </trkpt>
      <trkpt lat="42.35609" lon="2.56709">
        <ele>1199.8</ele>
        <time>2018-11-26T01:29:58Z</time>
      </trkpt>
      <trkpt lat="42.35609" lon="2.56709">
        <ele>1199.6</ele>
        <time>2018-11-26T01:29:58Z</time>
      </trkpt>
      <trkpt lat="42.35608" lon="2.5671">
        <ele>1199.9</ele>
        <time>2018-11-26T01:29:59Z</time>
      </trkpt>
      <trkpt lat="42.35611" lon="2.56711">
        <ele>1200.3</ele>
        <time>2018-11-26T01:30:00Z</time>
      </trkpt>
      <trkpt lat="42.3561" lon="2.56708">
        <ele>1200.1</ele>
        <time>2018-11-26T01:30:01Z</time>
      </trkpt>
      <trkpt lat="42.35606" lon="2.56707">
        <ele>1199.8</ele>
        <time>2018-11-26T01:30:03Z</time>
      </trkpt>
      <trkpt lat="42.35608" lon="2.56697">
        <ele>1199.4</ele>
        <time>2018-11-26T01:30:06Z</time>
      </trkpt>
      <trkpt lat="42.35609" lon="2.56677">
        <ele>1200.3</ele>
        <time>2018-11-26T01:30:12Z</time>
      </trkpt>
      <trkpt lat="42.35608" lon="2.56669">
        <ele>1201.2</ele>
        <time>2018-11-26T01:30:14Z</time>
      </trkpt>
      <trkpt lat="42.35613" lon="2.5666">
        <ele>1200</ele>
        <time>2018-11-26T01:30:18Z</time>
      </trkpt>
      <trkpt lat="42.35619" lon="2.56654">
        <ele>1199.6</ele>
        <time>2018-11-26T01:30:21Z</time>
      </trkpt>
      <trkpt lat="42.35627" lon="2.56652">
        <ele>1198.8</ele>
        <time>2018-11-26T01:30:24Z</time>
      </trkpt>
      <trkpt lat="42.35638" lon="2.56655">
        <ele>1197.4</ele>
        <time>2018-11-26T01:30:28Z</time>
      </trkpt>
      <trkpt lat="42.3564" lon="2.5666">
        <ele>1196.5</ele>
        <time>2018-11-26T01:30:30Z</time>
      </trkpt>
      <trkpt lat="42.35639" lon="2.56674">
        <ele>1194.9</ele>
        <time>2018-11-26T01:30:34Z</time>
      </trkpt>
      <trkpt lat="42.3564" lon="2.56678">
        <ele>1194.9</ele>
        <time>2018-11-26T01:30:35Z</time>
      </trkpt>
      <trkpt lat="42.3564" lon="2.56689">
        <ele>1194.6</ele>
        <time>2018-11-26T01:30:39Z</time>
      </trkpt>
      <trkpt lat="42.3564" lon="2.5669">
        <ele>1194.3</ele>
        <time>2018-11-26T01:30:39Z</time>
      </trkpt>
      <trkpt lat="42.35639" lon="2.567">
        <ele>1193.6</ele>
        <time>2018-11-26T01:30:42Z</time>
      </trkpt>
      <trkpt lat="42.3564" lon="2.56703">
        <ele>1193.6</ele>
        <time>2018-11-26T01:30:43Z</time>
      </trkpt>
      <trkpt lat="42.3565" lon="2.56713">
        <ele>1194.1</ele>
        <time>2018-11-26T01:30:48Z</time>
      </trkpt>
      <trkpt lat="42.35656" lon="2.56712">
        <ele>1196</ele>
        <time>2018-11-26T01:30:50Z</time>
      </trkpt>
      <trkpt lat="42.35659" lon="2.56718">
        <ele>1198.4</ele>
        <time>2018-11-26T01:30:52Z</time>
      </trkpt>
      <trkpt lat="42.35671" lon="2.56733">
        <ele>1197.7</ele>
        <time>2018-11-26T01:30:59Z</time>
      </trkpt>
      <trkpt lat="42.35677" lon="2.56735">
        <ele>1198.1</ele>
        <time>2018-11-26T01:31:01Z</time>
      </trkpt>
      <trkpt lat="42.35684" lon="2.56735">
        <ele>1199.1</ele>
        <time>2018-11-26T01:31:04Z</time>
      </trkpt>
      <trkpt lat="42.35691" lon="2.56754">
        <ele>1198.2</ele>
        <time>2018-11-26T01:31:11Z</time>
      </trkpt>
      <trkpt lat="42.35704" lon="2.56765">
        <ele>1198.2</ele>
        <time>2018-11-26T01:31:17Z</time>
      </trkpt>
      <trkpt lat="42.35711" lon="2.5677">
        <ele>1197.1</ele>
        <time>2018-11-26T01:31:20Z</time>
      </trkpt>
      <trkpt lat="42.35713" lon="2.5677">
        <ele>1197.3</ele>
        <time>2018-11-26T01:31:21Z</time>
      </trkpt>
      <trkpt lat="42.35723" lon="2.56776">
        <ele>1197</ele>
        <time>2018-11-26T01:31:25Z</time>
      </trkpt>
      <trkpt lat="42.3573" lon="2.56775">
        <ele>1196.9</ele>
        <time>2018-11-26T01:31:28Z</time>
      </trkpt>
      <trkpt lat="42.35733" lon="2.56771">
        <ele>1196.9</ele>
        <time>2018-11-26T01:31:29Z</time>
      </trkpt>
      <trkpt lat="42.35737" lon="2.5676">
        <ele>1197.1</ele>
        <time>2018-11-26T01:31:33Z</time>
      </trkpt>
      <trkpt lat="42.35739" lon="2.56769">
        <ele>1197</ele>
        <time>2018-11-26T01:31:36Z</time>
      </trkpt>
      <trkpt lat="42.35739" lon="2.56767">
        <ele>1196.5</ele>
        <time>2018-11-26T01:31:36Z</time>
      </trkpt>
      <trkpt lat="42.35741" lon="2.5676">
        <ele>1195.9</ele>
        <time>2018-11-26T01:31:39Z</time>
      </trkpt>
      <trkpt lat="42.35745" lon="2.56761">
        <ele>1196.1</ele>
        <time>2018-11-26T01:31:40Z</time>
      </trkpt>
      <trkpt lat="42.35742" lon="2.56762">
        <ele>1195</ele>
        <time>2018-11-26T01:31:42Z</time>
      </trkpt>
      <trkpt lat="42.35743" lon="2.56766">
        <ele>1195.8</ele>
        <time>2018-11-26T01:31:43Z</time>
      </trkpt>
      <trkpt lat="42.35746" lon="2.56764">
        <ele>1196</ele>
        <time>2018-11-26T01:31:45Z</time>
      </trkpt>
      <trkpt lat="42.35753" lon="2.56763">
        <ele>1196.7</ele>
        <time>2018-11-26T01:31:47Z</time>
      </trkpt>
      <trkpt lat="42.35756" lon="2.56765">
        <ele>1196.7</ele>
        <time>2018-11-26T01:31:49Z</time>
      </trkpt>
      <trkpt lat="42.35771" lon="2.56772">
        <ele>1194.5</ele>
        <time>2018-11-26T01:31:55Z</time>
      </trkpt>
      <trkpt lat="42.35778" lon="2.56787">
        <ele>1195.6</ele>
        <time>2018-11-26T01:32:00Z</time>
      </trkpt>
      <trkpt lat="42.3578" lon="2.56789">
        <ele>1195.5</ele>
        <time>2018-11-26T01:32:01Z</time>
      </trkpt>
      <trkpt lat="42.3579" lon="2.56792">
        <ele>1195.4</ele>
        <time>2018-11-26T01:32:05Z</time>
      </trkpt>
      <trkpt lat="42.35804" lon="2.56793">
        <ele>1195</ele>
        <time>2018-11-26T01:32:11Z</time>
      </trkpt>
      <trkpt lat="42.35808" lon="2.56793">
        <ele>1194.6</ele>
        <time>2018-11-26T01:32:12Z</time>
      </trkpt>
      <trkpt lat="42.3584" lon="2.56796">
        <ele>1194.4</ele>
        <time>2018-11-26T01:32:25Z</time>
      </trkpt>
      <trkpt lat="42.35843" lon="2.56799">
        <ele>1194.1</ele>
        <time>2018-11-26T01:32:27Z</time>
      </trkpt>
      <trkpt lat="42.35848" lon="2.56801">
        <ele>1194.2</ele>
        <time>2018-11-26T01:32:29Z</time>
      </trkpt>
      <trkpt lat="42.35851" lon="2.56805">
        <ele>1194.2</ele>
        <time>2018-11-26T01:32:31Z</time>
      </trkpt>
      <trkpt lat="42.3587" lon="2.56819">
        <ele>1192.9</ele>
        <time>2018-11-26T01:32:39Z</time>
      </trkpt>
      <trkpt lat="42.35874" lon="2.56824">
        <ele>1192.9</ele>
        <time>2018-11-26T01:32:41Z</time>
      </trkpt>
      <trkpt lat="42.35876" lon="2.56828">
        <ele>1192.8</ele>
        <time>2018-11-26T01:32:43Z</time>
      </trkpt>
      <trkpt lat="42.35888" lon="2.56837">
        <ele>1192.2</ele>
        <time>2018-11-26T01:32:49Z</time>
      </trkpt>
      <trkpt lat="42.35895" lon="2.56844">
        <ele>1191.1</ele>
        <time>2018-11-26T01:32:52Z</time>
      </trkpt>
      <trkpt lat="42.35899" lon="2.56845">
        <ele>1190.4</ele>
        <time>2018-11-26T01:32:54Z</time>
      </trkpt>
      <trkpt lat="42.35907" lon="2.56854">
        <ele>1189.9</ele>
        <time>2018-11-26T01:32:57Z</time>
      </trkpt>
      <trkpt lat="42.35921" lon="2.56864">
        <ele>1188.7</ele>
        <time>2018-11-26T01:33:04Z</time>
      </trkpt>
      <trkpt lat="42.35924" lon="2.56869">
        <ele>1188.6</ele>
        <time>2018-11-26T01:33:06Z</time>
      </trkpt>
      <trkpt lat="42.35939" lon="2.56881">
        <ele>1187.1</ele>
        <time>2018-11-26T01:33:13Z</time>
      </trkpt>
      <trkpt lat="42.35943" lon="2.56887">
        <ele>1186.7</ele>
        <time>2018-11-26T01:33:15Z</time>
      </trkpt>
      <trkpt lat="42.35945" lon="2.56892">
        <ele>1186.7</ele>
        <time>2018-11-26T01:33:17Z</time>
      </trkpt>
      <trkpt lat="42.35951" lon="2.56903">
        <ele>1186.5</ele>
        <time>2018-11-26T01:33:21Z</time>
      </trkpt>
      <trkpt lat="42.35953" lon="2.56905">
        <ele>1186.7</ele>
        <time>2018-11-26T01:33:22Z</time>
      </trkpt>
      <trkpt lat="42.35964" lon="2.5692">
        <ele>1186</ele>
        <time>2018-11-26T01:33:28Z</time>
      </trkpt>
      <trkpt lat="42.3598" lon="2.5693">
        <ele>1185.6</ele>
        <time>2018-11-26T01:33:35Z</time>
      </trkpt>
      <trkpt lat="42.35997" lon="2.56937">
        <ele>1185</ele>
        <time>2018-11-26T01:33:43Z</time>
      </trkpt>
      <trkpt lat="42.36015" lon="2.56948">
        <ele>1185.9</ele>
        <time>2018-11-26T01:33:51Z</time>
      </trkpt>
      <trkpt lat="42.36032" lon="2.56961">
        <ele>1185.9</ele>
        <time>2018-11-26T01:33:58Z</time>
      </trkpt>
      <trkpt lat="42.36045" lon="2.56972">
        <ele>1184.7</ele>
        <time>2018-11-26T01:34:04Z</time>
      </trkpt>
      <trkpt lat="42.36047" lon="2.56973">
        <ele>1185.1</ele>
        <time>2018-11-26T01:34:05Z</time>
      </trkpt>
      <trkpt lat="42.36054" lon="2.56978">
        <ele>1184.4</ele>
        <time>2018-11-26T01:34:08Z</time>
      </trkpt>
      <trkpt lat="42.3606" lon="2.56979">
        <ele>1183.6</ele>
        <time>2018-11-26T01:34:11Z</time>
      </trkpt>
      <trkpt lat="42.36067" lon="2.56983">
        <ele>1183</ele>
        <time>2018-11-26T01:34:14Z</time>
      </trkpt>
      <trkpt lat="42.36069" lon="2.56986">
        <ele>1182.6</ele>
        <time>2018-11-26T01:34:15Z</time>
      </trkpt>
      <trkpt lat="42.36074" lon="2.56988">
        <ele>1181.9</ele>
        <time>2018-11-26T01:34:17Z</time>
      </trkpt>
      <trkpt lat="42.36082" lon="2.56995">
        <ele>1181.2</ele>
        <time>2018-11-26T01:34:21Z</time>
      </trkpt>
      <trkpt lat="42.36104" lon="2.57007">
        <ele>1179.8</ele>
        <time>2018-11-26T01:34:30Z</time>
      </trkpt>
      <trkpt lat="42.36104" lon="2.57007">
        <ele>1179.6</ele>
        <time>2018-11-26T01:34:31Z</time>
      </trkpt>
      <trkpt lat="42.36117" lon="2.57012">
        <ele>1178</ele>
        <time>2018-11-26T01:34:36Z</time>
      </trkpt>
      <trkpt lat="42.36128" lon="2.5702">
        <ele>1176.9</ele>
        <time>2018-11-26T01:34:41Z</time>
      </trkpt>
      <trkpt lat="42.36136" lon="2.57025">
        <ele>1176.8</ele>
        <time>2018-11-26T01:34:44Z</time>
      </trkpt>
      <trkpt lat="42.36146" lon="2.57035">
        <ele>1175.3</ele>
        <time>2018-11-26T01:34:49Z</time>
      </trkpt>
      <trkpt lat="42.36149" lon="2.57041">
        <ele>1174.6</ele>
        <time>2018-11-26T01:34:51Z</time>
      </trkpt>
      <trkpt lat="42.36155" lon="2.57051">
        <ele>1171.2</ele>
        <time>2018-11-26T01:34:55Z</time>
      </trkpt>
      <trkpt lat="42.36158" lon="2.57059">
        <ele>1170.1</ele>
        <time>2018-11-26T01:34:58Z</time>
      </trkpt>
      <trkpt lat="42.36162" lon="2.57064">
        <ele>1169.5</ele>
        <time>2018-11-26T01:35:00Z</time>
      </trkpt>
      <trkpt lat="42.36167" lon="2.57073">
        <ele>1168.6</ele>
        <time>2018-11-26T01:35:04Z</time>
      </trkpt>
      <trkpt lat="42.36175" lon="2.57083">
        <ele>1167</ele>
        <time>2018-11-26T01:35:08Z</time>
      </trkpt>
      <trkpt lat="42.36184" lon="2.57097">
        <ele>1163.1</ele>
        <time>2018-11-26T01:35:13Z</time>
      </trkpt>
      <trkpt lat="42.36192" lon="2.57104">
        <ele>1161.7</ele>
        <time>2018-11-26T01:35:17Z</time>
      </trkpt>
      <trkpt lat="42.36201" lon="2.57114">
        <ele>1160.3</ele>
        <time>2018-11-26T01:35:22Z</time>
      </trkpt>
      <trkpt lat="42.36207" lon="2.57125">
        <ele>1158.1</ele>
        <time>2018-11-26T01:35:26Z</time>
      </trkpt>
      <trkpt lat="42.36206" lon="2.57128">
        <ele>1159.1</ele>
        <time>2018-11-26T01:35:27Z</time>
      </trkpt>
      <trkpt lat="42.36211" lon="2.57133">
        <ele>1157.9</ele>
        <time>2018-11-26T01:35:29Z</time>
      </trkpt>
      <trkpt lat="42.36231" lon="2.5715">
        <ele>1156.5</ele>
        <time>2018-11-26T01:35:39Z</time>
      </trkpt>
      <trkpt lat="42.36255" lon="2.57173">
        <ele>1155.1</ele>
        <time>2018-11-26T01:35:50Z</time>
      </trkpt>
      <trkpt lat="42.36269" lon="2.57183">
        <ele>1153.9</ele>
        <time>2018-11-26T01:35:57Z</time>
      </trkpt>
      <trkpt lat="42.36283" lon="2.57189">
        <ele>1152</ele>
        <time>2018-11-26T01:36:03Z</time>
      </trkpt>
      <trkpt lat="42.36288" lon="2.57195">
        <ele>1151</ele>
        <time>2018-11-26T01:36:05Z</time>
      </trkpt>
      <trkpt lat="42.36287" lon="2.57196">
        <ele>1150.6</ele>
        <time>2018-11-26T01:36:06Z</time>
      </trkpt>
      <trkpt lat="42.36288" lon="2.57203">
        <ele>1150.2</ele>
        <time>2018-11-26T01:36:08Z</time>
      </trkpt>
      <trkpt lat="42.36287" lon="2.57209">
        <ele>1149.3</ele>
        <time>2018-11-26T01:36:10Z</time>
      </trkpt>
      <trkpt lat="42.3628" lon="2.57219">
        <ele>1147.2</ele>
        <time>2018-11-26T01:36:14Z</time>
      </trkpt>
      <trkpt lat="42.36278" lon="2.57226">
        <ele>1145.4</ele>
        <time>2018-11-26T01:36:16Z</time>
      </trkpt>
      <trkpt lat="42.36283" lon="2.57236">
        <ele>1141.8</ele>
        <time>2018-11-26T01:36:20Z</time>
      </trkpt>
      <trkpt lat="42.36288" lon="2.57238">
        <ele>1140.4</ele>
        <time>2018-11-26T01:36:22Z</time>
      </trkpt>
      <trkpt lat="42.3629" lon="2.57246">
        <ele>1137.2</ele>
        <time>2018-11-26T01:36:24Z</time>
      </trkpt>
      <trkpt lat="42.36289" lon="2.57251">
        <ele>1135.8</ele>
        <time>2018-11-26T01:36:26Z</time>
      </trkpt>
      <trkpt lat="42.36286" lon="2.57255">
        <ele>1134.5</ele>
        <time>2018-11-26T01:36:27Z</time>
      </trkpt>
      <trkpt lat="42.36266" lon="2.57254">
        <ele>1136</ele>
        <time>2018-11-26T01:36:36Z</time>
      </trkpt>
      <trkpt lat="42.36242" lon="2.57255">
        <ele>1137.7</ele>
        <time>2018-11-26T01:36:45Z</time>
      </trkpt>
      <trkpt lat="42.36224" lon="2.57256">
        <ele>1138.7</ele>
        <time>2018-11-26T01:36:52Z</time>
      </trkpt>
      <trkpt lat="42.36219" lon="2.57258">
        <ele>1138.7</ele>
        <time>2018-11-26T01:36:55Z</time>
      </trkpt>
      <trkpt lat="42.36195" lon="2.5726">
        <ele>1139.9</ele>
        <time>2018-11-26T01:37:04Z</time>
      </trkpt>
      <trkpt lat="42.36183" lon="2.57265">
        <ele>1141.4</ele>
        <time>2018-11-26T01:37:09Z</time>
      </trkpt>
      <trkpt lat="42.36174" lon="2.5728">
        <ele>1141.2</ele>
        <time>2018-11-26T01:37:15Z</time>
      </trkpt>
      <trkpt lat="42.36171" lon="2.57294">
        <ele>1141.6</ele>
        <time>2018-11-26T01:37:19Z</time>
      </trkpt>
      <trkpt lat="42.36171" lon="2.57297">
        <ele>1141.4</ele>
        <time>2018-11-26T01:37:20Z</time>
      </trkpt>
      <trkpt lat="42.36168" lon="2.57311">
        <ele>1141.3</ele>
        <time>2018-11-26T01:37:24Z</time>
      </trkpt>
      <trkpt lat="42.36171" lon="2.57317">
        <ele>1141.4</ele>
        <time>2018-11-26T01:37:26Z</time>
      </trkpt>
      <trkpt lat="42.36176" lon="2.5732">
        <ele>1141.9</ele>
        <time>2018-11-26T01:37:28Z</time>
      </trkpt>
      <trkpt lat="42.36188" lon="2.57319">
        <ele>1143.2</ele>
        <time>2018-11-26T01:37:33Z</time>
      </trkpt>
      <trkpt lat="42.36197" lon="2.57323">
        <ele>1144.2</ele>
        <time>2018-11-26T01:37:37Z</time>
      </trkpt>
      <trkpt lat="42.36227" lon="2.57356">
        <ele>1147.1</ele>
        <time>2018-11-26T01:37:53Z</time>
      </trkpt>
      <trkpt lat="42.3624" lon="2.5737">
        <ele>1146.3</ele>
        <time>2018-11-26T01:37:59Z</time>
      </trkpt>
      <trkpt lat="42.36242" lon="2.57375">
        <ele>1146.3</ele>
        <time>2018-11-26T01:38:01Z</time>
      </trkpt>
      <trkpt lat="42.3625" lon="2.57383">
        <ele>1147.8</ele>
        <time>2018-11-26T01:38:05Z</time>
      </trkpt>
      <trkpt lat="42.36257" lon="2.574">
        <ele>1148.5</ele>
        <time>2018-11-26T01:38:11Z</time>
      </trkpt>
      <trkpt lat="42.36276" lon="2.57464">
        <ele>1150.3</ele>
        <time>2018-11-26T01:38:31Z</time>
      </trkpt>
      <trkpt lat="42.36283" lon="2.57492">
        <ele>1151.8</ele>
        <time>2018-11-26T01:38:40Z</time>
      </trkpt>
      <trkpt lat="42.36286" lon="2.57496">
        <ele>1153.1</ele>
        <time>2018-11-26T01:38:41Z</time>
      </trkpt>
      <trkpt lat="42.36295" lon="2.57522">
        <ele>1151.9</ele>
        <time>2018-11-26T01:38:50Z</time>
      </trkpt>
      <trkpt lat="42.36297" lon="2.57524">
        <ele>1151.9</ele>
        <time>2018-11-26T01:38:51Z</time>
      </trkpt>
      <trkpt lat="42.36308" lon="2.57538">
        <ele>1152.4</ele>
        <time>2018-11-26T01:38:57Z</time>
      </trkpt>
      <trkpt lat="42.36332" lon="2.57563">
        <ele>1154.5</ele>
        <time>2018-11-26T01:39:09Z</time>
      </trkpt>
      <trkpt lat="42.36333" lon="2.5757">
        <ele>1155</ele>
        <time>2018-11-26T01:39:11Z</time>
      </trkpt>
      <trkpt lat="42.36333" lon="2.57576">
        <ele>1154.9</ele>
        <time>2018-11-26T01:39:13Z</time>
      </trkpt>
      <trkpt lat="42.36326" lon="2.57594">
        <ele>1155.5</ele>
        <time>2018-11-26T01:39:19Z</time>
      </trkpt>
      <trkpt lat="42.36318" lon="2.57603">
        <ele>1155.6</ele>
        <time>2018-11-26T01:39:23Z</time>
      </trkpt>
      <trkpt lat="42.36319" lon="2.57603">
        <ele>1155.1</ele>
        <time>2018-11-26T01:39:23Z</time>
      </trkpt>
      <trkpt lat="42.36319" lon="2.57604">
        <ele>1155.1</ele>
        <time>2018-11-26T01:39:24Z</time>
      </trkpt>
      <trkpt lat="42.36317" lon="2.57607">
        <ele>1152.9</ele>
        <time>2018-11-26T01:39:25Z</time>
      </trkpt>
      <trkpt lat="42.36316" lon="2.57605">
        <ele>1153.8</ele>
        <time>2018-11-26T01:39:26Z</time>
      </trkpt>
      <trkpt lat="42.36316" lon="2.57605">
        <ele>1154.1</ele>
        <time>2018-11-26T01:39:26Z</time>
      </trkpt>
      <trkpt lat="42.36315" lon="2.57605">
        <ele>1155.7</ele>
        <time>2018-11-26T01:39:26Z</time>
      </trkpt>
      <trkpt lat="42.36316" lon="2.57605">
        <ele>1155</ele>
        <time>2018-11-26T01:39:26Z</time>
      </trkpt>
      <trkpt lat="42.36316" lon="2.57607">
        <ele>1153.1</ele>
        <time>2018-11-26T01:39:27Z</time>
      </trkpt>
      <trkpt lat="42.36316" lon="2.57605">
        <ele>1153</ele>
        <time>2018-11-26T01:39:27Z</time>
      </trkpt>
      <trkpt lat="42.36317" lon="2.57604">
        <ele>1152.8</ele>
        <time>2018-11-26T01:39:28Z</time>
      </trkpt>
      <trkpt lat="42.36316" lon="2.57606">
        <ele>1151.6</ele>
        <time>2018-11-26T01:39:28Z</time>
      </trkpt>
      <trkpt lat="42.36316" lon="2.57599">
        <ele>1152.7</ele>
        <time>2018-11-26T01:39:30Z</time>
      </trkpt>
      <trkpt lat="42.3632" lon="2.57599">
        <ele>1152.6</ele>
        <time>2018-11-26T01:39:32Z</time>
      </trkpt>
      <trkpt lat="42.36316" lon="2.57602">
        <ele>1153.3</ele>
        <time>2018-11-26T01:39:33Z</time>
      </trkpt>
      <trkpt lat="42.36315" lon="2.57601">
        <ele>1153.1</ele>
        <time>2018-11-26T01:39:34Z</time>
      </trkpt>
      <trkpt lat="42.36308" lon="2.57609">
        <ele>1152.3</ele>
        <time>2018-11-26T01:39:38Z</time>
      </trkpt>
      <trkpt lat="42.36302" lon="2.57613">
        <ele>1153.1</ele>
        <time>2018-11-26T01:39:40Z</time>
      </trkpt>
      <trkpt lat="42.36272" lon="2.57617">
        <ele>1154.2</ele>
        <time>2018-11-26T01:39:53Z</time>
      </trkpt>
      <trkpt lat="42.36262" lon="2.5762">
        <ele>1153.2</ele>
        <time>2018-11-26T01:39:57Z</time>
      </trkpt>
      <trkpt lat="42.36258" lon="2.57623">
        <ele>1152.9</ele>
        <time>2018-11-26T01:39:59Z</time>
      </trkpt>
      <trkpt lat="42.36244" lon="2.57637">
        <ele>1152.3</ele>
        <time>2018-11-26T01:40:06Z</time>
      </trkpt>
      <trkpt lat="42.36236" lon="2.57643">
        <ele>1152</ele>
        <time>2018-11-26T01:40:09Z</time>
      </trkpt>
      <trkpt lat="42.3623" lon="2.57652">
        <ele>1152.2</ele>
        <time>2018-11-26T01:40:13Z</time>
      </trkpt>
      <trkpt lat="42.36195" lon="2.57669">
        <ele>1150.9</ele>
        <time>2018-11-26T01:40:28Z</time>
      </trkpt>
      <trkpt lat="42.36192" lon="2.57669">
        <ele>1151.2</ele>
        <time>2018-11-26T01:40:29Z</time>
      </trkpt>
      <trkpt lat="42.36184" lon="2.57665">
        <ele>1151.4</ele>
        <time>2018-11-26T01:40:32Z</time>
      </trkpt>
      <trkpt lat="42.36168" lon="2.57662">
        <ele>1150.4</ele>
        <time>2018-11-26T01:40:39Z</time>
      </trkpt>
      <trkpt lat="42.36138" lon="2.57677">
        <ele>1149.8</ele>
        <time>2018-11-26T01:40:51Z</time>
      </trkpt>
      <trkpt lat="42.36135" lon="2.57678">
        <ele>1149.5</ele>
        <time>2018-11-26T01:40:53Z</time>
      </trkpt>
      <trkpt lat="42.36122" lon="2.57679">
        <ele>1149.4</ele>
        <time>2018-11-26T01:40:58Z</time>
      </trkpt>
      <trkpt lat="42.36116" lon="2.57682">
        <ele>1148.3</ele>
        <time>2018-11-26T01:41:01Z</time>
      </trkpt>
      <trkpt lat="42.36106" lon="2.57692">
        <ele>1148.9</ele>
        <time>2018-11-26T01:41:06Z</time>
      </trkpt>
      <trkpt lat="42.36094" lon="2.57709">
        <ele>1149</ele>
        <time>2018-11-26T01:41:13Z</time>
      </trkpt>
      <trkpt lat="42.3609" lon="2.57713">
        <ele>1148.3</ele>
        <time>2018-11-26T01:41:14Z</time>
      </trkpt>
      <trkpt lat="42.3608" lon="2.57716">
        <ele>1148.3</ele>
        <time>2018-11-26T01:41:18Z</time>
      </trkpt>
      <trkpt lat="42.36068" lon="2.57726">
        <ele>1147.9</ele>
        <time>2018-11-26T01:41:24Z</time>
      </trkpt>
      <trkpt lat="42.36064" lon="2.57733">
        <ele>1147.2</ele>
        <time>2018-11-26T01:41:27Z</time>
      </trkpt>
      <trkpt lat="42.36063" lon="2.57743">
        <ele>1146.8</ele>
        <time>2018-11-26T01:41:30Z</time>
      </trkpt>
      <trkpt lat="42.36065" lon="2.57752">
        <ele>1146.1</ele>
        <time>2018-11-26T01:41:33Z</time>
      </trkpt>
      <trkpt lat="42.3608" lon="2.57766">
        <ele>1145.2</ele>
        <time>2018-11-26T01:41:40Z</time>
      </trkpt>
      <trkpt lat="42.36081" lon="2.57766">
        <ele>1145.5</ele>
        <time>2018-11-26T01:41:40Z</time>
      </trkpt>
      <trkpt lat="42.36093" lon="2.57774">
        <ele>1144.3</ele>
        <time>2018-11-26T01:41:45Z</time>
      </trkpt>
      <trkpt lat="42.36127" lon="2.57817">
        <ele>1142.1</ele>
        <time>2018-11-26T01:42:04Z</time>
      </trkpt>
      <trkpt lat="42.36132" lon="2.57828">
        <ele>1141.8</ele>
        <time>2018-11-26T01:42:08Z</time>
      </trkpt>
      <trkpt lat="42.36132" lon="2.57828">
        <ele>1141.8</ele>
        <time>2018-11-26T01:42:08Z</time>
      </trkpt>
      <trkpt lat="42.36138" lon="2.57845">
        <ele>1141.1</ele>
        <time>2018-11-26T01:42:14Z</time>
      </trkpt>
      <trkpt lat="42.3614" lon="2.57857">
        <ele>1142</ele>
        <time>2018-11-26T01:42:17Z</time>
      </trkpt>
      <trkpt lat="42.3614" lon="2.57873">
        <ele>1141.7</ele>
        <time>2018-11-26T01:42:22Z</time>
      </trkpt>
      <trkpt lat="42.36138" lon="2.57878">
        <ele>1141.8</ele>
        <time>2018-11-26T01:42:24Z</time>
      </trkpt>
      <trkpt lat="42.3614" lon="2.57884">
        <ele>1141.5</ele>
        <time>2018-11-26T01:42:26Z</time>
      </trkpt>
      <trkpt lat="42.36135" lon="2.57899">
        <ele>1141.6</ele>
        <time>2018-11-26T01:42:30Z</time>
      </trkpt>
      <trkpt lat="42.36137" lon="2.57897">
        <ele>1136.9</ele>
        <time>2018-11-26T01:42:31Z</time>
      </trkpt>
      <trkpt lat="42.36135" lon="2.57901">
        <ele>1138.7</ele>
        <time>2018-11-26T01:42:33Z</time>
      </trkpt>
      <trkpt lat="42.36136" lon="2.57901">
        <ele>1139.5</ele>
        <time>2018-11-26T01:42:34Z</time>
      </trkpt>
      <trkpt lat="42.36139" lon="2.57907">
        <ele>1140.4</ele>
        <time>2018-11-26T01:42:36Z</time>
      </trkpt>
      <trkpt lat="42.36146" lon="2.57912">
        <ele>1137</ele>
        <time>2018-11-26T01:42:39Z</time>
      </trkpt>
      <trkpt lat="42.36157" lon="2.57912">
        <ele>1132.7</ele>
        <time>2018-11-26T01:42:43Z</time>
      </trkpt>
      <trkpt lat="42.36159" lon="2.57913">
        <ele>1131.6</ele>
        <time>2018-11-26T01:42:44Z</time>
      </trkpt>
      <trkpt lat="42.36164" lon="2.57912">
        <ele>1129.7</ele>
        <time>2018-11-26T01:42:46Z</time>
      </trkpt>
      <trkpt lat="42.36177" lon="2.57918">
        <ele>1124.7</ele>
        <time>2018-11-26T01:42:52Z</time>
      </trkpt>
      <trkpt lat="42.36187" lon="2.57912">
        <ele>1120</ele>
        <time>2018-11-26T01:42:56Z</time>
      </trkpt>
      <trkpt lat="42.36198" lon="2.57905">
        <ele>1117.2</ele>
        <time>2018-11-26T01:43:01Z</time>
      </trkpt>
      <trkpt lat="42.36209" lon="2.579">
        <ele>1114.6</ele>
        <time>2018-11-26T01:43:06Z</time>
      </trkpt>
      <trkpt lat="42.36211" lon="2.57899">
        <ele>1113.1</ele>
        <time>2018-11-26T01:43:06Z</time>
      </trkpt>
      <trkpt lat="42.36211" lon="2.57899">
        <ele>1114.1</ele>
        <time>2018-11-26T01:43:07Z</time>
      </trkpt>
      <trkpt lat="42.36209" lon="2.57898">
        <ele>1114.6</ele>
        <time>2018-11-26T01:43:07Z</time>
      </trkpt>
      <trkpt lat="42.36211" lon="2.57891">
        <ele>1114.4</ele>
        <time>2018-11-26T01:43:10Z</time>
      </trkpt>
      <trkpt lat="42.36209" lon="2.57891">
        <ele>1112.3</ele>
        <time>2018-11-26T01:43:11Z</time>
      </trkpt>
      <trkpt lat="42.36211" lon="2.57883">
        <ele>1113</ele>
        <time>2018-11-26T01:43:13Z</time>
      </trkpt>
      <trkpt lat="42.3621" lon="2.57882">
        <ele>1112.7</ele>
        <time>2018-11-26T01:43:14Z</time>
      </trkpt>
      <trkpt lat="42.36215" lon="2.5789">
        <ele>1112.8</ele>
        <time>2018-11-26T01:43:17Z</time>
      </trkpt>
      <trkpt lat="42.36214" lon="2.57892">
        <ele>1113.1</ele>
        <time>2018-11-26T01:43:18Z</time>
      </trkpt>
      <trkpt lat="42.36216" lon="2.57893">
        <ele>1112.9</ele>
        <time>2018-11-26T01:43:18Z</time>
      </trkpt>
      <trkpt lat="42.36223" lon="2.57907">
        <ele>1111</ele>
        <time>2018-11-26T01:43:23Z</time>
      </trkpt>
      <trkpt lat="42.36226" lon="2.57913">
        <ele>1108.8</ele>
        <time>2018-11-26T01:43:26Z</time>
      </trkpt>
      <trkpt lat="42.36226" lon="2.57918">
        <ele>1108.6</ele>
        <time>2018-11-26T01:43:27Z</time>
      </trkpt>
      <trkpt lat="42.3623" lon="2.57922">
        <ele>1107.1</ele>
        <time>2018-11-26T01:43:29Z</time>
      </trkpt>
      <trkpt lat="42.36235" lon="2.57931">
        <ele>1105.5</ele>
        <time>2018-11-26T01:43:32Z</time>
      </trkpt>
      <trkpt lat="42.36236" lon="2.57935">
        <ele>1104.4</ele>
        <time>2018-11-26T01:43:33Z</time>
      </trkpt>
      <trkpt lat="42.3624" lon="2.57941">
        <ele>1104.4</ele>
        <time>2018-11-26T01:43:36Z</time>
      </trkpt>
      <trkpt lat="42.36241" lon="2.57947">
        <ele>1103.3</ele>
        <time>2018-11-26T01:43:38Z</time>
      </trkpt>
      <trkpt lat="42.36239" lon="2.57957">
        <ele>1101.1</ele>
        <time>2018-11-26T01:43:41Z</time>
      </trkpt>
      <trkpt lat="42.36235" lon="2.57964">
        <ele>1099.7</ele>
        <time>2018-11-26T01:43:43Z</time>
      </trkpt>
      <trkpt lat="42.36234" lon="2.57972">
        <ele>1100.8</ele>
        <time>2018-11-26T01:43:46Z</time>
      </trkpt>
      <trkpt lat="42.36233" lon="2.57966">
        <ele>1099.7</ele>
        <time>2018-11-26T01:43:48Z</time>
      </trkpt>
      <trkpt lat="42.36229" lon="2.57972">
        <ele>1096.8</ele>
        <time>2018-11-26T01:43:50Z</time>
      </trkpt>
      <trkpt lat="42.36232" lon="2.57988">
        <ele>1095.5</ele>
        <time>2018-11-26T01:43:55Z</time>
      </trkpt>
      <trkpt lat="42.36233" lon="2.57994">
        <ele>1094.5</ele>
        <time>2018-11-26T01:43:57Z</time>
      </trkpt>
      <trkpt lat="42.36234" lon="2.57999">
        <ele>1093.4</ele>
        <time>2018-11-26T01:43:59Z</time>
      </trkpt>
      <trkpt lat="42.36234" lon="2.58004">
        <ele>1091.8</ele>
        <time>2018-11-26T01:44:00Z</time>
      </trkpt>
      <trkpt lat="42.36238" lon="2.58014">
        <ele>1088.2</ele>
        <time>2018-11-26T01:44:03Z</time>
      </trkpt>
      <trkpt lat="42.36239" lon="2.58021">
        <ele>1086.7</ele>
        <time>2018-11-26T01:44:05Z</time>
      </trkpt>
      <trkpt lat="42.36241" lon="2.58028">
        <ele>1085.5</ele>
        <time>2018-11-26T01:44:08Z</time>
      </trkpt>
      <trkpt lat="42.3624" lon="2.58042">
        <ele>1084.3</ele>
        <time>2018-11-26T01:44:12Z</time>
      </trkpt>
      <trkpt lat="42.36237" lon="2.5805">
        <ele>1083.2</ele>
        <time>2018-11-26T01:44:14Z</time>
      </trkpt>
      <trkpt lat="42.36237" lon="2.58063">
        <ele>1079.7</ele>
        <time>2018-11-26T01:44:18Z</time>
      </trkpt>
      <trkpt lat="42.36235" lon="2.58068">
        <ele>1078.2</ele>
        <time>2018-11-26T01:44:20Z</time>
      </trkpt>
      <trkpt lat="42.3624" lon="2.58086">
        <ele>1074.3</ele>
        <time>2018-11-26T01:44:25Z</time>
      </trkpt>
      <trkpt lat="42.36238" lon="2.58088">
        <ele>1073.6</ele>
        <time>2018-11-26T01:44:27Z</time>
      </trkpt>
      <trkpt lat="42.36237" lon="2.58093">
        <ele>1072</ele>
        <time>2018-11-26T01:44:28Z</time>
      </trkpt>
      <trkpt lat="42.36237" lon="2.581">
        <ele>1070</ele>
        <time>2018-11-26T01:44:30Z</time>
      </trkpt>
      <trkpt lat="42.36234" lon="2.58104">
        <ele>1069.7</ele>
        <time>2018-11-26T01:44:32Z</time>
      </trkpt>
      <trkpt lat="42.36229" lon="2.58104">
        <ele>1068.7</ele>
        <time>2018-11-26T01:44:34Z</time>
      </trkpt>
      <trkpt lat="42.36228" lon="2.5811">
        <ele>1067.3</ele>
        <time>2018-11-26T01:44:36Z</time>
      </trkpt>
      <trkpt lat="42.36224" lon="2.58114">
        <ele>1067.6</ele>
        <time>2018-11-26T01:44:38Z</time>
      </trkpt>
      <trkpt lat="42.36224" lon="2.58118">
        <ele>1067.9</ele>
        <time>2018-11-26T01:44:39Z</time>
      </trkpt>
      <trkpt lat="42.36221" lon="2.58124">
        <ele>1067.7</ele>
        <time>2018-11-26T01:44:41Z</time>
      </trkpt>
      <trkpt lat="42.36237" lon="2.58111">
        <ele>1066.6</ele>
        <time>2018-11-26T01:44:48Z</time>
      </trkpt>
      <trkpt lat="42.36242" lon="2.58106">
        <ele>1066.5</ele>
        <time>2018-11-26T01:44:51Z</time>
      </trkpt>
      <trkpt lat="42.36246" lon="2.58109">
        <ele>1065.5</ele>
        <time>2018-11-26T01:44:52Z</time>
      </trkpt>
      <trkpt lat="42.36244" lon="2.58114">
        <ele>1064.8</ele>
        <time>2018-11-26T01:44:54Z</time>
      </trkpt>
      <trkpt lat="42.36245" lon="2.58122">
        <ele>1062.5</ele>
        <time>2018-11-26T01:44:56Z</time>
      </trkpt>
      <trkpt lat="42.36245" lon="2.5812">
        <ele>1062.5</ele>
        <time>2018-11-26T01:44:57Z</time>
      </trkpt>
      <trkpt lat="42.36247" lon="2.58131">
        <ele>1061.4</ele>
        <time>2018-11-26T01:45:00Z</time>
      </trkpt>
      <trkpt lat="42.3625" lon="2.58135">
        <ele>1058.8</ele>
        <time>2018-11-26T01:45:02Z</time>
      </trkpt>
      <trkpt lat="42.36255" lon="2.58137">
        <ele>1057.5</ele>
        <time>2018-11-26T01:45:04Z</time>
      </trkpt>
      <trkpt lat="42.36259" lon="2.58137">
        <ele>1056.5</ele>
        <time>2018-11-26T01:45:05Z</time>
      </trkpt>
      <trkpt lat="42.36268" lon="2.58134">
        <ele>1056.4</ele>
        <time>2018-11-26T01:45:09Z</time>
      </trkpt>
      <trkpt lat="42.36278" lon="2.58124">
        <ele>1055.1</ele>
        <time>2018-11-26T01:45:14Z</time>
      </trkpt>
      <trkpt lat="42.36282" lon="2.58122">
        <ele>1053.4</ele>
        <time>2018-11-26T01:45:15Z</time>
      </trkpt>
      <trkpt lat="42.36283" lon="2.58117">
        <ele>1053.3</ele>
        <time>2018-11-26T01:45:17Z</time>
      </trkpt>
      <trkpt lat="42.36286" lon="2.58117">
        <ele>1051.5</ele>
        <time>2018-11-26T01:45:18Z</time>
      </trkpt>
      <trkpt lat="42.36295" lon="2.58114">
        <ele>1050.4</ele>
        <time>2018-11-26T01:45:22Z</time>
      </trkpt>
      <trkpt lat="42.36304" lon="2.58105">
        <ele>1048.3</ele>
        <time>2018-11-26T01:45:27Z</time>
      </trkpt>
      <trkpt lat="42.36306" lon="2.581">
        <ele>1046.1</ele>
        <time>2018-11-26T01:45:28Z</time>
      </trkpt>
      <trkpt lat="42.36312" lon="2.58098">
        <ele>1044.2</ele>
        <time>2018-11-26T01:45:31Z</time>
      </trkpt>
      <trkpt lat="42.36314" lon="2.58094">
        <ele>1042.6</ele>
        <time>2018-11-26T01:45:32Z</time>
      </trkpt>
      <trkpt lat="42.36318" lon="2.58091">
        <ele>1041.5</ele>
        <time>2018-11-26T01:45:34Z</time>
      </trkpt>
      <trkpt lat="42.36327" lon="2.5809">
        <ele>1038.1</ele>
        <time>2018-11-26T01:45:37Z</time>
      </trkpt>
      <trkpt lat="42.36332" lon="2.58086">
        <ele>1037.1</ele>
        <time>2018-11-26T01:45:40Z</time>
      </trkpt>
      <trkpt lat="42.36335" lon="2.5808">
        <ele>1036</ele>
        <time>2018-11-26T01:45:42Z</time>
      </trkpt>
      <trkpt lat="42.36339" lon="2.5807">
        <ele>1035.3</ele>
        <time>2018-11-26T01:45:45Z</time>
      </trkpt>
      <trkpt lat="42.36341" lon="2.58066">
        <ele>1034.8</ele>
        <time>2018-11-26T01:45:47Z</time>
      </trkpt>
      <trkpt lat="42.36348" lon="2.58068">
        <ele>1035.1</ele>
        <time>2018-11-26T01:45:49Z</time>
      </trkpt>
      <trkpt lat="42.36351" lon="2.58073">
        <ele>1035.3</ele>
        <time>2018-11-26T01:45:51Z</time>
      </trkpt>
      <trkpt lat="42.36365" lon="2.58127">
        <ele>1031.4</ele>
        <time>2018-11-26T01:46:08Z</time>
      </trkpt>
      <trkpt lat="42.36367" lon="2.58132">
        <ele>1031.5</ele>
        <time>2018-11-26T01:46:10Z</time>
      </trkpt>
      <trkpt lat="42.36367" lon="2.58137">
        <ele>1030.8</ele>
        <time>2018-11-26T01:46:12Z</time>
      </trkpt>
      <trkpt lat="42.36371" lon="2.58147">
        <ele>1029.2</ele>
        <time>2018-11-26T01:46:15Z</time>
      </trkpt>
      <trkpt lat="42.36375" lon="2.58165">
        <ele>1027.9</ele>
        <time>2018-11-26T01:46:20Z</time>
      </trkpt>
      <trkpt lat="42.36376" lon="2.58175">
        <ele>1027.2</ele>
        <time>2018-11-26T01:46:23Z</time>
      </trkpt>
      <trkpt lat="42.36377" lon="2.58179">
        <ele>1027.2</ele>
        <time>2018-11-26T01:46:25Z</time>
      </trkpt>
      <trkpt lat="42.36377" lon="2.582">
        <ele>1026</ele>
        <time>2018-11-26T01:46:31Z</time>
      </trkpt>
      <trkpt lat="42.36375" lon="2.58205">
        <ele>1025.9</ele>
        <time>2018-11-26T01:46:32Z</time>
      </trkpt>
      <trkpt lat="42.36377" lon="2.58214">
        <ele>1025.1</ele>
        <time>2018-11-26T01:46:35Z</time>
      </trkpt>
      <trkpt lat="42.36382" lon="2.58222">
        <ele>1024.5</ele>
        <time>2018-11-26T01:46:38Z</time>
      </trkpt>
      <trkpt lat="42.36392" lon="2.58232">
        <ele>1023.6</ele>
        <time>2018-11-26T01:46:43Z</time>
      </trkpt>
      <trkpt lat="42.36392" lon="2.58241">
        <ele>1023.1</ele>
        <time>2018-11-26T01:46:46Z</time>
      </trkpt>
      <trkpt lat="42.36387" lon="2.58259">
        <ele>1022.9</ele>
        <time>2018-11-26T01:46:52Z</time>
      </trkpt>
      <trkpt lat="42.36385" lon="2.58261">
        <ele>1022.5</ele>
        <time>2018-11-26T01:46:52Z</time>
      </trkpt>
      <trkpt lat="42.36384" lon="2.58275">
        <ele>1021</ele>
        <time>2018-11-26T01:46:56Z</time>
      </trkpt>
      <trkpt lat="42.36385" lon="2.58283">
        <ele>1019.8</ele>
        <time>2018-11-26T01:46:59Z</time>
      </trkpt>
      <trkpt lat="42.36384" lon="2.58287">
        <ele>1018.4</ele>
        <time>2018-11-26T01:47:00Z</time>
      </trkpt>
      <trkpt lat="42.36382" lon="2.58308">
        <ele>1015.1</ele>
        <time>2018-11-26T01:47:07Z</time>
      </trkpt>
      <trkpt lat="42.36382" lon="2.58319">
        <ele>1014.1</ele>
        <time>2018-11-26T01:47:10Z</time>
      </trkpt>
      <trkpt lat="42.36385" lon="2.58326">
        <ele>1013.2</ele>
        <time>2018-11-26T01:47:12Z</time>
      </trkpt>
      <trkpt lat="42.3639" lon="2.58329">
        <ele>1012.2</ele>
        <time>2018-11-26T01:47:14Z</time>
      </trkpt>
      <trkpt lat="42.36394" lon="2.58334">
        <ele>1010.5</ele>
        <time>2018-11-26T01:47:16Z</time>
      </trkpt>
      <trkpt lat="42.36399" lon="2.58336">
        <ele>1009.2</ele>
        <time>2018-11-26T01:47:19Z</time>
      </trkpt>
      <trkpt lat="42.36404" lon="2.58336">
        <ele>1009</ele>
        <time>2018-11-26T01:47:20Z</time>
      </trkpt>
      <trkpt lat="42.36416" lon="2.58345">
        <ele>1008.4</ele>
        <time>2018-11-26T01:47:26Z</time>
      </trkpt>
      <trkpt lat="42.36418" lon="2.58349">
        <ele>1008.8</ele>
        <time>2018-11-26T01:47:28Z</time>
      </trkpt>
      <trkpt lat="42.36422" lon="2.58352">
        <ele>1009.2</ele>
        <time>2018-11-26T01:47:29Z</time>
      </trkpt>
      <trkpt lat="42.36431" lon="2.58353">
        <ele>1010.7</ele>
        <time>2018-11-26T01:47:33Z</time>
      </trkpt>
      <trkpt lat="42.36449" lon="2.58366">
        <ele>1014</ele>
        <time>2018-11-26T01:47:41Z</time>
      </trkpt>
      <trkpt lat="42.36453" lon="2.5837">
        <ele>1014.7</ele>
        <time>2018-11-26T01:47:43Z</time>
      </trkpt>
      <trkpt lat="42.36453" lon="2.58372">
        <ele>1015.3</ele>
        <time>2018-11-26T01:47:44Z</time>
      </trkpt>
      <trkpt lat="42.36454" lon="2.58371">
        <ele>1015.5</ele>
        <time>2018-11-26T01:47:44Z</time>
      </trkpt>
      <trkpt lat="42.36456" lon="2.58369">
        <ele>1015</ele>
        <time>2018-11-26T01:47:45Z</time>
      </trkpt>
      <trkpt lat="42.36454" lon="2.58358">
        <ele>1014.7</ele>
        <time>2018-11-26T01:47:49Z</time>
      </trkpt>
      <trkpt lat="42.36455" lon="2.58362">
        <ele>1014.7</ele>
        <time>2018-11-26T01:47:50Z</time>
      </trkpt>
      <trkpt lat="42.36455" lon="2.58362">
        <ele>1015.9</ele>
        <time>2018-11-26T01:47:50Z</time>
      </trkpt>
      <trkpt lat="42.36453" lon="2.58365">
        <ele>1015.8</ele>
        <time>2018-11-26T01:47:51Z</time>
      </trkpt>
      <trkpt lat="42.3645" lon="2.58362">
        <ele>1015.6</ele>
        <time>2018-11-26T01:47:53Z</time>
      </trkpt>
      <trkpt lat="42.3645" lon="2.58363">
        <ele>1016.2</ele>
        <time>2018-11-26T01:47:53Z</time>
      </trkpt>
      <trkpt lat="42.36453" lon="2.58365">
        <ele>1017</ele>
        <time>2018-11-26T01:47:54Z</time>
      </trkpt>
      <trkpt lat="42.36452" lon="2.58365">
        <ele>1018.8</ele>
        <time>2018-11-26T01:47:55Z</time>
      </trkpt>
      <trkpt lat="42.36453" lon="2.58368">
        <ele>1015.8</ele>
        <time>2018-11-26T01:47:56Z</time>
      </trkpt>
      <trkpt lat="42.36461" lon="2.58376">
        <ele>1014.1</ele>
        <time>2018-11-26T01:48:00Z</time>
      </trkpt>
      <trkpt lat="42.36465" lon="2.58383">
        <ele>1014.5</ele>
        <time>2018-11-26T01:48:02Z</time>
      </trkpt>
      <trkpt lat="42.36465" lon="2.58391">
        <ele>1014.5</ele>
        <time>2018-11-26T01:48:05Z</time>
      </trkpt>
      <trkpt lat="42.36465" lon="2.58394">
        <ele>1014.1</ele>
        <time>2018-11-26T01:48:06Z</time>
      </trkpt>
      <trkpt lat="42.3646" lon="2.58401">
        <ele>1013.4</ele>
        <time>2018-11-26T01:48:08Z</time>
      </trkpt>
      <trkpt lat="42.36451" lon="2.584">
        <ele>1012</ele>
        <time>2018-11-26T01:48:12Z</time>
      </trkpt>
      <trkpt lat="42.36449" lon="2.58399">
        <ele>1011.5</ele>
        <time>2018-11-26T01:48:13Z</time>
      </trkpt>
      <trkpt lat="42.36443" lon="2.58399">
        <ele>1010.6</ele>
        <time>2018-11-26T01:48:15Z</time>
      </trkpt>
      <trkpt lat="42.36438" lon="2.58404">
        <ele>1010.8</ele>
        <time>2018-11-26T01:48:18Z</time>
      </trkpt>
      <trkpt lat="42.3644" lon="2.58415">
        <ele>1015.3</ele>
        <time>2018-11-26T01:48:21Z</time>
      </trkpt>
      <trkpt lat="42.36441" lon="2.58415">
        <ele>1015.8</ele>
        <time>2018-11-26T01:48:21Z</time>
      </trkpt>
      <trkpt lat="42.36448" lon="2.58412">
        <ele>1015.9</ele>
        <time>2018-11-26T01:48:25Z</time>
      </trkpt>
      <trkpt lat="42.36453" lon="2.58414">
        <ele>1017.7</ele>
        <time>2018-11-26T01:48:26Z</time>
      </trkpt>
      <trkpt lat="42.36455" lon="2.58411">
        <ele>1016.8</ele>
        <time>2018-11-26T01:48:28Z</time>
      </trkpt>
      <trkpt lat="42.36455" lon="2.58412">
        <ele>1016.8</ele>
        <time>2018-11-26T01:48:28Z</time>
      </trkpt>
      <trkpt lat="42.36456" lon="2.58413">
        <ele>1016.8</ele>
        <time>2018-11-26T01:48:29Z</time>
      </trkpt>
      <trkpt lat="42.36458" lon="2.58419">
        <ele>1016.3</ele>
        <time>2018-11-26T01:48:30Z</time>
      </trkpt>
      <trkpt lat="42.36456" lon="2.58421">
        <ele>1016.3</ele>
        <time>2018-11-26T01:48:32Z</time>
      </trkpt>
      <trkpt lat="42.36457" lon="2.58425">
        <ele>1016.6</ele>
        <time>2018-11-26T01:48:33Z</time>
      </trkpt>
      <trkpt lat="42.36467" lon="2.58441">
        <ele>1018.7</ele>
        <time>2018-11-26T01:48:39Z</time>
      </trkpt>
      <trkpt lat="42.36467" lon="2.5845">
        <ele>1018.4</ele>
        <time>2018-11-26T01:48:42Z</time>
      </trkpt>
      <trkpt lat="42.3647" lon="2.58467">
        <ele>1020</ele>
        <time>2018-11-26T01:48:47Z</time>
      </trkpt>
      <trkpt lat="42.36466" lon="2.58473">
        <ele>1020.2</ele>
        <time>2018-11-26T01:48:49Z</time>
      </trkpt>
      <trkpt lat="42.36462" lon="2.58507">
        <ele>1021.8</ele>
        <time>2018-11-26T01:49:00Z</time>
      </trkpt>
      <trkpt lat="42.3646" lon="2.58538">
        <ele>1021.3</ele>
        <time>2018-11-26T01:49:09Z</time>
      </trkpt>
      <trkpt lat="42.36464" lon="2.58563">
        <ele>1022.2</ele>
        <time>2018-11-26T01:49:16Z</time>
      </trkpt>
      <trkpt lat="42.3647" lon="2.58583">
        <ele>1023</ele>
        <time>2018-11-26T01:49:23Z</time>
      </trkpt>
      <trkpt lat="42.36475" lon="2.58588">
        <ele>1023.3</ele>
        <time>2018-11-26T01:49:25Z</time>
      </trkpt>
      <trkpt lat="42.36477" lon="2.58594">
        <ele>1023.3</ele>
        <time>2018-11-26T01:49:27Z</time>
      </trkpt>
      <trkpt lat="42.36483" lon="2.58617">
        <ele>1024</ele>
        <time>2018-11-26T01:49:34Z</time>
      </trkpt>
      <trkpt lat="42.36483" lon="2.5862">
        <ele>1024.4</ele>
        <time>2018-11-26T01:49:35Z</time>
      </trkpt>
      <trkpt lat="42.36489" lon="2.58643">
        <ele>1025</ele>
        <time>2018-11-26T01:49:42Z</time>
      </trkpt>
      <trkpt lat="42.36489" lon="2.58645">
        <ele>1024.8</ele>
        <time>2018-11-26T01:49:43Z</time>
      </trkpt>
      <trkpt lat="42.36493" lon="2.58663">
        <ele>1024.6</ele>
        <time>2018-11-26T01:49:48Z</time>
      </trkpt>
      <trkpt lat="42.36495" lon="2.58669">
        <ele>1025.6</ele>
        <time>2018-11-26T01:49:50Z</time>
      </trkpt>
      <trkpt lat="42.365" lon="2.58681">
        <ele>1025.4</ele>
        <time>2018-11-26T01:49:54Z</time>
      </trkpt>
      <trkpt lat="42.36505" lon="2.58687">
        <ele>1024.8</ele>
        <time>2018-11-26T01:49:57Z</time>
      </trkpt>
      <trkpt lat="42.36511" lon="2.58702">
        <ele>1025</ele>
        <time>2018-11-26T01:50:02Z</time>
      </trkpt>
      <trkpt lat="42.36514" lon="2.58706">
        <ele>1025.6</ele>
        <time>2018-11-26T01:50:04Z</time>
      </trkpt>
      <trkpt lat="42.36525" lon="2.58729">
        <ele>1026.2</ele>
        <time>2018-11-26T01:50:12Z</time>
      </trkpt>
      <trkpt lat="42.36539" lon="2.58742">
        <ele>1025.4</ele>
        <time>2018-11-26T01:50:19Z</time>
      </trkpt>
      <trkpt lat="42.36542" lon="2.58743">
        <ele>1025.6</ele>
        <time>2018-11-26T01:50:20Z</time>
      </trkpt>
      <trkpt lat="42.36558" lon="2.58757">
        <ele>1024.9</ele>
        <time>2018-11-26T01:50:28Z</time>
      </trkpt>
      <trkpt lat="42.36566" lon="2.58775">
        <ele>1026.3</ele>
        <time>2018-11-26T01:50:34Z</time>
      </trkpt>
      <trkpt lat="42.36568" lon="2.58777">
        <ele>1026.5</ele>
        <time>2018-11-26T01:50:35Z</time>
      </trkpt>
      <trkpt lat="42.36575" lon="2.58789">
        <ele>1026.4</ele>
        <time>2018-11-26T01:50:39Z</time>
      </trkpt>
      <trkpt lat="42.3658" lon="2.58801">
        <ele>1027.4</ele>
        <time>2018-11-26T01:50:44Z</time>
      </trkpt>
      <trkpt lat="42.36581" lon="2.58848">
        <ele>1029</ele>
        <time>2018-11-26T01:50:57Z</time>
      </trkpt>
      <trkpt lat="42.36586" lon="2.58892">
        <ele>1031.5</ele>
        <time>2018-11-26T01:51:11Z</time>
      </trkpt>
      <trkpt lat="42.36605" lon="2.58964">
        <ele>1032.1</ele>
        <time>2018-11-26T01:51:33Z</time>
      </trkpt>
      <trkpt lat="42.36604" lon="2.59022">
        <ele>1029.9</ele>
        <time>2018-11-26T01:51:50Z</time>
      </trkpt>
      <trkpt lat="42.36597" lon="2.59086">
        <ele>1035.6</ele>
        <time>2018-11-26T01:52:10Z</time>
      </trkpt>
      <trkpt lat="42.36609" lon="2.59168">
        <ele>1038.4</ele>
        <time>2018-11-26T01:52:34Z</time>
      </trkpt>
      <trkpt lat="42.3661" lon="2.59169">
        <ele>1038.4</ele>
        <time>2018-11-26T01:52:35Z</time>
      </trkpt>
      <trkpt lat="42.36619" lon="2.59185">
        <ele>1039</ele>
        <time>2018-11-26T01:52:41Z</time>
      </trkpt>
      <trkpt lat="42.36624" lon="2.59189">
        <ele>1039.3</ele>
        <time>2018-11-26T01:52:43Z</time>
      </trkpt>
      <trkpt lat="42.3663" lon="2.592">
        <ele>1039.4</ele>
        <time>2018-11-26T01:52:47Z</time>
      </trkpt>
      <trkpt lat="42.36651" lon="2.59223">
        <ele>1041.7</ele>
        <time>2018-11-26T01:52:58Z</time>
      </trkpt>
      <trkpt lat="42.36658" lon="2.59224">
        <ele>1042.6</ele>
        <time>2018-11-26T01:53:01Z</time>
      </trkpt>
      <trkpt lat="42.36665" lon="2.59217">
        <ele>1042.1</ele>
        <time>2018-11-26T01:53:04Z</time>
      </trkpt>
      <trkpt lat="42.36677" lon="2.59193">
        <ele>1042.1</ele>
        <time>2018-11-26T01:53:13Z</time>
      </trkpt>
      <trkpt lat="42.36698" lon="2.5915">
        <ele>1043.7</ele>
        <time>2018-11-26T01:53:28Z</time>
      </trkpt>
      <trkpt lat="42.36702" lon="2.59143">
        <ele>1044.2</ele>
        <time>2018-11-26T01:53:31Z</time>
      </trkpt>
      <trkpt lat="42.36702" lon="2.59138">
        <ele>1043.8</ele>
        <time>2018-11-26T01:53:32Z</time>
      </trkpt>
      <trkpt lat="42.36711" lon="2.59123">
        <ele>1043.6</ele>
        <time>2018-11-26T01:53:38Z</time>
      </trkpt>
      <trkpt lat="42.36722" lon="2.59107">
        <ele>1044.6</ele>
        <time>2018-11-26T01:53:44Z</time>
      </trkpt>
      <trkpt lat="42.36741" lon="2.59086">
        <ele>1044.6</ele>
        <time>2018-11-26T01:53:54Z</time>
      </trkpt>
      <trkpt lat="42.36742" lon="2.59083">
        <ele>1044.5</ele>
        <time>2018-11-26T01:53:55Z</time>
      </trkpt>
      <trkpt lat="42.36755" lon="2.59068">
        <ele>1044.4</ele>
        <time>2018-11-26T01:54:02Z</time>
      </trkpt>
      <trkpt lat="42.36762" lon="2.59054">
        <ele>1045.8</ele>
        <time>2018-11-26T01:54:07Z</time>
      </trkpt>
      <trkpt lat="42.36779" lon="2.59035">
        <ele>1046.9</ele>
        <time>2018-11-26T01:54:16Z</time>
      </trkpt>
      <trkpt lat="42.36789" lon="2.59014">
        <ele>1048.4</ele>
        <time>2018-11-26T01:54:23Z</time>
      </trkpt>
      <trkpt lat="42.36794" lon="2.59012">
        <ele>1048.3</ele>
        <time>2018-11-26T01:54:25Z</time>
      </trkpt>
      <trkpt lat="42.36798" lon="2.59014">
        <ele>1049.1</ele>
        <time>2018-11-26T01:54:27Z</time>
      </trkpt>
      <trkpt lat="42.36804" lon="2.5901">
        <ele>1049.2</ele>
        <time>2018-11-26T01:54:30Z</time>
      </trkpt>
      <trkpt lat="42.36831" lon="2.5899">
        <ele>1050.3</ele>
        <time>2018-11-26T01:54:42Z</time>
      </trkpt>
      <trkpt lat="42.36837" lon="2.58985">
        <ele>1050.6</ele>
        <time>2018-11-26T01:54:45Z</time>
      </trkpt>
      <trkpt lat="42.3684" lon="2.5898">
        <ele>1052.3</ele>
        <time>2018-11-26T01:54:46Z</time>
      </trkpt>
      <trkpt lat="42.3684" lon="2.58971">
        <ele>1053.8</ele>
        <time>2018-11-26T01:54:49Z</time>
      </trkpt>
      <trkpt lat="42.36842" lon="2.58967">
        <ele>1053.2</ele>
        <time>2018-11-26T01:54:50Z</time>
      </trkpt>
      <trkpt lat="42.36844" lon="2.58959">
        <ele>1053.2</ele>
        <time>2018-11-26T01:54:53Z</time>
      </trkpt>
      <trkpt lat="42.36859" lon="2.5894">
        <ele>1054.2</ele>
        <time>2018-11-26T01:55:01Z</time>
      </trkpt>
      <trkpt lat="42.36867" lon="2.58938">
        <ele>1053.5</ele>
        <time>2018-11-26T01:55:04Z</time>
      </trkpt>
      <trkpt lat="42.36871" lon="2.58938">
        <ele>1053.1</ele>
        <time>2018-11-26T01:55:06Z</time>
      </trkpt>
      <trkpt lat="42.36875" lon="2.5894">
        <ele>1052.5</ele>
        <time>2018-11-26T01:55:08Z</time>
      </trkpt>
      <trkpt lat="42.3688" lon="2.58945">
        <ele>1052.6</ele>
        <time>2018-11-26T01:55:10Z</time>
      </trkpt>
      <trkpt lat="42.36889" lon="2.58981">
        <ele>1053.6</ele>
        <time>2018-11-26T01:55:21Z</time>
      </trkpt>
      <trkpt lat="42.36891" lon="2.58983">
        <ele>1052.5</ele>
        <time>2018-11-26T01:55:22Z</time>
      </trkpt>
      <trkpt lat="42.36895" lon="2.58992">
        <ele>1052.8</ele>
        <time>2018-11-26T01:55:25Z</time>
      </trkpt>
      <trkpt lat="42.36889" lon="2.59002">
        <ele>1052.3</ele>
        <time>2018-11-26T01:55:29Z</time>
      </trkpt>
      <trkpt lat="42.36888" lon="2.59009">
        <ele>1052.8</ele>
        <time>2018-11-26T01:55:31Z</time>
      </trkpt>
      <trkpt lat="42.36899" lon="2.59041">
        <ele>1053.5</ele>
        <time>2018-11-26T01:55:42Z</time>
      </trkpt>
      <trkpt lat="42.369" lon="2.59049">
        <ele>1054.4</ele>
        <time>2018-11-26T01:55:44Z</time>
      </trkpt>
      <trkpt lat="42.36908" lon="2.59072">
        <ele>1053.3</ele>
        <time>2018-11-26T01:55:52Z</time>
      </trkpt>
      <trkpt lat="42.3691" lon="2.59078">
        <ele>1053.5</ele>
        <time>2018-11-26T01:55:53Z</time>
      </trkpt>
      <trkpt lat="42.36911" lon="2.59095">
        <ele>1055.2</ele>
        <time>2018-11-26T01:55:59Z</time>
      </trkpt>
      <trkpt lat="42.36923" lon="2.59138">
        <ele>1053.8</ele>
        <time>2018-11-26T01:56:12Z</time>
      </trkpt>
      <trkpt lat="42.36929" lon="2.59146">
        <ele>1054.2</ele>
        <time>2018-11-26T01:56:15Z</time>
      </trkpt>
      <trkpt lat="42.36932" lon="2.59154">
        <ele>1054.1</ele>
        <time>2018-11-26T01:56:18Z</time>
      </trkpt>
      <trkpt lat="42.36937" lon="2.59186">
        <ele>1054.4</ele>
        <time>2018-11-26T01:56:28Z</time>
      </trkpt>
      <trkpt lat="42.3694" lon="2.59194">
        <ele>1054.9</ele>
        <time>2018-11-26T01:56:30Z</time>
      </trkpt>
      <trkpt lat="42.3695" lon="2.59234">
        <ele>1053.9</ele>
        <time>2018-11-26T01:56:43Z</time>
      </trkpt>
      <trkpt lat="42.36952" lon="2.59237">
        <ele>1053.3</ele>
        <time>2018-11-26T01:56:44Z</time>
      </trkpt>
      <trkpt lat="42.36954" lon="2.59244">
        <ele>1053.6</ele>
        <time>2018-11-26T01:56:47Z</time>
      </trkpt>
      <trkpt lat="42.3696" lon="2.59252">
        <ele>1053.3</ele>
        <time>2018-11-26T01:56:50Z</time>
      </trkpt>
      <trkpt lat="42.36966" lon="2.59257">
        <ele>1052.9</ele>
        <time>2018-11-26T01:56:53Z</time>
      </trkpt>
      <trkpt lat="42.36993" lon="2.59255">
        <ele>1051.4</ele>
        <time>2018-11-26T01:57:04Z</time>
      </trkpt>
      <trkpt lat="42.36999" lon="2.59256">
        <ele>1051.5</ele>
        <time>2018-11-26T01:57:06Z</time>
      </trkpt>
      <trkpt lat="42.37004" lon="2.59254">
        <ele>1051</ele>
        <time>2018-11-26T01:57:08Z</time>
      </trkpt>
      <trkpt lat="42.37007" lon="2.59255">
        <ele>1050.9</ele>
        <time>2018-11-26T01:57:09Z</time>
      </trkpt>
      <trkpt lat="42.37025" lon="2.59251">
        <ele>1050.3</ele>
        <time>2018-11-26T01:57:16Z</time>
      </trkpt>
      <trkpt lat="42.3703" lon="2.5925">
        <ele>1049.7</ele>
        <time>2018-11-26T01:57:19Z</time>
      </trkpt>
      <trkpt lat="42.37056" lon="2.59232">
        <ele>1048.2</ele>
        <time>2018-11-26T01:57:30Z</time>
      </trkpt>
      <trkpt lat="42.37061" lon="2.5923">
        <ele>1047.9</ele>
        <time>2018-11-26T01:57:32Z</time>
      </trkpt>
      <trkpt lat="42.37064" lon="2.59227">
        <ele>1046.7</ele>
        <time>2018-11-26T01:57:34Z</time>
      </trkpt>
      <trkpt lat="42.37092" lon="2.59217">
        <ele>1045.7</ele>
        <time>2018-11-26T01:57:46Z</time>
      </trkpt>
      <trkpt lat="42.37127" lon="2.59189">
        <ele>1045.5</ele>
        <time>2018-11-26T01:58:02Z</time>
      </trkpt>
      <trkpt lat="42.37131" lon="2.59184">
        <ele>1045.5</ele>
        <time>2018-11-26T01:58:04Z</time>
      </trkpt>
      <trkpt lat="42.3713" lon="2.5918">
        <ele>1045.4</ele>
        <time>2018-11-26T01:58:05Z</time>
      </trkpt>
      <trkpt lat="42.37137" lon="2.59181">
        <ele>1045.4</ele>
        <time>2018-11-26T01:58:08Z</time>
      </trkpt>
      <trkpt lat="42.3714" lon="2.59183">
        <ele>1045.1</ele>
        <time>2018-11-26T01:58:09Z</time>
      </trkpt>
      <trkpt lat="42.37145" lon="2.59191">
        <ele>1044.1</ele>
        <time>2018-11-26T01:58:13Z</time>
      </trkpt>
      <trkpt lat="42.37147" lon="2.592">
        <ele>1043.9</ele>
        <time>2018-11-26T01:58:15Z</time>
      </trkpt>
      <trkpt lat="42.37147" lon="2.59206">
        <ele>1043.5</ele>
        <time>2018-11-26T01:58:17Z</time>
      </trkpt>
      <trkpt lat="42.37149" lon="2.59211">
        <ele>1043.5</ele>
        <time>2018-11-26T01:58:19Z</time>
      </trkpt>
      <trkpt lat="42.3715" lon="2.59218">
        <ele>1042.9</ele>
        <time>2018-11-26T01:58:21Z</time>
      </trkpt>
      <trkpt lat="42.37144" lon="2.59237">
        <ele>1041.2</ele>
        <time>2018-11-26T01:58:27Z</time>
      </trkpt>
      <trkpt lat="42.3714" lon="2.59247">
        <ele>1040.4</ele>
        <time>2018-11-26T01:58:30Z</time>
      </trkpt>
      <trkpt lat="42.3714" lon="2.59252">
        <ele>1040.5</ele>
        <time>2018-11-26T01:58:32Z</time>
      </trkpt>
      <trkpt lat="42.37138" lon="2.59269">
        <ele>1038.8</ele>
        <time>2018-11-26T01:58:37Z</time>
      </trkpt>
      <trkpt lat="42.37138" lon="2.59273">
        <ele>1038.9</ele>
        <time>2018-11-26T01:58:38Z</time>
      </trkpt>
      <trkpt lat="42.37132" lon="2.59295">
        <ele>1037</ele>
        <time>2018-11-26T01:58:45Z</time>
      </trkpt>
      <trkpt lat="42.37128" lon="2.59308">
        <ele>1037</ele>
        <time>2018-11-26T01:58:49Z</time>
      </trkpt>
      <trkpt lat="42.37128" lon="2.59316">
        <ele>1035.5</ele>
        <time>2018-11-26T01:58:52Z</time>
      </trkpt>
      <trkpt lat="42.3713" lon="2.59339">
        <ele>1032.9</ele>
        <time>2018-11-26T01:58:58Z</time>
      </trkpt>
      <trkpt lat="42.37135" lon="2.59353">
        <ele>1032.4</ele>
        <time>2018-11-26T01:59:03Z</time>
      </trkpt>
      <trkpt lat="42.37148" lon="2.59372">
        <ele>1031.4</ele>
        <time>2018-11-26T01:59:11Z</time>
      </trkpt>
      <trkpt lat="42.37152" lon="2.59374">
        <ele>1030.9</ele>
        <time>2018-11-26T01:59:12Z</time>
      </trkpt>
      <trkpt lat="42.37155" lon="2.5938">
        <ele>1030.9</ele>
        <time>2018-11-26T01:59:14Z</time>
      </trkpt>
      <trkpt lat="42.37156" lon="2.59389">
        <ele>1030.1</ele>
        <time>2018-11-26T01:59:17Z</time>
      </trkpt>
      <trkpt lat="42.37156" lon="2.59399">
        <ele>1029.6</ele>
        <time>2018-11-26T01:59:20Z</time>
      </trkpt>
      <trkpt lat="42.37157" lon="2.59401">
        <ele>1029.7</ele>
        <time>2018-11-26T01:59:21Z</time>
      </trkpt>
      <trkpt lat="42.37155" lon="2.59414">
        <ele>1028.4</ele>
        <time>2018-11-26T01:59:25Z</time>
      </trkpt>
      <trkpt lat="42.37157" lon="2.59437">
        <ele>1027.7</ele>
        <time>2018-11-26T01:59:31Z</time>
      </trkpt>
      <trkpt lat="42.37153" lon="2.59459">
        <ele>1026.8</ele>
        <time>2018-11-26T01:59:38Z</time>
      </trkpt>
      <trkpt lat="42.3715" lon="2.59484">
        <ele>1025.3</ele>
        <time>2018-11-26T01:59:46Z</time>
      </trkpt>
      <trkpt lat="42.37152" lon="2.59486">
        <ele>1024.5</ele>
        <time>2018-11-26T01:59:47Z</time>
      </trkpt>
      <trkpt lat="42.37154" lon="2.59495">
        <ele>1025.3</ele>
        <time>2018-11-26T01:59:49Z</time>
      </trkpt>
      <trkpt lat="42.37151" lon="2.59503">
        <ele>1024.7</ele>
        <time>2018-11-26T01:59:52Z</time>
      </trkpt>
      <trkpt lat="42.3714" lon="2.5952">
        <ele>1021.7</ele>
        <time>2018-11-26T01:59:59Z</time>
      </trkpt>
      <trkpt lat="42.3714" lon="2.59526">
        <ele>1021.8</ele>
        <time>2018-11-26T02:00:01Z</time>
      </trkpt>
      <trkpt lat="42.37129" lon="2.59537">
        <ele>1022.1</ele>
        <time>2018-11-26T02:00:06Z</time>
      </trkpt>
      <trkpt lat="42.37125" lon="2.59544">
        <ele>1022.3</ele>
        <time>2018-11-26T02:00:09Z</time>
      </trkpt>
      <trkpt lat="42.37116" lon="2.59552">
        <ele>1021</ele>
        <time>2018-11-26T02:00:13Z</time>
      </trkpt>
      <trkpt lat="42.37115" lon="2.59555">
        <ele>1021.2</ele>
        <time>2018-11-26T02:00:14Z</time>
      </trkpt>
      <trkpt lat="42.37103" lon="2.59563">
        <ele>1021.4</ele>
        <time>2018-11-26T02:00:19Z</time>
      </trkpt>
      <trkpt lat="42.37084" lon="2.5957">
        <ele>1020.8</ele>
        <time>2018-11-26T02:00:27Z</time>
      </trkpt>
      <trkpt lat="42.37069" lon="2.59587">
        <ele>1019.2</ele>
        <time>2018-11-26T02:00:35Z</time>
      </trkpt>
      <trkpt lat="42.37064" lon="2.59597">
        <ele>1019</ele>
        <time>2018-11-26T02:00:39Z</time>
      </trkpt>
      <trkpt lat="42.37057" lon="2.59608">
        <ele>1017.8</ele>
        <time>2018-11-26T02:00:43Z</time>
      </trkpt>
      <trkpt lat="42.37056" lon="2.59614">
        <ele>1017.2</ele>
        <time>2018-11-26T02:00:45Z</time>
      </trkpt>
      <trkpt lat="42.37054" lon="2.59618">
        <ele>1017.3</ele>
        <time>2018-11-26T02:00:46Z</time>
      </trkpt>
      <trkpt lat="42.37055" lon="2.59629">
        <ele>1016.6</ele>
        <time>2018-11-26T02:00:50Z</time>
      </trkpt>
      <trkpt lat="42.37064" lon="2.59644">
        <ele>1015.2</ele>
        <time>2018-11-26T02:00:55Z</time>
      </trkpt>
      <trkpt lat="42.37064" lon="2.59649">
        <ele>1015.1</ele>
        <time>2018-11-26T02:00:57Z</time>
      </trkpt>
      <trkpt lat="42.37083" lon="2.59662">
        <ele>1011.4</ele>
        <time>2018-11-26T02:01:05Z</time>
      </trkpt>
      <trkpt lat="42.37085" lon="2.59662">
        <ele>1011.7</ele>
        <time>2018-11-26T02:01:06Z</time>
      </trkpt>
      <trkpt lat="42.37089" lon="2.59664">
        <ele>1011.6</ele>
        <time>2018-11-26T02:01:07Z</time>
      </trkpt>
      <trkpt lat="42.37096" lon="2.59671">
        <ele>1011</ele>
        <time>2018-11-26T02:01:11Z</time>
      </trkpt>
      <trkpt lat="42.37106" lon="2.59694">
        <ele>1010.7</ele>
        <time>2018-11-26T02:01:19Z</time>
      </trkpt>
      <trkpt lat="42.37107" lon="2.59707">
        <ele>1010.6</ele>
        <time>2018-11-26T02:01:23Z</time>
      </trkpt>
      <trkpt lat="42.3711" lon="2.59714">
        <ele>1010.7</ele>
        <time>2018-11-26T02:01:25Z</time>
      </trkpt>
      <trkpt lat="42.3711" lon="2.59728">
        <ele>1008.3</ele>
        <time>2018-11-26T02:01:29Z</time>
      </trkpt>
      <trkpt lat="42.37112" lon="2.59741">
        <ele>1007.2</ele>
        <time>2018-11-26T02:01:33Z</time>
      </trkpt>
      <trkpt lat="42.37107" lon="2.59761">
        <ele>1005.4</ele>
        <time>2018-11-26T02:01:39Z</time>
      </trkpt>
      <trkpt lat="42.37103" lon="2.59772">
        <ele>1005.6</ele>
        <time>2018-11-26T02:01:43Z</time>
      </trkpt>
      <trkpt lat="42.37093" lon="2.59783">
        <ele>1005</ele>
        <time>2018-11-26T02:01:48Z</time>
      </trkpt>
      <trkpt lat="42.37092" lon="2.59788">
        <ele>1004.8</ele>
        <time>2018-11-26T02:01:50Z</time>
      </trkpt>
      <trkpt lat="42.3709" lon="2.59792">
        <ele>1004.2</ele>
        <time>2018-11-26T02:01:51Z</time>
      </trkpt>
      <trkpt lat="42.37086" lon="2.59794">
        <ele>1003.1</ele>
        <time>2018-11-26T02:01:53Z</time>
      </trkpt>
      <trkpt lat="42.37084" lon="2.59798">
        <ele>1003</ele>
        <time>2018-11-26T02:01:54Z</time>
      </trkpt>
      <trkpt lat="42.37076" lon="2.59807">
        <ele>1002.6</ele>
        <time>2018-11-26T02:01:58Z</time>
      </trkpt>
      <trkpt lat="42.37067" lon="2.59826">
        <ele>1001.6</ele>
        <time>2018-11-26T02:02:05Z</time>
      </trkpt>
      <trkpt lat="42.37066" lon="2.59828">
        <ele>1001.6</ele>
        <time>2018-11-26T02:02:06Z</time>
      </trkpt>
      <trkpt lat="42.37063" lon="2.59838">
        <ele>1001.9</ele>
        <time>2018-11-26T02:02:09Z</time>
      </trkpt>
      <trkpt lat="42.37054" lon="2.59852">
        <ele>1001.4</ele>
        <time>2018-11-26T02:02:14Z</time>
      </trkpt>
      <trkpt lat="42.37049" lon="2.59867">
        <ele>999.9</ele>
        <time>2018-11-26T02:02:19Z</time>
      </trkpt>
      <trkpt lat="42.37041" lon="2.59878">
        <ele>999</ele>
        <time>2018-11-26T02:02:24Z</time>
      </trkpt>
      <trkpt lat="42.3704" lon="2.59887">
        <ele>998.3</ele>
        <time>2018-11-26T02:02:27Z</time>
      </trkpt>
      <trkpt lat="42.37037" lon="2.59893">
        <ele>997.9</ele>
        <time>2018-11-26T02:02:29Z</time>
      </trkpt>
      <trkpt lat="42.37034" lon="2.599">
        <ele>997.9</ele>
        <time>2018-11-26T02:02:31Z</time>
      </trkpt>
      <trkpt lat="42.37036" lon="2.59899">
        <ele>997.2</ele>
        <time>2018-11-26T02:02:32Z</time>
      </trkpt>
      <trkpt lat="42.37034" lon="2.59901">
        <ele>997.3</ele>
        <time>2018-11-26T02:02:33Z</time>
      </trkpt>
      <trkpt lat="42.37029" lon="2.59918">
        <ele>995.8</ele>
        <time>2018-11-26T02:02:38Z</time>
      </trkpt>
      <trkpt lat="42.37023" lon="2.59929">
        <ele>995.1</ele>
        <time>2018-11-26T02:02:42Z</time>
      </trkpt>
      <trkpt lat="42.37021" lon="2.59939">
        <ele>994.7</ele>
        <time>2018-11-26T02:02:45Z</time>
      </trkpt>
      <trkpt lat="42.37022" lon="2.59948">
        <ele>994.3</ele>
        <time>2018-11-26T02:02:48Z</time>
      </trkpt>
      <trkpt lat="42.37025" lon="2.59958">
        <ele>993.9</ele>
        <time>2018-11-26T02:02:51Z</time>
      </trkpt>
      <trkpt lat="42.37028" lon="2.59961">
        <ele>994</ele>
        <time>2018-11-26T02:02:53Z</time>
      </trkpt>
      <trkpt lat="42.37048" lon="2.59962">
        <ele>992.3</ele>
        <time>2018-11-26T02:03:01Z</time>
      </trkpt>
      <trkpt lat="42.37051" lon="2.59965">
        <ele>992.2</ele>
        <time>2018-11-26T02:03:02Z</time>
      </trkpt>
      <trkpt lat="42.37055" lon="2.59964">
        <ele>991.8</ele>
        <time>2018-11-26T02:03:04Z</time>
      </trkpt>
      <trkpt lat="42.37058" lon="2.59967">
        <ele>991.2</ele>
        <time>2018-11-26T02:03:05Z</time>
      </trkpt>
      <trkpt lat="42.37066" lon="2.59981">
        <ele>989.4</ele>
        <time>2018-11-26T02:03:11Z</time>
      </trkpt>
      <trkpt lat="42.37069" lon="2.59984">
        <ele>990</ele>
        <time>2018-11-26T02:03:12Z</time>
      </trkpt>
      <trkpt lat="42.37072" lon="2.59994">
        <ele>989</ele>
        <time>2018-11-26T02:03:15Z</time>
      </trkpt>
      <trkpt lat="42.37073" lon="2.60003">
        <ele>988.6</ele>
        <time>2018-11-26T02:03:18Z</time>
      </trkpt>
      <trkpt lat="42.37072" lon="2.60012">
        <ele>987.3</ele>
        <time>2018-11-26T02:03:21Z</time>
      </trkpt>
      <trkpt lat="42.37073" lon="2.60021">
        <ele>987</ele>
        <time>2018-11-26T02:03:23Z</time>
      </trkpt>
      <trkpt lat="42.37076" lon="2.60026">
        <ele>986.9</ele>
        <time>2018-11-26T02:03:25Z</time>
      </trkpt>
      <trkpt lat="42.37088" lon="2.6005">
        <ele>986.2</ele>
        <time>2018-11-26T02:03:34Z</time>
      </trkpt>
      <trkpt lat="42.37088" lon="2.60054">
        <ele>985</ele>
        <time>2018-11-26T02:03:35Z</time>
      </trkpt>
      <trkpt lat="42.37091" lon="2.60061">
        <ele>985.3</ele>
        <time>2018-11-26T02:03:37Z</time>
      </trkpt>
      <trkpt lat="42.37089" lon="2.60064">
        <ele>984.5</ele>
        <time>2018-11-26T02:03:38Z</time>
      </trkpt>
      <trkpt lat="42.37089" lon="2.60069">
        <ele>985</ele>
        <time>2018-11-26T02:03:40Z</time>
      </trkpt>
      <trkpt lat="42.37089" lon="2.60074">
        <ele>985.1</ele>
        <time>2018-11-26T02:03:41Z</time>
      </trkpt>
      <trkpt lat="42.37089" lon="2.60085">
        <ele>984.6</ele>
        <time>2018-11-26T02:03:45Z</time>
      </trkpt>
      <trkpt lat="42.37087" lon="2.60089">
        <ele>985.1</ele>
        <time>2018-11-26T02:03:46Z</time>
      </trkpt>
      <trkpt lat="42.37088" lon="2.60096">
        <ele>985.7</ele>
        <time>2018-11-26T02:03:48Z</time>
      </trkpt>
      <trkpt lat="42.37088" lon="2.60102">
        <ele>985.4</ele>
        <time>2018-11-26T02:03:50Z</time>
      </trkpt>
      <trkpt lat="42.37062" lon="2.60163">
        <ele>981.9</ele>
        <time>2018-11-26T02:04:11Z</time>
      </trkpt>
      <trkpt lat="42.37056" lon="2.60185">
        <ele>980.7</ele>
        <time>2018-11-26T02:04:18Z</time>
      </trkpt>
      <trkpt lat="42.37055" lon="2.60214">
        <ele>979.5</ele>
        <time>2018-11-26T02:04:26Z</time>
      </trkpt>
      <trkpt lat="42.37053" lon="2.60221">
        <ele>979.6</ele>
        <time>2018-11-26T02:04:28Z</time>
      </trkpt>
      <trkpt lat="42.37053" lon="2.6023">
        <ele>979.1</ele>
        <time>2018-11-26T02:04:31Z</time>
      </trkpt>
      <trkpt lat="42.37049" lon="2.60236">
        <ele>979.1</ele>
        <time>2018-11-26T02:04:34Z</time>
      </trkpt>
      <trkpt lat="42.37048" lon="2.60241">
        <ele>979.4</ele>
        <time>2018-11-26T02:04:35Z</time>
      </trkpt>
      <trkpt lat="42.37039" lon="2.60261">
        <ele>978.1</ele>
        <time>2018-11-26T02:04:42Z</time>
      </trkpt>
      <trkpt lat="42.3704" lon="2.60266">
        <ele>977.7</ele>
        <time>2018-11-26T02:04:44Z</time>
      </trkpt>
      <trkpt lat="42.37038" lon="2.60272">
        <ele>977.1</ele>
        <time>2018-11-26T02:04:46Z</time>
      </trkpt>
      <trkpt lat="42.37039" lon="2.60277">
        <ele>977.9</ele>
        <time>2018-11-26T02:04:47Z</time>
      </trkpt>
      <trkpt lat="42.37034" lon="2.6029">
        <ele>976.9</ele>
        <time>2018-11-26T02:04:51Z</time>
      </trkpt>
      <trkpt lat="42.37037" lon="2.60309">
        <ele>976.5</ele>
        <time>2018-11-26T02:04:57Z</time>
      </trkpt>
      <trkpt lat="42.37032" lon="2.60326">
        <ele>976.2</ele>
        <time>2018-11-26T02:05:02Z</time>
      </trkpt>
      <trkpt lat="42.37032" lon="2.60339">
        <ele>976.2</ele>
        <time>2018-11-26T02:05:06Z</time>
      </trkpt>
      <trkpt lat="42.3703" lon="2.60357">
        <ele>975.2</ele>
        <time>2018-11-26T02:05:12Z</time>
      </trkpt>
      <trkpt lat="42.37033" lon="2.60368">
        <ele>974.9</ele>
        <time>2018-11-26T02:05:15Z</time>
      </trkpt>
      <trkpt lat="42.37036" lon="2.6038">
        <ele>975.3</ele>
        <time>2018-11-26T02:05:19Z</time>
      </trkpt>
      <trkpt lat="42.37034" lon="2.60384">
        <ele>975.1</ele>
        <time>2018-11-26T02:05:20Z</time>
      </trkpt>
      <trkpt lat="42.37039" lon="2.60381">
        <ele>974.9</ele>
        <time>2018-11-26T02:05:23Z</time>
      </trkpt>
      <trkpt lat="42.37042" lon="2.60382">
        <ele>975.2</ele>
        <time>2018-11-26T02:05:24Z</time>
      </trkpt>
      <trkpt lat="42.37046" lon="2.60379">
        <ele>975.2</ele>
        <time>2018-11-26T02:05:26Z</time>
      </trkpt>
      <trkpt lat="42.37041" lon="2.60385">
        <ele>974.5</ele>
        <time>2018-11-26T02:05:28Z</time>
      </trkpt>
      <trkpt lat="42.37041" lon="2.60388">
        <ele>975.4</ele>
        <time>2018-11-26T02:05:29Z</time>
      </trkpt>
      <trkpt lat="42.37041" lon="2.60387">
        <ele>975.6</ele>
        <time>2018-11-26T02:05:30Z</time>
      </trkpt>
      <trkpt lat="42.37041" lon="2.60384">
        <ele>975.6</ele>
        <time>2018-11-26T02:05:30Z</time>
      </trkpt>
      <trkpt lat="42.37041" lon="2.60381">
        <ele>975.7</ele>
        <time>2018-11-26T02:05:31Z</time>
      </trkpt>
      <trkpt lat="42.37047" lon="2.60384">
        <ele>975.7</ele>
        <time>2018-11-26T02:05:33Z</time>
      </trkpt>
      <trkpt lat="42.37045" lon="2.60386">
        <ele>974.7</ele>
        <time>2018-11-26T02:05:34Z</time>
      </trkpt>
      <trkpt lat="42.37046" lon="2.60385">
        <ele>975.2</ele>
        <time>2018-11-26T02:05:35Z</time>
      </trkpt>
      <trkpt lat="42.37047" lon="2.60383">
        <ele>975.3</ele>
        <time>2018-11-26T02:05:36Z</time>
      </trkpt>
      <trkpt lat="42.37044" lon="2.60387">
        <ele>974.9</ele>
        <time>2018-11-26T02:05:37Z</time>
      </trkpt>
      <trkpt lat="42.37049" lon="2.60376">
        <ele>974.6</ele>
        <time>2018-11-26T02:05:41Z</time>
      </trkpt>
      <trkpt lat="42.37046" lon="2.6038">
        <ele>974.7</ele>
        <time>2018-11-26T02:05:42Z</time>
      </trkpt>
      <trkpt lat="42.37046" lon="2.6038">
        <ele>975.7</ele>
        <time>2018-11-26T02:05:43Z</time>
      </trkpt>
      <trkpt lat="42.37047" lon="2.60379">
        <ele>975</ele>
        <time>2018-11-26T02:05:43Z</time>
      </trkpt>
      <trkpt lat="42.37045" lon="2.6039">
        <ele>975.3</ele>
        <time>2018-11-26T02:05:47Z</time>
      </trkpt>
      <trkpt lat="42.37047" lon="2.60386">
        <ele>975.1</ele>
        <time>2018-11-26T02:05:49Z</time>
      </trkpt>
      <trkpt lat="42.37047" lon="2.60383">
        <ele>975.7</ele>
        <time>2018-11-26T02:05:50Z</time>
      </trkpt>
      <trkpt lat="42.37047" lon="2.60382">
        <ele>975.8</ele>
        <time>2018-11-26T02:05:50Z</time>
      </trkpt>
      <trkpt lat="42.37047" lon="2.60382">
        <ele>975.5</ele>
        <time>2018-11-26T02:05:50Z</time>
      </trkpt>
      <trkpt lat="42.37049" lon="2.60367">
        <ele>975.2</ele>
        <time>2018-11-26T02:05:54Z</time>
      </trkpt>
      <trkpt lat="42.37047" lon="2.60382">
        <ele>975.4</ele>
        <time>2018-11-26T02:05:59Z</time>
      </trkpt>
      <trkpt lat="42.37047" lon="2.60381">
        <ele>975.6</ele>
        <time>2018-11-26T02:05:59Z</time>
      </trkpt>
      <trkpt lat="42.37047" lon="2.60382">
        <ele>974.7</ele>
        <time>2018-11-26T02:05:59Z</time>
      </trkpt>
      <trkpt lat="42.37048" lon="2.60377">
        <ele>974.6</ele>
        <time>2018-11-26T02:06:01Z</time>
      </trkpt>
      <trkpt lat="42.37046" lon="2.60388">
        <ele>973.1</ele>
        <time>2018-11-26T02:06:04Z</time>
      </trkpt>
      <trkpt lat="42.37048" lon="2.6038">
        <ele>975.5</ele>
        <time>2018-11-26T02:06:06Z</time>
      </trkpt>
      <trkpt lat="42.37047" lon="2.60379">
        <ele>974.9</ele>
        <time>2018-11-26T02:06:07Z</time>
      </trkpt>
      <trkpt lat="42.37044" lon="2.60394">
        <ele>975.3</ele>
        <time>2018-11-26T02:06:12Z</time>
      </trkpt>
      <trkpt lat="42.37046" lon="2.60387">
        <ele>974.1</ele>
        <time>2018-11-26T02:06:14Z</time>
      </trkpt>
      <trkpt lat="42.37045" lon="2.60396">
        <ele>974.1</ele>
        <time>2018-11-26T02:06:16Z</time>
      </trkpt>
      <trkpt lat="42.37047" lon="2.60381">
        <ele>972.7</ele>
        <time>2018-11-26T02:06:21Z</time>
      </trkpt>
      <trkpt lat="42.37049" lon="2.60375">
        <ele>972.4</ele>
        <time>2018-11-26T02:06:23Z</time>
      </trkpt>
      <trkpt lat="42.37048" lon="2.60375">
        <ele>973.7</ele>
        <time>2018-11-26T02:06:23Z</time>
      </trkpt>
      <trkpt lat="42.37045" lon="2.6038">
        <ele>972.4</ele>
        <time>2018-11-26T02:06:25Z</time>
      </trkpt>
      <trkpt lat="42.37042" lon="2.60383">
        <ele>973.1</ele>
        <time>2018-11-26T02:06:26Z</time>
      </trkpt>
      <trkpt lat="42.37045" lon="2.6038">
        <ele>972.9</ele>
        <time>2018-11-26T02:06:28Z</time>
      </trkpt>
      <trkpt lat="42.37049" lon="2.60382">
        <ele>972.2</ele>
        <time>2018-11-26T02:06:30Z</time>
      </trkpt>
      <trkpt lat="42.37044" lon="2.60378">
        <ele>972.5</ele>
        <time>2018-11-26T02:06:32Z</time>
      </trkpt>
      <trkpt lat="42.37046" lon="2.6038">
        <ele>972.2</ele>
        <time>2018-11-26T02:06:33Z</time>
      </trkpt>
      <trkpt lat="42.37044" lon="2.60376">
        <ele>972</ele>
        <time>2018-11-26T02:06:34Z</time>
      </trkpt>
      <trkpt lat="42.37042" lon="2.60376">
        <ele>971.3</ele>
        <time>2018-11-26T02:06:35Z</time>
      </trkpt>
      <trkpt lat="42.37041" lon="2.60374">
        <ele>972.3</ele>
        <time>2018-11-26T02:06:36Z</time>
      </trkpt>
      <trkpt lat="42.37046" lon="2.60374">
        <ele>971.5</ele>
        <time>2018-11-26T02:06:38Z</time>
      </trkpt>
      <trkpt lat="42.37047" lon="2.60375">
        <ele>973</ele>
        <time>2018-11-26T02:06:38Z</time>
      </trkpt>
      <trkpt lat="42.37047" lon="2.60378">
        <ele>973.7</ele>
        <time>2018-11-26T02:06:39Z</time>
      </trkpt>
      <trkpt lat="42.37041" lon="2.60373">
        <ele>973.3</ele>
        <time>2018-11-26T02:06:42Z</time>
      </trkpt>
      <trkpt lat="42.37042" lon="2.60371">
        <ele>973.2</ele>
        <time>2018-11-26T02:06:43Z</time>
      </trkpt>
      <trkpt lat="42.37047" lon="2.60375">
        <ele>973.5</ele>
        <time>2018-11-26T02:06:45Z</time>
      </trkpt>
      <trkpt lat="42.37047" lon="2.60376">
        <ele>972.7</ele>
        <time>2018-11-26T02:06:45Z</time>
      </trkpt>
      <trkpt lat="42.37045" lon="2.60379">
        <ele>973.3</ele>
        <time>2018-11-26T02:06:46Z</time>
      </trkpt>
      <trkpt lat="42.37046" lon="2.60379">
        <ele>972.4</ele>
        <time>2018-11-26T02:06:47Z</time>
      </trkpt>
      <trkpt lat="42.37045" lon="2.60382">
        <ele>973.1</ele>
        <time>2018-11-26T02:06:48Z</time>
      </trkpt>
      <trkpt lat="42.37046" lon="2.60384">
        <ele>972.4</ele>
        <time>2018-11-26T02:06:48Z</time>
      </trkpt>
      <trkpt lat="42.37043" lon="2.60391">
        <ele>972.7</ele>
        <time>2018-11-26T02:06:51Z</time>
      </trkpt>
      <trkpt lat="42.37045" lon="2.60378">
        <ele>973</ele>
        <time>2018-11-26T02:06:55Z</time>
      </trkpt>
      <trkpt lat="42.37048" lon="2.60379">
        <ele>974.1</ele>
        <time>2018-11-26T02:06:56Z</time>
      </trkpt>
      <trkpt lat="42.37049" lon="2.60378">
        <ele>974.1</ele>
        <time>2018-11-26T02:06:56Z</time>
      </trkpt>
      <trkpt lat="42.3704" lon="2.60381">
        <ele>973</ele>
        <time>2018-11-26T02:06:59Z</time>
      </trkpt>
      <trkpt lat="42.37033" lon="2.60377">
        <ele>973.5</ele>
        <time>2018-11-26T02:07:03Z</time>
      </trkpt>
      <trkpt lat="42.37032" lon="2.60378">
        <ele>974.2</ele>
        <time>2018-11-26T02:07:03Z</time>
      </trkpt>
      <trkpt lat="42.3704" lon="2.60384">
        <ele>973.6</ele>
        <time>2018-11-26T02:07:07Z</time>
      </trkpt>
      <trkpt lat="42.3704" lon="2.60388">
        <ele>973.6</ele>
        <time>2018-11-26T02:07:08Z</time>
      </trkpt>
      <trkpt lat="42.37042" lon="2.60392">
        <ele>973.7</ele>
        <time>2018-11-26T02:07:10Z</time>
      </trkpt>
      <trkpt lat="42.3705" lon="2.60396">
        <ele>974.3</ele>
        <time>2018-11-26T02:07:13Z</time>
      </trkpt>
      <trkpt lat="42.37067" lon="2.60396">
        <ele>975.1</ele>
        <time>2018-11-26T02:07:20Z</time>
      </trkpt>
      <trkpt lat="42.37089" lon="2.60391">
        <ele>974.4</ele>
        <time>2018-11-26T02:07:29Z</time>
      </trkpt>
      <trkpt lat="42.37099" lon="2.60396">
        <ele>973.2</ele>
        <time>2018-11-26T02:07:33Z</time>
      </trkpt>
      <trkpt lat="42.3713" lon="2.60432">
        <ele>970.5</ele>
        <time>2018-11-26T02:07:49Z</time>
      </trkpt>
      <trkpt lat="42.37138" lon="2.60436">
        <ele>969.5</ele>
        <time>2018-11-26T02:07:52Z</time>
      </trkpt>
      <trkpt lat="42.37138" lon="2.60438">
        <ele>970.9</ele>
        <time>2018-11-26T02:07:53Z</time>
      </trkpt>
      <trkpt lat="42.37138" lon="2.60441">
        <ele>969.2</ele>
        <time>2018-11-26T02:07:54Z</time>
      </trkpt>
      <trkpt lat="42.37141" lon="2.60441">
        <ele>969.3</ele>
        <time>2018-11-26T02:07:55Z</time>
      </trkpt>
      <trkpt lat="42.37147" lon="2.60443">
        <ele>968.8</ele>
        <time>2018-11-26T02:07:58Z</time>
      </trkpt>
      <trkpt lat="42.37167" lon="2.60445">
        <ele>966.9</ele>
        <time>2018-11-26T02:08:05Z</time>
      </trkpt>
      <trkpt lat="42.37176" lon="2.60443">
        <ele>967.3</ele>
        <time>2018-11-26T02:08:09Z</time>
      </trkpt>
      <trkpt lat="42.3718" lon="2.6044">
        <ele>966.4</ele>
        <time>2018-11-26T02:08:11Z</time>
      </trkpt>
      <trkpt lat="42.37195" lon="2.60436">
        <ele>965.9</ele>
        <time>2018-11-26T02:08:17Z</time>
      </trkpt>
      <trkpt lat="42.37202" lon="2.60433">
        <ele>966.5</ele>
        <time>2018-11-26T02:08:20Z</time>
      </trkpt>
      <trkpt lat="42.37267" lon="2.6039">
        <ele>964.4</ele>
        <time>2018-11-26T02:08:49Z</time>
      </trkpt>
      <trkpt lat="42.37272" lon="2.6039">
        <ele>963.9</ele>
        <time>2018-11-26T02:08:51Z</time>
      </trkpt>
      <trkpt lat="42.37302" lon="2.60368">
        <ele>964.1</ele>
        <time>2018-11-26T02:09:05Z</time>
      </trkpt>
      <trkpt lat="42.37309" lon="2.60355">
        <ele>963.8</ele>
        <time>2018-11-26T02:09:09Z</time>
      </trkpt>
      <trkpt lat="42.37315" lon="2.60352">
        <ele>963.3</ele>
        <time>2018-11-26T02:09:12Z</time>
      </trkpt>
      <trkpt lat="42.37319" lon="2.60354">
        <ele>962.5</ele>
        <time>2018-11-26T02:09:14Z</time>
      </trkpt>
      <trkpt lat="42.3732" lon="2.60358">
        <ele>961.5</ele>
        <time>2018-11-26T02:09:15Z</time>
      </trkpt>
      <trkpt lat="42.37324" lon="2.60368">
        <ele>958.1</ele>
        <time>2018-11-26T02:09:18Z</time>
      </trkpt>
      <trkpt lat="42.37325" lon="2.60375">
        <ele>956.7</ele>
        <time>2018-11-26T02:09:20Z</time>
      </trkpt>
      <trkpt lat="42.37327" lon="2.60378">
        <ele>955.8</ele>
        <time>2018-11-26T02:09:22Z</time>
      </trkpt>
      <trkpt lat="42.37333" lon="2.60382">
        <ele>954.2</ele>
        <time>2018-11-26T02:09:24Z</time>
      </trkpt>
      <trkpt lat="42.3734" lon="2.60382">
        <ele>954.2</ele>
        <time>2018-11-26T02:09:27Z</time>
      </trkpt>
      <trkpt lat="42.37344" lon="2.60388">
        <ele>953</ele>
        <time>2018-11-26T02:09:29Z</time>
      </trkpt>
      <trkpt lat="42.37353" lon="2.60391">
        <ele>951.7</ele>
        <time>2018-11-26T02:09:33Z</time>
      </trkpt>
      <trkpt lat="42.3736" lon="2.6039">
        <ele>953.3</ele>
        <time>2018-11-26T02:09:36Z</time>
      </trkpt>
      <trkpt lat="42.37359" lon="2.60397">
        <ele>954.3</ele>
        <time>2018-11-26T02:09:38Z</time>
      </trkpt>
      <trkpt lat="42.37361" lon="2.60398">
        <ele>955.2</ele>
        <time>2018-11-26T02:09:39Z</time>
      </trkpt>
      <trkpt lat="42.37361" lon="2.60396">
        <ele>955.8</ele>
        <time>2018-11-26T02:09:40Z</time>
      </trkpt>
      <trkpt lat="42.37359" lon="2.60395">
        <ele>955.3</ele>
        <time>2018-11-26T02:09:41Z</time>
      </trkpt>
      <trkpt lat="42.37354" lon="2.60388">
        <ele>955.7</ele>
        <time>2018-11-26T02:09:44Z</time>
      </trkpt>
      <trkpt lat="42.37357" lon="2.60391">
        <ele>954.9</ele>
        <time>2018-11-26T02:09:45Z</time>
      </trkpt>
      <trkpt lat="42.37357" lon="2.6039">
        <ele>955.1</ele>
        <time>2018-11-26T02:09:45Z</time>
      </trkpt>
      <trkpt lat="42.37357" lon="2.60392">
        <ele>954.7</ele>
        <time>2018-11-26T02:09:46Z</time>
      </trkpt>
      <trkpt lat="42.37354" lon="2.6039">
        <ele>955.6</ele>
        <time>2018-11-26T02:09:47Z</time>
      </trkpt>
      <trkpt lat="42.37357" lon="2.60397">
        <ele>955.4</ele>
        <time>2018-11-26T02:09:49Z</time>
      </trkpt>
      <trkpt lat="42.37361" lon="2.60403">
        <ele>956.2</ele>
        <time>2018-11-26T02:09:52Z</time>
      </trkpt>
      <trkpt lat="42.37362" lon="2.60402">
        <ele>957</ele>
        <time>2018-11-26T02:09:52Z</time>
      </trkpt>
      <trkpt lat="42.3737" lon="2.60405">
        <ele>956.8</ele>
        <time>2018-11-26T02:09:55Z</time>
      </trkpt>
      <trkpt lat="42.37376" lon="2.60403">
        <ele>955.2</ele>
        <time>2018-11-26T02:09:58Z</time>
      </trkpt>
      <trkpt lat="42.37379" lon="2.60404">
        <ele>953.6</ele>
        <time>2018-11-26T02:09:59Z</time>
      </trkpt>
      <trkpt lat="42.37385" lon="2.60408">
        <ele>950.7</ele>
        <time>2018-11-26T02:10:02Z</time>
      </trkpt>
      <trkpt lat="42.37384" lon="2.6041">
        <ele>950.6</ele>
        <time>2018-11-26T02:10:02Z</time>
      </trkpt>
      <trkpt lat="42.37387" lon="2.60417">
        <ele>950.4</ele>
        <time>2018-11-26T02:10:05Z</time>
      </trkpt>
      <trkpt lat="42.37388" lon="2.60423">
        <ele>948.9</ele>
        <time>2018-11-26T02:10:07Z</time>
      </trkpt>
      <trkpt lat="42.37393" lon="2.60439">
        <ele>948.2</ele>
        <time>2018-11-26T02:10:12Z</time>
      </trkpt>
      <trkpt lat="42.37398" lon="2.60445">
        <ele>946.6</ele>
        <time>2018-11-26T02:10:14Z</time>
      </trkpt>
      <trkpt lat="42.37401" lon="2.60449">
        <ele>946.5</ele>
        <time>2018-11-26T02:10:16Z</time>
      </trkpt>
      <trkpt lat="42.37405" lon="2.60462">
        <ele>947.2</ele>
        <time>2018-11-26T02:10:20Z</time>
      </trkpt>
      <trkpt lat="42.37407" lon="2.60468">
        <ele>946.8</ele>
        <time>2018-11-26T02:10:22Z</time>
      </trkpt>
      <trkpt lat="42.37412" lon="2.60471">
        <ele>945.4</ele>
        <time>2018-11-26T02:10:25Z</time>
      </trkpt>
      <trkpt lat="42.37421" lon="2.60486">
        <ele>940.2</ele>
        <time>2018-11-26T02:10:30Z</time>
      </trkpt>
      <trkpt lat="42.37423" lon="2.60487">
        <ele>939.7</ele>
        <time>2018-11-26T02:10:31Z</time>
      </trkpt>
      <trkpt lat="42.37422" lon="2.605">
        <ele>937.1</ele>
        <time>2018-11-26T02:10:35Z</time>
      </trkpt>
      <trkpt lat="42.37421" lon="2.60505">
        <ele>935.1</ele>
        <time>2018-11-26T02:10:36Z</time>
      </trkpt>
      <trkpt lat="42.37421" lon="2.60507">
        <ele>934</ele>
        <time>2018-11-26T02:10:37Z</time>
      </trkpt>
      <trkpt lat="42.37424" lon="2.60507">
        <ele>932.4</ele>
        <time>2018-11-26T02:10:38Z</time>
      </trkpt>
      <trkpt lat="42.37428" lon="2.60513">
        <ele>932.9</ele>
        <time>2018-11-26T02:10:40Z</time>
      </trkpt>
      <trkpt lat="42.37427" lon="2.60513">
        <ele>933.4</ele>
        <time>2018-11-26T02:10:41Z</time>
      </trkpt>
      <trkpt lat="42.37428" lon="2.60513">
        <ele>932.7</ele>
        <time>2018-11-26T02:10:41Z</time>
      </trkpt>
      <trkpt lat="42.37429" lon="2.60514">
        <ele>932</ele>
        <time>2018-11-26T02:10:41Z</time>
      </trkpt>
      <trkpt lat="42.37426" lon="2.60507">
        <ele>931.3</ele>
        <time>2018-11-26T02:10:44Z</time>
      </trkpt>
      <trkpt lat="42.37417" lon="2.60498">
        <ele>931.7</ele>
        <time>2018-11-26T02:10:48Z</time>
      </trkpt>
      <trkpt lat="42.37421" lon="2.60505">
        <ele>931.2</ele>
        <time>2018-11-26T02:10:50Z</time>
      </trkpt>
      <trkpt lat="42.37422" lon="2.60511">
        <ele>931.7</ele>
        <time>2018-11-26T02:10:52Z</time>
      </trkpt>
      <trkpt lat="42.37424" lon="2.60518">
        <ele>933</ele>
        <time>2018-11-26T02:10:54Z</time>
      </trkpt>
      <trkpt lat="42.37425" lon="2.60519">
        <ele>933.5</ele>
        <time>2018-11-26T02:10:55Z</time>
      </trkpt>
      <trkpt lat="42.37425" lon="2.6052">
        <ele>934.1</ele>
        <time>2018-11-26T02:10:55Z</time>
      </trkpt>
      <trkpt lat="42.37427" lon="2.60521">
        <ele>934.5</ele>
        <time>2018-11-26T02:10:56Z</time>
      </trkpt>
      <trkpt lat="42.37427" lon="2.60524">
        <ele>934.1</ele>
        <time>2018-11-26T02:10:57Z</time>
      </trkpt>
      <trkpt lat="42.37425" lon="2.60517">
        <ele>932.8</ele>
        <time>2018-11-26T02:10:59Z</time>
      </trkpt>
      <trkpt lat="42.37421" lon="2.60514">
        <ele>933.4</ele>
        <time>2018-11-26T02:11:01Z</time>
      </trkpt>
      <trkpt lat="42.37423" lon="2.60519">
        <ele>930.9</ele>
        <time>2018-11-26T02:11:03Z</time>
      </trkpt>
      <trkpt lat="42.37427" lon="2.60525">
        <ele>928.7</ele>
        <time>2018-11-26T02:11:05Z</time>
      </trkpt>
      <trkpt lat="42.37433" lon="2.60535">
        <ele>927.9</ele>
        <time>2018-11-26T02:11:09Z</time>
      </trkpt>
      <trkpt lat="42.37434" lon="2.60535">
        <ele>926.2</ele>
        <time>2018-11-26T02:11:09Z</time>
      </trkpt>
      <trkpt lat="42.37443" lon="2.60536">
        <ele>923.2</ele>
        <time>2018-11-26T02:11:13Z</time>
      </trkpt>
      <trkpt lat="42.37444" lon="2.60538">
        <ele>922.7</ele>
        <time>2018-11-26T02:11:14Z</time>
      </trkpt>
      <trkpt lat="42.37451" lon="2.60542">
        <ele>922.3</ele>
        <time>2018-11-26T02:11:16Z</time>
      </trkpt>
      <trkpt lat="42.37458" lon="2.60553">
        <ele>921.4</ele>
        <time>2018-11-26T02:11:21Z</time>
      </trkpt>
      <trkpt lat="42.37461" lon="2.60556">
        <ele>920.8</ele>
        <time>2018-11-26T02:11:22Z</time>
      </trkpt>
      <trkpt lat="42.37478" lon="2.6055">
        <ele>918.1</ele>
        <time>2018-11-26T02:11:29Z</time>
      </trkpt>
      <trkpt lat="42.37481" lon="2.60549">
        <ele>918.5</ele>
        <time>2018-11-26T02:11:31Z</time>
      </trkpt>
      <trkpt lat="42.37486" lon="2.60549">
        <ele>917.7</ele>
        <time>2018-11-26T02:11:33Z</time>
      </trkpt>
      <trkpt lat="42.37494" lon="2.60541">
        <ele>915.2</ele>
        <time>2018-11-26T02:11:37Z</time>
      </trkpt>
      <trkpt lat="42.37506" lon="2.60542">
        <ele>913.6</ele>
        <time>2018-11-26T02:11:41Z</time>
      </trkpt>
      <trkpt lat="42.37518" lon="2.60538">
        <ele>912.5</ele>
        <time>2018-11-26T02:11:46Z</time>
      </trkpt>
      <trkpt lat="42.3752" lon="2.60544">
        <ele>912.4</ele>
        <time>2018-11-26T02:11:48Z</time>
      </trkpt>
      <trkpt lat="42.37516" lon="2.60545">
        <ele>912.2</ele>
        <time>2018-11-26T02:11:50Z</time>
      </trkpt>
      <trkpt lat="42.37523" lon="2.60544">
        <ele>910.2</ele>
        <time>2018-11-26T02:11:52Z</time>
      </trkpt>
      <trkpt lat="42.37522" lon="2.60543">
        <ele>909.5</ele>
        <time>2018-11-26T02:11:53Z</time>
      </trkpt>
      <trkpt lat="42.37522" lon="2.60546">
        <ele>909.4</ele>
        <time>2018-11-26T02:11:53Z</time>
      </trkpt>
      <trkpt lat="42.37533" lon="2.6055">
        <ele>908</ele>
        <time>2018-11-26T02:11:58Z</time>
      </trkpt>
      <trkpt lat="42.37541" lon="2.60555">
        <ele>907.4</ele>
        <time>2018-11-26T02:12:02Z</time>
      </trkpt>
      <trkpt lat="42.37555" lon="2.60561">
        <ele>904.7</ele>
        <time>2018-11-26T02:12:07Z</time>
      </trkpt>
      <trkpt lat="42.37561" lon="2.60567">
        <ele>903.6</ele>
        <time>2018-11-26T02:12:11Z</time>
      </trkpt>
      <trkpt lat="42.37561" lon="2.60566">
        <ele>902.7</ele>
        <time>2018-11-26T02:12:11Z</time>
      </trkpt>
      <trkpt lat="42.37563" lon="2.60566">
        <ele>902.3</ele>
        <time>2018-11-26T02:12:12Z</time>
      </trkpt>
      <trkpt lat="42.37568" lon="2.60569">
        <ele>901.2</ele>
        <time>2018-11-26T02:12:14Z</time>
      </trkpt>
      <trkpt lat="42.37573" lon="2.6057">
        <ele>900.1</ele>
        <time>2018-11-26T02:12:16Z</time>
      </trkpt>
      <trkpt lat="42.37581" lon="2.60577">
        <ele>899.2</ele>
        <time>2018-11-26T02:12:20Z</time>
      </trkpt>
      <trkpt lat="42.37587" lon="2.60578">
        <ele>898.2</ele>
        <time>2018-11-26T02:12:22Z</time>
      </trkpt>
      <trkpt lat="42.37588" lon="2.6058">
        <ele>898.5</ele>
        <time>2018-11-26T02:12:23Z</time>
      </trkpt>
      <trkpt lat="42.37591" lon="2.60585">
        <ele>897.2</ele>
        <time>2018-11-26T02:12:25Z</time>
      </trkpt>
      <trkpt lat="42.37596" lon="2.60586">
        <ele>897.2</ele>
        <time>2018-11-26T02:12:27Z</time>
      </trkpt>
      <trkpt lat="42.37598" lon="2.6059">
        <ele>896.1</ele>
        <time>2018-11-26T02:12:28Z</time>
      </trkpt>
      <trkpt lat="42.37605" lon="2.60592">
        <ele>893.4</ele>
        <time>2018-11-26T02:12:31Z</time>
      </trkpt>
      <trkpt lat="42.37613" lon="2.60588">
        <ele>891.3</ele>
        <time>2018-11-26T02:12:34Z</time>
      </trkpt>
      <trkpt lat="42.37616" lon="2.6059">
        <ele>891.5</ele>
        <time>2018-11-26T02:12:36Z</time>
      </trkpt>
      <trkpt lat="42.37623" lon="2.6059">
        <ele>890.2</ele>
        <time>2018-11-26T02:12:39Z</time>
      </trkpt>
      <trkpt lat="42.37629" lon="2.60594">
        <ele>888.6</ele>
        <time>2018-11-26T02:12:41Z</time>
      </trkpt>
      <trkpt lat="42.37635" lon="2.60596">
        <ele>887.7</ele>
        <time>2018-11-26T02:12:44Z</time>
      </trkpt>
      <trkpt lat="42.37635" lon="2.60592">
        <ele>885.5</ele>
        <time>2018-11-26T02:12:45Z</time>
      </trkpt>
      <trkpt lat="42.37642" lon="2.60592">
        <ele>883.4</ele>
        <time>2018-11-26T02:12:48Z</time>
      </trkpt>
      <trkpt lat="42.3764" lon="2.60589">
        <ele>882.6</ele>
        <time>2018-11-26T02:12:49Z</time>
      </trkpt>
      <trkpt lat="42.37643" lon="2.60591">
        <ele>883.5</ele>
        <time>2018-11-26T02:12:51Z</time>
      </trkpt>
      <trkpt lat="42.37645" lon="2.60591">
        <ele>883.9</ele>
        <time>2018-11-26T02:12:51Z</time>
      </trkpt>
      <trkpt lat="42.3765" lon="2.60597">
        <ele>881.7</ele>
        <time>2018-11-26T02:12:54Z</time>
      </trkpt>
      <trkpt lat="42.37656" lon="2.60599">
        <ele>880.3</ele>
        <time>2018-11-26T02:12:57Z</time>
      </trkpt>
      <trkpt lat="42.3766" lon="2.60603">
        <ele>878.7</ele>
        <time>2018-11-26T02:12:59Z</time>
      </trkpt>
      <trkpt lat="42.3767" lon="2.60601">
        <ele>875.5</ele>
        <time>2018-11-26T02:13:03Z</time>
      </trkpt>
      <trkpt lat="42.37678" lon="2.60604">
        <ele>873.4</ele>
        <time>2018-11-26T02:13:06Z</time>
      </trkpt>
      <trkpt lat="42.37682" lon="2.60606">
        <ele>871.8</ele>
        <time>2018-11-26T02:13:08Z</time>
      </trkpt>
      <trkpt lat="42.37681" lon="2.606">
        <ele>870.6</ele>
        <time>2018-11-26T02:13:09Z</time>
      </trkpt>
      <trkpt lat="42.37682" lon="2.60596">
        <ele>869.3</ele>
        <time>2018-11-26T02:13:11Z</time>
      </trkpt>
      <trkpt lat="42.37682" lon="2.60597">
        <ele>868.7</ele>
        <time>2018-11-26T02:13:11Z</time>
      </trkpt>
      <trkpt lat="42.37681" lon="2.60597">
        <ele>868.4</ele>
        <time>2018-11-26T02:13:11Z</time>
      </trkpt>
      <trkpt lat="42.37684" lon="2.60603">
        <ele>869.2</ele>
        <time>2018-11-26T02:13:13Z</time>
      </trkpt>
      <trkpt lat="42.37687" lon="2.60602">
        <ele>868.3</ele>
        <time>2018-11-26T02:13:15Z</time>
      </trkpt>
      <trkpt lat="42.37689" lon="2.60597">
        <ele>866.8</ele>
        <time>2018-11-26T02:13:16Z</time>
      </trkpt>
      <trkpt lat="42.37689" lon="2.60598">
        <ele>866.2</ele>
        <time>2018-11-26T02:13:17Z</time>
      </trkpt>
      <trkpt lat="42.37693" lon="2.60598">
        <ele>865.6</ele>
        <time>2018-11-26T02:13:18Z</time>
      </trkpt>
      <trkpt lat="42.37691" lon="2.606">
        <ele>865.6</ele>
        <time>2018-11-26T02:13:19Z</time>
      </trkpt>
      <trkpt lat="42.37696" lon="2.60603">
        <ele>865</ele>
        <time>2018-11-26T02:13:21Z</time>
      </trkpt>
      <trkpt lat="42.37693" lon="2.60602">
        <ele>864.6</ele>
        <time>2018-11-26T02:13:22Z</time>
      </trkpt>
      <trkpt lat="42.37704" lon="2.60612">
        <ele>864.7</ele>
        <time>2018-11-26T02:13:28Z</time>
      </trkpt>
      <trkpt lat="42.37708" lon="2.60614">
        <ele>864.3</ele>
        <time>2018-11-26T02:13:29Z</time>
      </trkpt>
      <trkpt lat="42.37714" lon="2.60613">
        <ele>864.2</ele>
        <time>2018-11-26T02:13:32Z</time>
      </trkpt>
      <trkpt lat="42.37715" lon="2.60612">
        <ele>863.4</ele>
        <time>2018-11-26T02:13:32Z</time>
      </trkpt>
      <trkpt lat="42.37722" lon="2.60614">
        <ele>861.8</ele>
        <time>2018-11-26T02:13:35Z</time>
      </trkpt>
      <trkpt lat="42.37726" lon="2.60613">
        <ele>860.2</ele>
        <time>2018-11-26T02:13:37Z</time>
      </trkpt>
      <trkpt lat="42.37732" lon="2.6062">
        <ele>858.4</ele>
        <time>2018-11-26T02:13:40Z</time>
      </trkpt>
      <trkpt lat="42.37739" lon="2.60619">
        <ele>857.6</ele>
        <time>2018-11-26T02:13:43Z</time>
      </trkpt>
      <trkpt lat="42.37742" lon="2.60622">
        <ele>855.8</ele>
        <time>2018-11-26T02:13:44Z</time>
      </trkpt>
      <trkpt lat="42.37746" lon="2.60623">
        <ele>853.7</ele>
        <time>2018-11-26T02:13:46Z</time>
      </trkpt>
      <trkpt lat="42.37747" lon="2.60619">
        <ele>852.8</ele>
        <time>2018-11-26T02:13:47Z</time>
      </trkpt>
      <trkpt lat="42.37746" lon="2.6061">
        <ele>851.2</ele>
        <time>2018-11-26T02:13:50Z</time>
      </trkpt>
      <trkpt lat="42.37744" lon="2.60603">
        <ele>850.9</ele>
        <time>2018-11-26T02:13:52Z</time>
      </trkpt>
      <trkpt lat="42.37745" lon="2.60598">
        <ele>848.4</ele>
        <time>2018-11-26T02:13:54Z</time>
      </trkpt>
      <trkpt lat="42.37744" lon="2.60591">
        <ele>846.2</ele>
        <time>2018-11-26T02:13:56Z</time>
      </trkpt>
      <trkpt lat="42.37741" lon="2.60587">
        <ele>844.7</ele>
        <time>2018-11-26T02:13:58Z</time>
      </trkpt>
      <trkpt lat="42.37743" lon="2.60585">
        <ele>844</ele>
        <time>2018-11-26T02:13:59Z</time>
      </trkpt>
      <trkpt lat="42.37751" lon="2.60587">
        <ele>840.7</ele>
        <time>2018-11-26T02:14:02Z</time>
      </trkpt>
      <trkpt lat="42.37753" lon="2.60585">
        <ele>839.8</ele>
        <time>2018-11-26T02:14:03Z</time>
      </trkpt>
      <trkpt lat="42.37759" lon="2.60584">
        <ele>837.8</ele>
        <time>2018-11-26T02:14:05Z</time>
      </trkpt>
      <trkpt lat="42.37761" lon="2.60585">
        <ele>837.3</ele>
        <time>2018-11-26T02:14:06Z</time>
      </trkpt>
      <trkpt lat="42.37764" lon="2.60589">
        <ele>837.2</ele>
        <time>2018-11-26T02:14:08Z</time>
      </trkpt>
      <trkpt lat="42.37765" lon="2.60592">
        <ele>836.7</ele>
        <time>2018-11-26T02:14:09Z</time>
      </trkpt>
      <trkpt lat="42.3777" lon="2.60596">
        <ele>836.5</ele>
        <time>2018-11-26T02:14:11Z</time>
      </trkpt>
      <trkpt lat="42.37776" lon="2.60598">
        <ele>833.3</ele>
        <time>2018-11-26T02:14:14Z</time>
      </trkpt>
      <trkpt lat="42.37781" lon="2.60605">
        <ele>832.4</ele>
        <time>2018-11-26T02:14:17Z</time>
      </trkpt>
      <trkpt lat="42.37781" lon="2.60601">
        <ele>830.6</ele>
        <time>2018-11-26T02:14:18Z</time>
      </trkpt>
      <trkpt lat="42.37784" lon="2.60601">
        <ele>828.4</ele>
        <time>2018-11-26T02:14:19Z</time>
      </trkpt>
      <trkpt lat="42.37787" lon="2.60604">
        <ele>829.2</ele>
        <time>2018-11-26T02:14:21Z</time>
      </trkpt>
      <trkpt lat="42.37792" lon="2.60607">
        <ele>826.6</ele>
        <time>2018-11-26T02:14:23Z</time>
      </trkpt>
      <trkpt lat="42.37796" lon="2.60607">
        <ele>825.9</ele>
        <time>2018-11-26T02:14:24Z</time>
      </trkpt>
      <trkpt lat="42.37798" lon="2.60608">
        <ele>825.8</ele>
        <time>2018-11-26T02:14:25Z</time>
      </trkpt>
      <trkpt lat="42.37805" lon="2.60609">
        <ele>825.3</ele>
        <time>2018-11-26T02:14:28Z</time>
      </trkpt>
      <trkpt lat="42.37808" lon="2.60604">
        <ele>825</ele>
        <time>2018-11-26T02:14:30Z</time>
      </trkpt>
      <trkpt lat="42.37808" lon="2.60599">
        <ele>823.9</ele>
        <time>2018-11-26T02:14:31Z</time>
      </trkpt>
      <trkpt lat="42.37805" lon="2.60597">
        <ele>822.9</ele>
        <time>2018-11-26T02:14:33Z</time>
      </trkpt>
      <trkpt lat="42.37806" lon="2.60597">
        <ele>821.9</ele>
        <time>2018-11-26T02:14:34Z</time>
      </trkpt>
      <trkpt lat="42.37808" lon="2.60593">
        <ele>820.1</ele>
        <time>2018-11-26T02:14:35Z</time>
      </trkpt>
      <trkpt lat="42.37813" lon="2.60588">
        <ele>817.2</ele>
        <time>2018-11-26T02:14:38Z</time>
      </trkpt>
      <trkpt lat="42.37817" lon="2.6058">
        <ele>815.2</ele>
        <time>2018-11-26T02:14:40Z</time>
      </trkpt>
      <trkpt lat="42.37828" lon="2.60578">
        <ele>813.7</ele>
        <time>2018-11-26T02:14:45Z</time>
      </trkpt>
      <trkpt lat="42.37834" lon="2.60575">
        <ele>811.7</ele>
        <time>2018-11-26T02:14:48Z</time>
      </trkpt>
      <trkpt lat="42.37847" lon="2.60574">
        <ele>810.3</ele>
        <time>2018-11-26T02:14:53Z</time>
      </trkpt>
      <trkpt lat="42.37852" lon="2.60576">
        <ele>809.7</ele>
        <time>2018-11-26T02:14:55Z</time>
      </trkpt>
      <trkpt lat="42.37854" lon="2.60572">
        <ele>809.9</ele>
        <time>2018-11-26T02:14:56Z</time>
      </trkpt>
      <trkpt lat="42.37861" lon="2.60569">
        <ele>807.2</ele>
        <time>2018-11-26T02:14:59Z</time>
      </trkpt>
      <trkpt lat="42.37865" lon="2.60569">
        <ele>807.4</ele>
        <time>2018-11-26T02:15:01Z</time>
      </trkpt>
      <trkpt lat="42.3787" lon="2.60567">
        <ele>807.7</ele>
        <time>2018-11-26T02:15:03Z</time>
      </trkpt>
      <trkpt lat="42.37874" lon="2.60567">
        <ele>806.7</ele>
        <time>2018-11-26T02:15:04Z</time>
      </trkpt>
      <trkpt lat="42.37879" lon="2.60565">
        <ele>806.3</ele>
        <time>2018-11-26T02:15:07Z</time>
      </trkpt>
      <trkpt lat="42.37884" lon="2.60558">
        <ele>805.2</ele>
        <time>2018-11-26T02:15:10Z</time>
      </trkpt>
      <trkpt lat="42.37886" lon="2.60551">
        <ele>803.6</ele>
        <time>2018-11-26T02:15:12Z</time>
      </trkpt>
      <trkpt lat="42.37888" lon="2.60547">
        <ele>803.8</ele>
        <time>2018-11-26T02:15:13Z</time>
      </trkpt>
      <trkpt lat="42.3789" lon="2.60542">
        <ele>801.9</ele>
        <time>2018-11-26T02:15:15Z</time>
      </trkpt>
      <trkpt lat="42.37889" lon="2.60533">
        <ele>800</ele>
        <time>2018-11-26T02:15:17Z</time>
      </trkpt>
      <trkpt lat="42.37892" lon="2.60531">
        <ele>799.8</ele>
        <time>2018-11-26T02:15:19Z</time>
      </trkpt>
      <trkpt lat="42.37896" lon="2.60516">
        <ele>795.6</ele>
        <time>2018-11-26T02:15:23Z</time>
      </trkpt>
      <trkpt lat="42.37902" lon="2.60505">
        <ele>792.7</ele>
        <time>2018-11-26T02:15:27Z</time>
      </trkpt>
      <trkpt lat="42.37907" lon="2.60502">
        <ele>791.8</ele>
        <time>2018-11-26T02:15:29Z</time>
      </trkpt>
      <trkpt lat="42.37905" lon="2.60496">
        <ele>789.3</ele>
        <time>2018-11-26T02:15:31Z</time>
      </trkpt>
      <trkpt lat="42.37909" lon="2.60485">
        <ele>786.8</ele>
        <time>2018-11-26T02:15:35Z</time>
      </trkpt>
      <trkpt lat="42.37919" lon="2.6048">
        <ele>785.7</ele>
        <time>2018-11-26T02:15:39Z</time>
      </trkpt>
      <trkpt lat="42.37926" lon="2.60479">
        <ele>784.4</ele>
        <time>2018-11-26T02:15:42Z</time>
      </trkpt>
      <trkpt lat="42.37931" lon="2.60484">
        <ele>784.7</ele>
        <time>2018-11-26T02:15:44Z</time>
      </trkpt>
      <trkpt lat="42.37935" lon="2.60485">
        <ele>782.8</ele>
        <time>2018-11-26T02:15:46Z</time>
      </trkpt>
      <trkpt lat="42.3794" lon="2.60479">
        <ele>780.3</ele>
        <time>2018-11-26T02:15:49Z</time>
      </trkpt>
      <trkpt lat="42.37943" lon="2.60477">
        <ele>780.1</ele>
        <time>2018-11-26T02:15:50Z</time>
      </trkpt>
      <trkpt lat="42.37954" lon="2.60475">
        <ele>776.9</ele>
        <time>2018-11-26T02:15:55Z</time>
      </trkpt>
      <trkpt lat="42.37956" lon="2.60472">
        <ele>775.1</ele>
        <time>2018-11-26T02:15:56Z</time>
      </trkpt>
      <trkpt lat="42.3796" lon="2.60473">
        <ele>775.5</ele>
        <time>2018-11-26T02:15:58Z</time>
      </trkpt>
      <trkpt lat="42.37962" lon="2.60466">
        <ele>773.7</ele>
        <time>2018-11-26T02:16:00Z</time>
      </trkpt>
      <trkpt lat="42.37965" lon="2.6046">
        <ele>772.4</ele>
        <time>2018-11-26T02:16:02Z</time>
      </trkpt>
      <trkpt lat="42.37968" lon="2.60457">
        <ele>771.9</ele>
        <time>2018-11-26T02:16:04Z</time>
      </trkpt>
      <trkpt lat="42.37974" lon="2.60447">
        <ele>768.7</ele>
        <time>2018-11-26T02:16:07Z</time>
      </trkpt>
      <trkpt lat="42.37981" lon="2.60446">
        <ele>768.7</ele>
        <time>2018-11-26T02:16:10Z</time>
      </trkpt>
      <trkpt lat="42.37982" lon="2.60439">
        <ele>766.3</ele>
        <time>2018-11-26T02:16:12Z</time>
      </trkpt>
      <trkpt lat="42.37987" lon="2.60454">
        <ele>766.3</ele>
        <time>2018-11-26T02:16:17Z</time>
      </trkpt>
      <trkpt lat="42.37994" lon="2.60453">
        <ele>766</ele>
        <time>2018-11-26T02:16:20Z</time>
      </trkpt>
      <trkpt lat="42.38008" lon="2.60457">
        <ele>764.2</ele>
        <time>2018-11-26T02:16:26Z</time>
      </trkpt>
      <trkpt lat="42.38019" lon="2.60462">
        <ele>762.6</ele>
        <time>2018-11-26T02:16:30Z</time>
      </trkpt>
      <trkpt lat="42.38027" lon="2.60467">
        <ele>760.8</ele>
        <time>2018-11-26T02:16:34Z</time>
      </trkpt>
      <trkpt lat="42.38041" lon="2.60479">
        <ele>759.8</ele>
        <time>2018-11-26T02:16:41Z</time>
      </trkpt>
      <trkpt lat="42.38049" lon="2.60485">
        <ele>757.2</ele>
        <time>2018-11-26T02:16:44Z</time>
      </trkpt>
      <trkpt lat="42.3805" lon="2.60485">
        <ele>756.8</ele>
        <time>2018-11-26T02:16:45Z</time>
      </trkpt>
      <trkpt lat="42.38059" lon="2.60492">
        <ele>756.2</ele>
        <time>2018-11-26T02:16:49Z</time>
      </trkpt>
      <trkpt lat="42.38065" lon="2.60497">
        <ele>756.2</ele>
        <time>2018-11-26T02:16:52Z</time>
      </trkpt>
      <trkpt lat="42.38102" lon="2.60517">
        <ele>752.5</ele>
        <time>2018-11-26T02:17:08Z</time>
      </trkpt>
      <trkpt lat="42.38111" lon="2.60516">
        <ele>751.4</ele>
        <time>2018-11-26T02:17:11Z</time>
      </trkpt>
      <trkpt lat="42.38125" lon="2.60511">
        <ele>748.1</ele>
        <time>2018-11-26T02:17:17Z</time>
      </trkpt>
      <trkpt lat="42.38144" lon="2.60501">
        <ele>746.1</ele>
        <time>2018-11-26T02:17:25Z</time>
      </trkpt>
      <trkpt lat="42.3815" lon="2.60495">
        <ele>746.9</ele>
        <time>2018-11-26T02:17:28Z</time>
      </trkpt>
      <trkpt lat="42.38152" lon="2.60492">
        <ele>746.8</ele>
        <time>2018-11-26T02:17:30Z</time>
      </trkpt>
      <trkpt lat="42.38154" lon="2.60494">
        <ele>745.7</ele>
        <time>2018-11-26T02:17:30Z</time>
      </trkpt>
      <trkpt lat="42.38156" lon="2.60501">
        <ele>746.1</ele>
        <time>2018-11-26T02:17:33Z</time>
      </trkpt>
      <trkpt lat="42.38159" lon="2.605">
        <ele>745.9</ele>
        <time>2018-11-26T02:17:34Z</time>
      </trkpt>
      <trkpt lat="42.38176" lon="2.60496">
        <ele>744.7</ele>
        <time>2018-11-26T02:17:41Z</time>
      </trkpt>
      <trkpt lat="42.38181" lon="2.60496">
        <ele>744</ele>
        <time>2018-11-26T02:17:43Z</time>
      </trkpt>
      <trkpt lat="42.38194" lon="2.60496">
        <ele>742.3</ele>
        <time>2018-11-26T02:17:48Z</time>
      </trkpt>
      <trkpt lat="42.38205" lon="2.60498">
        <ele>739.4</ele>
        <time>2018-11-26T02:17:53Z</time>
      </trkpt>
      <trkpt lat="42.38213" lon="2.60499">
        <ele>737.9</ele>
        <time>2018-11-26T02:17:56Z</time>
      </trkpt>
      <trkpt lat="42.38219" lon="2.60497">
        <ele>738.2</ele>
        <time>2018-11-26T02:17:58Z</time>
      </trkpt>
      <trkpt lat="42.38233" lon="2.60494">
        <ele>736.1</ele>
        <time>2018-11-26T02:18:04Z</time>
      </trkpt>
      <trkpt lat="42.38241" lon="2.60493">
        <ele>735</ele>
        <time>2018-11-26T02:18:07Z</time>
      </trkpt>
      <trkpt lat="42.38249" lon="2.60494">
        <ele>734.6</ele>
        <time>2018-11-26T02:18:10Z</time>
      </trkpt>
      <trkpt lat="42.38263" lon="2.60497">
        <ele>732</ele>
        <time>2018-11-26T02:18:16Z</time>
      </trkpt>
      <trkpt lat="42.3827" lon="2.60498">
        <ele>731.7</ele>
        <time>2018-11-26T02:18:19Z</time>
      </trkpt>
      <trkpt lat="42.38281" lon="2.60501">
        <ele>730</ele>
        <time>2018-11-26T02:18:23Z</time>
      </trkpt>
      <trkpt lat="42.38287" lon="2.60502">
        <ele>728.5</ele>
        <time>2018-11-26T02:18:26Z</time>
      </trkpt>
      <trkpt lat="42.38298" lon="2.60499">
        <ele>727.2</ele>
        <time>2018-11-26T02:18:30Z</time>
      </trkpt>
      <trkpt lat="42.38304" lon="2.60498">
        <ele>725.4</ele>
        <time>2018-11-26T02:18:32Z</time>
      </trkpt>
      <trkpt lat="42.38314" lon="2.60493">
        <ele>725.4</ele>
        <time>2018-11-26T02:18:37Z</time>
      </trkpt>
      <trkpt lat="42.38325" lon="2.6049">
        <ele>724.1</ele>
        <time>2018-11-26T02:18:41Z</time>
      </trkpt>
      <trkpt lat="42.38338" lon="2.60485">
        <ele>722</ele>
        <time>2018-11-26T02:18:47Z</time>
      </trkpt>
      <trkpt lat="42.38345" lon="2.60486">
        <ele>719.7</ele>
        <time>2018-11-26T02:18:50Z</time>
      </trkpt>
      <trkpt lat="42.38356" lon="2.60493">
        <ele>717.3</ele>
        <time>2018-11-26T02:18:54Z</time>
      </trkpt>
      <trkpt lat="42.38367" lon="2.60507">
        <ele>714</ele>
        <time>2018-11-26T02:19:00Z</time>
      </trkpt>
      <trkpt lat="42.38369" lon="2.60515">
        <ele>712.9</ele>
        <time>2018-11-26T02:19:03Z</time>
      </trkpt>
      <trkpt lat="42.3837" lon="2.60522">
        <ele>712</ele>
        <time>2018-11-26T02:19:05Z</time>
      </trkpt>
      <trkpt lat="42.38371" lon="2.60525">
        <ele>710.8</ele>
        <time>2018-11-26T02:19:06Z</time>
      </trkpt>
      <trkpt lat="42.38372" lon="2.60534">
        <ele>710.6</ele>
        <time>2018-11-26T02:19:09Z</time>
      </trkpt>
      <trkpt lat="42.38372" lon="2.60554">
        <ele>708</ele>
        <time>2018-11-26T02:19:14Z</time>
      </trkpt>
      <trkpt lat="42.3837" lon="2.60566">
        <ele>707.4</ele>
        <time>2018-11-26T02:19:18Z</time>
      </trkpt>
      <trkpt lat="42.38368" lon="2.6058">
        <ele>704.7</ele>
        <time>2018-11-26T02:19:23Z</time>
      </trkpt>
      <trkpt lat="42.38362" lon="2.60595">
        <ele>702.5</ele>
        <time>2018-11-26T02:19:28Z</time>
      </trkpt>
      <trkpt lat="42.38361" lon="2.60601">
        <ele>702.1</ele>
        <time>2018-11-26T02:19:29Z</time>
      </trkpt>
      <trkpt lat="42.3836" lon="2.6062">
        <ele>699.8</ele>
        <time>2018-11-26T02:19:35Z</time>
      </trkpt>
      <trkpt lat="42.38358" lon="2.60642">
        <ele>696.7</ele>
        <time>2018-11-26T02:19:42Z</time>
      </trkpt>
      <trkpt lat="42.38359" lon="2.60649">
        <ele>696.8</ele>
        <time>2018-11-26T02:19:44Z</time>
      </trkpt>
      <trkpt lat="42.38363" lon="2.60653">
        <ele>696.2</ele>
        <time>2018-11-26T02:19:45Z</time>
      </trkpt>
      <trkpt lat="42.38364" lon="2.60651">
        <ele>696.4</ele>
        <time>2018-11-26T02:19:46Z</time>
      </trkpt>
      <trkpt lat="42.38372" lon="2.60661">
        <ele>694.1</ele>
        <time>2018-11-26T02:19:51Z</time>
      </trkpt>
      <trkpt lat="42.38383" lon="2.60688">
        <ele>694.2</ele>
        <time>2018-11-26T02:20:00Z</time>
      </trkpt>
      <trkpt lat="42.38383" lon="2.60693">
        <ele>693.6</ele>
        <time>2018-11-26T02:20:01Z</time>
      </trkpt>
      <trkpt lat="42.38386" lon="2.60699">
        <ele>691.9</ele>
        <time>2018-11-26T02:20:03Z</time>
      </trkpt>
      <trkpt lat="42.384" lon="2.60723">
        <ele>691.1</ele>
        <time>2018-11-26T02:20:12Z</time>
      </trkpt>
      <trkpt lat="42.3841" lon="2.60737">
        <ele>689.5</ele>
        <time>2018-11-26T02:20:18Z</time>
      </trkpt>
      <trkpt lat="42.38418" lon="2.60753">
        <ele>689.5</ele>
        <time>2018-11-26T02:20:24Z</time>
      </trkpt>
      <trkpt lat="42.38418" lon="2.60755">
        <ele>689.5</ele>
        <time>2018-11-26T02:20:24Z</time>
      </trkpt>
      <trkpt lat="42.38436" lon="2.60773">
        <ele>689.6</ele>
        <time>2018-11-26T02:20:33Z</time>
      </trkpt>
      <trkpt lat="42.38452" lon="2.6078">
        <ele>688.6</ele>
        <time>2018-11-26T02:20:40Z</time>
      </trkpt>
      <trkpt lat="42.38462" lon="2.60781">
        <ele>686.9</ele>
        <time>2018-11-26T02:20:44Z</time>
      </trkpt>
      <trkpt lat="42.385" lon="2.60773">
        <ele>683.2</ele>
        <time>2018-11-26T02:20:59Z</time>
      </trkpt>
      <trkpt lat="42.38525" lon="2.60785">
        <ele>679.3</ele>
        <time>2018-11-26T02:21:10Z</time>
      </trkpt>
      <trkpt lat="42.38528" lon="2.60787">
        <ele>678.8</ele>
        <time>2018-11-26T02:21:11Z</time>
      </trkpt>
      <trkpt lat="42.38578" lon="2.60826">
        <ele>675.7</ele>
        <time>2018-11-26T02:21:34Z</time>
      </trkpt>
      <trkpt lat="42.38578" lon="2.60828">
        <ele>675.6</ele>
        <time>2018-11-26T02:21:35Z</time>
      </trkpt>
      <trkpt lat="42.38589" lon="2.60841">
        <ele>674.1</ele>
        <time>2018-11-26T02:21:41Z</time>
      </trkpt>
      <trkpt lat="42.38594" lon="2.60843">
        <ele>673.4</ele>
        <time>2018-11-26T02:21:43Z</time>
      </trkpt>
      <trkpt lat="42.38605" lon="2.60839">
        <ele>673.4</ele>
        <time>2018-11-26T02:21:47Z</time>
      </trkpt>
      <trkpt lat="42.38608" lon="2.60834">
        <ele>672.2</ele>
        <time>2018-11-26T02:21:49Z</time>
      </trkpt>
      <trkpt lat="42.38612" lon="2.60834">
        <ele>671.4</ele>
        <time>2018-11-26T02:21:51Z</time>
      </trkpt>
      <trkpt lat="42.38609" lon="2.60845">
        <ele>670.1</ele>
        <time>2018-11-26T02:21:54Z</time>
      </trkpt>
      <trkpt lat="42.38608" lon="2.60848">
        <ele>669.6</ele>
        <time>2018-11-26T02:21:55Z</time>
      </trkpt>
      <trkpt lat="42.38605" lon="2.60857">
        <ele>670</ele>
        <time>2018-11-26T02:21:58Z</time>
      </trkpt>
      <trkpt lat="42.38603" lon="2.60874">
        <ele>669.4</ele>
        <time>2018-11-26T02:22:03Z</time>
      </trkpt>
      <trkpt lat="42.38598" lon="2.6088">
        <ele>669.3</ele>
        <time>2018-11-26T02:22:06Z</time>
      </trkpt>
      <trkpt lat="42.38597" lon="2.60883">
        <ele>669.3</ele>
        <time>2018-11-26T02:22:07Z</time>
      </trkpt>
      <trkpt lat="42.38584" lon="2.60908">
        <ele>668</ele>
        <time>2018-11-26T02:22:16Z</time>
      </trkpt>
      <trkpt lat="42.38584" lon="2.60911">
        <ele>667.8</ele>
        <time>2018-11-26T02:22:17Z</time>
      </trkpt>
      <trkpt lat="42.38578" lon="2.60921">
        <ele>667.3</ele>
        <time>2018-11-26T02:22:21Z</time>
      </trkpt>
      <trkpt lat="42.38564" lon="2.60934">
        <ele>666</ele>
        <time>2018-11-26T02:22:27Z</time>
      </trkpt>
      <trkpt lat="42.38547" lon="2.60931">
        <ele>665.8</ele>
        <time>2018-11-26T02:22:34Z</time>
      </trkpt>
      <trkpt lat="42.38523" lon="2.60926">
        <ele>665.5</ele>
        <time>2018-11-26T02:22:44Z</time>
      </trkpt>
      <trkpt lat="42.38522" lon="2.60925">
        <ele>665.3</ele>
        <time>2018-11-26T02:22:44Z</time>
      </trkpt>
      <trkpt lat="42.38511" lon="2.60921">
        <ele>663.9</ele>
        <time>2018-11-26T02:22:49Z</time>
      </trkpt>
      <trkpt lat="42.38493" lon="2.60923">
        <ele>661.3</ele>
        <time>2018-11-26T02:22:56Z</time>
      </trkpt>
      <trkpt lat="42.38477" lon="2.60927">
        <ele>661.2</ele>
        <time>2018-11-26T02:23:03Z</time>
      </trkpt>
      <trkpt lat="42.38466" lon="2.60924">
        <ele>659.4</ele>
        <time>2018-11-26T02:23:07Z</time>
      </trkpt>
      <trkpt lat="42.38454" lon="2.60922">
        <ele>657.1</ele>
        <time>2018-11-26T02:23:12Z</time>
      </trkpt>
      <trkpt lat="42.38449" lon="2.60925">
        <ele>657.4</ele>
        <time>2018-11-26T02:23:14Z</time>
      </trkpt>
      <trkpt lat="42.3845" lon="2.60921">
        <ele>656.9</ele>
        <time>2018-11-26T02:23:16Z</time>
      </trkpt>
      <trkpt lat="42.38454" lon="2.60922">
        <ele>657.3</ele>
        <time>2018-11-26T02:23:17Z</time>
      </trkpt>
      <trkpt lat="42.38454" lon="2.60924">
        <ele>658.9</ele>
        <time>2018-11-26T02:23:18Z</time>
      </trkpt>
      <trkpt lat="42.38454" lon="2.60923">
        <ele>658.1</ele>
        <time>2018-11-26T02:23:18Z</time>
      </trkpt>
      <trkpt lat="42.38448" lon="2.60918">
        <ele>657.1</ele>
        <time>2018-11-26T02:23:21Z</time>
      </trkpt>
      <trkpt lat="42.38452" lon="2.60921">
        <ele>657.3</ele>
        <time>2018-11-26T02:23:23Z</time>
      </trkpt>
      <trkpt lat="42.38457" lon="2.6093">
        <ele>657.9</ele>
        <time>2018-11-26T02:23:26Z</time>
      </trkpt>
      <trkpt lat="42.38457" lon="2.60937">
        <ele>656.1</ele>
        <time>2018-11-26T02:23:28Z</time>
      </trkpt>
      <trkpt lat="42.38464" lon="2.60939">
        <ele>655.9</ele>
        <time>2018-11-26T02:23:31Z</time>
      </trkpt>
      <trkpt lat="42.38465" lon="2.60942">
        <ele>655.4</ele>
        <time>2018-11-26T02:23:32Z</time>
      </trkpt>
      <trkpt lat="42.38465" lon="2.60968">
        <ele>654.4</ele>
        <time>2018-11-26T02:23:39Z</time>
      </trkpt>
      <trkpt lat="42.38464" lon="2.60972">
        <ele>654</ele>
        <time>2018-11-26T02:23:41Z</time>
      </trkpt>
      <trkpt lat="42.38467" lon="2.60976">
        <ele>655.2</ele>
        <time>2018-11-26T02:23:42Z</time>
      </trkpt>
      <trkpt lat="42.38486" lon="2.60979">
        <ele>655</ele>
        <time>2018-11-26T02:23:50Z</time>
      </trkpt>
      <trkpt lat="42.38503" lon="2.60993">
        <ele>655.9</ele>
        <time>2018-11-26T02:23:58Z</time>
      </trkpt>
      <trkpt lat="42.38507" lon="2.60999">
        <ele>656.1</ele>
        <time>2018-11-26T02:24:00Z</time>
      </trkpt>
      <trkpt lat="42.38529" lon="2.61023">
        <ele>659.9</ele>
        <time>2018-11-26T02:24:12Z</time>
      </trkpt>
      <trkpt lat="42.38535" lon="2.61037">
        <ele>661.3</ele>
        <time>2018-11-26T02:24:17Z</time>
      </trkpt>
      <trkpt lat="42.38535" lon="2.61042">
        <ele>662</ele>
        <time>2018-11-26T02:24:18Z</time>
      </trkpt>
      <trkpt lat="42.38545" lon="2.61063">
        <ele>663.9</ele>
        <time>2018-11-26T02:24:26Z</time>
      </trkpt>
      <trkpt lat="42.38548" lon="2.61073">
        <ele>664.3</ele>
        <time>2018-11-26T02:24:29Z</time>
      </trkpt>
      <trkpt lat="42.38548" lon="2.61087">
        <ele>665</ele>
        <time>2018-11-26T02:24:33Z</time>
      </trkpt>
      <trkpt lat="42.38546" lon="2.61095">
        <ele>666.3</ele>
        <time>2018-11-26T02:24:35Z</time>
      </trkpt>
      <trkpt lat="42.38541" lon="2.611">
        <ele>667</ele>
        <time>2018-11-26T02:24:38Z</time>
      </trkpt>
      <trkpt lat="42.38537" lon="2.61101">
        <ele>667.4</ele>
        <time>2018-11-26T02:24:39Z</time>
      </trkpt>
      <trkpt lat="42.38525" lon="2.61099">
        <ele>669.7</ele>
        <time>2018-11-26T02:24:44Z</time>
      </trkpt>
      <trkpt lat="42.38521" lon="2.61095">
        <ele>670.4</ele>
        <time>2018-11-26T02:24:46Z</time>
      </trkpt>
      <trkpt lat="42.38514" lon="2.61084">
        <ele>672.1</ele>
        <time>2018-11-26T02:24:50Z</time>
      </trkpt>
      <trkpt lat="42.38512" lon="2.61083">
        <ele>672.3</ele>
        <time>2018-11-26T02:24:51Z</time>
      </trkpt>
      <trkpt lat="42.38505" lon="2.61082">
        <ele>672.5</ele>
        <time>2018-11-26T02:24:54Z</time>
      </trkpt>
      <trkpt lat="42.38503" lon="2.61086">
        <ele>673.1</ele>
        <time>2018-11-26T02:24:56Z</time>
      </trkpt>
      <trkpt lat="42.38503" lon="2.61096">
        <ele>674.5</ele>
        <time>2018-11-26T02:24:59Z</time>
      </trkpt>
      <trkpt lat="42.38506" lon="2.6111">
        <ele>674</ele>
        <time>2018-11-26T02:25:03Z</time>
      </trkpt>
      <trkpt lat="42.38505" lon="2.61115">
        <ele>674.6</ele>
        <time>2018-11-26T02:25:05Z</time>
      </trkpt>
      <trkpt lat="42.38506" lon="2.61146">
        <ele>671.8</ele>
        <time>2018-11-26T02:25:14Z</time>
      </trkpt>
      <trkpt lat="42.38503" lon="2.61153">
        <ele>674.6</ele>
        <time>2018-11-26T02:25:16Z</time>
      </trkpt>
      <trkpt lat="42.38499" lon="2.61153">
        <ele>675.5</ele>
        <time>2018-11-26T02:25:18Z</time>
      </trkpt>
      <trkpt lat="42.38494" lon="2.61151">
        <ele>675.5</ele>
        <time>2018-11-26T02:25:20Z</time>
      </trkpt>
      <trkpt lat="42.38501" lon="2.61156">
        <ele>674.5</ele>
        <time>2018-11-26T02:25:23Z</time>
      </trkpt>
      <trkpt lat="42.38503" lon="2.61157">
        <ele>674.7</ele>
        <time>2018-11-26T02:25:24Z</time>
      </trkpt>
      <trkpt lat="42.38501" lon="2.6116">
        <ele>675.9</ele>
        <time>2018-11-26T02:25:25Z</time>
      </trkpt>
      <trkpt lat="42.38508" lon="2.61166">
        <ele>677.1</ele>
        <time>2018-11-26T02:25:28Z</time>
      </trkpt>
      <trkpt lat="42.38512" lon="2.61166">
        <ele>678.7</ele>
        <time>2018-11-26T02:25:30Z</time>
      </trkpt>
      <trkpt lat="42.38515" lon="2.61169">
        <ele>679.2</ele>
        <time>2018-11-26T02:25:32Z</time>
      </trkpt>
      <trkpt lat="42.38519" lon="2.61168">
        <ele>678.4</ele>
        <time>2018-11-26T02:25:33Z</time>
      </trkpt>
      <trkpt lat="42.38523" lon="2.61173">
        <ele>680.2</ele>
        <time>2018-11-26T02:25:35Z</time>
      </trkpt>
      <trkpt lat="42.38526" lon="2.61179">
        <ele>680.4</ele>
        <time>2018-11-26T02:25:37Z</time>
      </trkpt>
      <trkpt lat="42.3853" lon="2.61179">
        <ele>682.2</ele>
        <time>2018-11-26T02:25:39Z</time>
      </trkpt>
      <trkpt lat="42.38529" lon="2.61178">
        <ele>682.6</ele>
        <time>2018-11-26T02:25:39Z</time>
      </trkpt>
      <trkpt lat="42.38524" lon="2.61186">
        <ele>682.2</ele>
        <time>2018-11-26T02:25:43Z</time>
      </trkpt>
      <trkpt lat="42.38519" lon="2.61202">
        <ele>682</ele>
        <time>2018-11-26T02:25:47Z</time>
      </trkpt>
      <trkpt lat="42.38521" lon="2.61207">
        <ele>682.3</ele>
        <time>2018-11-26T02:25:49Z</time>
      </trkpt>
      <trkpt lat="42.38525" lon="2.61209">
        <ele>682.6</ele>
        <time>2018-11-26T02:25:51Z</time>
      </trkpt>
      <trkpt lat="42.38525" lon="2.6121">
        <ele>682.5</ele>
        <time>2018-11-26T02:25:51Z</time>
      </trkpt>
      <trkpt lat="42.38526" lon="2.61211">
        <ele>683.3</ele>
        <time>2018-11-26T02:25:51Z</time>
      </trkpt>
      <trkpt lat="42.38524" lon="2.61208">
        <ele>679.1</ele>
        <time>2018-11-26T02:25:52Z</time>
      </trkpt>
      <trkpt lat="42.38524" lon="2.6121">
        <ele>681.6</ele>
        <time>2018-11-26T02:25:53Z</time>
      </trkpt>
      <trkpt lat="42.38525" lon="2.61215">
        <ele>690.3</ele>
        <time>2018-11-26T02:25:55Z</time>
      </trkpt>
      <trkpt lat="42.38528" lon="2.61213">
        <ele>691.7</ele>
        <time>2018-11-26T02:25:56Z</time>
      </trkpt>
      <trkpt lat="42.38528" lon="2.61214">
        <ele>693.1</ele>
        <time>2018-11-26T02:25:56Z</time>
      </trkpt>
      <trkpt lat="42.38526" lon="2.61203">
        <ele>690.5</ele>
        <time>2018-11-26T02:26:00Z</time>
      </trkpt>
      <trkpt lat="42.38524" lon="2.61198">
        <ele>689.5</ele>
        <time>2018-11-26T02:26:01Z</time>
      </trkpt>
      <trkpt lat="42.3853" lon="2.61197">
        <ele>685.2</ele>
        <time>2018-11-26T02:26:04Z</time>
      </trkpt>
      <trkpt lat="42.38516" lon="2.61175">
        <ele>693.6</ele>
        <time>2018-11-26T03:04:57Z</time>
      </trkpt>
      <trkpt lat="42.38516" lon="2.61175">
        <ele>694.1</ele>
        <time>2018-11-26T03:04:57Z</time>
      </trkpt>
      <trkpt lat="42.38516" lon="2.61175">
        <ele>693.9</ele>
        <time>2018-11-26T03:04:57Z</time>
      </trkpt>
      <trkpt lat="42.38516" lon="2.61174">
        <ele>693.8</ele>
        <time>2018-11-26T03:04:57Z</time>
      </trkpt>
      <trkpt lat="42.38516" lon="2.61174">
        <ele>693.7</ele>
        <time>2018-11-26T03:04:57Z</time>
      </trkpt>
      <trkpt lat="42.38516" lon="2.61174">
        <ele>693.6</ele>
        <time>2018-11-26T03:04:57Z</time>
      </trkpt>
      <trkpt lat="42.38516" lon="2.61174">
        <ele>693.4</ele>
        <time>2018-11-26T03:04:57Z</time>
      </trkpt>
      <trkpt lat="42.38516" lon="2.61174">
        <ele>693.2</ele>
        <time>2018-11-26T03:04:57Z</time>
      </trkpt>
      <trkpt lat="42.38516" lon="2.61173">
        <ele>693</ele>
        <time>2018-11-26T03:04:57Z</time>
      </trkpt>
      <trkpt lat="42.38516" lon="2.61173">
        <ele>693.1</ele>
        <time>2018-11-26T03:04:57Z</time>
      </trkpt>
      <trkpt lat="42.38516" lon="2.61173">
        <ele>693.1</ele>
        <time>2018-11-26T03:04:57Z</time>
      </trkpt>
      <trkpt lat="42.38516" lon="2.61173">
        <ele>693.3</ele>
        <time>2018-11-26T03:04:57Z</time>
      </trkpt>
      <trkpt lat="42.38516" lon="2.61173">
        <ele>693.3</ele>
        <time>2018-11-26T03:04:57Z</time>
      </trkpt>
      <trkpt lat="42.38516" lon="2.61173">
        <ele>693.3</ele>
        <time>2018-11-26T03:04:57Z</time>
      </trkpt>
      <trkpt lat="42.38516" lon="2.61173">
        <ele>693.3</ele>
        <time>2018-11-26T03:04:57Z</time>
      </trkpt>
      <trkpt lat="42.38516" lon="2.61173">
        <ele>693.2</ele>
        <time>2018-11-26T03:04:57Z</time>
      </trkpt>
      <trkpt lat="42.38516" lon="2.61173">
        <ele>693.2</ele>
        <time>2018-11-26T03:04:57Z</time>
      </trkpt>
      <trkpt lat="42.38516" lon="2.61173">
        <ele>693.3</ele>
        <time>2018-11-26T03:04:57Z</time>
      </trkpt>
      <trkpt lat="42.38516" lon="2.61173">
        <ele>693.1</ele>
        <time>2018-11-26T03:04:57Z</time>
      </trkpt>
      <trkpt lat="42.38516" lon="2.61172">
        <ele>692.7</ele>
        <time>2018-11-26T03:04:57Z</time>
      </trkpt>
      <trkpt lat="42.38516" lon="2.61172">
        <ele>692.2</ele>
        <time>2018-11-26T03:04:57Z</time>
      </trkpt>
      <trkpt lat="42.38516" lon="2.61172">
        <ele>692.4</ele>
        <time>2018-11-26T03:04:57Z</time>
      </trkpt>
      <trkpt lat="42.38516" lon="2.61172">
        <ele>692.4</ele>
        <time>2018-11-26T03:04:57Z</time>
      </trkpt>
      <trkpt lat="42.38516" lon="2.61172">
        <ele>692.5</ele>
        <time>2018-11-26T03:04:58Z</time>
      </trkpt>
      <trkpt lat="42.38516" lon="2.61172">
        <ele>692.6</ele>
        <time>2018-11-26T03:04:58Z</time>
      </trkpt>
      <trkpt lat="42.38516" lon="2.61172">
        <ele>692.8</ele>
        <time>2018-11-26T03:04:58Z</time>
      </trkpt>
      <trkpt lat="42.38516" lon="2.61171">
        <ele>693</ele>
        <time>2018-11-26T03:04:58Z</time>
      </trkpt>
      <trkpt lat="42.38516" lon="2.61171">
        <ele>693.3</ele>
        <time>2018-11-26T03:04:58Z</time>
      </trkpt>
      <trkpt lat="42.38517" lon="2.61171">
        <ele>693.1</ele>
        <time>2018-11-26T03:04:58Z</time>
      </trkpt>
      <trkpt lat="42.38517" lon="2.61171">
        <ele>692.9</ele>
        <time>2018-11-26T03:04:58Z</time>
      </trkpt>
      <trkpt lat="42.38517" lon="2.61171">
        <ele>692.5</ele>
        <time>2018-11-26T03:04:58Z</time>
      </trkpt>
      <trkpt lat="42.38517" lon="2.61171">
        <ele>692.5</ele>
        <time>2018-11-26T03:04:58Z</time>
      </trkpt>
      <trkpt lat="42.38517" lon="2.61171">
        <ele>692.5</ele>
        <time>2018-11-26T03:04:58Z</time>
      </trkpt>
      <trkpt lat="42.38517" lon="2.61171">
        <ele>692.7</ele>
        <time>2018-11-26T03:04:58Z</time>
      </trkpt>
      <trkpt lat="42.38517" lon="2.61171">
        <ele>692.8</ele>
        <time>2018-11-26T03:04:58Z</time>
      </trkpt>
      <trkpt lat="42.38517" lon="2.61171">
        <ele>693.1</ele>
        <time>2018-11-26T03:04:58Z</time>
      </trkpt>
      <trkpt lat="42.38517" lon="2.61171">
        <ele>693.4</ele>
        <time>2018-11-26T03:04:58Z</time>
      </trkpt>
      <trkpt lat="42.38517" lon="2.6117">
        <ele>693.2</ele>
        <time>2018-11-26T03:04:58Z</time>
      </trkpt>
      <trkpt lat="42.38517" lon="2.6117">
        <ele>693</ele>
        <time>2018-11-26T03:04:58Z</time>
      </trkpt>
      <trkpt lat="42.38516" lon="2.61169">
        <ele>692.7</ele>
        <time>2018-11-26T03:04:59Z</time>
      </trkpt>
      <trkpt lat="42.38516" lon="2.61169">
        <ele>692.2</ele>
        <time>2018-11-26T03:04:59Z</time>
      </trkpt>
      <trkpt lat="42.38515" lon="2.61168">
        <ele>692.3</ele>
        <time>2018-11-26T03:04:59Z</time>
      </trkpt>
      <trkpt lat="42.38513" lon="2.61168">
        <ele>692.5</ele>
        <time>2018-11-26T03:05:00Z</time>
      </trkpt>
      <trkpt lat="42.38512" lon="2.61167">
        <ele>692.5</ele>
        <time>2018-11-26T03:05:01Z</time>
      </trkpt>
      <trkpt lat="42.38511" lon="2.61167">
        <ele>692.6</ele>
        <time>2018-11-26T03:05:01Z</time>
      </trkpt>
      <trkpt lat="42.3851" lon="2.61167">
        <ele>692.7</ele>
        <time>2018-11-26T03:05:01Z</time>
      </trkpt>
      <trkpt lat="42.38509" lon="2.61166">
        <ele>692.6</ele>
        <time>2018-11-26T03:05:02Z</time>
      </trkpt>
      <trkpt lat="42.38508" lon="2.61166">
        <ele>692.5</ele>
        <time>2018-11-26T03:05:02Z</time>
      </trkpt>
      <trkpt lat="42.38505" lon="2.61163">
        <ele>692.3</ele>
        <time>2018-11-26T03:05:04Z</time>
      </trkpt>
      <trkpt lat="42.38504" lon="2.61163">
        <ele>692.2</ele>
        <time>2018-11-26T03:05:04Z</time>
      </trkpt>
      <trkpt lat="42.38503" lon="2.61162">
        <ele>692.3</ele>
        <time>2018-11-26T03:05:05Z</time>
      </trkpt>
      <trkpt lat="42.38502" lon="2.61161">
        <ele>692.2</ele>
        <time>2018-11-26T03:05:05Z</time>
      </trkpt>
      <trkpt lat="42.38502" lon="2.61161">
        <ele>692.2</ele>
        <time>2018-11-26T03:05:05Z</time>
      </trkpt>
      <trkpt lat="42.38501" lon="2.6116">
        <ele>692.1</ele>
        <time>2018-11-26T03:05:06Z</time>
      </trkpt>
      <trkpt lat="42.385" lon="2.61159">
        <ele>692.4</ele>
        <time>2018-11-26T03:05:06Z</time>
      </trkpt>
      <trkpt lat="42.38497" lon="2.61157">
        <ele>693</ele>
        <time>2018-11-26T03:05:07Z</time>
      </trkpt>
      <trkpt lat="42.38493" lon="2.61155">
        <ele>693.1</ele>
        <time>2018-11-26T03:05:09Z</time>
      </trkpt>
      <trkpt lat="42.38489" lon="2.61154">
        <ele>693.1</ele>
        <time>2018-11-26T03:05:11Z</time>
      </trkpt>
      <trkpt lat="42.38486" lon="2.61153">
        <ele>693.3</ele>
        <time>2018-11-26T03:05:12Z</time>
      </trkpt>
      <trkpt lat="42.38479" lon="2.61152">
        <ele>691.8</ele>
        <time>2018-11-26T03:05:15Z</time>
      </trkpt>
      <trkpt lat="42.38478" lon="2.61152">
        <ele>691.9</ele>
        <time>2018-11-26T03:05:15Z</time>
      </trkpt>
      <trkpt lat="42.38475" lon="2.61152">
        <ele>692</ele>
        <time>2018-11-26T03:05:16Z</time>
      </trkpt>
      <trkpt lat="42.38474" lon="2.61152">
        <ele>692.1</ele>
        <time>2018-11-26T03:05:17Z</time>
      </trkpt>
      <trkpt lat="42.38473" lon="2.61153">
        <ele>692.2</ele>
        <time>2018-11-26T03:05:17Z</time>
      </trkpt>
      <trkpt lat="42.38472" lon="2.61153">
        <ele>692.3</ele>
        <time>2018-11-26T03:05:18Z</time>
      </trkpt>
      <trkpt lat="42.38471" lon="2.61154">
        <ele>692.6</ele>
        <time>2018-11-26T03:05:18Z</time>
      </trkpt>
      <trkpt lat="42.3847" lon="2.61155">
        <ele>692.8</ele>
        <time>2018-11-26T03:05:19Z</time>
      </trkpt>
      <trkpt lat="42.38469" lon="2.61155">
        <ele>692.7</ele>
        <time>2018-11-26T03:05:19Z</time>
      </trkpt>
      <trkpt lat="42.38468" lon="2.61155">
        <ele>692.6</ele>
        <time>2018-11-26T03:05:19Z</time>
      </trkpt>
      <trkpt lat="42.38467" lon="2.61155">
        <ele>692.6</ele>
        <time>2018-11-26T03:05:20Z</time>
      </trkpt>
      <trkpt lat="42.38465" lon="2.61154">
        <ele>692.4</ele>
        <time>2018-11-26T03:05:20Z</time>
      </trkpt>
      <trkpt lat="42.38464" lon="2.61154">
        <ele>692.3</ele>
        <time>2018-11-26T03:05:21Z</time>
      </trkpt>
      <trkpt lat="42.38464" lon="2.61154">
        <ele>692.2</ele>
        <time>2018-11-26T03:05:21Z</time>
      </trkpt>
      <trkpt lat="42.38463" lon="2.61154">
        <ele>692</ele>
        <time>2018-11-26T03:05:22Z</time>
      </trkpt>
      <trkpt lat="42.38462" lon="2.61154">
        <ele>692.1</ele>
        <time>2018-11-26T03:05:22Z</time>
      </trkpt>
      <trkpt lat="42.38461" lon="2.61155">
        <ele>692</ele>
        <time>2018-11-26T03:05:22Z</time>
      </trkpt>
      <trkpt lat="42.38461" lon="2.61155">
        <ele>691.9</ele>
        <time>2018-11-26T03:05:22Z</time>
      </trkpt>
      <trkpt lat="42.3846" lon="2.61156">
        <ele>692</ele>
        <time>2018-11-26T03:05:23Z</time>
      </trkpt>
      <trkpt lat="42.38459" lon="2.61156">
        <ele>692.1</ele>
        <time>2018-11-26T03:05:23Z</time>
      </trkpt>
      <trkpt lat="42.38456" lon="2.6116">
        <ele>693.2</ele>
        <time>2018-11-26T03:05:25Z</time>
      </trkpt>
      <trkpt lat="42.38455" lon="2.61161">
        <ele>693.3</ele>
        <time>2018-11-26T03:05:25Z</time>
      </trkpt>
      <trkpt lat="42.38454" lon="2.61162">
        <ele>693.2</ele>
        <time>2018-11-26T03:05:26Z</time>
      </trkpt>
      <trkpt lat="42.38454" lon="2.61163">
        <ele>693.3</ele>
        <time>2018-11-26T03:05:26Z</time>
      </trkpt>
      <trkpt lat="42.38453" lon="2.61164">
        <ele>693.1</ele>
        <time>2018-11-26T03:05:26Z</time>
      </trkpt>
      <trkpt lat="42.3845" lon="2.61167">
        <ele>691.1</ele>
        <time>2018-11-26T03:05:28Z</time>
      </trkpt>
      <trkpt lat="42.38448" lon="2.6117">
        <ele>691.3</ele>
        <time>2018-11-26T03:05:29Z</time>
      </trkpt>
      <trkpt lat="42.38448" lon="2.61171">
        <ele>691.2</ele>
        <time>2018-11-26T03:05:30Z</time>
      </trkpt>
      <trkpt lat="42.38446" lon="2.61173">
        <ele>691.1</ele>
        <time>2018-11-26T03:05:30Z</time>
      </trkpt>
      <trkpt lat="42.38444" lon="2.61175">
        <ele>691.1</ele>
        <time>2018-11-26T03:05:31Z</time>
      </trkpt>
      <trkpt lat="42.3844" lon="2.6118">
        <ele>690.7</ele>
        <time>2018-11-26T03:05:34Z</time>
      </trkpt>
      <trkpt lat="42.38438" lon="2.61182">
        <ele>690.9</ele>
        <time>2018-11-26T03:05:35Z</time>
      </trkpt>
      <trkpt lat="42.38437" lon="2.61183">
        <ele>691.1</ele>
        <time>2018-11-26T03:05:35Z</time>
      </trkpt>
      <trkpt lat="42.38435" lon="2.61185">
        <ele>691</ele>
        <time>2018-11-26T03:05:36Z</time>
      </trkpt>
      <trkpt lat="42.38434" lon="2.61185">
        <ele>690.9</ele>
        <time>2018-11-26T03:05:36Z</time>
      </trkpt>
      <trkpt lat="42.38432" lon="2.61186">
        <ele>690.7</ele>
        <time>2018-11-26T03:05:37Z</time>
      </trkpt>
      <trkpt lat="42.38431" lon="2.61187">
        <ele>690.7</ele>
        <time>2018-11-26T03:05:38Z</time>
      </trkpt>
      <trkpt lat="42.38428" lon="2.61189">
        <ele>690.5</ele>
        <time>2018-11-26T03:05:39Z</time>
      </trkpt>
      <trkpt lat="42.38428" lon="2.61189">
        <ele>690.5</ele>
        <time>2018-11-26T03:05:39Z</time>
      </trkpt>
      <trkpt lat="42.38426" lon="2.61191">
        <ele>690.2</ele>
        <time>2018-11-26T03:05:40Z</time>
      </trkpt>
      <trkpt lat="42.38422" lon="2.61193">
        <ele>689.1</ele>
        <time>2018-11-26T03:05:42Z</time>
      </trkpt>
      <trkpt lat="42.38422" lon="2.61193">
        <ele>689.2</ele>
        <time>2018-11-26T03:05:42Z</time>
      </trkpt>
      <trkpt lat="42.38421" lon="2.61194">
        <ele>689.7</ele>
        <time>2018-11-26T03:05:42Z</time>
      </trkpt>
      <trkpt lat="42.3842" lon="2.61194">
        <ele>690.1</ele>
        <time>2018-11-26T03:05:43Z</time>
      </trkpt>
      <trkpt lat="42.38418" lon="2.61196">
        <ele>690.9</ele>
        <time>2018-11-26T03:05:44Z</time>
      </trkpt>
      <trkpt lat="42.38417" lon="2.61197">
        <ele>691.1</ele>
        <time>2018-11-26T03:05:44Z</time>
      </trkpt>
      <trkpt lat="42.38415" lon="2.612">
        <ele>690.9</ele>
        <time>2018-11-26T03:05:45Z</time>
      </trkpt>
      <trkpt lat="42.38414" lon="2.612">
        <ele>690.9</ele>
        <time>2018-11-26T03:05:46Z</time>
      </trkpt>
      <trkpt lat="42.38412" lon="2.61203">
        <ele>690.8</ele>
        <time>2018-11-26T03:05:47Z</time>
      </trkpt>
      <trkpt lat="42.38411" lon="2.61204">
        <ele>690.7</ele>
        <time>2018-11-26T03:05:47Z</time>
      </trkpt>
      <trkpt lat="42.38411" lon="2.61205">
        <ele>690.8</ele>
        <time>2018-11-26T03:05:47Z</time>
      </trkpt>
      <trkpt lat="42.3841" lon="2.61205">
        <ele>690.7</ele>
        <time>2018-11-26T03:05:48Z</time>
      </trkpt>
      <trkpt lat="42.3841" lon="2.61207">
        <ele>690.4</ele>
        <time>2018-11-26T03:05:48Z</time>
      </trkpt>
      <trkpt lat="42.38409" lon="2.61208">
        <ele>690.2</ele>
        <time>2018-11-26T03:05:49Z</time>
      </trkpt>
      <trkpt lat="42.38409" lon="2.61209">
        <ele>689.9</ele>
        <time>2018-11-26T03:05:49Z</time>
      </trkpt>
      <trkpt lat="42.38408" lon="2.6121">
        <ele>689.7</ele>
        <time>2018-11-26T03:05:49Z</time>
      </trkpt>
      <trkpt lat="42.38408" lon="2.61211">
        <ele>689.5</ele>
        <time>2018-11-26T03:05:50Z</time>
      </trkpt>
      <trkpt lat="42.38407" lon="2.61212">
        <ele>689.1</ele>
        <time>2018-11-26T03:05:50Z</time>
      </trkpt>
      <trkpt lat="42.38407" lon="2.61213">
        <ele>689.1</ele>
        <time>2018-11-26T03:05:50Z</time>
      </trkpt>
      <trkpt lat="42.38405" lon="2.61217">
        <ele>689.6</ele>
        <time>2018-11-26T03:05:52Z</time>
      </trkpt>
      <trkpt lat="42.38405" lon="2.61218">
        <ele>689.9</ele>
        <time>2018-11-26T03:05:52Z</time>
      </trkpt>
      <trkpt lat="42.38405" lon="2.61219">
        <ele>690.4</ele>
        <time>2018-11-26T03:05:52Z</time>
      </trkpt>
      <trkpt lat="42.38405" lon="2.61219">
        <ele>690.3</ele>
        <time>2018-11-26T03:05:52Z</time>
      </trkpt>
      <trkpt lat="42.38405" lon="2.61219">
        <ele>690.3</ele>
        <time>2018-11-26T03:05:52Z</time>
      </trkpt>
      <trkpt lat="42.38405" lon="2.61219">
        <ele>690.2</ele>
        <time>2018-11-26T03:05:52Z</time>
      </trkpt>
      <trkpt lat="42.38405" lon="2.61219">
        <ele>690.1</ele>
        <time>2018-11-26T03:05:52Z</time>
      </trkpt>
      <trkpt lat="42.38405" lon="2.61219">
        <ele>689.9</ele>
        <time>2018-11-26T03:05:52Z</time>
      </trkpt>
      <trkpt lat="42.38405" lon="2.61219">
        <ele>689.7</ele>
        <time>2018-11-26T03:05:52Z</time>
      </trkpt>
      <trkpt lat="42.38405" lon="2.61219">
        <ele>689.5</ele>
        <time>2018-11-26T03:05:53Z</time>
      </trkpt>
      <trkpt lat="42.38405" lon="2.6122">
        <ele>689.3</ele>
        <time>2018-11-26T03:05:53Z</time>
      </trkpt>
      <trkpt lat="42.38405" lon="2.6122">
        <ele>689.1</ele>
        <time>2018-11-26T03:05:53Z</time>
      </trkpt>
      <trkpt lat="42.38405" lon="2.6122">
        <ele>688.8</ele>
        <time>2018-11-26T03:05:53Z</time>
      </trkpt>
      <trkpt lat="42.38405" lon="2.61221">
        <ele>688.8</ele>
        <time>2018-11-26T03:05:53Z</time>
      </trkpt>
      <trkpt lat="42.38405" lon="2.61222">
        <ele>688.9</ele>
        <time>2018-11-26T03:05:53Z</time>
      </trkpt>
      <trkpt lat="42.38404" lon="2.61226">
        <ele>689.5</ele>
        <time>2018-11-26T03:05:55Z</time>
      </trkpt>
      <trkpt lat="42.38404" lon="2.61228">
        <ele>690</ele>
        <time>2018-11-26T03:05:55Z</time>
      </trkpt>
      <trkpt lat="42.38404" lon="2.61229">
        <ele>689.8</ele>
        <time>2018-11-26T03:05:56Z</time>
      </trkpt>
      <trkpt lat="42.38403" lon="2.61231">
        <ele>689.4</ele>
        <time>2018-11-26T03:05:56Z</time>
      </trkpt>
      <trkpt lat="42.38403" lon="2.61234">
        <ele>689.2</ele>
        <time>2018-11-26T03:05:57Z</time>
      </trkpt>
      <trkpt lat="42.38403" lon="2.61236">
        <ele>689.2</ele>
        <time>2018-11-26T03:05:58Z</time>
      </trkpt>
      <trkpt lat="42.38402" lon="2.61241">
        <ele>689.5</ele>
        <time>2018-11-26T03:05:59Z</time>
      </trkpt>
      <trkpt lat="42.38395" lon="2.61263">
        <ele>688.3</ele>
        <time>2018-11-26T03:06:06Z</time>
      </trkpt>
      <trkpt lat="42.38395" lon="2.61264">
        <ele>688.2</ele>
        <time>2018-11-26T03:06:06Z</time>
      </trkpt>
      <trkpt lat="42.38393" lon="2.61271">
        <ele>688.1</ele>
        <time>2018-11-26T03:06:09Z</time>
      </trkpt>
      <trkpt lat="42.38393" lon="2.61273">
        <ele>688.4</ele>
        <time>2018-11-26T03:06:09Z</time>
      </trkpt>
      <trkpt lat="42.38393" lon="2.61274">
        <ele>688.9</ele>
        <time>2018-11-26T03:06:10Z</time>
      </trkpt>
      <trkpt lat="42.38388" lon="2.61323">
        <ele>686.9</ele>
        <time>2018-11-26T03:06:24Z</time>
      </trkpt>
      <trkpt lat="42.38388" lon="2.61327">
        <ele>686.8</ele>
        <time>2018-11-26T03:06:25Z</time>
      </trkpt>
      <trkpt lat="42.38388" lon="2.61339">
        <ele>686.4</ele>
        <time>2018-11-26T03:06:29Z</time>
      </trkpt>
      <trkpt lat="42.38388" lon="2.61343">
        <ele>686.1</ele>
        <time>2018-11-26T03:06:30Z</time>
      </trkpt>
      <trkpt lat="42.38387" lon="2.6135">
        <ele>686.8</ele>
        <time>2018-11-26T03:06:32Z</time>
      </trkpt>
      <trkpt lat="42.38386" lon="2.61352">
        <ele>686.9</ele>
        <time>2018-11-26T03:06:33Z</time>
      </trkpt>
      <trkpt lat="42.38386" lon="2.61353">
        <ele>687</ele>
        <time>2018-11-26T03:06:33Z</time>
      </trkpt>
      <trkpt lat="42.38387" lon="2.61355">
        <ele>686.9</ele>
        <time>2018-11-26T03:06:34Z</time>
      </trkpt>
      <trkpt lat="42.38387" lon="2.61356">
        <ele>686.8</ele>
        <time>2018-11-26T03:06:34Z</time>
      </trkpt>
      <trkpt lat="42.38387" lon="2.61356">
        <ele>686.5</ele>
        <time>2018-11-26T03:06:34Z</time>
      </trkpt>
      <trkpt lat="42.38387" lon="2.61357">
        <ele>686.4</ele>
        <time>2018-11-26T03:06:34Z</time>
      </trkpt>
      <trkpt lat="42.38387" lon="2.61357">
        <ele>686</ele>
        <time>2018-11-26T03:06:34Z</time>
      </trkpt>
      <trkpt lat="42.38387" lon="2.61358">
        <ele>685.7</ele>
        <time>2018-11-26T03:06:35Z</time>
      </trkpt>
      <trkpt lat="42.38387" lon="2.6136">
        <ele>685.3</ele>
        <time>2018-11-26T03:06:35Z</time>
      </trkpt>
      <trkpt lat="42.38387" lon="2.6137">
        <ele>685.4</ele>
        <time>2018-11-26T03:06:38Z</time>
      </trkpt>
      <trkpt lat="42.38387" lon="2.61372">
        <ele>685.3</ele>
        <time>2018-11-26T03:06:39Z</time>
      </trkpt>
      <trkpt lat="42.38388" lon="2.61375">
        <ele>684.9</ele>
        <time>2018-11-26T03:06:40Z</time>
      </trkpt>
      <trkpt lat="42.38389" lon="2.61383">
        <ele>684.7</ele>
        <time>2018-11-26T03:06:42Z</time>
      </trkpt>
      <trkpt lat="42.3839" lon="2.61392">
        <ele>684.3</ele>
        <time>2018-11-26T03:06:45Z</time>
      </trkpt>
      <trkpt lat="42.3839" lon="2.61393">
        <ele>684.3</ele>
        <time>2018-11-26T03:06:45Z</time>
      </trkpt>
      <trkpt lat="42.38391" lon="2.61396">
        <ele>684.3</ele>
        <time>2018-11-26T03:06:46Z</time>
      </trkpt>
      <trkpt lat="42.38391" lon="2.61398">
        <ele>684.1</ele>
        <time>2018-11-26T03:06:47Z</time>
      </trkpt>
      <trkpt lat="42.38392" lon="2.61399">
        <ele>684</ele>
        <time>2018-11-26T03:06:47Z</time>
      </trkpt>
      <trkpt lat="42.38392" lon="2.614">
        <ele>683.7</ele>
        <time>2018-11-26T03:06:47Z</time>
      </trkpt>
      <trkpt lat="42.38394" lon="2.61405">
        <ele>682.7</ele>
        <time>2018-11-26T03:06:49Z</time>
      </trkpt>
      <trkpt lat="42.38394" lon="2.61408">
        <ele>682.6</ele>
        <time>2018-11-26T03:06:50Z</time>
      </trkpt>
      <trkpt lat="42.38395" lon="2.61409">
        <ele>682.4</ele>
        <time>2018-11-26T03:06:50Z</time>
      </trkpt>
      <trkpt lat="42.38395" lon="2.61411">
        <ele>682.3</ele>
        <time>2018-11-26T03:06:51Z</time>
      </trkpt>
      <trkpt lat="42.38395" lon="2.61412">
        <ele>682</ele>
        <time>2018-11-26T03:06:51Z</time>
      </trkpt>
      <trkpt lat="42.38396" lon="2.61413">
        <ele>682</ele>
        <time>2018-11-26T03:06:52Z</time>
      </trkpt>
      <trkpt lat="42.38398" lon="2.61418">
        <ele>682.1</ele>
        <time>2018-11-26T03:06:53Z</time>
      </trkpt>
      <trkpt lat="42.384" lon="2.61423">
        <ele>681.4</ele>
        <time>2018-11-26T03:06:55Z</time>
      </trkpt>
      <trkpt lat="42.38402" lon="2.61425">
        <ele>681.5</ele>
        <time>2018-11-26T03:06:56Z</time>
      </trkpt>
      <trkpt lat="42.38402" lon="2.61426">
        <ele>681.6</ele>
        <time>2018-11-26T03:06:56Z</time>
      </trkpt>
      <trkpt lat="42.38403" lon="2.61429">
        <ele>682</ele>
        <time>2018-11-26T03:06:57Z</time>
      </trkpt>
      <trkpt lat="42.38404" lon="2.6143">
        <ele>682.1</ele>
        <time>2018-11-26T03:06:57Z</time>
      </trkpt>
      <trkpt lat="42.38404" lon="2.61431">
        <ele>682.3</ele>
        <time>2018-11-26T03:06:58Z</time>
      </trkpt>
      <trkpt lat="42.38405" lon="2.61433">
        <ele>681.9</ele>
        <time>2018-11-26T03:06:59Z</time>
      </trkpt>
      <trkpt lat="42.38406" lon="2.61438">
        <ele>681.2</ele>
        <time>2018-11-26T03:07:00Z</time>
      </trkpt>
      <trkpt lat="42.38406" lon="2.6144">
        <ele>681</ele>
        <time>2018-11-26T03:07:01Z</time>
      </trkpt>
      <trkpt lat="42.38407" lon="2.61441">
        <ele>680.8</ele>
        <time>2018-11-26T03:07:01Z</time>
      </trkpt>
      <trkpt lat="42.38407" lon="2.61444">
        <ele>680.4</ele>
        <time>2018-11-26T03:07:02Z</time>
      </trkpt>
      <trkpt lat="42.38407" lon="2.61446">
        <ele>680.5</ele>
        <time>2018-11-26T03:07:02Z</time>
      </trkpt>
      <trkpt lat="42.38406" lon="2.6145">
        <ele>681</ele>
        <time>2018-11-26T03:07:04Z</time>
      </trkpt>
      <trkpt lat="42.38405" lon="2.61455">
        <ele>681.6</ele>
        <time>2018-11-26T03:07:05Z</time>
      </trkpt>
      <trkpt lat="42.38405" lon="2.61456">
        <ele>681.4</ele>
        <time>2018-11-26T03:07:05Z</time>
      </trkpt>
      <trkpt lat="42.38405" lon="2.61457">
        <ele>681.2</ele>
        <time>2018-11-26T03:07:06Z</time>
      </trkpt>
      <trkpt lat="42.38404" lon="2.61459">
        <ele>680.7</ele>
        <time>2018-11-26T03:07:07Z</time>
      </trkpt>
      <trkpt lat="42.38403" lon="2.6146">
        <ele>680.4</ele>
        <time>2018-11-26T03:07:07Z</time>
      </trkpt>
      <trkpt lat="42.38403" lon="2.61461">
        <ele>680.6</ele>
        <time>2018-11-26T03:07:07Z</time>
      </trkpt>
      <trkpt lat="42.38401" lon="2.61461">
        <ele>681.3</ele>
        <time>2018-11-26T03:07:08Z</time>
      </trkpt>
      <trkpt lat="42.384" lon="2.61461">
        <ele>681.2</ele>
        <time>2018-11-26T03:07:08Z</time>
      </trkpt>
      <trkpt lat="42.384" lon="2.61461">
        <ele>681.1</ele>
        <time>2018-11-26T03:07:08Z</time>
      </trkpt>
      <trkpt lat="42.384" lon="2.61461">
        <ele>681.1</ele>
        <time>2018-11-26T03:07:08Z</time>
      </trkpt>
      <trkpt lat="42.384" lon="2.61461">
        <ele>681</ele>
        <time>2018-11-26T03:07:08Z</time>
      </trkpt>
      <trkpt lat="42.384" lon="2.61461">
        <ele>680.9</ele>
        <time>2018-11-26T03:07:09Z</time>
      </trkpt>
      <trkpt lat="42.384" lon="2.61461">
        <ele>681</ele>
        <time>2018-11-26T03:07:09Z</time>
      </trkpt>
      <trkpt lat="42.38399" lon="2.61461">
        <ele>680.7</ele>
        <time>2018-11-26T03:07:09Z</time>
      </trkpt>
      <trkpt lat="42.38399" lon="2.61461">
        <ele>680.6</ele>
        <time>2018-11-26T03:07:09Z</time>
      </trkpt>
      <trkpt lat="42.38398" lon="2.61461">
        <ele>680.5</ele>
        <time>2018-11-26T03:07:09Z</time>
      </trkpt>
      <trkpt lat="42.38398" lon="2.61461">
        <ele>680.5</ele>
        <time>2018-11-26T03:07:09Z</time>
      </trkpt>
      <trkpt lat="42.38398" lon="2.6146">
        <ele>680.5</ele>
        <time>2018-11-26T03:07:09Z</time>
      </trkpt>
      <trkpt lat="42.38398" lon="2.61461">
        <ele>680.4</ele>
        <time>2018-11-26T03:07:09Z</time>
      </trkpt>
      <trkpt lat="42.38398" lon="2.6146">
        <ele>680.4</ele>
        <time>2018-11-26T03:07:10Z</time>
      </trkpt>
      <trkpt lat="42.38389" lon="2.61472">
        <ele>680.5</ele>
        <time>2018-11-26T03:07:15Z</time>
      </trkpt>
      <trkpt lat="42.38388" lon="2.61473">
        <ele>680.2</ele>
        <time>2018-11-26T03:07:15Z</time>
      </trkpt>
      <trkpt lat="42.38388" lon="2.61474">
        <ele>679.7</ele>
        <time>2018-11-26T03:07:15Z</time>
      </trkpt>
      <trkpt lat="42.38388" lon="2.61475">
        <ele>679.8</ele>
        <time>2018-11-26T03:07:16Z</time>
      </trkpt>
      <trkpt lat="42.38388" lon="2.61476">
        <ele>679.9</ele>
        <time>2018-11-26T03:07:16Z</time>
      </trkpt>
      <trkpt lat="42.38387" lon="2.61478">
        <ele>679.9</ele>
        <time>2018-11-26T03:07:17Z</time>
      </trkpt>
      <trkpt lat="42.38386" lon="2.6148">
        <ele>680.1</ele>
        <time>2018-11-26T03:07:17Z</time>
      </trkpt>
      <trkpt lat="42.38384" lon="2.61482">
        <ele>680</ele>
        <time>2018-11-26T03:07:18Z</time>
      </trkpt>
      <trkpt lat="42.38384" lon="2.61482">
        <ele>679.9</ele>
        <time>2018-11-26T03:07:18Z</time>
      </trkpt>
      <trkpt lat="42.38383" lon="2.61483">
        <ele>679.8</ele>
        <time>2018-11-26T03:07:19Z</time>
      </trkpt>
      <trkpt lat="42.38382" lon="2.61484">
        <ele>679.5</ele>
        <time>2018-11-26T03:07:19Z</time>
      </trkpt>
      <trkpt lat="42.38382" lon="2.61484">
        <ele>679.3</ele>
        <time>2018-11-26T03:07:19Z</time>
      </trkpt>
      <trkpt lat="42.38381" lon="2.61485">
        <ele>679.1</ele>
        <time>2018-11-26T03:07:20Z</time>
      </trkpt>
      <trkpt lat="42.3838" lon="2.61485">
        <ele>679.3</ele>
        <time>2018-11-26T03:07:20Z</time>
      </trkpt>
      <trkpt lat="42.38379" lon="2.61486">
        <ele>679.5</ele>
        <time>2018-11-26T03:07:20Z</time>
      </trkpt>
      <trkpt lat="42.38377" lon="2.61489">
        <ele>679.7</ele>
        <time>2018-11-26T03:07:22Z</time>
      </trkpt>
      <trkpt lat="42.38376" lon="2.6149">
        <ele>679.5</ele>
        <time>2018-11-26T03:07:22Z</time>
      </trkpt>
      <trkpt lat="42.38372" lon="2.61492">
        <ele>679.7</ele>
        <time>2018-11-26T03:07:24Z</time>
      </trkpt>
      <trkpt lat="42.38371" lon="2.61492">
        <ele>680</ele>
        <time>2018-11-26T03:07:24Z</time>
      </trkpt>
      <trkpt lat="42.3837" lon="2.61493">
        <ele>680.3</ele>
        <time>2018-11-26T03:07:25Z</time>
      </trkpt>
      <trkpt lat="42.38369" lon="2.61494">
        <ele>680.3</ele>
        <time>2018-11-26T03:07:25Z</time>
      </trkpt>
      <trkpt lat="42.38369" lon="2.61494">
        <ele>680.2</ele>
        <time>2018-11-26T03:07:25Z</time>
      </trkpt>
      <trkpt lat="42.38368" lon="2.61495">
        <ele>680</ele>
        <time>2018-11-26T03:07:26Z</time>
      </trkpt>
      <trkpt lat="42.38367" lon="2.61495">
        <ele>679.9</ele>
        <time>2018-11-26T03:07:26Z</time>
      </trkpt>
      <trkpt lat="42.38366" lon="2.61496">
        <ele>679.8</ele>
        <time>2018-11-26T03:07:26Z</time>
      </trkpt>
      <trkpt lat="42.38366" lon="2.61496">
        <ele>679.6</ele>
        <time>2018-11-26T03:07:27Z</time>
      </trkpt>
      <trkpt lat="42.38365" lon="2.61497">
        <ele>679.7</ele>
        <time>2018-11-26T03:07:27Z</time>
      </trkpt>
      <trkpt lat="42.38364" lon="2.61497">
        <ele>679.6</ele>
        <time>2018-11-26T03:07:28Z</time>
      </trkpt>
      <trkpt lat="42.38363" lon="2.61498">
        <ele>679.7</ele>
        <time>2018-11-26T03:07:28Z</time>
      </trkpt>
      <trkpt lat="42.38362" lon="2.61498">
        <ele>679.8</ele>
        <time>2018-11-26T03:07:28Z</time>
      </trkpt>
      <trkpt lat="42.38362" lon="2.61498">
        <ele>679.8</ele>
        <time>2018-11-26T03:07:29Z</time>
      </trkpt>
      <trkpt lat="42.38361" lon="2.61499">
        <ele>679.9</ele>
        <time>2018-11-26T03:07:29Z</time>
      </trkpt>
      <trkpt lat="42.3836" lon="2.61499">
        <ele>680</ele>
        <time>2018-11-26T03:07:29Z</time>
      </trkpt>
      <trkpt lat="42.38359" lon="2.61499">
        <ele>679.8</ele>
        <time>2018-11-26T03:07:30Z</time>
      </trkpt>
      <trkpt lat="42.38359" lon="2.615">
        <ele>679.9</ele>
        <time>2018-11-26T03:07:30Z</time>
      </trkpt>
      <trkpt lat="42.38358" lon="2.615">
        <ele>679.8</ele>
        <time>2018-11-26T03:07:30Z</time>
      </trkpt>
      <trkpt lat="42.38357" lon="2.615">
        <ele>680</ele>
        <time>2018-11-26T03:07:31Z</time>
      </trkpt>
      <trkpt lat="42.38356" lon="2.615">
        <ele>680.1</ele>
        <time>2018-11-26T03:07:31Z</time>
      </trkpt>
      <trkpt lat="42.38353" lon="2.615">
        <ele>680.1</ele>
        <time>2018-11-26T03:07:32Z</time>
      </trkpt>
      <trkpt lat="42.38352" lon="2.615">
        <ele>680</ele>
        <time>2018-11-26T03:07:33Z</time>
      </trkpt>
      <trkpt lat="42.38351" lon="2.615">
        <ele>680.1</ele>
        <time>2018-11-26T03:07:33Z</time>
      </trkpt>
      <trkpt lat="42.3835" lon="2.61501">
        <ele>680.2</ele>
        <time>2018-11-26T03:07:33Z</time>
      </trkpt>
      <trkpt lat="42.38349" lon="2.61501">
        <ele>680.3</ele>
        <time>2018-11-26T03:07:34Z</time>
      </trkpt>
      <trkpt lat="42.38349" lon="2.61501">
        <ele>680.5</ele>
        <time>2018-11-26T03:07:34Z</time>
      </trkpt>
      <trkpt lat="42.38348" lon="2.61502">
        <ele>680.1</ele>
        <time>2018-11-26T03:07:34Z</time>
      </trkpt>
      <trkpt lat="42.38347" lon="2.61502">
        <ele>679.8</ele>
        <time>2018-11-26T03:07:35Z</time>
      </trkpt>
      <trkpt lat="42.38346" lon="2.61502">
        <ele>679.4</ele>
        <time>2018-11-26T03:07:35Z</time>
      </trkpt>
      <trkpt lat="42.38346" lon="2.61503">
        <ele>679.6</ele>
        <time>2018-11-26T03:07:35Z</time>
      </trkpt>
      <trkpt lat="42.38346" lon="2.61503">
        <ele>679.9</ele>
        <time>2018-11-26T03:07:35Z</time>
      </trkpt>
      <trkpt lat="42.38345" lon="2.61504">
        <ele>680.2</ele>
        <time>2018-11-26T03:07:36Z</time>
      </trkpt>
      <trkpt lat="42.38345" lon="2.61504">
        <ele>680.2</ele>
        <time>2018-11-26T03:07:36Z</time>
      </trkpt>
      <trkpt lat="42.38345" lon="2.61505">
        <ele>679.9</ele>
        <time>2018-11-26T03:07:36Z</time>
      </trkpt>
      <trkpt lat="42.38345" lon="2.61505">
        <ele>679.6</ele>
        <time>2018-11-26T03:07:36Z</time>
      </trkpt>
      <trkpt lat="42.38344" lon="2.61505">
        <ele>679.8</ele>
        <time>2018-11-26T03:07:36Z</time>
      </trkpt>
      <trkpt lat="42.38344" lon="2.61505">
        <ele>679.8</ele>
        <time>2018-11-26T03:07:36Z</time>
      </trkpt>
      <trkpt lat="42.38343" lon="2.61505">
        <ele>679.8</ele>
        <time>2018-11-26T03:07:37Z</time>
      </trkpt>
      <trkpt lat="42.38342" lon="2.61505">
        <ele>679.9</ele>
        <time>2018-11-26T03:07:37Z</time>
      </trkpt>
      <trkpt lat="42.3834" lon="2.61505">
        <ele>680.1</ele>
        <time>2018-11-26T03:07:38Z</time>
      </trkpt>
      <trkpt lat="42.38339" lon="2.61505">
        <ele>680.3</ele>
        <time>2018-11-26T03:07:38Z</time>
      </trkpt>
      <trkpt lat="42.38336" lon="2.61504">
        <ele>681.3</ele>
        <time>2018-11-26T03:07:39Z</time>
      </trkpt>
      <trkpt lat="42.38335" lon="2.61503">
        <ele>681.5</ele>
        <time>2018-11-26T03:07:40Z</time>
      </trkpt>
      <trkpt lat="42.38334" lon="2.61503">
        <ele>681.6</ele>
        <time>2018-11-26T03:07:41Z</time>
      </trkpt>
      <trkpt lat="42.38333" lon="2.61503">
        <ele>681.4</ele>
        <time>2018-11-26T03:07:41Z</time>
      </trkpt>
      <trkpt lat="42.38332" lon="2.61502">
        <ele>681.4</ele>
        <time>2018-11-26T03:07:41Z</time>
      </trkpt>
      <trkpt lat="42.38331" lon="2.61502">
        <ele>681.2</ele>
        <time>2018-11-26T03:07:42Z</time>
      </trkpt>
      <trkpt lat="42.3833" lon="2.61502">
        <ele>681.5</ele>
        <time>2018-11-26T03:07:42Z</time>
      </trkpt>
      <trkpt lat="42.38329" lon="2.61502">
        <ele>681.8</ele>
        <time>2018-11-26T03:07:42Z</time>
      </trkpt>
      <trkpt lat="42.38329" lon="2.61501">
        <ele>682</ele>
        <time>2018-11-26T03:07:43Z</time>
      </trkpt>
      <trkpt lat="42.38328" lon="2.61501">
        <ele>681.7</ele>
        <time>2018-11-26T03:07:43Z</time>
      </trkpt>
      <trkpt lat="42.38327" lon="2.61501">
        <ele>681.4</ele>
        <time>2018-11-26T03:07:43Z</time>
      </trkpt>
      <trkpt lat="42.38326" lon="2.61501">
        <ele>680.8</ele>
        <time>2018-11-26T03:07:44Z</time>
      </trkpt>
      <trkpt lat="42.38326" lon="2.615">
        <ele>680.9</ele>
        <time>2018-11-26T03:07:44Z</time>
      </trkpt>
      <trkpt lat="42.38325" lon="2.615">
        <ele>680.8</ele>
        <time>2018-11-26T03:07:44Z</time>
      </trkpt>
      <trkpt lat="42.38324" lon="2.615">
        <ele>680.8</ele>
        <time>2018-11-26T03:07:45Z</time>
      </trkpt>
      <trkpt lat="42.38323" lon="2.615">
        <ele>680.8</ele>
        <time>2018-11-26T03:07:45Z</time>
      </trkpt>
      <trkpt lat="42.38322" lon="2.615">
        <ele>681</ele>
        <time>2018-11-26T03:07:45Z</time>
      </trkpt>
      <trkpt lat="42.38321" lon="2.615">
        <ele>681.5</ele>
        <time>2018-11-26T03:07:46Z</time>
      </trkpt>
      <trkpt lat="42.3832" lon="2.61501">
        <ele>682</ele>
        <time>2018-11-26T03:07:46Z</time>
      </trkpt>
      <trkpt lat="42.38318" lon="2.61501">
        <ele>682</ele>
        <time>2018-11-26T03:07:47Z</time>
      </trkpt>
      <trkpt lat="42.38314" lon="2.615">
        <ele>682.1</ele>
        <time>2018-11-26T03:07:48Z</time>
      </trkpt>
      <trkpt lat="42.38313" lon="2.615">
        <ele>682</ele>
        <time>2018-11-26T03:07:49Z</time>
      </trkpt>
      <trkpt lat="42.38312" lon="2.615">
        <ele>682.1</ele>
        <time>2018-11-26T03:07:49Z</time>
      </trkpt>
      <trkpt lat="42.3831" lon="2.615">
        <ele>682.4</ele>
        <time>2018-11-26T03:07:50Z</time>
      </trkpt>
      <trkpt lat="42.38309" lon="2.61499">
        <ele>682.5</ele>
        <time>2018-11-26T03:07:51Z</time>
      </trkpt>
      <trkpt lat="42.38308" lon="2.61499">
        <ele>682.7</ele>
        <time>2018-11-26T03:07:51Z</time>
      </trkpt>
      <trkpt lat="42.38307" lon="2.61498">
        <ele>683</ele>
        <time>2018-11-26T03:07:51Z</time>
      </trkpt>
      <trkpt lat="42.38306" lon="2.61498">
        <ele>683.2</ele>
        <time>2018-11-26T03:07:52Z</time>
      </trkpt>
      <trkpt lat="42.38306" lon="2.61497">
        <ele>683</ele>
        <time>2018-11-26T03:07:52Z</time>
      </trkpt>
      <trkpt lat="42.38305" lon="2.61497">
        <ele>682.8</ele>
        <time>2018-11-26T03:07:52Z</time>
      </trkpt>
      <trkpt lat="42.38303" lon="2.61495">
        <ele>682.5</ele>
        <time>2018-11-26T03:07:53Z</time>
      </trkpt>
      <trkpt lat="42.38303" lon="2.61494">
        <ele>682.5</ele>
        <time>2018-11-26T03:07:54Z</time>
      </trkpt>
      <trkpt lat="42.38302" lon="2.61494">
        <ele>682.4</ele>
        <time>2018-11-26T03:07:54Z</time>
      </trkpt>
      <trkpt lat="42.383" lon="2.61491">
        <ele>683.1</ele>
        <time>2018-11-26T03:07:55Z</time>
      </trkpt>
      <trkpt lat="42.38299" lon="2.6149">
        <ele>683.3</ele>
        <time>2018-11-26T03:07:55Z</time>
      </trkpt>
      <trkpt lat="42.38299" lon="2.61489">
        <ele>683.6</ele>
        <time>2018-11-26T03:07:56Z</time>
      </trkpt>
      <trkpt lat="42.38298" lon="2.61488">
        <ele>683.9</ele>
        <time>2018-11-26T03:07:56Z</time>
      </trkpt>
      <trkpt lat="42.38298" lon="2.61487">
        <ele>684.2</ele>
        <time>2018-11-26T03:07:56Z</time>
      </trkpt>
      <trkpt lat="42.38297" lon="2.61485">
        <ele>684.7</ele>
        <time>2018-11-26T03:07:57Z</time>
      </trkpt>
      <trkpt lat="42.38296" lon="2.61482">
        <ele>685.1</ele>
        <time>2018-11-26T03:07:58Z</time>
      </trkpt>
      <trkpt lat="42.38296" lon="2.61481">
        <ele>685.1</ele>
        <time>2018-11-26T03:07:58Z</time>
      </trkpt>
      <trkpt lat="42.38295" lon="2.6148">
        <ele>684.8</ele>
        <time>2018-11-26T03:07:59Z</time>
      </trkpt>
      <trkpt lat="42.38293" lon="2.61477">
        <ele>684.7</ele>
        <time>2018-11-26T03:08:00Z</time>
      </trkpt>
      <trkpt lat="42.38293" lon="2.61476">
        <ele>684.8</ele>
        <time>2018-11-26T03:08:00Z</time>
      </trkpt>
      <trkpt lat="42.38292" lon="2.61475">
        <ele>684.9</ele>
        <time>2018-11-26T03:08:01Z</time>
      </trkpt>
      <trkpt lat="42.3829" lon="2.61468">
        <ele>685.7</ele>
        <time>2018-11-26T03:08:03Z</time>
      </trkpt>
      <trkpt lat="42.38289" lon="2.61467">
        <ele>685.4</ele>
        <time>2018-11-26T03:08:03Z</time>
      </trkpt>
      <trkpt lat="42.38289" lon="2.61466">
        <ele>685.1</ele>
        <time>2018-11-26T03:08:04Z</time>
      </trkpt>
      <trkpt lat="42.38287" lon="2.61464">
        <ele>685.4</ele>
        <time>2018-11-26T03:08:04Z</time>
      </trkpt>
      <trkpt lat="42.38287" lon="2.61463">
        <ele>685.7</ele>
        <time>2018-11-26T03:08:05Z</time>
      </trkpt>
      <trkpt lat="42.38286" lon="2.61462">
        <ele>686</ele>
        <time>2018-11-26T03:08:05Z</time>
      </trkpt>
      <trkpt lat="42.38285" lon="2.6146">
        <ele>686.7</ele>
        <time>2018-11-26T03:08:06Z</time>
      </trkpt>
      <trkpt lat="42.38285" lon="2.61459">
        <ele>686.5</ele>
        <time>2018-11-26T03:08:06Z</time>
      </trkpt>
      <trkpt lat="42.38284" lon="2.61458">
        <ele>686.4</ele>
        <time>2018-11-26T03:08:07Z</time>
      </trkpt>
      <trkpt lat="42.38283" lon="2.61457">
        <ele>686.2</ele>
        <time>2018-11-26T03:08:07Z</time>
      </trkpt>
      <trkpt lat="42.3828" lon="2.61453">
        <ele>685.9</ele>
        <time>2018-11-26T03:08:09Z</time>
      </trkpt>
      <trkpt lat="42.38279" lon="2.61453">
        <ele>685.6</ele>
        <time>2018-11-26T03:08:09Z</time>
      </trkpt>
      <trkpt lat="42.38278" lon="2.61452">
        <ele>685.2</ele>
        <time>2018-11-26T03:08:10Z</time>
      </trkpt>
      <trkpt lat="42.38274" lon="2.6145">
        <ele>684.8</ele>
        <time>2018-11-26T03:08:12Z</time>
      </trkpt>
      <trkpt lat="42.38273" lon="2.6145">
        <ele>684.9</ele>
        <time>2018-11-26T03:08:12Z</time>
      </trkpt>
      <trkpt lat="42.38271" lon="2.61449">
        <ele>685.1</ele>
        <time>2018-11-26T03:08:13Z</time>
      </trkpt>
      <trkpt lat="42.3827" lon="2.61448">
        <ele>685.3</ele>
        <time>2018-11-26T03:08:13Z</time>
      </trkpt>
      <trkpt lat="42.38269" lon="2.61448">
        <ele>685.5</ele>
        <time>2018-11-26T03:08:14Z</time>
      </trkpt>
      <trkpt lat="42.38267" lon="2.61447">
        <ele>686</ele>
        <time>2018-11-26T03:08:14Z</time>
      </trkpt>
      <trkpt lat="42.38266" lon="2.61446">
        <ele>686</ele>
        <time>2018-11-26T03:08:15Z</time>
      </trkpt>
      <trkpt lat="42.38266" lon="2.61446">
        <ele>686.1</ele>
        <time>2018-11-26T03:08:15Z</time>
      </trkpt>
      <trkpt lat="42.38265" lon="2.61447">
        <ele>686.3</ele>
        <time>2018-11-26T03:08:15Z</time>
      </trkpt>
      <trkpt lat="42.38264" lon="2.61447">
        <ele>686.2</ele>
        <time>2018-11-26T03:08:16Z</time>
      </trkpt>
      <trkpt lat="42.38264" lon="2.61447">
        <ele>686</ele>
        <time>2018-11-26T03:08:16Z</time>
      </trkpt>
      <trkpt lat="42.38263" lon="2.61447">
        <ele>685.8</ele>
        <time>2018-11-26T03:08:16Z</time>
      </trkpt>
      <trkpt lat="42.38262" lon="2.61447">
        <ele>686</ele>
        <time>2018-11-26T03:08:17Z</time>
      </trkpt>
      <trkpt lat="42.38261" lon="2.61447">
        <ele>686</ele>
        <time>2018-11-26T03:08:17Z</time>
      </trkpt>
      <trkpt lat="42.3826" lon="2.61447">
        <ele>686</ele>
        <time>2018-11-26T03:08:17Z</time>
      </trkpt>
      <trkpt lat="42.3826" lon="2.61447">
        <ele>686.2</ele>
        <time>2018-11-26T03:08:17Z</time>
      </trkpt>
      <trkpt lat="42.38259" lon="2.61448">
        <ele>686</ele>
        <time>2018-11-26T03:08:18Z</time>
      </trkpt>
      <trkpt lat="42.38258" lon="2.61448">
        <ele>685.8</ele>
        <time>2018-11-26T03:08:18Z</time>
      </trkpt>
      <trkpt lat="42.38257" lon="2.61448">
        <ele>685.5</ele>
        <time>2018-11-26T03:08:19Z</time>
      </trkpt>
      <trkpt lat="42.38256" lon="2.61449">
        <ele>685.5</ele>
        <time>2018-11-26T03:08:19Z</time>
      </trkpt>
      <trkpt lat="42.38256" lon="2.6145">
        <ele>685.4</ele>
        <time>2018-11-26T03:08:19Z</time>
      </trkpt>
      <trkpt lat="42.38255" lon="2.6145">
        <ele>685.3</ele>
        <time>2018-11-26T03:08:20Z</time>
      </trkpt>
      <trkpt lat="42.38254" lon="2.61451">
        <ele>685.3</ele>
        <time>2018-11-26T03:08:20Z</time>
      </trkpt>
      <trkpt lat="42.38254" lon="2.61452">
        <ele>685.3</ele>
        <time>2018-11-26T03:08:20Z</time>
      </trkpt>
      <trkpt lat="42.38253" lon="2.61453">
        <ele>685.4</ele>
        <time>2018-11-26T03:08:21Z</time>
      </trkpt>
      <trkpt lat="42.38252" lon="2.61454">
        <ele>685.4</ele>
        <time>2018-11-26T03:08:21Z</time>
      </trkpt>
      <trkpt lat="42.38252" lon="2.61455">
        <ele>685.7</ele>
        <time>2018-11-26T03:08:21Z</time>
      </trkpt>
      <trkpt lat="42.38251" lon="2.61456">
        <ele>685.9</ele>
        <time>2018-11-26T03:08:22Z</time>
      </trkpt>
      <trkpt lat="42.38251" lon="2.61457">
        <ele>685.9</ele>
        <time>2018-11-26T03:08:22Z</time>
      </trkpt>
      <trkpt lat="42.3825" lon="2.61458">
        <ele>685.8</ele>
        <time>2018-11-26T03:08:23Z</time>
      </trkpt>
      <trkpt lat="42.3825" lon="2.61459">
        <ele>685.8</ele>
        <time>2018-11-26T03:08:23Z</time>
      </trkpt>
      <trkpt lat="42.38249" lon="2.6146">
        <ele>685.7</ele>
        <time>2018-11-26T03:08:23Z</time>
      </trkpt>
      <trkpt lat="42.38249" lon="2.61461">
        <ele>685.8</ele>
        <time>2018-11-26T03:08:24Z</time>
      </trkpt>
      <trkpt lat="42.38248" lon="2.61462">
        <ele>686</ele>
        <time>2018-11-26T03:08:24Z</time>
      </trkpt>
      <trkpt lat="42.38248" lon="2.61463">
        <ele>686.1</ele>
        <time>2018-11-26T03:08:24Z</time>
      </trkpt>
      <trkpt lat="42.38247" lon="2.61466">
        <ele>686.5</ele>
        <time>2018-11-26T03:08:25Z</time>
      </trkpt>
      <trkpt lat="42.38247" lon="2.61467">
        <ele>686.7</ele>
        <time>2018-11-26T03:08:26Z</time>
      </trkpt>
      <trkpt lat="42.38246" lon="2.61468">
        <ele>686.5</ele>
        <time>2018-11-26T03:08:26Z</time>
      </trkpt>
      <trkpt lat="42.38246" lon="2.61469">
        <ele>686.3</ele>
        <time>2018-11-26T03:08:26Z</time>
      </trkpt>
      <trkpt lat="42.38245" lon="2.6147">
        <ele>686.2</ele>
        <time>2018-11-26T03:08:27Z</time>
      </trkpt>
      <trkpt lat="42.38245" lon="2.61471">
        <ele>686</ele>
        <time>2018-11-26T03:08:27Z</time>
      </trkpt>
      <trkpt lat="42.38244" lon="2.61472">
        <ele>685.8</ele>
        <time>2018-11-26T03:08:27Z</time>
      </trkpt>
      <trkpt lat="42.38244" lon="2.61473">
        <ele>685.7</ele>
        <time>2018-11-26T03:08:28Z</time>
      </trkpt>
      <trkpt lat="42.38243" lon="2.61474">
        <ele>685.8</ele>
        <time>2018-11-26T03:08:28Z</time>
      </trkpt>
      <trkpt lat="42.38243" lon="2.61474">
        <ele>685.7</ele>
        <time>2018-11-26T03:08:28Z</time>
      </trkpt>
      <trkpt lat="42.38243" lon="2.61475">
        <ele>685.8</ele>
        <time>2018-11-26T03:08:28Z</time>
      </trkpt>
      <trkpt lat="42.38243" lon="2.61476">
        <ele>685.9</ele>
        <time>2018-11-26T03:08:29Z</time>
      </trkpt>
      <trkpt lat="42.38242" lon="2.61476">
        <ele>685.9</ele>
        <time>2018-11-26T03:08:29Z</time>
      </trkpt>
      <trkpt lat="42.38242" lon="2.61477">
        <ele>686</ele>
        <time>2018-11-26T03:08:29Z</time>
      </trkpt>
      <trkpt lat="42.38241" lon="2.61478">
        <ele>686.2</ele>
        <time>2018-11-26T03:08:30Z</time>
      </trkpt>
      <trkpt lat="42.3824" lon="2.6148">
        <ele>686.6</ele>
        <time>2018-11-26T03:08:30Z</time>
      </trkpt>
      <trkpt lat="42.3824" lon="2.61481">
        <ele>687</ele>
        <time>2018-11-26T03:08:31Z</time>
      </trkpt>
      <trkpt lat="42.3824" lon="2.61482">
        <ele>686.9</ele>
        <time>2018-11-26T03:08:31Z</time>
      </trkpt>
      <trkpt lat="42.38239" lon="2.61482">
        <ele>686.7</ele>
        <time>2018-11-26T03:08:31Z</time>
      </trkpt>
      <trkpt lat="42.38239" lon="2.61483">
        <ele>686.2</ele>
        <time>2018-11-26T03:08:31Z</time>
      </trkpt>
      <trkpt lat="42.38239" lon="2.61484">
        <ele>686.3</ele>
        <time>2018-11-26T03:08:32Z</time>
      </trkpt>
      <trkpt lat="42.38238" lon="2.61484">
        <ele>686.1</ele>
        <time>2018-11-26T03:08:32Z</time>
      </trkpt>
      <trkpt lat="42.38238" lon="2.61485">
        <ele>686</ele>
        <time>2018-11-26T03:08:32Z</time>
      </trkpt>
      <trkpt lat="42.38238" lon="2.61485">
        <ele>686</ele>
        <time>2018-11-26T03:08:32Z</time>
      </trkpt>
      <trkpt lat="42.38238" lon="2.61485">
        <ele>686.1</ele>
        <time>2018-11-26T03:08:32Z</time>
      </trkpt>
      <trkpt lat="42.38238" lon="2.61485">
        <ele>686</ele>
        <time>2018-11-26T03:08:32Z</time>
      </trkpt>
      <trkpt lat="42.38238" lon="2.61485">
        <ele>686</ele>
        <time>2018-11-26T03:08:32Z</time>
      </trkpt>
      <trkpt lat="42.38238" lon="2.61485">
        <ele>686</ele>
        <time>2018-11-26T03:08:32Z</time>
      </trkpt>
      <trkpt lat="42.38238" lon="2.61485">
        <ele>686.1</ele>
        <time>2018-11-26T03:08:32Z</time>
      </trkpt>
      <trkpt lat="42.38238" lon="2.61485">
        <ele>686.1</ele>
        <time>2018-11-26T03:08:32Z</time>
      </trkpt>
      <trkpt lat="42.38237" lon="2.61485">
        <ele>686.1</ele>
        <time>2018-11-26T03:08:32Z</time>
      </trkpt>
      <trkpt lat="42.38237" lon="2.61484">
        <ele>685.9</ele>
        <time>2018-11-26T03:08:33Z</time>
      </trkpt>
      <trkpt lat="42.38237" lon="2.61484">
        <ele>685.7</ele>
        <time>2018-11-26T03:08:33Z</time>
      </trkpt>
      <trkpt lat="42.38237" lon="2.61484">
        <ele>685.8</ele>
        <time>2018-11-26T03:08:33Z</time>
      </trkpt>
      <trkpt lat="42.38237" lon="2.61484">
        <ele>685.8</ele>
        <time>2018-11-26T03:08:33Z</time>
      </trkpt>
      <trkpt lat="42.38237" lon="2.61484">
        <ele>685.7</ele>
        <time>2018-11-26T03:08:33Z</time>
      </trkpt>
      <trkpt lat="42.38237" lon="2.61483">
        <ele>685.7</ele>
        <time>2018-11-26T03:08:33Z</time>
      </trkpt>
      <trkpt lat="42.38237" lon="2.61483">
        <ele>685.6</ele>
        <time>2018-11-26T03:08:33Z</time>
      </trkpt>
      <trkpt lat="42.38237" lon="2.61483">
        <ele>685.6</ele>
        <time>2018-11-26T03:08:33Z</time>
      </trkpt>
      <trkpt lat="42.38237" lon="2.61483">
        <ele>685.8</ele>
        <time>2018-11-26T03:08:33Z</time>
      </trkpt>
      <trkpt lat="42.38236" lon="2.61482">
        <ele>685.9</ele>
        <time>2018-11-26T03:08:33Z</time>
      </trkpt>
      <trkpt lat="42.38236" lon="2.61482">
        <ele>686.2</ele>
        <time>2018-11-26T03:08:33Z</time>
      </trkpt>
      <trkpt lat="42.38236" lon="2.61482">
        <ele>686.4</ele>
        <time>2018-11-26T03:08:33Z</time>
      </trkpt>
      <trkpt lat="42.38236" lon="2.61482">
        <ele>686.4</ele>
        <time>2018-11-26T03:08:33Z</time>
      </trkpt>
      <trkpt lat="42.38236" lon="2.61482">
        <ele>686.3</ele>
        <time>2018-11-26T03:08:33Z</time>
      </trkpt>
      <trkpt lat="42.38236" lon="2.61482">
        <ele>686.2</ele>
        <time>2018-11-26T03:08:33Z</time>
      </trkpt>
      <trkpt lat="42.38237" lon="2.61483">
        <ele>686.3</ele>
        <time>2018-11-26T03:08:34Z</time>
      </trkpt>
      <trkpt lat="42.38237" lon="2.61483">
        <ele>686.3</ele>
        <time>2018-11-26T03:08:34Z</time>
      </trkpt>
      <trkpt lat="42.38237" lon="2.61484">
        <ele>686.5</ele>
        <time>2018-11-26T03:08:34Z</time>
      </trkpt>
      <trkpt lat="42.38236" lon="2.61486">
        <ele>686.4</ele>
        <time>2018-11-26T03:08:35Z</time>
      </trkpt>
      <trkpt lat="42.38236" lon="2.61487">
        <ele>686.4</ele>
        <time>2018-11-26T03:08:35Z</time>
      </trkpt>
      <trkpt lat="42.38235" lon="2.61489">
        <ele>686.3</ele>
        <time>2018-11-26T03:08:36Z</time>
      </trkpt>
      <trkpt lat="42.38234" lon="2.61491">
        <ele>686.4</ele>
        <time>2018-11-26T03:08:36Z</time>
      </trkpt>
      <trkpt lat="42.38233" lon="2.61492">
        <ele>686.4</ele>
        <time>2018-11-26T03:08:37Z</time>
      </trkpt>
      <trkpt lat="42.38233" lon="2.61493">
        <ele>686.4</ele>
        <time>2018-11-26T03:08:37Z</time>
      </trkpt>
      <trkpt lat="42.38232" lon="2.61494">
        <ele>686.5</ele>
        <time>2018-11-26T03:08:38Z</time>
      </trkpt>
      <trkpt lat="42.38232" lon="2.61495">
        <ele>686.6</ele>
        <time>2018-11-26T03:08:38Z</time>
      </trkpt>
      <trkpt lat="42.38231" lon="2.61496">
        <ele>686.7</ele>
        <time>2018-11-26T03:08:38Z</time>
      </trkpt>
      <trkpt lat="42.38231" lon="2.61496">
        <ele>686.8</ele>
        <time>2018-11-26T03:08:38Z</time>
      </trkpt>
      <trkpt lat="42.38231" lon="2.61497">
        <ele>686.8</ele>
        <time>2018-11-26T03:08:39Z</time>
      </trkpt>
      <trkpt lat="42.3823" lon="2.61497">
        <ele>686.8</ele>
        <time>2018-11-26T03:08:39Z</time>
      </trkpt>
      <trkpt lat="42.3823" lon="2.61498">
        <ele>686.8</ele>
        <time>2018-11-26T03:08:39Z</time>
      </trkpt>
      <trkpt lat="42.3823" lon="2.61498">
        <ele>686.6</ele>
        <time>2018-11-26T03:08:39Z</time>
      </trkpt>
      <trkpt lat="42.38229" lon="2.61498">
        <ele>686.6</ele>
        <time>2018-11-26T03:08:39Z</time>
      </trkpt>
      <trkpt lat="42.38229" lon="2.61498">
        <ele>686.2</ele>
        <time>2018-11-26T03:08:39Z</time>
      </trkpt>
      <trkpt lat="42.38229" lon="2.61498">
        <ele>685.9</ele>
        <time>2018-11-26T03:08:40Z</time>
      </trkpt>
      <trkpt lat="42.38228" lon="2.61498">
        <ele>685.9</ele>
        <time>2018-11-26T03:08:40Z</time>
      </trkpt>
      <trkpt lat="42.38228" lon="2.61499">
        <ele>686.1</ele>
        <time>2018-11-26T03:08:40Z</time>
      </trkpt>
      <trkpt lat="42.38228" lon="2.61498">
        <ele>686.1</ele>
        <time>2018-11-26T03:08:40Z</time>
      </trkpt>
      <trkpt lat="42.38227" lon="2.61498">
        <ele>686.1</ele>
        <time>2018-11-26T03:08:40Z</time>
      </trkpt>
      <trkpt lat="42.38227" lon="2.61498">
        <ele>686</ele>
        <time>2018-11-26T03:08:40Z</time>
      </trkpt>
      <trkpt lat="42.38227" lon="2.61498">
        <ele>685.8</ele>
        <time>2018-11-26T03:08:40Z</time>
      </trkpt>
      <trkpt lat="42.38227" lon="2.61498">
        <ele>685.9</ele>
        <time>2018-11-26T03:08:41Z</time>
      </trkpt>
      <trkpt lat="42.38227" lon="2.61498">
        <ele>686.1</ele>
        <time>2018-11-26T03:08:41Z</time>
      </trkpt>
      <trkpt lat="42.38227" lon="2.61497">
        <ele>686.2</ele>
        <time>2018-11-26T03:08:41Z</time>
      </trkpt>
      <trkpt lat="42.38228" lon="2.61497">
        <ele>686.5</ele>
        <time>2018-11-26T03:08:41Z</time>
      </trkpt>
      <trkpt lat="42.38228" lon="2.61496">
        <ele>686.3</ele>
        <time>2018-11-26T03:08:42Z</time>
      </trkpt>
      <trkpt lat="42.38228" lon="2.61495">
        <ele>686.1</ele>
        <time>2018-11-26T03:08:42Z</time>
      </trkpt>
      <trkpt lat="42.38228" lon="2.61495">
        <ele>685.8</ele>
        <time>2018-11-26T03:08:42Z</time>
      </trkpt>
      <trkpt lat="42.38228" lon="2.61495">
        <ele>685.8</ele>
        <time>2018-11-26T03:08:42Z</time>
      </trkpt>
      <trkpt lat="42.38228" lon="2.61494">
        <ele>685.9</ele>
        <time>2018-11-26T03:08:42Z</time>
      </trkpt>
      <trkpt lat="42.38228" lon="2.61493">
        <ele>686.2</ele>
        <time>2018-11-26T03:08:42Z</time>
      </trkpt>
      <trkpt lat="42.38229" lon="2.61492">
        <ele>686</ele>
        <time>2018-11-26T03:08:43Z</time>
      </trkpt>
      <trkpt lat="42.38229" lon="2.61492">
        <ele>686.1</ele>
        <time>2018-11-26T03:08:43Z</time>
      </trkpt>
      <trkpt lat="42.38229" lon="2.61491">
        <ele>686.1</ele>
        <time>2018-11-26T03:08:43Z</time>
      </trkpt>
      <trkpt lat="42.3823" lon="2.61491">
        <ele>686</ele>
        <time>2018-11-26T03:08:43Z</time>
      </trkpt>
      <trkpt lat="42.3823" lon="2.6149">
        <ele>686.1</ele>
        <time>2018-11-26T03:08:44Z</time>
      </trkpt>
      <trkpt lat="42.3823" lon="2.6149">
        <ele>686.3</ele>
        <time>2018-11-26T03:08:44Z</time>
      </trkpt>
      <trkpt lat="42.3823" lon="2.6149">
        <ele>686</ele>
        <time>2018-11-26T03:08:44Z</time>
      </trkpt>
      <trkpt lat="42.3823" lon="2.6149">
        <ele>685.9</ele>
        <time>2018-11-26T03:08:44Z</time>
      </trkpt>
      <trkpt lat="42.3823" lon="2.6149">
        <ele>685.8</ele>
        <time>2018-11-26T03:08:44Z</time>
      </trkpt>
      <trkpt lat="42.38231" lon="2.6149">
        <ele>685.7</ele>
        <time>2018-11-26T03:08:44Z</time>
      </trkpt>
      <trkpt lat="42.38231" lon="2.61489">
        <ele>685.6</ele>
        <time>2018-11-26T03:08:44Z</time>
      </trkpt>
      <trkpt lat="42.38232" lon="2.61488">
        <ele>685.5</ele>
        <time>2018-11-26T03:08:45Z</time>
      </trkpt>
      <trkpt lat="42.38232" lon="2.61487">
        <ele>685.6</ele>
        <time>2018-11-26T03:08:45Z</time>
      </trkpt>
      <trkpt lat="42.38232" lon="2.61486">
        <ele>685.7</ele>
        <time>2018-11-26T03:08:45Z</time>
      </trkpt>
      <trkpt lat="42.38232" lon="2.61485">
        <ele>685.8</ele>
        <time>2018-11-26T03:08:45Z</time>
      </trkpt>
      <trkpt lat="42.38232" lon="2.61485">
        <ele>685.9</ele>
        <time>2018-11-26T03:08:45Z</time>
      </trkpt>
      <trkpt lat="42.38232" lon="2.61486">
        <ele>686.1</ele>
        <time>2018-11-26T03:08:46Z</time>
      </trkpt>
      <trkpt lat="42.38232" lon="2.61486">
        <ele>686.4</ele>
        <time>2018-11-26T03:08:46Z</time>
      </trkpt>
      <trkpt lat="42.38232" lon="2.61486">
        <ele>686.5</ele>
        <time>2018-11-26T03:08:46Z</time>
      </trkpt>
      <trkpt lat="42.38232" lon="2.61486">
        <ele>686.9</ele>
        <time>2018-11-26T03:08:46Z</time>
      </trkpt>
      <trkpt lat="42.38232" lon="2.61486">
        <ele>686.8</ele>
        <time>2018-11-26T03:08:46Z</time>
      </trkpt>
      <trkpt lat="42.38231" lon="2.61487">
        <ele>686.7</ele>
        <time>2018-11-26T03:08:46Z</time>
      </trkpt>
      <trkpt lat="42.38231" lon="2.61487">
        <ele>686.5</ele>
        <time>2018-11-26T03:08:46Z</time>
      </trkpt>
      <trkpt lat="42.38231" lon="2.61487">
        <ele>686.3</ele>
        <time>2018-11-26T03:08:46Z</time>
      </trkpt>
      <trkpt lat="42.38231" lon="2.61487">
        <ele>686.5</ele>
        <time>2018-11-26T03:08:46Z</time>
      </trkpt>
      <trkpt lat="42.38231" lon="2.61487">
        <ele>686.7</ele>
        <time>2018-11-26T03:08:46Z</time>
      </trkpt>
      <trkpt lat="42.38231" lon="2.61488">
        <ele>686.9</ele>
        <time>2018-11-26T03:08:46Z</time>
      </trkpt>
      <trkpt lat="42.38231" lon="2.61488">
        <ele>686.6</ele>
        <time>2018-11-26T03:08:46Z</time>
      </trkpt>
      <trkpt lat="42.38231" lon="2.61488">
        <ele>686.4</ele>
        <time>2018-11-26T03:08:47Z</time>
      </trkpt>
      <trkpt lat="42.38231" lon="2.61489">
        <ele>686.1</ele>
        <time>2018-11-26T03:08:47Z</time>
      </trkpt>
      <trkpt lat="42.38231" lon="2.61489">
        <ele>686.3</ele>
        <time>2018-11-26T03:08:47Z</time>
      </trkpt>
      <trkpt lat="42.38231" lon="2.61489">
        <ele>686.6</ele>
        <time>2018-11-26T03:08:47Z</time>
      </trkpt>
      <trkpt lat="42.38231" lon="2.61489">
        <ele>686.9</ele>
        <time>2018-11-26T03:08:47Z</time>
      </trkpt>
      <trkpt lat="42.38231" lon="2.6149">
        <ele>687</ele>
        <time>2018-11-26T03:08:47Z</time>
      </trkpt>
      <trkpt lat="42.3823" lon="2.61491">
        <ele>687</ele>
        <time>2018-11-26T03:08:47Z</time>
      </trkpt>
      <trkpt lat="42.38226" lon="2.61508">
        <ele>687.1</ele>
        <time>2018-11-26T03:08:53Z</time>
      </trkpt>
      <trkpt lat="42.38225" lon="2.61512">
        <ele>687.2</ele>
        <time>2018-11-26T03:08:54Z</time>
      </trkpt>
      <trkpt lat="42.38225" lon="2.61514">
        <ele>687.3</ele>
        <time>2018-11-26T03:08:55Z</time>
      </trkpt>
      <trkpt lat="42.38224" lon="2.61516">
        <ele>687.2</ele>
        <time>2018-11-26T03:08:55Z</time>
      </trkpt>
      <trkpt lat="42.38224" lon="2.61518">
        <ele>687.5</ele>
        <time>2018-11-26T03:08:56Z</time>
      </trkpt>
      <trkpt lat="42.38222" lon="2.61526">
        <ele>687.5</ele>
        <time>2018-11-26T03:08:58Z</time>
      </trkpt>
      <trkpt lat="42.3822" lon="2.61532">
        <ele>686.3</ele>
        <time>2018-11-26T03:09:00Z</time>
      </trkpt>
      <trkpt lat="42.3822" lon="2.61534">
        <ele>686.1</ele>
        <time>2018-11-26T03:09:01Z</time>
      </trkpt>
      <trkpt lat="42.3822" lon="2.61536">
        <ele>686</ele>
        <time>2018-11-26T03:09:02Z</time>
      </trkpt>
      <trkpt lat="42.3822" lon="2.61539">
        <ele>686</ele>
        <time>2018-11-26T03:09:02Z</time>
      </trkpt>
      <trkpt lat="42.38219" lon="2.61541">
        <ele>686.2</ele>
        <time>2018-11-26T03:09:03Z</time>
      </trkpt>
      <trkpt lat="42.38218" lon="2.61548">
        <ele>686.9</ele>
        <time>2018-11-26T03:09:05Z</time>
      </trkpt>
      <trkpt lat="42.38218" lon="2.6155">
        <ele>687.6</ele>
        <time>2018-11-26T03:09:06Z</time>
      </trkpt>
      <trkpt lat="42.38214" lon="2.61575">
        <ele>686.9</ele>
        <time>2018-11-26T03:09:13Z</time>
      </trkpt>
      <trkpt lat="42.38213" lon="2.61578">
        <ele>686.8</ele>
        <time>2018-11-26T03:09:14Z</time>
      </trkpt>
      <trkpt lat="42.3821" lon="2.61587">
        <ele>686.9</ele>
        <time>2018-11-26T03:09:17Z</time>
      </trkpt>
      <trkpt lat="42.3821" lon="2.61589">
        <ele>686.9</ele>
        <time>2018-11-26T03:09:18Z</time>
      </trkpt>
      <trkpt lat="42.38207" lon="2.61595">
        <ele>687</ele>
        <time>2018-11-26T03:09:20Z</time>
      </trkpt>
      <trkpt lat="42.38206" lon="2.61596">
        <ele>687</ele>
        <time>2018-11-26T03:09:20Z</time>
      </trkpt>
      <trkpt lat="42.38204" lon="2.61599">
        <ele>687.1</ele>
        <time>2018-11-26T03:09:22Z</time>
      </trkpt>
      <trkpt lat="42.38202" lon="2.61602">
        <ele>687</ele>
        <time>2018-11-26T03:09:23Z</time>
      </trkpt>
      <trkpt lat="42.38201" lon="2.61603">
        <ele>687.1</ele>
        <time>2018-11-26T03:09:23Z</time>
      </trkpt>
      <trkpt lat="42.38196" lon="2.61606">
        <ele>687.2</ele>
        <time>2018-11-26T03:09:25Z</time>
      </trkpt>
      <trkpt lat="42.38194" lon="2.61606">
        <ele>687.4</ele>
        <time>2018-11-26T03:09:26Z</time>
      </trkpt>
      <trkpt lat="42.38192" lon="2.61608">
        <ele>687.5</ele>
        <time>2018-11-26T03:09:27Z</time>
      </trkpt>
      <trkpt lat="42.38191" lon="2.61609">
        <ele>687.6</ele>
        <time>2018-11-26T03:09:27Z</time>
      </trkpt>
      <trkpt lat="42.38188" lon="2.61612">
        <ele>688.1</ele>
        <time>2018-11-26T03:09:29Z</time>
      </trkpt>
      <trkpt lat="42.38188" lon="2.61612">
        <ele>687.9</ele>
        <time>2018-11-26T03:09:29Z</time>
      </trkpt>
      <trkpt lat="42.38187" lon="2.61613">
        <ele>687.7</ele>
        <time>2018-11-26T03:09:30Z</time>
      </trkpt>
      <trkpt lat="42.38186" lon="2.61614">
        <ele>687.5</ele>
        <time>2018-11-26T03:09:30Z</time>
      </trkpt>
      <trkpt lat="42.38185" lon="2.61615">
        <ele>687.8</ele>
        <time>2018-11-26T03:09:30Z</time>
      </trkpt>
      <trkpt lat="42.38184" lon="2.61616">
        <ele>688.1</ele>
        <time>2018-11-26T03:09:31Z</time>
      </trkpt>
      <trkpt lat="42.38182" lon="2.61618">
        <ele>688.9</ele>
        <time>2018-11-26T03:09:32Z</time>
      </trkpt>
      <trkpt lat="42.38181" lon="2.61619">
        <ele>688.6</ele>
        <time>2018-11-26T03:09:33Z</time>
      </trkpt>
      <trkpt lat="42.3818" lon="2.6162">
        <ele>688.4</ele>
        <time>2018-11-26T03:09:33Z</time>
      </trkpt>
      <trkpt lat="42.38179" lon="2.61621">
        <ele>688.2</ele>
        <time>2018-11-26T03:09:34Z</time>
      </trkpt>
      <trkpt lat="42.38179" lon="2.61622">
        <ele>688.1</ele>
        <time>2018-11-26T03:09:34Z</time>
      </trkpt>
      <trkpt lat="42.38176" lon="2.61626">
        <ele>687.5</ele>
        <time>2018-11-26T03:09:35Z</time>
      </trkpt>
      <trkpt lat="42.38172" lon="2.6163">
        <ele>686.4</ele>
        <time>2018-11-26T03:09:37Z</time>
      </trkpt>
      <trkpt lat="42.38171" lon="2.61632">
        <ele>686.9</ele>
        <time>2018-11-26T03:09:38Z</time>
      </trkpt>
      <trkpt lat="42.3817" lon="2.61633">
        <ele>687.3</ele>
        <time>2018-11-26T03:09:39Z</time>
      </trkpt>
      <trkpt lat="42.38169" lon="2.61634">
        <ele>687.8</ele>
        <time>2018-11-26T03:09:39Z</time>
      </trkpt>
      <trkpt lat="42.38168" lon="2.61635">
        <ele>687.7</ele>
        <time>2018-11-26T03:09:40Z</time>
      </trkpt>
      <trkpt lat="42.38167" lon="2.61636">
        <ele>687.6</ele>
        <time>2018-11-26T03:09:40Z</time>
      </trkpt>
      <trkpt lat="42.38157" lon="2.61649">
        <ele>687.9</ele>
        <time>2018-11-26T03:09:46Z</time>
      </trkpt>
      <trkpt lat="42.38153" lon="2.61654">
        <ele>686.7</ele>
        <time>2018-11-26T03:09:48Z</time>
      </trkpt>
      <trkpt lat="42.38149" lon="2.61659">
        <ele>687.8</ele>
        <time>2018-11-26T03:09:50Z</time>
      </trkpt>
      <trkpt lat="42.38148" lon="2.61661">
        <ele>687.5</ele>
        <time>2018-11-26T03:09:51Z</time>
      </trkpt>
      <trkpt lat="42.38147" lon="2.61663">
        <ele>687.3</ele>
        <time>2018-11-26T03:09:51Z</time>
      </trkpt>
      <trkpt lat="42.38146" lon="2.61664">
        <ele>687.1</ele>
        <time>2018-11-26T03:09:52Z</time>
      </trkpt>
      <trkpt lat="42.38146" lon="2.61665">
        <ele>686.8</ele>
        <time>2018-11-26T03:09:52Z</time>
      </trkpt>
      <trkpt lat="42.38145" lon="2.61669">
        <ele>686.7</ele>
        <time>2018-11-26T03:09:54Z</time>
      </trkpt>
      <trkpt lat="42.38144" lon="2.6167">
        <ele>686.8</ele>
        <time>2018-11-26T03:09:54Z</time>
      </trkpt>
      <trkpt lat="42.38143" lon="2.61671">
        <ele>686.9</ele>
        <time>2018-11-26T03:09:54Z</time>
      </trkpt>
      <trkpt lat="42.38142" lon="2.61674">
        <ele>687.2</ele>
        <time>2018-11-26T03:09:55Z</time>
      </trkpt>
      <trkpt lat="42.38142" lon="2.61675">
        <ele>687.5</ele>
        <time>2018-11-26T03:09:56Z</time>
      </trkpt>
      <trkpt lat="42.38141" lon="2.61676">
        <ele>687.8</ele>
        <time>2018-11-26T03:09:56Z</time>
      </trkpt>
      <trkpt lat="42.38141" lon="2.61677">
        <ele>688.3</ele>
        <time>2018-11-26T03:09:56Z</time>
      </trkpt>
      <trkpt lat="42.3814" lon="2.61678">
        <ele>687.9</ele>
        <time>2018-11-26T03:09:57Z</time>
      </trkpt>
      <trkpt lat="42.3814" lon="2.61679">
        <ele>687.6</ele>
        <time>2018-11-26T03:09:57Z</time>
      </trkpt>
      <trkpt lat="42.38139" lon="2.6168">
        <ele>687.2</ele>
        <time>2018-11-26T03:09:57Z</time>
      </trkpt>
      <trkpt lat="42.38138" lon="2.61681">
        <ele>687.2</ele>
        <time>2018-11-26T03:09:58Z</time>
      </trkpt>
      <trkpt lat="42.38137" lon="2.61682">
        <ele>687.2</ele>
        <time>2018-11-26T03:09:58Z</time>
      </trkpt>
      <trkpt lat="42.38137" lon="2.61683">
        <ele>687.4</ele>
        <time>2018-11-26T03:09:59Z</time>
      </trkpt>
      <trkpt lat="42.38136" lon="2.61684">
        <ele>687.3</ele>
        <time>2018-11-26T03:09:59Z</time>
      </trkpt>
      <trkpt lat="42.38136" lon="2.61685">
        <ele>687.2</ele>
        <time>2018-11-26T03:09:59Z</time>
      </trkpt>
      <trkpt lat="42.38134" lon="2.61688">
        <ele>687</ele>
        <time>2018-11-26T03:10:01Z</time>
      </trkpt>
      <trkpt lat="42.38133" lon="2.61689">
        <ele>687.1</ele>
        <time>2018-11-26T03:10:01Z</time>
      </trkpt>
      <trkpt lat="42.38132" lon="2.6169">
        <ele>687.1</ele>
        <time>2018-11-26T03:10:02Z</time>
      </trkpt>
      <trkpt lat="42.38132" lon="2.61691">
        <ele>687</ele>
        <time>2018-11-26T03:10:02Z</time>
      </trkpt>
      <trkpt lat="42.38132" lon="2.61693">
        <ele>686.8</ele>
        <time>2018-11-26T03:10:02Z</time>
      </trkpt>
      <trkpt lat="42.38131" lon="2.61694">
        <ele>686.6</ele>
        <time>2018-11-26T03:10:03Z</time>
      </trkpt>
      <trkpt lat="42.3813" lon="2.61695">
        <ele>686.8</ele>
        <time>2018-11-26T03:10:03Z</time>
      </trkpt>
      <trkpt lat="42.3813" lon="2.61695">
        <ele>686.9</ele>
        <time>2018-11-26T03:10:03Z</time>
      </trkpt>
      <trkpt lat="42.38129" lon="2.61696">
        <ele>686.9</ele>
        <time>2018-11-26T03:10:04Z</time>
      </trkpt>
      <trkpt lat="42.38129" lon="2.61697">
        <ele>687</ele>
        <time>2018-11-26T03:10:04Z</time>
      </trkpt>
      <trkpt lat="42.38128" lon="2.61698">
        <ele>687.3</ele>
        <time>2018-11-26T03:10:04Z</time>
      </trkpt>
      <trkpt lat="42.38128" lon="2.61699">
        <ele>687.3</ele>
        <time>2018-11-26T03:10:05Z</time>
      </trkpt>
      <trkpt lat="42.38127" lon="2.617">
        <ele>687.3</ele>
        <time>2018-11-26T03:10:05Z</time>
      </trkpt>
      <trkpt lat="42.38127" lon="2.61701">
        <ele>687.3</ele>
        <time>2018-11-26T03:10:05Z</time>
      </trkpt>
      <trkpt lat="42.38127" lon="2.61702">
        <ele>687.2</ele>
        <time>2018-11-26T03:10:06Z</time>
      </trkpt>
      <trkpt lat="42.38127" lon="2.61702">
        <ele>687.3</ele>
        <time>2018-11-26T03:10:06Z</time>
      </trkpt>
      <trkpt lat="42.38127" lon="2.61702">
        <ele>687.2</ele>
        <time>2018-11-26T03:10:06Z</time>
      </trkpt>
      <trkpt lat="42.38126" lon="2.61703">
        <ele>687.1</ele>
        <time>2018-11-26T03:10:06Z</time>
      </trkpt>
      <trkpt lat="42.38126" lon="2.61704">
        <ele>687.2</ele>
        <time>2018-11-26T03:10:07Z</time>
      </trkpt>
      <trkpt lat="42.38125" lon="2.61705">
        <ele>687</ele>
        <time>2018-11-26T03:10:07Z</time>
      </trkpt>
      <trkpt lat="42.38125" lon="2.61707">
        <ele>687</ele>
        <time>2018-11-26T03:10:07Z</time>
      </trkpt>
      <trkpt lat="42.38124" lon="2.61708">
        <ele>686.9</ele>
        <time>2018-11-26T03:10:08Z</time>
      </trkpt>
      <trkpt lat="42.38122" lon="2.61709">
        <ele>686.8</ele>
        <time>2018-11-26T03:10:09Z</time>
      </trkpt>
      <trkpt lat="42.38117" lon="2.61715">
        <ele>686.5</ele>
        <time>2018-11-26T03:10:11Z</time>
      </trkpt>
      <trkpt lat="42.38116" lon="2.61716">
        <ele>686.6</ele>
        <time>2018-11-26T03:10:12Z</time>
      </trkpt>
      <trkpt lat="42.38111" lon="2.61726">
        <ele>687.3</ele>
        <time>2018-11-26T03:10:15Z</time>
      </trkpt>
      <trkpt lat="42.38109" lon="2.61729">
        <ele>687.1</ele>
        <time>2018-11-26T03:10:17Z</time>
      </trkpt>
      <trkpt lat="42.38108" lon="2.61731">
        <ele>687.2</ele>
        <time>2018-11-26T03:10:17Z</time>
      </trkpt>
      <trkpt lat="42.38108" lon="2.61732">
        <ele>687.3</ele>
        <time>2018-11-26T03:10:18Z</time>
      </trkpt>
      <trkpt lat="42.38108" lon="2.61734">
        <ele>687.2</ele>
        <time>2018-11-26T03:10:18Z</time>
      </trkpt>
      <trkpt lat="42.38108" lon="2.61735">
        <ele>687</ele>
        <time>2018-11-26T03:10:18Z</time>
      </trkpt>
      <trkpt lat="42.38108" lon="2.61736">
        <ele>686.5</ele>
        <time>2018-11-26T03:10:19Z</time>
      </trkpt>
      <trkpt lat="42.38107" lon="2.61737">
        <ele>686</ele>
        <time>2018-11-26T03:10:19Z</time>
      </trkpt>
      <trkpt lat="42.38107" lon="2.61738">
        <ele>686.3</ele>
        <time>2018-11-26T03:10:20Z</time>
      </trkpt>
      <trkpt lat="42.38106" lon="2.61739">
        <ele>686.8</ele>
        <time>2018-11-26T03:10:20Z</time>
      </trkpt>
      <trkpt lat="42.38105" lon="2.61739">
        <ele>687.3</ele>
        <time>2018-11-26T03:10:20Z</time>
      </trkpt>
      <trkpt lat="42.38105" lon="2.6174">
        <ele>687.3</ele>
        <time>2018-11-26T03:10:21Z</time>
      </trkpt>
      <trkpt lat="42.38104" lon="2.61741">
        <ele>687</ele>
        <time>2018-11-26T03:10:21Z</time>
      </trkpt>
      <trkpt lat="42.38103" lon="2.61742">
        <ele>686.8</ele>
        <time>2018-11-26T03:10:21Z</time>
      </trkpt>
      <trkpt lat="42.38102" lon="2.61742">
        <ele>686.6</ele>
        <time>2018-11-26T03:10:22Z</time>
      </trkpt>
      <trkpt lat="42.38102" lon="2.61742">
        <ele>686.3</ele>
        <time>2018-11-26T03:10:22Z</time>
      </trkpt>
      <trkpt lat="42.381" lon="2.61743">
        <ele>685.7</ele>
        <time>2018-11-26T03:10:23Z</time>
      </trkpt>
      <trkpt lat="42.38099" lon="2.61744">
        <ele>685.6</ele>
        <time>2018-11-26T03:10:23Z</time>
      </trkpt>
      <trkpt lat="42.38099" lon="2.61744">
        <ele>685.7</ele>
        <time>2018-11-26T03:10:23Z</time>
      </trkpt>
      <trkpt lat="42.38098" lon="2.61744">
        <ele>685.7</ele>
        <time>2018-11-26T03:10:24Z</time>
      </trkpt>
      <trkpt lat="42.38097" lon="2.61745">
        <ele>686</ele>
        <time>2018-11-26T03:10:24Z</time>
      </trkpt>
      <trkpt lat="42.38096" lon="2.61745">
        <ele>686.1</ele>
        <time>2018-11-26T03:10:24Z</time>
      </trkpt>
      <trkpt lat="42.38095" lon="2.61746">
        <ele>686.5</ele>
        <time>2018-11-26T03:10:25Z</time>
      </trkpt>
      <trkpt lat="42.38093" lon="2.61748">
        <ele>686.1</ele>
        <time>2018-11-26T03:10:26Z</time>
      </trkpt>
      <trkpt lat="42.3809" lon="2.6175">
        <ele>686.2</ele>
        <time>2018-11-26T03:10:27Z</time>
      </trkpt>
      <trkpt lat="42.38089" lon="2.6175">
        <ele>686.3</ele>
        <time>2018-11-26T03:10:27Z</time>
      </trkpt>
      <trkpt lat="42.38088" lon="2.61752">
        <ele>686.6</ele>
        <time>2018-11-26T03:10:28Z</time>
      </trkpt>
      <trkpt lat="42.3808" lon="2.61759">
        <ele>686.7</ele>
        <time>2018-11-26T03:10:32Z</time>
      </trkpt>
      <trkpt lat="42.3808" lon="2.6176">
        <ele>686.5</ele>
        <time>2018-11-26T03:10:32Z</time>
      </trkpt>
      <trkpt lat="42.38079" lon="2.6176">
        <ele>686.7</ele>
        <time>2018-11-26T03:10:33Z</time>
      </trkpt>
      <trkpt lat="42.38078" lon="2.61761">
        <ele>686.8</ele>
        <time>2018-11-26T03:10:33Z</time>
      </trkpt>
      <trkpt lat="42.38077" lon="2.61762">
        <ele>686.8</ele>
        <time>2018-11-26T03:10:33Z</time>
      </trkpt>
      <trkpt lat="42.38076" lon="2.61763">
        <ele>686.9</ele>
        <time>2018-11-26T03:10:34Z</time>
      </trkpt>
      <trkpt lat="42.38076" lon="2.61763">
        <ele>686.7</ele>
        <time>2018-11-26T03:10:34Z</time>
      </trkpt>
      <trkpt lat="42.38075" lon="2.61764">
        <ele>686.8</ele>
        <time>2018-11-26T03:10:35Z</time>
      </trkpt>
      <trkpt lat="42.38074" lon="2.61764">
        <ele>686.6</ele>
        <time>2018-11-26T03:10:35Z</time>
      </trkpt>
      <trkpt lat="42.38073" lon="2.61765">
        <ele>686.6</ele>
        <time>2018-11-26T03:10:35Z</time>
      </trkpt>
      <trkpt lat="42.38073" lon="2.61765">
        <ele>686.7</ele>
        <time>2018-11-26T03:10:36Z</time>
      </trkpt>
      <trkpt lat="42.38072" lon="2.61766">
        <ele>686.8</ele>
        <time>2018-11-26T03:10:36Z</time>
      </trkpt>
      <trkpt lat="42.38071" lon="2.61767">
        <ele>687.1</ele>
        <time>2018-11-26T03:10:36Z</time>
      </trkpt>
      <trkpt lat="42.38071" lon="2.61768">
        <ele>687.3</ele>
        <time>2018-11-26T03:10:37Z</time>
      </trkpt>
      <trkpt lat="42.3807" lon="2.61769">
        <ele>687.6</ele>
        <time>2018-11-26T03:10:37Z</time>
      </trkpt>
      <trkpt lat="42.38069" lon="2.6177">
        <ele>687.6</ele>
        <time>2018-11-26T03:10:38Z</time>
      </trkpt>
      <trkpt lat="42.38068" lon="2.61771">
        <ele>687.3</ele>
        <time>2018-11-26T03:10:38Z</time>
      </trkpt>
      <trkpt lat="42.38067" lon="2.61772">
        <ele>687.1</ele>
        <time>2018-11-26T03:10:39Z</time>
      </trkpt>
      <trkpt lat="42.38066" lon="2.61773">
        <ele>687.1</ele>
        <time>2018-11-26T03:10:39Z</time>
      </trkpt>
      <trkpt lat="42.38065" lon="2.61774">
        <ele>687.2</ele>
        <time>2018-11-26T03:10:39Z</time>
      </trkpt>
      <trkpt lat="42.38065" lon="2.61775">
        <ele>687.1</ele>
        <time>2018-11-26T03:10:40Z</time>
      </trkpt>
      <trkpt lat="42.38064" lon="2.61776">
        <ele>687</ele>
        <time>2018-11-26T03:10:40Z</time>
      </trkpt>
      <trkpt lat="42.38063" lon="2.61776">
        <ele>686.9</ele>
        <time>2018-11-26T03:10:41Z</time>
      </trkpt>
      <trkpt lat="42.38062" lon="2.61778">
        <ele>686.6</ele>
        <time>2018-11-26T03:10:41Z</time>
      </trkpt>
      <trkpt lat="42.38061" lon="2.61779">
        <ele>686.6</ele>
        <time>2018-11-26T03:10:42Z</time>
      </trkpt>
      <trkpt lat="42.3806" lon="2.6178">
        <ele>686.6</ele>
        <time>2018-11-26T03:10:42Z</time>
      </trkpt>
      <trkpt lat="42.38056" lon="2.61784">
        <ele>686.2</ele>
        <time>2018-11-26T03:10:44Z</time>
      </trkpt>
      <trkpt lat="42.38056" lon="2.61785">
        <ele>686.1</ele>
        <time>2018-11-26T03:10:44Z</time>
      </trkpt>
      <trkpt lat="42.38055" lon="2.61786">
        <ele>686.1</ele>
        <time>2018-11-26T03:10:45Z</time>
      </trkpt>
      <trkpt lat="42.38055" lon="2.61787">
        <ele>686.2</ele>
        <time>2018-11-26T03:10:45Z</time>
      </trkpt>
      <trkpt lat="42.38054" lon="2.61787">
        <ele>686.1</ele>
        <time>2018-11-26T03:10:46Z</time>
      </trkpt>
      <trkpt lat="42.38054" lon="2.61788">
        <ele>686.1</ele>
        <time>2018-11-26T03:10:46Z</time>
      </trkpt>
      <trkpt lat="42.38053" lon="2.61789">
        <ele>686.2</ele>
        <time>2018-11-26T03:10:46Z</time>
      </trkpt>
      <trkpt lat="42.38052" lon="2.6179">
        <ele>686.2</ele>
        <time>2018-11-26T03:10:47Z</time>
      </trkpt>
      <trkpt lat="42.38052" lon="2.61791">
        <ele>686</ele>
        <time>2018-11-26T03:10:47Z</time>
      </trkpt>
      <trkpt lat="42.38051" lon="2.61792">
        <ele>686.2</ele>
        <time>2018-11-26T03:10:47Z</time>
      </trkpt>
      <trkpt lat="42.3805" lon="2.61793">
        <ele>686.2</ele>
        <time>2018-11-26T03:10:48Z</time>
      </trkpt>
      <trkpt lat="42.3805" lon="2.61794">
        <ele>686.4</ele>
        <time>2018-11-26T03:10:48Z</time>
      </trkpt>
      <trkpt lat="42.38049" lon="2.61795">
        <ele>686.2</ele>
        <time>2018-11-26T03:10:49Z</time>
      </trkpt>
      <trkpt lat="42.38045" lon="2.61799">
        <ele>685.1</ele>
        <time>2018-11-26T03:10:50Z</time>
      </trkpt>
      <trkpt lat="42.38044" lon="2.618">
        <ele>685.3</ele>
        <time>2018-11-26T03:10:51Z</time>
      </trkpt>
      <trkpt lat="42.38043" lon="2.61802">
        <ele>685.9</ele>
        <time>2018-11-26T03:10:52Z</time>
      </trkpt>
      <trkpt lat="42.38042" lon="2.61804">
        <ele>685.8</ele>
        <time>2018-11-26T03:10:52Z</time>
      </trkpt>
      <trkpt lat="42.38041" lon="2.61805">
        <ele>685.8</ele>
        <time>2018-11-26T03:10:53Z</time>
      </trkpt>
      <trkpt lat="42.38041" lon="2.61806">
        <ele>685.7</ele>
        <time>2018-11-26T03:10:53Z</time>
      </trkpt>
      <trkpt lat="42.3804" lon="2.61806">
        <ele>685.8</ele>
        <time>2018-11-26T03:10:53Z</time>
      </trkpt>
      <trkpt lat="42.3804" lon="2.61807">
        <ele>686.1</ele>
        <time>2018-11-26T03:10:54Z</time>
      </trkpt>
      <trkpt lat="42.38039" lon="2.61807">
        <ele>686.4</ele>
        <time>2018-11-26T03:10:54Z</time>
      </trkpt>
      <trkpt lat="42.38038" lon="2.61808">
        <ele>686.3</ele>
        <time>2018-11-26T03:10:54Z</time>
      </trkpt>
      <trkpt lat="42.38037" lon="2.61809">
        <ele>686.1</ele>
        <time>2018-11-26T03:10:55Z</time>
      </trkpt>
      <trkpt lat="42.38037" lon="2.6181">
        <ele>685.7</ele>
        <time>2018-11-26T03:10:55Z</time>
      </trkpt>
      <trkpt lat="42.38036" lon="2.6181">
        <ele>685.7</ele>
        <time>2018-11-26T03:10:55Z</time>
      </trkpt>
      <trkpt lat="42.38036" lon="2.61811">
        <ele>685.7</ele>
        <time>2018-11-26T03:10:56Z</time>
      </trkpt>
      <trkpt lat="42.38035" lon="2.61811">
        <ele>685.8</ele>
        <time>2018-11-26T03:10:56Z</time>
      </trkpt>
      <trkpt lat="42.38035" lon="2.61812">
        <ele>685.7</ele>
        <time>2018-11-26T03:10:56Z</time>
      </trkpt>
      <trkpt lat="42.38034" lon="2.61813">
        <ele>685.7</ele>
        <time>2018-11-26T03:10:57Z</time>
      </trkpt>
      <trkpt lat="42.38033" lon="2.61813">
        <ele>685.4</ele>
        <time>2018-11-26T03:10:57Z</time>
      </trkpt>
      <trkpt lat="42.38033" lon="2.61814">
        <ele>685.5</ele>
        <time>2018-11-26T03:10:57Z</time>
      </trkpt>
      <trkpt lat="42.38032" lon="2.61814">
        <ele>685.3</ele>
        <time>2018-11-26T03:10:58Z</time>
      </trkpt>
      <trkpt lat="42.38031" lon="2.61813">
        <ele>685.3</ele>
        <time>2018-11-26T03:10:58Z</time>
      </trkpt>
      <trkpt lat="42.38031" lon="2.61813">
        <ele>685.2</ele>
        <time>2018-11-26T03:10:58Z</time>
      </trkpt>
      <trkpt lat="42.3803" lon="2.61813">
        <ele>685.3</ele>
        <time>2018-11-26T03:10:58Z</time>
      </trkpt>
      <trkpt lat="42.38029" lon="2.61814">
        <ele>685.4</ele>
        <time>2018-11-26T03:10:59Z</time>
      </trkpt>
      <trkpt lat="42.38029" lon="2.61814">
        <ele>685.5</ele>
        <time>2018-11-26T03:10:59Z</time>
      </trkpt>
      <trkpt lat="42.38028" lon="2.61815">
        <ele>685.4</ele>
        <time>2018-11-26T03:10:59Z</time>
      </trkpt>
      <trkpt lat="42.38028" lon="2.61815">
        <ele>685.5</ele>
        <time>2018-11-26T03:10:59Z</time>
      </trkpt>
      <trkpt lat="42.38027" lon="2.61816">
        <ele>685.4</ele>
        <time>2018-11-26T03:11:00Z</time>
      </trkpt>
      <trkpt lat="42.38027" lon="2.61817">
        <ele>685.6</ele>
        <time>2018-11-26T03:11:00Z</time>
      </trkpt>
      <trkpt lat="42.38027" lon="2.61818">
        <ele>685.9</ele>
        <time>2018-11-26T03:11:00Z</time>
      </trkpt>
      <trkpt lat="42.38027" lon="2.61819">
        <ele>686</ele>
        <time>2018-11-26T03:11:01Z</time>
      </trkpt>
      <trkpt lat="42.38026" lon="2.61821">
        <ele>686</ele>
        <time>2018-11-26T03:11:01Z</time>
      </trkpt>
      <trkpt lat="42.38026" lon="2.61822">
        <ele>685.9</ele>
        <time>2018-11-26T03:11:01Z</time>
      </trkpt>
      <trkpt lat="42.38026" lon="2.61823">
        <ele>685.7</ele>
        <time>2018-11-26T03:11:02Z</time>
      </trkpt>
      <trkpt lat="42.38026" lon="2.61823">
        <ele>685.8</ele>
        <time>2018-11-26T03:11:02Z</time>
      </trkpt>
      <trkpt lat="42.38026" lon="2.61824">
        <ele>685.7</ele>
        <time>2018-11-26T03:11:02Z</time>
      </trkpt>
      <trkpt lat="42.38026" lon="2.61824">
        <ele>685.7</ele>
        <time>2018-11-26T03:11:02Z</time>
      </trkpt>
      <trkpt lat="42.38026" lon="2.61824">
        <ele>685.7</ele>
        <time>2018-11-26T03:11:02Z</time>
      </trkpt>
      <trkpt lat="42.38026" lon="2.61824">
        <ele>685.6</ele>
        <time>2018-11-26T03:11:02Z</time>
      </trkpt>
      <trkpt lat="42.38026" lon="2.61824">
        <ele>685.5</ele>
        <time>2018-11-26T03:11:02Z</time>
      </trkpt>
      <trkpt lat="42.38026" lon="2.61824">
        <ele>685.6</ele>
        <time>2018-11-26T03:11:03Z</time>
      </trkpt>
      <trkpt lat="42.38026" lon="2.61825">
        <ele>685.5</ele>
        <time>2018-11-26T03:11:03Z</time>
      </trkpt>
      <trkpt lat="42.38026" lon="2.61825">
        <ele>685.5</ele>
        <time>2018-11-26T03:11:03Z</time>
      </trkpt>
      <trkpt lat="42.38026" lon="2.61825">
        <ele>685.5</ele>
        <time>2018-11-26T03:11:03Z</time>
      </trkpt>
      <trkpt lat="42.38026" lon="2.61826">
        <ele>685.5</ele>
        <time>2018-11-26T03:11:03Z</time>
      </trkpt>
      <trkpt lat="42.38026" lon="2.61826">
        <ele>685.3</ele>
        <time>2018-11-26T03:11:03Z</time>
      </trkpt>
      <trkpt lat="42.38026" lon="2.61827">
        <ele>685</ele>
        <time>2018-11-26T03:11:03Z</time>
      </trkpt>
      <trkpt lat="42.38026" lon="2.61828">
        <ele>685.1</ele>
        <time>2018-11-26T03:11:04Z</time>
      </trkpt>
      <trkpt lat="42.38025" lon="2.61829">
        <ele>685.3</ele>
        <time>2018-11-26T03:11:04Z</time>
      </trkpt>
      <trkpt lat="42.38025" lon="2.6183">
        <ele>685.3</ele>
        <time>2018-11-26T03:11:04Z</time>
      </trkpt>
      <trkpt lat="42.38025" lon="2.61831">
        <ele>685.4</ele>
        <time>2018-11-26T03:11:05Z</time>
      </trkpt>
      <trkpt lat="42.38025" lon="2.61832">
        <ele>685.6</ele>
        <time>2018-11-26T03:11:05Z</time>
      </trkpt>
      <trkpt lat="42.38026" lon="2.61833">
        <ele>685.7</ele>
        <time>2018-11-26T03:11:05Z</time>
      </trkpt>
      <trkpt lat="42.38026" lon="2.61834">
        <ele>686</ele>
        <time>2018-11-26T03:11:06Z</time>
      </trkpt>
      <trkpt lat="42.38026" lon="2.61835">
        <ele>686.3</ele>
        <time>2018-11-26T03:11:06Z</time>
      </trkpt>
      <trkpt lat="42.38026" lon="2.61836">
        <ele>686.6</ele>
        <time>2018-11-26T03:11:06Z</time>
      </trkpt>
      <trkpt lat="42.38027" lon="2.61837">
        <ele>687.1</ele>
        <time>2018-11-26T03:11:07Z</time>
      </trkpt>
      <trkpt lat="42.38027" lon="2.61837">
        <ele>687.1</ele>
        <time>2018-11-26T03:11:07Z</time>
      </trkpt>
      <trkpt lat="42.38027" lon="2.61837">
        <ele>687.2</ele>
        <time>2018-11-26T03:11:07Z</time>
      </trkpt>
      <trkpt lat="42.38027" lon="2.61837">
        <ele>687.4</ele>
        <time>2018-11-26T03:11:07Z</time>
      </trkpt>
      <trkpt lat="42.38028" lon="2.61838">
        <ele>687.7</ele>
        <time>2018-11-26T03:11:07Z</time>
      </trkpt>
      <trkpt lat="42.38028" lon="2.61838">
        <ele>687.9</ele>
        <time>2018-11-26T03:11:07Z</time>
      </trkpt>
      <trkpt lat="42.38028" lon="2.61839">
        <ele>688.3</ele>
        <time>2018-11-26T03:11:07Z</time>
      </trkpt>
      <trkpt lat="42.38028" lon="2.61839">
        <ele>688.3</ele>
        <time>2018-11-26T03:11:08Z</time>
      </trkpt>
      <trkpt lat="42.38028" lon="2.61839">
        <ele>688.1</ele>
        <time>2018-11-26T03:11:08Z</time>
      </trkpt>
      <trkpt lat="42.38028" lon="2.61839">
        <ele>687.9</ele>
        <time>2018-11-26T03:11:08Z</time>
      </trkpt>
      <trkpt lat="42.38028" lon="2.61839">
        <ele>687.8</ele>
        <time>2018-11-26T03:11:08Z</time>
      </trkpt>
      <trkpt lat="42.38028" lon="2.61839">
        <ele>687.6</ele>
        <time>2018-11-26T03:11:08Z</time>
      </trkpt>
      <trkpt lat="42.38027" lon="2.61839">
        <ele>687.2</ele>
        <time>2018-11-26T03:11:08Z</time>
      </trkpt>
      <trkpt lat="42.38027" lon="2.6184">
        <ele>687.4</ele>
        <time>2018-11-26T03:11:08Z</time>
      </trkpt>
      <trkpt lat="42.38027" lon="2.6184">
        <ele>687.4</ele>
        <time>2018-11-26T03:11:08Z</time>
      </trkpt>
      <trkpt lat="42.38027" lon="2.61839">
        <ele>687.4</ele>
        <time>2018-11-26T03:11:08Z</time>
      </trkpt>
      <trkpt lat="42.38027" lon="2.61839">
        <ele>687.6</ele>
        <time>2018-11-26T03:11:09Z</time>
      </trkpt>
      <trkpt lat="42.38027" lon="2.61839">
        <ele>687.6</ele>
        <time>2018-11-26T03:11:09Z</time>
      </trkpt>
      <trkpt lat="42.38027" lon="2.61839">
        <ele>687.6</ele>
        <time>2018-11-26T03:11:09Z</time>
      </trkpt>
      <trkpt lat="42.38027" lon="2.61839">
        <ele>687.4</ele>
        <time>2018-11-26T03:11:09Z</time>
      </trkpt>
      <trkpt lat="42.38027" lon="2.61839">
        <ele>687.7</ele>
        <time>2018-11-26T03:11:09Z</time>
      </trkpt>
      <trkpt lat="42.38027" lon="2.61839">
        <ele>688.2</ele>
        <time>2018-11-26T03:11:09Z</time>
      </trkpt>
      <trkpt lat="42.38027" lon="2.61839">
        <ele>688.6</ele>
        <time>2018-11-26T03:11:09Z</time>
      </trkpt>
      <trkpt lat="42.38027" lon="2.61839">
        <ele>688.8</ele>
        <time>2018-11-26T03:11:09Z</time>
      </trkpt>
      <trkpt lat="42.38027" lon="2.61839">
        <ele>688.8</ele>
        <time>2018-11-26T03:11:09Z</time>
      </trkpt>
      <trkpt lat="42.38027" lon="2.61839">
        <ele>689</ele>
        <time>2018-11-26T03:11:09Z</time>
      </trkpt>
      <trkpt lat="42.38027" lon="2.61839">
        <ele>689.1</ele>
        <time>2018-11-26T03:11:09Z</time>
      </trkpt>
      <trkpt lat="42.38027" lon="2.6184">
        <ele>689.3</ele>
        <time>2018-11-26T03:11:09Z</time>
      </trkpt>
      <trkpt lat="42.38027" lon="2.6184">
        <ele>689.4</ele>
        <time>2018-11-26T03:11:09Z</time>
      </trkpt>
      <trkpt lat="42.38027" lon="2.6184">
        <ele>689.3</ele>
        <time>2018-11-26T03:11:09Z</time>
      </trkpt>
      <trkpt lat="42.38027" lon="2.6184">
        <ele>689.1</ele>
        <time>2018-11-26T03:11:09Z</time>
      </trkpt>
      <trkpt lat="42.38027" lon="2.6184">
        <ele>688.9</ele>
        <time>2018-11-26T03:11:09Z</time>
      </trkpt>
      <trkpt lat="42.38027" lon="2.6184">
        <ele>688.5</ele>
        <time>2018-11-26T03:11:09Z</time>
      </trkpt>
      <trkpt lat="42.38028" lon="2.6184">
        <ele>688.6</ele>
        <time>2018-11-26T03:11:09Z</time>
      </trkpt>
      <trkpt lat="42.38029" lon="2.6184">
        <ele>688.6</ele>
        <time>2018-11-26T03:11:10Z</time>
      </trkpt>
      <trkpt lat="42.38029" lon="2.6184">
        <ele>688.6</ele>
        <time>2018-11-26T03:11:10Z</time>
      </trkpt>
      <trkpt lat="42.38029" lon="2.6184">
        <ele>688.8</ele>
        <time>2018-11-26T03:11:10Z</time>
      </trkpt>
      <trkpt lat="42.38029" lon="2.6184">
        <ele>689.2</ele>
        <time>2018-11-26T03:11:10Z</time>
      </trkpt>
      <trkpt lat="42.38029" lon="2.6184">
        <ele>689.8</ele>
        <time>2018-11-26T03:11:10Z</time>
      </trkpt>
      <trkpt lat="42.38029" lon="2.6184">
        <ele>689.7</ele>
        <time>2018-11-26T03:11:10Z</time>
      </trkpt>
      <trkpt lat="42.38029" lon="2.6184">
        <ele>689.5</ele>
        <time>2018-11-26T03:11:10Z</time>
      </trkpt>
      <trkpt lat="42.38029" lon="2.6184">
        <ele>689.2</ele>
        <time>2018-11-26T03:11:10Z</time>
      </trkpt>
      <trkpt lat="42.38029" lon="2.6184">
        <ele>689.3</ele>
        <time>2018-11-26T03:11:10Z</time>
      </trkpt>
      <trkpt lat="42.38029" lon="2.6184">
        <ele>689.5</ele>
        <time>2018-11-26T03:11:10Z</time>
      </trkpt>
      <trkpt lat="42.38029" lon="2.6184">
        <ele>689.6</ele>
        <time>2018-11-26T03:11:10Z</time>
      </trkpt>
      <trkpt lat="42.38029" lon="2.6184">
        <ele>689.3</ele>
        <time>2018-11-26T03:11:10Z</time>
      </trkpt>
      <trkpt lat="42.38029" lon="2.6184">
        <ele>689</ele>
        <time>2018-11-26T03:11:10Z</time>
      </trkpt>
      <trkpt lat="42.38029" lon="2.6184">
        <ele>688.6</ele>
        <time>2018-11-26T03:11:10Z</time>
      </trkpt>
      <trkpt lat="42.38029" lon="2.6184">
        <ele>688.8</ele>
        <time>2018-11-26T03:11:10Z</time>
      </trkpt>
      <trkpt lat="42.38029" lon="2.6184">
        <ele>688.9</ele>
        <time>2018-11-26T03:11:11Z</time>
      </trkpt>
      <trkpt lat="42.38028" lon="2.6184">
        <ele>689</ele>
        <time>2018-11-26T03:11:11Z</time>
      </trkpt>
      <trkpt lat="42.38027" lon="2.6184">
        <ele>689.1</ele>
        <time>2018-11-26T03:11:11Z</time>
      </trkpt>
      <trkpt lat="42.38027" lon="2.61841">
        <ele>689.1</ele>
        <time>2018-11-26T03:11:11Z</time>
      </trkpt>
      <trkpt lat="42.38026" lon="2.61842">
        <ele>688.9</ele>
        <time>2018-11-26T03:11:12Z</time>
      </trkpt>
      <trkpt lat="42.38026" lon="2.61842">
        <ele>688.7</ele>
        <time>2018-11-26T03:11:12Z</time>
      </trkpt>
      <trkpt lat="42.38025" lon="2.61843">
        <ele>688.6</ele>
        <time>2018-11-26T03:11:12Z</time>
      </trkpt>
      <trkpt lat="42.38025" lon="2.61844">
        <ele>688.5</ele>
        <time>2018-11-26T03:11:13Z</time>
      </trkpt>
      <trkpt lat="42.38024" lon="2.61845">
        <ele>688.4</ele>
        <time>2018-11-26T03:11:13Z</time>
      </trkpt>
      <trkpt lat="42.38024" lon="2.61845">
        <ele>688.7</ele>
        <time>2018-11-26T03:11:13Z</time>
      </trkpt>
      <trkpt lat="42.38023" lon="2.61846">
        <ele>689</ele>
        <time>2018-11-26T03:11:13Z</time>
      </trkpt>
      <trkpt lat="42.38023" lon="2.61847">
        <ele>689.3</ele>
        <time>2018-11-26T03:11:14Z</time>
      </trkpt>
      <trkpt lat="42.38023" lon="2.61848">
        <ele>689.3</ele>
        <time>2018-11-26T03:11:14Z</time>
      </trkpt>
      <trkpt lat="42.38023" lon="2.61849">
        <ele>689.4</ele>
        <time>2018-11-26T03:11:14Z</time>
      </trkpt>
      <trkpt lat="42.38023" lon="2.6185">
        <ele>689.5</ele>
        <time>2018-11-26T03:11:15Z</time>
      </trkpt>
      <trkpt lat="42.38023" lon="2.61851">
        <ele>689.6</ele>
        <time>2018-11-26T03:11:15Z</time>
      </trkpt>
      <trkpt lat="42.38024" lon="2.61851">
        <ele>689.6</ele>
        <time>2018-11-26T03:11:15Z</time>
      </trkpt>
      <trkpt lat="42.38025" lon="2.61852">
        <ele>689.7</ele>
        <time>2018-11-26T03:11:16Z</time>
      </trkpt>
      <trkpt lat="42.38025" lon="2.61853">
        <ele>689.9</ele>
        <time>2018-11-26T03:11:16Z</time>
      </trkpt>
      <trkpt lat="42.38026" lon="2.61854">
        <ele>690.4</ele>
        <time>2018-11-26T03:11:16Z</time>
      </trkpt>
      <trkpt lat="42.38027" lon="2.61855">
        <ele>691</ele>
        <time>2018-11-26T03:11:17Z</time>
      </trkpt>
      <trkpt lat="42.38027" lon="2.61856">
        <ele>691.9</ele>
        <time>2018-11-26T03:11:17Z</time>
      </trkpt>
      <trkpt lat="42.38027" lon="2.61857">
        <ele>692</ele>
        <time>2018-11-26T03:11:17Z</time>
      </trkpt>
      <trkpt lat="42.38027" lon="2.61858">
        <ele>692.1</ele>
        <time>2018-11-26T03:11:18Z</time>
      </trkpt>
      <trkpt lat="42.38027" lon="2.61859">
        <ele>692.2</ele>
        <time>2018-11-26T03:11:18Z</time>
      </trkpt>
      <trkpt lat="42.38027" lon="2.61861">
        <ele>692.4</ele>
        <time>2018-11-26T03:11:19Z</time>
      </trkpt>
      <trkpt lat="42.38027" lon="2.61862">
        <ele>692.6</ele>
        <time>2018-11-26T03:11:19Z</time>
      </trkpt>
      <trkpt lat="42.38027" lon="2.61863">
        <ele>692.9</ele>
        <time>2018-11-26T03:11:19Z</time>
      </trkpt>
      <trkpt lat="42.38027" lon="2.61864">
        <ele>693</ele>
        <time>2018-11-26T03:11:19Z</time>
      </trkpt>
      <trkpt lat="42.38027" lon="2.61864">
        <ele>693</ele>
        <time>2018-11-26T03:11:20Z</time>
      </trkpt>
      <trkpt lat="42.38028" lon="2.61865">
        <ele>692.8</ele>
        <time>2018-11-26T03:11:20Z</time>
      </trkpt>
      <trkpt lat="42.38028" lon="2.61865">
        <ele>693.1</ele>
        <time>2018-11-26T03:11:20Z</time>
      </trkpt>
      <trkpt lat="42.38029" lon="2.61865">
        <ele>693.5</ele>
        <time>2018-11-26T03:11:20Z</time>
      </trkpt>
      <trkpt lat="42.38029" lon="2.61865">
        <ele>694.2</ele>
        <time>2018-11-26T03:11:20Z</time>
      </trkpt>
      <trkpt lat="42.3803" lon="2.61865">
        <ele>694.9</ele>
        <time>2018-11-26T03:11:21Z</time>
      </trkpt>
      <trkpt lat="42.3803" lon="2.61864">
        <ele>695</ele>
        <time>2018-11-26T03:11:21Z</time>
      </trkpt>
      <trkpt lat="42.38031" lon="2.61864">
        <ele>695</ele>
        <time>2018-11-26T03:11:21Z</time>
      </trkpt>
      <trkpt lat="42.38032" lon="2.61864">
        <ele>695.1</ele>
        <time>2018-11-26T03:11:21Z</time>
      </trkpt>
      <trkpt lat="42.38032" lon="2.61864">
        <ele>695.3</ele>
        <time>2018-11-26T03:11:22Z</time>
      </trkpt>
      <trkpt lat="42.38033" lon="2.61864">
        <ele>695.8</ele>
        <time>2018-11-26T03:11:22Z</time>
      </trkpt>
      <trkpt lat="42.38033" lon="2.61864">
        <ele>696.2</ele>
        <time>2018-11-26T03:11:22Z</time>
      </trkpt>
      <trkpt lat="42.38033" lon="2.61864">
        <ele>696.3</ele>
        <time>2018-11-26T03:11:22Z</time>
      </trkpt>
      <trkpt lat="42.38034" lon="2.61864">
        <ele>696.3</ele>
        <time>2018-11-26T03:11:22Z</time>
      </trkpt>
      <trkpt lat="42.38034" lon="2.61864">
        <ele>696.4</ele>
        <time>2018-11-26T03:11:23Z</time>
      </trkpt>
      <trkpt lat="42.38034" lon="2.61864">
        <ele>696.4</ele>
        <time>2018-11-26T03:11:23Z</time>
      </trkpt>
      <trkpt lat="42.38034" lon="2.61865">
        <ele>696.4</ele>
        <time>2018-11-26T03:11:23Z</time>
      </trkpt>
      <trkpt lat="42.38034" lon="2.61865">
        <ele>696.3</ele>
        <time>2018-11-26T03:11:23Z</time>
      </trkpt>
      <trkpt lat="42.38034" lon="2.61866">
        <ele>696.5</ele>
        <time>2018-11-26T03:11:23Z</time>
      </trkpt>
      <trkpt lat="42.38034" lon="2.61868">
        <ele>696.9</ele>
        <time>2018-11-26T03:11:24Z</time>
      </trkpt>
      <trkpt lat="42.38034" lon="2.6187">
        <ele>697.4</ele>
        <time>2018-11-26T03:11:24Z</time>
      </trkpt>
      <trkpt lat="42.38034" lon="2.61871">
        <ele>697.4</ele>
        <time>2018-11-26T03:11:25Z</time>
      </trkpt>
      <trkpt lat="42.38034" lon="2.61873">
        <ele>697.2</ele>
        <time>2018-11-26T03:11:25Z</time>
      </trkpt>
      <trkpt lat="42.38034" lon="2.61874">
        <ele>697.3</ele>
        <time>2018-11-26T03:11:25Z</time>
      </trkpt>
      <trkpt lat="42.38034" lon="2.61875">
        <ele>697.5</ele>
        <time>2018-11-26T03:11:26Z</time>
      </trkpt>
      <trkpt lat="42.38034" lon="2.61876">
        <ele>697.8</ele>
        <time>2018-11-26T03:11:26Z</time>
      </trkpt>
      <trkpt lat="42.38033" lon="2.61876">
        <ele>698.2</ele>
        <time>2018-11-26T03:11:26Z</time>
      </trkpt>
      <trkpt lat="42.38033" lon="2.61877">
        <ele>698.3</ele>
        <time>2018-11-26T03:11:27Z</time>
      </trkpt>
      <trkpt lat="42.38032" lon="2.61878">
        <ele>698.5</ele>
        <time>2018-11-26T03:11:27Z</time>
      </trkpt>
      <trkpt lat="42.38032" lon="2.61879">
        <ele>698.9</ele>
        <time>2018-11-26T03:11:27Z</time>
      </trkpt>
      <trkpt lat="42.38031" lon="2.6188">
        <ele>699</ele>
        <time>2018-11-26T03:11:28Z</time>
      </trkpt>
      <trkpt lat="42.38031" lon="2.6188">
        <ele>699.1</ele>
        <time>2018-11-26T03:11:28Z</time>
      </trkpt>
      <trkpt lat="42.3803" lon="2.6188">
        <ele>699.4</ele>
        <time>2018-11-26T03:11:28Z</time>
      </trkpt>
      <trkpt lat="42.3803" lon="2.6188">
        <ele>699.3</ele>
        <time>2018-11-26T03:11:28Z</time>
      </trkpt>
      <trkpt lat="42.38029" lon="2.61881">
        <ele>699.3</ele>
        <time>2018-11-26T03:11:28Z</time>
      </trkpt>
      <trkpt lat="42.38029" lon="2.61881">
        <ele>699.3</ele>
        <time>2018-11-26T03:11:28Z</time>
      </trkpt>
      <trkpt lat="42.38029" lon="2.61881">
        <ele>699.1</ele>
        <time>2018-11-26T03:11:29Z</time>
      </trkpt>
      <trkpt lat="42.38028" lon="2.61881">
        <ele>699.2</ele>
        <time>2018-11-26T03:11:29Z</time>
      </trkpt>
      <trkpt lat="42.38028" lon="2.61882">
        <ele>699.4</ele>
        <time>2018-11-26T03:11:29Z</time>
      </trkpt>
      <trkpt lat="42.38028" lon="2.61882">
        <ele>699.6</ele>
        <time>2018-11-26T03:11:29Z</time>
      </trkpt>
      <trkpt lat="42.38027" lon="2.61882">
        <ele>699.9</ele>
        <time>2018-11-26T03:11:29Z</time>
      </trkpt>
      <trkpt lat="42.38027" lon="2.61882">
        <ele>700</ele>
        <time>2018-11-26T03:11:30Z</time>
      </trkpt>
      <trkpt lat="42.38026" lon="2.61883">
        <ele>700.3</ele>
        <time>2018-11-26T03:11:30Z</time>
      </trkpt>
      <trkpt lat="42.38026" lon="2.61883">
        <ele>700.5</ele>
        <time>2018-11-26T03:11:30Z</time>
      </trkpt>
      <trkpt lat="42.38026" lon="2.61883">
        <ele>700.5</ele>
        <time>2018-11-26T03:11:30Z</time>
      </trkpt>
      <trkpt lat="42.38025" lon="2.61883">
        <ele>700.6</ele>
        <time>2018-11-26T03:11:30Z</time>
      </trkpt>
      <trkpt lat="42.38025" lon="2.61883">
        <ele>700.6</ele>
        <time>2018-11-26T03:11:30Z</time>
      </trkpt>
      <trkpt lat="42.38025" lon="2.61884">
        <ele>700.5</ele>
        <time>2018-11-26T03:11:31Z</time>
      </trkpt>
      <trkpt lat="42.38024" lon="2.61884">
        <ele>700.4</ele>
        <time>2018-11-26T03:11:31Z</time>
      </trkpt>
      <trkpt lat="42.38023" lon="2.61885">
        <ele>700.8</ele>
        <time>2018-11-26T03:11:31Z</time>
      </trkpt>
      <trkpt lat="42.38023" lon="2.61885">
        <ele>701.1</ele>
        <time>2018-11-26T03:11:31Z</time>
      </trkpt>
      <trkpt lat="42.38023" lon="2.61886">
        <ele>701.6</ele>
        <time>2018-11-26T03:11:32Z</time>
      </trkpt>
      <trkpt lat="42.38022" lon="2.61886">
        <ele>702.1</ele>
        <time>2018-11-26T03:11:32Z</time>
      </trkpt>
      <trkpt lat="42.38022" lon="2.61887">
        <ele>702.2</ele>
        <time>2018-11-26T03:11:32Z</time>
      </trkpt>
      <trkpt lat="42.38022" lon="2.61887">
        <ele>702.2</ele>
        <time>2018-11-26T03:11:32Z</time>
      </trkpt>
      <trkpt lat="42.38022" lon="2.61888">
        <ele>702.4</ele>
        <time>2018-11-26T03:11:32Z</time>
      </trkpt>
      <trkpt lat="42.38022" lon="2.61888">
        <ele>702.5</ele>
        <time>2018-11-26T03:11:33Z</time>
      </trkpt>
      <trkpt lat="42.38023" lon="2.61888">
        <ele>702.8</ele>
        <time>2018-11-26T03:11:33Z</time>
      </trkpt>
      <trkpt lat="42.38024" lon="2.61888">
        <ele>703.1</ele>
        <time>2018-11-26T03:11:33Z</time>
      </trkpt>
      <trkpt lat="42.38025" lon="2.61888">
        <ele>703.2</ele>
        <time>2018-11-26T03:11:34Z</time>
      </trkpt>
      <trkpt lat="42.38025" lon="2.61889">
        <ele>703</ele>
        <time>2018-11-26T03:11:34Z</time>
      </trkpt>
      <trkpt lat="42.38025" lon="2.61889">
        <ele>703</ele>
        <time>2018-11-26T03:11:34Z</time>
      </trkpt>
      <trkpt lat="42.38026" lon="2.6189">
        <ele>703.3</ele>
        <time>2018-11-26T03:11:34Z</time>
      </trkpt>
      <trkpt lat="42.38026" lon="2.6189">
        <ele>703.8</ele>
        <time>2018-11-26T03:11:34Z</time>
      </trkpt>
      <trkpt lat="42.38026" lon="2.6189">
        <ele>704.3</ele>
        <time>2018-11-26T03:11:34Z</time>
      </trkpt>
      <trkpt lat="42.38027" lon="2.61891">
        <ele>704.2</ele>
        <time>2018-11-26T03:11:35Z</time>
      </trkpt>
      <trkpt lat="42.38027" lon="2.61891">
        <ele>704.2</ele>
        <time>2018-11-26T03:11:35Z</time>
      </trkpt>
      <trkpt lat="42.38027" lon="2.61891">
        <ele>704.2</ele>
        <time>2018-11-26T03:11:35Z</time>
      </trkpt>
      <trkpt lat="42.38028" lon="2.61892">
        <ele>704.2</ele>
        <time>2018-11-26T03:11:35Z</time>
      </trkpt>
      <trkpt lat="42.38028" lon="2.61891">
        <ele>704.3</ele>
        <time>2018-11-26T03:11:35Z</time>
      </trkpt>
      <trkpt lat="42.38028" lon="2.61891">
        <ele>704.3</ele>
        <time>2018-11-26T03:11:35Z</time>
      </trkpt>
      <trkpt lat="42.38028" lon="2.61891">
        <ele>704.2</ele>
        <time>2018-11-26T03:11:35Z</time>
      </trkpt>
      <trkpt lat="42.38028" lon="2.61891">
        <ele>704.2</ele>
        <time>2018-11-26T03:11:35Z</time>
      </trkpt>
      <trkpt lat="42.38028" lon="2.61891">
        <ele>704.4</ele>
        <time>2018-11-26T03:11:35Z</time>
      </trkpt>
      <trkpt lat="42.38028" lon="2.61891">
        <ele>704.5</ele>
        <time>2018-11-26T03:11:35Z</time>
      </trkpt>
      <trkpt lat="42.38028" lon="2.61891">
        <ele>704.6</ele>
        <time>2018-11-26T03:11:35Z</time>
      </trkpt>
      <trkpt lat="42.38028" lon="2.61891">
        <ele>704.6</ele>
        <time>2018-11-26T03:11:35Z</time>
      </trkpt>
      <trkpt lat="42.38028" lon="2.61891">
        <ele>704.6</ele>
        <time>2018-11-26T03:11:35Z</time>
      </trkpt>
      <trkpt lat="42.38028" lon="2.61891">
        <ele>704.6</ele>
        <time>2018-11-26T03:11:35Z</time>
      </trkpt>
      <trkpt lat="42.38028" lon="2.61891">
        <ele>704.6</ele>
        <time>2018-11-26T03:11:35Z</time>
      </trkpt>
      <trkpt lat="42.38028" lon="2.61892">
        <ele>704.6</ele>
        <time>2018-11-26T03:11:35Z</time>
      </trkpt>
      <trkpt lat="42.38028" lon="2.61892">
        <ele>704.6</ele>
        <time>2018-11-26T03:11:35Z</time>
      </trkpt>
      <trkpt lat="42.38028" lon="2.61892">
        <ele>704.5</ele>
        <time>2018-11-26T03:11:35Z</time>
      </trkpt>
      <trkpt lat="42.38028" lon="2.61892">
        <ele>704.4</ele>
        <time>2018-11-26T03:11:35Z</time>
      </trkpt>
      <trkpt lat="42.38028" lon="2.61892">
        <ele>704.4</ele>
        <time>2018-11-26T03:11:35Z</time>
      </trkpt>
      <trkpt lat="42.38028" lon="2.61892">
        <ele>704.2</ele>
        <time>2018-11-26T03:11:35Z</time>
      </trkpt>
      <trkpt lat="42.38028" lon="2.61892">
        <ele>704.1</ele>
        <time>2018-11-26T03:11:35Z</time>
      </trkpt>
      <trkpt lat="42.38028" lon="2.61892">
        <ele>703.8</ele>
        <time>2018-11-26T03:11:35Z</time>
      </trkpt>
      <trkpt lat="42.38028" lon="2.61892">
        <ele>704</ele>
        <time>2018-11-26T03:11:35Z</time>
      </trkpt>
      <trkpt lat="42.38028" lon="2.61892">
        <ele>704.5</ele>
        <time>2018-11-26T03:11:35Z</time>
      </trkpt>
      <trkpt lat="42.38028" lon="2.61892">
        <ele>704.8</ele>
        <time>2018-11-26T03:11:35Z</time>
      </trkpt>
      <trkpt lat="42.38028" lon="2.61892">
        <ele>704.7</ele>
        <time>2018-11-26T03:11:35Z</time>
      </trkpt>
      <trkpt lat="42.38028" lon="2.61892">
        <ele>704.7</ele>
        <time>2018-11-26T03:11:35Z</time>
      </trkpt>
      <trkpt lat="42.38028" lon="2.61892">
        <ele>704.5</ele>
        <time>2018-11-26T03:11:35Z</time>
      </trkpt>
      <trkpt lat="42.38028" lon="2.61892">
        <ele>704.4</ele>
        <time>2018-11-26T03:11:35Z</time>
      </trkpt>
      <trkpt lat="42.38028" lon="2.61892">
        <ele>704.5</ele>
        <time>2018-11-26T03:11:36Z</time>
      </trkpt>
      <trkpt lat="42.38028" lon="2.61892">
        <ele>704.4</ele>
        <time>2018-11-26T03:11:36Z</time>
      </trkpt>
      <trkpt lat="42.38028" lon="2.61892">
        <ele>704</ele>
        <time>2018-11-26T03:11:36Z</time>
      </trkpt>
      <trkpt lat="42.38028" lon="2.61892">
        <ele>703.5</ele>
        <time>2018-11-26T03:11:36Z</time>
      </trkpt>
      <trkpt lat="42.38029" lon="2.61892">
        <ele>702.9</ele>
        <time>2018-11-26T03:11:36Z</time>
      </trkpt>
      <trkpt lat="42.38029" lon="2.61892">
        <ele>703</ele>
        <time>2018-11-26T03:11:36Z</time>
      </trkpt>
      <trkpt lat="42.38029" lon="2.61893">
        <ele>703.1</ele>
        <time>2018-11-26T03:11:36Z</time>
      </trkpt>
      <trkpt lat="42.38029" lon="2.61893">
        <ele>703.2</ele>
        <time>2018-11-26T03:11:36Z</time>
      </trkpt>
      <trkpt lat="42.38029" lon="2.61893">
        <ele>703.2</ele>
        <time>2018-11-26T03:11:36Z</time>
      </trkpt>
      <trkpt lat="42.38029" lon="2.61893">
        <ele>703.3</ele>
        <time>2018-11-26T03:11:36Z</time>
      </trkpt>
      <trkpt lat="42.38029" lon="2.61893">
        <ele>703.5</ele>
        <time>2018-11-26T03:11:36Z</time>
      </trkpt>
      <trkpt lat="42.38029" lon="2.61893">
        <ele>703.8</ele>
        <time>2018-11-26T03:11:36Z</time>
      </trkpt>
      <trkpt lat="42.38029" lon="2.61893">
        <ele>703.9</ele>
        <time>2018-11-26T03:11:36Z</time>
      </trkpt>
      <trkpt lat="42.38029" lon="2.61893">
        <ele>703.9</ele>
        <time>2018-11-26T03:11:36Z</time>
      </trkpt>
      <trkpt lat="42.3803" lon="2.61893">
        <ele>703.9</ele>
        <time>2018-11-26T03:11:36Z</time>
      </trkpt>
      <trkpt lat="42.3803" lon="2.61894">
        <ele>703.9</ele>
        <time>2018-11-26T03:11:36Z</time>
      </trkpt>
      <trkpt lat="42.3803" lon="2.61894">
        <ele>703.7</ele>
        <time>2018-11-26T03:11:36Z</time>
      </trkpt>
      <trkpt lat="42.3803" lon="2.61894">
        <ele>703.5</ele>
        <time>2018-11-26T03:11:36Z</time>
      </trkpt>
      <trkpt lat="42.3803" lon="2.61894">
        <ele>703.5</ele>
        <time>2018-11-26T03:11:36Z</time>
      </trkpt>
      <trkpt lat="42.3803" lon="2.61894">
        <ele>703.5</ele>
        <time>2018-11-26T03:11:37Z</time>
      </trkpt>
      <trkpt lat="42.3803" lon="2.61894">
        <ele>703.6</ele>
        <time>2018-11-26T03:11:37Z</time>
      </trkpt>
      <trkpt lat="42.3803" lon="2.61894">
        <ele>703.6</ele>
        <time>2018-11-26T03:11:37Z</time>
      </trkpt>
      <trkpt lat="42.3803" lon="2.61894">
        <ele>703.8</ele>
        <time>2018-11-26T03:11:37Z</time>
      </trkpt>
      <trkpt lat="42.38031" lon="2.61894">
        <ele>704</ele>
        <time>2018-11-26T03:11:37Z</time>
      </trkpt>
      <trkpt lat="42.38031" lon="2.61894">
        <ele>704.2</ele>
        <time>2018-11-26T03:11:37Z</time>
      </trkpt>
      <trkpt lat="42.38031" lon="2.61894">
        <ele>704.3</ele>
        <time>2018-11-26T03:11:37Z</time>
      </trkpt>
      <trkpt lat="42.38031" lon="2.61894">
        <ele>704.2</ele>
        <time>2018-11-26T03:11:37Z</time>
      </trkpt>
      <trkpt lat="42.38031" lon="2.61894">
        <ele>704.2</ele>
        <time>2018-11-26T03:11:37Z</time>
      </trkpt>
      <trkpt lat="42.38031" lon="2.61894">
        <ele>704.6</ele>
        <time>2018-11-26T03:11:37Z</time>
      </trkpt>
      <trkpt lat="42.38031" lon="2.61894">
        <ele>705.1</ele>
        <time>2018-11-26T03:11:37Z</time>
      </trkpt>
      <trkpt lat="42.38031" lon="2.61894">
        <ele>705.9</ele>
        <time>2018-11-26T03:11:37Z</time>
      </trkpt>
      <trkpt lat="42.38032" lon="2.61894">
        <ele>705.8</ele>
        <time>2018-11-26T03:11:37Z</time>
      </trkpt>
      <trkpt lat="42.38032" lon="2.61895">
        <ele>705.8</ele>
        <time>2018-11-26T03:11:37Z</time>
      </trkpt>
      <trkpt lat="42.38032" lon="2.61895">
        <ele>705.8</ele>
        <time>2018-11-26T03:11:38Z</time>
      </trkpt>
      <trkpt lat="42.38032" lon="2.61896">
        <ele>706</ele>
        <time>2018-11-26T03:11:38Z</time>
      </trkpt>
      <trkpt lat="42.38033" lon="2.61896">
        <ele>706.5</ele>
        <time>2018-11-26T03:11:38Z</time>
      </trkpt>
      <trkpt lat="42.38033" lon="2.61896">
        <ele>706.8</ele>
        <time>2018-11-26T03:11:38Z</time>
      </trkpt>
      <trkpt lat="42.38033" lon="2.61897">
        <ele>706.9</ele>
        <time>2018-11-26T03:11:38Z</time>
      </trkpt>
      <trkpt lat="42.38034" lon="2.61897">
        <ele>707</ele>
        <time>2018-11-26T03:11:38Z</time>
      </trkpt>
      <trkpt lat="42.38034" lon="2.61897">
        <ele>706.9</ele>
        <time>2018-11-26T03:11:39Z</time>
      </trkpt>
      <trkpt lat="42.38034" lon="2.61897">
        <ele>707</ele>
        <time>2018-11-26T03:11:39Z</time>
      </trkpt>
      <trkpt lat="42.38035" lon="2.61898">
        <ele>707</ele>
        <time>2018-11-26T03:11:39Z</time>
      </trkpt>
      <trkpt lat="42.38035" lon="2.61898">
        <ele>706.8</ele>
        <time>2018-11-26T03:11:39Z</time>
      </trkpt>
      <trkpt lat="42.38036" lon="2.61898">
        <ele>706.8</ele>
        <time>2018-11-26T03:11:39Z</time>
      </trkpt>
      <trkpt lat="42.38036" lon="2.61898">
        <ele>707</ele>
        <time>2018-11-26T03:11:40Z</time>
      </trkpt>
      <trkpt lat="42.38037" lon="2.61897">
        <ele>707</ele>
        <time>2018-11-26T03:11:40Z</time>
      </trkpt>
      <trkpt lat="42.38037" lon="2.61897">
        <ele>707</ele>
        <time>2018-11-26T03:11:40Z</time>
      </trkpt>
      <trkpt lat="42.38037" lon="2.61897">
        <ele>707.3</ele>
        <time>2018-11-26T03:11:40Z</time>
      </trkpt>
      <trkpt lat="42.38038" lon="2.61897">
        <ele>707.4</ele>
        <time>2018-11-26T03:11:40Z</time>
      </trkpt>
      <trkpt lat="42.38038" lon="2.61897">
        <ele>707.5</ele>
        <time>2018-11-26T03:11:41Z</time>
      </trkpt>
      <trkpt lat="42.38039" lon="2.61897">
        <ele>707.6</ele>
        <time>2018-11-26T03:11:41Z</time>
      </trkpt>
      <trkpt lat="42.3804" lon="2.61897">
        <ele>707.4</ele>
        <time>2018-11-26T03:11:41Z</time>
      </trkpt>
      <trkpt lat="42.38041" lon="2.61897">
        <ele>707.3</ele>
        <time>2018-11-26T03:11:42Z</time>
      </trkpt>
      <trkpt lat="42.38042" lon="2.61897">
        <ele>707.4</ele>
        <time>2018-11-26T03:11:42Z</time>
      </trkpt>
      <trkpt lat="42.38043" lon="2.61898">
        <ele>707.5</ele>
        <time>2018-11-26T03:11:42Z</time>
      </trkpt>
      <trkpt lat="42.38044" lon="2.61898">
        <ele>707.6</ele>
        <time>2018-11-26T03:11:43Z</time>
      </trkpt>
      <trkpt lat="42.38045" lon="2.61898">
        <ele>707.6</ele>
        <time>2018-11-26T03:11:43Z</time>
      </trkpt>
      <trkpt lat="42.38045" lon="2.61898">
        <ele>707.7</ele>
        <time>2018-11-26T03:11:43Z</time>
      </trkpt>
      <trkpt lat="42.38046" lon="2.61898">
        <ele>707.7</ele>
        <time>2018-11-26T03:11:44Z</time>
      </trkpt>
      <trkpt lat="42.38047" lon="2.61898">
        <ele>707.7</ele>
        <time>2018-11-26T03:11:44Z</time>
      </trkpt>
      <trkpt lat="42.38048" lon="2.61898">
        <ele>707.8</ele>
        <time>2018-11-26T03:11:44Z</time>
      </trkpt>
      <trkpt lat="42.38049" lon="2.61897">
        <ele>708</ele>
        <time>2018-11-26T03:11:45Z</time>
      </trkpt>
      <trkpt lat="42.3805" lon="2.61897">
        <ele>708.3</ele>
        <time>2018-11-26T03:11:45Z</time>
      </trkpt>
      <trkpt lat="42.38051" lon="2.61897">
        <ele>708.4</ele>
        <time>2018-11-26T03:11:45Z</time>
      </trkpt>
      <trkpt lat="42.38051" lon="2.61896">
        <ele>708.6</ele>
        <time>2018-11-26T03:11:46Z</time>
      </trkpt>
      <trkpt lat="42.38051" lon="2.61896">
        <ele>708.9</ele>
        <time>2018-11-26T03:11:46Z</time>
      </trkpt>
      <trkpt lat="42.38055" lon="2.61897">
        <ele>709.8</ele>
        <time>2018-11-26T03:11:47Z</time>
      </trkpt>
      <trkpt lat="42.38056" lon="2.61896">
        <ele>710</ele>
        <time>2018-11-26T03:11:48Z</time>
      </trkpt>
      <trkpt lat="42.38057" lon="2.61896">
        <ele>710.3</ele>
        <time>2018-11-26T03:11:48Z</time>
      </trkpt>
      <trkpt lat="42.38058" lon="2.61896">
        <ele>710.5</ele>
        <time>2018-11-26T03:11:48Z</time>
      </trkpt>
      <trkpt lat="42.38059" lon="2.61896">
        <ele>711</ele>
        <time>2018-11-26T03:11:49Z</time>
      </trkpt>
      <trkpt lat="42.3806" lon="2.61896">
        <ele>711.6</ele>
        <time>2018-11-26T03:11:49Z</time>
      </trkpt>
      <trkpt lat="42.3806" lon="2.61896">
        <ele>711.7</ele>
        <time>2018-11-26T03:11:49Z</time>
      </trkpt>
      <trkpt lat="42.38061" lon="2.61896">
        <ele>712</ele>
        <time>2018-11-26T03:11:50Z</time>
      </trkpt>
      <trkpt lat="42.38062" lon="2.61896">
        <ele>712.3</ele>
        <time>2018-11-26T03:11:50Z</time>
      </trkpt>
      <trkpt lat="42.38063" lon="2.61895">
        <ele>712.3</ele>
        <time>2018-11-26T03:11:50Z</time>
      </trkpt>
      <trkpt lat="42.38063" lon="2.61895">
        <ele>712.1</ele>
        <time>2018-11-26T03:11:51Z</time>
      </trkpt>
      <trkpt lat="42.38064" lon="2.61895">
        <ele>711.9</ele>
        <time>2018-11-26T03:11:51Z</time>
      </trkpt>
      <trkpt lat="42.38065" lon="2.61895">
        <ele>712</ele>
        <time>2018-11-26T03:11:51Z</time>
      </trkpt>
      <trkpt lat="42.38065" lon="2.61894">
        <ele>712</ele>
        <time>2018-11-26T03:11:51Z</time>
      </trkpt>
      <trkpt lat="42.38066" lon="2.61894">
        <ele>712.1</ele>
        <time>2018-11-26T03:11:52Z</time>
      </trkpt>
      <trkpt lat="42.38066" lon="2.61894">
        <ele>712.2</ele>
        <time>2018-11-26T03:11:52Z</time>
      </trkpt>
      <trkpt lat="42.38067" lon="2.61893">
        <ele>712.2</ele>
        <time>2018-11-26T03:11:52Z</time>
      </trkpt>
      <trkpt lat="42.38067" lon="2.61893">
        <ele>712.4</ele>
        <time>2018-11-26T03:11:52Z</time>
      </trkpt>
      <trkpt lat="42.38068" lon="2.61893">
        <ele>712.5</ele>
        <time>2018-11-26T03:11:53Z</time>
      </trkpt>
      <trkpt lat="42.38068" lon="2.61893">
        <ele>712.5</ele>
        <time>2018-11-26T03:11:53Z</time>
      </trkpt>
      <trkpt lat="42.38068" lon="2.61893">
        <ele>712.7</ele>
        <time>2018-11-26T03:11:53Z</time>
      </trkpt>
      <trkpt lat="42.38069" lon="2.61893">
        <ele>712.8</ele>
        <time>2018-11-26T03:11:53Z</time>
      </trkpt>
      <trkpt lat="42.38069" lon="2.61893">
        <ele>713.2</ele>
        <time>2018-11-26T03:11:53Z</time>
      </trkpt>
      <trkpt lat="42.3807" lon="2.61893">
        <ele>713.6</ele>
        <time>2018-11-26T03:11:53Z</time>
      </trkpt>
      <trkpt lat="42.3807" lon="2.61894">
        <ele>714.3</ele>
        <time>2018-11-26T03:11:54Z</time>
      </trkpt>
      <trkpt lat="42.38071" lon="2.61895">
        <ele>714.4</ele>
        <time>2018-11-26T03:11:54Z</time>
      </trkpt>
      <trkpt lat="42.38071" lon="2.61896">
        <ele>714.7</ele>
        <time>2018-11-26T03:11:54Z</time>
      </trkpt>
      <trkpt lat="42.38071" lon="2.61896">
        <ele>715.1</ele>
        <time>2018-11-26T03:11:54Z</time>
      </trkpt>
      <trkpt lat="42.38071" lon="2.61896">
        <ele>715.1</ele>
        <time>2018-11-26T03:11:54Z</time>
      </trkpt>
      <trkpt lat="42.38071" lon="2.61897">
        <ele>715.2</ele>
        <time>2018-11-26T03:11:55Z</time>
      </trkpt>
      <trkpt lat="42.38071" lon="2.61898">
        <ele>715.1</ele>
        <time>2018-11-26T03:11:55Z</time>
      </trkpt>
      <trkpt lat="42.38071" lon="2.61898">
        <ele>715.3</ele>
        <time>2018-11-26T03:11:55Z</time>
      </trkpt>
      <trkpt lat="42.38072" lon="2.61899">
        <ele>715.6</ele>
        <time>2018-11-26T03:11:55Z</time>
      </trkpt>
      <trkpt lat="42.38072" lon="2.61899">
        <ele>715.8</ele>
        <time>2018-11-26T03:11:55Z</time>
      </trkpt>
      <trkpt lat="42.38072" lon="2.61899">
        <ele>716</ele>
        <time>2018-11-26T03:11:55Z</time>
      </trkpt>
      <trkpt lat="42.38072" lon="2.61899">
        <ele>716.2</ele>
        <time>2018-11-26T03:11:55Z</time>
      </trkpt>
      <trkpt lat="42.38072" lon="2.619">
        <ele>716.5</ele>
        <time>2018-11-26T03:11:56Z</time>
      </trkpt>
      <trkpt lat="42.38072" lon="2.619">
        <ele>716.9</ele>
        <time>2018-11-26T03:11:56Z</time>
      </trkpt>
      <trkpt lat="42.38072" lon="2.619">
        <ele>716.8</ele>
        <time>2018-11-26T03:11:56Z</time>
      </trkpt>
      <trkpt lat="42.38072" lon="2.619">
        <ele>716.5</ele>
        <time>2018-11-26T03:11:56Z</time>
      </trkpt>
      <trkpt lat="42.38072" lon="2.619">
        <ele>716.1</ele>
        <time>2018-11-26T03:11:56Z</time>
      </trkpt>
      <trkpt lat="42.38072" lon="2.619">
        <ele>716.1</ele>
        <time>2018-11-26T03:11:56Z</time>
      </trkpt>
      <trkpt lat="42.38072" lon="2.619">
        <ele>716.1</ele>
        <time>2018-11-26T03:11:56Z</time>
      </trkpt>
      <trkpt lat="42.38072" lon="2.619">
        <ele>716</ele>
        <time>2018-11-26T03:11:56Z</time>
      </trkpt>
      <trkpt lat="42.38072" lon="2.619">
        <ele>716</ele>
        <time>2018-11-26T03:11:56Z</time>
      </trkpt>
      <trkpt lat="42.38072" lon="2.619">
        <ele>716.2</ele>
        <time>2018-11-26T03:11:56Z</time>
      </trkpt>
      <trkpt lat="42.38072" lon="2.619">
        <ele>716.2</ele>
        <time>2018-11-26T03:11:56Z</time>
      </trkpt>
      <trkpt lat="42.38072" lon="2.619">
        <ele>716.6</ele>
        <time>2018-11-26T03:11:56Z</time>
      </trkpt>
      <trkpt lat="42.38072" lon="2.619">
        <ele>717.2</ele>
        <time>2018-11-26T03:11:56Z</time>
      </trkpt>
      <trkpt lat="42.38072" lon="2.619">
        <ele>717.9</ele>
        <time>2018-11-26T03:11:56Z</time>
      </trkpt>
      <trkpt lat="42.38072" lon="2.61901">
        <ele>717.7</ele>
        <time>2018-11-26T03:11:56Z</time>
      </trkpt>
      <trkpt lat="42.38072" lon="2.61901">
        <ele>717.5</ele>
        <time>2018-11-26T03:11:56Z</time>
      </trkpt>
      <trkpt lat="42.38072" lon="2.61901">
        <ele>717.3</ele>
        <time>2018-11-26T03:11:56Z</time>
      </trkpt>
      <trkpt lat="42.38072" lon="2.61901">
        <ele>716.9</ele>
        <time>2018-11-26T03:11:56Z</time>
      </trkpt>
      <trkpt lat="42.38072" lon="2.61902">
        <ele>716.6</ele>
        <time>2018-11-26T03:11:57Z</time>
      </trkpt>
      <trkpt lat="42.38072" lon="2.61902">
        <ele>716.3</ele>
        <time>2018-11-26T03:11:57Z</time>
      </trkpt>
      <trkpt lat="42.38073" lon="2.61902">
        <ele>715.9</ele>
        <time>2018-11-26T03:11:57Z</time>
      </trkpt>
      <trkpt lat="42.38073" lon="2.61902">
        <ele>716.2</ele>
        <time>2018-11-26T03:11:57Z</time>
      </trkpt>
      <trkpt lat="42.38073" lon="2.61902">
        <ele>716.6</ele>
        <time>2018-11-26T03:11:57Z</time>
      </trkpt>
      <trkpt lat="42.38073" lon="2.61903">
        <ele>717</ele>
        <time>2018-11-26T03:11:57Z</time>
      </trkpt>
      <trkpt lat="42.38073" lon="2.61903">
        <ele>716.9</ele>
        <time>2018-11-26T03:11:57Z</time>
      </trkpt>
      <trkpt lat="42.38072" lon="2.61903">
        <ele>716.8</ele>
        <time>2018-11-26T03:11:57Z</time>
      </trkpt>
      <trkpt lat="42.38072" lon="2.61903">
        <ele>716.5</ele>
        <time>2018-11-26T03:11:57Z</time>
      </trkpt>
      <trkpt lat="42.38072" lon="2.61903">
        <ele>716.5</ele>
        <time>2018-11-26T03:11:57Z</time>
      </trkpt>
      <trkpt lat="42.38073" lon="2.61903">
        <ele>716.6</ele>
        <time>2018-11-26T03:11:57Z</time>
      </trkpt>
      <trkpt lat="42.38073" lon="2.61903">
        <ele>716.9</ele>
        <time>2018-11-26T03:11:57Z</time>
      </trkpt>
      <trkpt lat="42.38073" lon="2.61903">
        <ele>716.7</ele>
        <time>2018-11-26T03:11:57Z</time>
      </trkpt>
      <trkpt lat="42.38073" lon="2.61903">
        <ele>716.6</ele>
        <time>2018-11-26T03:11:57Z</time>
      </trkpt>
      <trkpt lat="42.38073" lon="2.61904">
        <ele>716.6</ele>
        <time>2018-11-26T03:11:58Z</time>
      </trkpt>
      <trkpt lat="42.38073" lon="2.61904">
        <ele>716.7</ele>
        <time>2018-11-26T03:11:58Z</time>
      </trkpt>
      <trkpt lat="42.38073" lon="2.61904">
        <ele>716.8</ele>
        <time>2018-11-26T03:11:58Z</time>
      </trkpt>
      <trkpt lat="42.38073" lon="2.61905">
        <ele>716.8</ele>
        <time>2018-11-26T03:11:58Z</time>
      </trkpt>
      <trkpt lat="42.38073" lon="2.61905">
        <ele>716.6</ele>
        <time>2018-11-26T03:11:58Z</time>
      </trkpt>
      <trkpt lat="42.38073" lon="2.61905">
        <ele>716.3</ele>
        <time>2018-11-26T03:11:58Z</time>
      </trkpt>
      <trkpt lat="42.38073" lon="2.61905">
        <ele>716.3</ele>
        <time>2018-11-26T03:11:58Z</time>
      </trkpt>
      <trkpt lat="42.38073" lon="2.61905">
        <ele>716.4</ele>
        <time>2018-11-26T03:11:58Z</time>
      </trkpt>
      <trkpt lat="42.38073" lon="2.61905">
        <ele>716.4</ele>
        <time>2018-11-26T03:11:58Z</time>
      </trkpt>
      <trkpt lat="42.38073" lon="2.61905">
        <ele>716.5</ele>
        <time>2018-11-26T03:11:58Z</time>
      </trkpt>
      <trkpt lat="42.38074" lon="2.61905">
        <ele>716.5</ele>
        <time>2018-11-26T03:11:58Z</time>
      </trkpt>
      <trkpt lat="42.38074" lon="2.61905">
        <ele>716.3</ele>
        <time>2018-11-26T03:11:58Z</time>
      </trkpt>
      <trkpt lat="42.38074" lon="2.61905">
        <ele>716.1</ele>
        <time>2018-11-26T03:11:58Z</time>
      </trkpt>
      <trkpt lat="42.38074" lon="2.61905">
        <ele>716.3</ele>
        <time>2018-11-26T03:11:58Z</time>
      </trkpt>
      <trkpt lat="42.38074" lon="2.61905">
        <ele>716.6</ele>
        <time>2018-11-26T03:11:58Z</time>
      </trkpt>
      <trkpt lat="42.38074" lon="2.61905">
        <ele>717</ele>
        <time>2018-11-26T03:11:58Z</time>
      </trkpt>
      <trkpt lat="42.38074" lon="2.61905">
        <ele>717</ele>
        <time>2018-11-26T03:11:58Z</time>
      </trkpt>
      <trkpt lat="42.38074" lon="2.61906">
        <ele>716.8</ele>
        <time>2018-11-26T03:11:58Z</time>
      </trkpt>
      <trkpt lat="42.38074" lon="2.61906">
        <ele>716.7</ele>
        <time>2018-11-26T03:11:58Z</time>
      </trkpt>
      <trkpt lat="42.38074" lon="2.61906">
        <ele>716.9</ele>
        <time>2018-11-26T03:11:58Z</time>
      </trkpt>
      <trkpt lat="42.38074" lon="2.61906">
        <ele>717.1</ele>
        <time>2018-11-26T03:11:58Z</time>
      </trkpt>
      <trkpt lat="42.38074" lon="2.61906">
        <ele>717.3</ele>
        <time>2018-11-26T03:11:58Z</time>
      </trkpt>
      <trkpt lat="42.38074" lon="2.61906">
        <ele>717.4</ele>
        <time>2018-11-26T03:11:58Z</time>
      </trkpt>
      <trkpt lat="42.38074" lon="2.61906">
        <ele>717.3</ele>
        <time>2018-11-26T03:11:58Z</time>
      </trkpt>
      <trkpt lat="42.38074" lon="2.61906">
        <ele>717.3</ele>
        <time>2018-11-26T03:11:59Z</time>
      </trkpt>
      <trkpt lat="42.38074" lon="2.61906">
        <ele>717.2</ele>
        <time>2018-11-26T03:11:59Z</time>
      </trkpt>
      <trkpt lat="42.38074" lon="2.61906">
        <ele>717.1</ele>
        <time>2018-11-26T03:11:59Z</time>
      </trkpt>
      <trkpt lat="42.38074" lon="2.61907">
        <ele>717</ele>
        <time>2018-11-26T03:11:59Z</time>
      </trkpt>
      <trkpt lat="42.38074" lon="2.61907">
        <ele>716.8</ele>
        <time>2018-11-26T03:11:59Z</time>
      </trkpt>
      <trkpt lat="42.38074" lon="2.61907">
        <ele>716.9</ele>
        <time>2018-11-26T03:11:59Z</time>
      </trkpt>
      <trkpt lat="42.38074" lon="2.61907">
        <ele>717.2</ele>
        <time>2018-11-26T03:11:59Z</time>
      </trkpt>
      <trkpt lat="42.38075" lon="2.61908">
        <ele>717.4</ele>
        <time>2018-11-26T03:11:59Z</time>
      </trkpt>
      <trkpt lat="42.38075" lon="2.61908">
        <ele>717.3</ele>
        <time>2018-11-26T03:11:59Z</time>
      </trkpt>
      <trkpt lat="42.38075" lon="2.61908">
        <ele>717.1</ele>
        <time>2018-11-26T03:11:59Z</time>
      </trkpt>
      <trkpt lat="42.38075" lon="2.61908">
        <ele>717.4</ele>
        <time>2018-11-26T03:11:59Z</time>
      </trkpt>
      <trkpt lat="42.38075" lon="2.61908">
        <ele>717.4</ele>
        <time>2018-11-26T03:11:59Z</time>
      </trkpt>
      <trkpt lat="42.38075" lon="2.61908">
        <ele>717.8</ele>
        <time>2018-11-26T03:11:59Z</time>
      </trkpt>
      <trkpt lat="42.38075" lon="2.61908">
        <ele>718.1</ele>
        <time>2018-11-26T03:11:59Z</time>
      </trkpt>
      <trkpt lat="42.38075" lon="2.61908">
        <ele>717.9</ele>
        <time>2018-11-26T03:11:59Z</time>
      </trkpt>
      <trkpt lat="42.38075" lon="2.61908">
        <ele>717.8</ele>
        <time>2018-11-26T03:11:59Z</time>
      </trkpt>
      <trkpt lat="42.38075" lon="2.61908">
        <ele>717.8</ele>
        <time>2018-11-26T03:11:59Z</time>
      </trkpt>
      <trkpt lat="42.38075" lon="2.61909">
        <ele>717.7</ele>
        <time>2018-11-26T03:11:59Z</time>
      </trkpt>
      <trkpt lat="42.38075" lon="2.61909">
        <ele>717.7</ele>
        <time>2018-11-26T03:11:59Z</time>
      </trkpt>
      <trkpt lat="42.38075" lon="2.61909">
        <ele>717.7</ele>
        <time>2018-11-26T03:11:59Z</time>
      </trkpt>
      <trkpt lat="42.38075" lon="2.61909">
        <ele>717.6</ele>
        <time>2018-11-26T03:11:59Z</time>
      </trkpt>
      <trkpt lat="42.38075" lon="2.61909">
        <ele>717.3</ele>
        <time>2018-11-26T03:12:00Z</time>
      </trkpt>
      <trkpt lat="42.38075" lon="2.61913">
        <ele>716.9</ele>
        <time>2018-11-26T03:12:01Z</time>
      </trkpt>
      <trkpt lat="42.38076" lon="2.61913">
        <ele>716.8</ele>
        <time>2018-11-26T03:12:01Z</time>
      </trkpt>
      <trkpt lat="42.38076" lon="2.61913">
        <ele>716.7</ele>
        <time>2018-11-26T03:12:01Z</time>
      </trkpt>
      <trkpt lat="42.38076" lon="2.61913">
        <ele>716.7</ele>
        <time>2018-11-26T03:12:01Z</time>
      </trkpt>
      <trkpt lat="42.38077" lon="2.61913">
        <ele>717.1</ele>
        <time>2018-11-26T03:12:01Z</time>
      </trkpt>
      <trkpt lat="42.38077" lon="2.61913">
        <ele>717</ele>
        <time>2018-11-26T03:12:01Z</time>
      </trkpt>
      <trkpt lat="42.38077" lon="2.61913">
        <ele>716.9</ele>
        <time>2018-11-26T03:12:02Z</time>
      </trkpt>
      <trkpt lat="42.38077" lon="2.61913">
        <ele>716.8</ele>
        <time>2018-11-26T03:12:02Z</time>
      </trkpt>
      <trkpt lat="42.38077" lon="2.61913">
        <ele>716.6</ele>
        <time>2018-11-26T03:12:02Z</time>
      </trkpt>
      <trkpt lat="42.38077" lon="2.61913">
        <ele>716.7</ele>
        <time>2018-11-26T03:12:02Z</time>
      </trkpt>
      <trkpt lat="42.38077" lon="2.61912">
        <ele>716.6</ele>
        <time>2018-11-26T03:12:02Z</time>
      </trkpt>
      <trkpt lat="42.38078" lon="2.61912">
        <ele>716.7</ele>
        <time>2018-11-26T03:12:02Z</time>
      </trkpt>
      <trkpt lat="42.38078" lon="2.61912">
        <ele>716.7</ele>
        <time>2018-11-26T03:12:02Z</time>
      </trkpt>
      <trkpt lat="42.38078" lon="2.61912">
        <ele>716.9</ele>
        <time>2018-11-26T03:12:02Z</time>
      </trkpt>
      <trkpt lat="42.38078" lon="2.61911">
        <ele>716.7</ele>
        <time>2018-11-26T03:12:02Z</time>
      </trkpt>
      <trkpt lat="42.38078" lon="2.61911">
        <ele>716.6</ele>
        <time>2018-11-26T03:12:02Z</time>
      </trkpt>
      <trkpt lat="42.38078" lon="2.6191">
        <ele>716.3</ele>
        <time>2018-11-26T03:12:03Z</time>
      </trkpt>
      <trkpt lat="42.38078" lon="2.6191">
        <ele>715.9</ele>
        <time>2018-11-26T03:12:03Z</time>
      </trkpt>
      <trkpt lat="42.38078" lon="2.6191">
        <ele>716.1</ele>
        <time>2018-11-26T03:12:03Z</time>
      </trkpt>
      <trkpt lat="42.38078" lon="2.61909">
        <ele>716.6</ele>
        <time>2018-11-26T03:12:03Z</time>
      </trkpt>
      <trkpt lat="42.38079" lon="2.61909">
        <ele>717</ele>
        <time>2018-11-26T03:12:03Z</time>
      </trkpt>
      <trkpt lat="42.38079" lon="2.61909">
        <ele>717</ele>
        <time>2018-11-26T03:12:03Z</time>
      </trkpt>
      <trkpt lat="42.38079" lon="2.61908">
        <ele>716.9</ele>
        <time>2018-11-26T03:12:03Z</time>
      </trkpt>
      <trkpt lat="42.38079" lon="2.61908">
        <ele>716.8</ele>
        <time>2018-11-26T03:12:03Z</time>
      </trkpt>
      <trkpt lat="42.38079" lon="2.61907">
        <ele>716.8</ele>
        <time>2018-11-26T03:12:04Z</time>
      </trkpt>
      <trkpt lat="42.3808" lon="2.61907">
        <ele>716.6</ele>
        <time>2018-11-26T03:12:04Z</time>
      </trkpt>
      <trkpt lat="42.3808" lon="2.61907">
        <ele>716.5</ele>
        <time>2018-11-26T03:12:04Z</time>
      </trkpt>
      <trkpt lat="42.3808" lon="2.61907">
        <ele>716.2</ele>
        <time>2018-11-26T03:12:04Z</time>
      </trkpt>
      <trkpt lat="42.3808" lon="2.61906">
        <ele>715.9</ele>
        <time>2018-11-26T03:12:04Z</time>
      </trkpt>
      <trkpt lat="42.3808" lon="2.61906">
        <ele>715.3</ele>
        <time>2018-11-26T03:12:04Z</time>
      </trkpt>
      <trkpt lat="42.3808" lon="2.61906">
        <ele>715.5</ele>
        <time>2018-11-26T03:12:04Z</time>
      </trkpt>
      <trkpt lat="42.38081" lon="2.61906">
        <ele>715.6</ele>
        <time>2018-11-26T03:12:04Z</time>
      </trkpt>
      <trkpt lat="42.38081" lon="2.61906">
        <ele>715.7</ele>
        <time>2018-11-26T03:12:05Z</time>
      </trkpt>
      <trkpt lat="42.38081" lon="2.61906">
        <ele>715.9</ele>
        <time>2018-11-26T03:12:05Z</time>
      </trkpt>
      <trkpt lat="42.38081" lon="2.61906">
        <ele>715.6</ele>
        <time>2018-11-26T03:12:05Z</time>
      </trkpt>
      <trkpt lat="42.38081" lon="2.61905">
        <ele>715.4</ele>
        <time>2018-11-26T03:12:05Z</time>
      </trkpt>
      <trkpt lat="42.38083" lon="2.61905">
        <ele>715.6</ele>
        <time>2018-11-26T03:12:06Z</time>
      </trkpt>
      <trkpt lat="42.38084" lon="2.61905">
        <ele>715.4</ele>
        <time>2018-11-26T03:12:06Z</time>
      </trkpt>
      <trkpt lat="42.38084" lon="2.61904">
        <ele>715.4</ele>
        <time>2018-11-26T03:12:06Z</time>
      </trkpt>
      <trkpt lat="42.38084" lon="2.61904">
        <ele>715.7</ele>
        <time>2018-11-26T03:12:06Z</time>
      </trkpt>
      <trkpt lat="42.38085" lon="2.61905">
        <ele>716.2</ele>
        <time>2018-11-26T03:12:07Z</time>
      </trkpt>
      <trkpt lat="42.38086" lon="2.61905">
        <ele>716.7</ele>
        <time>2018-11-26T03:12:07Z</time>
      </trkpt>
      <trkpt lat="42.38091" lon="2.61906">
        <ele>716</ele>
        <time>2018-11-26T03:12:09Z</time>
      </trkpt>
      <trkpt lat="42.38095" lon="2.61906">
        <ele>716.1</ele>
        <time>2018-11-26T03:12:11Z</time>
      </trkpt>
      <trkpt lat="42.38097" lon="2.61906">
        <ele>716.6</ele>
        <time>2018-11-26T03:12:12Z</time>
      </trkpt>
      <trkpt lat="42.38103" lon="2.61907">
        <ele>717.1</ele>
        <time>2018-11-26T03:12:14Z</time>
      </trkpt>
      <trkpt lat="42.38106" lon="2.61907">
        <ele>716.7</ele>
        <time>2018-11-26T03:12:15Z</time>
      </trkpt>
      <trkpt lat="42.38107" lon="2.61907">
        <ele>716.7</ele>
        <time>2018-11-26T03:12:16Z</time>
      </trkpt>
      <trkpt lat="42.38118" lon="2.6191">
        <ele>716.4</ele>
        <time>2018-11-26T03:12:20Z</time>
      </trkpt>
      <trkpt lat="42.38137" lon="2.61915">
        <ele>717.5</ele>
        <time>2018-11-26T03:12:28Z</time>
      </trkpt>
      <trkpt lat="42.38147" lon="2.61918">
        <ele>717.7</ele>
        <time>2018-11-26T03:12:32Z</time>
      </trkpt>
      <trkpt lat="42.38148" lon="2.61919">
        <ele>717.9</ele>
        <time>2018-11-26T03:12:32Z</time>
      </trkpt>
      <trkpt lat="42.38148" lon="2.61919">
        <ele>717.9</ele>
        <time>2018-11-26T03:12:32Z</time>
      </trkpt>
      <trkpt lat="42.38149" lon="2.61919">
        <ele>718.1</ele>
        <time>2018-11-26T03:12:33Z</time>
      </trkpt>
      <trkpt lat="42.38149" lon="2.61919">
        <ele>718.4</ele>
        <time>2018-11-26T03:12:33Z</time>
      </trkpt>
      <trkpt lat="42.3815" lon="2.61919">
        <ele>718.4</ele>
        <time>2018-11-26T03:12:33Z</time>
      </trkpt>
      <trkpt lat="42.3815" lon="2.61919">
        <ele>718.1</ele>
        <time>2018-11-26T03:12:33Z</time>
      </trkpt>
      <trkpt lat="42.3815" lon="2.61919">
        <ele>718</ele>
        <time>2018-11-26T03:12:33Z</time>
      </trkpt>
      <trkpt lat="42.38151" lon="2.61919">
        <ele>717.9</ele>
        <time>2018-11-26T03:12:33Z</time>
      </trkpt>
      <trkpt lat="42.38151" lon="2.61919">
        <ele>717.9</ele>
        <time>2018-11-26T03:12:33Z</time>
      </trkpt>
      <trkpt lat="42.38151" lon="2.61919">
        <ele>717.8</ele>
        <time>2018-11-26T03:12:34Z</time>
      </trkpt>
      <trkpt lat="42.38151" lon="2.61919">
        <ele>717.9</ele>
        <time>2018-11-26T03:12:34Z</time>
      </trkpt>
      <trkpt lat="42.38151" lon="2.61919">
        <ele>717.9</ele>
        <time>2018-11-26T03:12:34Z</time>
      </trkpt>
      <trkpt lat="42.38152" lon="2.61919">
        <ele>718</ele>
        <time>2018-11-26T03:12:34Z</time>
      </trkpt>
      <trkpt lat="42.38151" lon="2.6192">
        <ele>718</ele>
        <time>2018-11-26T03:12:34Z</time>
      </trkpt>
      <trkpt lat="42.38151" lon="2.6192">
        <ele>718.1</ele>
        <time>2018-11-26T03:12:34Z</time>
      </trkpt>
      <trkpt lat="42.3815" lon="2.6192">
        <ele>718.3</ele>
        <time>2018-11-26T03:12:34Z</time>
      </trkpt>
      <trkpt lat="42.3815" lon="2.6192">
        <ele>718.3</ele>
        <time>2018-11-26T03:12:35Z</time>
      </trkpt>
      <trkpt lat="42.3815" lon="2.6192">
        <ele>718.5</ele>
        <time>2018-11-26T03:12:35Z</time>
      </trkpt>
      <trkpt lat="42.3815" lon="2.6192">
        <ele>718.6</ele>
        <time>2018-11-26T03:12:35Z</time>
      </trkpt>
      <trkpt lat="42.38151" lon="2.61921">
        <ele>718.6</ele>
        <time>2018-11-26T03:12:35Z</time>
      </trkpt>
      <trkpt lat="42.38152" lon="2.61921">
        <ele>718.4</ele>
        <time>2018-11-26T03:12:36Z</time>
      </trkpt>
      <trkpt lat="42.38153" lon="2.61921">
        <ele>718.3</ele>
        <time>2018-11-26T03:12:36Z</time>
      </trkpt>
      <trkpt lat="42.38153" lon="2.61921">
        <ele>718.2</ele>
        <time>2018-11-26T03:12:36Z</time>
      </trkpt>
      <trkpt lat="42.38154" lon="2.61922">
        <ele>718.3</ele>
        <time>2018-11-26T03:12:37Z</time>
      </trkpt>
      <trkpt lat="42.38155" lon="2.61923">
        <ele>718.2</ele>
        <time>2018-11-26T03:12:37Z</time>
      </trkpt>
      <trkpt lat="42.38156" lon="2.61924">
        <ele>718.3</ele>
        <time>2018-11-26T03:12:38Z</time>
      </trkpt>
      <trkpt lat="42.38157" lon="2.61924">
        <ele>718.3</ele>
        <time>2018-11-26T03:12:38Z</time>
      </trkpt>
      <trkpt lat="42.38158" lon="2.61925">
        <ele>718.5</ele>
        <time>2018-11-26T03:12:38Z</time>
      </trkpt>
      <trkpt lat="42.38159" lon="2.61926">
        <ele>718.6</ele>
        <time>2018-11-26T03:12:39Z</time>
      </trkpt>
      <trkpt lat="42.3816" lon="2.61926">
        <ele>718.7</ele>
        <time>2018-11-26T03:12:39Z</time>
      </trkpt>
      <trkpt lat="42.38161" lon="2.61927">
        <ele>718.8</ele>
        <time>2018-11-26T03:12:40Z</time>
      </trkpt>
      <trkpt lat="42.38162" lon="2.61927">
        <ele>718.8</ele>
        <time>2018-11-26T03:12:40Z</time>
      </trkpt>
      <trkpt lat="42.38164" lon="2.61928">
        <ele>718.9</ele>
        <time>2018-11-26T03:12:41Z</time>
      </trkpt>
      <trkpt lat="42.38165" lon="2.61928">
        <ele>719</ele>
        <time>2018-11-26T03:12:41Z</time>
      </trkpt>
      <trkpt lat="42.38168" lon="2.6193">
        <ele>719.4</ele>
        <time>2018-11-26T03:12:43Z</time>
      </trkpt>
      <trkpt lat="42.3817" lon="2.61931">
        <ele>719.9</ele>
        <time>2018-11-26T03:12:43Z</time>
      </trkpt>
      <trkpt lat="42.38171" lon="2.61932">
        <ele>720.3</ele>
        <time>2018-11-26T03:12:44Z</time>
      </trkpt>
      <trkpt lat="42.38171" lon="2.61933">
        <ele>720.3</ele>
        <time>2018-11-26T03:12:44Z</time>
      </trkpt>
      <trkpt lat="42.38172" lon="2.61933">
        <ele>720.6</ele>
        <time>2018-11-26T03:12:44Z</time>
      </trkpt>
      <trkpt lat="42.38175" lon="2.61936">
        <ele>721.9</ele>
        <time>2018-11-26T03:12:46Z</time>
      </trkpt>
      <trkpt lat="42.38179" lon="2.61939">
        <ele>721.5</ele>
        <time>2018-11-26T03:12:48Z</time>
      </trkpt>
      <trkpt lat="42.38182" lon="2.61941">
        <ele>721.7</ele>
        <time>2018-11-26T03:12:49Z</time>
      </trkpt>
      <trkpt lat="42.38183" lon="2.61941">
        <ele>721.8</ele>
        <time>2018-11-26T03:12:50Z</time>
      </trkpt>
      <trkpt lat="42.38184" lon="2.61942">
        <ele>721.9</ele>
        <time>2018-11-26T03:12:50Z</time>
      </trkpt>
      <trkpt lat="42.38186" lon="2.61943">
        <ele>721.7</ele>
        <time>2018-11-26T03:12:51Z</time>
      </trkpt>
      <trkpt lat="42.38188" lon="2.61945">
        <ele>721.8</ele>
        <time>2018-11-26T03:12:52Z</time>
      </trkpt>
      <trkpt lat="42.38191" lon="2.61947">
        <ele>722</ele>
        <time>2018-11-26T03:12:53Z</time>
      </trkpt>
      <trkpt lat="42.38196" lon="2.61952">
        <ele>722.2</ele>
        <time>2018-11-26T03:12:56Z</time>
      </trkpt>
      <trkpt lat="42.38197" lon="2.61953">
        <ele>722.7</ele>
        <time>2018-11-26T03:12:56Z</time>
      </trkpt>
      <trkpt lat="42.38198" lon="2.61953">
        <ele>723.5</ele>
        <time>2018-11-26T03:12:57Z</time>
      </trkpt>
      <trkpt lat="42.38201" lon="2.61957">
        <ele>724.7</ele>
        <time>2018-11-26T03:12:58Z</time>
      </trkpt>
      <trkpt lat="42.38204" lon="2.61961">
        <ele>725.4</ele>
        <time>2018-11-26T03:13:00Z</time>
      </trkpt>
      <trkpt lat="42.38205" lon="2.61962">
        <ele>725.4</ele>
        <time>2018-11-26T03:13:01Z</time>
      </trkpt>
      <trkpt lat="42.38206" lon="2.61963">
        <ele>725.5</ele>
        <time>2018-11-26T03:13:01Z</time>
      </trkpt>
      <trkpt lat="42.38212" lon="2.61967">
        <ele>726.6</ele>
        <time>2018-11-26T03:13:04Z</time>
      </trkpt>
      <trkpt lat="42.38218" lon="2.61973">
        <ele>727.5</ele>
        <time>2018-11-26T03:13:06Z</time>
      </trkpt>
      <trkpt lat="42.38218" lon="2.61974">
        <ele>727.5</ele>
        <time>2018-11-26T03:13:07Z</time>
      </trkpt>
      <trkpt lat="42.3822" lon="2.61975">
        <ele>727.6</ele>
        <time>2018-11-26T03:13:08Z</time>
      </trkpt>
      <trkpt lat="42.38222" lon="2.61977">
        <ele>727.7</ele>
        <time>2018-11-26T03:13:09Z</time>
      </trkpt>
      <trkpt lat="42.38224" lon="2.61979">
        <ele>727.7</ele>
        <time>2018-11-26T03:13:10Z</time>
      </trkpt>
      <trkpt lat="42.38225" lon="2.6198">
        <ele>727.7</ele>
        <time>2018-11-26T03:13:10Z</time>
      </trkpt>
      <trkpt lat="42.38226" lon="2.61981">
        <ele>727.6</ele>
        <time>2018-11-26T03:13:10Z</time>
      </trkpt>
      <trkpt lat="42.38228" lon="2.61984">
        <ele>727.9</ele>
        <time>2018-11-26T03:13:12Z</time>
      </trkpt>
      <trkpt lat="42.38228" lon="2.61986">
        <ele>728.2</ele>
        <time>2018-11-26T03:13:12Z</time>
      </trkpt>
      <trkpt lat="42.3823" lon="2.61988">
        <ele>728.9</ele>
        <time>2018-11-26T03:13:13Z</time>
      </trkpt>
      <trkpt lat="42.38231" lon="2.61989">
        <ele>729.4</ele>
        <time>2018-11-26T03:13:14Z</time>
      </trkpt>
      <trkpt lat="42.38231" lon="2.6199">
        <ele>729.4</ele>
        <time>2018-11-26T03:13:14Z</time>
      </trkpt>
      <trkpt lat="42.38233" lon="2.61993">
        <ele>729.9</ele>
        <time>2018-11-26T03:13:15Z</time>
      </trkpt>
      <trkpt lat="42.38234" lon="2.61994">
        <ele>729.9</ele>
        <time>2018-11-26T03:13:16Z</time>
      </trkpt>
      <trkpt lat="42.38235" lon="2.61996">
        <ele>730</ele>
        <time>2018-11-26T03:13:16Z</time>
      </trkpt>
      <trkpt lat="42.38236" lon="2.61997">
        <ele>730.3</ele>
        <time>2018-11-26T03:13:17Z</time>
      </trkpt>
      <trkpt lat="42.38236" lon="2.61998">
        <ele>730.8</ele>
        <time>2018-11-26T03:13:17Z</time>
      </trkpt>
      <trkpt lat="42.38237" lon="2.61999">
        <ele>731</ele>
        <time>2018-11-26T03:13:18Z</time>
      </trkpt>
      <trkpt lat="42.38238" lon="2.62">
        <ele>731.4</ele>
        <time>2018-11-26T03:13:18Z</time>
      </trkpt>
      <trkpt lat="42.38241" lon="2.62005">
        <ele>733.2</ele>
        <time>2018-11-26T03:13:20Z</time>
      </trkpt>
      <trkpt lat="42.38244" lon="2.62008">
        <ele>732.8</ele>
        <time>2018-11-26T03:13:21Z</time>
      </trkpt>
      <trkpt lat="42.38247" lon="2.62011">
        <ele>733.9</ele>
        <time>2018-11-26T03:13:23Z</time>
      </trkpt>
      <trkpt lat="42.38248" lon="2.62012">
        <ele>734.2</ele>
        <time>2018-11-26T03:13:23Z</time>
      </trkpt>
      <trkpt lat="42.3825" lon="2.62015">
        <ele>734.7</ele>
        <time>2018-11-26T03:13:25Z</time>
      </trkpt>
      <trkpt lat="42.38251" lon="2.62015">
        <ele>734.5</ele>
        <time>2018-11-26T03:13:25Z</time>
      </trkpt>
      <trkpt lat="42.38251" lon="2.62016">
        <ele>734.3</ele>
        <time>2018-11-26T03:13:25Z</time>
      </trkpt>
      <trkpt lat="42.38252" lon="2.62019">
        <ele>734.6</ele>
        <time>2018-11-26T03:13:26Z</time>
      </trkpt>
      <trkpt lat="42.38253" lon="2.62022">
        <ele>735.2</ele>
        <time>2018-11-26T03:13:27Z</time>
      </trkpt>
      <trkpt lat="42.38254" lon="2.62023">
        <ele>735.7</ele>
        <time>2018-11-26T03:13:27Z</time>
      </trkpt>
      <trkpt lat="42.38254" lon="2.62024">
        <ele>736.3</ele>
        <time>2018-11-26T03:13:28Z</time>
      </trkpt>
      <trkpt lat="42.38255" lon="2.62025">
        <ele>737.1</ele>
        <time>2018-11-26T03:13:28Z</time>
      </trkpt>
      <trkpt lat="42.38256" lon="2.62025">
        <ele>737.4</ele>
        <time>2018-11-26T03:13:29Z</time>
      </trkpt>
      <trkpt lat="42.38257" lon="2.62025">
        <ele>737.9</ele>
        <time>2018-11-26T03:13:29Z</time>
      </trkpt>
      <trkpt lat="42.38258" lon="2.62026">
        <ele>738.6</ele>
        <time>2018-11-26T03:13:30Z</time>
      </trkpt>
      <trkpt lat="42.38259" lon="2.62026">
        <ele>738.8</ele>
        <time>2018-11-26T03:13:30Z</time>
      </trkpt>
      <trkpt lat="42.3826" lon="2.62026">
        <ele>739.2</ele>
        <time>2018-11-26T03:13:30Z</time>
      </trkpt>
      <trkpt lat="42.38261" lon="2.62027">
        <ele>739.5</ele>
        <time>2018-11-26T03:13:31Z</time>
      </trkpt>
      <trkpt lat="42.38262" lon="2.62027">
        <ele>739.6</ele>
        <time>2018-11-26T03:13:31Z</time>
      </trkpt>
      <trkpt lat="42.38263" lon="2.62028">
        <ele>739.8</ele>
        <time>2018-11-26T03:13:32Z</time>
      </trkpt>
      <trkpt lat="42.38264" lon="2.62028">
        <ele>740</ele>
        <time>2018-11-26T03:13:32Z</time>
      </trkpt>
      <trkpt lat="42.38265" lon="2.62028">
        <ele>740.1</ele>
        <time>2018-11-26T03:13:32Z</time>
      </trkpt>
      <trkpt lat="42.38266" lon="2.62028">
        <ele>740.3</ele>
        <time>2018-11-26T03:13:33Z</time>
      </trkpt>
      <trkpt lat="42.38267" lon="2.62028">
        <ele>740.4</ele>
        <time>2018-11-26T03:13:33Z</time>
      </trkpt>
      <trkpt lat="42.38268" lon="2.62029">
        <ele>740.7</ele>
        <time>2018-11-26T03:13:34Z</time>
      </trkpt>
      <trkpt lat="42.38269" lon="2.62028">
        <ele>740.8</ele>
        <time>2018-11-26T03:13:34Z</time>
      </trkpt>
      <trkpt lat="42.3827" lon="2.62028">
        <ele>740.8</ele>
        <time>2018-11-26T03:13:35Z</time>
      </trkpt>
      <trkpt lat="42.38271" lon="2.62028">
        <ele>740.9</ele>
        <time>2018-11-26T03:13:35Z</time>
      </trkpt>
      <trkpt lat="42.38272" lon="2.62028">
        <ele>741</ele>
        <time>2018-11-26T03:13:35Z</time>
      </trkpt>
      <trkpt lat="42.38273" lon="2.62029">
        <ele>741.1</ele>
        <time>2018-11-26T03:13:36Z</time>
      </trkpt>
      <trkpt lat="42.38275" lon="2.62029">
        <ele>741.1</ele>
        <time>2018-11-26T03:13:36Z</time>
      </trkpt>
      <trkpt lat="42.38276" lon="2.62029">
        <ele>740.9</ele>
        <time>2018-11-26T03:13:37Z</time>
      </trkpt>
      <trkpt lat="42.38277" lon="2.6203">
        <ele>740.8</ele>
        <time>2018-11-26T03:13:37Z</time>
      </trkpt>
      <trkpt lat="42.38277" lon="2.6203">
        <ele>741.3</ele>
        <time>2018-11-26T03:13:37Z</time>
      </trkpt>
      <trkpt lat="42.38278" lon="2.62031">
        <ele>741.6</ele>
        <time>2018-11-26T03:13:38Z</time>
      </trkpt>
      <trkpt lat="42.38279" lon="2.62031">
        <ele>742.4</ele>
        <time>2018-11-26T03:13:38Z</time>
      </trkpt>
      <trkpt lat="42.3828" lon="2.62032">
        <ele>742.4</ele>
        <time>2018-11-26T03:13:39Z</time>
      </trkpt>
      <trkpt lat="42.38283" lon="2.62032">
        <ele>742.6</ele>
        <time>2018-11-26T03:13:40Z</time>
      </trkpt>
      <trkpt lat="42.38284" lon="2.62032">
        <ele>742.7</ele>
        <time>2018-11-26T03:13:40Z</time>
      </trkpt>
      <trkpt lat="42.38284" lon="2.62032">
        <ele>742.8</ele>
        <time>2018-11-26T03:13:40Z</time>
      </trkpt>
      <trkpt lat="42.38285" lon="2.62032">
        <ele>743</ele>
        <time>2018-11-26T03:13:41Z</time>
      </trkpt>
      <trkpt lat="42.38286" lon="2.62032">
        <ele>743.3</ele>
        <time>2018-11-26T03:13:41Z</time>
      </trkpt>
      <trkpt lat="42.38287" lon="2.62031">
        <ele>743.2</ele>
        <time>2018-11-26T03:13:41Z</time>
      </trkpt>
      <trkpt lat="42.38287" lon="2.62031">
        <ele>743.1</ele>
        <time>2018-11-26T03:13:42Z</time>
      </trkpt>
      <trkpt lat="42.38288" lon="2.62031">
        <ele>743.2</ele>
        <time>2018-11-26T03:13:42Z</time>
      </trkpt>
      <trkpt lat="42.38289" lon="2.6203">
        <ele>743.2</ele>
        <time>2018-11-26T03:13:42Z</time>
      </trkpt>
      <trkpt lat="42.38289" lon="2.6203">
        <ele>743.3</ele>
        <time>2018-11-26T03:13:42Z</time>
      </trkpt>
      <trkpt lat="42.38289" lon="2.6203">
        <ele>743.2</ele>
        <time>2018-11-26T03:13:42Z</time>
      </trkpt>
      <trkpt lat="42.3829" lon="2.6203">
        <ele>743.1</ele>
        <time>2018-11-26T03:13:43Z</time>
      </trkpt>
      <trkpt lat="42.3829" lon="2.62031">
        <ele>742.9</ele>
        <time>2018-11-26T03:13:43Z</time>
      </trkpt>
      <trkpt lat="42.3829" lon="2.62031">
        <ele>742.6</ele>
        <time>2018-11-26T03:13:43Z</time>
      </trkpt>
      <trkpt lat="42.38291" lon="2.6203">
        <ele>743</ele>
        <time>2018-11-26T03:13:43Z</time>
      </trkpt>
      <trkpt lat="42.38292" lon="2.6203">
        <ele>743.4</ele>
        <time>2018-11-26T03:13:43Z</time>
      </trkpt>
      <trkpt lat="42.38293" lon="2.6203">
        <ele>744</ele>
        <time>2018-11-26T03:13:44Z</time>
      </trkpt>
      <trkpt lat="42.38293" lon="2.62029">
        <ele>744.9</ele>
        <time>2018-11-26T03:13:44Z</time>
      </trkpt>
      <trkpt lat="42.38294" lon="2.62029">
        <ele>745</ele>
        <time>2018-11-26T03:13:45Z</time>
      </trkpt>
      <trkpt lat="42.38295" lon="2.62028">
        <ele>745</ele>
        <time>2018-11-26T03:13:45Z</time>
      </trkpt>
      <trkpt lat="42.38296" lon="2.62027">
        <ele>745.2</ele>
        <time>2018-11-26T03:13:45Z</time>
      </trkpt>
      <trkpt lat="42.38296" lon="2.62027">
        <ele>745.2</ele>
        <time>2018-11-26T03:13:46Z</time>
      </trkpt>
      <trkpt lat="42.38297" lon="2.62027">
        <ele>745.4</ele>
        <time>2018-11-26T03:13:46Z</time>
      </trkpt>
      <trkpt lat="42.38297" lon="2.62026">
        <ele>745.5</ele>
        <time>2018-11-26T03:13:46Z</time>
      </trkpt>
      <trkpt lat="42.38298" lon="2.62026">
        <ele>745.9</ele>
        <time>2018-11-26T03:13:46Z</time>
      </trkpt>
      <trkpt lat="42.38299" lon="2.62026">
        <ele>746.3</ele>
        <time>2018-11-26T03:13:47Z</time>
      </trkpt>
      <trkpt lat="42.38299" lon="2.62026">
        <ele>747.1</ele>
        <time>2018-11-26T03:13:47Z</time>
      </trkpt>
      <trkpt lat="42.383" lon="2.62025">
        <ele>747.1</ele>
        <time>2018-11-26T03:13:47Z</time>
      </trkpt>
      <trkpt lat="42.38301" lon="2.62025">
        <ele>746.9</ele>
        <time>2018-11-26T03:13:47Z</time>
      </trkpt>
      <trkpt lat="42.38301" lon="2.62025">
        <ele>746.9</ele>
        <time>2018-11-26T03:13:48Z</time>
      </trkpt>
      <trkpt lat="42.38302" lon="2.62024">
        <ele>747.1</ele>
        <time>2018-11-26T03:13:48Z</time>
      </trkpt>
      <trkpt lat="42.38303" lon="2.62024">
        <ele>747.3</ele>
        <time>2018-11-26T03:13:48Z</time>
      </trkpt>
      <trkpt lat="42.38304" lon="2.62024">
        <ele>747.7</ele>
        <time>2018-11-26T03:13:49Z</time>
      </trkpt>
      <trkpt lat="42.38305" lon="2.62024">
        <ele>748.2</ele>
        <time>2018-11-26T03:13:49Z</time>
      </trkpt>
      <trkpt lat="42.38305" lon="2.62025">
        <ele>748.3</ele>
        <time>2018-11-26T03:13:49Z</time>
      </trkpt>
      <trkpt lat="42.38306" lon="2.62024">
        <ele>748.2</ele>
        <time>2018-11-26T03:13:50Z</time>
      </trkpt>
      <trkpt lat="42.38307" lon="2.62024">
        <ele>748.4</ele>
        <time>2018-11-26T03:13:50Z</time>
      </trkpt>
      <trkpt lat="42.38308" lon="2.62024">
        <ele>748.3</ele>
        <time>2018-11-26T03:13:50Z</time>
      </trkpt>
      <trkpt lat="42.38309" lon="2.62023">
        <ele>748.5</ele>
        <time>2018-11-26T03:13:51Z</time>
      </trkpt>
      <trkpt lat="42.3831" lon="2.62023">
        <ele>748.6</ele>
        <time>2018-11-26T03:13:51Z</time>
      </trkpt>
      <trkpt lat="42.38312" lon="2.62022">
        <ele>748.6</ele>
        <time>2018-11-26T03:13:52Z</time>
      </trkpt>
      <trkpt lat="42.38313" lon="2.62022">
        <ele>748.8</ele>
        <time>2018-11-26T03:13:52Z</time>
      </trkpt>
      <trkpt lat="42.38314" lon="2.62021">
        <ele>749.1</ele>
        <time>2018-11-26T03:13:53Z</time>
      </trkpt>
      <trkpt lat="42.38315" lon="2.62021">
        <ele>749.6</ele>
        <time>2018-11-26T03:13:53Z</time>
      </trkpt>
      <trkpt lat="42.38316" lon="2.62021">
        <ele>750.1</ele>
        <time>2018-11-26T03:13:54Z</time>
      </trkpt>
      <trkpt lat="42.38318" lon="2.6202">
        <ele>750.9</ele>
        <time>2018-11-26T03:13:55Z</time>
      </trkpt>
      <trkpt lat="42.38318" lon="2.62019">
        <ele>751.4</ele>
        <time>2018-11-26T03:13:55Z</time>
      </trkpt>
      <trkpt lat="42.38319" lon="2.62019">
        <ele>752.1</ele>
        <time>2018-11-26T03:13:55Z</time>
      </trkpt>
      <trkpt lat="42.3832" lon="2.62019">
        <ele>752</ele>
        <time>2018-11-26T03:13:55Z</time>
      </trkpt>
      <trkpt lat="42.3832" lon="2.62019">
        <ele>752.1</ele>
        <time>2018-11-26T03:13:56Z</time>
      </trkpt>
      <trkpt lat="42.38321" lon="2.62019">
        <ele>751.9</ele>
        <time>2018-11-26T03:13:56Z</time>
      </trkpt>
      <trkpt lat="42.38322" lon="2.62019">
        <ele>752.1</ele>
        <time>2018-11-26T03:13:56Z</time>
      </trkpt>
      <trkpt lat="42.38323" lon="2.6202">
        <ele>752.3</ele>
        <time>2018-11-26T03:13:57Z</time>
      </trkpt>
      <trkpt lat="42.38323" lon="2.6202">
        <ele>752.5</ele>
        <time>2018-11-26T03:13:57Z</time>
      </trkpt>
      <trkpt lat="42.38324" lon="2.62021">
        <ele>752.7</ele>
        <time>2018-11-26T03:13:57Z</time>
      </trkpt>
      <trkpt lat="42.38325" lon="2.62021">
        <ele>753.1</ele>
        <time>2018-11-26T03:13:57Z</time>
      </trkpt>
      <trkpt lat="42.38326" lon="2.62021">
        <ele>753.5</ele>
        <time>2018-11-26T03:13:58Z</time>
      </trkpt>
      <trkpt lat="42.38326" lon="2.62022">
        <ele>753.6</ele>
        <time>2018-11-26T03:13:58Z</time>
      </trkpt>
      <trkpt lat="42.38327" lon="2.62022">
        <ele>753.8</ele>
        <time>2018-11-26T03:13:58Z</time>
      </trkpt>
      <trkpt lat="42.38327" lon="2.62022">
        <ele>754</ele>
        <time>2018-11-26T03:13:59Z</time>
      </trkpt>
      <trkpt lat="42.38328" lon="2.62023">
        <ele>754.3</ele>
        <time>2018-11-26T03:13:59Z</time>
      </trkpt>
      <trkpt lat="42.38328" lon="2.62023">
        <ele>754.7</ele>
        <time>2018-11-26T03:13:59Z</time>
      </trkpt>
      <trkpt lat="42.38329" lon="2.62024">
        <ele>755.3</ele>
        <time>2018-11-26T03:13:59Z</time>
      </trkpt>
      <trkpt lat="42.38329" lon="2.62024">
        <ele>755.4</ele>
        <time>2018-11-26T03:14:00Z</time>
      </trkpt>
      <trkpt lat="42.3833" lon="2.62025">
        <ele>755.6</ele>
        <time>2018-11-26T03:14:00Z</time>
      </trkpt>
      <trkpt lat="42.38331" lon="2.62025">
        <ele>755.8</ele>
        <time>2018-11-26T03:14:00Z</time>
      </trkpt>
      <trkpt lat="42.38331" lon="2.62026">
        <ele>755.9</ele>
        <time>2018-11-26T03:14:01Z</time>
      </trkpt>
      <trkpt lat="42.38331" lon="2.62027">
        <ele>756.4</ele>
        <time>2018-11-26T03:14:01Z</time>
      </trkpt>
      <trkpt lat="42.38331" lon="2.62028">
        <ele>756.8</ele>
        <time>2018-11-26T03:14:01Z</time>
      </trkpt>
      <trkpt lat="42.38332" lon="2.62029">
        <ele>757.6</ele>
        <time>2018-11-26T03:14:01Z</time>
      </trkpt>
      <trkpt lat="42.38332" lon="2.6203">
        <ele>757.7</ele>
        <time>2018-11-26T03:14:02Z</time>
      </trkpt>
      <trkpt lat="42.38332" lon="2.62031">
        <ele>758.1</ele>
        <time>2018-11-26T03:14:02Z</time>
      </trkpt>
      <trkpt lat="42.38334" lon="2.62032">
        <ele>758.4</ele>
        <time>2018-11-26T03:14:03Z</time>
      </trkpt>
      <trkpt lat="42.38335" lon="2.62032">
        <ele>758.4</ele>
        <time>2018-11-26T03:14:03Z</time>
      </trkpt>
      <trkpt lat="42.38335" lon="2.62033">
        <ele>758.3</ele>
        <time>2018-11-26T03:14:03Z</time>
      </trkpt>
      <trkpt lat="42.38337" lon="2.62034">
        <ele>758.3</ele>
        <time>2018-11-26T03:14:04Z</time>
      </trkpt>
      <trkpt lat="42.38337" lon="2.62035">
        <ele>758.5</ele>
        <time>2018-11-26T03:14:04Z</time>
      </trkpt>
      <trkpt lat="42.38338" lon="2.62036">
        <ele>758.7</ele>
        <time>2018-11-26T03:14:05Z</time>
      </trkpt>
      <trkpt lat="42.38338" lon="2.62036">
        <ele>759</ele>
        <time>2018-11-26T03:14:05Z</time>
      </trkpt>
      <trkpt lat="42.38339" lon="2.62037">
        <ele>759.2</ele>
        <time>2018-11-26T03:14:05Z</time>
      </trkpt>
      <trkpt lat="42.38339" lon="2.62038">
        <ele>759.7</ele>
        <time>2018-11-26T03:14:05Z</time>
      </trkpt>
      <trkpt lat="42.38339" lon="2.62038">
        <ele>759.9</ele>
        <time>2018-11-26T03:14:06Z</time>
      </trkpt>
      <trkpt lat="42.38339" lon="2.62039">
        <ele>760.1</ele>
        <time>2018-11-26T03:14:06Z</time>
      </trkpt>
      <trkpt lat="42.3834" lon="2.6204">
        <ele>760.5</ele>
        <time>2018-11-26T03:14:06Z</time>
      </trkpt>
      <trkpt lat="42.3834" lon="2.62041">
        <ele>760.8</ele>
        <time>2018-11-26T03:14:06Z</time>
      </trkpt>
      <trkpt lat="42.3834" lon="2.62041">
        <ele>761.3</ele>
        <time>2018-11-26T03:14:07Z</time>
      </trkpt>
      <trkpt lat="42.3834" lon="2.62042">
        <ele>761.7</ele>
        <time>2018-11-26T03:14:07Z</time>
      </trkpt>
      <trkpt lat="42.3834" lon="2.62043">
        <ele>761.9</ele>
        <time>2018-11-26T03:14:07Z</time>
      </trkpt>
      <trkpt lat="42.38341" lon="2.62044">
        <ele>761.8</ele>
        <time>2018-11-26T03:14:07Z</time>
      </trkpt>
      <trkpt lat="42.38341" lon="2.62045">
        <ele>761.9</ele>
        <time>2018-11-26T03:14:08Z</time>
      </trkpt>
      <trkpt lat="42.38341" lon="2.62046">
        <ele>761.9</ele>
        <time>2018-11-26T03:14:08Z</time>
      </trkpt>
      <trkpt lat="42.3834" lon="2.62047">
        <ele>761.9</ele>
        <time>2018-11-26T03:14:08Z</time>
      </trkpt>
      <trkpt lat="42.3834" lon="2.62047">
        <ele>761.9</ele>
        <time>2018-11-26T03:14:09Z</time>
      </trkpt>
      <trkpt lat="42.38339" lon="2.62048">
        <ele>762.1</ele>
        <time>2018-11-26T03:14:09Z</time>
      </trkpt>
      <trkpt lat="42.38339" lon="2.62049">
        <ele>762.2</ele>
        <time>2018-11-26T03:14:09Z</time>
      </trkpt>
      <trkpt lat="42.38338" lon="2.6205">
        <ele>762.2</ele>
        <time>2018-11-26T03:14:10Z</time>
      </trkpt>
      <trkpt lat="42.38338" lon="2.62051">
        <ele>762.4</ele>
        <time>2018-11-26T03:14:10Z</time>
      </trkpt>
      <trkpt lat="42.38334" lon="2.62054">
        <ele>762.8</ele>
        <time>2018-11-26T03:14:12Z</time>
      </trkpt>
      <trkpt lat="42.38332" lon="2.62055">
        <ele>763.8</ele>
        <time>2018-11-26T03:14:13Z</time>
      </trkpt>
      <trkpt lat="42.3833" lon="2.62057">
        <ele>763.8</ele>
        <time>2018-11-26T03:14:14Z</time>
      </trkpt>
      <trkpt lat="42.38327" lon="2.62059">
        <ele>763.7</ele>
        <time>2018-11-26T03:14:15Z</time>
      </trkpt>
      <trkpt lat="42.38326" lon="2.62059">
        <ele>763.8</ele>
        <time>2018-11-26T03:14:15Z</time>
      </trkpt>
      <trkpt lat="42.38325" lon="2.6206">
        <ele>763.8</ele>
        <time>2018-11-26T03:14:16Z</time>
      </trkpt>
      <trkpt lat="42.38324" lon="2.6206">
        <ele>763.8</ele>
        <time>2018-11-26T03:14:16Z</time>
      </trkpt>
      <trkpt lat="42.38324" lon="2.62061">
        <ele>763.8</ele>
        <time>2018-11-26T03:14:16Z</time>
      </trkpt>
      <trkpt lat="42.38323" lon="2.62062">
        <ele>763.9</ele>
        <time>2018-11-26T03:14:17Z</time>
      </trkpt>
      <trkpt lat="42.38322" lon="2.62063">
        <ele>763.9</ele>
        <time>2018-11-26T03:14:17Z</time>
      </trkpt>
      <trkpt lat="42.38321" lon="2.62064">
        <ele>764.4</ele>
        <time>2018-11-26T03:14:18Z</time>
      </trkpt>
      <trkpt lat="42.3832" lon="2.62064">
        <ele>764.3</ele>
        <time>2018-11-26T03:14:18Z</time>
      </trkpt>
      <trkpt lat="42.38319" lon="2.62065">
        <ele>764.3</ele>
        <time>2018-11-26T03:14:19Z</time>
      </trkpt>
      <trkpt lat="42.38318" lon="2.62066">
        <ele>764.2</ele>
        <time>2018-11-26T03:14:19Z</time>
      </trkpt>
      <trkpt lat="42.38318" lon="2.62066">
        <ele>764.3</ele>
        <time>2018-11-26T03:14:19Z</time>
      </trkpt>
      <trkpt lat="42.38317" lon="2.62067">
        <ele>764.4</ele>
        <time>2018-11-26T03:14:20Z</time>
      </trkpt>
      <trkpt lat="42.38316" lon="2.62067">
        <ele>764.6</ele>
        <time>2018-11-26T03:14:20Z</time>
      </trkpt>
      <trkpt lat="42.38316" lon="2.62068">
        <ele>764.7</ele>
        <time>2018-11-26T03:14:20Z</time>
      </trkpt>
      <trkpt lat="42.38316" lon="2.62068">
        <ele>764.7</ele>
        <time>2018-11-26T03:14:20Z</time>
      </trkpt>
      <trkpt lat="42.38316" lon="2.62068">
        <ele>765</ele>
        <time>2018-11-26T03:14:20Z</time>
      </trkpt>
      <trkpt lat="42.38316" lon="2.62068">
        <ele>764.8</ele>
        <time>2018-11-26T03:14:20Z</time>
      </trkpt>
      <trkpt lat="42.38316" lon="2.62068">
        <ele>764.8</ele>
        <time>2018-11-26T03:14:20Z</time>
      </trkpt>
      <trkpt lat="42.38316" lon="2.62068">
        <ele>764.7</ele>
        <time>2018-11-26T03:14:20Z</time>
      </trkpt>
      <trkpt lat="42.38316" lon="2.62068">
        <ele>764.5</ele>
        <time>2018-11-26T03:14:20Z</time>
      </trkpt>
      <trkpt lat="42.38316" lon="2.62068">
        <ele>764.5</ele>
        <time>2018-11-26T03:14:20Z</time>
      </trkpt>
      <trkpt lat="42.38316" lon="2.62068">
        <ele>764.6</ele>
        <time>2018-11-26T03:14:20Z</time>
      </trkpt>
      <trkpt lat="42.38316" lon="2.62068">
        <ele>764.5</ele>
        <time>2018-11-26T03:14:21Z</time>
      </trkpt>
      <trkpt lat="42.38316" lon="2.62068">
        <ele>764.6</ele>
        <time>2018-11-26T03:14:21Z</time>
      </trkpt>
      <trkpt lat="42.38316" lon="2.62068">
        <ele>765</ele>
        <time>2018-11-26T03:14:21Z</time>
      </trkpt>
      <trkpt lat="42.38316" lon="2.62068">
        <ele>764.8</ele>
        <time>2018-11-26T03:14:21Z</time>
      </trkpt>
      <trkpt lat="42.38316" lon="2.62068">
        <ele>764.8</ele>
        <time>2018-11-26T03:14:21Z</time>
      </trkpt>
      <trkpt lat="42.38316" lon="2.62068">
        <ele>764.9</ele>
        <time>2018-11-26T03:14:21Z</time>
      </trkpt>
      <trkpt lat="42.38316" lon="2.62068">
        <ele>764.9</ele>
        <time>2018-11-26T03:14:21Z</time>
      </trkpt>
      <trkpt lat="42.38316" lon="2.62068">
        <ele>764.5</ele>
        <time>2018-11-26T03:14:21Z</time>
      </trkpt>
      <trkpt lat="42.38316" lon="2.62068">
        <ele>764.2</ele>
        <time>2018-11-26T03:14:21Z</time>
      </trkpt>
      <trkpt lat="42.38316" lon="2.62068">
        <ele>763.8</ele>
        <time>2018-11-26T03:14:21Z</time>
      </trkpt>
      <trkpt lat="42.38316" lon="2.62069">
        <ele>763.9</ele>
        <time>2018-11-26T03:14:21Z</time>
      </trkpt>
      <trkpt lat="42.38316" lon="2.62069">
        <ele>763.9</ele>
        <time>2018-11-26T03:14:21Z</time>
      </trkpt>
      <trkpt lat="42.38316" lon="2.62069">
        <ele>764</ele>
        <time>2018-11-26T03:14:21Z</time>
      </trkpt>
      <trkpt lat="42.38316" lon="2.62069">
        <ele>764.1</ele>
        <time>2018-11-26T03:14:21Z</time>
      </trkpt>
      <trkpt lat="42.38316" lon="2.62069">
        <ele>764.1</ele>
        <time>2018-11-26T03:14:21Z</time>
      </trkpt>
      <trkpt lat="42.38316" lon="2.62069">
        <ele>764</ele>
        <time>2018-11-26T03:14:21Z</time>
      </trkpt>
      <trkpt lat="42.38316" lon="2.62069">
        <ele>764.1</ele>
        <time>2018-11-26T03:14:21Z</time>
      </trkpt>
      <trkpt lat="42.38316" lon="2.62069">
        <ele>764</ele>
        <time>2018-11-26T03:14:21Z</time>
      </trkpt>
      <trkpt lat="42.38316" lon="2.62069">
        <ele>763.9</ele>
        <time>2018-11-26T03:14:21Z</time>
      </trkpt>
      <trkpt lat="42.38316" lon="2.62069">
        <ele>763.8</ele>
        <time>2018-11-26T03:14:21Z</time>
      </trkpt>
      <trkpt lat="42.38316" lon="2.62069">
        <ele>764.6</ele>
        <time>2018-11-26T03:14:22Z</time>
      </trkpt>
      <trkpt lat="42.38316" lon="2.62069">
        <ele>764.5</ele>
        <time>2018-11-26T03:14:22Z</time>
      </trkpt>
      <trkpt lat="42.38316" lon="2.62069">
        <ele>764.4</ele>
        <time>2018-11-26T03:14:22Z</time>
      </trkpt>
      <trkpt lat="42.38316" lon="2.62069">
        <ele>764.2</ele>
        <time>2018-11-26T03:14:22Z</time>
      </trkpt>
      <trkpt lat="42.38316" lon="2.62069">
        <ele>764.3</ele>
        <time>2018-11-26T03:14:22Z</time>
      </trkpt>
      <trkpt lat="42.38316" lon="2.62069">
        <ele>764.3</ele>
        <time>2018-11-26T03:14:22Z</time>
      </trkpt>
      <trkpt lat="42.38315" lon="2.62069">
        <ele>764.3</ele>
        <time>2018-11-26T03:14:22Z</time>
      </trkpt>
      <trkpt lat="42.38315" lon="2.62069">
        <ele>764.1</ele>
        <time>2018-11-26T03:14:22Z</time>
      </trkpt>
      <trkpt lat="42.38315" lon="2.62069">
        <ele>764.1</ele>
        <time>2018-11-26T03:14:22Z</time>
      </trkpt>
      <trkpt lat="42.38315" lon="2.62069">
        <ele>764</ele>
        <time>2018-11-26T03:14:22Z</time>
      </trkpt>
      <trkpt lat="42.38315" lon="2.62069">
        <ele>764</ele>
        <time>2018-11-26T03:14:22Z</time>
      </trkpt>
      <trkpt lat="42.38315" lon="2.62069">
        <ele>764.1</ele>
        <time>2018-11-26T03:14:22Z</time>
      </trkpt>
      <trkpt lat="42.38315" lon="2.62069">
        <ele>764.4</ele>
        <time>2018-11-26T03:14:22Z</time>
      </trkpt>
      <trkpt lat="42.38315" lon="2.62069">
        <ele>764.5</ele>
        <time>2018-11-26T03:14:22Z</time>
      </trkpt>
      <trkpt lat="42.38315" lon="2.62069">
        <ele>764.4</ele>
        <time>2018-11-26T03:14:22Z</time>
      </trkpt>
      <trkpt lat="42.38315" lon="2.62069">
        <ele>764.4</ele>
        <time>2018-11-26T03:14:22Z</time>
      </trkpt>
      <trkpt lat="42.38314" lon="2.62069">
        <ele>764.3</ele>
        <time>2018-11-26T03:14:22Z</time>
      </trkpt>
      <trkpt lat="42.38314" lon="2.62069">
        <ele>764.4</ele>
        <time>2018-11-26T03:14:22Z</time>
      </trkpt>
      <trkpt lat="42.38314" lon="2.62069">
        <ele>764.6</ele>
        <time>2018-11-26T03:14:22Z</time>
      </trkpt>
      <trkpt lat="42.38314" lon="2.62069">
        <ele>765</ele>
        <time>2018-11-26T03:14:22Z</time>
      </trkpt>
      <trkpt lat="42.38314" lon="2.62069">
        <ele>765.1</ele>
        <time>2018-11-26T03:14:22Z</time>
      </trkpt>
      <trkpt lat="42.38314" lon="2.62069">
        <ele>765.4</ele>
        <time>2018-11-26T03:14:22Z</time>
      </trkpt>
      <trkpt lat="42.38314" lon="2.62069">
        <ele>765.5</ele>
        <time>2018-11-26T03:14:22Z</time>
      </trkpt>
      <trkpt lat="42.38314" lon="2.62069">
        <ele>765.5</ele>
        <time>2018-11-26T03:14:22Z</time>
      </trkpt>
      <trkpt lat="42.38314" lon="2.62069">
        <ele>765.7</ele>
        <time>2018-11-26T03:14:23Z</time>
      </trkpt>
      <trkpt lat="42.38314" lon="2.62069">
        <ele>765.8</ele>
        <time>2018-11-26T03:14:23Z</time>
      </trkpt>
      <trkpt lat="42.38313" lon="2.62069">
        <ele>765.8</ele>
        <time>2018-11-26T03:14:23Z</time>
      </trkpt>
      <trkpt lat="42.38313" lon="2.62069">
        <ele>765.8</ele>
        <time>2018-11-26T03:14:23Z</time>
      </trkpt>
      <trkpt lat="42.38313" lon="2.62069">
        <ele>765.9</ele>
        <time>2018-11-26T03:14:23Z</time>
      </trkpt>
      <trkpt lat="42.38313" lon="2.62069">
        <ele>765.8</ele>
        <time>2018-11-26T03:14:23Z</time>
      </trkpt>
      <trkpt lat="42.38313" lon="2.62069">
        <ele>765.5</ele>
        <time>2018-11-26T03:14:23Z</time>
      </trkpt>
      <trkpt lat="42.38312" lon="2.62068">
        <ele>765.3</ele>
        <time>2018-11-26T03:14:23Z</time>
      </trkpt>
      <trkpt lat="42.38312" lon="2.62068">
        <ele>764.9</ele>
        <time>2018-11-26T03:14:23Z</time>
      </trkpt>
      <trkpt lat="42.38312" lon="2.62069">
        <ele>764.7</ele>
        <time>2018-11-26T03:14:23Z</time>
      </trkpt>
      <trkpt lat="42.38313" lon="2.62068">
        <ele>764.5</ele>
        <time>2018-11-26T03:14:23Z</time>
      </trkpt>
      <trkpt lat="42.38313" lon="2.62068">
        <ele>764.2</ele>
        <time>2018-11-26T03:14:24Z</time>
      </trkpt>
      <trkpt lat="42.38313" lon="2.62067">
        <ele>764.5</ele>
        <time>2018-11-26T03:14:24Z</time>
      </trkpt>
      <trkpt lat="42.38313" lon="2.62067">
        <ele>764.6</ele>
        <time>2018-11-26T03:14:24Z</time>
      </trkpt>
      <trkpt lat="42.38313" lon="2.62067">
        <ele>764.9</ele>
        <time>2018-11-26T03:14:24Z</time>
      </trkpt>
      <trkpt lat="42.38313" lon="2.62067">
        <ele>764.9</ele>
        <time>2018-11-26T03:14:24Z</time>
      </trkpt>
      <trkpt lat="42.38313" lon="2.62067">
        <ele>764.9</ele>
        <time>2018-11-26T03:14:24Z</time>
      </trkpt>
      <trkpt lat="42.38313" lon="2.62067">
        <ele>764.9</ele>
        <time>2018-11-26T03:14:24Z</time>
      </trkpt>
      <trkpt lat="42.38313" lon="2.62067">
        <ele>765.1</ele>
        <time>2018-11-26T03:14:24Z</time>
      </trkpt>
      <trkpt lat="42.38313" lon="2.62068">
        <ele>765</ele>
        <time>2018-11-26T03:14:24Z</time>
      </trkpt>
      <trkpt lat="42.38312" lon="2.62069">
        <ele>765.1</ele>
        <time>2018-11-26T03:14:25Z</time>
      </trkpt>
      <trkpt lat="42.38312" lon="2.62069">
        <ele>765</ele>
        <time>2018-11-26T03:14:25Z</time>
      </trkpt>
      <trkpt lat="42.38311" lon="2.6207">
        <ele>765</ele>
        <time>2018-11-26T03:14:25Z</time>
      </trkpt>
      <trkpt lat="42.38311" lon="2.62071">
        <ele>764.7</ele>
        <time>2018-11-26T03:14:25Z</time>
      </trkpt>
      <trkpt lat="42.38311" lon="2.62071">
        <ele>764.6</ele>
        <time>2018-11-26T03:14:26Z</time>
      </trkpt>
      <trkpt lat="42.3831" lon="2.62072">
        <ele>764.8</ele>
        <time>2018-11-26T03:14:26Z</time>
      </trkpt>
      <trkpt lat="42.3831" lon="2.62072">
        <ele>764.8</ele>
        <time>2018-11-26T03:14:26Z</time>
      </trkpt>
      <trkpt lat="42.3831" lon="2.62072">
        <ele>765</ele>
        <time>2018-11-26T03:14:26Z</time>
      </trkpt>
      <trkpt lat="42.3831" lon="2.62072">
        <ele>765.1</ele>
        <time>2018-11-26T03:14:26Z</time>
      </trkpt>
      <trkpt lat="42.3831" lon="2.62072">
        <ele>765</ele>
        <time>2018-11-26T03:14:26Z</time>
      </trkpt>
      <trkpt lat="42.3831" lon="2.62072">
        <ele>765</ele>
        <time>2018-11-26T03:14:26Z</time>
      </trkpt>
      <trkpt lat="42.3831" lon="2.62072">
        <ele>765</ele>
        <time>2018-11-26T03:14:26Z</time>
      </trkpt>
      <trkpt lat="42.3831" lon="2.62072">
        <ele>764.7</ele>
        <time>2018-11-26T03:14:26Z</time>
      </trkpt>
      <trkpt lat="42.3831" lon="2.62073">
        <ele>764.3</ele>
        <time>2018-11-26T03:14:26Z</time>
      </trkpt>
      <trkpt lat="42.3831" lon="2.62073">
        <ele>764.4</ele>
        <time>2018-11-26T03:14:26Z</time>
      </trkpt>
      <trkpt lat="42.3831" lon="2.62073">
        <ele>764.4</ele>
        <time>2018-11-26T03:14:26Z</time>
      </trkpt>
      <trkpt lat="42.3831" lon="2.62073">
        <ele>764.6</ele>
        <time>2018-11-26T03:14:26Z</time>
      </trkpt>
      <trkpt lat="42.3831" lon="2.62073">
        <ele>764.7</ele>
        <time>2018-11-26T03:14:26Z</time>
      </trkpt>
      <trkpt lat="42.3831" lon="2.62074">
        <ele>764.8</ele>
        <time>2018-11-26T03:14:26Z</time>
      </trkpt>
      <trkpt lat="42.3831" lon="2.62074">
        <ele>765</ele>
        <time>2018-11-26T03:14:26Z</time>
      </trkpt>
      <trkpt lat="42.3831" lon="2.62074">
        <ele>765.2</ele>
        <time>2018-11-26T03:14:26Z</time>
      </trkpt>
      <trkpt lat="42.3831" lon="2.62074">
        <ele>765.1</ele>
        <time>2018-11-26T03:14:27Z</time>
      </trkpt>
      <trkpt lat="42.3831" lon="2.62075">
        <ele>764.7</ele>
        <time>2018-11-26T03:14:27Z</time>
      </trkpt>
      <trkpt lat="42.3831" lon="2.62076">
        <ele>764.8</ele>
        <time>2018-11-26T03:14:27Z</time>
      </trkpt>
      <trkpt lat="42.38311" lon="2.62076">
        <ele>765</ele>
        <time>2018-11-26T03:14:27Z</time>
      </trkpt>
      <trkpt lat="42.38311" lon="2.62078">
        <ele>765.4</ele>
        <time>2018-11-26T03:14:28Z</time>
      </trkpt>
      <trkpt lat="42.38311" lon="2.62078">
        <ele>765.4</ele>
        <time>2018-11-26T03:14:28Z</time>
      </trkpt>
      <trkpt lat="42.38311" lon="2.62079">
        <ele>765.2</ele>
        <time>2018-11-26T03:14:28Z</time>
      </trkpt>
      <trkpt lat="42.38311" lon="2.62079">
        <ele>765.2</ele>
        <time>2018-11-26T03:14:28Z</time>
      </trkpt>
      <trkpt lat="42.38311" lon="2.62079">
        <ele>765.3</ele>
        <time>2018-11-26T03:14:28Z</time>
      </trkpt>
      <trkpt lat="42.3831" lon="2.62079">
        <ele>765.7</ele>
        <time>2018-11-26T03:14:28Z</time>
      </trkpt>
      <trkpt lat="42.38311" lon="2.6208">
        <ele>765.6</ele>
        <time>2018-11-26T03:14:28Z</time>
      </trkpt>
      <trkpt lat="42.3831" lon="2.6208">
        <ele>765.4</ele>
        <time>2018-11-26T03:14:28Z</time>
      </trkpt>
      <trkpt lat="42.3831" lon="2.62081">
        <ele>765.1</ele>
        <time>2018-11-26T03:14:29Z</time>
      </trkpt>
      <trkpt lat="42.3831" lon="2.62081">
        <ele>765</ele>
        <time>2018-11-26T03:14:29Z</time>
      </trkpt>
      <trkpt lat="42.3831" lon="2.62082">
        <ele>764.9</ele>
        <time>2018-11-26T03:14:29Z</time>
      </trkpt>
      <trkpt lat="42.38309" lon="2.62082">
        <ele>764.7</ele>
        <time>2018-11-26T03:14:29Z</time>
      </trkpt>
      <trkpt lat="42.38309" lon="2.62083">
        <ele>764.8</ele>
        <time>2018-11-26T03:14:29Z</time>
      </trkpt>
      <trkpt lat="42.38309" lon="2.62083">
        <ele>764.9</ele>
        <time>2018-11-26T03:14:30Z</time>
      </trkpt>
      <trkpt lat="42.38308" lon="2.62084">
        <ele>765</ele>
        <time>2018-11-26T03:14:30Z</time>
      </trkpt>
      <trkpt lat="42.38308" lon="2.62084">
        <ele>765.1</ele>
        <time>2018-11-26T03:14:30Z</time>
      </trkpt>
      <trkpt lat="42.38308" lon="2.62084">
        <ele>765.4</ele>
        <time>2018-11-26T03:14:30Z</time>
      </trkpt>
      <trkpt lat="42.38308" lon="2.62085">
        <ele>765.5</ele>
        <time>2018-11-26T03:14:30Z</time>
      </trkpt>
      <trkpt lat="42.38308" lon="2.62085">
        <ele>765.8</ele>
        <time>2018-11-26T03:14:30Z</time>
      </trkpt>
      <trkpt lat="42.38307" lon="2.62085">
        <ele>765.8</ele>
        <time>2018-11-26T03:14:30Z</time>
      </trkpt>
      <trkpt lat="42.38307" lon="2.62086">
        <ele>766</ele>
        <time>2018-11-26T03:14:31Z</time>
      </trkpt>
      <trkpt lat="42.38307" lon="2.62086">
        <ele>765.9</ele>
        <time>2018-11-26T03:14:31Z</time>
      </trkpt>
      <trkpt lat="42.38307" lon="2.62086">
        <ele>766</ele>
        <time>2018-11-26T03:14:31Z</time>
      </trkpt>
      <trkpt lat="42.38306" lon="2.62087">
        <ele>766.2</ele>
        <time>2018-11-26T03:14:31Z</time>
      </trkpt>
      <trkpt lat="42.38306" lon="2.62087">
        <ele>766.5</ele>
        <time>2018-11-26T03:14:31Z</time>
      </trkpt>
      <trkpt lat="42.38306" lon="2.62088">
        <ele>766.4</ele>
        <time>2018-11-26T03:14:31Z</time>
      </trkpt>
      <trkpt lat="42.38306" lon="2.62088">
        <ele>766.5</ele>
        <time>2018-11-26T03:14:31Z</time>
      </trkpt>
      <trkpt lat="42.38305" lon="2.62088">
        <ele>766.6</ele>
        <time>2018-11-26T03:14:32Z</time>
      </trkpt>
      <trkpt lat="42.38305" lon="2.62089">
        <ele>766.5</ele>
        <time>2018-11-26T03:14:32Z</time>
      </trkpt>
      <trkpt lat="42.38305" lon="2.6209">
        <ele>766.5</ele>
        <time>2018-11-26T03:14:32Z</time>
      </trkpt>
      <trkpt lat="42.38304" lon="2.62091">
        <ele>766.6</ele>
        <time>2018-11-26T03:14:32Z</time>
      </trkpt>
      <trkpt lat="42.38304" lon="2.62091">
        <ele>766.8</ele>
        <time>2018-11-26T03:14:33Z</time>
      </trkpt>
      <trkpt lat="42.38304" lon="2.62092">
        <ele>767.1</ele>
        <time>2018-11-26T03:14:33Z</time>
      </trkpt>
      <trkpt lat="42.38303" lon="2.62093">
        <ele>767.4</ele>
        <time>2018-11-26T03:14:33Z</time>
      </trkpt>
      <trkpt lat="42.38303" lon="2.62094">
        <ele>767.5</ele>
        <time>2018-11-26T03:14:34Z</time>
      </trkpt>
      <trkpt lat="42.38303" lon="2.62095">
        <ele>767.6</ele>
        <time>2018-11-26T03:14:34Z</time>
      </trkpt>
      <trkpt lat="42.38304" lon="2.62097">
        <ele>767.7</ele>
        <time>2018-11-26T03:14:34Z</time>
      </trkpt>
      <trkpt lat="42.38304" lon="2.62098">
        <ele>767.8</ele>
        <time>2018-11-26T03:14:35Z</time>
      </trkpt>
      <trkpt lat="42.38304" lon="2.62101">
        <ele>768</ele>
        <time>2018-11-26T03:14:36Z</time>
      </trkpt>
      <trkpt lat="42.38304" lon="2.62102">
        <ele>768.2</ele>
        <time>2018-11-26T03:14:36Z</time>
      </trkpt>
      <trkpt lat="42.38304" lon="2.62103">
        <ele>768.2</ele>
        <time>2018-11-26T03:14:36Z</time>
      </trkpt>
      <trkpt lat="42.38303" lon="2.62103">
        <ele>768.3</ele>
        <time>2018-11-26T03:14:36Z</time>
      </trkpt>
      <trkpt lat="42.38302" lon="2.62104">
        <ele>768.3</ele>
        <time>2018-11-26T03:14:37Z</time>
      </trkpt>
      <trkpt lat="42.38302" lon="2.62105">
        <ele>768.4</ele>
        <time>2018-11-26T03:14:37Z</time>
      </trkpt>
      <trkpt lat="42.38302" lon="2.62106">
        <ele>768.6</ele>
        <time>2018-11-26T03:14:38Z</time>
      </trkpt>
      <trkpt lat="42.38301" lon="2.62107">
        <ele>768.7</ele>
        <time>2018-11-26T03:14:38Z</time>
      </trkpt>
      <trkpt lat="42.38301" lon="2.62108">
        <ele>768.9</ele>
        <time>2018-11-26T03:14:38Z</time>
      </trkpt>
      <trkpt lat="42.38301" lon="2.62109">
        <ele>769.1</ele>
        <time>2018-11-26T03:14:38Z</time>
      </trkpt>
      <trkpt lat="42.38301" lon="2.6211">
        <ele>769.4</ele>
        <time>2018-11-26T03:14:39Z</time>
      </trkpt>
      <trkpt lat="42.383" lon="2.62111">
        <ele>769.8</ele>
        <time>2018-11-26T03:14:39Z</time>
      </trkpt>
      <trkpt lat="42.383" lon="2.62112">
        <ele>769.7</ele>
        <time>2018-11-26T03:14:40Z</time>
      </trkpt>
      <trkpt lat="42.38299" lon="2.62113">
        <ele>769.5</ele>
        <time>2018-11-26T03:14:40Z</time>
      </trkpt>
      <trkpt lat="42.38299" lon="2.62114">
        <ele>769.4</ele>
        <time>2018-11-26T03:14:40Z</time>
      </trkpt>
      <trkpt lat="42.38298" lon="2.62115">
        <ele>769.6</ele>
        <time>2018-11-26T03:14:40Z</time>
      </trkpt>
      <trkpt lat="42.38298" lon="2.62115">
        <ele>769.9</ele>
        <time>2018-11-26T03:14:41Z</time>
      </trkpt>
      <trkpt lat="42.38298" lon="2.62115">
        <ele>770.3</ele>
        <time>2018-11-26T03:14:41Z</time>
      </trkpt>
      <trkpt lat="42.38297" lon="2.62116">
        <ele>770.3</ele>
        <time>2018-11-26T03:14:41Z</time>
      </trkpt>
      <trkpt lat="42.38297" lon="2.62117">
        <ele>770.2</ele>
        <time>2018-11-26T03:14:41Z</time>
      </trkpt>
      <trkpt lat="42.38296" lon="2.62118">
        <ele>770.2</ele>
        <time>2018-11-26T03:14:42Z</time>
      </trkpt>
      <trkpt lat="42.38294" lon="2.62122">
        <ele>771.1</ele>
        <time>2018-11-26T03:14:43Z</time>
      </trkpt>
      <trkpt lat="42.38292" lon="2.62124">
        <ele>771.4</ele>
        <time>2018-11-26T03:14:44Z</time>
      </trkpt>
      <trkpt lat="42.38292" lon="2.62126">
        <ele>771.4</ele>
        <time>2018-11-26T03:14:45Z</time>
      </trkpt>
      <trkpt lat="42.38291" lon="2.62127">
        <ele>771.5</ele>
        <time>2018-11-26T03:14:45Z</time>
      </trkpt>
      <trkpt lat="42.38291" lon="2.62128">
        <ele>771.6</ele>
        <time>2018-11-26T03:14:46Z</time>
      </trkpt>
      <trkpt lat="42.3829" lon="2.62129">
        <ele>771.7</ele>
        <time>2018-11-26T03:14:46Z</time>
      </trkpt>
      <trkpt lat="42.3829" lon="2.62129">
        <ele>771.8</ele>
        <time>2018-11-26T03:14:46Z</time>
      </trkpt>
      <trkpt lat="42.3829" lon="2.6213">
        <ele>772</ele>
        <time>2018-11-26T03:14:46Z</time>
      </trkpt>
      <trkpt lat="42.3829" lon="2.62131">
        <ele>772.3</ele>
        <time>2018-11-26T03:14:46Z</time>
      </trkpt>
      <trkpt lat="42.3829" lon="2.62132">
        <ele>772.6</ele>
        <time>2018-11-26T03:14:47Z</time>
      </trkpt>
      <trkpt lat="42.3829" lon="2.62133">
        <ele>772.5</ele>
        <time>2018-11-26T03:14:47Z</time>
      </trkpt>
      <trkpt lat="42.38289" lon="2.62134">
        <ele>772.5</ele>
        <time>2018-11-26T03:14:48Z</time>
      </trkpt>
      <trkpt lat="42.38289" lon="2.62135">
        <ele>772.5</ele>
        <time>2018-11-26T03:14:48Z</time>
      </trkpt>
      <trkpt lat="42.38288" lon="2.62136">
        <ele>772.8</ele>
        <time>2018-11-26T03:14:48Z</time>
      </trkpt>
      <trkpt lat="42.38288" lon="2.62138">
        <ele>773.2</ele>
        <time>2018-11-26T03:14:49Z</time>
      </trkpt>
      <trkpt lat="42.38288" lon="2.62139">
        <ele>773.8</ele>
        <time>2018-11-26T03:14:49Z</time>
      </trkpt>
      <trkpt lat="42.38288" lon="2.62141">
        <ele>774</ele>
        <time>2018-11-26T03:14:50Z</time>
      </trkpt>
      <trkpt lat="42.38288" lon="2.62142">
        <ele>774.1</ele>
        <time>2018-11-26T03:14:50Z</time>
      </trkpt>
      <trkpt lat="42.38288" lon="2.62143">
        <ele>774.3</ele>
        <time>2018-11-26T03:14:50Z</time>
      </trkpt>
      <trkpt lat="42.38288" lon="2.62144">
        <ele>774.1</ele>
        <time>2018-11-26T03:14:51Z</time>
      </trkpt>
      <trkpt lat="42.38287" lon="2.62146">
        <ele>774.1</ele>
        <time>2018-11-26T03:14:51Z</time>
      </trkpt>
      <trkpt lat="42.38288" lon="2.62146">
        <ele>774</ele>
        <time>2018-11-26T03:14:51Z</time>
      </trkpt>
      <trkpt lat="42.38287" lon="2.62148">
        <ele>774</ele>
        <time>2018-11-26T03:14:52Z</time>
      </trkpt>
      <trkpt lat="42.38287" lon="2.62149">
        <ele>774.2</ele>
        <time>2018-11-26T03:14:52Z</time>
      </trkpt>
      <trkpt lat="42.38286" lon="2.6215">
        <ele>774.5</ele>
        <time>2018-11-26T03:14:53Z</time>
      </trkpt>
      <trkpt lat="42.38286" lon="2.62151">
        <ele>774.8</ele>
        <time>2018-11-26T03:14:53Z</time>
      </trkpt>
      <trkpt lat="42.38286" lon="2.62152">
        <ele>775</ele>
        <time>2018-11-26T03:14:53Z</time>
      </trkpt>
      <trkpt lat="42.38286" lon="2.62154">
        <ele>775.1</ele>
        <time>2018-11-26T03:14:54Z</time>
      </trkpt>
      <trkpt lat="42.38285" lon="2.62155">
        <ele>775.4</ele>
        <time>2018-11-26T03:14:54Z</time>
      </trkpt>
      <trkpt lat="42.38285" lon="2.62157">
        <ele>775.5</ele>
        <time>2018-11-26T03:14:55Z</time>
      </trkpt>
      <trkpt lat="42.38284" lon="2.62158">
        <ele>775.7</ele>
        <time>2018-11-26T03:14:55Z</time>
      </trkpt>
      <trkpt lat="42.38284" lon="2.62159">
        <ele>776</ele>
        <time>2018-11-26T03:14:55Z</time>
      </trkpt>
      <trkpt lat="42.38283" lon="2.6216">
        <ele>776.2</ele>
        <time>2018-11-26T03:14:56Z</time>
      </trkpt>
      <trkpt lat="42.38283" lon="2.62161">
        <ele>776.4</ele>
        <time>2018-11-26T03:14:56Z</time>
      </trkpt>
      <trkpt lat="42.38283" lon="2.62162">
        <ele>776.6</ele>
        <time>2018-11-26T03:14:56Z</time>
      </trkpt>
      <trkpt lat="42.38283" lon="2.62164">
        <ele>776.7</ele>
        <time>2018-11-26T03:14:57Z</time>
      </trkpt>
      <trkpt lat="42.38283" lon="2.62165">
        <ele>777.1</ele>
        <time>2018-11-26T03:14:57Z</time>
      </trkpt>
      <trkpt lat="42.38282" lon="2.62166">
        <ele>777.4</ele>
        <time>2018-11-26T03:14:58Z</time>
      </trkpt>
      <trkpt lat="42.38282" lon="2.62168">
        <ele>777.8</ele>
        <time>2018-11-26T03:14:58Z</time>
      </trkpt>
      <trkpt lat="42.38282" lon="2.62169">
        <ele>777.8</ele>
        <time>2018-11-26T03:14:59Z</time>
      </trkpt>
      <trkpt lat="42.38282" lon="2.62171">
        <ele>778</ele>
        <time>2018-11-26T03:14:59Z</time>
      </trkpt>
      <trkpt lat="42.38281" lon="2.62172">
        <ele>778.2</ele>
        <time>2018-11-26T03:15:00Z</time>
      </trkpt>
      <trkpt lat="42.38281" lon="2.62173">
        <ele>778.4</ele>
        <time>2018-11-26T03:15:00Z</time>
      </trkpt>
      <trkpt lat="42.3828" lon="2.62175">
        <ele>778.8</ele>
        <time>2018-11-26T03:15:00Z</time>
      </trkpt>
      <trkpt lat="42.3828" lon="2.62176">
        <ele>779.1</ele>
        <time>2018-11-26T03:15:01Z</time>
      </trkpt>
      <trkpt lat="42.3828" lon="2.62177">
        <ele>779.1</ele>
        <time>2018-11-26T03:15:01Z</time>
      </trkpt>
      <trkpt lat="42.38279" lon="2.62184">
        <ele>779.2</ele>
        <time>2018-11-26T03:15:03Z</time>
      </trkpt>
      <trkpt lat="42.38279" lon="2.62185">
        <ele>779.6</ele>
        <time>2018-11-26T03:15:03Z</time>
      </trkpt>
      <trkpt lat="42.38278" lon="2.62186">
        <ele>779.7</ele>
        <time>2018-11-26T03:15:04Z</time>
      </trkpt>
      <trkpt lat="42.38278" lon="2.62187">
        <ele>779.8</ele>
        <time>2018-11-26T03:15:04Z</time>
      </trkpt>
      <trkpt lat="42.38278" lon="2.62189">
        <ele>780.1</ele>
        <time>2018-11-26T03:15:05Z</time>
      </trkpt>
      <trkpt lat="42.38278" lon="2.6219">
        <ele>780.4</ele>
        <time>2018-11-26T03:15:05Z</time>
      </trkpt>
      <trkpt lat="42.38278" lon="2.62191">
        <ele>780.3</ele>
        <time>2018-11-26T03:15:05Z</time>
      </trkpt>
      <trkpt lat="42.38277" lon="2.62192">
        <ele>780.2</ele>
        <time>2018-11-26T03:15:06Z</time>
      </trkpt>
      <trkpt lat="42.38277" lon="2.62194">
        <ele>780.2</ele>
        <time>2018-11-26T03:15:06Z</time>
      </trkpt>
      <trkpt lat="42.38277" lon="2.62195">
        <ele>780.5</ele>
        <time>2018-11-26T03:15:07Z</time>
      </trkpt>
      <trkpt lat="42.38276" lon="2.62196">
        <ele>780.9</ele>
        <time>2018-11-26T03:15:07Z</time>
      </trkpt>
      <trkpt lat="42.38276" lon="2.62197">
        <ele>781.4</ele>
        <time>2018-11-26T03:15:07Z</time>
      </trkpt>
      <trkpt lat="42.38275" lon="2.62198">
        <ele>781.3</ele>
        <time>2018-11-26T03:15:08Z</time>
      </trkpt>
      <trkpt lat="42.38275" lon="2.62199">
        <ele>781.1</ele>
        <time>2018-11-26T03:15:08Z</time>
      </trkpt>
      <trkpt lat="42.38274" lon="2.622">
        <ele>780.9</ele>
        <time>2018-11-26T03:15:08Z</time>
      </trkpt>
      <trkpt lat="42.38274" lon="2.62201">
        <ele>781.1</ele>
        <time>2018-11-26T03:15:09Z</time>
      </trkpt>
      <trkpt lat="42.38274" lon="2.62202">
        <ele>781.6</ele>
        <time>2018-11-26T03:15:09Z</time>
      </trkpt>
      <trkpt lat="42.38273" lon="2.62203">
        <ele>781.9</ele>
        <time>2018-11-26T03:15:10Z</time>
      </trkpt>
      <trkpt lat="42.38273" lon="2.62205">
        <ele>782</ele>
        <time>2018-11-26T03:15:10Z</time>
      </trkpt>
      <trkpt lat="42.38273" lon="2.62206">
        <ele>782</ele>
        <time>2018-11-26T03:15:10Z</time>
      </trkpt>
      <trkpt lat="42.38272" lon="2.62206">
        <ele>782</ele>
        <time>2018-11-26T03:15:10Z</time>
      </trkpt>
      <trkpt lat="42.38272" lon="2.62208">
        <ele>782.3</ele>
        <time>2018-11-26T03:15:11Z</time>
      </trkpt>
      <trkpt lat="42.38272" lon="2.62209">
        <ele>782.5</ele>
        <time>2018-11-26T03:15:11Z</time>
      </trkpt>
      <trkpt lat="42.38271" lon="2.6221">
        <ele>782.8</ele>
        <time>2018-11-26T03:15:12Z</time>
      </trkpt>
      <trkpt lat="42.3827" lon="2.62211">
        <ele>783.3</ele>
        <time>2018-11-26T03:15:12Z</time>
      </trkpt>
      <trkpt lat="42.3827" lon="2.62213">
        <ele>783.4</ele>
        <time>2018-11-26T03:15:13Z</time>
      </trkpt>
      <trkpt lat="42.3827" lon="2.62214">
        <ele>783.5</ele>
        <time>2018-11-26T03:15:13Z</time>
      </trkpt>
      <trkpt lat="42.38269" lon="2.62215">
        <ele>783.6</ele>
        <time>2018-11-26T03:15:13Z</time>
      </trkpt>
      <trkpt lat="42.38268" lon="2.62216">
        <ele>783.7</ele>
        <time>2018-11-26T03:15:14Z</time>
      </trkpt>
      <trkpt lat="42.38268" lon="2.62217">
        <ele>784</ele>
        <time>2018-11-26T03:15:14Z</time>
      </trkpt>
      <trkpt lat="42.38268" lon="2.62218">
        <ele>784.1</ele>
        <time>2018-11-26T03:15:15Z</time>
      </trkpt>
      <trkpt lat="42.38268" lon="2.6222">
        <ele>784.2</ele>
        <time>2018-11-26T03:15:15Z</time>
      </trkpt>
      <trkpt lat="42.38267" lon="2.62221">
        <ele>784.4</ele>
        <time>2018-11-26T03:15:15Z</time>
      </trkpt>
      <trkpt lat="42.38267" lon="2.62222">
        <ele>784.5</ele>
        <time>2018-11-26T03:15:16Z</time>
      </trkpt>
      <trkpt lat="42.38266" lon="2.62223">
        <ele>784.7</ele>
        <time>2018-11-26T03:15:16Z</time>
      </trkpt>
      <trkpt lat="42.38266" lon="2.62224">
        <ele>785</ele>
        <time>2018-11-26T03:15:16Z</time>
      </trkpt>
      <trkpt lat="42.38265" lon="2.62225">
        <ele>785.2</ele>
        <time>2018-11-26T03:15:17Z</time>
      </trkpt>
      <trkpt lat="42.38265" lon="2.62227">
        <ele>785.3</ele>
        <time>2018-11-26T03:15:17Z</time>
      </trkpt>
      <trkpt lat="42.38264" lon="2.62229">
        <ele>785.2</ele>
        <time>2018-11-26T03:15:18Z</time>
      </trkpt>
      <trkpt lat="42.38264" lon="2.6223">
        <ele>785.2</ele>
        <time>2018-11-26T03:15:18Z</time>
      </trkpt>
      <trkpt lat="42.38264" lon="2.62231">
        <ele>785.1</ele>
        <time>2018-11-26T03:15:19Z</time>
      </trkpt>
      <trkpt lat="42.38264" lon="2.62232">
        <ele>785.3</ele>
        <time>2018-11-26T03:15:19Z</time>
      </trkpt>
      <trkpt lat="42.38263" lon="2.62233">
        <ele>785.7</ele>
        <time>2018-11-26T03:15:19Z</time>
      </trkpt>
      <trkpt lat="42.38263" lon="2.62235">
        <ele>786.1</ele>
        <time>2018-11-26T03:15:20Z</time>
      </trkpt>
      <trkpt lat="42.38263" lon="2.62237">
        <ele>786.2</ele>
        <time>2018-11-26T03:15:20Z</time>
      </trkpt>
      <trkpt lat="42.38263" lon="2.62238">
        <ele>786.6</ele>
        <time>2018-11-26T03:15:21Z</time>
      </trkpt>
      <trkpt lat="42.38263" lon="2.6224">
        <ele>786.8</ele>
        <time>2018-11-26T03:15:21Z</time>
      </trkpt>
      <trkpt lat="42.38263" lon="2.62241">
        <ele>786.6</ele>
        <time>2018-11-26T03:15:22Z</time>
      </trkpt>
      <trkpt lat="42.38263" lon="2.62242">
        <ele>786.4</ele>
        <time>2018-11-26T03:15:22Z</time>
      </trkpt>
      <trkpt lat="42.38263" lon="2.62243">
        <ele>786</ele>
        <time>2018-11-26T03:15:22Z</time>
      </trkpt>
      <trkpt lat="42.38262" lon="2.62244">
        <ele>786</ele>
        <time>2018-11-26T03:15:23Z</time>
      </trkpt>
      <trkpt lat="42.38262" lon="2.62245">
        <ele>785.9</ele>
        <time>2018-11-26T03:15:23Z</time>
      </trkpt>
      <trkpt lat="42.38262" lon="2.62247">
        <ele>786</ele>
        <time>2018-11-26T03:15:24Z</time>
      </trkpt>
      <trkpt lat="42.38261" lon="2.62248">
        <ele>786.3</ele>
        <time>2018-11-26T03:15:24Z</time>
      </trkpt>
      <trkpt lat="42.38261" lon="2.6225">
        <ele>786.6</ele>
        <time>2018-11-26T03:15:24Z</time>
      </trkpt>
      <trkpt lat="42.3826" lon="2.62251">
        <ele>787.2</ele>
        <time>2018-11-26T03:15:25Z</time>
      </trkpt>
      <trkpt lat="42.3826" lon="2.62252">
        <ele>787.8</ele>
        <time>2018-11-26T03:15:25Z</time>
      </trkpt>
      <trkpt lat="42.3826" lon="2.62253">
        <ele>787.9</ele>
        <time>2018-11-26T03:15:26Z</time>
      </trkpt>
      <trkpt lat="42.3826" lon="2.62255">
        <ele>788.2</ele>
        <time>2018-11-26T03:15:26Z</time>
      </trkpt>
      <trkpt lat="42.38259" lon="2.62256">
        <ele>788.4</ele>
        <time>2018-11-26T03:15:26Z</time>
      </trkpt>
      <trkpt lat="42.38259" lon="2.62257">
        <ele>788.4</ele>
        <time>2018-11-26T03:15:27Z</time>
      </trkpt>
      <trkpt lat="42.38259" lon="2.62258">
        <ele>788.4</ele>
        <time>2018-11-26T03:15:27Z</time>
      </trkpt>
      <trkpt lat="42.38259" lon="2.62259">
        <ele>788.4</ele>
        <time>2018-11-26T03:15:27Z</time>
      </trkpt>
      <trkpt lat="42.38259" lon="2.62261">
        <ele>788.3</ele>
        <time>2018-11-26T03:15:28Z</time>
      </trkpt>
      <trkpt lat="42.38259" lon="2.62262">
        <ele>788.3</ele>
        <time>2018-11-26T03:15:28Z</time>
      </trkpt>
      <trkpt lat="42.38259" lon="2.62264">
        <ele>788.3</ele>
        <time>2018-11-26T03:15:29Z</time>
      </trkpt>
      <trkpt lat="42.38259" lon="2.62265">
        <ele>788.5</ele>
        <time>2018-11-26T03:15:29Z</time>
      </trkpt>
      <trkpt lat="42.38259" lon="2.62266">
        <ele>788.6</ele>
        <time>2018-11-26T03:15:30Z</time>
      </trkpt>
      <trkpt lat="42.38259" lon="2.62268">
        <ele>788.9</ele>
        <time>2018-11-26T03:15:30Z</time>
      </trkpt>
      <trkpt lat="42.38259" lon="2.62269">
        <ele>788.9</ele>
        <time>2018-11-26T03:15:30Z</time>
      </trkpt>
      <trkpt lat="42.38258" lon="2.6227">
        <ele>789</ele>
        <time>2018-11-26T03:15:31Z</time>
      </trkpt>
      <trkpt lat="42.38258" lon="2.62272">
        <ele>789</ele>
        <time>2018-11-26T03:15:31Z</time>
      </trkpt>
      <trkpt lat="42.38258" lon="2.62273">
        <ele>789.3</ele>
        <time>2018-11-26T03:15:32Z</time>
      </trkpt>
      <trkpt lat="42.38257" lon="2.62274">
        <ele>789.2</ele>
        <time>2018-11-26T03:15:32Z</time>
      </trkpt>
      <trkpt lat="42.38257" lon="2.62275">
        <ele>789.2</ele>
        <time>2018-11-26T03:15:32Z</time>
      </trkpt>
      <trkpt lat="42.38257" lon="2.62277">
        <ele>789.2</ele>
        <time>2018-11-26T03:15:33Z</time>
      </trkpt>
      <trkpt lat="42.38256" lon="2.62278">
        <ele>789.2</ele>
        <time>2018-11-26T03:15:33Z</time>
      </trkpt>
      <trkpt lat="42.38256" lon="2.62279">
        <ele>789.2</ele>
        <time>2018-11-26T03:15:34Z</time>
      </trkpt>
      <trkpt lat="42.38256" lon="2.62281">
        <ele>789.3</ele>
        <time>2018-11-26T03:15:34Z</time>
      </trkpt>
      <trkpt lat="42.38255" lon="2.62282">
        <ele>789.4</ele>
        <time>2018-11-26T03:15:34Z</time>
      </trkpt>
      <trkpt lat="42.38255" lon="2.62283">
        <ele>789.4</ele>
        <time>2018-11-26T03:15:35Z</time>
      </trkpt>
      <trkpt lat="42.38255" lon="2.62285">
        <ele>789.7</ele>
        <time>2018-11-26T03:15:35Z</time>
      </trkpt>
      <trkpt lat="42.38255" lon="2.62286">
        <ele>789.6</ele>
        <time>2018-11-26T03:15:36Z</time>
      </trkpt>
      <trkpt lat="42.38254" lon="2.62287">
        <ele>789.5</ele>
        <time>2018-11-26T03:15:36Z</time>
      </trkpt>
      <trkpt lat="42.38254" lon="2.62288">
        <ele>789.4</ele>
        <time>2018-11-26T03:15:36Z</time>
      </trkpt>
      <trkpt lat="42.38254" lon="2.62289">
        <ele>789.4</ele>
        <time>2018-11-26T03:15:37Z</time>
      </trkpt>
      <trkpt lat="42.38253" lon="2.62291">
        <ele>789.3</ele>
        <time>2018-11-26T03:15:37Z</time>
      </trkpt>
      <trkpt lat="42.38253" lon="2.62292">
        <ele>789.1</ele>
        <time>2018-11-26T03:15:38Z</time>
      </trkpt>
      <trkpt lat="42.38253" lon="2.62293">
        <ele>789</ele>
        <time>2018-11-26T03:15:38Z</time>
      </trkpt>
      <trkpt lat="42.38252" lon="2.62294">
        <ele>788.9</ele>
        <time>2018-11-26T03:15:38Z</time>
      </trkpt>
      <trkpt lat="42.38252" lon="2.62295">
        <ele>788.9</ele>
        <time>2018-11-26T03:15:38Z</time>
      </trkpt>
      <trkpt lat="42.38252" lon="2.62296">
        <ele>789</ele>
        <time>2018-11-26T03:15:39Z</time>
      </trkpt>
      <trkpt lat="42.38252" lon="2.62297">
        <ele>789</ele>
        <time>2018-11-26T03:15:39Z</time>
      </trkpt>
      <trkpt lat="42.38251" lon="2.62299">
        <ele>789.1</ele>
        <time>2018-11-26T03:15:40Z</time>
      </trkpt>
      <trkpt lat="42.38251" lon="2.623">
        <ele>789.3</ele>
        <time>2018-11-26T03:15:40Z</time>
      </trkpt>
      <trkpt lat="42.38251" lon="2.62302">
        <ele>789.2</ele>
        <time>2018-11-26T03:15:41Z</time>
      </trkpt>
      <trkpt lat="42.38251" lon="2.62303">
        <ele>789.3</ele>
        <time>2018-11-26T03:15:41Z</time>
      </trkpt>
      <trkpt lat="42.38251" lon="2.62304">
        <ele>789.1</ele>
        <time>2018-11-26T03:15:41Z</time>
      </trkpt>
      <trkpt lat="42.38251" lon="2.62306">
        <ele>789.2</ele>
        <time>2018-11-26T03:15:42Z</time>
      </trkpt>
      <trkpt lat="42.38251" lon="2.62307">
        <ele>789</ele>
        <time>2018-11-26T03:15:42Z</time>
      </trkpt>
      <trkpt lat="42.38251" lon="2.62309">
        <ele>789.1</ele>
        <time>2018-11-26T03:15:43Z</time>
      </trkpt>
      <trkpt lat="42.38251" lon="2.6231">
        <ele>789</ele>
        <time>2018-11-26T03:15:43Z</time>
      </trkpt>
      <trkpt lat="42.38251" lon="2.62311">
        <ele>789</ele>
        <time>2018-11-26T03:15:43Z</time>
      </trkpt>
      <trkpt lat="42.38251" lon="2.62313">
        <ele>789</ele>
        <time>2018-11-26T03:15:44Z</time>
      </trkpt>
      <trkpt lat="42.38251" lon="2.62314">
        <ele>789</ele>
        <time>2018-11-26T03:15:44Z</time>
      </trkpt>
      <trkpt lat="42.38251" lon="2.62315">
        <ele>789.1</ele>
        <time>2018-11-26T03:15:45Z</time>
      </trkpt>
      <trkpt lat="42.38251" lon="2.62317">
        <ele>789.3</ele>
        <time>2018-11-26T03:15:45Z</time>
      </trkpt>
      <trkpt lat="42.38251" lon="2.62318">
        <ele>789.5</ele>
        <time>2018-11-26T03:15:45Z</time>
      </trkpt>
      <trkpt lat="42.38251" lon="2.6232">
        <ele>789.6</ele>
        <time>2018-11-26T03:15:46Z</time>
      </trkpt>
      <trkpt lat="42.38251" lon="2.62321">
        <ele>789.6</ele>
        <time>2018-11-26T03:15:46Z</time>
      </trkpt>
      <trkpt lat="42.38251" lon="2.62322">
        <ele>789.8</ele>
        <time>2018-11-26T03:15:47Z</time>
      </trkpt>
      <trkpt lat="42.3825" lon="2.62324">
        <ele>789.9</ele>
        <time>2018-11-26T03:15:47Z</time>
      </trkpt>
      <trkpt lat="42.3825" lon="2.62325">
        <ele>789.8</ele>
        <time>2018-11-26T03:15:47Z</time>
      </trkpt>
      <trkpt lat="42.3825" lon="2.62326">
        <ele>789.7</ele>
        <time>2018-11-26T03:15:48Z</time>
      </trkpt>
      <trkpt lat="42.3825" lon="2.62327">
        <ele>789.7</ele>
        <time>2018-11-26T03:15:48Z</time>
      </trkpt>
      <trkpt lat="42.3825" lon="2.62328">
        <ele>789.9</ele>
        <time>2018-11-26T03:15:48Z</time>
      </trkpt>
      <trkpt lat="42.3825" lon="2.62329">
        <ele>789.9</ele>
        <time>2018-11-26T03:15:49Z</time>
      </trkpt>
      <trkpt lat="42.3825" lon="2.62331">
        <ele>789.8</ele>
        <time>2018-11-26T03:15:49Z</time>
      </trkpt>
      <trkpt lat="42.3825" lon="2.62332">
        <ele>789.8</ele>
        <time>2018-11-26T03:15:50Z</time>
      </trkpt>
      <trkpt lat="42.3825" lon="2.62334">
        <ele>789.8</ele>
        <time>2018-11-26T03:15:50Z</time>
      </trkpt>
      <trkpt lat="42.38249" lon="2.62335">
        <ele>789.9</ele>
        <time>2018-11-26T03:15:50Z</time>
      </trkpt>
      <trkpt lat="42.38249" lon="2.62336">
        <ele>789.8</ele>
        <time>2018-11-26T03:15:51Z</time>
      </trkpt>
      <trkpt lat="42.38249" lon="2.62337">
        <ele>789.7</ele>
        <time>2018-11-26T03:15:51Z</time>
      </trkpt>
      <trkpt lat="42.38249" lon="2.62338">
        <ele>789.6</ele>
        <time>2018-11-26T03:15:52Z</time>
      </trkpt>
      <trkpt lat="42.38248" lon="2.6234">
        <ele>789.7</ele>
        <time>2018-11-26T03:15:52Z</time>
      </trkpt>
      <trkpt lat="42.38248" lon="2.62341">
        <ele>789.9</ele>
        <time>2018-11-26T03:15:52Z</time>
      </trkpt>
      <trkpt lat="42.38248" lon="2.62343">
        <ele>790.1</ele>
        <time>2018-11-26T03:15:53Z</time>
      </trkpt>
      <trkpt lat="42.38248" lon="2.62344">
        <ele>790.3</ele>
        <time>2018-11-26T03:15:53Z</time>
      </trkpt>
      <trkpt lat="42.38248" lon="2.62346">
        <ele>790.6</ele>
        <time>2018-11-26T03:15:54Z</time>
      </trkpt>
      <trkpt lat="42.38248" lon="2.62347">
        <ele>791.2</ele>
        <time>2018-11-26T03:15:54Z</time>
      </trkpt>
      <trkpt lat="42.38248" lon="2.62348">
        <ele>791.3</ele>
        <time>2018-11-26T03:15:55Z</time>
      </trkpt>
      <trkpt lat="42.38248" lon="2.6235">
        <ele>791.6</ele>
        <time>2018-11-26T03:15:55Z</time>
      </trkpt>
      <trkpt lat="42.38247" lon="2.62351">
        <ele>791.8</ele>
        <time>2018-11-26T03:15:56Z</time>
      </trkpt>
      <trkpt lat="42.38246" lon="2.62355">
        <ele>792</ele>
        <time>2018-11-26T03:15:56Z</time>
      </trkpt>
      <trkpt lat="42.38246" lon="2.62356">
        <ele>792.1</ele>
        <time>2018-11-26T03:15:57Z</time>
      </trkpt>
      <trkpt lat="42.38246" lon="2.62358">
        <ele>792.2</ele>
        <time>2018-11-26T03:15:57Z</time>
      </trkpt>
      <trkpt lat="42.38245" lon="2.62359">
        <ele>792.2</ele>
        <time>2018-11-26T03:15:58Z</time>
      </trkpt>
      <trkpt lat="42.38245" lon="2.62361">
        <ele>792.2</ele>
        <time>2018-11-26T03:15:58Z</time>
      </trkpt>
      <trkpt lat="42.38245" lon="2.62362">
        <ele>792.3</ele>
        <time>2018-11-26T03:15:59Z</time>
      </trkpt>
      <trkpt lat="42.38244" lon="2.62363">
        <ele>792</ele>
        <time>2018-11-26T03:15:59Z</time>
      </trkpt>
      <trkpt lat="42.38243" lon="2.62366">
        <ele>791.5</ele>
        <time>2018-11-26T03:16:00Z</time>
      </trkpt>
      <trkpt lat="42.38241" lon="2.62369">
        <ele>791.6</ele>
        <time>2018-11-26T03:16:01Z</time>
      </trkpt>
      <trkpt lat="42.38239" lon="2.62372">
        <ele>791.7</ele>
        <time>2018-11-26T03:16:03Z</time>
      </trkpt>
      <trkpt lat="42.38238" lon="2.62373">
        <ele>791.7</ele>
        <time>2018-11-26T03:16:03Z</time>
      </trkpt>
      <trkpt lat="42.38237" lon="2.62374">
        <ele>791.8</ele>
        <time>2018-11-26T03:16:03Z</time>
      </trkpt>
      <trkpt lat="42.38237" lon="2.62375">
        <ele>791.9</ele>
        <time>2018-11-26T03:16:04Z</time>
      </trkpt>
      <trkpt lat="42.38236" lon="2.62376">
        <ele>791.9</ele>
        <time>2018-11-26T03:16:04Z</time>
      </trkpt>
      <trkpt lat="42.38236" lon="2.62377">
        <ele>792</ele>
        <time>2018-11-26T03:16:05Z</time>
      </trkpt>
      <trkpt lat="42.38234" lon="2.62379">
        <ele>791.9</ele>
        <time>2018-11-26T03:16:05Z</time>
      </trkpt>
      <trkpt lat="42.38233" lon="2.6238">
        <ele>792.1</ele>
        <time>2018-11-26T03:16:06Z</time>
      </trkpt>
      <trkpt lat="42.38231" lon="2.62382">
        <ele>792.9</ele>
        <time>2018-11-26T03:16:07Z</time>
      </trkpt>
      <trkpt lat="42.3823" lon="2.62383">
        <ele>792.8</ele>
        <time>2018-11-26T03:16:07Z</time>
      </trkpt>
      <trkpt lat="42.38229" lon="2.62384">
        <ele>792.7</ele>
        <time>2018-11-26T03:16:08Z</time>
      </trkpt>
      <trkpt lat="42.38228" lon="2.62385">
        <ele>792.5</ele>
        <time>2018-11-26T03:16:09Z</time>
      </trkpt>
      <trkpt lat="42.38227" lon="2.62386">
        <ele>792.6</ele>
        <time>2018-11-26T03:16:09Z</time>
      </trkpt>
      <trkpt lat="42.38226" lon="2.62387">
        <ele>792.8</ele>
        <time>2018-11-26T03:16:09Z</time>
      </trkpt>
      <trkpt lat="42.38226" lon="2.62388">
        <ele>792.7</ele>
        <time>2018-11-26T03:16:10Z</time>
      </trkpt>
      <trkpt lat="42.38225" lon="2.62389">
        <ele>792.7</ele>
        <time>2018-11-26T03:16:10Z</time>
      </trkpt>
      <trkpt lat="42.38224" lon="2.62389">
        <ele>792.7</ele>
        <time>2018-11-26T03:16:10Z</time>
      </trkpt>
      <trkpt lat="42.38224" lon="2.6239">
        <ele>792.7</ele>
        <time>2018-11-26T03:16:11Z</time>
      </trkpt>
      <trkpt lat="42.38223" lon="2.6239">
        <ele>792.8</ele>
        <time>2018-11-26T03:16:11Z</time>
      </trkpt>
      <trkpt lat="42.38222" lon="2.62391">
        <ele>792.8</ele>
        <time>2018-11-26T03:16:11Z</time>
      </trkpt>
      <trkpt lat="42.38222" lon="2.62392">
        <ele>792.7</ele>
        <time>2018-11-26T03:16:12Z</time>
      </trkpt>
      <trkpt lat="42.38221" lon="2.62393">
        <ele>792.8</ele>
        <time>2018-11-26T03:16:12Z</time>
      </trkpt>
      <trkpt lat="42.38221" lon="2.62393">
        <ele>793</ele>
        <time>2018-11-26T03:16:12Z</time>
      </trkpt>
      <trkpt lat="42.3822" lon="2.62394">
        <ele>793.2</ele>
        <time>2018-11-26T03:16:13Z</time>
      </trkpt>
      <trkpt lat="42.3822" lon="2.62395">
        <ele>793.2</ele>
        <time>2018-11-26T03:16:13Z</time>
      </trkpt>
      <trkpt lat="42.38219" lon="2.62396">
        <ele>793.1</ele>
        <time>2018-11-26T03:16:13Z</time>
      </trkpt>
      <trkpt lat="42.38219" lon="2.62397">
        <ele>792.9</ele>
        <time>2018-11-26T03:16:14Z</time>
      </trkpt>
      <trkpt lat="42.38218" lon="2.62398">
        <ele>792.8</ele>
        <time>2018-11-26T03:16:14Z</time>
      </trkpt>
      <trkpt lat="42.38218" lon="2.62399">
        <ele>792.8</ele>
        <time>2018-11-26T03:16:14Z</time>
      </trkpt>
      <trkpt lat="42.38217" lon="2.624">
        <ele>792.7</ele>
        <time>2018-11-26T03:16:15Z</time>
      </trkpt>
      <trkpt lat="42.38217" lon="2.62401">
        <ele>792.9</ele>
        <time>2018-11-26T03:16:15Z</time>
      </trkpt>
      <trkpt lat="42.38216" lon="2.62402">
        <ele>792.9</ele>
        <time>2018-11-26T03:16:15Z</time>
      </trkpt>
      <trkpt lat="42.38215" lon="2.62403">
        <ele>793.1</ele>
        <time>2018-11-26T03:16:16Z</time>
      </trkpt>
      <trkpt lat="42.38215" lon="2.62404">
        <ele>793.1</ele>
        <time>2018-11-26T03:16:16Z</time>
      </trkpt>
      <trkpt lat="42.38214" lon="2.62405">
        <ele>793</ele>
        <time>2018-11-26T03:16:17Z</time>
      </trkpt>
      <trkpt lat="42.38214" lon="2.62406">
        <ele>792.7</ele>
        <time>2018-11-26T03:16:17Z</time>
      </trkpt>
      <trkpt lat="42.38214" lon="2.62408">
        <ele>792.5</ele>
        <time>2018-11-26T03:16:17Z</time>
      </trkpt>
      <trkpt lat="42.38213" lon="2.62409">
        <ele>792.4</ele>
        <time>2018-11-26T03:16:18Z</time>
      </trkpt>
      <trkpt lat="42.38213" lon="2.62409">
        <ele>792.4</ele>
        <time>2018-11-26T03:16:18Z</time>
      </trkpt>
      <trkpt lat="42.38213" lon="2.6241">
        <ele>792.4</ele>
        <time>2018-11-26T03:16:18Z</time>
      </trkpt>
      <trkpt lat="42.38213" lon="2.62411">
        <ele>792.4</ele>
        <time>2018-11-26T03:16:19Z</time>
      </trkpt>
      <trkpt lat="42.38213" lon="2.62413">
        <ele>792.3</ele>
        <time>2018-11-26T03:16:19Z</time>
      </trkpt>
      <trkpt lat="42.38213" lon="2.62414">
        <ele>792.2</ele>
        <time>2018-11-26T03:16:19Z</time>
      </trkpt>
      <trkpt lat="42.38213" lon="2.62415">
        <ele>792.4</ele>
        <time>2018-11-26T03:16:20Z</time>
      </trkpt>
      <trkpt lat="42.38214" lon="2.62417">
        <ele>792.4</ele>
        <time>2018-11-26T03:16:20Z</time>
      </trkpt>
      <trkpt lat="42.38214" lon="2.62418">
        <ele>792.6</ele>
        <time>2018-11-26T03:16:21Z</time>
      </trkpt>
      <trkpt lat="42.38214" lon="2.62419">
        <ele>792.6</ele>
        <time>2018-11-26T03:16:21Z</time>
      </trkpt>
      <trkpt lat="42.38214" lon="2.62421">
        <ele>792.8</ele>
        <time>2018-11-26T03:16:21Z</time>
      </trkpt>
      <trkpt lat="42.38214" lon="2.62422">
        <ele>792.9</ele>
        <time>2018-11-26T03:16:22Z</time>
      </trkpt>
      <trkpt lat="42.38214" lon="2.62423">
        <ele>792.9</ele>
        <time>2018-11-26T03:16:22Z</time>
      </trkpt>
      <trkpt lat="42.38215" lon="2.62425">
        <ele>792.6</ele>
        <time>2018-11-26T03:16:23Z</time>
      </trkpt>
      <trkpt lat="42.38215" lon="2.62425">
        <ele>792.5</ele>
        <time>2018-11-26T03:16:23Z</time>
      </trkpt>
      <trkpt lat="42.38214" lon="2.62427">
        <ele>792.4</ele>
        <time>2018-11-26T03:16:23Z</time>
      </trkpt>
      <trkpt lat="42.38214" lon="2.62428">
        <ele>792.3</ele>
        <time>2018-11-26T03:16:24Z</time>
      </trkpt>
      <trkpt lat="42.38214" lon="2.62429">
        <ele>792.2</ele>
        <time>2018-11-26T03:16:24Z</time>
      </trkpt>
      <trkpt lat="42.38215" lon="2.62431">
        <ele>792.2</ele>
        <time>2018-11-26T03:16:24Z</time>
      </trkpt>
      <trkpt lat="42.38215" lon="2.62432">
        <ele>792.3</ele>
        <time>2018-11-26T03:16:25Z</time>
      </trkpt>
      <trkpt lat="42.38215" lon="2.62435">
        <ele>792.5</ele>
        <time>2018-11-26T03:16:26Z</time>
      </trkpt>
      <trkpt lat="42.38215" lon="2.62437">
        <ele>792.8</ele>
        <time>2018-11-26T03:16:26Z</time>
      </trkpt>
      <trkpt lat="42.38215" lon="2.62438">
        <ele>793.1</ele>
        <time>2018-11-26T03:16:27Z</time>
      </trkpt>
      <trkpt lat="42.38216" lon="2.6244">
        <ele>793.5</ele>
        <time>2018-11-26T03:16:27Z</time>
      </trkpt>
      <trkpt lat="42.38217" lon="2.62442">
        <ele>793.2</ele>
        <time>2018-11-26T03:16:28Z</time>
      </trkpt>
      <trkpt lat="42.38217" lon="2.62444">
        <ele>793</ele>
        <time>2018-11-26T03:16:28Z</time>
      </trkpt>
      <trkpt lat="42.38217" lon="2.62445">
        <ele>793.2</ele>
        <time>2018-11-26T03:16:29Z</time>
      </trkpt>
      <trkpt lat="42.38217" lon="2.62445">
        <ele>793.3</ele>
        <time>2018-11-26T03:16:29Z</time>
      </trkpt>
      <trkpt lat="42.38218" lon="2.62448">
        <ele>793.6</ele>
        <time>2018-11-26T03:16:30Z</time>
      </trkpt>
      <trkpt lat="42.38218" lon="2.62449">
        <ele>793.7</ele>
        <time>2018-11-26T03:16:30Z</time>
      </trkpt>
      <trkpt lat="42.38218" lon="2.62451">
        <ele>793.9</ele>
        <time>2018-11-26T03:16:31Z</time>
      </trkpt>
      <trkpt lat="42.38219" lon="2.62452">
        <ele>794.2</ele>
        <time>2018-11-26T03:16:31Z</time>
      </trkpt>
      <trkpt lat="42.38219" lon="2.62453">
        <ele>794.4</ele>
        <time>2018-11-26T03:16:31Z</time>
      </trkpt>
      <trkpt lat="42.38219" lon="2.62454">
        <ele>794.8</ele>
        <time>2018-11-26T03:16:32Z</time>
      </trkpt>
      <trkpt lat="42.38219" lon="2.62456">
        <ele>795</ele>
        <time>2018-11-26T03:16:32Z</time>
      </trkpt>
      <trkpt lat="42.3822" lon="2.62457">
        <ele>795.3</ele>
        <time>2018-11-26T03:16:32Z</time>
      </trkpt>
      <trkpt lat="42.3822" lon="2.62458">
        <ele>795.8</ele>
        <time>2018-11-26T03:16:33Z</time>
      </trkpt>
      <trkpt lat="42.3822" lon="2.62459">
        <ele>796.3</ele>
        <time>2018-11-26T03:16:33Z</time>
      </trkpt>
      <trkpt lat="42.38221" lon="2.6246">
        <ele>796.4</ele>
        <time>2018-11-26T03:16:33Z</time>
      </trkpt>
      <trkpt lat="42.38221" lon="2.62461">
        <ele>796.8</ele>
        <time>2018-11-26T03:16:34Z</time>
      </trkpt>
      <trkpt lat="42.38221" lon="2.62462">
        <ele>797</ele>
        <time>2018-11-26T03:16:34Z</time>
      </trkpt>
      <trkpt lat="42.38221" lon="2.62463">
        <ele>797.2</ele>
        <time>2018-11-26T03:16:34Z</time>
      </trkpt>
      <trkpt lat="42.38221" lon="2.62465">
        <ele>797.6</ele>
        <time>2018-11-26T03:16:35Z</time>
      </trkpt>
      <trkpt lat="42.38221" lon="2.62466">
        <ele>797.9</ele>
        <time>2018-11-26T03:16:35Z</time>
      </trkpt>
      <trkpt lat="42.38221" lon="2.62468">
        <ele>797.8</ele>
        <time>2018-11-26T03:16:36Z</time>
      </trkpt>
      <trkpt lat="42.38221" lon="2.62469">
        <ele>797.8</ele>
        <time>2018-11-26T03:16:36Z</time>
      </trkpt>
      <trkpt lat="42.38222" lon="2.6247">
        <ele>797.7</ele>
        <time>2018-11-26T03:16:37Z</time>
      </trkpt>
      <trkpt lat="42.38222" lon="2.62471">
        <ele>797.7</ele>
        <time>2018-11-26T03:16:37Z</time>
      </trkpt>
      <trkpt lat="42.38222" lon="2.62472">
        <ele>797.8</ele>
        <time>2018-11-26T03:16:37Z</time>
      </trkpt>
      <trkpt lat="42.38222" lon="2.62473">
        <ele>798</ele>
        <time>2018-11-26T03:16:38Z</time>
      </trkpt>
      <trkpt lat="42.38222" lon="2.62475">
        <ele>798.4</ele>
        <time>2018-11-26T03:16:38Z</time>
      </trkpt>
      <trkpt lat="42.38223" lon="2.62476">
        <ele>798.5</ele>
        <time>2018-11-26T03:16:38Z</time>
      </trkpt>
      <trkpt lat="42.38223" lon="2.62477">
        <ele>798.8</ele>
        <time>2018-11-26T03:16:39Z</time>
      </trkpt>
      <trkpt lat="42.38224" lon="2.62478">
        <ele>799</ele>
        <time>2018-11-26T03:16:39Z</time>
      </trkpt>
      <trkpt lat="42.38224" lon="2.62479">
        <ele>799.1</ele>
        <time>2018-11-26T03:16:39Z</time>
      </trkpt>
      <trkpt lat="42.38225" lon="2.6248">
        <ele>799.3</ele>
        <time>2018-11-26T03:16:40Z</time>
      </trkpt>
      <trkpt lat="42.38225" lon="2.6248">
        <ele>799.6</ele>
        <time>2018-11-26T03:16:40Z</time>
      </trkpt>
      <trkpt lat="42.38225" lon="2.62481">
        <ele>799.8</ele>
        <time>2018-11-26T03:16:40Z</time>
      </trkpt>
      <trkpt lat="42.38226" lon="2.62482">
        <ele>799.7</ele>
        <time>2018-11-26T03:16:40Z</time>
      </trkpt>
      <trkpt lat="42.38226" lon="2.62483">
        <ele>799.8</ele>
        <time>2018-11-26T03:16:41Z</time>
      </trkpt>
      <trkpt lat="42.38227" lon="2.62484">
        <ele>800.1</ele>
        <time>2018-11-26T03:16:41Z</time>
      </trkpt>
      <trkpt lat="42.38227" lon="2.62485">
        <ele>800.3</ele>
        <time>2018-11-26T03:16:42Z</time>
      </trkpt>
      <trkpt lat="42.38228" lon="2.62485">
        <ele>800.8</ele>
        <time>2018-11-26T03:16:42Z</time>
      </trkpt>
      <trkpt lat="42.38228" lon="2.62486">
        <ele>801.3</ele>
        <time>2018-11-26T03:16:42Z</time>
      </trkpt>
      <trkpt lat="42.38229" lon="2.62487">
        <ele>801.3</ele>
        <time>2018-11-26T03:16:42Z</time>
      </trkpt>
      <trkpt lat="42.38229" lon="2.62488">
        <ele>801.5</ele>
        <time>2018-11-26T03:16:43Z</time>
      </trkpt>
      <trkpt lat="42.3823" lon="2.62488">
        <ele>801.7</ele>
        <time>2018-11-26T03:16:43Z</time>
      </trkpt>
      <trkpt lat="42.3823" lon="2.6249">
        <ele>802.1</ele>
        <time>2018-11-26T03:16:44Z</time>
      </trkpt>
      <trkpt lat="42.38231" lon="2.62491">
        <ele>802.5</ele>
        <time>2018-11-26T03:16:44Z</time>
      </trkpt>
      <trkpt lat="42.38231" lon="2.62492">
        <ele>803.2</ele>
        <time>2018-11-26T03:16:44Z</time>
      </trkpt>
      <trkpt lat="42.38232" lon="2.62493">
        <ele>803.2</ele>
        <time>2018-11-26T03:16:45Z</time>
      </trkpt>
      <trkpt lat="42.38232" lon="2.62494">
        <ele>803.4</ele>
        <time>2018-11-26T03:16:45Z</time>
      </trkpt>
      <trkpt lat="42.38232" lon="2.62494">
        <ele>803.5</ele>
        <time>2018-11-26T03:16:45Z</time>
      </trkpt>
      <trkpt lat="42.38232" lon="2.62494">
        <ele>803.8</ele>
        <time>2018-11-26T03:16:45Z</time>
      </trkpt>
      <trkpt lat="42.38232" lon="2.62495">
        <ele>804</ele>
        <time>2018-11-26T03:16:45Z</time>
      </trkpt>
      <trkpt lat="42.38232" lon="2.62496">
        <ele>804.4</ele>
        <time>2018-11-26T03:16:46Z</time>
      </trkpt>
      <trkpt lat="42.38232" lon="2.62497">
        <ele>804.6</ele>
        <time>2018-11-26T03:16:46Z</time>
      </trkpt>
      <trkpt lat="42.38232" lon="2.62497">
        <ele>804.8</ele>
        <time>2018-11-26T03:16:46Z</time>
      </trkpt>
      <trkpt lat="42.38232" lon="2.62498">
        <ele>805</ele>
        <time>2018-11-26T03:16:46Z</time>
      </trkpt>
      <trkpt lat="42.38232" lon="2.62499">
        <ele>805.2</ele>
        <time>2018-11-26T03:16:47Z</time>
      </trkpt>
      <trkpt lat="42.38232" lon="2.62501">
        <ele>805.2</ele>
        <time>2018-11-26T03:16:47Z</time>
      </trkpt>
      <trkpt lat="42.38233" lon="2.62502">
        <ele>805.2</ele>
        <time>2018-11-26T03:16:47Z</time>
      </trkpt>
      <trkpt lat="42.38233" lon="2.62503">
        <ele>805.3</ele>
        <time>2018-11-26T03:16:48Z</time>
      </trkpt>
      <trkpt lat="42.38234" lon="2.62504">
        <ele>805.7</ele>
        <time>2018-11-26T03:16:48Z</time>
      </trkpt>
      <trkpt lat="42.38234" lon="2.62505">
        <ele>806</ele>
        <time>2018-11-26T03:16:48Z</time>
      </trkpt>
      <trkpt lat="42.38234" lon="2.62506">
        <ele>806.5</ele>
        <time>2018-11-26T03:16:49Z</time>
      </trkpt>
      <trkpt lat="42.38234" lon="2.62507">
        <ele>806.6</ele>
        <time>2018-11-26T03:16:49Z</time>
      </trkpt>
      <trkpt lat="42.38235" lon="2.62508">
        <ele>806.8</ele>
        <time>2018-11-26T03:16:49Z</time>
      </trkpt>
      <trkpt lat="42.38235" lon="2.62509">
        <ele>807</ele>
        <time>2018-11-26T03:16:50Z</time>
      </trkpt>
      <trkpt lat="42.38236" lon="2.6251">
        <ele>807.1</ele>
        <time>2018-11-26T03:16:50Z</time>
      </trkpt>
      <trkpt lat="42.38236" lon="2.62511">
        <ele>806.9</ele>
        <time>2018-11-26T03:16:51Z</time>
      </trkpt>
      <trkpt lat="42.38237" lon="2.62512">
        <ele>806.8</ele>
        <time>2018-11-26T03:16:51Z</time>
      </trkpt>
      <trkpt lat="42.38238" lon="2.62513">
        <ele>806.9</ele>
        <time>2018-11-26T03:16:51Z</time>
      </trkpt>
      <trkpt lat="42.38238" lon="2.62515">
        <ele>807.1</ele>
        <time>2018-11-26T03:16:52Z</time>
      </trkpt>
      <trkpt lat="42.38239" lon="2.62516">
        <ele>807.3</ele>
        <time>2018-11-26T03:16:52Z</time>
      </trkpt>
      <trkpt lat="42.38239" lon="2.62517">
        <ele>807.3</ele>
        <time>2018-11-26T03:16:53Z</time>
      </trkpt>
      <trkpt lat="42.38239" lon="2.62518">
        <ele>807.5</ele>
        <time>2018-11-26T03:16:53Z</time>
      </trkpt>
      <trkpt lat="42.3824" lon="2.62519">
        <ele>807.4</ele>
        <time>2018-11-26T03:16:53Z</time>
      </trkpt>
      <trkpt lat="42.3824" lon="2.62521">
        <ele>807.6</ele>
        <time>2018-11-26T03:16:54Z</time>
      </trkpt>
      <trkpt lat="42.3824" lon="2.62522">
        <ele>807.7</ele>
        <time>2018-11-26T03:16:54Z</time>
      </trkpt>
      <trkpt lat="42.38241" lon="2.62525">
        <ele>807.9</ele>
        <time>2018-11-26T03:16:55Z</time>
      </trkpt>
      <trkpt lat="42.38241" lon="2.62527">
        <ele>808.1</ele>
        <time>2018-11-26T03:16:56Z</time>
      </trkpt>
      <trkpt lat="42.38241" lon="2.62528">
        <ele>808</ele>
        <time>2018-11-26T03:16:56Z</time>
      </trkpt>
      <trkpt lat="42.38241" lon="2.62529">
        <ele>808.2</ele>
        <time>2018-11-26T03:16:56Z</time>
      </trkpt>
      <trkpt lat="42.38241" lon="2.6253">
        <ele>808.1</ele>
        <time>2018-11-26T03:16:57Z</time>
      </trkpt>
      <trkpt lat="42.38241" lon="2.62531">
        <ele>808.2</ele>
        <time>2018-11-26T03:16:57Z</time>
      </trkpt>
      <trkpt lat="42.38242" lon="2.62533">
        <ele>808.4</ele>
        <time>2018-11-26T03:16:57Z</time>
      </trkpt>
      <trkpt lat="42.38242" lon="2.62534">
        <ele>808.3</ele>
        <time>2018-11-26T03:16:58Z</time>
      </trkpt>
      <trkpt lat="42.38242" lon="2.62535">
        <ele>808.3</ele>
        <time>2018-11-26T03:16:58Z</time>
      </trkpt>
      <trkpt lat="42.38241" lon="2.62536">
        <ele>808.4</ele>
        <time>2018-11-26T03:16:59Z</time>
      </trkpt>
      <trkpt lat="42.38241" lon="2.62537">
        <ele>808.4</ele>
        <time>2018-11-26T03:16:59Z</time>
      </trkpt>
      <trkpt lat="42.38241" lon="2.62539">
        <ele>808.3</ele>
        <time>2018-11-26T03:16:59Z</time>
      </trkpt>
      <trkpt lat="42.38241" lon="2.6254">
        <ele>808.1</ele>
        <time>2018-11-26T03:17:00Z</time>
      </trkpt>
      <trkpt lat="42.38241" lon="2.62541">
        <ele>807.9</ele>
        <time>2018-11-26T03:17:00Z</time>
      </trkpt>
      <trkpt lat="42.38241" lon="2.62542">
        <ele>807.5</ele>
        <time>2018-11-26T03:17:00Z</time>
      </trkpt>
      <trkpt lat="42.38241" lon="2.62544">
        <ele>807.3</ele>
        <time>2018-11-26T03:17:01Z</time>
      </trkpt>
      <trkpt lat="42.38241" lon="2.62545">
        <ele>807</ele>
        <time>2018-11-26T03:17:01Z</time>
      </trkpt>
      <trkpt lat="42.38241" lon="2.62546">
        <ele>807.1</ele>
        <time>2018-11-26T03:17:02Z</time>
      </trkpt>
      <trkpt lat="42.38241" lon="2.62547">
        <ele>807.2</ele>
        <time>2018-11-26T03:17:02Z</time>
      </trkpt>
      <trkpt lat="42.38241" lon="2.62548">
        <ele>807.3</ele>
        <time>2018-11-26T03:17:02Z</time>
      </trkpt>
      <trkpt lat="42.38241" lon="2.62548">
        <ele>807.5</ele>
        <time>2018-11-26T03:17:02Z</time>
      </trkpt>
      <trkpt lat="42.3824" lon="2.62549">
        <ele>807.6</ele>
        <time>2018-11-26T03:17:02Z</time>
      </trkpt>
      <trkpt lat="42.3824" lon="2.62549">
        <ele>807.7</ele>
        <time>2018-11-26T03:17:03Z</time>
      </trkpt>
      <trkpt lat="42.3824" lon="2.62551">
        <ele>807.6</ele>
        <time>2018-11-26T03:17:03Z</time>
      </trkpt>
      <trkpt lat="42.3824" lon="2.62553">
        <ele>807.5</ele>
        <time>2018-11-26T03:17:04Z</time>
      </trkpt>
      <trkpt lat="42.3824" lon="2.62555">
        <ele>807.7</ele>
        <time>2018-11-26T03:17:04Z</time>
      </trkpt>
      <trkpt lat="42.3824" lon="2.62556">
        <ele>807.8</ele>
        <time>2018-11-26T03:17:05Z</time>
      </trkpt>
      <trkpt lat="42.3824" lon="2.62557">
        <ele>808.1</ele>
        <time>2018-11-26T03:17:05Z</time>
      </trkpt>
      <trkpt lat="42.3824" lon="2.62557">
        <ele>808.3</ele>
        <time>2018-11-26T03:17:05Z</time>
      </trkpt>
      <trkpt lat="42.3824" lon="2.62558">
        <ele>808.2</ele>
        <time>2018-11-26T03:17:05Z</time>
      </trkpt>
      <trkpt lat="42.38239" lon="2.62559">
        <ele>808.2</ele>
        <time>2018-11-26T03:17:05Z</time>
      </trkpt>
      <trkpt lat="42.38239" lon="2.6256">
        <ele>807.9</ele>
        <time>2018-11-26T03:17:06Z</time>
      </trkpt>
      <trkpt lat="42.38239" lon="2.62561">
        <ele>808.2</ele>
        <time>2018-11-26T03:17:06Z</time>
      </trkpt>
      <trkpt lat="42.38239" lon="2.62562">
        <ele>808.4</ele>
        <time>2018-11-26T03:17:07Z</time>
      </trkpt>
      <trkpt lat="42.38239" lon="2.62564">
        <ele>808.6</ele>
        <time>2018-11-26T03:17:07Z</time>
      </trkpt>
      <trkpt lat="42.38239" lon="2.62565">
        <ele>808.4</ele>
        <time>2018-11-26T03:17:07Z</time>
      </trkpt>
      <trkpt lat="42.38239" lon="2.62566">
        <ele>808.2</ele>
        <time>2018-11-26T03:17:08Z</time>
      </trkpt>
      <trkpt lat="42.38239" lon="2.62568">
        <ele>807.8</ele>
        <time>2018-11-26T03:17:08Z</time>
      </trkpt>
      <trkpt lat="42.38239" lon="2.62569">
        <ele>807.5</ele>
        <time>2018-11-26T03:17:09Z</time>
      </trkpt>
      <trkpt lat="42.38239" lon="2.6257">
        <ele>807.3</ele>
        <time>2018-11-26T03:17:09Z</time>
      </trkpt>
      <trkpt lat="42.38239" lon="2.62572">
        <ele>807.1</ele>
        <time>2018-11-26T03:17:09Z</time>
      </trkpt>
      <trkpt lat="42.38239" lon="2.62573">
        <ele>807.1</ele>
        <time>2018-11-26T03:17:10Z</time>
      </trkpt>
      <trkpt lat="42.38239" lon="2.62574">
        <ele>807.1</ele>
        <time>2018-11-26T03:17:10Z</time>
      </trkpt>
      <trkpt lat="42.38239" lon="2.62576">
        <ele>807.3</ele>
        <time>2018-11-26T03:17:11Z</time>
      </trkpt>
      <trkpt lat="42.38239" lon="2.62577">
        <ele>807.3</ele>
        <time>2018-11-26T03:17:11Z</time>
      </trkpt>
      <trkpt lat="42.38239" lon="2.62578">
        <ele>807.3</ele>
        <time>2018-11-26T03:17:11Z</time>
      </trkpt>
      <trkpt lat="42.38239" lon="2.62579">
        <ele>807.5</ele>
        <time>2018-11-26T03:17:12Z</time>
      </trkpt>
      <trkpt lat="42.38238" lon="2.62581">
        <ele>807.5</ele>
        <time>2018-11-26T03:17:12Z</time>
      </trkpt>
      <trkpt lat="42.38238" lon="2.62582">
        <ele>807.6</ele>
        <time>2018-11-26T03:17:12Z</time>
      </trkpt>
      <trkpt lat="42.38239" lon="2.62583">
        <ele>807.8</ele>
        <time>2018-11-26T03:17:13Z</time>
      </trkpt>
      <trkpt lat="42.38239" lon="2.62584">
        <ele>808.2</ele>
        <time>2018-11-26T03:17:13Z</time>
      </trkpt>
      <trkpt lat="42.38239" lon="2.62585">
        <ele>808.5</ele>
        <time>2018-11-26T03:17:14Z</time>
      </trkpt>
      <trkpt lat="42.38239" lon="2.62587">
        <ele>809</ele>
        <time>2018-11-26T03:17:14Z</time>
      </trkpt>
      <trkpt lat="42.3824" lon="2.62588">
        <ele>809.4</ele>
        <time>2018-11-26T03:17:14Z</time>
      </trkpt>
      <trkpt lat="42.38239" lon="2.62589">
        <ele>809.5</ele>
        <time>2018-11-26T03:17:15Z</time>
      </trkpt>
      <trkpt lat="42.38239" lon="2.62591">
        <ele>809.6</ele>
        <time>2018-11-26T03:17:15Z</time>
      </trkpt>
      <trkpt lat="42.38239" lon="2.62592">
        <ele>809.9</ele>
        <time>2018-11-26T03:17:15Z</time>
      </trkpt>
      <trkpt lat="42.38239" lon="2.62593">
        <ele>809.6</ele>
        <time>2018-11-26T03:17:16Z</time>
      </trkpt>
      <trkpt lat="42.38238" lon="2.62594">
        <ele>809.5</ele>
        <time>2018-11-26T03:17:16Z</time>
      </trkpt>
      <trkpt lat="42.38238" lon="2.62595">
        <ele>809.1</ele>
        <time>2018-11-26T03:17:17Z</time>
      </trkpt>
      <trkpt lat="42.38238" lon="2.62596">
        <ele>808.7</ele>
        <time>2018-11-26T03:17:17Z</time>
      </trkpt>
      <trkpt lat="42.38238" lon="2.62597">
        <ele>808.6</ele>
        <time>2018-11-26T03:17:17Z</time>
      </trkpt>
      <trkpt lat="42.38238" lon="2.62598">
        <ele>808.3</ele>
        <time>2018-11-26T03:17:17Z</time>
      </trkpt>
      <trkpt lat="42.38238" lon="2.62599">
        <ele>808.2</ele>
        <time>2018-11-26T03:17:18Z</time>
      </trkpt>
      <trkpt lat="42.38239" lon="2.62601">
        <ele>807.9</ele>
        <time>2018-11-26T03:17:18Z</time>
      </trkpt>
      <trkpt lat="42.38239" lon="2.62601">
        <ele>807.7</ele>
        <time>2018-11-26T03:17:18Z</time>
      </trkpt>
      <trkpt lat="42.38239" lon="2.62603">
        <ele>807.5</ele>
        <time>2018-11-26T03:17:19Z</time>
      </trkpt>
      <trkpt lat="42.38239" lon="2.62604">
        <ele>807.4</ele>
        <time>2018-11-26T03:17:19Z</time>
      </trkpt>
      <trkpt lat="42.3824" lon="2.62605">
        <ele>807.3</ele>
        <time>2018-11-26T03:17:19Z</time>
      </trkpt>
      <trkpt lat="42.3824" lon="2.62606">
        <ele>807.3</ele>
        <time>2018-11-26T03:17:20Z</time>
      </trkpt>
      <trkpt lat="42.3824" lon="2.62607">
        <ele>807.1</ele>
        <time>2018-11-26T03:17:20Z</time>
      </trkpt>
      <trkpt lat="42.3824" lon="2.62608">
        <ele>807</ele>
        <time>2018-11-26T03:17:21Z</time>
      </trkpt>
      <trkpt lat="42.38241" lon="2.62609">
        <ele>806.6</ele>
        <time>2018-11-26T03:17:21Z</time>
      </trkpt>
      <trkpt lat="42.38241" lon="2.6261">
        <ele>806.7</ele>
        <time>2018-11-26T03:17:21Z</time>
      </trkpt>
      <trkpt lat="42.38241" lon="2.62611">
        <ele>806.5</ele>
        <time>2018-11-26T03:17:21Z</time>
      </trkpt>
      <trkpt lat="42.38241" lon="2.62612">
        <ele>806.5</ele>
        <time>2018-11-26T03:17:22Z</time>
      </trkpt>
      <trkpt lat="42.38242" lon="2.62612">
        <ele>806.5</ele>
        <time>2018-11-26T03:17:22Z</time>
      </trkpt>
      <trkpt lat="42.38242" lon="2.62613">
        <ele>806.5</ele>
        <time>2018-11-26T03:17:22Z</time>
      </trkpt>
      <trkpt lat="42.38242" lon="2.62614">
        <ele>806.5</ele>
        <time>2018-11-26T03:17:23Z</time>
      </trkpt>
      <trkpt lat="42.38242" lon="2.62616">
        <ele>806.7</ele>
        <time>2018-11-26T03:17:23Z</time>
      </trkpt>
      <trkpt lat="42.38242" lon="2.62617">
        <ele>806.8</ele>
        <time>2018-11-26T03:17:23Z</time>
      </trkpt>
      <trkpt lat="42.38242" lon="2.62617">
        <ele>806.7</ele>
        <time>2018-11-26T03:17:23Z</time>
      </trkpt>
      <trkpt lat="42.38242" lon="2.62618">
        <ele>806.8</ele>
        <time>2018-11-26T03:17:24Z</time>
      </trkpt>
      <trkpt lat="42.38242" lon="2.62619">
        <ele>806.8</ele>
        <time>2018-11-26T03:17:24Z</time>
      </trkpt>
      <trkpt lat="42.38242" lon="2.6262">
        <ele>806.6</ele>
        <time>2018-11-26T03:17:24Z</time>
      </trkpt>
      <trkpt lat="42.38242" lon="2.62621">
        <ele>806.5</ele>
        <time>2018-11-26T03:17:25Z</time>
      </trkpt>
      <trkpt lat="42.38242" lon="2.62622">
        <ele>806.3</ele>
        <time>2018-11-26T03:17:25Z</time>
      </trkpt>
      <trkpt lat="42.38242" lon="2.62623">
        <ele>806.3</ele>
        <time>2018-11-26T03:17:25Z</time>
      </trkpt>
      <trkpt lat="42.38242" lon="2.62624">
        <ele>806</ele>
        <time>2018-11-26T03:17:25Z</time>
      </trkpt>
      <trkpt lat="42.38242" lon="2.62625">
        <ele>805.9</ele>
        <time>2018-11-26T03:17:26Z</time>
      </trkpt>
      <trkpt lat="42.38242" lon="2.62626">
        <ele>806.1</ele>
        <time>2018-11-26T03:17:26Z</time>
      </trkpt>
      <trkpt lat="42.38242" lon="2.62627">
        <ele>806.2</ele>
        <time>2018-11-26T03:17:26Z</time>
      </trkpt>
      <trkpt lat="42.38242" lon="2.62628">
        <ele>806.2</ele>
        <time>2018-11-26T03:17:27Z</time>
      </trkpt>
      <trkpt lat="42.38242" lon="2.62629">
        <ele>806.2</ele>
        <time>2018-11-26T03:17:27Z</time>
      </trkpt>
      <trkpt lat="42.38242" lon="2.62629">
        <ele>806.1</ele>
        <time>2018-11-26T03:17:27Z</time>
      </trkpt>
      <trkpt lat="42.38242" lon="2.6263">
        <ele>806.1</ele>
        <time>2018-11-26T03:17:27Z</time>
      </trkpt>
      <trkpt lat="42.38242" lon="2.6263">
        <ele>806.1</ele>
        <time>2018-11-26T03:17:28Z</time>
      </trkpt>
      <trkpt lat="42.38241" lon="2.62631">
        <ele>805.8</ele>
        <time>2018-11-26T03:17:28Z</time>
      </trkpt>
      <trkpt lat="42.38241" lon="2.62632">
        <ele>805.6</ele>
        <time>2018-11-26T03:17:28Z</time>
      </trkpt>
      <trkpt lat="42.3824" lon="2.62632">
        <ele>805.8</ele>
        <time>2018-11-26T03:17:28Z</time>
      </trkpt>
      <trkpt lat="42.3824" lon="2.62633">
        <ele>806.2</ele>
        <time>2018-11-26T03:17:28Z</time>
      </trkpt>
      <trkpt lat="42.3824" lon="2.62634">
        <ele>806.8</ele>
        <time>2018-11-26T03:17:29Z</time>
      </trkpt>
      <trkpt lat="42.38239" lon="2.62634">
        <ele>806.6</ele>
        <time>2018-11-26T03:17:29Z</time>
      </trkpt>
      <trkpt lat="42.38239" lon="2.62635">
        <ele>806.5</ele>
        <time>2018-11-26T03:17:29Z</time>
      </trkpt>
      <trkpt lat="42.38238" lon="2.62636">
        <ele>806.4</ele>
        <time>2018-11-26T03:17:30Z</time>
      </trkpt>
      <trkpt lat="42.38238" lon="2.62636">
        <ele>806.5</ele>
        <time>2018-11-26T03:17:30Z</time>
      </trkpt>
      <trkpt lat="42.38237" lon="2.62637">
        <ele>806.6</ele>
        <time>2018-11-26T03:17:30Z</time>
      </trkpt>
      <trkpt lat="42.38236" lon="2.62638">
        <ele>806.7</ele>
        <time>2018-11-26T03:17:31Z</time>
      </trkpt>
      <trkpt lat="42.38235" lon="2.62639">
        <ele>806.7</ele>
        <time>2018-11-26T03:17:31Z</time>
      </trkpt>
      <trkpt lat="42.38234" lon="2.62639">
        <ele>806.9</ele>
        <time>2018-11-26T03:17:32Z</time>
      </trkpt>
      <trkpt lat="42.38234" lon="2.6264">
        <ele>806.8</ele>
        <time>2018-11-26T03:17:32Z</time>
      </trkpt>
      <trkpt lat="42.38233" lon="2.6264">
        <ele>807</ele>
        <time>2018-11-26T03:17:32Z</time>
      </trkpt>
      <trkpt lat="42.38232" lon="2.62641">
        <ele>807</ele>
        <time>2018-11-26T03:17:32Z</time>
      </trkpt>
      <trkpt lat="42.38231" lon="2.62641">
        <ele>806.9</ele>
        <time>2018-11-26T03:17:33Z</time>
      </trkpt>
      <trkpt lat="42.38231" lon="2.62642">
        <ele>807</ele>
        <time>2018-11-26T03:17:33Z</time>
      </trkpt>
      <trkpt lat="42.3823" lon="2.62642">
        <ele>806.9</ele>
        <time>2018-11-26T03:17:33Z</time>
      </trkpt>
      <trkpt lat="42.38229" lon="2.62642">
        <ele>806.7</ele>
        <time>2018-11-26T03:17:34Z</time>
      </trkpt>
      <trkpt lat="42.38228" lon="2.62643">
        <ele>806.6</ele>
        <time>2018-11-26T03:17:34Z</time>
      </trkpt>
      <trkpt lat="42.38228" lon="2.62643">
        <ele>806.7</ele>
        <time>2018-11-26T03:17:34Z</time>
      </trkpt>
      <trkpt lat="42.38227" lon="2.62643">
        <ele>807</ele>
        <time>2018-11-26T03:17:35Z</time>
      </trkpt>
      <trkpt lat="42.38226" lon="2.62644">
        <ele>807.2</ele>
        <time>2018-11-26T03:17:35Z</time>
      </trkpt>
      <trkpt lat="42.38226" lon="2.62644">
        <ele>807.3</ele>
        <time>2018-11-26T03:17:35Z</time>
      </trkpt>
      <trkpt lat="42.38225" lon="2.62645">
        <ele>807.2</ele>
        <time>2018-11-26T03:17:36Z</time>
      </trkpt>
      <trkpt lat="42.38224" lon="2.62645">
        <ele>807</ele>
        <time>2018-11-26T03:17:36Z</time>
      </trkpt>
      <trkpt lat="42.38224" lon="2.62646">
        <ele>807</ele>
        <time>2018-11-26T03:17:36Z</time>
      </trkpt>
      <trkpt lat="42.38223" lon="2.62646">
        <ele>807</ele>
        <time>2018-11-26T03:17:36Z</time>
      </trkpt>
      <trkpt lat="42.38222" lon="2.62646">
        <ele>807.2</ele>
        <time>2018-11-26T03:17:37Z</time>
      </trkpt>
      <trkpt lat="42.38222" lon="2.62646">
        <ele>807.2</ele>
        <time>2018-11-26T03:17:37Z</time>
      </trkpt>
      <trkpt lat="42.38221" lon="2.62647">
        <ele>807.4</ele>
        <time>2018-11-26T03:17:37Z</time>
      </trkpt>
      <trkpt lat="42.38221" lon="2.62647">
        <ele>807.5</ele>
        <time>2018-11-26T03:17:37Z</time>
      </trkpt>
      <trkpt lat="42.3822" lon="2.62647">
        <ele>807.8</ele>
        <time>2018-11-26T03:17:38Z</time>
      </trkpt>
      <trkpt lat="42.3822" lon="2.62647">
        <ele>807.8</ele>
        <time>2018-11-26T03:17:38Z</time>
      </trkpt>
      <trkpt lat="42.38219" lon="2.62648">
        <ele>807.9</ele>
        <time>2018-11-26T03:17:38Z</time>
      </trkpt>
      <trkpt lat="42.38219" lon="2.62648">
        <ele>807.9</ele>
        <time>2018-11-26T03:17:38Z</time>
      </trkpt>
      <trkpt lat="42.38219" lon="2.62649">
        <ele>807.9</ele>
        <time>2018-11-26T03:17:39Z</time>
      </trkpt>
      <trkpt lat="42.38219" lon="2.62649">
        <ele>807.8</ele>
        <time>2018-11-26T03:17:39Z</time>
      </trkpt>
      <trkpt lat="42.38219" lon="2.6265">
        <ele>807.9</ele>
        <time>2018-11-26T03:17:39Z</time>
      </trkpt>
      <trkpt lat="42.38218" lon="2.6265">
        <ele>807.9</ele>
        <time>2018-11-26T03:17:39Z</time>
      </trkpt>
      <trkpt lat="42.38218" lon="2.62651">
        <ele>807.9</ele>
        <time>2018-11-26T03:17:39Z</time>
      </trkpt>
      <trkpt lat="42.38218" lon="2.62652">
        <ele>807.9</ele>
        <time>2018-11-26T03:17:40Z</time>
      </trkpt>
      <trkpt lat="42.38217" lon="2.62653">
        <ele>807.9</ele>
        <time>2018-11-26T03:17:40Z</time>
      </trkpt>
      <trkpt lat="42.38217" lon="2.62653">
        <ele>807.8</ele>
        <time>2018-11-26T03:17:40Z</time>
      </trkpt>
      <trkpt lat="42.38216" lon="2.62655">
        <ele>807.8</ele>
        <time>2018-11-26T03:17:41Z</time>
      </trkpt>
      <trkpt lat="42.38216" lon="2.62655">
        <ele>807.6</ele>
        <time>2018-11-26T03:17:41Z</time>
      </trkpt>
      <trkpt lat="42.38216" lon="2.62656">
        <ele>807.6</ele>
        <time>2018-11-26T03:17:41Z</time>
      </trkpt>
      <trkpt lat="42.38216" lon="2.62655">
        <ele>807.7</ele>
        <time>2018-11-26T03:17:41Z</time>
      </trkpt>
      <trkpt lat="42.38216" lon="2.62655">
        <ele>807.8</ele>
        <time>2018-11-26T03:17:41Z</time>
      </trkpt>
      <trkpt lat="42.38217" lon="2.62654">
        <ele>807.9</ele>
        <time>2018-11-26T03:17:42Z</time>
      </trkpt>
      <trkpt lat="42.38217" lon="2.62653">
        <ele>807.8</ele>
        <time>2018-11-26T03:17:42Z</time>
      </trkpt>
      <trkpt lat="42.38218" lon="2.62653">
        <ele>807.9</ele>
        <time>2018-11-26T03:17:42Z</time>
      </trkpt>
      <trkpt lat="42.38218" lon="2.62652">
        <ele>807.9</ele>
        <time>2018-11-26T03:17:43Z</time>
      </trkpt>
      <trkpt lat="42.38218" lon="2.62651">
        <ele>808</ele>
        <time>2018-11-26T03:17:43Z</time>
      </trkpt>
      <trkpt lat="42.38218" lon="2.62651">
        <ele>808.2</ele>
        <time>2018-11-26T03:17:43Z</time>
      </trkpt>
      <trkpt lat="42.38218" lon="2.6265">
        <ele>808.1</ele>
        <time>2018-11-26T03:17:43Z</time>
      </trkpt>
      <trkpt lat="42.38218" lon="2.62651">
        <ele>808</ele>
        <time>2018-11-26T03:17:43Z</time>
      </trkpt>
      <trkpt lat="42.38217" lon="2.62651">
        <ele>808</ele>
        <time>2018-11-26T03:17:43Z</time>
      </trkpt>
      <trkpt lat="42.38217" lon="2.62652">
        <ele>808.3</ele>
        <time>2018-11-26T03:17:44Z</time>
      </trkpt>
      <trkpt lat="42.38217" lon="2.62653">
        <ele>808.5</ele>
        <time>2018-11-26T03:17:44Z</time>
      </trkpt>
      <trkpt lat="42.38217" lon="2.62653">
        <ele>808.5</ele>
        <time>2018-11-26T03:17:44Z</time>
      </trkpt>
      <trkpt lat="42.38216" lon="2.62654">
        <ele>808.5</ele>
        <time>2018-11-26T03:17:44Z</time>
      </trkpt>
      <trkpt lat="42.38216" lon="2.62654">
        <ele>808.6</ele>
        <time>2018-11-26T03:17:44Z</time>
      </trkpt>
      <trkpt lat="42.38216" lon="2.62654">
        <ele>808.6</ele>
        <time>2018-11-26T03:17:44Z</time>
      </trkpt>
      <trkpt lat="42.38216" lon="2.62654">
        <ele>808.3</ele>
        <time>2018-11-26T03:17:45Z</time>
      </trkpt>
      <trkpt lat="42.38216" lon="2.62654">
        <ele>807.9</ele>
        <time>2018-11-26T03:17:45Z</time>
      </trkpt>
      <trkpt lat="42.38216" lon="2.62655">
        <ele>807.3</ele>
        <time>2018-11-26T03:17:45Z</time>
      </trkpt>
      <trkpt lat="42.38216" lon="2.62655">
        <ele>807.3</ele>
        <time>2018-11-26T03:17:45Z</time>
      </trkpt>
      <trkpt lat="42.38216" lon="2.62655">
        <ele>807.5</ele>
        <time>2018-11-26T03:17:45Z</time>
      </trkpt>
      <trkpt lat="42.38216" lon="2.62655">
        <ele>807.6</ele>
        <time>2018-11-26T03:17:45Z</time>
      </trkpt>
      <trkpt lat="42.38216" lon="2.62655">
        <ele>807.5</ele>
        <time>2018-11-26T03:17:45Z</time>
      </trkpt>
      <trkpt lat="42.38216" lon="2.62656">
        <ele>807.5</ele>
        <time>2018-11-26T03:17:45Z</time>
      </trkpt>
      <trkpt lat="42.38216" lon="2.62656">
        <ele>807.7</ele>
        <time>2018-11-26T03:17:45Z</time>
      </trkpt>
      <trkpt lat="42.38216" lon="2.62656">
        <ele>807.8</ele>
        <time>2018-11-26T03:17:45Z</time>
      </trkpt>
      <trkpt lat="42.38215" lon="2.62656">
        <ele>808.3</ele>
        <time>2018-11-26T03:17:46Z</time>
      </trkpt>
      <trkpt lat="42.38214" lon="2.62656">
        <ele>808.2</ele>
        <time>2018-11-26T03:17:46Z</time>
      </trkpt>
      <trkpt lat="42.38213" lon="2.62656">
        <ele>807.9</ele>
        <time>2018-11-26T03:17:46Z</time>
      </trkpt>
      <trkpt lat="42.38213" lon="2.62657">
        <ele>807.7</ele>
        <time>2018-11-26T03:17:47Z</time>
      </trkpt>
      <trkpt lat="42.38212" lon="2.62657">
        <ele>807.5</ele>
        <time>2018-11-26T03:17:47Z</time>
      </trkpt>
      <trkpt lat="42.38212" lon="2.62658">
        <ele>807.7</ele>
        <time>2018-11-26T03:17:47Z</time>
      </trkpt>
      <trkpt lat="42.38212" lon="2.62658">
        <ele>807.7</ele>
        <time>2018-11-26T03:17:47Z</time>
      </trkpt>
      <trkpt lat="42.38212" lon="2.62658">
        <ele>807.9</ele>
        <time>2018-11-26T03:17:47Z</time>
      </trkpt>
      <trkpt lat="42.38212" lon="2.62658">
        <ele>807.8</ele>
        <time>2018-11-26T03:17:47Z</time>
      </trkpt>
      <trkpt lat="42.38212" lon="2.62658">
        <ele>807.9</ele>
        <time>2018-11-26T03:17:47Z</time>
      </trkpt>
      <trkpt lat="42.38212" lon="2.62658">
        <ele>807.8</ele>
        <time>2018-11-26T03:17:47Z</time>
      </trkpt>
      <trkpt lat="42.38212" lon="2.62658">
        <ele>807.8</ele>
        <time>2018-11-26T03:17:47Z</time>
      </trkpt>
      <trkpt lat="42.38212" lon="2.62659">
        <ele>807.6</ele>
        <time>2018-11-26T03:17:47Z</time>
      </trkpt>
      <trkpt lat="42.38212" lon="2.62659">
        <ele>807.5</ele>
        <time>2018-11-26T03:17:47Z</time>
      </trkpt>
      <trkpt lat="42.38212" lon="2.62659">
        <ele>807.6</ele>
        <time>2018-11-26T03:17:47Z</time>
      </trkpt>
      <trkpt lat="42.38212" lon="2.62659">
        <ele>807.5</ele>
        <time>2018-11-26T03:17:48Z</time>
      </trkpt>
      <trkpt lat="42.38212" lon="2.6266">
        <ele>807.5</ele>
        <time>2018-11-26T03:17:48Z</time>
      </trkpt>
      <trkpt lat="42.38211" lon="2.6266">
        <ele>807.4</ele>
        <time>2018-11-26T03:17:48Z</time>
      </trkpt>
      <trkpt lat="42.38211" lon="2.62661">
        <ele>807.3</ele>
        <time>2018-11-26T03:17:48Z</time>
      </trkpt>
      <trkpt lat="42.38211" lon="2.62661">
        <ele>807.2</ele>
        <time>2018-11-26T03:17:48Z</time>
      </trkpt>
      <trkpt lat="42.38211" lon="2.62661">
        <ele>807.1</ele>
        <time>2018-11-26T03:17:48Z</time>
      </trkpt>
      <trkpt lat="42.38211" lon="2.6266">
        <ele>807</ele>
        <time>2018-11-26T03:17:48Z</time>
      </trkpt>
      <trkpt lat="42.38211" lon="2.6266">
        <ele>806.7</ele>
        <time>2018-11-26T03:17:49Z</time>
      </trkpt>
      <trkpt lat="42.38211" lon="2.6266">
        <ele>806.5</ele>
        <time>2018-11-26T03:17:49Z</time>
      </trkpt>
      <trkpt lat="42.38211" lon="2.62659">
        <ele>806.7</ele>
        <time>2018-11-26T03:17:49Z</time>
      </trkpt>
      <trkpt lat="42.38211" lon="2.62659">
        <ele>807</ele>
        <time>2018-11-26T03:17:49Z</time>
      </trkpt>
      <trkpt lat="42.38211" lon="2.62659">
        <ele>807.3</ele>
        <time>2018-11-26T03:17:49Z</time>
      </trkpt>
      <trkpt lat="42.3821" lon="2.62659">
        <ele>807.4</ele>
        <time>2018-11-26T03:17:49Z</time>
      </trkpt>
      <trkpt lat="42.3821" lon="2.62658">
        <ele>807.5</ele>
        <time>2018-11-26T03:17:49Z</time>
      </trkpt>
      <trkpt lat="42.3821" lon="2.62658">
        <ele>807.9</ele>
        <time>2018-11-26T03:17:49Z</time>
      </trkpt>
      <trkpt lat="42.3821" lon="2.62658">
        <ele>807.5</ele>
        <time>2018-11-26T03:17:49Z</time>
      </trkpt>
      <trkpt lat="42.3821" lon="2.62657">
        <ele>807.3</ele>
        <time>2018-11-26T03:17:50Z</time>
      </trkpt>
      <trkpt lat="42.3821" lon="2.62657">
        <ele>806.7</ele>
        <time>2018-11-26T03:17:50Z</time>
      </trkpt>
      <trkpt lat="42.3821" lon="2.62656">
        <ele>806.7</ele>
        <time>2018-11-26T03:17:50Z</time>
      </trkpt>
      <trkpt lat="42.3821" lon="2.62656">
        <ele>806.8</ele>
        <time>2018-11-26T03:17:50Z</time>
      </trkpt>
      <trkpt lat="42.3821" lon="2.62656">
        <ele>806.8</ele>
        <time>2018-11-26T03:17:50Z</time>
      </trkpt>
      <trkpt lat="42.3821" lon="2.62656">
        <ele>806.9</ele>
        <time>2018-11-26T03:17:50Z</time>
      </trkpt>
      <trkpt lat="42.3821" lon="2.62655">
        <ele>807.2</ele>
        <time>2018-11-26T03:17:50Z</time>
      </trkpt>
      <trkpt lat="42.3821" lon="2.62655">
        <ele>807.3</ele>
        <time>2018-11-26T03:17:50Z</time>
      </trkpt>
      <trkpt lat="42.3821" lon="2.62655">
        <ele>807.6</ele>
        <time>2018-11-26T03:17:50Z</time>
      </trkpt>
      <trkpt lat="42.3821" lon="2.62652">
        <ele>807.7</ele>
        <time>2018-11-26T03:17:51Z</time>
      </trkpt>
      <trkpt lat="42.3821" lon="2.62652">
        <ele>807.8</ele>
        <time>2018-11-26T03:17:51Z</time>
      </trkpt>
      <trkpt lat="42.3821" lon="2.62652">
        <ele>807.7</ele>
        <time>2018-11-26T03:17:51Z</time>
      </trkpt>
      <trkpt lat="42.3821" lon="2.62652">
        <ele>807.8</ele>
        <time>2018-11-26T03:17:51Z</time>
      </trkpt>
      <trkpt lat="42.3821" lon="2.62652">
        <ele>807.8</ele>
        <time>2018-11-26T03:17:51Z</time>
      </trkpt>
      <trkpt lat="42.3821" lon="2.62652">
        <ele>807.9</ele>
        <time>2018-11-26T03:17:51Z</time>
      </trkpt>
      <trkpt lat="42.3821" lon="2.62652">
        <ele>807.8</ele>
        <time>2018-11-26T03:17:51Z</time>
      </trkpt>
      <trkpt lat="42.3821" lon="2.62652">
        <ele>807.8</ele>
        <time>2018-11-26T03:17:51Z</time>
      </trkpt>
      <trkpt lat="42.3821" lon="2.62652">
        <ele>807.8</ele>
        <time>2018-11-26T03:17:51Z</time>
      </trkpt>
      <trkpt lat="42.3821" lon="2.62651">
        <ele>807.9</ele>
        <time>2018-11-26T03:17:52Z</time>
      </trkpt>
      <trkpt lat="42.3821" lon="2.62651">
        <ele>807.8</ele>
        <time>2018-11-26T03:17:52Z</time>
      </trkpt>
      <trkpt lat="42.3821" lon="2.62651">
        <ele>808</ele>
        <time>2018-11-26T03:17:52Z</time>
      </trkpt>
      <trkpt lat="42.3821" lon="2.6265">
        <ele>807.9</ele>
        <time>2018-11-26T03:17:52Z</time>
      </trkpt>
      <trkpt lat="42.3821" lon="2.6265">
        <ele>807.9</ele>
        <time>2018-11-26T03:17:52Z</time>
      </trkpt>
      <trkpt lat="42.3821" lon="2.6265">
        <ele>808</ele>
        <time>2018-11-26T03:17:52Z</time>
      </trkpt>
      <trkpt lat="42.3821" lon="2.6265">
        <ele>807.9</ele>
        <time>2018-11-26T03:17:52Z</time>
      </trkpt>
      <trkpt lat="42.38211" lon="2.6265">
        <ele>807.9</ele>
        <time>2018-11-26T03:17:52Z</time>
      </trkpt>
      <trkpt lat="42.38211" lon="2.62649">
        <ele>807.9</ele>
        <time>2018-11-26T03:17:52Z</time>
      </trkpt>
      <trkpt lat="42.38212" lon="2.62649">
        <ele>808.1</ele>
        <time>2018-11-26T03:17:53Z</time>
      </trkpt>
      <trkpt lat="42.38212" lon="2.62649">
        <ele>808.3</ele>
        <time>2018-11-26T03:17:53Z</time>
      </trkpt>
      <trkpt lat="42.38212" lon="2.62649">
        <ele>808.5</ele>
        <time>2018-11-26T03:17:53Z</time>
      </trkpt>
      <trkpt lat="42.38212" lon="2.62649">
        <ele>808.5</ele>
        <time>2018-11-26T03:17:53Z</time>
      </trkpt>
      <trkpt lat="42.38212" lon="2.6265">
        <ele>808.4</ele>
        <time>2018-11-26T03:17:53Z</time>
      </trkpt>
      <trkpt lat="42.38212" lon="2.6265">
        <ele>808.4</ele>
        <time>2018-11-26T03:17:53Z</time>
      </trkpt>
      <trkpt lat="42.38212" lon="2.6265">
        <ele>808.5</ele>
        <time>2018-11-26T03:17:53Z</time>
      </trkpt>
      <trkpt lat="42.38212" lon="2.6265">
        <ele>808.3</ele>
        <time>2018-11-26T03:17:53Z</time>
      </trkpt>
      <trkpt lat="42.38212" lon="2.6265">
        <ele>808.3</ele>
        <time>2018-11-26T03:17:53Z</time>
      </trkpt>
      <trkpt lat="42.38212" lon="2.6265">
        <ele>808.1</ele>
        <time>2018-11-26T03:17:53Z</time>
      </trkpt>
      <trkpt lat="42.38212" lon="2.6265">
        <ele>807.9</ele>
        <time>2018-11-26T03:17:54Z</time>
      </trkpt>
      <trkpt lat="42.38212" lon="2.62651">
        <ele>807.6</ele>
        <time>2018-11-26T03:17:54Z</time>
      </trkpt>
      <trkpt lat="42.38212" lon="2.62651">
        <ele>807.8</ele>
        <time>2018-11-26T03:17:54Z</time>
      </trkpt>
      <trkpt lat="42.38212" lon="2.62651">
        <ele>808.1</ele>
        <time>2018-11-26T03:17:54Z</time>
      </trkpt>
      <trkpt lat="42.38212" lon="2.62651">
        <ele>808.6</ele>
        <time>2018-11-26T03:17:54Z</time>
      </trkpt>
      <trkpt lat="42.38212" lon="2.62651">
        <ele>808.7</ele>
        <time>2018-11-26T03:17:54Z</time>
      </trkpt>
      <trkpt lat="42.38212" lon="2.62651">
        <ele>808.8</ele>
        <time>2018-11-26T03:17:54Z</time>
      </trkpt>
      <trkpt lat="42.38212" lon="2.62651">
        <ele>809.1</ele>
        <time>2018-11-26T03:17:54Z</time>
      </trkpt>
      <trkpt lat="42.38212" lon="2.62651">
        <ele>809.1</ele>
        <time>2018-11-26T03:17:54Z</time>
      </trkpt>
      <trkpt lat="42.38212" lon="2.62651">
        <ele>809.1</ele>
        <time>2018-11-26T03:17:54Z</time>
      </trkpt>
      <trkpt lat="42.38213" lon="2.62651">
        <ele>809.2</ele>
        <time>2018-11-26T03:17:54Z</time>
      </trkpt>
      <trkpt lat="42.38213" lon="2.62651">
        <ele>809.2</ele>
        <time>2018-11-26T03:17:54Z</time>
      </trkpt>
      <trkpt lat="42.38213" lon="2.62651">
        <ele>809.2</ele>
        <time>2018-11-26T03:17:54Z</time>
      </trkpt>
      <trkpt lat="42.38213" lon="2.62651">
        <ele>809.2</ele>
        <time>2018-11-26T03:17:54Z</time>
      </trkpt>
      <trkpt lat="42.38213" lon="2.62651">
        <ele>809.1</ele>
        <time>2018-11-26T03:17:54Z</time>
      </trkpt>
      <trkpt lat="42.38213" lon="2.62651">
        <ele>809.2</ele>
        <time>2018-11-26T03:17:54Z</time>
      </trkpt>
      <trkpt lat="42.38213" lon="2.62651">
        <ele>809.3</ele>
        <time>2018-11-26T03:17:54Z</time>
      </trkpt>
      <trkpt lat="42.38213" lon="2.62651">
        <ele>809.5</ele>
        <time>2018-11-26T03:17:54Z</time>
      </trkpt>
      <trkpt lat="42.38214" lon="2.62651">
        <ele>809.4</ele>
        <time>2018-11-26T03:17:54Z</time>
      </trkpt>
      <trkpt lat="42.38214" lon="2.62651">
        <ele>809.1</ele>
        <time>2018-11-26T03:17:54Z</time>
      </trkpt>
      <trkpt lat="42.38214" lon="2.62651">
        <ele>808.9</ele>
        <time>2018-11-26T03:17:55Z</time>
      </trkpt>
      <trkpt lat="42.38214" lon="2.62651">
        <ele>808.7</ele>
        <time>2018-11-26T03:17:55Z</time>
      </trkpt>
      <trkpt lat="42.38215" lon="2.62651">
        <ele>808.6</ele>
        <time>2018-11-26T03:17:55Z</time>
      </trkpt>
      <trkpt lat="42.38215" lon="2.62651">
        <ele>808.6</ele>
        <time>2018-11-26T03:17:55Z</time>
      </trkpt>
      <trkpt lat="42.38215" lon="2.62651">
        <ele>808.5</ele>
        <time>2018-11-26T03:17:55Z</time>
      </trkpt>
      <trkpt lat="42.38215" lon="2.62651">
        <ele>808.5</ele>
        <time>2018-11-26T03:17:55Z</time>
      </trkpt>
      <trkpt lat="42.38215" lon="2.62651">
        <ele>808.5</ele>
        <time>2018-11-26T03:17:55Z</time>
      </trkpt>
      <trkpt lat="42.38215" lon="2.62651">
        <ele>808.7</ele>
        <time>2018-11-26T03:17:55Z</time>
      </trkpt>
      <trkpt lat="42.38215" lon="2.62651">
        <ele>809.1</ele>
        <time>2018-11-26T03:17:55Z</time>
      </trkpt>
      <trkpt lat="42.38215" lon="2.62651">
        <ele>809.5</ele>
        <time>2018-11-26T03:17:55Z</time>
      </trkpt>
      <trkpt lat="42.38216" lon="2.62651">
        <ele>809.3</ele>
        <time>2018-11-26T03:17:55Z</time>
      </trkpt>
      <trkpt lat="42.38216" lon="2.62651">
        <ele>809.3</ele>
        <time>2018-11-26T03:17:55Z</time>
      </trkpt>
      <trkpt lat="42.38216" lon="2.62651">
        <ele>809</ele>
        <time>2018-11-26T03:17:55Z</time>
      </trkpt>
      <trkpt lat="42.38216" lon="2.62651">
        <ele>808.9</ele>
        <time>2018-11-26T03:17:55Z</time>
      </trkpt>
      <trkpt lat="42.38216" lon="2.62651">
        <ele>808.6</ele>
        <time>2018-11-26T03:17:55Z</time>
      </trkpt>
      <trkpt lat="42.38216" lon="2.62651">
        <ele>808.4</ele>
        <time>2018-11-26T03:17:56Z</time>
      </trkpt>
      <trkpt lat="42.38216" lon="2.62651">
        <ele>808.1</ele>
        <time>2018-11-26T03:17:56Z</time>
      </trkpt>
      <trkpt lat="42.38216" lon="2.62651">
        <ele>808.3</ele>
        <time>2018-11-26T03:17:56Z</time>
      </trkpt>
      <trkpt lat="42.38216" lon="2.62651">
        <ele>808.6</ele>
        <time>2018-11-26T03:17:56Z</time>
      </trkpt>
      <trkpt lat="42.38216" lon="2.62651">
        <ele>808.7</ele>
        <time>2018-11-26T03:17:56Z</time>
      </trkpt>
      <trkpt lat="42.38216" lon="2.62651">
        <ele>808.7</ele>
        <time>2018-11-26T03:17:56Z</time>
      </trkpt>
      <trkpt lat="42.38216" lon="2.62651">
        <ele>808.8</ele>
        <time>2018-11-26T03:17:56Z</time>
      </trkpt>
      <trkpt lat="42.38216" lon="2.62651">
        <ele>808.7</ele>
        <time>2018-11-26T03:17:56Z</time>
      </trkpt>
      <trkpt lat="42.38216" lon="2.62652">
        <ele>808.8</ele>
        <time>2018-11-26T03:17:56Z</time>
      </trkpt>
      <trkpt lat="42.38217" lon="2.62652">
        <ele>808.9</ele>
        <time>2018-11-26T03:17:56Z</time>
      </trkpt>
      <trkpt lat="42.38217" lon="2.62652">
        <ele>809</ele>
        <time>2018-11-26T03:17:56Z</time>
      </trkpt>
      <trkpt lat="42.38217" lon="2.62652">
        <ele>809</ele>
        <time>2018-11-26T03:17:56Z</time>
      </trkpt>
      <trkpt lat="42.38217" lon="2.62652">
        <ele>808.9</ele>
        <time>2018-11-26T03:17:56Z</time>
      </trkpt>
      <trkpt lat="42.38217" lon="2.62653">
        <ele>808.7</ele>
        <time>2018-11-26T03:17:56Z</time>
      </trkpt>
      <trkpt lat="42.38217" lon="2.62653">
        <ele>808.8</ele>
        <time>2018-11-26T03:17:56Z</time>
      </trkpt>
      <trkpt lat="42.38217" lon="2.62653">
        <ele>808.9</ele>
        <time>2018-11-26T03:17:56Z</time>
      </trkpt>
      <trkpt lat="42.38217" lon="2.62654">
        <ele>808.8</ele>
        <time>2018-11-26T03:17:57Z</time>
      </trkpt>
      <trkpt lat="42.38217" lon="2.62654">
        <ele>808.9</ele>
        <time>2018-11-26T03:17:57Z</time>
      </trkpt>
      <trkpt lat="42.38217" lon="2.62654">
        <ele>808.9</ele>
        <time>2018-11-26T03:17:57Z</time>
      </trkpt>
      <trkpt lat="42.38217" lon="2.62654">
        <ele>809</ele>
        <time>2018-11-26T03:17:57Z</time>
      </trkpt>
      <trkpt lat="42.38217" lon="2.62654">
        <ele>809.1</ele>
        <time>2018-11-26T03:17:57Z</time>
      </trkpt>
      <trkpt lat="42.38217" lon="2.62654">
        <ele>809.2</ele>
        <time>2018-11-26T03:17:57Z</time>
      </trkpt>
      <trkpt lat="42.38217" lon="2.62654">
        <ele>809.1</ele>
        <time>2018-11-26T03:17:57Z</time>
      </trkpt>
      <trkpt lat="42.38217" lon="2.62654">
        <ele>809</ele>
        <time>2018-11-26T03:17:57Z</time>
      </trkpt>
      <trkpt lat="42.38217" lon="2.62654">
        <ele>808.9</ele>
        <time>2018-11-26T03:17:57Z</time>
      </trkpt>
      <trkpt lat="42.38217" lon="2.62654">
        <ele>808.9</ele>
        <time>2018-11-26T03:17:57Z</time>
      </trkpt>
      <trkpt lat="42.38217" lon="2.62654">
        <ele>808.8</ele>
        <time>2018-11-26T03:17:57Z</time>
      </trkpt>
      <trkpt lat="42.38217" lon="2.62654">
        <ele>808.9</ele>
        <time>2018-11-26T03:17:57Z</time>
      </trkpt>
      <trkpt lat="42.38218" lon="2.62654">
        <ele>809.1</ele>
        <time>2018-11-26T03:17:57Z</time>
      </trkpt>
      <trkpt lat="42.38218" lon="2.62653">
        <ele>809.2</ele>
        <time>2018-11-26T03:17:57Z</time>
      </trkpt>
      <trkpt lat="42.38218" lon="2.62653">
        <ele>809.5</ele>
        <time>2018-11-26T03:17:58Z</time>
      </trkpt>
      <trkpt lat="42.38218" lon="2.62653">
        <ele>809.7</ele>
        <time>2018-11-26T03:17:58Z</time>
      </trkpt>
      <trkpt lat="42.38218" lon="2.62653">
        <ele>810</ele>
        <time>2018-11-26T03:17:58Z</time>
      </trkpt>
      <trkpt lat="42.38218" lon="2.62653">
        <ele>810.2</ele>
        <time>2018-11-26T03:17:58Z</time>
      </trkpt>
      <trkpt lat="42.38218" lon="2.62653">
        <ele>809.9</ele>
        <time>2018-11-26T03:17:58Z</time>
      </trkpt>
      <trkpt lat="42.38218" lon="2.62653">
        <ele>809.5</ele>
        <time>2018-11-26T03:17:58Z</time>
      </trkpt>
      <trkpt lat="42.38218" lon="2.62653">
        <ele>809</ele>
        <time>2018-11-26T03:17:58Z</time>
      </trkpt>
      <trkpt lat="42.38218" lon="2.62653">
        <ele>808.8</ele>
        <time>2018-11-26T03:17:58Z</time>
      </trkpt>
      <trkpt lat="42.38218" lon="2.62653">
        <ele>808.4</ele>
        <time>2018-11-26T03:17:58Z</time>
      </trkpt>
      <trkpt lat="42.38218" lon="2.62653">
        <ele>807.9</ele>
        <time>2018-11-26T03:17:58Z</time>
      </trkpt>
      <trkpt lat="42.38218" lon="2.62653">
        <ele>807.9</ele>
        <time>2018-11-26T03:17:58Z</time>
      </trkpt>
      <trkpt lat="42.38218" lon="2.62653">
        <ele>807.9</ele>
        <time>2018-11-26T03:17:58Z</time>
      </trkpt>
      <trkpt lat="42.38218" lon="2.62654">
        <ele>807.8</ele>
        <time>2018-11-26T03:17:58Z</time>
      </trkpt>
      <trkpt lat="42.38219" lon="2.62654">
        <ele>807.8</ele>
        <time>2018-11-26T03:17:58Z</time>
      </trkpt>
      <trkpt lat="42.38219" lon="2.62654">
        <ele>807.8</ele>
        <time>2018-11-26T03:17:58Z</time>
      </trkpt>
      <trkpt lat="42.38219" lon="2.62654">
        <ele>807.8</ele>
        <time>2018-11-26T03:17:58Z</time>
      </trkpt>
      <trkpt lat="42.38219" lon="2.62654">
        <ele>807.8</ele>
        <time>2018-11-26T03:17:58Z</time>
      </trkpt>
      <trkpt lat="42.38219" lon="2.62654">
        <ele>807.9</ele>
        <time>2018-11-26T03:17:58Z</time>
      </trkpt>
      <trkpt lat="42.38219" lon="2.62654">
        <ele>808</ele>
        <time>2018-11-26T03:17:58Z</time>
      </trkpt>
      <trkpt lat="42.38219" lon="2.62654">
        <ele>808.2</ele>
        <time>2018-11-26T03:17:58Z</time>
      </trkpt>
      <trkpt lat="42.38219" lon="2.62654">
        <ele>808.1</ele>
        <time>2018-11-26T03:17:58Z</time>
      </trkpt>
      <trkpt lat="42.38219" lon="2.62654">
        <ele>808</ele>
        <time>2018-11-26T03:17:59Z</time>
      </trkpt>
      <trkpt lat="42.38219" lon="2.62654">
        <ele>808</ele>
        <time>2018-11-26T03:17:59Z</time>
      </trkpt>
      <trkpt lat="42.38219" lon="2.62654">
        <ele>808.2</ele>
        <time>2018-11-26T03:17:59Z</time>
      </trkpt>
      <trkpt lat="42.38219" lon="2.62655">
        <ele>808.4</ele>
        <time>2018-11-26T03:17:59Z</time>
      </trkpt>
      <trkpt lat="42.38219" lon="2.62655">
        <ele>808.8</ele>
        <time>2018-11-26T03:17:59Z</time>
      </trkpt>
      <trkpt lat="42.38219" lon="2.62655">
        <ele>808.7</ele>
        <time>2018-11-26T03:17:59Z</time>
      </trkpt>
      <trkpt lat="42.38219" lon="2.62655">
        <ele>808.6</ele>
        <time>2018-11-26T03:17:59Z</time>
      </trkpt>
      <trkpt lat="42.38219" lon="2.62655">
        <ele>808.5</ele>
        <time>2018-11-26T03:17:59Z</time>
      </trkpt>
      <trkpt lat="42.38219" lon="2.62655">
        <ele>808.4</ele>
        <time>2018-11-26T03:17:59Z</time>
      </trkpt>
      <trkpt lat="42.38219" lon="2.62655">
        <ele>808.4</ele>
        <time>2018-11-26T03:17:59Z</time>
      </trkpt>
      <trkpt lat="42.38219" lon="2.62655">
        <ele>808.3</ele>
        <time>2018-11-26T03:17:59Z</time>
      </trkpt>
      <trkpt lat="42.38219" lon="2.62656">
        <ele>808.3</ele>
        <time>2018-11-26T03:17:59Z</time>
      </trkpt>
      <trkpt lat="42.38219" lon="2.62656">
        <ele>808.3</ele>
        <time>2018-11-26T03:17:59Z</time>
      </trkpt>
      <trkpt lat="42.38219" lon="2.62656">
        <ele>808.2</ele>
        <time>2018-11-26T03:17:59Z</time>
      </trkpt>
      <trkpt lat="42.38219" lon="2.62656">
        <ele>808</ele>
        <time>2018-11-26T03:17:59Z</time>
      </trkpt>
      <trkpt lat="42.38219" lon="2.62657">
        <ele>808.1</ele>
        <time>2018-11-26T03:18:00Z</time>
      </trkpt>
      <trkpt lat="42.38219" lon="2.62657">
        <ele>808.2</ele>
        <time>2018-11-26T03:18:00Z</time>
      </trkpt>
      <trkpt lat="42.38219" lon="2.62657">
        <ele>808.4</ele>
        <time>2018-11-26T03:18:00Z</time>
      </trkpt>
      <trkpt lat="42.38219" lon="2.62657">
        <ele>808.5</ele>
        <time>2018-11-26T03:18:00Z</time>
      </trkpt>
      <trkpt lat="42.38219" lon="2.62658">
        <ele>808.8</ele>
        <time>2018-11-26T03:18:00Z</time>
      </trkpt>
      <trkpt lat="42.38218" lon="2.62658">
        <ele>809.2</ele>
        <time>2018-11-26T03:18:00Z</time>
      </trkpt>
      <trkpt lat="42.38218" lon="2.62658">
        <ele>809.3</ele>
        <time>2018-11-26T03:18:00Z</time>
      </trkpt>
      <trkpt lat="42.38218" lon="2.62658">
        <ele>809.1</ele>
        <time>2018-11-26T03:18:00Z</time>
      </trkpt>
      <trkpt lat="42.38218" lon="2.62659">
        <ele>808.9</ele>
        <time>2018-11-26T03:18:00Z</time>
      </trkpt>
      <trkpt lat="42.38219" lon="2.62658">
        <ele>808.8</ele>
        <time>2018-11-26T03:18:00Z</time>
      </trkpt>
      <trkpt lat="42.38219" lon="2.62658">
        <ele>808.6</ele>
        <time>2018-11-26T03:18:00Z</time>
      </trkpt>
      <trkpt lat="42.38219" lon="2.62658">
        <ele>808.5</ele>
        <time>2018-11-26T03:18:00Z</time>
      </trkpt>
      <trkpt lat="42.38219" lon="2.62658">
        <ele>808.4</ele>
        <time>2018-11-26T03:18:01Z</time>
      </trkpt>
      <trkpt lat="42.38219" lon="2.62659">
        <ele>808.3</ele>
        <time>2018-11-26T03:18:01Z</time>
      </trkpt>
      <trkpt lat="42.38219" lon="2.62659">
        <ele>808.1</ele>
        <time>2018-11-26T03:18:01Z</time>
      </trkpt>
      <trkpt lat="42.38219" lon="2.62659">
        <ele>808.1</ele>
        <time>2018-11-26T03:18:01Z</time>
      </trkpt>
      <trkpt lat="42.38219" lon="2.62659">
        <ele>808.2</ele>
        <time>2018-11-26T03:18:01Z</time>
      </trkpt>
      <trkpt lat="42.38219" lon="2.62659">
        <ele>808.3</ele>
        <time>2018-11-26T03:18:01Z</time>
      </trkpt>
      <trkpt lat="42.38219" lon="2.62659">
        <ele>808.2</ele>
        <time>2018-11-26T03:18:01Z</time>
      </trkpt>
      <trkpt lat="42.38219" lon="2.6266">
        <ele>808.3</ele>
        <time>2018-11-26T03:18:01Z</time>
      </trkpt>
      <trkpt lat="42.38219" lon="2.6266">
        <ele>808.2</ele>
        <time>2018-11-26T03:18:01Z</time>
      </trkpt>
      <trkpt lat="42.38219" lon="2.6266">
        <ele>808.4</ele>
        <time>2018-11-26T03:18:01Z</time>
      </trkpt>
      <trkpt lat="42.38219" lon="2.62661">
        <ele>808.3</ele>
        <time>2018-11-26T03:18:01Z</time>
      </trkpt>
      <trkpt lat="42.38219" lon="2.62661">
        <ele>808.5</ele>
        <time>2018-11-26T03:18:02Z</time>
      </trkpt>
      <trkpt lat="42.38219" lon="2.62661">
        <ele>808.6</ele>
        <time>2018-11-26T03:18:02Z</time>
      </trkpt>
      <trkpt lat="42.38218" lon="2.62661">
        <ele>808.7</ele>
        <time>2018-11-26T03:18:02Z</time>
      </trkpt>
      <trkpt lat="42.38218" lon="2.62662">
        <ele>808.6</ele>
        <time>2018-11-26T03:18:02Z</time>
      </trkpt>
      <trkpt lat="42.38218" lon="2.62662">
        <ele>808.7</ele>
        <time>2018-11-26T03:18:02Z</time>
      </trkpt>
      <trkpt lat="42.38217" lon="2.62662">
        <ele>808.8</ele>
        <time>2018-11-26T03:18:02Z</time>
      </trkpt>
      <trkpt lat="42.38217" lon="2.62662">
        <ele>808.8</ele>
        <time>2018-11-26T03:18:02Z</time>
      </trkpt>
      <trkpt lat="42.38217" lon="2.62662">
        <ele>809.1</ele>
        <time>2018-11-26T03:18:02Z</time>
      </trkpt>
      <trkpt lat="42.38217" lon="2.62662">
        <ele>808.9</ele>
        <time>2018-11-26T03:18:03Z</time>
      </trkpt>
      <trkpt lat="42.38217" lon="2.62662">
        <ele>808.9</ele>
        <time>2018-11-26T03:18:03Z</time>
      </trkpt>
      <trkpt lat="42.38217" lon="2.62663">
        <ele>808.8</ele>
        <time>2018-11-26T03:18:03Z</time>
      </trkpt>
      <trkpt lat="42.38217" lon="2.62664">
        <ele>808.8</ele>
        <time>2018-11-26T03:18:03Z</time>
      </trkpt>
      <trkpt lat="42.38217" lon="2.62665">
        <ele>808.9</ele>
        <time>2018-11-26T03:18:03Z</time>
      </trkpt>
      <trkpt lat="42.38218" lon="2.62665">
        <ele>808.8</ele>
        <time>2018-11-26T03:18:04Z</time>
      </trkpt>
      <trkpt lat="42.38218" lon="2.62665">
        <ele>808.6</ele>
        <time>2018-11-26T03:18:04Z</time>
      </trkpt>
      <trkpt lat="42.38218" lon="2.62665">
        <ele>808.4</ele>
        <time>2018-11-26T03:18:04Z</time>
      </trkpt>
      <trkpt lat="42.38218" lon="2.62666">
        <ele>808.4</ele>
        <time>2018-11-26T03:18:04Z</time>
      </trkpt>
      <trkpt lat="42.38218" lon="2.62666">
        <ele>808.6</ele>
        <time>2018-11-26T03:18:04Z</time>
      </trkpt>
      <trkpt lat="42.38218" lon="2.62667">
        <ele>808.6</ele>
        <time>2018-11-26T03:18:04Z</time>
      </trkpt>
      <trkpt lat="42.38219" lon="2.62667">
        <ele>808.6</ele>
        <time>2018-11-26T03:18:04Z</time>
      </trkpt>
      <trkpt lat="42.38219" lon="2.62667">
        <ele>808.8</ele>
        <time>2018-11-26T03:18:04Z</time>
      </trkpt>
      <trkpt lat="42.38219" lon="2.62667">
        <ele>809.1</ele>
        <time>2018-11-26T03:18:05Z</time>
      </trkpt>
      <trkpt lat="42.38219" lon="2.62668">
        <ele>809.6</ele>
        <time>2018-11-26T03:18:05Z</time>
      </trkpt>
      <trkpt lat="42.38219" lon="2.62668">
        <ele>809.6</ele>
        <time>2018-11-26T03:18:05Z</time>
      </trkpt>
      <trkpt lat="42.3822" lon="2.62669">
        <ele>809.4</ele>
        <time>2018-11-26T03:18:05Z</time>
      </trkpt>
      <trkpt lat="42.3822" lon="2.62669">
        <ele>809.3</ele>
        <time>2018-11-26T03:18:05Z</time>
      </trkpt>
      <trkpt lat="42.3822" lon="2.6267">
        <ele>809.4</ele>
        <time>2018-11-26T03:18:05Z</time>
      </trkpt>
      <trkpt lat="42.3822" lon="2.6267">
        <ele>809.4</ele>
        <time>2018-11-26T03:18:05Z</time>
      </trkpt>
      <trkpt lat="42.3822" lon="2.6267">
        <ele>809.3</ele>
        <time>2018-11-26T03:18:06Z</time>
      </trkpt>
      <trkpt lat="42.3822" lon="2.62671">
        <ele>809.4</ele>
        <time>2018-11-26T03:18:06Z</time>
      </trkpt>
      <trkpt lat="42.38221" lon="2.62671">
        <ele>809.5</ele>
        <time>2018-11-26T03:18:06Z</time>
      </trkpt>
      <trkpt lat="42.38221" lon="2.62672">
        <ele>809.6</ele>
        <time>2018-11-26T03:18:06Z</time>
      </trkpt>
      <trkpt lat="42.38221" lon="2.62672">
        <ele>809.6</ele>
        <time>2018-11-26T03:18:06Z</time>
      </trkpt>
      <trkpt lat="42.38221" lon="2.62673">
        <ele>809.2</ele>
        <time>2018-11-26T03:18:06Z</time>
      </trkpt>
      <trkpt lat="42.38222" lon="2.62674">
        <ele>809</ele>
        <time>2018-11-26T03:18:07Z</time>
      </trkpt>
      <trkpt lat="42.38222" lon="2.62674">
        <ele>808.4</ele>
        <time>2018-11-26T03:18:07Z</time>
      </trkpt>
      <trkpt lat="42.38223" lon="2.62676">
        <ele>808.3</ele>
        <time>2018-11-26T03:18:07Z</time>
      </trkpt>
      <trkpt lat="42.38223" lon="2.62677">
        <ele>808.3</ele>
        <time>2018-11-26T03:18:08Z</time>
      </trkpt>
      <trkpt lat="42.38224" lon="2.62678">
        <ele>808.1</ele>
        <time>2018-11-26T03:18:08Z</time>
      </trkpt>
      <trkpt lat="42.38224" lon="2.62679">
        <ele>808</ele>
        <time>2018-11-26T03:18:09Z</time>
      </trkpt>
      <trkpt lat="42.38224" lon="2.62681">
        <ele>807.8</ele>
        <time>2018-11-26T03:18:09Z</time>
      </trkpt>
      <trkpt lat="42.38225" lon="2.62682">
        <ele>807.7</ele>
        <time>2018-11-26T03:18:09Z</time>
      </trkpt>
      <trkpt lat="42.38225" lon="2.62682">
        <ele>808.1</ele>
        <time>2018-11-26T03:18:10Z</time>
      </trkpt>
      <trkpt lat="42.38225" lon="2.62684">
        <ele>808.6</ele>
        <time>2018-11-26T03:18:10Z</time>
      </trkpt>
      <trkpt lat="42.38226" lon="2.62685">
        <ele>809.3</ele>
        <time>2018-11-26T03:18:10Z</time>
      </trkpt>
      <trkpt lat="42.38227" lon="2.62686">
        <ele>809.1</ele>
        <time>2018-11-26T03:18:11Z</time>
      </trkpt>
      <trkpt lat="42.38227" lon="2.62687">
        <ele>809.2</ele>
        <time>2018-11-26T03:18:11Z</time>
      </trkpt>
      <trkpt lat="42.38227" lon="2.62688">
        <ele>809.2</ele>
        <time>2018-11-26T03:18:12Z</time>
      </trkpt>
      <trkpt lat="42.38228" lon="2.62689">
        <ele>809</ele>
        <time>2018-11-26T03:18:12Z</time>
      </trkpt>
      <trkpt lat="42.38228" lon="2.6269">
        <ele>809.2</ele>
        <time>2018-11-26T03:18:12Z</time>
      </trkpt>
      <trkpt lat="42.38229" lon="2.62692">
        <ele>809.1</ele>
        <time>2018-11-26T03:18:13Z</time>
      </trkpt>
      <trkpt lat="42.38231" lon="2.62696">
        <ele>809.3</ele>
        <time>2018-11-26T03:18:14Z</time>
      </trkpt>
      <trkpt lat="42.38231" lon="2.62697">
        <ele>809.4</ele>
        <time>2018-11-26T03:18:15Z</time>
      </trkpt>
      <trkpt lat="42.38232" lon="2.62699">
        <ele>809.3</ele>
        <time>2018-11-26T03:18:15Z</time>
      </trkpt>
      <trkpt lat="42.38232" lon="2.627">
        <ele>809.4</ele>
        <time>2018-11-26T03:18:15Z</time>
      </trkpt>
      <trkpt lat="42.38232" lon="2.62701">
        <ele>809.3</ele>
        <time>2018-11-26T03:18:16Z</time>
      </trkpt>
      <trkpt lat="42.38232" lon="2.62703">
        <ele>809.5</ele>
        <time>2018-11-26T03:18:16Z</time>
      </trkpt>
      <trkpt lat="42.38233" lon="2.62704">
        <ele>809.8</ele>
        <time>2018-11-26T03:18:17Z</time>
      </trkpt>
      <trkpt lat="42.38233" lon="2.62705">
        <ele>810.1</ele>
        <time>2018-11-26T03:18:17Z</time>
      </trkpt>
      <trkpt lat="42.38233" lon="2.62705">
        <ele>810</ele>
        <time>2018-11-26T03:18:17Z</time>
      </trkpt>
      <trkpt lat="42.38233" lon="2.62706">
        <ele>809.7</ele>
        <time>2018-11-26T03:18:17Z</time>
      </trkpt>
      <trkpt lat="42.38234" lon="2.62706">
        <ele>809.5</ele>
        <time>2018-11-26T03:18:18Z</time>
      </trkpt>
      <trkpt lat="42.38234" lon="2.62708">
        <ele>809.7</ele>
        <time>2018-11-26T03:18:18Z</time>
      </trkpt>
      <trkpt lat="42.38234" lon="2.62709">
        <ele>809.9</ele>
        <time>2018-11-26T03:18:18Z</time>
      </trkpt>
      <trkpt lat="42.38235" lon="2.6271">
        <ele>810.2</ele>
        <time>2018-11-26T03:18:19Z</time>
      </trkpt>
      <trkpt lat="42.38235" lon="2.62711">
        <ele>810.5</ele>
        <time>2018-11-26T03:18:19Z</time>
      </trkpt>
      <trkpt lat="42.38235" lon="2.62712">
        <ele>810.4</ele>
        <time>2018-11-26T03:18:19Z</time>
      </trkpt>
      <trkpt lat="42.38236" lon="2.62713">
        <ele>810.2</ele>
        <time>2018-11-26T03:18:20Z</time>
      </trkpt>
      <trkpt lat="42.38236" lon="2.62715">
        <ele>809.9</ele>
        <time>2018-11-26T03:18:20Z</time>
      </trkpt>
      <trkpt lat="42.38237" lon="2.62716">
        <ele>810.3</ele>
        <time>2018-11-26T03:18:21Z</time>
      </trkpt>
      <trkpt lat="42.38237" lon="2.62717">
        <ele>810.6</ele>
        <time>2018-11-26T03:18:21Z</time>
      </trkpt>
      <trkpt lat="42.38237" lon="2.62718">
        <ele>811.1</ele>
        <time>2018-11-26T03:18:21Z</time>
      </trkpt>
      <trkpt lat="42.38237" lon="2.62719">
        <ele>811.3</ele>
        <time>2018-11-26T03:18:22Z</time>
      </trkpt>
      <trkpt lat="42.38238" lon="2.6272">
        <ele>811.4</ele>
        <time>2018-11-26T03:18:22Z</time>
      </trkpt>
      <trkpt lat="42.38238" lon="2.62721">
        <ele>811.5</ele>
        <time>2018-11-26T03:18:22Z</time>
      </trkpt>
      <trkpt lat="42.38239" lon="2.62722">
        <ele>811.8</ele>
        <time>2018-11-26T03:18:23Z</time>
      </trkpt>
      <trkpt lat="42.38239" lon="2.62723">
        <ele>812.3</ele>
        <time>2018-11-26T03:18:23Z</time>
      </trkpt>
      <trkpt lat="42.38239" lon="2.62724">
        <ele>812.7</ele>
        <time>2018-11-26T03:18:23Z</time>
      </trkpt>
      <trkpt lat="42.38239" lon="2.62725">
        <ele>813</ele>
        <time>2018-11-26T03:18:24Z</time>
      </trkpt>
      <trkpt lat="42.38239" lon="2.62726">
        <ele>813.3</ele>
        <time>2018-11-26T03:18:24Z</time>
      </trkpt>
      <trkpt lat="42.3824" lon="2.62728">
        <ele>813.7</ele>
        <time>2018-11-26T03:18:24Z</time>
      </trkpt>
      <trkpt lat="42.3824" lon="2.62729">
        <ele>814.3</ele>
        <time>2018-11-26T03:18:25Z</time>
      </trkpt>
      <trkpt lat="42.38241" lon="2.6273">
        <ele>814.1</ele>
        <time>2018-11-26T03:18:25Z</time>
      </trkpt>
      <trkpt lat="42.38241" lon="2.62732">
        <ele>813.9</ele>
        <time>2018-11-26T03:18:26Z</time>
      </trkpt>
      <trkpt lat="42.38241" lon="2.62733">
        <ele>813.7</ele>
        <time>2018-11-26T03:18:26Z</time>
      </trkpt>
      <trkpt lat="42.38242" lon="2.62735">
        <ele>813.6</ele>
        <time>2018-11-26T03:18:27Z</time>
      </trkpt>
      <trkpt lat="42.38242" lon="2.62736">
        <ele>813.8</ele>
        <time>2018-11-26T03:18:27Z</time>
      </trkpt>
      <trkpt lat="42.38243" lon="2.62737">
        <ele>813.7</ele>
        <time>2018-11-26T03:18:27Z</time>
      </trkpt>
      <trkpt lat="42.38244" lon="2.6274">
        <ele>813.9</ele>
        <time>2018-11-26T03:18:28Z</time>
      </trkpt>
      <trkpt lat="42.38244" lon="2.62741">
        <ele>813.9</ele>
        <time>2018-11-26T03:18:29Z</time>
      </trkpt>
      <trkpt lat="42.38245" lon="2.62743">
        <ele>813.9</ele>
        <time>2018-11-26T03:18:29Z</time>
      </trkpt>
      <trkpt lat="42.38245" lon="2.62744">
        <ele>813.9</ele>
        <time>2018-11-26T03:18:30Z</time>
      </trkpt>
      <trkpt lat="42.38246" lon="2.62746">
        <ele>813.9</ele>
        <time>2018-11-26T03:18:30Z</time>
      </trkpt>
      <trkpt lat="42.38246" lon="2.62747">
        <ele>814.1</ele>
        <time>2018-11-26T03:18:31Z</time>
      </trkpt>
      <trkpt lat="42.38247" lon="2.62748">
        <ele>814.3</ele>
        <time>2018-11-26T03:18:31Z</time>
      </trkpt>
      <trkpt lat="42.38248" lon="2.62751">
        <ele>814.8</ele>
        <time>2018-11-26T03:18:32Z</time>
      </trkpt>
      <trkpt lat="42.38248" lon="2.62752">
        <ele>815</ele>
        <time>2018-11-26T03:18:33Z</time>
      </trkpt>
      <trkpt lat="42.38249" lon="2.62753">
        <ele>815.1</ele>
        <time>2018-11-26T03:18:33Z</time>
      </trkpt>
      <trkpt lat="42.3825" lon="2.62756">
        <ele>815.2</ele>
        <time>2018-11-26T03:18:34Z</time>
      </trkpt>
      <trkpt lat="42.38251" lon="2.62759">
        <ele>815.5</ele>
        <time>2018-11-26T03:18:35Z</time>
      </trkpt>
      <trkpt lat="42.38251" lon="2.62761">
        <ele>815.3</ele>
        <time>2018-11-26T03:18:35Z</time>
      </trkpt>
      <trkpt lat="42.38251" lon="2.62762">
        <ele>815.3</ele>
        <time>2018-11-26T03:18:36Z</time>
      </trkpt>
      <trkpt lat="42.38252" lon="2.62764">
        <ele>815.1</ele>
        <time>2018-11-26T03:18:36Z</time>
      </trkpt>
      <trkpt lat="42.38252" lon="2.62765">
        <ele>815.5</ele>
        <time>2018-11-26T03:18:37Z</time>
      </trkpt>
      <trkpt lat="42.38253" lon="2.62766">
        <ele>815.7</ele>
        <time>2018-11-26T03:18:37Z</time>
      </trkpt>
      <trkpt lat="42.38253" lon="2.62768">
        <ele>816.1</ele>
        <time>2018-11-26T03:18:37Z</time>
      </trkpt>
      <trkpt lat="42.38255" lon="2.62772">
        <ele>816.7</ele>
        <time>2018-11-26T03:18:39Z</time>
      </trkpt>
      <trkpt lat="42.38255" lon="2.62773">
        <ele>817</ele>
        <time>2018-11-26T03:18:39Z</time>
      </trkpt>
      <trkpt lat="42.38255" lon="2.62774">
        <ele>817.1</ele>
        <time>2018-11-26T03:18:40Z</time>
      </trkpt>
      <trkpt lat="42.38256" lon="2.62776">
        <ele>817.2</ele>
        <time>2018-11-26T03:18:40Z</time>
      </trkpt>
      <trkpt lat="42.38256" lon="2.62777">
        <ele>817.4</ele>
        <time>2018-11-26T03:18:40Z</time>
      </trkpt>
      <trkpt lat="42.38257" lon="2.62778">
        <ele>817.6</ele>
        <time>2018-11-26T03:18:41Z</time>
      </trkpt>
      <trkpt lat="42.38257" lon="2.62779">
        <ele>817.8</ele>
        <time>2018-11-26T03:18:41Z</time>
      </trkpt>
      <trkpt lat="42.38257" lon="2.6278">
        <ele>818.1</ele>
        <time>2018-11-26T03:18:42Z</time>
      </trkpt>
      <trkpt lat="42.38258" lon="2.62782">
        <ele>818.3</ele>
        <time>2018-11-26T03:18:42Z</time>
      </trkpt>
      <trkpt lat="42.38258" lon="2.62783">
        <ele>818.3</ele>
        <time>2018-11-26T03:18:42Z</time>
      </trkpt>
      <trkpt lat="42.38258" lon="2.62785">
        <ele>818.4</ele>
        <time>2018-11-26T03:18:43Z</time>
      </trkpt>
      <trkpt lat="42.38258" lon="2.62786">
        <ele>818.4</ele>
        <time>2018-11-26T03:18:43Z</time>
      </trkpt>
      <trkpt lat="42.38258" lon="2.62787">
        <ele>818.7</ele>
        <time>2018-11-26T03:18:44Z</time>
      </trkpt>
      <trkpt lat="42.38259" lon="2.62789">
        <ele>818.9</ele>
        <time>2018-11-26T03:18:44Z</time>
      </trkpt>
      <trkpt lat="42.38259" lon="2.6279">
        <ele>818.9</ele>
        <time>2018-11-26T03:18:44Z</time>
      </trkpt>
      <trkpt lat="42.38259" lon="2.62791">
        <ele>819</ele>
        <time>2018-11-26T03:18:45Z</time>
      </trkpt>
      <trkpt lat="42.38259" lon="2.62792">
        <ele>819.3</ele>
        <time>2018-11-26T03:18:45Z</time>
      </trkpt>
      <trkpt lat="42.38259" lon="2.62793">
        <ele>819.3</ele>
        <time>2018-11-26T03:18:46Z</time>
      </trkpt>
      <trkpt lat="42.3826" lon="2.62794">
        <ele>819.2</ele>
        <time>2018-11-26T03:18:46Z</time>
      </trkpt>
      <trkpt lat="42.3826" lon="2.62795">
        <ele>819.4</ele>
        <time>2018-11-26T03:18:46Z</time>
      </trkpt>
      <trkpt lat="42.3826" lon="2.62797">
        <ele>819.3</ele>
        <time>2018-11-26T03:18:47Z</time>
      </trkpt>
      <trkpt lat="42.3826" lon="2.62798">
        <ele>819.4</ele>
        <time>2018-11-26T03:18:47Z</time>
      </trkpt>
      <trkpt lat="42.38261" lon="2.62799">
        <ele>819.5</ele>
        <time>2018-11-26T03:18:47Z</time>
      </trkpt>
      <trkpt lat="42.38261" lon="2.62801">
        <ele>819.6</ele>
        <time>2018-11-26T03:18:48Z</time>
      </trkpt>
      <trkpt lat="42.38261" lon="2.62804">
        <ele>820.2</ele>
        <time>2018-11-26T03:18:49Z</time>
      </trkpt>
      <trkpt lat="42.38262" lon="2.62809">
        <ele>821</ele>
        <time>2018-11-26T03:18:50Z</time>
      </trkpt>
      <trkpt lat="42.38263" lon="2.6281">
        <ele>821.4</ele>
        <time>2018-11-26T03:18:51Z</time>
      </trkpt>
      <trkpt lat="42.38263" lon="2.62811">
        <ele>821.4</ele>
        <time>2018-11-26T03:18:51Z</time>
      </trkpt>
      <trkpt lat="42.38263" lon="2.62812">
        <ele>821.3</ele>
        <time>2018-11-26T03:18:51Z</time>
      </trkpt>
      <trkpt lat="42.38264" lon="2.62813">
        <ele>821.2</ele>
        <time>2018-11-26T03:18:52Z</time>
      </trkpt>
      <trkpt lat="42.38264" lon="2.62815">
        <ele>821.3</ele>
        <time>2018-11-26T03:18:52Z</time>
      </trkpt>
      <trkpt lat="42.38264" lon="2.62816">
        <ele>821.7</ele>
        <time>2018-11-26T03:18:52Z</time>
      </trkpt>
      <trkpt lat="42.38264" lon="2.62817">
        <ele>822</ele>
        <time>2018-11-26T03:18:53Z</time>
      </trkpt>
      <trkpt lat="42.38264" lon="2.62819">
        <ele>822.3</ele>
        <time>2018-11-26T03:18:53Z</time>
      </trkpt>
      <trkpt lat="42.38264" lon="2.6282">
        <ele>822.2</ele>
        <time>2018-11-26T03:18:54Z</time>
      </trkpt>
      <trkpt lat="42.38264" lon="2.62822">
        <ele>822</ele>
        <time>2018-11-26T03:18:54Z</time>
      </trkpt>
      <trkpt lat="42.38263" lon="2.62826">
        <ele>822.3</ele>
        <time>2018-11-26T03:18:56Z</time>
      </trkpt>
      <trkpt lat="42.38263" lon="2.62828">
        <ele>822.5</ele>
        <time>2018-11-26T03:18:56Z</time>
      </trkpt>
      <trkpt lat="42.38263" lon="2.6283">
        <ele>822.5</ele>
        <time>2018-11-26T03:18:57Z</time>
      </trkpt>
      <trkpt lat="42.38263" lon="2.62831">
        <ele>822.5</ele>
        <time>2018-11-26T03:18:57Z</time>
      </trkpt>
      <trkpt lat="42.38263" lon="2.62833">
        <ele>822.5</ele>
        <time>2018-11-26T03:18:57Z</time>
      </trkpt>
      <trkpt lat="42.38263" lon="2.62834">
        <ele>822.6</ele>
        <time>2018-11-26T03:18:58Z</time>
      </trkpt>
      <trkpt lat="42.38263" lon="2.62836">
        <ele>822.7</ele>
        <time>2018-11-26T03:18:58Z</time>
      </trkpt>
      <trkpt lat="42.38263" lon="2.62837">
        <ele>822.8</ele>
        <time>2018-11-26T03:18:59Z</time>
      </trkpt>
      <trkpt lat="42.38264" lon="2.62839">
        <ele>822.8</ele>
        <time>2018-11-26T03:18:59Z</time>
      </trkpt>
      <trkpt lat="42.38264" lon="2.6284">
        <ele>822.9</ele>
        <time>2018-11-26T03:19:00Z</time>
      </trkpt>
      <trkpt lat="42.38264" lon="2.62841">
        <ele>823</ele>
        <time>2018-11-26T03:19:00Z</time>
      </trkpt>
      <trkpt lat="42.38264" lon="2.62845">
        <ele>823.6</ele>
        <time>2018-11-26T03:19:01Z</time>
      </trkpt>
      <trkpt lat="42.38264" lon="2.62847">
        <ele>824.1</ele>
        <time>2018-11-26T03:19:02Z</time>
      </trkpt>
      <trkpt lat="42.38264" lon="2.62848">
        <ele>824.7</ele>
        <time>2018-11-26T03:19:02Z</time>
      </trkpt>
      <trkpt lat="42.38264" lon="2.62851">
        <ele>824.7</ele>
        <time>2018-11-26T03:19:03Z</time>
      </trkpt>
      <trkpt lat="42.38265" lon="2.62853">
        <ele>824.9</ele>
        <time>2018-11-26T03:19:04Z</time>
      </trkpt>
      <trkpt lat="42.38265" lon="2.62854">
        <ele>824.9</ele>
        <time>2018-11-26T03:19:04Z</time>
      </trkpt>
      <trkpt lat="42.38266" lon="2.62857">
        <ele>825.4</ele>
        <time>2018-11-26T03:19:05Z</time>
      </trkpt>
      <trkpt lat="42.38266" lon="2.62858">
        <ele>825.6</ele>
        <time>2018-11-26T03:19:05Z</time>
      </trkpt>
      <trkpt lat="42.38267" lon="2.62859">
        <ele>825.8</ele>
        <time>2018-11-26T03:19:06Z</time>
      </trkpt>
      <trkpt lat="42.38267" lon="2.62861">
        <ele>826.2</ele>
        <time>2018-11-26T03:19:06Z</time>
      </trkpt>
      <trkpt lat="42.38268" lon="2.62862">
        <ele>826.3</ele>
        <time>2018-11-26T03:19:06Z</time>
      </trkpt>
      <trkpt lat="42.38268" lon="2.62863">
        <ele>826.3</ele>
        <time>2018-11-26T03:19:07Z</time>
      </trkpt>
      <trkpt lat="42.38268" lon="2.62864">
        <ele>826.2</ele>
        <time>2018-11-26T03:19:07Z</time>
      </trkpt>
      <trkpt lat="42.38268" lon="2.62865">
        <ele>826.3</ele>
        <time>2018-11-26T03:19:07Z</time>
      </trkpt>
      <trkpt lat="42.38267" lon="2.62866">
        <ele>826.4</ele>
        <time>2018-11-26T03:19:08Z</time>
      </trkpt>
      <trkpt lat="42.38267" lon="2.62867">
        <ele>826.5</ele>
        <time>2018-11-26T03:19:08Z</time>
      </trkpt>
      <trkpt lat="42.38267" lon="2.62868">
        <ele>826.4</ele>
        <time>2018-11-26T03:19:08Z</time>
      </trkpt>
      <trkpt lat="42.38267" lon="2.62869">
        <ele>826.6</ele>
        <time>2018-11-26T03:19:09Z</time>
      </trkpt>
      <trkpt lat="42.38267" lon="2.6287">
        <ele>826.8</ele>
        <time>2018-11-26T03:19:09Z</time>
      </trkpt>
      <trkpt lat="42.38267" lon="2.62871">
        <ele>827.2</ele>
        <time>2018-11-26T03:19:09Z</time>
      </trkpt>
      <trkpt lat="42.38267" lon="2.62872">
        <ele>827.1</ele>
        <time>2018-11-26T03:19:10Z</time>
      </trkpt>
      <trkpt lat="42.38267" lon="2.62874">
        <ele>826.9</ele>
        <time>2018-11-26T03:19:10Z</time>
      </trkpt>
      <trkpt lat="42.38267" lon="2.62875">
        <ele>826.7</ele>
        <time>2018-11-26T03:19:10Z</time>
      </trkpt>
      <trkpt lat="42.38267" lon="2.62876">
        <ele>826.9</ele>
        <time>2018-11-26T03:19:11Z</time>
      </trkpt>
      <trkpt lat="42.38267" lon="2.62877">
        <ele>826.9</ele>
        <time>2018-11-26T03:19:11Z</time>
      </trkpt>
      <trkpt lat="42.38266" lon="2.62879">
        <ele>827</ele>
        <time>2018-11-26T03:19:12Z</time>
      </trkpt>
      <trkpt lat="42.38266" lon="2.6288">
        <ele>827.2</ele>
        <time>2018-11-26T03:19:12Z</time>
      </trkpt>
      <trkpt lat="42.38266" lon="2.62881">
        <ele>827.1</ele>
        <time>2018-11-26T03:19:12Z</time>
      </trkpt>
      <trkpt lat="42.38265" lon="2.62882">
        <ele>827.2</ele>
        <time>2018-11-26T03:19:13Z</time>
      </trkpt>
      <trkpt lat="42.38265" lon="2.62883">
        <ele>827.3</ele>
        <time>2018-11-26T03:19:13Z</time>
      </trkpt>
      <trkpt lat="42.38264" lon="2.62884">
        <ele>827.5</ele>
        <time>2018-11-26T03:19:13Z</time>
      </trkpt>
      <trkpt lat="42.38264" lon="2.62885">
        <ele>827.7</ele>
        <time>2018-11-26T03:19:14Z</time>
      </trkpt>
      <trkpt lat="42.38263" lon="2.62885">
        <ele>827.9</ele>
        <time>2018-11-26T03:19:14Z</time>
      </trkpt>
      <trkpt lat="42.38263" lon="2.62886">
        <ele>828</ele>
        <time>2018-11-26T03:19:14Z</time>
      </trkpt>
      <trkpt lat="42.38262" lon="2.62887">
        <ele>828.2</ele>
        <time>2018-11-26T03:19:15Z</time>
      </trkpt>
      <trkpt lat="42.38261" lon="2.62888">
        <ele>828.5</ele>
        <time>2018-11-26T03:19:15Z</time>
      </trkpt>
      <trkpt lat="42.38261" lon="2.62889">
        <ele>828.7</ele>
        <time>2018-11-26T03:19:15Z</time>
      </trkpt>
      <trkpt lat="42.3826" lon="2.6289">
        <ele>829</ele>
        <time>2018-11-26T03:19:16Z</time>
      </trkpt>
      <trkpt lat="42.3826" lon="2.62891">
        <ele>829.5</ele>
        <time>2018-11-26T03:19:16Z</time>
      </trkpt>
      <trkpt lat="42.38259" lon="2.62893">
        <ele>829.5</ele>
        <time>2018-11-26T03:19:17Z</time>
      </trkpt>
      <trkpt lat="42.38258" lon="2.62894">
        <ele>829.3</ele>
        <time>2018-11-26T03:19:17Z</time>
      </trkpt>
      <trkpt lat="42.38258" lon="2.62896">
        <ele>829.3</ele>
        <time>2018-11-26T03:19:18Z</time>
      </trkpt>
      <trkpt lat="42.38257" lon="2.62897">
        <ele>829.3</ele>
        <time>2018-11-26T03:19:18Z</time>
      </trkpt>
      <trkpt lat="42.38257" lon="2.62898">
        <ele>829.5</ele>
        <time>2018-11-26T03:19:19Z</time>
      </trkpt>
      <trkpt lat="42.38256" lon="2.629">
        <ele>829.7</ele>
        <time>2018-11-26T03:19:19Z</time>
      </trkpt>
      <trkpt lat="42.38256" lon="2.62901">
        <ele>829.9</ele>
        <time>2018-11-26T03:19:19Z</time>
      </trkpt>
      <trkpt lat="42.38255" lon="2.62902">
        <ele>830</ele>
        <time>2018-11-26T03:19:20Z</time>
      </trkpt>
      <trkpt lat="42.38255" lon="2.62905">
        <ele>830.5</ele>
        <time>2018-11-26T03:19:21Z</time>
      </trkpt>
      <trkpt lat="42.38254" lon="2.62906">
        <ele>830.2</ele>
        <time>2018-11-26T03:19:21Z</time>
      </trkpt>
      <trkpt lat="42.38254" lon="2.62907">
        <ele>829.9</ele>
        <time>2018-11-26T03:19:22Z</time>
      </trkpt>
      <trkpt lat="42.38253" lon="2.62908">
        <ele>829.3</ele>
        <time>2018-11-26T03:19:22Z</time>
      </trkpt>
      <trkpt lat="42.38252" lon="2.62909">
        <ele>829.2</ele>
        <time>2018-11-26T03:19:22Z</time>
      </trkpt>
      <trkpt lat="42.38252" lon="2.62911">
        <ele>829.2</ele>
        <time>2018-11-26T03:19:23Z</time>
      </trkpt>
      <trkpt lat="42.38251" lon="2.62912">
        <ele>829.1</ele>
        <time>2018-11-26T03:19:23Z</time>
      </trkpt>
      <trkpt lat="42.38251" lon="2.62913">
        <ele>829</ele>
        <time>2018-11-26T03:19:24Z</time>
      </trkpt>
      <trkpt lat="42.3825" lon="2.62914">
        <ele>829.1</ele>
        <time>2018-11-26T03:19:24Z</time>
      </trkpt>
      <trkpt lat="42.3825" lon="2.62915">
        <ele>829.2</ele>
        <time>2018-11-26T03:19:24Z</time>
      </trkpt>
      <trkpt lat="42.3825" lon="2.62915">
        <ele>829.3</ele>
        <time>2018-11-26T03:19:24Z</time>
      </trkpt>
      <trkpt lat="42.38249" lon="2.62915">
        <ele>829.5</ele>
        <time>2018-11-26T03:19:25Z</time>
      </trkpt>
      <trkpt lat="42.38249" lon="2.62916">
        <ele>829.8</ele>
        <time>2018-11-26T03:19:25Z</time>
      </trkpt>
      <trkpt lat="42.38249" lon="2.62916">
        <ele>830</ele>
        <time>2018-11-26T03:19:25Z</time>
      </trkpt>
      <trkpt lat="42.38249" lon="2.62917">
        <ele>830.1</ele>
        <time>2018-11-26T03:19:25Z</time>
      </trkpt>
      <trkpt lat="42.38248" lon="2.62918">
        <ele>830.3</ele>
        <time>2018-11-26T03:19:25Z</time>
      </trkpt>
      <trkpt lat="42.38247" lon="2.62919">
        <ele>830.7</ele>
        <time>2018-11-26T03:19:26Z</time>
      </trkpt>
      <trkpt lat="42.38247" lon="2.6292">
        <ele>831</ele>
        <time>2018-11-26T03:19:26Z</time>
      </trkpt>
      <trkpt lat="42.38246" lon="2.62921">
        <ele>831.2</ele>
        <time>2018-11-26T03:19:27Z</time>
      </trkpt>
      <trkpt lat="42.38246" lon="2.62922">
        <ele>831.6</ele>
        <time>2018-11-26T03:19:27Z</time>
      </trkpt>
      <trkpt lat="42.38245" lon="2.62923">
        <ele>831.7</ele>
        <time>2018-11-26T03:19:27Z</time>
      </trkpt>
      <trkpt lat="42.38245" lon="2.62925">
        <ele>832</ele>
        <time>2018-11-26T03:19:28Z</time>
      </trkpt>
      <trkpt lat="42.38244" lon="2.62926">
        <ele>832.4</ele>
        <time>2018-11-26T03:19:28Z</time>
      </trkpt>
      <trkpt lat="42.38244" lon="2.62927">
        <ele>832.5</ele>
        <time>2018-11-26T03:19:29Z</time>
      </trkpt>
      <trkpt lat="42.38243" lon="2.62928">
        <ele>832.5</ele>
        <time>2018-11-26T03:19:29Z</time>
      </trkpt>
      <trkpt lat="42.38242" lon="2.6293">
        <ele>832.5</ele>
        <time>2018-11-26T03:19:30Z</time>
      </trkpt>
      <trkpt lat="42.38242" lon="2.62931">
        <ele>832.5</ele>
        <time>2018-11-26T03:19:30Z</time>
      </trkpt>
      <trkpt lat="42.38241" lon="2.62932">
        <ele>832.5</ele>
        <time>2018-11-26T03:19:31Z</time>
      </trkpt>
      <trkpt lat="42.38241" lon="2.62933">
        <ele>832.4</ele>
        <time>2018-11-26T03:19:31Z</time>
      </trkpt>
      <trkpt lat="42.3824" lon="2.62935">
        <ele>832.7</ele>
        <time>2018-11-26T03:19:31Z</time>
      </trkpt>
      <trkpt lat="42.3824" lon="2.62935">
        <ele>832.9</ele>
        <time>2018-11-26T03:19:32Z</time>
      </trkpt>
      <trkpt lat="42.38239" lon="2.62936">
        <ele>833.3</ele>
        <time>2018-11-26T03:19:32Z</time>
      </trkpt>
      <trkpt lat="42.38239" lon="2.62938">
        <ele>833.9</ele>
        <time>2018-11-26T03:19:33Z</time>
      </trkpt>
      <trkpt lat="42.38239" lon="2.62939">
        <ele>834.2</ele>
        <time>2018-11-26T03:19:33Z</time>
      </trkpt>
      <trkpt lat="42.38238" lon="2.6294">
        <ele>834.4</ele>
        <time>2018-11-26T03:19:33Z</time>
      </trkpt>
      <trkpt lat="42.38237" lon="2.62942">
        <ele>834.7</ele>
        <time>2018-11-26T03:19:34Z</time>
      </trkpt>
      <trkpt lat="42.38236" lon="2.62944">
        <ele>834.9</ele>
        <time>2018-11-26T03:19:35Z</time>
      </trkpt>
      <trkpt lat="42.38235" lon="2.62947">
        <ele>835</ele>
        <time>2018-11-26T03:19:36Z</time>
      </trkpt>
      <trkpt lat="42.38235" lon="2.62948">
        <ele>835.1</ele>
        <time>2018-11-26T03:19:36Z</time>
      </trkpt>
      <trkpt lat="42.38234" lon="2.62949">
        <ele>835.1</ele>
        <time>2018-11-26T03:19:36Z</time>
      </trkpt>
      <trkpt lat="42.38233" lon="2.6295">
        <ele>835.1</ele>
        <time>2018-11-26T03:19:37Z</time>
      </trkpt>
      <trkpt lat="42.38233" lon="2.62951">
        <ele>835.2</ele>
        <time>2018-11-26T03:19:37Z</time>
      </trkpt>
      <trkpt lat="42.38232" lon="2.62952">
        <ele>835.4</ele>
        <time>2018-11-26T03:19:38Z</time>
      </trkpt>
      <trkpt lat="42.38232" lon="2.62953">
        <ele>835.4</ele>
        <time>2018-11-26T03:19:38Z</time>
      </trkpt>
      <trkpt lat="42.38232" lon="2.62954">
        <ele>835.6</ele>
        <time>2018-11-26T03:19:38Z</time>
      </trkpt>
      <trkpt lat="42.38231" lon="2.62956">
        <ele>835.8</ele>
        <time>2018-11-26T03:19:39Z</time>
      </trkpt>
      <trkpt lat="42.38231" lon="2.62957">
        <ele>836.2</ele>
        <time>2018-11-26T03:19:39Z</time>
      </trkpt>
      <trkpt lat="42.3823" lon="2.62958">
        <ele>836.3</ele>
        <time>2018-11-26T03:19:39Z</time>
      </trkpt>
      <trkpt lat="42.3823" lon="2.62959">
        <ele>836.4</ele>
        <time>2018-11-26T03:19:40Z</time>
      </trkpt>
      <trkpt lat="42.38229" lon="2.6296">
        <ele>836.4</ele>
        <time>2018-11-26T03:19:40Z</time>
      </trkpt>
      <trkpt lat="42.38229" lon="2.6296">
        <ele>836.6</ele>
        <time>2018-11-26T03:19:40Z</time>
      </trkpt>
      <trkpt lat="42.38229" lon="2.62961">
        <ele>836.9</ele>
        <time>2018-11-26T03:19:41Z</time>
      </trkpt>
      <trkpt lat="42.38228" lon="2.62963">
        <ele>837.3</ele>
        <time>2018-11-26T03:19:41Z</time>
      </trkpt>
      <trkpt lat="42.38228" lon="2.62964">
        <ele>837.7</ele>
        <time>2018-11-26T03:19:42Z</time>
      </trkpt>
      <trkpt lat="42.38227" lon="2.62965">
        <ele>838.1</ele>
        <time>2018-11-26T03:19:42Z</time>
      </trkpt>
      <trkpt lat="42.38226" lon="2.62965">
        <ele>838.5</ele>
        <time>2018-11-26T03:19:42Z</time>
      </trkpt>
      <trkpt lat="42.38225" lon="2.62967">
        <ele>838.7</ele>
        <time>2018-11-26T03:19:43Z</time>
      </trkpt>
      <trkpt lat="42.38225" lon="2.62968">
        <ele>838.9</ele>
        <time>2018-11-26T03:19:43Z</time>
      </trkpt>
      <trkpt lat="42.38225" lon="2.62969">
        <ele>839.2</ele>
        <time>2018-11-26T03:19:44Z</time>
      </trkpt>
      <trkpt lat="42.38225" lon="2.6297">
        <ele>839.2</ele>
        <time>2018-11-26T03:19:44Z</time>
      </trkpt>
      <trkpt lat="42.38224" lon="2.6297">
        <ele>839.1</ele>
        <time>2018-11-26T03:19:44Z</time>
      </trkpt>
      <trkpt lat="42.38224" lon="2.62971">
        <ele>839</ele>
        <time>2018-11-26T03:19:44Z</time>
      </trkpt>
      <trkpt lat="42.38224" lon="2.62973">
        <ele>838.9</ele>
        <time>2018-11-26T03:19:45Z</time>
      </trkpt>
      <trkpt lat="42.38223" lon="2.62974">
        <ele>838.8</ele>
        <time>2018-11-26T03:19:45Z</time>
      </trkpt>
      <trkpt lat="42.38223" lon="2.62975">
        <ele>838.6</ele>
        <time>2018-11-26T03:19:46Z</time>
      </trkpt>
      <trkpt lat="42.38222" lon="2.62975">
        <ele>838.2</ele>
        <time>2018-11-26T03:19:46Z</time>
      </trkpt>
      <trkpt lat="42.38221" lon="2.62976">
        <ele>838.1</ele>
        <time>2018-11-26T03:19:46Z</time>
      </trkpt>
      <trkpt lat="42.38221" lon="2.62977">
        <ele>838.2</ele>
        <time>2018-11-26T03:19:47Z</time>
      </trkpt>
      <trkpt lat="42.3822" lon="2.62977">
        <ele>838.1</ele>
        <time>2018-11-26T03:19:47Z</time>
      </trkpt>
      <trkpt lat="42.38219" lon="2.62978">
        <ele>837.8</ele>
        <time>2018-11-26T03:19:47Z</time>
      </trkpt>
      <trkpt lat="42.38218" lon="2.62979">
        <ele>837.2</ele>
        <time>2018-11-26T03:19:48Z</time>
      </trkpt>
      <trkpt lat="42.38218" lon="2.6298">
        <ele>836.7</ele>
        <time>2018-11-26T03:19:48Z</time>
      </trkpt>
      <trkpt lat="42.38217" lon="2.62981">
        <ele>836.3</ele>
        <time>2018-11-26T03:19:49Z</time>
      </trkpt>
      <trkpt lat="42.38215" lon="2.62983">
        <ele>834.9</ele>
        <time>2018-11-26T03:19:50Z</time>
      </trkpt>
      <trkpt lat="42.38214" lon="2.62984">
        <ele>833.3</ele>
        <time>2018-11-26T03:19:50Z</time>
      </trkpt>
      <trkpt lat="42.38214" lon="2.62985">
        <ele>831.2</ele>
        <time>2018-11-26T03:19:50Z</time>
      </trkpt>
      <trkpt lat="42.38212" lon="2.62987">
        <ele>824.6</ele>
        <time>2018-11-26T03:19:51Z</time>
      </trkpt>
      <trkpt lat="42.38211" lon="2.62989">
        <ele>820</ele>
        <time>2018-11-26T03:19:52Z</time>
      </trkpt>
      <trkpt lat="42.3821" lon="2.6299">
        <ele>820.3</ele>
        <time>2018-11-26T03:19:53Z</time>
      </trkpt>
      <trkpt lat="42.38206" lon="2.62994">
        <ele>820.3</ele>
        <time>2018-11-26T03:19:54Z</time>
      </trkpt>
      <trkpt lat="42.38205" lon="2.62995">
        <ele>820.4</ele>
        <time>2018-11-26T03:19:55Z</time>
      </trkpt>
      <trkpt lat="42.38204" lon="2.62995">
        <ele>820.8</ele>
        <time>2018-11-26T03:19:55Z</time>
      </trkpt>
      <trkpt lat="42.38203" lon="2.62996">
        <ele>820.8</ele>
        <time>2018-11-26T03:19:56Z</time>
      </trkpt>
      <trkpt lat="42.38203" lon="2.62997">
        <ele>820.8</ele>
        <time>2018-11-26T03:19:56Z</time>
      </trkpt>
      <trkpt lat="42.38202" lon="2.62998">
        <ele>820.9</ele>
        <time>2018-11-26T03:19:56Z</time>
      </trkpt>
      <trkpt lat="42.38201" lon="2.62999">
        <ele>821.1</ele>
        <time>2018-11-26T03:19:57Z</time>
      </trkpt>
      <trkpt lat="42.382" lon="2.63">
        <ele>821.5</ele>
        <time>2018-11-26T03:19:57Z</time>
      </trkpt>
      <trkpt lat="42.38199" lon="2.63001">
        <ele>822</ele>
        <time>2018-11-26T03:19:58Z</time>
      </trkpt>
      <trkpt lat="42.38198" lon="2.63002">
        <ele>821.9</ele>
        <time>2018-11-26T03:19:58Z</time>
      </trkpt>
      <trkpt lat="42.38197" lon="2.63003">
        <ele>821.9</ele>
        <time>2018-11-26T03:19:59Z</time>
      </trkpt>
      <trkpt lat="42.38196" lon="2.63006">
        <ele>821.7</ele>
        <time>2018-11-26T03:20:00Z</time>
      </trkpt>
      <trkpt lat="42.38195" lon="2.63007">
        <ele>821.8</ele>
        <time>2018-11-26T03:20:00Z</time>
      </trkpt>
      <trkpt lat="42.38194" lon="2.63007">
        <ele>822</ele>
        <time>2018-11-26T03:20:01Z</time>
      </trkpt>
      <trkpt lat="42.38194" lon="2.63008">
        <ele>822.2</ele>
        <time>2018-11-26T03:20:01Z</time>
      </trkpt>
      <trkpt lat="42.38193" lon="2.63008">
        <ele>822.1</ele>
        <time>2018-11-26T03:20:01Z</time>
      </trkpt>
      <trkpt lat="42.38193" lon="2.63009">
        <ele>822</ele>
        <time>2018-11-26T03:20:01Z</time>
      </trkpt>
      <trkpt lat="42.38193" lon="2.63009">
        <ele>821.9</ele>
        <time>2018-11-26T03:20:01Z</time>
      </trkpt>
      <trkpt lat="42.38192" lon="2.63009">
        <ele>822.1</ele>
        <time>2018-11-26T03:20:02Z</time>
      </trkpt>
      <trkpt lat="42.38191" lon="2.63009">
        <ele>822.3</ele>
        <time>2018-11-26T03:20:02Z</time>
      </trkpt>
      <trkpt lat="42.38191" lon="2.6301">
        <ele>822.5</ele>
        <time>2018-11-26T03:20:02Z</time>
      </trkpt>
      <trkpt lat="42.3819" lon="2.6301">
        <ele>822.6</ele>
        <time>2018-11-26T03:20:03Z</time>
      </trkpt>
      <trkpt lat="42.38189" lon="2.63011">
        <ele>823</ele>
        <time>2018-11-26T03:20:03Z</time>
      </trkpt>
      <trkpt lat="42.38188" lon="2.63012">
        <ele>823.5</ele>
        <time>2018-11-26T03:20:03Z</time>
      </trkpt>
      <trkpt lat="42.38188" lon="2.63013">
        <ele>823.3</ele>
        <time>2018-11-26T03:20:04Z</time>
      </trkpt>
      <trkpt lat="42.38186" lon="2.63016">
        <ele>822.9</ele>
        <time>2018-11-26T03:20:05Z</time>
      </trkpt>
      <trkpt lat="42.38186" lon="2.63017">
        <ele>822.7</ele>
        <time>2018-11-26T03:20:05Z</time>
      </trkpt>
      <trkpt lat="42.38185" lon="2.63018">
        <ele>822.8</ele>
        <time>2018-11-26T03:20:06Z</time>
      </trkpt>
      <trkpt lat="42.38184" lon="2.63019">
        <ele>823</ele>
        <time>2018-11-26T03:20:06Z</time>
      </trkpt>
      <trkpt lat="42.38183" lon="2.6302">
        <ele>823.1</ele>
        <time>2018-11-26T03:20:06Z</time>
      </trkpt>
      <trkpt lat="42.38183" lon="2.6302">
        <ele>823.3</ele>
        <time>2018-11-26T03:20:07Z</time>
      </trkpt>
      <trkpt lat="42.38182" lon="2.63022">
        <ele>823.4</ele>
        <time>2018-11-26T03:20:07Z</time>
      </trkpt>
      <trkpt lat="42.3818" lon="2.63025">
        <ele>824</ele>
        <time>2018-11-26T03:20:09Z</time>
      </trkpt>
      <trkpt lat="42.3818" lon="2.63026">
        <ele>824.3</ele>
        <time>2018-11-26T03:20:09Z</time>
      </trkpt>
      <trkpt lat="42.38179" lon="2.63027">
        <ele>824.3</ele>
        <time>2018-11-26T03:20:09Z</time>
      </trkpt>
      <trkpt lat="42.38179" lon="2.63028">
        <ele>824.3</ele>
        <time>2018-11-26T03:20:09Z</time>
      </trkpt>
      <trkpt lat="42.38178" lon="2.63028">
        <ele>824.2</ele>
        <time>2018-11-26T03:20:10Z</time>
      </trkpt>
      <trkpt lat="42.38177" lon="2.63029">
        <ele>824.2</ele>
        <time>2018-11-26T03:20:10Z</time>
      </trkpt>
      <trkpt lat="42.38176" lon="2.6303">
        <ele>824.3</ele>
        <time>2018-11-26T03:20:11Z</time>
      </trkpt>
      <trkpt lat="42.38176" lon="2.6303">
        <ele>824.3</ele>
        <time>2018-11-26T03:20:11Z</time>
      </trkpt>
      <trkpt lat="42.38175" lon="2.63031">
        <ele>824.4</ele>
        <time>2018-11-26T03:20:11Z</time>
      </trkpt>
      <trkpt lat="42.38175" lon="2.63033">
        <ele>824.4</ele>
        <time>2018-11-26T03:20:12Z</time>
      </trkpt>
      <trkpt lat="42.38174" lon="2.63034">
        <ele>824.5</ele>
        <time>2018-11-26T03:20:12Z</time>
      </trkpt>
      <trkpt lat="42.38174" lon="2.63035">
        <ele>824.6</ele>
        <time>2018-11-26T03:20:13Z</time>
      </trkpt>
      <trkpt lat="42.38174" lon="2.63036">
        <ele>824.7</ele>
        <time>2018-11-26T03:20:13Z</time>
      </trkpt>
      <trkpt lat="42.38173" lon="2.63037">
        <ele>825</ele>
        <time>2018-11-26T03:20:13Z</time>
      </trkpt>
      <trkpt lat="42.38173" lon="2.63038">
        <ele>825.3</ele>
        <time>2018-11-26T03:20:13Z</time>
      </trkpt>
      <trkpt lat="42.38172" lon="2.6304">
        <ele>825.6</ele>
        <time>2018-11-26T03:20:14Z</time>
      </trkpt>
      <trkpt lat="42.38171" lon="2.63041">
        <ele>825.9</ele>
        <time>2018-11-26T03:20:15Z</time>
      </trkpt>
      <trkpt lat="42.3817" lon="2.63043">
        <ele>825.9</ele>
        <time>2018-11-26T03:20:15Z</time>
      </trkpt>
      <trkpt lat="42.3817" lon="2.63044">
        <ele>825.8</ele>
        <time>2018-11-26T03:20:16Z</time>
      </trkpt>
      <trkpt lat="42.3817" lon="2.63045">
        <ele>825.7</ele>
        <time>2018-11-26T03:20:16Z</time>
      </trkpt>
      <trkpt lat="42.38169" lon="2.63046">
        <ele>825.9</ele>
        <time>2018-11-26T03:20:16Z</time>
      </trkpt>
      <trkpt lat="42.38168" lon="2.63047">
        <ele>826.2</ele>
        <time>2018-11-26T03:20:17Z</time>
      </trkpt>
      <trkpt lat="42.38168" lon="2.63049">
        <ele>826.6</ele>
        <time>2018-11-26T03:20:17Z</time>
      </trkpt>
      <trkpt lat="42.38166" lon="2.63051">
        <ele>827</ele>
        <time>2018-11-26T03:20:18Z</time>
      </trkpt>
      <trkpt lat="42.38165" lon="2.63052">
        <ele>827.1</ele>
        <time>2018-11-26T03:20:19Z</time>
      </trkpt>
      <trkpt lat="42.38165" lon="2.63054">
        <ele>827.4</ele>
        <time>2018-11-26T03:20:19Z</time>
      </trkpt>
      <trkpt lat="42.38164" lon="2.63054">
        <ele>827.6</ele>
        <time>2018-11-26T03:20:20Z</time>
      </trkpt>
      <trkpt lat="42.38159" lon="2.63058">
        <ele>827</ele>
        <time>2018-11-26T03:20:22Z</time>
      </trkpt>
      <trkpt lat="42.38158" lon="2.63058">
        <ele>827</ele>
        <time>2018-11-26T03:20:22Z</time>
      </trkpt>
      <trkpt lat="42.38157" lon="2.63059">
        <ele>827.1</ele>
        <time>2018-11-26T03:20:23Z</time>
      </trkpt>
      <trkpt lat="42.38155" lon="2.63061">
        <ele>827.4</ele>
        <time>2018-11-26T03:20:24Z</time>
      </trkpt>
      <trkpt lat="42.38154" lon="2.63062">
        <ele>827.5</ele>
        <time>2018-11-26T03:20:24Z</time>
      </trkpt>
      <trkpt lat="42.38154" lon="2.63064">
        <ele>827.7</ele>
        <time>2018-11-26T03:20:25Z</time>
      </trkpt>
      <trkpt lat="42.38153" lon="2.63065">
        <ele>827.8</ele>
        <time>2018-11-26T03:20:25Z</time>
      </trkpt>
      <trkpt lat="42.38153" lon="2.63066">
        <ele>827.9</ele>
        <time>2018-11-26T03:20:25Z</time>
      </trkpt>
      <trkpt lat="42.38152" lon="2.63067">
        <ele>828</ele>
        <time>2018-11-26T03:20:26Z</time>
      </trkpt>
      <trkpt lat="42.38152" lon="2.63068">
        <ele>828</ele>
        <time>2018-11-26T03:20:26Z</time>
      </trkpt>
      <trkpt lat="42.3815" lon="2.63072">
        <ele>829.9</ele>
        <time>2018-11-26T03:20:28Z</time>
      </trkpt>
      <trkpt lat="42.38149" lon="2.63073">
        <ele>830.3</ele>
        <time>2018-11-26T03:20:28Z</time>
      </trkpt>
      <trkpt lat="42.38148" lon="2.63074">
        <ele>830.5</ele>
        <time>2018-11-26T03:20:28Z</time>
      </trkpt>
      <trkpt lat="42.38147" lon="2.63074">
        <ele>830.9</ele>
        <time>2018-11-26T03:20:29Z</time>
      </trkpt>
      <trkpt lat="42.38147" lon="2.63075">
        <ele>831</ele>
        <time>2018-11-26T03:20:29Z</time>
      </trkpt>
      <trkpt lat="42.38146" lon="2.63076">
        <ele>830.9</ele>
        <time>2018-11-26T03:20:29Z</time>
      </trkpt>
      <trkpt lat="42.38146" lon="2.63077">
        <ele>830.9</ele>
        <time>2018-11-26T03:20:30Z</time>
      </trkpt>
      <trkpt lat="42.38145" lon="2.63079">
        <ele>831</ele>
        <time>2018-11-26T03:20:30Z</time>
      </trkpt>
      <trkpt lat="42.38144" lon="2.6308">
        <ele>831.3</ele>
        <time>2018-11-26T03:20:31Z</time>
      </trkpt>
      <trkpt lat="42.38142" lon="2.63082">
        <ele>831.3</ele>
        <time>2018-11-26T03:20:32Z</time>
      </trkpt>
      <trkpt lat="42.38142" lon="2.63083">
        <ele>831.3</ele>
        <time>2018-11-26T03:20:32Z</time>
      </trkpt>
      <trkpt lat="42.3814" lon="2.63085">
        <ele>831.5</ele>
        <time>2018-11-26T03:20:33Z</time>
      </trkpt>
      <trkpt lat="42.38139" lon="2.63086">
        <ele>831.6</ele>
        <time>2018-11-26T03:20:34Z</time>
      </trkpt>
      <trkpt lat="42.38138" lon="2.63087">
        <ele>831.7</ele>
        <time>2018-11-26T03:20:34Z</time>
      </trkpt>
      <trkpt lat="42.38137" lon="2.63088">
        <ele>831.9</ele>
        <time>2018-11-26T03:20:34Z</time>
      </trkpt>
      <trkpt lat="42.38136" lon="2.63091">
        <ele>832.4</ele>
        <time>2018-11-26T03:20:35Z</time>
      </trkpt>
      <trkpt lat="42.38135" lon="2.63092">
        <ele>832.6</ele>
        <time>2018-11-26T03:20:36Z</time>
      </trkpt>
      <trkpt lat="42.38134" lon="2.63094">
        <ele>833.2</ele>
        <time>2018-11-26T03:20:37Z</time>
      </trkpt>
      <trkpt lat="42.38133" lon="2.63095">
        <ele>833.4</ele>
        <time>2018-11-26T03:20:37Z</time>
      </trkpt>
      <trkpt lat="42.38132" lon="2.63096">
        <ele>833.7</ele>
        <time>2018-11-26T03:20:38Z</time>
      </trkpt>
      <trkpt lat="42.3813" lon="2.63098">
        <ele>834.4</ele>
        <time>2018-11-26T03:20:39Z</time>
      </trkpt>
      <trkpt lat="42.38129" lon="2.63099">
        <ele>834.5</ele>
        <time>2018-11-26T03:20:39Z</time>
      </trkpt>
      <trkpt lat="42.38128" lon="2.63099">
        <ele>834.5</ele>
        <time>2018-11-26T03:20:40Z</time>
      </trkpt>
      <trkpt lat="42.38127" lon="2.631">
        <ele>834.7</ele>
        <time>2018-11-26T03:20:40Z</time>
      </trkpt>
      <trkpt lat="42.38126" lon="2.63101">
        <ele>834.7</ele>
        <time>2018-11-26T03:20:40Z</time>
      </trkpt>
      <trkpt lat="42.38126" lon="2.63101">
        <ele>834.8</ele>
        <time>2018-11-26T03:20:41Z</time>
      </trkpt>
      <trkpt lat="42.38125" lon="2.63102">
        <ele>834.8</ele>
        <time>2018-11-26T03:20:41Z</time>
      </trkpt>
      <trkpt lat="42.38123" lon="2.63103">
        <ele>835</ele>
        <time>2018-11-26T03:20:42Z</time>
      </trkpt>
      <trkpt lat="42.38122" lon="2.63103">
        <ele>835.5</ele>
        <time>2018-11-26T03:20:42Z</time>
      </trkpt>
      <trkpt lat="42.38121" lon="2.63103">
        <ele>836.1</ele>
        <time>2018-11-26T03:20:43Z</time>
      </trkpt>
      <trkpt lat="42.3812" lon="2.63104">
        <ele>836</ele>
        <time>2018-11-26T03:20:43Z</time>
      </trkpt>
      <trkpt lat="42.3812" lon="2.63105">
        <ele>835.8</ele>
        <time>2018-11-26T03:20:43Z</time>
      </trkpt>
      <trkpt lat="42.38119" lon="2.63105">
        <ele>835.7</ele>
        <time>2018-11-26T03:20:44Z</time>
      </trkpt>
      <trkpt lat="42.38119" lon="2.63106">
        <ele>835.7</ele>
        <time>2018-11-26T03:20:44Z</time>
      </trkpt>
      <trkpt lat="42.38118" lon="2.63106">
        <ele>835.9</ele>
        <time>2018-11-26T03:20:44Z</time>
      </trkpt>
      <trkpt lat="42.38117" lon="2.63107">
        <ele>835.9</ele>
        <time>2018-11-26T03:20:45Z</time>
      </trkpt>
      <trkpt lat="42.38113" lon="2.63109">
        <ele>836.1</ele>
        <time>2018-11-26T03:20:46Z</time>
      </trkpt>
      <trkpt lat="42.38112" lon="2.6311">
        <ele>836.2</ele>
        <time>2018-11-26T03:20:47Z</time>
      </trkpt>
      <trkpt lat="42.38112" lon="2.63111">
        <ele>836.4</ele>
        <time>2018-11-26T03:20:47Z</time>
      </trkpt>
      <trkpt lat="42.38111" lon="2.63112">
        <ele>836.8</ele>
        <time>2018-11-26T03:20:47Z</time>
      </trkpt>
      <trkpt lat="42.38109" lon="2.63114">
        <ele>837.2</ele>
        <time>2018-11-26T03:20:48Z</time>
      </trkpt>
      <trkpt lat="42.38108" lon="2.63115">
        <ele>837.1</ele>
        <time>2018-11-26T03:20:49Z</time>
      </trkpt>
      <trkpt lat="42.38107" lon="2.63116">
        <ele>837.1</ele>
        <time>2018-11-26T03:20:49Z</time>
      </trkpt>
      <trkpt lat="42.38106" lon="2.63117">
        <ele>837.1</ele>
        <time>2018-11-26T03:20:50Z</time>
      </trkpt>
      <trkpt lat="42.38105" lon="2.63118">
        <ele>837.1</ele>
        <time>2018-11-26T03:20:50Z</time>
      </trkpt>
      <trkpt lat="42.38104" lon="2.63119">
        <ele>837</ele>
        <time>2018-11-26T03:20:51Z</time>
      </trkpt>
      <trkpt lat="42.38103" lon="2.63119">
        <ele>837</ele>
        <time>2018-11-26T03:20:51Z</time>
      </trkpt>
      <trkpt lat="42.38102" lon="2.6312">
        <ele>837.1</ele>
        <time>2018-11-26T03:20:52Z</time>
      </trkpt>
      <trkpt lat="42.38101" lon="2.63121">
        <ele>837.1</ele>
        <time>2018-11-26T03:20:52Z</time>
      </trkpt>
      <trkpt lat="42.381" lon="2.63122">
        <ele>837.2</ele>
        <time>2018-11-26T03:20:53Z</time>
      </trkpt>
      <trkpt lat="42.38099" lon="2.63122">
        <ele>837.4</ele>
        <time>2018-11-26T03:20:53Z</time>
      </trkpt>
      <trkpt lat="42.38098" lon="2.63123">
        <ele>837.5</ele>
        <time>2018-11-26T03:20:54Z</time>
      </trkpt>
      <trkpt lat="42.38097" lon="2.63123">
        <ele>837.5</ele>
        <time>2018-11-26T03:20:54Z</time>
      </trkpt>
      <trkpt lat="42.38092" lon="2.63125">
        <ele>838</ele>
        <time>2018-11-26T03:20:56Z</time>
      </trkpt>
      <trkpt lat="42.38091" lon="2.63126">
        <ele>838</ele>
        <time>2018-11-26T03:20:57Z</time>
      </trkpt>
      <trkpt lat="42.38087" lon="2.63127">
        <ele>838</ele>
        <time>2018-11-26T03:20:58Z</time>
      </trkpt>
      <trkpt lat="42.38086" lon="2.63127">
        <ele>838.1</ele>
        <time>2018-11-26T03:20:59Z</time>
      </trkpt>
      <trkpt lat="42.38085" lon="2.63128">
        <ele>838.3</ele>
        <time>2018-11-26T03:20:59Z</time>
      </trkpt>
      <trkpt lat="42.38084" lon="2.63128">
        <ele>838.5</ele>
        <time>2018-11-26T03:20:59Z</time>
      </trkpt>
      <trkpt lat="42.38083" lon="2.63128">
        <ele>838.9</ele>
        <time>2018-11-26T03:21:00Z</time>
      </trkpt>
      <trkpt lat="42.38079" lon="2.6313">
        <ele>839.4</ele>
        <time>2018-11-26T03:21:01Z</time>
      </trkpt>
      <trkpt lat="42.38078" lon="2.6313">
        <ele>839.7</ele>
        <time>2018-11-26T03:21:02Z</time>
      </trkpt>
      <trkpt lat="42.38077" lon="2.63131">
        <ele>839.6</ele>
        <time>2018-11-26T03:21:02Z</time>
      </trkpt>
      <trkpt lat="42.38076" lon="2.63131">
        <ele>839.6</ele>
        <time>2018-11-26T03:21:03Z</time>
      </trkpt>
      <trkpt lat="42.38075" lon="2.63132">
        <ele>839.6</ele>
        <time>2018-11-26T03:21:03Z</time>
      </trkpt>
      <trkpt lat="42.38075" lon="2.63133">
        <ele>839.5</ele>
        <time>2018-11-26T03:21:04Z</time>
      </trkpt>
      <trkpt lat="42.38074" lon="2.63133">
        <ele>839.5</ele>
        <time>2018-11-26T03:21:04Z</time>
      </trkpt>
      <trkpt lat="42.38072" lon="2.63134">
        <ele>839.4</ele>
        <time>2018-11-26T03:21:04Z</time>
      </trkpt>
      <trkpt lat="42.38066" lon="2.6314">
        <ele>840.4</ele>
        <time>2018-11-26T03:21:08Z</time>
      </trkpt>
      <trkpt lat="42.38064" lon="2.63142">
        <ele>840.2</ele>
        <time>2018-11-26T03:21:09Z</time>
      </trkpt>
      <trkpt lat="42.38063" lon="2.63143">
        <ele>839.9</ele>
        <time>2018-11-26T03:21:09Z</time>
      </trkpt>
      <trkpt lat="42.38062" lon="2.63143">
        <ele>840</ele>
        <time>2018-11-26T03:21:10Z</time>
      </trkpt>
      <trkpt lat="42.38061" lon="2.63144">
        <ele>840.2</ele>
        <time>2018-11-26T03:21:10Z</time>
      </trkpt>
      <trkpt lat="42.3806" lon="2.63144">
        <ele>840.4</ele>
        <time>2018-11-26T03:21:10Z</time>
      </trkpt>
      <trkpt lat="42.38059" lon="2.63145">
        <ele>840.8</ele>
        <time>2018-11-26T03:21:11Z</time>
      </trkpt>
      <trkpt lat="42.38058" lon="2.63145">
        <ele>840.8</ele>
        <time>2018-11-26T03:21:11Z</time>
      </trkpt>
      <trkpt lat="42.38057" lon="2.63146">
        <ele>841.1</ele>
        <time>2018-11-26T03:21:12Z</time>
      </trkpt>
      <trkpt lat="42.38056" lon="2.63147">
        <ele>841.3</ele>
        <time>2018-11-26T03:21:12Z</time>
      </trkpt>
      <trkpt lat="42.38055" lon="2.63148">
        <ele>841.6</ele>
        <time>2018-11-26T03:21:13Z</time>
      </trkpt>
      <trkpt lat="42.38054" lon="2.63148">
        <ele>842.1</ele>
        <time>2018-11-26T03:21:13Z</time>
      </trkpt>
      <trkpt lat="42.38053" lon="2.63148">
        <ele>842.6</ele>
        <time>2018-11-26T03:21:14Z</time>
      </trkpt>
      <trkpt lat="42.38052" lon="2.63149">
        <ele>842.5</ele>
        <time>2018-11-26T03:21:14Z</time>
      </trkpt>
      <trkpt lat="42.38051" lon="2.63149">
        <ele>842.6</ele>
        <time>2018-11-26T03:21:14Z</time>
      </trkpt>
      <trkpt lat="42.3805" lon="2.6315">
        <ele>842.6</ele>
        <time>2018-11-26T03:21:15Z</time>
      </trkpt>
      <trkpt lat="42.38049" lon="2.6315">
        <ele>842.7</ele>
        <time>2018-11-26T03:21:15Z</time>
      </trkpt>
      <trkpt lat="42.38048" lon="2.6315">
        <ele>843</ele>
        <time>2018-11-26T03:21:15Z</time>
      </trkpt>
      <trkpt lat="42.38047" lon="2.6315">
        <ele>843.3</ele>
        <time>2018-11-26T03:21:16Z</time>
      </trkpt>
      <trkpt lat="42.38047" lon="2.63151">
        <ele>843.3</ele>
        <time>2018-11-26T03:21:16Z</time>
      </trkpt>
      <trkpt lat="42.38046" lon="2.63151">
        <ele>843.4</ele>
        <time>2018-11-26T03:21:16Z</time>
      </trkpt>
      <trkpt lat="42.38045" lon="2.63151">
        <ele>843.7</ele>
        <time>2018-11-26T03:21:17Z</time>
      </trkpt>
      <trkpt lat="42.38044" lon="2.63151">
        <ele>843.7</ele>
        <time>2018-11-26T03:21:17Z</time>
      </trkpt>
      <trkpt lat="42.38043" lon="2.63152">
        <ele>843.7</ele>
        <time>2018-11-26T03:21:18Z</time>
      </trkpt>
      <trkpt lat="42.38042" lon="2.63152">
        <ele>843.7</ele>
        <time>2018-11-26T03:21:18Z</time>
      </trkpt>
      <trkpt lat="42.38041" lon="2.63152">
        <ele>843.6</ele>
        <time>2018-11-26T03:21:19Z</time>
      </trkpt>
      <trkpt lat="42.3804" lon="2.63153">
        <ele>843.9</ele>
        <time>2018-11-26T03:21:19Z</time>
      </trkpt>
      <trkpt lat="42.38039" lon="2.63153">
        <ele>844.1</ele>
        <time>2018-11-26T03:21:19Z</time>
      </trkpt>
      <trkpt lat="42.38038" lon="2.63154">
        <ele>844.3</ele>
        <time>2018-11-26T03:21:20Z</time>
      </trkpt>
      <trkpt lat="42.38035" lon="2.63156">
        <ele>844.7</ele>
        <time>2018-11-26T03:21:21Z</time>
      </trkpt>
      <trkpt lat="42.38034" lon="2.63156">
        <ele>844.5</ele>
        <time>2018-11-26T03:21:21Z</time>
      </trkpt>
      <trkpt lat="42.38033" lon="2.63157">
        <ele>844.5</ele>
        <time>2018-11-26T03:21:22Z</time>
      </trkpt>
      <trkpt lat="42.38032" lon="2.63157">
        <ele>844.3</ele>
        <time>2018-11-26T03:21:22Z</time>
      </trkpt>
      <trkpt lat="42.38032" lon="2.63157">
        <ele>844.4</ele>
        <time>2018-11-26T03:21:22Z</time>
      </trkpt>
      <trkpt lat="42.38031" lon="2.63158">
        <ele>844.6</ele>
        <time>2018-11-26T03:21:23Z</time>
      </trkpt>
      <trkpt lat="42.3803" lon="2.63158">
        <ele>844.9</ele>
        <time>2018-11-26T03:21:23Z</time>
      </trkpt>
      <trkpt lat="42.38029" lon="2.63158">
        <ele>845.2</ele>
        <time>2018-11-26T03:21:23Z</time>
      </trkpt>
      <trkpt lat="42.38029" lon="2.63159">
        <ele>845.2</ele>
        <time>2018-11-26T03:21:24Z</time>
      </trkpt>
      <trkpt lat="42.38028" lon="2.63159">
        <ele>845.2</ele>
        <time>2018-11-26T03:21:24Z</time>
      </trkpt>
      <trkpt lat="42.38027" lon="2.6316">
        <ele>845.4</ele>
        <time>2018-11-26T03:21:24Z</time>
      </trkpt>
      <trkpt lat="42.38027" lon="2.6316">
        <ele>845.2</ele>
        <time>2018-11-26T03:21:25Z</time>
      </trkpt>
      <trkpt lat="42.38026" lon="2.6316">
        <ele>845</ele>
        <time>2018-11-26T03:21:25Z</time>
      </trkpt>
      <trkpt lat="42.38025" lon="2.63161">
        <ele>844.9</ele>
        <time>2018-11-26T03:21:25Z</time>
      </trkpt>
      <trkpt lat="42.38025" lon="2.63161">
        <ele>844.8</ele>
        <time>2018-11-26T03:21:26Z</time>
      </trkpt>
      <trkpt lat="42.38024" lon="2.63161">
        <ele>844.8</ele>
        <time>2018-11-26T03:21:26Z</time>
      </trkpt>
      <trkpt lat="42.38024" lon="2.63162">
        <ele>844.8</ele>
        <time>2018-11-26T03:21:26Z</time>
      </trkpt>
      <trkpt lat="42.38023" lon="2.63163">
        <ele>844.8</ele>
        <time>2018-11-26T03:21:26Z</time>
      </trkpt>
      <trkpt lat="42.38022" lon="2.63163">
        <ele>844.7</ele>
        <time>2018-11-26T03:21:27Z</time>
      </trkpt>
      <trkpt lat="42.38022" lon="2.63163">
        <ele>844.6</ele>
        <time>2018-11-26T03:21:27Z</time>
      </trkpt>
      <trkpt lat="42.38022" lon="2.63163">
        <ele>844.7</ele>
        <time>2018-11-26T03:21:27Z</time>
      </trkpt>
      <trkpt lat="42.38021" lon="2.63163">
        <ele>844.6</ele>
        <time>2018-11-26T03:21:27Z</time>
      </trkpt>
      <trkpt lat="42.3802" lon="2.63164">
        <ele>844.7</ele>
        <time>2018-11-26T03:21:27Z</time>
      </trkpt>
      <trkpt lat="42.3802" lon="2.63164">
        <ele>844.6</ele>
        <time>2018-11-26T03:21:28Z</time>
      </trkpt>
      <trkpt lat="42.3802" lon="2.63164">
        <ele>844.9</ele>
        <time>2018-11-26T03:21:28Z</time>
      </trkpt>
      <trkpt lat="42.38019" lon="2.63165">
        <ele>845.2</ele>
        <time>2018-11-26T03:21:28Z</time>
      </trkpt>
      <trkpt lat="42.38019" lon="2.63165">
        <ele>845.7</ele>
        <time>2018-11-26T03:21:28Z</time>
      </trkpt>
      <trkpt lat="42.38018" lon="2.63166">
        <ele>845.6</ele>
        <time>2018-11-26T03:21:29Z</time>
      </trkpt>
      <trkpt lat="42.38018" lon="2.63167">
        <ele>845.6</ele>
        <time>2018-11-26T03:21:29Z</time>
      </trkpt>
      <trkpt lat="42.38017" lon="2.63167">
        <ele>845.5</ele>
        <time>2018-11-26T03:21:29Z</time>
      </trkpt>
      <trkpt lat="42.38017" lon="2.63168">
        <ele>845.7</ele>
        <time>2018-11-26T03:21:29Z</time>
      </trkpt>
      <trkpt lat="42.38016" lon="2.63168">
        <ele>845.8</ele>
        <time>2018-11-26T03:21:30Z</time>
      </trkpt>
      <trkpt lat="42.38016" lon="2.63169">
        <ele>846.2</ele>
        <time>2018-11-26T03:21:30Z</time>
      </trkpt>
      <trkpt lat="42.38016" lon="2.6317">
        <ele>845.9</ele>
        <time>2018-11-26T03:21:30Z</time>
      </trkpt>
      <trkpt lat="42.38015" lon="2.6317">
        <ele>845.6</ele>
        <time>2018-11-26T03:21:30Z</time>
      </trkpt>
      <trkpt lat="42.38015" lon="2.6317">
        <ele>845.1</ele>
        <time>2018-11-26T03:21:31Z</time>
      </trkpt>
      <trkpt lat="42.38014" lon="2.6317">
        <ele>845.2</ele>
        <time>2018-11-26T03:21:31Z</time>
      </trkpt>
      <trkpt lat="42.38014" lon="2.6317">
        <ele>845.5</ele>
        <time>2018-11-26T03:21:31Z</time>
      </trkpt>
      <trkpt lat="42.38014" lon="2.63171">
        <ele>845.8</ele>
        <time>2018-11-26T03:21:31Z</time>
      </trkpt>
      <trkpt lat="42.38014" lon="2.63171">
        <ele>846.1</ele>
        <time>2018-11-26T03:21:31Z</time>
      </trkpt>
      <trkpt lat="42.38014" lon="2.63171">
        <ele>846</ele>
        <time>2018-11-26T03:21:31Z</time>
      </trkpt>
      <trkpt lat="42.38014" lon="2.63171">
        <ele>846</ele>
        <time>2018-11-26T03:21:31Z</time>
      </trkpt>
      <trkpt lat="42.38014" lon="2.63171">
        <ele>845.8</ele>
        <time>2018-11-26T03:21:31Z</time>
      </trkpt>
      <trkpt lat="42.38015" lon="2.63171">
        <ele>845.8</ele>
        <time>2018-11-26T03:21:31Z</time>
      </trkpt>
      <trkpt lat="42.38014" lon="2.63171">
        <ele>845.6</ele>
        <time>2018-11-26T03:21:31Z</time>
      </trkpt>
      <trkpt lat="42.38012" lon="2.63174">
        <ele>844.6</ele>
        <time>2018-11-26T03:21:32Z</time>
      </trkpt>
      <trkpt lat="42.38012" lon="2.63174">
        <ele>844.8</ele>
        <time>2018-11-26T03:21:32Z</time>
      </trkpt>
      <trkpt lat="42.38011" lon="2.63182">
        <ele>844.7</ele>
        <time>2018-11-26T03:21:35Z</time>
      </trkpt>
      <trkpt lat="42.38011" lon="2.63182">
        <ele>845</ele>
        <time>2018-11-26T03:21:35Z</time>
      </trkpt>
      <trkpt lat="42.38011" lon="2.63182">
        <ele>845.4</ele>
        <time>2018-11-26T03:21:35Z</time>
      </trkpt>
      <trkpt lat="42.38011" lon="2.63182">
        <ele>845.9</ele>
        <time>2018-11-26T03:21:35Z</time>
      </trkpt>
      <trkpt lat="42.38011" lon="2.63182">
        <ele>845.7</ele>
        <time>2018-11-26T03:21:35Z</time>
      </trkpt>
      <trkpt lat="42.3801" lon="2.63183">
        <ele>845.6</ele>
        <time>2018-11-26T03:21:35Z</time>
      </trkpt>
      <trkpt lat="42.3801" lon="2.63182">
        <ele>845.2</ele>
        <time>2018-11-26T03:21:35Z</time>
      </trkpt>
      <trkpt lat="42.3801" lon="2.63183">
        <ele>845.2</ele>
        <time>2018-11-26T03:21:35Z</time>
      </trkpt>
      <trkpt lat="42.3801" lon="2.63183">
        <ele>845.3</ele>
        <time>2018-11-26T03:21:35Z</time>
      </trkpt>
      <trkpt lat="42.3801" lon="2.63183">
        <ele>845.3</ele>
        <time>2018-11-26T03:21:36Z</time>
      </trkpt>
      <trkpt lat="42.38009" lon="2.63183">
        <ele>845.6</ele>
        <time>2018-11-26T03:21:36Z</time>
      </trkpt>
      <trkpt lat="42.38009" lon="2.63183">
        <ele>845.8</ele>
        <time>2018-11-26T03:21:36Z</time>
      </trkpt>
      <trkpt lat="42.38009" lon="2.63183">
        <ele>845.9</ele>
        <time>2018-11-26T03:21:36Z</time>
      </trkpt>
      <trkpt lat="42.38009" lon="2.63183">
        <ele>845.9</ele>
        <time>2018-11-26T03:21:36Z</time>
      </trkpt>
      <trkpt lat="42.38009" lon="2.63184">
        <ele>845.9</ele>
        <time>2018-11-26T03:21:36Z</time>
      </trkpt>
      <trkpt lat="42.38008" lon="2.63184">
        <ele>845.8</ele>
        <time>2018-11-26T03:21:36Z</time>
      </trkpt>
      <trkpt lat="42.38008" lon="2.63184">
        <ele>845.7</ele>
        <time>2018-11-26T03:21:36Z</time>
      </trkpt>
      <trkpt lat="42.38008" lon="2.63185">
        <ele>845.4</ele>
        <time>2018-11-26T03:21:36Z</time>
      </trkpt>
      <trkpt lat="42.38008" lon="2.63185">
        <ele>845.1</ele>
        <time>2018-11-26T03:21:37Z</time>
      </trkpt>
      <trkpt lat="42.38007" lon="2.63186">
        <ele>844.8</ele>
        <time>2018-11-26T03:21:37Z</time>
      </trkpt>
      <trkpt lat="42.38007" lon="2.63187">
        <ele>845</ele>
        <time>2018-11-26T03:21:37Z</time>
      </trkpt>
      <trkpt lat="42.38007" lon="2.63188">
        <ele>845.2</ele>
        <time>2018-11-26T03:21:38Z</time>
      </trkpt>
      <trkpt lat="42.38006" lon="2.63189">
        <ele>845.5</ele>
        <time>2018-11-26T03:21:38Z</time>
      </trkpt>
      <trkpt lat="42.38006" lon="2.6319">
        <ele>845.7</ele>
        <time>2018-11-26T03:21:38Z</time>
      </trkpt>
      <trkpt lat="42.38005" lon="2.6319">
        <ele>845.7</ele>
        <time>2018-11-26T03:21:38Z</time>
      </trkpt>
      <trkpt lat="42.38005" lon="2.63191">
        <ele>845.9</ele>
        <time>2018-11-26T03:21:39Z</time>
      </trkpt>
      <trkpt lat="42.38005" lon="2.63191">
        <ele>845.6</ele>
        <time>2018-11-26T03:21:39Z</time>
      </trkpt>
      <trkpt lat="42.38004" lon="2.63192">
        <ele>845.4</ele>
        <time>2018-11-26T03:21:39Z</time>
      </trkpt>
      <trkpt lat="42.38004" lon="2.63192">
        <ele>845</ele>
        <time>2018-11-26T03:21:39Z</time>
      </trkpt>
      <trkpt lat="42.38003" lon="2.63193">
        <ele>845.9</ele>
        <time>2018-11-26T03:21:40Z</time>
      </trkpt>
      <trkpt lat="42.38002" lon="2.63194">
        <ele>846.7</ele>
        <time>2018-11-26T03:21:40Z</time>
      </trkpt>
      <trkpt lat="42.38" lon="2.63197">
        <ele>846.4</ele>
        <time>2018-11-26T03:21:41Z</time>
      </trkpt>
      <trkpt lat="42.38" lon="2.63197">
        <ele>846.4</ele>
        <time>2018-11-26T03:21:41Z</time>
      </trkpt>
      <trkpt lat="42.38" lon="2.63198">
        <ele>846.3</ele>
        <time>2018-11-26T03:21:42Z</time>
      </trkpt>
      <trkpt lat="42.37999" lon="2.63198">
        <ele>846.3</ele>
        <time>2018-11-26T03:21:42Z</time>
      </trkpt>
      <trkpt lat="42.37999" lon="2.63199">
        <ele>846</ele>
        <time>2018-11-26T03:21:42Z</time>
      </trkpt>
      <trkpt lat="42.37998" lon="2.63199">
        <ele>845.7</ele>
        <time>2018-11-26T03:21:42Z</time>
      </trkpt>
      <trkpt lat="42.37998" lon="2.632">
        <ele>845.7</ele>
        <time>2018-11-26T03:21:43Z</time>
      </trkpt>
      <trkpt lat="42.37997" lon="2.632">
        <ele>845.4</ele>
        <time>2018-11-26T03:21:43Z</time>
      </trkpt>
      <trkpt lat="42.37997" lon="2.63201">
        <ele>845.2</ele>
        <time>2018-11-26T03:21:43Z</time>
      </trkpt>
      <trkpt lat="42.37997" lon="2.63202">
        <ele>845.3</ele>
        <time>2018-11-26T03:21:44Z</time>
      </trkpt>
      <trkpt lat="42.37996" lon="2.63204">
        <ele>845.3</ele>
        <time>2018-11-26T03:21:44Z</time>
      </trkpt>
      <trkpt lat="42.37996" lon="2.63205">
        <ele>845.3</ele>
        <time>2018-11-26T03:21:44Z</time>
      </trkpt>
      <trkpt lat="42.37995" lon="2.63206">
        <ele>845.3</ele>
        <time>2018-11-26T03:21:45Z</time>
      </trkpt>
      <trkpt lat="42.37995" lon="2.63208">
        <ele>845.3</ele>
        <time>2018-11-26T03:21:45Z</time>
      </trkpt>
      <trkpt lat="42.37994" lon="2.63209">
        <ele>845.5</ele>
        <time>2018-11-26T03:21:46Z</time>
      </trkpt>
      <trkpt lat="42.37994" lon="2.6321">
        <ele>845.6</ele>
        <time>2018-11-26T03:21:46Z</time>
      </trkpt>
      <trkpt lat="42.37993" lon="2.63212">
        <ele>845.5</ele>
        <time>2018-11-26T03:21:47Z</time>
      </trkpt>
      <trkpt lat="42.37993" lon="2.63213">
        <ele>845.5</ele>
        <time>2018-11-26T03:21:47Z</time>
      </trkpt>
      <trkpt lat="42.37992" lon="2.63214">
        <ele>845.5</ele>
        <time>2018-11-26T03:21:47Z</time>
      </trkpt>
      <trkpt lat="42.37992" lon="2.63215">
        <ele>845.6</ele>
        <time>2018-11-26T03:21:48Z</time>
      </trkpt>
      <trkpt lat="42.37991" lon="2.63216">
        <ele>845.7</ele>
        <time>2018-11-26T03:21:48Z</time>
      </trkpt>
      <trkpt lat="42.37991" lon="2.63218">
        <ele>845.9</ele>
        <time>2018-11-26T03:21:49Z</time>
      </trkpt>
      <trkpt lat="42.3799" lon="2.63219">
        <ele>846.3</ele>
        <time>2018-11-26T03:21:49Z</time>
      </trkpt>
      <trkpt lat="42.3799" lon="2.6322">
        <ele>846.8</ele>
        <time>2018-11-26T03:21:50Z</time>
      </trkpt>
      <trkpt lat="42.37989" lon="2.63221">
        <ele>847.4</ele>
        <time>2018-11-26T03:21:50Z</time>
      </trkpt>
      <trkpt lat="42.37989" lon="2.63222">
        <ele>847.5</ele>
        <time>2018-11-26T03:21:50Z</time>
      </trkpt>
      <trkpt lat="42.37989" lon="2.63223">
        <ele>847.8</ele>
        <time>2018-11-26T03:21:51Z</time>
      </trkpt>
      <trkpt lat="42.37988" lon="2.63224">
        <ele>847.9</ele>
        <time>2018-11-26T03:21:51Z</time>
      </trkpt>
      <trkpt lat="42.37988" lon="2.63225">
        <ele>848.1</ele>
        <time>2018-11-26T03:21:51Z</time>
      </trkpt>
      <trkpt lat="42.37988" lon="2.63226">
        <ele>848.4</ele>
        <time>2018-11-26T03:21:52Z</time>
      </trkpt>
      <trkpt lat="42.37987" lon="2.63227">
        <ele>848.7</ele>
        <time>2018-11-26T03:21:52Z</time>
      </trkpt>
      <trkpt lat="42.37986" lon="2.63228">
        <ele>849</ele>
        <time>2018-11-26T03:21:52Z</time>
      </trkpt>
      <trkpt lat="42.37986" lon="2.6323">
        <ele>849.2</ele>
        <time>2018-11-26T03:21:53Z</time>
      </trkpt>
      <trkpt lat="42.37985" lon="2.63231">
        <ele>849.5</ele>
        <time>2018-11-26T03:21:53Z</time>
      </trkpt>
      <trkpt lat="42.37985" lon="2.63232">
        <ele>849.6</ele>
        <time>2018-11-26T03:21:54Z</time>
      </trkpt>
      <trkpt lat="42.37984" lon="2.63233">
        <ele>850</ele>
        <time>2018-11-26T03:21:54Z</time>
      </trkpt>
      <trkpt lat="42.37984" lon="2.63234">
        <ele>850.5</ele>
        <time>2018-11-26T03:21:54Z</time>
      </trkpt>
      <trkpt lat="42.37983" lon="2.63236">
        <ele>851</ele>
        <time>2018-11-26T03:21:55Z</time>
      </trkpt>
      <trkpt lat="42.37982" lon="2.63236">
        <ele>851.1</ele>
        <time>2018-11-26T03:21:55Z</time>
      </trkpt>
      <trkpt lat="42.37982" lon="2.63238">
        <ele>851.2</ele>
        <time>2018-11-26T03:21:56Z</time>
      </trkpt>
      <trkpt lat="42.37982" lon="2.63239">
        <ele>851.4</ele>
        <time>2018-11-26T03:21:56Z</time>
      </trkpt>
      <trkpt lat="42.37981" lon="2.6324">
        <ele>851.5</ele>
        <time>2018-11-26T03:21:56Z</time>
      </trkpt>
      <trkpt lat="42.3798" lon="2.63241">
        <ele>851.4</ele>
        <time>2018-11-26T03:21:57Z</time>
      </trkpt>
      <trkpt lat="42.37979" lon="2.63242">
        <ele>851.1</ele>
        <time>2018-11-26T03:21:57Z</time>
      </trkpt>
      <trkpt lat="42.37979" lon="2.63243">
        <ele>851.4</ele>
        <time>2018-11-26T03:21:58Z</time>
      </trkpt>
      <trkpt lat="42.37978" lon="2.63244">
        <ele>851.6</ele>
        <time>2018-11-26T03:21:58Z</time>
      </trkpt>
      <trkpt lat="42.37977" lon="2.63245">
        <ele>851.8</ele>
        <time>2018-11-26T03:21:59Z</time>
      </trkpt>
      <trkpt lat="42.37976" lon="2.63246">
        <ele>852.1</ele>
        <time>2018-11-26T03:21:59Z</time>
      </trkpt>
      <trkpt lat="42.37976" lon="2.63247">
        <ele>852.1</ele>
        <time>2018-11-26T03:21:59Z</time>
      </trkpt>
      <trkpt lat="42.37975" lon="2.63248">
        <ele>852.1</ele>
        <time>2018-11-26T03:22:00Z</time>
      </trkpt>
      <trkpt lat="42.37975" lon="2.63249">
        <ele>852</ele>
        <time>2018-11-26T03:22:00Z</time>
      </trkpt>
      <trkpt lat="42.37974" lon="2.6325">
        <ele>852.1</ele>
        <time>2018-11-26T03:22:01Z</time>
      </trkpt>
      <trkpt lat="42.37973" lon="2.63251">
        <ele>852.1</ele>
        <time>2018-11-26T03:22:01Z</time>
      </trkpt>
      <trkpt lat="42.37972" lon="2.63252">
        <ele>852.1</ele>
        <time>2018-11-26T03:22:01Z</time>
      </trkpt>
      <trkpt lat="42.37971" lon="2.63253">
        <ele>852.6</ele>
        <time>2018-11-26T03:22:02Z</time>
      </trkpt>
      <trkpt lat="42.37971" lon="2.63253">
        <ele>853</ele>
        <time>2018-11-26T03:22:02Z</time>
      </trkpt>
      <trkpt lat="42.3797" lon="2.63254">
        <ele>853.8</ele>
        <time>2018-11-26T03:22:03Z</time>
      </trkpt>
      <trkpt lat="42.37969" lon="2.63255">
        <ele>853.6</ele>
        <time>2018-11-26T03:22:03Z</time>
      </trkpt>
      <trkpt lat="42.37968" lon="2.63255">
        <ele>853.5</ele>
        <time>2018-11-26T03:22:03Z</time>
      </trkpt>
      <trkpt lat="42.37968" lon="2.63256">
        <ele>853.5</ele>
        <time>2018-11-26T03:22:04Z</time>
      </trkpt>
      <trkpt lat="42.37967" lon="2.63257">
        <ele>853.6</ele>
        <time>2018-11-26T03:22:04Z</time>
      </trkpt>
      <trkpt lat="42.37966" lon="2.63258">
        <ele>853.7</ele>
        <time>2018-11-26T03:22:05Z</time>
      </trkpt>
      <trkpt lat="42.37965" lon="2.63259">
        <ele>854</ele>
        <time>2018-11-26T03:22:05Z</time>
      </trkpt>
      <trkpt lat="42.37965" lon="2.6326">
        <ele>854.3</ele>
        <time>2018-11-26T03:22:05Z</time>
      </trkpt>
      <trkpt lat="42.37964" lon="2.63261">
        <ele>854.3</ele>
        <time>2018-11-26T03:22:06Z</time>
      </trkpt>
      <trkpt lat="42.37963" lon="2.63261">
        <ele>854.4</ele>
        <time>2018-11-26T03:22:06Z</time>
      </trkpt>
      <trkpt lat="42.37962" lon="2.63262">
        <ele>854.4</ele>
        <time>2018-11-26T03:22:07Z</time>
      </trkpt>
      <trkpt lat="42.37961" lon="2.63263">
        <ele>854.7</ele>
        <time>2018-11-26T03:22:07Z</time>
      </trkpt>
      <trkpt lat="42.3796" lon="2.63264">
        <ele>855.1</ele>
        <time>2018-11-26T03:22:07Z</time>
      </trkpt>
      <trkpt lat="42.37959" lon="2.63264">
        <ele>855.6</ele>
        <time>2018-11-26T03:22:08Z</time>
      </trkpt>
      <trkpt lat="42.37959" lon="2.63265">
        <ele>855.6</ele>
        <time>2018-11-26T03:22:08Z</time>
      </trkpt>
      <trkpt lat="42.37958" lon="2.63266">
        <ele>855.6</ele>
        <time>2018-11-26T03:22:09Z</time>
      </trkpt>
      <trkpt lat="42.37957" lon="2.63266">
        <ele>855.7</ele>
        <time>2018-11-26T03:22:09Z</time>
      </trkpt>
      <trkpt lat="42.37956" lon="2.63267">
        <ele>855.9</ele>
        <time>2018-11-26T03:22:09Z</time>
      </trkpt>
      <trkpt lat="42.37956" lon="2.63268">
        <ele>856.1</ele>
        <time>2018-11-26T03:22:10Z</time>
      </trkpt>
      <trkpt lat="42.37955" lon="2.63268">
        <ele>856.4</ele>
        <time>2018-11-26T03:22:10Z</time>
      </trkpt>
      <trkpt lat="42.37954" lon="2.63269">
        <ele>856.4</ele>
        <time>2018-11-26T03:22:10Z</time>
      </trkpt>
      <trkpt lat="42.37954" lon="2.6327">
        <ele>856.3</ele>
        <time>2018-11-26T03:22:11Z</time>
      </trkpt>
      <trkpt lat="42.37953" lon="2.6327">
        <ele>856.3</ele>
        <time>2018-11-26T03:22:11Z</time>
      </trkpt>
      <trkpt lat="42.37952" lon="2.63271">
        <ele>856.2</ele>
        <time>2018-11-26T03:22:12Z</time>
      </trkpt>
      <trkpt lat="42.37951" lon="2.63272">
        <ele>856.2</ele>
        <time>2018-11-26T03:22:12Z</time>
      </trkpt>
      <trkpt lat="42.37951" lon="2.63272">
        <ele>856</ele>
        <time>2018-11-26T03:22:12Z</time>
      </trkpt>
      <trkpt lat="42.3795" lon="2.63273">
        <ele>855.7</ele>
        <time>2018-11-26T03:22:12Z</time>
      </trkpt>
      <trkpt lat="42.3795" lon="2.63273">
        <ele>856</ele>
        <time>2018-11-26T03:22:13Z</time>
      </trkpt>
      <trkpt lat="42.37949" lon="2.63274">
        <ele>856.3</ele>
        <time>2018-11-26T03:22:13Z</time>
      </trkpt>
      <trkpt lat="42.37949" lon="2.63274">
        <ele>856.9</ele>
        <time>2018-11-26T03:22:13Z</time>
      </trkpt>
      <trkpt lat="42.37948" lon="2.63275">
        <ele>856.9</ele>
        <time>2018-11-26T03:22:14Z</time>
      </trkpt>
      <trkpt lat="42.37947" lon="2.63276">
        <ele>856.9</ele>
        <time>2018-11-26T03:22:14Z</time>
      </trkpt>
      <trkpt lat="42.37947" lon="2.63276">
        <ele>857</ele>
        <time>2018-11-26T03:22:14Z</time>
      </trkpt>
      <trkpt lat="42.37946" lon="2.63277">
        <ele>857.1</ele>
        <time>2018-11-26T03:22:14Z</time>
      </trkpt>
      <trkpt lat="42.37946" lon="2.63277">
        <ele>857.4</ele>
        <time>2018-11-26T03:22:15Z</time>
      </trkpt>
      <trkpt lat="42.37945" lon="2.63278">
        <ele>857.6</ele>
        <time>2018-11-26T03:22:15Z</time>
      </trkpt>
      <trkpt lat="42.37945" lon="2.63278">
        <ele>857.9</ele>
        <time>2018-11-26T03:22:15Z</time>
      </trkpt>
      <trkpt lat="42.37944" lon="2.63278">
        <ele>858</ele>
        <time>2018-11-26T03:22:15Z</time>
      </trkpt>
      <trkpt lat="42.37944" lon="2.63279">
        <ele>858.4</ele>
        <time>2018-11-26T03:22:16Z</time>
      </trkpt>
      <trkpt lat="42.37943" lon="2.63279">
        <ele>858.7</ele>
        <time>2018-11-26T03:22:16Z</time>
      </trkpt>
      <trkpt lat="42.37943" lon="2.6328">
        <ele>858.9</ele>
        <time>2018-11-26T03:22:16Z</time>
      </trkpt>
      <trkpt lat="42.37942" lon="2.6328">
        <ele>859.2</ele>
        <time>2018-11-26T03:22:16Z</time>
      </trkpt>
      <trkpt lat="42.37942" lon="2.63281">
        <ele>859.6</ele>
        <time>2018-11-26T03:22:17Z</time>
      </trkpt>
      <trkpt lat="42.37941" lon="2.63282">
        <ele>859.7</ele>
        <time>2018-11-26T03:22:17Z</time>
      </trkpt>
      <trkpt lat="42.37941" lon="2.63283">
        <ele>859.7</ele>
        <time>2018-11-26T03:22:17Z</time>
      </trkpt>
      <trkpt lat="42.37941" lon="2.63284">
        <ele>859.9</ele>
        <time>2018-11-26T03:22:17Z</time>
      </trkpt>
      <trkpt lat="42.37941" lon="2.63284">
        <ele>859.9</ele>
        <time>2018-11-26T03:22:18Z</time>
      </trkpt>
      <trkpt lat="42.37941" lon="2.63285">
        <ele>859.9</ele>
        <time>2018-11-26T03:22:18Z</time>
      </trkpt>
      <trkpt lat="42.37941" lon="2.63286">
        <ele>859.8</ele>
        <time>2018-11-26T03:22:18Z</time>
      </trkpt>
      <trkpt lat="42.3794" lon="2.63286">
        <ele>860.1</ele>
        <time>2018-11-26T03:22:18Z</time>
      </trkpt>
      <trkpt lat="42.3794" lon="2.63287">
        <ele>860.5</ele>
        <time>2018-11-26T03:22:18Z</time>
      </trkpt>
      <trkpt lat="42.3794" lon="2.63287">
        <ele>860.8</ele>
        <time>2018-11-26T03:22:19Z</time>
      </trkpt>
      <trkpt lat="42.3794" lon="2.63288">
        <ele>861.1</ele>
        <time>2018-11-26T03:22:19Z</time>
      </trkpt>
      <trkpt lat="42.3794" lon="2.63288">
        <ele>861.5</ele>
        <time>2018-11-26T03:22:19Z</time>
      </trkpt>
      <trkpt lat="42.3794" lon="2.63289">
        <ele>861.9</ele>
        <time>2018-11-26T03:22:19Z</time>
      </trkpt>
      <trkpt lat="42.3794" lon="2.63289">
        <ele>861.8</ele>
        <time>2018-11-26T03:22:19Z</time>
      </trkpt>
      <trkpt lat="42.3794" lon="2.6329">
        <ele>861.8</ele>
        <time>2018-11-26T03:22:19Z</time>
      </trkpt>
      <trkpt lat="42.3794" lon="2.6329">
        <ele>861.6</ele>
        <time>2018-11-26T03:22:20Z</time>
      </trkpt>
      <trkpt lat="42.3794" lon="2.63291">
        <ele>861.3</ele>
        <time>2018-11-26T03:22:20Z</time>
      </trkpt>
      <trkpt lat="42.37939" lon="2.63292">
        <ele>861.3</ele>
        <time>2018-11-26T03:22:20Z</time>
      </trkpt>
      <trkpt lat="42.3794" lon="2.63292">
        <ele>861.1</ele>
        <time>2018-11-26T03:22:20Z</time>
      </trkpt>
      <trkpt lat="42.3794" lon="2.63293">
        <ele>861</ele>
        <time>2018-11-26T03:22:20Z</time>
      </trkpt>
      <trkpt lat="42.3794" lon="2.63294">
        <ele>861</ele>
        <time>2018-11-26T03:22:21Z</time>
      </trkpt>
      <trkpt lat="42.3794" lon="2.63294">
        <ele>861.1</ele>
        <time>2018-11-26T03:22:21Z</time>
      </trkpt>
      <trkpt lat="42.3794" lon="2.63295">
        <ele>861.1</ele>
        <time>2018-11-26T03:22:21Z</time>
      </trkpt>
      <trkpt lat="42.3794" lon="2.63296">
        <ele>861.4</ele>
        <time>2018-11-26T03:22:21Z</time>
      </trkpt>
      <trkpt lat="42.3794" lon="2.63296">
        <ele>861.6</ele>
        <time>2018-11-26T03:22:22Z</time>
      </trkpt>
      <trkpt lat="42.3794" lon="2.63297">
        <ele>862</ele>
        <time>2018-11-26T03:22:22Z</time>
      </trkpt>
      <trkpt lat="42.3794" lon="2.63299">
        <ele>861.9</ele>
        <time>2018-11-26T03:22:22Z</time>
      </trkpt>
      <trkpt lat="42.3794" lon="2.63301">
        <ele>861.9</ele>
        <time>2018-11-26T03:22:23Z</time>
      </trkpt>
      <trkpt lat="42.37941" lon="2.63302">
        <ele>862</ele>
        <time>2018-11-26T03:22:23Z</time>
      </trkpt>
      <trkpt lat="42.37942" lon="2.63305">
        <ele>862</ele>
        <time>2018-11-26T03:22:24Z</time>
      </trkpt>
      <trkpt lat="42.37942" lon="2.63306">
        <ele>862.1</ele>
        <time>2018-11-26T03:22:25Z</time>
      </trkpt>
      <trkpt lat="42.37943" lon="2.63307">
        <ele>862.4</ele>
        <time>2018-11-26T03:22:25Z</time>
      </trkpt>
      <trkpt lat="42.37943" lon="2.63307">
        <ele>862.5</ele>
        <time>2018-11-26T03:22:25Z</time>
      </trkpt>
      <trkpt lat="42.37943" lon="2.63308">
        <ele>862.8</ele>
        <time>2018-11-26T03:22:25Z</time>
      </trkpt>
      <trkpt lat="42.37944" lon="2.63309">
        <ele>863.1</ele>
        <time>2018-11-26T03:22:26Z</time>
      </trkpt>
      <trkpt lat="42.37944" lon="2.6331">
        <ele>862.7</ele>
        <time>2018-11-26T03:22:26Z</time>
      </trkpt>
      <trkpt lat="42.37944" lon="2.63311">
        <ele>862.2</ele>
        <time>2018-11-26T03:22:26Z</time>
      </trkpt>
      <trkpt lat="42.37944" lon="2.63313">
        <ele>861.4</ele>
        <time>2018-11-26T03:22:27Z</time>
      </trkpt>
      <trkpt lat="42.37944" lon="2.63314">
        <ele>861.6</ele>
        <time>2018-11-26T03:22:27Z</time>
      </trkpt>
      <trkpt lat="42.37945" lon="2.63315">
        <ele>861.7</ele>
        <time>2018-11-26T03:22:27Z</time>
      </trkpt>
      <trkpt lat="42.37945" lon="2.63316">
        <ele>861.9</ele>
        <time>2018-11-26T03:22:28Z</time>
      </trkpt>
      <trkpt lat="42.37946" lon="2.63317">
        <ele>862</ele>
        <time>2018-11-26T03:22:28Z</time>
      </trkpt>
      <trkpt lat="42.37946" lon="2.63318">
        <ele>862.1</ele>
        <time>2018-11-26T03:22:29Z</time>
      </trkpt>
      <trkpt lat="42.37946" lon="2.6332">
        <ele>862.2</ele>
        <time>2018-11-26T03:22:29Z</time>
      </trkpt>
      <trkpt lat="42.37947" lon="2.63321">
        <ele>862.4</ele>
        <time>2018-11-26T03:22:29Z</time>
      </trkpt>
      <trkpt lat="42.37947" lon="2.63322">
        <ele>862.8</ele>
        <time>2018-11-26T03:22:30Z</time>
      </trkpt>
      <trkpt lat="42.37948" lon="2.63323">
        <ele>863.1</ele>
        <time>2018-11-26T03:22:30Z</time>
      </trkpt>
      <trkpt lat="42.37948" lon="2.63324">
        <ele>863.8</ele>
        <time>2018-11-26T03:22:30Z</time>
      </trkpt>
      <trkpt lat="42.37948" lon="2.63325">
        <ele>863.7</ele>
        <time>2018-11-26T03:22:31Z</time>
      </trkpt>
      <trkpt lat="42.37948" lon="2.63327">
        <ele>863.6</ele>
        <time>2018-11-26T03:22:31Z</time>
      </trkpt>
      <trkpt lat="42.37948" lon="2.63329">
        <ele>863.5</ele>
        <time>2018-11-26T03:22:32Z</time>
      </trkpt>
      <trkpt lat="42.37948" lon="2.6333">
        <ele>863.7</ele>
        <time>2018-11-26T03:22:32Z</time>
      </trkpt>
      <trkpt lat="42.37948" lon="2.63331">
        <ele>863.7</ele>
        <time>2018-11-26T03:22:33Z</time>
      </trkpt>
      <trkpt lat="42.37948" lon="2.63332">
        <ele>863.8</ele>
        <time>2018-11-26T03:22:33Z</time>
      </trkpt>
      <trkpt lat="42.37948" lon="2.63334">
        <ele>864.2</ele>
        <time>2018-11-26T03:22:33Z</time>
      </trkpt>
      <trkpt lat="42.37948" lon="2.63335">
        <ele>864.6</ele>
        <time>2018-11-26T03:22:34Z</time>
      </trkpt>
      <trkpt lat="42.37948" lon="2.63336">
        <ele>865.1</ele>
        <time>2018-11-26T03:22:34Z</time>
      </trkpt>
      <trkpt lat="42.37948" lon="2.63338">
        <ele>865.3</ele>
        <time>2018-11-26T03:22:35Z</time>
      </trkpt>
      <trkpt lat="42.37949" lon="2.63339">
        <ele>865.2</ele>
        <time>2018-11-26T03:22:35Z</time>
      </trkpt>
      <trkpt lat="42.37949" lon="2.63341">
        <ele>865.3</ele>
        <time>2018-11-26T03:22:36Z</time>
      </trkpt>
      <trkpt lat="42.37949" lon="2.63342">
        <ele>865.2</ele>
        <time>2018-11-26T03:22:36Z</time>
      </trkpt>
      <trkpt lat="42.37949" lon="2.63344">
        <ele>865</ele>
        <time>2018-11-26T03:22:36Z</time>
      </trkpt>
      <trkpt lat="42.37949" lon="2.63345">
        <ele>864.9</ele>
        <time>2018-11-26T03:22:37Z</time>
      </trkpt>
      <trkpt lat="42.37949" lon="2.63346">
        <ele>864.6</ele>
        <time>2018-11-26T03:22:37Z</time>
      </trkpt>
      <trkpt lat="42.37949" lon="2.63348">
        <ele>864.9</ele>
        <time>2018-11-26T03:22:38Z</time>
      </trkpt>
      <trkpt lat="42.37949" lon="2.63349">
        <ele>865.4</ele>
        <time>2018-11-26T03:22:38Z</time>
      </trkpt>
      <trkpt lat="42.37949" lon="2.6335">
        <ele>865.8</ele>
        <time>2018-11-26T03:22:38Z</time>
      </trkpt>
      <trkpt lat="42.37949" lon="2.63351">
        <ele>866</ele>
        <time>2018-11-26T03:22:39Z</time>
      </trkpt>
      <trkpt lat="42.37949" lon="2.63352">
        <ele>866.3</ele>
        <time>2018-11-26T03:22:39Z</time>
      </trkpt>
      <trkpt lat="42.37949" lon="2.63353">
        <ele>866.8</ele>
        <time>2018-11-26T03:22:39Z</time>
      </trkpt>
      <trkpt lat="42.37948" lon="2.63354">
        <ele>866.9</ele>
        <time>2018-11-26T03:22:40Z</time>
      </trkpt>
      <trkpt lat="42.37948" lon="2.63356">
        <ele>867.2</ele>
        <time>2018-11-26T03:22:40Z</time>
      </trkpt>
      <trkpt lat="42.37948" lon="2.63357">
        <ele>867.4</ele>
        <time>2018-11-26T03:22:40Z</time>
      </trkpt>
      <trkpt lat="42.37948" lon="2.63358">
        <ele>867.4</ele>
        <time>2018-11-26T03:22:41Z</time>
      </trkpt>
      <trkpt lat="42.37948" lon="2.63359">
        <ele>867.5</ele>
        <time>2018-11-26T03:22:41Z</time>
      </trkpt>
      <trkpt lat="42.37948" lon="2.6336">
        <ele>867.5</ele>
        <time>2018-11-26T03:22:41Z</time>
      </trkpt>
      <trkpt lat="42.37948" lon="2.63361">
        <ele>867.5</ele>
        <time>2018-11-26T03:22:42Z</time>
      </trkpt>
      <trkpt lat="42.37947" lon="2.63363">
        <ele>867.5</ele>
        <time>2018-11-26T03:22:42Z</time>
      </trkpt>
      <trkpt lat="42.37947" lon="2.63364">
        <ele>867.4</ele>
        <time>2018-11-26T03:22:43Z</time>
      </trkpt>
      <trkpt lat="42.37947" lon="2.63365">
        <ele>867.5</ele>
        <time>2018-11-26T03:22:43Z</time>
      </trkpt>
      <trkpt lat="42.37946" lon="2.63366">
        <ele>867.8</ele>
        <time>2018-11-26T03:22:43Z</time>
      </trkpt>
      <trkpt lat="42.37946" lon="2.63368">
        <ele>868.3</ele>
        <time>2018-11-26T03:22:44Z</time>
      </trkpt>
      <trkpt lat="42.37946" lon="2.63369">
        <ele>868.7</ele>
        <time>2018-11-26T03:22:44Z</time>
      </trkpt>
      <trkpt lat="42.37946" lon="2.6337">
        <ele>869</ele>
        <time>2018-11-26T03:22:45Z</time>
      </trkpt>
      <trkpt lat="42.37946" lon="2.63372">
        <ele>869.4</ele>
        <time>2018-11-26T03:22:45Z</time>
      </trkpt>
      <trkpt lat="42.37946" lon="2.63372">
        <ele>869.7</ele>
        <time>2018-11-26T03:22:45Z</time>
      </trkpt>
      <trkpt lat="42.37946" lon="2.63374">
        <ele>869.7</ele>
        <time>2018-11-26T03:22:46Z</time>
      </trkpt>
      <trkpt lat="42.37946" lon="2.63375">
        <ele>869.9</ele>
        <time>2018-11-26T03:22:46Z</time>
      </trkpt>
      <trkpt lat="42.37946" lon="2.63376">
        <ele>869.9</ele>
        <time>2018-11-26T03:22:46Z</time>
      </trkpt>
      <trkpt lat="42.37946" lon="2.63377">
        <ele>869.9</ele>
        <time>2018-11-26T03:22:46Z</time>
      </trkpt>
      <trkpt lat="42.37945" lon="2.63378">
        <ele>870</ele>
        <time>2018-11-26T03:22:47Z</time>
      </trkpt>
      <trkpt lat="42.37945" lon="2.63379">
        <ele>870.2</ele>
        <time>2018-11-26T03:22:47Z</time>
      </trkpt>
      <trkpt lat="42.37945" lon="2.6338">
        <ele>870.3</ele>
        <time>2018-11-26T03:22:48Z</time>
      </trkpt>
      <trkpt lat="42.37945" lon="2.63382">
        <ele>870.6</ele>
        <time>2018-11-26T03:22:48Z</time>
      </trkpt>
      <trkpt lat="42.37944" lon="2.63383">
        <ele>871.1</ele>
        <time>2018-11-26T03:22:48Z</time>
      </trkpt>
      <trkpt lat="42.37944" lon="2.63384">
        <ele>871.6</ele>
        <time>2018-11-26T03:22:49Z</time>
      </trkpt>
      <trkpt lat="42.37944" lon="2.63386">
        <ele>871.5</ele>
        <time>2018-11-26T03:22:49Z</time>
      </trkpt>
      <trkpt lat="42.37944" lon="2.63387">
        <ele>871.7</ele>
        <time>2018-11-26T03:22:50Z</time>
      </trkpt>
      <trkpt lat="42.37944" lon="2.63388">
        <ele>871.8</ele>
        <time>2018-11-26T03:22:50Z</time>
      </trkpt>
      <trkpt lat="42.37944" lon="2.6339">
        <ele>871.9</ele>
        <time>2018-11-26T03:22:50Z</time>
      </trkpt>
      <trkpt lat="42.37944" lon="2.63391">
        <ele>872.1</ele>
        <time>2018-11-26T03:22:51Z</time>
      </trkpt>
      <trkpt lat="42.37944" lon="2.63393">
        <ele>872.5</ele>
        <time>2018-11-26T03:22:51Z</time>
      </trkpt>
      <trkpt lat="42.37944" lon="2.63394">
        <ele>872.7</ele>
        <time>2018-11-26T03:22:52Z</time>
      </trkpt>
      <trkpt lat="42.37944" lon="2.63395">
        <ele>872.7</ele>
        <time>2018-11-26T03:22:52Z</time>
      </trkpt>
      <trkpt lat="42.37944" lon="2.63397">
        <ele>873</ele>
        <time>2018-11-26T03:22:52Z</time>
      </trkpt>
      <trkpt lat="42.37944" lon="2.63397">
        <ele>873.2</ele>
        <time>2018-11-26T03:22:53Z</time>
      </trkpt>
      <trkpt lat="42.37944" lon="2.63399">
        <ele>873.5</ele>
        <time>2018-11-26T03:22:53Z</time>
      </trkpt>
      <trkpt lat="42.37944" lon="2.634">
        <ele>873.6</ele>
        <time>2018-11-26T03:22:53Z</time>
      </trkpt>
      <trkpt lat="42.37944" lon="2.63401">
        <ele>873.6</ele>
        <time>2018-11-26T03:22:54Z</time>
      </trkpt>
      <trkpt lat="42.37944" lon="2.63402">
        <ele>873.6</ele>
        <time>2018-11-26T03:22:54Z</time>
      </trkpt>
      <trkpt lat="42.37944" lon="2.63402">
        <ele>873.6</ele>
        <time>2018-11-26T03:22:54Z</time>
      </trkpt>
      <trkpt lat="42.37944" lon="2.63404">
        <ele>873.8</ele>
        <time>2018-11-26T03:22:55Z</time>
      </trkpt>
      <trkpt lat="42.37944" lon="2.63405">
        <ele>873.8</ele>
        <time>2018-11-26T03:22:55Z</time>
      </trkpt>
      <trkpt lat="42.37944" lon="2.63405">
        <ele>873.8</ele>
        <time>2018-11-26T03:22:55Z</time>
      </trkpt>
      <trkpt lat="42.37944" lon="2.63406">
        <ele>873.7</ele>
        <time>2018-11-26T03:22:55Z</time>
      </trkpt>
      <trkpt lat="42.37944" lon="2.63406">
        <ele>873.8</ele>
        <time>2018-11-26T03:22:55Z</time>
      </trkpt>
      <trkpt lat="42.37944" lon="2.63407">
        <ele>873.9</ele>
        <time>2018-11-26T03:22:55Z</time>
      </trkpt>
      <trkpt lat="42.37944" lon="2.63407">
        <ele>873.8</ele>
        <time>2018-11-26T03:22:56Z</time>
      </trkpt>
      <trkpt lat="42.37944" lon="2.63407">
        <ele>874</ele>
        <time>2018-11-26T03:22:56Z</time>
      </trkpt>
      <trkpt lat="42.37944" lon="2.63408">
        <ele>873.9</ele>
        <time>2018-11-26T03:22:56Z</time>
      </trkpt>
      <trkpt lat="42.37944" lon="2.63408">
        <ele>873.8</ele>
        <time>2018-11-26T03:22:56Z</time>
      </trkpt>
      <trkpt lat="42.37944" lon="2.63408">
        <ele>873.7</ele>
        <time>2018-11-26T03:22:56Z</time>
      </trkpt>
      <trkpt lat="42.37945" lon="2.63409">
        <ele>873.7</ele>
        <time>2018-11-26T03:22:56Z</time>
      </trkpt>
      <trkpt lat="42.37945" lon="2.63409">
        <ele>873.8</ele>
        <time>2018-11-26T03:22:56Z</time>
      </trkpt>
      <trkpt lat="42.37945" lon="2.63409">
        <ele>873.8</ele>
        <time>2018-11-26T03:22:56Z</time>
      </trkpt>
      <trkpt lat="42.37945" lon="2.6341">
        <ele>874</ele>
        <time>2018-11-26T03:22:57Z</time>
      </trkpt>
      <trkpt lat="42.37945" lon="2.6341">
        <ele>874.1</ele>
        <time>2018-11-26T03:22:57Z</time>
      </trkpt>
      <trkpt lat="42.37945" lon="2.63411">
        <ele>874.3</ele>
        <time>2018-11-26T03:22:57Z</time>
      </trkpt>
      <trkpt lat="42.37945" lon="2.63412">
        <ele>874.4</ele>
        <time>2018-11-26T03:22:57Z</time>
      </trkpt>
      <trkpt lat="42.37944" lon="2.63413">
        <ele>874.5</ele>
        <time>2018-11-26T03:22:58Z</time>
      </trkpt>
      <trkpt lat="42.37944" lon="2.63414">
        <ele>874.6</ele>
        <time>2018-11-26T03:22:58Z</time>
      </trkpt>
      <trkpt lat="42.37944" lon="2.63414">
        <ele>874.8</ele>
        <time>2018-11-26T03:22:58Z</time>
      </trkpt>
      <trkpt lat="42.37944" lon="2.63415">
        <ele>875.2</ele>
        <time>2018-11-26T03:22:58Z</time>
      </trkpt>
      <trkpt lat="42.37944" lon="2.63416">
        <ele>875.3</ele>
        <time>2018-11-26T03:22:58Z</time>
      </trkpt>
      <trkpt lat="42.37944" lon="2.63417">
        <ele>875.6</ele>
        <time>2018-11-26T03:22:59Z</time>
      </trkpt>
      <trkpt lat="42.37944" lon="2.63419">
        <ele>876</ele>
        <time>2018-11-26T03:22:59Z</time>
      </trkpt>
      <trkpt lat="42.37944" lon="2.6342">
        <ele>876</ele>
        <time>2018-11-26T03:23:00Z</time>
      </trkpt>
      <trkpt lat="42.37944" lon="2.63421">
        <ele>876</ele>
        <time>2018-11-26T03:23:00Z</time>
      </trkpt>
      <trkpt lat="42.37944" lon="2.63422">
        <ele>875.9</ele>
        <time>2018-11-26T03:23:00Z</time>
      </trkpt>
      <trkpt lat="42.37944" lon="2.63423">
        <ele>876</ele>
        <time>2018-11-26T03:23:01Z</time>
      </trkpt>
      <trkpt lat="42.37945" lon="2.63425">
        <ele>876.1</ele>
        <time>2018-11-26T03:23:01Z</time>
      </trkpt>
      <trkpt lat="42.37945" lon="2.63426">
        <ele>876.4</ele>
        <time>2018-11-26T03:23:02Z</time>
      </trkpt>
      <trkpt lat="42.37945" lon="2.63427">
        <ele>876.5</ele>
        <time>2018-11-26T03:23:02Z</time>
      </trkpt>
      <trkpt lat="42.37945" lon="2.63429">
        <ele>876.9</ele>
        <time>2018-11-26T03:23:02Z</time>
      </trkpt>
      <trkpt lat="42.37945" lon="2.6343">
        <ele>877.3</ele>
        <time>2018-11-26T03:23:03Z</time>
      </trkpt>
      <trkpt lat="42.37945" lon="2.63431">
        <ele>877.4</ele>
        <time>2018-11-26T03:23:03Z</time>
      </trkpt>
      <trkpt lat="42.37945" lon="2.63432">
        <ele>877.8</ele>
        <time>2018-11-26T03:23:03Z</time>
      </trkpt>
      <trkpt lat="42.37945" lon="2.63432">
        <ele>878.2</ele>
        <time>2018-11-26T03:23:03Z</time>
      </trkpt>
      <trkpt lat="42.37944" lon="2.63433">
        <ele>878.9</ele>
        <time>2018-11-26T03:23:04Z</time>
      </trkpt>
      <trkpt lat="42.37944" lon="2.63433">
        <ele>879</ele>
        <time>2018-11-26T03:23:04Z</time>
      </trkpt>
      <trkpt lat="42.37945" lon="2.63434">
        <ele>879.3</ele>
        <time>2018-11-26T03:23:04Z</time>
      </trkpt>
      <trkpt lat="42.37945" lon="2.63435">
        <ele>879.8</ele>
        <time>2018-11-26T03:23:04Z</time>
      </trkpt>
      <trkpt lat="42.37945" lon="2.63436">
        <ele>880</ele>
        <time>2018-11-26T03:23:05Z</time>
      </trkpt>
      <trkpt lat="42.37946" lon="2.63437">
        <ele>880.5</ele>
        <time>2018-11-26T03:23:05Z</time>
      </trkpt>
      <trkpt lat="42.37946" lon="2.63438">
        <ele>880.9</ele>
        <time>2018-11-26T03:23:05Z</time>
      </trkpt>
      <trkpt lat="42.37946" lon="2.63439">
        <ele>881</ele>
        <time>2018-11-26T03:23:06Z</time>
      </trkpt>
      <trkpt lat="42.37946" lon="2.6344">
        <ele>881</ele>
        <time>2018-11-26T03:23:06Z</time>
      </trkpt>
      <trkpt lat="42.37947" lon="2.63441">
        <ele>881</ele>
        <time>2018-11-26T03:23:06Z</time>
      </trkpt>
      <trkpt lat="42.37947" lon="2.63442">
        <ele>881</ele>
        <time>2018-11-26T03:23:07Z</time>
      </trkpt>
      <trkpt lat="42.37947" lon="2.63443">
        <ele>881.1</ele>
        <time>2018-11-26T03:23:07Z</time>
      </trkpt>
      <trkpt lat="42.37947" lon="2.63443">
        <ele>881.2</ele>
        <time>2018-11-26T03:23:07Z</time>
      </trkpt>
      <trkpt lat="42.37948" lon="2.63444">
        <ele>881.1</ele>
        <time>2018-11-26T03:23:07Z</time>
      </trkpt>
      <trkpt lat="42.37948" lon="2.63445">
        <ele>881</ele>
        <time>2018-11-26T03:23:08Z</time>
      </trkpt>
      <trkpt lat="42.37948" lon="2.63446">
        <ele>880.9</ele>
        <time>2018-11-26T03:23:08Z</time>
      </trkpt>
      <trkpt lat="42.37949" lon="2.63447">
        <ele>880.6</ele>
        <time>2018-11-26T03:23:08Z</time>
      </trkpt>
      <trkpt lat="42.37949" lon="2.63448">
        <ele>880.6</ele>
        <time>2018-11-26T03:23:09Z</time>
      </trkpt>
      <trkpt lat="42.37949" lon="2.63449">
        <ele>880.3</ele>
        <time>2018-11-26T03:23:09Z</time>
      </trkpt>
      <trkpt lat="42.3795" lon="2.6345">
        <ele>880</ele>
        <time>2018-11-26T03:23:09Z</time>
      </trkpt>
      <trkpt lat="42.3795" lon="2.63451">
        <ele>880</ele>
        <time>2018-11-26T03:23:10Z</time>
      </trkpt>
      <trkpt lat="42.3795" lon="2.63451">
        <ele>879.9</ele>
        <time>2018-11-26T03:23:10Z</time>
      </trkpt>
      <trkpt lat="42.3795" lon="2.63452">
        <ele>879.8</ele>
        <time>2018-11-26T03:23:10Z</time>
      </trkpt>
      <trkpt lat="42.3795" lon="2.63453">
        <ele>880.1</ele>
        <time>2018-11-26T03:23:10Z</time>
      </trkpt>
      <trkpt lat="42.37951" lon="2.63454">
        <ele>880.4</ele>
        <time>2018-11-26T03:23:11Z</time>
      </trkpt>
      <trkpt lat="42.37951" lon="2.63454">
        <ele>880.6</ele>
        <time>2018-11-26T03:23:11Z</time>
      </trkpt>
      <trkpt lat="42.37952" lon="2.63454">
        <ele>880.9</ele>
        <time>2018-11-26T03:23:11Z</time>
      </trkpt>
      <trkpt lat="42.37952" lon="2.63455">
        <ele>881.3</ele>
        <time>2018-11-26T03:23:11Z</time>
      </trkpt>
      <trkpt lat="42.37953" lon="2.63455">
        <ele>881.8</ele>
        <time>2018-11-26T03:23:12Z</time>
      </trkpt>
      <trkpt lat="42.37954" lon="2.63455">
        <ele>881.9</ele>
        <time>2018-11-26T03:23:12Z</time>
      </trkpt>
      <trkpt lat="42.37955" lon="2.63455">
        <ele>881.9</ele>
        <time>2018-11-26T03:23:12Z</time>
      </trkpt>
      <trkpt lat="42.37956" lon="2.63456">
        <ele>881.7</ele>
        <time>2018-11-26T03:23:13Z</time>
      </trkpt>
      <trkpt lat="42.37957" lon="2.63456">
        <ele>881.7</ele>
        <time>2018-11-26T03:23:13Z</time>
      </trkpt>
      <trkpt lat="42.37958" lon="2.63456">
        <ele>881.8</ele>
        <time>2018-11-26T03:23:13Z</time>
      </trkpt>
      <trkpt lat="42.37959" lon="2.63456">
        <ele>882.1</ele>
        <time>2018-11-26T03:23:14Z</time>
      </trkpt>
      <trkpt lat="42.3796" lon="2.63457">
        <ele>882.2</ele>
        <time>2018-11-26T03:23:14Z</time>
      </trkpt>
      <trkpt lat="42.37961" lon="2.63457">
        <ele>882.2</ele>
        <time>2018-11-26T03:23:15Z</time>
      </trkpt>
      <trkpt lat="42.37962" lon="2.63458">
        <ele>882.2</ele>
        <time>2018-11-26T03:23:15Z</time>
      </trkpt>
      <trkpt lat="42.37963" lon="2.63458">
        <ele>882.2</ele>
        <time>2018-11-26T03:23:16Z</time>
      </trkpt>
      <trkpt lat="42.37964" lon="2.63458">
        <ele>882</ele>
        <time>2018-11-26T03:23:16Z</time>
      </trkpt>
      <trkpt lat="42.37965" lon="2.63458">
        <ele>881.8</ele>
        <time>2018-11-26T03:23:17Z</time>
      </trkpt>
      <trkpt lat="42.37966" lon="2.63458">
        <ele>881.3</ele>
        <time>2018-11-26T03:23:17Z</time>
      </trkpt>
      <trkpt lat="42.37967" lon="2.63459">
        <ele>881.2</ele>
        <time>2018-11-26T03:23:17Z</time>
      </trkpt>
      <trkpt lat="42.37968" lon="2.63459">
        <ele>881.3</ele>
        <time>2018-11-26T03:23:18Z</time>
      </trkpt>
      <trkpt lat="42.37969" lon="2.63459">
        <ele>881.2</ele>
        <time>2018-11-26T03:23:18Z</time>
      </trkpt>
      <trkpt lat="42.3797" lon="2.6346">
        <ele>881.3</ele>
        <time>2018-11-26T03:23:19Z</time>
      </trkpt>
      <trkpt lat="42.37971" lon="2.6346">
        <ele>881.3</ele>
        <time>2018-11-26T03:23:19Z</time>
      </trkpt>
      <trkpt lat="42.37973" lon="2.6346">
        <ele>881.3</ele>
        <time>2018-11-26T03:23:20Z</time>
      </trkpt>
      <trkpt lat="42.37974" lon="2.63461">
        <ele>881.3</ele>
        <time>2018-11-26T03:23:20Z</time>
      </trkpt>
      <trkpt lat="42.37975" lon="2.63461">
        <ele>881.4</ele>
        <time>2018-11-26T03:23:20Z</time>
      </trkpt>
      <trkpt lat="42.37976" lon="2.63462">
        <ele>881.3</ele>
        <time>2018-11-26T03:23:21Z</time>
      </trkpt>
      <trkpt lat="42.37977" lon="2.63462">
        <ele>881.3</ele>
        <time>2018-11-26T03:23:21Z</time>
      </trkpt>
      <trkpt lat="42.37978" lon="2.63463">
        <ele>881.4</ele>
        <time>2018-11-26T03:23:22Z</time>
      </trkpt>
      <trkpt lat="42.37979" lon="2.63463">
        <ele>881.7</ele>
        <time>2018-11-26T03:23:22Z</time>
      </trkpt>
      <trkpt lat="42.3798" lon="2.63464">
        <ele>881.9</ele>
        <time>2018-11-26T03:23:23Z</time>
      </trkpt>
      <trkpt lat="42.37981" lon="2.63464">
        <ele>882</ele>
        <time>2018-11-26T03:23:23Z</time>
      </trkpt>
      <trkpt lat="42.37982" lon="2.63464">
        <ele>882.1</ele>
        <time>2018-11-26T03:23:24Z</time>
      </trkpt>
      <trkpt lat="42.37984" lon="2.63465">
        <ele>882.3</ele>
        <time>2018-11-26T03:23:24Z</time>
      </trkpt>
      <trkpt lat="42.37985" lon="2.63465">
        <ele>882.2</ele>
        <time>2018-11-26T03:23:25Z</time>
      </trkpt>
      <trkpt lat="42.37986" lon="2.63466">
        <ele>882.3</ele>
        <time>2018-11-26T03:23:25Z</time>
      </trkpt>
      <trkpt lat="42.37987" lon="2.63466">
        <ele>882.4</ele>
        <time>2018-11-26T03:23:26Z</time>
      </trkpt>
      <trkpt lat="42.37988" lon="2.63467">
        <ele>882.5</ele>
        <time>2018-11-26T03:23:26Z</time>
      </trkpt>
      <trkpt lat="42.37989" lon="2.63467">
        <ele>882.7</ele>
        <time>2018-11-26T03:23:26Z</time>
      </trkpt>
      <trkpt lat="42.3799" lon="2.63468">
        <ele>883.1</ele>
        <time>2018-11-26T03:23:27Z</time>
      </trkpt>
      <trkpt lat="42.37991" lon="2.63469">
        <ele>883.5</ele>
        <time>2018-11-26T03:23:27Z</time>
      </trkpt>
      <trkpt lat="42.37992" lon="2.63469">
        <ele>883.4</ele>
        <time>2018-11-26T03:23:28Z</time>
      </trkpt>
      <trkpt lat="42.37992" lon="2.6347">
        <ele>883.2</ele>
        <time>2018-11-26T03:23:28Z</time>
      </trkpt>
      <trkpt lat="42.37993" lon="2.6347">
        <ele>882.9</ele>
        <time>2018-11-26T03:23:28Z</time>
      </trkpt>
      <trkpt lat="42.37994" lon="2.6347">
        <ele>883</ele>
        <time>2018-11-26T03:23:29Z</time>
      </trkpt>
      <trkpt lat="42.37995" lon="2.63471">
        <ele>883</ele>
        <time>2018-11-26T03:23:29Z</time>
      </trkpt>
      <trkpt lat="42.37996" lon="2.63471">
        <ele>883.1</ele>
        <time>2018-11-26T03:23:30Z</time>
      </trkpt>
      <trkpt lat="42.37997" lon="2.63471">
        <ele>882.9</ele>
        <time>2018-11-26T03:23:30Z</time>
      </trkpt>
      <trkpt lat="42.37998" lon="2.63472">
        <ele>882.8</ele>
        <time>2018-11-26T03:23:31Z</time>
      </trkpt>
      <trkpt lat="42.37999" lon="2.63472">
        <ele>882.6</ele>
        <time>2018-11-26T03:23:31Z</time>
      </trkpt>
      <trkpt lat="42.38" lon="2.63473">
        <ele>882.8</ele>
        <time>2018-11-26T03:23:31Z</time>
      </trkpt>
      <trkpt lat="42.38001" lon="2.63473">
        <ele>883</ele>
        <time>2018-11-26T03:23:32Z</time>
      </trkpt>
      <trkpt lat="42.38002" lon="2.63474">
        <ele>883.1</ele>
        <time>2018-11-26T03:23:32Z</time>
      </trkpt>
      <trkpt lat="42.38003" lon="2.63475">
        <ele>883.1</ele>
        <time>2018-11-26T03:23:32Z</time>
      </trkpt>
      <trkpt lat="42.38003" lon="2.63475">
        <ele>883.3</ele>
        <time>2018-11-26T03:23:33Z</time>
      </trkpt>
      <trkpt lat="42.38004" lon="2.63476">
        <ele>883.2</ele>
        <time>2018-11-26T03:23:33Z</time>
      </trkpt>
      <trkpt lat="42.38005" lon="2.63476">
        <ele>883.2</ele>
        <time>2018-11-26T03:23:33Z</time>
      </trkpt>
      <trkpt lat="42.38005" lon="2.63477">
        <ele>883.3</ele>
        <time>2018-11-26T03:23:34Z</time>
      </trkpt>
      <trkpt lat="42.38006" lon="2.63478">
        <ele>883.4</ele>
        <time>2018-11-26T03:23:34Z</time>
      </trkpt>
      <trkpt lat="42.38007" lon="2.63479">
        <ele>883.5</ele>
        <time>2018-11-26T03:23:35Z</time>
      </trkpt>
      <trkpt lat="42.38007" lon="2.63479">
        <ele>883.7</ele>
        <time>2018-11-26T03:23:35Z</time>
      </trkpt>
      <trkpt lat="42.38008" lon="2.6348">
        <ele>883.8</ele>
        <time>2018-11-26T03:23:35Z</time>
      </trkpt>
      <trkpt lat="42.38008" lon="2.63481">
        <ele>884</ele>
        <time>2018-11-26T03:23:35Z</time>
      </trkpt>
      <trkpt lat="42.38009" lon="2.63481">
        <ele>883.8</ele>
        <time>2018-11-26T03:23:36Z</time>
      </trkpt>
      <trkpt lat="42.3801" lon="2.63482">
        <ele>883.8</ele>
        <time>2018-11-26T03:23:36Z</time>
      </trkpt>
      <trkpt lat="42.3801" lon="2.63482">
        <ele>883.6</ele>
        <time>2018-11-26T03:23:36Z</time>
      </trkpt>
      <trkpt lat="42.38011" lon="2.63483">
        <ele>883.8</ele>
        <time>2018-11-26T03:23:37Z</time>
      </trkpt>
      <trkpt lat="42.38012" lon="2.63484">
        <ele>884</ele>
        <time>2018-11-26T03:23:37Z</time>
      </trkpt>
      <trkpt lat="42.38012" lon="2.63484">
        <ele>884.4</ele>
        <time>2018-11-26T03:23:37Z</time>
      </trkpt>
      <trkpt lat="42.38013" lon="2.63485">
        <ele>884.6</ele>
        <time>2018-11-26T03:23:37Z</time>
      </trkpt>
      <trkpt lat="42.38013" lon="2.63485">
        <ele>884.5</ele>
        <time>2018-11-26T03:23:38Z</time>
      </trkpt>
      <trkpt lat="42.38014" lon="2.63486">
        <ele>884.7</ele>
        <time>2018-11-26T03:23:38Z</time>
      </trkpt>
      <trkpt lat="42.38014" lon="2.63487">
        <ele>884.9</ele>
        <time>2018-11-26T03:23:38Z</time>
      </trkpt>
      <trkpt lat="42.38015" lon="2.63487">
        <ele>885</ele>
        <time>2018-11-26T03:23:39Z</time>
      </trkpt>
      <trkpt lat="42.38016" lon="2.63488">
        <ele>885.3</ele>
        <time>2018-11-26T03:23:39Z</time>
      </trkpt>
      <trkpt lat="42.38016" lon="2.63489">
        <ele>885.7</ele>
        <time>2018-11-26T03:23:39Z</time>
      </trkpt>
      <trkpt lat="42.38016" lon="2.6349">
        <ele>885.7</ele>
        <time>2018-11-26T03:23:40Z</time>
      </trkpt>
      <trkpt lat="42.38016" lon="2.6349">
        <ele>885.6</ele>
        <time>2018-11-26T03:23:40Z</time>
      </trkpt>
      <trkpt lat="42.38017" lon="2.63491">
        <ele>885.6</ele>
        <time>2018-11-26T03:23:40Z</time>
      </trkpt>
      <trkpt lat="42.38017" lon="2.63492">
        <ele>885.8</ele>
        <time>2018-11-26T03:23:40Z</time>
      </trkpt>
      <trkpt lat="42.38018" lon="2.63493">
        <ele>886.1</ele>
        <time>2018-11-26T03:23:41Z</time>
      </trkpt>
      <trkpt lat="42.38018" lon="2.63494">
        <ele>886.6</ele>
        <time>2018-11-26T03:23:41Z</time>
      </trkpt>
      <trkpt lat="42.38019" lon="2.63494">
        <ele>886.7</ele>
        <time>2018-11-26T03:23:41Z</time>
      </trkpt>
      <trkpt lat="42.38019" lon="2.63495">
        <ele>887.2</ele>
        <time>2018-11-26T03:23:42Z</time>
      </trkpt>
      <trkpt lat="42.3802" lon="2.63496">
        <ele>887.6</ele>
        <time>2018-11-26T03:23:42Z</time>
      </trkpt>
      <trkpt lat="42.3802" lon="2.63497">
        <ele>887.5</ele>
        <time>2018-11-26T03:23:42Z</time>
      </trkpt>
      <trkpt lat="42.38021" lon="2.63498">
        <ele>887.4</ele>
        <time>2018-11-26T03:23:43Z</time>
      </trkpt>
      <trkpt lat="42.38022" lon="2.63499">
        <ele>887.3</ele>
        <time>2018-11-26T03:23:43Z</time>
      </trkpt>
      <trkpt lat="42.38022" lon="2.63501">
        <ele>887.5</ele>
        <time>2018-11-26T03:23:44Z</time>
      </trkpt>
      <trkpt lat="42.38023" lon="2.63502">
        <ele>887.8</ele>
        <time>2018-11-26T03:23:44Z</time>
      </trkpt>
      <trkpt lat="42.38023" lon="2.63503">
        <ele>888.1</ele>
        <time>2018-11-26T03:23:44Z</time>
      </trkpt>
      <trkpt lat="42.38023" lon="2.63504">
        <ele>888.4</ele>
        <time>2018-11-26T03:23:45Z</time>
      </trkpt>
      <trkpt lat="42.38023" lon="2.63505">
        <ele>888.6</ele>
        <time>2018-11-26T03:23:45Z</time>
      </trkpt>
      <trkpt lat="42.38023" lon="2.63506">
        <ele>888.6</ele>
        <time>2018-11-26T03:23:45Z</time>
      </trkpt>
      <trkpt lat="42.38023" lon="2.63507">
        <ele>888.8</ele>
        <time>2018-11-26T03:23:46Z</time>
      </trkpt>
      <trkpt lat="42.38024" lon="2.63508">
        <ele>888.9</ele>
        <time>2018-11-26T03:23:46Z</time>
      </trkpt>
      <trkpt lat="42.38024" lon="2.63509">
        <ele>889.1</ele>
        <time>2018-11-26T03:23:46Z</time>
      </trkpt>
      <trkpt lat="42.38025" lon="2.63511">
        <ele>889.3</ele>
        <time>2018-11-26T03:23:47Z</time>
      </trkpt>
      <trkpt lat="42.38025" lon="2.63512">
        <ele>889.5</ele>
        <time>2018-11-26T03:23:47Z</time>
      </trkpt>
      <trkpt lat="42.38025" lon="2.63513">
        <ele>889.7</ele>
        <time>2018-11-26T03:23:48Z</time>
      </trkpt>
      <trkpt lat="42.38025" lon="2.63514">
        <ele>890</ele>
        <time>2018-11-26T03:23:48Z</time>
      </trkpt>
      <trkpt lat="42.38026" lon="2.63515">
        <ele>889.9</ele>
        <time>2018-11-26T03:23:48Z</time>
      </trkpt>
      <trkpt lat="42.38026" lon="2.63516">
        <ele>889.7</ele>
        <time>2018-11-26T03:23:49Z</time>
      </trkpt>
      <trkpt lat="42.38026" lon="2.63517">
        <ele>889.6</ele>
        <time>2018-11-26T03:23:49Z</time>
      </trkpt>
      <trkpt lat="42.38027" lon="2.63518">
        <ele>889.8</ele>
        <time>2018-11-26T03:23:49Z</time>
      </trkpt>
      <trkpt lat="42.38027" lon="2.63519">
        <ele>889.9</ele>
        <time>2018-11-26T03:23:50Z</time>
      </trkpt>
      <trkpt lat="42.38027" lon="2.6352">
        <ele>890.1</ele>
        <time>2018-11-26T03:23:50Z</time>
      </trkpt>
      <trkpt lat="42.38028" lon="2.63521">
        <ele>890.3</ele>
        <time>2018-11-26T03:23:50Z</time>
      </trkpt>
      <trkpt lat="42.38028" lon="2.63522">
        <ele>890.5</ele>
        <time>2018-11-26T03:23:50Z</time>
      </trkpt>
      <trkpt lat="42.38028" lon="2.63522">
        <ele>890.7</ele>
        <time>2018-11-26T03:23:51Z</time>
      </trkpt>
      <trkpt lat="42.38028" lon="2.63523">
        <ele>891.2</ele>
        <time>2018-11-26T03:23:51Z</time>
      </trkpt>
      <trkpt lat="42.38029" lon="2.63524">
        <ele>891.1</ele>
        <time>2018-11-26T03:23:51Z</time>
      </trkpt>
      <trkpt lat="42.38029" lon="2.63525">
        <ele>891.1</ele>
        <time>2018-11-26T03:23:52Z</time>
      </trkpt>
      <trkpt lat="42.38029" lon="2.63526">
        <ele>891.1</ele>
        <time>2018-11-26T03:23:52Z</time>
      </trkpt>
      <trkpt lat="42.3803" lon="2.63527">
        <ele>891</ele>
        <time>2018-11-26T03:23:52Z</time>
      </trkpt>
      <trkpt lat="42.3803" lon="2.63528">
        <ele>890.9</ele>
        <time>2018-11-26T03:23:53Z</time>
      </trkpt>
      <trkpt lat="42.3803" lon="2.63529">
        <ele>891</ele>
        <time>2018-11-26T03:23:53Z</time>
      </trkpt>
      <trkpt lat="42.3803" lon="2.6353">
        <ele>891.2</ele>
        <time>2018-11-26T03:23:53Z</time>
      </trkpt>
      <trkpt lat="42.38031" lon="2.63531">
        <ele>891.5</ele>
        <time>2018-11-26T03:23:53Z</time>
      </trkpt>
      <trkpt lat="42.38031" lon="2.63532">
        <ele>892</ele>
        <time>2018-11-26T03:23:54Z</time>
      </trkpt>
      <trkpt lat="42.38031" lon="2.63533">
        <ele>892.1</ele>
        <time>2018-11-26T03:23:54Z</time>
      </trkpt>
      <trkpt lat="42.38032" lon="2.63534">
        <ele>892</ele>
        <time>2018-11-26T03:23:54Z</time>
      </trkpt>
      <trkpt lat="42.38032" lon="2.63535">
        <ele>892.1</ele>
        <time>2018-11-26T03:23:55Z</time>
      </trkpt>
      <trkpt lat="42.38033" lon="2.63536">
        <ele>892.1</ele>
        <time>2018-11-26T03:23:55Z</time>
      </trkpt>
      <trkpt lat="42.38033" lon="2.63539">
        <ele>891.8</ele>
        <time>2018-11-26T03:23:56Z</time>
      </trkpt>
      <trkpt lat="42.38033" lon="2.6354">
        <ele>891.8</ele>
        <time>2018-11-26T03:23:56Z</time>
      </trkpt>
      <trkpt lat="42.38033" lon="2.63541">
        <ele>892</ele>
        <time>2018-11-26T03:23:57Z</time>
      </trkpt>
      <trkpt lat="42.38033" lon="2.63542">
        <ele>892.3</ele>
        <time>2018-11-26T03:23:57Z</time>
      </trkpt>
      <trkpt lat="42.38033" lon="2.63543">
        <ele>892.7</ele>
        <time>2018-11-26T03:23:57Z</time>
      </trkpt>
      <trkpt lat="42.38033" lon="2.63544">
        <ele>892.7</ele>
        <time>2018-11-26T03:23:58Z</time>
      </trkpt>
      <trkpt lat="42.38033" lon="2.63546">
        <ele>892.7</ele>
        <time>2018-11-26T03:23:58Z</time>
      </trkpt>
      <trkpt lat="42.38033" lon="2.63547">
        <ele>892.5</ele>
        <time>2018-11-26T03:23:58Z</time>
      </trkpt>
      <trkpt lat="42.38033" lon="2.63547">
        <ele>892.5</ele>
        <time>2018-11-26T03:23:59Z</time>
      </trkpt>
      <trkpt lat="42.38033" lon="2.63548">
        <ele>892.6</ele>
        <time>2018-11-26T03:23:59Z</time>
      </trkpt>
      <trkpt lat="42.38033" lon="2.63549">
        <ele>892.9</ele>
        <time>2018-11-26T03:23:59Z</time>
      </trkpt>
      <trkpt lat="42.38034" lon="2.6355">
        <ele>893</ele>
        <time>2018-11-26T03:23:59Z</time>
      </trkpt>
      <trkpt lat="42.38034" lon="2.6355">
        <ele>893.1</ele>
        <time>2018-11-26T03:23:59Z</time>
      </trkpt>
      <trkpt lat="42.38034" lon="2.63551">
        <ele>892.5</ele>
        <time>2018-11-26T03:24:00Z</time>
      </trkpt>
      <trkpt lat="42.38034" lon="2.63552">
        <ele>892.8</ele>
        <time>2018-11-26T03:24:00Z</time>
      </trkpt>
      <trkpt lat="42.38033" lon="2.63552">
        <ele>892.9</ele>
        <time>2018-11-26T03:24:00Z</time>
      </trkpt>
      <trkpt lat="42.38033" lon="2.63552">
        <ele>893.2</ele>
        <time>2018-11-26T03:24:00Z</time>
      </trkpt>
      <trkpt lat="42.38032" lon="2.63553">
        <ele>893.2</ele>
        <time>2018-11-26T03:24:01Z</time>
      </trkpt>
      <trkpt lat="42.3803" lon="2.63555">
        <ele>892.9</ele>
        <time>2018-11-26T03:24:02Z</time>
      </trkpt>
      <trkpt lat="42.38029" lon="2.63555">
        <ele>892.8</ele>
        <time>2018-11-26T03:24:02Z</time>
      </trkpt>
      <trkpt lat="42.38028" lon="2.63556">
        <ele>892.6</ele>
        <time>2018-11-26T03:24:03Z</time>
      </trkpt>
      <trkpt lat="42.38027" lon="2.63557">
        <ele>892.6</ele>
        <time>2018-11-26T03:24:03Z</time>
      </trkpt>
      <trkpt lat="42.38018" lon="2.63564">
        <ele>892.7</ele>
        <time>2018-11-26T03:24:07Z</time>
      </trkpt>
      <trkpt lat="42.38018" lon="2.63564">
        <ele>892.7</ele>
        <time>2018-11-26T03:24:07Z</time>
      </trkpt>
      <trkpt lat="42.38018" lon="2.63565">
        <ele>892.9</ele>
        <time>2018-11-26T03:24:08Z</time>
      </trkpt>
      <trkpt lat="42.38017" lon="2.63566">
        <ele>893.2</ele>
        <time>2018-11-26T03:24:08Z</time>
      </trkpt>
      <trkpt lat="42.38017" lon="2.63566">
        <ele>893.2</ele>
        <time>2018-11-26T03:24:08Z</time>
      </trkpt>
      <trkpt lat="42.38016" lon="2.63567">
        <ele>893.3</ele>
        <time>2018-11-26T03:24:08Z</time>
      </trkpt>
      <trkpt lat="42.38016" lon="2.63568">
        <ele>893.5</ele>
        <time>2018-11-26T03:24:09Z</time>
      </trkpt>
      <trkpt lat="42.38015" lon="2.63568">
        <ele>893.6</ele>
        <time>2018-11-26T03:24:09Z</time>
      </trkpt>
      <trkpt lat="42.38015" lon="2.63569">
        <ele>893.6</ele>
        <time>2018-11-26T03:24:09Z</time>
      </trkpt>
      <trkpt lat="42.38014" lon="2.63571">
        <ele>893.7</ele>
        <time>2018-11-26T03:24:10Z</time>
      </trkpt>
      <trkpt lat="42.38014" lon="2.63572">
        <ele>893.7</ele>
        <time>2018-11-26T03:24:10Z</time>
      </trkpt>
      <trkpt lat="42.38013" lon="2.63574">
        <ele>893.8</ele>
        <time>2018-11-26T03:24:11Z</time>
      </trkpt>
      <trkpt lat="42.38013" lon="2.63575">
        <ele>894</ele>
        <time>2018-11-26T03:24:11Z</time>
      </trkpt>
      <trkpt lat="42.38013" lon="2.63576">
        <ele>894</ele>
        <time>2018-11-26T03:24:12Z</time>
      </trkpt>
      <trkpt lat="42.38012" lon="2.63578">
        <ele>894.2</ele>
        <time>2018-11-26T03:24:12Z</time>
      </trkpt>
      <trkpt lat="42.38012" lon="2.63579">
        <ele>894.4</ele>
        <time>2018-11-26T03:24:12Z</time>
      </trkpt>
      <trkpt lat="42.38011" lon="2.6358">
        <ele>894.6</ele>
        <time>2018-11-26T03:24:13Z</time>
      </trkpt>
      <trkpt lat="42.38011" lon="2.63582">
        <ele>894.7</ele>
        <time>2018-11-26T03:24:13Z</time>
      </trkpt>
      <trkpt lat="42.3801" lon="2.63583">
        <ele>894.8</ele>
        <time>2018-11-26T03:24:14Z</time>
      </trkpt>
      <trkpt lat="42.3801" lon="2.63584">
        <ele>895.1</ele>
        <time>2018-11-26T03:24:14Z</time>
      </trkpt>
      <trkpt lat="42.3801" lon="2.63586">
        <ele>895.5</ele>
        <time>2018-11-26T03:24:15Z</time>
      </trkpt>
      <trkpt lat="42.38009" lon="2.63587">
        <ele>896</ele>
        <time>2018-11-26T03:24:15Z</time>
      </trkpt>
      <trkpt lat="42.38009" lon="2.63589">
        <ele>896.7</ele>
        <time>2018-11-26T03:24:16Z</time>
      </trkpt>
      <trkpt lat="42.38009" lon="2.6359">
        <ele>896.7</ele>
        <time>2018-11-26T03:24:16Z</time>
      </trkpt>
      <trkpt lat="42.38008" lon="2.63591">
        <ele>896.6</ele>
        <time>2018-11-26T03:24:16Z</time>
      </trkpt>
      <trkpt lat="42.38008" lon="2.63593">
        <ele>896.6</ele>
        <time>2018-11-26T03:24:17Z</time>
      </trkpt>
      <trkpt lat="42.38008" lon="2.63594">
        <ele>896.6</ele>
        <time>2018-11-26T03:24:17Z</time>
      </trkpt>
      <trkpt lat="42.38008" lon="2.63594">
        <ele>896.6</ele>
        <time>2018-11-26T03:24:17Z</time>
      </trkpt>
      <trkpt lat="42.38008" lon="2.63595">
        <ele>896.5</ele>
        <time>2018-11-26T03:24:18Z</time>
      </trkpt>
      <trkpt lat="42.38007" lon="2.63597">
        <ele>896.6</ele>
        <time>2018-11-26T03:24:18Z</time>
      </trkpt>
      <trkpt lat="42.38007" lon="2.63598">
        <ele>896.8</ele>
        <time>2018-11-26T03:24:18Z</time>
      </trkpt>
      <trkpt lat="42.38007" lon="2.63599">
        <ele>897.1</ele>
        <time>2018-11-26T03:24:19Z</time>
      </trkpt>
      <trkpt lat="42.38007" lon="2.636">
        <ele>897.4</ele>
        <time>2018-11-26T03:24:19Z</time>
      </trkpt>
      <trkpt lat="42.38007" lon="2.63602">
        <ele>897.7</ele>
        <time>2018-11-26T03:24:20Z</time>
      </trkpt>
      <trkpt lat="42.38006" lon="2.63603">
        <ele>898.2</ele>
        <time>2018-11-26T03:24:20Z</time>
      </trkpt>
      <trkpt lat="42.38006" lon="2.63604">
        <ele>898.6</ele>
        <time>2018-11-26T03:24:20Z</time>
      </trkpt>
      <trkpt lat="42.38006" lon="2.63605">
        <ele>898.8</ele>
        <time>2018-11-26T03:24:21Z</time>
      </trkpt>
      <trkpt lat="42.38006" lon="2.63606">
        <ele>898.9</ele>
        <time>2018-11-26T03:24:21Z</time>
      </trkpt>
      <trkpt lat="42.38006" lon="2.63607">
        <ele>899</ele>
        <time>2018-11-26T03:24:21Z</time>
      </trkpt>
      <trkpt lat="42.38005" lon="2.63609">
        <ele>899.4</ele>
        <time>2018-11-26T03:24:22Z</time>
      </trkpt>
      <trkpt lat="42.38005" lon="2.6361">
        <ele>899.8</ele>
        <time>2018-11-26T03:24:22Z</time>
      </trkpt>
      <trkpt lat="42.38005" lon="2.63611">
        <ele>900.3</ele>
        <time>2018-11-26T03:24:23Z</time>
      </trkpt>
      <trkpt lat="42.38004" lon="2.63612">
        <ele>900.5</ele>
        <time>2018-11-26T03:24:23Z</time>
      </trkpt>
      <trkpt lat="42.38004" lon="2.63613">
        <ele>900.7</ele>
        <time>2018-11-26T03:24:23Z</time>
      </trkpt>
      <trkpt lat="42.38003" lon="2.63614">
        <ele>901</ele>
        <time>2018-11-26T03:24:24Z</time>
      </trkpt>
      <trkpt lat="42.38002" lon="2.63615">
        <ele>901.3</ele>
        <time>2018-11-26T03:24:24Z</time>
      </trkpt>
      <trkpt lat="42.38002" lon="2.63617">
        <ele>901.6</ele>
        <time>2018-11-26T03:24:25Z</time>
      </trkpt>
      <trkpt lat="42.38001" lon="2.63618">
        <ele>902</ele>
        <time>2018-11-26T03:24:25Z</time>
      </trkpt>
      <trkpt lat="42.38001" lon="2.63619">
        <ele>902.4</ele>
        <time>2018-11-26T03:24:25Z</time>
      </trkpt>
      <trkpt lat="42.38001" lon="2.6362">
        <ele>902.4</ele>
        <time>2018-11-26T03:24:26Z</time>
      </trkpt>
      <trkpt lat="42.38" lon="2.63621">
        <ele>902.5</ele>
        <time>2018-11-26T03:24:26Z</time>
      </trkpt>
      <trkpt lat="42.38" lon="2.63622">
        <ele>902.5</ele>
        <time>2018-11-26T03:24:26Z</time>
      </trkpt>
      <trkpt lat="42.38" lon="2.63624">
        <ele>902.8</ele>
        <time>2018-11-26T03:24:27Z</time>
      </trkpt>
      <trkpt lat="42.37999" lon="2.63625">
        <ele>903.2</ele>
        <time>2018-11-26T03:24:27Z</time>
      </trkpt>
      <trkpt lat="42.37999" lon="2.63627">
        <ele>903.9</ele>
        <time>2018-11-26T03:24:28Z</time>
      </trkpt>
      <trkpt lat="42.37999" lon="2.63628">
        <ele>903.9</ele>
        <time>2018-11-26T03:24:28Z</time>
      </trkpt>
      <trkpt lat="42.37998" lon="2.63629">
        <ele>904.1</ele>
        <time>2018-11-26T03:24:29Z</time>
      </trkpt>
      <trkpt lat="42.37998" lon="2.63631">
        <ele>904.2</ele>
        <time>2018-11-26T03:24:29Z</time>
      </trkpt>
      <trkpt lat="42.37998" lon="2.63632">
        <ele>904.1</ele>
        <time>2018-11-26T03:24:30Z</time>
      </trkpt>
      <trkpt lat="42.37997" lon="2.63634">
        <ele>903.9</ele>
        <time>2018-11-26T03:24:30Z</time>
      </trkpt>
      <trkpt lat="42.37997" lon="2.63635">
        <ele>903.7</ele>
        <time>2018-11-26T03:24:31Z</time>
      </trkpt>
      <trkpt lat="42.37996" lon="2.63637">
        <ele>903.9</ele>
        <time>2018-11-26T03:24:31Z</time>
      </trkpt>
      <trkpt lat="42.37997" lon="2.6364">
        <ele>904.4</ele>
        <time>2018-11-26T03:24:32Z</time>
      </trkpt>
      <trkpt lat="42.37997" lon="2.63642">
        <ele>904.8</ele>
        <time>2018-11-26T03:24:32Z</time>
      </trkpt>
      <trkpt lat="42.37997" lon="2.63643">
        <ele>904.9</ele>
        <time>2018-11-26T03:24:33Z</time>
      </trkpt>
      <trkpt lat="42.37997" lon="2.63645">
        <ele>905</ele>
        <time>2018-11-26T03:24:33Z</time>
      </trkpt>
      <trkpt lat="42.37997" lon="2.63646">
        <ele>905</ele>
        <time>2018-11-26T03:24:34Z</time>
      </trkpt>
      <trkpt lat="42.37997" lon="2.63648">
        <ele>905.2</ele>
        <time>2018-11-26T03:24:34Z</time>
      </trkpt>
      <trkpt lat="42.37996" lon="2.63649">
        <ele>905.5</ele>
        <time>2018-11-26T03:24:35Z</time>
      </trkpt>
      <trkpt lat="42.37996" lon="2.63651">
        <ele>905.7</ele>
        <time>2018-11-26T03:24:35Z</time>
      </trkpt>
      <trkpt lat="42.37996" lon="2.63652">
        <ele>906</ele>
        <time>2018-11-26T03:24:35Z</time>
      </trkpt>
      <trkpt lat="42.37996" lon="2.63653">
        <ele>906.1</ele>
        <time>2018-11-26T03:24:36Z</time>
      </trkpt>
      <trkpt lat="42.37995" lon="2.63656">
        <ele>906.6</ele>
        <time>2018-11-26T03:24:37Z</time>
      </trkpt>
      <trkpt lat="42.37994" lon="2.63658">
        <ele>906.9</ele>
        <time>2018-11-26T03:24:37Z</time>
      </trkpt>
      <trkpt lat="42.37994" lon="2.63659">
        <ele>907.2</ele>
        <time>2018-11-26T03:24:38Z</time>
      </trkpt>
      <trkpt lat="42.37993" lon="2.6366">
        <ele>907.2</ele>
        <time>2018-11-26T03:24:38Z</time>
      </trkpt>
      <trkpt lat="42.37993" lon="2.6366">
        <ele>907.2</ele>
        <time>2018-11-26T03:24:38Z</time>
      </trkpt>
      <trkpt lat="42.37993" lon="2.63661">
        <ele>907.2</ele>
        <time>2018-11-26T03:24:39Z</time>
      </trkpt>
      <trkpt lat="42.37993" lon="2.63662">
        <ele>907.4</ele>
        <time>2018-11-26T03:24:39Z</time>
      </trkpt>
      <trkpt lat="42.37992" lon="2.63664">
        <ele>907.2</ele>
        <time>2018-11-26T03:24:39Z</time>
      </trkpt>
      <trkpt lat="42.37992" lon="2.63665">
        <ele>907</ele>
        <time>2018-11-26T03:24:40Z</time>
      </trkpt>
      <trkpt lat="42.37992" lon="2.63666">
        <ele>906.7</ele>
        <time>2018-11-26T03:24:40Z</time>
      </trkpt>
      <trkpt lat="42.37991" lon="2.63667">
        <ele>906.7</ele>
        <time>2018-11-26T03:24:40Z</time>
      </trkpt>
      <trkpt lat="42.37991" lon="2.63668">
        <ele>906.9</ele>
        <time>2018-11-26T03:24:41Z</time>
      </trkpt>
      <trkpt lat="42.3799" lon="2.63669">
        <ele>907</ele>
        <time>2018-11-26T03:24:41Z</time>
      </trkpt>
      <trkpt lat="42.37989" lon="2.6367">
        <ele>906.8</ele>
        <time>2018-11-26T03:24:42Z</time>
      </trkpt>
      <trkpt lat="42.37989" lon="2.63671">
        <ele>906.7</ele>
        <time>2018-11-26T03:24:42Z</time>
      </trkpt>
      <trkpt lat="42.37988" lon="2.63672">
        <ele>906.4</ele>
        <time>2018-11-26T03:24:42Z</time>
      </trkpt>
      <trkpt lat="42.37987" lon="2.63673">
        <ele>906.4</ele>
        <time>2018-11-26T03:24:43Z</time>
      </trkpt>
      <trkpt lat="42.37987" lon="2.63674">
        <ele>906.6</ele>
        <time>2018-11-26T03:24:43Z</time>
      </trkpt>
      <trkpt lat="42.37987" lon="2.63675">
        <ele>906.7</ele>
        <time>2018-11-26T03:24:43Z</time>
      </trkpt>
      <trkpt lat="42.37987" lon="2.63676">
        <ele>906.8</ele>
        <time>2018-11-26T03:24:44Z</time>
      </trkpt>
      <trkpt lat="42.37987" lon="2.63677">
        <ele>906.8</ele>
        <time>2018-11-26T03:24:44Z</time>
      </trkpt>
      <trkpt lat="42.37987" lon="2.63677">
        <ele>907</ele>
        <time>2018-11-26T03:24:44Z</time>
      </trkpt>
      <trkpt lat="42.37986" lon="2.63678">
        <ele>907.2</ele>
        <time>2018-11-26T03:24:44Z</time>
      </trkpt>
      <trkpt lat="42.37986" lon="2.63679">
        <ele>907.3</ele>
        <time>2018-11-26T03:24:45Z</time>
      </trkpt>
      <trkpt lat="42.37986" lon="2.6368">
        <ele>907.7</ele>
        <time>2018-11-26T03:24:45Z</time>
      </trkpt>
      <trkpt lat="42.37986" lon="2.63681">
        <ele>908.1</ele>
        <time>2018-11-26T03:24:45Z</time>
      </trkpt>
      <trkpt lat="42.37987" lon="2.63682">
        <ele>908.2</ele>
        <time>2018-11-26T03:24:46Z</time>
      </trkpt>
      <trkpt lat="42.37987" lon="2.63683">
        <ele>908.4</ele>
        <time>2018-11-26T03:24:46Z</time>
      </trkpt>
      <trkpt lat="42.37987" lon="2.63684">
        <ele>908.7</ele>
        <time>2018-11-26T03:24:46Z</time>
      </trkpt>
      <trkpt lat="42.37987" lon="2.63686">
        <ele>908.5</ele>
        <time>2018-11-26T03:24:47Z</time>
      </trkpt>
      <trkpt lat="42.37987" lon="2.63687">
        <ele>908.2</ele>
        <time>2018-11-26T03:24:47Z</time>
      </trkpt>
      <trkpt lat="42.37987" lon="2.63688">
        <ele>907.8</ele>
        <time>2018-11-26T03:24:48Z</time>
      </trkpt>
      <trkpt lat="42.37987" lon="2.6369">
        <ele>907.9</ele>
        <time>2018-11-26T03:24:48Z</time>
      </trkpt>
      <trkpt lat="42.37987" lon="2.63691">
        <ele>908.1</ele>
        <time>2018-11-26T03:24:48Z</time>
      </trkpt>
      <trkpt lat="42.37988" lon="2.63692">
        <ele>908.2</ele>
        <time>2018-11-26T03:24:49Z</time>
      </trkpt>
      <trkpt lat="42.37988" lon="2.63693">
        <ele>908.1</ele>
        <time>2018-11-26T03:24:49Z</time>
      </trkpt>
      <trkpt lat="42.37988" lon="2.63695">
        <ele>907.8</ele>
        <time>2018-11-26T03:24:50Z</time>
      </trkpt>
      <trkpt lat="42.37989" lon="2.63696">
        <ele>907.6</ele>
        <time>2018-11-26T03:24:50Z</time>
      </trkpt>
      <trkpt lat="42.37989" lon="2.63697">
        <ele>907.7</ele>
        <time>2018-11-26T03:24:50Z</time>
      </trkpt>
      <trkpt lat="42.37989" lon="2.63698">
        <ele>907.8</ele>
        <time>2018-11-26T03:24:51Z</time>
      </trkpt>
      <trkpt lat="42.3799" lon="2.63699">
        <ele>907.9</ele>
        <time>2018-11-26T03:24:51Z</time>
      </trkpt>
      <trkpt lat="42.37991" lon="2.63701">
        <ele>908.2</ele>
        <time>2018-11-26T03:24:52Z</time>
      </trkpt>
      <trkpt lat="42.37991" lon="2.63702">
        <ele>908.2</ele>
        <time>2018-11-26T03:24:52Z</time>
      </trkpt>
      <trkpt lat="42.37992" lon="2.63703">
        <ele>908.4</ele>
        <time>2018-11-26T03:24:52Z</time>
      </trkpt>
      <trkpt lat="42.37992" lon="2.63704">
        <ele>908.4</ele>
        <time>2018-11-26T03:24:53Z</time>
      </trkpt>
      <trkpt lat="42.37993" lon="2.63705">
        <ele>908.5</ele>
        <time>2018-11-26T03:24:53Z</time>
      </trkpt>
      <trkpt lat="42.37993" lon="2.63707">
        <ele>908.4</ele>
        <time>2018-11-26T03:24:54Z</time>
      </trkpt>
      <trkpt lat="42.37994" lon="2.63708">
        <ele>908.6</ele>
        <time>2018-11-26T03:24:54Z</time>
      </trkpt>
      <trkpt lat="42.37994" lon="2.63709">
        <ele>908.6</ele>
        <time>2018-11-26T03:24:55Z</time>
      </trkpt>
      <trkpt lat="42.37995" lon="2.6371">
        <ele>908.6</ele>
        <time>2018-11-26T03:24:55Z</time>
      </trkpt>
      <trkpt lat="42.37995" lon="2.63712">
        <ele>908.6</ele>
        <time>2018-11-26T03:24:55Z</time>
      </trkpt>
      <trkpt lat="42.37996" lon="2.63713">
        <ele>909.1</ele>
        <time>2018-11-26T03:24:56Z</time>
      </trkpt>
      <trkpt lat="42.37996" lon="2.63714">
        <ele>909.5</ele>
        <time>2018-11-26T03:24:56Z</time>
      </trkpt>
      <trkpt lat="42.37997" lon="2.63715">
        <ele>910</ele>
        <time>2018-11-26T03:24:57Z</time>
      </trkpt>
      <trkpt lat="42.37997" lon="2.63717">
        <ele>910</ele>
        <time>2018-11-26T03:24:57Z</time>
      </trkpt>
      <trkpt lat="42.37998" lon="2.63718">
        <ele>910.1</ele>
        <time>2018-11-26T03:24:57Z</time>
      </trkpt>
      <trkpt lat="42.37998" lon="2.63719">
        <ele>910.1</ele>
        <time>2018-11-26T03:24:58Z</time>
      </trkpt>
      <trkpt lat="42.37999" lon="2.6372">
        <ele>910.3</ele>
        <time>2018-11-26T03:24:58Z</time>
      </trkpt>
      <trkpt lat="42.37999" lon="2.63721">
        <ele>910.4</ele>
        <time>2018-11-26T03:24:59Z</time>
      </trkpt>
      <trkpt lat="42.38" lon="2.63722">
        <ele>910.4</ele>
        <time>2018-11-26T03:24:59Z</time>
      </trkpt>
      <trkpt lat="42.38" lon="2.63723">
        <ele>910.4</ele>
        <time>2018-11-26T03:24:59Z</time>
      </trkpt>
      <trkpt lat="42.38001" lon="2.63724">
        <ele>910.6</ele>
        <time>2018-11-26T03:25:00Z</time>
      </trkpt>
      <trkpt lat="42.38001" lon="2.63725">
        <ele>910.9</ele>
        <time>2018-11-26T03:25:00Z</time>
      </trkpt>
      <trkpt lat="42.38001" lon="2.63726">
        <ele>911.3</ele>
        <time>2018-11-26T03:25:00Z</time>
      </trkpt>
      <trkpt lat="42.38001" lon="2.63728">
        <ele>911.5</ele>
        <time>2018-11-26T03:25:01Z</time>
      </trkpt>
      <trkpt lat="42.38001" lon="2.63729">
        <ele>911.6</ele>
        <time>2018-11-26T03:25:01Z</time>
      </trkpt>
      <trkpt lat="42.38001" lon="2.6373">
        <ele>911.7</ele>
        <time>2018-11-26T03:25:01Z</time>
      </trkpt>
      <trkpt lat="42.38001" lon="2.63731">
        <ele>912</ele>
        <time>2018-11-26T03:25:02Z</time>
      </trkpt>
      <trkpt lat="42.38001" lon="2.63732">
        <ele>912.3</ele>
        <time>2018-11-26T03:25:02Z</time>
      </trkpt>
      <trkpt lat="42.38001" lon="2.63733">
        <ele>912.7</ele>
        <time>2018-11-26T03:25:02Z</time>
      </trkpt>
      <trkpt lat="42.38001" lon="2.63736">
        <ele>912.6</ele>
        <time>2018-11-26T03:25:03Z</time>
      </trkpt>
      <trkpt lat="42.38001" lon="2.63737">
        <ele>912.6</ele>
        <time>2018-11-26T03:25:04Z</time>
      </trkpt>
      <trkpt lat="42.38001" lon="2.63738">
        <ele>912.7</ele>
        <time>2018-11-26T03:25:04Z</time>
      </trkpt>
      <trkpt lat="42.38" lon="2.63739">
        <ele>912.5</ele>
        <time>2018-11-26T03:25:04Z</time>
      </trkpt>
      <trkpt lat="42.38" lon="2.6374">
        <ele>912.5</ele>
        <time>2018-11-26T03:25:05Z</time>
      </trkpt>
      <trkpt lat="42.38" lon="2.63743">
        <ele>912.5</ele>
        <time>2018-11-26T03:25:06Z</time>
      </trkpt>
      <trkpt lat="42.38" lon="2.63745">
        <ele>912.6</ele>
        <time>2018-11-26T03:25:06Z</time>
      </trkpt>
      <trkpt lat="42.38" lon="2.63746">
        <ele>912.7</ele>
        <time>2018-11-26T03:25:06Z</time>
      </trkpt>
      <trkpt lat="42.38001" lon="2.63747">
        <ele>912.9</ele>
        <time>2018-11-26T03:25:07Z</time>
      </trkpt>
      <trkpt lat="42.38001" lon="2.63749">
        <ele>912.8</ele>
        <time>2018-11-26T03:25:07Z</time>
      </trkpt>
      <trkpt lat="42.38002" lon="2.6375">
        <ele>912.9</ele>
        <time>2018-11-26T03:25:08Z</time>
      </trkpt>
      <trkpt lat="42.38002" lon="2.63751">
        <ele>913</ele>
        <time>2018-11-26T03:25:08Z</time>
      </trkpt>
      <trkpt lat="42.38003" lon="2.63752">
        <ele>913.3</ele>
        <time>2018-11-26T03:25:08Z</time>
      </trkpt>
      <trkpt lat="42.38004" lon="2.63753">
        <ele>913.4</ele>
        <time>2018-11-26T03:25:09Z</time>
      </trkpt>
      <trkpt lat="42.38004" lon="2.63754">
        <ele>913.3</ele>
        <time>2018-11-26T03:25:09Z</time>
      </trkpt>
      <trkpt lat="42.38005" lon="2.63756">
        <ele>913.2</ele>
        <time>2018-11-26T03:25:10Z</time>
      </trkpt>
      <trkpt lat="42.38005" lon="2.63757">
        <ele>913.2</ele>
        <time>2018-11-26T03:25:10Z</time>
      </trkpt>
      <trkpt lat="42.38006" lon="2.63758">
        <ele>913.2</ele>
        <time>2018-11-26T03:25:10Z</time>
      </trkpt>
      <trkpt lat="42.38006" lon="2.63759">
        <ele>913.3</ele>
        <time>2018-11-26T03:25:11Z</time>
      </trkpt>
      <trkpt lat="42.38007" lon="2.6376">
        <ele>913.4</ele>
        <time>2018-11-26T03:25:11Z</time>
      </trkpt>
      <trkpt lat="42.38007" lon="2.63761">
        <ele>913.5</ele>
        <time>2018-11-26T03:25:11Z</time>
      </trkpt>
      <trkpt lat="42.38008" lon="2.63761">
        <ele>913.5</ele>
        <time>2018-11-26T03:25:12Z</time>
      </trkpt>
      <trkpt lat="42.38008" lon="2.63762">
        <ele>913.3</ele>
        <time>2018-11-26T03:25:12Z</time>
      </trkpt>
      <trkpt lat="42.38009" lon="2.63762">
        <ele>913.2</ele>
        <time>2018-11-26T03:25:12Z</time>
      </trkpt>
      <trkpt lat="42.38009" lon="2.63763">
        <ele>913.4</ele>
        <time>2018-11-26T03:25:12Z</time>
      </trkpt>
      <trkpt lat="42.38009" lon="2.63763">
        <ele>913.8</ele>
        <time>2018-11-26T03:25:12Z</time>
      </trkpt>
      <trkpt lat="42.38008" lon="2.63764">
        <ele>914.1</ele>
        <time>2018-11-26T03:25:13Z</time>
      </trkpt>
      <trkpt lat="42.38008" lon="2.63764">
        <ele>914.2</ele>
        <time>2018-11-26T03:25:13Z</time>
      </trkpt>
      <trkpt lat="42.38008" lon="2.63765">
        <ele>914.1</ele>
        <time>2018-11-26T03:25:13Z</time>
      </trkpt>
      <trkpt lat="42.38008" lon="2.63765">
        <ele>914.2</ele>
        <time>2018-11-26T03:25:13Z</time>
      </trkpt>
      <trkpt lat="42.38008" lon="2.63766">
        <ele>914.2</ele>
        <time>2018-11-26T03:25:13Z</time>
      </trkpt>
      <trkpt lat="42.38008" lon="2.63766">
        <ele>914.1</ele>
        <time>2018-11-26T03:25:14Z</time>
      </trkpt>
      <trkpt lat="42.38008" lon="2.63767">
        <ele>914</ele>
        <time>2018-11-26T03:25:14Z</time>
      </trkpt>
      <trkpt lat="42.38008" lon="2.63767">
        <ele>914</ele>
        <time>2018-11-26T03:25:14Z</time>
      </trkpt>
      <trkpt lat="42.38008" lon="2.63768">
        <ele>913.7</ele>
        <time>2018-11-26T03:25:14Z</time>
      </trkpt>
      <trkpt lat="42.38008" lon="2.63768">
        <ele>913.6</ele>
        <time>2018-11-26T03:25:14Z</time>
      </trkpt>
      <trkpt lat="42.38008" lon="2.63769">
        <ele>913.3</ele>
        <time>2018-11-26T03:25:14Z</time>
      </trkpt>
      <trkpt lat="42.38008" lon="2.63769">
        <ele>913.6</ele>
        <time>2018-11-26T03:25:14Z</time>
      </trkpt>
      <trkpt lat="42.38008" lon="2.6377">
        <ele>913.9</ele>
        <time>2018-11-26T03:25:15Z</time>
      </trkpt>
      <trkpt lat="42.38008" lon="2.63771">
        <ele>914.2</ele>
        <time>2018-11-26T03:25:15Z</time>
      </trkpt>
      <trkpt lat="42.38008" lon="2.63772">
        <ele>913.9</ele>
        <time>2018-11-26T03:25:15Z</time>
      </trkpt>
      <trkpt lat="42.38008" lon="2.63774">
        <ele>913.6</ele>
        <time>2018-11-26T03:25:16Z</time>
      </trkpt>
      <trkpt lat="42.38008" lon="2.63775">
        <ele>913</ele>
        <time>2018-11-26T03:25:16Z</time>
      </trkpt>
      <trkpt lat="42.38008" lon="2.63776">
        <ele>913.2</ele>
        <time>2018-11-26T03:25:16Z</time>
      </trkpt>
      <trkpt lat="42.38008" lon="2.63778">
        <ele>913.4</ele>
        <time>2018-11-26T03:25:17Z</time>
      </trkpt>
      <trkpt lat="42.38008" lon="2.63781">
        <ele>913.7</ele>
        <time>2018-11-26T03:25:18Z</time>
      </trkpt>
      <trkpt lat="42.38008" lon="2.63783">
        <ele>914</ele>
        <time>2018-11-26T03:25:18Z</time>
      </trkpt>
      <trkpt lat="42.38008" lon="2.63785">
        <ele>914.5</ele>
        <time>2018-11-26T03:25:19Z</time>
      </trkpt>
      <trkpt lat="42.38008" lon="2.63786">
        <ele>914.3</ele>
        <time>2018-11-26T03:25:19Z</time>
      </trkpt>
      <trkpt lat="42.38008" lon="2.63788">
        <ele>914.1</ele>
        <time>2018-11-26T03:25:20Z</time>
      </trkpt>
      <trkpt lat="42.38008" lon="2.6379">
        <ele>913.9</ele>
        <time>2018-11-26T03:25:20Z</time>
      </trkpt>
      <trkpt lat="42.38008" lon="2.63791">
        <ele>913.7</ele>
        <time>2018-11-26T03:25:21Z</time>
      </trkpt>
      <trkpt lat="42.38008" lon="2.63793">
        <ele>913.4</ele>
        <time>2018-11-26T03:25:21Z</time>
      </trkpt>
      <trkpt lat="42.38008" lon="2.63794">
        <ele>912.9</ele>
        <time>2018-11-26T03:25:22Z</time>
      </trkpt>
      <trkpt lat="42.38008" lon="2.63795">
        <ele>912.2</ele>
        <time>2018-11-26T03:25:22Z</time>
      </trkpt>
      <trkpt lat="42.38008" lon="2.63796">
        <ele>912.3</ele>
        <time>2018-11-26T03:25:22Z</time>
      </trkpt>
      <trkpt lat="42.38008" lon="2.63797">
        <ele>912.5</ele>
        <time>2018-11-26T03:25:23Z</time>
      </trkpt>
      <trkpt lat="42.38008" lon="2.63799">
        <ele>912.6</ele>
        <time>2018-11-26T03:25:23Z</time>
      </trkpt>
      <trkpt lat="42.38008" lon="2.63801">
        <ele>912.6</ele>
        <time>2018-11-26T03:25:24Z</time>
      </trkpt>
      <trkpt lat="42.38008" lon="2.63802">
        <ele>912.4</ele>
        <time>2018-11-26T03:25:24Z</time>
      </trkpt>
      <trkpt lat="42.38009" lon="2.63803">
        <ele>912.2</ele>
        <time>2018-11-26T03:25:24Z</time>
      </trkpt>
      <trkpt lat="42.38009" lon="2.63804">
        <ele>912.3</ele>
        <time>2018-11-26T03:25:25Z</time>
      </trkpt>
      <trkpt lat="42.3801" lon="2.63806">
        <ele>912.5</ele>
        <time>2018-11-26T03:25:25Z</time>
      </trkpt>
      <trkpt lat="42.3801" lon="2.63807">
        <ele>912.7</ele>
        <time>2018-11-26T03:25:26Z</time>
      </trkpt>
      <trkpt lat="42.3801" lon="2.63808">
        <ele>912.6</ele>
        <time>2018-11-26T03:25:26Z</time>
      </trkpt>
      <trkpt lat="42.38011" lon="2.6381">
        <ele>912.5</ele>
        <time>2018-11-26T03:25:27Z</time>
      </trkpt>
      <trkpt lat="42.38011" lon="2.63811">
        <ele>912.5</ele>
        <time>2018-11-26T03:25:27Z</time>
      </trkpt>
      <trkpt lat="42.38011" lon="2.63813">
        <ele>912.3</ele>
        <time>2018-11-26T03:25:28Z</time>
      </trkpt>
      <trkpt lat="42.38011" lon="2.63814">
        <ele>912.4</ele>
        <time>2018-11-26T03:25:28Z</time>
      </trkpt>
      <trkpt lat="42.3801" lon="2.63823">
        <ele>912.4</ele>
        <time>2018-11-26T03:25:31Z</time>
      </trkpt>
      <trkpt lat="42.3801" lon="2.63824">
        <ele>912.6</ele>
        <time>2018-11-26T03:25:31Z</time>
      </trkpt>
      <trkpt lat="42.38009" lon="2.63828">
        <ele>913.2</ele>
        <time>2018-11-26T03:25:32Z</time>
      </trkpt>
      <trkpt lat="42.38009" lon="2.63829">
        <ele>913.2</ele>
        <time>2018-11-26T03:25:33Z</time>
      </trkpt>
      <trkpt lat="42.38009" lon="2.63831">
        <ele>912.9</ele>
        <time>2018-11-26T03:25:33Z</time>
      </trkpt>
      <trkpt lat="42.38009" lon="2.63832">
        <ele>912.7</ele>
        <time>2018-11-26T03:25:33Z</time>
      </trkpt>
      <trkpt lat="42.38009" lon="2.63833">
        <ele>912.4</ele>
        <time>2018-11-26T03:25:34Z</time>
      </trkpt>
      <trkpt lat="42.38009" lon="2.63835">
        <ele>912</ele>
        <time>2018-11-26T03:25:34Z</time>
      </trkpt>
      <trkpt lat="42.38009" lon="2.63836">
        <ele>911.4</ele>
        <time>2018-11-26T03:25:35Z</time>
      </trkpt>
      <trkpt lat="42.38009" lon="2.63838">
        <ele>911.5</ele>
        <time>2018-11-26T03:25:35Z</time>
      </trkpt>
      <trkpt lat="42.38009" lon="2.63839">
        <ele>911.5</ele>
        <time>2018-11-26T03:25:36Z</time>
      </trkpt>
      <trkpt lat="42.38009" lon="2.63841">
        <ele>911.6</ele>
        <time>2018-11-26T03:25:36Z</time>
      </trkpt>
      <trkpt lat="42.38009" lon="2.63842">
        <ele>911.9</ele>
        <time>2018-11-26T03:25:36Z</time>
      </trkpt>
      <trkpt lat="42.38009" lon="2.63844">
        <ele>912</ele>
        <time>2018-11-26T03:25:37Z</time>
      </trkpt>
      <trkpt lat="42.38009" lon="2.63845">
        <ele>912</ele>
        <time>2018-11-26T03:25:37Z</time>
      </trkpt>
      <trkpt lat="42.38009" lon="2.63847">
        <ele>911.9</ele>
        <time>2018-11-26T03:25:38Z</time>
      </trkpt>
      <trkpt lat="42.38009" lon="2.63848">
        <ele>911.8</ele>
        <time>2018-11-26T03:25:38Z</time>
      </trkpt>
      <trkpt lat="42.38009" lon="2.63849">
        <ele>911.6</ele>
        <time>2018-11-26T03:25:39Z</time>
      </trkpt>
      <trkpt lat="42.38009" lon="2.63851">
        <ele>911.3</ele>
        <time>2018-11-26T03:25:39Z</time>
      </trkpt>
      <trkpt lat="42.38009" lon="2.63852">
        <ele>911.4</ele>
        <time>2018-11-26T03:25:39Z</time>
      </trkpt>
      <trkpt lat="42.38009" lon="2.63855">
        <ele>911.6</ele>
        <time>2018-11-26T03:25:40Z</time>
      </trkpt>
      <trkpt lat="42.38009" lon="2.63857">
        <ele>911.5</ele>
        <time>2018-11-26T03:25:41Z</time>
      </trkpt>
      <trkpt lat="42.38009" lon="2.63858">
        <ele>911.3</ele>
        <time>2018-11-26T03:25:41Z</time>
      </trkpt>
      <trkpt lat="42.38009" lon="2.63859">
        <ele>911</ele>
        <time>2018-11-26T03:25:41Z</time>
      </trkpt>
      <trkpt lat="42.38009" lon="2.63861">
        <ele>911</ele>
        <time>2018-11-26T03:25:42Z</time>
      </trkpt>
      <trkpt lat="42.38009" lon="2.63862">
        <ele>911.2</ele>
        <time>2018-11-26T03:25:42Z</time>
      </trkpt>
      <trkpt lat="42.38009" lon="2.63864">
        <ele>911.2</ele>
        <time>2018-11-26T03:25:43Z</time>
      </trkpt>
      <trkpt lat="42.38009" lon="2.63865">
        <ele>911.4</ele>
        <time>2018-11-26T03:25:43Z</time>
      </trkpt>
      <trkpt lat="42.38009" lon="2.63866">
        <ele>911.2</ele>
        <time>2018-11-26T03:25:44Z</time>
      </trkpt>
      <trkpt lat="42.38009" lon="2.63867">
        <ele>910.9</ele>
        <time>2018-11-26T03:25:44Z</time>
      </trkpt>
      <trkpt lat="42.38009" lon="2.63869">
        <ele>910.5</ele>
        <time>2018-11-26T03:25:44Z</time>
      </trkpt>
      <trkpt lat="42.38009" lon="2.6387">
        <ele>910.4</ele>
        <time>2018-11-26T03:25:45Z</time>
      </trkpt>
      <trkpt lat="42.38009" lon="2.63871">
        <ele>910.4</ele>
        <time>2018-11-26T03:25:45Z</time>
      </trkpt>
      <trkpt lat="42.38008" lon="2.63873">
        <ele>910</ele>
        <time>2018-11-26T03:25:45Z</time>
      </trkpt>
      <trkpt lat="42.38008" lon="2.63874">
        <ele>910.3</ele>
        <time>2018-11-26T03:25:46Z</time>
      </trkpt>
      <trkpt lat="42.38008" lon="2.63875">
        <ele>910.8</ele>
        <time>2018-11-26T03:25:46Z</time>
      </trkpt>
      <trkpt lat="42.38008" lon="2.63877">
        <ele>911.2</ele>
        <time>2018-11-26T03:25:47Z</time>
      </trkpt>
      <trkpt lat="42.38008" lon="2.63878">
        <ele>911.3</ele>
        <time>2018-11-26T03:25:47Z</time>
      </trkpt>
      <trkpt lat="42.38008" lon="2.6388">
        <ele>911.2</ele>
        <time>2018-11-26T03:25:48Z</time>
      </trkpt>
      <trkpt lat="42.38008" lon="2.63881">
        <ele>911.3</ele>
        <time>2018-11-26T03:25:48Z</time>
      </trkpt>
      <trkpt lat="42.38007" lon="2.63882">
        <ele>911.2</ele>
        <time>2018-11-26T03:25:48Z</time>
      </trkpt>
      <trkpt lat="42.38007" lon="2.63884">
        <ele>911.1</ele>
        <time>2018-11-26T03:25:49Z</time>
      </trkpt>
      <trkpt lat="42.38006" lon="2.63885">
        <ele>911.1</ele>
        <time>2018-11-26T03:25:49Z</time>
      </trkpt>
      <trkpt lat="42.38006" lon="2.63886">
        <ele>911</ele>
        <time>2018-11-26T03:25:50Z</time>
      </trkpt>
      <trkpt lat="42.38005" lon="2.63887">
        <ele>911.1</ele>
        <time>2018-11-26T03:25:50Z</time>
      </trkpt>
      <trkpt lat="42.38005" lon="2.63887">
        <ele>911.3</ele>
        <time>2018-11-26T03:25:50Z</time>
      </trkpt>
      <trkpt lat="42.38004" lon="2.63888">
        <ele>911.6</ele>
        <time>2018-11-26T03:25:51Z</time>
      </trkpt>
      <trkpt lat="42.38004" lon="2.63889">
        <ele>911.7</ele>
        <time>2018-11-26T03:25:51Z</time>
      </trkpt>
      <trkpt lat="42.38004" lon="2.6389">
        <ele>912</ele>
        <time>2018-11-26T03:25:51Z</time>
      </trkpt>
      <trkpt lat="42.38004" lon="2.63891">
        <ele>912.2</ele>
        <time>2018-11-26T03:25:52Z</time>
      </trkpt>
      <trkpt lat="42.38004" lon="2.63893">
        <ele>912.1</ele>
        <time>2018-11-26T03:25:52Z</time>
      </trkpt>
      <trkpt lat="42.38004" lon="2.63894">
        <ele>912</ele>
        <time>2018-11-26T03:25:52Z</time>
      </trkpt>
      <trkpt lat="42.38004" lon="2.63897">
        <ele>911.6</ele>
        <time>2018-11-26T03:25:53Z</time>
      </trkpt>
      <trkpt lat="42.38004" lon="2.63898">
        <ele>911.3</ele>
        <time>2018-11-26T03:25:54Z</time>
      </trkpt>
      <trkpt lat="42.38003" lon="2.639">
        <ele>910.9</ele>
        <time>2018-11-26T03:25:54Z</time>
      </trkpt>
      <trkpt lat="42.38003" lon="2.63902">
        <ele>910.9</ele>
        <time>2018-11-26T03:25:55Z</time>
      </trkpt>
      <trkpt lat="42.38003" lon="2.63904">
        <ele>910.7</ele>
        <time>2018-11-26T03:25:55Z</time>
      </trkpt>
      <trkpt lat="42.38003" lon="2.63905">
        <ele>910.7</ele>
        <time>2018-11-26T03:25:56Z</time>
      </trkpt>
      <trkpt lat="42.38003" lon="2.63906">
        <ele>910.6</ele>
        <time>2018-11-26T03:25:56Z</time>
      </trkpt>
      <trkpt lat="42.38003" lon="2.63907">
        <ele>910.4</ele>
        <time>2018-11-26T03:25:56Z</time>
      </trkpt>
      <trkpt lat="42.38003" lon="2.63908">
        <ele>910.1</ele>
        <time>2018-11-26T03:25:57Z</time>
      </trkpt>
      <trkpt lat="42.38003" lon="2.63909">
        <ele>910.1</ele>
        <time>2018-11-26T03:25:57Z</time>
      </trkpt>
      <trkpt lat="42.38003" lon="2.63911">
        <ele>910.2</ele>
        <time>2018-11-26T03:25:57Z</time>
      </trkpt>
      <trkpt lat="42.38003" lon="2.63912">
        <ele>910.2</ele>
        <time>2018-11-26T03:25:58Z</time>
      </trkpt>
      <trkpt lat="42.38003" lon="2.63913">
        <ele>910.1</ele>
        <time>2018-11-26T03:25:58Z</time>
      </trkpt>
      <trkpt lat="42.38003" lon="2.63915">
        <ele>910.2</ele>
        <time>2018-11-26T03:25:59Z</time>
      </trkpt>
      <trkpt lat="42.38003" lon="2.63916">
        <ele>910.1</ele>
        <time>2018-11-26T03:25:59Z</time>
      </trkpt>
      <trkpt lat="42.38002" lon="2.63917">
        <ele>910</ele>
        <time>2018-11-26T03:25:59Z</time>
      </trkpt>
      <trkpt lat="42.38002" lon="2.63919">
        <ele>910.2</ele>
        <time>2018-11-26T03:26:00Z</time>
      </trkpt>
      <trkpt lat="42.38002" lon="2.6392">
        <ele>910.3</ele>
        <time>2018-11-26T03:26:00Z</time>
      </trkpt>
      <trkpt lat="42.38001" lon="2.63924">
        <ele>910</ele>
        <time>2018-11-26T03:26:01Z</time>
      </trkpt>
      <trkpt lat="42.38" lon="2.63925">
        <ele>909.8</ele>
        <time>2018-11-26T03:26:02Z</time>
      </trkpt>
      <trkpt lat="42.38" lon="2.63927">
        <ele>909.9</ele>
        <time>2018-11-26T03:26:02Z</time>
      </trkpt>
      <trkpt lat="42.37999" lon="2.63928">
        <ele>909.8</ele>
        <time>2018-11-26T03:26:03Z</time>
      </trkpt>
      <trkpt lat="42.37999" lon="2.63929">
        <ele>909.7</ele>
        <time>2018-11-26T03:26:03Z</time>
      </trkpt>
      <trkpt lat="42.37998" lon="2.6393">
        <ele>909.5</ele>
        <time>2018-11-26T03:26:04Z</time>
      </trkpt>
      <trkpt lat="42.37998" lon="2.63932">
        <ele>909.2</ele>
        <time>2018-11-26T03:26:04Z</time>
      </trkpt>
      <trkpt lat="42.37998" lon="2.63933">
        <ele>908.7</ele>
        <time>2018-11-26T03:26:04Z</time>
      </trkpt>
      <trkpt lat="42.37997" lon="2.63935">
        <ele>908.6</ele>
        <time>2018-11-26T03:26:05Z</time>
      </trkpt>
      <trkpt lat="42.37996" lon="2.63937">
        <ele>908.4</ele>
        <time>2018-11-26T03:26:06Z</time>
      </trkpt>
      <trkpt lat="42.37995" lon="2.63939">
        <ele>908.4</ele>
        <time>2018-11-26T03:26:06Z</time>
      </trkpt>
      <trkpt lat="42.37995" lon="2.63941">
        <ele>909</ele>
        <time>2018-11-26T03:26:07Z</time>
      </trkpt>
      <trkpt lat="42.37994" lon="2.63942">
        <ele>909.1</ele>
        <time>2018-11-26T03:26:07Z</time>
      </trkpt>
      <trkpt lat="42.37994" lon="2.63944">
        <ele>909.2</ele>
        <time>2018-11-26T03:26:08Z</time>
      </trkpt>
      <trkpt lat="42.37994" lon="2.63945">
        <ele>909.4</ele>
        <time>2018-11-26T03:26:08Z</time>
      </trkpt>
      <trkpt lat="42.37993" lon="2.63948">
        <ele>909.3</ele>
        <time>2018-11-26T03:26:09Z</time>
      </trkpt>
      <trkpt lat="42.3799" lon="2.63954">
        <ele>908.6</ele>
        <time>2018-11-26T03:26:11Z</time>
      </trkpt>
      <trkpt lat="42.37989" lon="2.63957">
        <ele>908.8</ele>
        <time>2018-11-26T03:26:12Z</time>
      </trkpt>
      <trkpt lat="42.37987" lon="2.63959">
        <ele>908.9</ele>
        <time>2018-11-26T03:26:13Z</time>
      </trkpt>
      <trkpt lat="42.37986" lon="2.6396">
        <ele>908.7</ele>
        <time>2018-11-26T03:26:14Z</time>
      </trkpt>
      <trkpt lat="42.37983" lon="2.63963">
        <ele>908.4</ele>
        <time>2018-11-26T03:26:15Z</time>
      </trkpt>
      <trkpt lat="42.37982" lon="2.63964">
        <ele>908.3</ele>
        <time>2018-11-26T03:26:16Z</time>
      </trkpt>
      <trkpt lat="42.37981" lon="2.63965">
        <ele>908.5</ele>
        <time>2018-11-26T03:26:16Z</time>
      </trkpt>
      <trkpt lat="42.3798" lon="2.63967">
        <ele>909.1</ele>
        <time>2018-11-26T03:26:17Z</time>
      </trkpt>
      <trkpt lat="42.37975" lon="2.63976">
        <ele>909.2</ele>
        <time>2018-11-26T03:26:20Z</time>
      </trkpt>
      <trkpt lat="42.37975" lon="2.63977">
        <ele>909.4</ele>
        <time>2018-11-26T03:26:21Z</time>
      </trkpt>
      <trkpt lat="42.3797" lon="2.63988">
        <ele>909.4</ele>
        <time>2018-11-26T03:26:24Z</time>
      </trkpt>
      <trkpt lat="42.37969" lon="2.63989">
        <ele>909.2</ele>
        <time>2018-11-26T03:26:25Z</time>
      </trkpt>
      <trkpt lat="42.37968" lon="2.63991">
        <ele>908.9</ele>
        <time>2018-11-26T03:26:26Z</time>
      </trkpt>
      <trkpt lat="42.37968" lon="2.63993">
        <ele>909</ele>
        <time>2018-11-26T03:26:26Z</time>
      </trkpt>
      <trkpt lat="42.37967" lon="2.63994">
        <ele>908.8</ele>
        <time>2018-11-26T03:26:26Z</time>
      </trkpt>
      <trkpt lat="42.37967" lon="2.63996">
        <ele>909</ele>
        <time>2018-11-26T03:26:27Z</time>
      </trkpt>
      <trkpt lat="42.37966" lon="2.63999">
        <ele>909.7</ele>
        <time>2018-11-26T03:26:28Z</time>
      </trkpt>
      <trkpt lat="42.37965" lon="2.64003">
        <ele>909.3</ele>
        <time>2018-11-26T03:26:29Z</time>
      </trkpt>
      <trkpt lat="42.37964" lon="2.64006">
        <ele>909.7</ele>
        <time>2018-11-26T03:26:30Z</time>
      </trkpt>
      <trkpt lat="42.37963" lon="2.64009">
        <ele>910.1</ele>
        <time>2018-11-26T03:26:31Z</time>
      </trkpt>
      <trkpt lat="42.37963" lon="2.6401">
        <ele>910.2</ele>
        <time>2018-11-26T03:26:31Z</time>
      </trkpt>
      <trkpt lat="42.37961" lon="2.64015">
        <ele>910.8</ele>
        <time>2018-11-26T03:26:33Z</time>
      </trkpt>
      <trkpt lat="42.37959" lon="2.64019">
        <ele>911.2</ele>
        <time>2018-11-26T03:26:35Z</time>
      </trkpt>
      <trkpt lat="42.37959" lon="2.6402">
        <ele>911.4</ele>
        <time>2018-11-26T03:26:35Z</time>
      </trkpt>
      <trkpt lat="42.37958" lon="2.64021">
        <ele>911.4</ele>
        <time>2018-11-26T03:26:35Z</time>
      </trkpt>
      <trkpt lat="42.37957" lon="2.64022">
        <ele>911.4</ele>
        <time>2018-11-26T03:26:36Z</time>
      </trkpt>
      <trkpt lat="42.37957" lon="2.64022">
        <ele>911.4</ele>
        <time>2018-11-26T03:26:36Z</time>
      </trkpt>
      <trkpt lat="42.37956" lon="2.64024">
        <ele>911.7</ele>
        <time>2018-11-26T03:26:37Z</time>
      </trkpt>
      <trkpt lat="42.37955" lon="2.64025">
        <ele>911.8</ele>
        <time>2018-11-26T03:26:37Z</time>
      </trkpt>
      <trkpt lat="42.37955" lon="2.64027">
        <ele>912</ele>
        <time>2018-11-26T03:26:38Z</time>
      </trkpt>
      <trkpt lat="42.37955" lon="2.64028">
        <ele>912.1</ele>
        <time>2018-11-26T03:26:38Z</time>
      </trkpt>
      <trkpt lat="42.37955" lon="2.6403">
        <ele>912.1</ele>
        <time>2018-11-26T03:26:38Z</time>
      </trkpt>
      <trkpt lat="42.37955" lon="2.64033">
        <ele>912</ele>
        <time>2018-11-26T03:26:39Z</time>
      </trkpt>
      <trkpt lat="42.37955" lon="2.64034">
        <ele>911.9</ele>
        <time>2018-11-26T03:26:40Z</time>
      </trkpt>
      <trkpt lat="42.37955" lon="2.64036">
        <ele>911.6</ele>
        <time>2018-11-26T03:26:40Z</time>
      </trkpt>
      <trkpt lat="42.37955" lon="2.64038">
        <ele>911.6</ele>
        <time>2018-11-26T03:26:41Z</time>
      </trkpt>
      <trkpt lat="42.37954" lon="2.6404">
        <ele>911.6</ele>
        <time>2018-11-26T03:26:41Z</time>
      </trkpt>
      <trkpt lat="42.37954" lon="2.64041">
        <ele>912</ele>
        <time>2018-11-26T03:26:42Z</time>
      </trkpt>
      <trkpt lat="42.37953" lon="2.64043">
        <ele>912.2</ele>
        <time>2018-11-26T03:26:42Z</time>
      </trkpt>
      <trkpt lat="42.37953" lon="2.64045">
        <ele>912.7</ele>
        <time>2018-11-26T03:26:43Z</time>
      </trkpt>
      <trkpt lat="42.37952" lon="2.64051">
        <ele>912.4</ele>
        <time>2018-11-26T03:26:45Z</time>
      </trkpt>
      <trkpt lat="42.37952" lon="2.64055">
        <ele>912.1</ele>
        <time>2018-11-26T03:26:46Z</time>
      </trkpt>
      <trkpt lat="42.37952" lon="2.6406">
        <ele>913.1</ele>
        <time>2018-11-26T03:26:48Z</time>
      </trkpt>
      <trkpt lat="42.37952" lon="2.64065">
        <ele>913.5</ele>
        <time>2018-11-26T03:26:49Z</time>
      </trkpt>
      <trkpt lat="42.37952" lon="2.64066">
        <ele>913.4</ele>
        <time>2018-11-26T03:26:49Z</time>
      </trkpt>
      <trkpt lat="42.37951" lon="2.64071">
        <ele>913.6</ele>
        <time>2018-11-26T03:26:51Z</time>
      </trkpt>
      <trkpt lat="42.37951" lon="2.64076">
        <ele>913.8</ele>
        <time>2018-11-26T03:26:52Z</time>
      </trkpt>
      <trkpt lat="42.3795" lon="2.64077">
        <ele>913.6</ele>
        <time>2018-11-26T03:26:53Z</time>
      </trkpt>
      <trkpt lat="42.3795" lon="2.6408">
        <ele>913.7</ele>
        <time>2018-11-26T03:26:54Z</time>
      </trkpt>
      <trkpt lat="42.37949" lon="2.64083">
        <ele>914.4</ele>
        <time>2018-11-26T03:26:55Z</time>
      </trkpt>
      <trkpt lat="42.37948" lon="2.64086">
        <ele>914.5</ele>
        <time>2018-11-26T03:26:55Z</time>
      </trkpt>
      <trkpt lat="42.37947" lon="2.64087">
        <ele>914.7</ele>
        <time>2018-11-26T03:26:56Z</time>
      </trkpt>
      <trkpt lat="42.37947" lon="2.64088">
        <ele>914.7</ele>
        <time>2018-11-26T03:26:56Z</time>
      </trkpt>
      <trkpt lat="42.37946" lon="2.6409">
        <ele>915</ele>
        <time>2018-11-26T03:26:57Z</time>
      </trkpt>
      <trkpt lat="42.37946" lon="2.64091">
        <ele>915.1</ele>
        <time>2018-11-26T03:26:57Z</time>
      </trkpt>
      <trkpt lat="42.37945" lon="2.64095">
        <ele>914.8</ele>
        <time>2018-11-26T03:26:58Z</time>
      </trkpt>
      <trkpt lat="42.37945" lon="2.64098">
        <ele>914.9</ele>
        <time>2018-11-26T03:26:59Z</time>
      </trkpt>
      <trkpt lat="42.37945" lon="2.64102">
        <ele>915</ele>
        <time>2018-11-26T03:27:01Z</time>
      </trkpt>
      <trkpt lat="42.37945" lon="2.64106">
        <ele>914.8</ele>
        <time>2018-11-26T03:27:02Z</time>
      </trkpt>
      <trkpt lat="42.37945" lon="2.64107">
        <ele>915.1</ele>
        <time>2018-11-26T03:27:02Z</time>
      </trkpt>
      <trkpt lat="42.37945" lon="2.64108">
        <ele>915.5</ele>
        <time>2018-11-26T03:27:02Z</time>
      </trkpt>
      <trkpt lat="42.37945" lon="2.64109">
        <ele>915.3</ele>
        <time>2018-11-26T03:27:03Z</time>
      </trkpt>
      <trkpt lat="42.37945" lon="2.6411">
        <ele>915</ele>
        <time>2018-11-26T03:27:03Z</time>
      </trkpt>
      <trkpt lat="42.37946" lon="2.64111">
        <ele>914.6</ele>
        <time>2018-11-26T03:27:03Z</time>
      </trkpt>
      <trkpt lat="42.37946" lon="2.64112">
        <ele>914.6</ele>
        <time>2018-11-26T03:27:04Z</time>
      </trkpt>
      <trkpt lat="42.37947" lon="2.64114">
        <ele>914.8</ele>
        <time>2018-11-26T03:27:04Z</time>
      </trkpt>
      <trkpt lat="42.37948" lon="2.64115">
        <ele>915</ele>
        <time>2018-11-26T03:27:05Z</time>
      </trkpt>
      <trkpt lat="42.37949" lon="2.64116">
        <ele>915.1</ele>
        <time>2018-11-26T03:27:05Z</time>
      </trkpt>
      <trkpt lat="42.3795" lon="2.64117">
        <ele>915.4</ele>
        <time>2018-11-26T03:27:06Z</time>
      </trkpt>
      <trkpt lat="42.37951" lon="2.64117">
        <ele>915.6</ele>
        <time>2018-11-26T03:27:06Z</time>
      </trkpt>
      <trkpt lat="42.37954" lon="2.64118">
        <ele>916</ele>
        <time>2018-11-26T03:27:07Z</time>
      </trkpt>
      <trkpt lat="42.37955" lon="2.64119">
        <ele>916.2</ele>
        <time>2018-11-26T03:27:08Z</time>
      </trkpt>
      <trkpt lat="42.37962" lon="2.6412">
        <ele>916.5</ele>
        <time>2018-11-26T03:27:10Z</time>
      </trkpt>
      <trkpt lat="42.37966" lon="2.6412">
        <ele>917.5</ele>
        <time>2018-11-26T03:27:12Z</time>
      </trkpt>
      <trkpt lat="42.37974" lon="2.64122">
        <ele>918.2</ele>
        <time>2018-11-26T03:27:15Z</time>
      </trkpt>
      <trkpt lat="42.37975" lon="2.64122">
        <ele>918</ele>
        <time>2018-11-26T03:27:16Z</time>
      </trkpt>
      <trkpt lat="42.37983" lon="2.64123">
        <ele>919.4</ele>
        <time>2018-11-26T03:27:19Z</time>
      </trkpt>
      <trkpt lat="42.37983" lon="2.64123">
        <ele>919.5</ele>
        <time>2018-11-26T03:27:19Z</time>
      </trkpt>
      <trkpt lat="42.37985" lon="2.64123">
        <ele>919.5</ele>
        <time>2018-11-26T03:27:20Z</time>
      </trkpt>
      <trkpt lat="42.37986" lon="2.64123">
        <ele>919.4</ele>
        <time>2018-11-26T03:27:20Z</time>
      </trkpt>
      <trkpt lat="42.37989" lon="2.64123">
        <ele>919.5</ele>
        <time>2018-11-26T03:27:22Z</time>
      </trkpt>
      <trkpt lat="42.3799" lon="2.64123">
        <ele>919.6</ele>
        <time>2018-11-26T03:27:22Z</time>
      </trkpt>
      <trkpt lat="42.38002" lon="2.6412">
        <ele>920.7</ele>
        <time>2018-11-26T03:27:27Z</time>
      </trkpt>
      <trkpt lat="42.38007" lon="2.64118">
        <ele>921.7</ele>
        <time>2018-11-26T03:27:29Z</time>
      </trkpt>
      <trkpt lat="42.3801" lon="2.64118">
        <ele>923</ele>
        <time>2018-11-26T03:27:30Z</time>
      </trkpt>
      <trkpt lat="42.38011" lon="2.64117">
        <ele>923.1</ele>
        <time>2018-11-26T03:27:30Z</time>
      </trkpt>
      <trkpt lat="42.38012" lon="2.64117">
        <ele>923.3</ele>
        <time>2018-11-26T03:27:31Z</time>
      </trkpt>
      <trkpt lat="42.38012" lon="2.64117">
        <ele>923.5</ele>
        <time>2018-11-26T03:27:31Z</time>
      </trkpt>
      <trkpt lat="42.38013" lon="2.64116">
        <ele>923.4</ele>
        <time>2018-11-26T03:27:31Z</time>
      </trkpt>
      <trkpt lat="42.38016" lon="2.64115">
        <ele>923</ele>
        <time>2018-11-26T03:27:33Z</time>
      </trkpt>
      <trkpt lat="42.38017" lon="2.64115">
        <ele>923.1</ele>
        <time>2018-11-26T03:27:33Z</time>
      </trkpt>
      <trkpt lat="42.38019" lon="2.64114">
        <ele>923.1</ele>
        <time>2018-11-26T03:27:34Z</time>
      </trkpt>
      <trkpt lat="42.38019" lon="2.64113">
        <ele>923.2</ele>
        <time>2018-11-26T03:27:34Z</time>
      </trkpt>
      <trkpt lat="42.3802" lon="2.64113">
        <ele>923.3</ele>
        <time>2018-11-26T03:27:34Z</time>
      </trkpt>
      <trkpt lat="42.38021" lon="2.64113">
        <ele>923.2</ele>
        <time>2018-11-26T03:27:35Z</time>
      </trkpt>
      <trkpt lat="42.38023" lon="2.64112">
        <ele>923.3</ele>
        <time>2018-11-26T03:27:36Z</time>
      </trkpt>
      <trkpt lat="42.38024" lon="2.64111">
        <ele>923.4</ele>
        <time>2018-11-26T03:27:36Z</time>
      </trkpt>
      <trkpt lat="42.38025" lon="2.64111">
        <ele>923.6</ele>
        <time>2018-11-26T03:27:36Z</time>
      </trkpt>
      <trkpt lat="42.3803" lon="2.64107">
        <ele>924.5</ele>
        <time>2018-11-26T03:27:39Z</time>
      </trkpt>
      <trkpt lat="42.38031" lon="2.64107">
        <ele>924.5</ele>
        <time>2018-11-26T03:27:39Z</time>
      </trkpt>
      <trkpt lat="42.38031" lon="2.64107">
        <ele>924.6</ele>
        <time>2018-11-26T03:27:39Z</time>
      </trkpt>
      <trkpt lat="42.38032" lon="2.64107">
        <ele>924.6</ele>
        <time>2018-11-26T03:27:40Z</time>
      </trkpt>
      <trkpt lat="42.38033" lon="2.64108">
        <ele>924.7</ele>
        <time>2018-11-26T03:27:40Z</time>
      </trkpt>
      <trkpt lat="42.38033" lon="2.6411">
        <ele>924.7</ele>
        <time>2018-11-26T03:27:40Z</time>
      </trkpt>
      <trkpt lat="42.38033" lon="2.64111">
        <ele>924.6</ele>
        <time>2018-11-26T03:27:41Z</time>
      </trkpt>
      <trkpt lat="42.38033" lon="2.64114">
        <ele>925</ele>
        <time>2018-11-26T03:27:42Z</time>
      </trkpt>
      <trkpt lat="42.38033" lon="2.64115">
        <ele>925.4</ele>
        <time>2018-11-26T03:27:42Z</time>
      </trkpt>
      <trkpt lat="42.38032" lon="2.64117">
        <ele>925.4</ele>
        <time>2018-11-26T03:27:43Z</time>
      </trkpt>
      <trkpt lat="42.38032" lon="2.64118">
        <ele>925.7</ele>
        <time>2018-11-26T03:27:43Z</time>
      </trkpt>
      <trkpt lat="42.38028" lon="2.64123">
        <ele>925.4</ele>
        <time>2018-11-26T03:27:45Z</time>
      </trkpt>
      <trkpt lat="42.38028" lon="2.64124">
        <ele>925.5</ele>
        <time>2018-11-26T03:27:46Z</time>
      </trkpt>
      <trkpt lat="42.38022" lon="2.6413">
        <ele>926.4</ele>
        <time>2018-11-26T03:27:48Z</time>
      </trkpt>
      <trkpt lat="42.38021" lon="2.64131">
        <ele>926.7</ele>
        <time>2018-11-26T03:27:49Z</time>
      </trkpt>
      <trkpt lat="42.38019" lon="2.64134">
        <ele>927.3</ele>
        <time>2018-11-26T03:27:50Z</time>
      </trkpt>
      <trkpt lat="42.38018" lon="2.64135">
        <ele>926.8</ele>
        <time>2018-11-26T03:27:51Z</time>
      </trkpt>
      <trkpt lat="42.38006" lon="2.6416">
        <ele>928.3</ele>
        <time>2018-11-26T03:27:59Z</time>
      </trkpt>
      <trkpt lat="42.38005" lon="2.64163">
        <ele>928.9</ele>
        <time>2018-11-26T03:28:00Z</time>
      </trkpt>
      <trkpt lat="42.38004" lon="2.64164">
        <ele>929.5</ele>
        <time>2018-11-26T03:28:01Z</time>
      </trkpt>
      <trkpt lat="42.38004" lon="2.64165">
        <ele>929.5</ele>
        <time>2018-11-26T03:28:01Z</time>
      </trkpt>
      <trkpt lat="42.38003" lon="2.64166">
        <ele>929.8</ele>
        <time>2018-11-26T03:28:02Z</time>
      </trkpt>
      <trkpt lat="42.38002" lon="2.64168">
        <ele>930.1</ele>
        <time>2018-11-26T03:28:02Z</time>
      </trkpt>
      <trkpt lat="42.38001" lon="2.64169">
        <ele>929.9</ele>
        <time>2018-11-26T03:28:03Z</time>
      </trkpt>
      <trkpt lat="42.38001" lon="2.64169">
        <ele>929.7</ele>
        <time>2018-11-26T03:28:03Z</time>
      </trkpt>
      <trkpt lat="42.38001" lon="2.64169">
        <ele>929.6</ele>
        <time>2018-11-26T03:28:03Z</time>
      </trkpt>
      <trkpt lat="42.38001" lon="2.64169">
        <ele>929.2</ele>
        <time>2018-11-26T03:28:03Z</time>
      </trkpt>
      <trkpt lat="42.38001" lon="2.64169">
        <ele>929.2</ele>
        <time>2018-11-26T03:28:03Z</time>
      </trkpt>
      <trkpt lat="42.38001" lon="2.64169">
        <ele>929.2</ele>
        <time>2018-11-26T03:28:03Z</time>
      </trkpt>
      <trkpt lat="42.38001" lon="2.64169">
        <ele>929.4</ele>
        <time>2018-11-26T03:28:03Z</time>
      </trkpt>
      <trkpt lat="42.38001" lon="2.64169">
        <ele>929.5</ele>
        <time>2018-11-26T03:28:03Z</time>
      </trkpt>
      <trkpt lat="42.38001" lon="2.64169">
        <ele>929.9</ele>
        <time>2018-11-26T03:28:03Z</time>
      </trkpt>
      <trkpt lat="42.38001" lon="2.6417">
        <ele>930.1</ele>
        <time>2018-11-26T03:28:03Z</time>
      </trkpt>
      <trkpt lat="42.38001" lon="2.6417">
        <ele>930.3</ele>
        <time>2018-11-26T03:28:03Z</time>
      </trkpt>
      <trkpt lat="42.38001" lon="2.6417">
        <ele>930.6</ele>
        <time>2018-11-26T03:28:03Z</time>
      </trkpt>
      <trkpt lat="42.38001" lon="2.6417">
        <ele>930.5</ele>
        <time>2018-11-26T03:28:03Z</time>
      </trkpt>
      <trkpt lat="42.38001" lon="2.6417">
        <ele>930.4</ele>
        <time>2018-11-26T03:28:03Z</time>
      </trkpt>
      <trkpt lat="42.38001" lon="2.6417">
        <ele>930.3</ele>
        <time>2018-11-26T03:28:03Z</time>
      </trkpt>
      <trkpt lat="42.38001" lon="2.6417">
        <ele>930.3</ele>
        <time>2018-11-26T03:28:03Z</time>
      </trkpt>
      <trkpt lat="42.38001" lon="2.6417">
        <ele>930.5</ele>
        <time>2018-11-26T03:28:03Z</time>
      </trkpt>
      <trkpt lat="42.38001" lon="2.6417">
        <ele>930.4</ele>
        <time>2018-11-26T03:28:03Z</time>
      </trkpt>
      <trkpt lat="42.38001" lon="2.6417">
        <ele>930.5</ele>
        <time>2018-11-26T03:28:03Z</time>
      </trkpt>
      <trkpt lat="42.38001" lon="2.6417">
        <ele>930.3</ele>
        <time>2018-11-26T03:28:03Z</time>
      </trkpt>
      <trkpt lat="42.38001" lon="2.6417">
        <ele>930.3</ele>
        <time>2018-11-26T03:28:03Z</time>
      </trkpt>
      <trkpt lat="42.38001" lon="2.6417">
        <ele>930.1</ele>
        <time>2018-11-26T03:28:03Z</time>
      </trkpt>
      <trkpt lat="42.38001" lon="2.6417">
        <ele>930.2</ele>
        <time>2018-11-26T03:28:03Z</time>
      </trkpt>
      <trkpt lat="42.38001" lon="2.6417">
        <ele>930.4</ele>
        <time>2018-11-26T03:28:03Z</time>
      </trkpt>
      <trkpt lat="42.38001" lon="2.64169">
        <ele>930.7</ele>
        <time>2018-11-26T03:28:03Z</time>
      </trkpt>
      <trkpt lat="42.38001" lon="2.6417">
        <ele>930.6</ele>
        <time>2018-11-26T03:28:03Z</time>
      </trkpt>
      <trkpt lat="42.38001" lon="2.6417">
        <ele>930.5</ele>
        <time>2018-11-26T03:28:04Z</time>
      </trkpt>
      <trkpt lat="42.38002" lon="2.6417">
        <ele>930.2</ele>
        <time>2018-11-26T03:28:04Z</time>
      </trkpt>
      <trkpt lat="42.38002" lon="2.6417">
        <ele>930.2</ele>
        <time>2018-11-26T03:28:04Z</time>
      </trkpt>
      <trkpt lat="42.38002" lon="2.6417">
        <ele>930.4</ele>
        <time>2018-11-26T03:28:04Z</time>
      </trkpt>
      <trkpt lat="42.38002" lon="2.6417">
        <ele>930.5</ele>
        <time>2018-11-26T03:28:04Z</time>
      </trkpt>
      <trkpt lat="42.38001" lon="2.6417">
        <ele>930.5</ele>
        <time>2018-11-26T03:28:04Z</time>
      </trkpt>
      <trkpt lat="42.38001" lon="2.6417">
        <ele>930.6</ele>
        <time>2018-11-26T03:28:04Z</time>
      </trkpt>
      <trkpt lat="42.38001" lon="2.6417">
        <ele>930.5</ele>
        <time>2018-11-26T03:28:04Z</time>
      </trkpt>
      <trkpt lat="42.38001" lon="2.6417">
        <ele>930.5</ele>
        <time>2018-11-26T03:28:04Z</time>
      </trkpt>
      <trkpt lat="42.38001" lon="2.6417">
        <ele>930.1</ele>
        <time>2018-11-26T03:28:04Z</time>
      </trkpt>
      <trkpt lat="42.38001" lon="2.6417">
        <ele>929.7</ele>
        <time>2018-11-26T03:28:04Z</time>
      </trkpt>
      <trkpt lat="42.38001" lon="2.6417">
        <ele>929.1</ele>
        <time>2018-11-26T03:28:04Z</time>
      </trkpt>
      <trkpt lat="42.38001" lon="2.6417">
        <ele>929.3</ele>
        <time>2018-11-26T03:28:04Z</time>
      </trkpt>
      <trkpt lat="42.38001" lon="2.6417">
        <ele>929.4</ele>
        <time>2018-11-26T03:28:04Z</time>
      </trkpt>
      <trkpt lat="42.38001" lon="2.6417">
        <ele>929.6</ele>
        <time>2018-11-26T03:28:04Z</time>
      </trkpt>
      <trkpt lat="42.38001" lon="2.6417">
        <ele>929.6</ele>
        <time>2018-11-26T03:28:04Z</time>
      </trkpt>
      <trkpt lat="42.38001" lon="2.6417">
        <ele>929.6</ele>
        <time>2018-11-26T03:28:04Z</time>
      </trkpt>
      <trkpt lat="42.38001" lon="2.6417">
        <ele>929.6</ele>
        <time>2018-11-26T03:28:04Z</time>
      </trkpt>
      <trkpt lat="42.38001" lon="2.6417">
        <ele>929.6</ele>
        <time>2018-11-26T03:28:04Z</time>
      </trkpt>
      <trkpt lat="42.38001" lon="2.6417">
        <ele>929.7</ele>
        <time>2018-11-26T03:28:04Z</time>
      </trkpt>
      <trkpt lat="42.38001" lon="2.6417">
        <ele>930</ele>
        <time>2018-11-26T03:28:04Z</time>
      </trkpt>
      <trkpt lat="42.38001" lon="2.6417">
        <ele>929.9</ele>
        <time>2018-11-26T03:28:04Z</time>
      </trkpt>
      <trkpt lat="42.38001" lon="2.6417">
        <ele>929.8</ele>
        <time>2018-11-26T03:28:04Z</time>
      </trkpt>
      <trkpt lat="42.38001" lon="2.6417">
        <ele>929.7</ele>
        <time>2018-11-26T03:28:04Z</time>
      </trkpt>
      <trkpt lat="42.38001" lon="2.6417">
        <ele>929.7</ele>
        <time>2018-11-26T03:28:04Z</time>
      </trkpt>
      <trkpt lat="42.38001" lon="2.6417">
        <ele>929.7</ele>
        <time>2018-11-26T03:28:04Z</time>
      </trkpt>
      <trkpt lat="42.38002" lon="2.6417">
        <ele>929.8</ele>
        <time>2018-11-26T03:28:04Z</time>
      </trkpt>
      <trkpt lat="42.38002" lon="2.6417">
        <ele>929.7</ele>
        <time>2018-11-26T03:28:04Z</time>
      </trkpt>
      <trkpt lat="42.38001" lon="2.6417">
        <ele>929.8</ele>
        <time>2018-11-26T03:28:04Z</time>
      </trkpt>
      <trkpt lat="42.38001" lon="2.6417">
        <ele>929.9</ele>
        <time>2018-11-26T03:28:04Z</time>
      </trkpt>
      <trkpt lat="42.38001" lon="2.6417">
        <ele>930.1</ele>
        <time>2018-11-26T03:28:04Z</time>
      </trkpt>
      <trkpt lat="42.38001" lon="2.6417">
        <ele>930.1</ele>
        <time>2018-11-26T03:28:04Z</time>
      </trkpt>
      <trkpt lat="42.38001" lon="2.6417">
        <ele>930.2</ele>
        <time>2018-11-26T03:28:04Z</time>
      </trkpt>
      <trkpt lat="42.38001" lon="2.6417">
        <ele>930.1</ele>
        <time>2018-11-26T03:28:04Z</time>
      </trkpt>
      <trkpt lat="42.38001" lon="2.6417">
        <ele>930.2</ele>
        <time>2018-11-26T03:28:04Z</time>
      </trkpt>
      <trkpt lat="42.38001" lon="2.6417">
        <ele>930.1</ele>
        <time>2018-11-26T03:28:04Z</time>
      </trkpt>
      <trkpt lat="42.38001" lon="2.6417">
        <ele>930.2</ele>
        <time>2018-11-26T03:28:04Z</time>
      </trkpt>
      <trkpt lat="42.38001" lon="2.6417">
        <ele>930</ele>
        <time>2018-11-26T03:28:04Z</time>
      </trkpt>
      <trkpt lat="42.38001" lon="2.6417">
        <ele>929.8</ele>
        <time>2018-11-26T03:28:05Z</time>
      </trkpt>
      <trkpt lat="42.38001" lon="2.6417">
        <ele>929.6</ele>
        <time>2018-11-26T03:28:05Z</time>
      </trkpt>
      <trkpt lat="42.38002" lon="2.6417">
        <ele>929.1</ele>
        <time>2018-11-26T03:28:05Z</time>
      </trkpt>
      <trkpt lat="42.38002" lon="2.6417">
        <ele>929.5</ele>
        <time>2018-11-26T03:28:05Z</time>
      </trkpt>
      <trkpt lat="42.38002" lon="2.6417">
        <ele>929.9</ele>
        <time>2018-11-26T03:28:05Z</time>
      </trkpt>
      <trkpt lat="42.38002" lon="2.6417">
        <ele>930.3</ele>
        <time>2018-11-26T03:28:05Z</time>
      </trkpt>
      <trkpt lat="42.38002" lon="2.6417">
        <ele>930.2</ele>
        <time>2018-11-26T03:28:05Z</time>
      </trkpt>
      <trkpt lat="42.38002" lon="2.64171">
        <ele>930.2</ele>
        <time>2018-11-26T03:28:05Z</time>
      </trkpt>
      <trkpt lat="42.38002" lon="2.64171">
        <ele>930.1</ele>
        <time>2018-11-26T03:28:05Z</time>
      </trkpt>
      <trkpt lat="42.38002" lon="2.64171">
        <ele>929.9</ele>
        <time>2018-11-26T03:28:05Z</time>
      </trkpt>
      <trkpt lat="42.38002" lon="2.64171">
        <ele>929.8</ele>
        <time>2018-11-26T03:28:05Z</time>
      </trkpt>
      <trkpt lat="42.38002" lon="2.64171">
        <ele>929.6</ele>
        <time>2018-11-26T03:28:05Z</time>
      </trkpt>
      <trkpt lat="42.38002" lon="2.64171">
        <ele>929.7</ele>
        <time>2018-11-26T03:28:05Z</time>
      </trkpt>
      <trkpt lat="42.38002" lon="2.64171">
        <ele>929.8</ele>
        <time>2018-11-26T03:28:05Z</time>
      </trkpt>
      <trkpt lat="42.38002" lon="2.64171">
        <ele>930</ele>
        <time>2018-11-26T03:28:05Z</time>
      </trkpt>
      <trkpt lat="42.38002" lon="2.64171">
        <ele>930.2</ele>
        <time>2018-11-26T03:28:05Z</time>
      </trkpt>
      <trkpt lat="42.38003" lon="2.64171">
        <ele>930.4</ele>
        <time>2018-11-26T03:28:05Z</time>
      </trkpt>
      <trkpt lat="42.38003" lon="2.64171">
        <ele>930.7</ele>
        <time>2018-11-26T03:28:05Z</time>
      </trkpt>
      <trkpt lat="42.38003" lon="2.64172">
        <ele>930.6</ele>
        <time>2018-11-26T03:28:05Z</time>
      </trkpt>
      <trkpt lat="42.38003" lon="2.64172">
        <ele>930.3</ele>
        <time>2018-11-26T03:28:05Z</time>
      </trkpt>
      <trkpt lat="42.38003" lon="2.64172">
        <ele>930.1</ele>
        <time>2018-11-26T03:28:05Z</time>
      </trkpt>
      <trkpt lat="42.38003" lon="2.64172">
        <ele>929.8</ele>
        <time>2018-11-26T03:28:05Z</time>
      </trkpt>
      <trkpt lat="42.38003" lon="2.64172">
        <ele>929.9</ele>
        <time>2018-11-26T03:28:05Z</time>
      </trkpt>
      <trkpt lat="42.38003" lon="2.64172">
        <ele>930.1</ele>
        <time>2018-11-26T03:28:05Z</time>
      </trkpt>
      <trkpt lat="42.38003" lon="2.64172">
        <ele>930.2</ele>
        <time>2018-11-26T03:28:06Z</time>
      </trkpt>
      <trkpt lat="42.38003" lon="2.64172">
        <ele>930.1</ele>
        <time>2018-11-26T03:28:06Z</time>
      </trkpt>
      <trkpt lat="42.38003" lon="2.64172">
        <ele>930</ele>
        <time>2018-11-26T03:28:06Z</time>
      </trkpt>
      <trkpt lat="42.38003" lon="2.64172">
        <ele>930</ele>
        <time>2018-11-26T03:28:06Z</time>
      </trkpt>
      <trkpt lat="42.38003" lon="2.64172">
        <ele>929.9</ele>
        <time>2018-11-26T03:28:06Z</time>
      </trkpt>
      <trkpt lat="42.38003" lon="2.64172">
        <ele>929.7</ele>
        <time>2018-11-26T03:28:06Z</time>
      </trkpt>
      <trkpt lat="42.38003" lon="2.64173">
        <ele>929.5</ele>
        <time>2018-11-26T03:28:06Z</time>
      </trkpt>
      <trkpt lat="42.38003" lon="2.64173">
        <ele>929.9</ele>
        <time>2018-11-26T03:28:06Z</time>
      </trkpt>
      <trkpt lat="42.38003" lon="2.64173">
        <ele>930.2</ele>
        <time>2018-11-26T03:28:06Z</time>
      </trkpt>
      <trkpt lat="42.38003" lon="2.64173">
        <ele>930.8</ele>
        <time>2018-11-26T03:28:06Z</time>
      </trkpt>
      <trkpt lat="42.38003" lon="2.64173">
        <ele>930.7</ele>
        <time>2018-11-26T03:28:06Z</time>
      </trkpt>
      <trkpt lat="42.38004" lon="2.64173">
        <ele>930.7</ele>
        <time>2018-11-26T03:28:06Z</time>
      </trkpt>
      <trkpt lat="42.38004" lon="2.64173">
        <ele>930.8</ele>
        <time>2018-11-26T03:28:06Z</time>
      </trkpt>
      <trkpt lat="42.38004" lon="2.64173">
        <ele>930.8</ele>
        <time>2018-11-26T03:28:06Z</time>
      </trkpt>
      <trkpt lat="42.38004" lon="2.64173">
        <ele>930.7</ele>
        <time>2018-11-26T03:28:06Z</time>
      </trkpt>
      <trkpt lat="42.38004" lon="2.64173">
        <ele>930.4</ele>
        <time>2018-11-26T03:28:06Z</time>
      </trkpt>
      <trkpt lat="42.38004" lon="2.64173">
        <ele>930.1</ele>
        <time>2018-11-26T03:28:06Z</time>
      </trkpt>
      <trkpt lat="42.38004" lon="2.64174">
        <ele>930.3</ele>
        <time>2018-11-26T03:28:06Z</time>
      </trkpt>
      <trkpt lat="42.38004" lon="2.64174">
        <ele>930.4</ele>
        <time>2018-11-26T03:28:06Z</time>
      </trkpt>
      <trkpt lat="42.38004" lon="2.64174">
        <ele>930.7</ele>
        <time>2018-11-26T03:28:06Z</time>
      </trkpt>
      <trkpt lat="42.38004" lon="2.64174">
        <ele>930.6</ele>
        <time>2018-11-26T03:28:06Z</time>
      </trkpt>
      <trkpt lat="42.38004" lon="2.64174">
        <ele>930.5</ele>
        <time>2018-11-26T03:28:07Z</time>
      </trkpt>
      <trkpt lat="42.38004" lon="2.64174">
        <ele>930.3</ele>
        <time>2018-11-26T03:28:07Z</time>
      </trkpt>
      <trkpt lat="42.38004" lon="2.64175">
        <ele>930.2</ele>
        <time>2018-11-26T03:28:07Z</time>
      </trkpt>
      <trkpt lat="42.38004" lon="2.64175">
        <ele>930</ele>
        <time>2018-11-26T03:28:07Z</time>
      </trkpt>
      <trkpt lat="42.38004" lon="2.64175">
        <ele>929.6</ele>
        <time>2018-11-26T03:28:07Z</time>
      </trkpt>
      <trkpt lat="42.38004" lon="2.64175">
        <ele>929.7</ele>
        <time>2018-11-26T03:28:07Z</time>
      </trkpt>
      <trkpt lat="42.38005" lon="2.64175">
        <ele>929.8</ele>
        <time>2018-11-26T03:28:07Z</time>
      </trkpt>
      <trkpt lat="42.38005" lon="2.64175">
        <ele>930</ele>
        <time>2018-11-26T03:28:07Z</time>
      </trkpt>
      <trkpt lat="42.38005" lon="2.64175">
        <ele>930.2</ele>
        <time>2018-11-26T03:28:07Z</time>
      </trkpt>
      <trkpt lat="42.38005" lon="2.64175">
        <ele>930.2</ele>
        <time>2018-11-26T03:28:07Z</time>
      </trkpt>
      <trkpt lat="42.38005" lon="2.64175">
        <ele>930.4</ele>
        <time>2018-11-26T03:28:07Z</time>
      </trkpt>
      <trkpt lat="42.38005" lon="2.64176">
        <ele>930.5</ele>
        <time>2018-11-26T03:28:07Z</time>
      </trkpt>
      <trkpt lat="42.38005" lon="2.64176">
        <ele>930.3</ele>
        <time>2018-11-26T03:28:07Z</time>
      </trkpt>
      <trkpt lat="42.38005" lon="2.64176">
        <ele>930.4</ele>
        <time>2018-11-26T03:28:07Z</time>
      </trkpt>
      <trkpt lat="42.38005" lon="2.64176">
        <ele>930.2</ele>
        <time>2018-11-26T03:28:08Z</time>
      </trkpt>
      <trkpt lat="42.38006" lon="2.64176">
        <ele>930.5</ele>
        <time>2018-11-26T03:28:08Z</time>
      </trkpt>
      <trkpt lat="42.38006" lon="2.64177">
        <ele>930.8</ele>
        <time>2018-11-26T03:28:08Z</time>
      </trkpt>
      <trkpt lat="42.38006" lon="2.64177">
        <ele>931.3</ele>
        <time>2018-11-26T03:28:08Z</time>
      </trkpt>
      <trkpt lat="42.38006" lon="2.64178">
        <ele>931.1</ele>
        <time>2018-11-26T03:28:08Z</time>
      </trkpt>
      <trkpt lat="42.38006" lon="2.64179">
        <ele>931</ele>
        <time>2018-11-26T03:28:08Z</time>
      </trkpt>
      <trkpt lat="42.38007" lon="2.6418">
        <ele>930.7</ele>
        <time>2018-11-26T03:28:09Z</time>
      </trkpt>
      <trkpt lat="42.38007" lon="2.64181">
        <ele>930.8</ele>
        <time>2018-11-26T03:28:09Z</time>
      </trkpt>
      <trkpt lat="42.38007" lon="2.64182">
        <ele>930.9</ele>
        <time>2018-11-26T03:28:09Z</time>
      </trkpt>
      <trkpt lat="42.38007" lon="2.64183">
        <ele>931</ele>
        <time>2018-11-26T03:28:10Z</time>
      </trkpt>
      <trkpt lat="42.38007" lon="2.64184">
        <ele>931.1</ele>
        <time>2018-11-26T03:28:10Z</time>
      </trkpt>
      <trkpt lat="42.38007" lon="2.64185">
        <ele>931.2</ele>
        <time>2018-11-26T03:28:11Z</time>
      </trkpt>
      <trkpt lat="42.38006" lon="2.64187">
        <ele>931.4</ele>
        <time>2018-11-26T03:28:11Z</time>
      </trkpt>
      <trkpt lat="42.38005" lon="2.6419">
        <ele>931.6</ele>
        <time>2018-11-26T03:28:12Z</time>
      </trkpt>
      <trkpt lat="42.38005" lon="2.64191">
        <ele>931.9</ele>
        <time>2018-11-26T03:28:13Z</time>
      </trkpt>
      <trkpt lat="42.38004" lon="2.64193">
        <ele>932</ele>
        <time>2018-11-26T03:28:13Z</time>
      </trkpt>
      <trkpt lat="42.38004" lon="2.64196">
        <ele>932.6</ele>
        <time>2018-11-26T03:28:14Z</time>
      </trkpt>
      <trkpt lat="42.38004" lon="2.64198">
        <ele>932.6</ele>
        <time>2018-11-26T03:28:14Z</time>
      </trkpt>
      <trkpt lat="42.38005" lon="2.64199">
        <ele>932.8</ele>
        <time>2018-11-26T03:28:15Z</time>
      </trkpt>
      <trkpt lat="42.38006" lon="2.642">
        <ele>932.8</ele>
        <time>2018-11-26T03:28:15Z</time>
      </trkpt>
      <trkpt lat="42.38007" lon="2.64201">
        <ele>933</ele>
        <time>2018-11-26T03:28:16Z</time>
      </trkpt>
      <trkpt lat="42.38013" lon="2.64204">
        <ele>934.6</ele>
        <time>2018-11-26T03:28:19Z</time>
      </trkpt>
      <trkpt lat="42.38014" lon="2.64205">
        <ele>935.4</ele>
        <time>2018-11-26T03:28:19Z</time>
      </trkpt>
      <trkpt lat="42.3802" lon="2.64206">
        <ele>936.4</ele>
        <time>2018-11-26T03:28:22Z</time>
      </trkpt>
      <trkpt lat="42.38021" lon="2.64206">
        <ele>936.9</ele>
        <time>2018-11-26T03:28:22Z</time>
      </trkpt>
      <trkpt lat="42.38023" lon="2.64206">
        <ele>937.2</ele>
        <time>2018-11-26T03:28:22Z</time>
      </trkpt>
      <trkpt lat="42.38023" lon="2.64206">
        <ele>937.6</ele>
        <time>2018-11-26T03:28:23Z</time>
      </trkpt>
      <trkpt lat="42.38024" lon="2.64207">
        <ele>938</ele>
        <time>2018-11-26T03:28:23Z</time>
      </trkpt>
      <trkpt lat="42.38027" lon="2.6421">
        <ele>938</ele>
        <time>2018-11-26T03:28:24Z</time>
      </trkpt>
      <trkpt lat="42.38028" lon="2.6421">
        <ele>938</ele>
        <time>2018-11-26T03:28:25Z</time>
      </trkpt>
      <trkpt lat="42.38028" lon="2.64211">
        <ele>938.2</ele>
        <time>2018-11-26T03:28:25Z</time>
      </trkpt>
      <trkpt lat="42.38029" lon="2.64211">
        <ele>938.6</ele>
        <time>2018-11-26T03:28:26Z</time>
      </trkpt>
      <trkpt lat="42.3803" lon="2.64211">
        <ele>939.1</ele>
        <time>2018-11-26T03:28:26Z</time>
      </trkpt>
      <trkpt lat="42.38031" lon="2.64211">
        <ele>939.3</ele>
        <time>2018-11-26T03:28:26Z</time>
      </trkpt>
      <trkpt lat="42.38032" lon="2.64211">
        <ele>939.7</ele>
        <time>2018-11-26T03:28:27Z</time>
      </trkpt>
      <trkpt lat="42.38034" lon="2.64212">
        <ele>940.3</ele>
        <time>2018-11-26T03:28:27Z</time>
      </trkpt>
      <trkpt lat="42.38034" lon="2.64212">
        <ele>940.7</ele>
        <time>2018-11-26T03:28:28Z</time>
      </trkpt>
      <trkpt lat="42.38035" lon="2.64212">
        <ele>941.2</ele>
        <time>2018-11-26T03:28:28Z</time>
      </trkpt>
      <trkpt lat="42.38037" lon="2.64212">
        <ele>941.8</ele>
        <time>2018-11-26T03:28:29Z</time>
      </trkpt>
      <trkpt lat="42.3804" lon="2.64212">
        <ele>942.6</ele>
        <time>2018-11-26T03:28:30Z</time>
      </trkpt>
      <trkpt lat="42.38043" lon="2.64212">
        <ele>943.5</ele>
        <time>2018-11-26T03:28:31Z</time>
      </trkpt>
      <trkpt lat="42.38044" lon="2.64213">
        <ele>943.6</ele>
        <time>2018-11-26T03:28:32Z</time>
      </trkpt>
      <trkpt lat="42.38045" lon="2.64212">
        <ele>943.8</ele>
        <time>2018-11-26T03:28:32Z</time>
      </trkpt>
      <trkpt lat="42.38046" lon="2.64212">
        <ele>943.9</ele>
        <time>2018-11-26T03:28:32Z</time>
      </trkpt>
      <trkpt lat="42.38047" lon="2.64212">
        <ele>944</ele>
        <time>2018-11-26T03:28:33Z</time>
      </trkpt>
      <trkpt lat="42.38049" lon="2.64212">
        <ele>944.2</ele>
        <time>2018-11-26T03:28:33Z</time>
      </trkpt>
      <trkpt lat="42.3805" lon="2.64213">
        <ele>944.5</ele>
        <time>2018-11-26T03:28:34Z</time>
      </trkpt>
      <trkpt lat="42.38055" lon="2.64213">
        <ele>946.1</ele>
        <time>2018-11-26T03:28:36Z</time>
      </trkpt>
      <trkpt lat="42.38056" lon="2.64213">
        <ele>946.6</ele>
        <time>2018-11-26T03:28:36Z</time>
      </trkpt>
      <trkpt lat="42.38059" lon="2.64215">
        <ele>947.7</ele>
        <time>2018-11-26T03:28:38Z</time>
      </trkpt>
      <trkpt lat="42.3806" lon="2.64215">
        <ele>948.1</ele>
        <time>2018-11-26T03:28:38Z</time>
      </trkpt>
      <trkpt lat="42.38061" lon="2.64215">
        <ele>948</ele>
        <time>2018-11-26T03:28:38Z</time>
      </trkpt>
      <trkpt lat="42.38063" lon="2.64215">
        <ele>948.1</ele>
        <time>2018-11-26T03:28:39Z</time>
      </trkpt>
      <trkpt lat="42.38063" lon="2.64215">
        <ele>948</ele>
        <time>2018-11-26T03:28:40Z</time>
      </trkpt>
      <trkpt lat="42.38065" lon="2.64215">
        <ele>948</ele>
        <time>2018-11-26T03:28:40Z</time>
      </trkpt>
      <trkpt lat="42.38065" lon="2.64214">
        <ele>948</ele>
        <time>2018-11-26T03:28:40Z</time>
      </trkpt>
      <trkpt lat="42.38066" lon="2.64214">
        <ele>948.2</ele>
        <time>2018-11-26T03:28:41Z</time>
      </trkpt>
      <trkpt lat="42.38069" lon="2.64213">
        <ele>949.5</ele>
        <time>2018-11-26T03:28:42Z</time>
      </trkpt>
      <trkpt lat="42.3807" lon="2.64213">
        <ele>949.6</ele>
        <time>2018-11-26T03:28:42Z</time>
      </trkpt>
      <trkpt lat="42.38073" lon="2.64214">
        <ele>950.4</ele>
        <time>2018-11-26T03:28:43Z</time>
      </trkpt>
      <trkpt lat="42.38076" lon="2.64214">
        <ele>951.2</ele>
        <time>2018-11-26T03:28:45Z</time>
      </trkpt>
      <trkpt lat="42.38077" lon="2.64214">
        <ele>951.4</ele>
        <time>2018-11-26T03:28:45Z</time>
      </trkpt>
      <trkpt lat="42.38078" lon="2.64215">
        <ele>951.6</ele>
        <time>2018-11-26T03:28:45Z</time>
      </trkpt>
      <trkpt lat="42.38079" lon="2.64215">
        <ele>952.1</ele>
        <time>2018-11-26T03:28:46Z</time>
      </trkpt>
      <trkpt lat="42.38079" lon="2.64215">
        <ele>952.1</ele>
        <time>2018-11-26T03:28:46Z</time>
      </trkpt>
      <trkpt lat="42.38079" lon="2.64215">
        <ele>952.1</ele>
        <time>2018-11-26T03:28:46Z</time>
      </trkpt>
      <trkpt lat="42.3808" lon="2.64216">
        <ele>952</ele>
        <time>2018-11-26T03:28:46Z</time>
      </trkpt>
      <trkpt lat="42.3808" lon="2.64216">
        <ele>951.7</ele>
        <time>2018-11-26T03:28:46Z</time>
      </trkpt>
      <trkpt lat="42.38081" lon="2.64216">
        <ele>951.4</ele>
        <time>2018-11-26T03:28:47Z</time>
      </trkpt>
      <trkpt lat="42.38082" lon="2.64217">
        <ele>950.8</ele>
        <time>2018-11-26T03:28:47Z</time>
      </trkpt>
      <trkpt lat="42.38082" lon="2.64218">
        <ele>949.9</ele>
        <time>2018-11-26T03:28:47Z</time>
      </trkpt>
      <trkpt lat="42.38083" lon="2.64218">
        <ele>948.8</ele>
        <time>2018-11-26T03:28:48Z</time>
      </trkpt>
      <trkpt lat="42.38084" lon="2.64218">
        <ele>947.3</ele>
        <time>2018-11-26T03:28:48Z</time>
      </trkpt>
      <trkpt lat="42.38084" lon="2.64218">
        <ele>945.1</ele>
        <time>2018-11-26T03:28:48Z</time>
      </trkpt>
      <trkpt lat="42.38085" lon="2.64218">
        <ele>942.4</ele>
        <time>2018-11-26T03:28:48Z</time>
      </trkpt>
      <trkpt lat="42.38085" lon="2.64219">
        <ele>938.7</ele>
        <time>2018-11-26T03:28:49Z</time>
      </trkpt>
      <trkpt lat="42.38085" lon="2.6422">
        <ele>933</ele>
        <time>2018-11-26T03:28:49Z</time>
      </trkpt>
      <trkpt lat="42.38086" lon="2.6422">
        <ele>933.1</ele>
        <time>2018-11-26T03:28:49Z</time>
      </trkpt>
      <trkpt lat="42.38086" lon="2.6422">
        <ele>933</ele>
        <time>2018-11-26T03:28:49Z</time>
      </trkpt>
      <trkpt lat="42.38086" lon="2.64221">
        <ele>932.9</ele>
        <time>2018-11-26T03:28:49Z</time>
      </trkpt>
      <trkpt lat="42.38086" lon="2.64221">
        <ele>932.9</ele>
        <time>2018-11-26T03:28:50Z</time>
      </trkpt>
      <trkpt lat="42.38086" lon="2.64222">
        <ele>933.1</ele>
        <time>2018-11-26T03:28:50Z</time>
      </trkpt>
      <trkpt lat="42.38086" lon="2.64222">
        <ele>933.4</ele>
        <time>2018-11-26T03:28:50Z</time>
      </trkpt>
      <trkpt lat="42.38086" lon="2.64222">
        <ele>933.4</ele>
        <time>2018-11-26T03:28:50Z</time>
      </trkpt>
      <trkpt lat="42.38085" lon="2.64222">
        <ele>933.6</ele>
        <time>2018-11-26T03:28:50Z</time>
      </trkpt>
      <trkpt lat="42.38085" lon="2.64222">
        <ele>933.6</ele>
        <time>2018-11-26T03:28:50Z</time>
      </trkpt>
      <trkpt lat="42.38085" lon="2.64222">
        <ele>933.6</ele>
        <time>2018-11-26T03:28:50Z</time>
      </trkpt>
      <trkpt lat="42.38084" lon="2.64223">
        <ele>933.7</ele>
        <time>2018-11-26T03:28:50Z</time>
      </trkpt>
      <trkpt lat="42.38084" lon="2.64224">
        <ele>933.8</ele>
        <time>2018-11-26T03:28:51Z</time>
      </trkpt>
      <trkpt lat="42.38083" lon="2.64224">
        <ele>933.9</ele>
        <time>2018-11-26T03:28:51Z</time>
      </trkpt>
      <trkpt lat="42.38083" lon="2.64225">
        <ele>933.8</ele>
        <time>2018-11-26T03:28:51Z</time>
      </trkpt>
      <trkpt lat="42.38083" lon="2.64225">
        <ele>933.8</ele>
        <time>2018-11-26T03:28:51Z</time>
      </trkpt>
      <trkpt lat="42.38083" lon="2.64225">
        <ele>933.8</ele>
        <time>2018-11-26T03:28:51Z</time>
      </trkpt>
      <trkpt lat="42.38083" lon="2.64225">
        <ele>933.9</ele>
        <time>2018-11-26T03:28:51Z</time>
      </trkpt>
      <trkpt lat="42.38083" lon="2.64225">
        <ele>934</ele>
        <time>2018-11-26T03:28:51Z</time>
      </trkpt>
      <trkpt lat="42.38083" lon="2.64225">
        <ele>933.8</ele>
        <time>2018-11-26T03:28:51Z</time>
      </trkpt>
      <trkpt lat="42.38083" lon="2.64225">
        <ele>933.8</ele>
        <time>2018-11-26T03:28:51Z</time>
      </trkpt>
      <trkpt lat="42.38083" lon="2.64225">
        <ele>933.6</ele>
        <time>2018-11-26T03:28:51Z</time>
      </trkpt>
      <trkpt lat="42.38083" lon="2.64225">
        <ele>933.4</ele>
        <time>2018-11-26T03:28:51Z</time>
      </trkpt>
      <trkpt lat="42.38083" lon="2.64225">
        <ele>933.4</ele>
        <time>2018-11-26T03:28:51Z</time>
      </trkpt>
      <trkpt lat="42.38083" lon="2.64225">
        <ele>933.3</ele>
        <time>2018-11-26T03:28:51Z</time>
      </trkpt>
      <trkpt lat="42.38083" lon="2.64225">
        <ele>933.3</ele>
        <time>2018-11-26T03:28:51Z</time>
      </trkpt>
      <trkpt lat="42.38083" lon="2.64226">
        <ele>933.5</ele>
        <time>2018-11-26T03:28:52Z</time>
      </trkpt>
      <trkpt lat="42.38083" lon="2.64227">
        <ele>933.9</ele>
        <time>2018-11-26T03:28:52Z</time>
      </trkpt>
      <trkpt lat="42.38083" lon="2.64228">
        <ele>934.3</ele>
        <time>2018-11-26T03:28:52Z</time>
      </trkpt>
      <trkpt lat="42.38084" lon="2.64228">
        <ele>934.3</ele>
        <time>2018-11-26T03:28:52Z</time>
      </trkpt>
      <trkpt lat="42.38084" lon="2.64229">
        <ele>934.3</ele>
        <time>2018-11-26T03:28:53Z</time>
      </trkpt>
      <trkpt lat="42.38084" lon="2.64229">
        <ele>934.5</ele>
        <time>2018-11-26T03:28:53Z</time>
      </trkpt>
      <trkpt lat="42.38084" lon="2.64229">
        <ele>934.7</ele>
        <time>2018-11-26T03:28:53Z</time>
      </trkpt>
      <trkpt lat="42.38084" lon="2.64229">
        <ele>934.8</ele>
        <time>2018-11-26T03:28:53Z</time>
      </trkpt>
      <trkpt lat="42.38084" lon="2.64229">
        <ele>935</ele>
        <time>2018-11-26T03:28:53Z</time>
      </trkpt>
      <trkpt lat="42.38084" lon="2.64229">
        <ele>935</ele>
        <time>2018-11-26T03:28:53Z</time>
      </trkpt>
      <trkpt lat="42.38084" lon="2.64229">
        <ele>935.1</ele>
        <time>2018-11-26T03:28:53Z</time>
      </trkpt>
      <trkpt lat="42.38084" lon="2.64229">
        <ele>935.2</ele>
        <time>2018-11-26T03:28:53Z</time>
      </trkpt>
      <trkpt lat="42.38084" lon="2.64229">
        <ele>935.1</ele>
        <time>2018-11-26T03:28:53Z</time>
      </trkpt>
      <trkpt lat="42.38084" lon="2.64229">
        <ele>935.2</ele>
        <time>2018-11-26T03:28:53Z</time>
      </trkpt>
      <trkpt lat="42.38084" lon="2.6423">
        <ele>935</ele>
        <time>2018-11-26T03:28:53Z</time>
      </trkpt>
      <trkpt lat="42.38084" lon="2.6423">
        <ele>935</ele>
        <time>2018-11-26T03:28:53Z</time>
      </trkpt>
      <trkpt lat="42.38085" lon="2.64231">
        <ele>935.2</ele>
        <time>2018-11-26T03:28:53Z</time>
      </trkpt>
      <trkpt lat="42.38085" lon="2.64231">
        <ele>935.5</ele>
        <time>2018-11-26T03:28:54Z</time>
      </trkpt>
      <trkpt lat="42.38086" lon="2.64231">
        <ele>935.8</ele>
        <time>2018-11-26T03:28:54Z</time>
      </trkpt>
      <trkpt lat="42.38086" lon="2.64231">
        <ele>936.1</ele>
        <time>2018-11-26T03:28:54Z</time>
      </trkpt>
      <trkpt lat="42.38087" lon="2.64232">
        <ele>936.6</ele>
        <time>2018-11-26T03:28:54Z</time>
      </trkpt>
      <trkpt lat="42.38087" lon="2.64232">
        <ele>937.1</ele>
        <time>2018-11-26T03:28:54Z</time>
      </trkpt>
      <trkpt lat="42.38088" lon="2.64232">
        <ele>937.3</ele>
        <time>2018-11-26T03:28:55Z</time>
      </trkpt>
      <trkpt lat="42.38088" lon="2.64233">
        <ele>937.7</ele>
        <time>2018-11-26T03:28:55Z</time>
      </trkpt>
      <trkpt lat="42.38089" lon="2.64233">
        <ele>938.2</ele>
        <time>2018-11-26T03:28:55Z</time>
      </trkpt>
      <trkpt lat="42.3809" lon="2.64234">
        <ele>938.2</ele>
        <time>2018-11-26T03:28:56Z</time>
      </trkpt>
      <trkpt lat="42.3809" lon="2.64235">
        <ele>938</ele>
        <time>2018-11-26T03:28:56Z</time>
      </trkpt>
      <trkpt lat="42.3809" lon="2.64235">
        <ele>938.1</ele>
        <time>2018-11-26T03:28:56Z</time>
      </trkpt>
      <trkpt lat="42.38091" lon="2.64236">
        <ele>937.9</ele>
        <time>2018-11-26T03:28:56Z</time>
      </trkpt>
      <trkpt lat="42.38092" lon="2.64236">
        <ele>938.1</ele>
        <time>2018-11-26T03:28:57Z</time>
      </trkpt>
      <trkpt lat="42.38092" lon="2.64236">
        <ele>938.5</ele>
        <time>2018-11-26T03:28:57Z</time>
      </trkpt>
      <trkpt lat="42.38093" lon="2.64236">
        <ele>938.7</ele>
        <time>2018-11-26T03:28:57Z</time>
      </trkpt>
      <trkpt lat="42.38094" lon="2.64236">
        <ele>938.9</ele>
        <time>2018-11-26T03:28:57Z</time>
      </trkpt>
      <trkpt lat="42.38094" lon="2.64237">
        <ele>939.1</ele>
        <time>2018-11-26T03:28:58Z</time>
      </trkpt>
      <trkpt lat="42.38095" lon="2.64237">
        <ele>939.4</ele>
        <time>2018-11-26T03:28:58Z</time>
      </trkpt>
      <trkpt lat="42.38096" lon="2.64237">
        <ele>939.7</ele>
        <time>2018-11-26T03:28:58Z</time>
      </trkpt>
      <trkpt lat="42.38096" lon="2.64237">
        <ele>939.9</ele>
        <time>2018-11-26T03:28:58Z</time>
      </trkpt>
      <trkpt lat="42.38097" lon="2.64236">
        <ele>940.4</ele>
        <time>2018-11-26T03:28:59Z</time>
      </trkpt>
      <trkpt lat="42.38097" lon="2.64236">
        <ele>940.5</ele>
        <time>2018-11-26T03:28:59Z</time>
      </trkpt>
      <trkpt lat="42.38098" lon="2.64236">
        <ele>940.8</ele>
        <time>2018-11-26T03:28:59Z</time>
      </trkpt>
      <trkpt lat="42.38098" lon="2.64235">
        <ele>941.2</ele>
        <time>2018-11-26T03:28:59Z</time>
      </trkpt>
      <trkpt lat="42.38099" lon="2.64236">
        <ele>941.4</ele>
        <time>2018-11-26T03:29:00Z</time>
      </trkpt>
      <trkpt lat="42.38101" lon="2.64236">
        <ele>942</ele>
        <time>2018-11-26T03:29:00Z</time>
      </trkpt>
      <trkpt lat="42.38102" lon="2.64237">
        <ele>942.4</ele>
        <time>2018-11-26T03:29:01Z</time>
      </trkpt>
      <trkpt lat="42.38103" lon="2.64237">
        <ele>942.7</ele>
        <time>2018-11-26T03:29:01Z</time>
      </trkpt>
      <trkpt lat="42.38103" lon="2.64237">
        <ele>942.9</ele>
        <time>2018-11-26T03:29:02Z</time>
      </trkpt>
      <trkpt lat="42.38104" lon="2.64238">
        <ele>943.5</ele>
        <time>2018-11-26T03:29:02Z</time>
      </trkpt>
      <trkpt lat="42.38104" lon="2.64239">
        <ele>943.1</ele>
        <time>2018-11-26T03:29:02Z</time>
      </trkpt>
      <trkpt lat="42.38104" lon="2.6424">
        <ele>942.7</ele>
        <time>2018-11-26T03:29:02Z</time>
      </trkpt>
      <trkpt lat="42.38104" lon="2.6424">
        <ele>942.2</ele>
        <time>2018-11-26T03:29:02Z</time>
      </trkpt>
      <trkpt lat="42.38104" lon="2.64239">
        <ele>942.2</ele>
        <time>2018-11-26T03:29:03Z</time>
      </trkpt>
      <trkpt lat="42.38104" lon="2.64239">
        <ele>942.4</ele>
        <time>2018-11-26T03:29:03Z</time>
      </trkpt>
      <trkpt lat="42.38104" lon="2.64239">
        <ele>942.5</ele>
        <time>2018-11-26T03:29:03Z</time>
      </trkpt>
      <trkpt lat="42.38104" lon="2.64239">
        <ele>942.4</ele>
        <time>2018-11-26T03:29:03Z</time>
      </trkpt>
      <trkpt lat="42.38104" lon="2.64239">
        <ele>942.2</ele>
        <time>2018-11-26T03:29:03Z</time>
      </trkpt>
      <trkpt lat="42.38105" lon="2.6424">
        <ele>941.8</ele>
        <time>2018-11-26T03:29:03Z</time>
      </trkpt>
      <trkpt lat="42.38105" lon="2.6424">
        <ele>942</ele>
        <time>2018-11-26T03:29:03Z</time>
      </trkpt>
      <trkpt lat="42.38105" lon="2.6424">
        <ele>942.1</ele>
        <time>2018-11-26T03:29:03Z</time>
      </trkpt>
      <trkpt lat="42.38105" lon="2.6424">
        <ele>942.1</ele>
        <time>2018-11-26T03:29:03Z</time>
      </trkpt>
      <trkpt lat="42.38106" lon="2.6424">
        <ele>942.3</ele>
        <time>2018-11-26T03:29:03Z</time>
      </trkpt>
      <trkpt lat="42.38106" lon="2.6424">
        <ele>942.4</ele>
        <time>2018-11-26T03:29:03Z</time>
      </trkpt>
      <trkpt lat="42.38106" lon="2.6424">
        <ele>942.4</ele>
        <time>2018-11-26T03:29:03Z</time>
      </trkpt>
      <trkpt lat="42.38106" lon="2.64239">
        <ele>942.3</ele>
        <time>2018-11-26T03:29:03Z</time>
      </trkpt>
      <trkpt lat="42.38106" lon="2.64239">
        <ele>942.3</ele>
        <time>2018-11-26T03:29:04Z</time>
      </trkpt>
      <trkpt lat="42.38106" lon="2.64239">
        <ele>942.3</ele>
        <time>2018-11-26T03:29:04Z</time>
      </trkpt>
      <trkpt lat="42.38106" lon="2.64239">
        <ele>942.4</ele>
        <time>2018-11-26T03:29:04Z</time>
      </trkpt>
      <trkpt lat="42.38106" lon="2.64239">
        <ele>942.3</ele>
        <time>2018-11-26T03:29:04Z</time>
      </trkpt>
      <trkpt lat="42.38106" lon="2.64239">
        <ele>942.3</ele>
        <time>2018-11-26T03:29:04Z</time>
      </trkpt>
      <trkpt lat="42.38106" lon="2.64239">
        <ele>942.2</ele>
        <time>2018-11-26T03:29:04Z</time>
      </trkpt>
      <trkpt lat="42.38106" lon="2.64239">
        <ele>942.3</ele>
        <time>2018-11-26T03:29:04Z</time>
      </trkpt>
      <trkpt lat="42.38106" lon="2.64239">
        <ele>942.4</ele>
        <time>2018-11-26T03:29:04Z</time>
      </trkpt>
      <trkpt lat="42.38106" lon="2.64239">
        <ele>942.7</ele>
        <time>2018-11-26T03:29:04Z</time>
      </trkpt>
      <trkpt lat="42.38106" lon="2.64239">
        <ele>943</ele>
        <time>2018-11-26T03:29:04Z</time>
      </trkpt>
      <trkpt lat="42.38106" lon="2.64239">
        <ele>943.3</ele>
        <time>2018-11-26T03:29:04Z</time>
      </trkpt>
      <trkpt lat="42.38106" lon="2.64239">
        <ele>943.7</ele>
        <time>2018-11-26T03:29:04Z</time>
      </trkpt>
      <trkpt lat="42.38107" lon="2.64239">
        <ele>944.4</ele>
        <time>2018-11-26T03:29:04Z</time>
      </trkpt>
      <trkpt lat="42.38107" lon="2.6424">
        <ele>944.4</ele>
        <time>2018-11-26T03:29:04Z</time>
      </trkpt>
      <trkpt lat="42.38108" lon="2.64241">
        <ele>944.3</ele>
        <time>2018-11-26T03:29:05Z</time>
      </trkpt>
      <trkpt lat="42.38108" lon="2.64241">
        <ele>944.3</ele>
        <time>2018-11-26T03:29:05Z</time>
      </trkpt>
      <trkpt lat="42.38109" lon="2.64242">
        <ele>944.5</ele>
        <time>2018-11-26T03:29:05Z</time>
      </trkpt>
      <trkpt lat="42.3811" lon="2.64242">
        <ele>944.9</ele>
        <time>2018-11-26T03:29:06Z</time>
      </trkpt>
      <trkpt lat="42.3811" lon="2.64243">
        <ele>945.3</ele>
        <time>2018-11-26T03:29:06Z</time>
      </trkpt>
      <trkpt lat="42.38111" lon="2.64243">
        <ele>945.1</ele>
        <time>2018-11-26T03:29:06Z</time>
      </trkpt>
      <trkpt lat="42.38111" lon="2.64244">
        <ele>945.2</ele>
        <time>2018-11-26T03:29:06Z</time>
      </trkpt>
      <trkpt lat="42.38111" lon="2.64244">
        <ele>945</ele>
        <time>2018-11-26T03:29:07Z</time>
      </trkpt>
      <trkpt lat="42.38111" lon="2.64245">
        <ele>945.1</ele>
        <time>2018-11-26T03:29:07Z</time>
      </trkpt>
      <trkpt lat="42.38111" lon="2.64244">
        <ele>945.2</ele>
        <time>2018-11-26T03:29:07Z</time>
      </trkpt>
      <trkpt lat="42.38111" lon="2.64244">
        <ele>945.1</ele>
        <time>2018-11-26T03:29:07Z</time>
      </trkpt>
      <trkpt lat="42.38111" lon="2.64244">
        <ele>945.1</ele>
        <time>2018-11-26T03:29:07Z</time>
      </trkpt>
      <trkpt lat="42.38111" lon="2.64244">
        <ele>945.2</ele>
        <time>2018-11-26T03:29:07Z</time>
      </trkpt>
      <trkpt lat="42.38112" lon="2.64243">
        <ele>945.3</ele>
        <time>2018-11-26T03:29:07Z</time>
      </trkpt>
      <trkpt lat="42.38112" lon="2.64243">
        <ele>945.3</ele>
        <time>2018-11-26T03:29:07Z</time>
      </trkpt>
      <trkpt lat="42.38112" lon="2.64243">
        <ele>945.5</ele>
        <time>2018-11-26T03:29:07Z</time>
      </trkpt>
      <trkpt lat="42.38112" lon="2.64243">
        <ele>945.7</ele>
        <time>2018-11-26T03:29:07Z</time>
      </trkpt>
      <trkpt lat="42.38112" lon="2.64243">
        <ele>945.9</ele>
        <time>2018-11-26T03:29:07Z</time>
      </trkpt>
      <trkpt lat="42.38113" lon="2.64243">
        <ele>945.9</ele>
        <time>2018-11-26T03:29:07Z</time>
      </trkpt>
      <trkpt lat="42.38113" lon="2.64243">
        <ele>945.8</ele>
        <time>2018-11-26T03:29:07Z</time>
      </trkpt>
      <trkpt lat="42.38113" lon="2.64243">
        <ele>945.6</ele>
        <time>2018-11-26T03:29:07Z</time>
      </trkpt>
      <trkpt lat="42.38113" lon="2.64243">
        <ele>945.4</ele>
        <time>2018-11-26T03:29:07Z</time>
      </trkpt>
      <trkpt lat="42.38113" lon="2.64243">
        <ele>945.3</ele>
        <time>2018-11-26T03:29:08Z</time>
      </trkpt>
      <trkpt lat="42.38113" lon="2.64243">
        <ele>945.3</ele>
        <time>2018-11-26T03:29:08Z</time>
      </trkpt>
      <trkpt lat="42.38113" lon="2.64242">
        <ele>945.3</ele>
        <time>2018-11-26T03:29:08Z</time>
      </trkpt>
      <trkpt lat="42.38113" lon="2.64243">
        <ele>945.3</ele>
        <time>2018-11-26T03:29:08Z</time>
      </trkpt>
      <trkpt lat="42.38113" lon="2.64242">
        <ele>945.3</ele>
        <time>2018-11-26T03:29:08Z</time>
      </trkpt>
      <trkpt lat="42.38113" lon="2.64242">
        <ele>945.4</ele>
        <time>2018-11-26T03:29:08Z</time>
      </trkpt>
      <trkpt lat="42.38113" lon="2.64242">
        <ele>945.5</ele>
        <time>2018-11-26T03:29:08Z</time>
      </trkpt>
      <trkpt lat="42.38113" lon="2.64242">
        <ele>945.7</ele>
        <time>2018-11-26T03:29:08Z</time>
      </trkpt>
      <trkpt lat="42.38113" lon="2.64242">
        <ele>945.7</ele>
        <time>2018-11-26T03:29:08Z</time>
      </trkpt>
      <trkpt lat="42.38113" lon="2.64242">
        <ele>945.8</ele>
        <time>2018-11-26T03:29:08Z</time>
      </trkpt>
      <trkpt lat="42.38113" lon="2.64242">
        <ele>945.9</ele>
        <time>2018-11-26T03:29:08Z</time>
      </trkpt>
      <trkpt lat="42.38113" lon="2.64242">
        <ele>946.1</ele>
        <time>2018-11-26T03:29:08Z</time>
      </trkpt>
      <trkpt lat="42.38113" lon="2.64242">
        <ele>945.9</ele>
        <time>2018-11-26T03:29:08Z</time>
      </trkpt>
      <trkpt lat="42.38113" lon="2.64242">
        <ele>945.8</ele>
        <time>2018-11-26T03:29:08Z</time>
      </trkpt>
      <trkpt lat="42.38113" lon="2.64242">
        <ele>945.6</ele>
        <time>2018-11-26T03:29:08Z</time>
      </trkpt>
      <trkpt lat="42.38113" lon="2.64242">
        <ele>945.4</ele>
        <time>2018-11-26T03:29:08Z</time>
      </trkpt>
      <trkpt lat="42.38113" lon="2.64242">
        <ele>945.3</ele>
        <time>2018-11-26T03:29:08Z</time>
      </trkpt>
      <trkpt lat="42.38113" lon="2.64242">
        <ele>944.9</ele>
        <time>2018-11-26T03:29:08Z</time>
      </trkpt>
      <trkpt lat="42.38113" lon="2.64242">
        <ele>945</ele>
        <time>2018-11-26T03:29:08Z</time>
      </trkpt>
      <trkpt lat="42.38113" lon="2.64242">
        <ele>944.9</ele>
        <time>2018-11-26T03:29:08Z</time>
      </trkpt>
      <trkpt lat="42.38113" lon="2.64242">
        <ele>945</ele>
        <time>2018-11-26T03:29:08Z</time>
      </trkpt>
      <trkpt lat="42.38113" lon="2.64242">
        <ele>945.2</ele>
        <time>2018-11-26T03:29:08Z</time>
      </trkpt>
      <trkpt lat="42.38113" lon="2.64242">
        <ele>945.4</ele>
        <time>2018-11-26T03:29:08Z</time>
      </trkpt>
      <trkpt lat="42.38113" lon="2.64242">
        <ele>945.6</ele>
        <time>2018-11-26T03:29:08Z</time>
      </trkpt>
      <trkpt lat="42.38113" lon="2.64242">
        <ele>945.6</ele>
        <time>2018-11-26T03:29:08Z</time>
      </trkpt>
      <trkpt lat="42.38113" lon="2.64242">
        <ele>945.4</ele>
        <time>2018-11-26T03:29:08Z</time>
      </trkpt>
      <trkpt lat="42.38113" lon="2.64242">
        <ele>945.4</ele>
        <time>2018-11-26T03:29:08Z</time>
      </trkpt>
      <trkpt lat="42.38113" lon="2.64242">
        <ele>945.4</ele>
        <time>2018-11-26T03:29:08Z</time>
      </trkpt>
      <trkpt lat="42.38113" lon="2.64242">
        <ele>945.5</ele>
        <time>2018-11-26T03:29:08Z</time>
      </trkpt>
      <trkpt lat="42.38113" lon="2.64242">
        <ele>945.5</ele>
        <time>2018-11-26T03:29:08Z</time>
      </trkpt>
      <trkpt lat="42.38113" lon="2.64242">
        <ele>945.7</ele>
        <time>2018-11-26T03:29:08Z</time>
      </trkpt>
      <trkpt lat="42.38113" lon="2.64242">
        <ele>945.7</ele>
        <time>2018-11-26T03:29:08Z</time>
      </trkpt>
      <trkpt lat="42.38113" lon="2.64242">
        <ele>945.5</ele>
        <time>2018-11-26T03:29:08Z</time>
      </trkpt>
      <trkpt lat="42.38113" lon="2.64242">
        <ele>945.2</ele>
        <time>2018-11-26T03:29:08Z</time>
      </trkpt>
      <trkpt lat="42.38113" lon="2.64242">
        <ele>945.3</ele>
        <time>2018-11-26T03:29:08Z</time>
      </trkpt>
      <trkpt lat="42.38113" lon="2.64242">
        <ele>945.5</ele>
        <time>2018-11-26T03:29:08Z</time>
      </trkpt>
      <trkpt lat="42.38113" lon="2.64242">
        <ele>945.6</ele>
        <time>2018-11-26T03:29:08Z</time>
      </trkpt>
      <trkpt lat="42.38113" lon="2.64242">
        <ele>945.6</ele>
        <time>2018-11-26T03:29:08Z</time>
      </trkpt>
      <trkpt lat="42.38113" lon="2.64242">
        <ele>945.7</ele>
        <time>2018-11-26T03:29:08Z</time>
      </trkpt>
      <trkpt lat="42.38113" lon="2.64242">
        <ele>945.8</ele>
        <time>2018-11-26T03:29:08Z</time>
      </trkpt>
      <trkpt lat="42.38113" lon="2.64242">
        <ele>945.7</ele>
        <time>2018-11-26T03:29:09Z</time>
      </trkpt>
      <trkpt lat="42.38113" lon="2.64242">
        <ele>945.5</ele>
        <time>2018-11-26T03:29:09Z</time>
      </trkpt>
      <trkpt lat="42.38113" lon="2.64242">
        <ele>945.1</ele>
        <time>2018-11-26T03:29:09Z</time>
      </trkpt>
      <trkpt lat="42.38113" lon="2.64242">
        <ele>944.8</ele>
        <time>2018-11-26T03:29:09Z</time>
      </trkpt>
      <trkpt lat="42.38113" lon="2.64242">
        <ele>945</ele>
        <time>2018-11-26T03:29:09Z</time>
      </trkpt>
      <trkpt lat="42.38113" lon="2.64242">
        <ele>945.2</ele>
        <time>2018-11-26T03:29:09Z</time>
      </trkpt>
      <trkpt lat="42.38113" lon="2.64242">
        <ele>945.5</ele>
        <time>2018-11-26T03:29:09Z</time>
      </trkpt>
      <trkpt lat="42.38113" lon="2.64242">
        <ele>945.4</ele>
        <time>2018-11-26T03:29:09Z</time>
      </trkpt>
      <trkpt lat="42.38113" lon="2.64242">
        <ele>945.5</ele>
        <time>2018-11-26T03:29:09Z</time>
      </trkpt>
      <trkpt lat="42.38113" lon="2.64242">
        <ele>945.6</ele>
        <time>2018-11-26T03:29:09Z</time>
      </trkpt>
      <trkpt lat="42.38113" lon="2.64242">
        <ele>945.6</ele>
        <time>2018-11-26T03:29:09Z</time>
      </trkpt>
      <trkpt lat="42.38113" lon="2.64242">
        <ele>945.4</ele>
        <time>2018-11-26T03:29:09Z</time>
      </trkpt>
      <trkpt lat="42.38113" lon="2.64242">
        <ele>945.3</ele>
        <time>2018-11-26T03:29:09Z</time>
      </trkpt>
      <trkpt lat="42.38113" lon="2.64242">
        <ele>945.4</ele>
        <time>2018-11-26T03:29:09Z</time>
      </trkpt>
      <trkpt lat="42.38113" lon="2.64243">
        <ele>945.5</ele>
        <time>2018-11-26T03:29:09Z</time>
      </trkpt>
      <trkpt lat="42.38113" lon="2.64243">
        <ele>945.5</ele>
        <time>2018-11-26T03:29:09Z</time>
      </trkpt>
      <trkpt lat="42.38113" lon="2.64243">
        <ele>945.4</ele>
        <time>2018-11-26T03:29:09Z</time>
      </trkpt>
      <trkpt lat="42.38113" lon="2.64243">
        <ele>945.5</ele>
        <time>2018-11-26T03:29:09Z</time>
      </trkpt>
      <trkpt lat="42.38113" lon="2.64243">
        <ele>945.6</ele>
        <time>2018-11-26T03:29:09Z</time>
      </trkpt>
      <trkpt lat="42.38113" lon="2.64243">
        <ele>945.8</ele>
        <time>2018-11-26T03:29:09Z</time>
      </trkpt>
      <trkpt lat="42.38113" lon="2.64243">
        <ele>945.8</ele>
        <time>2018-11-26T03:29:09Z</time>
      </trkpt>
      <trkpt lat="42.38113" lon="2.64243">
        <ele>945.9</ele>
        <time>2018-11-26T03:29:09Z</time>
      </trkpt>
      <trkpt lat="42.38113" lon="2.64243">
        <ele>946</ele>
        <time>2018-11-26T03:29:09Z</time>
      </trkpt>
      <trkpt lat="42.38113" lon="2.64243">
        <ele>946</ele>
        <time>2018-11-26T03:29:09Z</time>
      </trkpt>
      <trkpt lat="42.38113" lon="2.64243">
        <ele>946.2</ele>
        <time>2018-11-26T03:29:09Z</time>
      </trkpt>
      <trkpt lat="42.38113" lon="2.64243">
        <ele>946.4</ele>
        <time>2018-11-26T03:29:09Z</time>
      </trkpt>
      <trkpt lat="42.38113" lon="2.64243">
        <ele>946.3</ele>
        <time>2018-11-26T03:29:09Z</time>
      </trkpt>
      <trkpt lat="42.38113" lon="2.64243">
        <ele>946.4</ele>
        <time>2018-11-26T03:29:09Z</time>
      </trkpt>
      <trkpt lat="42.38113" lon="2.64243">
        <ele>946.4</ele>
        <time>2018-11-26T03:29:09Z</time>
      </trkpt>
      <trkpt lat="42.38113" lon="2.64243">
        <ele>946.3</ele>
        <time>2018-11-26T03:29:09Z</time>
      </trkpt>
      <trkpt lat="42.38113" lon="2.64243">
        <ele>946.2</ele>
        <time>2018-11-26T03:29:09Z</time>
      </trkpt>
      <trkpt lat="42.38113" lon="2.64243">
        <ele>946.1</ele>
        <time>2018-11-26T03:29:09Z</time>
      </trkpt>
      <trkpt lat="42.38113" lon="2.64243">
        <ele>945.9</ele>
        <time>2018-11-26T03:29:09Z</time>
      </trkpt>
      <trkpt lat="42.38113" lon="2.64243">
        <ele>945.9</ele>
        <time>2018-11-26T03:29:09Z</time>
      </trkpt>
      <trkpt lat="42.38113" lon="2.64243">
        <ele>945.8</ele>
        <time>2018-11-26T03:29:09Z</time>
      </trkpt>
      <trkpt lat="42.38113" lon="2.64243">
        <ele>945.8</ele>
        <time>2018-11-26T03:29:09Z</time>
      </trkpt>
      <trkpt lat="42.38113" lon="2.64243">
        <ele>945.8</ele>
        <time>2018-11-26T03:29:09Z</time>
      </trkpt>
      <trkpt lat="42.38113" lon="2.64243">
        <ele>945.7</ele>
        <time>2018-11-26T03:29:09Z</time>
      </trkpt>
      <trkpt lat="42.38113" lon="2.64243">
        <ele>945.7</ele>
        <time>2018-11-26T03:29:09Z</time>
      </trkpt>
      <trkpt lat="42.38113" lon="2.64243">
        <ele>945.6</ele>
        <time>2018-11-26T03:29:09Z</time>
      </trkpt>
      <trkpt lat="42.38113" lon="2.64243">
        <ele>945.5</ele>
        <time>2018-11-26T03:29:09Z</time>
      </trkpt>
      <trkpt lat="42.38113" lon="2.64243">
        <ele>945.4</ele>
        <time>2018-11-26T03:29:09Z</time>
      </trkpt>
      <trkpt lat="42.38113" lon="2.64243">
        <ele>945.7</ele>
        <time>2018-11-26T03:29:09Z</time>
      </trkpt>
      <trkpt lat="42.38113" lon="2.64242">
        <ele>945.9</ele>
        <time>2018-11-26T03:29:09Z</time>
      </trkpt>
      <trkpt lat="42.38113" lon="2.64242">
        <ele>946.4</ele>
        <time>2018-11-26T03:29:09Z</time>
      </trkpt>
      <trkpt lat="42.38113" lon="2.64242">
        <ele>946.4</ele>
        <time>2018-11-26T03:29:09Z</time>
      </trkpt>
      <trkpt lat="42.38113" lon="2.64242">
        <ele>946.4</ele>
        <time>2018-11-26T03:29:09Z</time>
      </trkpt>
      <trkpt lat="42.38114" lon="2.64242">
        <ele>946.4</ele>
        <time>2018-11-26T03:29:09Z</time>
      </trkpt>
      <trkpt lat="42.38114" lon="2.64242">
        <ele>946.2</ele>
        <time>2018-11-26T03:29:09Z</time>
      </trkpt>
      <trkpt lat="42.38114" lon="2.64242">
        <ele>946.2</ele>
        <time>2018-11-26T03:29:09Z</time>
      </trkpt>
      <trkpt lat="42.38114" lon="2.64242">
        <ele>946.2</ele>
        <time>2018-11-26T03:29:09Z</time>
      </trkpt>
      <trkpt lat="42.38114" lon="2.64242">
        <ele>946.2</ele>
        <time>2018-11-26T03:29:09Z</time>
      </trkpt>
      <trkpt lat="42.38114" lon="2.64242">
        <ele>946.3</ele>
        <time>2018-11-26T03:29:09Z</time>
      </trkpt>
      <trkpt lat="42.38114" lon="2.64242">
        <ele>946.2</ele>
        <time>2018-11-26T03:29:09Z</time>
      </trkpt>
      <trkpt lat="42.38114" lon="2.64242">
        <ele>946.3</ele>
        <time>2018-11-26T03:29:09Z</time>
      </trkpt>
      <trkpt lat="42.38114" lon="2.64243">
        <ele>946.2</ele>
        <time>2018-11-26T03:29:09Z</time>
      </trkpt>
      <trkpt lat="42.38114" lon="2.64242">
        <ele>946.2</ele>
        <time>2018-11-26T03:29:10Z</time>
      </trkpt>
      <trkpt lat="42.38114" lon="2.64242">
        <ele>946</ele>
        <time>2018-11-26T03:29:10Z</time>
      </trkpt>
      <trkpt lat="42.38114" lon="2.64242">
        <ele>945.8</ele>
        <time>2018-11-26T03:29:10Z</time>
      </trkpt>
      <trkpt lat="42.38114" lon="2.64242">
        <ele>945.6</ele>
        <time>2018-11-26T03:29:10Z</time>
      </trkpt>
      <trkpt lat="42.38114" lon="2.64242">
        <ele>945.7</ele>
        <time>2018-11-26T03:29:10Z</time>
      </trkpt>
      <trkpt lat="42.38114" lon="2.64242">
        <ele>945.9</ele>
        <time>2018-11-26T03:29:10Z</time>
      </trkpt>
      <trkpt lat="42.38114" lon="2.64242">
        <ele>946.1</ele>
        <time>2018-11-26T03:29:10Z</time>
      </trkpt>
      <trkpt lat="42.38114" lon="2.64242">
        <ele>946</ele>
        <time>2018-11-26T03:29:10Z</time>
      </trkpt>
      <trkpt lat="42.38115" lon="2.64242">
        <ele>945.8</ele>
        <time>2018-11-26T03:29:10Z</time>
      </trkpt>
      <trkpt lat="42.38115" lon="2.64242">
        <ele>945.5</ele>
        <time>2018-11-26T03:29:10Z</time>
      </trkpt>
      <trkpt lat="42.38115" lon="2.64242">
        <ele>945.5</ele>
        <time>2018-11-26T03:29:10Z</time>
      </trkpt>
      <trkpt lat="42.38115" lon="2.64242">
        <ele>945.5</ele>
        <time>2018-11-26T03:29:10Z</time>
      </trkpt>
      <trkpt lat="42.38115" lon="2.64242">
        <ele>945.5</ele>
        <time>2018-11-26T03:29:10Z</time>
      </trkpt>
      <trkpt lat="42.38115" lon="2.64242">
        <ele>945.4</ele>
        <time>2018-11-26T03:29:10Z</time>
      </trkpt>
      <trkpt lat="42.38114" lon="2.64242">
        <ele>945.5</ele>
        <time>2018-11-26T03:29:10Z</time>
      </trkpt>
      <trkpt lat="42.38114" lon="2.64242">
        <ele>945.6</ele>
        <time>2018-11-26T03:29:10Z</time>
      </trkpt>
      <trkpt lat="42.38114" lon="2.64242">
        <ele>945.8</ele>
        <time>2018-11-26T03:29:10Z</time>
      </trkpt>
      <trkpt lat="42.38114" lon="2.64242">
        <ele>945.6</ele>
        <time>2018-11-26T03:29:10Z</time>
      </trkpt>
      <trkpt lat="42.38114" lon="2.64242">
        <ele>945.4</ele>
        <time>2018-11-26T03:29:10Z</time>
      </trkpt>
      <trkpt lat="42.38114" lon="2.64242">
        <ele>945</ele>
        <time>2018-11-26T03:29:10Z</time>
      </trkpt>
      <trkpt lat="42.38114" lon="2.64242">
        <ele>945.2</ele>
        <time>2018-11-26T03:29:10Z</time>
      </trkpt>
      <trkpt lat="42.38115" lon="2.64241">
        <ele>945.2</ele>
        <time>2018-11-26T03:29:10Z</time>
      </trkpt>
      <trkpt lat="42.38115" lon="2.64241">
        <ele>945.5</ele>
        <time>2018-11-26T03:29:10Z</time>
      </trkpt>
      <trkpt lat="42.38114" lon="2.64241">
        <ele>945.4</ele>
        <time>2018-11-26T03:29:10Z</time>
      </trkpt>
      <trkpt lat="42.38115" lon="2.64241">
        <ele>945.5</ele>
        <time>2018-11-26T03:29:11Z</time>
      </trkpt>
      <trkpt lat="42.38114" lon="2.64241">
        <ele>945.6</ele>
        <time>2018-11-26T03:29:11Z</time>
      </trkpt>
      <trkpt lat="42.38114" lon="2.64242">
        <ele>945.7</ele>
        <time>2018-11-26T03:29:11Z</time>
      </trkpt>
      <trkpt lat="42.38114" lon="2.64242">
        <ele>945.6</ele>
        <time>2018-11-26T03:29:11Z</time>
      </trkpt>
      <trkpt lat="42.38114" lon="2.64242">
        <ele>945.7</ele>
        <time>2018-11-26T03:29:11Z</time>
      </trkpt>
      <trkpt lat="42.38114" lon="2.64242">
        <ele>945.9</ele>
        <time>2018-11-26T03:29:11Z</time>
      </trkpt>
      <trkpt lat="42.38114" lon="2.64242">
        <ele>945.9</ele>
        <time>2018-11-26T03:29:11Z</time>
      </trkpt>
      <trkpt lat="42.38114" lon="2.64242">
        <ele>945.9</ele>
        <time>2018-11-26T03:29:11Z</time>
      </trkpt>
      <trkpt lat="42.38114" lon="2.64241">
        <ele>946.1</ele>
        <time>2018-11-26T03:29:11Z</time>
      </trkpt>
      <trkpt lat="42.38114" lon="2.64242">
        <ele>945.8</ele>
        <time>2018-11-26T03:29:11Z</time>
      </trkpt>
      <trkpt lat="42.38114" lon="2.64242">
        <ele>945.6</ele>
        <time>2018-11-26T03:29:11Z</time>
      </trkpt>
      <trkpt lat="42.38114" lon="2.64242">
        <ele>945.3</ele>
        <time>2018-11-26T03:29:11Z</time>
      </trkpt>
      <trkpt lat="42.38114" lon="2.64242">
        <ele>945.2</ele>
        <time>2018-11-26T03:29:11Z</time>
      </trkpt>
      <trkpt lat="42.38114" lon="2.64242">
        <ele>945.1</ele>
        <time>2018-11-26T03:29:11Z</time>
      </trkpt>
      <trkpt lat="42.38114" lon="2.64242">
        <ele>945.1</ele>
        <time>2018-11-26T03:29:11Z</time>
      </trkpt>
      <trkpt lat="42.38114" lon="2.64242">
        <ele>945.1</ele>
        <time>2018-11-26T03:29:11Z</time>
      </trkpt>
      <trkpt lat="42.38114" lon="2.64242">
        <ele>945.4</ele>
        <time>2018-11-26T03:29:11Z</time>
      </trkpt>
      <trkpt lat="42.38114" lon="2.64242">
        <ele>945.6</ele>
        <time>2018-11-26T03:29:11Z</time>
      </trkpt>
      <trkpt lat="42.38114" lon="2.64242">
        <ele>945.6</ele>
        <time>2018-11-26T03:29:11Z</time>
      </trkpt>
      <trkpt lat="42.38114" lon="2.64242">
        <ele>945.6</ele>
        <time>2018-11-26T03:29:11Z</time>
      </trkpt>
      <trkpt lat="42.38114" lon="2.64242">
        <ele>945.6</ele>
        <time>2018-11-26T03:29:11Z</time>
      </trkpt>
      <trkpt lat="42.38114" lon="2.64242">
        <ele>945.5</ele>
        <time>2018-11-26T03:29:11Z</time>
      </trkpt>
      <trkpt lat="42.38114" lon="2.64242">
        <ele>945.5</ele>
        <time>2018-11-26T03:29:11Z</time>
      </trkpt>
      <trkpt lat="42.38114" lon="2.64242">
        <ele>945.3</ele>
        <time>2018-11-26T03:29:11Z</time>
      </trkpt>
      <trkpt lat="42.38114" lon="2.64242">
        <ele>945.3</ele>
        <time>2018-11-26T03:29:11Z</time>
      </trkpt>
      <trkpt lat="42.38114" lon="2.64242">
        <ele>945.4</ele>
        <time>2018-11-26T03:29:11Z</time>
      </trkpt>
      <trkpt lat="42.38114" lon="2.64242">
        <ele>945.3</ele>
        <time>2018-11-26T03:29:11Z</time>
      </trkpt>
      <trkpt lat="42.38114" lon="2.64242">
        <ele>945.5</ele>
        <time>2018-11-26T03:29:11Z</time>
      </trkpt>
      <trkpt lat="42.38114" lon="2.64242">
        <ele>945.6</ele>
        <time>2018-11-26T03:29:11Z</time>
      </trkpt>
      <trkpt lat="42.38114" lon="2.64242">
        <ele>945.5</ele>
        <time>2018-11-26T03:29:11Z</time>
      </trkpt>
      <trkpt lat="42.38114" lon="2.64242">
        <ele>945.5</ele>
        <time>2018-11-26T03:29:11Z</time>
      </trkpt>
      <trkpt lat="42.38114" lon="2.64243">
        <ele>945.7</ele>
        <time>2018-11-26T03:29:11Z</time>
      </trkpt>
      <trkpt lat="42.38114" lon="2.64243">
        <ele>945.7</ele>
        <time>2018-11-26T03:29:11Z</time>
      </trkpt>
      <trkpt lat="42.38114" lon="2.64243">
        <ele>945.7</ele>
        <time>2018-11-26T03:29:11Z</time>
      </trkpt>
      <trkpt lat="42.38114" lon="2.64243">
        <ele>945.8</ele>
        <time>2018-11-26T03:29:11Z</time>
      </trkpt>
      <trkpt lat="42.38114" lon="2.64243">
        <ele>945.9</ele>
        <time>2018-11-26T03:29:11Z</time>
      </trkpt>
      <trkpt lat="42.38114" lon="2.64243">
        <ele>946.2</ele>
        <time>2018-11-26T03:29:11Z</time>
      </trkpt>
      <trkpt lat="42.38114" lon="2.64243">
        <ele>946</ele>
        <time>2018-11-26T03:29:11Z</time>
      </trkpt>
      <trkpt lat="42.38114" lon="2.64243">
        <ele>945.9</ele>
        <time>2018-11-26T03:29:11Z</time>
      </trkpt>
      <trkpt lat="42.38114" lon="2.64243">
        <ele>945.5</ele>
        <time>2018-11-26T03:29:11Z</time>
      </trkpt>
      <trkpt lat="42.38114" lon="2.64243">
        <ele>945.1</ele>
        <time>2018-11-26T03:29:11Z</time>
      </trkpt>
      <trkpt lat="42.38114" lon="2.64243">
        <ele>945.2</ele>
        <time>2018-11-26T03:29:11Z</time>
      </trkpt>
      <trkpt lat="42.38114" lon="2.64243">
        <ele>945.2</ele>
        <time>2018-11-26T03:29:11Z</time>
      </trkpt>
      <trkpt lat="42.38114" lon="2.64243">
        <ele>945.4</ele>
        <time>2018-11-26T03:29:11Z</time>
      </trkpt>
      <trkpt lat="42.38114" lon="2.64243">
        <ele>945.6</ele>
        <time>2018-11-26T03:29:11Z</time>
      </trkpt>
      <trkpt lat="42.38114" lon="2.64243">
        <ele>945.6</ele>
        <time>2018-11-26T03:29:11Z</time>
      </trkpt>
      <trkpt lat="42.38114" lon="2.64243">
        <ele>946</ele>
        <time>2018-11-26T03:29:12Z</time>
      </trkpt>
      <trkpt lat="42.38114" lon="2.64243">
        <ele>945.8</ele>
        <time>2018-11-26T03:29:12Z</time>
      </trkpt>
      <trkpt lat="42.38114" lon="2.64243">
        <ele>945.9</ele>
        <time>2018-11-26T03:29:12Z</time>
      </trkpt>
      <trkpt lat="42.38114" lon="2.64243">
        <ele>945.8</ele>
        <time>2018-11-26T03:29:12Z</time>
      </trkpt>
      <trkpt lat="42.38114" lon="2.64243">
        <ele>945.7</ele>
        <time>2018-11-26T03:29:12Z</time>
      </trkpt>
      <trkpt lat="42.38114" lon="2.64243">
        <ele>945.5</ele>
        <time>2018-11-26T03:29:12Z</time>
      </trkpt>
      <trkpt lat="42.38114" lon="2.64243">
        <ele>945.3</ele>
        <time>2018-11-26T03:29:12Z</time>
      </trkpt>
      <trkpt lat="42.38114" lon="2.64243">
        <ele>945.3</ele>
        <time>2018-11-26T03:29:12Z</time>
      </trkpt>
      <trkpt lat="42.38114" lon="2.64243">
        <ele>945.6</ele>
        <time>2018-11-26T03:29:12Z</time>
      </trkpt>
      <trkpt lat="42.38114" lon="2.64243">
        <ele>945.7</ele>
        <time>2018-11-26T03:29:12Z</time>
      </trkpt>
      <trkpt lat="42.38114" lon="2.64243">
        <ele>946.1</ele>
        <time>2018-11-26T03:29:12Z</time>
      </trkpt>
      <trkpt lat="42.38114" lon="2.64243">
        <ele>946.1</ele>
        <time>2018-11-26T03:29:12Z</time>
      </trkpt>
      <trkpt lat="42.38114" lon="2.64243">
        <ele>946.2</ele>
        <time>2018-11-26T03:29:12Z</time>
      </trkpt>
      <trkpt lat="42.38114" lon="2.64243">
        <ele>946.4</ele>
        <time>2018-11-26T03:29:12Z</time>
      </trkpt>
      <trkpt lat="42.38114" lon="2.64243">
        <ele>946.4</ele>
        <time>2018-11-26T03:29:12Z</time>
      </trkpt>
      <trkpt lat="42.38114" lon="2.64243">
        <ele>946.3</ele>
        <time>2018-11-26T03:29:12Z</time>
      </trkpt>
      <trkpt lat="42.38114" lon="2.64243">
        <ele>946.3</ele>
        <time>2018-11-26T03:29:12Z</time>
      </trkpt>
      <trkpt lat="42.38114" lon="2.64243">
        <ele>946.1</ele>
        <time>2018-11-26T03:29:12Z</time>
      </trkpt>
      <trkpt lat="42.38114" lon="2.64243">
        <ele>946</ele>
        <time>2018-11-26T03:29:12Z</time>
      </trkpt>
      <trkpt lat="42.38114" lon="2.64242">
        <ele>945.8</ele>
        <time>2018-11-26T03:29:12Z</time>
      </trkpt>
      <trkpt lat="42.38113" lon="2.64242">
        <ele>945.8</ele>
        <time>2018-11-26T03:29:13Z</time>
      </trkpt>
      <trkpt lat="42.38113" lon="2.64242">
        <ele>945.8</ele>
        <time>2018-11-26T03:29:13Z</time>
      </trkpt>
      <trkpt lat="42.38113" lon="2.64242">
        <ele>945.8</ele>
        <time>2018-11-26T03:29:13Z</time>
      </trkpt>
      <trkpt lat="42.38113" lon="2.64242">
        <ele>945.9</ele>
        <time>2018-11-26T03:29:13Z</time>
      </trkpt>
      <trkpt lat="42.38113" lon="2.64242">
        <ele>946.1</ele>
        <time>2018-11-26T03:29:13Z</time>
      </trkpt>
      <trkpt lat="42.38114" lon="2.64242">
        <ele>946.4</ele>
        <time>2018-11-26T03:29:13Z</time>
      </trkpt>
      <trkpt lat="42.38114" lon="2.64243">
        <ele>946.7</ele>
        <time>2018-11-26T03:29:13Z</time>
      </trkpt>
      <trkpt lat="42.38114" lon="2.64243">
        <ele>946.5</ele>
        <time>2018-11-26T03:29:13Z</time>
      </trkpt>
      <trkpt lat="42.38114" lon="2.64243">
        <ele>946.3</ele>
        <time>2018-11-26T03:29:13Z</time>
      </trkpt>
      <trkpt lat="42.38114" lon="2.64243">
        <ele>946</ele>
        <time>2018-11-26T03:29:13Z</time>
      </trkpt>
      <trkpt lat="42.38114" lon="2.64243">
        <ele>945.9</ele>
        <time>2018-11-26T03:29:13Z</time>
      </trkpt>
      <trkpt lat="42.38114" lon="2.64243">
        <ele>945.9</ele>
        <time>2018-11-26T03:29:13Z</time>
      </trkpt>
      <trkpt lat="42.38114" lon="2.64243">
        <ele>946</ele>
        <time>2018-11-26T03:29:13Z</time>
      </trkpt>
      <trkpt lat="42.38114" lon="2.64243">
        <ele>945.8</ele>
        <time>2018-11-26T03:29:13Z</time>
      </trkpt>
      <trkpt lat="42.38114" lon="2.64243">
        <ele>945.5</ele>
        <time>2018-11-26T03:29:13Z</time>
      </trkpt>
      <trkpt lat="42.38114" lon="2.64243">
        <ele>945.2</ele>
        <time>2018-11-26T03:29:13Z</time>
      </trkpt>
      <trkpt lat="42.38114" lon="2.64243">
        <ele>945.4</ele>
        <time>2018-11-26T03:29:13Z</time>
      </trkpt>
      <trkpt lat="42.38114" lon="2.64243">
        <ele>945.8</ele>
        <time>2018-11-26T03:29:13Z</time>
      </trkpt>
      <trkpt lat="42.38114" lon="2.64243">
        <ele>946.2</ele>
        <time>2018-11-26T03:29:13Z</time>
      </trkpt>
      <trkpt lat="42.38114" lon="2.64243">
        <ele>946</ele>
        <time>2018-11-26T03:29:13Z</time>
      </trkpt>
      <trkpt lat="42.38114" lon="2.64243">
        <ele>946</ele>
        <time>2018-11-26T03:29:14Z</time>
      </trkpt>
      <trkpt lat="42.38114" lon="2.64242">
        <ele>945.5</ele>
        <time>2018-11-26T03:29:14Z</time>
      </trkpt>
      <trkpt lat="42.38114" lon="2.64242">
        <ele>945.5</ele>
        <time>2018-11-26T03:29:14Z</time>
      </trkpt>
      <trkpt lat="42.38114" lon="2.64243">
        <ele>945.4</ele>
        <time>2018-11-26T03:29:14Z</time>
      </trkpt>
      <trkpt lat="42.38115" lon="2.64243">
        <ele>945.4</ele>
        <time>2018-11-26T03:29:14Z</time>
      </trkpt>
      <trkpt lat="42.38115" lon="2.64243">
        <ele>945.8</ele>
        <time>2018-11-26T03:29:15Z</time>
      </trkpt>
      <trkpt lat="42.38116" lon="2.64244">
        <ele>946.4</ele>
        <time>2018-11-26T03:29:15Z</time>
      </trkpt>
      <trkpt lat="42.38116" lon="2.64244">
        <ele>947.1</ele>
        <time>2018-11-26T03:29:15Z</time>
      </trkpt>
      <trkpt lat="42.38116" lon="2.64244">
        <ele>946.8</ele>
        <time>2018-11-26T03:29:15Z</time>
      </trkpt>
      <trkpt lat="42.38116" lon="2.64244">
        <ele>946.6</ele>
        <time>2018-11-26T03:29:15Z</time>
      </trkpt>
      <trkpt lat="42.38116" lon="2.64244">
        <ele>946.2</ele>
        <time>2018-11-26T03:29:15Z</time>
      </trkpt>
      <trkpt lat="42.38116" lon="2.64244">
        <ele>946.3</ele>
        <time>2018-11-26T03:29:15Z</time>
      </trkpt>
      <trkpt lat="42.38116" lon="2.64244">
        <ele>946.4</ele>
        <time>2018-11-26T03:29:15Z</time>
      </trkpt>
      <trkpt lat="42.38117" lon="2.64244">
        <ele>946.4</ele>
        <time>2018-11-26T03:29:15Z</time>
      </trkpt>
      <trkpt lat="42.38117" lon="2.64243">
        <ele>946.5</ele>
        <time>2018-11-26T03:29:15Z</time>
      </trkpt>
      <trkpt lat="42.38117" lon="2.64244">
        <ele>946.7</ele>
        <time>2018-11-26T03:29:15Z</time>
      </trkpt>
      <trkpt lat="42.38117" lon="2.64243">
        <ele>946.8</ele>
        <time>2018-11-26T03:29:16Z</time>
      </trkpt>
      <trkpt lat="42.38117" lon="2.64243">
        <ele>947</ele>
        <time>2018-11-26T03:29:16Z</time>
      </trkpt>
      <trkpt lat="42.38117" lon="2.64243">
        <ele>946.9</ele>
        <time>2018-11-26T03:29:16Z</time>
      </trkpt>
      <trkpt lat="42.38118" lon="2.64243">
        <ele>946.6</ele>
        <time>2018-11-26T03:29:16Z</time>
      </trkpt>
      <trkpt lat="42.38118" lon="2.64243">
        <ele>946.2</ele>
        <time>2018-11-26T03:29:16Z</time>
      </trkpt>
      <trkpt lat="42.38118" lon="2.64243">
        <ele>946.3</ele>
        <time>2018-11-26T03:29:16Z</time>
      </trkpt>
      <trkpt lat="42.38119" lon="2.64243">
        <ele>946.3</ele>
        <time>2018-11-26T03:29:16Z</time>
      </trkpt>
      <trkpt lat="42.38119" lon="2.64242">
        <ele>946.5</ele>
        <time>2018-11-26T03:29:17Z</time>
      </trkpt>
      <trkpt lat="42.3812" lon="2.64242">
        <ele>946.6</ele>
        <time>2018-11-26T03:29:17Z</time>
      </trkpt>
      <trkpt lat="42.38121" lon="2.64241">
        <ele>946.9</ele>
        <time>2018-11-26T03:29:17Z</time>
      </trkpt>
      <trkpt lat="42.38122" lon="2.64239">
        <ele>947.4</ele>
        <time>2018-11-26T03:29:18Z</time>
      </trkpt>
      <trkpt lat="42.38123" lon="2.64238">
        <ele>947.6</ele>
        <time>2018-11-26T03:29:19Z</time>
      </trkpt>
      <trkpt lat="42.38137" lon="2.64216">
        <ele>948.5</ele>
        <time>2018-11-26T03:29:27Z</time>
      </trkpt>
      <trkpt lat="42.38138" lon="2.64215">
        <ele>948.5</ele>
        <time>2018-11-26T03:29:28Z</time>
      </trkpt>
      <trkpt lat="42.38142" lon="2.6421">
        <ele>948.3</ele>
        <time>2018-11-26T03:29:30Z</time>
      </trkpt>
      <trkpt lat="42.38146" lon="2.64205">
        <ele>950.4</ele>
        <time>2018-11-26T03:29:32Z</time>
      </trkpt>
      <trkpt lat="42.38147" lon="2.64204">
        <ele>950.7</ele>
        <time>2018-11-26T03:29:33Z</time>
      </trkpt>
      <trkpt lat="42.38151" lon="2.64201">
        <ele>951.7</ele>
        <time>2018-11-26T03:29:34Z</time>
      </trkpt>
      <trkpt lat="42.38159" lon="2.64195">
        <ele>951.9</ele>
        <time>2018-11-26T03:29:38Z</time>
      </trkpt>
      <trkpt lat="42.3816" lon="2.64194">
        <ele>951.9</ele>
        <time>2018-11-26T03:29:39Z</time>
      </trkpt>
      <trkpt lat="42.38183" lon="2.64182">
        <ele>952.8</ele>
        <time>2018-11-26T03:29:48Z</time>
      </trkpt>
      <trkpt lat="42.38193" lon="2.64176">
        <ele>954</ele>
        <time>2018-11-26T03:29:53Z</time>
      </trkpt>
      <trkpt lat="42.38197" lon="2.64173">
        <ele>954.3</ele>
        <time>2018-11-26T03:29:55Z</time>
      </trkpt>
      <trkpt lat="42.38198" lon="2.64172">
        <ele>954.2</ele>
        <time>2018-11-26T03:29:55Z</time>
      </trkpt>
      <trkpt lat="42.38199" lon="2.64172">
        <ele>954.3</ele>
        <time>2018-11-26T03:29:56Z</time>
      </trkpt>
      <trkpt lat="42.382" lon="2.64171">
        <ele>954.5</ele>
        <time>2018-11-26T03:29:56Z</time>
      </trkpt>
      <trkpt lat="42.38201" lon="2.64171">
        <ele>954.6</ele>
        <time>2018-11-26T03:29:56Z</time>
      </trkpt>
      <trkpt lat="42.38205" lon="2.64167">
        <ele>954.8</ele>
        <time>2018-11-26T03:29:58Z</time>
      </trkpt>
      <trkpt lat="42.38207" lon="2.64166">
        <ele>955.4</ele>
        <time>2018-11-26T03:29:59Z</time>
      </trkpt>
      <trkpt lat="42.38208" lon="2.64165">
        <ele>955.5</ele>
        <time>2018-11-26T03:30:00Z</time>
      </trkpt>
      <trkpt lat="42.38211" lon="2.64161">
        <ele>955.7</ele>
        <time>2018-11-26T03:30:02Z</time>
      </trkpt>
      <trkpt lat="42.38212" lon="2.64159">
        <ele>955.9</ele>
        <time>2018-11-26T03:30:02Z</time>
      </trkpt>
      <trkpt lat="42.38213" lon="2.64158">
        <ele>956.1</ele>
        <time>2018-11-26T03:30:03Z</time>
      </trkpt>
      <trkpt lat="42.38216" lon="2.64154">
        <ele>956.5</ele>
        <time>2018-11-26T03:30:04Z</time>
      </trkpt>
      <trkpt lat="42.38217" lon="2.64151">
        <ele>956.6</ele>
        <time>2018-11-26T03:30:05Z</time>
      </trkpt>
      <trkpt lat="42.3822" lon="2.64144">
        <ele>956.7</ele>
        <time>2018-11-26T03:30:08Z</time>
      </trkpt>
      <trkpt lat="42.38224" lon="2.64128">
        <ele>957.6</ele>
        <time>2018-11-26T03:30:13Z</time>
      </trkpt>
      <trkpt lat="42.38226" lon="2.64123">
        <ele>957.9</ele>
        <time>2018-11-26T03:30:14Z</time>
      </trkpt>
      <trkpt lat="42.38226" lon="2.64121">
        <ele>957.8</ele>
        <time>2018-11-26T03:30:15Z</time>
      </trkpt>
      <trkpt lat="42.38232" lon="2.64104">
        <ele>957.2</ele>
        <time>2018-11-26T03:30:21Z</time>
      </trkpt>
      <trkpt lat="42.38237" lon="2.64091">
        <ele>959.6</ele>
        <time>2018-11-26T03:30:25Z</time>
      </trkpt>
      <trkpt lat="42.38238" lon="2.64088">
        <ele>960.2</ele>
        <time>2018-11-26T03:30:26Z</time>
      </trkpt>
      <trkpt lat="42.3824" lon="2.64085">
        <ele>960.2</ele>
        <time>2018-11-26T03:30:27Z</time>
      </trkpt>
      <trkpt lat="42.38242" lon="2.64081">
        <ele>960.1</ele>
        <time>2018-11-26T03:30:28Z</time>
      </trkpt>
      <trkpt lat="42.38243" lon="2.64079">
        <ele>960.1</ele>
        <time>2018-11-26T03:30:29Z</time>
      </trkpt>
      <trkpt lat="42.38246" lon="2.64076">
        <ele>960.5</ele>
        <time>2018-11-26T03:30:30Z</time>
      </trkpt>
      <trkpt lat="42.38247" lon="2.64075">
        <ele>960.6</ele>
        <time>2018-11-26T03:30:31Z</time>
      </trkpt>
      <trkpt lat="42.38251" lon="2.64074">
        <ele>960.5</ele>
        <time>2018-11-26T03:30:33Z</time>
      </trkpt>
      <trkpt lat="42.38252" lon="2.64073">
        <ele>960.2</ele>
        <time>2018-11-26T03:30:33Z</time>
      </trkpt>
      <trkpt lat="42.38253" lon="2.64074">
        <ele>959.8</ele>
        <time>2018-11-26T03:30:34Z</time>
      </trkpt>
      <trkpt lat="42.38254" lon="2.64074">
        <ele>960</ele>
        <time>2018-11-26T03:30:34Z</time>
      </trkpt>
      <trkpt lat="42.38254" lon="2.64075">
        <ele>960.2</ele>
        <time>2018-11-26T03:30:34Z</time>
      </trkpt>
      <trkpt lat="42.38255" lon="2.64076">
        <ele>960.4</ele>
        <time>2018-11-26T03:30:35Z</time>
      </trkpt>
      <trkpt lat="42.38254" lon="2.6408">
        <ele>961.1</ele>
        <time>2018-11-26T03:30:36Z</time>
      </trkpt>
      <trkpt lat="42.38254" lon="2.64084">
        <ele>961.9</ele>
        <time>2018-11-26T03:30:37Z</time>
      </trkpt>
      <trkpt lat="42.38253" lon="2.64086">
        <ele>961.9</ele>
        <time>2018-11-26T03:30:38Z</time>
      </trkpt>
      <trkpt lat="42.38253" lon="2.64088">
        <ele>962.1</ele>
        <time>2018-11-26T03:30:38Z</time>
      </trkpt>
      <trkpt lat="42.38248" lon="2.64094">
        <ele>962.8</ele>
        <time>2018-11-26T03:30:41Z</time>
      </trkpt>
      <trkpt lat="42.38243" lon="2.64101">
        <ele>962.9</ele>
        <time>2018-11-26T03:30:44Z</time>
      </trkpt>
      <trkpt lat="42.38242" lon="2.64102">
        <ele>963</ele>
        <time>2018-11-26T03:30:44Z</time>
      </trkpt>
      <trkpt lat="42.38239" lon="2.64111">
        <ele>963.4</ele>
        <time>2018-11-26T03:30:47Z</time>
      </trkpt>
      <trkpt lat="42.38238" lon="2.64112">
        <ele>963.4</ele>
        <time>2018-11-26T03:30:47Z</time>
      </trkpt>
      <trkpt lat="42.38237" lon="2.64122">
        <ele>964.5</ele>
        <time>2018-11-26T03:30:51Z</time>
      </trkpt>
      <trkpt lat="42.38236" lon="2.64124">
        <ele>964.9</ele>
        <time>2018-11-26T03:30:51Z</time>
      </trkpt>
      <trkpt lat="42.38236" lon="2.64127">
        <ele>965.8</ele>
        <time>2018-11-26T03:30:52Z</time>
      </trkpt>
      <trkpt lat="42.38236" lon="2.64129">
        <ele>966</ele>
        <time>2018-11-26T03:30:53Z</time>
      </trkpt>
      <trkpt lat="42.38234" lon="2.64139">
        <ele>966.2</ele>
        <time>2018-11-26T03:30:56Z</time>
      </trkpt>
      <trkpt lat="42.38234" lon="2.6414">
        <ele>966.2</ele>
        <time>2018-11-26T03:30:56Z</time>
      </trkpt>
      <trkpt lat="42.38233" lon="2.64143">
        <ele>966.2</ele>
        <time>2018-11-26T03:30:57Z</time>
      </trkpt>
      <trkpt lat="42.38232" lon="2.64144">
        <ele>966.3</ele>
        <time>2018-11-26T03:30:57Z</time>
      </trkpt>
      <trkpt lat="42.38231" lon="2.64154">
        <ele>967.2</ele>
        <time>2018-11-26T03:31:00Z</time>
      </trkpt>
      <trkpt lat="42.38231" lon="2.64156">
        <ele>967.4</ele>
        <time>2018-11-26T03:31:01Z</time>
      </trkpt>
      <trkpt lat="42.3823" lon="2.6416">
        <ele>967.6</ele>
        <time>2018-11-26T03:31:02Z</time>
      </trkpt>
      <trkpt lat="42.38229" lon="2.64164">
        <ele>967.7</ele>
        <time>2018-11-26T03:31:03Z</time>
      </trkpt>
      <trkpt lat="42.38228" lon="2.64169">
        <ele>967.9</ele>
        <time>2018-11-26T03:31:05Z</time>
      </trkpt>
      <trkpt lat="42.38227" lon="2.64172">
        <ele>968</ele>
        <time>2018-11-26T03:31:06Z</time>
      </trkpt>
      <trkpt lat="42.38226" lon="2.64173">
        <ele>968.1</ele>
        <time>2018-11-26T03:31:06Z</time>
      </trkpt>
      <trkpt lat="42.38223" lon="2.64177">
        <ele>968.4</ele>
        <time>2018-11-26T03:31:08Z</time>
      </trkpt>
      <trkpt lat="42.38205" lon="2.64203">
        <ele>969.3</ele>
        <time>2018-11-26T03:31:18Z</time>
      </trkpt>
      <trkpt lat="42.38204" lon="2.64206">
        <ele>969.5</ele>
        <time>2018-11-26T03:31:19Z</time>
      </trkpt>
      <trkpt lat="42.38203" lon="2.64207">
        <ele>969.6</ele>
        <time>2018-11-26T03:31:20Z</time>
      </trkpt>
      <trkpt lat="42.382" lon="2.64211">
        <ele>969.9</ele>
        <time>2018-11-26T03:31:22Z</time>
      </trkpt>
      <trkpt lat="42.382" lon="2.64213">
        <ele>969.8</ele>
        <time>2018-11-26T03:31:22Z</time>
      </trkpt>
      <trkpt lat="42.38193" lon="2.64221">
        <ele>969.7</ele>
        <time>2018-11-26T03:31:26Z</time>
      </trkpt>
      <trkpt lat="42.38187" lon="2.64229">
        <ele>970.2</ele>
        <time>2018-11-26T03:31:29Z</time>
      </trkpt>
      <trkpt lat="42.38182" lon="2.64238">
        <ele>971</ele>
        <time>2018-11-26T03:31:33Z</time>
      </trkpt>
      <trkpt lat="42.3818" lon="2.64241">
        <ele>971.1</ele>
        <time>2018-11-26T03:31:34Z</time>
      </trkpt>
      <trkpt lat="42.38179" lon="2.64244">
        <ele>971</ele>
        <time>2018-11-26T03:31:35Z</time>
      </trkpt>
      <trkpt lat="42.38175" lon="2.64254">
        <ele>971.6</ele>
        <time>2018-11-26T03:31:38Z</time>
      </trkpt>
      <trkpt lat="42.38174" lon="2.64257">
        <ele>971.5</ele>
        <time>2018-11-26T03:31:39Z</time>
      </trkpt>
      <trkpt lat="42.38174" lon="2.64258">
        <ele>971.3</ele>
        <time>2018-11-26T03:31:39Z</time>
      </trkpt>
      <trkpt lat="42.38172" lon="2.64268">
        <ele>971.2</ele>
        <time>2018-11-26T03:31:42Z</time>
      </trkpt>
      <trkpt lat="42.38169" lon="2.64282">
        <ele>971.4</ele>
        <time>2018-11-26T03:31:46Z</time>
      </trkpt>
      <trkpt lat="42.38169" lon="2.64285">
        <ele>971.4</ele>
        <time>2018-11-26T03:31:48Z</time>
      </trkpt>
      <trkpt lat="42.38168" lon="2.64291">
        <ele>971.1</ele>
        <time>2018-11-26T03:31:49Z</time>
      </trkpt>
      <trkpt lat="42.38167" lon="2.64306">
        <ele>971.8</ele>
        <time>2018-11-26T03:31:54Z</time>
      </trkpt>
      <trkpt lat="42.38168" lon="2.64322">
        <ele>971.8</ele>
        <time>2018-11-26T03:31:58Z</time>
      </trkpt>
      <trkpt lat="42.38168" lon="2.64324">
        <ele>971.9</ele>
        <time>2018-11-26T03:31:59Z</time>
      </trkpt>
      <trkpt lat="42.38168" lon="2.64337">
        <ele>972.3</ele>
        <time>2018-11-26T03:32:03Z</time>
      </trkpt>
      <trkpt lat="42.38168" lon="2.64339">
        <ele>972.3</ele>
        <time>2018-11-26T03:32:03Z</time>
      </trkpt>
      <trkpt lat="42.38167" lon="2.64343">
        <ele>972.7</ele>
        <time>2018-11-26T03:32:05Z</time>
      </trkpt>
      <trkpt lat="42.38167" lon="2.64345">
        <ele>972.7</ele>
        <time>2018-11-26T03:32:05Z</time>
      </trkpt>
      <trkpt lat="42.38167" lon="2.64358">
        <ele>971.7</ele>
        <time>2018-11-26T03:32:09Z</time>
      </trkpt>
      <trkpt lat="42.38167" lon="2.64372">
        <ele>972.4</ele>
        <time>2018-11-26T03:32:13Z</time>
      </trkpt>
      <trkpt lat="42.38166" lon="2.64387">
        <ele>972.2</ele>
        <time>2018-11-26T03:32:18Z</time>
      </trkpt>
      <trkpt lat="42.38166" lon="2.64389">
        <ele>972.3</ele>
        <time>2018-11-26T03:32:18Z</time>
      </trkpt>
      <trkpt lat="42.38166" lon="2.64391">
        <ele>972.2</ele>
        <time>2018-11-26T03:32:19Z</time>
      </trkpt>
      <trkpt lat="42.38168" lon="2.64411">
        <ele>971.8</ele>
        <time>2018-11-26T03:32:25Z</time>
      </trkpt>
      <trkpt lat="42.38168" lon="2.64424">
        <ele>972.8</ele>
        <time>2018-11-26T03:32:29Z</time>
      </trkpt>
      <trkpt lat="42.38168" lon="2.64428">
        <ele>973.6</ele>
        <time>2018-11-26T03:32:30Z</time>
      </trkpt>
      <trkpt lat="42.38168" lon="2.6444">
        <ele>973.2</ele>
        <time>2018-11-26T03:32:33Z</time>
      </trkpt>
      <trkpt lat="42.38167" lon="2.64443">
        <ele>973.5</ele>
        <time>2018-11-26T03:32:34Z</time>
      </trkpt>
      <trkpt lat="42.38167" lon="2.64446">
        <ele>973.6</ele>
        <time>2018-11-26T03:32:35Z</time>
      </trkpt>
      <trkpt lat="42.38167" lon="2.64448">
        <ele>973.8</ele>
        <time>2018-11-26T03:32:36Z</time>
      </trkpt>
      <trkpt lat="42.38167" lon="2.64449">
        <ele>973.9</ele>
        <time>2018-11-26T03:32:36Z</time>
      </trkpt>
      <trkpt lat="42.38167" lon="2.64451">
        <ele>973.8</ele>
        <time>2018-11-26T03:32:37Z</time>
      </trkpt>
      <trkpt lat="42.38167" lon="2.64453">
        <ele>973.6</ele>
        <time>2018-11-26T03:32:37Z</time>
      </trkpt>
      <trkpt lat="42.38167" lon="2.64454">
        <ele>973.5</ele>
        <time>2018-11-26T03:32:38Z</time>
      </trkpt>
      <trkpt lat="42.38167" lon="2.64456">
        <ele>973.2</ele>
        <time>2018-11-26T03:32:38Z</time>
      </trkpt>
      <trkpt lat="42.38168" lon="2.64457">
        <ele>972.9</ele>
        <time>2018-11-26T03:32:38Z</time>
      </trkpt>
      <trkpt lat="42.38168" lon="2.64458">
        <ele>973.2</ele>
        <time>2018-11-26T03:32:39Z</time>
      </trkpt>
      <trkpt lat="42.38168" lon="2.6446">
        <ele>973.4</ele>
        <time>2018-11-26T03:32:39Z</time>
      </trkpt>
      <trkpt lat="42.38168" lon="2.64461">
        <ele>973.5</ele>
        <time>2018-11-26T03:32:40Z</time>
      </trkpt>
      <trkpt lat="42.38168" lon="2.64463">
        <ele>973.5</ele>
        <time>2018-11-26T03:32:40Z</time>
      </trkpt>
      <trkpt lat="42.38168" lon="2.64464">
        <ele>973.4</ele>
        <time>2018-11-26T03:32:41Z</time>
      </trkpt>
      <trkpt lat="42.38168" lon="2.64465">
        <ele>973.3</ele>
        <time>2018-11-26T03:32:41Z</time>
      </trkpt>
      <trkpt lat="42.38168" lon="2.64467">
        <ele>973.3</ele>
        <time>2018-11-26T03:32:41Z</time>
      </trkpt>
      <trkpt lat="42.38168" lon="2.64468">
        <ele>973.3</ele>
        <time>2018-11-26T03:32:42Z</time>
      </trkpt>
      <trkpt lat="42.38168" lon="2.6447">
        <ele>973.5</ele>
        <time>2018-11-26T03:32:42Z</time>
      </trkpt>
      <trkpt lat="42.38168" lon="2.64471">
        <ele>973.4</ele>
        <time>2018-11-26T03:32:43Z</time>
      </trkpt>
      <trkpt lat="42.38169" lon="2.64475">
        <ele>973.1</ele>
        <time>2018-11-26T03:32:44Z</time>
      </trkpt>
      <trkpt lat="42.38169" lon="2.64477">
        <ele>972.9</ele>
        <time>2018-11-26T03:32:45Z</time>
      </trkpt>
      <trkpt lat="42.38169" lon="2.64479">
        <ele>972.8</ele>
        <time>2018-11-26T03:32:45Z</time>
      </trkpt>
      <trkpt lat="42.3817" lon="2.6448">
        <ele>973</ele>
        <time>2018-11-26T03:32:45Z</time>
      </trkpt>
      <trkpt lat="42.3817" lon="2.64482">
        <ele>972.9</ele>
        <time>2018-11-26T03:32:46Z</time>
      </trkpt>
      <trkpt lat="42.38171" lon="2.64485">
        <ele>973.1</ele>
        <time>2018-11-26T03:32:47Z</time>
      </trkpt>
      <trkpt lat="42.38171" lon="2.64487">
        <ele>973.2</ele>
        <time>2018-11-26T03:32:48Z</time>
      </trkpt>
      <trkpt lat="42.38171" lon="2.64489">
        <ele>973.1</ele>
        <time>2018-11-26T03:32:48Z</time>
      </trkpt>
      <trkpt lat="42.38171" lon="2.6449">
        <ele>973</ele>
        <time>2018-11-26T03:32:49Z</time>
      </trkpt>
      <trkpt lat="42.38172" lon="2.64491">
        <ele>973</ele>
        <time>2018-11-26T03:32:49Z</time>
      </trkpt>
      <trkpt lat="42.38173" lon="2.64492">
        <ele>973</ele>
        <time>2018-11-26T03:32:49Z</time>
      </trkpt>
      <trkpt lat="42.38174" lon="2.64493">
        <ele>973.2</ele>
        <time>2018-11-26T03:32:50Z</time>
      </trkpt>
      <trkpt lat="42.38174" lon="2.64494">
        <ele>973.4</ele>
        <time>2018-11-26T03:32:50Z</time>
      </trkpt>
      <trkpt lat="42.38174" lon="2.64495">
        <ele>973.4</ele>
        <time>2018-11-26T03:32:51Z</time>
      </trkpt>
      <trkpt lat="42.38174" lon="2.64497">
        <ele>973.5</ele>
        <time>2018-11-26T03:32:51Z</time>
      </trkpt>
      <trkpt lat="42.38175" lon="2.64498">
        <ele>973.5</ele>
        <time>2018-11-26T03:32:51Z</time>
      </trkpt>
      <trkpt lat="42.38175" lon="2.645">
        <ele>973.7</ele>
        <time>2018-11-26T03:32:52Z</time>
      </trkpt>
      <trkpt lat="42.38175" lon="2.64505">
        <ele>973.7</ele>
        <time>2018-11-26T03:32:53Z</time>
      </trkpt>
      <trkpt lat="42.38175" lon="2.64507">
        <ele>973.9</ele>
        <time>2018-11-26T03:32:54Z</time>
      </trkpt>
      <trkpt lat="42.38175" lon="2.64508">
        <ele>973.8</ele>
        <time>2018-11-26T03:32:54Z</time>
      </trkpt>
      <trkpt lat="42.38175" lon="2.6451">
        <ele>973.8</ele>
        <time>2018-11-26T03:32:55Z</time>
      </trkpt>
      <trkpt lat="42.38175" lon="2.64512">
        <ele>973.7</ele>
        <time>2018-11-26T03:32:55Z</time>
      </trkpt>
      <trkpt lat="42.38175" lon="2.64513">
        <ele>973.6</ele>
        <time>2018-11-26T03:32:56Z</time>
      </trkpt>
      <trkpt lat="42.38175" lon="2.64516">
        <ele>973.3</ele>
        <time>2018-11-26T03:32:57Z</time>
      </trkpt>
      <trkpt lat="42.38175" lon="2.64519">
        <ele>973.7</ele>
        <time>2018-11-26T03:32:58Z</time>
      </trkpt>
      <trkpt lat="42.38175" lon="2.6452">
        <ele>973.8</ele>
        <time>2018-11-26T03:32:58Z</time>
      </trkpt>
      <trkpt lat="42.38175" lon="2.64522">
        <ele>973.9</ele>
        <time>2018-11-26T03:32:58Z</time>
      </trkpt>
      <trkpt lat="42.38175" lon="2.64523">
        <ele>973.8</ele>
        <time>2018-11-26T03:32:59Z</time>
      </trkpt>
      <trkpt lat="42.38175" lon="2.64524">
        <ele>973.8</ele>
        <time>2018-11-26T03:32:59Z</time>
      </trkpt>
      <trkpt lat="42.38175" lon="2.64525">
        <ele>973.9</ele>
        <time>2018-11-26T03:33:00Z</time>
      </trkpt>
      <trkpt lat="42.38176" lon="2.64526">
        <ele>974</ele>
        <time>2018-11-26T03:33:00Z</time>
      </trkpt>
      <trkpt lat="42.38176" lon="2.64528">
        <ele>974.1</ele>
        <time>2018-11-26T03:33:00Z</time>
      </trkpt>
      <trkpt lat="42.38176" lon="2.64529">
        <ele>974.4</ele>
        <time>2018-11-26T03:33:01Z</time>
      </trkpt>
      <trkpt lat="42.38176" lon="2.6453">
        <ele>974.1</ele>
        <time>2018-11-26T03:33:01Z</time>
      </trkpt>
      <trkpt lat="42.38176" lon="2.64536">
        <ele>974</ele>
        <time>2018-11-26T03:33:03Z</time>
      </trkpt>
      <trkpt lat="42.38176" lon="2.64538">
        <ele>973.7</ele>
        <time>2018-11-26T03:33:03Z</time>
      </trkpt>
      <trkpt lat="42.38176" lon="2.64539">
        <ele>974</ele>
        <time>2018-11-26T03:33:04Z</time>
      </trkpt>
      <trkpt lat="42.38176" lon="2.64541">
        <ele>974.2</ele>
        <time>2018-11-26T03:33:04Z</time>
      </trkpt>
      <trkpt lat="42.38176" lon="2.64542">
        <ele>974.6</ele>
        <time>2018-11-26T03:33:05Z</time>
      </trkpt>
      <trkpt lat="42.38176" lon="2.64544">
        <ele>974.6</ele>
        <time>2018-11-26T03:33:05Z</time>
      </trkpt>
      <trkpt lat="42.38176" lon="2.64553">
        <ele>975.1</ele>
        <time>2018-11-26T03:33:08Z</time>
      </trkpt>
      <trkpt lat="42.38176" lon="2.64557">
        <ele>975.5</ele>
        <time>2018-11-26T03:33:09Z</time>
      </trkpt>
      <trkpt lat="42.38176" lon="2.64561">
        <ele>975.2</ele>
        <time>2018-11-26T03:33:10Z</time>
      </trkpt>
      <trkpt lat="42.38176" lon="2.64572">
        <ele>975.8</ele>
        <time>2018-11-26T03:33:13Z</time>
      </trkpt>
      <trkpt lat="42.38177" lon="2.64582">
        <ele>976.6</ele>
        <time>2018-11-26T03:33:17Z</time>
      </trkpt>
      <trkpt lat="42.38178" lon="2.64588">
        <ele>976</ele>
        <time>2018-11-26T03:33:18Z</time>
      </trkpt>
      <trkpt lat="42.38178" lon="2.6459">
        <ele>975.6</ele>
        <time>2018-11-26T03:33:19Z</time>
      </trkpt>
      <trkpt lat="42.38178" lon="2.64591">
        <ele>975.4</ele>
        <time>2018-11-26T03:33:19Z</time>
      </trkpt>
      <trkpt lat="42.38178" lon="2.64593">
        <ele>975.4</ele>
        <time>2018-11-26T03:33:20Z</time>
      </trkpt>
      <trkpt lat="42.38178" lon="2.64594">
        <ele>975.3</ele>
        <time>2018-11-26T03:33:20Z</time>
      </trkpt>
      <trkpt lat="42.38178" lon="2.64595">
        <ele>975.5</ele>
        <time>2018-11-26T03:33:20Z</time>
      </trkpt>
      <trkpt lat="42.38179" lon="2.64596">
        <ele>975.9</ele>
        <time>2018-11-26T03:33:21Z</time>
      </trkpt>
      <trkpt lat="42.38179" lon="2.64598">
        <ele>976.3</ele>
        <time>2018-11-26T03:33:21Z</time>
      </trkpt>
      <trkpt lat="42.38179" lon="2.64599">
        <ele>976.3</ele>
        <time>2018-11-26T03:33:22Z</time>
      </trkpt>
      <trkpt lat="42.38179" lon="2.64602">
        <ele>976.1</ele>
        <time>2018-11-26T03:33:23Z</time>
      </trkpt>
      <trkpt lat="42.38179" lon="2.64604">
        <ele>976.1</ele>
        <time>2018-11-26T03:33:23Z</time>
      </trkpt>
      <trkpt lat="42.3818" lon="2.64607">
        <ele>976.1</ele>
        <time>2018-11-26T03:33:24Z</time>
      </trkpt>
      <trkpt lat="42.3818" lon="2.64608">
        <ele>976.1</ele>
        <time>2018-11-26T03:33:24Z</time>
      </trkpt>
      <trkpt lat="42.3818" lon="2.6461">
        <ele>976.2</ele>
        <time>2018-11-26T03:33:25Z</time>
      </trkpt>
      <trkpt lat="42.38181" lon="2.64611">
        <ele>976.2</ele>
        <time>2018-11-26T03:33:25Z</time>
      </trkpt>
      <trkpt lat="42.38181" lon="2.64613">
        <ele>976.5</ele>
        <time>2018-11-26T03:33:26Z</time>
      </trkpt>
      <trkpt lat="42.38181" lon="2.64614">
        <ele>976.6</ele>
        <time>2018-11-26T03:33:26Z</time>
      </trkpt>
      <trkpt lat="42.38183" lon="2.64623">
        <ele>977.2</ele>
        <time>2018-11-26T03:33:29Z</time>
      </trkpt>
      <trkpt lat="42.38185" lon="2.64632">
        <ele>978</ele>
        <time>2018-11-26T03:33:32Z</time>
      </trkpt>
      <trkpt lat="42.38186" lon="2.64635">
        <ele>977.4</ele>
        <time>2018-11-26T03:33:32Z</time>
      </trkpt>
      <trkpt lat="42.38186" lon="2.64636">
        <ele>976.9</ele>
        <time>2018-11-26T03:33:33Z</time>
      </trkpt>
      <trkpt lat="42.38186" lon="2.64638">
        <ele>976.8</ele>
        <time>2018-11-26T03:33:33Z</time>
      </trkpt>
      <trkpt lat="42.38186" lon="2.6464">
        <ele>976.7</ele>
        <time>2018-11-26T03:33:34Z</time>
      </trkpt>
      <trkpt lat="42.38187" lon="2.64641">
        <ele>976.7</ele>
        <time>2018-11-26T03:33:34Z</time>
      </trkpt>
      <trkpt lat="42.38187" lon="2.64642">
        <ele>976.7</ele>
        <time>2018-11-26T03:33:35Z</time>
      </trkpt>
      <trkpt lat="42.38188" lon="2.64643">
        <ele>976.7</ele>
        <time>2018-11-26T03:33:35Z</time>
      </trkpt>
      <trkpt lat="42.38188" lon="2.64644">
        <ele>976.8</ele>
        <time>2018-11-26T03:33:35Z</time>
      </trkpt>
      <trkpt lat="42.38188" lon="2.64645">
        <ele>977</ele>
        <time>2018-11-26T03:33:36Z</time>
      </trkpt>
      <trkpt lat="42.38191" lon="2.64658">
        <ele>977.8</ele>
        <time>2018-11-26T03:33:40Z</time>
      </trkpt>
      <trkpt lat="42.38192" lon="2.64659">
        <ele>977.6</ele>
        <time>2018-11-26T03:33:40Z</time>
      </trkpt>
      <trkpt lat="42.38192" lon="2.64662">
        <ele>977.4</ele>
        <time>2018-11-26T03:33:41Z</time>
      </trkpt>
      <trkpt lat="42.38193" lon="2.64664">
        <ele>977.5</ele>
        <time>2018-11-26T03:33:41Z</time>
      </trkpt>
      <trkpt lat="42.38193" lon="2.64665">
        <ele>977.5</ele>
        <time>2018-11-26T03:33:42Z</time>
      </trkpt>
      <trkpt lat="42.38193" lon="2.64667">
        <ele>977.7</ele>
        <time>2018-11-26T03:33:42Z</time>
      </trkpt>
      <trkpt lat="42.38194" lon="2.6467">
        <ele>977.5</ele>
        <time>2018-11-26T03:33:43Z</time>
      </trkpt>
      <trkpt lat="42.38194" lon="2.64686">
        <ele>977.4</ele>
        <time>2018-11-26T03:33:48Z</time>
      </trkpt>
      <trkpt lat="42.38194" lon="2.64688">
        <ele>977.6</ele>
        <time>2018-11-26T03:33:49Z</time>
      </trkpt>
      <trkpt lat="42.38194" lon="2.64689">
        <ele>977.6</ele>
        <time>2018-11-26T03:33:49Z</time>
      </trkpt>
      <trkpt lat="42.38194" lon="2.64692">
        <ele>978.1</ele>
        <time>2018-11-26T03:33:50Z</time>
      </trkpt>
      <trkpt lat="42.38194" lon="2.64694">
        <ele>978.3</ele>
        <time>2018-11-26T03:33:50Z</time>
      </trkpt>
      <trkpt lat="42.38194" lon="2.64694">
        <ele>978.3</ele>
        <time>2018-11-26T03:33:51Z</time>
      </trkpt>
      <trkpt lat="42.38194" lon="2.647">
        <ele>977.8</ele>
        <time>2018-11-26T03:33:52Z</time>
      </trkpt>
      <trkpt lat="42.38194" lon="2.64722">
        <ele>979.2</ele>
        <time>2018-11-26T03:33:59Z</time>
      </trkpt>
      <trkpt lat="42.38194" lon="2.64723">
        <ele>979.5</ele>
        <time>2018-11-26T03:33:59Z</time>
      </trkpt>
      <trkpt lat="42.38194" lon="2.64725">
        <ele>980</ele>
        <time>2018-11-26T03:34:00Z</time>
      </trkpt>
      <trkpt lat="42.38195" lon="2.6473">
        <ele>979.5</ele>
        <time>2018-11-26T03:34:01Z</time>
      </trkpt>
      <trkpt lat="42.38197" lon="2.64734">
        <ele>979.5</ele>
        <time>2018-11-26T03:34:03Z</time>
      </trkpt>
      <trkpt lat="42.38197" lon="2.64735">
        <ele>979.5</ele>
        <time>2018-11-26T03:34:03Z</time>
      </trkpt>
      <trkpt lat="42.38198" lon="2.64737">
        <ele>979.6</ele>
        <time>2018-11-26T03:34:04Z</time>
      </trkpt>
      <trkpt lat="42.38199" lon="2.64739">
        <ele>979.7</ele>
        <time>2018-11-26T03:34:04Z</time>
      </trkpt>
      <trkpt lat="42.38199" lon="2.64742">
        <ele>979.8</ele>
        <time>2018-11-26T03:34:05Z</time>
      </trkpt>
      <trkpt lat="42.382" lon="2.64744">
        <ele>979.8</ele>
        <time>2018-11-26T03:34:06Z</time>
      </trkpt>
      <trkpt lat="42.382" lon="2.64745">
        <ele>979.8</ele>
        <time>2018-11-26T03:34:06Z</time>
      </trkpt>
      <trkpt lat="42.382" lon="2.64751">
        <ele>980.4</ele>
        <time>2018-11-26T03:34:08Z</time>
      </trkpt>
      <trkpt lat="42.382" lon="2.64756">
        <ele>981.3</ele>
        <time>2018-11-26T03:34:09Z</time>
      </trkpt>
      <trkpt lat="42.38201" lon="2.64758">
        <ele>981.7</ele>
        <time>2018-11-26T03:34:10Z</time>
      </trkpt>
      <trkpt lat="42.38201" lon="2.64763">
        <ele>981.5</ele>
        <time>2018-11-26T03:34:11Z</time>
      </trkpt>
      <trkpt lat="42.382" lon="2.64768">
        <ele>981.8</ele>
        <time>2018-11-26T03:34:13Z</time>
      </trkpt>
      <trkpt lat="42.382" lon="2.64771">
        <ele>982.1</ele>
        <time>2018-11-26T03:34:14Z</time>
      </trkpt>
      <trkpt lat="42.38199" lon="2.64778">
        <ele>982.7</ele>
        <time>2018-11-26T03:34:16Z</time>
      </trkpt>
      <trkpt lat="42.38199" lon="2.6478">
        <ele>982.9</ele>
        <time>2018-11-26T03:34:16Z</time>
      </trkpt>
      <trkpt lat="42.38199" lon="2.64781">
        <ele>982.9</ele>
        <time>2018-11-26T03:34:17Z</time>
      </trkpt>
      <trkpt lat="42.38199" lon="2.64782">
        <ele>982.9</ele>
        <time>2018-11-26T03:34:17Z</time>
      </trkpt>
      <trkpt lat="42.38199" lon="2.64791">
        <ele>982</ele>
        <time>2018-11-26T03:34:20Z</time>
      </trkpt>
      <trkpt lat="42.38199" lon="2.64793">
        <ele>982.2</ele>
        <time>2018-11-26T03:34:21Z</time>
      </trkpt>
      <trkpt lat="42.38199" lon="2.64795">
        <ele>982.3</ele>
        <time>2018-11-26T03:34:21Z</time>
      </trkpt>
      <trkpt lat="42.38199" lon="2.64804">
        <ele>982.5</ele>
        <time>2018-11-26T03:34:24Z</time>
      </trkpt>
      <trkpt lat="42.38199" lon="2.64807">
        <ele>982.4</ele>
        <time>2018-11-26T03:34:25Z</time>
      </trkpt>
      <trkpt lat="42.38198" lon="2.6481">
        <ele>983.2</ele>
        <time>2018-11-26T03:34:26Z</time>
      </trkpt>
      <trkpt lat="42.38198" lon="2.64812">
        <ele>984</ele>
        <time>2018-11-26T03:34:26Z</time>
      </trkpt>
      <trkpt lat="42.38198" lon="2.64814">
        <ele>984</ele>
        <time>2018-11-26T03:34:26Z</time>
      </trkpt>
      <trkpt lat="42.38199" lon="2.64815">
        <ele>984.3</ele>
        <time>2018-11-26T03:34:27Z</time>
      </trkpt>
      <trkpt lat="42.38199" lon="2.64816">
        <ele>984.4</ele>
        <time>2018-11-26T03:34:27Z</time>
      </trkpt>
      <trkpt lat="42.38199" lon="2.64818">
        <ele>984.7</ele>
        <time>2018-11-26T03:34:28Z</time>
      </trkpt>
      <trkpt lat="42.38199" lon="2.64819">
        <ele>984.7</ele>
        <time>2018-11-26T03:34:28Z</time>
      </trkpt>
      <trkpt lat="42.38199" lon="2.64824">
        <ele>985</ele>
        <time>2018-11-26T03:34:30Z</time>
      </trkpt>
      <trkpt lat="42.38199" lon="2.64825">
        <ele>985.1</ele>
        <time>2018-11-26T03:34:30Z</time>
      </trkpt>
      <trkpt lat="42.38199" lon="2.64827">
        <ele>985.3</ele>
        <time>2018-11-26T03:34:30Z</time>
      </trkpt>
      <trkpt lat="42.38199" lon="2.64832">
        <ele>985.7</ele>
        <time>2018-11-26T03:34:32Z</time>
      </trkpt>
      <trkpt lat="42.382" lon="2.64833">
        <ele>986</ele>
        <time>2018-11-26T03:34:32Z</time>
      </trkpt>
      <trkpt lat="42.382" lon="2.64841">
        <ele>986.6</ele>
        <time>2018-11-26T03:34:35Z</time>
      </trkpt>
      <trkpt lat="42.38201" lon="2.64846">
        <ele>986.7</ele>
        <time>2018-11-26T03:34:36Z</time>
      </trkpt>
      <trkpt lat="42.38201" lon="2.64847">
        <ele>986.5</ele>
        <time>2018-11-26T03:34:37Z</time>
      </trkpt>
      <trkpt lat="42.38201" lon="2.64849">
        <ele>986.3</ele>
        <time>2018-11-26T03:34:37Z</time>
      </trkpt>
      <trkpt lat="42.38201" lon="2.64852">
        <ele>985.6</ele>
        <time>2018-11-26T03:34:38Z</time>
      </trkpt>
      <trkpt lat="42.38201" lon="2.64854">
        <ele>986.1</ele>
        <time>2018-11-26T03:34:39Z</time>
      </trkpt>
      <trkpt lat="42.38201" lon="2.64856">
        <ele>986.5</ele>
        <time>2018-11-26T03:34:39Z</time>
      </trkpt>
      <trkpt lat="42.38202" lon="2.64857">
        <ele>987.3</ele>
        <time>2018-11-26T03:34:40Z</time>
      </trkpt>
      <trkpt lat="42.38206" lon="2.64888">
        <ele>990.2</ele>
        <time>2018-11-26T03:34:49Z</time>
      </trkpt>
      <trkpt lat="42.38206" lon="2.64889">
        <ele>990.1</ele>
        <time>2018-11-26T03:34:49Z</time>
      </trkpt>
      <trkpt lat="42.38207" lon="2.64892">
        <ele>989.6</ele>
        <time>2018-11-26T03:34:50Z</time>
      </trkpt>
      <trkpt lat="42.3821" lon="2.64902">
        <ele>990.4</ele>
        <time>2018-11-26T03:34:53Z</time>
      </trkpt>
      <trkpt lat="42.38211" lon="2.64905">
        <ele>990.9</ele>
        <time>2018-11-26T03:34:54Z</time>
      </trkpt>
      <trkpt lat="42.38213" lon="2.64911">
        <ele>991.9</ele>
        <time>2018-11-26T03:34:56Z</time>
      </trkpt>
      <trkpt lat="42.38216" lon="2.64919">
        <ele>992.7</ele>
        <time>2018-11-26T03:34:59Z</time>
      </trkpt>
      <trkpt lat="42.38216" lon="2.6492">
        <ele>992.9</ele>
        <time>2018-11-26T03:34:59Z</time>
      </trkpt>
      <trkpt lat="42.38216" lon="2.64922">
        <ele>993.1</ele>
        <time>2018-11-26T03:35:00Z</time>
      </trkpt>
      <trkpt lat="42.38217" lon="2.64933">
        <ele>993.9</ele>
        <time>2018-11-26T03:35:03Z</time>
      </trkpt>
      <trkpt lat="42.38217" lon="2.64935">
        <ele>994.1</ele>
        <time>2018-11-26T03:35:04Z</time>
      </trkpt>
      <trkpt lat="42.38217" lon="2.64939">
        <ele>994.4</ele>
        <time>2018-11-26T03:35:05Z</time>
      </trkpt>
      <trkpt lat="42.38217" lon="2.64943">
        <ele>994.5</ele>
        <time>2018-11-26T03:35:06Z</time>
      </trkpt>
      <trkpt lat="42.38217" lon="2.64949">
        <ele>994</ele>
        <time>2018-11-26T03:35:08Z</time>
      </trkpt>
      <trkpt lat="42.38217" lon="2.64954">
        <ele>994.2</ele>
        <time>2018-11-26T03:35:09Z</time>
      </trkpt>
      <trkpt lat="42.38217" lon="2.64957">
        <ele>994.5</ele>
        <time>2018-11-26T03:35:10Z</time>
      </trkpt>
      <trkpt lat="42.38217" lon="2.64969">
        <ele>996.1</ele>
        <time>2018-11-26T03:35:14Z</time>
      </trkpt>
      <trkpt lat="42.38217" lon="2.64973">
        <ele>996.7</ele>
        <time>2018-11-26T03:35:15Z</time>
      </trkpt>
      <trkpt lat="42.38216" lon="2.64975">
        <ele>996.7</ele>
        <time>2018-11-26T03:35:16Z</time>
      </trkpt>
      <trkpt lat="42.38216" lon="2.64977">
        <ele>996.6</ele>
        <time>2018-11-26T03:35:16Z</time>
      </trkpt>
      <trkpt lat="42.38216" lon="2.64979">
        <ele>996.7</ele>
        <time>2018-11-26T03:35:17Z</time>
      </trkpt>
      <trkpt lat="42.38216" lon="2.6498">
        <ele>996.7</ele>
        <time>2018-11-26T03:35:17Z</time>
      </trkpt>
      <trkpt lat="42.38217" lon="2.64992">
        <ele>997.3</ele>
        <time>2018-11-26T03:35:20Z</time>
      </trkpt>
      <trkpt lat="42.38218" lon="2.64993">
        <ele>997.5</ele>
        <time>2018-11-26T03:35:21Z</time>
      </trkpt>
      <trkpt lat="42.3822" lon="2.65004">
        <ele>998.5</ele>
        <time>2018-11-26T03:35:24Z</time>
      </trkpt>
      <trkpt lat="42.38221" lon="2.65008">
        <ele>999.1</ele>
        <time>2018-11-26T03:35:25Z</time>
      </trkpt>
      <trkpt lat="42.38224" lon="2.65014">
        <ele>999.9</ele>
        <time>2018-11-26T03:35:28Z</time>
      </trkpt>
      <trkpt lat="42.38227" lon="2.65021">
        <ele>1001.1</ele>
        <time>2018-11-26T03:35:30Z</time>
      </trkpt>
      <trkpt lat="42.38228" lon="2.65023">
        <ele>1001.2</ele>
        <time>2018-11-26T03:35:31Z</time>
      </trkpt>
      <trkpt lat="42.38228" lon="2.65024">
        <ele>1001.4</ele>
        <time>2018-11-26T03:35:31Z</time>
      </trkpt>
      <trkpt lat="42.3823" lon="2.65035">
        <ele>1003.3</ele>
        <time>2018-11-26T03:35:34Z</time>
      </trkpt>
      <trkpt lat="42.3823" lon="2.65037">
        <ele>1003.5</ele>
        <time>2018-11-26T03:35:35Z</time>
      </trkpt>
      <trkpt lat="42.38231" lon="2.65039">
        <ele>1003.8</ele>
        <time>2018-11-26T03:35:36Z</time>
      </trkpt>
      <trkpt lat="42.38231" lon="2.65041">
        <ele>1004</ele>
        <time>2018-11-26T03:35:36Z</time>
      </trkpt>
      <trkpt lat="42.38232" lon="2.65049">
        <ele>1004.4</ele>
        <time>2018-11-26T03:35:39Z</time>
      </trkpt>
      <trkpt lat="42.38233" lon="2.65051">
        <ele>1004.5</ele>
        <time>2018-11-26T03:35:39Z</time>
      </trkpt>
      <trkpt lat="42.38234" lon="2.65074">
        <ele>1005.8</ele>
        <time>2018-11-26T03:35:46Z</time>
      </trkpt>
      <trkpt lat="42.38234" lon="2.65076">
        <ele>1005.8</ele>
        <time>2018-11-26T03:35:47Z</time>
      </trkpt>
      <trkpt lat="42.38234" lon="2.6508">
        <ele>1006</ele>
        <time>2018-11-26T03:35:48Z</time>
      </trkpt>
      <trkpt lat="42.38234" lon="2.65082">
        <ele>1006.1</ele>
        <time>2018-11-26T03:35:48Z</time>
      </trkpt>
      <trkpt lat="42.38235" lon="2.65086">
        <ele>1006.5</ele>
        <time>2018-11-26T03:35:50Z</time>
      </trkpt>
      <trkpt lat="42.3824" lon="2.65098">
        <ele>1007.9</ele>
        <time>2018-11-26T03:35:54Z</time>
      </trkpt>
      <trkpt lat="42.38241" lon="2.65102">
        <ele>1008.2</ele>
        <time>2018-11-26T03:35:55Z</time>
      </trkpt>
      <trkpt lat="42.38246" lon="2.6512">
        <ele>1010.3</ele>
        <time>2018-11-26T03:36:01Z</time>
      </trkpt>
      <trkpt lat="42.38247" lon="2.65122">
        <ele>1010.6</ele>
        <time>2018-11-26T03:36:01Z</time>
      </trkpt>
      <trkpt lat="42.38247" lon="2.65124">
        <ele>1011.1</ele>
        <time>2018-11-26T03:36:02Z</time>
      </trkpt>
      <trkpt lat="42.38254" lon="2.65134">
        <ele>1011.8</ele>
        <time>2018-11-26T03:36:06Z</time>
      </trkpt>
      <trkpt lat="42.38258" lon="2.6514">
        <ele>1012.6</ele>
        <time>2018-11-26T03:36:08Z</time>
      </trkpt>
      <trkpt lat="42.38266" lon="2.65149">
        <ele>1014.2</ele>
        <time>2018-11-26T03:36:12Z</time>
      </trkpt>
      <trkpt lat="42.38267" lon="2.6515">
        <ele>1014.5</ele>
        <time>2018-11-26T03:36:13Z</time>
      </trkpt>
      <trkpt lat="42.3828" lon="2.65162">
        <ele>1016.9</ele>
        <time>2018-11-26T03:36:19Z</time>
      </trkpt>
      <trkpt lat="42.38282" lon="2.65163">
        <ele>1017.1</ele>
        <time>2018-11-26T03:36:20Z</time>
      </trkpt>
      <trkpt lat="42.38283" lon="2.65164">
        <ele>1017.4</ele>
        <time>2018-11-26T03:36:20Z</time>
      </trkpt>
      <trkpt lat="42.38284" lon="2.65165">
        <ele>1017.8</ele>
        <time>2018-11-26T03:36:21Z</time>
      </trkpt>
      <trkpt lat="42.38285" lon="2.65167">
        <ele>1018.3</ele>
        <time>2018-11-26T03:36:22Z</time>
      </trkpt>
      <trkpt lat="42.38286" lon="2.65168">
        <ele>1019</ele>
        <time>2018-11-26T03:36:22Z</time>
      </trkpt>
      <trkpt lat="42.38287" lon="2.65169">
        <ele>1019.2</ele>
        <time>2018-11-26T03:36:23Z</time>
      </trkpt>
      <trkpt lat="42.38294" lon="2.65171">
        <ele>1020.6</ele>
        <time>2018-11-26T03:36:26Z</time>
      </trkpt>
      <trkpt lat="42.38298" lon="2.65172">
        <ele>1021.9</ele>
        <time>2018-11-26T03:36:27Z</time>
      </trkpt>
      <trkpt lat="42.383" lon="2.65172">
        <ele>1022.1</ele>
        <time>2018-11-26T03:36:28Z</time>
      </trkpt>
      <trkpt lat="42.38302" lon="2.65174">
        <ele>1023</ele>
        <time>2018-11-26T03:36:29Z</time>
      </trkpt>
      <trkpt lat="42.38303" lon="2.65174">
        <ele>1023.2</ele>
        <time>2018-11-26T03:36:30Z</time>
      </trkpt>
      <trkpt lat="42.38306" lon="2.65175">
        <ele>1023.9</ele>
        <time>2018-11-26T03:36:31Z</time>
      </trkpt>
      <trkpt lat="42.38307" lon="2.65175">
        <ele>1024.3</ele>
        <time>2018-11-26T03:36:31Z</time>
      </trkpt>
      <trkpt lat="42.38309" lon="2.65176">
        <ele>1024.7</ele>
        <time>2018-11-26T03:36:32Z</time>
      </trkpt>
      <trkpt lat="42.3831" lon="2.65176">
        <ele>1025.3</ele>
        <time>2018-11-26T03:36:32Z</time>
      </trkpt>
      <trkpt lat="42.38312" lon="2.65175">
        <ele>1026</ele>
        <time>2018-11-26T03:36:33Z</time>
      </trkpt>
      <trkpt lat="42.38314" lon="2.65174">
        <ele>1026.5</ele>
        <time>2018-11-26T03:36:34Z</time>
      </trkpt>
      <trkpt lat="42.3832" lon="2.65167">
        <ele>1029.4</ele>
        <time>2018-11-26T03:36:37Z</time>
      </trkpt>
      <trkpt lat="42.38323" lon="2.65164">
        <ele>1030</ele>
        <time>2018-11-26T03:36:38Z</time>
      </trkpt>
      <trkpt lat="42.38324" lon="2.65163">
        <ele>1030.5</ele>
        <time>2018-11-26T03:36:39Z</time>
      </trkpt>
      <trkpt lat="42.38325" lon="2.65163">
        <ele>1031.1</ele>
        <time>2018-11-26T03:36:40Z</time>
      </trkpt>
      <trkpt lat="42.38327" lon="2.65162">
        <ele>1031.2</ele>
        <time>2018-11-26T03:36:40Z</time>
      </trkpt>
      <trkpt lat="42.38331" lon="2.65162">
        <ele>1031.8</ele>
        <time>2018-11-26T03:36:42Z</time>
      </trkpt>
      <trkpt lat="42.38332" lon="2.65162">
        <ele>1032.3</ele>
        <time>2018-11-26T03:36:42Z</time>
      </trkpt>
      <trkpt lat="42.38333" lon="2.65162">
        <ele>1033.1</ele>
        <time>2018-11-26T03:36:43Z</time>
      </trkpt>
      <trkpt lat="42.38334" lon="2.65161">
        <ele>1033.3</ele>
        <time>2018-11-26T03:36:43Z</time>
      </trkpt>
      <trkpt lat="42.38337" lon="2.65161">
        <ele>1033.7</ele>
        <time>2018-11-26T03:36:44Z</time>
      </trkpt>
      <trkpt lat="42.38342" lon="2.65162">
        <ele>1035.2</ele>
        <time>2018-11-26T03:36:46Z</time>
      </trkpt>
      <trkpt lat="42.38343" lon="2.65162">
        <ele>1036</ele>
        <time>2018-11-26T03:36:47Z</time>
      </trkpt>
      <trkpt lat="42.38345" lon="2.65162">
        <ele>1036.2</ele>
        <time>2018-11-26T03:36:48Z</time>
      </trkpt>
      <trkpt lat="42.38347" lon="2.65162">
        <ele>1036.5</ele>
        <time>2018-11-26T03:36:48Z</time>
      </trkpt>
      <trkpt lat="42.38348" lon="2.65162">
        <ele>1036.9</ele>
        <time>2018-11-26T03:36:49Z</time>
      </trkpt>
      <trkpt lat="42.38349" lon="2.65161">
        <ele>1037.4</ele>
        <time>2018-11-26T03:36:49Z</time>
      </trkpt>
      <trkpt lat="42.38367" lon="2.65152">
        <ele>1043.2</ele>
        <time>2018-11-26T03:36:57Z</time>
      </trkpt>
      <trkpt lat="42.38368" lon="2.65151">
        <ele>1043.7</ele>
        <time>2018-11-26T03:36:57Z</time>
      </trkpt>
      <trkpt lat="42.3838" lon="2.65145">
        <ele>1047.6</ele>
        <time>2018-11-26T03:37:03Z</time>
      </trkpt>
      <trkpt lat="42.38382" lon="2.65144">
        <ele>1048.2</ele>
        <time>2018-11-26T03:37:03Z</time>
      </trkpt>
      <trkpt lat="42.3839" lon="2.65138">
        <ele>1049.2</ele>
        <time>2018-11-26T03:37:07Z</time>
      </trkpt>
      <trkpt lat="42.38392" lon="2.65136">
        <ele>1049.6</ele>
        <time>2018-11-26T03:37:08Z</time>
      </trkpt>
      <trkpt lat="42.38396" lon="2.65133">
        <ele>1050.7</ele>
        <time>2018-11-26T03:37:10Z</time>
      </trkpt>
      <trkpt lat="42.38399" lon="2.65132">
        <ele>1051.1</ele>
        <time>2018-11-26T03:37:11Z</time>
      </trkpt>
      <trkpt lat="42.38401" lon="2.6513">
        <ele>1051.4</ele>
        <time>2018-11-26T03:37:12Z</time>
      </trkpt>
      <trkpt lat="42.38402" lon="2.65128">
        <ele>1051.5</ele>
        <time>2018-11-26T03:37:13Z</time>
      </trkpt>
      <trkpt lat="42.38403" lon="2.65127">
        <ele>1051.8</ele>
        <time>2018-11-26T03:37:13Z</time>
      </trkpt>
      <trkpt lat="42.38404" lon="2.65126">
        <ele>1052.1</ele>
        <time>2018-11-26T03:37:14Z</time>
      </trkpt>
      <trkpt lat="42.38405" lon="2.65126">
        <ele>1052.4</ele>
        <time>2018-11-26T03:37:14Z</time>
      </trkpt>
      <trkpt lat="42.38407" lon="2.65125">
        <ele>1053.3</ele>
        <time>2018-11-26T03:37:15Z</time>
      </trkpt>
      <trkpt lat="42.38414" lon="2.65124">
        <ele>1052.5</ele>
        <time>2018-11-26T03:37:18Z</time>
      </trkpt>
      <trkpt lat="42.38415" lon="2.65124">
        <ele>1052.5</ele>
        <time>2018-11-26T03:37:18Z</time>
      </trkpt>
      <trkpt lat="42.38416" lon="2.65123">
        <ele>1052.5</ele>
        <time>2018-11-26T03:37:19Z</time>
      </trkpt>
      <trkpt lat="42.38417" lon="2.65122">
        <ele>1052.4</ele>
        <time>2018-11-26T03:37:19Z</time>
      </trkpt>
      <trkpt lat="42.38418" lon="2.65122">
        <ele>1052.6</ele>
        <time>2018-11-26T03:37:19Z</time>
      </trkpt>
      <trkpt lat="42.38419" lon="2.65122">
        <ele>1052.8</ele>
        <time>2018-11-26T03:37:20Z</time>
      </trkpt>
      <trkpt lat="42.3842" lon="2.65122">
        <ele>1053.1</ele>
        <time>2018-11-26T03:37:20Z</time>
      </trkpt>
      <trkpt lat="42.38424" lon="2.65122">
        <ele>1053.3</ele>
        <time>2018-11-26T03:37:22Z</time>
      </trkpt>
      <trkpt lat="42.38425" lon="2.65122">
        <ele>1053.6</ele>
        <time>2018-11-26T03:37:22Z</time>
      </trkpt>
      <trkpt lat="42.38427" lon="2.65121">
        <ele>1054.5</ele>
        <time>2018-11-26T03:37:23Z</time>
      </trkpt>
      <trkpt lat="42.38429" lon="2.65121">
        <ele>1054.4</ele>
        <time>2018-11-26T03:37:24Z</time>
      </trkpt>
      <trkpt lat="42.3843" lon="2.6512">
        <ele>1054.3</ele>
        <time>2018-11-26T03:37:24Z</time>
      </trkpt>
      <trkpt lat="42.38431" lon="2.6512">
        <ele>1054.5</ele>
        <time>2018-11-26T03:37:25Z</time>
      </trkpt>
      <trkpt lat="42.38432" lon="2.6512">
        <ele>1054.7</ele>
        <time>2018-11-26T03:37:25Z</time>
      </trkpt>
      <trkpt lat="42.38432" lon="2.65119">
        <ele>1055</ele>
        <time>2018-11-26T03:37:25Z</time>
      </trkpt>
      <trkpt lat="42.38433" lon="2.65119">
        <ele>1054.8</ele>
        <time>2018-11-26T03:37:26Z</time>
      </trkpt>
      <trkpt lat="42.38434" lon="2.65118">
        <ele>1054.7</ele>
        <time>2018-11-26T03:37:26Z</time>
      </trkpt>
      <trkpt lat="42.38434" lon="2.65118">
        <ele>1054.6</ele>
        <time>2018-11-26T03:37:26Z</time>
      </trkpt>
      <trkpt lat="42.38435" lon="2.65117">
        <ele>1054.9</ele>
        <time>2018-11-26T03:37:26Z</time>
      </trkpt>
      <trkpt lat="42.38443" lon="2.65111">
        <ele>1056.9</ele>
        <time>2018-11-26T03:37:30Z</time>
      </trkpt>
      <trkpt lat="42.38444" lon="2.6511">
        <ele>1056.7</ele>
        <time>2018-11-26T03:37:31Z</time>
      </trkpt>
      <trkpt lat="42.38445" lon="2.65109">
        <ele>1056.8</ele>
        <time>2018-11-26T03:37:31Z</time>
      </trkpt>
      <trkpt lat="42.38449" lon="2.65107">
        <ele>1057.2</ele>
        <time>2018-11-26T03:37:33Z</time>
      </trkpt>
      <trkpt lat="42.3845" lon="2.65106">
        <ele>1057.4</ele>
        <time>2018-11-26T03:37:33Z</time>
      </trkpt>
      <trkpt lat="42.38452" lon="2.65102">
        <ele>1057.8</ele>
        <time>2018-11-26T03:37:35Z</time>
      </trkpt>
      <trkpt lat="42.38453" lon="2.65101">
        <ele>1057.6</ele>
        <time>2018-11-26T03:37:35Z</time>
      </trkpt>
      <trkpt lat="42.38457" lon="2.65098">
        <ele>1057.8</ele>
        <time>2018-11-26T03:37:37Z</time>
      </trkpt>
      <trkpt lat="42.38458" lon="2.65098">
        <ele>1058</ele>
        <time>2018-11-26T03:37:38Z</time>
      </trkpt>
      <trkpt lat="42.38461" lon="2.65097">
        <ele>1058.4</ele>
        <time>2018-11-26T03:37:39Z</time>
      </trkpt>
      <trkpt lat="42.38462" lon="2.65097">
        <ele>1058.7</ele>
        <time>2018-11-26T03:37:39Z</time>
      </trkpt>
      <trkpt lat="42.38463" lon="2.65096">
        <ele>1058.7</ele>
        <time>2018-11-26T03:37:40Z</time>
      </trkpt>
      <trkpt lat="42.38464" lon="2.65095">
        <ele>1058.9</ele>
        <time>2018-11-26T03:37:40Z</time>
      </trkpt>
      <trkpt lat="42.38466" lon="2.65092">
        <ele>1059.3</ele>
        <time>2018-11-26T03:37:41Z</time>
      </trkpt>
      <trkpt lat="42.38467" lon="2.65091">
        <ele>1059.6</ele>
        <time>2018-11-26T03:37:42Z</time>
      </trkpt>
      <trkpt lat="42.38468" lon="2.6509">
        <ele>1059.8</ele>
        <time>2018-11-26T03:37:43Z</time>
      </trkpt>
      <trkpt lat="42.3847" lon="2.65089">
        <ele>1060.2</ele>
        <time>2018-11-26T03:37:43Z</time>
      </trkpt>
      <trkpt lat="42.38472" lon="2.65089">
        <ele>1060.9</ele>
        <time>2018-11-26T03:37:44Z</time>
      </trkpt>
      <trkpt lat="42.38473" lon="2.65088">
        <ele>1060.9</ele>
        <time>2018-11-26T03:37:44Z</time>
      </trkpt>
      <trkpt lat="42.38474" lon="2.65088">
        <ele>1060.9</ele>
        <time>2018-11-26T03:37:45Z</time>
      </trkpt>
      <trkpt lat="42.38479" lon="2.65088">
        <ele>1060.8</ele>
        <time>2018-11-26T03:37:47Z</time>
      </trkpt>
      <trkpt lat="42.3848" lon="2.65088">
        <ele>1060.9</ele>
        <time>2018-11-26T03:37:47Z</time>
      </trkpt>
      <trkpt lat="42.38483" lon="2.65088">
        <ele>1060.8</ele>
        <time>2018-11-26T03:37:48Z</time>
      </trkpt>
      <trkpt lat="42.38484" lon="2.65088">
        <ele>1060.7</ele>
        <time>2018-11-26T03:37:49Z</time>
      </trkpt>
      <trkpt lat="42.38486" lon="2.65088">
        <ele>1060.5</ele>
        <time>2018-11-26T03:37:50Z</time>
      </trkpt>
      <trkpt lat="42.38487" lon="2.65087">
        <ele>1060.4</ele>
        <time>2018-11-26T03:37:50Z</time>
      </trkpt>
      <trkpt lat="42.38488" lon="2.65087">
        <ele>1060.5</ele>
        <time>2018-11-26T03:37:51Z</time>
      </trkpt>
      <trkpt lat="42.38489" lon="2.65087">
        <ele>1060.5</ele>
        <time>2018-11-26T03:37:51Z</time>
      </trkpt>
      <trkpt lat="42.3849" lon="2.65086">
        <ele>1060.6</ele>
        <time>2018-11-26T03:37:51Z</time>
      </trkpt>
      <trkpt lat="42.38491" lon="2.65085">
        <ele>1060.7</ele>
        <time>2018-11-26T03:37:52Z</time>
      </trkpt>
      <trkpt lat="42.38492" lon="2.65084">
        <ele>1060.8</ele>
        <time>2018-11-26T03:37:52Z</time>
      </trkpt>
      <trkpt lat="42.38494" lon="2.65082">
        <ele>1061.1</ele>
        <time>2018-11-26T03:37:53Z</time>
      </trkpt>
      <trkpt lat="42.38495" lon="2.65081">
        <ele>1061.2</ele>
        <time>2018-11-26T03:37:54Z</time>
      </trkpt>
      <trkpt lat="42.38504" lon="2.65077">
        <ele>1061.5</ele>
        <time>2018-11-26T03:37:58Z</time>
      </trkpt>
      <trkpt lat="42.38505" lon="2.65077">
        <ele>1061.2</ele>
        <time>2018-11-26T03:37:58Z</time>
      </trkpt>
      <trkpt lat="42.38506" lon="2.65076">
        <ele>1061.1</ele>
        <time>2018-11-26T03:37:58Z</time>
      </trkpt>
      <trkpt lat="42.38506" lon="2.65076">
        <ele>1061</ele>
        <time>2018-11-26T03:37:59Z</time>
      </trkpt>
      <trkpt lat="42.38506" lon="2.65076">
        <ele>1061.1</ele>
        <time>2018-11-26T03:37:59Z</time>
      </trkpt>
      <trkpt lat="42.38506" lon="2.65076">
        <ele>1061.1</ele>
        <time>2018-11-26T03:37:59Z</time>
      </trkpt>
      <trkpt lat="42.38507" lon="2.65076">
        <ele>1061</ele>
        <time>2018-11-26T03:37:59Z</time>
      </trkpt>
      <trkpt lat="42.38507" lon="2.65076">
        <ele>1060.9</ele>
        <time>2018-11-26T03:37:59Z</time>
      </trkpt>
      <trkpt lat="42.38507" lon="2.65076">
        <ele>1060.9</ele>
        <time>2018-11-26T03:37:59Z</time>
      </trkpt>
      <trkpt lat="42.38507" lon="2.65075">
        <ele>1060.7</ele>
        <time>2018-11-26T03:37:59Z</time>
      </trkpt>
      <trkpt lat="42.38508" lon="2.65075">
        <ele>1060.9</ele>
        <time>2018-11-26T03:38:00Z</time>
      </trkpt>
      <trkpt lat="42.38509" lon="2.65075">
        <ele>1061.2</ele>
        <time>2018-11-26T03:38:00Z</time>
      </trkpt>
      <trkpt lat="42.3851" lon="2.65075">
        <ele>1061.6</ele>
        <time>2018-11-26T03:38:00Z</time>
      </trkpt>
      <trkpt lat="42.3851" lon="2.65076">
        <ele>1061.4</ele>
        <time>2018-11-26T03:38:00Z</time>
      </trkpt>
      <trkpt lat="42.38511" lon="2.65077">
        <ele>1061.4</ele>
        <time>2018-11-26T03:38:01Z</time>
      </trkpt>
      <trkpt lat="42.38512" lon="2.65077">
        <ele>1061.3</ele>
        <time>2018-11-26T03:38:01Z</time>
      </trkpt>
      <trkpt lat="42.38512" lon="2.65078">
        <ele>1061.5</ele>
        <time>2018-11-26T03:38:01Z</time>
      </trkpt>
      <trkpt lat="42.38513" lon="2.65079">
        <ele>1062</ele>
        <time>2018-11-26T03:38:02Z</time>
      </trkpt>
      <trkpt lat="42.38514" lon="2.6508">
        <ele>1062.4</ele>
        <time>2018-11-26T03:38:02Z</time>
      </trkpt>
      <trkpt lat="42.38514" lon="2.6508">
        <ele>1062.4</ele>
        <time>2018-11-26T03:38:02Z</time>
      </trkpt>
      <trkpt lat="42.38515" lon="2.65081">
        <ele>1062.4</ele>
        <time>2018-11-26T03:38:03Z</time>
      </trkpt>
      <trkpt lat="42.38515" lon="2.65081">
        <ele>1062.4</ele>
        <time>2018-11-26T03:38:03Z</time>
      </trkpt>
      <trkpt lat="42.38516" lon="2.65082">
        <ele>1062.4</ele>
        <time>2018-11-26T03:38:03Z</time>
      </trkpt>
      <trkpt lat="42.38516" lon="2.65082">
        <ele>1062.5</ele>
        <time>2018-11-26T03:38:03Z</time>
      </trkpt>
      <trkpt lat="42.38517" lon="2.65083">
        <ele>1062.4</ele>
        <time>2018-11-26T03:38:04Z</time>
      </trkpt>
      <trkpt lat="42.38517" lon="2.65083">
        <ele>1062.3</ele>
        <time>2018-11-26T03:38:04Z</time>
      </trkpt>
      <trkpt lat="42.38517" lon="2.65084">
        <ele>1062.6</ele>
        <time>2018-11-26T03:38:04Z</time>
      </trkpt>
      <trkpt lat="42.38518" lon="2.65085">
        <ele>1062.9</ele>
        <time>2018-11-26T03:38:04Z</time>
      </trkpt>
      <trkpt lat="42.38518" lon="2.65086">
        <ele>1063.1</ele>
        <time>2018-11-26T03:38:05Z</time>
      </trkpt>
      <trkpt lat="42.38518" lon="2.65086">
        <ele>1063.2</ele>
        <time>2018-11-26T03:38:05Z</time>
      </trkpt>
      <trkpt lat="42.38519" lon="2.65087">
        <ele>1063.1</ele>
        <time>2018-11-26T03:38:05Z</time>
      </trkpt>
      <trkpt lat="42.38519" lon="2.65087">
        <ele>1063.1</ele>
        <time>2018-11-26T03:38:05Z</time>
      </trkpt>
      <trkpt lat="42.38519" lon="2.65088">
        <ele>1063.1</ele>
        <time>2018-11-26T03:38:06Z</time>
      </trkpt>
      <trkpt lat="42.3852" lon="2.65088">
        <ele>1062.9</ele>
        <time>2018-11-26T03:38:06Z</time>
      </trkpt>
      <trkpt lat="42.38521" lon="2.65089">
        <ele>1062.8</ele>
        <time>2018-11-26T03:38:06Z</time>
      </trkpt>
      <trkpt lat="42.38521" lon="2.6509">
        <ele>1062.9</ele>
        <time>2018-11-26T03:38:06Z</time>
      </trkpt>
      <trkpt lat="42.38521" lon="2.6509">
        <ele>1063.1</ele>
        <time>2018-11-26T03:38:07Z</time>
      </trkpt>
      <trkpt lat="42.38522" lon="2.65091">
        <ele>1063.1</ele>
        <time>2018-11-26T03:38:07Z</time>
      </trkpt>
      <trkpt lat="42.38522" lon="2.65092">
        <ele>1063.2</ele>
        <time>2018-11-26T03:38:07Z</time>
      </trkpt>
      <trkpt lat="42.38523" lon="2.65093">
        <ele>1063.1</ele>
        <time>2018-11-26T03:38:08Z</time>
      </trkpt>
      <trkpt lat="42.38523" lon="2.65093">
        <ele>1063.1</ele>
        <time>2018-11-26T03:38:08Z</time>
      </trkpt>
      <trkpt lat="42.38524" lon="2.65094">
        <ele>1062.9</ele>
        <time>2018-11-26T03:38:08Z</time>
      </trkpt>
      <trkpt lat="42.38525" lon="2.65095">
        <ele>1063.3</ele>
        <time>2018-11-26T03:38:09Z</time>
      </trkpt>
      <trkpt lat="42.38525" lon="2.65096">
        <ele>1063.5</ele>
        <time>2018-11-26T03:38:09Z</time>
      </trkpt>
      <trkpt lat="42.38525" lon="2.65097">
        <ele>1064</ele>
        <time>2018-11-26T03:38:09Z</time>
      </trkpt>
      <trkpt lat="42.38525" lon="2.65098">
        <ele>1064.1</ele>
        <time>2018-11-26T03:38:09Z</time>
      </trkpt>
      <trkpt lat="42.38526" lon="2.65098">
        <ele>1064.3</ele>
        <time>2018-11-26T03:38:10Z</time>
      </trkpt>
      <trkpt lat="42.38526" lon="2.65099">
        <ele>1064.4</ele>
        <time>2018-11-26T03:38:10Z</time>
      </trkpt>
      <trkpt lat="42.38526" lon="2.651">
        <ele>1064.5</ele>
        <time>2018-11-26T03:38:10Z</time>
      </trkpt>
      <trkpt lat="42.38526" lon="2.65101">
        <ele>1064.4</ele>
        <time>2018-11-26T03:38:10Z</time>
      </trkpt>
      <trkpt lat="42.38527" lon="2.65102">
        <ele>1064.4</ele>
        <time>2018-11-26T03:38:11Z</time>
      </trkpt>
      <trkpt lat="42.38527" lon="2.65103">
        <ele>1064.4</ele>
        <time>2018-11-26T03:38:11Z</time>
      </trkpt>
      <trkpt lat="42.38527" lon="2.65103">
        <ele>1064.7</ele>
        <time>2018-11-26T03:38:11Z</time>
      </trkpt>
      <trkpt lat="42.38527" lon="2.65103">
        <ele>1064.8</ele>
        <time>2018-11-26T03:38:11Z</time>
      </trkpt>
      <trkpt lat="42.38527" lon="2.65104">
        <ele>1064.8</ele>
        <time>2018-11-26T03:38:11Z</time>
      </trkpt>
      <trkpt lat="42.38527" lon="2.65104">
        <ele>1064.8</ele>
        <time>2018-11-26T03:38:12Z</time>
      </trkpt>
      <trkpt lat="42.38527" lon="2.65105">
        <ele>1065</ele>
        <time>2018-11-26T03:38:12Z</time>
      </trkpt>
      <trkpt lat="42.38528" lon="2.65106">
        <ele>1065.2</ele>
        <time>2018-11-26T03:38:12Z</time>
      </trkpt>
      <trkpt lat="42.38528" lon="2.65107">
        <ele>1065.4</ele>
        <time>2018-11-26T03:38:12Z</time>
      </trkpt>
      <trkpt lat="42.38528" lon="2.65107">
        <ele>1065.8</ele>
        <time>2018-11-26T03:38:13Z</time>
      </trkpt>
      <trkpt lat="42.38529" lon="2.65108">
        <ele>1066.3</ele>
        <time>2018-11-26T03:38:13Z</time>
      </trkpt>
      <trkpt lat="42.38529" lon="2.65109">
        <ele>1066.4</ele>
        <time>2018-11-26T03:38:13Z</time>
      </trkpt>
      <trkpt lat="42.3853" lon="2.6511">
        <ele>1066.5</ele>
        <time>2018-11-26T03:38:14Z</time>
      </trkpt>
      <trkpt lat="42.38531" lon="2.65111">
        <ele>1066.7</ele>
        <time>2018-11-26T03:38:14Z</time>
      </trkpt>
      <trkpt lat="42.38532" lon="2.65112">
        <ele>1066.6</ele>
        <time>2018-11-26T03:38:15Z</time>
      </trkpt>
      <trkpt lat="42.38533" lon="2.65114">
        <ele>1066.6</ele>
        <time>2018-11-26T03:38:15Z</time>
      </trkpt>
      <trkpt lat="42.38533" lon="2.65114">
        <ele>1066.7</ele>
        <time>2018-11-26T03:38:16Z</time>
      </trkpt>
      <trkpt lat="42.38534" lon="2.65115">
        <ele>1066.7</ele>
        <time>2018-11-26T03:38:16Z</time>
      </trkpt>
      <trkpt lat="42.38534" lon="2.65116">
        <ele>1066.9</ele>
        <time>2018-11-26T03:38:16Z</time>
      </trkpt>
      <trkpt lat="42.38534" lon="2.65116">
        <ele>1067</ele>
        <time>2018-11-26T03:38:16Z</time>
      </trkpt>
      <trkpt lat="42.38534" lon="2.65117">
        <ele>1067.4</ele>
        <time>2018-11-26T03:38:17Z</time>
      </trkpt>
      <trkpt lat="42.38534" lon="2.65118">
        <ele>1067.8</ele>
        <time>2018-11-26T03:38:17Z</time>
      </trkpt>
      <trkpt lat="42.38535" lon="2.65119">
        <ele>1067.8</ele>
        <time>2018-11-26T03:38:17Z</time>
      </trkpt>
      <trkpt lat="42.38534" lon="2.6512">
        <ele>1068</ele>
        <time>2018-11-26T03:38:17Z</time>
      </trkpt>
      <trkpt lat="42.38534" lon="2.65121">
        <ele>1068.3</ele>
        <time>2018-11-26T03:38:18Z</time>
      </trkpt>
      <trkpt lat="42.38534" lon="2.65122">
        <ele>1068.6</ele>
        <time>2018-11-26T03:38:18Z</time>
      </trkpt>
      <trkpt lat="42.38534" lon="2.65123">
        <ele>1068.8</ele>
        <time>2018-11-26T03:38:18Z</time>
      </trkpt>
      <trkpt lat="42.38535" lon="2.65124">
        <ele>1068.8</ele>
        <time>2018-11-26T03:38:18Z</time>
      </trkpt>
      <trkpt lat="42.38534" lon="2.65124">
        <ele>1069</ele>
        <time>2018-11-26T03:38:19Z</time>
      </trkpt>
      <trkpt lat="42.38534" lon="2.65125">
        <ele>1069.1</ele>
        <time>2018-11-26T03:38:19Z</time>
      </trkpt>
      <trkpt lat="42.38534" lon="2.65126">
        <ele>1069.1</ele>
        <time>2018-11-26T03:38:19Z</time>
      </trkpt>
      <trkpt lat="42.38534" lon="2.65126">
        <ele>1069.1</ele>
        <time>2018-11-26T03:38:19Z</time>
      </trkpt>
      <trkpt lat="42.38535" lon="2.65127">
        <ele>1069.4</ele>
        <time>2018-11-26T03:38:20Z</time>
      </trkpt>
      <trkpt lat="42.38535" lon="2.65128">
        <ele>1069.8</ele>
        <time>2018-11-26T03:38:20Z</time>
      </trkpt>
      <trkpt lat="42.38535" lon="2.65129">
        <ele>1070.4</ele>
        <time>2018-11-26T03:38:20Z</time>
      </trkpt>
      <trkpt lat="42.38535" lon="2.6513">
        <ele>1070.4</ele>
        <time>2018-11-26T03:38:21Z</time>
      </trkpt>
      <trkpt lat="42.38535" lon="2.65131">
        <ele>1070.4</ele>
        <time>2018-11-26T03:38:21Z</time>
      </trkpt>
      <trkpt lat="42.38535" lon="2.65132">
        <ele>1070.4</ele>
        <time>2018-11-26T03:38:21Z</time>
      </trkpt>
      <trkpt lat="42.38536" lon="2.65133">
        <ele>1070.4</ele>
        <time>2018-11-26T03:38:22Z</time>
      </trkpt>
      <trkpt lat="42.38536" lon="2.65134">
        <ele>1070.7</ele>
        <time>2018-11-26T03:38:22Z</time>
      </trkpt>
      <trkpt lat="42.38536" lon="2.65135">
        <ele>1070.9</ele>
        <time>2018-11-26T03:38:22Z</time>
      </trkpt>
      <trkpt lat="42.38536" lon="2.65136">
        <ele>1071</ele>
        <time>2018-11-26T03:38:22Z</time>
      </trkpt>
      <trkpt lat="42.38537" lon="2.65136">
        <ele>1071.2</ele>
        <time>2018-11-26T03:38:23Z</time>
      </trkpt>
      <trkpt lat="42.38537" lon="2.65137">
        <ele>1071.3</ele>
        <time>2018-11-26T03:38:23Z</time>
      </trkpt>
      <trkpt lat="42.38537" lon="2.65138">
        <ele>1071.5</ele>
        <time>2018-11-26T03:38:23Z</time>
      </trkpt>
      <trkpt lat="42.38537" lon="2.65139">
        <ele>1071.6</ele>
        <time>2018-11-26T03:38:23Z</time>
      </trkpt>
      <trkpt lat="42.38537" lon="2.6514">
        <ele>1071.8</ele>
        <time>2018-11-26T03:38:24Z</time>
      </trkpt>
      <trkpt lat="42.38537" lon="2.65141">
        <ele>1071.9</ele>
        <time>2018-11-26T03:38:24Z</time>
      </trkpt>
      <trkpt lat="42.38537" lon="2.65141">
        <ele>1072.1</ele>
        <time>2018-11-26T03:38:24Z</time>
      </trkpt>
      <trkpt lat="42.38537" lon="2.65142">
        <ele>1072.2</ele>
        <time>2018-11-26T03:38:25Z</time>
      </trkpt>
      <trkpt lat="42.38538" lon="2.65144">
        <ele>1072.5</ele>
        <time>2018-11-26T03:38:25Z</time>
      </trkpt>
      <trkpt lat="42.38538" lon="2.65145">
        <ele>1072.9</ele>
        <time>2018-11-26T03:38:25Z</time>
      </trkpt>
      <trkpt lat="42.38538" lon="2.65146">
        <ele>1073.2</ele>
        <time>2018-11-26T03:38:26Z</time>
      </trkpt>
      <trkpt lat="42.38539" lon="2.65149">
        <ele>1073.9</ele>
        <time>2018-11-26T03:38:27Z</time>
      </trkpt>
      <trkpt lat="42.38539" lon="2.6515">
        <ele>1073.9</ele>
        <time>2018-11-26T03:38:27Z</time>
      </trkpt>
      <trkpt lat="42.38539" lon="2.65151">
        <ele>1074</ele>
        <time>2018-11-26T03:38:27Z</time>
      </trkpt>
      <trkpt lat="42.38538" lon="2.65153">
        <ele>1074.2</ele>
        <time>2018-11-26T03:38:28Z</time>
      </trkpt>
      <trkpt lat="42.38539" lon="2.65154">
        <ele>1074.2</ele>
        <time>2018-11-26T03:38:28Z</time>
      </trkpt>
      <trkpt lat="42.38539" lon="2.65154">
        <ele>1074.3</ele>
        <time>2018-11-26T03:38:28Z</time>
      </trkpt>
      <trkpt lat="42.38539" lon="2.65155">
        <ele>1074.3</ele>
        <time>2018-11-26T03:38:29Z</time>
      </trkpt>
      <trkpt lat="42.38539" lon="2.65155">
        <ele>1074.4</ele>
        <time>2018-11-26T03:38:29Z</time>
      </trkpt>
      <trkpt lat="42.3854" lon="2.65156">
        <ele>1074.3</ele>
        <time>2018-11-26T03:38:29Z</time>
      </trkpt>
      <trkpt lat="42.3854" lon="2.65156">
        <ele>1074.4</ele>
        <time>2018-11-26T03:38:29Z</time>
      </trkpt>
      <trkpt lat="42.3854" lon="2.65157">
        <ele>1074.3</ele>
        <time>2018-11-26T03:38:29Z</time>
      </trkpt>
      <trkpt lat="42.3854" lon="2.65157">
        <ele>1074.4</ele>
        <time>2018-11-26T03:38:29Z</time>
      </trkpt>
      <trkpt lat="42.3854" lon="2.65157">
        <ele>1074.4</ele>
        <time>2018-11-26T03:38:29Z</time>
      </trkpt>
      <trkpt lat="42.3854" lon="2.65157">
        <ele>1074.6</ele>
        <time>2018-11-26T03:38:29Z</time>
      </trkpt>
      <trkpt lat="42.3854" lon="2.65157">
        <ele>1074.6</ele>
        <time>2018-11-26T03:38:29Z</time>
      </trkpt>
      <trkpt lat="42.3854" lon="2.65157">
        <ele>1074.5</ele>
        <time>2018-11-26T03:38:29Z</time>
      </trkpt>
      <trkpt lat="42.38541" lon="2.65157">
        <ele>1074.5</ele>
        <time>2018-11-26T03:38:30Z</time>
      </trkpt>
      <trkpt lat="42.38541" lon="2.65157">
        <ele>1074.4</ele>
        <time>2018-11-26T03:38:30Z</time>
      </trkpt>
      <trkpt lat="42.38541" lon="2.65157">
        <ele>1074.4</ele>
        <time>2018-11-26T03:38:30Z</time>
      </trkpt>
      <trkpt lat="42.38541" lon="2.65157">
        <ele>1074.4</ele>
        <time>2018-11-26T03:38:30Z</time>
      </trkpt>
      <trkpt lat="42.38541" lon="2.65157">
        <ele>1074.4</ele>
        <time>2018-11-26T03:38:30Z</time>
      </trkpt>
      <trkpt lat="42.38541" lon="2.65157">
        <ele>1074.5</ele>
        <time>2018-11-26T03:38:30Z</time>
      </trkpt>
      <trkpt lat="42.38541" lon="2.65157">
        <ele>1074.6</ele>
        <time>2018-11-26T03:38:30Z</time>
      </trkpt>
      <trkpt lat="42.38541" lon="2.65157">
        <ele>1074.5</ele>
        <time>2018-11-26T03:38:30Z</time>
      </trkpt>
      <trkpt lat="42.38541" lon="2.65157">
        <ele>1074.6</ele>
        <time>2018-11-26T03:38:30Z</time>
      </trkpt>
      <trkpt lat="42.38541" lon="2.65157">
        <ele>1074.5</ele>
        <time>2018-11-26T03:38:30Z</time>
      </trkpt>
      <trkpt lat="42.38541" lon="2.65157">
        <ele>1074.4</ele>
        <time>2018-11-26T03:38:30Z</time>
      </trkpt>
      <trkpt lat="42.38541" lon="2.65157">
        <ele>1074.4</ele>
        <time>2018-11-26T03:38:30Z</time>
      </trkpt>
      <trkpt lat="42.38541" lon="2.65157">
        <ele>1074.3</ele>
        <time>2018-11-26T03:38:30Z</time>
      </trkpt>
      <trkpt lat="42.38541" lon="2.65157">
        <ele>1074.5</ele>
        <time>2018-11-26T03:38:30Z</time>
      </trkpt>
      <trkpt lat="42.38541" lon="2.65157">
        <ele>1074.7</ele>
        <time>2018-11-26T03:38:30Z</time>
      </trkpt>
      <trkpt lat="42.38541" lon="2.65157">
        <ele>1075.1</ele>
        <time>2018-11-26T03:38:30Z</time>
      </trkpt>
      <trkpt lat="42.38541" lon="2.65157">
        <ele>1075</ele>
        <time>2018-11-26T03:38:30Z</time>
      </trkpt>
      <trkpt lat="42.38541" lon="2.65157">
        <ele>1075</ele>
        <time>2018-11-26T03:38:30Z</time>
      </trkpt>
      <trkpt lat="42.38541" lon="2.65157">
        <ele>1074.9</ele>
        <time>2018-11-26T03:38:30Z</time>
      </trkpt>
      <trkpt lat="42.38541" lon="2.65157">
        <ele>1074.9</ele>
        <time>2018-11-26T03:38:30Z</time>
      </trkpt>
      <trkpt lat="42.38541" lon="2.65157">
        <ele>1074.8</ele>
        <time>2018-11-26T03:38:30Z</time>
      </trkpt>
      <trkpt lat="42.38541" lon="2.65157">
        <ele>1074.7</ele>
        <time>2018-11-26T03:38:30Z</time>
      </trkpt>
      <trkpt lat="42.38541" lon="2.65157">
        <ele>1074.5</ele>
        <time>2018-11-26T03:38:30Z</time>
      </trkpt>
      <trkpt lat="42.38541" lon="2.65157">
        <ele>1074.5</ele>
        <time>2018-11-26T03:38:30Z</time>
      </trkpt>
      <trkpt lat="42.38541" lon="2.65157">
        <ele>1074.4</ele>
        <time>2018-11-26T03:38:30Z</time>
      </trkpt>
      <trkpt lat="42.38541" lon="2.65157">
        <ele>1074.4</ele>
        <time>2018-11-26T03:38:30Z</time>
      </trkpt>
      <trkpt lat="42.38541" lon="2.65157">
        <ele>1074.4</ele>
        <time>2018-11-26T03:38:30Z</time>
      </trkpt>
      <trkpt lat="42.38541" lon="2.65157">
        <ele>1074.4</ele>
        <time>2018-11-26T03:38:30Z</time>
      </trkpt>
      <trkpt lat="42.38541" lon="2.65157">
        <ele>1074.4</ele>
        <time>2018-11-26T03:38:30Z</time>
      </trkpt>
      <trkpt lat="42.38541" lon="2.65157">
        <ele>1074.5</ele>
        <time>2018-11-26T03:38:31Z</time>
      </trkpt>
      <trkpt lat="42.38541" lon="2.65157">
        <ele>1074.5</ele>
        <time>2018-11-26T03:38:31Z</time>
      </trkpt>
      <trkpt lat="42.38541" lon="2.65157">
        <ele>1074.6</ele>
        <time>2018-11-26T03:38:31Z</time>
      </trkpt>
      <trkpt lat="42.3854" lon="2.65157">
        <ele>1074.6</ele>
        <time>2018-11-26T03:38:31Z</time>
      </trkpt>
      <trkpt lat="42.3854" lon="2.65157">
        <ele>1074.4</ele>
        <time>2018-11-26T03:38:31Z</time>
      </trkpt>
      <trkpt lat="42.3854" lon="2.65157">
        <ele>1074.5</ele>
        <time>2018-11-26T03:38:31Z</time>
      </trkpt>
      <trkpt lat="42.3854" lon="2.65157">
        <ele>1074.4</ele>
        <time>2018-11-26T03:38:31Z</time>
      </trkpt>
      <trkpt lat="42.3854" lon="2.65157">
        <ele>1074.5</ele>
        <time>2018-11-26T03:38:31Z</time>
      </trkpt>
      <trkpt lat="42.3854" lon="2.65157">
        <ele>1074.8</ele>
        <time>2018-11-26T03:38:31Z</time>
      </trkpt>
      <trkpt lat="42.3854" lon="2.65157">
        <ele>1074.8</ele>
        <time>2018-11-26T03:38:31Z</time>
      </trkpt>
      <trkpt lat="42.3854" lon="2.65157">
        <ele>1074.8</ele>
        <time>2018-11-26T03:38:31Z</time>
      </trkpt>
      <trkpt lat="42.3854" lon="2.65157">
        <ele>1074.9</ele>
        <time>2018-11-26T03:38:31Z</time>
      </trkpt>
      <trkpt lat="42.3854" lon="2.65157">
        <ele>1074.8</ele>
        <time>2018-11-26T03:38:31Z</time>
      </trkpt>
      <trkpt lat="42.3854" lon="2.65157">
        <ele>1074.8</ele>
        <time>2018-11-26T03:38:31Z</time>
      </trkpt>
      <trkpt lat="42.3854" lon="2.65157">
        <ele>1074.7</ele>
        <time>2018-11-26T03:38:31Z</time>
      </trkpt>
      <trkpt lat="42.3854" lon="2.65158">
        <ele>1074.8</ele>
        <time>2018-11-26T03:38:31Z</time>
      </trkpt>
      <trkpt lat="42.3854" lon="2.65158">
        <ele>1074.7</ele>
        <time>2018-11-26T03:38:31Z</time>
      </trkpt>
      <trkpt lat="42.3854" lon="2.65158">
        <ele>1074.7</ele>
        <time>2018-11-26T03:38:31Z</time>
      </trkpt>
      <trkpt lat="42.3854" lon="2.65158">
        <ele>1074.7</ele>
        <time>2018-11-26T03:38:31Z</time>
      </trkpt>
      <trkpt lat="42.3854" lon="2.65158">
        <ele>1074.5</ele>
        <time>2018-11-26T03:38:31Z</time>
      </trkpt>
      <trkpt lat="42.3854" lon="2.65158">
        <ele>1074.3</ele>
        <time>2018-11-26T03:38:31Z</time>
      </trkpt>
      <trkpt lat="42.3854" lon="2.65158">
        <ele>1074</ele>
        <time>2018-11-26T03:38:31Z</time>
      </trkpt>
      <trkpt lat="42.3854" lon="2.65158">
        <ele>1074</ele>
        <time>2018-11-26T03:38:31Z</time>
      </trkpt>
      <trkpt lat="42.3854" lon="2.65157">
        <ele>1074.3</ele>
        <time>2018-11-26T03:38:31Z</time>
      </trkpt>
      <trkpt lat="42.3854" lon="2.65157">
        <ele>1074.5</ele>
        <time>2018-11-26T03:38:31Z</time>
      </trkpt>
      <trkpt lat="42.3854" lon="2.65157">
        <ele>1074.8</ele>
        <time>2018-11-26T03:38:31Z</time>
      </trkpt>
      <trkpt lat="42.3854" lon="2.65157">
        <ele>1074.6</ele>
        <time>2018-11-26T03:38:31Z</time>
      </trkpt>
      <trkpt lat="42.3854" lon="2.65157">
        <ele>1074.5</ele>
        <time>2018-11-26T03:38:31Z</time>
      </trkpt>
      <trkpt lat="42.3854" lon="2.65157">
        <ele>1074.4</ele>
        <time>2018-11-26T03:38:31Z</time>
      </trkpt>
      <trkpt lat="42.38539" lon="2.65157">
        <ele>1074.6</ele>
        <time>2018-11-26T03:38:31Z</time>
      </trkpt>
      <trkpt lat="42.38539" lon="2.65157">
        <ele>1074.7</ele>
        <time>2018-11-26T03:38:31Z</time>
      </trkpt>
      <trkpt lat="42.38539" lon="2.65157">
        <ele>1075</ele>
        <time>2018-11-26T03:38:31Z</time>
      </trkpt>
      <trkpt lat="42.38539" lon="2.65157">
        <ele>1075.1</ele>
        <time>2018-11-26T03:38:31Z</time>
      </trkpt>
      <trkpt lat="42.38539" lon="2.65157">
        <ele>1075.1</ele>
        <time>2018-11-26T03:38:31Z</time>
      </trkpt>
      <trkpt lat="42.38539" lon="2.65157">
        <ele>1075.1</ele>
        <time>2018-11-26T03:38:31Z</time>
      </trkpt>
      <trkpt lat="42.38539" lon="2.65157">
        <ele>1075.2</ele>
        <time>2018-11-26T03:38:32Z</time>
      </trkpt>
      <trkpt lat="42.38539" lon="2.65157">
        <ele>1075.2</ele>
        <time>2018-11-26T03:38:32Z</time>
      </trkpt>
      <trkpt lat="42.38539" lon="2.65157">
        <ele>1075.2</ele>
        <time>2018-11-26T03:38:32Z</time>
      </trkpt>
      <trkpt lat="42.38539" lon="2.65157">
        <ele>1075.2</ele>
        <time>2018-11-26T03:38:32Z</time>
      </trkpt>
      <trkpt lat="42.38539" lon="2.65157">
        <ele>1075.2</ele>
        <time>2018-11-26T03:38:32Z</time>
      </trkpt>
      <trkpt lat="42.38539" lon="2.65157">
        <ele>1075.1</ele>
        <time>2018-11-26T03:38:32Z</time>
      </trkpt>
      <trkpt lat="42.38539" lon="2.65158">
        <ele>1075</ele>
        <time>2018-11-26T03:38:32Z</time>
      </trkpt>
      <trkpt lat="42.38539" lon="2.65158">
        <ele>1075</ele>
        <time>2018-11-26T03:38:32Z</time>
      </trkpt>
      <trkpt lat="42.38538" lon="2.65158">
        <ele>1074.9</ele>
        <time>2018-11-26T03:38:32Z</time>
      </trkpt>
      <trkpt lat="42.38538" lon="2.65158">
        <ele>1074.8</ele>
        <time>2018-11-26T03:38:32Z</time>
      </trkpt>
      <trkpt lat="42.38538" lon="2.65158">
        <ele>1074.8</ele>
        <time>2018-11-26T03:38:32Z</time>
      </trkpt>
      <trkpt lat="42.38538" lon="2.65157">
        <ele>1074.6</ele>
        <time>2018-11-26T03:38:32Z</time>
      </trkpt>
      <trkpt lat="42.38538" lon="2.65157">
        <ele>1074.6</ele>
        <time>2018-11-26T03:38:32Z</time>
      </trkpt>
      <trkpt lat="42.38538" lon="2.65157">
        <ele>1074.6</ele>
        <time>2018-11-26T03:38:32Z</time>
      </trkpt>
      <trkpt lat="42.38538" lon="2.65157">
        <ele>1074.5</ele>
        <time>2018-11-26T03:38:32Z</time>
      </trkpt>
      <trkpt lat="42.38538" lon="2.65157">
        <ele>1074.6</ele>
        <time>2018-11-26T03:38:32Z</time>
      </trkpt>
      <trkpt lat="42.38538" lon="2.65157">
        <ele>1074.5</ele>
        <time>2018-11-26T03:38:32Z</time>
      </trkpt>
      <trkpt lat="42.38538" lon="2.65157">
        <ele>1074.4</ele>
        <time>2018-11-26T03:38:32Z</time>
      </trkpt>
      <trkpt lat="42.38538" lon="2.65157">
        <ele>1074.3</ele>
        <time>2018-11-26T03:38:32Z</time>
      </trkpt>
      <trkpt lat="42.38538" lon="2.65157">
        <ele>1074.4</ele>
        <time>2018-11-26T03:38:32Z</time>
      </trkpt>
      <trkpt lat="42.38538" lon="2.65157">
        <ele>1074.4</ele>
        <time>2018-11-26T03:38:33Z</time>
      </trkpt>
      <trkpt lat="42.38539" lon="2.65157">
        <ele>1074.5</ele>
        <time>2018-11-26T03:38:33Z</time>
      </trkpt>
      <trkpt lat="42.38539" lon="2.65157">
        <ele>1074.6</ele>
        <time>2018-11-26T03:38:33Z</time>
      </trkpt>
      <trkpt lat="42.38539" lon="2.65156">
        <ele>1074.7</ele>
        <time>2018-11-26T03:38:33Z</time>
      </trkpt>
      <trkpt lat="42.38539" lon="2.65156">
        <ele>1074.7</ele>
        <time>2018-11-26T03:38:33Z</time>
      </trkpt>
      <trkpt lat="42.3854" lon="2.65156">
        <ele>1074.8</ele>
        <time>2018-11-26T03:38:33Z</time>
      </trkpt>
      <trkpt lat="42.38541" lon="2.65156">
        <ele>1075.1</ele>
        <time>2018-11-26T03:38:34Z</time>
      </trkpt>
      <trkpt lat="42.38541" lon="2.65155">
        <ele>1075.5</ele>
        <time>2018-11-26T03:38:34Z</time>
      </trkpt>
      <trkpt lat="42.38542" lon="2.65155">
        <ele>1075.9</ele>
        <time>2018-11-26T03:38:34Z</time>
      </trkpt>
      <trkpt lat="42.38542" lon="2.65155">
        <ele>1075.6</ele>
        <time>2018-11-26T03:38:34Z</time>
      </trkpt>
      <trkpt lat="42.38542" lon="2.65155">
        <ele>1075.1</ele>
        <time>2018-11-26T03:38:34Z</time>
      </trkpt>
      <trkpt lat="42.38542" lon="2.65155">
        <ele>1074.5</ele>
        <time>2018-11-26T03:38:34Z</time>
      </trkpt>
      <trkpt lat="42.38542" lon="2.65155">
        <ele>1074.4</ele>
        <time>2018-11-26T03:38:34Z</time>
      </trkpt>
      <trkpt lat="42.38542" lon="2.65155">
        <ele>1074.3</ele>
        <time>2018-11-26T03:38:34Z</time>
      </trkpt>
      <trkpt lat="42.38542" lon="2.65155">
        <ele>1074.3</ele>
        <time>2018-11-26T03:38:34Z</time>
      </trkpt>
      <trkpt lat="42.38542" lon="2.65155">
        <ele>1074.3</ele>
        <time>2018-11-26T03:38:34Z</time>
      </trkpt>
      <trkpt lat="42.38542" lon="2.65155">
        <ele>1074.6</ele>
        <time>2018-11-26T03:38:34Z</time>
      </trkpt>
      <trkpt lat="42.38542" lon="2.65155">
        <ele>1074.9</ele>
        <time>2018-11-26T03:38:34Z</time>
      </trkpt>
      <trkpt lat="42.38542" lon="2.65154">
        <ele>1074.8</ele>
        <time>2018-11-26T03:38:34Z</time>
      </trkpt>
      <trkpt lat="42.38542" lon="2.65154">
        <ele>1074.6</ele>
        <time>2018-11-26T03:38:34Z</time>
      </trkpt>
      <trkpt lat="42.38542" lon="2.65154">
        <ele>1074.5</ele>
        <time>2018-11-26T03:38:34Z</time>
      </trkpt>
      <trkpt lat="42.38542" lon="2.65154">
        <ele>1074.2</ele>
        <time>2018-11-26T03:38:35Z</time>
      </trkpt>
      <trkpt lat="42.38542" lon="2.65154">
        <ele>1074.2</ele>
        <time>2018-11-26T03:38:35Z</time>
      </trkpt>
      <trkpt lat="42.38542" lon="2.65154">
        <ele>1074.5</ele>
        <time>2018-11-26T03:38:35Z</time>
      </trkpt>
      <trkpt lat="42.38542" lon="2.65154">
        <ele>1074.6</ele>
        <time>2018-11-26T03:38:35Z</time>
      </trkpt>
      <trkpt lat="42.38542" lon="2.65154">
        <ele>1074.5</ele>
        <time>2018-11-26T03:38:35Z</time>
      </trkpt>
      <trkpt lat="42.38542" lon="2.65154">
        <ele>1074.1</ele>
        <time>2018-11-26T03:38:35Z</time>
      </trkpt>
      <trkpt lat="42.38542" lon="2.65154">
        <ele>1073.8</ele>
        <time>2018-11-26T03:38:35Z</time>
      </trkpt>
      <trkpt lat="42.38542" lon="2.65154">
        <ele>1073.9</ele>
        <time>2018-11-26T03:38:35Z</time>
      </trkpt>
      <trkpt lat="42.38542" lon="2.65154">
        <ele>1074.1</ele>
        <time>2018-11-26T03:38:35Z</time>
      </trkpt>
      <trkpt lat="42.38542" lon="2.65154">
        <ele>1074.2</ele>
        <time>2018-11-26T03:38:35Z</time>
      </trkpt>
      <trkpt lat="42.38542" lon="2.65154">
        <ele>1074.2</ele>
        <time>2018-11-26T03:38:35Z</time>
      </trkpt>
      <trkpt lat="42.38542" lon="2.65153">
        <ele>1074.3</ele>
        <time>2018-11-26T03:38:35Z</time>
      </trkpt>
      <trkpt lat="42.38542" lon="2.65153">
        <ele>1074.5</ele>
        <time>2018-11-26T03:38:35Z</time>
      </trkpt>
      <trkpt lat="42.38542" lon="2.65153">
        <ele>1074.6</ele>
        <time>2018-11-26T03:38:35Z</time>
      </trkpt>
      <trkpt lat="42.38542" lon="2.65153">
        <ele>1074.5</ele>
        <time>2018-11-26T03:38:35Z</time>
      </trkpt>
      <trkpt lat="42.38542" lon="2.65153">
        <ele>1074.6</ele>
        <time>2018-11-26T03:38:35Z</time>
      </trkpt>
      <trkpt lat="42.38542" lon="2.65153">
        <ele>1074.8</ele>
        <time>2018-11-26T03:38:35Z</time>
      </trkpt>
      <trkpt lat="42.38541" lon="2.65153">
        <ele>1074.9</ele>
        <time>2018-11-26T03:38:35Z</time>
      </trkpt>
      <trkpt lat="42.38541" lon="2.65153">
        <ele>1074.9</ele>
        <time>2018-11-26T03:38:35Z</time>
      </trkpt>
      <trkpt lat="42.38541" lon="2.65153">
        <ele>1075.1</ele>
        <time>2018-11-26T03:38:35Z</time>
      </trkpt>
      <trkpt lat="42.38541" lon="2.65153">
        <ele>1075.1</ele>
        <time>2018-11-26T03:38:35Z</time>
      </trkpt>
      <trkpt lat="42.38541" lon="2.65153">
        <ele>1075.2</ele>
        <time>2018-11-26T03:38:35Z</time>
      </trkpt>
      <trkpt lat="42.38541" lon="2.65153">
        <ele>1075.3</ele>
        <time>2018-11-26T03:38:35Z</time>
      </trkpt>
      <trkpt lat="42.38541" lon="2.65152">
        <ele>1075.1</ele>
        <time>2018-11-26T03:38:35Z</time>
      </trkpt>
      <trkpt lat="42.38541" lon="2.65152">
        <ele>1074.9</ele>
        <time>2018-11-26T03:38:35Z</time>
      </trkpt>
      <trkpt lat="42.38541" lon="2.65152">
        <ele>1074.4</ele>
        <time>2018-11-26T03:38:35Z</time>
      </trkpt>
      <trkpt lat="42.38541" lon="2.65152">
        <ele>1074.5</ele>
        <time>2018-11-26T03:38:35Z</time>
      </trkpt>
      <trkpt lat="42.38541" lon="2.65152">
        <ele>1074.4</ele>
        <time>2018-11-26T03:38:36Z</time>
      </trkpt>
      <trkpt lat="42.3854" lon="2.65153">
        <ele>1074.2</ele>
        <time>2018-11-26T03:38:36Z</time>
      </trkpt>
      <trkpt lat="42.3854" lon="2.65153">
        <ele>1074.2</ele>
        <time>2018-11-26T03:38:36Z</time>
      </trkpt>
      <trkpt lat="42.38539" lon="2.65154">
        <ele>1074.3</ele>
        <time>2018-11-26T03:38:36Z</time>
      </trkpt>
      <trkpt lat="42.38538" lon="2.65154">
        <ele>1074.3</ele>
        <time>2018-11-26T03:38:37Z</time>
      </trkpt>
      <trkpt lat="42.38538" lon="2.65155">
        <ele>1074.5</ele>
        <time>2018-11-26T03:38:37Z</time>
      </trkpt>
      <trkpt lat="42.38539" lon="2.65155">
        <ele>1074.4</ele>
        <time>2018-11-26T03:38:37Z</time>
      </trkpt>
      <trkpt lat="42.38539" lon="2.65155">
        <ele>1074.4</ele>
        <time>2018-11-26T03:38:37Z</time>
      </trkpt>
      <trkpt lat="42.38538" lon="2.65155">
        <ele>1074.5</ele>
        <time>2018-11-26T03:38:37Z</time>
      </trkpt>
      <trkpt lat="42.38538" lon="2.65155">
        <ele>1074.3</ele>
        <time>2018-11-26T03:38:37Z</time>
      </trkpt>
      <trkpt lat="42.38538" lon="2.65155">
        <ele>1074.3</ele>
        <time>2018-11-26T03:38:37Z</time>
      </trkpt>
      <trkpt lat="42.38538" lon="2.65155">
        <ele>1074.1</ele>
        <time>2018-11-26T03:38:37Z</time>
      </trkpt>
      <trkpt lat="42.38538" lon="2.65155">
        <ele>1074.4</ele>
        <time>2018-11-26T03:38:37Z</time>
      </trkpt>
      <trkpt lat="42.38538" lon="2.65155">
        <ele>1074.7</ele>
        <time>2018-11-26T03:38:37Z</time>
      </trkpt>
      <trkpt lat="42.38538" lon="2.65155">
        <ele>1075.3</ele>
        <time>2018-11-26T03:38:37Z</time>
      </trkpt>
      <trkpt lat="42.38538" lon="2.65155">
        <ele>1075.1</ele>
        <time>2018-11-26T03:38:37Z</time>
      </trkpt>
      <trkpt lat="42.38538" lon="2.65155">
        <ele>1074.8</ele>
        <time>2018-11-26T03:38:37Z</time>
      </trkpt>
      <trkpt lat="42.38538" lon="2.65155">
        <ele>1074.5</ele>
        <time>2018-11-26T03:38:37Z</time>
      </trkpt>
      <trkpt lat="42.38538" lon="2.65155">
        <ele>1074.4</ele>
        <time>2018-11-26T03:38:37Z</time>
      </trkpt>
      <trkpt lat="42.38538" lon="2.65155">
        <ele>1074.3</ele>
        <time>2018-11-26T03:38:37Z</time>
      </trkpt>
      <trkpt lat="42.38539" lon="2.65155">
        <ele>1074.1</ele>
        <time>2018-11-26T03:38:37Z</time>
      </trkpt>
      <trkpt lat="42.38538" lon="2.65155">
        <ele>1073.9</ele>
        <time>2018-11-26T03:38:38Z</time>
      </trkpt>
      <trkpt lat="42.38538" lon="2.65155">
        <ele>1074</ele>
        <time>2018-11-26T03:38:38Z</time>
      </trkpt>
      <trkpt lat="42.38538" lon="2.65155">
        <ele>1074.1</ele>
        <time>2018-11-26T03:38:38Z</time>
      </trkpt>
      <trkpt lat="42.38538" lon="2.65155">
        <ele>1074.3</ele>
        <time>2018-11-26T03:38:38Z</time>
      </trkpt>
      <trkpt lat="42.38538" lon="2.65155">
        <ele>1074.5</ele>
        <time>2018-11-26T03:38:38Z</time>
      </trkpt>
      <trkpt lat="42.38538" lon="2.65155">
        <ele>1074.7</ele>
        <time>2018-11-26T03:38:38Z</time>
      </trkpt>
      <trkpt lat="42.38538" lon="2.65155">
        <ele>1075</ele>
        <time>2018-11-26T03:38:38Z</time>
      </trkpt>
      <trkpt lat="42.38538" lon="2.65156">
        <ele>1075.2</ele>
        <time>2018-11-26T03:38:38Z</time>
      </trkpt>
      <trkpt lat="42.38539" lon="2.65156">
        <ele>1075.5</ele>
        <time>2018-11-26T03:38:38Z</time>
      </trkpt>
      <trkpt lat="42.38539" lon="2.65156">
        <ele>1075.9</ele>
        <time>2018-11-26T03:38:38Z</time>
      </trkpt>
      <trkpt lat="42.38539" lon="2.65156">
        <ele>1075.8</ele>
        <time>2018-11-26T03:38:38Z</time>
      </trkpt>
      <trkpt lat="42.38539" lon="2.65156">
        <ele>1075.7</ele>
        <time>2018-11-26T03:38:38Z</time>
      </trkpt>
      <trkpt lat="42.38539" lon="2.65156">
        <ele>1075.4</ele>
        <time>2018-11-26T03:38:38Z</time>
      </trkpt>
      <trkpt lat="42.38539" lon="2.65156">
        <ele>1075.3</ele>
        <time>2018-11-26T03:38:38Z</time>
      </trkpt>
      <trkpt lat="42.38539" lon="2.65157">
        <ele>1075.2</ele>
        <time>2018-11-26T03:38:38Z</time>
      </trkpt>
      <trkpt lat="42.38539" lon="2.65157">
        <ele>1075</ele>
        <time>2018-11-26T03:38:39Z</time>
      </trkpt>
      <trkpt lat="42.3854" lon="2.65157">
        <ele>1074.6</ele>
        <time>2018-11-26T03:38:39Z</time>
      </trkpt>
      <trkpt lat="42.3854" lon="2.65157">
        <ele>1074.6</ele>
        <time>2018-11-26T03:38:39Z</time>
      </trkpt>
      <trkpt lat="42.3854" lon="2.65157">
        <ele>1074.6</ele>
        <time>2018-11-26T03:38:39Z</time>
      </trkpt>
      <trkpt lat="42.3854" lon="2.65157">
        <ele>1074.5</ele>
        <time>2018-11-26T03:38:39Z</time>
      </trkpt>
      <trkpt lat="42.3854" lon="2.65157">
        <ele>1074.4</ele>
        <time>2018-11-26T03:38:39Z</time>
      </trkpt>
      <trkpt lat="42.3854" lon="2.65158">
        <ele>1074.5</ele>
        <time>2018-11-26T03:38:39Z</time>
      </trkpt>
      <trkpt lat="42.3854" lon="2.65157">
        <ele>1074.4</ele>
        <time>2018-11-26T03:38:39Z</time>
      </trkpt>
      <trkpt lat="42.3854" lon="2.65157">
        <ele>1074.4</ele>
        <time>2018-11-26T03:38:39Z</time>
      </trkpt>
      <trkpt lat="42.3854" lon="2.65157">
        <ele>1074.6</ele>
        <time>2018-11-26T03:38:39Z</time>
      </trkpt>
      <trkpt lat="42.3854" lon="2.65157">
        <ele>1074.6</ele>
        <time>2018-11-26T03:38:39Z</time>
      </trkpt>
      <trkpt lat="42.3854" lon="2.65157">
        <ele>1074.6</ele>
        <time>2018-11-26T03:38:39Z</time>
      </trkpt>
      <trkpt lat="42.3854" lon="2.65157">
        <ele>1074.5</ele>
        <time>2018-11-26T03:38:39Z</time>
      </trkpt>
      <trkpt lat="42.3854" lon="2.65157">
        <ele>1074.6</ele>
        <time>2018-11-26T03:38:39Z</time>
      </trkpt>
      <trkpt lat="42.3854" lon="2.65157">
        <ele>1074.6</ele>
        <time>2018-11-26T03:38:39Z</time>
      </trkpt>
      <trkpt lat="42.3854" lon="2.65157">
        <ele>1074.6</ele>
        <time>2018-11-26T03:38:39Z</time>
      </trkpt>
      <trkpt lat="42.3854" lon="2.65157">
        <ele>1074.7</ele>
        <time>2018-11-26T03:38:39Z</time>
      </trkpt>
      <trkpt lat="42.3854" lon="2.65157">
        <ele>1074.6</ele>
        <time>2018-11-26T03:38:39Z</time>
      </trkpt>
      <trkpt lat="42.3854" lon="2.65157">
        <ele>1074.7</ele>
        <time>2018-11-26T03:38:39Z</time>
      </trkpt>
      <trkpt lat="42.3854" lon="2.65157">
        <ele>1074.8</ele>
        <time>2018-11-26T03:38:39Z</time>
      </trkpt>
      <trkpt lat="42.3854" lon="2.65157">
        <ele>1075</ele>
        <time>2018-11-26T03:38:39Z</time>
      </trkpt>
      <trkpt lat="42.3854" lon="2.65157">
        <ele>1074.6</ele>
        <time>2018-11-26T03:38:39Z</time>
      </trkpt>
      <trkpt lat="42.3854" lon="2.65157">
        <ele>1074.3</ele>
        <time>2018-11-26T03:38:39Z</time>
      </trkpt>
      <trkpt lat="42.3854" lon="2.65157">
        <ele>1073.9</ele>
        <time>2018-11-26T03:38:39Z</time>
      </trkpt>
      <trkpt lat="42.3854" lon="2.65157">
        <ele>1073.8</ele>
        <time>2018-11-26T03:38:40Z</time>
      </trkpt>
      <trkpt lat="42.3854" lon="2.65157">
        <ele>1073.7</ele>
        <time>2018-11-26T03:38:40Z</time>
      </trkpt>
      <trkpt lat="42.3854" lon="2.65157">
        <ele>1073.7</ele>
        <time>2018-11-26T03:38:40Z</time>
      </trkpt>
      <trkpt lat="42.3854" lon="2.65157">
        <ele>1073.8</ele>
        <time>2018-11-26T03:38:40Z</time>
      </trkpt>
      <trkpt lat="42.3854" lon="2.65157">
        <ele>1074</ele>
        <time>2018-11-26T03:38:40Z</time>
      </trkpt>
      <trkpt lat="42.3854" lon="2.65157">
        <ele>1074.4</ele>
        <time>2018-11-26T03:38:40Z</time>
      </trkpt>
      <trkpt lat="42.3854" lon="2.65157">
        <ele>1074.2</ele>
        <time>2018-11-26T03:38:40Z</time>
      </trkpt>
      <trkpt lat="42.3854" lon="2.65156">
        <ele>1074.3</ele>
        <time>2018-11-26T03:38:40Z</time>
      </trkpt>
      <trkpt lat="42.3854" lon="2.65156">
        <ele>1074.2</ele>
        <time>2018-11-26T03:38:40Z</time>
      </trkpt>
      <trkpt lat="42.3854" lon="2.65156">
        <ele>1074.1</ele>
        <time>2018-11-26T03:38:40Z</time>
      </trkpt>
      <trkpt lat="42.3854" lon="2.65156">
        <ele>1074.1</ele>
        <time>2018-11-26T03:38:40Z</time>
      </trkpt>
      <trkpt lat="42.3854" lon="2.65156">
        <ele>1074.1</ele>
        <time>2018-11-26T03:38:40Z</time>
      </trkpt>
      <trkpt lat="42.3854" lon="2.65156">
        <ele>1074</ele>
        <time>2018-11-26T03:38:40Z</time>
      </trkpt>
      <trkpt lat="42.3854" lon="2.65156">
        <ele>1074.1</ele>
        <time>2018-11-26T03:38:40Z</time>
      </trkpt>
      <trkpt lat="42.3854" lon="2.65156">
        <ele>1074.4</ele>
        <time>2018-11-26T03:38:40Z</time>
      </trkpt>
      <trkpt lat="42.3854" lon="2.65156">
        <ele>1074.8</ele>
        <time>2018-11-26T03:38:40Z</time>
      </trkpt>
      <trkpt lat="42.3854" lon="2.65156">
        <ele>1074.7</ele>
        <time>2018-11-26T03:38:40Z</time>
      </trkpt>
      <trkpt lat="42.3854" lon="2.65157">
        <ele>1074.8</ele>
        <time>2018-11-26T03:38:40Z</time>
      </trkpt>
      <trkpt lat="42.3854" lon="2.65157">
        <ele>1074.8</ele>
        <time>2018-11-26T03:38:40Z</time>
      </trkpt>
      <trkpt lat="42.3854" lon="2.65157">
        <ele>1074.7</ele>
        <time>2018-11-26T03:38:40Z</time>
      </trkpt>
      <trkpt lat="42.3854" lon="2.65157">
        <ele>1074.7</ele>
        <time>2018-11-26T03:38:40Z</time>
      </trkpt>
      <trkpt lat="42.3854" lon="2.65157">
        <ele>1074.8</ele>
        <time>2018-11-26T03:38:40Z</time>
      </trkpt>
      <trkpt lat="42.3854" lon="2.65157">
        <ele>1074.8</ele>
        <time>2018-11-26T03:38:40Z</time>
      </trkpt>
      <trkpt lat="42.3854" lon="2.65157">
        <ele>1074.8</ele>
        <time>2018-11-26T03:38:40Z</time>
      </trkpt>
      <trkpt lat="42.3854" lon="2.65157">
        <ele>1074.9</ele>
        <time>2018-11-26T03:38:40Z</time>
      </trkpt>
      <trkpt lat="42.3854" lon="2.65157">
        <ele>1074.8</ele>
        <time>2018-11-26T03:38:40Z</time>
      </trkpt>
      <trkpt lat="42.3854" lon="2.65157">
        <ele>1074.7</ele>
        <time>2018-11-26T03:38:40Z</time>
      </trkpt>
      <trkpt lat="42.3854" lon="2.65157">
        <ele>1074.6</ele>
        <time>2018-11-26T03:38:40Z</time>
      </trkpt>
      <trkpt lat="42.3854" lon="2.65157">
        <ele>1074.5</ele>
        <time>2018-11-26T03:38:40Z</time>
      </trkpt>
      <trkpt lat="42.3854" lon="2.65157">
        <ele>1074.6</ele>
        <time>2018-11-26T03:38:40Z</time>
      </trkpt>
      <trkpt lat="42.3854" lon="2.65157">
        <ele>1074.9</ele>
        <time>2018-11-26T03:38:40Z</time>
      </trkpt>
      <trkpt lat="42.3854" lon="2.65157">
        <ele>1075.2</ele>
        <time>2018-11-26T03:38:40Z</time>
      </trkpt>
      <trkpt lat="42.3854" lon="2.65157">
        <ele>1075</ele>
        <time>2018-11-26T03:38:40Z</time>
      </trkpt>
      <trkpt lat="42.3854" lon="2.65157">
        <ele>1074.8</ele>
        <time>2018-11-26T03:38:40Z</time>
      </trkpt>
      <trkpt lat="42.3854" lon="2.65157">
        <ele>1074.5</ele>
        <time>2018-11-26T03:38:40Z</time>
      </trkpt>
      <trkpt lat="42.3854" lon="2.65156">
        <ele>1074.7</ele>
        <time>2018-11-26T03:38:40Z</time>
      </trkpt>
      <trkpt lat="42.3854" lon="2.65156">
        <ele>1074.8</ele>
        <time>2018-11-26T03:38:40Z</time>
      </trkpt>
      <trkpt lat="42.38539" lon="2.65157">
        <ele>1075</ele>
        <time>2018-11-26T03:38:40Z</time>
      </trkpt>
      <trkpt lat="42.3854" lon="2.65156">
        <ele>1074.9</ele>
        <time>2018-11-26T03:38:41Z</time>
      </trkpt>
      <trkpt lat="42.3854" lon="2.65156">
        <ele>1074.6</ele>
        <time>2018-11-26T03:38:41Z</time>
      </trkpt>
      <trkpt lat="42.3854" lon="2.65157">
        <ele>1074.5</ele>
        <time>2018-11-26T03:38:41Z</time>
      </trkpt>
      <trkpt lat="42.3854" lon="2.65157">
        <ele>1074.4</ele>
        <time>2018-11-26T03:38:41Z</time>
      </trkpt>
      <trkpt lat="42.3854" lon="2.65157">
        <ele>1074.5</ele>
        <time>2018-11-26T03:38:41Z</time>
      </trkpt>
      <trkpt lat="42.3854" lon="2.65156">
        <ele>1074.5</ele>
        <time>2018-11-26T03:38:41Z</time>
      </trkpt>
      <trkpt lat="42.3854" lon="2.65156">
        <ele>1074.6</ele>
        <time>2018-11-26T03:38:41Z</time>
      </trkpt>
      <trkpt lat="42.3854" lon="2.65156">
        <ele>1074.6</ele>
        <time>2018-11-26T03:38:41Z</time>
      </trkpt>
      <trkpt lat="42.3854" lon="2.65156">
        <ele>1074.5</ele>
        <time>2018-11-26T03:38:41Z</time>
      </trkpt>
      <trkpt lat="42.3854" lon="2.65156">
        <ele>1074.2</ele>
        <time>2018-11-26T03:38:41Z</time>
      </trkpt>
      <trkpt lat="42.3854" lon="2.65156">
        <ele>1074.3</ele>
        <time>2018-11-26T03:38:41Z</time>
      </trkpt>
      <trkpt lat="42.3854" lon="2.65156">
        <ele>1074.3</ele>
        <time>2018-11-26T03:38:41Z</time>
      </trkpt>
      <trkpt lat="42.3854" lon="2.65156">
        <ele>1074.4</ele>
        <time>2018-11-26T03:38:41Z</time>
      </trkpt>
      <trkpt lat="42.3854" lon="2.65156">
        <ele>1074.3</ele>
        <time>2018-11-26T03:38:41Z</time>
      </trkpt>
      <trkpt lat="42.3854" lon="2.65156">
        <ele>1074.4</ele>
        <time>2018-11-26T03:38:41Z</time>
      </trkpt>
      <trkpt lat="42.3854" lon="2.65156">
        <ele>1074.4</ele>
        <time>2018-11-26T03:38:41Z</time>
      </trkpt>
      <trkpt lat="42.3854" lon="2.65156">
        <ele>1074.4</ele>
        <time>2018-11-26T03:38:41Z</time>
      </trkpt>
      <trkpt lat="42.3854" lon="2.65156">
        <ele>1074.5</ele>
        <time>2018-11-26T03:38:41Z</time>
      </trkpt>
      <trkpt lat="42.3854" lon="2.65156">
        <ele>1074.6</ele>
        <time>2018-11-26T03:38:41Z</time>
      </trkpt>
      <trkpt lat="42.3854" lon="2.65156">
        <ele>1074.3</ele>
        <time>2018-11-26T03:38:41Z</time>
      </trkpt>
      <trkpt lat="42.3854" lon="2.65156">
        <ele>1074.2</ele>
        <time>2018-11-26T03:38:41Z</time>
      </trkpt>
      <trkpt lat="42.3854" lon="2.65156">
        <ele>1073.9</ele>
        <time>2018-11-26T03:38:41Z</time>
      </trkpt>
      <trkpt lat="42.3854" lon="2.65156">
        <ele>1073.9</ele>
        <time>2018-11-26T03:38:41Z</time>
      </trkpt>
      <trkpt lat="42.3854" lon="2.65156">
        <ele>1073.9</ele>
        <time>2018-11-26T03:38:41Z</time>
      </trkpt>
      <trkpt lat="42.3854" lon="2.65156">
        <ele>1074</ele>
        <time>2018-11-26T03:38:41Z</time>
      </trkpt>
      <trkpt lat="42.3854" lon="2.65156">
        <ele>1074.1</ele>
        <time>2018-11-26T03:38:41Z</time>
      </trkpt>
      <trkpt lat="42.3854" lon="2.65156">
        <ele>1074</ele>
        <time>2018-11-26T03:38:41Z</time>
      </trkpt>
      <trkpt lat="42.3854" lon="2.65156">
        <ele>1074</ele>
        <time>2018-11-26T03:38:41Z</time>
      </trkpt>
      <trkpt lat="42.3854" lon="2.65156">
        <ele>1074</ele>
        <time>2018-11-26T03:38:41Z</time>
      </trkpt>
      <trkpt lat="42.3854" lon="2.65156">
        <ele>1073.8</ele>
        <time>2018-11-26T03:38:41Z</time>
      </trkpt>
      <trkpt lat="42.3854" lon="2.65156">
        <ele>1073.7</ele>
        <time>2018-11-26T03:38:41Z</time>
      </trkpt>
      <trkpt lat="42.3854" lon="2.65156">
        <ele>1073.3</ele>
        <time>2018-11-26T03:38:41Z</time>
      </trkpt>
      <trkpt lat="42.3854" lon="2.65156">
        <ele>1073.4</ele>
        <time>2018-11-26T03:38:41Z</time>
      </trkpt>
      <trkpt lat="42.3854" lon="2.65156">
        <ele>1073.5</ele>
        <time>2018-11-26T03:38:41Z</time>
      </trkpt>
      <trkpt lat="42.3854" lon="2.65156">
        <ele>1073.4</ele>
        <time>2018-11-26T03:38:42Z</time>
      </trkpt>
      <trkpt lat="42.3854" lon="2.65156">
        <ele>1073.4</ele>
        <time>2018-11-26T03:38:42Z</time>
      </trkpt>
      <trkpt lat="42.3854" lon="2.65156">
        <ele>1073.3</ele>
        <time>2018-11-26T03:38:42Z</time>
      </trkpt>
      <trkpt lat="42.3854" lon="2.65156">
        <ele>1073.3</ele>
        <time>2018-11-26T03:38:42Z</time>
      </trkpt>
      <trkpt lat="42.3854" lon="2.65156">
        <ele>1073</ele>
        <time>2018-11-26T03:38:42Z</time>
      </trkpt>
      <trkpt lat="42.3854" lon="2.65155">
        <ele>1073.5</ele>
        <time>2018-11-26T03:38:42Z</time>
      </trkpt>
      <trkpt lat="42.3854" lon="2.65155">
        <ele>1073.7</ele>
        <time>2018-11-26T03:38:42Z</time>
      </trkpt>
      <trkpt lat="42.3854" lon="2.65155">
        <ele>1073.9</ele>
        <time>2018-11-26T03:38:42Z</time>
      </trkpt>
      <trkpt lat="42.3854" lon="2.65155">
        <ele>1073.9</ele>
        <time>2018-11-26T03:38:42Z</time>
      </trkpt>
      <trkpt lat="42.3854" lon="2.65155">
        <ele>1073.9</ele>
        <time>2018-11-26T03:38:42Z</time>
      </trkpt>
      <trkpt lat="42.3854" lon="2.65155">
        <ele>1074.2</ele>
        <time>2018-11-26T03:38:42Z</time>
      </trkpt>
      <trkpt lat="42.3854" lon="2.65155">
        <ele>1074.3</ele>
        <time>2018-11-26T03:38:42Z</time>
      </trkpt>
      <trkpt lat="42.3854" lon="2.65155">
        <ele>1074.6</ele>
        <time>2018-11-26T03:38:42Z</time>
      </trkpt>
      <trkpt lat="42.3854" lon="2.65155">
        <ele>1074.4</ele>
        <time>2018-11-26T03:38:42Z</time>
      </trkpt>
      <trkpt lat="42.3854" lon="2.65155">
        <ele>1074.4</ele>
        <time>2018-11-26T03:38:42Z</time>
      </trkpt>
      <trkpt lat="42.3854" lon="2.65155">
        <ele>1074.1</ele>
        <time>2018-11-26T03:38:42Z</time>
      </trkpt>
      <trkpt lat="42.3854" lon="2.65155">
        <ele>1074.4</ele>
        <time>2018-11-26T03:38:42Z</time>
      </trkpt>
      <trkpt lat="42.3854" lon="2.65155">
        <ele>1074.8</ele>
        <time>2018-11-26T03:38:42Z</time>
      </trkpt>
      <trkpt lat="42.3854" lon="2.65155">
        <ele>1075.2</ele>
        <time>2018-11-26T03:38:42Z</time>
      </trkpt>
      <trkpt lat="42.3854" lon="2.65155">
        <ele>1075.3</ele>
        <time>2018-11-26T03:38:42Z</time>
      </trkpt>
      <trkpt lat="42.3854" lon="2.65155">
        <ele>1075.2</ele>
        <time>2018-11-26T03:38:42Z</time>
      </trkpt>
      <trkpt lat="42.3854" lon="2.65155">
        <ele>1075.2</ele>
        <time>2018-11-26T03:38:42Z</time>
      </trkpt>
      <trkpt lat="42.3854" lon="2.65155">
        <ele>1075.2</ele>
        <time>2018-11-26T03:38:42Z</time>
      </trkpt>
      <trkpt lat="42.38539" lon="2.65155">
        <ele>1075.3</ele>
        <time>2018-11-26T03:38:43Z</time>
      </trkpt>
      <trkpt lat="42.38539" lon="2.65155">
        <ele>1075.3</ele>
        <time>2018-11-26T03:38:43Z</time>
      </trkpt>
      <trkpt lat="42.38539" lon="2.65155">
        <ele>1075.5</ele>
        <time>2018-11-26T03:38:43Z</time>
      </trkpt>
      <trkpt lat="42.38539" lon="2.65155">
        <ele>1075.3</ele>
        <time>2018-11-26T03:38:43Z</time>
      </trkpt>
      <trkpt lat="42.38539" lon="2.65155">
        <ele>1075.3</ele>
        <time>2018-11-26T03:38:43Z</time>
      </trkpt>
      <trkpt lat="42.38539" lon="2.65155">
        <ele>1075</ele>
        <time>2018-11-26T03:38:43Z</time>
      </trkpt>
      <trkpt lat="42.3854" lon="2.65155">
        <ele>1075.1</ele>
        <time>2018-11-26T03:38:43Z</time>
      </trkpt>
      <trkpt lat="42.3854" lon="2.65155">
        <ele>1075.3</ele>
        <time>2018-11-26T03:38:43Z</time>
      </trkpt>
      <trkpt lat="42.3854" lon="2.65155">
        <ele>1075.4</ele>
        <time>2018-11-26T03:38:44Z</time>
      </trkpt>
      <trkpt lat="42.38539" lon="2.65155">
        <ele>1075.5</ele>
        <time>2018-11-26T03:38:44Z</time>
      </trkpt>
      <trkpt lat="42.38539" lon="2.65156">
        <ele>1075.7</ele>
        <time>2018-11-26T03:38:44Z</time>
      </trkpt>
      <trkpt lat="42.38537" lon="2.65158">
        <ele>1075.6</ele>
        <time>2018-11-26T03:38:45Z</time>
      </trkpt>
      <trkpt lat="42.38536" lon="2.65159">
        <ele>1075.5</ele>
        <time>2018-11-26T03:38:46Z</time>
      </trkpt>
      <trkpt lat="42.38535" lon="2.65161">
        <ele>1075.5</ele>
        <time>2018-11-26T03:38:46Z</time>
      </trkpt>
      <trkpt lat="42.38534" lon="2.65162">
        <ele>1075.4</ele>
        <time>2018-11-26T03:38:47Z</time>
      </trkpt>
      <trkpt lat="42.38532" lon="2.65164">
        <ele>1075.5</ele>
        <time>2018-11-26T03:38:48Z</time>
      </trkpt>
      <trkpt lat="42.38532" lon="2.65165">
        <ele>1075.7</ele>
        <time>2018-11-26T03:38:48Z</time>
      </trkpt>
      <trkpt lat="42.38531" lon="2.65167">
        <ele>1075.9</ele>
        <time>2018-11-26T03:38:49Z</time>
      </trkpt>
      <trkpt lat="42.3853" lon="2.65168">
        <ele>1076.2</ele>
        <time>2018-11-26T03:38:49Z</time>
      </trkpt>
      <trkpt lat="42.3853" lon="2.65169">
        <ele>1076.1</ele>
        <time>2018-11-26T03:38:49Z</time>
      </trkpt>
      <trkpt lat="42.38529" lon="2.6517">
        <ele>1076.1</ele>
        <time>2018-11-26T03:38:50Z</time>
      </trkpt>
      <trkpt lat="42.38529" lon="2.65172">
        <ele>1076.2</ele>
        <time>2018-11-26T03:38:50Z</time>
      </trkpt>
      <trkpt lat="42.38528" lon="2.65173">
        <ele>1076.3</ele>
        <time>2018-11-26T03:38:51Z</time>
      </trkpt>
      <trkpt lat="42.38527" lon="2.65174">
        <ele>1076.6</ele>
        <time>2018-11-26T03:38:51Z</time>
      </trkpt>
      <trkpt lat="42.38527" lon="2.65176">
        <ele>1077</ele>
        <time>2018-11-26T03:38:52Z</time>
      </trkpt>
      <trkpt lat="42.38526" lon="2.65176">
        <ele>1077.1</ele>
        <time>2018-11-26T03:38:52Z</time>
      </trkpt>
      <trkpt lat="42.38523" lon="2.65177">
        <ele>1077.3</ele>
        <time>2018-11-26T03:38:53Z</time>
      </trkpt>
      <trkpt lat="42.38522" lon="2.65177">
        <ele>1077.5</ele>
        <time>2018-11-26T03:38:54Z</time>
      </trkpt>
      <trkpt lat="42.3852" lon="2.65176">
        <ele>1077.5</ele>
        <time>2018-11-26T03:38:55Z</time>
      </trkpt>
      <trkpt lat="42.38519" lon="2.65175">
        <ele>1077.6</ele>
        <time>2018-11-26T03:38:55Z</time>
      </trkpt>
      <trkpt lat="42.38519" lon="2.65175">
        <ele>1077.8</ele>
        <time>2018-11-26T03:38:55Z</time>
      </trkpt>
      <trkpt lat="42.38518" lon="2.65174">
        <ele>1077.8</ele>
        <time>2018-11-26T03:38:56Z</time>
      </trkpt>
      <trkpt lat="42.38518" lon="2.65172">
        <ele>1077.8</ele>
        <time>2018-11-26T03:38:56Z</time>
      </trkpt>
      <trkpt lat="42.38518" lon="2.65171">
        <ele>1077.4</ele>
        <time>2018-11-26T03:38:57Z</time>
      </trkpt>
      <trkpt lat="42.38518" lon="2.65169">
        <ele>1077</ele>
        <time>2018-11-26T03:38:57Z</time>
      </trkpt>
      <trkpt lat="42.38518" lon="2.65169">
        <ele>1076.4</ele>
        <time>2018-11-26T03:38:57Z</time>
      </trkpt>
      <trkpt lat="42.38518" lon="2.65169">
        <ele>1076.5</ele>
        <time>2018-11-26T03:38:57Z</time>
      </trkpt>
      <trkpt lat="42.38517" lon="2.65169">
        <ele>1076.5</ele>
        <time>2018-11-26T03:38:57Z</time>
      </trkpt>
      <trkpt lat="42.38517" lon="2.65169">
        <ele>1076.4</ele>
        <time>2018-11-26T03:38:57Z</time>
      </trkpt>
      <trkpt lat="42.38518" lon="2.65169">
        <ele>1076.5</ele>
        <time>2018-11-26T03:38:58Z</time>
      </trkpt>
      <trkpt lat="42.38518" lon="2.65169">
        <ele>1076.5</ele>
        <time>2018-11-26T03:38:58Z</time>
      </trkpt>
      <trkpt lat="42.38518" lon="2.6517">
        <ele>1076.9</ele>
        <time>2018-11-26T03:38:58Z</time>
      </trkpt>
      <trkpt lat="42.38518" lon="2.6517">
        <ele>1077</ele>
        <time>2018-11-26T03:38:58Z</time>
      </trkpt>
      <trkpt lat="42.38518" lon="2.6517">
        <ele>1077</ele>
        <time>2018-11-26T03:38:58Z</time>
      </trkpt>
      <trkpt lat="42.38518" lon="2.6517">
        <ele>1077.1</ele>
        <time>2018-11-26T03:38:58Z</time>
      </trkpt>
      <trkpt lat="42.38518" lon="2.65171">
        <ele>1077</ele>
        <time>2018-11-26T03:38:58Z</time>
      </trkpt>
      <trkpt lat="42.38518" lon="2.65172">
        <ele>1077</ele>
        <time>2018-11-26T03:38:59Z</time>
      </trkpt>
      <trkpt lat="42.38517" lon="2.65173">
        <ele>1076.9</ele>
        <time>2018-11-26T03:38:59Z</time>
      </trkpt>
      <trkpt lat="42.38517" lon="2.65174">
        <ele>1076.9</ele>
        <time>2018-11-26T03:38:59Z</time>
      </trkpt>
      <trkpt lat="42.38517" lon="2.65175">
        <ele>1076.9</ele>
        <time>2018-11-26T03:38:59Z</time>
      </trkpt>
      <trkpt lat="42.38517" lon="2.65176">
        <ele>1076.9</ele>
        <time>2018-11-26T03:39:00Z</time>
      </trkpt>
      <trkpt lat="42.38517" lon="2.65177">
        <ele>1077.1</ele>
        <time>2018-11-26T03:39:00Z</time>
      </trkpt>
      <trkpt lat="42.38518" lon="2.65177">
        <ele>1077.2</ele>
        <time>2018-11-26T03:39:00Z</time>
      </trkpt>
      <trkpt lat="42.38518" lon="2.65178">
        <ele>1077.3</ele>
        <time>2018-11-26T03:39:01Z</time>
      </trkpt>
      <trkpt lat="42.38518" lon="2.65179">
        <ele>1077.1</ele>
        <time>2018-11-26T03:39:01Z</time>
      </trkpt>
      <trkpt lat="42.38518" lon="2.6518">
        <ele>1076.8</ele>
        <time>2018-11-26T03:39:01Z</time>
      </trkpt>
      <trkpt lat="42.38516" lon="2.65181">
        <ele>1075.9</ele>
        <time>2018-11-26T03:39:02Z</time>
      </trkpt>
      <trkpt lat="42.38516" lon="2.65182">
        <ele>1076</ele>
        <time>2018-11-26T03:39:02Z</time>
      </trkpt>
      <trkpt lat="42.38514" lon="2.65185">
        <ele>1076.2</ele>
        <time>2018-11-26T03:39:04Z</time>
      </trkpt>
      <trkpt lat="42.38513" lon="2.65186">
        <ele>1076.4</ele>
        <time>2018-11-26T03:39:04Z</time>
      </trkpt>
      <trkpt lat="42.38512" lon="2.65189">
        <ele>1076.6</ele>
        <time>2018-11-26T03:39:05Z</time>
      </trkpt>
      <trkpt lat="42.38511" lon="2.65191">
        <ele>1075.8</ele>
        <time>2018-11-26T03:39:06Z</time>
      </trkpt>
      <trkpt lat="42.38511" lon="2.65192">
        <ele>1075.7</ele>
        <time>2018-11-26T03:39:06Z</time>
      </trkpt>
      <trkpt lat="42.38509" lon="2.65196">
        <ele>1074.8</ele>
        <time>2018-11-26T03:39:07Z</time>
      </trkpt>
      <trkpt lat="42.38509" lon="2.65197">
        <ele>1074.5</ele>
        <time>2018-11-26T03:39:08Z</time>
      </trkpt>
      <trkpt lat="42.38505" lon="2.65201">
        <ele>1074.2</ele>
        <time>2018-11-26T03:39:09Z</time>
      </trkpt>
      <trkpt lat="42.38504" lon="2.65203">
        <ele>1074.1</ele>
        <time>2018-11-26T03:39:10Z</time>
      </trkpt>
      <trkpt lat="42.38503" lon="2.65204">
        <ele>1073.9</ele>
        <time>2018-11-26T03:39:11Z</time>
      </trkpt>
      <trkpt lat="42.38498" lon="2.65208">
        <ele>1073.7</ele>
        <time>2018-11-26T03:39:13Z</time>
      </trkpt>
      <trkpt lat="42.38496" lon="2.65209">
        <ele>1073.3</ele>
        <time>2018-11-26T03:39:14Z</time>
      </trkpt>
      <trkpt lat="42.38495" lon="2.6521">
        <ele>1073.5</ele>
        <time>2018-11-26T03:39:14Z</time>
      </trkpt>
      <trkpt lat="42.38492" lon="2.65211">
        <ele>1073.7</ele>
        <time>2018-11-26T03:39:16Z</time>
      </trkpt>
      <trkpt lat="42.38491" lon="2.65211">
        <ele>1073.5</ele>
        <time>2018-11-26T03:39:16Z</time>
      </trkpt>
      <trkpt lat="42.3849" lon="2.65212">
        <ele>1073.4</ele>
        <time>2018-11-26T03:39:16Z</time>
      </trkpt>
      <trkpt lat="42.3849" lon="2.65212">
        <ele>1073.1</ele>
        <time>2018-11-26T03:39:17Z</time>
      </trkpt>
      <trkpt lat="42.38489" lon="2.65213">
        <ele>1073</ele>
        <time>2018-11-26T03:39:17Z</time>
      </trkpt>
      <trkpt lat="42.38488" lon="2.65213">
        <ele>1072.8</ele>
        <time>2018-11-26T03:39:17Z</time>
      </trkpt>
      <trkpt lat="42.38486" lon="2.65214">
        <ele>1072.4</ele>
        <time>2018-11-26T03:39:18Z</time>
      </trkpt>
      <trkpt lat="42.38486" lon="2.65215">
        <ele>1072.1</ele>
        <time>2018-11-26T03:39:18Z</time>
      </trkpt>
      <trkpt lat="42.38485" lon="2.65216">
        <ele>1071.9</ele>
        <time>2018-11-26T03:39:19Z</time>
      </trkpt>
      <trkpt lat="42.38485" lon="2.65217">
        <ele>1071.7</ele>
        <time>2018-11-26T03:39:19Z</time>
      </trkpt>
      <trkpt lat="42.38484" lon="2.65218">
        <ele>1071.5</ele>
        <time>2018-11-26T03:39:19Z</time>
      </trkpt>
      <trkpt lat="42.38479" lon="2.65221">
        <ele>1070.9</ele>
        <time>2018-11-26T03:39:21Z</time>
      </trkpt>
      <trkpt lat="42.38479" lon="2.65221">
        <ele>1070.6</ele>
        <time>2018-11-26T03:39:22Z</time>
      </trkpt>
      <trkpt lat="42.38478" lon="2.65221">
        <ele>1070.4</ele>
        <time>2018-11-26T03:39:22Z</time>
      </trkpt>
      <trkpt lat="42.38477" lon="2.65222">
        <ele>1069.8</ele>
        <time>2018-11-26T03:39:22Z</time>
      </trkpt>
      <trkpt lat="42.38476" lon="2.65222">
        <ele>1069.9</ele>
        <time>2018-11-26T03:39:23Z</time>
      </trkpt>
      <trkpt lat="42.38476" lon="2.65223">
        <ele>1070.2</ele>
        <time>2018-11-26T03:39:23Z</time>
      </trkpt>
      <trkpt lat="42.38475" lon="2.65224">
        <ele>1070.2</ele>
        <time>2018-11-26T03:39:23Z</time>
      </trkpt>
      <trkpt lat="42.38474" lon="2.65224">
        <ele>1070.1</ele>
        <time>2018-11-26T03:39:24Z</time>
      </trkpt>
      <trkpt lat="42.38473" lon="2.65224">
        <ele>1070</ele>
        <time>2018-11-26T03:39:24Z</time>
      </trkpt>
      <trkpt lat="42.38473" lon="2.65225">
        <ele>1069.6</ele>
        <time>2018-11-26T03:39:24Z</time>
      </trkpt>
      <trkpt lat="42.38472" lon="2.65225">
        <ele>1069.5</ele>
        <time>2018-11-26T03:39:25Z</time>
      </trkpt>
      <trkpt lat="42.38471" lon="2.65226">
        <ele>1069.2</ele>
        <time>2018-11-26T03:39:25Z</time>
      </trkpt>
      <trkpt lat="42.3847" lon="2.65226">
        <ele>1068.9</ele>
        <time>2018-11-26T03:39:26Z</time>
      </trkpt>
      <trkpt lat="42.3847" lon="2.65227">
        <ele>1068.8</ele>
        <time>2018-11-26T03:39:26Z</time>
      </trkpt>
      <trkpt lat="42.38469" lon="2.65228">
        <ele>1068.6</ele>
        <time>2018-11-26T03:39:26Z</time>
      </trkpt>
      <trkpt lat="42.38468" lon="2.65228">
        <ele>1068.1</ele>
        <time>2018-11-26T03:39:27Z</time>
      </trkpt>
      <trkpt lat="42.38467" lon="2.65228">
        <ele>1068.1</ele>
        <time>2018-11-26T03:39:27Z</time>
      </trkpt>
      <trkpt lat="42.38466" lon="2.6523">
        <ele>1067.8</ele>
        <time>2018-11-26T03:39:28Z</time>
      </trkpt>
      <trkpt lat="42.38465" lon="2.65231">
        <ele>1067.6</ele>
        <time>2018-11-26T03:39:28Z</time>
      </trkpt>
      <trkpt lat="42.38464" lon="2.65231">
        <ele>1067.8</ele>
        <time>2018-11-26T03:39:28Z</time>
      </trkpt>
      <trkpt lat="42.38463" lon="2.65231">
        <ele>1068</ele>
        <time>2018-11-26T03:39:29Z</time>
      </trkpt>
      <trkpt lat="42.38463" lon="2.65231">
        <ele>1068.2</ele>
        <time>2018-11-26T03:39:29Z</time>
      </trkpt>
      <trkpt lat="42.38462" lon="2.65231">
        <ele>1068</ele>
        <time>2018-11-26T03:39:29Z</time>
      </trkpt>
      <trkpt lat="42.38461" lon="2.65231">
        <ele>1067.7</ele>
        <time>2018-11-26T03:39:30Z</time>
      </trkpt>
      <trkpt lat="42.3846" lon="2.65232">
        <ele>1067.2</ele>
        <time>2018-11-26T03:39:30Z</time>
      </trkpt>
      <trkpt lat="42.3846" lon="2.65231">
        <ele>1066.9</ele>
        <time>2018-11-26T03:39:30Z</time>
      </trkpt>
      <trkpt lat="42.38459" lon="2.65231">
        <ele>1066.4</ele>
        <time>2018-11-26T03:39:30Z</time>
      </trkpt>
      <trkpt lat="42.38458" lon="2.65231">
        <ele>1065.9</ele>
        <time>2018-11-26T03:39:31Z</time>
      </trkpt>
      <trkpt lat="42.38458" lon="2.65231">
        <ele>1065.7</ele>
        <time>2018-11-26T03:39:31Z</time>
      </trkpt>
      <trkpt lat="42.38457" lon="2.65232">
        <ele>1065.5</ele>
        <time>2018-11-26T03:39:31Z</time>
      </trkpt>
      <trkpt lat="42.38457" lon="2.65232">
        <ele>1065.2</ele>
        <time>2018-11-26T03:39:31Z</time>
      </trkpt>
      <trkpt lat="42.38456" lon="2.65232">
        <ele>1065</ele>
        <time>2018-11-26T03:39:32Z</time>
      </trkpt>
      <trkpt lat="42.38455" lon="2.65232">
        <ele>1064.6</ele>
        <time>2018-11-26T03:39:32Z</time>
      </trkpt>
      <trkpt lat="42.38454" lon="2.65231">
        <ele>1064.3</ele>
        <time>2018-11-26T03:39:32Z</time>
      </trkpt>
      <trkpt lat="42.38454" lon="2.65231">
        <ele>1064.2</ele>
        <time>2018-11-26T03:39:32Z</time>
      </trkpt>
      <trkpt lat="42.38453" lon="2.65232">
        <ele>1064.2</ele>
        <time>2018-11-26T03:39:33Z</time>
      </trkpt>
      <trkpt lat="42.38453" lon="2.65232">
        <ele>1064.1</ele>
        <time>2018-11-26T03:39:33Z</time>
      </trkpt>
      <trkpt lat="42.38452" lon="2.65233">
        <ele>1064.1</ele>
        <time>2018-11-26T03:39:33Z</time>
      </trkpt>
      <trkpt lat="42.38451" lon="2.65233">
        <ele>1064.2</ele>
        <time>2018-11-26T03:39:34Z</time>
      </trkpt>
      <trkpt lat="42.3845" lon="2.65234">
        <ele>1064.1</ele>
        <time>2018-11-26T03:39:34Z</time>
      </trkpt>
      <trkpt lat="42.3845" lon="2.65235">
        <ele>1064.2</ele>
        <time>2018-11-26T03:39:35Z</time>
      </trkpt>
      <trkpt lat="42.38449" lon="2.65235">
        <ele>1064</ele>
        <time>2018-11-26T03:39:35Z</time>
      </trkpt>
      <trkpt lat="42.38449" lon="2.65236">
        <ele>1063.7</ele>
        <time>2018-11-26T03:39:35Z</time>
      </trkpt>
      <trkpt lat="42.38448" lon="2.65237">
        <ele>1063.3</ele>
        <time>2018-11-26T03:39:35Z</time>
      </trkpt>
      <trkpt lat="42.38448" lon="2.65238">
        <ele>1063.1</ele>
        <time>2018-11-26T03:39:36Z</time>
      </trkpt>
      <trkpt lat="42.38447" lon="2.65238">
        <ele>1063.2</ele>
        <time>2018-11-26T03:39:36Z</time>
      </trkpt>
      <trkpt lat="42.38447" lon="2.65239">
        <ele>1063</ele>
        <time>2018-11-26T03:39:36Z</time>
      </trkpt>
      <trkpt lat="42.38447" lon="2.6524">
        <ele>1062.9</ele>
        <time>2018-11-26T03:39:37Z</time>
      </trkpt>
      <trkpt lat="42.38446" lon="2.65241">
        <ele>1062.7</ele>
        <time>2018-11-26T03:39:37Z</time>
      </trkpt>
      <trkpt lat="42.38445" lon="2.65241">
        <ele>1062.5</ele>
        <time>2018-11-26T03:39:37Z</time>
      </trkpt>
      <trkpt lat="42.38445" lon="2.65241">
        <ele>1062.3</ele>
        <time>2018-11-26T03:39:37Z</time>
      </trkpt>
      <trkpt lat="42.38444" lon="2.65242">
        <ele>1062.4</ele>
        <time>2018-11-26T03:39:38Z</time>
      </trkpt>
      <trkpt lat="42.38443" lon="2.65242">
        <ele>1062.2</ele>
        <time>2018-11-26T03:39:38Z</time>
      </trkpt>
      <trkpt lat="42.38443" lon="2.65243">
        <ele>1062.2</ele>
        <time>2018-11-26T03:39:38Z</time>
      </trkpt>
      <trkpt lat="42.38442" lon="2.65244">
        <ele>1062.2</ele>
        <time>2018-11-26T03:39:39Z</time>
      </trkpt>
      <trkpt lat="42.38442" lon="2.65245">
        <ele>1061.9</ele>
        <time>2018-11-26T03:39:39Z</time>
      </trkpt>
      <trkpt lat="42.38441" lon="2.65246">
        <ele>1061.7</ele>
        <time>2018-11-26T03:39:39Z</time>
      </trkpt>
      <trkpt lat="42.38441" lon="2.65247">
        <ele>1061.6</ele>
        <time>2018-11-26T03:39:40Z</time>
      </trkpt>
      <trkpt lat="42.38441" lon="2.65248">
        <ele>1061.5</ele>
        <time>2018-11-26T03:39:40Z</time>
      </trkpt>
      <trkpt lat="42.3844" lon="2.65249">
        <ele>1061.5</ele>
        <time>2018-11-26T03:39:40Z</time>
      </trkpt>
      <trkpt lat="42.3844" lon="2.65249">
        <ele>1061.2</ele>
        <time>2018-11-26T03:39:41Z</time>
      </trkpt>
      <trkpt lat="42.38439" lon="2.65251">
        <ele>1060.3</ele>
        <time>2018-11-26T03:39:41Z</time>
      </trkpt>
      <trkpt lat="42.38438" lon="2.65252">
        <ele>1060</ele>
        <time>2018-11-26T03:39:42Z</time>
      </trkpt>
      <trkpt lat="42.38438" lon="2.65252">
        <ele>1059.7</ele>
        <time>2018-11-26T03:39:42Z</time>
      </trkpt>
      <trkpt lat="42.38437" lon="2.65253">
        <ele>1059.3</ele>
        <time>2018-11-26T03:39:42Z</time>
      </trkpt>
      <trkpt lat="42.38437" lon="2.65254">
        <ele>1059.3</ele>
        <time>2018-11-26T03:39:43Z</time>
      </trkpt>
      <trkpt lat="42.38436" lon="2.65255">
        <ele>1059.2</ele>
        <time>2018-11-26T03:39:43Z</time>
      </trkpt>
      <trkpt lat="42.38436" lon="2.65256">
        <ele>1059.2</ele>
        <time>2018-11-26T03:39:43Z</time>
      </trkpt>
      <trkpt lat="42.38435" lon="2.65257">
        <ele>1059.2</ele>
        <time>2018-11-26T03:39:44Z</time>
      </trkpt>
      <trkpt lat="42.38435" lon="2.65258">
        <ele>1059.1</ele>
        <time>2018-11-26T03:39:44Z</time>
      </trkpt>
      <trkpt lat="42.38435" lon="2.65259">
        <ele>1059</ele>
        <time>2018-11-26T03:39:44Z</time>
      </trkpt>
      <trkpt lat="42.38434" lon="2.65259">
        <ele>1058.8</ele>
        <time>2018-11-26T03:39:44Z</time>
      </trkpt>
      <trkpt lat="42.38434" lon="2.6526">
        <ele>1058.7</ele>
        <time>2018-11-26T03:39:45Z</time>
      </trkpt>
      <trkpt lat="42.38433" lon="2.65261">
        <ele>1058.5</ele>
        <time>2018-11-26T03:39:45Z</time>
      </trkpt>
      <trkpt lat="42.38433" lon="2.65262">
        <ele>1058.2</ele>
        <time>2018-11-26T03:39:45Z</time>
      </trkpt>
      <trkpt lat="42.38432" lon="2.65264">
        <ele>1057.8</ele>
        <time>2018-11-26T03:39:46Z</time>
      </trkpt>
      <trkpt lat="42.38431" lon="2.65265">
        <ele>1057.4</ele>
        <time>2018-11-26T03:39:46Z</time>
      </trkpt>
      <trkpt lat="42.38431" lon="2.65266">
        <ele>1057.3</ele>
        <time>2018-11-26T03:39:47Z</time>
      </trkpt>
      <trkpt lat="42.38431" lon="2.65266">
        <ele>1057.2</ele>
        <time>2018-11-26T03:39:47Z</time>
      </trkpt>
      <trkpt lat="42.3843" lon="2.65267">
        <ele>1057</ele>
        <time>2018-11-26T03:39:47Z</time>
      </trkpt>
      <trkpt lat="42.38429" lon="2.65267">
        <ele>1056.6</ele>
        <time>2018-11-26T03:39:48Z</time>
      </trkpt>
      <trkpt lat="42.38429" lon="2.65267">
        <ele>1056.4</ele>
        <time>2018-11-26T03:39:48Z</time>
      </trkpt>
      <trkpt lat="42.38428" lon="2.65268">
        <ele>1056</ele>
        <time>2018-11-26T03:39:48Z</time>
      </trkpt>
      <trkpt lat="42.38427" lon="2.65268">
        <ele>1055.4</ele>
        <time>2018-11-26T03:39:49Z</time>
      </trkpt>
      <trkpt lat="42.38427" lon="2.65269">
        <ele>1055.5</ele>
        <time>2018-11-26T03:39:49Z</time>
      </trkpt>
      <trkpt lat="42.38426" lon="2.6527">
        <ele>1055.6</ele>
        <time>2018-11-26T03:39:49Z</time>
      </trkpt>
      <trkpt lat="42.38426" lon="2.65272">
        <ele>1055.8</ele>
        <time>2018-11-26T03:39:50Z</time>
      </trkpt>
      <trkpt lat="42.38426" lon="2.65273">
        <ele>1055.9</ele>
        <time>2018-11-26T03:39:50Z</time>
      </trkpt>
      <trkpt lat="42.38425" lon="2.65274">
        <ele>1056.1</ele>
        <time>2018-11-26T03:39:50Z</time>
      </trkpt>
      <trkpt lat="42.38425" lon="2.65275">
        <ele>1056.1</ele>
        <time>2018-11-26T03:39:51Z</time>
      </trkpt>
      <trkpt lat="42.38425" lon="2.65276">
        <ele>1056</ele>
        <time>2018-11-26T03:39:51Z</time>
      </trkpt>
      <trkpt lat="42.38425" lon="2.65277">
        <ele>1055.7</ele>
        <time>2018-11-26T03:39:51Z</time>
      </trkpt>
      <trkpt lat="42.38424" lon="2.65278">
        <ele>1055.2</ele>
        <time>2018-11-26T03:39:52Z</time>
      </trkpt>
      <trkpt lat="42.38424" lon="2.65279">
        <ele>1055.1</ele>
        <time>2018-11-26T03:39:52Z</time>
      </trkpt>
      <trkpt lat="42.38424" lon="2.6528">
        <ele>1055.2</ele>
        <time>2018-11-26T03:39:52Z</time>
      </trkpt>
      <trkpt lat="42.38424" lon="2.65281">
        <ele>1055.1</ele>
        <time>2018-11-26T03:39:53Z</time>
      </trkpt>
      <trkpt lat="42.38424" lon="2.65281">
        <ele>1054.8</ele>
        <time>2018-11-26T03:39:53Z</time>
      </trkpt>
      <trkpt lat="42.38422" lon="2.65285">
        <ele>1053.7</ele>
        <time>2018-11-26T03:39:54Z</time>
      </trkpt>
      <trkpt lat="42.38422" lon="2.65286">
        <ele>1053.5</ele>
        <time>2018-11-26T03:39:54Z</time>
      </trkpt>
      <trkpt lat="42.38422" lon="2.65287">
        <ele>1053.1</ele>
        <time>2018-11-26T03:39:55Z</time>
      </trkpt>
      <trkpt lat="42.38421" lon="2.65288">
        <ele>1052.7</ele>
        <time>2018-11-26T03:39:55Z</time>
      </trkpt>
      <trkpt lat="42.38421" lon="2.65289">
        <ele>1052.8</ele>
        <time>2018-11-26T03:39:55Z</time>
      </trkpt>
      <trkpt lat="42.3842" lon="2.6529">
        <ele>1052.8</ele>
        <time>2018-11-26T03:39:56Z</time>
      </trkpt>
      <trkpt lat="42.3842" lon="2.65291">
        <ele>1052.7</ele>
        <time>2018-11-26T03:39:56Z</time>
      </trkpt>
      <trkpt lat="42.3842" lon="2.65292">
        <ele>1052.6</ele>
        <time>2018-11-26T03:39:56Z</time>
      </trkpt>
      <trkpt lat="42.38419" lon="2.65293">
        <ele>1052.4</ele>
        <time>2018-11-26T03:39:57Z</time>
      </trkpt>
      <trkpt lat="42.38417" lon="2.65297">
        <ele>1052.1</ele>
        <time>2018-11-26T03:39:58Z</time>
      </trkpt>
      <trkpt lat="42.38416" lon="2.65299">
        <ele>1052.1</ele>
        <time>2018-11-26T03:39:59Z</time>
      </trkpt>
      <trkpt lat="42.38415" lon="2.653">
        <ele>1052</ele>
        <time>2018-11-26T03:39:59Z</time>
      </trkpt>
      <trkpt lat="42.38414" lon="2.65303">
        <ele>1051.9</ele>
        <time>2018-11-26T03:40:00Z</time>
      </trkpt>
      <trkpt lat="42.38414" lon="2.65304">
        <ele>1051.7</ele>
        <time>2018-11-26T03:40:01Z</time>
      </trkpt>
      <trkpt lat="42.38412" lon="2.65308">
        <ele>1051.6</ele>
        <time>2018-11-26T03:40:02Z</time>
      </trkpt>
      <trkpt lat="42.38411" lon="2.65309">
        <ele>1051.6</ele>
        <time>2018-11-26T03:40:02Z</time>
      </trkpt>
      <trkpt lat="42.38409" lon="2.65312">
        <ele>1050.3</ele>
        <time>2018-11-26T03:40:04Z</time>
      </trkpt>
      <trkpt lat="42.38407" lon="2.65314">
        <ele>1050.2</ele>
        <time>2018-11-26T03:40:05Z</time>
      </trkpt>
      <trkpt lat="42.38404" lon="2.65318">
        <ele>1049.6</ele>
        <time>2018-11-26T03:40:06Z</time>
      </trkpt>
      <trkpt lat="42.38403" lon="2.65319">
        <ele>1049.7</ele>
        <time>2018-11-26T03:40:07Z</time>
      </trkpt>
      <trkpt lat="42.38402" lon="2.65322">
        <ele>1049.9</ele>
        <time>2018-11-26T03:40:08Z</time>
      </trkpt>
      <trkpt lat="42.38401" lon="2.65326">
        <ele>1049.6</ele>
        <time>2018-11-26T03:40:09Z</time>
      </trkpt>
      <trkpt lat="42.384" lon="2.65328">
        <ele>1049.3</ele>
        <time>2018-11-26T03:40:10Z</time>
      </trkpt>
      <trkpt lat="42.38399" lon="2.65329">
        <ele>1049.4</ele>
        <time>2018-11-26T03:40:10Z</time>
      </trkpt>
      <trkpt lat="42.38399" lon="2.65331">
        <ele>1049.4</ele>
        <time>2018-11-26T03:40:11Z</time>
      </trkpt>
      <trkpt lat="42.38399" lon="2.65332">
        <ele>1049.2</ele>
        <time>2018-11-26T03:40:11Z</time>
      </trkpt>
      <trkpt lat="42.38398" lon="2.65333">
        <ele>1049</ele>
        <time>2018-11-26T03:40:11Z</time>
      </trkpt>
      <trkpt lat="42.38397" lon="2.65334">
        <ele>1048.7</ele>
        <time>2018-11-26T03:40:12Z</time>
      </trkpt>
      <trkpt lat="42.38397" lon="2.65335">
        <ele>1048.7</ele>
        <time>2018-11-26T03:40:12Z</time>
      </trkpt>
      <trkpt lat="42.38396" lon="2.65336">
        <ele>1048.8</ele>
        <time>2018-11-26T03:40:12Z</time>
      </trkpt>
      <trkpt lat="42.38396" lon="2.65337">
        <ele>1048.9</ele>
        <time>2018-11-26T03:40:13Z</time>
      </trkpt>
      <trkpt lat="42.38396" lon="2.65338">
        <ele>1048.9</ele>
        <time>2018-11-26T03:40:13Z</time>
      </trkpt>
      <trkpt lat="42.38395" lon="2.6534">
        <ele>1049</ele>
        <time>2018-11-26T03:40:14Z</time>
      </trkpt>
      <trkpt lat="42.38394" lon="2.65341">
        <ele>1048.8</ele>
        <time>2018-11-26T03:40:14Z</time>
      </trkpt>
      <trkpt lat="42.38394" lon="2.65342">
        <ele>1048.9</ele>
        <time>2018-11-26T03:40:15Z</time>
      </trkpt>
      <trkpt lat="42.38393" lon="2.65344">
        <ele>1048.8</ele>
        <time>2018-11-26T03:40:15Z</time>
      </trkpt>
      <trkpt lat="42.38392" lon="2.65344">
        <ele>1048.8</ele>
        <time>2018-11-26T03:40:16Z</time>
      </trkpt>
      <trkpt lat="42.38391" lon="2.65345">
        <ele>1048.5</ele>
        <time>2018-11-26T03:40:16Z</time>
      </trkpt>
      <trkpt lat="42.38391" lon="2.65346">
        <ele>1048</ele>
        <time>2018-11-26T03:40:16Z</time>
      </trkpt>
      <trkpt lat="42.3839" lon="2.65347">
        <ele>1047.4</ele>
        <time>2018-11-26T03:40:17Z</time>
      </trkpt>
      <trkpt lat="42.3839" lon="2.65348">
        <ele>1047.5</ele>
        <time>2018-11-26T03:40:17Z</time>
      </trkpt>
      <trkpt lat="42.3839" lon="2.65349">
        <ele>1047.5</ele>
        <time>2018-11-26T03:40:17Z</time>
      </trkpt>
      <trkpt lat="42.3839" lon="2.65352">
        <ele>1047.5</ele>
        <time>2018-11-26T03:40:18Z</time>
      </trkpt>
      <trkpt lat="42.38389" lon="2.65357">
        <ele>1046.6</ele>
        <time>2018-11-26T03:40:20Z</time>
      </trkpt>
      <trkpt lat="42.38389" lon="2.65358">
        <ele>1046.4</ele>
        <time>2018-11-26T03:40:20Z</time>
      </trkpt>
      <trkpt lat="42.38388" lon="2.65359">
        <ele>1046.1</ele>
        <time>2018-11-26T03:40:20Z</time>
      </trkpt>
      <trkpt lat="42.38387" lon="2.65361">
        <ele>1046.4</ele>
        <time>2018-11-26T03:40:21Z</time>
      </trkpt>
      <trkpt lat="42.38386" lon="2.65362">
        <ele>1046.5</ele>
        <time>2018-11-26T03:40:21Z</time>
      </trkpt>
      <trkpt lat="42.38386" lon="2.65363">
        <ele>1046.5</ele>
        <time>2018-11-26T03:40:22Z</time>
      </trkpt>
      <trkpt lat="42.38385" lon="2.65364">
        <ele>1046.5</ele>
        <time>2018-11-26T03:40:22Z</time>
      </trkpt>
      <trkpt lat="42.38383" lon="2.65368">
        <ele>1044.9</ele>
        <time>2018-11-26T03:40:24Z</time>
      </trkpt>
      <trkpt lat="42.38382" lon="2.65369">
        <ele>1044.8</ele>
        <time>2018-11-26T03:40:24Z</time>
      </trkpt>
      <trkpt lat="42.38381" lon="2.6537">
        <ele>1044.5</ele>
        <time>2018-11-26T03:40:25Z</time>
      </trkpt>
      <trkpt lat="42.38381" lon="2.6537">
        <ele>1044.2</ele>
        <time>2018-11-26T03:40:25Z</time>
      </trkpt>
      <trkpt lat="42.38379" lon="2.65373">
        <ele>1044.2</ele>
        <time>2018-11-26T03:40:26Z</time>
      </trkpt>
      <trkpt lat="42.38378" lon="2.65374">
        <ele>1044.1</ele>
        <time>2018-11-26T03:40:26Z</time>
      </trkpt>
      <trkpt lat="42.38378" lon="2.65375">
        <ele>1044.1</ele>
        <time>2018-11-26T03:40:27Z</time>
      </trkpt>
      <trkpt lat="42.38377" lon="2.65377">
        <ele>1044.1</ele>
        <time>2018-11-26T03:40:27Z</time>
      </trkpt>
      <trkpt lat="42.38377" lon="2.65378">
        <ele>1044</ele>
        <time>2018-11-26T03:40:28Z</time>
      </trkpt>
      <trkpt lat="42.38376" lon="2.65378">
        <ele>1043.7</ele>
        <time>2018-11-26T03:40:28Z</time>
      </trkpt>
      <trkpt lat="42.38376" lon="2.65379">
        <ele>1043.5</ele>
        <time>2018-11-26T03:40:28Z</time>
      </trkpt>
      <trkpt lat="42.38375" lon="2.65381">
        <ele>1043.2</ele>
        <time>2018-11-26T03:40:29Z</time>
      </trkpt>
      <trkpt lat="42.38375" lon="2.65382">
        <ele>1043.1</ele>
        <time>2018-11-26T03:40:29Z</time>
      </trkpt>
      <trkpt lat="42.38374" lon="2.65383">
        <ele>1042.9</ele>
        <time>2018-11-26T03:40:29Z</time>
      </trkpt>
      <trkpt lat="42.38374" lon="2.65384">
        <ele>1042.5</ele>
        <time>2018-11-26T03:40:30Z</time>
      </trkpt>
      <trkpt lat="42.38373" lon="2.65385">
        <ele>1042.5</ele>
        <time>2018-11-26T03:40:30Z</time>
      </trkpt>
      <trkpt lat="42.38372" lon="2.65387">
        <ele>1042.6</ele>
        <time>2018-11-26T03:40:31Z</time>
      </trkpt>
      <trkpt lat="42.38371" lon="2.65388">
        <ele>1042.4</ele>
        <time>2018-11-26T03:40:31Z</time>
      </trkpt>
      <trkpt lat="42.3837" lon="2.6539">
        <ele>1042.1</ele>
        <time>2018-11-26T03:40:32Z</time>
      </trkpt>
      <trkpt lat="42.38369" lon="2.65392">
        <ele>1041.5</ele>
        <time>2018-11-26T03:40:33Z</time>
      </trkpt>
      <trkpt lat="42.38367" lon="2.65395">
        <ele>1040.9</ele>
        <time>2018-11-26T03:40:34Z</time>
      </trkpt>
      <trkpt lat="42.38366" lon="2.65397">
        <ele>1041.2</ele>
        <time>2018-11-26T03:40:35Z</time>
      </trkpt>
      <trkpt lat="42.38365" lon="2.65398">
        <ele>1041</ele>
        <time>2018-11-26T03:40:35Z</time>
      </trkpt>
      <trkpt lat="42.38364" lon="2.65399">
        <ele>1040.9</ele>
        <time>2018-11-26T03:40:36Z</time>
      </trkpt>
      <trkpt lat="42.38362" lon="2.65402">
        <ele>1040.5</ele>
        <time>2018-11-26T03:40:37Z</time>
      </trkpt>
      <trkpt lat="42.38361" lon="2.65402">
        <ele>1040.2</ele>
        <time>2018-11-26T03:40:37Z</time>
      </trkpt>
      <trkpt lat="42.38361" lon="2.65404">
        <ele>1040.2</ele>
        <time>2018-11-26T03:40:38Z</time>
      </trkpt>
      <trkpt lat="42.38361" lon="2.65405">
        <ele>1040.2</ele>
        <time>2018-11-26T03:40:38Z</time>
      </trkpt>
      <trkpt lat="42.3836" lon="2.65406">
        <ele>1040.3</ele>
        <time>2018-11-26T03:40:38Z</time>
      </trkpt>
      <trkpt lat="42.38359" lon="2.65407">
        <ele>1040.1</ele>
        <time>2018-11-26T03:40:39Z</time>
      </trkpt>
      <trkpt lat="42.38356" lon="2.65411">
        <ele>1040.2</ele>
        <time>2018-11-26T03:40:41Z</time>
      </trkpt>
      <trkpt lat="42.38355" lon="2.65413">
        <ele>1040.2</ele>
        <time>2018-11-26T03:40:41Z</time>
      </trkpt>
      <trkpt lat="42.38354" lon="2.65415">
        <ele>1040</ele>
        <time>2018-11-26T03:40:42Z</time>
      </trkpt>
      <trkpt lat="42.38353" lon="2.65416">
        <ele>1039.7</ele>
        <time>2018-11-26T03:40:42Z</time>
      </trkpt>
      <trkpt lat="42.38353" lon="2.65417">
        <ele>1039.7</ele>
        <time>2018-11-26T03:40:43Z</time>
      </trkpt>
      <trkpt lat="42.38352" lon="2.65418">
        <ele>1039.6</ele>
        <time>2018-11-26T03:40:43Z</time>
      </trkpt>
      <trkpt lat="42.3835" lon="2.6542">
        <ele>1039.5</ele>
        <time>2018-11-26T03:40:44Z</time>
      </trkpt>
      <trkpt lat="42.38349" lon="2.65423">
        <ele>1039</ele>
        <time>2018-11-26T03:40:45Z</time>
      </trkpt>
      <trkpt lat="42.38346" lon="2.65428">
        <ele>1038.8</ele>
        <time>2018-11-26T03:40:47Z</time>
      </trkpt>
      <trkpt lat="42.38346" lon="2.65429">
        <ele>1038.5</ele>
        <time>2018-11-26T03:40:47Z</time>
      </trkpt>
      <trkpt lat="42.38344" lon="2.65432">
        <ele>1038.1</ele>
        <time>2018-11-26T03:40:48Z</time>
      </trkpt>
      <trkpt lat="42.38344" lon="2.65433">
        <ele>1038</ele>
        <time>2018-11-26T03:40:49Z</time>
      </trkpt>
      <trkpt lat="42.38343" lon="2.65433">
        <ele>1037.8</ele>
        <time>2018-11-26T03:40:49Z</time>
      </trkpt>
      <trkpt lat="42.38343" lon="2.65434">
        <ele>1037.6</ele>
        <time>2018-11-26T03:40:49Z</time>
      </trkpt>
      <trkpt lat="42.38342" lon="2.65435">
        <ele>1037.2</ele>
        <time>2018-11-26T03:40:50Z</time>
      </trkpt>
      <trkpt lat="42.38342" lon="2.65435">
        <ele>1036.8</ele>
        <time>2018-11-26T03:40:50Z</time>
      </trkpt>
      <trkpt lat="42.38342" lon="2.65435">
        <ele>1037</ele>
        <time>2018-11-26T03:40:50Z</time>
      </trkpt>
      <trkpt lat="42.38342" lon="2.65435">
        <ele>1037.3</ele>
        <time>2018-11-26T03:40:50Z</time>
      </trkpt>
      <trkpt lat="42.38342" lon="2.65436">
        <ele>1037.5</ele>
        <time>2018-11-26T03:40:50Z</time>
      </trkpt>
      <trkpt lat="42.38341" lon="2.65437">
        <ele>1037.3</ele>
        <time>2018-11-26T03:40:50Z</time>
      </trkpt>
      <trkpt lat="42.38341" lon="2.65438">
        <ele>1037</ele>
        <time>2018-11-26T03:40:50Z</time>
      </trkpt>
      <trkpt lat="42.38341" lon="2.65438">
        <ele>1036.6</ele>
        <time>2018-11-26T03:40:51Z</time>
      </trkpt>
      <trkpt lat="42.3834" lon="2.65439">
        <ele>1036.2</ele>
        <time>2018-11-26T03:40:51Z</time>
      </trkpt>
      <trkpt lat="42.3834" lon="2.6544">
        <ele>1036.1</ele>
        <time>2018-11-26T03:40:51Z</time>
      </trkpt>
      <trkpt lat="42.38339" lon="2.65441">
        <ele>1036</ele>
        <time>2018-11-26T03:40:52Z</time>
      </trkpt>
      <trkpt lat="42.38339" lon="2.65442">
        <ele>1035.6</ele>
        <time>2018-11-26T03:40:52Z</time>
      </trkpt>
      <trkpt lat="42.38339" lon="2.65443">
        <ele>1035.5</ele>
        <time>2018-11-26T03:40:52Z</time>
      </trkpt>
      <trkpt lat="42.38339" lon="2.65444">
        <ele>1035.4</ele>
        <time>2018-11-26T03:40:53Z</time>
      </trkpt>
      <trkpt lat="42.38338" lon="2.65446">
        <ele>1035.1</ele>
        <time>2018-11-26T03:40:53Z</time>
      </trkpt>
      <trkpt lat="42.38338" lon="2.65446">
        <ele>1034.8</ele>
        <time>2018-11-26T03:40:53Z</time>
      </trkpt>
      <trkpt lat="42.38338" lon="2.65449">
        <ele>1034.1</ele>
        <time>2018-11-26T03:40:54Z</time>
      </trkpt>
      <trkpt lat="42.38338" lon="2.6545">
        <ele>1034</ele>
        <time>2018-11-26T03:40:54Z</time>
      </trkpt>
      <trkpt lat="42.38338" lon="2.65451">
        <ele>1034</ele>
        <time>2018-11-26T03:40:55Z</time>
      </trkpt>
      <trkpt lat="42.38338" lon="2.65452">
        <ele>1033.7</ele>
        <time>2018-11-26T03:40:55Z</time>
      </trkpt>
      <trkpt lat="42.38338" lon="2.65453">
        <ele>1033.8</ele>
        <time>2018-11-26T03:40:55Z</time>
      </trkpt>
      <trkpt lat="42.38336" lon="2.65455">
        <ele>1033.6</ele>
        <time>2018-11-26T03:40:56Z</time>
      </trkpt>
      <trkpt lat="42.38336" lon="2.65456">
        <ele>1033.7</ele>
        <time>2018-11-26T03:40:56Z</time>
      </trkpt>
      <trkpt lat="42.38336" lon="2.65457">
        <ele>1033.5</ele>
        <time>2018-11-26T03:40:57Z</time>
      </trkpt>
      <trkpt lat="42.38336" lon="2.65458">
        <ele>1033.4</ele>
        <time>2018-11-26T03:40:57Z</time>
      </trkpt>
      <trkpt lat="42.38335" lon="2.65459">
        <ele>1033</ele>
        <time>2018-11-26T03:40:57Z</time>
      </trkpt>
      <trkpt lat="42.38335" lon="2.6546">
        <ele>1033.1</ele>
        <time>2018-11-26T03:40:58Z</time>
      </trkpt>
      <trkpt lat="42.38334" lon="2.65461">
        <ele>1033.2</ele>
        <time>2018-11-26T03:40:58Z</time>
      </trkpt>
      <trkpt lat="42.38334" lon="2.65462">
        <ele>1033.4</ele>
        <time>2018-11-26T03:40:58Z</time>
      </trkpt>
      <trkpt lat="42.38334" lon="2.65463">
        <ele>1033.2</ele>
        <time>2018-11-26T03:40:59Z</time>
      </trkpt>
      <trkpt lat="42.38333" lon="2.65464">
        <ele>1032.9</ele>
        <time>2018-11-26T03:40:59Z</time>
      </trkpt>
      <trkpt lat="42.38333" lon="2.65465">
        <ele>1032.6</ele>
        <time>2018-11-26T03:40:59Z</time>
      </trkpt>
      <trkpt lat="42.38332" lon="2.65466">
        <ele>1032.4</ele>
        <time>2018-11-26T03:41:00Z</time>
      </trkpt>
      <trkpt lat="42.38332" lon="2.65467">
        <ele>1032.4</ele>
        <time>2018-11-26T03:41:00Z</time>
      </trkpt>
      <trkpt lat="42.38332" lon="2.65468">
        <ele>1032.2</ele>
        <time>2018-11-26T03:41:00Z</time>
      </trkpt>
      <trkpt lat="42.38332" lon="2.65469">
        <ele>1032.2</ele>
        <time>2018-11-26T03:41:01Z</time>
      </trkpt>
      <trkpt lat="42.38332" lon="2.6547">
        <ele>1032.1</ele>
        <time>2018-11-26T03:41:01Z</time>
      </trkpt>
      <trkpt lat="42.38332" lon="2.65472">
        <ele>1032</ele>
        <time>2018-11-26T03:41:02Z</time>
      </trkpt>
      <trkpt lat="42.38331" lon="2.65473">
        <ele>1032</ele>
        <time>2018-11-26T03:41:02Z</time>
      </trkpt>
      <trkpt lat="42.38331" lon="2.65474">
        <ele>1031.7</ele>
        <time>2018-11-26T03:41:02Z</time>
      </trkpt>
      <trkpt lat="42.3833" lon="2.65475">
        <ele>1031.6</ele>
        <time>2018-11-26T03:41:03Z</time>
      </trkpt>
      <trkpt lat="42.3833" lon="2.65475">
        <ele>1031.2</ele>
        <time>2018-11-26T03:41:03Z</time>
      </trkpt>
      <trkpt lat="42.3833" lon="2.65476">
        <ele>1031.2</ele>
        <time>2018-11-26T03:41:03Z</time>
      </trkpt>
      <trkpt lat="42.38329" lon="2.65477">
        <ele>1031.2</ele>
        <time>2018-11-26T03:41:03Z</time>
      </trkpt>
      <trkpt lat="42.38329" lon="2.65478">
        <ele>1031.2</ele>
        <time>2018-11-26T03:41:04Z</time>
      </trkpt>
      <trkpt lat="42.38329" lon="2.65479">
        <ele>1031</ele>
        <time>2018-11-26T03:41:04Z</time>
      </trkpt>
      <trkpt lat="42.38329" lon="2.6548">
        <ele>1030.8</ele>
        <time>2018-11-26T03:41:04Z</time>
      </trkpt>
      <trkpt lat="42.38329" lon="2.65481">
        <ele>1030.6</ele>
        <time>2018-11-26T03:41:04Z</time>
      </trkpt>
      <trkpt lat="42.38329" lon="2.65482">
        <ele>1030.4</ele>
        <time>2018-11-26T03:41:05Z</time>
      </trkpt>
      <trkpt lat="42.38329" lon="2.65482">
        <ele>1030.1</ele>
        <time>2018-11-26T03:41:05Z</time>
      </trkpt>
      <trkpt lat="42.38329" lon="2.65483">
        <ele>1029.7</ele>
        <time>2018-11-26T03:41:05Z</time>
      </trkpt>
      <trkpt lat="42.38328" lon="2.65484">
        <ele>1029.7</ele>
        <time>2018-11-26T03:41:06Z</time>
      </trkpt>
      <trkpt lat="42.38328" lon="2.65485">
        <ele>1029.6</ele>
        <time>2018-11-26T03:41:06Z</time>
      </trkpt>
      <trkpt lat="42.38328" lon="2.65486">
        <ele>1029.4</ele>
        <time>2018-11-26T03:41:06Z</time>
      </trkpt>
      <trkpt lat="42.38328" lon="2.65487">
        <ele>1029.2</ele>
        <time>2018-11-26T03:41:06Z</time>
      </trkpt>
      <trkpt lat="42.38328" lon="2.65488">
        <ele>1028.8</ele>
        <time>2018-11-26T03:41:07Z</time>
      </trkpt>
      <trkpt lat="42.38328" lon="2.65489">
        <ele>1028.4</ele>
        <time>2018-11-26T03:41:07Z</time>
      </trkpt>
      <trkpt lat="42.38328" lon="2.6549">
        <ele>1027.8</ele>
        <time>2018-11-26T03:41:07Z</time>
      </trkpt>
      <trkpt lat="42.38328" lon="2.6549">
        <ele>1027.9</ele>
        <time>2018-11-26T03:41:07Z</time>
      </trkpt>
      <trkpt lat="42.38328" lon="2.65491">
        <ele>1027.8</ele>
        <time>2018-11-26T03:41:08Z</time>
      </trkpt>
      <trkpt lat="42.38327" lon="2.65492">
        <ele>1027.8</ele>
        <time>2018-11-26T03:41:08Z</time>
      </trkpt>
      <trkpt lat="42.38327" lon="2.65493">
        <ele>1027.9</ele>
        <time>2018-11-26T03:41:08Z</time>
      </trkpt>
      <trkpt lat="42.38327" lon="2.65494">
        <ele>1027.8</ele>
        <time>2018-11-26T03:41:09Z</time>
      </trkpt>
      <trkpt lat="42.38326" lon="2.65495">
        <ele>1028</ele>
        <time>2018-11-26T03:41:09Z</time>
      </trkpt>
      <trkpt lat="42.38326" lon="2.65496">
        <ele>1027.8</ele>
        <time>2018-11-26T03:41:09Z</time>
      </trkpt>
      <trkpt lat="42.38326" lon="2.65497">
        <ele>1027.4</ele>
        <time>2018-11-26T03:41:10Z</time>
      </trkpt>
      <trkpt lat="42.38326" lon="2.65498">
        <ele>1027.1</ele>
        <time>2018-11-26T03:41:10Z</time>
      </trkpt>
      <trkpt lat="42.38325" lon="2.65498">
        <ele>1027.2</ele>
        <time>2018-11-26T03:41:10Z</time>
      </trkpt>
      <trkpt lat="42.38325" lon="2.65499">
        <ele>1027.1</ele>
        <time>2018-11-26T03:41:10Z</time>
      </trkpt>
      <trkpt lat="42.38324" lon="2.655">
        <ele>1027</ele>
        <time>2018-11-26T03:41:11Z</time>
      </trkpt>
      <trkpt lat="42.38324" lon="2.65501">
        <ele>1027</ele>
        <time>2018-11-26T03:41:11Z</time>
      </trkpt>
      <trkpt lat="42.38324" lon="2.65502">
        <ele>1026.9</ele>
        <time>2018-11-26T03:41:11Z</time>
      </trkpt>
      <trkpt lat="42.38323" lon="2.65503">
        <ele>1026.7</ele>
        <time>2018-11-26T03:41:12Z</time>
      </trkpt>
      <trkpt lat="42.38323" lon="2.65504">
        <ele>1026.7</ele>
        <time>2018-11-26T03:41:12Z</time>
      </trkpt>
      <trkpt lat="42.38323" lon="2.65505">
        <ele>1026.5</ele>
        <time>2018-11-26T03:41:12Z</time>
      </trkpt>
      <trkpt lat="42.38322" lon="2.65506">
        <ele>1026.2</ele>
        <time>2018-11-26T03:41:13Z</time>
      </trkpt>
      <trkpt lat="42.38322" lon="2.65507">
        <ele>1026</ele>
        <time>2018-11-26T03:41:13Z</time>
      </trkpt>
      <trkpt lat="42.38321" lon="2.65508">
        <ele>1025.6</ele>
        <time>2018-11-26T03:41:13Z</time>
      </trkpt>
      <trkpt lat="42.38321" lon="2.65508">
        <ele>1025.2</ele>
        <time>2018-11-26T03:41:14Z</time>
      </trkpt>
      <trkpt lat="42.3832" lon="2.65509">
        <ele>1024.5</ele>
        <time>2018-11-26T03:41:14Z</time>
      </trkpt>
      <trkpt lat="42.3832" lon="2.65509">
        <ele>1024.5</ele>
        <time>2018-11-26T03:41:14Z</time>
      </trkpt>
      <trkpt lat="42.38319" lon="2.6551">
        <ele>1024.3</ele>
        <time>2018-11-26T03:41:15Z</time>
      </trkpt>
      <trkpt lat="42.38319" lon="2.65511">
        <ele>1024.2</ele>
        <time>2018-11-26T03:41:15Z</time>
      </trkpt>
      <trkpt lat="42.38318" lon="2.65512">
        <ele>1024</ele>
        <time>2018-11-26T03:41:15Z</time>
      </trkpt>
      <trkpt lat="42.38318" lon="2.65512">
        <ele>1023.8</ele>
        <time>2018-11-26T03:41:15Z</time>
      </trkpt>
      <trkpt lat="42.38318" lon="2.65513">
        <ele>1023.3</ele>
        <time>2018-11-26T03:41:16Z</time>
      </trkpt>
      <trkpt lat="42.38317" lon="2.65514">
        <ele>1023.4</ele>
        <time>2018-11-26T03:41:16Z</time>
      </trkpt>
      <trkpt lat="42.38316" lon="2.65514">
        <ele>1023.5</ele>
        <time>2018-11-26T03:41:16Z</time>
      </trkpt>
      <trkpt lat="42.38316" lon="2.65514">
        <ele>1023.6</ele>
        <time>2018-11-26T03:41:16Z</time>
      </trkpt>
      <trkpt lat="42.38315" lon="2.65515">
        <ele>1023.9</ele>
        <time>2018-11-26T03:41:17Z</time>
      </trkpt>
      <trkpt lat="42.38315" lon="2.65516">
        <ele>1023.7</ele>
        <time>2018-11-26T03:41:17Z</time>
      </trkpt>
      <trkpt lat="42.38314" lon="2.65516">
        <ele>1023.3</ele>
        <time>2018-11-26T03:41:17Z</time>
      </trkpt>
      <trkpt lat="42.38313" lon="2.65517">
        <ele>1023</ele>
        <time>2018-11-26T03:41:18Z</time>
      </trkpt>
      <trkpt lat="42.38313" lon="2.65517">
        <ele>1022.8</ele>
        <time>2018-11-26T03:41:18Z</time>
      </trkpt>
      <trkpt lat="42.38312" lon="2.65518">
        <ele>1022.9</ele>
        <time>2018-11-26T03:41:18Z</time>
      </trkpt>
      <trkpt lat="42.38312" lon="2.65519">
        <ele>1022.7</ele>
        <time>2018-11-26T03:41:19Z</time>
      </trkpt>
      <trkpt lat="42.38311" lon="2.6552">
        <ele>1022.4</ele>
        <time>2018-11-26T03:41:19Z</time>
      </trkpt>
      <trkpt lat="42.38311" lon="2.65521">
        <ele>1022</ele>
        <time>2018-11-26T03:41:19Z</time>
      </trkpt>
      <trkpt lat="42.38311" lon="2.65521">
        <ele>1021.6</ele>
        <time>2018-11-26T03:41:19Z</time>
      </trkpt>
      <trkpt lat="42.38311" lon="2.65522">
        <ele>1021.4</ele>
        <time>2018-11-26T03:41:20Z</time>
      </trkpt>
      <trkpt lat="42.38311" lon="2.65523">
        <ele>1021.4</ele>
        <time>2018-11-26T03:41:20Z</time>
      </trkpt>
      <trkpt lat="42.38312" lon="2.65524">
        <ele>1021.1</ele>
        <time>2018-11-26T03:41:20Z</time>
      </trkpt>
      <trkpt lat="42.38312" lon="2.65524">
        <ele>1021.2</ele>
        <time>2018-11-26T03:41:20Z</time>
      </trkpt>
      <trkpt lat="42.38312" lon="2.65525">
        <ele>1021.1</ele>
        <time>2018-11-26T03:41:21Z</time>
      </trkpt>
      <trkpt lat="42.38312" lon="2.65526">
        <ele>1021.1</ele>
        <time>2018-11-26T03:41:21Z</time>
      </trkpt>
      <trkpt lat="42.38312" lon="2.65527">
        <ele>1021.1</ele>
        <time>2018-11-26T03:41:21Z</time>
      </trkpt>
      <trkpt lat="42.38312" lon="2.65527">
        <ele>1021</ele>
        <time>2018-11-26T03:41:21Z</time>
      </trkpt>
      <trkpt lat="42.38312" lon="2.65529">
        <ele>1020.9</ele>
        <time>2018-11-26T03:41:22Z</time>
      </trkpt>
      <trkpt lat="42.38312" lon="2.65529">
        <ele>1020.6</ele>
        <time>2018-11-26T03:41:22Z</time>
      </trkpt>
      <trkpt lat="42.38312" lon="2.6553">
        <ele>1020.3</ele>
        <time>2018-11-26T03:41:22Z</time>
      </trkpt>
      <trkpt lat="42.38312" lon="2.65531">
        <ele>1020</ele>
        <time>2018-11-26T03:41:22Z</time>
      </trkpt>
      <trkpt lat="42.38312" lon="2.65532">
        <ele>1019.5</ele>
        <time>2018-11-26T03:41:23Z</time>
      </trkpt>
      <trkpt lat="42.38311" lon="2.65532">
        <ele>1019.4</ele>
        <time>2018-11-26T03:41:23Z</time>
      </trkpt>
      <trkpt lat="42.38311" lon="2.65533">
        <ele>1019.4</ele>
        <time>2018-11-26T03:41:23Z</time>
      </trkpt>
      <trkpt lat="42.38311" lon="2.65534">
        <ele>1019.2</ele>
        <time>2018-11-26T03:41:23Z</time>
      </trkpt>
      <trkpt lat="42.3831" lon="2.65535">
        <ele>1019.1</ele>
        <time>2018-11-26T03:41:24Z</time>
      </trkpt>
      <trkpt lat="42.38309" lon="2.65535">
        <ele>1018.9</ele>
        <time>2018-11-26T03:41:24Z</time>
      </trkpt>
      <trkpt lat="42.38309" lon="2.65535">
        <ele>1018.8</ele>
        <time>2018-11-26T03:41:24Z</time>
      </trkpt>
      <trkpt lat="42.38308" lon="2.65536">
        <ele>1018.6</ele>
        <time>2018-11-26T03:41:25Z</time>
      </trkpt>
      <trkpt lat="42.38307" lon="2.65535">
        <ele>1018.6</ele>
        <time>2018-11-26T03:41:25Z</time>
      </trkpt>
      <trkpt lat="42.38307" lon="2.65536">
        <ele>1018.5</ele>
        <time>2018-11-26T03:41:25Z</time>
      </trkpt>
      <trkpt lat="42.38306" lon="2.65536">
        <ele>1018.3</ele>
        <time>2018-11-26T03:41:25Z</time>
      </trkpt>
      <trkpt lat="42.38305" lon="2.65537">
        <ele>1018.4</ele>
        <time>2018-11-26T03:41:26Z</time>
      </trkpt>
      <trkpt lat="42.38305" lon="2.65537">
        <ele>1018.8</ele>
        <time>2018-11-26T03:41:26Z</time>
      </trkpt>
      <trkpt lat="42.38304" lon="2.65538">
        <ele>1019.2</ele>
        <time>2018-11-26T03:41:26Z</time>
      </trkpt>
      <trkpt lat="42.38303" lon="2.65538">
        <ele>1018.7</ele>
        <time>2018-11-26T03:41:27Z</time>
      </trkpt>
      <trkpt lat="42.38303" lon="2.65538">
        <ele>1018</ele>
        <time>2018-11-26T03:41:27Z</time>
      </trkpt>
      <trkpt lat="42.38302" lon="2.65538">
        <ele>1017.2</ele>
        <time>2018-11-26T03:41:27Z</time>
      </trkpt>
      <trkpt lat="42.38301" lon="2.65539">
        <ele>1017.2</ele>
        <time>2018-11-26T03:41:28Z</time>
      </trkpt>
      <trkpt lat="42.38301" lon="2.65539">
        <ele>1017.1</ele>
        <time>2018-11-26T03:41:28Z</time>
      </trkpt>
      <trkpt lat="42.383" lon="2.65539">
        <ele>1017</ele>
        <time>2018-11-26T03:41:28Z</time>
      </trkpt>
      <trkpt lat="42.383" lon="2.6554">
        <ele>1017.1</ele>
        <time>2018-11-26T03:41:28Z</time>
      </trkpt>
      <trkpt lat="42.38299" lon="2.6554">
        <ele>1017.1</ele>
        <time>2018-11-26T03:41:29Z</time>
      </trkpt>
      <trkpt lat="42.38298" lon="2.65541">
        <ele>1017.3</ele>
        <time>2018-11-26T03:41:29Z</time>
      </trkpt>
      <trkpt lat="42.38297" lon="2.65541">
        <ele>1017</ele>
        <time>2018-11-26T03:41:29Z</time>
      </trkpt>
      <trkpt lat="42.38297" lon="2.65542">
        <ele>1016.6</ele>
        <time>2018-11-26T03:41:30Z</time>
      </trkpt>
      <trkpt lat="42.38296" lon="2.65542">
        <ele>1016.1</ele>
        <time>2018-11-26T03:41:30Z</time>
      </trkpt>
      <trkpt lat="42.38295" lon="2.65543">
        <ele>1015.5</ele>
        <time>2018-11-26T03:41:31Z</time>
      </trkpt>
      <trkpt lat="42.38294" lon="2.65543">
        <ele>1015.5</ele>
        <time>2018-11-26T03:41:31Z</time>
      </trkpt>
      <trkpt lat="42.38293" lon="2.65544">
        <ele>1015.6</ele>
        <time>2018-11-26T03:41:31Z</time>
      </trkpt>
      <trkpt lat="42.38292" lon="2.65545">
        <ele>1015.3</ele>
        <time>2018-11-26T03:41:32Z</time>
      </trkpt>
      <trkpt lat="42.38292" lon="2.65545">
        <ele>1015</ele>
        <time>2018-11-26T03:41:32Z</time>
      </trkpt>
      <trkpt lat="42.38291" lon="2.65546">
        <ele>1014.7</ele>
        <time>2018-11-26T03:41:32Z</time>
      </trkpt>
      <trkpt lat="42.38291" lon="2.65547">
        <ele>1014.5</ele>
        <time>2018-11-26T03:41:33Z</time>
      </trkpt>
      <trkpt lat="42.3829" lon="2.65548">
        <ele>1014.3</ele>
        <time>2018-11-26T03:41:33Z</time>
      </trkpt>
      <trkpt lat="42.3829" lon="2.65548">
        <ele>1014.1</ele>
        <time>2018-11-26T03:41:33Z</time>
      </trkpt>
      <trkpt lat="42.38289" lon="2.65549">
        <ele>1014</ele>
        <time>2018-11-26T03:41:33Z</time>
      </trkpt>
      <trkpt lat="42.38289" lon="2.65549">
        <ele>1013.9</ele>
        <time>2018-11-26T03:41:34Z</time>
      </trkpt>
      <trkpt lat="42.38288" lon="2.65551">
        <ele>1013.6</ele>
        <time>2018-11-26T03:41:34Z</time>
      </trkpt>
      <trkpt lat="42.38288" lon="2.65551">
        <ele>1013.8</ele>
        <time>2018-11-26T03:41:34Z</time>
      </trkpt>
      <trkpt lat="42.38287" lon="2.65553">
        <ele>1013.8</ele>
        <time>2018-11-26T03:41:35Z</time>
      </trkpt>
      <trkpt lat="42.38287" lon="2.65553">
        <ele>1013.8</ele>
        <time>2018-11-26T03:41:35Z</time>
      </trkpt>
      <trkpt lat="42.38286" lon="2.65555">
        <ele>1013.7</ele>
        <time>2018-11-26T03:41:36Z</time>
      </trkpt>
      <trkpt lat="42.38286" lon="2.65555">
        <ele>1013.6</ele>
        <time>2018-11-26T03:41:36Z</time>
      </trkpt>
      <trkpt lat="42.38286" lon="2.65556">
        <ele>1013.7</ele>
        <time>2018-11-26T03:41:36Z</time>
      </trkpt>
      <trkpt lat="42.38285" lon="2.65557">
        <ele>1013.3</ele>
        <time>2018-11-26T03:41:36Z</time>
      </trkpt>
      <trkpt lat="42.38284" lon="2.65557">
        <ele>1013</ele>
        <time>2018-11-26T03:41:37Z</time>
      </trkpt>
      <trkpt lat="42.38284" lon="2.65558">
        <ele>1012.5</ele>
        <time>2018-11-26T03:41:37Z</time>
      </trkpt>
      <trkpt lat="42.38282" lon="2.65559">
        <ele>1012.4</ele>
        <time>2018-11-26T03:41:38Z</time>
      </trkpt>
      <trkpt lat="42.38282" lon="2.6556">
        <ele>1012.2</ele>
        <time>2018-11-26T03:41:38Z</time>
      </trkpt>
      <trkpt lat="42.38281" lon="2.65561">
        <ele>1012.3</ele>
        <time>2018-11-26T03:41:38Z</time>
      </trkpt>
      <trkpt lat="42.3828" lon="2.65561">
        <ele>1012.2</ele>
        <time>2018-11-26T03:41:39Z</time>
      </trkpt>
      <trkpt lat="42.3828" lon="2.65562">
        <ele>1012.1</ele>
        <time>2018-11-26T03:41:39Z</time>
      </trkpt>
      <trkpt lat="42.38279" lon="2.65563">
        <ele>1012</ele>
        <time>2018-11-26T03:41:39Z</time>
      </trkpt>
      <trkpt lat="42.38279" lon="2.65564">
        <ele>1011.6</ele>
        <time>2018-11-26T03:41:40Z</time>
      </trkpt>
      <trkpt lat="42.38278" lon="2.65565">
        <ele>1011.3</ele>
        <time>2018-11-26T03:41:40Z</time>
      </trkpt>
      <trkpt lat="42.38278" lon="2.65566">
        <ele>1011.3</ele>
        <time>2018-11-26T03:41:40Z</time>
      </trkpt>
      <trkpt lat="42.38277" lon="2.65567">
        <ele>1011.3</ele>
        <time>2018-11-26T03:41:41Z</time>
      </trkpt>
      <trkpt lat="42.38276" lon="2.65569">
        <ele>1011.2</ele>
        <time>2018-11-26T03:41:42Z</time>
      </trkpt>
      <trkpt lat="42.38275" lon="2.6557">
        <ele>1011.1</ele>
        <time>2018-11-26T03:41:42Z</time>
      </trkpt>
      <trkpt lat="42.38274" lon="2.65572">
        <ele>1010.8</ele>
        <time>2018-11-26T03:41:43Z</time>
      </trkpt>
      <trkpt lat="42.38274" lon="2.65573">
        <ele>1010.9</ele>
        <time>2018-11-26T03:41:43Z</time>
      </trkpt>
      <trkpt lat="42.38273" lon="2.65574">
        <ele>1011</ele>
        <time>2018-11-26T03:41:43Z</time>
      </trkpt>
      <trkpt lat="42.38273" lon="2.65575">
        <ele>1011.1</ele>
        <time>2018-11-26T03:41:44Z</time>
      </trkpt>
      <trkpt lat="42.38272" lon="2.65577">
        <ele>1011.1</ele>
        <time>2018-11-26T03:41:45Z</time>
      </trkpt>
      <trkpt lat="42.38271" lon="2.65579">
        <ele>1011.1</ele>
        <time>2018-11-26T03:41:45Z</time>
      </trkpt>
      <trkpt lat="42.38271" lon="2.6558">
        <ele>1010.9</ele>
        <time>2018-11-26T03:41:45Z</time>
      </trkpt>
      <trkpt lat="42.38269" lon="2.65581">
        <ele>1010.2</ele>
        <time>2018-11-26T03:41:46Z</time>
      </trkpt>
      <trkpt lat="42.38268" lon="2.65582">
        <ele>1009.9</ele>
        <time>2018-11-26T03:41:47Z</time>
      </trkpt>
      <trkpt lat="42.38268" lon="2.65583">
        <ele>1009.6</ele>
        <time>2018-11-26T03:41:47Z</time>
      </trkpt>
      <trkpt lat="42.38267" lon="2.65584">
        <ele>1009.1</ele>
        <time>2018-11-26T03:41:47Z</time>
      </trkpt>
      <trkpt lat="42.38266" lon="2.65584">
        <ele>1008.3</ele>
        <time>2018-11-26T03:41:48Z</time>
      </trkpt>
      <trkpt lat="42.38266" lon="2.65585">
        <ele>1008.2</ele>
        <time>2018-11-26T03:41:48Z</time>
      </trkpt>
      <trkpt lat="42.38265" lon="2.65586">
        <ele>1008.1</ele>
        <time>2018-11-26T03:41:48Z</time>
      </trkpt>
      <trkpt lat="42.38264" lon="2.65586">
        <ele>1007.8</ele>
        <time>2018-11-26T03:41:49Z</time>
      </trkpt>
      <trkpt lat="42.38264" lon="2.65587">
        <ele>1007.6</ele>
        <time>2018-11-26T03:41:49Z</time>
      </trkpt>
      <trkpt lat="42.38263" lon="2.65588">
        <ele>1007.6</ele>
        <time>2018-11-26T03:41:49Z</time>
      </trkpt>
      <trkpt lat="42.38262" lon="2.65588">
        <ele>1007.5</ele>
        <time>2018-11-26T03:41:50Z</time>
      </trkpt>
      <trkpt lat="42.38261" lon="2.65589">
        <ele>1007.4</ele>
        <time>2018-11-26T03:41:50Z</time>
      </trkpt>
      <trkpt lat="42.38259" lon="2.65592">
        <ele>1007.6</ele>
        <time>2018-11-26T03:41:51Z</time>
      </trkpt>
      <trkpt lat="42.38259" lon="2.65594">
        <ele>1007.5</ele>
        <time>2018-11-26T03:41:52Z</time>
      </trkpt>
      <trkpt lat="42.38258" lon="2.65595">
        <ele>1007.7</ele>
        <time>2018-11-26T03:41:52Z</time>
      </trkpt>
      <trkpt lat="42.38258" lon="2.65595">
        <ele>1007.6</ele>
        <time>2018-11-26T03:41:52Z</time>
      </trkpt>
      <trkpt lat="42.38257" lon="2.65596">
        <ele>1007.6</ele>
        <time>2018-11-26T03:41:53Z</time>
      </trkpt>
      <trkpt lat="42.38257" lon="2.65597">
        <ele>1007.5</ele>
        <time>2018-11-26T03:41:53Z</time>
      </trkpt>
      <trkpt lat="42.38257" lon="2.65598">
        <ele>1007.5</ele>
        <time>2018-11-26T03:41:53Z</time>
      </trkpt>
      <trkpt lat="42.38256" lon="2.65599">
        <ele>1007.4</ele>
        <time>2018-11-26T03:41:54Z</time>
      </trkpt>
      <trkpt lat="42.38256" lon="2.656">
        <ele>1007.4</ele>
        <time>2018-11-26T03:41:54Z</time>
      </trkpt>
      <trkpt lat="42.38255" lon="2.65601">
        <ele>1007.3</ele>
        <time>2018-11-26T03:41:54Z</time>
      </trkpt>
      <trkpt lat="42.38255" lon="2.65602">
        <ele>1007.2</ele>
        <time>2018-11-26T03:41:55Z</time>
      </trkpt>
      <trkpt lat="42.38254" lon="2.65604">
        <ele>1007.4</ele>
        <time>2018-11-26T03:41:55Z</time>
      </trkpt>
      <trkpt lat="42.38253" lon="2.65605">
        <ele>1007.3</ele>
        <time>2018-11-26T03:41:56Z</time>
      </trkpt>
      <trkpt lat="42.38253" lon="2.65606">
        <ele>1007.2</ele>
        <time>2018-11-26T03:41:56Z</time>
      </trkpt>
      <trkpt lat="42.38252" lon="2.65607">
        <ele>1007.1</ele>
        <time>2018-11-26T03:41:56Z</time>
      </trkpt>
      <trkpt lat="42.38252" lon="2.65608">
        <ele>1007</ele>
        <time>2018-11-26T03:41:57Z</time>
      </trkpt>
      <trkpt lat="42.38251" lon="2.65609">
        <ele>1006.8</ele>
        <time>2018-11-26T03:41:57Z</time>
      </trkpt>
      <trkpt lat="42.38251" lon="2.65609">
        <ele>1006.6</ele>
        <time>2018-11-26T03:41:58Z</time>
      </trkpt>
      <trkpt lat="42.3825" lon="2.65611">
        <ele>1006.5</ele>
        <time>2018-11-26T03:41:58Z</time>
      </trkpt>
      <trkpt lat="42.3825" lon="2.65613">
        <ele>1005.7</ele>
        <time>2018-11-26T03:41:59Z</time>
      </trkpt>
      <trkpt lat="42.3825" lon="2.65614">
        <ele>1005.5</ele>
        <time>2018-11-26T03:41:59Z</time>
      </trkpt>
      <trkpt lat="42.3825" lon="2.65616">
        <ele>1005.4</ele>
        <time>2018-11-26T03:41:59Z</time>
      </trkpt>
      <trkpt lat="42.3825" lon="2.65617">
        <ele>1005.2</ele>
        <time>2018-11-26T03:42:00Z</time>
      </trkpt>
      <trkpt lat="42.3825" lon="2.65618">
        <ele>1004.8</ele>
        <time>2018-11-26T03:42:00Z</time>
      </trkpt>
      <trkpt lat="42.38251" lon="2.65619">
        <ele>1004.7</ele>
        <time>2018-11-26T03:42:00Z</time>
      </trkpt>
      <trkpt lat="42.38251" lon="2.65619">
        <ele>1004.7</ele>
        <time>2018-11-26T03:42:01Z</time>
      </trkpt>
      <trkpt lat="42.38251" lon="2.6562">
        <ele>1004.7</ele>
        <time>2018-11-26T03:42:01Z</time>
      </trkpt>
      <trkpt lat="42.38251" lon="2.65621">
        <ele>1004.6</ele>
        <time>2018-11-26T03:42:01Z</time>
      </trkpt>
      <trkpt lat="42.38251" lon="2.65622">
        <ele>1004.7</ele>
        <time>2018-11-26T03:42:02Z</time>
      </trkpt>
      <trkpt lat="42.38251" lon="2.65623">
        <ele>1004.5</ele>
        <time>2018-11-26T03:42:02Z</time>
      </trkpt>
      <trkpt lat="42.38251" lon="2.65624">
        <ele>1004.6</ele>
        <time>2018-11-26T03:42:02Z</time>
      </trkpt>
      <trkpt lat="42.38252" lon="2.65625">
        <ele>1004.4</ele>
        <time>2018-11-26T03:42:02Z</time>
      </trkpt>
      <trkpt lat="42.38253" lon="2.65625">
        <ele>1004.3</ele>
        <time>2018-11-26T03:42:03Z</time>
      </trkpt>
      <trkpt lat="42.38253" lon="2.65625">
        <ele>1004</ele>
        <time>2018-11-26T03:42:03Z</time>
      </trkpt>
      <trkpt lat="42.38253" lon="2.65625">
        <ele>1003.5</ele>
        <time>2018-11-26T03:42:03Z</time>
      </trkpt>
      <trkpt lat="42.38253" lon="2.65625">
        <ele>1002.7</ele>
        <time>2018-11-26T03:42:03Z</time>
      </trkpt>
      <trkpt lat="42.38254" lon="2.65625">
        <ele>1002.8</ele>
        <time>2018-11-26T03:42:03Z</time>
      </trkpt>
      <trkpt lat="42.38256" lon="2.65624">
        <ele>1003.4</ele>
        <time>2018-11-26T03:42:04Z</time>
      </trkpt>
      <trkpt lat="42.38277" lon="2.65615">
        <ele>1005.6</ele>
        <time>2018-11-26T03:42:13Z</time>
      </trkpt>
      <trkpt lat="42.38278" lon="2.65615">
        <ele>1005.2</ele>
        <time>2018-11-26T03:42:13Z</time>
      </trkpt>
      <trkpt lat="42.38288" lon="2.65609">
        <ele>1005.2</ele>
        <time>2018-11-26T03:42:18Z</time>
      </trkpt>
      <trkpt lat="42.38291" lon="2.65607">
        <ele>1005.7</ele>
        <time>2018-11-26T03:42:19Z</time>
      </trkpt>
      <trkpt lat="42.383" lon="2.656">
        <ele>1005.7</ele>
        <time>2018-11-26T03:42:23Z</time>
      </trkpt>
      <trkpt lat="42.38301" lon="2.65599">
        <ele>1005.4</ele>
        <time>2018-11-26T03:42:23Z</time>
      </trkpt>
      <trkpt lat="42.38305" lon="2.65597">
        <ele>1004.8</ele>
        <time>2018-11-26T03:42:25Z</time>
      </trkpt>
      <trkpt lat="42.38309" lon="2.65595">
        <ele>1005</ele>
        <time>2018-11-26T03:42:27Z</time>
      </trkpt>
      <trkpt lat="42.38312" lon="2.65593">
        <ele>1005.3</ele>
        <time>2018-11-26T03:42:28Z</time>
      </trkpt>
      <trkpt lat="42.38322" lon="2.65588">
        <ele>1005.2</ele>
        <time>2018-11-26T03:42:33Z</time>
      </trkpt>
      <trkpt lat="42.38333" lon="2.65582">
        <ele>1006.1</ele>
        <time>2018-11-26T03:42:37Z</time>
      </trkpt>
      <trkpt lat="42.38347" lon="2.65574">
        <ele>1007</ele>
        <time>2018-11-26T03:42:44Z</time>
      </trkpt>
      <trkpt lat="42.3835" lon="2.65572">
        <ele>1007.3</ele>
        <time>2018-11-26T03:42:45Z</time>
      </trkpt>
      <trkpt lat="42.38363" lon="2.65565">
        <ele>1008.7</ele>
        <time>2018-11-26T03:42:50Z</time>
      </trkpt>
      <trkpt lat="42.38369" lon="2.6556">
        <ele>1009.4</ele>
        <time>2018-11-26T03:42:53Z</time>
      </trkpt>
      <trkpt lat="42.3837" lon="2.6556">
        <ele>1009.3</ele>
        <time>2018-11-26T03:42:54Z</time>
      </trkpt>
      <trkpt lat="42.38379" lon="2.65556">
        <ele>1008.8</ele>
        <time>2018-11-26T03:42:57Z</time>
      </trkpt>
      <trkpt lat="42.38381" lon="2.65555">
        <ele>1009.2</ele>
        <time>2018-11-26T03:42:58Z</time>
      </trkpt>
      <trkpt lat="42.38386" lon="2.65554">
        <ele>1008.6</ele>
        <time>2018-11-26T03:43:00Z</time>
      </trkpt>
      <trkpt lat="42.38388" lon="2.65553">
        <ele>1008.4</ele>
        <time>2018-11-26T03:43:01Z</time>
      </trkpt>
      <trkpt lat="42.38405" lon="2.65552">
        <ele>1010.3</ele>
        <time>2018-11-26T03:43:08Z</time>
      </trkpt>
      <trkpt lat="42.38446" lon="2.65547">
        <ele>1010.8</ele>
        <time>2018-11-26T03:43:24Z</time>
      </trkpt>
      <trkpt lat="42.38447" lon="2.65547">
        <ele>1010.5</ele>
        <time>2018-11-26T03:43:25Z</time>
      </trkpt>
      <trkpt lat="42.38451" lon="2.65546">
        <ele>1009.8</ele>
        <time>2018-11-26T03:43:26Z</time>
      </trkpt>
      <trkpt lat="42.38472" lon="2.65539">
        <ele>1009.5</ele>
        <time>2018-11-26T03:43:35Z</time>
      </trkpt>
      <trkpt lat="42.38474" lon="2.65538">
        <ele>1009.4</ele>
        <time>2018-11-26T03:43:36Z</time>
      </trkpt>
      <trkpt lat="42.38483" lon="2.65535">
        <ele>1008.9</ele>
        <time>2018-11-26T03:43:40Z</time>
      </trkpt>
      <trkpt lat="42.38487" lon="2.65534">
        <ele>1008.8</ele>
        <time>2018-11-26T03:43:41Z</time>
      </trkpt>
      <trkpt lat="42.38488" lon="2.65533">
        <ele>1008.7</ele>
        <time>2018-11-26T03:43:42Z</time>
      </trkpt>
      <trkpt lat="42.38492" lon="2.65532">
        <ele>1008.2</ele>
        <time>2018-11-26T03:43:43Z</time>
      </trkpt>
      <trkpt lat="42.38493" lon="2.65532">
        <ele>1008.3</ele>
        <time>2018-11-26T03:43:44Z</time>
      </trkpt>
      <trkpt lat="42.38507" lon="2.65525">
        <ele>1008.4</ele>
        <time>2018-11-26T03:43:50Z</time>
      </trkpt>
      <trkpt lat="42.38509" lon="2.65525">
        <ele>1008.5</ele>
        <time>2018-11-26T03:43:50Z</time>
      </trkpt>
      <trkpt lat="42.3851" lon="2.65524">
        <ele>1008.8</ele>
        <time>2018-11-26T03:43:51Z</time>
      </trkpt>
      <trkpt lat="42.38511" lon="2.65524">
        <ele>1009.1</ele>
        <time>2018-11-26T03:43:51Z</time>
      </trkpt>
      <trkpt lat="42.38514" lon="2.65523">
        <ele>1008.9</ele>
        <time>2018-11-26T03:43:53Z</time>
      </trkpt>
      <trkpt lat="42.38518" lon="2.65521">
        <ele>1008.4</ele>
        <time>2018-11-26T03:43:54Z</time>
      </trkpt>
      <trkpt lat="42.38519" lon="2.65521">
        <ele>1008.7</ele>
        <time>2018-11-26T03:43:55Z</time>
      </trkpt>
      <trkpt lat="42.38521" lon="2.6552">
        <ele>1009.4</ele>
        <time>2018-11-26T03:43:56Z</time>
      </trkpt>
      <trkpt lat="42.38523" lon="2.6552">
        <ele>1009.3</ele>
        <time>2018-11-26T03:43:56Z</time>
      </trkpt>
      <trkpt lat="42.38525" lon="2.65519">
        <ele>1008.9</ele>
        <time>2018-11-26T03:43:57Z</time>
      </trkpt>
      <trkpt lat="42.38526" lon="2.65518">
        <ele>1008.9</ele>
        <time>2018-11-26T03:43:58Z</time>
      </trkpt>
      <trkpt lat="42.3853" lon="2.65518">
        <ele>1008.6</ele>
        <time>2018-11-26T03:43:59Z</time>
      </trkpt>
      <trkpt lat="42.38531" lon="2.65518">
        <ele>1008.7</ele>
        <time>2018-11-26T03:44:00Z</time>
      </trkpt>
      <trkpt lat="42.38533" lon="2.65518">
        <ele>1009</ele>
        <time>2018-11-26T03:44:01Z</time>
      </trkpt>
      <trkpt lat="42.38537" lon="2.65518">
        <ele>1008.6</ele>
        <time>2018-11-26T03:44:02Z</time>
      </trkpt>
      <trkpt lat="42.38542" lon="2.65518">
        <ele>1008.9</ele>
        <time>2018-11-26T03:44:04Z</time>
      </trkpt>
      <trkpt lat="42.38543" lon="2.65518">
        <ele>1009</ele>
        <time>2018-11-26T03:44:05Z</time>
      </trkpt>
      <trkpt lat="42.38545" lon="2.65518">
        <ele>1009.1</ele>
        <time>2018-11-26T03:44:05Z</time>
      </trkpt>
      <trkpt lat="42.38549" lon="2.6552">
        <ele>1009</ele>
        <time>2018-11-26T03:44:07Z</time>
      </trkpt>
      <trkpt lat="42.38556" lon="2.65524">
        <ele>1008.9</ele>
        <time>2018-11-26T03:44:10Z</time>
      </trkpt>
      <trkpt lat="42.3856" lon="2.65526">
        <ele>1009.1</ele>
        <time>2018-11-26T03:44:12Z</time>
      </trkpt>
      <trkpt lat="42.38569" lon="2.65532">
        <ele>1008.4</ele>
        <time>2018-11-26T03:44:16Z</time>
      </trkpt>
      <trkpt lat="42.38578" lon="2.6554">
        <ele>1009.5</ele>
        <time>2018-11-26T03:44:20Z</time>
      </trkpt>
      <trkpt lat="42.38586" lon="2.65547">
        <ele>1009.3</ele>
        <time>2018-11-26T03:44:24Z</time>
      </trkpt>
      <trkpt lat="42.38588" lon="2.65548">
        <ele>1009.7</ele>
        <time>2018-11-26T03:44:25Z</time>
      </trkpt>
      <trkpt lat="42.3859" lon="2.65552">
        <ele>1009.5</ele>
        <time>2018-11-26T03:44:26Z</time>
      </trkpt>
      <trkpt lat="42.38595" lon="2.65559">
        <ele>1009.3</ele>
        <time>2018-11-26T03:44:29Z</time>
      </trkpt>
      <trkpt lat="42.38596" lon="2.6556">
        <ele>1009.3</ele>
        <time>2018-11-26T03:44:29Z</time>
      </trkpt>
      <trkpt lat="42.38609" lon="2.65582">
        <ele>1011.2</ele>
        <time>2018-11-26T03:44:38Z</time>
      </trkpt>
      <trkpt lat="42.38611" lon="2.65585">
        <ele>1011.7</ele>
        <time>2018-11-26T03:44:39Z</time>
      </trkpt>
      <trkpt lat="42.38612" lon="2.65587">
        <ele>1011.6</ele>
        <time>2018-11-26T03:44:39Z</time>
      </trkpt>
      <trkpt lat="42.38612" lon="2.65588">
        <ele>1011.7</ele>
        <time>2018-11-26T03:44:40Z</time>
      </trkpt>
      <trkpt lat="42.38613" lon="2.65589">
        <ele>1011.5</ele>
        <time>2018-11-26T03:44:40Z</time>
      </trkpt>
      <trkpt lat="42.38615" lon="2.65593">
        <ele>1011.1</ele>
        <time>2018-11-26T03:44:42Z</time>
      </trkpt>
      <trkpt lat="42.38631" lon="2.65615">
        <ele>1012.9</ele>
        <time>2018-11-26T03:44:51Z</time>
      </trkpt>
      <trkpt lat="42.38633" lon="2.65618">
        <ele>1013.4</ele>
        <time>2018-11-26T03:44:52Z</time>
      </trkpt>
      <trkpt lat="42.38634" lon="2.6562">
        <ele>1013.3</ele>
        <time>2018-11-26T03:44:53Z</time>
      </trkpt>
      <trkpt lat="42.38635" lon="2.65621">
        <ele>1013</ele>
        <time>2018-11-26T03:44:53Z</time>
      </trkpt>
      <trkpt lat="42.38636" lon="2.65622">
        <ele>1013</ele>
        <time>2018-11-26T03:44:54Z</time>
      </trkpt>
      <trkpt lat="42.38636" lon="2.65623">
        <ele>1012.9</ele>
        <time>2018-11-26T03:44:54Z</time>
      </trkpt>
      <trkpt lat="42.38645" lon="2.65635">
        <ele>1013.6</ele>
        <time>2018-11-26T03:44:59Z</time>
      </trkpt>
      <trkpt lat="42.38646" lon="2.65637">
        <ele>1013.6</ele>
        <time>2018-11-26T03:45:00Z</time>
      </trkpt>
      <trkpt lat="42.38659" lon="2.65653">
        <ele>1014.3</ele>
        <time>2018-11-26T03:45:07Z</time>
      </trkpt>
      <trkpt lat="42.3866" lon="2.65654">
        <ele>1014.2</ele>
        <time>2018-11-26T03:45:07Z</time>
      </trkpt>
      <trkpt lat="42.3866" lon="2.65654">
        <ele>1014.3</ele>
        <time>2018-11-26T03:45:07Z</time>
      </trkpt>
      <trkpt lat="42.3866" lon="2.65655">
        <ele>1014.2</ele>
        <time>2018-11-26T03:45:08Z</time>
      </trkpt>
      <trkpt lat="42.38661" lon="2.65656">
        <ele>1014.3</ele>
        <time>2018-11-26T03:45:08Z</time>
      </trkpt>
      <trkpt lat="42.38665" lon="2.65661">
        <ele>1014.1</ele>
        <time>2018-11-26T03:45:10Z</time>
      </trkpt>
      <trkpt lat="42.38666" lon="2.65663">
        <ele>1014.2</ele>
        <time>2018-11-26T03:45:11Z</time>
      </trkpt>
      <trkpt lat="42.3867" lon="2.65668">
        <ele>1014.2</ele>
        <time>2018-11-26T03:45:13Z</time>
      </trkpt>
      <trkpt lat="42.38677" lon="2.65675">
        <ele>1014</ele>
        <time>2018-11-26T03:45:17Z</time>
      </trkpt>
      <trkpt lat="42.38684" lon="2.65682">
        <ele>1014.5</ele>
        <time>2018-11-26T03:45:20Z</time>
      </trkpt>
      <trkpt lat="42.38687" lon="2.65686">
        <ele>1013.8</ele>
        <time>2018-11-26T03:45:22Z</time>
      </trkpt>
      <trkpt lat="42.38689" lon="2.65687">
        <ele>1014</ele>
        <time>2018-11-26T03:45:23Z</time>
      </trkpt>
      <trkpt lat="42.3869" lon="2.65688">
        <ele>1014.2</ele>
        <time>2018-11-26T03:45:23Z</time>
      </trkpt>
      <trkpt lat="42.38692" lon="2.6569">
        <ele>1014.2</ele>
        <time>2018-11-26T03:45:24Z</time>
      </trkpt>
      <trkpt lat="42.38698" lon="2.65699">
        <ele>1013.9</ele>
        <time>2018-11-26T03:45:28Z</time>
      </trkpt>
      <trkpt lat="42.387" lon="2.65702">
        <ele>1013.5</ele>
        <time>2018-11-26T03:45:29Z</time>
      </trkpt>
      <trkpt lat="42.387" lon="2.65703">
        <ele>1013.7</ele>
        <time>2018-11-26T03:45:29Z</time>
      </trkpt>
      <trkpt lat="42.38705" lon="2.65713">
        <ele>1013.7</ele>
        <time>2018-11-26T03:45:33Z</time>
      </trkpt>
      <trkpt lat="42.38705" lon="2.65715">
        <ele>1014</ele>
        <time>2018-11-26T03:45:33Z</time>
      </trkpt>
      <trkpt lat="42.38716" lon="2.65733">
        <ele>1014.7</ele>
        <time>2018-11-26T03:45:40Z</time>
      </trkpt>
      <trkpt lat="42.38727" lon="2.6575">
        <ele>1013.5</ele>
        <time>2018-11-26T03:45:47Z</time>
      </trkpt>
      <trkpt lat="42.38735" lon="2.65764">
        <ele>1013.5</ele>
        <time>2018-11-26T03:45:52Z</time>
      </trkpt>
      <trkpt lat="42.38735" lon="2.65765">
        <ele>1013.5</ele>
        <time>2018-11-26T03:45:52Z</time>
      </trkpt>
      <trkpt lat="42.38736" lon="2.65766">
        <ele>1013.5</ele>
        <time>2018-11-26T03:45:53Z</time>
      </trkpt>
      <trkpt lat="42.38739" lon="2.65771">
        <ele>1013.4</ele>
        <time>2018-11-26T03:45:55Z</time>
      </trkpt>
      <trkpt lat="42.38741" lon="2.65776">
        <ele>1013.6</ele>
        <time>2018-11-26T03:45:56Z</time>
      </trkpt>
      <trkpt lat="42.38742" lon="2.65778">
        <ele>1013.9</ele>
        <time>2018-11-26T03:45:57Z</time>
      </trkpt>
      <trkpt lat="42.38742" lon="2.65779">
        <ele>1013.9</ele>
        <time>2018-11-26T03:45:57Z</time>
      </trkpt>
      <trkpt lat="42.38743" lon="2.6578">
        <ele>1013.8</ele>
        <time>2018-11-26T03:45:58Z</time>
      </trkpt>
      <trkpt lat="42.38744" lon="2.65781">
        <ele>1013.7</ele>
        <time>2018-11-26T03:45:58Z</time>
      </trkpt>
      <trkpt lat="42.38745" lon="2.65782">
        <ele>1013.7</ele>
        <time>2018-11-26T03:45:59Z</time>
      </trkpt>
      <trkpt lat="42.38746" lon="2.65782">
        <ele>1013.8</ele>
        <time>2018-11-26T03:45:59Z</time>
      </trkpt>
      <trkpt lat="42.38747" lon="2.65783">
        <ele>1014</ele>
        <time>2018-11-26T03:45:59Z</time>
      </trkpt>
      <trkpt lat="42.38747" lon="2.65783">
        <ele>1013.9</ele>
        <time>2018-11-26T03:46:00Z</time>
      </trkpt>
      <trkpt lat="42.38747" lon="2.65784">
        <ele>1013.7</ele>
        <time>2018-11-26T03:46:00Z</time>
      </trkpt>
      <trkpt lat="42.38746" lon="2.65785">
        <ele>1013.3</ele>
        <time>2018-11-26T03:46:00Z</time>
      </trkpt>
      <trkpt lat="42.38746" lon="2.65786">
        <ele>1013.3</ele>
        <time>2018-11-26T03:46:00Z</time>
      </trkpt>
      <trkpt lat="42.38746" lon="2.65786">
        <ele>1013.4</ele>
        <time>2018-11-26T03:46:01Z</time>
      </trkpt>
      <trkpt lat="42.38746" lon="2.65787">
        <ele>1013.3</ele>
        <time>2018-11-26T03:46:01Z</time>
      </trkpt>
      <trkpt lat="42.38747" lon="2.65787">
        <ele>1013.2</ele>
        <time>2018-11-26T03:46:01Z</time>
      </trkpt>
      <trkpt lat="42.38747" lon="2.65787">
        <ele>1013.2</ele>
        <time>2018-11-26T03:46:01Z</time>
      </trkpt>
      <trkpt lat="42.38747" lon="2.65787">
        <ele>1013.1</ele>
        <time>2018-11-26T03:46:01Z</time>
      </trkpt>
      <trkpt lat="42.38747" lon="2.65787">
        <ele>1013.1</ele>
        <time>2018-11-26T03:46:01Z</time>
      </trkpt>
      <trkpt lat="42.38747" lon="2.65787">
        <ele>1013.1</ele>
        <time>2018-11-26T03:46:01Z</time>
      </trkpt>
      <trkpt lat="42.38747" lon="2.65787">
        <ele>1013.2</ele>
        <time>2018-11-26T03:46:01Z</time>
      </trkpt>
      <trkpt lat="42.38747" lon="2.65787">
        <ele>1013.3</ele>
        <time>2018-11-26T03:46:01Z</time>
      </trkpt>
      <trkpt lat="42.38747" lon="2.65788">
        <ele>1013.3</ele>
        <time>2018-11-26T03:46:01Z</time>
      </trkpt>
      <trkpt lat="42.38747" lon="2.65788">
        <ele>1013.4</ele>
        <time>2018-11-26T03:46:01Z</time>
      </trkpt>
      <trkpt lat="42.38747" lon="2.65789">
        <ele>1013.2</ele>
        <time>2018-11-26T03:46:01Z</time>
      </trkpt>
      <trkpt lat="42.38747" lon="2.65789">
        <ele>1013</ele>
        <time>2018-11-26T03:46:02Z</time>
      </trkpt>
      <trkpt lat="42.38747" lon="2.6579">
        <ele>1012.7</ele>
        <time>2018-11-26T03:46:02Z</time>
      </trkpt>
      <trkpt lat="42.38747" lon="2.65791">
        <ele>1012.2</ele>
        <time>2018-11-26T03:46:02Z</time>
      </trkpt>
      <trkpt lat="42.38747" lon="2.65791">
        <ele>1012.4</ele>
        <time>2018-11-26T03:46:02Z</time>
      </trkpt>
      <trkpt lat="42.38747" lon="2.65792">
        <ele>1012.4</ele>
        <time>2018-11-26T03:46:03Z</time>
      </trkpt>
      <trkpt lat="42.38748" lon="2.65794">
        <ele>1012.5</ele>
        <time>2018-11-26T03:46:03Z</time>
      </trkpt>
      <trkpt lat="42.38748" lon="2.65795">
        <ele>1012.5</ele>
        <time>2018-11-26T03:46:03Z</time>
      </trkpt>
      <trkpt lat="42.38748" lon="2.65796">
        <ele>1012.5</ele>
        <time>2018-11-26T03:46:04Z</time>
      </trkpt>
      <trkpt lat="42.38749" lon="2.65797">
        <ele>1012.5</ele>
        <time>2018-11-26T03:46:04Z</time>
      </trkpt>
      <trkpt lat="42.38749" lon="2.65799">
        <ele>1012.6</ele>
        <time>2018-11-26T03:46:05Z</time>
      </trkpt>
      <trkpt lat="42.38749" lon="2.65801">
        <ele>1012.8</ele>
        <time>2018-11-26T03:46:05Z</time>
      </trkpt>
      <trkpt lat="42.38749" lon="2.65802">
        <ele>1012.9</ele>
        <time>2018-11-26T03:46:06Z</time>
      </trkpt>
      <trkpt lat="42.38749" lon="2.65804">
        <ele>1012.8</ele>
        <time>2018-11-26T03:46:06Z</time>
      </trkpt>
      <trkpt lat="42.38749" lon="2.65805">
        <ele>1012.4</ele>
        <time>2018-11-26T03:46:07Z</time>
      </trkpt>
      <trkpt lat="42.38749" lon="2.65807">
        <ele>1012.1</ele>
        <time>2018-11-26T03:46:07Z</time>
      </trkpt>
      <trkpt lat="42.38747" lon="2.6581">
        <ele>1011.1</ele>
        <time>2018-11-26T03:46:08Z</time>
      </trkpt>
      <trkpt lat="42.38747" lon="2.65811">
        <ele>1010.9</ele>
        <time>2018-11-26T03:46:09Z</time>
      </trkpt>
      <trkpt lat="42.38747" lon="2.65813">
        <ele>1010.7</ele>
        <time>2018-11-26T03:46:09Z</time>
      </trkpt>
      <trkpt lat="42.38746" lon="2.65814">
        <ele>1010.6</ele>
        <time>2018-11-26T03:46:09Z</time>
      </trkpt>
      <trkpt lat="42.38746" lon="2.65815">
        <ele>1010.6</ele>
        <time>2018-11-26T03:46:10Z</time>
      </trkpt>
      <trkpt lat="42.38745" lon="2.65816">
        <ele>1010.9</ele>
        <time>2018-11-26T03:46:10Z</time>
      </trkpt>
      <trkpt lat="42.38745" lon="2.65817">
        <ele>1011.1</ele>
        <time>2018-11-26T03:46:11Z</time>
      </trkpt>
      <trkpt lat="42.38743" lon="2.65821">
        <ele>1010.6</ele>
        <time>2018-11-26T03:46:12Z</time>
      </trkpt>
      <trkpt lat="42.38742" lon="2.65823">
        <ele>1010.1</ele>
        <time>2018-11-26T03:46:13Z</time>
      </trkpt>
      <trkpt lat="42.38741" lon="2.65824">
        <ele>1009.7</ele>
        <time>2018-11-26T03:46:13Z</time>
      </trkpt>
      <trkpt lat="42.38741" lon="2.65825">
        <ele>1009.2</ele>
        <time>2018-11-26T03:46:13Z</time>
      </trkpt>
      <trkpt lat="42.3874" lon="2.65825">
        <ele>1009</ele>
        <time>2018-11-26T03:46:14Z</time>
      </trkpt>
      <trkpt lat="42.38739" lon="2.65826">
        <ele>1008.8</ele>
        <time>2018-11-26T03:46:14Z</time>
      </trkpt>
      <trkpt lat="42.38739" lon="2.65827">
        <ele>1008.6</ele>
        <time>2018-11-26T03:46:14Z</time>
      </trkpt>
      <trkpt lat="42.38738" lon="2.65828">
        <ele>1008.6</ele>
        <time>2018-11-26T03:46:15Z</time>
      </trkpt>
      <trkpt lat="42.38737" lon="2.6583">
        <ele>1009.1</ele>
        <time>2018-11-26T03:46:15Z</time>
      </trkpt>
      <trkpt lat="42.38736" lon="2.65831">
        <ele>1008.8</ele>
        <time>2018-11-26T03:46:16Z</time>
      </trkpt>
      <trkpt lat="42.38736" lon="2.65832">
        <ele>1008.5</ele>
        <time>2018-11-26T03:46:16Z</time>
      </trkpt>
      <trkpt lat="42.38735" lon="2.65833">
        <ele>1008.1</ele>
        <time>2018-11-26T03:46:17Z</time>
      </trkpt>
      <trkpt lat="42.38735" lon="2.65834">
        <ele>1008.1</ele>
        <time>2018-11-26T03:46:17Z</time>
      </trkpt>
      <trkpt lat="42.38734" lon="2.65836">
        <ele>1007.8</ele>
        <time>2018-11-26T03:46:18Z</time>
      </trkpt>
      <trkpt lat="42.38733" lon="2.65837">
        <ele>1007.4</ele>
        <time>2018-11-26T03:46:18Z</time>
      </trkpt>
      <trkpt lat="42.38733" lon="2.65838">
        <ele>1007.6</ele>
        <time>2018-11-26T03:46:18Z</time>
      </trkpt>
      <trkpt lat="42.38732" lon="2.65839">
        <ele>1007.7</ele>
        <time>2018-11-26T03:46:19Z</time>
      </trkpt>
      <trkpt lat="42.38732" lon="2.6584">
        <ele>1008</ele>
        <time>2018-11-26T03:46:19Z</time>
      </trkpt>
      <trkpt lat="42.38731" lon="2.65841">
        <ele>1008</ele>
        <time>2018-11-26T03:46:19Z</time>
      </trkpt>
      <trkpt lat="42.38731" lon="2.65841">
        <ele>1007.8</ele>
        <time>2018-11-26T03:46:20Z</time>
      </trkpt>
      <trkpt lat="42.38731" lon="2.65841">
        <ele>1007.8</ele>
        <time>2018-11-26T03:46:20Z</time>
      </trkpt>
      <trkpt lat="42.38731" lon="2.65842">
        <ele>1007.6</ele>
        <time>2018-11-26T03:46:20Z</time>
      </trkpt>
      <trkpt lat="42.38729" lon="2.65846">
        <ele>1006.4</ele>
        <time>2018-11-26T03:46:21Z</time>
      </trkpt>
      <trkpt lat="42.38728" lon="2.65847">
        <ele>1006.1</ele>
        <time>2018-11-26T03:46:22Z</time>
      </trkpt>
      <trkpt lat="42.38727" lon="2.65849">
        <ele>1006</ele>
        <time>2018-11-26T03:46:22Z</time>
      </trkpt>
      <trkpt lat="42.38726" lon="2.65851">
        <ele>1005.8</ele>
        <time>2018-11-26T03:46:23Z</time>
      </trkpt>
      <trkpt lat="42.38725" lon="2.65853">
        <ele>1005.6</ele>
        <time>2018-11-26T03:46:24Z</time>
      </trkpt>
      <trkpt lat="42.38725" lon="2.65854">
        <ele>1005.5</ele>
        <time>2018-11-26T03:46:24Z</time>
      </trkpt>
      <trkpt lat="42.38724" lon="2.65855">
        <ele>1005.5</ele>
        <time>2018-11-26T03:46:25Z</time>
      </trkpt>
      <trkpt lat="42.38724" lon="2.65856">
        <ele>1005.5</ele>
        <time>2018-11-26T03:46:25Z</time>
      </trkpt>
      <trkpt lat="42.38723" lon="2.65857">
        <ele>1005.5</ele>
        <time>2018-11-26T03:46:25Z</time>
      </trkpt>
      <trkpt lat="42.38722" lon="2.65861">
        <ele>1005.3</ele>
        <time>2018-11-26T03:46:27Z</time>
      </trkpt>
      <trkpt lat="42.38721" lon="2.65862">
        <ele>1005</ele>
        <time>2018-11-26T03:46:27Z</time>
      </trkpt>
      <trkpt lat="42.38721" lon="2.65863">
        <ele>1004.5</ele>
        <time>2018-11-26T03:46:27Z</time>
      </trkpt>
      <trkpt lat="42.3872" lon="2.65864">
        <ele>1003.8</ele>
        <time>2018-11-26T03:46:28Z</time>
      </trkpt>
      <trkpt lat="42.3872" lon="2.65865">
        <ele>1003.7</ele>
        <time>2018-11-26T03:46:28Z</time>
      </trkpt>
      <trkpt lat="42.38719" lon="2.65866">
        <ele>1003.8</ele>
        <time>2018-11-26T03:46:28Z</time>
      </trkpt>
      <trkpt lat="42.38719" lon="2.65867">
        <ele>1003.7</ele>
        <time>2018-11-26T03:46:29Z</time>
      </trkpt>
      <trkpt lat="42.38718" lon="2.65868">
        <ele>1003.5</ele>
        <time>2018-11-26T03:46:29Z</time>
      </trkpt>
      <trkpt lat="42.38718" lon="2.6587">
        <ele>1003.1</ele>
        <time>2018-11-26T03:46:30Z</time>
      </trkpt>
      <trkpt lat="42.38717" lon="2.65871">
        <ele>1003</ele>
        <time>2018-11-26T03:46:30Z</time>
      </trkpt>
      <trkpt lat="42.38717" lon="2.65872">
        <ele>1002.8</ele>
        <time>2018-11-26T03:46:31Z</time>
      </trkpt>
      <trkpt lat="42.38716" lon="2.65873">
        <ele>1002.4</ele>
        <time>2018-11-26T03:46:31Z</time>
      </trkpt>
      <trkpt lat="42.38716" lon="2.65874">
        <ele>1001.9</ele>
        <time>2018-11-26T03:46:31Z</time>
      </trkpt>
      <trkpt lat="42.38715" lon="2.65875">
        <ele>1001.9</ele>
        <time>2018-11-26T03:46:32Z</time>
      </trkpt>
      <trkpt lat="42.38715" lon="2.65876">
        <ele>1002</ele>
        <time>2018-11-26T03:46:32Z</time>
      </trkpt>
      <trkpt lat="42.38714" lon="2.65877">
        <ele>1002</ele>
        <time>2018-11-26T03:46:32Z</time>
      </trkpt>
      <trkpt lat="42.38714" lon="2.65878">
        <ele>1002.2</ele>
        <time>2018-11-26T03:46:33Z</time>
      </trkpt>
      <trkpt lat="42.38714" lon="2.65879">
        <ele>1002.2</ele>
        <time>2018-11-26T03:46:33Z</time>
      </trkpt>
      <trkpt lat="42.38713" lon="2.6588">
        <ele>1002.5</ele>
        <time>2018-11-26T03:46:33Z</time>
      </trkpt>
      <trkpt lat="42.38713" lon="2.65881">
        <ele>1002.3</ele>
        <time>2018-11-26T03:46:34Z</time>
      </trkpt>
      <trkpt lat="42.38713" lon="2.65882">
        <ele>1001.9</ele>
        <time>2018-11-26T03:46:34Z</time>
      </trkpt>
      <trkpt lat="42.38712" lon="2.65883">
        <ele>1001.4</ele>
        <time>2018-11-26T03:46:34Z</time>
      </trkpt>
      <trkpt lat="42.38712" lon="2.65884">
        <ele>1001.3</ele>
        <time>2018-11-26T03:46:35Z</time>
      </trkpt>
      <trkpt lat="42.38711" lon="2.65887">
        <ele>1000.7</ele>
        <time>2018-11-26T03:46:35Z</time>
      </trkpt>
      <trkpt lat="42.3871" lon="2.65888">
        <ele>1000.4</ele>
        <time>2018-11-26T03:46:36Z</time>
      </trkpt>
      <trkpt lat="42.3871" lon="2.65889">
        <ele>1000.2</ele>
        <time>2018-11-26T03:46:36Z</time>
      </trkpt>
      <trkpt lat="42.3871" lon="2.6589">
        <ele>1000.2</ele>
        <time>2018-11-26T03:46:37Z</time>
      </trkpt>
      <trkpt lat="42.38709" lon="2.65891">
        <ele>1000</ele>
        <time>2018-11-26T03:46:37Z</time>
      </trkpt>
      <trkpt lat="42.38709" lon="2.65892">
        <ele>999.9</ele>
        <time>2018-11-26T03:46:37Z</time>
      </trkpt>
      <trkpt lat="42.38708" lon="2.65895">
        <ele>1000</ele>
        <time>2018-11-26T03:46:38Z</time>
      </trkpt>
      <trkpt lat="42.38708" lon="2.65896">
        <ele>999.8</ele>
        <time>2018-11-26T03:46:38Z</time>
      </trkpt>
      <trkpt lat="42.38707" lon="2.65897">
        <ele>999.6</ele>
        <time>2018-11-26T03:46:39Z</time>
      </trkpt>
      <trkpt lat="42.38707" lon="2.65898">
        <ele>999.1</ele>
        <time>2018-11-26T03:46:39Z</time>
      </trkpt>
      <trkpt lat="42.38706" lon="2.65899">
        <ele>999.1</ele>
        <time>2018-11-26T03:46:39Z</time>
      </trkpt>
      <trkpt lat="42.38706" lon="2.65901">
        <ele>999</ele>
        <time>2018-11-26T03:46:40Z</time>
      </trkpt>
      <trkpt lat="42.38705" lon="2.65904">
        <ele>999.2</ele>
        <time>2018-11-26T03:46:41Z</time>
      </trkpt>
      <trkpt lat="42.38704" lon="2.65906">
        <ele>999.5</ele>
        <time>2018-11-26T03:46:42Z</time>
      </trkpt>
      <trkpt lat="42.38703" lon="2.65909">
        <ele>999</ele>
        <time>2018-11-26T03:46:43Z</time>
      </trkpt>
      <trkpt lat="42.38702" lon="2.65912">
        <ele>998.4</ele>
        <time>2018-11-26T03:46:44Z</time>
      </trkpt>
      <trkpt lat="42.38702" lon="2.65913">
        <ele>998.2</ele>
        <time>2018-11-26T03:46:44Z</time>
      </trkpt>
      <trkpt lat="42.38702" lon="2.65914">
        <ele>998</ele>
        <time>2018-11-26T03:46:44Z</time>
      </trkpt>
      <trkpt lat="42.38701" lon="2.65915">
        <ele>997.6</ele>
        <time>2018-11-26T03:46:45Z</time>
      </trkpt>
      <trkpt lat="42.38701" lon="2.65918">
        <ele>997.4</ele>
        <time>2018-11-26T03:46:45Z</time>
      </trkpt>
      <trkpt lat="42.38698" lon="2.65926">
        <ele>996</ele>
        <time>2018-11-26T03:46:48Z</time>
      </trkpt>
      <trkpt lat="42.38697" lon="2.65928">
        <ele>995.4</ele>
        <time>2018-11-26T03:46:49Z</time>
      </trkpt>
      <trkpt lat="42.38696" lon="2.65931">
        <ele>995.7</ele>
        <time>2018-11-26T03:46:50Z</time>
      </trkpt>
      <trkpt lat="42.38696" lon="2.65932">
        <ele>995.9</ele>
        <time>2018-11-26T03:46:50Z</time>
      </trkpt>
      <trkpt lat="42.38695" lon="2.65933">
        <ele>996</ele>
        <time>2018-11-26T03:46:51Z</time>
      </trkpt>
      <trkpt lat="42.38695" lon="2.65934">
        <ele>996</ele>
        <time>2018-11-26T03:46:51Z</time>
      </trkpt>
      <trkpt lat="42.38695" lon="2.65935">
        <ele>996.2</ele>
        <time>2018-11-26T03:46:51Z</time>
      </trkpt>
      <trkpt lat="42.38694" lon="2.65939">
        <ele>995.5</ele>
        <time>2018-11-26T03:46:52Z</time>
      </trkpt>
      <trkpt lat="42.38692" lon="2.65944">
        <ele>994.1</ele>
        <time>2018-11-26T03:46:54Z</time>
      </trkpt>
      <trkpt lat="42.38691" lon="2.65946">
        <ele>994</ele>
        <time>2018-11-26T03:46:55Z</time>
      </trkpt>
      <trkpt lat="42.38691" lon="2.65949">
        <ele>993.8</ele>
        <time>2018-11-26T03:46:56Z</time>
      </trkpt>
      <trkpt lat="42.3869" lon="2.6595">
        <ele>993.6</ele>
        <time>2018-11-26T03:46:56Z</time>
      </trkpt>
      <trkpt lat="42.3869" lon="2.65951">
        <ele>993.4</ele>
        <time>2018-11-26T03:46:56Z</time>
      </trkpt>
      <trkpt lat="42.3869" lon="2.65952">
        <ele>993.1</ele>
        <time>2018-11-26T03:46:57Z</time>
      </trkpt>
      <trkpt lat="42.38688" lon="2.65958">
        <ele>992.8</ele>
        <time>2018-11-26T03:46:59Z</time>
      </trkpt>
      <trkpt lat="42.38687" lon="2.65962">
        <ele>992.3</ele>
        <time>2018-11-26T03:47:00Z</time>
      </trkpt>
      <trkpt lat="42.38685" lon="2.65971">
        <ele>992.7</ele>
        <time>2018-11-26T03:47:03Z</time>
      </trkpt>
      <trkpt lat="42.38683" lon="2.65988">
        <ele>990.9</ele>
        <time>2018-11-26T03:47:07Z</time>
      </trkpt>
      <trkpt lat="42.38683" lon="2.65989">
        <ele>990</ele>
        <time>2018-11-26T03:47:08Z</time>
      </trkpt>
      <trkpt lat="42.38682" lon="2.65993">
        <ele>989.5</ele>
        <time>2018-11-26T03:47:09Z</time>
      </trkpt>
      <trkpt lat="42.38682" lon="2.65996">
        <ele>989.2</ele>
        <time>2018-11-26T03:47:10Z</time>
      </trkpt>
      <trkpt lat="42.38682" lon="2.65997">
        <ele>989.1</ele>
        <time>2018-11-26T03:47:10Z</time>
      </trkpt>
      <trkpt lat="42.38682" lon="2.65999">
        <ele>989.1</ele>
        <time>2018-11-26T03:47:11Z</time>
      </trkpt>
      <trkpt lat="42.38682" lon="2.66">
        <ele>989.2</ele>
        <time>2018-11-26T03:47:11Z</time>
      </trkpt>
      <trkpt lat="42.38682" lon="2.66002">
        <ele>989.3</ele>
        <time>2018-11-26T03:47:12Z</time>
      </trkpt>
      <trkpt lat="42.38682" lon="2.66003">
        <ele>989.2</ele>
        <time>2018-11-26T03:47:12Z</time>
      </trkpt>
      <trkpt lat="42.38682" lon="2.66005">
        <ele>989.2</ele>
        <time>2018-11-26T03:47:13Z</time>
      </trkpt>
      <trkpt lat="42.38682" lon="2.66006">
        <ele>989.1</ele>
        <time>2018-11-26T03:47:13Z</time>
      </trkpt>
      <trkpt lat="42.38682" lon="2.66012">
        <ele>989.5</ele>
        <time>2018-11-26T03:47:15Z</time>
      </trkpt>
      <trkpt lat="42.38682" lon="2.66014">
        <ele>989.3</ele>
        <time>2018-11-26T03:47:15Z</time>
      </trkpt>
      <trkpt lat="42.38682" lon="2.66019">
        <ele>988.7</ele>
        <time>2018-11-26T03:47:17Z</time>
      </trkpt>
      <trkpt lat="42.38682" lon="2.66023">
        <ele>988.7</ele>
        <time>2018-11-26T03:47:18Z</time>
      </trkpt>
      <trkpt lat="42.38682" lon="2.66032">
        <ele>988</ele>
        <time>2018-11-26T03:47:21Z</time>
      </trkpt>
      <trkpt lat="42.38682" lon="2.66047">
        <ele>987.6</ele>
        <time>2018-11-26T03:47:25Z</time>
      </trkpt>
      <trkpt lat="42.38681" lon="2.6606">
        <ele>986.5</ele>
        <time>2018-11-26T03:47:29Z</time>
      </trkpt>
      <trkpt lat="42.38681" lon="2.66063">
        <ele>986</ele>
        <time>2018-11-26T03:47:30Z</time>
      </trkpt>
      <trkpt lat="42.38681" lon="2.66065">
        <ele>985.9</ele>
        <time>2018-11-26T03:47:30Z</time>
      </trkpt>
      <trkpt lat="42.38681" lon="2.66066">
        <ele>985.6</ele>
        <time>2018-11-26T03:47:31Z</time>
      </trkpt>
      <trkpt lat="42.38681" lon="2.66067">
        <ele>985.3</ele>
        <time>2018-11-26T03:47:31Z</time>
      </trkpt>
      <trkpt lat="42.38681" lon="2.66069">
        <ele>985</ele>
        <time>2018-11-26T03:47:32Z</time>
      </trkpt>
      <trkpt lat="42.3868" lon="2.66073">
        <ele>984.6</ele>
        <time>2018-11-26T03:47:33Z</time>
      </trkpt>
      <trkpt lat="42.38679" lon="2.66079">
        <ele>984.8</ele>
        <time>2018-11-26T03:47:35Z</time>
      </trkpt>
      <trkpt lat="42.38679" lon="2.6608">
        <ele>984.8</ele>
        <time>2018-11-26T03:47:35Z</time>
      </trkpt>
      <trkpt lat="42.38671" lon="2.66108">
        <ele>982.3</ele>
        <time>2018-11-26T03:47:44Z</time>
      </trkpt>
      <trkpt lat="42.38668" lon="2.66117">
        <ele>981</ele>
        <time>2018-11-26T03:47:47Z</time>
      </trkpt>
      <trkpt lat="42.38665" lon="2.66123">
        <ele>980.8</ele>
        <time>2018-11-26T03:47:49Z</time>
      </trkpt>
      <trkpt lat="42.38664" lon="2.66127">
        <ele>980.9</ele>
        <time>2018-11-26T03:47:50Z</time>
      </trkpt>
      <trkpt lat="42.38661" lon="2.66134">
        <ele>980.3</ele>
        <time>2018-11-26T03:47:52Z</time>
      </trkpt>
      <trkpt lat="42.3866" lon="2.66137">
        <ele>979.6</ele>
        <time>2018-11-26T03:47:54Z</time>
      </trkpt>
      <trkpt lat="42.38658" lon="2.66141">
        <ele>979</ele>
        <time>2018-11-26T03:47:55Z</time>
      </trkpt>
      <trkpt lat="42.38654" lon="2.66148">
        <ele>978</ele>
        <time>2018-11-26T03:47:58Z</time>
      </trkpt>
      <trkpt lat="42.38645" lon="2.66161">
        <ele>977.6</ele>
        <time>2018-11-26T03:48:03Z</time>
      </trkpt>
      <trkpt lat="42.38644" lon="2.66162">
        <ele>977.6</ele>
        <time>2018-11-26T03:48:03Z</time>
      </trkpt>
      <trkpt lat="42.38636" lon="2.66176">
        <ele>976.4</ele>
        <time>2018-11-26T03:48:09Z</time>
      </trkpt>
      <trkpt lat="42.38628" lon="2.6619">
        <ele>974.5</ele>
        <time>2018-11-26T03:48:14Z</time>
      </trkpt>
      <trkpt lat="42.38626" lon="2.66193">
        <ele>973.5</ele>
        <time>2018-11-26T03:48:15Z</time>
      </trkpt>
      <trkpt lat="42.38624" lon="2.66196">
        <ele>973.6</ele>
        <time>2018-11-26T03:48:16Z</time>
      </trkpt>
      <trkpt lat="42.38624" lon="2.66197">
        <ele>973.6</ele>
        <time>2018-11-26T03:48:16Z</time>
      </trkpt>
      <trkpt lat="42.38622" lon="2.662">
        <ele>973.5</ele>
        <time>2018-11-26T03:48:18Z</time>
      </trkpt>
      <trkpt lat="42.38621" lon="2.66202">
        <ele>973.5</ele>
        <time>2018-11-26T03:48:18Z</time>
      </trkpt>
      <trkpt lat="42.38621" lon="2.66203">
        <ele>973.5</ele>
        <time>2018-11-26T03:48:19Z</time>
      </trkpt>
      <trkpt lat="42.3862" lon="2.66204">
        <ele>973.4</ele>
        <time>2018-11-26T03:48:19Z</time>
      </trkpt>
      <trkpt lat="42.3862" lon="2.66205">
        <ele>973.4</ele>
        <time>2018-11-26T03:48:19Z</time>
      </trkpt>
      <trkpt lat="42.38619" lon="2.66208">
        <ele>973.5</ele>
        <time>2018-11-26T03:48:20Z</time>
      </trkpt>
      <trkpt lat="42.38618" lon="2.66209">
        <ele>973.6</ele>
        <time>2018-11-26T03:48:21Z</time>
      </trkpt>
      <trkpt lat="42.38617" lon="2.6621">
        <ele>973.6</ele>
        <time>2018-11-26T03:48:21Z</time>
      </trkpt>
      <trkpt lat="42.38617" lon="2.66211">
        <ele>973.4</ele>
        <time>2018-11-26T03:48:21Z</time>
      </trkpt>
      <trkpt lat="42.38616" lon="2.66212">
        <ele>973.5</ele>
        <time>2018-11-26T03:48:22Z</time>
      </trkpt>
      <trkpt lat="42.38616" lon="2.66213">
        <ele>973.1</ele>
        <time>2018-11-26T03:48:22Z</time>
      </trkpt>
      <trkpt lat="42.38611" lon="2.66221">
        <ele>972.1</ele>
        <time>2018-11-26T03:48:25Z</time>
      </trkpt>
      <trkpt lat="42.3861" lon="2.66223">
        <ele>971.8</ele>
        <time>2018-11-26T03:48:26Z</time>
      </trkpt>
      <trkpt lat="42.38609" lon="2.66224">
        <ele>971.3</ele>
        <time>2018-11-26T03:48:26Z</time>
      </trkpt>
      <trkpt lat="42.38609" lon="2.66225">
        <ele>971.6</ele>
        <time>2018-11-26T03:48:27Z</time>
      </trkpt>
      <trkpt lat="42.38607" lon="2.66229">
        <ele>971.9</ele>
        <time>2018-11-26T03:48:28Z</time>
      </trkpt>
      <trkpt lat="42.38601" lon="2.66238">
        <ele>970.5</ele>
        <time>2018-11-26T03:48:32Z</time>
      </trkpt>
      <trkpt lat="42.386" lon="2.66241">
        <ele>970.5</ele>
        <time>2018-11-26T03:48:32Z</time>
      </trkpt>
      <trkpt lat="42.386" lon="2.66242">
        <ele>970.5</ele>
        <time>2018-11-26T03:48:33Z</time>
      </trkpt>
      <trkpt lat="42.386" lon="2.66243">
        <ele>970.4</ele>
        <time>2018-11-26T03:48:33Z</time>
      </trkpt>
      <trkpt lat="42.38598" lon="2.66246">
        <ele>969.3</ele>
        <time>2018-11-26T03:48:34Z</time>
      </trkpt>
      <trkpt lat="42.38598" lon="2.66247">
        <ele>969</ele>
        <time>2018-11-26T03:48:35Z</time>
      </trkpt>
      <trkpt lat="42.38597" lon="2.66249">
        <ele>968.8</ele>
        <time>2018-11-26T03:48:35Z</time>
      </trkpt>
      <trkpt lat="42.38596" lon="2.6625">
        <ele>968.6</ele>
        <time>2018-11-26T03:48:36Z</time>
      </trkpt>
      <trkpt lat="42.38596" lon="2.66251">
        <ele>968.7</ele>
        <time>2018-11-26T03:48:36Z</time>
      </trkpt>
      <trkpt lat="42.38596" lon="2.66252">
        <ele>968.6</ele>
        <time>2018-11-26T03:48:36Z</time>
      </trkpt>
      <trkpt lat="42.38595" lon="2.66253">
        <ele>968.7</ele>
        <time>2018-11-26T03:48:37Z</time>
      </trkpt>
      <trkpt lat="42.38595" lon="2.66253">
        <ele>968.6</ele>
        <time>2018-11-26T03:48:37Z</time>
      </trkpt>
      <trkpt lat="42.38595" lon="2.66254">
        <ele>968.7</ele>
        <time>2018-11-26T03:48:37Z</time>
      </trkpt>
      <trkpt lat="42.38594" lon="2.66256">
        <ele>968.8</ele>
        <time>2018-11-26T03:48:38Z</time>
      </trkpt>
      <trkpt lat="42.38593" lon="2.66259">
        <ele>968.7</ele>
        <time>2018-11-26T03:48:39Z</time>
      </trkpt>
      <trkpt lat="42.38593" lon="2.6626">
        <ele>968.8</ele>
        <time>2018-11-26T03:48:39Z</time>
      </trkpt>
      <trkpt lat="42.38593" lon="2.66261">
        <ele>968.6</ele>
        <time>2018-11-26T03:48:39Z</time>
      </trkpt>
      <trkpt lat="42.38592" lon="2.66262">
        <ele>968.5</ele>
        <time>2018-11-26T03:48:40Z</time>
      </trkpt>
      <trkpt lat="42.38592" lon="2.66263">
        <ele>968.3</ele>
        <time>2018-11-26T03:48:40Z</time>
      </trkpt>
      <trkpt lat="42.38591" lon="2.66265">
        <ele>968.1</ele>
        <time>2018-11-26T03:48:40Z</time>
      </trkpt>
      <trkpt lat="42.38591" lon="2.66266">
        <ele>967.6</ele>
        <time>2018-11-26T03:48:41Z</time>
      </trkpt>
      <trkpt lat="42.38591" lon="2.66267">
        <ele>967</ele>
        <time>2018-11-26T03:48:41Z</time>
      </trkpt>
      <trkpt lat="42.38591" lon="2.6627">
        <ele>967.1</ele>
        <time>2018-11-26T03:48:42Z</time>
      </trkpt>
      <trkpt lat="42.3859" lon="2.66271">
        <ele>967</ele>
        <time>2018-11-26T03:48:42Z</time>
      </trkpt>
      <trkpt lat="42.3859" lon="2.66272">
        <ele>967</ele>
        <time>2018-11-26T03:48:43Z</time>
      </trkpt>
      <trkpt lat="42.3859" lon="2.66273">
        <ele>967</ele>
        <time>2018-11-26T03:48:43Z</time>
      </trkpt>
      <trkpt lat="42.38589" lon="2.66274">
        <ele>966.8</ele>
        <time>2018-11-26T03:48:43Z</time>
      </trkpt>
      <trkpt lat="42.38589" lon="2.66275">
        <ele>966.8</ele>
        <time>2018-11-26T03:48:44Z</time>
      </trkpt>
      <trkpt lat="42.38589" lon="2.66279">
        <ele>966.7</ele>
        <time>2018-11-26T03:48:45Z</time>
      </trkpt>
      <trkpt lat="42.38588" lon="2.6628">
        <ele>966.9</ele>
        <time>2018-11-26T03:48:45Z</time>
      </trkpt>
      <trkpt lat="42.38588" lon="2.66281">
        <ele>967</ele>
        <time>2018-11-26T03:48:46Z</time>
      </trkpt>
      <trkpt lat="42.38588" lon="2.66282">
        <ele>967</ele>
        <time>2018-11-26T03:48:46Z</time>
      </trkpt>
      <trkpt lat="42.38588" lon="2.66284">
        <ele>966.7</ele>
        <time>2018-11-26T03:48:46Z</time>
      </trkpt>
      <trkpt lat="42.38587" lon="2.66293">
        <ele>965.4</ele>
        <time>2018-11-26T03:48:49Z</time>
      </trkpt>
      <trkpt lat="42.38587" lon="2.66295">
        <ele>965.5</ele>
        <time>2018-11-26T03:48:50Z</time>
      </trkpt>
      <trkpt lat="42.38586" lon="2.66301">
        <ele>965.7</ele>
        <time>2018-11-26T03:48:51Z</time>
      </trkpt>
      <trkpt lat="42.38586" lon="2.66302">
        <ele>965.3</ele>
        <time>2018-11-26T03:48:52Z</time>
      </trkpt>
      <trkpt lat="42.38586" lon="2.66303">
        <ele>964.9</ele>
        <time>2018-11-26T03:48:52Z</time>
      </trkpt>
      <trkpt lat="42.38586" lon="2.66305">
        <ele>964.7</ele>
        <time>2018-11-26T03:48:53Z</time>
      </trkpt>
      <trkpt lat="42.38586" lon="2.6631">
        <ele>963.6</ele>
        <time>2018-11-26T03:48:54Z</time>
      </trkpt>
      <trkpt lat="42.38585" lon="2.66313">
        <ele>963.1</ele>
        <time>2018-11-26T03:48:55Z</time>
      </trkpt>
      <trkpt lat="42.38585" lon="2.66316">
        <ele>963.2</ele>
        <time>2018-11-26T03:48:56Z</time>
      </trkpt>
      <trkpt lat="42.38585" lon="2.66317">
        <ele>963.2</ele>
        <time>2018-11-26T03:48:56Z</time>
      </trkpt>
      <trkpt lat="42.38585" lon="2.66323">
        <ele>963.3</ele>
        <time>2018-11-26T03:48:58Z</time>
      </trkpt>
      <trkpt lat="42.38585" lon="2.66324">
        <ele>963.4</ele>
        <time>2018-11-26T03:48:58Z</time>
      </trkpt>
      <trkpt lat="42.38585" lon="2.66326">
        <ele>963.5</ele>
        <time>2018-11-26T03:48:59Z</time>
      </trkpt>
      <trkpt lat="42.38585" lon="2.66327">
        <ele>963.2</ele>
        <time>2018-11-26T03:48:59Z</time>
      </trkpt>
      <trkpt lat="42.38585" lon="2.66329">
        <ele>962.7</ele>
        <time>2018-11-26T03:49:00Z</time>
      </trkpt>
      <trkpt lat="42.38585" lon="2.6633">
        <ele>962.3</ele>
        <time>2018-11-26T03:49:00Z</time>
      </trkpt>
      <trkpt lat="42.38586" lon="2.66332">
        <ele>962.3</ele>
        <time>2018-11-26T03:49:01Z</time>
      </trkpt>
      <trkpt lat="42.38586" lon="2.6636">
        <ele>960.4</ele>
        <time>2018-11-26T03:49:09Z</time>
      </trkpt>
      <trkpt lat="42.38586" lon="2.66376">
        <ele>959.6</ele>
        <time>2018-11-26T03:49:14Z</time>
      </trkpt>
      <trkpt lat="42.38587" lon="2.66379">
        <ele>959.4</ele>
        <time>2018-11-26T03:49:15Z</time>
      </trkpt>
      <trkpt lat="42.38587" lon="2.66382">
        <ele>959.2</ele>
        <time>2018-11-26T03:49:15Z</time>
      </trkpt>
      <trkpt lat="42.38587" lon="2.66385">
        <ele>959</ele>
        <time>2018-11-26T03:49:16Z</time>
      </trkpt>
      <trkpt lat="42.38588" lon="2.66386">
        <ele>958.7</ele>
        <time>2018-11-26T03:49:17Z</time>
      </trkpt>
      <trkpt lat="42.38588" lon="2.66396">
        <ele>959.3</ele>
        <time>2018-11-26T03:49:20Z</time>
      </trkpt>
      <trkpt lat="42.38588" lon="2.66399">
        <ele>958.5</ele>
        <time>2018-11-26T03:49:21Z</time>
      </trkpt>
      <trkpt lat="42.38589" lon="2.66402">
        <ele>957.9</ele>
        <time>2018-11-26T03:49:22Z</time>
      </trkpt>
      <trkpt lat="42.38589" lon="2.66404">
        <ele>957.6</ele>
        <time>2018-11-26T03:49:22Z</time>
      </trkpt>
      <trkpt lat="42.38589" lon="2.66414">
        <ele>957.7</ele>
        <time>2018-11-26T03:49:25Z</time>
      </trkpt>
      <trkpt lat="42.38589" lon="2.66415">
        <ele>957.8</ele>
        <time>2018-11-26T03:49:25Z</time>
      </trkpt>
      <trkpt lat="42.38589" lon="2.66418">
        <ele>957.4</ele>
        <time>2018-11-26T03:49:26Z</time>
      </trkpt>
      <trkpt lat="42.38589" lon="2.6642">
        <ele>957</ele>
        <time>2018-11-26T03:49:27Z</time>
      </trkpt>
      <trkpt lat="42.38589" lon="2.66421">
        <ele>957.1</ele>
        <time>2018-11-26T03:49:27Z</time>
      </trkpt>
      <trkpt lat="42.3859" lon="2.66426">
        <ele>956.7</ele>
        <time>2018-11-26T03:49:29Z</time>
      </trkpt>
      <trkpt lat="42.38591" lon="2.66431">
        <ele>956.7</ele>
        <time>2018-11-26T03:49:30Z</time>
      </trkpt>
      <trkpt lat="42.38592" lon="2.6646">
        <ele>955.6</ele>
        <time>2018-11-26T03:49:39Z</time>
      </trkpt>
      <trkpt lat="42.38592" lon="2.66472">
        <ele>954.9</ele>
        <time>2018-11-26T03:49:42Z</time>
      </trkpt>
      <trkpt lat="42.38592" lon="2.66478">
        <ele>954.6</ele>
        <time>2018-11-26T03:49:44Z</time>
      </trkpt>
      <trkpt lat="42.38592" lon="2.66479">
        <ele>954.4</ele>
        <time>2018-11-26T03:49:44Z</time>
      </trkpt>
      <trkpt lat="42.38592" lon="2.66483">
        <ele>955</ele>
        <time>2018-11-26T03:49:46Z</time>
      </trkpt>
      <trkpt lat="42.38592" lon="2.66485">
        <ele>955.5</ele>
        <time>2018-11-26T03:49:46Z</time>
      </trkpt>
      <trkpt lat="42.38592" lon="2.66486">
        <ele>956</ele>
        <time>2018-11-26T03:49:46Z</time>
      </trkpt>
      <trkpt lat="42.38592" lon="2.66493">
        <ele>956.1</ele>
        <time>2018-11-26T03:49:49Z</time>
      </trkpt>
      <trkpt lat="42.38592" lon="2.66495">
        <ele>956.2</ele>
        <time>2018-11-26T03:49:49Z</time>
      </trkpt>
      <trkpt lat="42.38592" lon="2.66497">
        <ele>956.2</ele>
        <time>2018-11-26T03:49:50Z</time>
      </trkpt>
      <trkpt lat="42.38592" lon="2.66498">
        <ele>956.2</ele>
        <time>2018-11-26T03:49:50Z</time>
      </trkpt>
      <trkpt lat="42.38592" lon="2.665">
        <ele>956.3</ele>
        <time>2018-11-26T03:49:50Z</time>
      </trkpt>
      <trkpt lat="42.38592" lon="2.66501">
        <ele>956.4</ele>
        <time>2018-11-26T03:49:51Z</time>
      </trkpt>
      <trkpt lat="42.38592" lon="2.66502">
        <ele>956.3</ele>
        <time>2018-11-26T03:49:51Z</time>
      </trkpt>
      <trkpt lat="42.38593" lon="2.66505">
        <ele>956.1</ele>
        <time>2018-11-26T03:49:52Z</time>
      </trkpt>
      <trkpt lat="42.38593" lon="2.66509">
        <ele>955.9</ele>
        <time>2018-11-26T03:49:53Z</time>
      </trkpt>
      <trkpt lat="42.38594" lon="2.6651">
        <ele>955.6</ele>
        <time>2018-11-26T03:49:54Z</time>
      </trkpt>
      <trkpt lat="42.38594" lon="2.66513">
        <ele>955.5</ele>
        <time>2018-11-26T03:49:55Z</time>
      </trkpt>
      <trkpt lat="42.38595" lon="2.66517">
        <ele>955.9</ele>
        <time>2018-11-26T03:49:56Z</time>
      </trkpt>
      <trkpt lat="42.38596" lon="2.66518">
        <ele>955.9</ele>
        <time>2018-11-26T03:49:56Z</time>
      </trkpt>
      <trkpt lat="42.38596" lon="2.66522">
        <ele>956</ele>
        <time>2018-11-26T03:49:57Z</time>
      </trkpt>
      <trkpt lat="42.38597" lon="2.66523">
        <ele>956.3</ele>
        <time>2018-11-26T03:49:58Z</time>
      </trkpt>
      <trkpt lat="42.38597" lon="2.66525">
        <ele>956.4</ele>
        <time>2018-11-26T03:49:58Z</time>
      </trkpt>
      <trkpt lat="42.38598" lon="2.66526">
        <ele>956.6</ele>
        <time>2018-11-26T03:49:59Z</time>
      </trkpt>
      <trkpt lat="42.38598" lon="2.66527">
        <ele>956.4</ele>
        <time>2018-11-26T03:49:59Z</time>
      </trkpt>
      <trkpt lat="42.38599" lon="2.66528">
        <ele>956.2</ele>
        <time>2018-11-26T03:49:59Z</time>
      </trkpt>
      <trkpt lat="42.38601" lon="2.66534">
        <ele>955.8</ele>
        <time>2018-11-26T03:50:01Z</time>
      </trkpt>
      <trkpt lat="42.38602" lon="2.66537">
        <ele>955.8</ele>
        <time>2018-11-26T03:50:02Z</time>
      </trkpt>
      <trkpt lat="42.38606" lon="2.66546">
        <ele>955.4</ele>
        <time>2018-11-26T03:50:05Z</time>
      </trkpt>
      <trkpt lat="42.38608" lon="2.66549">
        <ele>955.7</ele>
        <time>2018-11-26T03:50:07Z</time>
      </trkpt>
      <trkpt lat="42.38608" lon="2.6655">
        <ele>955.7</ele>
        <time>2018-11-26T03:50:07Z</time>
      </trkpt>
      <trkpt lat="42.38609" lon="2.66552">
        <ele>955.8</ele>
        <time>2018-11-26T03:50:07Z</time>
      </trkpt>
      <trkpt lat="42.38609" lon="2.66553">
        <ele>955.9</ele>
        <time>2018-11-26T03:50:08Z</time>
      </trkpt>
      <trkpt lat="42.3861" lon="2.66554">
        <ele>955.8</ele>
        <time>2018-11-26T03:50:08Z</time>
      </trkpt>
      <trkpt lat="42.38611" lon="2.66555">
        <ele>955.7</ele>
        <time>2018-11-26T03:50:09Z</time>
      </trkpt>
      <trkpt lat="42.38612" lon="2.66555">
        <ele>955.7</ele>
        <time>2018-11-26T03:50:09Z</time>
      </trkpt>
      <trkpt lat="42.38612" lon="2.66556">
        <ele>955.8</ele>
        <time>2018-11-26T03:50:09Z</time>
      </trkpt>
      <trkpt lat="42.38614" lon="2.66558">
        <ele>955.8</ele>
        <time>2018-11-26T03:50:10Z</time>
      </trkpt>
      <trkpt lat="42.38615" lon="2.66559">
        <ele>955.8</ele>
        <time>2018-11-26T03:50:11Z</time>
      </trkpt>
      <trkpt lat="42.38616" lon="2.6656">
        <ele>955.6</ele>
        <time>2018-11-26T03:50:11Z</time>
      </trkpt>
      <trkpt lat="42.38616" lon="2.66561">
        <ele>955.5</ele>
        <time>2018-11-26T03:50:12Z</time>
      </trkpt>
      <trkpt lat="42.38616" lon="2.66562">
        <ele>955.4</ele>
        <time>2018-11-26T03:50:12Z</time>
      </trkpt>
      <trkpt lat="42.38617" lon="2.66563">
        <ele>955.5</ele>
        <time>2018-11-26T03:50:12Z</time>
      </trkpt>
      <trkpt lat="42.38618" lon="2.66564">
        <ele>955.4</ele>
        <time>2018-11-26T03:50:13Z</time>
      </trkpt>
      <trkpt lat="42.38619" lon="2.66565">
        <ele>955.4</ele>
        <time>2018-11-26T03:50:13Z</time>
      </trkpt>
      <trkpt lat="42.38619" lon="2.66565">
        <ele>955.4</ele>
        <time>2018-11-26T03:50:13Z</time>
      </trkpt>
      <trkpt lat="42.38619" lon="2.66566">
        <ele>955.3</ele>
        <time>2018-11-26T03:50:13Z</time>
      </trkpt>
      <trkpt lat="42.38619" lon="2.66567">
        <ele>955.2</ele>
        <time>2018-11-26T03:50:14Z</time>
      </trkpt>
      <trkpt lat="42.38619" lon="2.66568">
        <ele>955</ele>
        <time>2018-11-26T03:50:14Z</time>
      </trkpt>
      <trkpt lat="42.3862" lon="2.66569">
        <ele>954.7</ele>
        <time>2018-11-26T03:50:14Z</time>
      </trkpt>
      <trkpt lat="42.3862" lon="2.6657">
        <ele>954.4</ele>
        <time>2018-11-26T03:50:15Z</time>
      </trkpt>
      <trkpt lat="42.38621" lon="2.6657">
        <ele>954.6</ele>
        <time>2018-11-26T03:50:15Z</time>
      </trkpt>
      <trkpt lat="42.38621" lon="2.66571">
        <ele>954.6</ele>
        <time>2018-11-26T03:50:15Z</time>
      </trkpt>
      <trkpt lat="42.38621" lon="2.66572">
        <ele>954.6</ele>
        <time>2018-11-26T03:50:16Z</time>
      </trkpt>
      <trkpt lat="42.38622" lon="2.66573">
        <ele>954.8</ele>
        <time>2018-11-26T03:50:16Z</time>
      </trkpt>
      <trkpt lat="42.38623" lon="2.66573">
        <ele>954.6</ele>
        <time>2018-11-26T03:50:16Z</time>
      </trkpt>
      <trkpt lat="42.38623" lon="2.66574">
        <ele>954.4</ele>
        <time>2018-11-26T03:50:17Z</time>
      </trkpt>
      <trkpt lat="42.38624" lon="2.66575">
        <ele>954.2</ele>
        <time>2018-11-26T03:50:17Z</time>
      </trkpt>
      <trkpt lat="42.38624" lon="2.66576">
        <ele>954.4</ele>
        <time>2018-11-26T03:50:17Z</time>
      </trkpt>
      <trkpt lat="42.38624" lon="2.66576">
        <ele>954.6</ele>
        <time>2018-11-26T03:50:17Z</time>
      </trkpt>
      <trkpt lat="42.38624" lon="2.66577">
        <ele>954.9</ele>
        <time>2018-11-26T03:50:18Z</time>
      </trkpt>
      <trkpt lat="42.38625" lon="2.66578">
        <ele>954.8</ele>
        <time>2018-11-26T03:50:18Z</time>
      </trkpt>
      <trkpt lat="42.38625" lon="2.66578">
        <ele>954.5</ele>
        <time>2018-11-26T03:50:18Z</time>
      </trkpt>
      <trkpt lat="42.38625" lon="2.66578">
        <ele>954.3</ele>
        <time>2018-11-26T03:50:18Z</time>
      </trkpt>
      <trkpt lat="42.38625" lon="2.66579">
        <ele>954.4</ele>
        <time>2018-11-26T03:50:18Z</time>
      </trkpt>
      <trkpt lat="42.38625" lon="2.66579">
        <ele>954.5</ele>
        <time>2018-11-26T03:50:18Z</time>
      </trkpt>
      <trkpt lat="42.38625" lon="2.66579">
        <ele>954.7</ele>
        <time>2018-11-26T03:50:18Z</time>
      </trkpt>
      <trkpt lat="42.38625" lon="2.6658">
        <ele>954.6</ele>
        <time>2018-11-26T03:50:19Z</time>
      </trkpt>
      <trkpt lat="42.38626" lon="2.6658">
        <ele>954.5</ele>
        <time>2018-11-26T03:50:19Z</time>
      </trkpt>
      <trkpt lat="42.38627" lon="2.66581">
        <ele>954.4</ele>
        <time>2018-11-26T03:50:19Z</time>
      </trkpt>
      <trkpt lat="42.38627" lon="2.66581">
        <ele>954.3</ele>
        <time>2018-11-26T03:50:19Z</time>
      </trkpt>
      <trkpt lat="42.38627" lon="2.66581">
        <ele>954.3</ele>
        <time>2018-11-26T03:50:19Z</time>
      </trkpt>
      <trkpt lat="42.38627" lon="2.66582">
        <ele>954.3</ele>
        <time>2018-11-26T03:50:20Z</time>
      </trkpt>
      <trkpt lat="42.38627" lon="2.66582">
        <ele>954.3</ele>
        <time>2018-11-26T03:50:20Z</time>
      </trkpt>
      <trkpt lat="42.38627" lon="2.66582">
        <ele>954.1</ele>
        <time>2018-11-26T03:50:20Z</time>
      </trkpt>
      <trkpt lat="42.38627" lon="2.66582">
        <ele>954</ele>
        <time>2018-11-26T03:50:20Z</time>
      </trkpt>
      <trkpt lat="42.38627" lon="2.66583">
        <ele>953.8</ele>
        <time>2018-11-26T03:50:20Z</time>
      </trkpt>
      <trkpt lat="42.38627" lon="2.66583">
        <ele>953.8</ele>
        <time>2018-11-26T03:50:20Z</time>
      </trkpt>
      <trkpt lat="42.38627" lon="2.66583">
        <ele>953.9</ele>
        <time>2018-11-26T03:50:20Z</time>
      </trkpt>
      <trkpt lat="42.38628" lon="2.66583">
        <ele>954.1</ele>
        <time>2018-11-26T03:50:20Z</time>
      </trkpt>
      <trkpt lat="42.38628" lon="2.66584">
        <ele>954.2</ele>
        <time>2018-11-26T03:50:20Z</time>
      </trkpt>
      <trkpt lat="42.38628" lon="2.66584">
        <ele>954.3</ele>
        <time>2018-11-26T03:50:20Z</time>
      </trkpt>
      <trkpt lat="42.38628" lon="2.66584">
        <ele>954.2</ele>
        <time>2018-11-26T03:50:20Z</time>
      </trkpt>
      <trkpt lat="42.38628" lon="2.66585">
        <ele>954</ele>
        <time>2018-11-26T03:50:21Z</time>
      </trkpt>
      <trkpt lat="42.38628" lon="2.66585">
        <ele>953.8</ele>
        <time>2018-11-26T03:50:21Z</time>
      </trkpt>
      <trkpt lat="42.38628" lon="2.66586">
        <ele>953.5</ele>
        <time>2018-11-26T03:50:21Z</time>
      </trkpt>
      <trkpt lat="42.38628" lon="2.66586">
        <ele>953.3</ele>
        <time>2018-11-26T03:50:21Z</time>
      </trkpt>
      <trkpt lat="42.38628" lon="2.66587">
        <ele>952.8</ele>
        <time>2018-11-26T03:50:21Z</time>
      </trkpt>
      <trkpt lat="42.38629" lon="2.66588">
        <ele>952.3</ele>
        <time>2018-11-26T03:50:22Z</time>
      </trkpt>
      <trkpt lat="42.3863" lon="2.66589">
        <ele>952.2</ele>
        <time>2018-11-26T03:50:22Z</time>
      </trkpt>
      <trkpt lat="42.3863" lon="2.6659">
        <ele>952.3</ele>
        <time>2018-11-26T03:50:22Z</time>
      </trkpt>
      <trkpt lat="42.3863" lon="2.66591">
        <ele>952.4</ele>
        <time>2018-11-26T03:50:23Z</time>
      </trkpt>
      <trkpt lat="42.3863" lon="2.66592">
        <ele>952.3</ele>
        <time>2018-11-26T03:50:23Z</time>
      </trkpt>
      <trkpt lat="42.3863" lon="2.66593">
        <ele>952.3</ele>
        <time>2018-11-26T03:50:23Z</time>
      </trkpt>
      <trkpt lat="42.3863" lon="2.66593">
        <ele>952.1</ele>
        <time>2018-11-26T03:50:24Z</time>
      </trkpt>
      <trkpt lat="42.3863" lon="2.66594">
        <ele>952.2</ele>
        <time>2018-11-26T03:50:24Z</time>
      </trkpt>
      <trkpt lat="42.38631" lon="2.66595">
        <ele>952.3</ele>
        <time>2018-11-26T03:50:24Z</time>
      </trkpt>
      <trkpt lat="42.38631" lon="2.66596">
        <ele>952.2</ele>
        <time>2018-11-26T03:50:24Z</time>
      </trkpt>
      <trkpt lat="42.38631" lon="2.66597">
        <ele>952.2</ele>
        <time>2018-11-26T03:50:25Z</time>
      </trkpt>
      <trkpt lat="42.38631" lon="2.66597">
        <ele>952</ele>
        <time>2018-11-26T03:50:25Z</time>
      </trkpt>
      <trkpt lat="42.38632" lon="2.66598">
        <ele>951.9</ele>
        <time>2018-11-26T03:50:25Z</time>
      </trkpt>
      <trkpt lat="42.38633" lon="2.66598">
        <ele>951.7</ele>
        <time>2018-11-26T03:50:25Z</time>
      </trkpt>
      <trkpt lat="42.38633" lon="2.66599">
        <ele>951.6</ele>
        <time>2018-11-26T03:50:26Z</time>
      </trkpt>
      <trkpt lat="42.38633" lon="2.666">
        <ele>951.5</ele>
        <time>2018-11-26T03:50:26Z</time>
      </trkpt>
      <trkpt lat="42.38634" lon="2.666">
        <ele>951.1</ele>
        <time>2018-11-26T03:50:26Z</time>
      </trkpt>
      <trkpt lat="42.38634" lon="2.66601">
        <ele>951.4</ele>
        <time>2018-11-26T03:50:26Z</time>
      </trkpt>
      <trkpt lat="42.38634" lon="2.66602">
        <ele>951.6</ele>
        <time>2018-11-26T03:50:27Z</time>
      </trkpt>
      <trkpt lat="42.38635" lon="2.66602">
        <ele>952.2</ele>
        <time>2018-11-26T03:50:27Z</time>
      </trkpt>
      <trkpt lat="42.38635" lon="2.66603">
        <ele>951.9</ele>
        <time>2018-11-26T03:50:27Z</time>
      </trkpt>
      <trkpt lat="42.38636" lon="2.66604">
        <ele>951.3</ele>
        <time>2018-11-26T03:50:28Z</time>
      </trkpt>
      <trkpt lat="42.38636" lon="2.66605">
        <ele>950.8</ele>
        <time>2018-11-26T03:50:28Z</time>
      </trkpt>
      <trkpt lat="42.38636" lon="2.66607">
        <ele>950.7</ele>
        <time>2018-11-26T03:50:28Z</time>
      </trkpt>
      <trkpt lat="42.38636" lon="2.66607">
        <ele>950.3</ele>
        <time>2018-11-26T03:50:29Z</time>
      </trkpt>
      <trkpt lat="42.38637" lon="2.66608">
        <ele>950</ele>
        <time>2018-11-26T03:50:29Z</time>
      </trkpt>
      <trkpt lat="42.38637" lon="2.66609">
        <ele>949.9</ele>
        <time>2018-11-26T03:50:29Z</time>
      </trkpt>
      <trkpt lat="42.38638" lon="2.6661">
        <ele>949.8</ele>
        <time>2018-11-26T03:50:30Z</time>
      </trkpt>
      <trkpt lat="42.38638" lon="2.66611">
        <ele>949.6</ele>
        <time>2018-11-26T03:50:30Z</time>
      </trkpt>
      <trkpt lat="42.38639" lon="2.66614">
        <ele>949.4</ele>
        <time>2018-11-26T03:50:31Z</time>
      </trkpt>
      <trkpt lat="42.38641" lon="2.6662">
        <ele>950</ele>
        <time>2018-11-26T03:50:33Z</time>
      </trkpt>
      <trkpt lat="42.38641" lon="2.66621">
        <ele>949.7</ele>
        <time>2018-11-26T03:50:33Z</time>
      </trkpt>
      <trkpt lat="42.38641" lon="2.66622">
        <ele>949.2</ele>
        <time>2018-11-26T03:50:33Z</time>
      </trkpt>
      <trkpt lat="42.38642" lon="2.66625">
        <ele>948.7</ele>
        <time>2018-11-26T03:50:34Z</time>
      </trkpt>
      <trkpt lat="42.38642" lon="2.66626">
        <ele>948.5</ele>
        <time>2018-11-26T03:50:35Z</time>
      </trkpt>
      <trkpt lat="42.38647" lon="2.66642">
        <ele>947.8</ele>
        <time>2018-11-26T03:50:40Z</time>
      </trkpt>
      <trkpt lat="42.38648" lon="2.66643">
        <ele>947.6</ele>
        <time>2018-11-26T03:50:40Z</time>
      </trkpt>
      <trkpt lat="42.38649" lon="2.66645">
        <ele>947.5</ele>
        <time>2018-11-26T03:50:41Z</time>
      </trkpt>
      <trkpt lat="42.3865" lon="2.66647">
        <ele>947.1</ele>
        <time>2018-11-26T03:50:42Z</time>
      </trkpt>
      <trkpt lat="42.3865" lon="2.66649">
        <ele>947</ele>
        <time>2018-11-26T03:50:42Z</time>
      </trkpt>
      <trkpt lat="42.38651" lon="2.6665">
        <ele>946.8</ele>
        <time>2018-11-26T03:50:42Z</time>
      </trkpt>
      <trkpt lat="42.38651" lon="2.66651">
        <ele>946.6</ele>
        <time>2018-11-26T03:50:43Z</time>
      </trkpt>
      <trkpt lat="42.38653" lon="2.66655">
        <ele>946.6</ele>
        <time>2018-11-26T03:50:44Z</time>
      </trkpt>
      <trkpt lat="42.38656" lon="2.66662">
        <ele>946.1</ele>
        <time>2018-11-26T03:50:47Z</time>
      </trkpt>
      <trkpt lat="42.38657" lon="2.66663">
        <ele>945.8</ele>
        <time>2018-11-26T03:50:47Z</time>
      </trkpt>
      <trkpt lat="42.38657" lon="2.66664">
        <ele>945.8</ele>
        <time>2018-11-26T03:50:47Z</time>
      </trkpt>
      <trkpt lat="42.38658" lon="2.66666">
        <ele>945.1</ele>
        <time>2018-11-26T03:50:48Z</time>
      </trkpt>
      <trkpt lat="42.38659" lon="2.66668">
        <ele>945.2</ele>
        <time>2018-11-26T03:50:49Z</time>
      </trkpt>
      <trkpt lat="42.38661" lon="2.66672">
        <ele>945.3</ele>
        <time>2018-11-26T03:50:50Z</time>
      </trkpt>
      <trkpt lat="42.38662" lon="2.66673">
        <ele>945.3</ele>
        <time>2018-11-26T03:50:51Z</time>
      </trkpt>
      <trkpt lat="42.38663" lon="2.66674">
        <ele>945.2</ele>
        <time>2018-11-26T03:50:51Z</time>
      </trkpt>
      <trkpt lat="42.38663" lon="2.66675">
        <ele>945.1</ele>
        <time>2018-11-26T03:50:52Z</time>
      </trkpt>
      <trkpt lat="42.38664" lon="2.66679">
        <ele>944.9</ele>
        <time>2018-11-26T03:50:53Z</time>
      </trkpt>
      <trkpt lat="42.38665" lon="2.66682">
        <ele>945</ele>
        <time>2018-11-26T03:50:54Z</time>
      </trkpt>
      <trkpt lat="42.38665" lon="2.66683">
        <ele>944.7</ele>
        <time>2018-11-26T03:50:54Z</time>
      </trkpt>
      <trkpt lat="42.38665" lon="2.66685">
        <ele>944.5</ele>
        <time>2018-11-26T03:50:54Z</time>
      </trkpt>
      <trkpt lat="42.38665" lon="2.6669">
        <ele>943.8</ele>
        <time>2018-11-26T03:50:56Z</time>
      </trkpt>
      <trkpt lat="42.38665" lon="2.66693">
        <ele>943.6</ele>
        <time>2018-11-26T03:50:57Z</time>
      </trkpt>
      <trkpt lat="42.38665" lon="2.66694">
        <ele>943.5</ele>
        <time>2018-11-26T03:50:57Z</time>
      </trkpt>
      <trkpt lat="42.38665" lon="2.66695">
        <ele>943.3</ele>
        <time>2018-11-26T03:50:58Z</time>
      </trkpt>
      <trkpt lat="42.38665" lon="2.66697">
        <ele>943.3</ele>
        <time>2018-11-26T03:50:58Z</time>
      </trkpt>
      <trkpt lat="42.38665" lon="2.66698">
        <ele>943</ele>
        <time>2018-11-26T03:50:58Z</time>
      </trkpt>
      <trkpt lat="42.38665" lon="2.66699">
        <ele>942.9</ele>
        <time>2018-11-26T03:50:59Z</time>
      </trkpt>
      <trkpt lat="42.38665" lon="2.66701">
        <ele>942.8</ele>
        <time>2018-11-26T03:50:59Z</time>
      </trkpt>
      <trkpt lat="42.38665" lon="2.66702">
        <ele>942.6</ele>
        <time>2018-11-26T03:51:00Z</time>
      </trkpt>
      <trkpt lat="42.38664" lon="2.66705">
        <ele>942.3</ele>
        <time>2018-11-26T03:51:00Z</time>
      </trkpt>
      <trkpt lat="42.38663" lon="2.66706">
        <ele>942.1</ele>
        <time>2018-11-26T03:51:01Z</time>
      </trkpt>
      <trkpt lat="42.3866" lon="2.66714">
        <ele>941.3</ele>
        <time>2018-11-26T03:51:03Z</time>
      </trkpt>
      <trkpt lat="42.3865" lon="2.66735">
        <ele>938.7</ele>
        <time>2018-11-26T03:51:11Z</time>
      </trkpt>
      <trkpt lat="42.38649" lon="2.66738">
        <ele>938.7</ele>
        <time>2018-11-26T03:51:12Z</time>
      </trkpt>
      <trkpt lat="42.38643" lon="2.66754">
        <ele>937.2</ele>
        <time>2018-11-26T03:51:17Z</time>
      </trkpt>
      <trkpt lat="42.38642" lon="2.66757">
        <ele>937</ele>
        <time>2018-11-26T03:51:18Z</time>
      </trkpt>
      <trkpt lat="42.38642" lon="2.66759">
        <ele>936.8</ele>
        <time>2018-11-26T03:51:19Z</time>
      </trkpt>
      <trkpt lat="42.3864" lon="2.66768">
        <ele>937.1</ele>
        <time>2018-11-26T03:51:22Z</time>
      </trkpt>
      <trkpt lat="42.38639" lon="2.66775">
        <ele>937.2</ele>
        <time>2018-11-26T03:51:24Z</time>
      </trkpt>
      <trkpt lat="42.38639" lon="2.66781">
        <ele>936.3</ele>
        <time>2018-11-26T03:51:26Z</time>
      </trkpt>
      <trkpt lat="42.38639" lon="2.66794">
        <ele>936.3</ele>
        <time>2018-11-26T03:51:29Z</time>
      </trkpt>
      <trkpt lat="42.38639" lon="2.66796">
        <ele>936.3</ele>
        <time>2018-11-26T03:51:30Z</time>
      </trkpt>
      <trkpt lat="42.3864" lon="2.66803">
        <ele>936.4</ele>
        <time>2018-11-26T03:51:32Z</time>
      </trkpt>
      <trkpt lat="42.3864" lon="2.66805">
        <ele>936.6</ele>
        <time>2018-11-26T03:51:32Z</time>
      </trkpt>
      <trkpt lat="42.38641" lon="2.66808">
        <ele>936.7</ele>
        <time>2018-11-26T03:51:33Z</time>
      </trkpt>
      <trkpt lat="42.38643" lon="2.66817">
        <ele>936.6</ele>
        <time>2018-11-26T03:51:36Z</time>
      </trkpt>
      <trkpt lat="42.38644" lon="2.66819">
        <ele>936.5</ele>
        <time>2018-11-26T03:51:37Z</time>
      </trkpt>
      <trkpt lat="42.38644" lon="2.6682">
        <ele>936.3</ele>
        <time>2018-11-26T03:51:37Z</time>
      </trkpt>
      <trkpt lat="42.38644" lon="2.66822">
        <ele>936.1</ele>
        <time>2018-11-26T03:51:38Z</time>
      </trkpt>
      <trkpt lat="42.38645" lon="2.66823">
        <ele>936</ele>
        <time>2018-11-26T03:51:38Z</time>
      </trkpt>
      <trkpt lat="42.38645" lon="2.66825">
        <ele>935.9</ele>
        <time>2018-11-26T03:51:39Z</time>
      </trkpt>
      <trkpt lat="42.38646" lon="2.66826">
        <ele>935.6</ele>
        <time>2018-11-26T03:51:39Z</time>
      </trkpt>
      <trkpt lat="42.38647" lon="2.6683">
        <ele>936.3</ele>
        <time>2018-11-26T03:51:41Z</time>
      </trkpt>
      <trkpt lat="42.38649" lon="2.66835">
        <ele>935.9</ele>
        <time>2018-11-26T03:51:42Z</time>
      </trkpt>
      <trkpt lat="42.3865" lon="2.66837">
        <ele>936.1</ele>
        <time>2018-11-26T03:51:43Z</time>
      </trkpt>
      <trkpt lat="42.3865" lon="2.66838">
        <ele>936.3</ele>
        <time>2018-11-26T03:51:43Z</time>
      </trkpt>
      <trkpt lat="42.38651" lon="2.66839">
        <ele>936.3</ele>
        <time>2018-11-26T03:51:43Z</time>
      </trkpt>
      <trkpt lat="42.38651" lon="2.66839">
        <ele>936.2</ele>
        <time>2018-11-26T03:51:44Z</time>
      </trkpt>
      <trkpt lat="42.38652" lon="2.6684">
        <ele>936.3</ele>
        <time>2018-11-26T03:51:44Z</time>
      </trkpt>
      <trkpt lat="42.38652" lon="2.66841">
        <ele>936</ele>
        <time>2018-11-26T03:51:44Z</time>
      </trkpt>
      <trkpt lat="42.38653" lon="2.66842">
        <ele>936.2</ele>
        <time>2018-11-26T03:51:45Z</time>
      </trkpt>
      <trkpt lat="42.38653" lon="2.66842">
        <ele>936.2</ele>
        <time>2018-11-26T03:51:45Z</time>
      </trkpt>
      <trkpt lat="42.38653" lon="2.66843">
        <ele>936.3</ele>
        <time>2018-11-26T03:51:45Z</time>
      </trkpt>
      <trkpt lat="42.38654" lon="2.66844">
        <ele>936.3</ele>
        <time>2018-11-26T03:51:46Z</time>
      </trkpt>
      <trkpt lat="42.38654" lon="2.66845">
        <ele>936.3</ele>
        <time>2018-11-26T03:51:46Z</time>
      </trkpt>
      <trkpt lat="42.38655" lon="2.66846">
        <ele>936.1</ele>
        <time>2018-11-26T03:51:46Z</time>
      </trkpt>
      <trkpt lat="42.38655" lon="2.66847">
        <ele>936.1</ele>
        <time>2018-11-26T03:51:47Z</time>
      </trkpt>
      <trkpt lat="42.38657" lon="2.6685">
        <ele>936.3</ele>
        <time>2018-11-26T03:51:48Z</time>
      </trkpt>
      <trkpt lat="42.38657" lon="2.66851">
        <ele>936.7</ele>
        <time>2018-11-26T03:51:48Z</time>
      </trkpt>
      <trkpt lat="42.38657" lon="2.66853">
        <ele>937</ele>
        <time>2018-11-26T03:51:48Z</time>
      </trkpt>
      <trkpt lat="42.38658" lon="2.66854">
        <ele>937.1</ele>
        <time>2018-11-26T03:51:49Z</time>
      </trkpt>
      <trkpt lat="42.38658" lon="2.66855">
        <ele>937.1</ele>
        <time>2018-11-26T03:51:49Z</time>
      </trkpt>
      <trkpt lat="42.38658" lon="2.66856">
        <ele>937.3</ele>
        <time>2018-11-26T03:51:50Z</time>
      </trkpt>
      <trkpt lat="42.38658" lon="2.66859">
        <ele>937.4</ele>
        <time>2018-11-26T03:51:50Z</time>
      </trkpt>
      <trkpt lat="42.38658" lon="2.6686">
        <ele>937.4</ele>
        <time>2018-11-26T03:51:51Z</time>
      </trkpt>
      <trkpt lat="42.38658" lon="2.66861">
        <ele>937.4</ele>
        <time>2018-11-26T03:51:51Z</time>
      </trkpt>
      <trkpt lat="42.38658" lon="2.66863">
        <ele>937.4</ele>
        <time>2018-11-26T03:51:51Z</time>
      </trkpt>
      <trkpt lat="42.38657" lon="2.66865">
        <ele>937.5</ele>
        <time>2018-11-26T03:51:52Z</time>
      </trkpt>
      <trkpt lat="42.38656" lon="2.66868">
        <ele>937.4</ele>
        <time>2018-11-26T03:51:53Z</time>
      </trkpt>
      <trkpt lat="42.38654" lon="2.66873">
        <ele>937.7</ele>
        <time>2018-11-26T03:51:55Z</time>
      </trkpt>
      <trkpt lat="42.38654" lon="2.66874">
        <ele>937.7</ele>
        <time>2018-11-26T03:51:55Z</time>
      </trkpt>
      <trkpt lat="42.38648" lon="2.66884">
        <ele>937.7</ele>
        <time>2018-11-26T03:51:59Z</time>
      </trkpt>
      <trkpt lat="42.38646" lon="2.66887">
        <ele>937.3</ele>
        <time>2018-11-26T03:52:00Z</time>
      </trkpt>
      <trkpt lat="42.38645" lon="2.66889">
        <ele>937</ele>
        <time>2018-11-26T03:52:01Z</time>
      </trkpt>
      <trkpt lat="42.38644" lon="2.66891">
        <ele>936.8</ele>
        <time>2018-11-26T03:52:02Z</time>
      </trkpt>
      <trkpt lat="42.38643" lon="2.66892">
        <ele>936.6</ele>
        <time>2018-11-26T03:52:02Z</time>
      </trkpt>
      <trkpt lat="42.38642" lon="2.66894">
        <ele>936.5</ele>
        <time>2018-11-26T03:52:03Z</time>
      </trkpt>
      <trkpt lat="42.38642" lon="2.66895">
        <ele>936.4</ele>
        <time>2018-11-26T03:52:03Z</time>
      </trkpt>
      <trkpt lat="42.38642" lon="2.66896">
        <ele>936.4</ele>
        <time>2018-11-26T03:52:03Z</time>
      </trkpt>
      <trkpt lat="42.38639" lon="2.66903">
        <ele>936.4</ele>
        <time>2018-11-26T03:52:06Z</time>
      </trkpt>
      <trkpt lat="42.38638" lon="2.66906">
        <ele>936.5</ele>
        <time>2018-11-26T03:52:06Z</time>
      </trkpt>
      <trkpt lat="42.38638" lon="2.66907">
        <ele>936.3</ele>
        <time>2018-11-26T03:52:07Z</time>
      </trkpt>
      <trkpt lat="42.38638" lon="2.66908">
        <ele>936</ele>
        <time>2018-11-26T03:52:07Z</time>
      </trkpt>
      <trkpt lat="42.38638" lon="2.66909">
        <ele>935.8</ele>
        <time>2018-11-26T03:52:08Z</time>
      </trkpt>
      <trkpt lat="42.38637" lon="2.66911">
        <ele>935.8</ele>
        <time>2018-11-26T03:52:08Z</time>
      </trkpt>
      <trkpt lat="42.38637" lon="2.66912">
        <ele>935.9</ele>
        <time>2018-11-26T03:52:08Z</time>
      </trkpt>
      <trkpt lat="42.38637" lon="2.66913">
        <ele>936</ele>
        <time>2018-11-26T03:52:09Z</time>
      </trkpt>
      <trkpt lat="42.38637" lon="2.66914">
        <ele>936.3</ele>
        <time>2018-11-26T03:52:09Z</time>
      </trkpt>
      <trkpt lat="42.38636" lon="2.66915">
        <ele>936.1</ele>
        <time>2018-11-26T03:52:09Z</time>
      </trkpt>
      <trkpt lat="42.38636" lon="2.66916">
        <ele>935.9</ele>
        <time>2018-11-26T03:52:10Z</time>
      </trkpt>
      <trkpt lat="42.38636" lon="2.66917">
        <ele>935.9</ele>
        <time>2018-11-26T03:52:10Z</time>
      </trkpt>
      <trkpt lat="42.38636" lon="2.66918">
        <ele>935.6</ele>
        <time>2018-11-26T03:52:10Z</time>
      </trkpt>
      <trkpt lat="42.38635" lon="2.66919">
        <ele>935.5</ele>
        <time>2018-11-26T03:52:11Z</time>
      </trkpt>
      <trkpt lat="42.38635" lon="2.6692">
        <ele>935.1</ele>
        <time>2018-11-26T03:52:11Z</time>
      </trkpt>
      <trkpt lat="42.38634" lon="2.66921">
        <ele>935.2</ele>
        <time>2018-11-26T03:52:11Z</time>
      </trkpt>
      <trkpt lat="42.38634" lon="2.66922">
        <ele>935.4</ele>
        <time>2018-11-26T03:52:12Z</time>
      </trkpt>
      <trkpt lat="42.38634" lon="2.66922">
        <ele>935.6</ele>
        <time>2018-11-26T03:52:12Z</time>
      </trkpt>
      <trkpt lat="42.38635" lon="2.66922">
        <ele>935.6</ele>
        <time>2018-11-26T03:52:12Z</time>
      </trkpt>
      <trkpt lat="42.38635" lon="2.66922">
        <ele>935.7</ele>
        <time>2018-11-26T03:52:12Z</time>
      </trkpt>
      <trkpt lat="42.38635" lon="2.66923">
        <ele>935.6</ele>
        <time>2018-11-26T03:52:12Z</time>
      </trkpt>
      <trkpt lat="42.38635" lon="2.66923">
        <ele>935.6</ele>
        <time>2018-11-26T03:52:12Z</time>
      </trkpt>
      <trkpt lat="42.38635" lon="2.66923">
        <ele>935.5</ele>
        <time>2018-11-26T03:52:13Z</time>
      </trkpt>
      <trkpt lat="42.38635" lon="2.66924">
        <ele>935.4</ele>
        <time>2018-11-26T03:52:13Z</time>
      </trkpt>
      <trkpt lat="42.38634" lon="2.66925">
        <ele>935.1</ele>
        <time>2018-11-26T03:52:13Z</time>
      </trkpt>
      <trkpt lat="42.38634" lon="2.66925">
        <ele>935.2</ele>
        <time>2018-11-26T03:52:13Z</time>
      </trkpt>
      <trkpt lat="42.38634" lon="2.66925">
        <ele>935.2</ele>
        <time>2018-11-26T03:52:13Z</time>
      </trkpt>
      <trkpt lat="42.38633" lon="2.66926">
        <ele>935.3</ele>
        <time>2018-11-26T03:52:14Z</time>
      </trkpt>
      <trkpt lat="42.38634" lon="2.66926">
        <ele>935.2</ele>
        <time>2018-11-26T03:52:14Z</time>
      </trkpt>
      <trkpt lat="42.38634" lon="2.66926">
        <ele>934.9</ele>
        <time>2018-11-26T03:52:14Z</time>
      </trkpt>
      <trkpt lat="42.38633" lon="2.66927">
        <ele>934.6</ele>
        <time>2018-11-26T03:52:14Z</time>
      </trkpt>
      <trkpt lat="42.38633" lon="2.66927">
        <ele>934.8</ele>
        <time>2018-11-26T03:52:14Z</time>
      </trkpt>
      <trkpt lat="42.38633" lon="2.66928">
        <ele>935.1</ele>
        <time>2018-11-26T03:52:14Z</time>
      </trkpt>
      <trkpt lat="42.38633" lon="2.66929">
        <ele>935.4</ele>
        <time>2018-11-26T03:52:15Z</time>
      </trkpt>
      <trkpt lat="42.38633" lon="2.6693">
        <ele>935.1</ele>
        <time>2018-11-26T03:52:15Z</time>
      </trkpt>
      <trkpt lat="42.38633" lon="2.6693">
        <ele>935.1</ele>
        <time>2018-11-26T03:52:15Z</time>
      </trkpt>
      <trkpt lat="42.38632" lon="2.66931">
        <ele>934.7</ele>
        <time>2018-11-26T03:52:15Z</time>
      </trkpt>
      <trkpt lat="42.38632" lon="2.66931">
        <ele>935</ele>
        <time>2018-11-26T03:52:15Z</time>
      </trkpt>
      <trkpt lat="42.38632" lon="2.66931">
        <ele>935.3</ele>
        <time>2018-11-26T03:52:15Z</time>
      </trkpt>
      <trkpt lat="42.38631" lon="2.66932">
        <ele>935.8</ele>
        <time>2018-11-26T03:52:16Z</time>
      </trkpt>
      <trkpt lat="42.38631" lon="2.66933">
        <ele>935.7</ele>
        <time>2018-11-26T03:52:16Z</time>
      </trkpt>
      <trkpt lat="42.38631" lon="2.66933">
        <ele>935.6</ele>
        <time>2018-11-26T03:52:16Z</time>
      </trkpt>
      <trkpt lat="42.38631" lon="2.66933">
        <ele>935.6</ele>
        <time>2018-11-26T03:52:16Z</time>
      </trkpt>
      <trkpt lat="42.38631" lon="2.66933">
        <ele>935.3</ele>
        <time>2018-11-26T03:52:16Z</time>
      </trkpt>
      <trkpt lat="42.38631" lon="2.66933">
        <ele>935.5</ele>
        <time>2018-11-26T03:52:16Z</time>
      </trkpt>
      <trkpt lat="42.3863" lon="2.66933">
        <ele>935.8</ele>
        <time>2018-11-26T03:52:16Z</time>
      </trkpt>
      <trkpt lat="42.3863" lon="2.66933">
        <ele>935.9</ele>
        <time>2018-11-26T03:52:17Z</time>
      </trkpt>
      <trkpt lat="42.3863" lon="2.66933">
        <ele>935.8</ele>
        <time>2018-11-26T03:52:17Z</time>
      </trkpt>
      <trkpt lat="42.3863" lon="2.66933">
        <ele>935.6</ele>
        <time>2018-11-26T03:52:17Z</time>
      </trkpt>
      <trkpt lat="42.3863" lon="2.66933">
        <ele>935.3</ele>
        <time>2018-11-26T03:52:17Z</time>
      </trkpt>
      <trkpt lat="42.3863" lon="2.66933">
        <ele>935.4</ele>
        <time>2018-11-26T03:52:17Z</time>
      </trkpt>
      <trkpt lat="42.3863" lon="2.66933">
        <ele>935.6</ele>
        <time>2018-11-26T03:52:17Z</time>
      </trkpt>
      <trkpt lat="42.3863" lon="2.66933">
        <ele>935.6</ele>
        <time>2018-11-26T03:52:17Z</time>
      </trkpt>
      <trkpt lat="42.3863" lon="2.66933">
        <ele>935.6</ele>
        <time>2018-11-26T03:52:17Z</time>
      </trkpt>
      <trkpt lat="42.3863" lon="2.66933">
        <ele>935.7</ele>
        <time>2018-11-26T03:52:17Z</time>
      </trkpt>
      <trkpt lat="42.3863" lon="2.66932">
        <ele>935.6</ele>
        <time>2018-11-26T03:52:17Z</time>
      </trkpt>
      <trkpt lat="42.38631" lon="2.66932">
        <ele>935.4</ele>
        <time>2018-11-26T03:52:17Z</time>
      </trkpt>
      <trkpt lat="42.3863" lon="2.66932">
        <ele>935.4</ele>
        <time>2018-11-26T03:52:17Z</time>
      </trkpt>
      <trkpt lat="42.3863" lon="2.66933">
        <ele>935.5</ele>
        <time>2018-11-26T03:52:17Z</time>
      </trkpt>
      <trkpt lat="42.3863" lon="2.66933">
        <ele>935.4</ele>
        <time>2018-11-26T03:52:17Z</time>
      </trkpt>
      <trkpt lat="42.3863" lon="2.66933">
        <ele>935.3</ele>
        <time>2018-11-26T03:52:18Z</time>
      </trkpt>
      <trkpt lat="42.3863" lon="2.66933">
        <ele>935.2</ele>
        <time>2018-11-26T03:52:18Z</time>
      </trkpt>
      <trkpt lat="42.3863" lon="2.66933">
        <ele>935.1</ele>
        <time>2018-11-26T03:52:18Z</time>
      </trkpt>
      <trkpt lat="42.3863" lon="2.66933">
        <ele>935.2</ele>
        <time>2018-11-26T03:52:18Z</time>
      </trkpt>
      <trkpt lat="42.38629" lon="2.66933">
        <ele>935.2</ele>
        <time>2018-11-26T03:52:18Z</time>
      </trkpt>
      <trkpt lat="42.3863" lon="2.66933">
        <ele>935.4</ele>
        <time>2018-11-26T03:52:18Z</time>
      </trkpt>
      <trkpt lat="42.3863" lon="2.66933">
        <ele>935.4</ele>
        <time>2018-11-26T03:52:18Z</time>
      </trkpt>
      <trkpt lat="42.3863" lon="2.66933">
        <ele>935.5</ele>
        <time>2018-11-26T03:52:18Z</time>
      </trkpt>
      <trkpt lat="42.38629" lon="2.66933">
        <ele>935.6</ele>
        <time>2018-11-26T03:52:18Z</time>
      </trkpt>
      <trkpt lat="42.3863" lon="2.66933">
        <ele>935.8</ele>
        <time>2018-11-26T03:52:18Z</time>
      </trkpt>
      <trkpt lat="42.3863" lon="2.66933">
        <ele>936.1</ele>
        <time>2018-11-26T03:52:18Z</time>
      </trkpt>
      <trkpt lat="42.38629" lon="2.66933">
        <ele>936.2</ele>
        <time>2018-11-26T03:52:18Z</time>
      </trkpt>
      <trkpt lat="42.3863" lon="2.66933">
        <ele>936.2</ele>
        <time>2018-11-26T03:52:18Z</time>
      </trkpt>
      <trkpt lat="42.3863" lon="2.66932">
        <ele>936</ele>
        <time>2018-11-26T03:52:18Z</time>
      </trkpt>
      <trkpt lat="42.3863" lon="2.66932">
        <ele>935.7</ele>
        <time>2018-11-26T03:52:18Z</time>
      </trkpt>
      <trkpt lat="42.3863" lon="2.66932">
        <ele>935.5</ele>
        <time>2018-11-26T03:52:18Z</time>
      </trkpt>
      <trkpt lat="42.3863" lon="2.66932">
        <ele>935.5</ele>
        <time>2018-11-26T03:52:18Z</time>
      </trkpt>
      <trkpt lat="42.3863" lon="2.66932">
        <ele>935.5</ele>
        <time>2018-11-26T03:52:18Z</time>
      </trkpt>
      <trkpt lat="42.3863" lon="2.66932">
        <ele>935.7</ele>
        <time>2018-11-26T03:52:18Z</time>
      </trkpt>
      <trkpt lat="42.38629" lon="2.66933">
        <ele>935.4</ele>
        <time>2018-11-26T03:52:18Z</time>
      </trkpt>
      <trkpt lat="42.3863" lon="2.66933">
        <ele>935.2</ele>
        <time>2018-11-26T03:52:18Z</time>
      </trkpt>
      <trkpt lat="42.3863" lon="2.66932">
        <ele>934.8</ele>
        <time>2018-11-26T03:52:19Z</time>
      </trkpt>
      <trkpt lat="42.3863" lon="2.66932">
        <ele>934.9</ele>
        <time>2018-11-26T03:52:19Z</time>
      </trkpt>
      <trkpt lat="42.3863" lon="2.66932">
        <ele>935.2</ele>
        <time>2018-11-26T03:52:19Z</time>
      </trkpt>
      <trkpt lat="42.3863" lon="2.66932">
        <ele>935.5</ele>
        <time>2018-11-26T03:52:19Z</time>
      </trkpt>
      <trkpt lat="42.3863" lon="2.66933">
        <ele>935.4</ele>
        <time>2018-11-26T03:52:19Z</time>
      </trkpt>
      <trkpt lat="42.3863" lon="2.66933">
        <ele>935.5</ele>
        <time>2018-11-26T03:52:19Z</time>
      </trkpt>
      <trkpt lat="42.3863" lon="2.66932">
        <ele>935.6</ele>
        <time>2018-11-26T03:52:19Z</time>
      </trkpt>
      <trkpt lat="42.3863" lon="2.66932">
        <ele>935.6</ele>
        <time>2018-11-26T03:52:19Z</time>
      </trkpt>
      <trkpt lat="42.3863" lon="2.66932">
        <ele>935.3</ele>
        <time>2018-11-26T03:52:19Z</time>
      </trkpt>
      <trkpt lat="42.3863" lon="2.66932">
        <ele>935.1</ele>
        <time>2018-11-26T03:52:19Z</time>
      </trkpt>
      <trkpt lat="42.3863" lon="2.66932">
        <ele>934.8</ele>
        <time>2018-11-26T03:52:19Z</time>
      </trkpt>
      <trkpt lat="42.3863" lon="2.66932">
        <ele>934.9</ele>
        <time>2018-11-26T03:52:19Z</time>
      </trkpt>
      <trkpt lat="42.3863" lon="2.66932">
        <ele>935.1</ele>
        <time>2018-11-26T03:52:19Z</time>
      </trkpt>
      <trkpt lat="42.3863" lon="2.66932">
        <ele>935.4</ele>
        <time>2018-11-26T03:52:19Z</time>
      </trkpt>
      <trkpt lat="42.3863" lon="2.66932">
        <ele>935.3</ele>
        <time>2018-11-26T03:52:19Z</time>
      </trkpt>
      <trkpt lat="42.3863" lon="2.66932">
        <ele>935.4</ele>
        <time>2018-11-26T03:52:19Z</time>
      </trkpt>
      <trkpt lat="42.3863" lon="2.66932">
        <ele>935.4</ele>
        <time>2018-11-26T03:52:19Z</time>
      </trkpt>
      <trkpt lat="42.3863" lon="2.66932">
        <ele>935.4</ele>
        <time>2018-11-26T03:52:19Z</time>
      </trkpt>
      <trkpt lat="42.3863" lon="2.66932">
        <ele>935.3</ele>
        <time>2018-11-26T03:52:19Z</time>
      </trkpt>
      <trkpt lat="42.3863" lon="2.66932">
        <ele>935.1</ele>
        <time>2018-11-26T03:52:19Z</time>
      </trkpt>
      <trkpt lat="42.3863" lon="2.66932">
        <ele>935</ele>
        <time>2018-11-26T03:52:19Z</time>
      </trkpt>
      <trkpt lat="42.38629" lon="2.66932">
        <ele>935</ele>
        <time>2018-11-26T03:52:19Z</time>
      </trkpt>
      <trkpt lat="42.38629" lon="2.66932">
        <ele>934.8</ele>
        <time>2018-11-26T03:52:19Z</time>
      </trkpt>
      <trkpt lat="42.38629" lon="2.66932">
        <ele>934.8</ele>
        <time>2018-11-26T03:52:19Z</time>
      </trkpt>
      <trkpt lat="42.38629" lon="2.66932">
        <ele>934.8</ele>
        <time>2018-11-26T03:52:19Z</time>
      </trkpt>
      <trkpt lat="42.38629" lon="2.66932">
        <ele>934.8</ele>
        <time>2018-11-26T03:52:19Z</time>
      </trkpt>
      <trkpt lat="42.38629" lon="2.66932">
        <ele>934.8</ele>
        <time>2018-11-26T03:52:19Z</time>
      </trkpt>
      <trkpt lat="42.38629" lon="2.66932">
        <ele>934.9</ele>
        <time>2018-11-26T03:52:19Z</time>
      </trkpt>
      <trkpt lat="42.38629" lon="2.66932">
        <ele>935</ele>
        <time>2018-11-26T03:52:19Z</time>
      </trkpt>
      <trkpt lat="42.38629" lon="2.66932">
        <ele>935.2</ele>
        <time>2018-11-26T03:52:19Z</time>
      </trkpt>
      <trkpt lat="42.38629" lon="2.66932">
        <ele>935.3</ele>
        <time>2018-11-26T03:52:19Z</time>
      </trkpt>
      <trkpt lat="42.38629" lon="2.66932">
        <ele>935.5</ele>
        <time>2018-11-26T03:52:19Z</time>
      </trkpt>
      <trkpt lat="42.38629" lon="2.66932">
        <ele>935.7</ele>
        <time>2018-11-26T03:52:19Z</time>
      </trkpt>
      <trkpt lat="42.38629" lon="2.66932">
        <ele>935.6</ele>
        <time>2018-11-26T03:52:19Z</time>
      </trkpt>
      <trkpt lat="42.38629" lon="2.66932">
        <ele>935.4</ele>
        <time>2018-11-26T03:52:19Z</time>
      </trkpt>
      <trkpt lat="42.38629" lon="2.66932">
        <ele>935.2</ele>
        <time>2018-11-26T03:52:19Z</time>
      </trkpt>
      <trkpt lat="42.38629" lon="2.66932">
        <ele>935.2</ele>
        <time>2018-11-26T03:52:19Z</time>
      </trkpt>
      <trkpt lat="42.38629" lon="2.66932">
        <ele>935.3</ele>
        <time>2018-11-26T03:52:19Z</time>
      </trkpt>
      <trkpt lat="42.38629" lon="2.66932">
        <ele>935.2</ele>
        <time>2018-11-26T03:52:19Z</time>
      </trkpt>
      <trkpt lat="42.38629" lon="2.66933">
        <ele>935.2</ele>
        <time>2018-11-26T03:52:19Z</time>
      </trkpt>
      <trkpt lat="42.38629" lon="2.66933">
        <ele>935.1</ele>
        <time>2018-11-26T03:52:19Z</time>
      </trkpt>
      <trkpt lat="42.38629" lon="2.66933">
        <ele>935</ele>
        <time>2018-11-26T03:52:19Z</time>
      </trkpt>
      <trkpt lat="42.38629" lon="2.66933">
        <ele>935.2</ele>
        <time>2018-11-26T03:52:19Z</time>
      </trkpt>
      <trkpt lat="42.38629" lon="2.66933">
        <ele>935.4</ele>
        <time>2018-11-26T03:52:20Z</time>
      </trkpt>
      <trkpt lat="42.38629" lon="2.66933">
        <ele>935.5</ele>
        <time>2018-11-26T03:52:20Z</time>
      </trkpt>
      <trkpt lat="42.38629" lon="2.66933">
        <ele>935.7</ele>
        <time>2018-11-26T03:52:20Z</time>
      </trkpt>
      <trkpt lat="42.38629" lon="2.66933">
        <ele>935.7</ele>
        <time>2018-11-26T03:52:20Z</time>
      </trkpt>
      <trkpt lat="42.38629" lon="2.66933">
        <ele>935.6</ele>
        <time>2018-11-26T03:52:20Z</time>
      </trkpt>
      <trkpt lat="42.38629" lon="2.66933">
        <ele>935.6</ele>
        <time>2018-11-26T03:52:20Z</time>
      </trkpt>
      <trkpt lat="42.38629" lon="2.66933">
        <ele>935.4</ele>
        <time>2018-11-26T03:52:20Z</time>
      </trkpt>
      <trkpt lat="42.38629" lon="2.66933">
        <ele>935.1</ele>
        <time>2018-11-26T03:52:20Z</time>
      </trkpt>
      <trkpt lat="42.38629" lon="2.66933">
        <ele>935</ele>
        <time>2018-11-26T03:52:20Z</time>
      </trkpt>
      <trkpt lat="42.38629" lon="2.66933">
        <ele>934.9</ele>
        <time>2018-11-26T03:52:20Z</time>
      </trkpt>
      <trkpt lat="42.38629" lon="2.66933">
        <ele>935</ele>
        <time>2018-11-26T03:52:20Z</time>
      </trkpt>
      <trkpt lat="42.38629" lon="2.66933">
        <ele>935.1</ele>
        <time>2018-11-26T03:52:20Z</time>
      </trkpt>
      <trkpt lat="42.38629" lon="2.66933">
        <ele>935.1</ele>
        <time>2018-11-26T03:52:20Z</time>
      </trkpt>
      <trkpt lat="42.38629" lon="2.66933">
        <ele>935.1</ele>
        <time>2018-11-26T03:52:20Z</time>
      </trkpt>
      <trkpt lat="42.38629" lon="2.66933">
        <ele>935.2</ele>
        <time>2018-11-26T03:52:20Z</time>
      </trkpt>
      <trkpt lat="42.3863" lon="2.66934">
        <ele>935.1</ele>
        <time>2018-11-26T03:52:20Z</time>
      </trkpt>
      <trkpt lat="42.3863" lon="2.66934">
        <ele>935.1</ele>
        <time>2018-11-26T03:52:20Z</time>
      </trkpt>
      <trkpt lat="42.3863" lon="2.66934">
        <ele>935.1</ele>
        <time>2018-11-26T03:52:20Z</time>
      </trkpt>
      <trkpt lat="42.3863" lon="2.66934">
        <ele>935</ele>
        <time>2018-11-26T03:52:20Z</time>
      </trkpt>
      <trkpt lat="42.3863" lon="2.66934">
        <ele>935</ele>
        <time>2018-11-26T03:52:20Z</time>
      </trkpt>
      <trkpt lat="42.3863" lon="2.66934">
        <ele>935</ele>
        <time>2018-11-26T03:52:20Z</time>
      </trkpt>
      <trkpt lat="42.3863" lon="2.66934">
        <ele>935.1</ele>
        <time>2018-11-26T03:52:21Z</time>
      </trkpt>
      <trkpt lat="42.3863" lon="2.66934">
        <ele>935</ele>
        <time>2018-11-26T03:52:21Z</time>
      </trkpt>
      <trkpt lat="42.3863" lon="2.66934">
        <ele>934.9</ele>
        <time>2018-11-26T03:52:21Z</time>
      </trkpt>
      <trkpt lat="42.3863" lon="2.66934">
        <ele>934.9</ele>
        <time>2018-11-26T03:52:21Z</time>
      </trkpt>
      <trkpt lat="42.3863" lon="2.66934">
        <ele>934.9</ele>
        <time>2018-11-26T03:52:21Z</time>
      </trkpt>
      <trkpt lat="42.3863" lon="2.66934">
        <ele>934.8</ele>
        <time>2018-11-26T03:52:21Z</time>
      </trkpt>
      <trkpt lat="42.3863" lon="2.66934">
        <ele>934.5</ele>
        <time>2018-11-26T03:52:21Z</time>
      </trkpt>
      <trkpt lat="42.3863" lon="2.66934">
        <ele>934.4</ele>
        <time>2018-11-26T03:52:21Z</time>
      </trkpt>
      <trkpt lat="42.3863" lon="2.66934">
        <ele>934.2</ele>
        <time>2018-11-26T03:52:21Z</time>
      </trkpt>
      <trkpt lat="42.3863" lon="2.66934">
        <ele>934.2</ele>
        <time>2018-11-26T03:52:21Z</time>
      </trkpt>
      <trkpt lat="42.3863" lon="2.66934">
        <ele>934.3</ele>
        <time>2018-11-26T03:52:21Z</time>
      </trkpt>
      <trkpt lat="42.3863" lon="2.66934">
        <ele>934.3</ele>
        <time>2018-11-26T03:52:21Z</time>
      </trkpt>
      <trkpt lat="42.3863" lon="2.66934">
        <ele>934.4</ele>
        <time>2018-11-26T03:52:21Z</time>
      </trkpt>
      <trkpt lat="42.3863" lon="2.66934">
        <ele>934.7</ele>
        <time>2018-11-26T03:52:21Z</time>
      </trkpt>
      <trkpt lat="42.3863" lon="2.66934">
        <ele>934.8</ele>
        <time>2018-11-26T03:52:21Z</time>
      </trkpt>
      <trkpt lat="42.3863" lon="2.66934">
        <ele>935.1</ele>
        <time>2018-11-26T03:52:21Z</time>
      </trkpt>
      <trkpt lat="42.3863" lon="2.66934">
        <ele>934.9</ele>
        <time>2018-11-26T03:52:21Z</time>
      </trkpt>
      <trkpt lat="42.3863" lon="2.66934">
        <ele>934.8</ele>
        <time>2018-11-26T03:52:21Z</time>
      </trkpt>
      <trkpt lat="42.38629" lon="2.66934">
        <ele>934.7</ele>
        <time>2018-11-26T03:52:21Z</time>
      </trkpt>
      <trkpt lat="42.38629" lon="2.66934">
        <ele>934.7</ele>
        <time>2018-11-26T03:52:21Z</time>
      </trkpt>
      <trkpt lat="42.38629" lon="2.66934">
        <ele>934.6</ele>
        <time>2018-11-26T03:52:21Z</time>
      </trkpt>
      <trkpt lat="42.38629" lon="2.66934">
        <ele>934.5</ele>
        <time>2018-11-26T03:52:21Z</time>
      </trkpt>
      <trkpt lat="42.38629" lon="2.66934">
        <ele>934.5</ele>
        <time>2018-11-26T03:52:21Z</time>
      </trkpt>
      <trkpt lat="42.38629" lon="2.66934">
        <ele>934.5</ele>
        <time>2018-11-26T03:52:21Z</time>
      </trkpt>
      <trkpt lat="42.38629" lon="2.66934">
        <ele>934.3</ele>
        <time>2018-11-26T03:52:21Z</time>
      </trkpt>
      <trkpt lat="42.38629" lon="2.66934">
        <ele>934.2</ele>
        <time>2018-11-26T03:52:21Z</time>
      </trkpt>
      <trkpt lat="42.38629" lon="2.66935">
        <ele>934.1</ele>
        <time>2018-11-26T03:52:21Z</time>
      </trkpt>
      <trkpt lat="42.38629" lon="2.66935">
        <ele>934</ele>
        <time>2018-11-26T03:52:21Z</time>
      </trkpt>
      <trkpt lat="42.38629" lon="2.66934">
        <ele>933.9</ele>
        <time>2018-11-26T03:52:21Z</time>
      </trkpt>
      <trkpt lat="42.38629" lon="2.66934">
        <ele>933.8</ele>
        <time>2018-11-26T03:52:21Z</time>
      </trkpt>
      <trkpt lat="42.3863" lon="2.66934">
        <ele>934</ele>
        <time>2018-11-26T03:52:22Z</time>
      </trkpt>
      <trkpt lat="42.3863" lon="2.66933">
        <ele>934.1</ele>
        <time>2018-11-26T03:52:22Z</time>
      </trkpt>
      <trkpt lat="42.3863" lon="2.66933">
        <ele>934.1</ele>
        <time>2018-11-26T03:52:22Z</time>
      </trkpt>
      <trkpt lat="42.3863" lon="2.66932">
        <ele>934.3</ele>
        <time>2018-11-26T03:52:22Z</time>
      </trkpt>
      <trkpt lat="42.3863" lon="2.66932">
        <ele>934.3</ele>
        <time>2018-11-26T03:52:22Z</time>
      </trkpt>
      <trkpt lat="42.3863" lon="2.66931">
        <ele>934.3</ele>
        <time>2018-11-26T03:52:23Z</time>
      </trkpt>
      <trkpt lat="42.3863" lon="2.6693">
        <ele>934.3</ele>
        <time>2018-11-26T03:52:23Z</time>
      </trkpt>
      <trkpt lat="42.3863" lon="2.6693">
        <ele>934.5</ele>
        <time>2018-11-26T03:52:23Z</time>
      </trkpt>
      <trkpt lat="42.3863" lon="2.6693">
        <ele>934.6</ele>
        <time>2018-11-26T03:52:23Z</time>
      </trkpt>
      <trkpt lat="42.3863" lon="2.6693">
        <ele>934.8</ele>
        <time>2018-11-26T03:52:23Z</time>
      </trkpt>
      <trkpt lat="42.38629" lon="2.6693">
        <ele>935</ele>
        <time>2018-11-26T03:52:23Z</time>
      </trkpt>
      <trkpt lat="42.38629" lon="2.6693">
        <ele>934.9</ele>
        <time>2018-11-26T03:52:23Z</time>
      </trkpt>
      <trkpt lat="42.38629" lon="2.6693">
        <ele>934.7</ele>
        <time>2018-11-26T03:52:23Z</time>
      </trkpt>
      <trkpt lat="42.38629" lon="2.6693">
        <ele>934.5</ele>
        <time>2018-11-26T03:52:24Z</time>
      </trkpt>
      <trkpt lat="42.3863" lon="2.6693">
        <ele>934.2</ele>
        <time>2018-11-26T03:52:24Z</time>
      </trkpt>
      <trkpt lat="42.38629" lon="2.6693">
        <ele>934.1</ele>
        <time>2018-11-26T03:52:24Z</time>
      </trkpt>
      <trkpt lat="42.38629" lon="2.6693">
        <ele>934.2</ele>
        <time>2018-11-26T03:52:24Z</time>
      </trkpt>
      <trkpt lat="42.3863" lon="2.6693">
        <ele>934.3</ele>
        <time>2018-11-26T03:52:24Z</time>
      </trkpt>
      <trkpt lat="42.3863" lon="2.6693">
        <ele>934.3</ele>
        <time>2018-11-26T03:52:24Z</time>
      </trkpt>
      <trkpt lat="42.38629" lon="2.6693">
        <ele>934.3</ele>
        <time>2018-11-26T03:52:24Z</time>
      </trkpt>
      <trkpt lat="42.3863" lon="2.66929">
        <ele>934.4</ele>
        <time>2018-11-26T03:52:24Z</time>
      </trkpt>
      <trkpt lat="42.3863" lon="2.6693">
        <ele>934.3</ele>
        <time>2018-11-26T03:52:24Z</time>
      </trkpt>
      <trkpt lat="42.3863" lon="2.6693">
        <ele>934.3</ele>
        <time>2018-11-26T03:52:24Z</time>
      </trkpt>
      <trkpt lat="42.38629" lon="2.6693">
        <ele>934.4</ele>
        <time>2018-11-26T03:52:24Z</time>
      </trkpt>
      <trkpt lat="42.38629" lon="2.6693">
        <ele>934.3</ele>
        <time>2018-11-26T03:52:24Z</time>
      </trkpt>
      <trkpt lat="42.38629" lon="2.6693">
        <ele>934.3</ele>
        <time>2018-11-26T03:52:24Z</time>
      </trkpt>
      <trkpt lat="42.38629" lon="2.6693">
        <ele>934.4</ele>
        <time>2018-11-26T03:52:24Z</time>
      </trkpt>
      <trkpt lat="42.38629" lon="2.6693">
        <ele>934.3</ele>
        <time>2018-11-26T03:52:25Z</time>
      </trkpt>
      <trkpt lat="42.38629" lon="2.6693">
        <ele>934.4</ele>
        <time>2018-11-26T03:52:25Z</time>
      </trkpt>
      <trkpt lat="42.38629" lon="2.6693">
        <ele>934.3</ele>
        <time>2018-11-26T03:52:25Z</time>
      </trkpt>
      <trkpt lat="42.38629" lon="2.6693">
        <ele>934.3</ele>
        <time>2018-11-26T03:52:25Z</time>
      </trkpt>
      <trkpt lat="42.38629" lon="2.6693">
        <ele>934.3</ele>
        <time>2018-11-26T03:52:25Z</time>
      </trkpt>
      <trkpt lat="42.38629" lon="2.6693">
        <ele>934.3</ele>
        <time>2018-11-26T03:52:25Z</time>
      </trkpt>
      <trkpt lat="42.38629" lon="2.6693">
        <ele>934.3</ele>
        <time>2018-11-26T03:52:25Z</time>
      </trkpt>
      <trkpt lat="42.38629" lon="2.6693">
        <ele>934.4</ele>
        <time>2018-11-26T03:52:25Z</time>
      </trkpt>
      <trkpt lat="42.38629" lon="2.66929">
        <ele>934.4</ele>
        <time>2018-11-26T03:52:25Z</time>
      </trkpt>
      <trkpt lat="42.38629" lon="2.66929">
        <ele>934.5</ele>
        <time>2018-11-26T03:52:25Z</time>
      </trkpt>
      <trkpt lat="42.38629" lon="2.66929">
        <ele>934.8</ele>
        <time>2018-11-26T03:52:25Z</time>
      </trkpt>
      <trkpt lat="42.38629" lon="2.66929">
        <ele>934.8</ele>
        <time>2018-11-26T03:52:25Z</time>
      </trkpt>
      <trkpt lat="42.38629" lon="2.66929">
        <ele>935</ele>
        <time>2018-11-26T03:52:25Z</time>
      </trkpt>
      <trkpt lat="42.38629" lon="2.66929">
        <ele>935.2</ele>
        <time>2018-11-26T03:52:25Z</time>
      </trkpt>
      <trkpt lat="42.38629" lon="2.66929">
        <ele>935</ele>
        <time>2018-11-26T03:52:25Z</time>
      </trkpt>
      <trkpt lat="42.38628" lon="2.66928">
        <ele>935</ele>
        <time>2018-11-26T03:52:26Z</time>
      </trkpt>
      <trkpt lat="42.38627" lon="2.66928">
        <ele>935</ele>
        <time>2018-11-26T03:52:26Z</time>
      </trkpt>
      <trkpt lat="42.38628" lon="2.66929">
        <ele>934.7</ele>
        <time>2018-11-26T03:52:26Z</time>
      </trkpt>
      <trkpt lat="42.38629" lon="2.66929">
        <ele>934.6</ele>
        <time>2018-11-26T03:52:27Z</time>
      </trkpt>
      <trkpt lat="42.38629" lon="2.6693">
        <ele>934.4</ele>
        <time>2018-11-26T03:52:27Z</time>
      </trkpt>
      <trkpt lat="42.38629" lon="2.6693">
        <ele>934.5</ele>
        <time>2018-11-26T03:52:27Z</time>
      </trkpt>
      <trkpt lat="42.3863" lon="2.6693">
        <ele>934.8</ele>
        <time>2018-11-26T03:52:27Z</time>
      </trkpt>
      <trkpt lat="42.3863" lon="2.6693">
        <ele>934.9</ele>
        <time>2018-11-26T03:52:27Z</time>
      </trkpt>
      <trkpt lat="42.3863" lon="2.6693">
        <ele>935</ele>
        <time>2018-11-26T03:52:27Z</time>
      </trkpt>
      <trkpt lat="42.3863" lon="2.6693">
        <ele>935.2</ele>
        <time>2018-11-26T03:52:27Z</time>
      </trkpt>
      <trkpt lat="42.3863" lon="2.6693">
        <ele>935.5</ele>
        <time>2018-11-26T03:52:27Z</time>
      </trkpt>
      <trkpt lat="42.3863" lon="2.6693">
        <ele>935.6</ele>
        <time>2018-11-26T03:52:27Z</time>
      </trkpt>
      <trkpt lat="42.3863" lon="2.6693">
        <ele>935.4</ele>
        <time>2018-11-26T03:52:27Z</time>
      </trkpt>
      <trkpt lat="42.3863" lon="2.66929">
        <ele>935.4</ele>
        <time>2018-11-26T03:52:27Z</time>
      </trkpt>
      <trkpt lat="42.3863" lon="2.66929">
        <ele>935.4</ele>
        <time>2018-11-26T03:52:27Z</time>
      </trkpt>
      <trkpt lat="42.38631" lon="2.66929">
        <ele>935.4</ele>
        <time>2018-11-26T03:52:27Z</time>
      </trkpt>
      <trkpt lat="42.38631" lon="2.66929">
        <ele>935.2</ele>
        <time>2018-11-26T03:52:27Z</time>
      </trkpt>
      <trkpt lat="42.38631" lon="2.66929">
        <ele>935.3</ele>
        <time>2018-11-26T03:52:27Z</time>
      </trkpt>
      <trkpt lat="42.38631" lon="2.66929">
        <ele>935.2</ele>
        <time>2018-11-26T03:52:28Z</time>
      </trkpt>
      <trkpt lat="42.38631" lon="2.66929">
        <ele>935.1</ele>
        <time>2018-11-26T03:52:28Z</time>
      </trkpt>
      <trkpt lat="42.38631" lon="2.66929">
        <ele>935.1</ele>
        <time>2018-11-26T03:52:28Z</time>
      </trkpt>
      <trkpt lat="42.38631" lon="2.66929">
        <ele>935.1</ele>
        <time>2018-11-26T03:52:28Z</time>
      </trkpt>
      <trkpt lat="42.38631" lon="2.66929">
        <ele>935</ele>
        <time>2018-11-26T03:52:28Z</time>
      </trkpt>
      <trkpt lat="42.38631" lon="2.66929">
        <ele>934.7</ele>
        <time>2018-11-26T03:52:28Z</time>
      </trkpt>
      <trkpt lat="42.38631" lon="2.66929">
        <ele>934.9</ele>
        <time>2018-11-26T03:52:28Z</time>
      </trkpt>
      <trkpt lat="42.38631" lon="2.66929">
        <ele>935.1</ele>
        <time>2018-11-26T03:52:28Z</time>
      </trkpt>
      <trkpt lat="42.38632" lon="2.66929">
        <ele>935.3</ele>
        <time>2018-11-26T03:52:28Z</time>
      </trkpt>
      <trkpt lat="42.38632" lon="2.66929">
        <ele>935.2</ele>
        <time>2018-11-26T03:52:28Z</time>
      </trkpt>
      <trkpt lat="42.38632" lon="2.66929">
        <ele>934.8</ele>
        <time>2018-11-26T03:52:28Z</time>
      </trkpt>
      <trkpt lat="42.38632" lon="2.66929">
        <ele>934.5</ele>
        <time>2018-11-26T03:52:28Z</time>
      </trkpt>
      <trkpt lat="42.38632" lon="2.66929">
        <ele>934.5</ele>
        <time>2018-11-26T03:52:28Z</time>
      </trkpt>
      <trkpt lat="42.38632" lon="2.66929">
        <ele>934.5</ele>
        <time>2018-11-26T03:52:28Z</time>
      </trkpt>
      <trkpt lat="42.38632" lon="2.66929">
        <ele>934.4</ele>
        <time>2018-11-26T03:52:28Z</time>
      </trkpt>
      <trkpt lat="42.38632" lon="2.66929">
        <ele>934.6</ele>
        <time>2018-11-26T03:52:28Z</time>
      </trkpt>
      <trkpt lat="42.38632" lon="2.66929">
        <ele>934.7</ele>
        <time>2018-11-26T03:52:28Z</time>
      </trkpt>
      <trkpt lat="42.38632" lon="2.66928">
        <ele>935</ele>
        <time>2018-11-26T03:52:28Z</time>
      </trkpt>
      <trkpt lat="42.38632" lon="2.66928">
        <ele>935.2</ele>
        <time>2018-11-26T03:52:28Z</time>
      </trkpt>
      <trkpt lat="42.38632" lon="2.66928">
        <ele>935.4</ele>
        <time>2018-11-26T03:52:28Z</time>
      </trkpt>
      <trkpt lat="42.38632" lon="2.66928">
        <ele>935.4</ele>
        <time>2018-11-26T03:52:28Z</time>
      </trkpt>
      <trkpt lat="42.38632" lon="2.66928">
        <ele>935.6</ele>
        <time>2018-11-26T03:52:28Z</time>
      </trkpt>
      <trkpt lat="42.38632" lon="2.66928">
        <ele>935.5</ele>
        <time>2018-11-26T03:52:28Z</time>
      </trkpt>
      <trkpt lat="42.38632" lon="2.66928">
        <ele>935.4</ele>
        <time>2018-11-26T03:52:28Z</time>
      </trkpt>
      <trkpt lat="42.38632" lon="2.66928">
        <ele>935.1</ele>
        <time>2018-11-26T03:52:28Z</time>
      </trkpt>
      <trkpt lat="42.38632" lon="2.66928">
        <ele>935.2</ele>
        <time>2018-11-26T03:52:28Z</time>
      </trkpt>
      <trkpt lat="42.38632" lon="2.66928">
        <ele>935.3</ele>
        <time>2018-11-26T03:52:28Z</time>
      </trkpt>
      <trkpt lat="42.38632" lon="2.66928">
        <ele>935.3</ele>
        <time>2018-11-26T03:52:28Z</time>
      </trkpt>
      <trkpt lat="42.38632" lon="2.66928">
        <ele>935.5</ele>
        <time>2018-11-26T03:52:28Z</time>
      </trkpt>
      <trkpt lat="42.38632" lon="2.66928">
        <ele>935.9</ele>
        <time>2018-11-26T03:52:28Z</time>
      </trkpt>
      <trkpt lat="42.38631" lon="2.66928">
        <ele>936.2</ele>
        <time>2018-11-26T03:52:29Z</time>
      </trkpt>
      <trkpt lat="42.38631" lon="2.66928">
        <ele>936.1</ele>
        <time>2018-11-26T03:52:29Z</time>
      </trkpt>
      <trkpt lat="42.38631" lon="2.66928">
        <ele>936.1</ele>
        <time>2018-11-26T03:52:29Z</time>
      </trkpt>
      <trkpt lat="42.38631" lon="2.66928">
        <ele>936.1</ele>
        <time>2018-11-26T03:52:29Z</time>
      </trkpt>
      <trkpt lat="42.38631" lon="2.66928">
        <ele>935.9</ele>
        <time>2018-11-26T03:52:29Z</time>
      </trkpt>
      <trkpt lat="42.38631" lon="2.66928">
        <ele>935.6</ele>
        <time>2018-11-26T03:52:29Z</time>
      </trkpt>
      <trkpt lat="42.38631" lon="2.66928">
        <ele>935.4</ele>
        <time>2018-11-26T03:52:29Z</time>
      </trkpt>
      <trkpt lat="42.38631" lon="2.66928">
        <ele>934.9</ele>
        <time>2018-11-26T03:52:29Z</time>
      </trkpt>
      <trkpt lat="42.38631" lon="2.66928">
        <ele>935.1</ele>
        <time>2018-11-26T03:52:29Z</time>
      </trkpt>
      <trkpt lat="42.38631" lon="2.66928">
        <ele>935.3</ele>
        <time>2018-11-26T03:52:29Z</time>
      </trkpt>
      <trkpt lat="42.38631" lon="2.66928">
        <ele>935.5</ele>
        <time>2018-11-26T03:52:29Z</time>
      </trkpt>
      <trkpt lat="42.38631" lon="2.66928">
        <ele>935.4</ele>
        <time>2018-11-26T03:52:29Z</time>
      </trkpt>
      <trkpt lat="42.38631" lon="2.66928">
        <ele>935.3</ele>
        <time>2018-11-26T03:52:29Z</time>
      </trkpt>
      <trkpt lat="42.38632" lon="2.66928">
        <ele>935.1</ele>
        <time>2018-11-26T03:52:29Z</time>
      </trkpt>
      <trkpt lat="42.38632" lon="2.66928">
        <ele>935</ele>
        <time>2018-11-26T03:52:29Z</time>
      </trkpt>
      <trkpt lat="42.38632" lon="2.66928">
        <ele>934.6</ele>
        <time>2018-11-26T03:52:29Z</time>
      </trkpt>
      <trkpt lat="42.38632" lon="2.66928">
        <ele>934.1</ele>
        <time>2018-11-26T03:52:29Z</time>
      </trkpt>
      <trkpt lat="42.38632" lon="2.66928">
        <ele>934</ele>
        <time>2018-11-26T03:52:29Z</time>
      </trkpt>
      <trkpt lat="42.38632" lon="2.66928">
        <ele>933.7</ele>
        <time>2018-11-26T03:52:29Z</time>
      </trkpt>
      <trkpt lat="42.38632" lon="2.66928">
        <ele>933.4</ele>
        <time>2018-11-26T03:52:29Z</time>
      </trkpt>
      <trkpt lat="42.38632" lon="2.66928">
        <ele>933.7</ele>
        <time>2018-11-26T03:52:29Z</time>
      </trkpt>
      <trkpt lat="42.38632" lon="2.66928">
        <ele>933.7</ele>
        <time>2018-11-26T03:52:29Z</time>
      </trkpt>
      <trkpt lat="42.38632" lon="2.66928">
        <ele>933.9</ele>
        <time>2018-11-26T03:52:29Z</time>
      </trkpt>
      <trkpt lat="42.38632" lon="2.66928">
        <ele>934.3</ele>
        <time>2018-11-26T03:52:29Z</time>
      </trkpt>
      <trkpt lat="42.38632" lon="2.66928">
        <ele>934.5</ele>
        <time>2018-11-26T03:52:29Z</time>
      </trkpt>
      <trkpt lat="42.38632" lon="2.66928">
        <ele>934.6</ele>
        <time>2018-11-26T03:52:29Z</time>
      </trkpt>
      <trkpt lat="42.38632" lon="2.66928">
        <ele>934.9</ele>
        <time>2018-11-26T03:52:29Z</time>
      </trkpt>
      <trkpt lat="42.38632" lon="2.66928">
        <ele>935.1</ele>
        <time>2018-11-26T03:52:29Z</time>
      </trkpt>
      <trkpt lat="42.38632" lon="2.66928">
        <ele>935.1</ele>
        <time>2018-11-26T03:52:29Z</time>
      </trkpt>
      <trkpt lat="42.38632" lon="2.66928">
        <ele>935.3</ele>
        <time>2018-11-26T03:52:29Z</time>
      </trkpt>
      <trkpt lat="42.38632" lon="2.66928">
        <ele>935.2</ele>
        <time>2018-11-26T03:52:29Z</time>
      </trkpt>
      <trkpt lat="42.38632" lon="2.66928">
        <ele>935.2</ele>
        <time>2018-11-26T03:52:29Z</time>
      </trkpt>
      <trkpt lat="42.38632" lon="2.66928">
        <ele>935</ele>
        <time>2018-11-26T03:52:29Z</time>
      </trkpt>
      <trkpt lat="42.38632" lon="2.66928">
        <ele>935.2</ele>
        <time>2018-11-26T03:52:29Z</time>
      </trkpt>
      <trkpt lat="42.38632" lon="2.66928">
        <ele>935.1</ele>
        <time>2018-11-26T03:52:29Z</time>
      </trkpt>
      <trkpt lat="42.38632" lon="2.66928">
        <ele>935.3</ele>
        <time>2018-11-26T03:52:29Z</time>
      </trkpt>
      <trkpt lat="42.38632" lon="2.66928">
        <ele>935.2</ele>
        <time>2018-11-26T03:52:29Z</time>
      </trkpt>
      <trkpt lat="42.38632" lon="2.66928">
        <ele>935.4</ele>
        <time>2018-11-26T03:52:29Z</time>
      </trkpt>
      <trkpt lat="42.38632" lon="2.66928">
        <ele>935.3</ele>
        <time>2018-11-26T03:52:29Z</time>
      </trkpt>
      <trkpt lat="42.38632" lon="2.66928">
        <ele>935.4</ele>
        <time>2018-11-26T03:52:29Z</time>
      </trkpt>
      <trkpt lat="42.38632" lon="2.66928">
        <ele>935.5</ele>
        <time>2018-11-26T03:52:29Z</time>
      </trkpt>
      <trkpt lat="42.38632" lon="2.66928">
        <ele>935.4</ele>
        <time>2018-11-26T03:52:29Z</time>
      </trkpt>
      <trkpt lat="42.38632" lon="2.66928">
        <ele>935.4</ele>
        <time>2018-11-26T03:52:29Z</time>
      </trkpt>
      <trkpt lat="42.38632" lon="2.66928">
        <ele>935.6</ele>
        <time>2018-11-26T03:52:29Z</time>
      </trkpt>
      <trkpt lat="42.38632" lon="2.66928">
        <ele>935.8</ele>
        <time>2018-11-26T03:52:29Z</time>
      </trkpt>
      <trkpt lat="42.38632" lon="2.66928">
        <ele>936</ele>
        <time>2018-11-26T03:52:29Z</time>
      </trkpt>
      <trkpt lat="42.38632" lon="2.66928">
        <ele>935.8</ele>
        <time>2018-11-26T03:52:29Z</time>
      </trkpt>
      <trkpt lat="42.38632" lon="2.66928">
        <ele>935.4</ele>
        <time>2018-11-26T03:52:29Z</time>
      </trkpt>
      <trkpt lat="42.38632" lon="2.66928">
        <ele>934.9</ele>
        <time>2018-11-26T03:52:29Z</time>
      </trkpt>
      <trkpt lat="42.38632" lon="2.66928">
        <ele>935.1</ele>
        <time>2018-11-26T03:52:29Z</time>
      </trkpt>
      <trkpt lat="42.38632" lon="2.66928">
        <ele>935.6</ele>
        <time>2018-11-26T03:52:29Z</time>
      </trkpt>
      <trkpt lat="42.38632" lon="2.66928">
        <ele>935.8</ele>
        <time>2018-11-26T03:52:29Z</time>
      </trkpt>
      <trkpt lat="42.38632" lon="2.66928">
        <ele>936.1</ele>
        <time>2018-11-26T03:52:29Z</time>
      </trkpt>
      <trkpt lat="42.38632" lon="2.66928">
        <ele>935.9</ele>
        <time>2018-11-26T03:52:30Z</time>
      </trkpt>
      <trkpt lat="42.38632" lon="2.66928">
        <ele>935.8</ele>
        <time>2018-11-26T03:52:30Z</time>
      </trkpt>
      <trkpt lat="42.38632" lon="2.66928">
        <ele>935.4</ele>
        <time>2018-11-26T03:52:30Z</time>
      </trkpt>
      <trkpt lat="42.38632" lon="2.66929">
        <ele>935.5</ele>
        <time>2018-11-26T03:52:30Z</time>
      </trkpt>
      <trkpt lat="42.38632" lon="2.66928">
        <ele>935.4</ele>
        <time>2018-11-26T03:52:30Z</time>
      </trkpt>
      <trkpt lat="42.38632" lon="2.66929">
        <ele>935.2</ele>
        <time>2018-11-26T03:52:30Z</time>
      </trkpt>
      <trkpt lat="42.38633" lon="2.66929">
        <ele>935.2</ele>
        <time>2018-11-26T03:52:30Z</time>
      </trkpt>
      <trkpt lat="42.38632" lon="2.66929">
        <ele>935</ele>
        <time>2018-11-26T03:52:30Z</time>
      </trkpt>
      <trkpt lat="42.38632" lon="2.66929">
        <ele>934.9</ele>
        <time>2018-11-26T03:52:30Z</time>
      </trkpt>
      <trkpt lat="42.38632" lon="2.66929">
        <ele>935</ele>
        <time>2018-11-26T03:52:30Z</time>
      </trkpt>
      <trkpt lat="42.38632" lon="2.66929">
        <ele>935.2</ele>
        <time>2018-11-26T03:52:30Z</time>
      </trkpt>
      <trkpt lat="42.38632" lon="2.66929">
        <ele>935.5</ele>
        <time>2018-11-26T03:52:30Z</time>
      </trkpt>
      <trkpt lat="42.38632" lon="2.66929">
        <ele>935.4</ele>
        <time>2018-11-26T03:52:30Z</time>
      </trkpt>
      <trkpt lat="42.38632" lon="2.66929">
        <ele>935.3</ele>
        <time>2018-11-26T03:52:30Z</time>
      </trkpt>
      <trkpt lat="42.38632" lon="2.66929">
        <ele>935</ele>
        <time>2018-11-26T03:52:30Z</time>
      </trkpt>
      <trkpt lat="42.38632" lon="2.66929">
        <ele>934.8</ele>
        <time>2018-11-26T03:52:30Z</time>
      </trkpt>
      <trkpt lat="42.38632" lon="2.66929">
        <ele>934.9</ele>
        <time>2018-11-26T03:52:30Z</time>
      </trkpt>
      <trkpt lat="42.38633" lon="2.66929">
        <ele>935.1</ele>
        <time>2018-11-26T03:52:30Z</time>
      </trkpt>
      <trkpt lat="42.38633" lon="2.66929">
        <ele>935.2</ele>
        <time>2018-11-26T03:52:30Z</time>
      </trkpt>
      <trkpt lat="42.38632" lon="2.66929">
        <ele>935.3</ele>
        <time>2018-11-26T03:52:30Z</time>
      </trkpt>
      <trkpt lat="42.38633" lon="2.66929">
        <ele>935.4</ele>
        <time>2018-11-26T03:52:30Z</time>
      </trkpt>
      <trkpt lat="42.38633" lon="2.66929">
        <ele>935.6</ele>
        <time>2018-11-26T03:52:30Z</time>
      </trkpt>
      <trkpt lat="42.38633" lon="2.66929">
        <ele>935.5</ele>
        <time>2018-11-26T03:52:30Z</time>
      </trkpt>
      <trkpt lat="42.38632" lon="2.66929">
        <ele>935.3</ele>
        <time>2018-11-26T03:52:31Z</time>
      </trkpt>
      <trkpt lat="42.38632" lon="2.66929">
        <ele>935.3</ele>
        <time>2018-11-26T03:52:31Z</time>
      </trkpt>
      <trkpt lat="42.38632" lon="2.66929">
        <ele>935.4</ele>
        <time>2018-11-26T03:52:31Z</time>
      </trkpt>
      <trkpt lat="42.38632" lon="2.66929">
        <ele>935.4</ele>
        <time>2018-11-26T03:52:31Z</time>
      </trkpt>
      <trkpt lat="42.38632" lon="2.66929">
        <ele>935.4</ele>
        <time>2018-11-26T03:52:31Z</time>
      </trkpt>
      <trkpt lat="42.38632" lon="2.66929">
        <ele>935.1</ele>
        <time>2018-11-26T03:52:31Z</time>
      </trkpt>
      <trkpt lat="42.38632" lon="2.66929">
        <ele>934.9</ele>
        <time>2018-11-26T03:52:31Z</time>
      </trkpt>
      <trkpt lat="42.38632" lon="2.66929">
        <ele>934.5</ele>
        <time>2018-11-26T03:52:31Z</time>
      </trkpt>
      <trkpt lat="42.38632" lon="2.66929">
        <ele>934.8</ele>
        <time>2018-11-26T03:52:31Z</time>
      </trkpt>
      <trkpt lat="42.38632" lon="2.66929">
        <ele>934.8</ele>
        <time>2018-11-26T03:52:31Z</time>
      </trkpt>
      <trkpt lat="42.38633" lon="2.66929">
        <ele>935.1</ele>
        <time>2018-11-26T03:52:31Z</time>
      </trkpt>
      <trkpt lat="42.38633" lon="2.66929">
        <ele>935.5</ele>
        <time>2018-11-26T03:52:31Z</time>
      </trkpt>
      <trkpt lat="42.38633" lon="2.66929">
        <ele>935.3</ele>
        <time>2018-11-26T03:52:31Z</time>
      </trkpt>
      <trkpt lat="42.38633" lon="2.66929">
        <ele>935.2</ele>
        <time>2018-11-26T03:52:31Z</time>
      </trkpt>
      <trkpt lat="42.38633" lon="2.66929">
        <ele>935.1</ele>
        <time>2018-11-26T03:52:31Z</time>
      </trkpt>
      <trkpt lat="42.38633" lon="2.6693">
        <ele>935</ele>
        <time>2018-11-26T03:52:31Z</time>
      </trkpt>
      <trkpt lat="42.38633" lon="2.6693">
        <ele>934.9</ele>
        <time>2018-11-26T03:52:31Z</time>
      </trkpt>
      <trkpt lat="42.38633" lon="2.66929">
        <ele>934.9</ele>
        <time>2018-11-26T03:52:31Z</time>
      </trkpt>
      <trkpt lat="42.38633" lon="2.66929">
        <ele>934.8</ele>
        <time>2018-11-26T03:52:31Z</time>
      </trkpt>
      <trkpt lat="42.38633" lon="2.66929">
        <ele>934.6</ele>
        <time>2018-11-26T03:52:31Z</time>
      </trkpt>
      <trkpt lat="42.38633" lon="2.66929">
        <ele>934.5</ele>
        <time>2018-11-26T03:52:31Z</time>
      </trkpt>
      <trkpt lat="42.38633" lon="2.6693">
        <ele>934.6</ele>
        <time>2018-11-26T03:52:31Z</time>
      </trkpt>
      <trkpt lat="42.38633" lon="2.6693">
        <ele>934.8</ele>
        <time>2018-11-26T03:52:31Z</time>
      </trkpt>
      <trkpt lat="42.38633" lon="2.6693">
        <ele>934.9</ele>
        <time>2018-11-26T03:52:31Z</time>
      </trkpt>
      <trkpt lat="42.38633" lon="2.6693">
        <ele>935</ele>
        <time>2018-11-26T03:52:32Z</time>
      </trkpt>
      <trkpt lat="42.38634" lon="2.6693">
        <ele>934.9</ele>
        <time>2018-11-26T03:52:32Z</time>
      </trkpt>
      <trkpt lat="42.38634" lon="2.6693">
        <ele>934.8</ele>
        <time>2018-11-26T03:52:32Z</time>
      </trkpt>
      <trkpt lat="42.38634" lon="2.6693">
        <ele>934.7</ele>
        <time>2018-11-26T03:52:32Z</time>
      </trkpt>
      <trkpt lat="42.38634" lon="2.6693">
        <ele>934.8</ele>
        <time>2018-11-26T03:52:32Z</time>
      </trkpt>
      <trkpt lat="42.38634" lon="2.66931">
        <ele>934.9</ele>
        <time>2018-11-26T03:52:32Z</time>
      </trkpt>
      <trkpt lat="42.38634" lon="2.66932">
        <ele>935.1</ele>
        <time>2018-11-26T03:52:32Z</time>
      </trkpt>
      <trkpt lat="42.38634" lon="2.66932">
        <ele>935.3</ele>
        <time>2018-11-26T03:52:32Z</time>
      </trkpt>
      <trkpt lat="42.38634" lon="2.66932">
        <ele>935.5</ele>
        <time>2018-11-26T03:52:32Z</time>
      </trkpt>
      <trkpt lat="42.38634" lon="2.66932">
        <ele>935.7</ele>
        <time>2018-11-26T03:52:32Z</time>
      </trkpt>
      <trkpt lat="42.38635" lon="2.66932">
        <ele>935.8</ele>
        <time>2018-11-26T03:52:32Z</time>
      </trkpt>
      <trkpt lat="42.38635" lon="2.66932">
        <ele>935.9</ele>
        <time>2018-11-26T03:52:32Z</time>
      </trkpt>
      <trkpt lat="42.38635" lon="2.66932">
        <ele>935.9</ele>
        <time>2018-11-26T03:52:33Z</time>
      </trkpt>
      <trkpt lat="42.38635" lon="2.66933">
        <ele>935.8</ele>
        <time>2018-11-26T03:52:33Z</time>
      </trkpt>
      <trkpt lat="42.38636" lon="2.66934">
        <ele>935.8</ele>
        <time>2018-11-26T03:52:33Z</time>
      </trkpt>
      <trkpt lat="42.38636" lon="2.66936">
        <ele>935.5</ele>
        <time>2018-11-26T03:52:34Z</time>
      </trkpt>
      <trkpt lat="42.38637" lon="2.66937">
        <ele>935.5</ele>
        <time>2018-11-26T03:52:34Z</time>
      </trkpt>
      <trkpt lat="42.38637" lon="2.66938">
        <ele>935.3</ele>
        <time>2018-11-26T03:52:34Z</time>
      </trkpt>
      <trkpt lat="42.38639" lon="2.66941">
        <ele>934.7</ele>
        <time>2018-11-26T03:52:36Z</time>
      </trkpt>
      <trkpt lat="42.3864" lon="2.66943">
        <ele>934.5</ele>
        <time>2018-11-26T03:52:36Z</time>
      </trkpt>
      <trkpt lat="42.3864" lon="2.66944">
        <ele>934.4</ele>
        <time>2018-11-26T03:52:37Z</time>
      </trkpt>
      <trkpt lat="42.38642" lon="2.66949">
        <ele>933.9</ele>
        <time>2018-11-26T03:52:38Z</time>
      </trkpt>
      <trkpt lat="42.38643" lon="2.66952">
        <ele>933.9</ele>
        <time>2018-11-26T03:52:39Z</time>
      </trkpt>
      <trkpt lat="42.38644" lon="2.66953">
        <ele>934</ele>
        <time>2018-11-26T03:52:40Z</time>
      </trkpt>
      <trkpt lat="42.38655" lon="2.66967">
        <ele>933.9</ele>
        <time>2018-11-26T03:52:46Z</time>
      </trkpt>
      <trkpt lat="42.38656" lon="2.66968">
        <ele>933.6</ele>
        <time>2018-11-26T03:52:46Z</time>
      </trkpt>
      <trkpt lat="42.38656" lon="2.66968">
        <ele>933.5</ele>
        <time>2018-11-26T03:52:46Z</time>
      </trkpt>
      <trkpt lat="42.38656" lon="2.66969">
        <ele>933.7</ele>
        <time>2018-11-26T03:52:46Z</time>
      </trkpt>
      <trkpt lat="42.38656" lon="2.66969">
        <ele>934</ele>
        <time>2018-11-26T03:52:46Z</time>
      </trkpt>
      <trkpt lat="42.38657" lon="2.66969">
        <ele>934.6</ele>
        <time>2018-11-26T03:52:47Z</time>
      </trkpt>
      <trkpt lat="42.38657" lon="2.66969">
        <ele>934.6</ele>
        <time>2018-11-26T03:52:47Z</time>
      </trkpt>
      <trkpt lat="42.38658" lon="2.6697">
        <ele>934.4</ele>
        <time>2018-11-26T03:52:47Z</time>
      </trkpt>
      <trkpt lat="42.38658" lon="2.6697">
        <ele>934.4</ele>
        <time>2018-11-26T03:52:47Z</time>
      </trkpt>
      <trkpt lat="42.38659" lon="2.66971">
        <ele>934.4</ele>
        <time>2018-11-26T03:52:48Z</time>
      </trkpt>
      <trkpt lat="42.38659" lon="2.66971">
        <ele>934.3</ele>
        <time>2018-11-26T03:52:48Z</time>
      </trkpt>
      <trkpt lat="42.38659" lon="2.66971">
        <ele>934.5</ele>
        <time>2018-11-26T03:52:48Z</time>
      </trkpt>
      <trkpt lat="42.38659" lon="2.66971">
        <ele>934.6</ele>
        <time>2018-11-26T03:52:48Z</time>
      </trkpt>
      <trkpt lat="42.38659" lon="2.66971">
        <ele>934.7</ele>
        <time>2018-11-26T03:52:48Z</time>
      </trkpt>
      <trkpt lat="42.3866" lon="2.66972">
        <ele>934.6</ele>
        <time>2018-11-26T03:52:48Z</time>
      </trkpt>
      <trkpt lat="42.38661" lon="2.66972">
        <ele>934.7</ele>
        <time>2018-11-26T03:52:48Z</time>
      </trkpt>
      <trkpt lat="42.38662" lon="2.66972">
        <ele>934.8</ele>
        <time>2018-11-26T03:52:49Z</time>
      </trkpt>
      <trkpt lat="42.38663" lon="2.66972">
        <ele>934.6</ele>
        <time>2018-11-26T03:52:49Z</time>
      </trkpt>
      <trkpt lat="42.38665" lon="2.66972">
        <ele>934.6</ele>
        <time>2018-11-26T03:52:50Z</time>
      </trkpt>
      <trkpt lat="42.38666" lon="2.66972">
        <ele>934.7</ele>
        <time>2018-11-26T03:52:50Z</time>
      </trkpt>
      <trkpt lat="42.38666" lon="2.66972">
        <ele>934.9</ele>
        <time>2018-11-26T03:52:51Z</time>
      </trkpt>
      <trkpt lat="42.38666" lon="2.66971">
        <ele>934.8</ele>
        <time>2018-11-26T03:52:51Z</time>
      </trkpt>
      <trkpt lat="42.38666" lon="2.66971">
        <ele>934.6</ele>
        <time>2018-11-26T03:52:51Z</time>
      </trkpt>
      <trkpt lat="42.38666" lon="2.66971">
        <ele>934.5</ele>
        <time>2018-11-26T03:52:51Z</time>
      </trkpt>
      <trkpt lat="42.38666" lon="2.66972">
        <ele>934.2</ele>
        <time>2018-11-26T03:52:51Z</time>
      </trkpt>
      <trkpt lat="42.38666" lon="2.66972">
        <ele>934.2</ele>
        <time>2018-11-26T03:52:51Z</time>
      </trkpt>
      <trkpt lat="42.38666" lon="2.66972">
        <ele>934</ele>
        <time>2018-11-26T03:52:51Z</time>
      </trkpt>
      <trkpt lat="42.38666" lon="2.66972">
        <ele>933.9</ele>
        <time>2018-11-26T03:52:51Z</time>
      </trkpt>
      <trkpt lat="42.38666" lon="2.66972">
        <ele>933.9</ele>
        <time>2018-11-26T03:52:51Z</time>
      </trkpt>
      <trkpt lat="42.38666" lon="2.66972">
        <ele>933.8</ele>
        <time>2018-11-26T03:52:51Z</time>
      </trkpt>
      <trkpt lat="42.38667" lon="2.66972">
        <ele>933.9</ele>
        <time>2018-11-26T03:52:51Z</time>
      </trkpt>
      <trkpt lat="42.38667" lon="2.66972">
        <ele>933.9</ele>
        <time>2018-11-26T03:52:51Z</time>
      </trkpt>
      <trkpt lat="42.38667" lon="2.66973">
        <ele>933.9</ele>
        <time>2018-11-26T03:52:51Z</time>
      </trkpt>
      <trkpt lat="42.38667" lon="2.66973">
        <ele>933.9</ele>
        <time>2018-11-26T03:52:51Z</time>
      </trkpt>
      <trkpt lat="42.38667" lon="2.66973">
        <ele>934.1</ele>
        <time>2018-11-26T03:52:51Z</time>
      </trkpt>
      <trkpt lat="42.38667" lon="2.66973">
        <ele>934.1</ele>
        <time>2018-11-26T03:52:52Z</time>
      </trkpt>
      <trkpt lat="42.38667" lon="2.66973">
        <ele>934.4</ele>
        <time>2018-11-26T03:52:52Z</time>
      </trkpt>
      <trkpt lat="42.38668" lon="2.66973">
        <ele>934.4</ele>
        <time>2018-11-26T03:52:52Z</time>
      </trkpt>
      <trkpt lat="42.3867" lon="2.66972">
        <ele>934.6</ele>
        <time>2018-11-26T03:52:53Z</time>
      </trkpt>
      <trkpt lat="42.38671" lon="2.66972">
        <ele>934.6</ele>
        <time>2018-11-26T03:52:53Z</time>
      </trkpt>
      <trkpt lat="42.38674" lon="2.66969">
        <ele>934.3</ele>
        <time>2018-11-26T03:52:55Z</time>
      </trkpt>
      <trkpt lat="42.38676" lon="2.66968">
        <ele>934.2</ele>
        <time>2018-11-26T03:52:56Z</time>
      </trkpt>
      <trkpt lat="42.3868" lon="2.66965">
        <ele>934.2</ele>
        <time>2018-11-26T03:52:57Z</time>
      </trkpt>
      <trkpt lat="42.38681" lon="2.66964">
        <ele>934.2</ele>
        <time>2018-11-26T03:52:58Z</time>
      </trkpt>
      <trkpt lat="42.38683" lon="2.66963">
        <ele>934.3</ele>
        <time>2018-11-26T03:52:59Z</time>
      </trkpt>
      <trkpt lat="42.38684" lon="2.66963">
        <ele>934.4</ele>
        <time>2018-11-26T03:52:59Z</time>
      </trkpt>
      <trkpt lat="42.38688" lon="2.66963">
        <ele>934.2</ele>
        <time>2018-11-26T03:53:01Z</time>
      </trkpt>
      <trkpt lat="42.38689" lon="2.66964">
        <ele>934.2</ele>
        <time>2018-11-26T03:53:01Z</time>
      </trkpt>
      <trkpt lat="42.387" lon="2.66961">
        <ele>933.2</ele>
        <time>2018-11-26T03:53:06Z</time>
      </trkpt>
      <trkpt lat="42.38702" lon="2.66961">
        <ele>933.9</ele>
        <time>2018-11-26T03:53:06Z</time>
      </trkpt>
      <trkpt lat="42.38703" lon="2.66961">
        <ele>934.2</ele>
        <time>2018-11-26T03:53:07Z</time>
      </trkpt>
      <trkpt lat="42.38704" lon="2.66961">
        <ele>934.4</ele>
        <time>2018-11-26T03:53:07Z</time>
      </trkpt>
      <trkpt lat="42.38705" lon="2.66961">
        <ele>934.6</ele>
        <time>2018-11-26T03:53:08Z</time>
      </trkpt>
      <trkpt lat="42.38706" lon="2.66962">
        <ele>934.6</ele>
        <time>2018-11-26T03:53:08Z</time>
      </trkpt>
      <trkpt lat="42.38707" lon="2.66963">
        <ele>935</ele>
        <time>2018-11-26T03:53:09Z</time>
      </trkpt>
      <trkpt lat="42.38709" lon="2.66966">
        <ele>936.1</ele>
        <time>2018-11-26T03:53:10Z</time>
      </trkpt>
      <trkpt lat="42.38711" lon="2.66969">
        <ele>936.9</ele>
        <time>2018-11-26T03:53:11Z</time>
      </trkpt>
      <trkpt lat="42.38712" lon="2.6697">
        <ele>937</ele>
        <time>2018-11-26T03:53:12Z</time>
      </trkpt>
      <trkpt lat="42.38713" lon="2.66971">
        <ele>937.4</ele>
        <time>2018-11-26T03:53:12Z</time>
      </trkpt>
      <trkpt lat="42.38714" lon="2.66971">
        <ele>938</ele>
        <time>2018-11-26T03:53:12Z</time>
      </trkpt>
      <trkpt lat="42.38715" lon="2.66972">
        <ele>938.2</ele>
        <time>2018-11-26T03:53:13Z</time>
      </trkpt>
      <trkpt lat="42.38716" lon="2.66972">
        <ele>938.7</ele>
        <time>2018-11-26T03:53:13Z</time>
      </trkpt>
      <trkpt lat="42.38716" lon="2.66972">
        <ele>939.2</ele>
        <time>2018-11-26T03:53:13Z</time>
      </trkpt>
      <trkpt lat="42.38717" lon="2.66973">
        <ele>939.2</ele>
        <time>2018-11-26T03:53:14Z</time>
      </trkpt>
      <trkpt lat="42.38718" lon="2.66974">
        <ele>939.2</ele>
        <time>2018-11-26T03:53:14Z</time>
      </trkpt>
      <trkpt lat="42.38718" lon="2.66975">
        <ele>939.3</ele>
        <time>2018-11-26T03:53:15Z</time>
      </trkpt>
      <trkpt lat="42.38719" lon="2.66978">
        <ele>939.6</ele>
        <time>2018-11-26T03:53:15Z</time>
      </trkpt>
      <trkpt lat="42.38722" lon="2.66984">
        <ele>940.6</ele>
        <time>2018-11-26T03:53:18Z</time>
      </trkpt>
      <trkpt lat="42.38725" lon="2.66993">
        <ele>941.5</ele>
        <time>2018-11-26T03:53:21Z</time>
      </trkpt>
      <trkpt lat="42.38727" lon="2.66996">
        <ele>942.3</ele>
        <time>2018-11-26T03:53:22Z</time>
      </trkpt>
      <trkpt lat="42.38727" lon="2.66998">
        <ele>942.7</ele>
        <time>2018-11-26T03:53:22Z</time>
      </trkpt>
      <trkpt lat="42.38728" lon="2.67">
        <ele>943.1</ele>
        <time>2018-11-26T03:53:23Z</time>
      </trkpt>
      <trkpt lat="42.3873" lon="2.67006">
        <ele>943.9</ele>
        <time>2018-11-26T03:53:25Z</time>
      </trkpt>
      <trkpt lat="42.3873" lon="2.67008">
        <ele>944.1</ele>
        <time>2018-11-26T03:53:25Z</time>
      </trkpt>
      <trkpt lat="42.38731" lon="2.67011">
        <ele>944.3</ele>
        <time>2018-11-26T03:53:26Z</time>
      </trkpt>
      <trkpt lat="42.38732" lon="2.6702">
        <ele>945.9</ele>
        <time>2018-11-26T03:53:29Z</time>
      </trkpt>
      <trkpt lat="42.38733" lon="2.67022">
        <ele>945.9</ele>
        <time>2018-11-26T03:53:30Z</time>
      </trkpt>
      <trkpt lat="42.38734" lon="2.67031">
        <ele>946.8</ele>
        <time>2018-11-26T03:53:33Z</time>
      </trkpt>
      <trkpt lat="42.38735" lon="2.67035">
        <ele>948</ele>
        <time>2018-11-26T03:53:34Z</time>
      </trkpt>
      <trkpt lat="42.38735" lon="2.67038">
        <ele>949</ele>
        <time>2018-11-26T03:53:35Z</time>
      </trkpt>
      <trkpt lat="42.38736" lon="2.67039">
        <ele>949.2</ele>
        <time>2018-11-26T03:53:35Z</time>
      </trkpt>
      <trkpt lat="42.38736" lon="2.6704">
        <ele>949.3</ele>
        <time>2018-11-26T03:53:35Z</time>
      </trkpt>
      <trkpt lat="42.38736" lon="2.67042">
        <ele>949.6</ele>
        <time>2018-11-26T03:53:36Z</time>
      </trkpt>
      <trkpt lat="42.38737" lon="2.67043">
        <ele>949.7</ele>
        <time>2018-11-26T03:53:36Z</time>
      </trkpt>
      <trkpt lat="42.38737" lon="2.67044">
        <ele>950.1</ele>
        <time>2018-11-26T03:53:37Z</time>
      </trkpt>
      <trkpt lat="42.38738" lon="2.67046">
        <ele>950.2</ele>
        <time>2018-11-26T03:53:37Z</time>
      </trkpt>
      <trkpt lat="42.38738" lon="2.67049">
        <ele>950.6</ele>
        <time>2018-11-26T03:53:38Z</time>
      </trkpt>
      <trkpt lat="42.38738" lon="2.6705">
        <ele>950.6</ele>
        <time>2018-11-26T03:53:38Z</time>
      </trkpt>
      <trkpt lat="42.38739" lon="2.67051">
        <ele>950.8</ele>
        <time>2018-11-26T03:53:39Z</time>
      </trkpt>
      <trkpt lat="42.38739" lon="2.67052">
        <ele>950.9</ele>
        <time>2018-11-26T03:53:39Z</time>
      </trkpt>
      <trkpt lat="42.38741" lon="2.67055">
        <ele>951.5</ele>
        <time>2018-11-26T03:53:40Z</time>
      </trkpt>
      <trkpt lat="42.38741" lon="2.67056">
        <ele>952.1</ele>
        <time>2018-11-26T03:53:40Z</time>
      </trkpt>
      <trkpt lat="42.38742" lon="2.67057">
        <ele>952.7</ele>
        <time>2018-11-26T03:53:41Z</time>
      </trkpt>
      <trkpt lat="42.38742" lon="2.67058">
        <ele>953.1</ele>
        <time>2018-11-26T03:53:41Z</time>
      </trkpt>
      <trkpt lat="42.38743" lon="2.67063">
        <ele>954.4</ele>
        <time>2018-11-26T03:53:43Z</time>
      </trkpt>
      <trkpt lat="42.38744" lon="2.67064">
        <ele>954.6</ele>
        <time>2018-11-26T03:53:43Z</time>
      </trkpt>
      <trkpt lat="42.38744" lon="2.67067">
        <ele>955</ele>
        <time>2018-11-26T03:53:44Z</time>
      </trkpt>
      <trkpt lat="42.38745" lon="2.67069">
        <ele>955.2</ele>
        <time>2018-11-26T03:53:44Z</time>
      </trkpt>
      <trkpt lat="42.38745" lon="2.6707">
        <ele>955.6</ele>
        <time>2018-11-26T03:53:45Z</time>
      </trkpt>
      <trkpt lat="42.38745" lon="2.67071">
        <ele>955.8</ele>
        <time>2018-11-26T03:53:45Z</time>
      </trkpt>
      <trkpt lat="42.38745" lon="2.67072">
        <ele>956.3</ele>
        <time>2018-11-26T03:53:45Z</time>
      </trkpt>
      <trkpt lat="42.38748" lon="2.67078">
        <ele>958.2</ele>
        <time>2018-11-26T03:53:48Z</time>
      </trkpt>
      <trkpt lat="42.38748" lon="2.67079">
        <ele>958.4</ele>
        <time>2018-11-26T03:53:48Z</time>
      </trkpt>
      <trkpt lat="42.3875" lon="2.67082">
        <ele>959.3</ele>
        <time>2018-11-26T03:53:49Z</time>
      </trkpt>
      <trkpt lat="42.38751" lon="2.67083">
        <ele>959.5</ele>
        <time>2018-11-26T03:53:49Z</time>
      </trkpt>
      <trkpt lat="42.38751" lon="2.67084">
        <ele>959.7</ele>
        <time>2018-11-26T03:53:50Z</time>
      </trkpt>
      <trkpt lat="42.38752" lon="2.67087">
        <ele>960.2</ele>
        <time>2018-11-26T03:53:51Z</time>
      </trkpt>
      <trkpt lat="42.38753" lon="2.67088">
        <ele>960.5</ele>
        <time>2018-11-26T03:53:51Z</time>
      </trkpt>
      <trkpt lat="42.38753" lon="2.6709">
        <ele>960.8</ele>
        <time>2018-11-26T03:53:52Z</time>
      </trkpt>
      <trkpt lat="42.38754" lon="2.67091">
        <ele>960.8</ele>
        <time>2018-11-26T03:53:52Z</time>
      </trkpt>
      <trkpt lat="42.38754" lon="2.67092">
        <ele>960.8</ele>
        <time>2018-11-26T03:53:52Z</time>
      </trkpt>
      <trkpt lat="42.38754" lon="2.67094">
        <ele>960.8</ele>
        <time>2018-11-26T03:53:53Z</time>
      </trkpt>
      <trkpt lat="42.38755" lon="2.67094">
        <ele>960.7</ele>
        <time>2018-11-26T03:53:53Z</time>
      </trkpt>
      <trkpt lat="42.38755" lon="2.67095">
        <ele>961.2</ele>
        <time>2018-11-26T03:53:53Z</time>
      </trkpt>
      <trkpt lat="42.38755" lon="2.67096">
        <ele>961.9</ele>
        <time>2018-11-26T03:53:54Z</time>
      </trkpt>
      <trkpt lat="42.38755" lon="2.67097">
        <ele>962.6</ele>
        <time>2018-11-26T03:53:54Z</time>
      </trkpt>
      <trkpt lat="42.38756" lon="2.67102">
        <ele>963.4</ele>
        <time>2018-11-26T03:53:56Z</time>
      </trkpt>
      <trkpt lat="42.38757" lon="2.67106">
        <ele>963.7</ele>
        <time>2018-11-26T03:53:57Z</time>
      </trkpt>
      <trkpt lat="42.38758" lon="2.67108">
        <ele>963.7</ele>
        <time>2018-11-26T03:53:57Z</time>
      </trkpt>
      <trkpt lat="42.38758" lon="2.67109">
        <ele>963.7</ele>
        <time>2018-11-26T03:53:58Z</time>
      </trkpt>
      <trkpt lat="42.38759" lon="2.6711">
        <ele>963.8</ele>
        <time>2018-11-26T03:53:58Z</time>
      </trkpt>
      <trkpt lat="42.38759" lon="2.67113">
        <ele>964.2</ele>
        <time>2018-11-26T03:53:59Z</time>
      </trkpt>
      <trkpt lat="42.3876" lon="2.67116">
        <ele>964.8</ele>
        <time>2018-11-26T03:54:00Z</time>
      </trkpt>
      <trkpt lat="42.38761" lon="2.67118">
        <ele>964.7</ele>
        <time>2018-11-26T03:54:01Z</time>
      </trkpt>
      <trkpt lat="42.38764" lon="2.67124">
        <ele>966.1</ele>
        <time>2018-11-26T03:54:03Z</time>
      </trkpt>
      <trkpt lat="42.38766" lon="2.67126">
        <ele>966.4</ele>
        <time>2018-11-26T03:54:04Z</time>
      </trkpt>
      <trkpt lat="42.38767" lon="2.67128">
        <ele>966.4</ele>
        <time>2018-11-26T03:54:05Z</time>
      </trkpt>
      <trkpt lat="42.38768" lon="2.6713">
        <ele>966.3</ele>
        <time>2018-11-26T03:54:05Z</time>
      </trkpt>
      <trkpt lat="42.3877" lon="2.67132">
        <ele>966.8</ele>
        <time>2018-11-26T03:54:06Z</time>
      </trkpt>
      <trkpt lat="42.3877" lon="2.67133">
        <ele>967.1</ele>
        <time>2018-11-26T03:54:07Z</time>
      </trkpt>
      <trkpt lat="42.38771" lon="2.67134">
        <ele>967.6</ele>
        <time>2018-11-26T03:54:07Z</time>
      </trkpt>
      <trkpt lat="42.38771" lon="2.67134">
        <ele>967.6</ele>
        <time>2018-11-26T03:54:07Z</time>
      </trkpt>
      <trkpt lat="42.38772" lon="2.67134">
        <ele>967.5</ele>
        <time>2018-11-26T03:54:07Z</time>
      </trkpt>
      <trkpt lat="42.38772" lon="2.67134">
        <ele>967.5</ele>
        <time>2018-11-26T03:54:07Z</time>
      </trkpt>
      <trkpt lat="42.38773" lon="2.67134">
        <ele>967.5</ele>
        <time>2018-11-26T03:54:08Z</time>
      </trkpt>
      <trkpt lat="42.38773" lon="2.67135">
        <ele>967.4</ele>
        <time>2018-11-26T03:54:08Z</time>
      </trkpt>
      <trkpt lat="42.38774" lon="2.67135">
        <ele>967.4</ele>
        <time>2018-11-26T03:54:08Z</time>
      </trkpt>
      <trkpt lat="42.38775" lon="2.67135">
        <ele>967.1</ele>
        <time>2018-11-26T03:54:08Z</time>
      </trkpt>
      <trkpt lat="42.38775" lon="2.67135">
        <ele>966.7</ele>
        <time>2018-11-26T03:54:09Z</time>
      </trkpt>
      <trkpt lat="42.38775" lon="2.67136">
        <ele>966.3</ele>
        <time>2018-11-26T03:54:09Z</time>
      </trkpt>
      <trkpt lat="42.38776" lon="2.67136">
        <ele>966.4</ele>
        <time>2018-11-26T03:54:09Z</time>
      </trkpt>
      <trkpt lat="42.38776" lon="2.67137">
        <ele>966.4</ele>
        <time>2018-11-26T03:54:09Z</time>
      </trkpt>
      <trkpt lat="42.38777" lon="2.67138">
        <ele>966.3</ele>
        <time>2018-11-26T03:54:10Z</time>
      </trkpt>
      <trkpt lat="42.38778" lon="2.67139">
        <ele>966.3</ele>
        <time>2018-11-26T03:54:10Z</time>
      </trkpt>
      <trkpt lat="42.38778" lon="2.67139">
        <ele>966.1</ele>
        <time>2018-11-26T03:54:10Z</time>
      </trkpt>
      <trkpt lat="42.38779" lon="2.6714">
        <ele>966.2</ele>
        <time>2018-11-26T03:54:11Z</time>
      </trkpt>
      <trkpt lat="42.3878" lon="2.6714">
        <ele>966</ele>
        <time>2018-11-26T03:54:11Z</time>
      </trkpt>
      <trkpt lat="42.3878" lon="2.67141">
        <ele>965.5</ele>
        <time>2018-11-26T03:54:11Z</time>
      </trkpt>
      <trkpt lat="42.38781" lon="2.67141">
        <ele>965</ele>
        <time>2018-11-26T03:54:11Z</time>
      </trkpt>
      <trkpt lat="42.38782" lon="2.67141">
        <ele>964.4</ele>
        <time>2018-11-26T03:54:12Z</time>
      </trkpt>
      <trkpt lat="42.38783" lon="2.67142">
        <ele>964.2</ele>
        <time>2018-11-26T03:54:12Z</time>
      </trkpt>
      <trkpt lat="42.38784" lon="2.67142">
        <ele>964</ele>
        <time>2018-11-26T03:54:13Z</time>
      </trkpt>
      <trkpt lat="42.38784" lon="2.67142">
        <ele>963.6</ele>
        <time>2018-11-26T03:54:13Z</time>
      </trkpt>
      <trkpt lat="42.38785" lon="2.67142">
        <ele>963.5</ele>
        <time>2018-11-26T03:54:13Z</time>
      </trkpt>
      <trkpt lat="42.38786" lon="2.67142">
        <ele>963.4</ele>
        <time>2018-11-26T03:54:14Z</time>
      </trkpt>
      <trkpt lat="42.38787" lon="2.67142">
        <ele>963.3</ele>
        <time>2018-11-26T03:54:14Z</time>
      </trkpt>
      <trkpt lat="42.38788" lon="2.67142">
        <ele>963.1</ele>
        <time>2018-11-26T03:54:15Z</time>
      </trkpt>
      <trkpt lat="42.3879" lon="2.67142">
        <ele>962.4</ele>
        <time>2018-11-26T03:54:15Z</time>
      </trkpt>
      <trkpt lat="42.38791" lon="2.67142">
        <ele>962.1</ele>
        <time>2018-11-26T03:54:16Z</time>
      </trkpt>
      <trkpt lat="42.38792" lon="2.67142">
        <ele>961.8</ele>
        <time>2018-11-26T03:54:16Z</time>
      </trkpt>
      <trkpt lat="42.38793" lon="2.67142">
        <ele>961.4</ele>
        <time>2018-11-26T03:54:16Z</time>
      </trkpt>
      <trkpt lat="42.38794" lon="2.67142">
        <ele>961.3</ele>
        <time>2018-11-26T03:54:17Z</time>
      </trkpt>
      <trkpt lat="42.38795" lon="2.67142">
        <ele>961.3</ele>
        <time>2018-11-26T03:54:17Z</time>
      </trkpt>
      <trkpt lat="42.38796" lon="2.67142">
        <ele>961.1</ele>
        <time>2018-11-26T03:54:18Z</time>
      </trkpt>
      <trkpt lat="42.38797" lon="2.67142">
        <ele>961</ele>
        <time>2018-11-26T03:54:18Z</time>
      </trkpt>
      <trkpt lat="42.38798" lon="2.67142">
        <ele>960.8</ele>
        <time>2018-11-26T03:54:18Z</time>
      </trkpt>
      <trkpt lat="42.38798" lon="2.67141">
        <ele>960.5</ele>
        <time>2018-11-26T03:54:19Z</time>
      </trkpt>
      <trkpt lat="42.38799" lon="2.67142">
        <ele>960</ele>
        <time>2018-11-26T03:54:19Z</time>
      </trkpt>
      <trkpt lat="42.388" lon="2.67141">
        <ele>959.8</ele>
        <time>2018-11-26T03:54:19Z</time>
      </trkpt>
      <trkpt lat="42.388" lon="2.67141">
        <ele>959.6</ele>
        <time>2018-11-26T03:54:19Z</time>
      </trkpt>
      <trkpt lat="42.38801" lon="2.67141">
        <ele>959.4</ele>
        <time>2018-11-26T03:54:20Z</time>
      </trkpt>
      <trkpt lat="42.38802" lon="2.67141">
        <ele>959.2</ele>
        <time>2018-11-26T03:54:20Z</time>
      </trkpt>
      <trkpt lat="42.38803" lon="2.67141">
        <ele>959</ele>
        <time>2018-11-26T03:54:20Z</time>
      </trkpt>
      <trkpt lat="42.38803" lon="2.67141">
        <ele>958.7</ele>
        <time>2018-11-26T03:54:21Z</time>
      </trkpt>
      <trkpt lat="42.38804" lon="2.67141">
        <ele>958.7</ele>
        <time>2018-11-26T03:54:21Z</time>
      </trkpt>
      <trkpt lat="42.38805" lon="2.67141">
        <ele>958.7</ele>
        <time>2018-11-26T03:54:21Z</time>
      </trkpt>
      <trkpt lat="42.38806" lon="2.67141">
        <ele>958.8</ele>
        <time>2018-11-26T03:54:22Z</time>
      </trkpt>
      <trkpt lat="42.38807" lon="2.67141">
        <ele>958.7</ele>
        <time>2018-11-26T03:54:22Z</time>
      </trkpt>
      <trkpt lat="42.38808" lon="2.67141">
        <ele>958.7</ele>
        <time>2018-11-26T03:54:22Z</time>
      </trkpt>
      <trkpt lat="42.38808" lon="2.67141">
        <ele>958.7</ele>
        <time>2018-11-26T03:54:22Z</time>
      </trkpt>
      <trkpt lat="42.38808" lon="2.67141">
        <ele>958.6</ele>
        <time>2018-11-26T03:54:22Z</time>
      </trkpt>
      <trkpt lat="42.38808" lon="2.67141">
        <ele>958.4</ele>
        <time>2018-11-26T03:54:23Z</time>
      </trkpt>
      <trkpt lat="42.38809" lon="2.67141">
        <ele>958.3</ele>
        <time>2018-11-26T03:54:23Z</time>
      </trkpt>
      <trkpt lat="42.3881" lon="2.67141">
        <ele>958.1</ele>
        <time>2018-11-26T03:54:23Z</time>
      </trkpt>
      <trkpt lat="42.38811" lon="2.67141">
        <ele>958.1</ele>
        <time>2018-11-26T03:54:24Z</time>
      </trkpt>
      <trkpt lat="42.38812" lon="2.67141">
        <ele>958</ele>
        <time>2018-11-26T03:54:24Z</time>
      </trkpt>
      <trkpt lat="42.38812" lon="2.67141">
        <ele>958.1</ele>
        <time>2018-11-26T03:54:24Z</time>
      </trkpt>
      <trkpt lat="42.38813" lon="2.67141">
        <ele>957.7</ele>
        <time>2018-11-26T03:54:25Z</time>
      </trkpt>
      <trkpt lat="42.38814" lon="2.67141">
        <ele>957.3</ele>
        <time>2018-11-26T03:54:25Z</time>
      </trkpt>
      <trkpt lat="42.38815" lon="2.67141">
        <ele>956.8</ele>
        <time>2018-11-26T03:54:25Z</time>
      </trkpt>
      <trkpt lat="42.38816" lon="2.67141">
        <ele>956.6</ele>
        <time>2018-11-26T03:54:26Z</time>
      </trkpt>
      <trkpt lat="42.38817" lon="2.6714">
        <ele>956.1</ele>
        <time>2018-11-26T03:54:26Z</time>
      </trkpt>
      <trkpt lat="42.38817" lon="2.6714">
        <ele>955.6</ele>
        <time>2018-11-26T03:54:26Z</time>
      </trkpt>
      <trkpt lat="42.38818" lon="2.6714">
        <ele>955.6</ele>
        <time>2018-11-26T03:54:27Z</time>
      </trkpt>
      <trkpt lat="42.38819" lon="2.6714">
        <ele>955.7</ele>
        <time>2018-11-26T03:54:27Z</time>
      </trkpt>
      <trkpt lat="42.38821" lon="2.6714">
        <ele>955.9</ele>
        <time>2018-11-26T03:54:28Z</time>
      </trkpt>
      <trkpt lat="42.38822" lon="2.67139">
        <ele>955.2</ele>
        <time>2018-11-26T03:54:28Z</time>
      </trkpt>
      <trkpt lat="42.38823" lon="2.67139">
        <ele>954.5</ele>
        <time>2018-11-26T03:54:29Z</time>
      </trkpt>
      <trkpt lat="42.38824" lon="2.67139">
        <ele>954.4</ele>
        <time>2018-11-26T03:54:29Z</time>
      </trkpt>
      <trkpt lat="42.38825" lon="2.67139">
        <ele>954.4</ele>
        <time>2018-11-26T03:54:29Z</time>
      </trkpt>
      <trkpt lat="42.38826" lon="2.67139">
        <ele>954.5</ele>
        <time>2018-11-26T03:54:30Z</time>
      </trkpt>
      <trkpt lat="42.38828" lon="2.67139">
        <ele>954.4</ele>
        <time>2018-11-26T03:54:30Z</time>
      </trkpt>
      <trkpt lat="42.38828" lon="2.67138">
        <ele>954.5</ele>
        <time>2018-11-26T03:54:31Z</time>
      </trkpt>
      <trkpt lat="42.38829" lon="2.67138">
        <ele>954.4</ele>
        <time>2018-11-26T03:54:31Z</time>
      </trkpt>
      <trkpt lat="42.3883" lon="2.67138">
        <ele>954.2</ele>
        <time>2018-11-26T03:54:31Z</time>
      </trkpt>
      <trkpt lat="42.3883" lon="2.67138">
        <ele>954.1</ele>
        <time>2018-11-26T03:54:32Z</time>
      </trkpt>
      <trkpt lat="42.38831" lon="2.67138">
        <ele>954</ele>
        <time>2018-11-26T03:54:32Z</time>
      </trkpt>
      <trkpt lat="42.38832" lon="2.67138">
        <ele>953.7</ele>
        <time>2018-11-26T03:54:32Z</time>
      </trkpt>
      <trkpt lat="42.38833" lon="2.67138">
        <ele>953.5</ele>
        <time>2018-11-26T03:54:33Z</time>
      </trkpt>
      <trkpt lat="42.38834" lon="2.67138">
        <ele>953.5</ele>
        <time>2018-11-26T03:54:33Z</time>
      </trkpt>
      <trkpt lat="42.38834" lon="2.67138">
        <ele>953.7</ele>
        <time>2018-11-26T03:54:33Z</time>
      </trkpt>
      <trkpt lat="42.38835" lon="2.67138">
        <ele>953.8</ele>
        <time>2018-11-26T03:54:33Z</time>
      </trkpt>
      <trkpt lat="42.38836" lon="2.67138">
        <ele>953.8</ele>
        <time>2018-11-26T03:54:34Z</time>
      </trkpt>
      <trkpt lat="42.38836" lon="2.67138">
        <ele>953.8</ele>
        <time>2018-11-26T03:54:34Z</time>
      </trkpt>
      <trkpt lat="42.38838" lon="2.67139">
        <ele>953.5</ele>
        <time>2018-11-26T03:54:35Z</time>
      </trkpt>
      <trkpt lat="42.38839" lon="2.67139">
        <ele>953.3</ele>
        <time>2018-11-26T03:54:35Z</time>
      </trkpt>
      <trkpt lat="42.38841" lon="2.67139">
        <ele>953</ele>
        <time>2018-11-26T03:54:36Z</time>
      </trkpt>
      <trkpt lat="42.38842" lon="2.67139">
        <ele>953.1</ele>
        <time>2018-11-26T03:54:36Z</time>
      </trkpt>
      <trkpt lat="42.38842" lon="2.67139">
        <ele>953.2</ele>
        <time>2018-11-26T03:54:36Z</time>
      </trkpt>
      <trkpt lat="42.38843" lon="2.67139">
        <ele>953.5</ele>
        <time>2018-11-26T03:54:37Z</time>
      </trkpt>
      <trkpt lat="42.38844" lon="2.67139">
        <ele>953.4</ele>
        <time>2018-11-26T03:54:37Z</time>
      </trkpt>
      <trkpt lat="42.38844" lon="2.67139">
        <ele>953.3</ele>
        <time>2018-11-26T03:54:37Z</time>
      </trkpt>
      <trkpt lat="42.38844" lon="2.67139">
        <ele>953.2</ele>
        <time>2018-11-26T03:54:37Z</time>
      </trkpt>
      <trkpt lat="42.38845" lon="2.67139">
        <ele>953.1</ele>
        <time>2018-11-26T03:54:37Z</time>
      </trkpt>
      <trkpt lat="42.38845" lon="2.67139">
        <ele>952.9</ele>
        <time>2018-11-26T03:54:38Z</time>
      </trkpt>
      <trkpt lat="42.38846" lon="2.67139">
        <ele>952.7</ele>
        <time>2018-11-26T03:54:38Z</time>
      </trkpt>
      <trkpt lat="42.38846" lon="2.67139">
        <ele>952.3</ele>
        <time>2018-11-26T03:54:38Z</time>
      </trkpt>
      <trkpt lat="42.38846" lon="2.67139">
        <ele>952.6</ele>
        <time>2018-11-26T03:54:38Z</time>
      </trkpt>
      <trkpt lat="42.38846" lon="2.67139">
        <ele>952.7</ele>
        <time>2018-11-26T03:54:38Z</time>
      </trkpt>
      <trkpt lat="42.38846" lon="2.67139">
        <ele>952.8</ele>
        <time>2018-11-26T03:54:38Z</time>
      </trkpt>
      <trkpt lat="42.38846" lon="2.67139">
        <ele>953.1</ele>
        <time>2018-11-26T03:54:38Z</time>
      </trkpt>
      <trkpt lat="42.38846" lon="2.67139">
        <ele>953.2</ele>
        <time>2018-11-26T03:54:38Z</time>
      </trkpt>
      <trkpt lat="42.38846" lon="2.67139">
        <ele>953.6</ele>
        <time>2018-11-26T03:54:38Z</time>
      </trkpt>
      <trkpt lat="42.38846" lon="2.67139">
        <ele>953.5</ele>
        <time>2018-11-26T03:54:38Z</time>
      </trkpt>
      <trkpt lat="42.38846" lon="2.6714">
        <ele>953.4</ele>
        <time>2018-11-26T03:54:38Z</time>
      </trkpt>
      <trkpt lat="42.38846" lon="2.6714">
        <ele>953.4</ele>
        <time>2018-11-26T03:54:38Z</time>
      </trkpt>
      <trkpt lat="42.38846" lon="2.6714">
        <ele>953.1</ele>
        <time>2018-11-26T03:54:38Z</time>
      </trkpt>
      <trkpt lat="42.38846" lon="2.6714">
        <ele>953.1</ele>
        <time>2018-11-26T03:54:38Z</time>
      </trkpt>
      <trkpt lat="42.38846" lon="2.6714">
        <ele>953.1</ele>
        <time>2018-11-26T03:54:38Z</time>
      </trkpt>
      <trkpt lat="42.38846" lon="2.6714">
        <ele>953.2</ele>
        <time>2018-11-26T03:54:38Z</time>
      </trkpt>
      <trkpt lat="42.38846" lon="2.6714">
        <ele>953.2</ele>
        <time>2018-11-26T03:54:38Z</time>
      </trkpt>
      <trkpt lat="42.38846" lon="2.6714">
        <ele>953.3</ele>
        <time>2018-11-26T03:54:38Z</time>
      </trkpt>
      <trkpt lat="42.38846" lon="2.6714">
        <ele>953.3</ele>
        <time>2018-11-26T03:54:38Z</time>
      </trkpt>
      <trkpt lat="42.38846" lon="2.6714">
        <ele>953.2</ele>
        <time>2018-11-26T03:54:38Z</time>
      </trkpt>
      <trkpt lat="42.38846" lon="2.6714">
        <ele>953.1</ele>
        <time>2018-11-26T03:54:39Z</time>
      </trkpt>
      <trkpt lat="42.38846" lon="2.6714">
        <ele>953.1</ele>
        <time>2018-11-26T03:54:39Z</time>
      </trkpt>
      <trkpt lat="42.38846" lon="2.6714">
        <ele>952.9</ele>
        <time>2018-11-26T03:54:39Z</time>
      </trkpt>
      <trkpt lat="42.38846" lon="2.6714">
        <ele>952.7</ele>
        <time>2018-11-26T03:54:39Z</time>
      </trkpt>
      <trkpt lat="42.38846" lon="2.6714">
        <ele>952.7</ele>
        <time>2018-11-26T03:54:39Z</time>
      </trkpt>
      <trkpt lat="42.38846" lon="2.6714">
        <ele>952.9</ele>
        <time>2018-11-26T03:54:39Z</time>
      </trkpt>
      <trkpt lat="42.38846" lon="2.6714">
        <ele>952.8</ele>
        <time>2018-11-26T03:54:39Z</time>
      </trkpt>
      <trkpt lat="42.38846" lon="2.6714">
        <ele>953</ele>
        <time>2018-11-26T03:54:39Z</time>
      </trkpt>
      <trkpt lat="42.38846" lon="2.6714">
        <ele>953.1</ele>
        <time>2018-11-26T03:54:39Z</time>
      </trkpt>
      <trkpt lat="42.38846" lon="2.6714">
        <ele>953.5</ele>
        <time>2018-11-26T03:54:39Z</time>
      </trkpt>
      <trkpt lat="42.38846" lon="2.6714">
        <ele>954</ele>
        <time>2018-11-26T03:54:39Z</time>
      </trkpt>
      <trkpt lat="42.38846" lon="2.6714">
        <ele>953.7</ele>
        <time>2018-11-26T03:54:39Z</time>
      </trkpt>
      <trkpt lat="42.38846" lon="2.6714">
        <ele>953.3</ele>
        <time>2018-11-26T03:54:39Z</time>
      </trkpt>
      <trkpt lat="42.38846" lon="2.6714">
        <ele>952.6</ele>
        <time>2018-11-26T03:54:39Z</time>
      </trkpt>
      <trkpt lat="42.38846" lon="2.67141">
        <ele>952.6</ele>
        <time>2018-11-26T03:54:39Z</time>
      </trkpt>
      <trkpt lat="42.38846" lon="2.67141">
        <ele>952.7</ele>
        <time>2018-11-26T03:54:39Z</time>
      </trkpt>
      <trkpt lat="42.38846" lon="2.67141">
        <ele>952.6</ele>
        <time>2018-11-26T03:54:39Z</time>
      </trkpt>
      <trkpt lat="42.38846" lon="2.67141">
        <ele>953</ele>
        <time>2018-11-26T03:54:39Z</time>
      </trkpt>
      <trkpt lat="42.38846" lon="2.67141">
        <ele>953.3</ele>
        <time>2018-11-26T03:54:39Z</time>
      </trkpt>
      <trkpt lat="42.38846" lon="2.67141">
        <ele>953.8</ele>
        <time>2018-11-26T03:54:39Z</time>
      </trkpt>
      <trkpt lat="42.38846" lon="2.67141">
        <ele>953.7</ele>
        <time>2018-11-26T03:54:39Z</time>
      </trkpt>
      <trkpt lat="42.38846" lon="2.67141">
        <ele>953.6</ele>
        <time>2018-11-26T03:54:39Z</time>
      </trkpt>
      <trkpt lat="42.38846" lon="2.67141">
        <ele>953.5</ele>
        <time>2018-11-26T03:54:39Z</time>
      </trkpt>
      <trkpt lat="42.38846" lon="2.67141">
        <ele>953.2</ele>
        <time>2018-11-26T03:54:39Z</time>
      </trkpt>
      <trkpt lat="42.38846" lon="2.67141">
        <ele>953.1</ele>
        <time>2018-11-26T03:54:39Z</time>
      </trkpt>
      <trkpt lat="42.38846" lon="2.67141">
        <ele>953.2</ele>
        <time>2018-11-26T03:54:39Z</time>
      </trkpt>
      <trkpt lat="42.38846" lon="2.67141">
        <ele>953.1</ele>
        <time>2018-11-26T03:54:39Z</time>
      </trkpt>
      <trkpt lat="42.38846" lon="2.67141">
        <ele>953</ele>
        <time>2018-11-26T03:54:39Z</time>
      </trkpt>
      <trkpt lat="42.38846" lon="2.67141">
        <ele>952.9</ele>
        <time>2018-11-26T03:54:40Z</time>
      </trkpt>
      <trkpt lat="42.38846" lon="2.67141">
        <ele>952.9</ele>
        <time>2018-11-26T03:54:40Z</time>
      </trkpt>
      <trkpt lat="42.38846" lon="2.67141">
        <ele>952.7</ele>
        <time>2018-11-26T03:54:40Z</time>
      </trkpt>
      <trkpt lat="42.38846" lon="2.67141">
        <ele>952.4</ele>
        <time>2018-11-26T03:54:40Z</time>
      </trkpt>
      <trkpt lat="42.38846" lon="2.67142">
        <ele>952.2</ele>
        <time>2018-11-26T03:54:40Z</time>
      </trkpt>
      <trkpt lat="42.38846" lon="2.67142">
        <ele>951.9</ele>
        <time>2018-11-26T03:54:40Z</time>
      </trkpt>
      <trkpt lat="42.38846" lon="2.67142">
        <ele>951.8</ele>
        <time>2018-11-26T03:54:40Z</time>
      </trkpt>
      <trkpt lat="42.38846" lon="2.67142">
        <ele>952</ele>
        <time>2018-11-26T03:54:40Z</time>
      </trkpt>
      <trkpt lat="42.38846" lon="2.67142">
        <ele>952.3</ele>
        <time>2018-11-26T03:54:40Z</time>
      </trkpt>
      <trkpt lat="42.38846" lon="2.67142">
        <ele>952.5</ele>
        <time>2018-11-26T03:54:40Z</time>
      </trkpt>
      <trkpt lat="42.38846" lon="2.67142">
        <ele>952.8</ele>
        <time>2018-11-26T03:54:40Z</time>
      </trkpt>
      <trkpt lat="42.38846" lon="2.67142">
        <ele>952.8</ele>
        <time>2018-11-26T03:54:40Z</time>
      </trkpt>
      <trkpt lat="42.38847" lon="2.67142">
        <ele>952.9</ele>
        <time>2018-11-26T03:54:40Z</time>
      </trkpt>
      <trkpt lat="42.38847" lon="2.67142">
        <ele>952.9</ele>
        <time>2018-11-26T03:54:40Z</time>
      </trkpt>
      <trkpt lat="42.38847" lon="2.67142">
        <ele>952.9</ele>
        <time>2018-11-26T03:54:40Z</time>
      </trkpt>
      <trkpt lat="42.38847" lon="2.67143">
        <ele>952.8</ele>
        <time>2018-11-26T03:54:40Z</time>
      </trkpt>
      <trkpt lat="42.38847" lon="2.67143">
        <ele>952.8</ele>
        <time>2018-11-26T03:54:40Z</time>
      </trkpt>
      <trkpt lat="42.38847" lon="2.67143">
        <ele>952.8</ele>
        <time>2018-11-26T03:54:40Z</time>
      </trkpt>
      <trkpt lat="42.38847" lon="2.67143">
        <ele>952.7</ele>
        <time>2018-11-26T03:54:40Z</time>
      </trkpt>
      <trkpt lat="42.38847" lon="2.67143">
        <ele>952.7</ele>
        <time>2018-11-26T03:54:40Z</time>
      </trkpt>
      <trkpt lat="42.38847" lon="2.67143">
        <ele>952.8</ele>
        <time>2018-11-26T03:54:40Z</time>
      </trkpt>
      <trkpt lat="42.38847" lon="2.67143">
        <ele>953</ele>
        <time>2018-11-26T03:54:41Z</time>
      </trkpt>
      <trkpt lat="42.38847" lon="2.67143">
        <ele>953.2</ele>
        <time>2018-11-26T03:54:41Z</time>
      </trkpt>
      <trkpt lat="42.38847" lon="2.67143">
        <ele>953.3</ele>
        <time>2018-11-26T03:54:41Z</time>
      </trkpt>
      <trkpt lat="42.38848" lon="2.67143">
        <ele>953.5</ele>
        <time>2018-11-26T03:54:41Z</time>
      </trkpt>
      <trkpt lat="42.38848" lon="2.67143">
        <ele>953.8</ele>
        <time>2018-11-26T03:54:41Z</time>
      </trkpt>
      <trkpt lat="42.38848" lon="2.67143">
        <ele>953.7</ele>
        <time>2018-11-26T03:54:41Z</time>
      </trkpt>
      <trkpt lat="42.38848" lon="2.67143">
        <ele>953.7</ele>
        <time>2018-11-26T03:54:41Z</time>
      </trkpt>
      <trkpt lat="42.38848" lon="2.67143">
        <ele>953.5</ele>
        <time>2018-11-26T03:54:41Z</time>
      </trkpt>
      <trkpt lat="42.38848" lon="2.67143">
        <ele>953.2</ele>
        <time>2018-11-26T03:54:41Z</time>
      </trkpt>
      <trkpt lat="42.38848" lon="2.67144">
        <ele>952.9</ele>
        <time>2018-11-26T03:54:41Z</time>
      </trkpt>
      <trkpt lat="42.38848" lon="2.67144">
        <ele>952.7</ele>
        <time>2018-11-26T03:54:41Z</time>
      </trkpt>
      <trkpt lat="42.38848" lon="2.67144">
        <ele>952.5</ele>
        <time>2018-11-26T03:54:41Z</time>
      </trkpt>
      <trkpt lat="42.38848" lon="2.67144">
        <ele>952.4</ele>
        <time>2018-11-26T03:54:41Z</time>
      </trkpt>
      <trkpt lat="42.38848" lon="2.67144">
        <ele>952.4</ele>
        <time>2018-11-26T03:54:41Z</time>
      </trkpt>
      <trkpt lat="42.38848" lon="2.67144">
        <ele>952.3</ele>
        <time>2018-11-26T03:54:41Z</time>
      </trkpt>
      <trkpt lat="42.38849" lon="2.67144">
        <ele>952.4</ele>
        <time>2018-11-26T03:54:41Z</time>
      </trkpt>
      <trkpt lat="42.38849" lon="2.67144">
        <ele>952.5</ele>
        <time>2018-11-26T03:54:41Z</time>
      </trkpt>
      <trkpt lat="42.38849" lon="2.67144">
        <ele>952.7</ele>
        <time>2018-11-26T03:54:42Z</time>
      </trkpt>
      <trkpt lat="42.3885" lon="2.67145">
        <ele>952.8</ele>
        <time>2018-11-26T03:54:42Z</time>
      </trkpt>
      <trkpt lat="42.38855" lon="2.67145">
        <ele>952.4</ele>
        <time>2018-11-26T03:54:44Z</time>
      </trkpt>
      <trkpt lat="42.3886" lon="2.67145">
        <ele>951.7</ele>
        <time>2018-11-26T03:54:46Z</time>
      </trkpt>
      <trkpt lat="42.38861" lon="2.67145">
        <ele>951.8</ele>
        <time>2018-11-26T03:54:46Z</time>
      </trkpt>
      <trkpt lat="42.38862" lon="2.67145">
        <ele>951.8</ele>
        <time>2018-11-26T03:54:47Z</time>
      </trkpt>
      <trkpt lat="42.38867" lon="2.67145">
        <ele>951.6</ele>
        <time>2018-11-26T03:54:49Z</time>
      </trkpt>
      <trkpt lat="42.38868" lon="2.67145">
        <ele>951.3</ele>
        <time>2018-11-26T03:54:49Z</time>
      </trkpt>
      <trkpt lat="42.38872" lon="2.67145">
        <ele>950.7</ele>
        <time>2018-11-26T03:54:51Z</time>
      </trkpt>
      <trkpt lat="42.38873" lon="2.67145">
        <ele>950.6</ele>
        <time>2018-11-26T03:54:51Z</time>
      </trkpt>
      <trkpt lat="42.38874" lon="2.67145">
        <ele>950.5</ele>
        <time>2018-11-26T03:54:52Z</time>
      </trkpt>
      <trkpt lat="42.38876" lon="2.67145">
        <ele>950.5</ele>
        <time>2018-11-26T03:54:53Z</time>
      </trkpt>
      <trkpt lat="42.38878" lon="2.67145">
        <ele>950.7</ele>
        <time>2018-11-26T03:54:53Z</time>
      </trkpt>
      <trkpt lat="42.38878" lon="2.67145">
        <ele>950.5</ele>
        <time>2018-11-26T03:54:53Z</time>
      </trkpt>
      <trkpt lat="42.38879" lon="2.67145">
        <ele>950.2</ele>
        <time>2018-11-26T03:54:54Z</time>
      </trkpt>
      <trkpt lat="42.3888" lon="2.67145">
        <ele>949.9</ele>
        <time>2018-11-26T03:54:54Z</time>
      </trkpt>
      <trkpt lat="42.38881" lon="2.67145">
        <ele>949.8</ele>
        <time>2018-11-26T03:54:55Z</time>
      </trkpt>
      <trkpt lat="42.38882" lon="2.67146">
        <ele>949.7</ele>
        <time>2018-11-26T03:54:55Z</time>
      </trkpt>
      <trkpt lat="42.38884" lon="2.67146">
        <ele>949.5</ele>
        <time>2018-11-26T03:54:56Z</time>
      </trkpt>
      <trkpt lat="42.38884" lon="2.67146">
        <ele>949.5</ele>
        <time>2018-11-26T03:54:56Z</time>
      </trkpt>
      <trkpt lat="42.38884" lon="2.67146">
        <ele>949.3</ele>
        <time>2018-11-26T03:54:56Z</time>
      </trkpt>
      <trkpt lat="42.38885" lon="2.67146">
        <ele>949.2</ele>
        <time>2018-11-26T03:54:56Z</time>
      </trkpt>
      <trkpt lat="42.38885" lon="2.67146">
        <ele>949</ele>
        <time>2018-11-26T03:54:56Z</time>
      </trkpt>
      <trkpt lat="42.38886" lon="2.67147">
        <ele>948.7</ele>
        <time>2018-11-26T03:54:57Z</time>
      </trkpt>
      <trkpt lat="42.38887" lon="2.67147">
        <ele>948.5</ele>
        <time>2018-11-26T03:54:57Z</time>
      </trkpt>
      <trkpt lat="42.38888" lon="2.67147">
        <ele>948.3</ele>
        <time>2018-11-26T03:54:57Z</time>
      </trkpt>
      <trkpt lat="42.38891" lon="2.67147">
        <ele>947.3</ele>
        <time>2018-11-26T03:54:59Z</time>
      </trkpt>
      <trkpt lat="42.38892" lon="2.67147">
        <ele>947.1</ele>
        <time>2018-11-26T03:54:59Z</time>
      </trkpt>
      <trkpt lat="42.38893" lon="2.67147">
        <ele>947</ele>
        <time>2018-11-26T03:54:59Z</time>
      </trkpt>
      <trkpt lat="42.38894" lon="2.67147">
        <ele>947.1</ele>
        <time>2018-11-26T03:55:00Z</time>
      </trkpt>
      <trkpt lat="42.38894" lon="2.67147">
        <ele>947.5</ele>
        <time>2018-11-26T03:55:00Z</time>
      </trkpt>
      <trkpt lat="42.38895" lon="2.67147">
        <ele>947.7</ele>
        <time>2018-11-26T03:55:00Z</time>
      </trkpt>
      <trkpt lat="42.38896" lon="2.67147">
        <ele>947.7</ele>
        <time>2018-11-26T03:55:01Z</time>
      </trkpt>
      <trkpt lat="42.38898" lon="2.67147">
        <ele>947.4</ele>
        <time>2018-11-26T03:55:01Z</time>
      </trkpt>
      <trkpt lat="42.3891" lon="2.67148">
        <ele>946.7</ele>
        <time>2018-11-26T03:55:06Z</time>
      </trkpt>
      <trkpt lat="42.38922" lon="2.67148">
        <ele>945.2</ele>
        <time>2018-11-26T03:55:11Z</time>
      </trkpt>
      <trkpt lat="42.38926" lon="2.67149">
        <ele>944.3</ele>
        <time>2018-11-26T03:55:13Z</time>
      </trkpt>
      <trkpt lat="42.38931" lon="2.67149">
        <ele>944.5</ele>
        <time>2018-11-26T03:55:15Z</time>
      </trkpt>
      <trkpt lat="42.38933" lon="2.67149">
        <ele>945</ele>
        <time>2018-11-26T03:55:16Z</time>
      </trkpt>
      <trkpt lat="42.38936" lon="2.6715">
        <ele>945.2</ele>
        <time>2018-11-26T03:55:17Z</time>
      </trkpt>
      <trkpt lat="42.38937" lon="2.6715">
        <ele>945.2</ele>
        <time>2018-11-26T03:55:17Z</time>
      </trkpt>
      <trkpt lat="42.38938" lon="2.67151">
        <ele>945</ele>
        <time>2018-11-26T03:55:18Z</time>
      </trkpt>
      <trkpt lat="42.38939" lon="2.6715">
        <ele>944.8</ele>
        <time>2018-11-26T03:55:18Z</time>
      </trkpt>
      <trkpt lat="42.38942" lon="2.67151">
        <ele>944.9</ele>
        <time>2018-11-26T03:55:19Z</time>
      </trkpt>
      <trkpt lat="42.38943" lon="2.67151">
        <ele>945.1</ele>
        <time>2018-11-26T03:55:20Z</time>
      </trkpt>
      <trkpt lat="42.38944" lon="2.67151">
        <ele>945.3</ele>
        <time>2018-11-26T03:55:20Z</time>
      </trkpt>
      <trkpt lat="42.38945" lon="2.67152">
        <ele>945.4</ele>
        <time>2018-11-26T03:55:20Z</time>
      </trkpt>
      <trkpt lat="42.38946" lon="2.67153">
        <ele>945.7</ele>
        <time>2018-11-26T03:55:21Z</time>
      </trkpt>
      <trkpt lat="42.38955" lon="2.67162">
        <ele>948.1</ele>
        <time>2018-11-26T03:55:26Z</time>
      </trkpt>
      <trkpt lat="42.38956" lon="2.67163">
        <ele>948.3</ele>
        <time>2018-11-26T03:55:26Z</time>
      </trkpt>
      <trkpt lat="42.38961" lon="2.67165">
        <ele>949.1</ele>
        <time>2018-11-26T03:55:28Z</time>
      </trkpt>
      <trkpt lat="42.38961" lon="2.67165">
        <ele>949.2</ele>
        <time>2018-11-26T03:55:28Z</time>
      </trkpt>
      <trkpt lat="42.38962" lon="2.67166">
        <ele>949.6</ele>
        <time>2018-11-26T03:55:28Z</time>
      </trkpt>
      <trkpt lat="42.38963" lon="2.67167">
        <ele>949.8</ele>
        <time>2018-11-26T03:55:29Z</time>
      </trkpt>
      <trkpt lat="42.38972" lon="2.67173">
        <ele>951.4</ele>
        <time>2018-11-26T03:55:33Z</time>
      </trkpt>
      <trkpt lat="42.38973" lon="2.67174">
        <ele>951.5</ele>
        <time>2018-11-26T03:55:34Z</time>
      </trkpt>
      <trkpt lat="42.38974" lon="2.67175">
        <ele>951.9</ele>
        <time>2018-11-26T03:55:34Z</time>
      </trkpt>
      <trkpt lat="42.38975" lon="2.67177">
        <ele>952.4</ele>
        <time>2018-11-26T03:55:35Z</time>
      </trkpt>
      <trkpt lat="42.38976" lon="2.67177">
        <ele>952.7</ele>
        <time>2018-11-26T03:55:35Z</time>
      </trkpt>
      <trkpt lat="42.38977" lon="2.67178">
        <ele>953.1</ele>
        <time>2018-11-26T03:55:35Z</time>
      </trkpt>
      <trkpt lat="42.38978" lon="2.67179">
        <ele>953.5</ele>
        <time>2018-11-26T03:55:36Z</time>
      </trkpt>
      <trkpt lat="42.38979" lon="2.67179">
        <ele>954.1</ele>
        <time>2018-11-26T03:55:36Z</time>
      </trkpt>
      <trkpt lat="42.38979" lon="2.6718">
        <ele>954.1</ele>
        <time>2018-11-26T03:55:37Z</time>
      </trkpt>
      <trkpt lat="42.38981" lon="2.67181">
        <ele>953.8</ele>
        <time>2018-11-26T03:55:37Z</time>
      </trkpt>
      <trkpt lat="42.38983" lon="2.67182">
        <ele>954.2</ele>
        <time>2018-11-26T03:55:38Z</time>
      </trkpt>
      <trkpt lat="42.38984" lon="2.67183">
        <ele>954.3</ele>
        <time>2018-11-26T03:55:39Z</time>
      </trkpt>
      <trkpt lat="42.38984" lon="2.67183">
        <ele>954.4</ele>
        <time>2018-11-26T03:55:39Z</time>
      </trkpt>
      <trkpt lat="42.38985" lon="2.67184">
        <ele>954.6</ele>
        <time>2018-11-26T03:55:39Z</time>
      </trkpt>
      <trkpt lat="42.38985" lon="2.67184">
        <ele>954.8</ele>
        <time>2018-11-26T03:55:39Z</time>
      </trkpt>
      <trkpt lat="42.38986" lon="2.67185">
        <ele>955.2</ele>
        <time>2018-11-26T03:55:40Z</time>
      </trkpt>
      <trkpt lat="42.38986" lon="2.67185">
        <ele>955.5</ele>
        <time>2018-11-26T03:55:40Z</time>
      </trkpt>
      <trkpt lat="42.38989" lon="2.67187">
        <ele>957.1</ele>
        <time>2018-11-26T03:55:41Z</time>
      </trkpt>
      <trkpt lat="42.38989" lon="2.67188">
        <ele>957.6</ele>
        <time>2018-11-26T03:55:41Z</time>
      </trkpt>
      <trkpt lat="42.3899" lon="2.67189">
        <ele>958.1</ele>
        <time>2018-11-26T03:55:42Z</time>
      </trkpt>
      <trkpt lat="42.38993" lon="2.67191">
        <ele>958.3</ele>
        <time>2018-11-26T03:55:43Z</time>
      </trkpt>
      <trkpt lat="42.38994" lon="2.67191">
        <ele>958.4</ele>
        <time>2018-11-26T03:55:43Z</time>
      </trkpt>
      <trkpt lat="42.38994" lon="2.67192">
        <ele>958.7</ele>
        <time>2018-11-26T03:55:44Z</time>
      </trkpt>
      <trkpt lat="42.38996" lon="2.67193">
        <ele>959</ele>
        <time>2018-11-26T03:55:44Z</time>
      </trkpt>
      <trkpt lat="42.39002" lon="2.672">
        <ele>961.2</ele>
        <time>2018-11-26T03:55:48Z</time>
      </trkpt>
      <trkpt lat="42.39003" lon="2.67201">
        <ele>961.7</ele>
        <time>2018-11-26T03:55:48Z</time>
      </trkpt>
      <trkpt lat="42.39005" lon="2.67203">
        <ele>962.2</ele>
        <time>2018-11-26T03:55:49Z</time>
      </trkpt>
      <trkpt lat="42.39007" lon="2.67205">
        <ele>962.7</ele>
        <time>2018-11-26T03:55:50Z</time>
      </trkpt>
      <trkpt lat="42.39008" lon="2.67205">
        <ele>962.9</ele>
        <time>2018-11-26T03:55:50Z</time>
      </trkpt>
      <trkpt lat="42.39009" lon="2.67206">
        <ele>963.8</ele>
        <time>2018-11-26T03:55:51Z</time>
      </trkpt>
      <trkpt lat="42.3901" lon="2.67206">
        <ele>964.5</ele>
        <time>2018-11-26T03:55:51Z</time>
      </trkpt>
      <trkpt lat="42.3901" lon="2.67207">
        <ele>964.8</ele>
        <time>2018-11-26T03:55:52Z</time>
      </trkpt>
      <trkpt lat="42.39011" lon="2.67208">
        <ele>965.1</ele>
        <time>2018-11-26T03:55:52Z</time>
      </trkpt>
      <trkpt lat="42.39012" lon="2.67209">
        <ele>965.4</ele>
        <time>2018-11-26T03:55:52Z</time>
      </trkpt>
      <trkpt lat="42.39012" lon="2.67209">
        <ele>966</ele>
        <time>2018-11-26T03:55:53Z</time>
      </trkpt>
      <trkpt lat="42.39013" lon="2.6721">
        <ele>966.2</ele>
        <time>2018-11-26T03:55:53Z</time>
      </trkpt>
      <trkpt lat="42.39014" lon="2.6721">
        <ele>966.5</ele>
        <time>2018-11-26T03:55:53Z</time>
      </trkpt>
      <trkpt lat="42.39014" lon="2.67211">
        <ele>967</ele>
        <time>2018-11-26T03:55:53Z</time>
      </trkpt>
      <trkpt lat="42.39015" lon="2.67212">
        <ele>967.3</ele>
        <time>2018-11-26T03:55:54Z</time>
      </trkpt>
      <trkpt lat="42.39015" lon="2.67212">
        <ele>967.6</ele>
        <time>2018-11-26T03:55:54Z</time>
      </trkpt>
      <trkpt lat="42.39016" lon="2.67212">
        <ele>968</ele>
        <time>2018-11-26T03:55:54Z</time>
      </trkpt>
      <trkpt lat="42.39016" lon="2.67213">
        <ele>968.1</ele>
        <time>2018-11-26T03:55:55Z</time>
      </trkpt>
      <trkpt lat="42.39017" lon="2.67213">
        <ele>968.1</ele>
        <time>2018-11-26T03:55:55Z</time>
      </trkpt>
      <trkpt lat="42.39018" lon="2.67213">
        <ele>968.1</ele>
        <time>2018-11-26T03:55:55Z</time>
      </trkpt>
      <trkpt lat="42.39018" lon="2.67214">
        <ele>968.3</ele>
        <time>2018-11-26T03:55:55Z</time>
      </trkpt>
      <trkpt lat="42.39018" lon="2.67215">
        <ele>968.6</ele>
        <time>2018-11-26T03:55:56Z</time>
      </trkpt>
      <trkpt lat="42.39019" lon="2.67216">
        <ele>968.9</ele>
        <time>2018-11-26T03:55:56Z</time>
      </trkpt>
      <trkpt lat="42.39019" lon="2.67217">
        <ele>969</ele>
        <time>2018-11-26T03:55:56Z</time>
      </trkpt>
      <trkpt lat="42.3902" lon="2.67217">
        <ele>969.2</ele>
        <time>2018-11-26T03:55:57Z</time>
      </trkpt>
      <trkpt lat="42.39021" lon="2.67217">
        <ele>969.6</ele>
        <time>2018-11-26T03:55:57Z</time>
      </trkpt>
      <trkpt lat="42.39021" lon="2.67217">
        <ele>969.9</ele>
        <time>2018-11-26T03:55:57Z</time>
      </trkpt>
      <trkpt lat="42.39021" lon="2.67218">
        <ele>970</ele>
        <time>2018-11-26T03:55:57Z</time>
      </trkpt>
      <trkpt lat="42.39022" lon="2.67218">
        <ele>970.3</ele>
        <time>2018-11-26T03:55:57Z</time>
      </trkpt>
      <trkpt lat="42.39022" lon="2.67219">
        <ele>970.4</ele>
        <time>2018-11-26T03:55:58Z</time>
      </trkpt>
      <trkpt lat="42.39022" lon="2.67219">
        <ele>970.8</ele>
        <time>2018-11-26T03:55:58Z</time>
      </trkpt>
      <trkpt lat="42.39023" lon="2.67219">
        <ele>971.4</ele>
        <time>2018-11-26T03:55:58Z</time>
      </trkpt>
      <trkpt lat="42.39024" lon="2.6722">
        <ele>972.1</ele>
        <time>2018-11-26T03:55:58Z</time>
      </trkpt>
      <trkpt lat="42.39024" lon="2.6722">
        <ele>972.3</ele>
        <time>2018-11-26T03:55:59Z</time>
      </trkpt>
      <trkpt lat="42.39025" lon="2.6722">
        <ele>972.8</ele>
        <time>2018-11-26T03:55:59Z</time>
      </trkpt>
      <trkpt lat="42.39025" lon="2.67221">
        <ele>973.3</ele>
        <time>2018-11-26T03:55:59Z</time>
      </trkpt>
      <trkpt lat="42.39026" lon="2.67222">
        <ele>973.7</ele>
        <time>2018-11-26T03:55:59Z</time>
      </trkpt>
      <trkpt lat="42.39026" lon="2.67223">
        <ele>974.1</ele>
        <time>2018-11-26T03:56:00Z</time>
      </trkpt>
      <trkpt lat="42.39027" lon="2.67223">
        <ele>974.5</ele>
        <time>2018-11-26T03:56:00Z</time>
      </trkpt>
      <trkpt lat="42.39028" lon="2.67224">
        <ele>974.7</ele>
        <time>2018-11-26T03:56:01Z</time>
      </trkpt>
      <trkpt lat="42.39029" lon="2.67226">
        <ele>975.4</ele>
        <time>2018-11-26T03:56:01Z</time>
      </trkpt>
      <trkpt lat="42.39032" lon="2.67228">
        <ele>976.1</ele>
        <time>2018-11-26T03:56:03Z</time>
      </trkpt>
      <trkpt lat="42.39033" lon="2.67229">
        <ele>976.3</ele>
        <time>2018-11-26T03:56:03Z</time>
      </trkpt>
      <trkpt lat="42.39033" lon="2.67229">
        <ele>976.6</ele>
        <time>2018-11-26T03:56:03Z</time>
      </trkpt>
      <trkpt lat="42.39034" lon="2.67229">
        <ele>976.9</ele>
        <time>2018-11-26T03:56:04Z</time>
      </trkpt>
      <trkpt lat="42.39035" lon="2.67229">
        <ele>977.1</ele>
        <time>2018-11-26T03:56:04Z</time>
      </trkpt>
      <trkpt lat="42.39036" lon="2.67229">
        <ele>977</ele>
        <time>2018-11-26T03:56:04Z</time>
      </trkpt>
      <trkpt lat="42.39036" lon="2.6723">
        <ele>977</ele>
        <time>2018-11-26T03:56:04Z</time>
      </trkpt>
      <trkpt lat="42.39036" lon="2.6723">
        <ele>976.8</ele>
        <time>2018-11-26T03:56:05Z</time>
      </trkpt>
      <trkpt lat="42.39036" lon="2.6723">
        <ele>976.6</ele>
        <time>2018-11-26T03:56:05Z</time>
      </trkpt>
      <trkpt lat="42.39036" lon="2.6723">
        <ele>976.5</ele>
        <time>2018-11-26T03:56:05Z</time>
      </trkpt>
      <trkpt lat="42.39036" lon="2.6723">
        <ele>976.5</ele>
        <time>2018-11-26T03:56:05Z</time>
      </trkpt>
      <trkpt lat="42.39036" lon="2.6723">
        <ele>976.3</ele>
        <time>2018-11-26T03:56:05Z</time>
      </trkpt>
      <trkpt lat="42.39036" lon="2.6723">
        <ele>976.3</ele>
        <time>2018-11-26T03:56:05Z</time>
      </trkpt>
      <trkpt lat="42.39036" lon="2.6723">
        <ele>976.2</ele>
        <time>2018-11-26T03:56:05Z</time>
      </trkpt>
      <trkpt lat="42.39037" lon="2.6723">
        <ele>976</ele>
        <time>2018-11-26T03:56:05Z</time>
      </trkpt>
      <trkpt lat="42.39037" lon="2.6723">
        <ele>976</ele>
        <time>2018-11-26T03:56:05Z</time>
      </trkpt>
      <trkpt lat="42.39037" lon="2.6723">
        <ele>976</ele>
        <time>2018-11-26T03:56:05Z</time>
      </trkpt>
      <trkpt lat="42.39037" lon="2.6723">
        <ele>976</ele>
        <time>2018-11-26T03:56:05Z</time>
      </trkpt>
      <trkpt lat="42.39037" lon="2.6723">
        <ele>975.9</ele>
        <time>2018-11-26T03:56:05Z</time>
      </trkpt>
      <trkpt lat="42.39037" lon="2.6723">
        <ele>975.8</ele>
        <time>2018-11-26T03:56:05Z</time>
      </trkpt>
      <trkpt lat="42.39037" lon="2.6723">
        <ele>975.8</ele>
        <time>2018-11-26T03:56:05Z</time>
      </trkpt>
      <trkpt lat="42.39037" lon="2.6723">
        <ele>975.9</ele>
        <time>2018-11-26T03:56:05Z</time>
      </trkpt>
      <trkpt lat="42.39037" lon="2.6723">
        <ele>975.8</ele>
        <time>2018-11-26T03:56:05Z</time>
      </trkpt>
      <trkpt lat="42.39037" lon="2.6723">
        <ele>975.9</ele>
        <time>2018-11-26T03:56:05Z</time>
      </trkpt>
      <trkpt lat="42.39037" lon="2.6723">
        <ele>976.2</ele>
        <time>2018-11-26T03:56:05Z</time>
      </trkpt>
      <trkpt lat="42.39037" lon="2.6723">
        <ele>976.3</ele>
        <time>2018-11-26T03:56:05Z</time>
      </trkpt>
      <trkpt lat="42.39037" lon="2.6723">
        <ele>976.7</ele>
        <time>2018-11-26T03:56:05Z</time>
      </trkpt>
      <trkpt lat="42.39037" lon="2.6723">
        <ele>976.6</ele>
        <time>2018-11-26T03:56:05Z</time>
      </trkpt>
      <trkpt lat="42.39037" lon="2.6723">
        <ele>976.5</ele>
        <time>2018-11-26T03:56:05Z</time>
      </trkpt>
      <trkpt lat="42.39037" lon="2.6723">
        <ele>976.5</ele>
        <time>2018-11-26T03:56:05Z</time>
      </trkpt>
      <trkpt lat="42.39037" lon="2.6723">
        <ele>976.5</ele>
        <time>2018-11-26T03:56:05Z</time>
      </trkpt>
      <trkpt lat="42.39037" lon="2.6723">
        <ele>976.5</ele>
        <time>2018-11-26T03:56:05Z</time>
      </trkpt>
      <trkpt lat="42.39037" lon="2.6723">
        <ele>976.5</ele>
        <time>2018-11-26T03:56:05Z</time>
      </trkpt>
      <trkpt lat="42.39037" lon="2.6723">
        <ele>976.3</ele>
        <time>2018-11-26T03:56:05Z</time>
      </trkpt>
      <trkpt lat="42.39037" lon="2.6723">
        <ele>976.4</ele>
        <time>2018-11-26T03:56:05Z</time>
      </trkpt>
      <trkpt lat="42.39037" lon="2.6723">
        <ele>976.2</ele>
        <time>2018-11-26T03:56:05Z</time>
      </trkpt>
      <trkpt lat="42.39037" lon="2.6723">
        <ele>976</ele>
        <time>2018-11-26T03:56:05Z</time>
      </trkpt>
      <trkpt lat="42.39037" lon="2.6723">
        <ele>976.1</ele>
        <time>2018-11-26T03:56:05Z</time>
      </trkpt>
      <trkpt lat="42.39038" lon="2.6723">
        <ele>976</ele>
        <time>2018-11-26T03:56:05Z</time>
      </trkpt>
      <trkpt lat="42.39038" lon="2.6723">
        <ele>976</ele>
        <time>2018-11-26T03:56:05Z</time>
      </trkpt>
      <trkpt lat="42.39038" lon="2.67231">
        <ele>976</ele>
        <time>2018-11-26T03:56:06Z</time>
      </trkpt>
      <trkpt lat="42.39039" lon="2.67232">
        <ele>976.1</ele>
        <time>2018-11-26T03:56:06Z</time>
      </trkpt>
      <trkpt lat="42.39039" lon="2.67233">
        <ele>976.1</ele>
        <time>2018-11-26T03:56:06Z</time>
      </trkpt>
      <trkpt lat="42.39039" lon="2.67233">
        <ele>976.2</ele>
        <time>2018-11-26T03:56:06Z</time>
      </trkpt>
      <trkpt lat="42.39039" lon="2.67233">
        <ele>976.3</ele>
        <time>2018-11-26T03:56:06Z</time>
      </trkpt>
      <trkpt lat="42.39039" lon="2.67233">
        <ele>976.5</ele>
        <time>2018-11-26T03:56:06Z</time>
      </trkpt>
      <trkpt lat="42.39039" lon="2.67233">
        <ele>976.6</ele>
        <time>2018-11-26T03:56:06Z</time>
      </trkpt>
      <trkpt lat="42.3904" lon="2.67233">
        <ele>976.5</ele>
        <time>2018-11-26T03:56:06Z</time>
      </trkpt>
      <trkpt lat="42.3904" lon="2.67233">
        <ele>976.5</ele>
        <time>2018-11-26T03:56:07Z</time>
      </trkpt>
      <trkpt lat="42.3904" lon="2.67233">
        <ele>976.5</ele>
        <time>2018-11-26T03:56:07Z</time>
      </trkpt>
      <trkpt lat="42.39041" lon="2.67232">
        <ele>976.4</ele>
        <time>2018-11-26T03:56:07Z</time>
      </trkpt>
      <trkpt lat="42.39041" lon="2.67232">
        <ele>976.2</ele>
        <time>2018-11-26T03:56:07Z</time>
      </trkpt>
      <trkpt lat="42.39041" lon="2.67232">
        <ele>975.7</ele>
        <time>2018-11-26T03:56:07Z</time>
      </trkpt>
      <trkpt lat="42.39041" lon="2.67232">
        <ele>975.5</ele>
        <time>2018-11-26T03:56:07Z</time>
      </trkpt>
      <trkpt lat="42.39041" lon="2.67232">
        <ele>975.3</ele>
        <time>2018-11-26T03:56:07Z</time>
      </trkpt>
      <trkpt lat="42.39042" lon="2.67232">
        <ele>974.7</ele>
        <time>2018-11-26T03:56:07Z</time>
      </trkpt>
      <trkpt lat="42.39042" lon="2.67232">
        <ele>974.8</ele>
        <time>2018-11-26T03:56:08Z</time>
      </trkpt>
      <trkpt lat="42.39044" lon="2.67231">
        <ele>974.4</ele>
        <time>2018-11-26T03:56:08Z</time>
      </trkpt>
      <trkpt lat="42.39044" lon="2.67231">
        <ele>974.7</ele>
        <time>2018-11-26T03:56:09Z</time>
      </trkpt>
      <trkpt lat="42.39045" lon="2.67231">
        <ele>975</ele>
        <time>2018-11-26T03:56:09Z</time>
      </trkpt>
      <trkpt lat="42.39046" lon="2.67231">
        <ele>975.5</ele>
        <time>2018-11-26T03:56:09Z</time>
      </trkpt>
      <trkpt lat="42.39046" lon="2.67232">
        <ele>975.4</ele>
        <time>2018-11-26T03:56:09Z</time>
      </trkpt>
      <trkpt lat="42.39047" lon="2.67231">
        <ele>975</ele>
        <time>2018-11-26T03:56:10Z</time>
      </trkpt>
      <trkpt lat="42.39048" lon="2.67231">
        <ele>974.8</ele>
        <time>2018-11-26T03:56:10Z</time>
      </trkpt>
      <trkpt lat="42.39049" lon="2.67231">
        <ele>974.3</ele>
        <time>2018-11-26T03:56:10Z</time>
      </trkpt>
      <trkpt lat="42.39049" lon="2.67231">
        <ele>974.3</ele>
        <time>2018-11-26T03:56:11Z</time>
      </trkpt>
      <trkpt lat="42.3905" lon="2.67231">
        <ele>974.3</ele>
        <time>2018-11-26T03:56:11Z</time>
      </trkpt>
      <trkpt lat="42.39051" lon="2.67231">
        <ele>974.2</ele>
        <time>2018-11-26T03:56:11Z</time>
      </trkpt>
      <trkpt lat="42.39052" lon="2.67231">
        <ele>974</ele>
        <time>2018-11-26T03:56:12Z</time>
      </trkpt>
      <trkpt lat="42.39052" lon="2.67231">
        <ele>973.7</ele>
        <time>2018-11-26T03:56:12Z</time>
      </trkpt>
      <trkpt lat="42.39053" lon="2.67231">
        <ele>973.3</ele>
        <time>2018-11-26T03:56:12Z</time>
      </trkpt>
      <trkpt lat="42.39054" lon="2.6723">
        <ele>973.3</ele>
        <time>2018-11-26T03:56:12Z</time>
      </trkpt>
      <trkpt lat="42.39055" lon="2.6723">
        <ele>973.2</ele>
        <time>2018-11-26T03:56:13Z</time>
      </trkpt>
      <trkpt lat="42.39055" lon="2.6723">
        <ele>973.2</ele>
        <time>2018-11-26T03:56:13Z</time>
      </trkpt>
      <trkpt lat="42.39055" lon="2.6723">
        <ele>973.1</ele>
        <time>2018-11-26T03:56:13Z</time>
      </trkpt>
      <trkpt lat="42.39055" lon="2.6723">
        <ele>972.7</ele>
        <time>2018-11-26T03:56:13Z</time>
      </trkpt>
      <trkpt lat="42.39055" lon="2.6723">
        <ele>972.5</ele>
        <time>2018-11-26T03:56:13Z</time>
      </trkpt>
      <trkpt lat="42.39055" lon="2.6723">
        <ele>972.3</ele>
        <time>2018-11-26T03:56:13Z</time>
      </trkpt>
      <trkpt lat="42.39056" lon="2.6723">
        <ele>971.9</ele>
        <time>2018-11-26T03:56:13Z</time>
      </trkpt>
      <trkpt lat="42.39057" lon="2.6723">
        <ele>971.6</ele>
        <time>2018-11-26T03:56:14Z</time>
      </trkpt>
      <trkpt lat="42.39057" lon="2.6723">
        <ele>971.2</ele>
        <time>2018-11-26T03:56:14Z</time>
      </trkpt>
      <trkpt lat="42.39058" lon="2.67229">
        <ele>971.3</ele>
        <time>2018-11-26T03:56:14Z</time>
      </trkpt>
      <trkpt lat="42.39059" lon="2.67229">
        <ele>971.3</ele>
        <time>2018-11-26T03:56:15Z</time>
      </trkpt>
      <trkpt lat="42.39059" lon="2.67229">
        <ele>971.4</ele>
        <time>2018-11-26T03:56:15Z</time>
      </trkpt>
      <trkpt lat="42.3906" lon="2.67229">
        <ele>971.2</ele>
        <time>2018-11-26T03:56:15Z</time>
      </trkpt>
      <trkpt lat="42.39061" lon="2.67228">
        <ele>971</ele>
        <time>2018-11-26T03:56:15Z</time>
      </trkpt>
      <trkpt lat="42.39062" lon="2.67228">
        <ele>970.5</ele>
        <time>2018-11-26T03:56:16Z</time>
      </trkpt>
      <trkpt lat="42.39062" lon="2.67228">
        <ele>970.4</ele>
        <time>2018-11-26T03:56:16Z</time>
      </trkpt>
      <trkpt lat="42.39063" lon="2.67228">
        <ele>970.1</ele>
        <time>2018-11-26T03:56:16Z</time>
      </trkpt>
      <trkpt lat="42.39063" lon="2.67227">
        <ele>969.8</ele>
        <time>2018-11-26T03:56:17Z</time>
      </trkpt>
      <trkpt lat="42.39064" lon="2.67227">
        <ele>969.6</ele>
        <time>2018-11-26T03:56:17Z</time>
      </trkpt>
      <trkpt lat="42.39065" lon="2.67226">
        <ele>968.8</ele>
        <time>2018-11-26T03:56:17Z</time>
      </trkpt>
      <trkpt lat="42.39066" lon="2.67226">
        <ele>968.7</ele>
        <time>2018-11-26T03:56:18Z</time>
      </trkpt>
      <trkpt lat="42.39067" lon="2.67225">
        <ele>969</ele>
        <time>2018-11-26T03:56:18Z</time>
      </trkpt>
      <trkpt lat="42.39068" lon="2.67225">
        <ele>968.8</ele>
        <time>2018-11-26T03:56:19Z</time>
      </trkpt>
      <trkpt lat="42.39069" lon="2.67225">
        <ele>968.8</ele>
        <time>2018-11-26T03:56:19Z</time>
      </trkpt>
      <trkpt lat="42.39069" lon="2.67225">
        <ele>968.7</ele>
        <time>2018-11-26T03:56:19Z</time>
      </trkpt>
      <trkpt lat="42.3907" lon="2.67225">
        <ele>968.4</ele>
        <time>2018-11-26T03:56:19Z</time>
      </trkpt>
      <trkpt lat="42.39071" lon="2.67225">
        <ele>968</ele>
        <time>2018-11-26T03:56:20Z</time>
      </trkpt>
      <trkpt lat="42.39071" lon="2.67225">
        <ele>967.6</ele>
        <time>2018-11-26T03:56:20Z</time>
      </trkpt>
      <trkpt lat="42.39072" lon="2.67225">
        <ele>967.6</ele>
        <time>2018-11-26T03:56:20Z</time>
      </trkpt>
      <trkpt lat="42.39073" lon="2.67224">
        <ele>967.4</ele>
        <time>2018-11-26T03:56:21Z</time>
      </trkpt>
      <trkpt lat="42.39074" lon="2.67224">
        <ele>967.1</ele>
        <time>2018-11-26T03:56:21Z</time>
      </trkpt>
      <trkpt lat="42.39078" lon="2.67222">
        <ele>966.8</ele>
        <time>2018-11-26T03:56:23Z</time>
      </trkpt>
      <trkpt lat="42.39079" lon="2.67222">
        <ele>966.9</ele>
        <time>2018-11-26T03:56:23Z</time>
      </trkpt>
      <trkpt lat="42.3908" lon="2.67222">
        <ele>966.8</ele>
        <time>2018-11-26T03:56:24Z</time>
      </trkpt>
      <trkpt lat="42.39084" lon="2.67222">
        <ele>965.8</ele>
        <time>2018-11-26T03:56:25Z</time>
      </trkpt>
      <trkpt lat="42.39094" lon="2.67221">
        <ele>964.7</ele>
        <time>2018-11-26T03:56:29Z</time>
      </trkpt>
      <trkpt lat="42.39098" lon="2.67221">
        <ele>964.4</ele>
        <time>2018-11-26T03:56:31Z</time>
      </trkpt>
      <trkpt lat="42.39099" lon="2.67221">
        <ele>964.5</ele>
        <time>2018-11-26T03:56:31Z</time>
      </trkpt>
      <trkpt lat="42.39102" lon="2.67221">
        <ele>964.4</ele>
        <time>2018-11-26T03:56:32Z</time>
      </trkpt>
      <trkpt lat="42.39103" lon="2.67222">
        <ele>964.4</ele>
        <time>2018-11-26T03:56:33Z</time>
      </trkpt>
      <trkpt lat="42.39106" lon="2.67221">
        <ele>964.2</ele>
        <time>2018-11-26T03:56:34Z</time>
      </trkpt>
      <trkpt lat="42.39108" lon="2.67221">
        <ele>964.2</ele>
        <time>2018-11-26T03:56:35Z</time>
      </trkpt>
      <trkpt lat="42.39124" lon="2.6722">
        <ele>964.4</ele>
        <time>2018-11-26T03:56:41Z</time>
      </trkpt>
      <trkpt lat="42.39148" lon="2.67218">
        <ele>967.4</ele>
        <time>2018-11-26T03:56:51Z</time>
      </trkpt>
      <trkpt lat="42.39149" lon="2.67218">
        <ele>968.1</ele>
        <time>2018-11-26T03:56:51Z</time>
      </trkpt>
      <trkpt lat="42.3915" lon="2.67218">
        <ele>968.1</ele>
        <time>2018-11-26T03:56:52Z</time>
      </trkpt>
      <trkpt lat="42.39152" lon="2.67219">
        <ele>968</ele>
        <time>2018-11-26T03:56:52Z</time>
      </trkpt>
      <trkpt lat="42.39153" lon="2.67219">
        <ele>968</ele>
        <time>2018-11-26T03:56:53Z</time>
      </trkpt>
      <trkpt lat="42.3916" lon="2.67219">
        <ele>969</ele>
        <time>2018-11-26T03:56:56Z</time>
      </trkpt>
      <trkpt lat="42.39166" lon="2.67219">
        <ele>970.2</ele>
        <time>2018-11-26T03:56:58Z</time>
      </trkpt>
      <trkpt lat="42.39171" lon="2.67219">
        <ele>971.9</ele>
        <time>2018-11-26T03:57:00Z</time>
      </trkpt>
      <trkpt lat="42.39174" lon="2.67219">
        <ele>972.5</ele>
        <time>2018-11-26T03:57:01Z</time>
      </trkpt>
      <trkpt lat="42.39175" lon="2.67218">
        <ele>972.5</ele>
        <time>2018-11-26T03:57:02Z</time>
      </trkpt>
      <trkpt lat="42.39186" lon="2.67219">
        <ele>974</ele>
        <time>2018-11-26T03:57:06Z</time>
      </trkpt>
      <trkpt lat="42.39187" lon="2.67219">
        <ele>974.2</ele>
        <time>2018-11-26T03:57:06Z</time>
      </trkpt>
      <trkpt lat="42.39196" lon="2.67218">
        <ele>973.4</ele>
        <time>2018-11-26T03:57:10Z</time>
      </trkpt>
      <trkpt lat="42.39198" lon="2.67218">
        <ele>973</ele>
        <time>2018-11-26T03:57:11Z</time>
      </trkpt>
      <trkpt lat="42.39208" lon="2.67221">
        <ele>971.8</ele>
        <time>2018-11-26T03:57:15Z</time>
      </trkpt>
      <trkpt lat="42.39224" lon="2.67224">
        <ele>969.3</ele>
        <time>2018-11-26T03:57:21Z</time>
      </trkpt>
      <trkpt lat="42.39239" lon="2.67227">
        <ele>968.4</ele>
        <time>2018-11-26T03:57:28Z</time>
      </trkpt>
      <trkpt lat="42.3924" lon="2.67227">
        <ele>968.2</ele>
        <time>2018-11-26T03:57:28Z</time>
      </trkpt>
      <trkpt lat="42.3925" lon="2.67231">
        <ele>967.5</ele>
        <time>2018-11-26T03:57:32Z</time>
      </trkpt>
      <trkpt lat="42.39254" lon="2.67232">
        <ele>966.7</ele>
        <time>2018-11-26T03:57:34Z</time>
      </trkpt>
      <trkpt lat="42.39263" lon="2.67234">
        <ele>967.4</ele>
        <time>2018-11-26T03:57:37Z</time>
      </trkpt>
      <trkpt lat="42.39265" lon="2.67235">
        <ele>967.4</ele>
        <time>2018-11-26T03:57:38Z</time>
      </trkpt>
      <trkpt lat="42.39266" lon="2.67235">
        <ele>967.2</ele>
        <time>2018-11-26T03:57:39Z</time>
      </trkpt>
      <trkpt lat="42.39267" lon="2.67235">
        <ele>967</ele>
        <time>2018-11-26T03:57:39Z</time>
      </trkpt>
      <trkpt lat="42.3927" lon="2.67235">
        <ele>967</ele>
        <time>2018-11-26T03:57:40Z</time>
      </trkpt>
      <trkpt lat="42.3927" lon="2.67236">
        <ele>967</ele>
        <time>2018-11-26T03:57:40Z</time>
      </trkpt>
      <trkpt lat="42.39288" lon="2.67239">
        <ele>967.8</ele>
        <time>2018-11-26T03:57:47Z</time>
      </trkpt>
      <trkpt lat="42.3929" lon="2.6724">
        <ele>967.9</ele>
        <time>2018-11-26T03:57:48Z</time>
      </trkpt>
      <trkpt lat="42.39291" lon="2.6724">
        <ele>968.2</ele>
        <time>2018-11-26T03:57:49Z</time>
      </trkpt>
      <trkpt lat="42.39294" lon="2.6724">
        <ele>968.8</ele>
        <time>2018-11-26T03:57:50Z</time>
      </trkpt>
      <trkpt lat="42.39295" lon="2.67239">
        <ele>969.1</ele>
        <time>2018-11-26T03:57:50Z</time>
      </trkpt>
      <trkpt lat="42.39299" lon="2.6724">
        <ele>968.9</ele>
        <time>2018-11-26T03:57:52Z</time>
      </trkpt>
      <trkpt lat="42.393" lon="2.6724">
        <ele>968.5</ele>
        <time>2018-11-26T03:57:52Z</time>
      </trkpt>
      <trkpt lat="42.39303" lon="2.67242">
        <ele>968.5</ele>
        <time>2018-11-26T03:57:54Z</time>
      </trkpt>
      <trkpt lat="42.39304" lon="2.67242">
        <ele>968.7</ele>
        <time>2018-11-26T03:57:54Z</time>
      </trkpt>
      <trkpt lat="42.39305" lon="2.67242">
        <ele>968.7</ele>
        <time>2018-11-26T03:57:54Z</time>
      </trkpt>
      <trkpt lat="42.39305" lon="2.67241">
        <ele>968.6</ele>
        <time>2018-11-26T03:57:55Z</time>
      </trkpt>
      <trkpt lat="42.39306" lon="2.67241">
        <ele>968.6</ele>
        <time>2018-11-26T03:57:55Z</time>
      </trkpt>
      <trkpt lat="42.39307" lon="2.67241">
        <ele>968.4</ele>
        <time>2018-11-26T03:57:55Z</time>
      </trkpt>
      <trkpt lat="42.39307" lon="2.67241">
        <ele>968.3</ele>
        <time>2018-11-26T03:57:55Z</time>
      </trkpt>
      <trkpt lat="42.39308" lon="2.6724">
        <ele>968.1</ele>
        <time>2018-11-26T03:57:56Z</time>
      </trkpt>
      <trkpt lat="42.39309" lon="2.67241">
        <ele>968.2</ele>
        <time>2018-11-26T03:57:56Z</time>
      </trkpt>
      <trkpt lat="42.3931" lon="2.67241">
        <ele>968.2</ele>
        <time>2018-11-26T03:57:57Z</time>
      </trkpt>
      <trkpt lat="42.39311" lon="2.67242">
        <ele>968.3</ele>
        <time>2018-11-26T03:57:57Z</time>
      </trkpt>
      <trkpt lat="42.39312" lon="2.67242">
        <ele>968.3</ele>
        <time>2018-11-26T03:57:57Z</time>
      </trkpt>
      <trkpt lat="42.39313" lon="2.67242">
        <ele>968.5</ele>
        <time>2018-11-26T03:57:58Z</time>
      </trkpt>
      <trkpt lat="42.39313" lon="2.67242">
        <ele>968.5</ele>
        <time>2018-11-26T03:57:58Z</time>
      </trkpt>
      <trkpt lat="42.39313" lon="2.67242">
        <ele>968.5</ele>
        <time>2018-11-26T03:57:58Z</time>
      </trkpt>
      <trkpt lat="42.39313" lon="2.67243">
        <ele>968.4</ele>
        <time>2018-11-26T03:57:58Z</time>
      </trkpt>
      <trkpt lat="42.39313" lon="2.67243">
        <ele>968.2</ele>
        <time>2018-11-26T03:57:58Z</time>
      </trkpt>
      <trkpt lat="42.39313" lon="2.67243">
        <ele>968.1</ele>
        <time>2018-11-26T03:57:58Z</time>
      </trkpt>
      <trkpt lat="42.39313" lon="2.67244">
        <ele>968.2</ele>
        <time>2018-11-26T03:57:58Z</time>
      </trkpt>
      <trkpt lat="42.39313" lon="2.67245">
        <ele>968.2</ele>
        <time>2018-11-26T03:57:59Z</time>
      </trkpt>
      <trkpt lat="42.39313" lon="2.67245">
        <ele>968.2</ele>
        <time>2018-11-26T03:57:59Z</time>
      </trkpt>
      <trkpt lat="42.39313" lon="2.67245">
        <ele>968.4</ele>
        <time>2018-11-26T03:57:59Z</time>
      </trkpt>
      <trkpt lat="42.39313" lon="2.67245">
        <ele>968.5</ele>
        <time>2018-11-26T03:57:59Z</time>
      </trkpt>
      <trkpt lat="42.39313" lon="2.67245">
        <ele>968.5</ele>
        <time>2018-11-26T03:57:59Z</time>
      </trkpt>
      <trkpt lat="42.39313" lon="2.67245">
        <ele>968.4</ele>
        <time>2018-11-26T03:57:59Z</time>
      </trkpt>
      <trkpt lat="42.39313" lon="2.67245">
        <ele>968.5</ele>
        <time>2018-11-26T03:57:59Z</time>
      </trkpt>
      <trkpt lat="42.39313" lon="2.67245">
        <ele>968.6</ele>
        <time>2018-11-26T03:57:59Z</time>
      </trkpt>
      <trkpt lat="42.39313" lon="2.67245">
        <ele>968.7</ele>
        <time>2018-11-26T03:57:59Z</time>
      </trkpt>
      <trkpt lat="42.39313" lon="2.67245">
        <ele>968.9</ele>
        <time>2018-11-26T03:57:59Z</time>
      </trkpt>
      <trkpt lat="42.39313" lon="2.67245">
        <ele>968.9</ele>
        <time>2018-11-26T03:57:59Z</time>
      </trkpt>
      <trkpt lat="42.39313" lon="2.67245">
        <ele>969</ele>
        <time>2018-11-26T03:57:59Z</time>
      </trkpt>
      <trkpt lat="42.39313" lon="2.67245">
        <ele>969.1</ele>
        <time>2018-11-26T03:57:59Z</time>
      </trkpt>
      <trkpt lat="42.39313" lon="2.67245">
        <ele>969</ele>
        <time>2018-11-26T03:57:59Z</time>
      </trkpt>
      <trkpt lat="42.39313" lon="2.67246">
        <ele>968.7</ele>
        <time>2018-11-26T03:57:59Z</time>
      </trkpt>
      <trkpt lat="42.39313" lon="2.67246">
        <ele>968.5</ele>
        <time>2018-11-26T03:58:00Z</time>
      </trkpt>
      <trkpt lat="42.39313" lon="2.67246">
        <ele>968.4</ele>
        <time>2018-11-26T03:58:00Z</time>
      </trkpt>
      <trkpt lat="42.39313" lon="2.67246">
        <ele>968.2</ele>
        <time>2018-11-26T03:58:00Z</time>
      </trkpt>
      <trkpt lat="42.39313" lon="2.67246">
        <ele>967.9</ele>
        <time>2018-11-26T03:58:00Z</time>
      </trkpt>
      <trkpt lat="42.39313" lon="2.67246">
        <ele>968</ele>
        <time>2018-11-26T03:58:00Z</time>
      </trkpt>
      <trkpt lat="42.39313" lon="2.67246">
        <ele>968.2</ele>
        <time>2018-11-26T03:58:00Z</time>
      </trkpt>
      <trkpt lat="42.39313" lon="2.67246">
        <ele>968.4</ele>
        <time>2018-11-26T03:58:00Z</time>
      </trkpt>
      <trkpt lat="42.39313" lon="2.67246">
        <ele>968.2</ele>
        <time>2018-11-26T03:58:00Z</time>
      </trkpt>
      <trkpt lat="42.39313" lon="2.67246">
        <ele>968.1</ele>
        <time>2018-11-26T03:58:00Z</time>
      </trkpt>
      <trkpt lat="42.39313" lon="2.67246">
        <ele>967.8</ele>
        <time>2018-11-26T03:58:00Z</time>
      </trkpt>
      <trkpt lat="42.39313" lon="2.67246">
        <ele>967.3</ele>
        <time>2018-11-26T03:58:00Z</time>
      </trkpt>
      <trkpt lat="42.39313" lon="2.67246">
        <ele>967.4</ele>
        <time>2018-11-26T03:58:00Z</time>
      </trkpt>
      <trkpt lat="42.39313" lon="2.67247">
        <ele>967.4</ele>
        <time>2018-11-26T03:58:00Z</time>
      </trkpt>
      <trkpt lat="42.39313" lon="2.67246">
        <ele>967.6</ele>
        <time>2018-11-26T03:58:00Z</time>
      </trkpt>
      <trkpt lat="42.39313" lon="2.67247">
        <ele>967.5</ele>
        <time>2018-11-26T03:58:00Z</time>
      </trkpt>
      <trkpt lat="42.39313" lon="2.67247">
        <ele>967.5</ele>
        <time>2018-11-26T03:58:00Z</time>
      </trkpt>
      <trkpt lat="42.39313" lon="2.67246">
        <ele>967.2</ele>
        <time>2018-11-26T03:58:00Z</time>
      </trkpt>
      <trkpt lat="42.39313" lon="2.67246">
        <ele>967</ele>
        <time>2018-11-26T03:58:00Z</time>
      </trkpt>
      <trkpt lat="42.39314" lon="2.67246">
        <ele>966.8</ele>
        <time>2018-11-26T03:58:01Z</time>
      </trkpt>
      <trkpt lat="42.39315" lon="2.67246">
        <ele>966.3</ele>
        <time>2018-11-26T03:58:01Z</time>
      </trkpt>
      <trkpt lat="42.39317" lon="2.67246">
        <ele>966.6</ele>
        <time>2018-11-26T03:58:02Z</time>
      </trkpt>
      <trkpt lat="42.39318" lon="2.67246">
        <ele>966.7</ele>
        <time>2018-11-26T03:58:02Z</time>
      </trkpt>
      <trkpt lat="42.39318" lon="2.67246">
        <ele>966.6</ele>
        <time>2018-11-26T03:58:02Z</time>
      </trkpt>
      <trkpt lat="42.39319" lon="2.67246">
        <ele>966.4</ele>
        <time>2018-11-26T03:58:03Z</time>
      </trkpt>
      <trkpt lat="42.3932" lon="2.67247">
        <ele>966.4</ele>
        <time>2018-11-26T03:58:03Z</time>
      </trkpt>
      <trkpt lat="42.39321" lon="2.67247">
        <ele>966.2</ele>
        <time>2018-11-26T03:58:03Z</time>
      </trkpt>
      <trkpt lat="42.39321" lon="2.67247">
        <ele>965.9</ele>
        <time>2018-11-26T03:58:04Z</time>
      </trkpt>
      <trkpt lat="42.39321" lon="2.67247">
        <ele>965.6</ele>
        <time>2018-11-26T03:58:04Z</time>
      </trkpt>
      <trkpt lat="42.39321" lon="2.67247">
        <ele>965.2</ele>
        <time>2018-11-26T03:58:04Z</time>
      </trkpt>
      <trkpt lat="42.39321" lon="2.67248">
        <ele>965.4</ele>
        <time>2018-11-26T03:58:04Z</time>
      </trkpt>
      <trkpt lat="42.39322" lon="2.67248">
        <ele>965.4</ele>
        <time>2018-11-26T03:58:04Z</time>
      </trkpt>
      <trkpt lat="42.39323" lon="2.67248">
        <ele>965.4</ele>
        <time>2018-11-26T03:58:04Z</time>
      </trkpt>
      <trkpt lat="42.39323" lon="2.67248">
        <ele>965.3</ele>
        <time>2018-11-26T03:58:04Z</time>
      </trkpt>
      <trkpt lat="42.39323" lon="2.67248">
        <ele>965.1</ele>
        <time>2018-11-26T03:58:04Z</time>
      </trkpt>
      <trkpt lat="42.39323" lon="2.67249">
        <ele>965.1</ele>
        <time>2018-11-26T03:58:05Z</time>
      </trkpt>
      <trkpt lat="42.39324" lon="2.67249">
        <ele>964.9</ele>
        <time>2018-11-26T03:58:05Z</time>
      </trkpt>
      <trkpt lat="42.39325" lon="2.67249">
        <ele>964.9</ele>
        <time>2018-11-26T03:58:05Z</time>
      </trkpt>
      <trkpt lat="42.39325" lon="2.6725">
        <ele>964.7</ele>
        <time>2018-11-26T03:58:06Z</time>
      </trkpt>
      <trkpt lat="42.39326" lon="2.6725">
        <ele>964.6</ele>
        <time>2018-11-26T03:58:06Z</time>
      </trkpt>
      <trkpt lat="42.39327" lon="2.67249">
        <ele>964.2</ele>
        <time>2018-11-26T03:58:06Z</time>
      </trkpt>
      <trkpt lat="42.39327" lon="2.6725">
        <ele>964.3</ele>
        <time>2018-11-26T03:58:06Z</time>
      </trkpt>
      <trkpt lat="42.39327" lon="2.6725">
        <ele>964.2</ele>
        <time>2018-11-26T03:58:06Z</time>
      </trkpt>
      <trkpt lat="42.39327" lon="2.6725">
        <ele>964.2</ele>
        <time>2018-11-26T03:58:06Z</time>
      </trkpt>
      <trkpt lat="42.39327" lon="2.6725">
        <ele>964.3</ele>
        <time>2018-11-26T03:58:06Z</time>
      </trkpt>
      <trkpt lat="42.39327" lon="2.6725">
        <ele>964.3</ele>
        <time>2018-11-26T03:58:06Z</time>
      </trkpt>
      <trkpt lat="42.39327" lon="2.6725">
        <ele>964.1</ele>
        <time>2018-11-26T03:58:06Z</time>
      </trkpt>
      <trkpt lat="42.39327" lon="2.6725">
        <ele>964</ele>
        <time>2018-11-26T03:58:06Z</time>
      </trkpt>
      <trkpt lat="42.39327" lon="2.6725">
        <ele>964</ele>
        <time>2018-11-26T03:58:06Z</time>
      </trkpt>
      <trkpt lat="42.39327" lon="2.6725">
        <ele>964</ele>
        <time>2018-11-26T03:58:07Z</time>
      </trkpt>
      <trkpt lat="42.39327" lon="2.6725">
        <ele>964</ele>
        <time>2018-11-26T03:58:07Z</time>
      </trkpt>
      <trkpt lat="42.39327" lon="2.6725">
        <ele>964.1</ele>
        <time>2018-11-26T03:58:07Z</time>
      </trkpt>
      <trkpt lat="42.39327" lon="2.67251">
        <ele>964.2</ele>
        <time>2018-11-26T03:58:07Z</time>
      </trkpt>
      <trkpt lat="42.39328" lon="2.67251">
        <ele>964.4</ele>
        <time>2018-11-26T03:58:07Z</time>
      </trkpt>
      <trkpt lat="42.3934" lon="2.67254">
        <ele>963.9</ele>
        <time>2018-11-26T03:58:12Z</time>
      </trkpt>
      <trkpt lat="42.39342" lon="2.67255">
        <ele>963.6</ele>
        <time>2018-11-26T03:58:13Z</time>
      </trkpt>
      <trkpt lat="42.39343" lon="2.67256">
        <ele>963.8</ele>
        <time>2018-11-26T03:58:14Z</time>
      </trkpt>
      <trkpt lat="42.39344" lon="2.67257">
        <ele>964</ele>
        <time>2018-11-26T03:58:14Z</time>
      </trkpt>
      <trkpt lat="42.39345" lon="2.67257">
        <ele>964.3</ele>
        <time>2018-11-26T03:58:14Z</time>
      </trkpt>
      <trkpt lat="42.39347" lon="2.67256">
        <ele>964.1</ele>
        <time>2018-11-26T03:58:15Z</time>
      </trkpt>
      <trkpt lat="42.39348" lon="2.67256">
        <ele>963.9</ele>
        <time>2018-11-26T03:58:15Z</time>
      </trkpt>
      <trkpt lat="42.39349" lon="2.67256">
        <ele>963.8</ele>
        <time>2018-11-26T03:58:16Z</time>
      </trkpt>
      <trkpt lat="42.3935" lon="2.67256">
        <ele>963.4</ele>
        <time>2018-11-26T03:58:16Z</time>
      </trkpt>
      <trkpt lat="42.39353" lon="2.67256">
        <ele>962.9</ele>
        <time>2018-11-26T03:58:18Z</time>
      </trkpt>
      <trkpt lat="42.39354" lon="2.67256">
        <ele>962.9</ele>
        <time>2018-11-26T03:58:18Z</time>
      </trkpt>
      <trkpt lat="42.39357" lon="2.67258">
        <ele>962.7</ele>
        <time>2018-11-26T03:58:19Z</time>
      </trkpt>
      <trkpt lat="42.39358" lon="2.67259">
        <ele>962.9</ele>
        <time>2018-11-26T03:58:20Z</time>
      </trkpt>
      <trkpt lat="42.39359" lon="2.6726">
        <ele>963.1</ele>
        <time>2018-11-26T03:58:20Z</time>
      </trkpt>
      <trkpt lat="42.3936" lon="2.67261">
        <ele>963.5</ele>
        <time>2018-11-26T03:58:21Z</time>
      </trkpt>
      <trkpt lat="42.39363" lon="2.67263">
        <ele>964.4</ele>
        <time>2018-11-26T03:58:22Z</time>
      </trkpt>
      <trkpt lat="42.39364" lon="2.67263">
        <ele>964.3</ele>
        <time>2018-11-26T03:58:22Z</time>
      </trkpt>
      <trkpt lat="42.39365" lon="2.67263">
        <ele>964.1</ele>
        <time>2018-11-26T03:58:23Z</time>
      </trkpt>
      <trkpt lat="42.39365" lon="2.67263">
        <ele>963.9</ele>
        <time>2018-11-26T03:58:23Z</time>
      </trkpt>
      <trkpt lat="42.39365" lon="2.67263">
        <ele>963.7</ele>
        <time>2018-11-26T03:58:23Z</time>
      </trkpt>
      <trkpt lat="42.39369" lon="2.67267">
        <ele>962.8</ele>
        <time>2018-11-26T03:58:25Z</time>
      </trkpt>
      <trkpt lat="42.3937" lon="2.67267">
        <ele>962.8</ele>
        <time>2018-11-26T03:58:25Z</time>
      </trkpt>
      <trkpt lat="42.39371" lon="2.67268">
        <ele>962.7</ele>
        <time>2018-11-26T03:58:26Z</time>
      </trkpt>
      <trkpt lat="42.39372" lon="2.67268">
        <ele>962.7</ele>
        <time>2018-11-26T03:58:26Z</time>
      </trkpt>
      <trkpt lat="42.39373" lon="2.67269">
        <ele>962.7</ele>
        <time>2018-11-26T03:58:27Z</time>
      </trkpt>
      <trkpt lat="42.39374" lon="2.67269">
        <ele>962.7</ele>
        <time>2018-11-26T03:58:27Z</time>
      </trkpt>
      <trkpt lat="42.39375" lon="2.6727">
        <ele>962.8</ele>
        <time>2018-11-26T03:58:28Z</time>
      </trkpt>
      <trkpt lat="42.39376" lon="2.6727">
        <ele>962.6</ele>
        <time>2018-11-26T03:58:28Z</time>
      </trkpt>
      <trkpt lat="42.39377" lon="2.6727">
        <ele>962.5</ele>
        <time>2018-11-26T03:58:28Z</time>
      </trkpt>
      <trkpt lat="42.39383" lon="2.67273">
        <ele>962.6</ele>
        <time>2018-11-26T03:58:31Z</time>
      </trkpt>
      <trkpt lat="42.39388" lon="2.67275">
        <ele>964</ele>
        <time>2018-11-26T03:58:33Z</time>
      </trkpt>
      <trkpt lat="42.3939" lon="2.67276">
        <ele>963.5</ele>
        <time>2018-11-26T03:58:34Z</time>
      </trkpt>
      <trkpt lat="42.39394" lon="2.67276">
        <ele>963.9</ele>
        <time>2018-11-26T03:58:35Z</time>
      </trkpt>
      <trkpt lat="42.39395" lon="2.67277">
        <ele>964.1</ele>
        <time>2018-11-26T03:58:36Z</time>
      </trkpt>
      <trkpt lat="42.39397" lon="2.67278">
        <ele>964.1</ele>
        <time>2018-11-26T03:58:37Z</time>
      </trkpt>
      <trkpt lat="42.39398" lon="2.67278">
        <ele>964.1</ele>
        <time>2018-11-26T03:58:37Z</time>
      </trkpt>
      <trkpt lat="42.39402" lon="2.6728">
        <ele>964.7</ele>
        <time>2018-11-26T03:58:39Z</time>
      </trkpt>
      <trkpt lat="42.39403" lon="2.6728">
        <ele>964.8</ele>
        <time>2018-11-26T03:58:39Z</time>
      </trkpt>
      <trkpt lat="42.39404" lon="2.67281">
        <ele>965</ele>
        <time>2018-11-26T03:58:39Z</time>
      </trkpt>
      <trkpt lat="42.39405" lon="2.67281">
        <ele>965.1</ele>
        <time>2018-11-26T03:58:40Z</time>
      </trkpt>
      <trkpt lat="42.39406" lon="2.67281">
        <ele>965.4</ele>
        <time>2018-11-26T03:58:40Z</time>
      </trkpt>
      <trkpt lat="42.39407" lon="2.67282">
        <ele>965.6</ele>
        <time>2018-11-26T03:58:41Z</time>
      </trkpt>
      <trkpt lat="42.39408" lon="2.67282">
        <ele>965.9</ele>
        <time>2018-11-26T03:58:41Z</time>
      </trkpt>
      <trkpt lat="42.39409" lon="2.67281">
        <ele>966.1</ele>
        <time>2018-11-26T03:58:41Z</time>
      </trkpt>
      <trkpt lat="42.3941" lon="2.67281">
        <ele>966</ele>
        <time>2018-11-26T03:58:42Z</time>
      </trkpt>
      <trkpt lat="42.3941" lon="2.67281">
        <ele>966</ele>
        <time>2018-11-26T03:58:42Z</time>
      </trkpt>
      <trkpt lat="42.39411" lon="2.6728">
        <ele>965.8</ele>
        <time>2018-11-26T03:58:42Z</time>
      </trkpt>
      <trkpt lat="42.39411" lon="2.6728">
        <ele>965.6</ele>
        <time>2018-11-26T03:58:43Z</time>
      </trkpt>
      <trkpt lat="42.39412" lon="2.67279">
        <ele>965.3</ele>
        <time>2018-11-26T03:58:43Z</time>
      </trkpt>
      <trkpt lat="42.39413" lon="2.67279">
        <ele>965</ele>
        <time>2018-11-26T03:58:43Z</time>
      </trkpt>
      <trkpt lat="42.39413" lon="2.67279">
        <ele>965</ele>
        <time>2018-11-26T03:58:44Z</time>
      </trkpt>
      <trkpt lat="42.39414" lon="2.67278">
        <ele>964.9</ele>
        <time>2018-11-26T03:58:44Z</time>
      </trkpt>
      <trkpt lat="42.39415" lon="2.67278">
        <ele>964.9</ele>
        <time>2018-11-26T03:58:44Z</time>
      </trkpt>
      <trkpt lat="42.39416" lon="2.67278">
        <ele>964.9</ele>
        <time>2018-11-26T03:58:44Z</time>
      </trkpt>
      <trkpt lat="42.39417" lon="2.67278">
        <ele>965</ele>
        <time>2018-11-26T03:58:45Z</time>
      </trkpt>
      <trkpt lat="42.39421" lon="2.67279">
        <ele>965</ele>
        <time>2018-11-26T03:58:46Z</time>
      </trkpt>
      <trkpt lat="42.39422" lon="2.67279">
        <ele>965.1</ele>
        <time>2018-11-26T03:58:47Z</time>
      </trkpt>
      <trkpt lat="42.39426" lon="2.67283">
        <ele>964.5</ele>
        <time>2018-11-26T03:58:49Z</time>
      </trkpt>
      <trkpt lat="42.39427" lon="2.67283">
        <ele>964.3</ele>
        <time>2018-11-26T03:58:49Z</time>
      </trkpt>
      <trkpt lat="42.39428" lon="2.67284">
        <ele>964.4</ele>
        <time>2018-11-26T03:58:50Z</time>
      </trkpt>
      <trkpt lat="42.39429" lon="2.67284">
        <ele>964.4</ele>
        <time>2018-11-26T03:58:50Z</time>
      </trkpt>
      <trkpt lat="42.39429" lon="2.67284">
        <ele>964.5</ele>
        <time>2018-11-26T03:58:50Z</time>
      </trkpt>
      <trkpt lat="42.3943" lon="2.67285">
        <ele>964.4</ele>
        <time>2018-11-26T03:58:51Z</time>
      </trkpt>
      <trkpt lat="42.39431" lon="2.67286">
        <ele>964.3</ele>
        <time>2018-11-26T03:58:51Z</time>
      </trkpt>
      <trkpt lat="42.39432" lon="2.67287">
        <ele>964.1</ele>
        <time>2018-11-26T03:58:52Z</time>
      </trkpt>
      <trkpt lat="42.39434" lon="2.67288">
        <ele>964.1</ele>
        <time>2018-11-26T03:58:53Z</time>
      </trkpt>
      <trkpt lat="42.39435" lon="2.67289">
        <ele>964.2</ele>
        <time>2018-11-26T03:58:53Z</time>
      </trkpt>
      <trkpt lat="42.39439" lon="2.6729">
        <ele>964.7</ele>
        <time>2018-11-26T03:58:55Z</time>
      </trkpt>
      <trkpt lat="42.39441" lon="2.6729">
        <ele>964.9</ele>
        <time>2018-11-26T03:58:55Z</time>
      </trkpt>
      <trkpt lat="42.39442" lon="2.6729">
        <ele>964.9</ele>
        <time>2018-11-26T03:58:56Z</time>
      </trkpt>
      <trkpt lat="42.39448" lon="2.67287">
        <ele>965.1</ele>
        <time>2018-11-26T03:58:58Z</time>
      </trkpt>
      <trkpt lat="42.39449" lon="2.67286">
        <ele>965</ele>
        <time>2018-11-26T03:58:59Z</time>
      </trkpt>
      <trkpt lat="42.3945" lon="2.67286">
        <ele>965</ele>
        <time>2018-11-26T03:58:59Z</time>
      </trkpt>
      <trkpt lat="42.3945" lon="2.67286">
        <ele>964.9</ele>
        <time>2018-11-26T03:58:59Z</time>
      </trkpt>
      <trkpt lat="42.39453" lon="2.67285">
        <ele>964.9</ele>
        <time>2018-11-26T03:59:00Z</time>
      </trkpt>
      <trkpt lat="42.39454" lon="2.67285">
        <ele>964.9</ele>
        <time>2018-11-26T03:59:01Z</time>
      </trkpt>
      <trkpt lat="42.39455" lon="2.67284">
        <ele>965.1</ele>
        <time>2018-11-26T03:59:01Z</time>
      </trkpt>
      <trkpt lat="42.39456" lon="2.67283">
        <ele>965.1</ele>
        <time>2018-11-26T03:59:02Z</time>
      </trkpt>
      <trkpt lat="42.39457" lon="2.67283">
        <ele>965.2</ele>
        <time>2018-11-26T03:59:02Z</time>
      </trkpt>
      <trkpt lat="42.39468" lon="2.67281">
        <ele>966.3</ele>
        <time>2018-11-26T03:59:07Z</time>
      </trkpt>
      <trkpt lat="42.39469" lon="2.6728">
        <ele>966.7</ele>
        <time>2018-11-26T03:59:07Z</time>
      </trkpt>
      <trkpt lat="42.39477" lon="2.67279">
        <ele>967.8</ele>
        <time>2018-11-26T03:59:10Z</time>
      </trkpt>
      <trkpt lat="42.39481" lon="2.67278">
        <ele>968.7</ele>
        <time>2018-11-26T03:59:12Z</time>
      </trkpt>
      <trkpt lat="42.39482" lon="2.67278">
        <ele>968.7</ele>
        <time>2018-11-26T03:59:12Z</time>
      </trkpt>
      <trkpt lat="42.39483" lon="2.67279">
        <ele>968.6</ele>
        <time>2018-11-26T03:59:13Z</time>
      </trkpt>
      <trkpt lat="42.39488" lon="2.67278">
        <ele>969.1</ele>
        <time>2018-11-26T03:59:15Z</time>
      </trkpt>
      <trkpt lat="42.39488" lon="2.67277">
        <ele>969.4</ele>
        <time>2018-11-26T03:59:15Z</time>
      </trkpt>
      <trkpt lat="42.39489" lon="2.67278">
        <ele>969.4</ele>
        <time>2018-11-26T03:59:15Z</time>
      </trkpt>
      <trkpt lat="42.3949" lon="2.67278">
        <ele>969.3</ele>
        <time>2018-11-26T03:59:15Z</time>
      </trkpt>
      <trkpt lat="42.3949" lon="2.67278">
        <ele>969.4</ele>
        <time>2018-11-26T03:59:16Z</time>
      </trkpt>
      <trkpt lat="42.39492" lon="2.67278">
        <ele>969.6</ele>
        <time>2018-11-26T03:59:16Z</time>
      </trkpt>
      <trkpt lat="42.39494" lon="2.67278">
        <ele>970</ele>
        <time>2018-11-26T03:59:17Z</time>
      </trkpt>
      <trkpt lat="42.39494" lon="2.67278">
        <ele>970.1</ele>
        <time>2018-11-26T03:59:17Z</time>
      </trkpt>
      <trkpt lat="42.39495" lon="2.67278">
        <ele>970.1</ele>
        <time>2018-11-26T03:59:18Z</time>
      </trkpt>
      <trkpt lat="42.39496" lon="2.67278">
        <ele>970.2</ele>
        <time>2018-11-26T03:59:18Z</time>
      </trkpt>
      <trkpt lat="42.39497" lon="2.67278">
        <ele>970.1</ele>
        <time>2018-11-26T03:59:18Z</time>
      </trkpt>
      <trkpt lat="42.39498" lon="2.67278">
        <ele>969.8</ele>
        <time>2018-11-26T03:59:19Z</time>
      </trkpt>
      <trkpt lat="42.39499" lon="2.67278">
        <ele>969.3</ele>
        <time>2018-11-26T03:59:19Z</time>
      </trkpt>
      <trkpt lat="42.39505" lon="2.67278">
        <ele>968.9</ele>
        <time>2018-11-26T03:59:22Z</time>
      </trkpt>
      <trkpt lat="42.39507" lon="2.67278">
        <ele>968.8</ele>
        <time>2018-11-26T03:59:23Z</time>
      </trkpt>
      <trkpt lat="42.39508" lon="2.67278">
        <ele>968.6</ele>
        <time>2018-11-26T03:59:23Z</time>
      </trkpt>
      <trkpt lat="42.3951" lon="2.67278">
        <ele>968.6</ele>
        <time>2018-11-26T03:59:24Z</time>
      </trkpt>
      <trkpt lat="42.39512" lon="2.67279">
        <ele>968.3</ele>
        <time>2018-11-26T03:59:24Z</time>
      </trkpt>
      <trkpt lat="42.39515" lon="2.67279">
        <ele>967.7</ele>
        <time>2018-11-26T03:59:26Z</time>
      </trkpt>
      <trkpt lat="42.39516" lon="2.6728">
        <ele>967.2</ele>
        <time>2018-11-26T03:59:26Z</time>
      </trkpt>
      <trkpt lat="42.39521" lon="2.6728">
        <ele>967.1</ele>
        <time>2018-11-26T03:59:28Z</time>
      </trkpt>
      <trkpt lat="42.39522" lon="2.6728">
        <ele>967.2</ele>
        <time>2018-11-26T03:59:29Z</time>
      </trkpt>
      <trkpt lat="42.39524" lon="2.67281">
        <ele>967.6</ele>
        <time>2018-11-26T03:59:29Z</time>
      </trkpt>
      <trkpt lat="42.39525" lon="2.67282">
        <ele>967.4</ele>
        <time>2018-11-26T03:59:30Z</time>
      </trkpt>
      <trkpt lat="42.39526" lon="2.67282">
        <ele>967.2</ele>
        <time>2018-11-26T03:59:30Z</time>
      </trkpt>
      <trkpt lat="42.39526" lon="2.67281">
        <ele>966.8</ele>
        <time>2018-11-26T03:59:30Z</time>
      </trkpt>
      <trkpt lat="42.39527" lon="2.67281">
        <ele>966.4</ele>
        <time>2018-11-26T03:59:30Z</time>
      </trkpt>
      <trkpt lat="42.39527" lon="2.67281">
        <ele>965.9</ele>
        <time>2018-11-26T03:59:31Z</time>
      </trkpt>
      <trkpt lat="42.3953" lon="2.67282">
        <ele>965.3</ele>
        <time>2018-11-26T03:59:32Z</time>
      </trkpt>
      <trkpt lat="42.39531" lon="2.67282">
        <ele>965.5</ele>
        <time>2018-11-26T03:59:32Z</time>
      </trkpt>
      <trkpt lat="42.3956" lon="2.67287">
        <ele>963.9</ele>
        <time>2018-11-26T03:59:44Z</time>
      </trkpt>
      <trkpt lat="42.39562" lon="2.67287">
        <ele>963.8</ele>
        <time>2018-11-26T03:59:45Z</time>
      </trkpt>
      <trkpt lat="42.39564" lon="2.67287">
        <ele>963.5</ele>
        <time>2018-11-26T03:59:46Z</time>
      </trkpt>
      <trkpt lat="42.39566" lon="2.67287">
        <ele>963.3</ele>
        <time>2018-11-26T03:59:46Z</time>
      </trkpt>
      <trkpt lat="42.39569" lon="2.67288">
        <ele>963.1</ele>
        <time>2018-11-26T03:59:48Z</time>
      </trkpt>
      <trkpt lat="42.3957" lon="2.67289">
        <ele>963.1</ele>
        <time>2018-11-26T03:59:48Z</time>
      </trkpt>
      <trkpt lat="42.39578" lon="2.6729">
        <ele>962.7</ele>
        <time>2018-11-26T03:59:51Z</time>
      </trkpt>
      <trkpt lat="42.39582" lon="2.67291">
        <ele>961.7</ele>
        <time>2018-11-26T03:59:53Z</time>
      </trkpt>
      <trkpt lat="42.39585" lon="2.67291">
        <ele>961.7</ele>
        <time>2018-11-26T03:59:54Z</time>
      </trkpt>
      <trkpt lat="42.39586" lon="2.67292">
        <ele>961.7</ele>
        <time>2018-11-26T03:59:55Z</time>
      </trkpt>
      <trkpt lat="42.39587" lon="2.67292">
        <ele>961.8</ele>
        <time>2018-11-26T03:59:55Z</time>
      </trkpt>
      <trkpt lat="42.39588" lon="2.67292">
        <ele>961.9</ele>
        <time>2018-11-26T03:59:55Z</time>
      </trkpt>
      <trkpt lat="42.39589" lon="2.67292">
        <ele>961.9</ele>
        <time>2018-11-26T03:59:56Z</time>
      </trkpt>
      <trkpt lat="42.3959" lon="2.67292">
        <ele>962.1</ele>
        <time>2018-11-26T03:59:56Z</time>
      </trkpt>
      <trkpt lat="42.39591" lon="2.67293">
        <ele>962.2</ele>
        <time>2018-11-26T03:59:57Z</time>
      </trkpt>
      <trkpt lat="42.39592" lon="2.67293">
        <ele>962.1</ele>
        <time>2018-11-26T03:59:57Z</time>
      </trkpt>
      <trkpt lat="42.39593" lon="2.67293">
        <ele>961.7</ele>
        <time>2018-11-26T03:59:57Z</time>
      </trkpt>
      <trkpt lat="42.39594" lon="2.67293">
        <ele>961.3</ele>
        <time>2018-11-26T03:59:58Z</time>
      </trkpt>
      <trkpt lat="42.39595" lon="2.67293">
        <ele>961.3</ele>
        <time>2018-11-26T03:59:58Z</time>
      </trkpt>
      <trkpt lat="42.39596" lon="2.67293">
        <ele>961.3</ele>
        <time>2018-11-26T03:59:58Z</time>
      </trkpt>
      <trkpt lat="42.39597" lon="2.67293">
        <ele>961.3</ele>
        <time>2018-11-26T03:59:59Z</time>
      </trkpt>
      <trkpt lat="42.39597" lon="2.67293">
        <ele>961.3</ele>
        <time>2018-11-26T03:59:59Z</time>
      </trkpt>
      <trkpt lat="42.39598" lon="2.67293">
        <ele>961</ele>
        <time>2018-11-26T03:59:59Z</time>
      </trkpt>
      <trkpt lat="42.39598" lon="2.67293">
        <ele>960.7</ele>
        <time>2018-11-26T03:59:59Z</time>
      </trkpt>
      <trkpt lat="42.39599" lon="2.67293">
        <ele>960.6</ele>
        <time>2018-11-26T04:00:00Z</time>
      </trkpt>
      <trkpt lat="42.396" lon="2.67294">
        <ele>960.6</ele>
        <time>2018-11-26T04:00:00Z</time>
      </trkpt>
      <trkpt lat="42.39601" lon="2.67294">
        <ele>960.5</ele>
        <time>2018-11-26T04:00:00Z</time>
      </trkpt>
      <trkpt lat="42.39602" lon="2.67294">
        <ele>960.5</ele>
        <time>2018-11-26T04:00:01Z</time>
      </trkpt>
      <trkpt lat="42.39603" lon="2.67294">
        <ele>960.4</ele>
        <time>2018-11-26T04:00:02Z</time>
      </trkpt>
      <trkpt lat="42.39604" lon="2.67294">
        <ele>960.4</ele>
        <time>2018-11-26T04:00:02Z</time>
      </trkpt>
      <trkpt lat="42.39606" lon="2.67294">
        <ele>960.1</ele>
        <time>2018-11-26T04:00:03Z</time>
      </trkpt>
      <trkpt lat="42.39608" lon="2.67294">
        <ele>959.7</ele>
        <time>2018-11-26T04:00:04Z</time>
      </trkpt>
      <trkpt lat="42.39609" lon="2.67294">
        <ele>959.5</ele>
        <time>2018-11-26T04:00:04Z</time>
      </trkpt>
      <trkpt lat="42.3961" lon="2.67293">
        <ele>959.3</ele>
        <time>2018-11-26T04:00:04Z</time>
      </trkpt>
      <trkpt lat="42.39611" lon="2.67293">
        <ele>959.4</ele>
        <time>2018-11-26T04:00:05Z</time>
      </trkpt>
      <trkpt lat="42.39612" lon="2.67293">
        <ele>959.3</ele>
        <time>2018-11-26T04:00:05Z</time>
      </trkpt>
      <trkpt lat="42.39613" lon="2.67293">
        <ele>959.1</ele>
        <time>2018-11-26T04:00:05Z</time>
      </trkpt>
      <trkpt lat="42.39613" lon="2.67294">
        <ele>958.9</ele>
        <time>2018-11-26T04:00:06Z</time>
      </trkpt>
      <trkpt lat="42.39614" lon="2.67294">
        <ele>958.6</ele>
        <time>2018-11-26T04:00:06Z</time>
      </trkpt>
      <trkpt lat="42.39615" lon="2.67294">
        <ele>958.6</ele>
        <time>2018-11-26T04:00:06Z</time>
      </trkpt>
      <trkpt lat="42.39616" lon="2.67294">
        <ele>958.7</ele>
        <time>2018-11-26T04:00:07Z</time>
      </trkpt>
      <trkpt lat="42.39617" lon="2.67294">
        <ele>958.8</ele>
        <time>2018-11-26T04:00:07Z</time>
      </trkpt>
      <trkpt lat="42.39618" lon="2.67294">
        <ele>958.8</ele>
        <time>2018-11-26T04:00:07Z</time>
      </trkpt>
      <trkpt lat="42.39618" lon="2.67295">
        <ele>958.8</ele>
        <time>2018-11-26T04:00:08Z</time>
      </trkpt>
      <trkpt lat="42.39619" lon="2.67294">
        <ele>958.6</ele>
        <time>2018-11-26T04:00:08Z</time>
      </trkpt>
      <trkpt lat="42.39619" lon="2.67294">
        <ele>958.5</ele>
        <time>2018-11-26T04:00:08Z</time>
      </trkpt>
      <trkpt lat="42.39619" lon="2.67294">
        <ele>958.6</ele>
        <time>2018-11-26T04:00:08Z</time>
      </trkpt>
      <trkpt lat="42.39619" lon="2.67294">
        <ele>958.6</ele>
        <time>2018-11-26T04:00:08Z</time>
      </trkpt>
      <trkpt lat="42.3962" lon="2.67294">
        <ele>958.8</ele>
        <time>2018-11-26T04:00:08Z</time>
      </trkpt>
      <trkpt lat="42.39621" lon="2.67295">
        <ele>958.7</ele>
        <time>2018-11-26T04:00:09Z</time>
      </trkpt>
      <trkpt lat="42.39628" lon="2.67296">
        <ele>958.4</ele>
        <time>2018-11-26T04:00:12Z</time>
      </trkpt>
      <trkpt lat="42.39629" lon="2.67296">
        <ele>958.4</ele>
        <time>2018-11-26T04:00:12Z</time>
      </trkpt>
      <trkpt lat="42.39634" lon="2.67298">
        <ele>958.8</ele>
        <time>2018-11-26T04:00:14Z</time>
      </trkpt>
      <trkpt lat="42.39639" lon="2.673">
        <ele>958.1</ele>
        <time>2018-11-26T04:00:16Z</time>
      </trkpt>
      <trkpt lat="42.3964" lon="2.673">
        <ele>957.9</ele>
        <time>2018-11-26T04:00:17Z</time>
      </trkpt>
      <trkpt lat="42.39651" lon="2.67308">
        <ele>956.8</ele>
        <time>2018-11-26T04:00:22Z</time>
      </trkpt>
      <trkpt lat="42.39652" lon="2.67309">
        <ele>956.3</ele>
        <time>2018-11-26T04:00:22Z</time>
      </trkpt>
      <trkpt lat="42.39655" lon="2.67312">
        <ele>956.9</ele>
        <time>2018-11-26T04:00:24Z</time>
      </trkpt>
      <trkpt lat="42.39656" lon="2.67313">
        <ele>956.6</ele>
        <time>2018-11-26T04:00:24Z</time>
      </trkpt>
      <trkpt lat="42.39658" lon="2.67317">
        <ele>955.7</ele>
        <time>2018-11-26T04:00:25Z</time>
      </trkpt>
      <trkpt lat="42.39658" lon="2.67318">
        <ele>955.8</ele>
        <time>2018-11-26T04:00:26Z</time>
      </trkpt>
      <trkpt lat="42.39659" lon="2.67319">
        <ele>955.7</ele>
        <time>2018-11-26T04:00:26Z</time>
      </trkpt>
      <trkpt lat="42.39669" lon="2.67327">
        <ele>957</ele>
        <time>2018-11-26T04:00:31Z</time>
      </trkpt>
      <trkpt lat="42.3967" lon="2.67328">
        <ele>956.8</ele>
        <time>2018-11-26T04:00:31Z</time>
      </trkpt>
      <trkpt lat="42.39671" lon="2.67328">
        <ele>956.6</ele>
        <time>2018-11-26T04:00:32Z</time>
      </trkpt>
      <trkpt lat="42.39674" lon="2.67329">
        <ele>956.6</ele>
        <time>2018-11-26T04:00:33Z</time>
      </trkpt>
      <trkpt lat="42.39679" lon="2.67331">
        <ele>955.7</ele>
        <time>2018-11-26T04:00:35Z</time>
      </trkpt>
      <trkpt lat="42.39691" lon="2.67333">
        <ele>957.1</ele>
        <time>2018-11-26T04:00:40Z</time>
      </trkpt>
      <trkpt lat="42.39693" lon="2.67333">
        <ele>957.2</ele>
        <time>2018-11-26T04:00:41Z</time>
      </trkpt>
      <trkpt lat="42.39694" lon="2.67333">
        <ele>957.2</ele>
        <time>2018-11-26T04:00:41Z</time>
      </trkpt>
      <trkpt lat="42.39695" lon="2.67334">
        <ele>957.3</ele>
        <time>2018-11-26T04:00:42Z</time>
      </trkpt>
      <trkpt lat="42.39697" lon="2.67334">
        <ele>957.3</ele>
        <time>2018-11-26T04:00:42Z</time>
      </trkpt>
      <trkpt lat="42.39712" lon="2.67337">
        <ele>956.8</ele>
        <time>2018-11-26T04:00:48Z</time>
      </trkpt>
      <trkpt lat="42.39723" lon="2.6734">
        <ele>957</ele>
        <time>2018-11-26T04:00:53Z</time>
      </trkpt>
      <trkpt lat="42.39734" lon="2.67345">
        <ele>956.5</ele>
        <time>2018-11-26T04:00:57Z</time>
      </trkpt>
      <trkpt lat="42.39739" lon="2.67346">
        <ele>956</ele>
        <time>2018-11-26T04:01:00Z</time>
      </trkpt>
      <trkpt lat="42.39746" lon="2.67348">
        <ele>956.2</ele>
        <time>2018-11-26T04:01:03Z</time>
      </trkpt>
      <trkpt lat="42.39753" lon="2.67348">
        <ele>956.1</ele>
        <time>2018-11-26T04:01:05Z</time>
      </trkpt>
      <trkpt lat="42.39755" lon="2.67348">
        <ele>955.9</ele>
        <time>2018-11-26T04:01:06Z</time>
      </trkpt>
      <trkpt lat="42.39758" lon="2.67347">
        <ele>955.3</ele>
        <time>2018-11-26T04:01:08Z</time>
      </trkpt>
      <trkpt lat="42.39767" lon="2.67345">
        <ele>954.6</ele>
        <time>2018-11-26T04:01:11Z</time>
      </trkpt>
      <trkpt lat="42.39778" lon="2.67341">
        <ele>954</ele>
        <time>2018-11-26T04:01:16Z</time>
      </trkpt>
      <trkpt lat="42.39783" lon="2.67339">
        <ele>952.6</ele>
        <time>2018-11-26T04:01:18Z</time>
      </trkpt>
      <trkpt lat="42.39787" lon="2.67337">
        <ele>953.6</ele>
        <time>2018-11-26T04:01:19Z</time>
      </trkpt>
      <trkpt lat="42.39788" lon="2.67336">
        <ele>953.3</ele>
        <time>2018-11-26T04:01:20Z</time>
      </trkpt>
      <trkpt lat="42.3979" lon="2.67334">
        <ele>953.1</ele>
        <time>2018-11-26T04:01:21Z</time>
      </trkpt>
      <trkpt lat="42.39791" lon="2.67333">
        <ele>952.9</ele>
        <time>2018-11-26T04:01:21Z</time>
      </trkpt>
      <trkpt lat="42.39801" lon="2.67324">
        <ele>951.6</ele>
        <time>2018-11-26T04:01:26Z</time>
      </trkpt>
      <trkpt lat="42.39811" lon="2.67316">
        <ele>950.9</ele>
        <time>2018-11-26T04:01:31Z</time>
      </trkpt>
      <trkpt lat="42.39812" lon="2.67315">
        <ele>951.2</ele>
        <time>2018-11-26T04:01:32Z</time>
      </trkpt>
      <trkpt lat="42.39817" lon="2.67313">
        <ele>951.7</ele>
        <time>2018-11-26T04:01:33Z</time>
      </trkpt>
      <trkpt lat="42.39818" lon="2.67313">
        <ele>951.6</ele>
        <time>2018-11-26T04:01:34Z</time>
      </trkpt>
      <trkpt lat="42.39826" lon="2.67312">
        <ele>951.3</ele>
        <time>2018-11-26T04:01:37Z</time>
      </trkpt>
      <trkpt lat="42.39828" lon="2.67312">
        <ele>951.2</ele>
        <time>2018-11-26T04:01:38Z</time>
      </trkpt>
      <trkpt lat="42.39829" lon="2.67312">
        <ele>951.2</ele>
        <time>2018-11-26T04:01:38Z</time>
      </trkpt>
      <trkpt lat="42.39829" lon="2.67312">
        <ele>951.3</ele>
        <time>2018-11-26T04:01:38Z</time>
      </trkpt>
      <trkpt lat="42.3983" lon="2.67312">
        <ele>951.4</ele>
        <time>2018-11-26T04:01:39Z</time>
      </trkpt>
      <trkpt lat="42.39836" lon="2.67313">
        <ele>951.9</ele>
        <time>2018-11-26T04:01:41Z</time>
      </trkpt>
      <trkpt lat="42.39839" lon="2.67313">
        <ele>952</ele>
        <time>2018-11-26T04:01:42Z</time>
      </trkpt>
      <trkpt lat="42.39848" lon="2.67315">
        <ele>953.9</ele>
        <time>2018-11-26T04:01:46Z</time>
      </trkpt>
      <trkpt lat="42.3985" lon="2.67316">
        <ele>954</ele>
        <time>2018-11-26T04:01:47Z</time>
      </trkpt>
      <trkpt lat="42.39872" lon="2.67325">
        <ele>957.7</ele>
        <time>2018-11-26T04:01:56Z</time>
      </trkpt>
      <trkpt lat="42.3988" lon="2.67329">
        <ele>959</ele>
        <time>2018-11-26T04:01:59Z</time>
      </trkpt>
      <trkpt lat="42.39881" lon="2.6733">
        <ele>959.5</ele>
        <time>2018-11-26T04:02:00Z</time>
      </trkpt>
      <trkpt lat="42.39885" lon="2.67333">
        <ele>960.5</ele>
        <time>2018-11-26T04:02:02Z</time>
      </trkpt>
      <trkpt lat="42.39888" lon="2.67336">
        <ele>960.3</ele>
        <time>2018-11-26T04:02:03Z</time>
      </trkpt>
      <trkpt lat="42.39892" lon="2.67339">
        <ele>960.2</ele>
        <time>2018-11-26T04:02:05Z</time>
      </trkpt>
      <trkpt lat="42.39894" lon="2.6734">
        <ele>960.1</ele>
        <time>2018-11-26T04:02:06Z</time>
      </trkpt>
      <trkpt lat="42.39895" lon="2.67341">
        <ele>960.1</ele>
        <time>2018-11-26T04:02:06Z</time>
      </trkpt>
      <trkpt lat="42.39896" lon="2.6734">
        <ele>960.2</ele>
        <time>2018-11-26T04:02:07Z</time>
      </trkpt>
      <trkpt lat="42.39896" lon="2.67341">
        <ele>960.2</ele>
        <time>2018-11-26T04:02:07Z</time>
      </trkpt>
      <trkpt lat="42.39896" lon="2.67341">
        <ele>960.3</ele>
        <time>2018-11-26T04:02:07Z</time>
      </trkpt>
      <trkpt lat="42.39896" lon="2.67341">
        <ele>961.1</ele>
        <time>2018-11-26T04:02:07Z</time>
      </trkpt>
      <trkpt lat="42.39897" lon="2.67341">
        <ele>960.9</ele>
        <time>2018-11-26T04:02:07Z</time>
      </trkpt>
      <trkpt lat="42.39897" lon="2.67341">
        <ele>960.5</ele>
        <time>2018-11-26T04:02:07Z</time>
      </trkpt>
      <trkpt lat="42.39897" lon="2.67341">
        <ele>960.4</ele>
        <time>2018-11-26T04:02:07Z</time>
      </trkpt>
      <trkpt lat="42.39897" lon="2.67341">
        <ele>960.3</ele>
        <time>2018-11-26T04:02:07Z</time>
      </trkpt>
      <trkpt lat="42.39897" lon="2.67341">
        <ele>960.3</ele>
        <time>2018-11-26T04:02:07Z</time>
      </trkpt>
      <trkpt lat="42.39897" lon="2.6734">
        <ele>960.7</ele>
        <time>2018-11-26T04:02:08Z</time>
      </trkpt>
      <trkpt lat="42.39898" lon="2.67339">
        <ele>961.4</ele>
        <time>2018-11-26T04:02:08Z</time>
      </trkpt>
      <trkpt lat="42.39899" lon="2.67339">
        <ele>962.3</ele>
        <time>2018-11-26T04:02:08Z</time>
      </trkpt>
      <trkpt lat="42.39905" lon="2.6734">
        <ele>962.6</ele>
        <time>2018-11-26T04:02:11Z</time>
      </trkpt>
      <trkpt lat="42.39906" lon="2.6734">
        <ele>962.6</ele>
        <time>2018-11-26T04:02:11Z</time>
      </trkpt>
      <trkpt lat="42.39909" lon="2.6734">
        <ele>963.2</ele>
        <time>2018-11-26T04:02:12Z</time>
      </trkpt>
      <trkpt lat="42.39924" lon="2.6734">
        <ele>964.6</ele>
        <time>2018-11-26T04:02:18Z</time>
      </trkpt>
      <trkpt lat="42.39942" lon="2.67341">
        <ele>967.4</ele>
        <time>2018-11-26T04:02:26Z</time>
      </trkpt>
      <trkpt lat="42.39944" lon="2.67341">
        <ele>967.7</ele>
        <time>2018-11-26T04:02:26Z</time>
      </trkpt>
      <trkpt lat="42.3995" lon="2.67342">
        <ele>968.7</ele>
        <time>2018-11-26T04:02:29Z</time>
      </trkpt>
      <trkpt lat="42.39952" lon="2.67343">
        <ele>969</ele>
        <time>2018-11-26T04:02:30Z</time>
      </trkpt>
      <trkpt lat="42.39953" lon="2.67343">
        <ele>969.2</ele>
        <time>2018-11-26T04:02:30Z</time>
      </trkpt>
      <trkpt lat="42.39955" lon="2.67342">
        <ele>969.4</ele>
        <time>2018-11-26T04:02:31Z</time>
      </trkpt>
      <trkpt lat="42.39963" lon="2.67335">
        <ele>970.9</ele>
        <time>2018-11-26T04:02:35Z</time>
      </trkpt>
      <trkpt lat="42.39964" lon="2.67334">
        <ele>971.4</ele>
        <time>2018-11-26T04:02:35Z</time>
      </trkpt>
      <trkpt lat="42.39966" lon="2.67333">
        <ele>972</ele>
        <time>2018-11-26T04:02:36Z</time>
      </trkpt>
      <trkpt lat="42.39968" lon="2.67328">
        <ele>973.1</ele>
        <time>2018-11-26T04:02:38Z</time>
      </trkpt>
      <trkpt lat="42.3997" lon="2.67326">
        <ele>973.9</ele>
        <time>2018-11-26T04:02:39Z</time>
      </trkpt>
      <trkpt lat="42.39972" lon="2.67325">
        <ele>974.2</ele>
        <time>2018-11-26T04:02:39Z</time>
      </trkpt>
      <trkpt lat="42.39973" lon="2.67324">
        <ele>974.7</ele>
        <time>2018-11-26T04:02:40Z</time>
      </trkpt>
      <trkpt lat="42.39975" lon="2.67324">
        <ele>975.3</ele>
        <time>2018-11-26T04:02:41Z</time>
      </trkpt>
      <trkpt lat="42.39976" lon="2.67323">
        <ele>975.5</ele>
        <time>2018-11-26T04:02:41Z</time>
      </trkpt>
      <trkpt lat="42.39979" lon="2.67322">
        <ele>976.2</ele>
        <time>2018-11-26T04:02:42Z</time>
      </trkpt>
      <trkpt lat="42.39982" lon="2.6732">
        <ele>977.3</ele>
        <time>2018-11-26T04:02:44Z</time>
      </trkpt>
      <trkpt lat="42.39983" lon="2.6732">
        <ele>977.9</ele>
        <time>2018-11-26T04:02:44Z</time>
      </trkpt>
      <trkpt lat="42.39985" lon="2.67319">
        <ele>978.8</ele>
        <time>2018-11-26T04:02:45Z</time>
      </trkpt>
      <trkpt lat="42.39988" lon="2.67318">
        <ele>979.4</ele>
        <time>2018-11-26T04:02:46Z</time>
      </trkpt>
      <trkpt lat="42.39989" lon="2.67317">
        <ele>979.7</ele>
        <time>2018-11-26T04:02:47Z</time>
      </trkpt>
      <trkpt lat="42.39991" lon="2.67316">
        <ele>980</ele>
        <time>2018-11-26T04:02:47Z</time>
      </trkpt>
      <trkpt lat="42.39992" lon="2.67315">
        <ele>980.5</ele>
        <time>2018-11-26T04:02:48Z</time>
      </trkpt>
      <trkpt lat="42.39996" lon="2.67312">
        <ele>981.9</ele>
        <time>2018-11-26T04:02:50Z</time>
      </trkpt>
      <trkpt lat="42.39997" lon="2.67312">
        <ele>982.4</ele>
        <time>2018-11-26T04:02:50Z</time>
      </trkpt>
      <trkpt lat="42.4" lon="2.6731">
        <ele>983</ele>
        <time>2018-11-26T04:02:51Z</time>
      </trkpt>
      <trkpt lat="42.40001" lon="2.67309">
        <ele>983.5</ele>
        <time>2018-11-26T04:02:52Z</time>
      </trkpt>
      <trkpt lat="42.40002" lon="2.6731">
        <ele>983.8</ele>
        <time>2018-11-26T04:02:53Z</time>
      </trkpt>
      <trkpt lat="42.40004" lon="2.6731">
        <ele>984</ele>
        <time>2018-11-26T04:02:53Z</time>
      </trkpt>
      <trkpt lat="42.40005" lon="2.67311">
        <ele>984.5</ele>
        <time>2018-11-26T04:02:54Z</time>
      </trkpt>
      <trkpt lat="42.40007" lon="2.67311">
        <ele>985.1</ele>
        <time>2018-11-26T04:02:54Z</time>
      </trkpt>
      <trkpt lat="42.4001" lon="2.6731">
        <ele>985.5</ele>
        <time>2018-11-26T04:02:56Z</time>
      </trkpt>
      <trkpt lat="42.40011" lon="2.6731">
        <ele>985.8</ele>
        <time>2018-11-26T04:02:56Z</time>
      </trkpt>
      <trkpt lat="42.40012" lon="2.67309">
        <ele>985.8</ele>
        <time>2018-11-26T04:02:57Z</time>
      </trkpt>
      <trkpt lat="42.40013" lon="2.67309">
        <ele>985.9</ele>
        <time>2018-11-26T04:02:57Z</time>
      </trkpt>
      <trkpt lat="42.40015" lon="2.67309">
        <ele>986</ele>
        <time>2018-11-26T04:02:58Z</time>
      </trkpt>
      <trkpt lat="42.40016" lon="2.67309">
        <ele>986.1</ele>
        <time>2018-11-26T04:02:58Z</time>
      </trkpt>
      <trkpt lat="42.40018" lon="2.6731">
        <ele>986.4</ele>
        <time>2018-11-26T04:02:59Z</time>
      </trkpt>
      <trkpt lat="42.40022" lon="2.6731">
        <ele>986.2</ele>
        <time>2018-11-26T04:03:01Z</time>
      </trkpt>
      <trkpt lat="42.40023" lon="2.67311">
        <ele>986.5</ele>
        <time>2018-11-26T04:03:01Z</time>
      </trkpt>
      <trkpt lat="42.40025" lon="2.67311">
        <ele>986.9</ele>
        <time>2018-11-26T04:03:02Z</time>
      </trkpt>
      <trkpt lat="42.40039" lon="2.6732">
        <ele>989.4</ele>
        <time>2018-11-26T04:03:08Z</time>
      </trkpt>
      <trkpt lat="42.40041" lon="2.6732">
        <ele>989.4</ele>
        <time>2018-11-26T04:03:09Z</time>
      </trkpt>
      <trkpt lat="42.40048" lon="2.67322">
        <ele>989.9</ele>
        <time>2018-11-26T04:03:12Z</time>
      </trkpt>
      <trkpt lat="42.40049" lon="2.67322">
        <ele>990.3</ele>
        <time>2018-11-26T04:03:12Z</time>
      </trkpt>
      <trkpt lat="42.40053" lon="2.67322">
        <ele>990.6</ele>
        <time>2018-11-26T04:03:14Z</time>
      </trkpt>
      <trkpt lat="42.40057" lon="2.67322">
        <ele>991.7</ele>
        <time>2018-11-26T04:03:15Z</time>
      </trkpt>
      <trkpt lat="42.40059" lon="2.67322">
        <ele>991.8</ele>
        <time>2018-11-26T04:03:16Z</time>
      </trkpt>
      <trkpt lat="42.40061" lon="2.67322">
        <ele>992.1</ele>
        <time>2018-11-26T04:03:17Z</time>
      </trkpt>
      <trkpt lat="42.40063" lon="2.67322">
        <ele>992.3</ele>
        <time>2018-11-26T04:03:18Z</time>
      </trkpt>
      <trkpt lat="42.40066" lon="2.67321">
        <ele>993</ele>
        <time>2018-11-26T04:03:19Z</time>
      </trkpt>
      <trkpt lat="42.4007" lon="2.67319">
        <ele>993.5</ele>
        <time>2018-11-26T04:03:21Z</time>
      </trkpt>
      <trkpt lat="42.40072" lon="2.67317">
        <ele>994</ele>
        <time>2018-11-26T04:03:22Z</time>
      </trkpt>
      <trkpt lat="42.40075" lon="2.67316">
        <ele>994.2</ele>
        <time>2018-11-26T04:03:23Z</time>
      </trkpt>
      <trkpt lat="42.40076" lon="2.67315">
        <ele>994.3</ele>
        <time>2018-11-26T04:03:23Z</time>
      </trkpt>
      <trkpt lat="42.4008" lon="2.6731">
        <ele>994.8</ele>
        <time>2018-11-26T04:03:25Z</time>
      </trkpt>
      <trkpt lat="42.40084" lon="2.67307">
        <ele>995.2</ele>
        <time>2018-11-26T04:03:27Z</time>
      </trkpt>
      <trkpt lat="42.4009" lon="2.673">
        <ele>996.4</ele>
        <time>2018-11-26T04:03:30Z</time>
      </trkpt>
      <trkpt lat="42.40092" lon="2.67297">
        <ele>996.8</ele>
        <time>2018-11-26T04:03:32Z</time>
      </trkpt>
      <trkpt lat="42.40093" lon="2.67296">
        <ele>996.8</ele>
        <time>2018-11-26T04:03:32Z</time>
      </trkpt>
      <trkpt lat="42.40095" lon="2.67294">
        <ele>997</ele>
        <time>2018-11-26T04:03:33Z</time>
      </trkpt>
      <trkpt lat="42.40098" lon="2.67292">
        <ele>996.6</ele>
        <time>2018-11-26T04:03:34Z</time>
      </trkpt>
      <trkpt lat="42.40099" lon="2.67292">
        <ele>996.6</ele>
        <time>2018-11-26T04:03:35Z</time>
      </trkpt>
      <trkpt lat="42.40102" lon="2.67291">
        <ele>996.8</ele>
        <time>2018-11-26T04:03:36Z</time>
      </trkpt>
      <trkpt lat="42.40103" lon="2.67291">
        <ele>997</ele>
        <time>2018-11-26T04:03:37Z</time>
      </trkpt>
      <trkpt lat="42.40105" lon="2.67291">
        <ele>997</ele>
        <time>2018-11-26T04:03:37Z</time>
      </trkpt>
      <trkpt lat="42.40106" lon="2.67291">
        <ele>997</ele>
        <time>2018-11-26T04:03:38Z</time>
      </trkpt>
      <trkpt lat="42.40107" lon="2.67291">
        <ele>996.9</ele>
        <time>2018-11-26T04:03:38Z</time>
      </trkpt>
      <trkpt lat="42.40108" lon="2.67292">
        <ele>997</ele>
        <time>2018-11-26T04:03:38Z</time>
      </trkpt>
      <trkpt lat="42.40108" lon="2.67292">
        <ele>997.2</ele>
        <time>2018-11-26T04:03:38Z</time>
      </trkpt>
      <trkpt lat="42.40108" lon="2.67292">
        <ele>997.3</ele>
        <time>2018-11-26T04:03:38Z</time>
      </trkpt>
      <trkpt lat="42.40108" lon="2.67292">
        <ele>997.6</ele>
        <time>2018-11-26T04:03:38Z</time>
      </trkpt>
      <trkpt lat="42.40108" lon="2.67292">
        <ele>997.8</ele>
        <time>2018-11-26T04:03:38Z</time>
      </trkpt>
      <trkpt lat="42.40108" lon="2.67292">
        <ele>998.1</ele>
        <time>2018-11-26T04:03:38Z</time>
      </trkpt>
      <trkpt lat="42.40108" lon="2.67292">
        <ele>998.4</ele>
        <time>2018-11-26T04:03:38Z</time>
      </trkpt>
      <trkpt lat="42.40108" lon="2.67292">
        <ele>998.4</ele>
        <time>2018-11-26T04:03:39Z</time>
      </trkpt>
      <trkpt lat="42.40108" lon="2.67292">
        <ele>998.2</ele>
        <time>2018-11-26T04:03:39Z</time>
      </trkpt>
      <trkpt lat="42.40108" lon="2.67292">
        <ele>998.1</ele>
        <time>2018-11-26T04:03:39Z</time>
      </trkpt>
      <trkpt lat="42.40108" lon="2.67292">
        <ele>998</ele>
        <time>2018-11-26T04:03:39Z</time>
      </trkpt>
      <trkpt lat="42.40108" lon="2.67292">
        <ele>998.1</ele>
        <time>2018-11-26T04:03:39Z</time>
      </trkpt>
      <trkpt lat="42.40108" lon="2.67292">
        <ele>997.9</ele>
        <time>2018-11-26T04:03:39Z</time>
      </trkpt>
      <trkpt lat="42.40108" lon="2.67292">
        <ele>997.9</ele>
        <time>2018-11-26T04:03:39Z</time>
      </trkpt>
      <trkpt lat="42.40107" lon="2.67292">
        <ele>997.8</ele>
        <time>2018-11-26T04:03:39Z</time>
      </trkpt>
      <trkpt lat="42.40107" lon="2.67292">
        <ele>997.8</ele>
        <time>2018-11-26T04:03:39Z</time>
      </trkpt>
      <trkpt lat="42.40108" lon="2.67292">
        <ele>997.9</ele>
        <time>2018-11-26T04:03:39Z</time>
      </trkpt>
      <trkpt lat="42.4011" lon="2.67292">
        <ele>998</ele>
        <time>2018-11-26T04:03:40Z</time>
      </trkpt>
      <trkpt lat="42.40114" lon="2.67294">
        <ele>998.6</ele>
        <time>2018-11-26T04:03:41Z</time>
      </trkpt>
      <trkpt lat="42.40116" lon="2.67295">
        <ele>999.2</ele>
        <time>2018-11-26T04:03:43Z</time>
      </trkpt>
      <trkpt lat="42.40117" lon="2.67296">
        <ele>999.5</ele>
        <time>2018-11-26T04:03:43Z</time>
      </trkpt>
      <trkpt lat="42.40118" lon="2.67297">
        <ele>999.9</ele>
        <time>2018-11-26T04:03:44Z</time>
      </trkpt>
      <trkpt lat="42.40119" lon="2.67298">
        <ele>1000.5</ele>
        <time>2018-11-26T04:03:44Z</time>
      </trkpt>
      <trkpt lat="42.40121" lon="2.67299">
        <ele>1000.9</ele>
        <time>2018-11-26T04:03:45Z</time>
      </trkpt>
      <trkpt lat="42.40122" lon="2.67299">
        <ele>1001.3</ele>
        <time>2018-11-26T04:03:45Z</time>
      </trkpt>
      <trkpt lat="42.40123" lon="2.673">
        <ele>1002.1</ele>
        <time>2018-11-26T04:03:46Z</time>
      </trkpt>
      <trkpt lat="42.40125" lon="2.673">
        <ele>1001.8</ele>
        <time>2018-11-26T04:03:47Z</time>
      </trkpt>
      <trkpt lat="42.40126" lon="2.67299">
        <ele>1001.1</ele>
        <time>2018-11-26T04:03:47Z</time>
      </trkpt>
      <trkpt lat="42.40127" lon="2.67298">
        <ele>1001.1</ele>
        <time>2018-11-26T04:03:47Z</time>
      </trkpt>
      <trkpt lat="42.40126" lon="2.67298">
        <ele>1001.1</ele>
        <time>2018-11-26T04:03:48Z</time>
      </trkpt>
      <trkpt lat="42.40126" lon="2.67298">
        <ele>1001.2</ele>
        <time>2018-11-26T04:03:48Z</time>
      </trkpt>
      <trkpt lat="42.40126" lon="2.67297">
        <ele>1001.1</ele>
        <time>2018-11-26T04:03:48Z</time>
      </trkpt>
      <trkpt lat="42.40126" lon="2.67297">
        <ele>1001.3</ele>
        <time>2018-11-26T04:03:48Z</time>
      </trkpt>
      <trkpt lat="42.40125" lon="2.67296">
        <ele>1001.5</ele>
        <time>2018-11-26T04:03:48Z</time>
      </trkpt>
      <trkpt lat="42.40126" lon="2.67296">
        <ele>1002</ele>
        <time>2018-11-26T04:03:48Z</time>
      </trkpt>
      <trkpt lat="42.40128" lon="2.67294">
        <ele>1002.6</ele>
        <time>2018-11-26T04:03:49Z</time>
      </trkpt>
      <trkpt lat="42.40128" lon="2.67294">
        <ele>1002.6</ele>
        <time>2018-11-26T04:03:50Z</time>
      </trkpt>
      <trkpt lat="42.40129" lon="2.67293">
        <ele>1002.7</ele>
        <time>2018-11-26T04:03:50Z</time>
      </trkpt>
      <trkpt lat="42.40129" lon="2.67293">
        <ele>1002.7</ele>
        <time>2018-11-26T04:03:50Z</time>
      </trkpt>
      <trkpt lat="42.40129" lon="2.67294">
        <ele>1002.9</ele>
        <time>2018-11-26T04:03:50Z</time>
      </trkpt>
      <trkpt lat="42.4013" lon="2.67293">
        <ele>1003.1</ele>
        <time>2018-11-26T04:03:50Z</time>
      </trkpt>
      <trkpt lat="42.40131" lon="2.67293">
        <ele>1003.4</ele>
        <time>2018-11-26T04:03:51Z</time>
      </trkpt>
      <trkpt lat="42.40131" lon="2.67293">
        <ele>1003.6</ele>
        <time>2018-11-26T04:03:51Z</time>
      </trkpt>
      <trkpt lat="42.40132" lon="2.67293">
        <ele>1003.8</ele>
        <time>2018-11-26T04:03:51Z</time>
      </trkpt>
      <trkpt lat="42.40133" lon="2.67293">
        <ele>1004.2</ele>
        <time>2018-11-26T04:03:52Z</time>
      </trkpt>
      <trkpt lat="42.40133" lon="2.67294">
        <ele>1004.2</ele>
        <time>2018-11-26T04:03:52Z</time>
      </trkpt>
      <trkpt lat="42.40134" lon="2.67294">
        <ele>1004.3</ele>
        <time>2018-11-26T04:03:52Z</time>
      </trkpt>
      <trkpt lat="42.40135" lon="2.67294">
        <ele>1004.5</ele>
        <time>2018-11-26T04:03:52Z</time>
      </trkpt>
      <trkpt lat="42.40135" lon="2.67294">
        <ele>1004.7</ele>
        <time>2018-11-26T04:03:53Z</time>
      </trkpt>
      <trkpt lat="42.40136" lon="2.67293">
        <ele>1004.8</ele>
        <time>2018-11-26T04:03:53Z</time>
      </trkpt>
      <trkpt lat="42.40136" lon="2.67294">
        <ele>1005</ele>
        <time>2018-11-26T04:03:53Z</time>
      </trkpt>
      <trkpt lat="42.40137" lon="2.67294">
        <ele>1005.3</ele>
        <time>2018-11-26T04:03:53Z</time>
      </trkpt>
      <trkpt lat="42.40137" lon="2.67293">
        <ele>1005.6</ele>
        <time>2018-11-26T04:03:54Z</time>
      </trkpt>
      <trkpt lat="42.40137" lon="2.67292">
        <ele>1006.1</ele>
        <time>2018-11-26T04:03:54Z</time>
      </trkpt>
      <trkpt lat="42.40137" lon="2.67292">
        <ele>1006.2</ele>
        <time>2018-11-26T04:03:54Z</time>
      </trkpt>
      <trkpt lat="42.40137" lon="2.67292">
        <ele>1006.2</ele>
        <time>2018-11-26T04:03:54Z</time>
      </trkpt>
      <trkpt lat="42.40138" lon="2.67292">
        <ele>1006.1</ele>
        <time>2018-11-26T04:03:54Z</time>
      </trkpt>
      <trkpt lat="42.40138" lon="2.67293">
        <ele>1006.2</ele>
        <time>2018-11-26T04:03:54Z</time>
      </trkpt>
      <trkpt lat="42.40138" lon="2.67292">
        <ele>1006.6</ele>
        <time>2018-11-26T04:03:54Z</time>
      </trkpt>
      <trkpt lat="42.40139" lon="2.67292">
        <ele>1006.8</ele>
        <time>2018-11-26T04:03:55Z</time>
      </trkpt>
      <trkpt lat="42.4014" lon="2.67291">
        <ele>1006.9</ele>
        <time>2018-11-26T04:03:55Z</time>
      </trkpt>
      <trkpt lat="42.40141" lon="2.6729">
        <ele>1006.8</ele>
        <time>2018-11-26T04:03:55Z</time>
      </trkpt>
      <trkpt lat="42.40142" lon="2.67289">
        <ele>1006.9</ele>
        <time>2018-11-26T04:03:56Z</time>
      </trkpt>
      <trkpt lat="42.40142" lon="2.67289">
        <ele>1007.1</ele>
        <time>2018-11-26T04:03:56Z</time>
      </trkpt>
      <trkpt lat="42.40143" lon="2.67288">
        <ele>1007.2</ele>
        <time>2018-11-26T04:03:57Z</time>
      </trkpt>
      <trkpt lat="42.40145" lon="2.67287">
        <ele>1007.6</ele>
        <time>2018-11-26T04:03:57Z</time>
      </trkpt>
      <trkpt lat="42.40146" lon="2.67286">
        <ele>1007.6</ele>
        <time>2018-11-26T04:03:58Z</time>
      </trkpt>
      <trkpt lat="42.40147" lon="2.67286">
        <ele>1007.7</ele>
        <time>2018-11-26T04:03:58Z</time>
      </trkpt>
      <trkpt lat="42.40149" lon="2.67286">
        <ele>1007.8</ele>
        <time>2018-11-26T04:03:59Z</time>
      </trkpt>
      <trkpt lat="42.4015" lon="2.67285">
        <ele>1008.2</ele>
        <time>2018-11-26T04:03:59Z</time>
      </trkpt>
      <trkpt lat="42.4015" lon="2.67284">
        <ele>1008.4</ele>
        <time>2018-11-26T04:04:00Z</time>
      </trkpt>
      <trkpt lat="42.40151" lon="2.67283">
        <ele>1008.9</ele>
        <time>2018-11-26T04:04:00Z</time>
      </trkpt>
      <trkpt lat="42.40152" lon="2.67282">
        <ele>1009.2</ele>
        <time>2018-11-26T04:04:01Z</time>
      </trkpt>
      <trkpt lat="42.40153" lon="2.67281">
        <ele>1009.4</ele>
        <time>2018-11-26T04:04:01Z</time>
      </trkpt>
      <trkpt lat="42.40155" lon="2.67282">
        <ele>1009.8</ele>
        <time>2018-11-26T04:04:02Z</time>
      </trkpt>
      <trkpt lat="42.40156" lon="2.67282">
        <ele>1010.2</ele>
        <time>2018-11-26T04:04:03Z</time>
      </trkpt>
      <trkpt lat="42.40157" lon="2.67281">
        <ele>1010.3</ele>
        <time>2018-11-26T04:04:03Z</time>
      </trkpt>
      <trkpt lat="42.40158" lon="2.6728">
        <ele>1010.7</ele>
        <time>2018-11-26T04:04:03Z</time>
      </trkpt>
      <trkpt lat="42.40158" lon="2.6728">
        <ele>1010.9</ele>
        <time>2018-11-26T04:04:04Z</time>
      </trkpt>
      <trkpt lat="42.40159" lon="2.67279">
        <ele>1011</ele>
        <time>2018-11-26T04:04:04Z</time>
      </trkpt>
      <trkpt lat="42.40159" lon="2.67278">
        <ele>1011.1</ele>
        <time>2018-11-26T04:04:04Z</time>
      </trkpt>
      <trkpt lat="42.4016" lon="2.67278">
        <ele>1011.2</ele>
        <time>2018-11-26T04:04:05Z</time>
      </trkpt>
      <trkpt lat="42.4016" lon="2.67278">
        <ele>1011.3</ele>
        <time>2018-11-26T04:04:05Z</time>
      </trkpt>
      <trkpt lat="42.40161" lon="2.67278">
        <ele>1011.3</ele>
        <time>2018-11-26T04:04:05Z</time>
      </trkpt>
      <trkpt lat="42.40162" lon="2.67278">
        <ele>1011.4</ele>
        <time>2018-11-26T04:04:05Z</time>
      </trkpt>
      <trkpt lat="42.40162" lon="2.67279">
        <ele>1011.4</ele>
        <time>2018-11-26T04:04:06Z</time>
      </trkpt>
      <trkpt lat="42.40163" lon="2.67279">
        <ele>1011.7</ele>
        <time>2018-11-26T04:04:06Z</time>
      </trkpt>
      <trkpt lat="42.40166" lon="2.67277">
        <ele>1012.9</ele>
        <time>2018-11-26T04:04:07Z</time>
      </trkpt>
      <trkpt lat="42.40167" lon="2.67277">
        <ele>1013.2</ele>
        <time>2018-11-26T04:04:08Z</time>
      </trkpt>
      <trkpt lat="42.40168" lon="2.67276">
        <ele>1013.5</ele>
        <time>2018-11-26T04:04:08Z</time>
      </trkpt>
      <trkpt lat="42.40169" lon="2.67275">
        <ele>1013.9</ele>
        <time>2018-11-26T04:04:09Z</time>
      </trkpt>
      <trkpt lat="42.4017" lon="2.67276">
        <ele>1014.5</ele>
        <time>2018-11-26T04:04:09Z</time>
      </trkpt>
      <trkpt lat="42.40171" lon="2.67276">
        <ele>1015.1</ele>
        <time>2018-11-26T04:04:09Z</time>
      </trkpt>
      <trkpt lat="42.40172" lon="2.67275">
        <ele>1015.1</ele>
        <time>2018-11-26T04:04:10Z</time>
      </trkpt>
      <trkpt lat="42.40173" lon="2.67273">
        <ele>1014.8</ele>
        <time>2018-11-26T04:04:10Z</time>
      </trkpt>
      <trkpt lat="42.40174" lon="2.67273">
        <ele>1015</ele>
        <time>2018-11-26T04:04:11Z</time>
      </trkpt>
      <trkpt lat="42.40175" lon="2.67272">
        <ele>1015.7</ele>
        <time>2018-11-26T04:04:11Z</time>
      </trkpt>
      <trkpt lat="42.40176" lon="2.67272">
        <ele>1016.2</ele>
        <time>2018-11-26T04:04:12Z</time>
      </trkpt>
      <trkpt lat="42.40177" lon="2.67271">
        <ele>1016.3</ele>
        <time>2018-11-26T04:04:12Z</time>
      </trkpt>
      <trkpt lat="42.40177" lon="2.67271">
        <ele>1016.3</ele>
        <time>2018-11-26T04:04:12Z</time>
      </trkpt>
      <trkpt lat="42.40177" lon="2.67271">
        <ele>1016.2</ele>
        <time>2018-11-26T04:04:12Z</time>
      </trkpt>
      <trkpt lat="42.40177" lon="2.67271">
        <ele>1016.4</ele>
        <time>2018-11-26T04:04:12Z</time>
      </trkpt>
      <trkpt lat="42.40177" lon="2.67271">
        <ele>1016.7</ele>
        <time>2018-11-26T04:04:12Z</time>
      </trkpt>
      <trkpt lat="42.40178" lon="2.67271">
        <ele>1017</ele>
        <time>2018-11-26T04:04:12Z</time>
      </trkpt>
      <trkpt lat="42.40179" lon="2.67269">
        <ele>1017</ele>
        <time>2018-11-26T04:04:13Z</time>
      </trkpt>
      <trkpt lat="42.4018" lon="2.67267">
        <ele>1016.9</ele>
        <time>2018-11-26T04:04:14Z</time>
      </trkpt>
      <trkpt lat="42.40181" lon="2.67264">
        <ele>1016.9</ele>
        <time>2018-11-26T04:04:15Z</time>
      </trkpt>
      <trkpt lat="42.40182" lon="2.67262">
        <ele>1017.1</ele>
        <time>2018-11-26T04:04:16Z</time>
      </trkpt>
      <trkpt lat="42.40183" lon="2.6726">
        <ele>1017.3</ele>
        <time>2018-11-26T04:04:16Z</time>
      </trkpt>
      <trkpt lat="42.40185" lon="2.67254">
        <ele>1017.9</ele>
        <time>2018-11-26T04:04:18Z</time>
      </trkpt>
      <trkpt lat="42.40186" lon="2.67249">
        <ele>1018.7</ele>
        <time>2018-11-26T04:04:20Z</time>
      </trkpt>
      <trkpt lat="42.40187" lon="2.67248">
        <ele>1019.2</ele>
        <time>2018-11-26T04:04:20Z</time>
      </trkpt>
      <trkpt lat="42.40187" lon="2.67246">
        <ele>1019.4</ele>
        <time>2018-11-26T04:04:21Z</time>
      </trkpt>
      <trkpt lat="42.40187" lon="2.67244">
        <ele>1019.5</ele>
        <time>2018-11-26T04:04:21Z</time>
      </trkpt>
      <trkpt lat="42.40186" lon="2.67241">
        <ele>1020.3</ele>
        <time>2018-11-26T04:04:22Z</time>
      </trkpt>
      <trkpt lat="42.40186" lon="2.6724">
        <ele>1020.7</ele>
        <time>2018-11-26T04:04:23Z</time>
      </trkpt>
      <trkpt lat="42.40186" lon="2.67238">
        <ele>1021.3</ele>
        <time>2018-11-26T04:04:23Z</time>
      </trkpt>
      <trkpt lat="42.40187" lon="2.67237">
        <ele>1021.6</ele>
        <time>2018-11-26T04:04:23Z</time>
      </trkpt>
      <trkpt lat="42.40188" lon="2.67237">
        <ele>1022.1</ele>
        <time>2018-11-26T04:04:24Z</time>
      </trkpt>
      <trkpt lat="42.40189" lon="2.67237">
        <ele>1022.7</ele>
        <time>2018-11-26T04:04:24Z</time>
      </trkpt>
      <trkpt lat="42.4019" lon="2.67237">
        <ele>1022.9</ele>
        <time>2018-11-26T04:04:25Z</time>
      </trkpt>
      <trkpt lat="42.4019" lon="2.67236">
        <ele>1023.2</ele>
        <time>2018-11-26T04:04:25Z</time>
      </trkpt>
      <trkpt lat="42.40191" lon="2.67234">
        <ele>1024.3</ele>
        <time>2018-11-26T04:04:26Z</time>
      </trkpt>
      <trkpt lat="42.40192" lon="2.67233">
        <ele>1024.5</ele>
        <time>2018-11-26T04:04:26Z</time>
      </trkpt>
      <trkpt lat="42.40193" lon="2.67233">
        <ele>1025.2</ele>
        <time>2018-11-26T04:04:26Z</time>
      </trkpt>
      <trkpt lat="42.40194" lon="2.67234">
        <ele>1025.8</ele>
        <time>2018-11-26T04:04:27Z</time>
      </trkpt>
      <trkpt lat="42.40195" lon="2.67234">
        <ele>1026</ele>
        <time>2018-11-26T04:04:27Z</time>
      </trkpt>
      <trkpt lat="42.40196" lon="2.67234">
        <ele>1026.4</ele>
        <time>2018-11-26T04:04:28Z</time>
      </trkpt>
      <trkpt lat="42.40197" lon="2.67234">
        <ele>1026.8</ele>
        <time>2018-11-26T04:04:28Z</time>
      </trkpt>
      <trkpt lat="42.40198" lon="2.67233">
        <ele>1027.1</ele>
        <time>2018-11-26T04:04:29Z</time>
      </trkpt>
      <trkpt lat="42.402" lon="2.67233">
        <ele>1027.7</ele>
        <time>2018-11-26T04:04:30Z</time>
      </trkpt>
      <trkpt lat="42.40204" lon="2.67233">
        <ele>1029.1</ele>
        <time>2018-11-26T04:04:31Z</time>
      </trkpt>
      <trkpt lat="42.40205" lon="2.67233">
        <ele>1029.1</ele>
        <time>2018-11-26T04:04:31Z</time>
      </trkpt>
      <trkpt lat="42.40206" lon="2.67232">
        <ele>1029.5</ele>
        <time>2018-11-26T04:04:32Z</time>
      </trkpt>
      <trkpt lat="42.40207" lon="2.67231">
        <ele>1029.6</ele>
        <time>2018-11-26T04:04:32Z</time>
      </trkpt>
      <trkpt lat="42.40208" lon="2.67232">
        <ele>1029.8</ele>
        <time>2018-11-26T04:04:33Z</time>
      </trkpt>
      <trkpt lat="42.40208" lon="2.67232">
        <ele>1030</ele>
        <time>2018-11-26T04:04:33Z</time>
      </trkpt>
      <trkpt lat="42.40208" lon="2.67232">
        <ele>1030.3</ele>
        <time>2018-11-26T04:04:33Z</time>
      </trkpt>
      <trkpt lat="42.40208" lon="2.67232">
        <ele>1030.4</ele>
        <time>2018-11-26T04:04:33Z</time>
      </trkpt>
      <trkpt lat="42.40208" lon="2.67232">
        <ele>1030.7</ele>
        <time>2018-11-26T04:04:33Z</time>
      </trkpt>
      <trkpt lat="42.40209" lon="2.67231">
        <ele>1030.8</ele>
        <time>2018-11-26T04:04:33Z</time>
      </trkpt>
      <trkpt lat="42.40209" lon="2.67231">
        <ele>1030.9</ele>
        <time>2018-11-26T04:04:33Z</time>
      </trkpt>
      <trkpt lat="42.4021" lon="2.6723">
        <ele>1031.2</ele>
        <time>2018-11-26T04:04:34Z</time>
      </trkpt>
      <trkpt lat="42.40211" lon="2.6723">
        <ele>1031.4</ele>
        <time>2018-11-26T04:04:34Z</time>
      </trkpt>
      <trkpt lat="42.40212" lon="2.67229">
        <ele>1031.7</ele>
        <time>2018-11-26T04:04:34Z</time>
      </trkpt>
      <trkpt lat="42.40212" lon="2.67228">
        <ele>1032</ele>
        <time>2018-11-26T04:04:35Z</time>
      </trkpt>
      <trkpt lat="42.40212" lon="2.67227">
        <ele>1032.5</ele>
        <time>2018-11-26T04:04:35Z</time>
      </trkpt>
      <trkpt lat="42.40213" lon="2.67227">
        <ele>1032.5</ele>
        <time>2018-11-26T04:04:35Z</time>
      </trkpt>
      <trkpt lat="42.40213" lon="2.67227">
        <ele>1032.6</ele>
        <time>2018-11-26T04:04:36Z</time>
      </trkpt>
      <trkpt lat="42.40214" lon="2.67228">
        <ele>1032.6</ele>
        <time>2018-11-26T04:04:36Z</time>
      </trkpt>
      <trkpt lat="42.40218" lon="2.67231">
        <ele>1033.2</ele>
        <time>2018-11-26T04:04:38Z</time>
      </trkpt>
      <trkpt lat="42.40219" lon="2.67232">
        <ele>1033.3</ele>
        <time>2018-11-26T04:04:38Z</time>
      </trkpt>
      <trkpt lat="42.40222" lon="2.67234">
        <ele>1033.5</ele>
        <time>2018-11-26T04:04:40Z</time>
      </trkpt>
      <trkpt lat="42.40223" lon="2.67235">
        <ele>1033.8</ele>
        <time>2018-11-26T04:04:40Z</time>
      </trkpt>
      <trkpt lat="42.40224" lon="2.67236">
        <ele>1034.1</ele>
        <time>2018-11-26T04:04:41Z</time>
      </trkpt>
      <trkpt lat="42.40225" lon="2.67237">
        <ele>1034</ele>
        <time>2018-11-26T04:04:41Z</time>
      </trkpt>
      <trkpt lat="42.40226" lon="2.67238">
        <ele>1034</ele>
        <time>2018-11-26T04:04:42Z</time>
      </trkpt>
      <trkpt lat="42.40227" lon="2.67239">
        <ele>1033.9</ele>
        <time>2018-11-26T04:04:42Z</time>
      </trkpt>
      <trkpt lat="42.40229" lon="2.67241">
        <ele>1034.1</ele>
        <time>2018-11-26T04:04:43Z</time>
      </trkpt>
      <trkpt lat="42.40229" lon="2.67243">
        <ele>1034.1</ele>
        <time>2018-11-26T04:04:44Z</time>
      </trkpt>
      <trkpt lat="42.40231" lon="2.67247">
        <ele>1034.1</ele>
        <time>2018-11-26T04:04:45Z</time>
      </trkpt>
      <trkpt lat="42.40231" lon="2.67249">
        <ele>1034</ele>
        <time>2018-11-26T04:04:45Z</time>
      </trkpt>
      <trkpt lat="42.40232" lon="2.6725">
        <ele>1034.1</ele>
        <time>2018-11-26T04:04:46Z</time>
      </trkpt>
      <trkpt lat="42.40232" lon="2.67256">
        <ele>1033.8</ele>
        <time>2018-11-26T04:04:48Z</time>
      </trkpt>
      <trkpt lat="42.40232" lon="2.67258">
        <ele>1033.6</ele>
        <time>2018-11-26T04:04:48Z</time>
      </trkpt>
      <trkpt lat="42.40232" lon="2.67259">
        <ele>1033.7</ele>
        <time>2018-11-26T04:04:49Z</time>
      </trkpt>
      <trkpt lat="42.40232" lon="2.6726">
        <ele>1033.8</ele>
        <time>2018-11-26T04:04:49Z</time>
      </trkpt>
      <trkpt lat="42.40232" lon="2.67261">
        <ele>1033.9</ele>
        <time>2018-11-26T04:04:49Z</time>
      </trkpt>
      <trkpt lat="42.40232" lon="2.67262">
        <ele>1033.8</ele>
        <time>2018-11-26T04:04:49Z</time>
      </trkpt>
      <trkpt lat="42.40232" lon="2.67262">
        <ele>1033.6</ele>
        <time>2018-11-26T04:04:50Z</time>
      </trkpt>
      <trkpt lat="42.40231" lon="2.67263">
        <ele>1033.5</ele>
        <time>2018-11-26T04:04:50Z</time>
      </trkpt>
      <trkpt lat="42.4023" lon="2.67263">
        <ele>1033.2</ele>
        <time>2018-11-26T04:04:50Z</time>
      </trkpt>
      <trkpt lat="42.40229" lon="2.67262">
        <ele>1033.3</ele>
        <time>2018-11-26T04:04:51Z</time>
      </trkpt>
      <trkpt lat="42.40229" lon="2.67262">
        <ele>1033.4</ele>
        <time>2018-11-26T04:04:51Z</time>
      </trkpt>
      <trkpt lat="42.40228" lon="2.67262">
        <ele>1033.7</ele>
        <time>2018-11-26T04:04:51Z</time>
      </trkpt>
      <trkpt lat="42.40228" lon="2.67263">
        <ele>1033.6</ele>
        <time>2018-11-26T04:04:51Z</time>
      </trkpt>
      <trkpt lat="42.40228" lon="2.67264">
        <ele>1033.7</ele>
        <time>2018-11-26T04:04:52Z</time>
      </trkpt>
      <trkpt lat="42.40228" lon="2.67263">
        <ele>1033.8</ele>
        <time>2018-11-26T04:04:52Z</time>
      </trkpt>
      <trkpt lat="42.40228" lon="2.67263">
        <ele>1033.8</ele>
        <time>2018-11-26T04:04:52Z</time>
      </trkpt>
      <trkpt lat="42.40227" lon="2.67264">
        <ele>1033.7</ele>
        <time>2018-11-26T04:04:52Z</time>
      </trkpt>
      <trkpt lat="42.40228" lon="2.67264">
        <ele>1033.6</ele>
        <time>2018-11-26T04:04:52Z</time>
      </trkpt>
      <trkpt lat="42.40228" lon="2.67264">
        <ele>1033.8</ele>
        <time>2018-11-26T04:04:52Z</time>
      </trkpt>
      <trkpt lat="42.40228" lon="2.67263">
        <ele>1033.8</ele>
        <time>2018-11-26T04:04:52Z</time>
      </trkpt>
      <trkpt lat="42.40228" lon="2.67263">
        <ele>1033.9</ele>
        <time>2018-11-26T04:04:52Z</time>
      </trkpt>
      <trkpt lat="42.40228" lon="2.67263">
        <ele>1034</ele>
        <time>2018-11-26T04:04:52Z</time>
      </trkpt>
      <trkpt lat="42.40228" lon="2.67263">
        <ele>1034.2</ele>
        <time>2018-11-26T04:04:52Z</time>
      </trkpt>
      <trkpt lat="42.40228" lon="2.67263">
        <ele>1034.4</ele>
        <time>2018-11-26T04:04:52Z</time>
      </trkpt>
      <trkpt lat="42.40229" lon="2.67262">
        <ele>1034.8</ele>
        <time>2018-11-26T04:04:52Z</time>
      </trkpt>
      <trkpt lat="42.40229" lon="2.67263">
        <ele>1034.8</ele>
        <time>2018-11-26T04:04:53Z</time>
      </trkpt>
      <trkpt lat="42.4023" lon="2.67263">
        <ele>1034.8</ele>
        <time>2018-11-26T04:04:53Z</time>
      </trkpt>
      <trkpt lat="42.40231" lon="2.67263">
        <ele>1034.8</ele>
        <time>2018-11-26T04:04:53Z</time>
      </trkpt>
      <trkpt lat="42.40232" lon="2.67262">
        <ele>1034.8</ele>
        <time>2018-11-26T04:04:54Z</time>
      </trkpt>
      <trkpt lat="42.40232" lon="2.67261">
        <ele>1034.9</ele>
        <time>2018-11-26T04:04:54Z</time>
      </trkpt>
      <trkpt lat="42.40232" lon="2.67259">
        <ele>1034.7</ele>
        <time>2018-11-26T04:04:55Z</time>
      </trkpt>
      <trkpt lat="42.40232" lon="2.67256">
        <ele>1034.5</ele>
        <time>2018-11-26T04:04:56Z</time>
      </trkpt>
      <trkpt lat="42.40232" lon="2.67255">
        <ele>1034.5</ele>
        <time>2018-11-26T04:04:56Z</time>
      </trkpt>
      <trkpt lat="42.40232" lon="2.67255">
        <ele>1034.4</ele>
        <time>2018-11-26T04:04:56Z</time>
      </trkpt>
      <trkpt lat="42.40232" lon="2.67258">
        <ele>1034.5</ele>
        <time>2018-11-26T04:04:57Z</time>
      </trkpt>
      <trkpt lat="42.40232" lon="2.6726">
        <ele>1034.5</ele>
        <time>2018-11-26T04:04:57Z</time>
      </trkpt>
      <trkpt lat="42.40233" lon="2.67261">
        <ele>1034.8</ele>
        <time>2018-11-26T04:04:58Z</time>
      </trkpt>
      <trkpt lat="42.40234" lon="2.67265">
        <ele>1034.5</ele>
        <time>2018-11-26T04:04:59Z</time>
      </trkpt>
      <trkpt lat="42.40235" lon="2.67268">
        <ele>1034.6</ele>
        <time>2018-11-26T04:05:00Z</time>
      </trkpt>
      <trkpt lat="42.4024" lon="2.67285">
        <ele>1036</ele>
        <time>2018-11-26T04:05:05Z</time>
      </trkpt>
      <trkpt lat="42.40241" lon="2.67288">
        <ele>1036.3</ele>
        <time>2018-11-26T04:05:06Z</time>
      </trkpt>
      <trkpt lat="42.40241" lon="2.67291">
        <ele>1036.6</ele>
        <time>2018-11-26T04:05:07Z</time>
      </trkpt>
      <trkpt lat="42.40241" lon="2.67295">
        <ele>1036.9</ele>
        <time>2018-11-26T04:05:08Z</time>
      </trkpt>
      <trkpt lat="42.40241" lon="2.67296">
        <ele>1037.1</ele>
        <time>2018-11-26T04:05:09Z</time>
      </trkpt>
      <trkpt lat="42.40241" lon="2.673">
        <ele>1037.5</ele>
        <time>2018-11-26T04:05:10Z</time>
      </trkpt>
      <trkpt lat="42.40241" lon="2.67301">
        <ele>1037.4</ele>
        <time>2018-11-26T04:05:10Z</time>
      </trkpt>
      <trkpt lat="42.4024" lon="2.67303">
        <ele>1037.2</ele>
        <time>2018-11-26T04:05:11Z</time>
      </trkpt>
      <trkpt lat="42.4024" lon="2.67306">
        <ele>1037.6</ele>
        <time>2018-11-26T04:05:12Z</time>
      </trkpt>
      <trkpt lat="42.40238" lon="2.67309">
        <ele>1037.9</ele>
        <time>2018-11-26T04:05:13Z</time>
      </trkpt>
      <trkpt lat="42.40238" lon="2.6731">
        <ele>1037.8</ele>
        <time>2018-11-26T04:05:13Z</time>
      </trkpt>
      <trkpt lat="42.40238" lon="2.67311">
        <ele>1037.7</ele>
        <time>2018-11-26T04:05:13Z</time>
      </trkpt>
      <trkpt lat="42.40238" lon="2.67311">
        <ele>1037.7</ele>
        <time>2018-11-26T04:05:13Z</time>
      </trkpt>
      <trkpt lat="42.40238" lon="2.67311">
        <ele>1037.6</ele>
        <time>2018-11-26T04:05:13Z</time>
      </trkpt>
      <trkpt lat="42.40238" lon="2.67311">
        <ele>1037.5</ele>
        <time>2018-11-26T04:05:13Z</time>
      </trkpt>
      <trkpt lat="42.40238" lon="2.67311">
        <ele>1037.5</ele>
        <time>2018-11-26T04:05:13Z</time>
      </trkpt>
      <trkpt lat="42.40238" lon="2.67311">
        <ele>1037.6</ele>
        <time>2018-11-26T04:05:13Z</time>
      </trkpt>
      <trkpt lat="42.40238" lon="2.67311">
        <ele>1037.8</ele>
        <time>2018-11-26T04:05:14Z</time>
      </trkpt>
      <trkpt lat="42.40238" lon="2.67311">
        <ele>1037.9</ele>
        <time>2018-11-26T04:05:14Z</time>
      </trkpt>
      <trkpt lat="42.40238" lon="2.67311">
        <ele>1038.3</ele>
        <time>2018-11-26T04:05:14Z</time>
      </trkpt>
      <trkpt lat="42.40237" lon="2.67311">
        <ele>1038.7</ele>
        <time>2018-11-26T04:05:14Z</time>
      </trkpt>
      <trkpt lat="42.40237" lon="2.67311">
        <ele>1038.4</ele>
        <time>2018-11-26T04:05:14Z</time>
      </trkpt>
      <trkpt lat="42.40237" lon="2.67311">
        <ele>1038.1</ele>
        <time>2018-11-26T04:05:14Z</time>
      </trkpt>
      <trkpt lat="42.40237" lon="2.67311">
        <ele>1037.7</ele>
        <time>2018-11-26T04:05:14Z</time>
      </trkpt>
      <trkpt lat="42.40237" lon="2.67311">
        <ele>1037.8</ele>
        <time>2018-11-26T04:05:14Z</time>
      </trkpt>
      <trkpt lat="42.40237" lon="2.67311">
        <ele>1038.1</ele>
        <time>2018-11-26T04:05:14Z</time>
      </trkpt>
      <trkpt lat="42.40237" lon="2.67311">
        <ele>1038.5</ele>
        <time>2018-11-26T04:05:14Z</time>
      </trkpt>
      <trkpt lat="42.40237" lon="2.67311">
        <ele>1038.4</ele>
        <time>2018-11-26T04:05:14Z</time>
      </trkpt>
      <trkpt lat="42.40237" lon="2.67311">
        <ele>1038.3</ele>
        <time>2018-11-26T04:05:14Z</time>
      </trkpt>
      <trkpt lat="42.40237" lon="2.67311">
        <ele>1038.1</ele>
        <time>2018-11-26T04:05:14Z</time>
      </trkpt>
      <trkpt lat="42.40237" lon="2.67311">
        <ele>1038</ele>
        <time>2018-11-26T04:05:14Z</time>
      </trkpt>
      <trkpt lat="42.40237" lon="2.67311">
        <ele>1038.1</ele>
        <time>2018-11-26T04:05:14Z</time>
      </trkpt>
      <trkpt lat="42.40237" lon="2.67312">
        <ele>1038.1</ele>
        <time>2018-11-26T04:05:14Z</time>
      </trkpt>
      <trkpt lat="42.40237" lon="2.67313">
        <ele>1038.1</ele>
        <time>2018-11-26T04:05:15Z</time>
      </trkpt>
      <trkpt lat="42.40237" lon="2.67314">
        <ele>1038.1</ele>
        <time>2018-11-26T04:05:15Z</time>
      </trkpt>
      <trkpt lat="42.40237" lon="2.67315">
        <ele>1038.2</ele>
        <time>2018-11-26T04:05:15Z</time>
      </trkpt>
      <trkpt lat="42.40237" lon="2.67316">
        <ele>1038.2</ele>
        <time>2018-11-26T04:05:15Z</time>
      </trkpt>
      <trkpt lat="42.40237" lon="2.67317">
        <ele>1038</ele>
        <time>2018-11-26T04:05:16Z</time>
      </trkpt>
      <trkpt lat="42.40238" lon="2.67317">
        <ele>1037.9</ele>
        <time>2018-11-26T04:05:16Z</time>
      </trkpt>
      <trkpt lat="42.40237" lon="2.67316">
        <ele>1037.8</ele>
        <time>2018-11-26T04:05:16Z</time>
      </trkpt>
      <trkpt lat="42.40237" lon="2.67316">
        <ele>1037.9</ele>
        <time>2018-11-26T04:05:16Z</time>
      </trkpt>
      <trkpt lat="42.40237" lon="2.67316">
        <ele>1037.8</ele>
        <time>2018-11-26T04:05:16Z</time>
      </trkpt>
      <trkpt lat="42.40237" lon="2.67316">
        <ele>1037.9</ele>
        <time>2018-11-26T04:05:16Z</time>
      </trkpt>
      <trkpt lat="42.40237" lon="2.67316">
        <ele>1037.8</ele>
        <time>2018-11-26T04:05:16Z</time>
      </trkpt>
      <trkpt lat="42.40237" lon="2.67316">
        <ele>1037.8</ele>
        <time>2018-11-26T04:05:16Z</time>
      </trkpt>
      <trkpt lat="42.40237" lon="2.67316">
        <ele>1037.9</ele>
        <time>2018-11-26T04:05:16Z</time>
      </trkpt>
      <trkpt lat="42.40237" lon="2.67316">
        <ele>1037.9</ele>
        <time>2018-11-26T04:05:16Z</time>
      </trkpt>
      <trkpt lat="42.40237" lon="2.67316">
        <ele>1038.2</ele>
        <time>2018-11-26T04:05:16Z</time>
      </trkpt>
      <trkpt lat="42.40237" lon="2.67316">
        <ele>1038.5</ele>
        <time>2018-11-26T04:05:16Z</time>
      </trkpt>
      <trkpt lat="42.40237" lon="2.67316">
        <ele>1038.9</ele>
        <time>2018-11-26T04:05:16Z</time>
      </trkpt>
      <trkpt lat="42.40237" lon="2.67316">
        <ele>1038.9</ele>
        <time>2018-11-26T04:05:16Z</time>
      </trkpt>
      <trkpt lat="42.40237" lon="2.67316">
        <ele>1039</ele>
        <time>2018-11-26T04:05:16Z</time>
      </trkpt>
      <trkpt lat="42.40237" lon="2.67316">
        <ele>1039.3</ele>
        <time>2018-11-26T04:05:16Z</time>
      </trkpt>
      <trkpt lat="42.40237" lon="2.67317">
        <ele>1039.1</ele>
        <time>2018-11-26T04:05:17Z</time>
      </trkpt>
      <trkpt lat="42.40237" lon="2.67319">
        <ele>1039</ele>
        <time>2018-11-26T04:05:17Z</time>
      </trkpt>
      <trkpt lat="42.40236" lon="2.6732">
        <ele>1038.8</ele>
        <time>2018-11-26T04:05:18Z</time>
      </trkpt>
      <trkpt lat="42.40236" lon="2.67321">
        <ele>1038.9</ele>
        <time>2018-11-26T04:05:18Z</time>
      </trkpt>
      <trkpt lat="42.40236" lon="2.67321">
        <ele>1038.9</ele>
        <time>2018-11-26T04:05:18Z</time>
      </trkpt>
      <trkpt lat="42.40236" lon="2.67321">
        <ele>1039</ele>
        <time>2018-11-26T04:05:18Z</time>
      </trkpt>
      <trkpt lat="42.40236" lon="2.67321">
        <ele>1039</ele>
        <time>2018-11-26T04:05:18Z</time>
      </trkpt>
      <trkpt lat="42.40236" lon="2.67321">
        <ele>1038.9</ele>
        <time>2018-11-26T04:05:18Z</time>
      </trkpt>
      <trkpt lat="42.40236" lon="2.67322">
        <ele>1038.9</ele>
        <time>2018-11-26T04:05:18Z</time>
      </trkpt>
      <trkpt lat="42.40236" lon="2.67322">
        <ele>1038.9</ele>
        <time>2018-11-26T04:05:18Z</time>
      </trkpt>
      <trkpt lat="42.40236" lon="2.67322">
        <ele>1038.9</ele>
        <time>2018-11-26T04:05:18Z</time>
      </trkpt>
      <trkpt lat="42.40236" lon="2.67322">
        <ele>1038.9</ele>
        <time>2018-11-26T04:05:18Z</time>
      </trkpt>
      <trkpt lat="42.40236" lon="2.67322">
        <ele>1038.8</ele>
        <time>2018-11-26T04:05:18Z</time>
      </trkpt>
      <trkpt lat="42.40236" lon="2.67322">
        <ele>1038.9</ele>
        <time>2018-11-26T04:05:18Z</time>
      </trkpt>
      <trkpt lat="42.40236" lon="2.67321">
        <ele>1038.8</ele>
        <time>2018-11-26T04:05:19Z</time>
      </trkpt>
      <trkpt lat="42.40237" lon="2.67321">
        <ele>1038.7</ele>
        <time>2018-11-26T04:05:19Z</time>
      </trkpt>
      <trkpt lat="42.40236" lon="2.67322">
        <ele>1038.7</ele>
        <time>2018-11-26T04:05:19Z</time>
      </trkpt>
      <trkpt lat="42.40236" lon="2.67322">
        <ele>1038.9</ele>
        <time>2018-11-26T04:05:19Z</time>
      </trkpt>
      <trkpt lat="42.40236" lon="2.67323">
        <ele>1039</ele>
        <time>2018-11-26T04:05:19Z</time>
      </trkpt>
      <trkpt lat="42.40236" lon="2.67323">
        <ele>1039.2</ele>
        <time>2018-11-26T04:05:19Z</time>
      </trkpt>
      <trkpt lat="42.40236" lon="2.67323">
        <ele>1039.2</ele>
        <time>2018-11-26T04:05:19Z</time>
      </trkpt>
      <trkpt lat="42.40236" lon="2.67323">
        <ele>1039.3</ele>
        <time>2018-11-26T04:05:19Z</time>
      </trkpt>
      <trkpt lat="42.40236" lon="2.67323">
        <ele>1039.3</ele>
        <time>2018-11-26T04:05:19Z</time>
      </trkpt>
      <trkpt lat="42.40236" lon="2.67323">
        <ele>1039.2</ele>
        <time>2018-11-26T04:05:19Z</time>
      </trkpt>
      <trkpt lat="42.40236" lon="2.67324">
        <ele>1039.1</ele>
        <time>2018-11-26T04:05:20Z</time>
      </trkpt>
      <trkpt lat="42.40236" lon="2.67324">
        <ele>1038.9</ele>
        <time>2018-11-26T04:05:20Z</time>
      </trkpt>
      <trkpt lat="42.40236" lon="2.67324">
        <ele>1038.8</ele>
        <time>2018-11-26T04:05:20Z</time>
      </trkpt>
      <trkpt lat="42.40236" lon="2.67324">
        <ele>1038.7</ele>
        <time>2018-11-26T04:05:20Z</time>
      </trkpt>
      <trkpt lat="42.40236" lon="2.67324">
        <ele>1038.3</ele>
        <time>2018-11-26T04:05:20Z</time>
      </trkpt>
      <trkpt lat="42.40236" lon="2.67324">
        <ele>1038.4</ele>
        <time>2018-11-26T04:05:20Z</time>
      </trkpt>
      <trkpt lat="42.40236" lon="2.67324">
        <ele>1038.6</ele>
        <time>2018-11-26T04:05:20Z</time>
      </trkpt>
      <trkpt lat="42.40236" lon="2.67324">
        <ele>1038.7</ele>
        <time>2018-11-26T04:05:20Z</time>
      </trkpt>
      <trkpt lat="42.40236" lon="2.67324">
        <ele>1038.8</ele>
        <time>2018-11-26T04:05:20Z</time>
      </trkpt>
      <trkpt lat="42.40236" lon="2.67324">
        <ele>1039</ele>
        <time>2018-11-26T04:05:20Z</time>
      </trkpt>
      <trkpt lat="42.40236" lon="2.67324">
        <ele>1039.1</ele>
        <time>2018-11-26T04:05:20Z</time>
      </trkpt>
      <trkpt lat="42.40236" lon="2.67325">
        <ele>1038.7</ele>
        <time>2018-11-26T04:05:20Z</time>
      </trkpt>
      <trkpt lat="42.40236" lon="2.67325">
        <ele>1038.4</ele>
        <time>2018-11-26T04:05:20Z</time>
      </trkpt>
      <trkpt lat="42.40236" lon="2.67325">
        <ele>1038.2</ele>
        <time>2018-11-26T04:05:20Z</time>
      </trkpt>
      <trkpt lat="42.40236" lon="2.67325">
        <ele>1038.3</ele>
        <time>2018-11-26T04:05:20Z</time>
      </trkpt>
      <trkpt lat="42.40236" lon="2.67325">
        <ele>1038.7</ele>
        <time>2018-11-26T04:05:20Z</time>
      </trkpt>
      <trkpt lat="42.40238" lon="2.67329">
        <ele>1039.2</ele>
        <time>2018-11-26T04:05:21Z</time>
      </trkpt>
      <trkpt lat="42.40241" lon="2.67337">
        <ele>1039.7</ele>
        <time>2018-11-26T04:05:24Z</time>
      </trkpt>
      <trkpt lat="42.40243" lon="2.67342">
        <ele>1040.2</ele>
        <time>2018-11-26T04:05:26Z</time>
      </trkpt>
      <trkpt lat="42.40245" lon="2.67349">
        <ele>1040.9</ele>
        <time>2018-11-26T04:05:28Z</time>
      </trkpt>
      <trkpt lat="42.40245" lon="2.67351">
        <ele>1041</ele>
        <time>2018-11-26T04:05:28Z</time>
      </trkpt>
      <trkpt lat="42.40247" lon="2.67356">
        <ele>1041.2</ele>
        <time>2018-11-26T04:05:30Z</time>
      </trkpt>
      <trkpt lat="42.40248" lon="2.67362">
        <ele>1041.3</ele>
        <time>2018-11-26T04:05:32Z</time>
      </trkpt>
      <trkpt lat="42.40248" lon="2.67364">
        <ele>1041.2</ele>
        <time>2018-11-26T04:05:32Z</time>
      </trkpt>
      <trkpt lat="42.40248" lon="2.67377">
        <ele>1042</ele>
        <time>2018-11-26T04:05:36Z</time>
      </trkpt>
      <trkpt lat="42.40248" lon="2.67379">
        <ele>1042.5</ele>
        <time>2018-11-26T04:05:37Z</time>
      </trkpt>
      <trkpt lat="42.40249" lon="2.67385">
        <ele>1043.4</ele>
        <time>2018-11-26T04:05:39Z</time>
      </trkpt>
      <trkpt lat="42.40249" lon="2.67387">
        <ele>1043.7</ele>
        <time>2018-11-26T04:05:39Z</time>
      </trkpt>
      <trkpt lat="42.40249" lon="2.67389">
        <ele>1044.2</ele>
        <time>2018-11-26T04:05:40Z</time>
      </trkpt>
      <trkpt lat="42.40249" lon="2.6739">
        <ele>1044.2</ele>
        <time>2018-11-26T04:05:40Z</time>
      </trkpt>
      <trkpt lat="42.40249" lon="2.67392">
        <ele>1044.2</ele>
        <time>2018-11-26T04:05:41Z</time>
      </trkpt>
      <trkpt lat="42.40249" lon="2.67394">
        <ele>1044.1</ele>
        <time>2018-11-26T04:05:41Z</time>
      </trkpt>
      <trkpt lat="42.40249" lon="2.67399">
        <ele>1044.4</ele>
        <time>2018-11-26T04:05:43Z</time>
      </trkpt>
      <trkpt lat="42.40249" lon="2.674">
        <ele>1044.4</ele>
        <time>2018-11-26T04:05:43Z</time>
      </trkpt>
      <trkpt lat="42.40246" lon="2.67419">
        <ele>1045.5</ele>
        <time>2018-11-26T04:05:49Z</time>
      </trkpt>
      <trkpt lat="42.40241" lon="2.67459">
        <ele>1047.9</ele>
        <time>2018-11-26T04:06:01Z</time>
      </trkpt>
      <trkpt lat="42.40241" lon="2.6746">
        <ele>1048.1</ele>
        <time>2018-11-26T04:06:01Z</time>
      </trkpt>
      <trkpt lat="42.40241" lon="2.67461">
        <ele>1048.2</ele>
        <time>2018-11-26T04:06:01Z</time>
      </trkpt>
      <trkpt lat="42.4024" lon="2.67462">
        <ele>1048.6</ele>
        <time>2018-11-26T04:06:02Z</time>
      </trkpt>
      <trkpt lat="42.4024" lon="2.67463">
        <ele>1048.7</ele>
        <time>2018-11-26T04:06:02Z</time>
      </trkpt>
      <trkpt lat="42.4024" lon="2.67463">
        <ele>1048.8</ele>
        <time>2018-11-26T04:06:02Z</time>
      </trkpt>
      <trkpt lat="42.40241" lon="2.67463">
        <ele>1049.1</ele>
        <time>2018-11-26T04:06:02Z</time>
      </trkpt>
      <trkpt lat="42.40242" lon="2.67463">
        <ele>1049.4</ele>
        <time>2018-11-26T04:06:03Z</time>
      </trkpt>
      <trkpt lat="42.40244" lon="2.67463">
        <ele>1049.9</ele>
        <time>2018-11-26T04:06:03Z</time>
      </trkpt>
      <trkpt lat="42.40246" lon="2.67462">
        <ele>1050.5</ele>
        <time>2018-11-26T04:06:04Z</time>
      </trkpt>
      <trkpt lat="42.40247" lon="2.6746">
        <ele>1050.5</ele>
        <time>2018-11-26T04:06:05Z</time>
      </trkpt>
      <trkpt lat="42.40248" lon="2.67459">
        <ele>1050.6</ele>
        <time>2018-11-26T04:06:06Z</time>
      </trkpt>
      <trkpt lat="42.4025" lon="2.67453">
        <ele>1051.5</ele>
        <time>2018-11-26T04:06:08Z</time>
      </trkpt>
      <trkpt lat="42.40251" lon="2.6745">
        <ele>1051.9</ele>
        <time>2018-11-26T04:06:09Z</time>
      </trkpt>
      <trkpt lat="42.40251" lon="2.67446">
        <ele>1051.5</ele>
        <time>2018-11-26T04:06:10Z</time>
      </trkpt>
      <trkpt lat="42.40252" lon="2.67445">
        <ele>1051.8</ele>
        <time>2018-11-26T04:06:10Z</time>
      </trkpt>
      <trkpt lat="42.40252" lon="2.67444">
        <ele>1052.1</ele>
        <time>2018-11-26T04:06:10Z</time>
      </trkpt>
      <trkpt lat="42.40253" lon="2.67443">
        <ele>1052.5</ele>
        <time>2018-11-26T04:06:11Z</time>
      </trkpt>
      <trkpt lat="42.40253" lon="2.67443">
        <ele>1052.2</ele>
        <time>2018-11-26T04:06:11Z</time>
      </trkpt>
      <trkpt lat="42.40253" lon="2.67443">
        <ele>1051.9</ele>
        <time>2018-11-26T04:06:11Z</time>
      </trkpt>
      <trkpt lat="42.40253" lon="2.67443">
        <ele>1051.5</ele>
        <time>2018-11-26T04:06:11Z</time>
      </trkpt>
      <trkpt lat="42.40253" lon="2.67443">
        <ele>1051.4</ele>
        <time>2018-11-26T04:06:11Z</time>
      </trkpt>
      <trkpt lat="42.40253" lon="2.67443">
        <ele>1051.5</ele>
        <time>2018-11-26T04:06:11Z</time>
      </trkpt>
      <trkpt lat="42.40253" lon="2.67444">
        <ele>1051.6</ele>
        <time>2018-11-26T04:06:11Z</time>
      </trkpt>
      <trkpt lat="42.40253" lon="2.67444">
        <ele>1051.8</ele>
        <time>2018-11-26T04:06:11Z</time>
      </trkpt>
      <trkpt lat="42.40253" lon="2.67443">
        <ele>1052</ele>
        <time>2018-11-26T04:06:11Z</time>
      </trkpt>
      <trkpt lat="42.40254" lon="2.67444">
        <ele>1052.3</ele>
        <time>2018-11-26T04:06:12Z</time>
      </trkpt>
      <trkpt lat="42.40255" lon="2.67443">
        <ele>1052.9</ele>
        <time>2018-11-26T04:06:12Z</time>
      </trkpt>
      <trkpt lat="42.40256" lon="2.67443">
        <ele>1052.8</ele>
        <time>2018-11-26T04:06:12Z</time>
      </trkpt>
      <trkpt lat="42.40258" lon="2.67443">
        <ele>1052.9</ele>
        <time>2018-11-26T04:06:13Z</time>
      </trkpt>
      <trkpt lat="42.40259" lon="2.67444">
        <ele>1052.9</ele>
        <time>2018-11-26T04:06:14Z</time>
      </trkpt>
      <trkpt lat="42.4026" lon="2.67445">
        <ele>1053</ele>
        <time>2018-11-26T04:06:14Z</time>
      </trkpt>
      <trkpt lat="42.40261" lon="2.67446">
        <ele>1053.4</ele>
        <time>2018-11-26T04:06:15Z</time>
      </trkpt>
      <trkpt lat="42.40262" lon="2.67447">
        <ele>1053.9</ele>
        <time>2018-11-26T04:06:15Z</time>
      </trkpt>
      <trkpt lat="42.40262" lon="2.6745">
        <ele>1053.9</ele>
        <time>2018-11-26T04:06:16Z</time>
      </trkpt>
      <trkpt lat="42.40262" lon="2.67453">
        <ele>1053.8</ele>
        <time>2018-11-26T04:06:17Z</time>
      </trkpt>
      <trkpt lat="42.40262" lon="2.67454">
        <ele>1053.7</ele>
        <time>2018-11-26T04:06:17Z</time>
      </trkpt>
      <trkpt lat="42.40262" lon="2.67456">
        <ele>1053.5</ele>
        <time>2018-11-26T04:06:18Z</time>
      </trkpt>
      <trkpt lat="42.40262" lon="2.67457">
        <ele>1053.4</ele>
        <time>2018-11-26T04:06:18Z</time>
      </trkpt>
      <trkpt lat="42.40263" lon="2.67458">
        <ele>1053.2</ele>
        <time>2018-11-26T04:06:18Z</time>
      </trkpt>
      <trkpt lat="42.40263" lon="2.6746">
        <ele>1053.2</ele>
        <time>2018-11-26T04:06:19Z</time>
      </trkpt>
      <trkpt lat="42.40265" lon="2.67464">
        <ele>1053.3</ele>
        <time>2018-11-26T04:06:20Z</time>
      </trkpt>
      <trkpt lat="42.40267" lon="2.67467">
        <ele>1053.7</ele>
        <time>2018-11-26T04:06:22Z</time>
      </trkpt>
      <trkpt lat="42.40268" lon="2.67469">
        <ele>1053.8</ele>
        <time>2018-11-26T04:06:22Z</time>
      </trkpt>
      <trkpt lat="42.4027" lon="2.6747">
        <ele>1054</ele>
        <time>2018-11-26T04:06:23Z</time>
      </trkpt>
      <trkpt lat="42.40273" lon="2.67473">
        <ele>1054.2</ele>
        <time>2018-11-26T04:06:25Z</time>
      </trkpt>
      <trkpt lat="42.40275" lon="2.67475">
        <ele>1054.2</ele>
        <time>2018-11-26T04:06:26Z</time>
      </trkpt>
      <trkpt lat="42.40281" lon="2.67478">
        <ele>1055.3</ele>
        <time>2018-11-26T04:06:28Z</time>
      </trkpt>
      <trkpt lat="42.40282" lon="2.67479">
        <ele>1055.4</ele>
        <time>2018-11-26T04:06:29Z</time>
      </trkpt>
      <trkpt lat="42.40283" lon="2.6748">
        <ele>1055.7</ele>
        <time>2018-11-26T04:06:29Z</time>
      </trkpt>
      <trkpt lat="42.40284" lon="2.6748">
        <ele>1055.8</ele>
        <time>2018-11-26T04:06:30Z</time>
      </trkpt>
      <trkpt lat="42.40285" lon="2.67481">
        <ele>1055.8</ele>
        <time>2018-11-26T04:06:30Z</time>
      </trkpt>
      <trkpt lat="42.4029" lon="2.67483">
        <ele>1056.2</ele>
        <time>2018-11-26T04:06:32Z</time>
      </trkpt>
      <trkpt lat="42.40291" lon="2.67483">
        <ele>1056.3</ele>
        <time>2018-11-26T04:06:32Z</time>
      </trkpt>
      <trkpt lat="42.40292" lon="2.67483">
        <ele>1056.6</ele>
        <time>2018-11-26T04:06:33Z</time>
      </trkpt>
      <trkpt lat="42.40294" lon="2.67485">
        <ele>1056.9</ele>
        <time>2018-11-26T04:06:34Z</time>
      </trkpt>
      <trkpt lat="42.40298" lon="2.67487">
        <ele>1057.1</ele>
        <time>2018-11-26T04:06:35Z</time>
      </trkpt>
      <trkpt lat="42.40299" lon="2.67487">
        <ele>1057.2</ele>
        <time>2018-11-26T04:06:36Z</time>
      </trkpt>
      <trkpt lat="42.40303" lon="2.6749">
        <ele>1058</ele>
        <time>2018-11-26T04:06:38Z</time>
      </trkpt>
      <trkpt lat="42.40305" lon="2.67492">
        <ele>1057.7</ele>
        <time>2018-11-26T04:06:39Z</time>
      </trkpt>
      <trkpt lat="42.40308" lon="2.67494">
        <ele>1057.4</ele>
        <time>2018-11-26T04:06:40Z</time>
      </trkpt>
      <trkpt lat="42.40309" lon="2.67494">
        <ele>1057.1</ele>
        <time>2018-11-26T04:06:40Z</time>
      </trkpt>
      <trkpt lat="42.4031" lon="2.67495">
        <ele>1057.3</ele>
        <time>2018-11-26T04:06:41Z</time>
      </trkpt>
      <trkpt lat="42.40311" lon="2.67496">
        <ele>1057.6</ele>
        <time>2018-11-26T04:06:41Z</time>
      </trkpt>
      <trkpt lat="42.40315" lon="2.67499">
        <ele>1058.5</ele>
        <time>2018-11-26T04:06:43Z</time>
      </trkpt>
      <trkpt lat="42.40316" lon="2.67499">
        <ele>1058.6</ele>
        <time>2018-11-26T04:06:43Z</time>
      </trkpt>
      <trkpt lat="42.40327" lon="2.67509">
        <ele>1059.5</ele>
        <time>2018-11-26T04:06:49Z</time>
      </trkpt>
      <trkpt lat="42.40331" lon="2.67513">
        <ele>1060</ele>
        <time>2018-11-26T04:06:51Z</time>
      </trkpt>
      <trkpt lat="42.40338" lon="2.67519">
        <ele>1060.5</ele>
        <time>2018-11-26T04:06:54Z</time>
      </trkpt>
      <trkpt lat="42.40339" lon="2.6752">
        <ele>1060.7</ele>
        <time>2018-11-26T04:06:54Z</time>
      </trkpt>
      <trkpt lat="42.4034" lon="2.67521">
        <ele>1060.8</ele>
        <time>2018-11-26T04:06:55Z</time>
      </trkpt>
      <trkpt lat="42.40341" lon="2.67522">
        <ele>1060.8</ele>
        <time>2018-11-26T04:06:55Z</time>
      </trkpt>
      <trkpt lat="42.40344" lon="2.67527">
        <ele>1061.3</ele>
        <time>2018-11-26T04:06:57Z</time>
      </trkpt>
      <trkpt lat="42.40345" lon="2.67528">
        <ele>1061.6</ele>
        <time>2018-11-26T04:06:58Z</time>
      </trkpt>
      <trkpt lat="42.40345" lon="2.67529">
        <ele>1062</ele>
        <time>2018-11-26T04:06:58Z</time>
      </trkpt>
      <trkpt lat="42.40345" lon="2.6753">
        <ele>1061.9</ele>
        <time>2018-11-26T04:06:58Z</time>
      </trkpt>
      <trkpt lat="42.40348" lon="2.67539">
        <ele>1060.7</ele>
        <time>2018-11-26T04:07:01Z</time>
      </trkpt>
      <trkpt lat="42.40348" lon="2.6754">
        <ele>1060.8</ele>
        <time>2018-11-26T04:07:02Z</time>
      </trkpt>
      <trkpt lat="42.40349" lon="2.67541">
        <ele>1060.9</ele>
        <time>2018-11-26T04:07:02Z</time>
      </trkpt>
      <trkpt lat="42.40349" lon="2.67541">
        <ele>1061.1</ele>
        <time>2018-11-26T04:07:02Z</time>
      </trkpt>
      <trkpt lat="42.40349" lon="2.67542">
        <ele>1061.1</ele>
        <time>2018-11-26T04:07:02Z</time>
      </trkpt>
      <trkpt lat="42.40349" lon="2.67542">
        <ele>1061.1</ele>
        <time>2018-11-26T04:07:03Z</time>
      </trkpt>
      <trkpt lat="42.40349" lon="2.67543">
        <ele>1061.2</ele>
        <time>2018-11-26T04:07:03Z</time>
      </trkpt>
      <trkpt lat="42.40349" lon="2.67543">
        <ele>1061.2</ele>
        <time>2018-11-26T04:07:03Z</time>
      </trkpt>
      <trkpt lat="42.40348" lon="2.67544">
        <ele>1061.1</ele>
        <time>2018-11-26T04:07:03Z</time>
      </trkpt>
      <trkpt lat="42.40348" lon="2.67545">
        <ele>1061.4</ele>
        <time>2018-11-26T04:07:04Z</time>
      </trkpt>
      <trkpt lat="42.40348" lon="2.67546">
        <ele>1061.3</ele>
        <time>2018-11-26T04:07:04Z</time>
      </trkpt>
      <trkpt lat="42.40348" lon="2.67546">
        <ele>1061.2</ele>
        <time>2018-11-26T04:07:04Z</time>
      </trkpt>
      <trkpt lat="42.40348" lon="2.67547">
        <ele>1061</ele>
        <time>2018-11-26T04:07:04Z</time>
      </trkpt>
      <trkpt lat="42.40348" lon="2.67547">
        <ele>1061.2</ele>
        <time>2018-11-26T04:07:04Z</time>
      </trkpt>
      <trkpt lat="42.40348" lon="2.67548">
        <ele>1061.5</ele>
        <time>2018-11-26T04:07:04Z</time>
      </trkpt>
      <trkpt lat="42.40349" lon="2.67554">
        <ele>1063.2</ele>
        <time>2018-11-26T04:07:06Z</time>
      </trkpt>
      <trkpt lat="42.40349" lon="2.67556">
        <ele>1063.2</ele>
        <time>2018-11-26T04:07:07Z</time>
      </trkpt>
      <trkpt lat="42.40349" lon="2.67558">
        <ele>1063.2</ele>
        <time>2018-11-26T04:07:07Z</time>
      </trkpt>
      <trkpt lat="42.40353" lon="2.67568">
        <ele>1063.2</ele>
        <time>2018-11-26T04:07:11Z</time>
      </trkpt>
      <trkpt lat="42.40353" lon="2.6757">
        <ele>1063.4</ele>
        <time>2018-11-26T04:07:11Z</time>
      </trkpt>
      <trkpt lat="42.40354" lon="2.67572">
        <ele>1063.4</ele>
        <time>2018-11-26T04:07:12Z</time>
      </trkpt>
      <trkpt lat="42.40354" lon="2.67574">
        <ele>1063.6</ele>
        <time>2018-11-26T04:07:12Z</time>
      </trkpt>
      <trkpt lat="42.40357" lon="2.67581">
        <ele>1064.5</ele>
        <time>2018-11-26T04:07:15Z</time>
      </trkpt>
      <trkpt lat="42.40359" lon="2.67588">
        <ele>1064.9</ele>
        <time>2018-11-26T04:07:17Z</time>
      </trkpt>
      <trkpt lat="42.4036" lon="2.6759">
        <ele>1064.9</ele>
        <time>2018-11-26T04:07:18Z</time>
      </trkpt>
      <trkpt lat="42.40362" lon="2.67594">
        <ele>1064.7</ele>
        <time>2018-11-26T04:07:19Z</time>
      </trkpt>
      <trkpt lat="42.40368" lon="2.67604">
        <ele>1065.8</ele>
        <time>2018-11-26T04:07:23Z</time>
      </trkpt>
      <trkpt lat="42.40372" lon="2.67609">
        <ele>1065.8</ele>
        <time>2018-11-26T04:07:25Z</time>
      </trkpt>
      <trkpt lat="42.40375" lon="2.67613">
        <ele>1065.8</ele>
        <time>2018-11-26T04:07:27Z</time>
      </trkpt>
      <trkpt lat="42.40376" lon="2.67614">
        <ele>1065.9</ele>
        <time>2018-11-26T04:07:27Z</time>
      </trkpt>
      <trkpt lat="42.40378" lon="2.67616">
        <ele>1065.8</ele>
        <time>2018-11-26T04:07:28Z</time>
      </trkpt>
      <trkpt lat="42.40379" lon="2.67618">
        <ele>1065.8</ele>
        <time>2018-11-26T04:07:29Z</time>
      </trkpt>
      <trkpt lat="42.40379" lon="2.6762">
        <ele>1065.9</ele>
        <time>2018-11-26T04:07:29Z</time>
      </trkpt>
      <trkpt lat="42.4038" lon="2.67621">
        <ele>1065.9</ele>
        <time>2018-11-26T04:07:30Z</time>
      </trkpt>
      <trkpt lat="42.40383" lon="2.67625">
        <ele>1066.6</ele>
        <time>2018-11-26T04:07:32Z</time>
      </trkpt>
      <trkpt lat="42.40386" lon="2.6763">
        <ele>1067.1</ele>
        <time>2018-11-26T04:07:34Z</time>
      </trkpt>
      <trkpt lat="42.40387" lon="2.67631">
        <ele>1067</ele>
        <time>2018-11-26T04:07:34Z</time>
      </trkpt>
      <trkpt lat="42.40388" lon="2.67633">
        <ele>1066.5</ele>
        <time>2018-11-26T04:07:35Z</time>
      </trkpt>
      <trkpt lat="42.40395" lon="2.6764">
        <ele>1067.6</ele>
        <time>2018-11-26T04:07:38Z</time>
      </trkpt>
      <trkpt lat="42.40397" lon="2.67644">
        <ele>1068</ele>
        <time>2018-11-26T04:07:40Z</time>
      </trkpt>
      <trkpt lat="42.40398" lon="2.67645">
        <ele>1067.6</ele>
        <time>2018-11-26T04:07:40Z</time>
      </trkpt>
      <trkpt lat="42.40405" lon="2.67657">
        <ele>1067.4</ele>
        <time>2018-11-26T04:07:45Z</time>
      </trkpt>
      <trkpt lat="42.40407" lon="2.67659">
        <ele>1068.1</ele>
        <time>2018-11-26T04:07:46Z</time>
      </trkpt>
      <trkpt lat="42.4041" lon="2.67664">
        <ele>1068.7</ele>
        <time>2018-11-26T04:07:48Z</time>
      </trkpt>
      <trkpt lat="42.40414" lon="2.67669">
        <ele>1068.7</ele>
        <time>2018-11-26T04:07:50Z</time>
      </trkpt>
      <trkpt lat="42.40415" lon="2.6767">
        <ele>1068.4</ele>
        <time>2018-11-26T04:07:50Z</time>
      </trkpt>
      <trkpt lat="42.40417" lon="2.67672">
        <ele>1068.8</ele>
        <time>2018-11-26T04:07:51Z</time>
      </trkpt>
      <trkpt lat="42.40418" lon="2.67674">
        <ele>1069</ele>
        <time>2018-11-26T04:07:52Z</time>
      </trkpt>
      <trkpt lat="42.40419" lon="2.67675">
        <ele>1069.4</ele>
        <time>2018-11-26T04:07:52Z</time>
      </trkpt>
      <trkpt lat="42.4042" lon="2.67676">
        <ele>1069.2</ele>
        <time>2018-11-26T04:07:53Z</time>
      </trkpt>
      <trkpt lat="42.4042" lon="2.67676">
        <ele>1069</ele>
        <time>2018-11-26T04:07:53Z</time>
      </trkpt>
      <trkpt lat="42.4042" lon="2.67676">
        <ele>1068.8</ele>
        <time>2018-11-26T04:07:53Z</time>
      </trkpt>
      <trkpt lat="42.4042" lon="2.67676">
        <ele>1068.9</ele>
        <time>2018-11-26T04:07:53Z</time>
      </trkpt>
      <trkpt lat="42.4042" lon="2.67677">
        <ele>1069</ele>
        <time>2018-11-26T04:07:53Z</time>
      </trkpt>
      <trkpt lat="42.4042" lon="2.67677">
        <ele>1069.2</ele>
        <time>2018-11-26T04:07:53Z</time>
      </trkpt>
      <trkpt lat="42.4042" lon="2.67677">
        <ele>1069.2</ele>
        <time>2018-11-26T04:07:54Z</time>
      </trkpt>
      <trkpt lat="42.4042" lon="2.67677">
        <ele>1069.3</ele>
        <time>2018-11-26T04:07:54Z</time>
      </trkpt>
      <trkpt lat="42.4042" lon="2.67677">
        <ele>1069.4</ele>
        <time>2018-11-26T04:07:54Z</time>
      </trkpt>
      <trkpt lat="42.4042" lon="2.67678">
        <ele>1069.3</ele>
        <time>2018-11-26T04:07:54Z</time>
      </trkpt>
      <trkpt lat="42.40418" lon="2.6768">
        <ele>1070.4</ele>
        <time>2018-11-26T04:07:55Z</time>
      </trkpt>
      <trkpt lat="42.40418" lon="2.6768">
        <ele>1070</ele>
        <time>2018-11-26T04:07:55Z</time>
      </trkpt>
      <trkpt lat="42.40418" lon="2.67681">
        <ele>1069.8</ele>
        <time>2018-11-26T04:07:55Z</time>
      </trkpt>
      <trkpt lat="42.40418" lon="2.67681">
        <ele>1069.3</ele>
        <time>2018-11-26T04:07:55Z</time>
      </trkpt>
      <trkpt lat="42.40418" lon="2.67681">
        <ele>1069.1</ele>
        <time>2018-11-26T04:07:55Z</time>
      </trkpt>
      <trkpt lat="42.40417" lon="2.67682">
        <ele>1069</ele>
        <time>2018-11-26T04:07:55Z</time>
      </trkpt>
      <trkpt lat="42.40417" lon="2.67683">
        <ele>1069.4</ele>
        <time>2018-11-26T04:07:56Z</time>
      </trkpt>
      <trkpt lat="42.40417" lon="2.67684">
        <ele>1069.8</ele>
        <time>2018-11-26T04:07:56Z</time>
      </trkpt>
      <trkpt lat="42.40417" lon="2.67684">
        <ele>1069.9</ele>
        <time>2018-11-26T04:07:56Z</time>
      </trkpt>
      <trkpt lat="42.40417" lon="2.67684">
        <ele>1070</ele>
        <time>2018-11-26T04:07:56Z</time>
      </trkpt>
      <trkpt lat="42.40417" lon="2.67685">
        <ele>1070</ele>
        <time>2018-11-26T04:07:56Z</time>
      </trkpt>
      <trkpt lat="42.40418" lon="2.67685">
        <ele>1070.1</ele>
        <time>2018-11-26T04:07:57Z</time>
      </trkpt>
      <trkpt lat="42.40418" lon="2.67686">
        <ele>1069.9</ele>
        <time>2018-11-26T04:07:57Z</time>
      </trkpt>
      <trkpt lat="42.40418" lon="2.67687">
        <ele>1069.5</ele>
        <time>2018-11-26T04:07:57Z</time>
      </trkpt>
      <trkpt lat="42.40418" lon="2.67688">
        <ele>1069.5</ele>
        <time>2018-11-26T04:07:57Z</time>
      </trkpt>
      <trkpt lat="42.40418" lon="2.67688">
        <ele>1069.4</ele>
        <time>2018-11-26T04:07:57Z</time>
      </trkpt>
      <trkpt lat="42.40418" lon="2.67688">
        <ele>1069.5</ele>
        <time>2018-11-26T04:07:58Z</time>
      </trkpt>
      <trkpt lat="42.40418" lon="2.67689">
        <ele>1069.4</ele>
        <time>2018-11-26T04:07:58Z</time>
      </trkpt>
      <trkpt lat="42.4042" lon="2.67692">
        <ele>1069.4</ele>
        <time>2018-11-26T04:07:59Z</time>
      </trkpt>
      <trkpt lat="42.40421" lon="2.67693">
        <ele>1069.8</ele>
        <time>2018-11-26T04:08:00Z</time>
      </trkpt>
      <trkpt lat="42.40422" lon="2.67694">
        <ele>1070.3</ele>
        <time>2018-11-26T04:08:00Z</time>
      </trkpt>
      <trkpt lat="42.40423" lon="2.67695">
        <ele>1070.3</ele>
        <time>2018-11-26T04:08:01Z</time>
      </trkpt>
      <trkpt lat="42.40424" lon="2.67697">
        <ele>1070.3</ele>
        <time>2018-11-26T04:08:01Z</time>
      </trkpt>
      <trkpt lat="42.40425" lon="2.677">
        <ele>1070.2</ele>
        <time>2018-11-26T04:08:02Z</time>
      </trkpt>
      <trkpt lat="42.40426" lon="2.67701">
        <ele>1070.1</ele>
        <time>2018-11-26T04:08:03Z</time>
      </trkpt>
      <trkpt lat="42.40428" lon="2.67703">
        <ele>1070.2</ele>
        <time>2018-11-26T04:08:04Z</time>
      </trkpt>
      <trkpt lat="42.40429" lon="2.67704">
        <ele>1070.2</ele>
        <time>2018-11-26T04:08:04Z</time>
      </trkpt>
      <trkpt lat="42.4043" lon="2.67707">
        <ele>1070</ele>
        <time>2018-11-26T04:08:05Z</time>
      </trkpt>
      <trkpt lat="42.40432" lon="2.67709">
        <ele>1070.5</ele>
        <time>2018-11-26T04:08:06Z</time>
      </trkpt>
      <trkpt lat="42.40433" lon="2.67711">
        <ele>1071</ele>
        <time>2018-11-26T04:08:07Z</time>
      </trkpt>
      <trkpt lat="42.40434" lon="2.67712">
        <ele>1071.3</ele>
        <time>2018-11-26T04:08:07Z</time>
      </trkpt>
      <trkpt lat="42.40436" lon="2.67716">
        <ele>1071.6</ele>
        <time>2018-11-26T04:08:09Z</time>
      </trkpt>
      <trkpt lat="42.40438" lon="2.67718">
        <ele>1071.6</ele>
        <time>2018-11-26T04:08:09Z</time>
      </trkpt>
      <trkpt lat="42.40438" lon="2.67719">
        <ele>1071.8</ele>
        <time>2018-11-26T04:08:10Z</time>
      </trkpt>
      <trkpt lat="42.40439" lon="2.67721">
        <ele>1072</ele>
        <time>2018-11-26T04:08:10Z</time>
      </trkpt>
      <trkpt lat="42.40439" lon="2.67722">
        <ele>1072.2</ele>
        <time>2018-11-26T04:08:11Z</time>
      </trkpt>
      <trkpt lat="42.4044" lon="2.67723">
        <ele>1072.1</ele>
        <time>2018-11-26T04:08:11Z</time>
      </trkpt>
      <trkpt lat="42.40443" lon="2.67729">
        <ele>1072.3</ele>
        <time>2018-11-26T04:08:13Z</time>
      </trkpt>
      <trkpt lat="42.40445" lon="2.67734">
        <ele>1072.3</ele>
        <time>2018-11-26T04:08:15Z</time>
      </trkpt>
      <trkpt lat="42.40446" lon="2.67737">
        <ele>1072.2</ele>
        <time>2018-11-26T04:08:16Z</time>
      </trkpt>
      <trkpt lat="42.40447" lon="2.67738">
        <ele>1072.1</ele>
        <time>2018-11-26T04:08:17Z</time>
      </trkpt>
      <trkpt lat="42.40447" lon="2.6774">
        <ele>1071.9</ele>
        <time>2018-11-26T04:08:17Z</time>
      </trkpt>
      <trkpt lat="42.40451" lon="2.67749">
        <ele>1073.5</ele>
        <time>2018-11-26T04:08:20Z</time>
      </trkpt>
      <trkpt lat="42.40451" lon="2.67751">
        <ele>1073.5</ele>
        <time>2018-11-26T04:08:21Z</time>
      </trkpt>
      <trkpt lat="42.40452" lon="2.67758">
        <ele>1073</ele>
        <time>2018-11-26T04:08:23Z</time>
      </trkpt>
      <trkpt lat="42.40453" lon="2.67763">
        <ele>1073.7</ele>
        <time>2018-11-26T04:08:24Z</time>
      </trkpt>
      <trkpt lat="42.40454" lon="2.67765">
        <ele>1074</ele>
        <time>2018-11-26T04:08:25Z</time>
      </trkpt>
      <trkpt lat="42.40455" lon="2.67767">
        <ele>1074.5</ele>
        <time>2018-11-26T04:08:26Z</time>
      </trkpt>
      <trkpt lat="42.40455" lon="2.67769">
        <ele>1074.6</ele>
        <time>2018-11-26T04:08:26Z</time>
      </trkpt>
      <trkpt lat="42.40457" lon="2.67778">
        <ele>1075.2</ele>
        <time>2018-11-26T04:08:29Z</time>
      </trkpt>
      <trkpt lat="42.40458" lon="2.6778">
        <ele>1075.4</ele>
        <time>2018-11-26T04:08:30Z</time>
      </trkpt>
      <trkpt lat="42.40459" lon="2.67792">
        <ele>1077</ele>
        <time>2018-11-26T04:08:33Z</time>
      </trkpt>
      <trkpt lat="42.4046" lon="2.67798">
        <ele>1077.1</ele>
        <time>2018-11-26T04:08:35Z</time>
      </trkpt>
      <trkpt lat="42.40461" lon="2.67805">
        <ele>1077.5</ele>
        <time>2018-11-26T04:08:37Z</time>
      </trkpt>
      <trkpt lat="42.40462" lon="2.67811">
        <ele>1077.4</ele>
        <time>2018-11-26T04:08:39Z</time>
      </trkpt>
      <trkpt lat="42.40465" lon="2.6782">
        <ele>1076.9</ele>
        <time>2018-11-26T04:08:42Z</time>
      </trkpt>
      <trkpt lat="42.40468" lon="2.67828">
        <ele>1077</ele>
        <time>2018-11-26T04:08:44Z</time>
      </trkpt>
      <trkpt lat="42.40468" lon="2.67829">
        <ele>1077.2</ele>
        <time>2018-11-26T04:08:45Z</time>
      </trkpt>
      <trkpt lat="42.40468" lon="2.67831">
        <ele>1077.5</ele>
        <time>2018-11-26T04:08:45Z</time>
      </trkpt>
      <trkpt lat="42.40469" lon="2.67833">
        <ele>1077.5</ele>
        <time>2018-11-26T04:08:46Z</time>
      </trkpt>
      <trkpt lat="42.40469" lon="2.67833">
        <ele>1077.5</ele>
        <time>2018-11-26T04:08:46Z</time>
      </trkpt>
      <trkpt lat="42.40469" lon="2.67834">
        <ele>1077.5</ele>
        <time>2018-11-26T04:08:46Z</time>
      </trkpt>
      <trkpt lat="42.40469" lon="2.67835">
        <ele>1077.6</ele>
        <time>2018-11-26T04:08:47Z</time>
      </trkpt>
      <trkpt lat="42.4047" lon="2.67838">
        <ele>1078.2</ele>
        <time>2018-11-26T04:08:48Z</time>
      </trkpt>
      <trkpt lat="42.40471" lon="2.67841">
        <ele>1078</ele>
        <time>2018-11-26T04:08:48Z</time>
      </trkpt>
      <trkpt lat="42.40471" lon="2.67842">
        <ele>1077.9</ele>
        <time>2018-11-26T04:08:49Z</time>
      </trkpt>
      <trkpt lat="42.40472" lon="2.67845">
        <ele>1077.7</ele>
        <time>2018-11-26T04:08:50Z</time>
      </trkpt>
      <trkpt lat="42.40473" lon="2.6785">
        <ele>1077.6</ele>
        <time>2018-11-26T04:08:51Z</time>
      </trkpt>
      <trkpt lat="42.40473" lon="2.67853">
        <ele>1077.9</ele>
        <time>2018-11-26T04:08:52Z</time>
      </trkpt>
      <trkpt lat="42.40475" lon="2.67867">
        <ele>1078.4</ele>
        <time>2018-11-26T04:08:57Z</time>
      </trkpt>
      <trkpt lat="42.40477" lon="2.67885">
        <ele>1079</ele>
        <time>2018-11-26T04:09:02Z</time>
      </trkpt>
      <trkpt lat="42.40477" lon="2.67887">
        <ele>1078.8</ele>
        <time>2018-11-26T04:09:03Z</time>
      </trkpt>
      <trkpt lat="42.40478" lon="2.67916">
        <ele>1078.2</ele>
        <time>2018-11-26T04:09:11Z</time>
      </trkpt>
      <trkpt lat="42.40478" lon="2.6792">
        <ele>1078.5</ele>
        <time>2018-11-26T04:09:12Z</time>
      </trkpt>
      <trkpt lat="42.40478" lon="2.67924">
        <ele>1078.5</ele>
        <time>2018-11-26T04:09:13Z</time>
      </trkpt>
      <trkpt lat="42.40479" lon="2.67927">
        <ele>1078.4</ele>
        <time>2018-11-26T04:09:14Z</time>
      </trkpt>
      <trkpt lat="42.40479" lon="2.67936">
        <ele>1078.7</ele>
        <time>2018-11-26T04:09:17Z</time>
      </trkpt>
      <trkpt lat="42.4048" lon="2.67952">
        <ele>1078.9</ele>
        <time>2018-11-26T04:09:22Z</time>
      </trkpt>
      <trkpt lat="42.4048" lon="2.67957">
        <ele>1078.4</ele>
        <time>2018-11-26T04:09:23Z</time>
      </trkpt>
      <trkpt lat="42.40481" lon="2.67958">
        <ele>1078.5</ele>
        <time>2018-11-26T04:09:24Z</time>
      </trkpt>
      <trkpt lat="42.40481" lon="2.67963">
        <ele>1078.8</ele>
        <time>2018-11-26T04:09:25Z</time>
      </trkpt>
      <trkpt lat="42.40482" lon="2.67965">
        <ele>1078.6</ele>
        <time>2018-11-26T04:09:26Z</time>
      </trkpt>
      <trkpt lat="42.40482" lon="2.6797">
        <ele>1077.8</ele>
        <time>2018-11-26T04:09:27Z</time>
      </trkpt>
      <trkpt lat="42.40482" lon="2.67972">
        <ele>1078</ele>
        <time>2018-11-26T04:09:28Z</time>
      </trkpt>
      <trkpt lat="42.40481" lon="2.67977">
        <ele>1077.9</ele>
        <time>2018-11-26T04:09:29Z</time>
      </trkpt>
      <trkpt lat="42.4048" lon="2.67982">
        <ele>1078.2</ele>
        <time>2018-11-26T04:09:31Z</time>
      </trkpt>
      <trkpt lat="42.40479" lon="2.67985">
        <ele>1078.5</ele>
        <time>2018-11-26T04:09:32Z</time>
      </trkpt>
      <trkpt lat="42.40475" lon="2.67997">
        <ele>1078.3</ele>
        <time>2018-11-26T04:09:36Z</time>
      </trkpt>
      <trkpt lat="42.40475" lon="2.67999">
        <ele>1078.2</ele>
        <time>2018-11-26T04:09:36Z</time>
      </trkpt>
      <trkpt lat="42.40472" lon="2.68009">
        <ele>1077.7</ele>
        <time>2018-11-26T04:09:39Z</time>
      </trkpt>
      <trkpt lat="42.40472" lon="2.6801">
        <ele>1077.7</ele>
        <time>2018-11-26T04:09:40Z</time>
      </trkpt>
      <trkpt lat="42.40471" lon="2.68013">
        <ele>1077.9</ele>
        <time>2018-11-26T04:09:41Z</time>
      </trkpt>
      <trkpt lat="42.4047" lon="2.6802">
        <ele>1077.8</ele>
        <time>2018-11-26T04:09:43Z</time>
      </trkpt>
      <trkpt lat="42.4047" lon="2.68021">
        <ele>1077.8</ele>
        <time>2018-11-26T04:09:43Z</time>
      </trkpt>
      <trkpt lat="42.40471" lon="2.68027">
        <ele>1077.6</ele>
        <time>2018-11-26T04:09:45Z</time>
      </trkpt>
      <trkpt lat="42.40471" lon="2.68033">
        <ele>1077.6</ele>
        <time>2018-11-26T04:09:47Z</time>
      </trkpt>
      <trkpt lat="42.40472" lon="2.68036">
        <ele>1077.3</ele>
        <time>2018-11-26T04:09:48Z</time>
      </trkpt>
      <trkpt lat="42.40472" lon="2.68038">
        <ele>1077.1</ele>
        <time>2018-11-26T04:09:48Z</time>
      </trkpt>
      <trkpt lat="42.40472" lon="2.68039">
        <ele>1077.2</ele>
        <time>2018-11-26T04:09:48Z</time>
      </trkpt>
      <trkpt lat="42.40472" lon="2.68041">
        <ele>1077.3</ele>
        <time>2018-11-26T04:09:49Z</time>
      </trkpt>
      <trkpt lat="42.40471" lon="2.68059">
        <ele>1076.3</ele>
        <time>2018-11-26T04:09:54Z</time>
      </trkpt>
      <trkpt lat="42.40471" lon="2.68062">
        <ele>1075.7</ele>
        <time>2018-11-26T04:09:55Z</time>
      </trkpt>
      <trkpt lat="42.40471" lon="2.68064">
        <ele>1075.8</ele>
        <time>2018-11-26T04:09:56Z</time>
      </trkpt>
      <trkpt lat="42.4047" lon="2.68067">
        <ele>1075.9</ele>
        <time>2018-11-26T04:09:57Z</time>
      </trkpt>
      <trkpt lat="42.4047" lon="2.68069">
        <ele>1076.2</ele>
        <time>2018-11-26T04:09:57Z</time>
      </trkpt>
      <trkpt lat="42.4047" lon="2.68071">
        <ele>1076</ele>
        <time>2018-11-26T04:09:58Z</time>
      </trkpt>
      <trkpt lat="42.4047" lon="2.68075">
        <ele>1075.7</ele>
        <time>2018-11-26T04:09:59Z</time>
      </trkpt>
      <trkpt lat="42.4047" lon="2.68077">
        <ele>1075.5</ele>
        <time>2018-11-26T04:10:00Z</time>
      </trkpt>
      <trkpt lat="42.4047" lon="2.68078">
        <ele>1075.6</ele>
        <time>2018-11-26T04:10:00Z</time>
      </trkpt>
      <trkpt lat="42.4047" lon="2.68079">
        <ele>1075.7</ele>
        <time>2018-11-26T04:10:00Z</time>
      </trkpt>
      <trkpt lat="42.4047" lon="2.68081">
        <ele>1075.7</ele>
        <time>2018-11-26T04:10:01Z</time>
      </trkpt>
      <trkpt lat="42.4047" lon="2.68082">
        <ele>1075.6</ele>
        <time>2018-11-26T04:10:01Z</time>
      </trkpt>
      <trkpt lat="42.4047" lon="2.68085">
        <ele>1075.3</ele>
        <time>2018-11-26T04:10:02Z</time>
      </trkpt>
      <trkpt lat="42.4047" lon="2.68086">
        <ele>1075.4</ele>
        <time>2018-11-26T04:10:02Z</time>
      </trkpt>
      <trkpt lat="42.4047" lon="2.68088">
        <ele>1075.5</ele>
        <time>2018-11-26T04:10:03Z</time>
      </trkpt>
      <trkpt lat="42.4047" lon="2.68092">
        <ele>1076.2</ele>
        <time>2018-11-26T04:10:04Z</time>
      </trkpt>
      <trkpt lat="42.4047" lon="2.68095">
        <ele>1076.4</ele>
        <time>2018-11-26T04:10:05Z</time>
      </trkpt>
      <trkpt lat="42.40469" lon="2.68096">
        <ele>1076.2</ele>
        <time>2018-11-26T04:10:05Z</time>
      </trkpt>
      <trkpt lat="42.40469" lon="2.68099">
        <ele>1075.7</ele>
        <time>2018-11-26T04:10:06Z</time>
      </trkpt>
      <trkpt lat="42.40469" lon="2.681">
        <ele>1075.6</ele>
        <time>2018-11-26T04:10:07Z</time>
      </trkpt>
      <trkpt lat="42.40469" lon="2.68101">
        <ele>1075.3</ele>
        <time>2018-11-26T04:10:07Z</time>
      </trkpt>
      <trkpt lat="42.40469" lon="2.68103">
        <ele>1075</ele>
        <time>2018-11-26T04:10:07Z</time>
      </trkpt>
      <trkpt lat="42.40469" lon="2.68104">
        <ele>1075.2</ele>
        <time>2018-11-26T04:10:08Z</time>
      </trkpt>
      <trkpt lat="42.40469" lon="2.68105">
        <ele>1075.3</ele>
        <time>2018-11-26T04:10:08Z</time>
      </trkpt>
      <trkpt lat="42.40469" lon="2.6811">
        <ele>1075.3</ele>
        <time>2018-11-26T04:10:09Z</time>
      </trkpt>
      <trkpt lat="42.40466" lon="2.68131">
        <ele>1076.2</ele>
        <time>2018-11-26T04:10:16Z</time>
      </trkpt>
      <trkpt lat="42.40465" lon="2.68135">
        <ele>1076.2</ele>
        <time>2018-11-26T04:10:17Z</time>
      </trkpt>
      <trkpt lat="42.40463" lon="2.68143">
        <ele>1076</ele>
        <time>2018-11-26T04:10:19Z</time>
      </trkpt>
      <trkpt lat="42.40463" lon="2.68146">
        <ele>1076.3</ele>
        <time>2018-11-26T04:10:20Z</time>
      </trkpt>
      <trkpt lat="42.40461" lon="2.6815">
        <ele>1075.9</ele>
        <time>2018-11-26T04:10:22Z</time>
      </trkpt>
      <trkpt lat="42.40452" lon="2.68175">
        <ele>1076.4</ele>
        <time>2018-11-26T04:10:30Z</time>
      </trkpt>
      <trkpt lat="42.40449" lon="2.68185">
        <ele>1075.6</ele>
        <time>2018-11-26T04:10:33Z</time>
      </trkpt>
      <trkpt lat="42.40449" lon="2.68186">
        <ele>1075.5</ele>
        <time>2018-11-26T04:10:34Z</time>
      </trkpt>
      <trkpt lat="42.40447" lon="2.68197">
        <ele>1075.4</ele>
        <time>2018-11-26T04:10:37Z</time>
      </trkpt>
      <trkpt lat="42.40446" lon="2.68199">
        <ele>1075.2</ele>
        <time>2018-11-26T04:10:37Z</time>
      </trkpt>
      <trkpt lat="42.40446" lon="2.68207">
        <ele>1075.4</ele>
        <time>2018-11-26T04:10:40Z</time>
      </trkpt>
      <trkpt lat="42.40445" lon="2.68211">
        <ele>1075.5</ele>
        <time>2018-11-26T04:10:41Z</time>
      </trkpt>
      <trkpt lat="42.40447" lon="2.68223">
        <ele>1075.6</ele>
        <time>2018-11-26T04:10:45Z</time>
      </trkpt>
      <trkpt lat="42.40447" lon="2.68225">
        <ele>1075.5</ele>
        <time>2018-11-26T04:10:45Z</time>
      </trkpt>
      <trkpt lat="42.40448" lon="2.68231">
        <ele>1075.6</ele>
        <time>2018-11-26T04:10:47Z</time>
      </trkpt>
      <trkpt lat="42.40449" lon="2.68236">
        <ele>1075.5</ele>
        <time>2018-11-26T04:10:48Z</time>
      </trkpt>
      <trkpt lat="42.40452" lon="2.68243">
        <ele>1075.4</ele>
        <time>2018-11-26T04:10:51Z</time>
      </trkpt>
      <trkpt lat="42.40454" lon="2.68246">
        <ele>1076</ele>
        <time>2018-11-26T04:10:52Z</time>
      </trkpt>
      <trkpt lat="42.40454" lon="2.68247">
        <ele>1076.5</ele>
        <time>2018-11-26T04:10:52Z</time>
      </trkpt>
      <trkpt lat="42.40458" lon="2.68251">
        <ele>1075.6</ele>
        <time>2018-11-26T04:10:54Z</time>
      </trkpt>
      <trkpt lat="42.40463" lon="2.68258">
        <ele>1076.6</ele>
        <time>2018-11-26T04:10:57Z</time>
      </trkpt>
      <trkpt lat="42.40463" lon="2.68259">
        <ele>1076.9</ele>
        <time>2018-11-26T04:10:58Z</time>
      </trkpt>
      <trkpt lat="42.40467" lon="2.68263">
        <ele>1076.5</ele>
        <time>2018-11-26T04:10:59Z</time>
      </trkpt>
      <trkpt lat="42.40468" lon="2.68264">
        <ele>1076</ele>
        <time>2018-11-26T04:11:00Z</time>
      </trkpt>
      <trkpt lat="42.4047" lon="2.68266">
        <ele>1076.1</ele>
        <time>2018-11-26T04:11:01Z</time>
      </trkpt>
      <trkpt lat="42.40471" lon="2.68267">
        <ele>1076.4</ele>
        <time>2018-11-26T04:11:01Z</time>
      </trkpt>
      <trkpt lat="42.40471" lon="2.68268">
        <ele>1076.4</ele>
        <time>2018-11-26T04:11:02Z</time>
      </trkpt>
      <trkpt lat="42.40476" lon="2.68273">
        <ele>1076.4</ele>
        <time>2018-11-26T04:11:04Z</time>
      </trkpt>
      <trkpt lat="42.40477" lon="2.68274">
        <ele>1076.4</ele>
        <time>2018-11-26T04:11:04Z</time>
      </trkpt>
      <trkpt lat="42.40488" lon="2.68289">
        <ele>1075.6</ele>
        <time>2018-11-26T04:11:11Z</time>
      </trkpt>
      <trkpt lat="42.40489" lon="2.68291">
        <ele>1075.4</ele>
        <time>2018-11-26T04:11:11Z</time>
      </trkpt>
      <trkpt lat="42.40493" lon="2.68298">
        <ele>1075.4</ele>
        <time>2018-11-26T04:11:14Z</time>
      </trkpt>
      <trkpt lat="42.40496" lon="2.68303">
        <ele>1075.5</ele>
        <time>2018-11-26T04:11:16Z</time>
      </trkpt>
      <trkpt lat="42.40503" lon="2.68315">
        <ele>1075.9</ele>
        <time>2018-11-26T04:11:20Z</time>
      </trkpt>
      <trkpt lat="42.40505" lon="2.68318">
        <ele>1076.2</ele>
        <time>2018-11-26T04:11:22Z</time>
      </trkpt>
      <trkpt lat="42.40511" lon="2.68329">
        <ele>1074.9</ele>
        <time>2018-11-26T04:11:26Z</time>
      </trkpt>
      <trkpt lat="42.40514" lon="2.68334">
        <ele>1074.7</ele>
        <time>2018-11-26T04:11:28Z</time>
      </trkpt>
      <trkpt lat="42.40527" lon="2.68353">
        <ele>1074.7</ele>
        <time>2018-11-26T04:11:35Z</time>
      </trkpt>
      <trkpt lat="42.40527" lon="2.68354">
        <ele>1075</ele>
        <time>2018-11-26T04:11:36Z</time>
      </trkpt>
      <trkpt lat="42.40544" lon="2.68373">
        <ele>1075.3</ele>
        <time>2018-11-26T04:11:44Z</time>
      </trkpt>
      <trkpt lat="42.40548" lon="2.68377">
        <ele>1075.7</ele>
        <time>2018-11-26T04:11:46Z</time>
      </trkpt>
      <trkpt lat="42.4055" lon="2.6838">
        <ele>1075.3</ele>
        <time>2018-11-26T04:11:48Z</time>
      </trkpt>
      <trkpt lat="42.40551" lon="2.68381">
        <ele>1075.3</ele>
        <time>2018-11-26T04:11:48Z</time>
      </trkpt>
      <trkpt lat="42.40552" lon="2.68382">
        <ele>1075.3</ele>
        <time>2018-11-26T04:11:48Z</time>
      </trkpt>
      <trkpt lat="42.40554" lon="2.68385">
        <ele>1075.4</ele>
        <time>2018-11-26T04:11:50Z</time>
      </trkpt>
      <trkpt lat="42.40558" lon="2.68389">
        <ele>1076.2</ele>
        <time>2018-11-26T04:11:52Z</time>
      </trkpt>
      <trkpt lat="42.40561" lon="2.68393">
        <ele>1075.6</ele>
        <time>2018-11-26T04:11:53Z</time>
      </trkpt>
      <trkpt lat="42.40563" lon="2.68397">
        <ele>1075.5</ele>
        <time>2018-11-26T04:11:55Z</time>
      </trkpt>
      <trkpt lat="42.40569" lon="2.68407">
        <ele>1075.7</ele>
        <time>2018-11-26T04:11:59Z</time>
      </trkpt>
      <trkpt lat="42.4057" lon="2.68411">
        <ele>1075.8</ele>
        <time>2018-11-26T04:12:00Z</time>
      </trkpt>
      <trkpt lat="42.40571" lon="2.68413">
        <ele>1075.7</ele>
        <time>2018-11-26T04:12:00Z</time>
      </trkpt>
      <trkpt lat="42.40573" lon="2.68418">
        <ele>1074.9</ele>
        <time>2018-11-26T04:12:02Z</time>
      </trkpt>
      <trkpt lat="42.40574" lon="2.68421">
        <ele>1074.8</ele>
        <time>2018-11-26T04:12:03Z</time>
      </trkpt>
      <trkpt lat="42.40574" lon="2.68422">
        <ele>1074.8</ele>
        <time>2018-11-26T04:12:04Z</time>
      </trkpt>
      <trkpt lat="42.4058" lon="2.68439">
        <ele>1075.1</ele>
        <time>2018-11-26T04:12:09Z</time>
      </trkpt>
      <trkpt lat="42.40581" lon="2.6844">
        <ele>1075.3</ele>
        <time>2018-11-26T04:12:09Z</time>
      </trkpt>
      <trkpt lat="42.40582" lon="2.68446">
        <ele>1075.7</ele>
        <time>2018-11-26T04:12:11Z</time>
      </trkpt>
      <trkpt lat="42.40589" lon="2.6846">
        <ele>1074.3</ele>
        <time>2018-11-26T04:12:16Z</time>
      </trkpt>
      <trkpt lat="42.4059" lon="2.68463">
        <ele>1074.6</ele>
        <time>2018-11-26T04:12:17Z</time>
      </trkpt>
      <trkpt lat="42.40591" lon="2.68466">
        <ele>1074.6</ele>
        <time>2018-11-26T04:12:18Z</time>
      </trkpt>
      <trkpt lat="42.40593" lon="2.6847">
        <ele>1074.4</ele>
        <time>2018-11-26T04:12:20Z</time>
      </trkpt>
      <trkpt lat="42.40598" lon="2.68477">
        <ele>1075</ele>
        <time>2018-11-26T04:12:22Z</time>
      </trkpt>
      <trkpt lat="42.40598" lon="2.68479">
        <ele>1074.9</ele>
        <time>2018-11-26T04:12:23Z</time>
      </trkpt>
      <trkpt lat="42.40599" lon="2.6848">
        <ele>1074.7</ele>
        <time>2018-11-26T04:12:23Z</time>
      </trkpt>
      <trkpt lat="42.40601" lon="2.68482">
        <ele>1074.5</ele>
        <time>2018-11-26T04:12:24Z</time>
      </trkpt>
      <trkpt lat="42.40604" lon="2.68488">
        <ele>1074.9</ele>
        <time>2018-11-26T04:12:26Z</time>
      </trkpt>
      <trkpt lat="42.40606" lon="2.6849">
        <ele>1074.5</ele>
        <time>2018-11-26T04:12:27Z</time>
      </trkpt>
      <trkpt lat="42.40607" lon="2.68491">
        <ele>1074.1</ele>
        <time>2018-11-26T04:12:28Z</time>
      </trkpt>
      <trkpt lat="42.40608" lon="2.68492">
        <ele>1074.1</ele>
        <time>2018-11-26T04:12:28Z</time>
      </trkpt>
      <trkpt lat="42.40609" lon="2.68493">
        <ele>1074.1</ele>
        <time>2018-11-26T04:12:29Z</time>
      </trkpt>
      <trkpt lat="42.40612" lon="2.68497">
        <ele>1074.5</ele>
        <time>2018-11-26T04:12:31Z</time>
      </trkpt>
      <trkpt lat="42.40613" lon="2.68498">
        <ele>1074.6</ele>
        <time>2018-11-26T04:12:31Z</time>
      </trkpt>
      <trkpt lat="42.40615" lon="2.68499">
        <ele>1074.3</ele>
        <time>2018-11-26T04:12:32Z</time>
      </trkpt>
      <trkpt lat="42.40616" lon="2.685">
        <ele>1074.2</ele>
        <time>2018-11-26T04:12:32Z</time>
      </trkpt>
      <trkpt lat="42.4062" lon="2.68505">
        <ele>1074</ele>
        <time>2018-11-26T04:12:35Z</time>
      </trkpt>
      <trkpt lat="42.40625" lon="2.68512">
        <ele>1073.5</ele>
        <time>2018-11-26T04:12:37Z</time>
      </trkpt>
      <trkpt lat="42.40626" lon="2.68513">
        <ele>1073.3</ele>
        <time>2018-11-26T04:12:38Z</time>
      </trkpt>
      <trkpt lat="42.40634" lon="2.68525">
        <ele>1072.7</ele>
        <time>2018-11-26T04:12:43Z</time>
      </trkpt>
      <trkpt lat="42.40639" lon="2.68533">
        <ele>1072.3</ele>
        <time>2018-11-26T04:12:46Z</time>
      </trkpt>
      <trkpt lat="42.40644" lon="2.6854">
        <ele>1071.8</ele>
        <time>2018-11-26T04:12:49Z</time>
      </trkpt>
      <trkpt lat="42.40646" lon="2.68542">
        <ele>1072.2</ele>
        <time>2018-11-26T04:12:50Z</time>
      </trkpt>
      <trkpt lat="42.40659" lon="2.68554">
        <ele>1071.5</ele>
        <time>2018-11-26T04:12:56Z</time>
      </trkpt>
      <trkpt lat="42.40669" lon="2.68565">
        <ele>1070.7</ele>
        <time>2018-11-26T04:13:01Z</time>
      </trkpt>
      <trkpt lat="42.40669" lon="2.68566">
        <ele>1070.8</ele>
        <time>2018-11-26T04:13:01Z</time>
      </trkpt>
      <trkpt lat="42.4067" lon="2.68567">
        <ele>1070.9</ele>
        <time>2018-11-26T04:13:02Z</time>
      </trkpt>
      <trkpt lat="42.40671" lon="2.68568">
        <ele>1070.8</ele>
        <time>2018-11-26T04:13:02Z</time>
      </trkpt>
      <trkpt lat="42.40671" lon="2.68569">
        <ele>1070.8</ele>
        <time>2018-11-26T04:13:03Z</time>
      </trkpt>
      <trkpt lat="42.40672" lon="2.6857">
        <ele>1071</ele>
        <time>2018-11-26T04:13:03Z</time>
      </trkpt>
      <trkpt lat="42.40672" lon="2.68571">
        <ele>1071.2</ele>
        <time>2018-11-26T04:13:03Z</time>
      </trkpt>
      <trkpt lat="42.40673" lon="2.68572">
        <ele>1071</ele>
        <time>2018-11-26T04:13:04Z</time>
      </trkpt>
      <trkpt lat="42.40674" lon="2.68573">
        <ele>1070.7</ele>
        <time>2018-11-26T04:13:04Z</time>
      </trkpt>
      <trkpt lat="42.40674" lon="2.68574">
        <ele>1070.4</ele>
        <time>2018-11-26T04:13:04Z</time>
      </trkpt>
      <trkpt lat="42.40675" lon="2.68577">
        <ele>1070.6</ele>
        <time>2018-11-26T04:13:06Z</time>
      </trkpt>
      <trkpt lat="42.40676" lon="2.68578">
        <ele>1070.7</ele>
        <time>2018-11-26T04:13:06Z</time>
      </trkpt>
      <trkpt lat="42.40676" lon="2.68579">
        <ele>1070.8</ele>
        <time>2018-11-26T04:13:06Z</time>
      </trkpt>
      <trkpt lat="42.40677" lon="2.68583">
        <ele>1070.6</ele>
        <time>2018-11-26T04:13:07Z</time>
      </trkpt>
      <trkpt lat="42.40677" lon="2.68584">
        <ele>1070.6</ele>
        <time>2018-11-26T04:13:08Z</time>
      </trkpt>
      <trkpt lat="42.40677" lon="2.68585">
        <ele>1070.6</ele>
        <time>2018-11-26T04:13:08Z</time>
      </trkpt>
      <trkpt lat="42.40677" lon="2.68593">
        <ele>1070.6</ele>
        <time>2018-11-26T04:13:11Z</time>
      </trkpt>
      <trkpt lat="42.40677" lon="2.68597">
        <ele>1070.1</ele>
        <time>2018-11-26T04:13:12Z</time>
      </trkpt>
      <trkpt lat="42.40677" lon="2.686">
        <ele>1069.7</ele>
        <time>2018-11-26T04:13:13Z</time>
      </trkpt>
      <trkpt lat="42.40676" lon="2.68602">
        <ele>1069.4</ele>
        <time>2018-11-26T04:13:13Z</time>
      </trkpt>
      <trkpt lat="42.40676" lon="2.68603">
        <ele>1069</ele>
        <time>2018-11-26T04:13:13Z</time>
      </trkpt>
      <trkpt lat="42.40676" lon="2.68604">
        <ele>1069</ele>
        <time>2018-11-26T04:13:14Z</time>
      </trkpt>
      <trkpt lat="42.40676" lon="2.68606">
        <ele>1068.8</ele>
        <time>2018-11-26T04:13:15Z</time>
      </trkpt>
      <trkpt lat="42.40675" lon="2.68609">
        <ele>1069.1</ele>
        <time>2018-11-26T04:13:15Z</time>
      </trkpt>
      <trkpt lat="42.40675" lon="2.6861">
        <ele>1069.1</ele>
        <time>2018-11-26T04:13:16Z</time>
      </trkpt>
      <trkpt lat="42.40674" lon="2.68612">
        <ele>1068.9</ele>
        <time>2018-11-26T04:13:16Z</time>
      </trkpt>
      <trkpt lat="42.40674" lon="2.68613">
        <ele>1068.7</ele>
        <time>2018-11-26T04:13:17Z</time>
      </trkpt>
      <trkpt lat="42.40673" lon="2.68616">
        <ele>1068.1</ele>
        <time>2018-11-26T04:13:17Z</time>
      </trkpt>
      <trkpt lat="42.40673" lon="2.68619">
        <ele>1067.9</ele>
        <time>2018-11-26T04:13:19Z</time>
      </trkpt>
      <trkpt lat="42.40672" lon="2.68621">
        <ele>1068</ele>
        <time>2018-11-26T04:13:19Z</time>
      </trkpt>
      <trkpt lat="42.40672" lon="2.68622">
        <ele>1068.3</ele>
        <time>2018-11-26T04:13:19Z</time>
      </trkpt>
      <trkpt lat="42.40672" lon="2.68623">
        <ele>1068.8</ele>
        <time>2018-11-26T04:13:20Z</time>
      </trkpt>
      <trkpt lat="42.40672" lon="2.68624">
        <ele>1068.6</ele>
        <time>2018-11-26T04:13:20Z</time>
      </trkpt>
      <trkpt lat="42.40671" lon="2.68626">
        <ele>1068.5</ele>
        <time>2018-11-26T04:13:20Z</time>
      </trkpt>
      <trkpt lat="42.40671" lon="2.68628">
        <ele>1068.4</ele>
        <time>2018-11-26T04:13:21Z</time>
      </trkpt>
      <trkpt lat="42.4067" lon="2.6863">
        <ele>1068.4</ele>
        <time>2018-11-26T04:13:22Z</time>
      </trkpt>
      <trkpt lat="42.4067" lon="2.68631">
        <ele>1068.3</ele>
        <time>2018-11-26T04:13:22Z</time>
      </trkpt>
      <trkpt lat="42.4067" lon="2.68632">
        <ele>1068.1</ele>
        <time>2018-11-26T04:13:22Z</time>
      </trkpt>
      <trkpt lat="42.40669" lon="2.68635">
        <ele>1067.4</ele>
        <time>2018-11-26T04:13:23Z</time>
      </trkpt>
      <trkpt lat="42.40669" lon="2.68636">
        <ele>1067.1</ele>
        <time>2018-11-26T04:13:24Z</time>
      </trkpt>
      <trkpt lat="42.40668" lon="2.68638">
        <ele>1066.1</ele>
        <time>2018-11-26T04:13:24Z</time>
      </trkpt>
      <trkpt lat="42.40668" lon="2.68639">
        <ele>1066.1</ele>
        <time>2018-11-26T04:13:25Z</time>
      </trkpt>
      <trkpt lat="42.40667" lon="2.68642">
        <ele>1066.3</ele>
        <time>2018-11-26T04:13:26Z</time>
      </trkpt>
      <trkpt lat="42.40667" lon="2.68643">
        <ele>1066.4</ele>
        <time>2018-11-26T04:13:26Z</time>
      </trkpt>
      <trkpt lat="42.40664" lon="2.68654">
        <ele>1065.8</ele>
        <time>2018-11-26T04:13:29Z</time>
      </trkpt>
      <trkpt lat="42.40663" lon="2.68659">
        <ele>1065.1</ele>
        <time>2018-11-26T04:13:31Z</time>
      </trkpt>
      <trkpt lat="42.40661" lon="2.68665">
        <ele>1065.6</ele>
        <time>2018-11-26T04:13:33Z</time>
      </trkpt>
      <trkpt lat="42.40661" lon="2.68667">
        <ele>1065.6</ele>
        <time>2018-11-26T04:13:33Z</time>
      </trkpt>
      <trkpt lat="42.40659" lon="2.68674">
        <ele>1064.4</ele>
        <time>2018-11-26T04:13:36Z</time>
      </trkpt>
      <trkpt lat="42.40659" lon="2.68675">
        <ele>1064.2</ele>
        <time>2018-11-26T04:13:36Z</time>
      </trkpt>
      <trkpt lat="42.40658" lon="2.68677">
        <ele>1064.1</ele>
        <time>2018-11-26T04:13:37Z</time>
      </trkpt>
      <trkpt lat="42.40657" lon="2.68679">
        <ele>1063.8</ele>
        <time>2018-11-26T04:13:37Z</time>
      </trkpt>
      <trkpt lat="42.40657" lon="2.6868">
        <ele>1063.7</ele>
        <time>2018-11-26T04:13:38Z</time>
      </trkpt>
      <trkpt lat="42.40657" lon="2.68681">
        <ele>1063.5</ele>
        <time>2018-11-26T04:13:38Z</time>
      </trkpt>
      <trkpt lat="42.40656" lon="2.68682">
        <ele>1063.1</ele>
        <time>2018-11-26T04:13:38Z</time>
      </trkpt>
      <trkpt lat="42.40656" lon="2.68683">
        <ele>1062.7</ele>
        <time>2018-11-26T04:13:38Z</time>
      </trkpt>
      <trkpt lat="42.40656" lon="2.68684">
        <ele>1062.7</ele>
        <time>2018-11-26T04:13:39Z</time>
      </trkpt>
      <trkpt lat="42.40656" lon="2.68685">
        <ele>1062.6</ele>
        <time>2018-11-26T04:13:39Z</time>
      </trkpt>
      <trkpt lat="42.40656" lon="2.68686">
        <ele>1062.6</ele>
        <time>2018-11-26T04:13:39Z</time>
      </trkpt>
      <trkpt lat="42.40655" lon="2.68687">
        <ele>1062.5</ele>
        <time>2018-11-26T04:13:40Z</time>
      </trkpt>
      <trkpt lat="42.40655" lon="2.68689">
        <ele>1062.3</ele>
        <time>2018-11-26T04:13:41Z</time>
      </trkpt>
      <trkpt lat="42.40654" lon="2.6869">
        <ele>1062.5</ele>
        <time>2018-11-26T04:13:41Z</time>
      </trkpt>
      <trkpt lat="42.40654" lon="2.68691">
        <ele>1062.5</ele>
        <time>2018-11-26T04:13:41Z</time>
      </trkpt>
      <trkpt lat="42.40653" lon="2.68692">
        <ele>1062.8</ele>
        <time>2018-11-26T04:13:42Z</time>
      </trkpt>
      <trkpt lat="42.40653" lon="2.68693">
        <ele>1062.6</ele>
        <time>2018-11-26T04:13:42Z</time>
      </trkpt>
      <trkpt lat="42.40653" lon="2.68694">
        <ele>1062.4</ele>
        <time>2018-11-26T04:13:42Z</time>
      </trkpt>
      <trkpt lat="42.40652" lon="2.68696">
        <ele>1061.8</ele>
        <time>2018-11-26T04:13:43Z</time>
      </trkpt>
      <trkpt lat="42.40652" lon="2.68699">
        <ele>1061.2</ele>
        <time>2018-11-26T04:13:44Z</time>
      </trkpt>
      <trkpt lat="42.40652" lon="2.687">
        <ele>1061.1</ele>
        <time>2018-11-26T04:13:44Z</time>
      </trkpt>
      <trkpt lat="42.40652" lon="2.68701">
        <ele>1061</ele>
        <time>2018-11-26T04:13:44Z</time>
      </trkpt>
      <trkpt lat="42.40651" lon="2.68702">
        <ele>1060.8</ele>
        <time>2018-11-26T04:13:45Z</time>
      </trkpt>
      <trkpt lat="42.40651" lon="2.68703">
        <ele>1060.6</ele>
        <time>2018-11-26T04:13:45Z</time>
      </trkpt>
      <trkpt lat="42.40651" lon="2.68705">
        <ele>1060.7</ele>
        <time>2018-11-26T04:13:45Z</time>
      </trkpt>
      <trkpt lat="42.4065" lon="2.68705">
        <ele>1060.9</ele>
        <time>2018-11-26T04:13:46Z</time>
      </trkpt>
      <trkpt lat="42.4065" lon="2.68707">
        <ele>1061</ele>
        <time>2018-11-26T04:13:46Z</time>
      </trkpt>
      <trkpt lat="42.4065" lon="2.68708">
        <ele>1060.9</ele>
        <time>2018-11-26T04:13:46Z</time>
      </trkpt>
      <trkpt lat="42.40649" lon="2.6871">
        <ele>1060.8</ele>
        <time>2018-11-26T04:13:47Z</time>
      </trkpt>
      <trkpt lat="42.40648" lon="2.68711">
        <ele>1060.9</ele>
        <time>2018-11-26T04:13:48Z</time>
      </trkpt>
      <trkpt lat="42.40648" lon="2.68713">
        <ele>1061.1</ele>
        <time>2018-11-26T04:13:48Z</time>
      </trkpt>
      <trkpt lat="42.40648" lon="2.68714">
        <ele>1061.3</ele>
        <time>2018-11-26T04:13:48Z</time>
      </trkpt>
      <trkpt lat="42.40648" lon="2.68718">
        <ele>1061.4</ele>
        <time>2018-11-26T04:13:50Z</time>
      </trkpt>
      <trkpt lat="42.40647" lon="2.6872">
        <ele>1061</ele>
        <time>2018-11-26T04:13:50Z</time>
      </trkpt>
      <trkpt lat="42.40647" lon="2.68721">
        <ele>1060.7</ele>
        <time>2018-11-26T04:13:50Z</time>
      </trkpt>
      <trkpt lat="42.40647" lon="2.68722">
        <ele>1060.1</ele>
        <time>2018-11-26T04:13:51Z</time>
      </trkpt>
      <trkpt lat="42.40647" lon="2.68723">
        <ele>1059.7</ele>
        <time>2018-11-26T04:13:51Z</time>
      </trkpt>
      <trkpt lat="42.40647" lon="2.68724">
        <ele>1059.3</ele>
        <time>2018-11-26T04:13:51Z</time>
      </trkpt>
      <trkpt lat="42.40647" lon="2.68725">
        <ele>1058.7</ele>
        <time>2018-11-26T04:13:52Z</time>
      </trkpt>
      <trkpt lat="42.40647" lon="2.68725">
        <ele>1058.7</ele>
        <time>2018-11-26T04:13:52Z</time>
      </trkpt>
      <trkpt lat="42.40646" lon="2.68726">
        <ele>1058.4</ele>
        <time>2018-11-26T04:13:52Z</time>
      </trkpt>
      <trkpt lat="42.40646" lon="2.68727">
        <ele>1058.3</ele>
        <time>2018-11-26T04:13:52Z</time>
      </trkpt>
      <trkpt lat="42.40646" lon="2.68728">
        <ele>1058.4</ele>
        <time>2018-11-26T04:13:53Z</time>
      </trkpt>
      <trkpt lat="42.40646" lon="2.6873">
        <ele>1058.6</ele>
        <time>2018-11-26T04:13:53Z</time>
      </trkpt>
      <trkpt lat="42.40646" lon="2.68731">
        <ele>1058.7</ele>
        <time>2018-11-26T04:13:54Z</time>
      </trkpt>
      <trkpt lat="42.40646" lon="2.68731">
        <ele>1058.7</ele>
        <time>2018-11-26T04:13:54Z</time>
      </trkpt>
      <trkpt lat="42.40646" lon="2.68733">
        <ele>1058.3</ele>
        <time>2018-11-26T04:13:54Z</time>
      </trkpt>
      <trkpt lat="42.40645" lon="2.68735">
        <ele>1058.2</ele>
        <time>2018-11-26T04:13:55Z</time>
      </trkpt>
      <trkpt lat="42.40645" lon="2.68736">
        <ele>1058.3</ele>
        <time>2018-11-26T04:13:55Z</time>
      </trkpt>
      <trkpt lat="42.40645" lon="2.68737">
        <ele>1058.3</ele>
        <time>2018-11-26T04:13:55Z</time>
      </trkpt>
      <trkpt lat="42.40645" lon="2.68738">
        <ele>1058.2</ele>
        <time>2018-11-26T04:13:56Z</time>
      </trkpt>
      <trkpt lat="42.40645" lon="2.68739">
        <ele>1058.2</ele>
        <time>2018-11-26T04:13:56Z</time>
      </trkpt>
      <trkpt lat="42.40644" lon="2.68741">
        <ele>1058.2</ele>
        <time>2018-11-26T04:13:57Z</time>
      </trkpt>
      <trkpt lat="42.40644" lon="2.68742">
        <ele>1058.4</ele>
        <time>2018-11-26T04:13:57Z</time>
      </trkpt>
      <trkpt lat="42.40645" lon="2.68742">
        <ele>1058.1</ele>
        <time>2018-11-26T04:13:57Z</time>
      </trkpt>
      <trkpt lat="42.40644" lon="2.68743">
        <ele>1058</ele>
        <time>2018-11-26T04:13:57Z</time>
      </trkpt>
      <trkpt lat="42.40644" lon="2.68744">
        <ele>1057.6</ele>
        <time>2018-11-26T04:13:58Z</time>
      </trkpt>
      <trkpt lat="42.40644" lon="2.68745">
        <ele>1057.4</ele>
        <time>2018-11-26T04:13:58Z</time>
      </trkpt>
      <trkpt lat="42.40644" lon="2.68746">
        <ele>1057.4</ele>
        <time>2018-11-26T04:13:58Z</time>
      </trkpt>
      <trkpt lat="42.40644" lon="2.68747">
        <ele>1057</ele>
        <time>2018-11-26T04:13:58Z</time>
      </trkpt>
      <trkpt lat="42.40644" lon="2.68748">
        <ele>1057</ele>
        <time>2018-11-26T04:13:59Z</time>
      </trkpt>
      <trkpt lat="42.40644" lon="2.68749">
        <ele>1056.7</ele>
        <time>2018-11-26T04:13:59Z</time>
      </trkpt>
      <trkpt lat="42.40644" lon="2.6875">
        <ele>1056.3</ele>
        <time>2018-11-26T04:13:59Z</time>
      </trkpt>
      <trkpt lat="42.40644" lon="2.68751">
        <ele>1056.3</ele>
        <time>2018-11-26T04:14:00Z</time>
      </trkpt>
      <trkpt lat="42.40643" lon="2.68754">
        <ele>1055.9</ele>
        <time>2018-11-26T04:14:01Z</time>
      </trkpt>
      <trkpt lat="42.40642" lon="2.68758">
        <ele>1056.3</ele>
        <time>2018-11-26T04:14:02Z</time>
      </trkpt>
      <trkpt lat="42.40642" lon="2.6876">
        <ele>1056.2</ele>
        <time>2018-11-26T04:14:02Z</time>
      </trkpt>
      <trkpt lat="42.40642" lon="2.68761">
        <ele>1056</ele>
        <time>2018-11-26T04:14:03Z</time>
      </trkpt>
      <trkpt lat="42.40641" lon="2.68762">
        <ele>1056</ele>
        <time>2018-11-26T04:14:03Z</time>
      </trkpt>
      <trkpt lat="42.40639" lon="2.68768">
        <ele>1056.2</ele>
        <time>2018-11-26T04:14:05Z</time>
      </trkpt>
      <trkpt lat="42.40639" lon="2.68769">
        <ele>1056.2</ele>
        <time>2018-11-26T04:14:05Z</time>
      </trkpt>
      <trkpt lat="42.40638" lon="2.6877">
        <ele>1056</ele>
        <time>2018-11-26T04:14:06Z</time>
      </trkpt>
      <trkpt lat="42.40638" lon="2.6877">
        <ele>1055.8</ele>
        <time>2018-11-26T04:14:06Z</time>
      </trkpt>
      <trkpt lat="42.40638" lon="2.68772">
        <ele>1055.3</ele>
        <time>2018-11-26T04:14:06Z</time>
      </trkpt>
      <trkpt lat="42.40637" lon="2.68774">
        <ele>1055.4</ele>
        <time>2018-11-26T04:14:07Z</time>
      </trkpt>
      <trkpt lat="42.40636" lon="2.68776">
        <ele>1055.5</ele>
        <time>2018-11-26T04:14:08Z</time>
      </trkpt>
      <trkpt lat="42.40636" lon="2.68777">
        <ele>1055.5</ele>
        <time>2018-11-26T04:14:08Z</time>
      </trkpt>
      <trkpt lat="42.40635" lon="2.68778">
        <ele>1055.6</ele>
        <time>2018-11-26T04:14:09Z</time>
      </trkpt>
      <trkpt lat="42.40634" lon="2.68779">
        <ele>1055.7</ele>
        <time>2018-11-26T04:14:09Z</time>
      </trkpt>
      <trkpt lat="42.40634" lon="2.68781">
        <ele>1055.6</ele>
        <time>2018-11-26T04:14:09Z</time>
      </trkpt>
      <trkpt lat="42.40632" lon="2.68785">
        <ele>1054.8</ele>
        <time>2018-11-26T04:14:11Z</time>
      </trkpt>
      <trkpt lat="42.40631" lon="2.68786">
        <ele>1054.5</ele>
        <time>2018-11-26T04:14:11Z</time>
      </trkpt>
      <trkpt lat="42.40631" lon="2.68787">
        <ele>1054.4</ele>
        <time>2018-11-26T04:14:12Z</time>
      </trkpt>
      <trkpt lat="42.40631" lon="2.68788">
        <ele>1054.3</ele>
        <time>2018-11-26T04:14:12Z</time>
      </trkpt>
      <trkpt lat="42.4063" lon="2.68789">
        <ele>1054.2</ele>
        <time>2018-11-26T04:14:12Z</time>
      </trkpt>
      <trkpt lat="42.4063" lon="2.68792">
        <ele>1054</ele>
        <time>2018-11-26T04:14:13Z</time>
      </trkpt>
      <trkpt lat="42.40629" lon="2.68793">
        <ele>1054.2</ele>
        <time>2018-11-26T04:14:13Z</time>
      </trkpt>
      <trkpt lat="42.40628" lon="2.68796">
        <ele>1054.4</ele>
        <time>2018-11-26T04:14:15Z</time>
      </trkpt>
      <trkpt lat="42.40628" lon="2.68797">
        <ele>1054.4</ele>
        <time>2018-11-26T04:14:15Z</time>
      </trkpt>
      <trkpt lat="42.40627" lon="2.68798">
        <ele>1054.3</ele>
        <time>2018-11-26T04:14:15Z</time>
      </trkpt>
      <trkpt lat="42.40627" lon="2.68799">
        <ele>1054.2</ele>
        <time>2018-11-26T04:14:16Z</time>
      </trkpt>
      <trkpt lat="42.40627" lon="2.688">
        <ele>1053.8</ele>
        <time>2018-11-26T04:14:16Z</time>
      </trkpt>
      <trkpt lat="42.40626" lon="2.68802">
        <ele>1053.5</ele>
        <time>2018-11-26T04:14:16Z</time>
      </trkpt>
      <trkpt lat="42.40626" lon="2.68803">
        <ele>1053.1</ele>
        <time>2018-11-26T04:14:17Z</time>
      </trkpt>
      <trkpt lat="42.40626" lon="2.68804">
        <ele>1052.5</ele>
        <time>2018-11-26T04:14:17Z</time>
      </trkpt>
      <trkpt lat="42.40625" lon="2.68805">
        <ele>1052.5</ele>
        <time>2018-11-26T04:14:17Z</time>
      </trkpt>
      <trkpt lat="42.40625" lon="2.68806">
        <ele>1052.5</ele>
        <time>2018-11-26T04:14:18Z</time>
      </trkpt>
      <trkpt lat="42.40625" lon="2.68807">
        <ele>1052.4</ele>
        <time>2018-11-26T04:14:18Z</time>
      </trkpt>
      <trkpt lat="42.40625" lon="2.68807">
        <ele>1052.4</ele>
        <time>2018-11-26T04:14:18Z</time>
      </trkpt>
      <trkpt lat="42.40624" lon="2.68808">
        <ele>1052.4</ele>
        <time>2018-11-26T04:14:19Z</time>
      </trkpt>
      <trkpt lat="42.40624" lon="2.6881">
        <ele>1052.4</ele>
        <time>2018-11-26T04:14:19Z</time>
      </trkpt>
      <trkpt lat="42.40624" lon="2.6881">
        <ele>1052.5</ele>
        <time>2018-11-26T04:14:19Z</time>
      </trkpt>
      <trkpt lat="42.40624" lon="2.68811">
        <ele>1052.4</ele>
        <time>2018-11-26T04:14:19Z</time>
      </trkpt>
      <trkpt lat="42.40623" lon="2.68812">
        <ele>1052.4</ele>
        <time>2018-11-26T04:14:20Z</time>
      </trkpt>
      <trkpt lat="42.40623" lon="2.68813">
        <ele>1052.3</ele>
        <time>2018-11-26T04:14:20Z</time>
      </trkpt>
      <trkpt lat="42.40623" lon="2.68814">
        <ele>1052</ele>
        <time>2018-11-26T04:14:20Z</time>
      </trkpt>
      <trkpt lat="42.40623" lon="2.68815">
        <ele>1051.8</ele>
        <time>2018-11-26T04:14:21Z</time>
      </trkpt>
      <trkpt lat="42.40623" lon="2.68816">
        <ele>1051.5</ele>
        <time>2018-11-26T04:14:21Z</time>
      </trkpt>
      <trkpt lat="42.40622" lon="2.68816">
        <ele>1051.5</ele>
        <time>2018-11-26T04:14:21Z</time>
      </trkpt>
      <trkpt lat="42.40622" lon="2.68817">
        <ele>1051.2</ele>
        <time>2018-11-26T04:14:21Z</time>
      </trkpt>
      <trkpt lat="42.40621" lon="2.6882">
        <ele>1051.1</ele>
        <time>2018-11-26T04:14:22Z</time>
      </trkpt>
      <trkpt lat="42.40621" lon="2.68821">
        <ele>1051.2</ele>
        <time>2018-11-26T04:14:23Z</time>
      </trkpt>
      <trkpt lat="42.4062" lon="2.68822">
        <ele>1051.3</ele>
        <time>2018-11-26T04:14:23Z</time>
      </trkpt>
      <trkpt lat="42.4062" lon="2.68823">
        <ele>1051.3</ele>
        <time>2018-11-26T04:14:23Z</time>
      </trkpt>
      <trkpt lat="42.40619" lon="2.68824">
        <ele>1051</ele>
        <time>2018-11-26T04:14:24Z</time>
      </trkpt>
      <trkpt lat="42.40619" lon="2.68825">
        <ele>1050.9</ele>
        <time>2018-11-26T04:14:24Z</time>
      </trkpt>
      <trkpt lat="42.40619" lon="2.68826">
        <ele>1050.6</ele>
        <time>2018-11-26T04:14:24Z</time>
      </trkpt>
      <trkpt lat="42.40619" lon="2.68827">
        <ele>1050.4</ele>
        <time>2018-11-26T04:14:25Z</time>
      </trkpt>
      <trkpt lat="42.40618" lon="2.68828">
        <ele>1050.3</ele>
        <time>2018-11-26T04:14:25Z</time>
      </trkpt>
      <trkpt lat="42.40618" lon="2.68829">
        <ele>1050.3</ele>
        <time>2018-11-26T04:14:25Z</time>
      </trkpt>
      <trkpt lat="42.40618" lon="2.6883">
        <ele>1050.3</ele>
        <time>2018-11-26T04:14:26Z</time>
      </trkpt>
      <trkpt lat="42.40618" lon="2.68831">
        <ele>1050.4</ele>
        <time>2018-11-26T04:14:26Z</time>
      </trkpt>
      <trkpt lat="42.40618" lon="2.68831">
        <ele>1050.6</ele>
        <time>2018-11-26T04:14:26Z</time>
      </trkpt>
      <trkpt lat="42.40618" lon="2.68832">
        <ele>1050.6</ele>
        <time>2018-11-26T04:14:26Z</time>
      </trkpt>
      <trkpt lat="42.40618" lon="2.68832">
        <ele>1050.8</ele>
        <time>2018-11-26T04:14:26Z</time>
      </trkpt>
      <trkpt lat="42.40619" lon="2.68832">
        <ele>1050.8</ele>
        <time>2018-11-26T04:14:26Z</time>
      </trkpt>
      <trkpt lat="42.40618" lon="2.68832">
        <ele>1050.9</ele>
        <time>2018-11-26T04:14:26Z</time>
      </trkpt>
      <trkpt lat="42.40618" lon="2.68833">
        <ele>1051.2</ele>
        <time>2018-11-26T04:14:27Z</time>
      </trkpt>
      <trkpt lat="42.40618" lon="2.68833">
        <ele>1051.4</ele>
        <time>2018-11-26T04:14:27Z</time>
      </trkpt>
      <trkpt lat="42.40617" lon="2.68834">
        <ele>1051.2</ele>
        <time>2018-11-26T04:14:27Z</time>
      </trkpt>
      <trkpt lat="42.40617" lon="2.68836">
        <ele>1050.9</ele>
        <time>2018-11-26T04:14:28Z</time>
      </trkpt>
      <trkpt lat="42.40616" lon="2.68837">
        <ele>1050.6</ele>
        <time>2018-11-26T04:14:28Z</time>
      </trkpt>
      <trkpt lat="42.40616" lon="2.68838">
        <ele>1050.2</ele>
        <time>2018-11-26T04:14:28Z</time>
      </trkpt>
      <trkpt lat="42.40617" lon="2.68839">
        <ele>1050.2</ele>
        <time>2018-11-26T04:14:29Z</time>
      </trkpt>
      <trkpt lat="42.40616" lon="2.6884">
        <ele>1050.1</ele>
        <time>2018-11-26T04:14:29Z</time>
      </trkpt>
      <trkpt lat="42.40616" lon="2.6884">
        <ele>1049.9</ele>
        <time>2018-11-26T04:14:29Z</time>
      </trkpt>
      <trkpt lat="42.40616" lon="2.6884">
        <ele>1050.1</ele>
        <time>2018-11-26T04:14:29Z</time>
      </trkpt>
      <trkpt lat="42.40615" lon="2.68843">
        <ele>1050.3</ele>
        <time>2018-11-26T04:14:30Z</time>
      </trkpt>
      <trkpt lat="42.40614" lon="2.68844">
        <ele>1050.3</ele>
        <time>2018-11-26T04:14:30Z</time>
      </trkpt>
      <trkpt lat="42.40614" lon="2.68845">
        <ele>1050.3</ele>
        <time>2018-11-26T04:14:31Z</time>
      </trkpt>
      <trkpt lat="42.40614" lon="2.68846">
        <ele>1050.5</ele>
        <time>2018-11-26T04:14:31Z</time>
      </trkpt>
      <trkpt lat="42.40614" lon="2.68847">
        <ele>1050.6</ele>
        <time>2018-11-26T04:14:31Z</time>
      </trkpt>
      <trkpt lat="42.40614" lon="2.68848">
        <ele>1051</ele>
        <time>2018-11-26T04:14:31Z</time>
      </trkpt>
      <trkpt lat="42.40612" lon="2.68854">
        <ele>1049.5</ele>
        <time>2018-11-26T04:14:34Z</time>
      </trkpt>
      <trkpt lat="42.40611" lon="2.68856">
        <ele>1049.2</ele>
        <time>2018-11-26T04:14:34Z</time>
      </trkpt>
      <trkpt lat="42.40611" lon="2.68857">
        <ele>1048.6</ele>
        <time>2018-11-26T04:14:34Z</time>
      </trkpt>
      <trkpt lat="42.40611" lon="2.68858">
        <ele>1048.4</ele>
        <time>2018-11-26T04:14:35Z</time>
      </trkpt>
      <trkpt lat="42.40609" lon="2.6886">
        <ele>1048.1</ele>
        <time>2018-11-26T04:14:36Z</time>
      </trkpt>
      <trkpt lat="42.40608" lon="2.68863">
        <ele>1048.4</ele>
        <time>2018-11-26T04:14:36Z</time>
      </trkpt>
      <trkpt lat="42.40608" lon="2.68864">
        <ele>1048.8</ele>
        <time>2018-11-26T04:14:37Z</time>
      </trkpt>
      <trkpt lat="42.40608" lon="2.68865">
        <ele>1048.8</ele>
        <time>2018-11-26T04:14:37Z</time>
      </trkpt>
      <trkpt lat="42.40606" lon="2.68867">
        <ele>1049</ele>
        <time>2018-11-26T04:14:38Z</time>
      </trkpt>
      <trkpt lat="42.40606" lon="2.68868">
        <ele>1049.1</ele>
        <time>2018-11-26T04:14:38Z</time>
      </trkpt>
      <trkpt lat="42.40606" lon="2.68869">
        <ele>1049.3</ele>
        <time>2018-11-26T04:14:39Z</time>
      </trkpt>
      <trkpt lat="42.40605" lon="2.6887">
        <ele>1049.5</ele>
        <time>2018-11-26T04:14:39Z</time>
      </trkpt>
      <trkpt lat="42.40605" lon="2.68871">
        <ele>1049.3</ele>
        <time>2018-11-26T04:14:39Z</time>
      </trkpt>
      <trkpt lat="42.40605" lon="2.68872">
        <ele>1049</ele>
        <time>2018-11-26T04:14:40Z</time>
      </trkpt>
      <trkpt lat="42.40604" lon="2.68873">
        <ele>1048.7</ele>
        <time>2018-11-26T04:14:40Z</time>
      </trkpt>
      <trkpt lat="42.40604" lon="2.68874">
        <ele>1048.1</ele>
        <time>2018-11-26T04:14:40Z</time>
      </trkpt>
      <trkpt lat="42.40602" lon="2.68877">
        <ele>1047</ele>
        <time>2018-11-26T04:14:41Z</time>
      </trkpt>
      <trkpt lat="42.40599" lon="2.68886">
        <ele>1048.5</ele>
        <time>2018-11-26T04:14:44Z</time>
      </trkpt>
      <trkpt lat="42.40598" lon="2.68887">
        <ele>1048.1</ele>
        <time>2018-11-26T04:14:45Z</time>
      </trkpt>
      <trkpt lat="42.40598" lon="2.68888">
        <ele>1048.1</ele>
        <time>2018-11-26T04:14:45Z</time>
      </trkpt>
      <trkpt lat="42.40598" lon="2.68889">
        <ele>1048.2</ele>
        <time>2018-11-26T04:14:45Z</time>
      </trkpt>
      <trkpt lat="42.40597" lon="2.6889">
        <ele>1048.3</ele>
        <time>2018-11-26T04:14:46Z</time>
      </trkpt>
      <trkpt lat="42.40597" lon="2.68891">
        <ele>1048.4</ele>
        <time>2018-11-26T04:14:46Z</time>
      </trkpt>
      <trkpt lat="42.40597" lon="2.68891">
        <ele>1048.4</ele>
        <time>2018-11-26T04:14:46Z</time>
      </trkpt>
      <trkpt lat="42.40597" lon="2.68892">
        <ele>1048.5</ele>
        <time>2018-11-26T04:14:46Z</time>
      </trkpt>
      <trkpt lat="42.40597" lon="2.68892">
        <ele>1048.4</ele>
        <time>2018-11-26T04:14:46Z</time>
      </trkpt>
      <trkpt lat="42.40596" lon="2.68892">
        <ele>1048.5</ele>
        <time>2018-11-26T04:14:46Z</time>
      </trkpt>
      <trkpt lat="42.40596" lon="2.68892">
        <ele>1048.7</ele>
        <time>2018-11-26T04:14:47Z</time>
      </trkpt>
      <trkpt lat="42.40597" lon="2.68894">
        <ele>1048.8</ele>
        <time>2018-11-26T04:14:47Z</time>
      </trkpt>
      <trkpt lat="42.40597" lon="2.68896">
        <ele>1048.9</ele>
        <time>2018-11-26T04:14:48Z</time>
      </trkpt>
      <trkpt lat="42.40597" lon="2.68897">
        <ele>1049</ele>
        <time>2018-11-26T04:14:48Z</time>
      </trkpt>
      <trkpt lat="42.40597" lon="2.68898">
        <ele>1048.9</ele>
        <time>2018-11-26T04:14:48Z</time>
      </trkpt>
      <trkpt lat="42.40597" lon="2.68899">
        <ele>1049.1</ele>
        <time>2018-11-26T04:14:49Z</time>
      </trkpt>
      <trkpt lat="42.40597" lon="2.68902">
        <ele>1049.5</ele>
        <time>2018-11-26T04:14:49Z</time>
      </trkpt>
      <trkpt lat="42.40597" lon="2.68903">
        <ele>1049.8</ele>
        <time>2018-11-26T04:14:50Z</time>
      </trkpt>
      <trkpt lat="42.40598" lon="2.68905">
        <ele>1050.1</ele>
        <time>2018-11-26T04:14:50Z</time>
      </trkpt>
      <trkpt lat="42.40598" lon="2.68907">
        <ele>1051.1</ele>
        <time>2018-11-26T04:14:51Z</time>
      </trkpt>
      <trkpt lat="42.40598" lon="2.68908">
        <ele>1051.5</ele>
        <time>2018-11-26T04:14:51Z</time>
      </trkpt>
      <trkpt lat="42.40599" lon="2.6891">
        <ele>1052.4</ele>
        <time>2018-11-26T04:14:52Z</time>
      </trkpt>
      <trkpt lat="42.406" lon="2.68911">
        <ele>1052.3</ele>
        <time>2018-11-26T04:14:52Z</time>
      </trkpt>
      <trkpt lat="42.406" lon="2.68912">
        <ele>1052.2</ele>
        <time>2018-11-26T04:14:53Z</time>
      </trkpt>
      <trkpt lat="42.40601" lon="2.68913">
        <ele>1052.1</ele>
        <time>2018-11-26T04:14:53Z</time>
      </trkpt>
      <trkpt lat="42.40601" lon="2.68914">
        <ele>1052</ele>
        <time>2018-11-26T04:14:53Z</time>
      </trkpt>
      <trkpt lat="42.40602" lon="2.68915">
        <ele>1052.2</ele>
        <time>2018-11-26T04:14:54Z</time>
      </trkpt>
      <trkpt lat="42.40602" lon="2.68915">
        <ele>1052.3</ele>
        <time>2018-11-26T04:14:54Z</time>
      </trkpt>
      <trkpt lat="42.40603" lon="2.68916">
        <ele>1052.3</ele>
        <time>2018-11-26T04:14:54Z</time>
      </trkpt>
      <trkpt lat="42.40603" lon="2.68916">
        <ele>1052.5</ele>
        <time>2018-11-26T04:14:55Z</time>
      </trkpt>
      <trkpt lat="42.40603" lon="2.68917">
        <ele>1052.6</ele>
        <time>2018-11-26T04:14:55Z</time>
      </trkpt>
      <trkpt lat="42.40604" lon="2.68918">
        <ele>1052.6</ele>
        <time>2018-11-26T04:14:55Z</time>
      </trkpt>
      <trkpt lat="42.40604" lon="2.68918">
        <ele>1052.7</ele>
        <time>2018-11-26T04:14:55Z</time>
      </trkpt>
      <trkpt lat="42.40605" lon="2.68919">
        <ele>1052.9</ele>
        <time>2018-11-26T04:14:56Z</time>
      </trkpt>
      <trkpt lat="42.40605" lon="2.68919">
        <ele>1053</ele>
        <time>2018-11-26T04:14:56Z</time>
      </trkpt>
      <trkpt lat="42.40605" lon="2.68919">
        <ele>1053</ele>
        <time>2018-11-26T04:14:56Z</time>
      </trkpt>
      <trkpt lat="42.40605" lon="2.6892">
        <ele>1053</ele>
        <time>2018-11-26T04:14:56Z</time>
      </trkpt>
      <trkpt lat="42.40605" lon="2.6892">
        <ele>1052.8</ele>
        <time>2018-11-26T04:14:56Z</time>
      </trkpt>
      <trkpt lat="42.40605" lon="2.6892">
        <ele>1052.9</ele>
        <time>2018-11-26T04:14:56Z</time>
      </trkpt>
      <trkpt lat="42.40605" lon="2.6892">
        <ele>1053</ele>
        <time>2018-11-26T04:14:56Z</time>
      </trkpt>
      <trkpt lat="42.40605" lon="2.6892">
        <ele>1053.1</ele>
        <time>2018-11-26T04:14:56Z</time>
      </trkpt>
      <trkpt lat="42.40604" lon="2.6892">
        <ele>1052.9</ele>
        <time>2018-11-26T04:14:56Z</time>
      </trkpt>
      <trkpt lat="42.40604" lon="2.6892">
        <ele>1052.8</ele>
        <time>2018-11-26T04:14:56Z</time>
      </trkpt>
      <trkpt lat="42.40604" lon="2.68919">
        <ele>1052.7</ele>
        <time>2018-11-26T04:14:56Z</time>
      </trkpt>
      <trkpt lat="42.40604" lon="2.68919">
        <ele>1052.9</ele>
        <time>2018-11-26T04:14:56Z</time>
      </trkpt>
      <trkpt lat="42.40604" lon="2.68919">
        <ele>1053</ele>
        <time>2018-11-26T04:14:56Z</time>
      </trkpt>
      <trkpt lat="42.40605" lon="2.68919">
        <ele>1053.2</ele>
        <time>2018-11-26T04:14:56Z</time>
      </trkpt>
      <trkpt lat="42.40605" lon="2.68919">
        <ele>1053.3</ele>
        <time>2018-11-26T04:14:57Z</time>
      </trkpt>
      <trkpt lat="42.40605" lon="2.68919">
        <ele>1053.4</ele>
        <time>2018-11-26T04:14:57Z</time>
      </trkpt>
      <trkpt lat="42.40605" lon="2.68919">
        <ele>1053.7</ele>
        <time>2018-11-26T04:14:57Z</time>
      </trkpt>
      <trkpt lat="42.40606" lon="2.6892">
        <ele>1053.7</ele>
        <time>2018-11-26T04:14:57Z</time>
      </trkpt>
      <trkpt lat="42.40606" lon="2.6892">
        <ele>1053.6</ele>
        <time>2018-11-26T04:14:57Z</time>
      </trkpt>
      <trkpt lat="42.40607" lon="2.68923">
        <ele>1053.5</ele>
        <time>2018-11-26T04:14:58Z</time>
      </trkpt>
      <trkpt lat="42.40608" lon="2.68925">
        <ele>1053.7</ele>
        <time>2018-11-26T04:14:59Z</time>
      </trkpt>
      <trkpt lat="42.40608" lon="2.68929">
        <ele>1054.1</ele>
        <time>2018-11-26T04:15:00Z</time>
      </trkpt>
      <trkpt lat="42.40608" lon="2.6893">
        <ele>1053.9</ele>
        <time>2018-11-26T04:15:00Z</time>
      </trkpt>
      <trkpt lat="42.40608" lon="2.68932">
        <ele>1053.5</ele>
        <time>2018-11-26T04:15:01Z</time>
      </trkpt>
      <trkpt lat="42.40608" lon="2.68933">
        <ele>1053.7</ele>
        <time>2018-11-26T04:15:01Z</time>
      </trkpt>
      <trkpt lat="42.40608" lon="2.68935">
        <ele>1053.8</ele>
        <time>2018-11-26T04:15:02Z</time>
      </trkpt>
      <trkpt lat="42.40608" lon="2.68936">
        <ele>1054.1</ele>
        <time>2018-11-26T04:15:02Z</time>
      </trkpt>
      <trkpt lat="42.40608" lon="2.68938">
        <ele>1054.2</ele>
        <time>2018-11-26T04:15:03Z</time>
      </trkpt>
      <trkpt lat="42.40608" lon="2.68949">
        <ele>1054.6</ele>
        <time>2018-11-26T04:15:06Z</time>
      </trkpt>
      <trkpt lat="42.40608" lon="2.6895">
        <ele>1054.5</ele>
        <time>2018-11-26T04:15:06Z</time>
      </trkpt>
      <trkpt lat="42.40608" lon="2.68952">
        <ele>1054.4</ele>
        <time>2018-11-26T04:15:07Z</time>
      </trkpt>
      <trkpt lat="42.40608" lon="2.68953">
        <ele>1054.3</ele>
        <time>2018-11-26T04:15:07Z</time>
      </trkpt>
      <trkpt lat="42.40608" lon="2.68953">
        <ele>1054.3</ele>
        <time>2018-11-26T04:15:07Z</time>
      </trkpt>
      <trkpt lat="42.40608" lon="2.68956">
        <ele>1054.6</ele>
        <time>2018-11-26T04:15:08Z</time>
      </trkpt>
      <trkpt lat="42.40609" lon="2.68957">
        <ele>1054.5</ele>
        <time>2018-11-26T04:15:09Z</time>
      </trkpt>
      <trkpt lat="42.4061" lon="2.68961">
        <ele>1054.4</ele>
        <time>2018-11-26T04:15:10Z</time>
      </trkpt>
      <trkpt lat="42.40611" lon="2.68963">
        <ele>1054.8</ele>
        <time>2018-11-26T04:15:10Z</time>
      </trkpt>
      <trkpt lat="42.40612" lon="2.68964">
        <ele>1055</ele>
        <time>2018-11-26T04:15:11Z</time>
      </trkpt>
      <trkpt lat="42.40613" lon="2.68965">
        <ele>1054.9</ele>
        <time>2018-11-26T04:15:11Z</time>
      </trkpt>
      <trkpt lat="42.40614" lon="2.68968">
        <ele>1054.9</ele>
        <time>2018-11-26T04:15:12Z</time>
      </trkpt>
      <trkpt lat="42.40614" lon="2.6897">
        <ele>1054.9</ele>
        <time>2018-11-26T04:15:13Z</time>
      </trkpt>
      <trkpt lat="42.40614" lon="2.68971">
        <ele>1054.9</ele>
        <time>2018-11-26T04:15:13Z</time>
      </trkpt>
      <trkpt lat="42.40615" lon="2.68973">
        <ele>1054.9</ele>
        <time>2018-11-26T04:15:14Z</time>
      </trkpt>
      <trkpt lat="42.40615" lon="2.68974">
        <ele>1054.9</ele>
        <time>2018-11-26T04:15:14Z</time>
      </trkpt>
      <trkpt lat="42.40615" lon="2.68976">
        <ele>1054.9</ele>
        <time>2018-11-26T04:15:15Z</time>
      </trkpt>
      <trkpt lat="42.40615" lon="2.68977">
        <ele>1054.8</ele>
        <time>2018-11-26T04:15:15Z</time>
      </trkpt>
      <trkpt lat="42.40614" lon="2.68984">
        <ele>1053.9</ele>
        <time>2018-11-26T04:15:17Z</time>
      </trkpt>
      <trkpt lat="42.40614" lon="2.68985">
        <ele>1053.8</ele>
        <time>2018-11-26T04:15:18Z</time>
      </trkpt>
      <trkpt lat="42.40614" lon="2.68987">
        <ele>1053.9</ele>
        <time>2018-11-26T04:15:18Z</time>
      </trkpt>
      <trkpt lat="42.40614" lon="2.68989">
        <ele>1053.9</ele>
        <time>2018-11-26T04:15:19Z</time>
      </trkpt>
      <trkpt lat="42.40615" lon="2.6899">
        <ele>1053.9</ele>
        <time>2018-11-26T04:15:19Z</time>
      </trkpt>
      <trkpt lat="42.40615" lon="2.68992">
        <ele>1054.1</ele>
        <time>2018-11-26T04:15:20Z</time>
      </trkpt>
      <trkpt lat="42.40615" lon="2.68995">
        <ele>1054.2</ele>
        <time>2018-11-26T04:15:20Z</time>
      </trkpt>
      <trkpt lat="42.40616" lon="2.68996">
        <ele>1054.1</ele>
        <time>2018-11-26T04:15:21Z</time>
      </trkpt>
      <trkpt lat="42.40616" lon="2.68998">
        <ele>1053.9</ele>
        <time>2018-11-26T04:15:21Z</time>
      </trkpt>
      <trkpt lat="42.40616" lon="2.68999">
        <ele>1053.6</ele>
        <time>2018-11-26T04:15:22Z</time>
      </trkpt>
      <trkpt lat="42.40616" lon="2.69001">
        <ele>1053.7</ele>
        <time>2018-11-26T04:15:22Z</time>
      </trkpt>
      <trkpt lat="42.40616" lon="2.69002">
        <ele>1053.7</ele>
        <time>2018-11-26T04:15:23Z</time>
      </trkpt>
      <trkpt lat="42.40616" lon="2.69004">
        <ele>1053.9</ele>
        <time>2018-11-26T04:15:23Z</time>
      </trkpt>
      <trkpt lat="42.40616" lon="2.69006">
        <ele>1054</ele>
        <time>2018-11-26T04:15:24Z</time>
      </trkpt>
      <trkpt lat="42.40616" lon="2.69007">
        <ele>1054.1</ele>
        <time>2018-11-26T04:15:24Z</time>
      </trkpt>
      <trkpt lat="42.40616" lon="2.69009">
        <ele>1054.2</ele>
        <time>2018-11-26T04:15:25Z</time>
      </trkpt>
      <trkpt lat="42.40616" lon="2.6901">
        <ele>1054.1</ele>
        <time>2018-11-26T04:15:25Z</time>
      </trkpt>
      <trkpt lat="42.40615" lon="2.69011">
        <ele>1053.7</ele>
        <time>2018-11-26T04:15:25Z</time>
      </trkpt>
      <trkpt lat="42.40615" lon="2.69013">
        <ele>1053.4</ele>
        <time>2018-11-26T04:15:26Z</time>
      </trkpt>
      <trkpt lat="42.40614" lon="2.69014">
        <ele>1053.4</ele>
        <time>2018-11-26T04:15:26Z</time>
      </trkpt>
      <trkpt lat="42.40614" lon="2.69015">
        <ele>1053.3</ele>
        <time>2018-11-26T04:15:27Z</time>
      </trkpt>
      <trkpt lat="42.40614" lon="2.69018">
        <ele>1053.4</ele>
        <time>2018-11-26T04:15:27Z</time>
      </trkpt>
      <trkpt lat="42.40614" lon="2.69021">
        <ele>1053.5</ele>
        <time>2018-11-26T04:15:28Z</time>
      </trkpt>
      <trkpt lat="42.40615" lon="2.69022">
        <ele>1053.6</ele>
        <time>2018-11-26T04:15:29Z</time>
      </trkpt>
      <trkpt lat="42.40614" lon="2.69023">
        <ele>1053.5</ele>
        <time>2018-11-26T04:15:29Z</time>
      </trkpt>
      <trkpt lat="42.40614" lon="2.69024">
        <ele>1053.3</ele>
        <time>2018-11-26T04:15:29Z</time>
      </trkpt>
      <trkpt lat="42.40614" lon="2.69028">
        <ele>1053.1</ele>
        <time>2018-11-26T04:15:31Z</time>
      </trkpt>
      <trkpt lat="42.40614" lon="2.6903">
        <ele>1053</ele>
        <time>2018-11-26T04:15:31Z</time>
      </trkpt>
      <trkpt lat="42.40614" lon="2.69031">
        <ele>1053</ele>
        <time>2018-11-26T04:15:31Z</time>
      </trkpt>
      <trkpt lat="42.40614" lon="2.69033">
        <ele>1053</ele>
        <time>2018-11-26T04:15:32Z</time>
      </trkpt>
      <trkpt lat="42.40614" lon="2.69034">
        <ele>1053.2</ele>
        <time>2018-11-26T04:15:32Z</time>
      </trkpt>
      <trkpt lat="42.40614" lon="2.69035">
        <ele>1053.2</ele>
        <time>2018-11-26T04:15:33Z</time>
      </trkpt>
      <trkpt lat="42.40614" lon="2.69036">
        <ele>1053.1</ele>
        <time>2018-11-26T04:15:33Z</time>
      </trkpt>
      <trkpt lat="42.40614" lon="2.69038">
        <ele>1053.1</ele>
        <time>2018-11-26T04:15:33Z</time>
      </trkpt>
      <trkpt lat="42.40614" lon="2.69039">
        <ele>1053.1</ele>
        <time>2018-11-26T04:15:34Z</time>
      </trkpt>
      <trkpt lat="42.40614" lon="2.6904">
        <ele>1053.2</ele>
        <time>2018-11-26T04:15:34Z</time>
      </trkpt>
      <trkpt lat="42.40614" lon="2.6904">
        <ele>1053.1</ele>
        <time>2018-11-26T04:15:34Z</time>
      </trkpt>
      <trkpt lat="42.40614" lon="2.69041">
        <ele>1053.2</ele>
        <time>2018-11-26T04:15:34Z</time>
      </trkpt>
      <trkpt lat="42.40614" lon="2.69042">
        <ele>1053</ele>
        <time>2018-11-26T04:15:35Z</time>
      </trkpt>
      <trkpt lat="42.40614" lon="2.69042">
        <ele>1052.9</ele>
        <time>2018-11-26T04:15:35Z</time>
      </trkpt>
      <trkpt lat="42.40614" lon="2.69043">
        <ele>1052.8</ele>
        <time>2018-11-26T04:15:35Z</time>
      </trkpt>
      <trkpt lat="42.40614" lon="2.69045">
        <ele>1053.1</ele>
        <time>2018-11-26T04:15:36Z</time>
      </trkpt>
      <trkpt lat="42.40615" lon="2.69051">
        <ele>1053.3</ele>
        <time>2018-11-26T04:15:37Z</time>
      </trkpt>
      <trkpt lat="42.40615" lon="2.69053">
        <ele>1053.2</ele>
        <time>2018-11-26T04:15:38Z</time>
      </trkpt>
      <trkpt lat="42.40616" lon="2.69062">
        <ele>1053.1</ele>
        <time>2018-11-26T04:15:41Z</time>
      </trkpt>
      <trkpt lat="42.40616" lon="2.69064">
        <ele>1053</ele>
        <time>2018-11-26T04:15:41Z</time>
      </trkpt>
      <trkpt lat="42.40616" lon="2.69065">
        <ele>1053.1</ele>
        <time>2018-11-26T04:15:42Z</time>
      </trkpt>
      <trkpt lat="42.40617" lon="2.69067">
        <ele>1053.4</ele>
        <time>2018-11-26T04:15:42Z</time>
      </trkpt>
      <trkpt lat="42.40617" lon="2.69068">
        <ele>1053.6</ele>
        <time>2018-11-26T04:15:43Z</time>
      </trkpt>
      <trkpt lat="42.40617" lon="2.69069">
        <ele>1053.6</ele>
        <time>2018-11-26T04:15:43Z</time>
      </trkpt>
      <trkpt lat="42.40617" lon="2.69069">
        <ele>1053.7</ele>
        <time>2018-11-26T04:15:43Z</time>
      </trkpt>
      <trkpt lat="42.40617" lon="2.69069">
        <ele>1053.6</ele>
        <time>2018-11-26T04:15:43Z</time>
      </trkpt>
      <trkpt lat="42.40617" lon="2.69069">
        <ele>1053.5</ele>
        <time>2018-11-26T04:15:43Z</time>
      </trkpt>
      <trkpt lat="42.40617" lon="2.69069">
        <ele>1053.3</ele>
        <time>2018-11-26T04:15:43Z</time>
      </trkpt>
      <trkpt lat="42.40617" lon="2.69069">
        <ele>1053.1</ele>
        <time>2018-11-26T04:15:43Z</time>
      </trkpt>
      <trkpt lat="42.40617" lon="2.69069">
        <ele>1053.3</ele>
        <time>2018-11-26T04:15:43Z</time>
      </trkpt>
      <trkpt lat="42.40617" lon="2.69069">
        <ele>1053.4</ele>
        <time>2018-11-26T04:15:43Z</time>
      </trkpt>
      <trkpt lat="42.40617" lon="2.69069">
        <ele>1053.7</ele>
        <time>2018-11-26T04:15:43Z</time>
      </trkpt>
      <trkpt lat="42.40617" lon="2.69069">
        <ele>1053.6</ele>
        <time>2018-11-26T04:15:43Z</time>
      </trkpt>
      <trkpt lat="42.40617" lon="2.69069">
        <ele>1053.5</ele>
        <time>2018-11-26T04:15:43Z</time>
      </trkpt>
      <trkpt lat="42.40617" lon="2.69069">
        <ele>1053.1</ele>
        <time>2018-11-26T04:15:43Z</time>
      </trkpt>
      <trkpt lat="42.40617" lon="2.69069">
        <ele>1052.8</ele>
        <time>2018-11-26T04:15:43Z</time>
      </trkpt>
      <trkpt lat="42.40617" lon="2.69069">
        <ele>1052.9</ele>
        <time>2018-11-26T04:15:43Z</time>
      </trkpt>
      <trkpt lat="42.40617" lon="2.69069">
        <ele>1053</ele>
        <time>2018-11-26T04:15:43Z</time>
      </trkpt>
      <trkpt lat="42.40617" lon="2.69069">
        <ele>1053.2</ele>
        <time>2018-11-26T04:15:43Z</time>
      </trkpt>
      <trkpt lat="42.40617" lon="2.69069">
        <ele>1053.2</ele>
        <time>2018-11-26T04:15:43Z</time>
      </trkpt>
      <trkpt lat="42.40617" lon="2.69069">
        <ele>1053.2</ele>
        <time>2018-11-26T04:15:43Z</time>
      </trkpt>
      <trkpt lat="42.40617" lon="2.6907">
        <ele>1053.1</ele>
        <time>2018-11-26T04:15:43Z</time>
      </trkpt>
      <trkpt lat="42.40617" lon="2.6907">
        <ele>1053.4</ele>
        <time>2018-11-26T04:15:43Z</time>
      </trkpt>
      <trkpt lat="42.40617" lon="2.6907">
        <ele>1053.5</ele>
        <time>2018-11-26T04:15:43Z</time>
      </trkpt>
      <trkpt lat="42.40617" lon="2.6907">
        <ele>1053.6</ele>
        <time>2018-11-26T04:15:43Z</time>
      </trkpt>
      <trkpt lat="42.40617" lon="2.6907">
        <ele>1053.6</ele>
        <time>2018-11-26T04:15:43Z</time>
      </trkpt>
      <trkpt lat="42.40617" lon="2.6907">
        <ele>1053.5</ele>
        <time>2018-11-26T04:15:43Z</time>
      </trkpt>
      <trkpt lat="42.40617" lon="2.6907">
        <ele>1053.5</ele>
        <time>2018-11-26T04:15:43Z</time>
      </trkpt>
      <trkpt lat="42.40617" lon="2.6907">
        <ele>1053.7</ele>
        <time>2018-11-26T04:15:43Z</time>
      </trkpt>
      <trkpt lat="42.40617" lon="2.6907">
        <ele>1053.7</ele>
        <time>2018-11-26T04:15:43Z</time>
      </trkpt>
      <trkpt lat="42.40617" lon="2.6907">
        <ele>1054</ele>
        <time>2018-11-26T04:15:43Z</time>
      </trkpt>
      <trkpt lat="42.40617" lon="2.6907">
        <ele>1054.3</ele>
        <time>2018-11-26T04:15:44Z</time>
      </trkpt>
      <trkpt lat="42.40617" lon="2.69071">
        <ele>1054.3</ele>
        <time>2018-11-26T04:15:44Z</time>
      </trkpt>
      <trkpt lat="42.40617" lon="2.69071">
        <ele>1054.5</ele>
        <time>2018-11-26T04:15:44Z</time>
      </trkpt>
      <trkpt lat="42.40617" lon="2.69071">
        <ele>1054.2</ele>
        <time>2018-11-26T04:15:44Z</time>
      </trkpt>
      <trkpt lat="42.40617" lon="2.69071">
        <ele>1053.8</ele>
        <time>2018-11-26T04:15:44Z</time>
      </trkpt>
      <trkpt lat="42.40617" lon="2.69071">
        <ele>1053.3</ele>
        <time>2018-11-26T04:15:44Z</time>
      </trkpt>
      <trkpt lat="42.40616" lon="2.69071">
        <ele>1053.3</ele>
        <time>2018-11-26T04:15:44Z</time>
      </trkpt>
      <trkpt lat="42.40617" lon="2.69072">
        <ele>1053.4</ele>
        <time>2018-11-26T04:15:44Z</time>
      </trkpt>
      <trkpt lat="42.40618" lon="2.69073">
        <ele>1053.2</ele>
        <time>2018-11-26T04:15:45Z</time>
      </trkpt>
      <trkpt lat="42.40618" lon="2.69076">
        <ele>1052.9</ele>
        <time>2018-11-26T04:15:46Z</time>
      </trkpt>
      <trkpt lat="42.40618" lon="2.69089">
        <ele>1053.4</ele>
        <time>2018-11-26T04:15:49Z</time>
      </trkpt>
      <trkpt lat="42.40619" lon="2.69091">
        <ele>1053.5</ele>
        <time>2018-11-26T04:15:50Z</time>
      </trkpt>
      <trkpt lat="42.40618" lon="2.69093">
        <ele>1053.8</ele>
        <time>2018-11-26T04:15:50Z</time>
      </trkpt>
      <trkpt lat="42.40618" lon="2.69095">
        <ele>1054</ele>
        <time>2018-11-26T04:15:51Z</time>
      </trkpt>
      <trkpt lat="42.40617" lon="2.69098">
        <ele>1054.3</ele>
        <time>2018-11-26T04:15:52Z</time>
      </trkpt>
      <trkpt lat="42.40617" lon="2.691">
        <ele>1054.3</ele>
        <time>2018-11-26T04:15:53Z</time>
      </trkpt>
      <trkpt lat="42.40617" lon="2.69101">
        <ele>1054.3</ele>
        <time>2018-11-26T04:15:53Z</time>
      </trkpt>
      <trkpt lat="42.40615" lon="2.69104">
        <ele>1054.5</ele>
        <time>2018-11-26T04:15:54Z</time>
      </trkpt>
      <trkpt lat="42.40614" lon="2.69105">
        <ele>1054.7</ele>
        <time>2018-11-26T04:15:55Z</time>
      </trkpt>
      <trkpt lat="42.40614" lon="2.69107">
        <ele>1054.8</ele>
        <time>2018-11-26T04:15:55Z</time>
      </trkpt>
      <trkpt lat="42.40614" lon="2.69108">
        <ele>1054.9</ele>
        <time>2018-11-26T04:15:56Z</time>
      </trkpt>
      <trkpt lat="42.40614" lon="2.6911">
        <ele>1054.9</ele>
        <time>2018-11-26T04:15:56Z</time>
      </trkpt>
      <trkpt lat="42.40615" lon="2.69112">
        <ele>1055</ele>
        <time>2018-11-26T04:15:57Z</time>
      </trkpt>
      <trkpt lat="42.40615" lon="2.69113">
        <ele>1055.2</ele>
        <time>2018-11-26T04:15:57Z</time>
      </trkpt>
      <trkpt lat="42.40615" lon="2.69115">
        <ele>1055.2</ele>
        <time>2018-11-26T04:15:58Z</time>
      </trkpt>
      <trkpt lat="42.40615" lon="2.69116">
        <ele>1055.3</ele>
        <time>2018-11-26T04:15:58Z</time>
      </trkpt>
      <trkpt lat="42.40615" lon="2.69118">
        <ele>1055.6</ele>
        <time>2018-11-26T04:15:59Z</time>
      </trkpt>
      <trkpt lat="42.40616" lon="2.6912">
        <ele>1055.8</ele>
        <time>2018-11-26T04:15:59Z</time>
      </trkpt>
      <trkpt lat="42.40615" lon="2.69122">
        <ele>1056.3</ele>
        <time>2018-11-26T04:16:00Z</time>
      </trkpt>
      <trkpt lat="42.40615" lon="2.69123">
        <ele>1056.4</ele>
        <time>2018-11-26T04:16:00Z</time>
      </trkpt>
      <trkpt lat="42.40616" lon="2.69128">
        <ele>1057</ele>
        <time>2018-11-26T04:16:02Z</time>
      </trkpt>
      <trkpt lat="42.40617" lon="2.69131">
        <ele>1057.1</ele>
        <time>2018-11-26T04:16:02Z</time>
      </trkpt>
      <trkpt lat="42.40617" lon="2.69132">
        <ele>1057.6</ele>
        <time>2018-11-26T04:16:03Z</time>
      </trkpt>
      <trkpt lat="42.40617" lon="2.69133">
        <ele>1058</ele>
        <time>2018-11-26T04:16:03Z</time>
      </trkpt>
      <trkpt lat="42.40617" lon="2.69135">
        <ele>1058.7</ele>
        <time>2018-11-26T04:16:04Z</time>
      </trkpt>
      <trkpt lat="42.40616" lon="2.69137">
        <ele>1058.8</ele>
        <time>2018-11-26T04:16:04Z</time>
      </trkpt>
      <trkpt lat="42.40617" lon="2.69139">
        <ele>1058.9</ele>
        <time>2018-11-26T04:16:05Z</time>
      </trkpt>
      <trkpt lat="42.40617" lon="2.6914">
        <ele>1059.2</ele>
        <time>2018-11-26T04:16:05Z</time>
      </trkpt>
      <trkpt lat="42.40617" lon="2.69142">
        <ele>1059.4</ele>
        <time>2018-11-26T04:16:06Z</time>
      </trkpt>
      <trkpt lat="42.40616" lon="2.69145">
        <ele>1059.9</ele>
        <time>2018-11-26T04:16:07Z</time>
      </trkpt>
      <trkpt lat="42.40615" lon="2.69146">
        <ele>1060.3</ele>
        <time>2018-11-26T04:16:07Z</time>
      </trkpt>
      <trkpt lat="42.40615" lon="2.6915">
        <ele>1060.6</ele>
        <time>2018-11-26T04:16:08Z</time>
      </trkpt>
      <trkpt lat="42.40615" lon="2.69153">
        <ele>1060.9</ele>
        <time>2018-11-26T04:16:09Z</time>
      </trkpt>
      <trkpt lat="42.40615" lon="2.69155">
        <ele>1061.1</ele>
        <time>2018-11-26T04:16:10Z</time>
      </trkpt>
      <trkpt lat="42.40615" lon="2.69156">
        <ele>1061.5</ele>
        <time>2018-11-26T04:16:10Z</time>
      </trkpt>
      <trkpt lat="42.40614" lon="2.69158">
        <ele>1061.4</ele>
        <time>2018-11-26T04:16:11Z</time>
      </trkpt>
      <trkpt lat="42.40614" lon="2.69159">
        <ele>1061.4</ele>
        <time>2018-11-26T04:16:11Z</time>
      </trkpt>
      <trkpt lat="42.40614" lon="2.69163">
        <ele>1061.7</ele>
        <time>2018-11-26T04:16:12Z</time>
      </trkpt>
      <trkpt lat="42.40614" lon="2.69164">
        <ele>1062</ele>
        <time>2018-11-26T04:16:13Z</time>
      </trkpt>
      <trkpt lat="42.40614" lon="2.69166">
        <ele>1062.4</ele>
        <time>2018-11-26T04:16:13Z</time>
      </trkpt>
      <trkpt lat="42.40613" lon="2.69169">
        <ele>1062.9</ele>
        <time>2018-11-26T04:16:14Z</time>
      </trkpt>
      <trkpt lat="42.40613" lon="2.69171">
        <ele>1062.9</ele>
        <time>2018-11-26T04:16:15Z</time>
      </trkpt>
      <trkpt lat="42.40612" lon="2.69174">
        <ele>1063</ele>
        <time>2018-11-26T04:16:16Z</time>
      </trkpt>
      <trkpt lat="42.40612" lon="2.69176">
        <ele>1063.2</ele>
        <time>2018-11-26T04:16:16Z</time>
      </trkpt>
      <trkpt lat="42.40612" lon="2.69179">
        <ele>1064</ele>
        <time>2018-11-26T04:16:17Z</time>
      </trkpt>
      <trkpt lat="42.40612" lon="2.69181">
        <ele>1064.2</ele>
        <time>2018-11-26T04:16:18Z</time>
      </trkpt>
      <trkpt lat="42.40614" lon="2.69187">
        <ele>1065.5</ele>
        <time>2018-11-26T04:16:20Z</time>
      </trkpt>
      <trkpt lat="42.40618" lon="2.69195">
        <ele>1066.8</ele>
        <time>2018-11-26T04:16:22Z</time>
      </trkpt>
      <trkpt lat="42.40618" lon="2.69197">
        <ele>1066.8</ele>
        <time>2018-11-26T04:16:23Z</time>
      </trkpt>
      <trkpt lat="42.40618" lon="2.69198">
        <ele>1067.1</ele>
        <time>2018-11-26T04:16:23Z</time>
      </trkpt>
      <trkpt lat="42.40618" lon="2.692">
        <ele>1067.3</ele>
        <time>2018-11-26T04:16:24Z</time>
      </trkpt>
      <trkpt lat="42.40617" lon="2.69204">
        <ele>1067.9</ele>
        <time>2018-11-26T04:16:25Z</time>
      </trkpt>
      <trkpt lat="42.40616" lon="2.69205">
        <ele>1067.9</ele>
        <time>2018-11-26T04:16:26Z</time>
      </trkpt>
      <trkpt lat="42.40616" lon="2.69206">
        <ele>1068.1</ele>
        <time>2018-11-26T04:16:26Z</time>
      </trkpt>
      <trkpt lat="42.40616" lon="2.69208">
        <ele>1068.4</ele>
        <time>2018-11-26T04:16:26Z</time>
      </trkpt>
      <trkpt lat="42.40616" lon="2.69209">
        <ele>1068.7</ele>
        <time>2018-11-26T04:16:27Z</time>
      </trkpt>
      <trkpt lat="42.40616" lon="2.69211">
        <ele>1068.8</ele>
        <time>2018-11-26T04:16:27Z</time>
      </trkpt>
      <trkpt lat="42.40616" lon="2.69211">
        <ele>1068.9</ele>
        <time>2018-11-26T04:16:28Z</time>
      </trkpt>
      <trkpt lat="42.40616" lon="2.69212">
        <ele>1069</ele>
        <time>2018-11-26T04:16:28Z</time>
      </trkpt>
      <trkpt lat="42.40616" lon="2.69212">
        <ele>1069.3</ele>
        <time>2018-11-26T04:16:28Z</time>
      </trkpt>
      <trkpt lat="42.40617" lon="2.69214">
        <ele>1069.4</ele>
        <time>2018-11-26T04:16:28Z</time>
      </trkpt>
      <trkpt lat="42.40617" lon="2.69215">
        <ele>1069.7</ele>
        <time>2018-11-26T04:16:29Z</time>
      </trkpt>
      <trkpt lat="42.40617" lon="2.69218">
        <ele>1070.3</ele>
        <time>2018-11-26T04:16:29Z</time>
      </trkpt>
      <trkpt lat="42.40617" lon="2.69219">
        <ele>1070.5</ele>
        <time>2018-11-26T04:16:30Z</time>
      </trkpt>
      <trkpt lat="42.40617" lon="2.6922">
        <ele>1070.7</ele>
        <time>2018-11-26T04:16:30Z</time>
      </trkpt>
      <trkpt lat="42.40618" lon="2.69222">
        <ele>1071</ele>
        <time>2018-11-26T04:16:31Z</time>
      </trkpt>
      <trkpt lat="42.40619" lon="2.69223">
        <ele>1071.5</ele>
        <time>2018-11-26T04:16:31Z</time>
      </trkpt>
      <trkpt lat="42.40619" lon="2.69224">
        <ele>1072.2</ele>
        <time>2018-11-26T04:16:32Z</time>
      </trkpt>
      <trkpt lat="42.4062" lon="2.69225">
        <ele>1072.2</ele>
        <time>2018-11-26T04:16:32Z</time>
      </trkpt>
      <trkpt lat="42.4062" lon="2.69226">
        <ele>1072.1</ele>
        <time>2018-11-26T04:16:33Z</time>
      </trkpt>
      <trkpt lat="42.40621" lon="2.69227">
        <ele>1072</ele>
        <time>2018-11-26T04:16:33Z</time>
      </trkpt>
      <trkpt lat="42.40622" lon="2.69228">
        <ele>1071.9</ele>
        <time>2018-11-26T04:16:33Z</time>
      </trkpt>
      <trkpt lat="42.40624" lon="2.6923">
        <ele>1072</ele>
        <time>2018-11-26T04:16:34Z</time>
      </trkpt>
      <trkpt lat="42.40625" lon="2.69231">
        <ele>1072.2</ele>
        <time>2018-11-26T04:16:35Z</time>
      </trkpt>
      <trkpt lat="42.40629" lon="2.69239">
        <ele>1074.4</ele>
        <time>2018-11-26T04:16:38Z</time>
      </trkpt>
      <trkpt lat="42.4063" lon="2.6924">
        <ele>1074.3</ele>
        <time>2018-11-26T04:16:38Z</time>
      </trkpt>
      <trkpt lat="42.40631" lon="2.69246">
        <ele>1075.5</ele>
        <time>2018-11-26T04:16:40Z</time>
      </trkpt>
      <trkpt lat="42.40631" lon="2.69249">
        <ele>1075.6</ele>
        <time>2018-11-26T04:16:41Z</time>
      </trkpt>
      <trkpt lat="42.40631" lon="2.6925">
        <ele>1075.8</ele>
        <time>2018-11-26T04:16:41Z</time>
      </trkpt>
      <trkpt lat="42.40633" lon="2.69254">
        <ele>1076.6</ele>
        <time>2018-11-26T04:16:42Z</time>
      </trkpt>
      <trkpt lat="42.40634" lon="2.69256">
        <ele>1077.2</ele>
        <time>2018-11-26T04:16:43Z</time>
      </trkpt>
      <trkpt lat="42.40634" lon="2.69257">
        <ele>1077.1</ele>
        <time>2018-11-26T04:16:44Z</time>
      </trkpt>
      <trkpt lat="42.40634" lon="2.69258">
        <ele>1077.2</ele>
        <time>2018-11-26T04:16:44Z</time>
      </trkpt>
      <trkpt lat="42.40634" lon="2.69259">
        <ele>1077.4</ele>
        <time>2018-11-26T04:16:44Z</time>
      </trkpt>
      <trkpt lat="42.40635" lon="2.69259">
        <ele>1077.7</ele>
        <time>2018-11-26T04:16:44Z</time>
      </trkpt>
      <trkpt lat="42.40635" lon="2.6926">
        <ele>1078.1</ele>
        <time>2018-11-26T04:16:45Z</time>
      </trkpt>
      <trkpt lat="42.40636" lon="2.69261">
        <ele>1078.2</ele>
        <time>2018-11-26T04:16:45Z</time>
      </trkpt>
      <trkpt lat="42.40636" lon="2.69262">
        <ele>1078.3</ele>
        <time>2018-11-26T04:16:45Z</time>
      </trkpt>
      <trkpt lat="42.40637" lon="2.69263">
        <ele>1078.5</ele>
        <time>2018-11-26T04:16:45Z</time>
      </trkpt>
      <trkpt lat="42.40637" lon="2.69264">
        <ele>1078.4</ele>
        <time>2018-11-26T04:16:46Z</time>
      </trkpt>
      <trkpt lat="42.40638" lon="2.69266">
        <ele>1077.9</ele>
        <time>2018-11-26T04:16:47Z</time>
      </trkpt>
      <trkpt lat="42.40638" lon="2.69267">
        <ele>1077.7</ele>
        <time>2018-11-26T04:16:47Z</time>
      </trkpt>
      <trkpt lat="42.40638" lon="2.69268">
        <ele>1077.8</ele>
        <time>2018-11-26T04:16:47Z</time>
      </trkpt>
      <trkpt lat="42.40639" lon="2.69268">
        <ele>1077.7</ele>
        <time>2018-11-26T04:16:47Z</time>
      </trkpt>
      <trkpt lat="42.40639" lon="2.69269">
        <ele>1077.9</ele>
        <time>2018-11-26T04:16:48Z</time>
      </trkpt>
      <trkpt lat="42.40639" lon="2.6927">
        <ele>1077.8</ele>
        <time>2018-11-26T04:16:48Z</time>
      </trkpt>
      <trkpt lat="42.4064" lon="2.69271">
        <ele>1077.9</ele>
        <time>2018-11-26T04:16:48Z</time>
      </trkpt>
      <trkpt lat="42.4064" lon="2.69272">
        <ele>1078.2</ele>
        <time>2018-11-26T04:16:48Z</time>
      </trkpt>
      <trkpt lat="42.40642" lon="2.69276">
        <ele>1079</ele>
        <time>2018-11-26T04:16:50Z</time>
      </trkpt>
      <trkpt lat="42.40642" lon="2.69277">
        <ele>1079</ele>
        <time>2018-11-26T04:16:50Z</time>
      </trkpt>
      <trkpt lat="42.40643" lon="2.6928">
        <ele>1079.1</ele>
        <time>2018-11-26T04:16:51Z</time>
      </trkpt>
      <trkpt lat="42.40644" lon="2.69281">
        <ele>1079.2</ele>
        <time>2018-11-26T04:16:52Z</time>
      </trkpt>
      <trkpt lat="42.40644" lon="2.69282">
        <ele>1079.4</ele>
        <time>2018-11-26T04:16:52Z</time>
      </trkpt>
      <trkpt lat="42.40644" lon="2.69283">
        <ele>1079.4</ele>
        <time>2018-11-26T04:16:52Z</time>
      </trkpt>
      <trkpt lat="42.40644" lon="2.69284">
        <ele>1079.3</ele>
        <time>2018-11-26T04:16:53Z</time>
      </trkpt>
      <trkpt lat="42.40645" lon="2.69285">
        <ele>1079.3</ele>
        <time>2018-11-26T04:16:53Z</time>
      </trkpt>
      <trkpt lat="42.40645" lon="2.69286">
        <ele>1079.3</ele>
        <time>2018-11-26T04:16:53Z</time>
      </trkpt>
      <trkpt lat="42.40646" lon="2.69287">
        <ele>1079.3</ele>
        <time>2018-11-26T04:16:54Z</time>
      </trkpt>
      <trkpt lat="42.40646" lon="2.69287">
        <ele>1079.3</ele>
        <time>2018-11-26T04:16:54Z</time>
      </trkpt>
      <trkpt lat="42.40646" lon="2.69288">
        <ele>1079.2</ele>
        <time>2018-11-26T04:16:54Z</time>
      </trkpt>
      <trkpt lat="42.40646" lon="2.69289">
        <ele>1079.3</ele>
        <time>2018-11-26T04:16:54Z</time>
      </trkpt>
      <trkpt lat="42.40647" lon="2.6929">
        <ele>1079.7</ele>
        <time>2018-11-26T04:16:55Z</time>
      </trkpt>
      <trkpt lat="42.40647" lon="2.69291">
        <ele>1079.9</ele>
        <time>2018-11-26T04:16:55Z</time>
      </trkpt>
      <trkpt lat="42.40648" lon="2.69292">
        <ele>1080</ele>
        <time>2018-11-26T04:16:55Z</time>
      </trkpt>
      <trkpt lat="42.40649" lon="2.69292">
        <ele>1080.2</ele>
        <time>2018-11-26T04:16:56Z</time>
      </trkpt>
      <trkpt lat="42.4065" lon="2.69294">
        <ele>1080.4</ele>
        <time>2018-11-26T04:16:56Z</time>
      </trkpt>
      <trkpt lat="42.40651" lon="2.69295">
        <ele>1080.7</ele>
        <time>2018-11-26T04:16:57Z</time>
      </trkpt>
      <trkpt lat="42.40653" lon="2.69296">
        <ele>1081</ele>
        <time>2018-11-26T04:16:58Z</time>
      </trkpt>
      <trkpt lat="42.40653" lon="2.69297">
        <ele>1080.8</ele>
        <time>2018-11-26T04:16:58Z</time>
      </trkpt>
      <trkpt lat="42.40654" lon="2.69298">
        <ele>1080.8</ele>
        <time>2018-11-26T04:16:58Z</time>
      </trkpt>
      <trkpt lat="42.40655" lon="2.69299">
        <ele>1080.6</ele>
        <time>2018-11-26T04:16:59Z</time>
      </trkpt>
      <trkpt lat="42.40655" lon="2.693">
        <ele>1080.9</ele>
        <time>2018-11-26T04:16:59Z</time>
      </trkpt>
      <trkpt lat="42.40655" lon="2.69301">
        <ele>1081.1</ele>
        <time>2018-11-26T04:16:59Z</time>
      </trkpt>
      <trkpt lat="42.40656" lon="2.69301">
        <ele>1081.5</ele>
        <time>2018-11-26T04:17:00Z</time>
      </trkpt>
      <trkpt lat="42.40656" lon="2.69302">
        <ele>1081.4</ele>
        <time>2018-11-26T04:17:00Z</time>
      </trkpt>
      <trkpt lat="42.40656" lon="2.69303">
        <ele>1081.4</ele>
        <time>2018-11-26T04:17:00Z</time>
      </trkpt>
      <trkpt lat="42.40657" lon="2.69303">
        <ele>1081.4</ele>
        <time>2018-11-26T04:17:00Z</time>
      </trkpt>
      <trkpt lat="42.40657" lon="2.69304">
        <ele>1081.4</ele>
        <time>2018-11-26T04:17:01Z</time>
      </trkpt>
      <trkpt lat="42.40658" lon="2.69304">
        <ele>1081.4</ele>
        <time>2018-11-26T04:17:01Z</time>
      </trkpt>
      <trkpt lat="42.40658" lon="2.69305">
        <ele>1081.5</ele>
        <time>2018-11-26T04:17:01Z</time>
      </trkpt>
      <trkpt lat="42.40658" lon="2.69305">
        <ele>1081.4</ele>
        <time>2018-11-26T04:17:01Z</time>
      </trkpt>
      <trkpt lat="42.40658" lon="2.69305">
        <ele>1081.5</ele>
        <time>2018-11-26T04:17:01Z</time>
      </trkpt>
      <trkpt lat="42.40658" lon="2.69305">
        <ele>1081.6</ele>
        <time>2018-11-26T04:17:01Z</time>
      </trkpt>
      <trkpt lat="42.40658" lon="2.69305">
        <ele>1081.6</ele>
        <time>2018-11-26T04:17:01Z</time>
      </trkpt>
      <trkpt lat="42.40658" lon="2.69306">
        <ele>1081.6</ele>
        <time>2018-11-26T04:17:01Z</time>
      </trkpt>
      <trkpt lat="42.40658" lon="2.69306">
        <ele>1081.6</ele>
        <time>2018-11-26T04:17:01Z</time>
      </trkpt>
      <trkpt lat="42.40658" lon="2.69306">
        <ele>1081.6</ele>
        <time>2018-11-26T04:17:01Z</time>
      </trkpt>
      <trkpt lat="42.40658" lon="2.69306">
        <ele>1081.8</ele>
        <time>2018-11-26T04:17:01Z</time>
      </trkpt>
      <trkpt lat="42.40658" lon="2.69306">
        <ele>1081.9</ele>
        <time>2018-11-26T04:17:01Z</time>
      </trkpt>
      <trkpt lat="42.40658" lon="2.69306">
        <ele>1082.3</ele>
        <time>2018-11-26T04:17:01Z</time>
      </trkpt>
      <trkpt lat="42.40658" lon="2.69306">
        <ele>1082.4</ele>
        <time>2018-11-26T04:17:01Z</time>
      </trkpt>
      <trkpt lat="42.40658" lon="2.69307">
        <ele>1082.6</ele>
        <time>2018-11-26T04:17:02Z</time>
      </trkpt>
      <trkpt lat="42.40659" lon="2.69308">
        <ele>1083.2</ele>
        <time>2018-11-26T04:17:02Z</time>
      </trkpt>
      <trkpt lat="42.4066" lon="2.69309">
        <ele>1083.5</ele>
        <time>2018-11-26T04:17:03Z</time>
      </trkpt>
      <trkpt lat="42.4066" lon="2.6931">
        <ele>1084</ele>
        <time>2018-11-26T04:17:03Z</time>
      </trkpt>
      <trkpt lat="42.40661" lon="2.6931">
        <ele>1083.7</ele>
        <time>2018-11-26T04:17:03Z</time>
      </trkpt>
      <trkpt lat="42.40662" lon="2.69311">
        <ele>1083.5</ele>
        <time>2018-11-26T04:17:04Z</time>
      </trkpt>
      <trkpt lat="42.40662" lon="2.69312">
        <ele>1083.3</ele>
        <time>2018-11-26T04:17:04Z</time>
      </trkpt>
      <trkpt lat="42.40662" lon="2.69313">
        <ele>1083.3</ele>
        <time>2018-11-26T04:17:04Z</time>
      </trkpt>
      <trkpt lat="42.40663" lon="2.69314">
        <ele>1083.6</ele>
        <time>2018-11-26T04:17:05Z</time>
      </trkpt>
      <trkpt lat="42.40663" lon="2.69315">
        <ele>1083.8</ele>
        <time>2018-11-26T04:17:05Z</time>
      </trkpt>
      <trkpt lat="42.40664" lon="2.69316">
        <ele>1083.9</ele>
        <time>2018-11-26T04:17:05Z</time>
      </trkpt>
      <trkpt lat="42.40664" lon="2.69316">
        <ele>1083.9</ele>
        <time>2018-11-26T04:17:05Z</time>
      </trkpt>
      <trkpt lat="42.40664" lon="2.69317">
        <ele>1083.8</ele>
        <time>2018-11-26T04:17:06Z</time>
      </trkpt>
      <trkpt lat="42.40664" lon="2.69317">
        <ele>1083.7</ele>
        <time>2018-11-26T04:17:06Z</time>
      </trkpt>
      <trkpt lat="42.40664" lon="2.69317">
        <ele>1083.7</ele>
        <time>2018-11-26T04:17:06Z</time>
      </trkpt>
      <trkpt lat="42.40664" lon="2.69317">
        <ele>1083.7</ele>
        <time>2018-11-26T04:17:06Z</time>
      </trkpt>
      <trkpt lat="42.40664" lon="2.69317">
        <ele>1083.8</ele>
        <time>2018-11-26T04:17:06Z</time>
      </trkpt>
      <trkpt lat="42.40664" lon="2.69317">
        <ele>1083.8</ele>
        <time>2018-11-26T04:17:06Z</time>
      </trkpt>
      <trkpt lat="42.40664" lon="2.69318">
        <ele>1083.7</ele>
        <time>2018-11-26T04:17:06Z</time>
      </trkpt>
      <trkpt lat="42.40664" lon="2.69318">
        <ele>1083.6</ele>
        <time>2018-11-26T04:17:06Z</time>
      </trkpt>
      <trkpt lat="42.40664" lon="2.69318">
        <ele>1083.7</ele>
        <time>2018-11-26T04:17:06Z</time>
      </trkpt>
      <trkpt lat="42.40664" lon="2.69318">
        <ele>1083.9</ele>
        <time>2018-11-26T04:17:07Z</time>
      </trkpt>
      <trkpt lat="42.40664" lon="2.69318">
        <ele>1084.1</ele>
        <time>2018-11-26T04:17:07Z</time>
      </trkpt>
      <trkpt lat="42.40664" lon="2.69319">
        <ele>1084.3</ele>
        <time>2018-11-26T04:17:07Z</time>
      </trkpt>
      <trkpt lat="42.40664" lon="2.6932">
        <ele>1084.4</ele>
        <time>2018-11-26T04:17:07Z</time>
      </trkpt>
      <trkpt lat="42.40666" lon="2.69322">
        <ele>1085</ele>
        <time>2018-11-26T04:17:08Z</time>
      </trkpt>
      <trkpt lat="42.40666" lon="2.69324">
        <ele>1085.3</ele>
        <time>2018-11-26T04:17:08Z</time>
      </trkpt>
      <trkpt lat="42.40667" lon="2.69325">
        <ele>1085.7</ele>
        <time>2018-11-26T04:17:09Z</time>
      </trkpt>
      <trkpt lat="42.40668" lon="2.6933">
        <ele>1086.4</ele>
        <time>2018-11-26T04:17:10Z</time>
      </trkpt>
      <trkpt lat="42.40668" lon="2.69332">
        <ele>1086.5</ele>
        <time>2018-11-26T04:17:11Z</time>
      </trkpt>
      <trkpt lat="42.40669" lon="2.69333">
        <ele>1086.7</ele>
        <time>2018-11-26T04:17:11Z</time>
      </trkpt>
      <trkpt lat="42.40675" lon="2.69343">
        <ele>1089</ele>
        <time>2018-11-26T04:17:15Z</time>
      </trkpt>
      <trkpt lat="42.40675" lon="2.69345">
        <ele>1089.2</ele>
        <time>2018-11-26T04:17:16Z</time>
      </trkpt>
      <trkpt lat="42.40676" lon="2.69346">
        <ele>1089.2</ele>
        <time>2018-11-26T04:17:16Z</time>
      </trkpt>
      <trkpt lat="42.40676" lon="2.69347">
        <ele>1089.2</ele>
        <time>2018-11-26T04:17:16Z</time>
      </trkpt>
      <trkpt lat="42.40676" lon="2.69348">
        <ele>1089.4</ele>
        <time>2018-11-26T04:17:17Z</time>
      </trkpt>
      <trkpt lat="42.40676" lon="2.69348">
        <ele>1089.6</ele>
        <time>2018-11-26T04:17:17Z</time>
      </trkpt>
      <trkpt lat="42.40676" lon="2.69348">
        <ele>1089.6</ele>
        <time>2018-11-26T04:17:17Z</time>
      </trkpt>
      <trkpt lat="42.40676" lon="2.69347">
        <ele>1089.9</ele>
        <time>2018-11-26T04:17:17Z</time>
      </trkpt>
      <trkpt lat="42.40676" lon="2.69348">
        <ele>1090.1</ele>
        <time>2018-11-26T04:17:17Z</time>
      </trkpt>
      <trkpt lat="42.40677" lon="2.69348">
        <ele>1090.4</ele>
        <time>2018-11-26T04:17:17Z</time>
      </trkpt>
      <trkpt lat="42.40677" lon="2.69348">
        <ele>1090.6</ele>
        <time>2018-11-26T04:17:17Z</time>
      </trkpt>
      <trkpt lat="42.40677" lon="2.69348">
        <ele>1090.8</ele>
        <time>2018-11-26T04:17:17Z</time>
      </trkpt>
      <trkpt lat="42.40677" lon="2.6935">
        <ele>1090.8</ele>
        <time>2018-11-26T04:17:17Z</time>
      </trkpt>
      <trkpt lat="42.40677" lon="2.69351">
        <ele>1090.6</ele>
        <time>2018-11-26T04:17:18Z</time>
      </trkpt>
      <trkpt lat="42.40678" lon="2.69352">
        <ele>1090.4</ele>
        <time>2018-11-26T04:17:18Z</time>
      </trkpt>
      <trkpt lat="42.40678" lon="2.69353">
        <ele>1090.6</ele>
        <time>2018-11-26T04:17:19Z</time>
      </trkpt>
      <trkpt lat="42.40679" lon="2.69355">
        <ele>1091</ele>
        <time>2018-11-26T04:17:19Z</time>
      </trkpt>
      <trkpt lat="42.40679" lon="2.69356">
        <ele>1091.3</ele>
        <time>2018-11-26T04:17:20Z</time>
      </trkpt>
      <trkpt lat="42.4068" lon="2.69356">
        <ele>1091.4</ele>
        <time>2018-11-26T04:17:20Z</time>
      </trkpt>
      <trkpt lat="42.4068" lon="2.69357">
        <ele>1091.7</ele>
        <time>2018-11-26T04:17:20Z</time>
      </trkpt>
      <trkpt lat="42.4068" lon="2.69359">
        <ele>1091.8</ele>
        <time>2018-11-26T04:17:21Z</time>
      </trkpt>
      <trkpt lat="42.4068" lon="2.6936">
        <ele>1092.2</ele>
        <time>2018-11-26T04:17:21Z</time>
      </trkpt>
      <trkpt lat="42.40682" lon="2.69365">
        <ele>1092.8</ele>
        <time>2018-11-26T04:17:23Z</time>
      </trkpt>
      <trkpt lat="42.40684" lon="2.69371">
        <ele>1094.3</ele>
        <time>2018-11-26T04:17:25Z</time>
      </trkpt>
      <trkpt lat="42.40686" lon="2.69377">
        <ele>1094.6</ele>
        <time>2018-11-26T04:17:26Z</time>
      </trkpt>
      <trkpt lat="42.40687" lon="2.69379">
        <ele>1094.8</ele>
        <time>2018-11-26T04:17:27Z</time>
      </trkpt>
      <trkpt lat="42.40688" lon="2.69381">
        <ele>1094.9</ele>
        <time>2018-11-26T04:17:28Z</time>
      </trkpt>
      <trkpt lat="42.40688" lon="2.69382">
        <ele>1095.1</ele>
        <time>2018-11-26T04:17:28Z</time>
      </trkpt>
      <trkpt lat="42.40689" lon="2.69382">
        <ele>1095.3</ele>
        <time>2018-11-26T04:17:28Z</time>
      </trkpt>
      <trkpt lat="42.40689" lon="2.69382">
        <ele>1095.7</ele>
        <time>2018-11-26T04:17:28Z</time>
      </trkpt>
      <trkpt lat="42.40689" lon="2.69382">
        <ele>1096.3</ele>
        <time>2018-11-26T04:17:28Z</time>
      </trkpt>
      <trkpt lat="42.40689" lon="2.69383">
        <ele>1096.5</ele>
        <time>2018-11-26T04:17:29Z</time>
      </trkpt>
      <trkpt lat="42.40689" lon="2.69384">
        <ele>1096.8</ele>
        <time>2018-11-26T04:17:29Z</time>
      </trkpt>
      <trkpt lat="42.4069" lon="2.69384">
        <ele>1097.1</ele>
        <time>2018-11-26T04:17:29Z</time>
      </trkpt>
      <trkpt lat="42.4069" lon="2.69385">
        <ele>1097.2</ele>
        <time>2018-11-26T04:17:29Z</time>
      </trkpt>
      <trkpt lat="42.4069" lon="2.69386">
        <ele>1097.4</ele>
        <time>2018-11-26T04:17:30Z</time>
      </trkpt>
      <trkpt lat="42.40691" lon="2.69386">
        <ele>1097.7</ele>
        <time>2018-11-26T04:17:30Z</time>
      </trkpt>
      <trkpt lat="42.40691" lon="2.69387">
        <ele>1097.4</ele>
        <time>2018-11-26T04:17:30Z</time>
      </trkpt>
      <trkpt lat="42.40691" lon="2.69388">
        <ele>1097.2</ele>
        <time>2018-11-26T04:17:30Z</time>
      </trkpt>
      <trkpt lat="42.40691" lon="2.69388">
        <ele>1097</ele>
        <time>2018-11-26T04:17:30Z</time>
      </trkpt>
      <trkpt lat="42.40691" lon="2.69388">
        <ele>1097.1</ele>
        <time>2018-11-26T04:17:31Z</time>
      </trkpt>
      <trkpt lat="42.40691" lon="2.69389">
        <ele>1097.2</ele>
        <time>2018-11-26T04:17:31Z</time>
      </trkpt>
      <trkpt lat="42.40691" lon="2.69389">
        <ele>1097.3</ele>
        <time>2018-11-26T04:17:31Z</time>
      </trkpt>
      <trkpt lat="42.40691" lon="2.69389">
        <ele>1097.2</ele>
        <time>2018-11-26T04:17:31Z</time>
      </trkpt>
      <trkpt lat="42.40691" lon="2.69389">
        <ele>1097.1</ele>
        <time>2018-11-26T04:17:31Z</time>
      </trkpt>
      <trkpt lat="42.40691" lon="2.69389">
        <ele>1097.1</ele>
        <time>2018-11-26T04:17:31Z</time>
      </trkpt>
      <trkpt lat="42.40691" lon="2.69389">
        <ele>1096.8</ele>
        <time>2018-11-26T04:17:31Z</time>
      </trkpt>
      <trkpt lat="42.40691" lon="2.69389">
        <ele>1097</ele>
        <time>2018-11-26T04:17:31Z</time>
      </trkpt>
      <trkpt lat="42.40691" lon="2.69389">
        <ele>1097.1</ele>
        <time>2018-11-26T04:17:31Z</time>
      </trkpt>
      <trkpt lat="42.40691" lon="2.69389">
        <ele>1097.2</ele>
        <time>2018-11-26T04:17:31Z</time>
      </trkpt>
      <trkpt lat="42.40691" lon="2.69389">
        <ele>1097.1</ele>
        <time>2018-11-26T04:17:31Z</time>
      </trkpt>
      <trkpt lat="42.40691" lon="2.69389">
        <ele>1097.2</ele>
        <time>2018-11-26T04:17:31Z</time>
      </trkpt>
      <trkpt lat="42.40691" lon="2.69389">
        <ele>1097.2</ele>
        <time>2018-11-26T04:17:31Z</time>
      </trkpt>
      <trkpt lat="42.40691" lon="2.69389">
        <ele>1097.1</ele>
        <time>2018-11-26T04:17:31Z</time>
      </trkpt>
      <trkpt lat="42.40691" lon="2.69389">
        <ele>1097.2</ele>
        <time>2018-11-26T04:17:31Z</time>
      </trkpt>
      <trkpt lat="42.4069" lon="2.69389">
        <ele>1097.3</ele>
        <time>2018-11-26T04:17:31Z</time>
      </trkpt>
      <trkpt lat="42.4069" lon="2.69389">
        <ele>1097.1</ele>
        <time>2018-11-26T04:17:31Z</time>
      </trkpt>
      <trkpt lat="42.4069" lon="2.69389">
        <ele>1097</ele>
        <time>2018-11-26T04:17:31Z</time>
      </trkpt>
      <trkpt lat="42.4069" lon="2.69389">
        <ele>1097.2</ele>
        <time>2018-11-26T04:17:31Z</time>
      </trkpt>
      <trkpt lat="42.4069" lon="2.69389">
        <ele>1097.3</ele>
        <time>2018-11-26T04:17:31Z</time>
      </trkpt>
      <trkpt lat="42.4069" lon="2.69389">
        <ele>1097.4</ele>
        <time>2018-11-26T04:17:31Z</time>
      </trkpt>
      <trkpt lat="42.4069" lon="2.69389">
        <ele>1097.6</ele>
        <time>2018-11-26T04:17:31Z</time>
      </trkpt>
      <trkpt lat="42.4069" lon="2.69389">
        <ele>1097.4</ele>
        <time>2018-11-26T04:17:31Z</time>
      </trkpt>
      <trkpt lat="42.4069" lon="2.69389">
        <ele>1097.3</ele>
        <time>2018-11-26T04:17:31Z</time>
      </trkpt>
      <trkpt lat="42.4069" lon="2.69389">
        <ele>1097.2</ele>
        <time>2018-11-26T04:17:31Z</time>
      </trkpt>
      <trkpt lat="42.4069" lon="2.69389">
        <ele>1097.1</ele>
        <time>2018-11-26T04:17:31Z</time>
      </trkpt>
      <trkpt lat="42.4069" lon="2.69389">
        <ele>1097</ele>
        <time>2018-11-26T04:17:31Z</time>
      </trkpt>
      <trkpt lat="42.4069" lon="2.69389">
        <ele>1096.7</ele>
        <time>2018-11-26T04:17:31Z</time>
      </trkpt>
      <trkpt lat="42.4069" lon="2.69389">
        <ele>1096.6</ele>
        <time>2018-11-26T04:17:31Z</time>
      </trkpt>
      <trkpt lat="42.4069" lon="2.69389">
        <ele>1096.6</ele>
        <time>2018-11-26T04:17:31Z</time>
      </trkpt>
      <trkpt lat="42.4069" lon="2.69389">
        <ele>1096.6</ele>
        <time>2018-11-26T04:17:31Z</time>
      </trkpt>
      <trkpt lat="42.4069" lon="2.69389">
        <ele>1096.7</ele>
        <time>2018-11-26T04:17:31Z</time>
      </trkpt>
      <trkpt lat="42.4069" lon="2.69389">
        <ele>1096.7</ele>
        <time>2018-11-26T04:17:31Z</time>
      </trkpt>
      <trkpt lat="42.4069" lon="2.69389">
        <ele>1096.7</ele>
        <time>2018-11-26T04:17:31Z</time>
      </trkpt>
      <trkpt lat="42.4069" lon="2.69389">
        <ele>1096.8</ele>
        <time>2018-11-26T04:17:31Z</time>
      </trkpt>
      <trkpt lat="42.4069" lon="2.69389">
        <ele>1096.8</ele>
        <time>2018-11-26T04:17:31Z</time>
      </trkpt>
      <trkpt lat="42.4069" lon="2.69389">
        <ele>1096.9</ele>
        <time>2018-11-26T04:17:31Z</time>
      </trkpt>
      <trkpt lat="42.4069" lon="2.69389">
        <ele>1096.9</ele>
        <time>2018-11-26T04:17:31Z</time>
      </trkpt>
      <trkpt lat="42.4069" lon="2.69389">
        <ele>1096.9</ele>
        <time>2018-11-26T04:17:31Z</time>
      </trkpt>
      <trkpt lat="42.4069" lon="2.69389">
        <ele>1096.6</ele>
        <time>2018-11-26T04:17:31Z</time>
      </trkpt>
      <trkpt lat="42.4069" lon="2.69389">
        <ele>1096.4</ele>
        <time>2018-11-26T04:17:31Z</time>
      </trkpt>
      <trkpt lat="42.4069" lon="2.69389">
        <ele>1096.3</ele>
        <time>2018-11-26T04:17:31Z</time>
      </trkpt>
      <trkpt lat="42.4069" lon="2.69388">
        <ele>1096.4</ele>
        <time>2018-11-26T04:17:31Z</time>
      </trkpt>
      <trkpt lat="42.4069" lon="2.69388">
        <ele>1096.4</ele>
        <time>2018-11-26T04:17:31Z</time>
      </trkpt>
      <trkpt lat="42.4069" lon="2.69388">
        <ele>1096.5</ele>
        <time>2018-11-26T04:17:31Z</time>
      </trkpt>
      <trkpt lat="42.40689" lon="2.69388">
        <ele>1096.7</ele>
        <time>2018-11-26T04:17:31Z</time>
      </trkpt>
      <trkpt lat="42.40689" lon="2.69388">
        <ele>1097.1</ele>
        <time>2018-11-26T04:17:31Z</time>
      </trkpt>
      <trkpt lat="42.40689" lon="2.69388">
        <ele>1097.2</ele>
        <time>2018-11-26T04:17:31Z</time>
      </trkpt>
      <trkpt lat="42.40689" lon="2.69388">
        <ele>1097.3</ele>
        <time>2018-11-26T04:17:31Z</time>
      </trkpt>
      <trkpt lat="42.40689" lon="2.69388">
        <ele>1097.4</ele>
        <time>2018-11-26T04:17:31Z</time>
      </trkpt>
      <trkpt lat="42.40689" lon="2.69388">
        <ele>1097.4</ele>
        <time>2018-11-26T04:17:31Z</time>
      </trkpt>
      <trkpt lat="42.40689" lon="2.69388">
        <ele>1097.2</ele>
        <time>2018-11-26T04:17:31Z</time>
      </trkpt>
      <trkpt lat="42.40689" lon="2.69388">
        <ele>1097.1</ele>
        <time>2018-11-26T04:17:31Z</time>
      </trkpt>
      <trkpt lat="42.40689" lon="2.69388">
        <ele>1097</ele>
        <time>2018-11-26T04:17:31Z</time>
      </trkpt>
      <trkpt lat="42.40689" lon="2.69388">
        <ele>1097.4</ele>
        <time>2018-11-26T04:17:31Z</time>
      </trkpt>
      <trkpt lat="42.40689" lon="2.69388">
        <ele>1097.8</ele>
        <time>2018-11-26T04:17:31Z</time>
      </trkpt>
      <trkpt lat="42.40689" lon="2.69388">
        <ele>1098.4</ele>
        <time>2018-11-26T04:17:31Z</time>
      </trkpt>
      <trkpt lat="42.40689" lon="2.69388">
        <ele>1098.5</ele>
        <time>2018-11-26T04:17:31Z</time>
      </trkpt>
      <trkpt lat="42.40689" lon="2.69388">
        <ele>1098.5</ele>
        <time>2018-11-26T04:17:31Z</time>
      </trkpt>
      <trkpt lat="42.40689" lon="2.69388">
        <ele>1098.5</ele>
        <time>2018-11-26T04:17:31Z</time>
      </trkpt>
      <trkpt lat="42.40689" lon="2.69388">
        <ele>1098.7</ele>
        <time>2018-11-26T04:17:31Z</time>
      </trkpt>
      <trkpt lat="42.40689" lon="2.69389">
        <ele>1098.9</ele>
        <time>2018-11-26T04:17:32Z</time>
      </trkpt>
      <trkpt lat="42.40689" lon="2.69389">
        <ele>1099.3</ele>
        <time>2018-11-26T04:17:32Z</time>
      </trkpt>
      <trkpt lat="42.40689" lon="2.6939">
        <ele>1099.3</ele>
        <time>2018-11-26T04:17:32Z</time>
      </trkpt>
      <trkpt lat="42.40692" lon="2.69394">
        <ele>1100</ele>
        <time>2018-11-26T04:17:34Z</time>
      </trkpt>
      <trkpt lat="42.40694" lon="2.69401">
        <ele>1100.5</ele>
        <time>2018-11-26T04:17:36Z</time>
      </trkpt>
      <trkpt lat="42.40698" lon="2.69413">
        <ele>1100.9</ele>
        <time>2018-11-26T04:17:40Z</time>
      </trkpt>
      <trkpt lat="42.40698" lon="2.69416">
        <ele>1100.9</ele>
        <time>2018-11-26T04:17:41Z</time>
      </trkpt>
      <trkpt lat="42.407" lon="2.69419">
        <ele>1100.8</ele>
        <time>2018-11-26T04:17:42Z</time>
      </trkpt>
      <trkpt lat="42.407" lon="2.69421">
        <ele>1100.9</ele>
        <time>2018-11-26T04:17:42Z</time>
      </trkpt>
      <trkpt lat="42.40704" lon="2.69424">
        <ele>1101.4</ele>
        <time>2018-11-26T04:17:44Z</time>
      </trkpt>
      <trkpt lat="42.40705" lon="2.69424">
        <ele>1101.7</ele>
        <time>2018-11-26T04:17:44Z</time>
      </trkpt>
      <trkpt lat="42.40708" lon="2.69426">
        <ele>1102.5</ele>
        <time>2018-11-26T04:17:46Z</time>
      </trkpt>
      <trkpt lat="42.40709" lon="2.69427">
        <ele>1102.4</ele>
        <time>2018-11-26T04:17:46Z</time>
      </trkpt>
      <trkpt lat="42.40714" lon="2.69428">
        <ele>1103.3</ele>
        <time>2018-11-26T04:17:48Z</time>
      </trkpt>
      <trkpt lat="42.40716" lon="2.69428">
        <ele>1103.4</ele>
        <time>2018-11-26T04:17:49Z</time>
      </trkpt>
      <trkpt lat="42.40717" lon="2.69428">
        <ele>1103.5</ele>
        <time>2018-11-26T04:17:49Z</time>
      </trkpt>
      <trkpt lat="42.40718" lon="2.69428">
        <ele>1103.8</ele>
        <time>2018-11-26T04:17:50Z</time>
      </trkpt>
      <trkpt lat="42.40724" lon="2.6943">
        <ele>1105</ele>
        <time>2018-11-26T04:17:52Z</time>
      </trkpt>
      <trkpt lat="42.40725" lon="2.6943">
        <ele>1105.3</ele>
        <time>2018-11-26T04:17:52Z</time>
      </trkpt>
      <trkpt lat="42.40727" lon="2.69431">
        <ele>1105.8</ele>
        <time>2018-11-26T04:17:53Z</time>
      </trkpt>
      <trkpt lat="42.40729" lon="2.69432">
        <ele>1106.6</ele>
        <time>2018-11-26T04:17:54Z</time>
      </trkpt>
      <trkpt lat="42.4073" lon="2.69433">
        <ele>1106.7</ele>
        <time>2018-11-26T04:17:55Z</time>
      </trkpt>
      <trkpt lat="42.40731" lon="2.69433">
        <ele>1106.8</ele>
        <time>2018-11-26T04:17:55Z</time>
      </trkpt>
      <trkpt lat="42.4074" lon="2.69434">
        <ele>1107</ele>
        <time>2018-11-26T04:17:59Z</time>
      </trkpt>
      <trkpt lat="42.40741" lon="2.69434">
        <ele>1107</ele>
        <time>2018-11-26T04:17:59Z</time>
      </trkpt>
      <trkpt lat="42.40742" lon="2.69434">
        <ele>1107.2</ele>
        <time>2018-11-26T04:17:59Z</time>
      </trkpt>
      <trkpt lat="42.40743" lon="2.69435">
        <ele>1107</ele>
        <time>2018-11-26T04:18:00Z</time>
      </trkpt>
      <trkpt lat="42.40744" lon="2.69436">
        <ele>1106.9</ele>
        <time>2018-11-26T04:18:01Z</time>
      </trkpt>
      <trkpt lat="42.40749" lon="2.69439">
        <ele>1106.3</ele>
        <time>2018-11-26T04:18:03Z</time>
      </trkpt>
      <trkpt lat="42.40749" lon="2.6944">
        <ele>1106.2</ele>
        <time>2018-11-26T04:18:03Z</time>
      </trkpt>
      <trkpt lat="42.40753" lon="2.69445">
        <ele>1107.8</ele>
        <time>2018-11-26T04:18:05Z</time>
      </trkpt>
      <trkpt lat="42.40753" lon="2.69446">
        <ele>1107.7</ele>
        <time>2018-11-26T04:18:05Z</time>
      </trkpt>
      <trkpt lat="42.40754" lon="2.69447">
        <ele>1107.9</ele>
        <time>2018-11-26T04:18:06Z</time>
      </trkpt>
      <trkpt lat="42.40755" lon="2.69447">
        <ele>1107.9</ele>
        <time>2018-11-26T04:18:06Z</time>
      </trkpt>
      <trkpt lat="42.40755" lon="2.69448">
        <ele>1107.9</ele>
        <time>2018-11-26T04:18:06Z</time>
      </trkpt>
      <trkpt lat="42.40756" lon="2.69448">
        <ele>1107.8</ele>
        <time>2018-11-26T04:18:07Z</time>
      </trkpt>
      <trkpt lat="42.40756" lon="2.69448">
        <ele>1108.2</ele>
        <time>2018-11-26T04:18:07Z</time>
      </trkpt>
      <trkpt lat="42.40756" lon="2.69449">
        <ele>1108.4</ele>
        <time>2018-11-26T04:18:07Z</time>
      </trkpt>
      <trkpt lat="42.40757" lon="2.69451">
        <ele>1108.8</ele>
        <time>2018-11-26T04:18:07Z</time>
      </trkpt>
      <trkpt lat="42.40757" lon="2.69452">
        <ele>1108.6</ele>
        <time>2018-11-26T04:18:08Z</time>
      </trkpt>
      <trkpt lat="42.40758" lon="2.69452">
        <ele>1108.4</ele>
        <time>2018-11-26T04:18:08Z</time>
      </trkpt>
      <trkpt lat="42.40759" lon="2.69453">
        <ele>1108.1</ele>
        <time>2018-11-26T04:18:09Z</time>
      </trkpt>
      <trkpt lat="42.4076" lon="2.69452">
        <ele>1108.1</ele>
        <time>2018-11-26T04:18:09Z</time>
      </trkpt>
      <trkpt lat="42.4076" lon="2.69452">
        <ele>1108.1</ele>
        <time>2018-11-26T04:18:09Z</time>
      </trkpt>
      <trkpt lat="42.4076" lon="2.69452">
        <ele>1108</ele>
        <time>2018-11-26T04:18:09Z</time>
      </trkpt>
      <trkpt lat="42.4076" lon="2.69452">
        <ele>1108</ele>
        <time>2018-11-26T04:18:09Z</time>
      </trkpt>
      <trkpt lat="42.4076" lon="2.69452">
        <ele>1108</ele>
        <time>2018-11-26T04:18:09Z</time>
      </trkpt>
      <trkpt lat="42.4076" lon="2.69452">
        <ele>1108</ele>
        <time>2018-11-26T04:18:09Z</time>
      </trkpt>
      <trkpt lat="42.4076" lon="2.69452">
        <ele>1108</ele>
        <time>2018-11-26T04:18:09Z</time>
      </trkpt>
      <trkpt lat="42.4076" lon="2.69452">
        <ele>1108</ele>
        <time>2018-11-26T04:18:09Z</time>
      </trkpt>
      <trkpt lat="42.4076" lon="2.69452">
        <ele>1108</ele>
        <time>2018-11-26T04:18:09Z</time>
      </trkpt>
      <trkpt lat="42.4076" lon="2.69452">
        <ele>1108</ele>
        <time>2018-11-26T04:18:09Z</time>
      </trkpt>
      <trkpt lat="42.4076" lon="2.69452">
        <ele>1108</ele>
        <time>2018-11-26T04:18:09Z</time>
      </trkpt>
      <trkpt lat="42.4076" lon="2.69452">
        <ele>1108</ele>
        <time>2018-11-26T04:18:09Z</time>
      </trkpt>
      <trkpt lat="42.4076" lon="2.69452">
        <ele>1108</ele>
        <time>2018-11-26T04:18:09Z</time>
      </trkpt>
      <trkpt lat="42.4076" lon="2.69452">
        <ele>1108.2</ele>
        <time>2018-11-26T04:18:09Z</time>
      </trkpt>
      <trkpt lat="42.4076" lon="2.69452">
        <ele>1108.2</ele>
        <time>2018-11-26T04:18:09Z</time>
      </trkpt>
      <trkpt lat="42.4076" lon="2.69452">
        <ele>1108.3</ele>
        <time>2018-11-26T04:18:09Z</time>
      </trkpt>
      <trkpt lat="42.4076" lon="2.69452">
        <ele>1108.3</ele>
        <time>2018-11-26T04:18:09Z</time>
      </trkpt>
      <trkpt lat="42.4076" lon="2.69452">
        <ele>1108.2</ele>
        <time>2018-11-26T04:18:09Z</time>
      </trkpt>
      <trkpt lat="42.4076" lon="2.69452">
        <ele>1108.1</ele>
        <time>2018-11-26T04:18:09Z</time>
      </trkpt>
      <trkpt lat="42.4076" lon="2.69452">
        <ele>1107.8</ele>
        <time>2018-11-26T04:18:09Z</time>
      </trkpt>
      <trkpt lat="42.4076" lon="2.69452">
        <ele>1107.9</ele>
        <time>2018-11-26T04:18:09Z</time>
      </trkpt>
      <trkpt lat="42.4076" lon="2.69452">
        <ele>1107.9</ele>
        <time>2018-11-26T04:18:09Z</time>
      </trkpt>
      <trkpt lat="42.4076" lon="2.69452">
        <ele>1108.1</ele>
        <time>2018-11-26T04:18:09Z</time>
      </trkpt>
      <trkpt lat="42.4076" lon="2.69452">
        <ele>1108.1</ele>
        <time>2018-11-26T04:18:09Z</time>
      </trkpt>
      <trkpt lat="42.4076" lon="2.69452">
        <ele>1108.2</ele>
        <time>2018-11-26T04:18:09Z</time>
      </trkpt>
      <trkpt lat="42.4076" lon="2.69452">
        <ele>1108.3</ele>
        <time>2018-11-26T04:18:09Z</time>
      </trkpt>
      <trkpt lat="42.4076" lon="2.69452">
        <ele>1108.4</ele>
        <time>2018-11-26T04:18:09Z</time>
      </trkpt>
      <trkpt lat="42.4076" lon="2.69452">
        <ele>1108.6</ele>
        <time>2018-11-26T04:18:09Z</time>
      </trkpt>
      <trkpt lat="42.4076" lon="2.69452">
        <ele>1108.8</ele>
        <time>2018-11-26T04:18:09Z</time>
      </trkpt>
      <trkpt lat="42.4076" lon="2.69452">
        <ele>1108.5</ele>
        <time>2018-11-26T04:18:09Z</time>
      </trkpt>
      <trkpt lat="42.4076" lon="2.69452">
        <ele>1108.3</ele>
        <time>2018-11-26T04:18:09Z</time>
      </trkpt>
      <trkpt lat="42.4076" lon="2.69452">
        <ele>1108</ele>
        <time>2018-11-26T04:18:09Z</time>
      </trkpt>
      <trkpt lat="42.4076" lon="2.69452">
        <ele>1108.1</ele>
        <time>2018-11-26T04:18:09Z</time>
      </trkpt>
      <trkpt lat="42.4076" lon="2.69452">
        <ele>1108.1</ele>
        <time>2018-11-26T04:18:09Z</time>
      </trkpt>
      <trkpt lat="42.40761" lon="2.69452">
        <ele>1108</ele>
        <time>2018-11-26T04:18:09Z</time>
      </trkpt>
      <trkpt lat="42.40761" lon="2.69452">
        <ele>1108.1</ele>
        <time>2018-11-26T04:18:09Z</time>
      </trkpt>
      <trkpt lat="42.40761" lon="2.69452">
        <ele>1108.3</ele>
        <time>2018-11-26T04:18:09Z</time>
      </trkpt>
      <trkpt lat="42.40761" lon="2.69452">
        <ele>1108.3</ele>
        <time>2018-11-26T04:18:09Z</time>
      </trkpt>
      <trkpt lat="42.40761" lon="2.69452">
        <ele>1108.5</ele>
        <time>2018-11-26T04:18:09Z</time>
      </trkpt>
      <trkpt lat="42.4076" lon="2.69452">
        <ele>1108.3</ele>
        <time>2018-11-26T04:18:09Z</time>
      </trkpt>
      <trkpt lat="42.4076" lon="2.69453">
        <ele>1107.9</ele>
        <time>2018-11-26T04:18:10Z</time>
      </trkpt>
      <trkpt lat="42.40759" lon="2.69453">
        <ele>1108</ele>
        <time>2018-11-26T04:18:10Z</time>
      </trkpt>
      <trkpt lat="42.4076" lon="2.69453">
        <ele>1108.1</ele>
        <time>2018-11-26T04:18:10Z</time>
      </trkpt>
      <trkpt lat="42.40761" lon="2.69454">
        <ele>1108.3</ele>
        <time>2018-11-26T04:18:11Z</time>
      </trkpt>
      <trkpt lat="42.40763" lon="2.69456">
        <ele>1108.7</ele>
        <time>2018-11-26T04:18:12Z</time>
      </trkpt>
      <trkpt lat="42.40767" lon="2.6946">
        <ele>1108.7</ele>
        <time>2018-11-26T04:18:14Z</time>
      </trkpt>
      <trkpt lat="42.40768" lon="2.6946">
        <ele>1108.7</ele>
        <time>2018-11-26T04:18:14Z</time>
      </trkpt>
      <trkpt lat="42.40768" lon="2.69461">
        <ele>1108.7</ele>
        <time>2018-11-26T04:18:14Z</time>
      </trkpt>
      <trkpt lat="42.40769" lon="2.69462">
        <ele>1108.6</ele>
        <time>2018-11-26T04:18:15Z</time>
      </trkpt>
      <trkpt lat="42.40769" lon="2.69462">
        <ele>1108.7</ele>
        <time>2018-11-26T04:18:15Z</time>
      </trkpt>
      <trkpt lat="42.4077" lon="2.69462">
        <ele>1108.8</ele>
        <time>2018-11-26T04:18:15Z</time>
      </trkpt>
      <trkpt lat="42.40771" lon="2.69463">
        <ele>1108.6</ele>
        <time>2018-11-26T04:18:15Z</time>
      </trkpt>
      <trkpt lat="42.40771" lon="2.69463">
        <ele>1108.4</ele>
        <time>2018-11-26T04:18:16Z</time>
      </trkpt>
      <trkpt lat="42.40772" lon="2.69464">
        <ele>1108.2</ele>
        <time>2018-11-26T04:18:16Z</time>
      </trkpt>
      <trkpt lat="42.40773" lon="2.69464">
        <ele>1108.2</ele>
        <time>2018-11-26T04:18:16Z</time>
      </trkpt>
      <trkpt lat="42.40774" lon="2.69464">
        <ele>1108</ele>
        <time>2018-11-26T04:18:17Z</time>
      </trkpt>
      <trkpt lat="42.40774" lon="2.69465">
        <ele>1107.9</ele>
        <time>2018-11-26T04:18:17Z</time>
      </trkpt>
      <trkpt lat="42.40775" lon="2.69465">
        <ele>1107.9</ele>
        <time>2018-11-26T04:18:17Z</time>
      </trkpt>
      <trkpt lat="42.40775" lon="2.69466">
        <ele>1107.8</ele>
        <time>2018-11-26T04:18:18Z</time>
      </trkpt>
      <trkpt lat="42.40776" lon="2.69466">
        <ele>1107.7</ele>
        <time>2018-11-26T04:18:18Z</time>
      </trkpt>
      <trkpt lat="42.40777" lon="2.69467">
        <ele>1107.5</ele>
        <time>2018-11-26T04:18:18Z</time>
      </trkpt>
      <trkpt lat="42.40777" lon="2.69467">
        <ele>1107.3</ele>
        <time>2018-11-26T04:18:18Z</time>
      </trkpt>
      <trkpt lat="42.40777" lon="2.69468">
        <ele>1107.2</ele>
        <time>2018-11-26T04:18:18Z</time>
      </trkpt>
      <trkpt lat="42.40778" lon="2.69468">
        <ele>1106.9</ele>
        <time>2018-11-26T04:18:19Z</time>
      </trkpt>
      <trkpt lat="42.40778" lon="2.69469">
        <ele>1106.8</ele>
        <time>2018-11-26T04:18:19Z</time>
      </trkpt>
      <trkpt lat="42.40778" lon="2.6947">
        <ele>1106.7</ele>
        <time>2018-11-26T04:18:19Z</time>
      </trkpt>
      <trkpt lat="42.40779" lon="2.6947">
        <ele>1106.7</ele>
        <time>2018-11-26T04:18:19Z</time>
      </trkpt>
      <trkpt lat="42.40779" lon="2.6947">
        <ele>1106.7</ele>
        <time>2018-11-26T04:18:20Z</time>
      </trkpt>
      <trkpt lat="42.4078" lon="2.69471">
        <ele>1106.7</ele>
        <time>2018-11-26T04:18:20Z</time>
      </trkpt>
      <trkpt lat="42.4078" lon="2.69471">
        <ele>1106.8</ele>
        <time>2018-11-26T04:18:20Z</time>
      </trkpt>
      <trkpt lat="42.40781" lon="2.69471">
        <ele>1106.6</ele>
        <time>2018-11-26T04:18:20Z</time>
      </trkpt>
      <trkpt lat="42.40781" lon="2.69472">
        <ele>1106.5</ele>
        <time>2018-11-26T04:18:21Z</time>
      </trkpt>
      <trkpt lat="42.40782" lon="2.69472">
        <ele>1106.2</ele>
        <time>2018-11-26T04:18:21Z</time>
      </trkpt>
      <trkpt lat="42.40782" lon="2.69472">
        <ele>1106.3</ele>
        <time>2018-11-26T04:18:21Z</time>
      </trkpt>
      <trkpt lat="42.40783" lon="2.69473">
        <ele>1106.5</ele>
        <time>2018-11-26T04:18:21Z</time>
      </trkpt>
      <trkpt lat="42.40783" lon="2.69473">
        <ele>1106.6</ele>
        <time>2018-11-26T04:18:21Z</time>
      </trkpt>
      <trkpt lat="42.40783" lon="2.69474">
        <ele>1106.8</ele>
        <time>2018-11-26T04:18:22Z</time>
      </trkpt>
      <trkpt lat="42.40783" lon="2.69474">
        <ele>1106.7</ele>
        <time>2018-11-26T04:18:22Z</time>
      </trkpt>
      <trkpt lat="42.40783" lon="2.69474">
        <ele>1106.9</ele>
        <time>2018-11-26T04:18:22Z</time>
      </trkpt>
      <trkpt lat="42.40783" lon="2.69474">
        <ele>1107.1</ele>
        <time>2018-11-26T04:18:22Z</time>
      </trkpt>
      <trkpt lat="42.40784" lon="2.69474">
        <ele>1107</ele>
        <time>2018-11-26T04:18:22Z</time>
      </trkpt>
      <trkpt lat="42.40784" lon="2.69474">
        <ele>1107.1</ele>
        <time>2018-11-26T04:18:22Z</time>
      </trkpt>
      <trkpt lat="42.40784" lon="2.69474">
        <ele>1107.1</ele>
        <time>2018-11-26T04:18:22Z</time>
      </trkpt>
      <trkpt lat="42.40784" lon="2.69474">
        <ele>1107</ele>
        <time>2018-11-26T04:18:22Z</time>
      </trkpt>
      <trkpt lat="42.40784" lon="2.69473">
        <ele>1106.9</ele>
        <time>2018-11-26T04:18:22Z</time>
      </trkpt>
      <trkpt lat="42.40784" lon="2.69473">
        <ele>1106.6</ele>
        <time>2018-11-26T04:18:22Z</time>
      </trkpt>
      <trkpt lat="42.40784" lon="2.69473">
        <ele>1106.6</ele>
        <time>2018-11-26T04:18:22Z</time>
      </trkpt>
      <trkpt lat="42.40784" lon="2.69473">
        <ele>1106.4</ele>
        <time>2018-11-26T04:18:23Z</time>
      </trkpt>
      <trkpt lat="42.40784" lon="2.69474">
        <ele>1106.3</ele>
        <time>2018-11-26T04:18:23Z</time>
      </trkpt>
      <trkpt lat="42.40784" lon="2.69475">
        <ele>1106.6</ele>
        <time>2018-11-26T04:18:23Z</time>
      </trkpt>
      <trkpt lat="42.40785" lon="2.69476">
        <ele>1106.7</ele>
        <time>2018-11-26T04:18:23Z</time>
      </trkpt>
      <trkpt lat="42.40785" lon="2.69476">
        <ele>1106.9</ele>
        <time>2018-11-26T04:18:24Z</time>
      </trkpt>
      <trkpt lat="42.40786" lon="2.69476">
        <ele>1106.7</ele>
        <time>2018-11-26T04:18:24Z</time>
      </trkpt>
      <trkpt lat="42.40787" lon="2.69476">
        <ele>1106.3</ele>
        <time>2018-11-26T04:18:24Z</time>
      </trkpt>
      <trkpt lat="42.40788" lon="2.69476">
        <ele>1106</ele>
        <time>2018-11-26T04:18:25Z</time>
      </trkpt>
      <trkpt lat="42.40788" lon="2.69476">
        <ele>1105.3</ele>
        <time>2018-11-26T04:18:25Z</time>
      </trkpt>
      <trkpt lat="42.40789" lon="2.69476">
        <ele>1105.3</ele>
        <time>2018-11-26T04:18:25Z</time>
      </trkpt>
      <trkpt lat="42.40789" lon="2.69476">
        <ele>1105.2</ele>
        <time>2018-11-26T04:18:25Z</time>
      </trkpt>
      <trkpt lat="42.40789" lon="2.69476">
        <ele>1104.9</ele>
        <time>2018-11-26T04:18:25Z</time>
      </trkpt>
      <trkpt lat="42.40789" lon="2.69477">
        <ele>1104.4</ele>
        <time>2018-11-26T04:18:25Z</time>
      </trkpt>
      <trkpt lat="42.4079" lon="2.69477">
        <ele>1103.8</ele>
        <time>2018-11-26T04:18:26Z</time>
      </trkpt>
      <trkpt lat="42.4079" lon="2.69477">
        <ele>1104.2</ele>
        <time>2018-11-26T04:18:26Z</time>
      </trkpt>
      <trkpt lat="42.40791" lon="2.69478">
        <ele>1104.8</ele>
        <time>2018-11-26T04:18:26Z</time>
      </trkpt>
      <trkpt lat="42.40792" lon="2.69478">
        <ele>1105.5</ele>
        <time>2018-11-26T04:18:26Z</time>
      </trkpt>
      <trkpt lat="42.40793" lon="2.69478">
        <ele>1104.9</ele>
        <time>2018-11-26T04:18:27Z</time>
      </trkpt>
      <trkpt lat="42.40794" lon="2.69478">
        <ele>1104.5</ele>
        <time>2018-11-26T04:18:27Z</time>
      </trkpt>
      <trkpt lat="42.40794" lon="2.69479">
        <ele>1104.5</ele>
        <time>2018-11-26T04:18:28Z</time>
      </trkpt>
      <trkpt lat="42.40795" lon="2.69479">
        <ele>1104.5</ele>
        <time>2018-11-26T04:18:28Z</time>
      </trkpt>
      <trkpt lat="42.40796" lon="2.69479">
        <ele>1104.3</ele>
        <time>2018-11-26T04:18:28Z</time>
      </trkpt>
      <trkpt lat="42.40797" lon="2.6948">
        <ele>1104.2</ele>
        <time>2018-11-26T04:18:29Z</time>
      </trkpt>
      <trkpt lat="42.40798" lon="2.69481">
        <ele>1104</ele>
        <time>2018-11-26T04:18:29Z</time>
      </trkpt>
      <trkpt lat="42.40798" lon="2.69482">
        <ele>1103.8</ele>
        <time>2018-11-26T04:18:29Z</time>
      </trkpt>
      <trkpt lat="42.40798" lon="2.69482">
        <ele>1103.9</ele>
        <time>2018-11-26T04:18:30Z</time>
      </trkpt>
      <trkpt lat="42.40798" lon="2.69483">
        <ele>1103.6</ele>
        <time>2018-11-26T04:18:30Z</time>
      </trkpt>
      <trkpt lat="42.40798" lon="2.69483">
        <ele>1103.5</ele>
        <time>2018-11-26T04:18:30Z</time>
      </trkpt>
      <trkpt lat="42.40798" lon="2.69484">
        <ele>1103.5</ele>
        <time>2018-11-26T04:18:30Z</time>
      </trkpt>
      <trkpt lat="42.40798" lon="2.69484">
        <ele>1103.5</ele>
        <time>2018-11-26T04:18:30Z</time>
      </trkpt>
      <trkpt lat="42.40798" lon="2.69484">
        <ele>1103.4</ele>
        <time>2018-11-26T04:18:30Z</time>
      </trkpt>
      <trkpt lat="42.40798" lon="2.69485">
        <ele>1103.5</ele>
        <time>2018-11-26T04:18:30Z</time>
      </trkpt>
      <trkpt lat="42.40798" lon="2.69486">
        <ele>1103.3</ele>
        <time>2018-11-26T04:18:31Z</time>
      </trkpt>
      <trkpt lat="42.40798" lon="2.69486">
        <ele>1103.1</ele>
        <time>2018-11-26T04:18:31Z</time>
      </trkpt>
      <trkpt lat="42.40799" lon="2.69487">
        <ele>1103</ele>
        <time>2018-11-26T04:18:31Z</time>
      </trkpt>
      <trkpt lat="42.40799" lon="2.69488">
        <ele>1103</ele>
        <time>2018-11-26T04:18:31Z</time>
      </trkpt>
      <trkpt lat="42.40799" lon="2.69488">
        <ele>1102.7</ele>
        <time>2018-11-26T04:18:31Z</time>
      </trkpt>
      <trkpt lat="42.408" lon="2.69489">
        <ele>1102.6</ele>
        <time>2018-11-26T04:18:32Z</time>
      </trkpt>
      <trkpt lat="42.408" lon="2.69489">
        <ele>1102.2</ele>
        <time>2018-11-26T04:18:32Z</time>
      </trkpt>
      <trkpt lat="42.408" lon="2.6949">
        <ele>1102</ele>
        <time>2018-11-26T04:18:32Z</time>
      </trkpt>
      <trkpt lat="42.40801" lon="2.6949">
        <ele>1101.4</ele>
        <time>2018-11-26T04:18:32Z</time>
      </trkpt>
      <trkpt lat="42.40801" lon="2.69491">
        <ele>1101.4</ele>
        <time>2018-11-26T04:18:32Z</time>
      </trkpt>
      <trkpt lat="42.40802" lon="2.69491">
        <ele>1101.2</ele>
        <time>2018-11-26T04:18:33Z</time>
      </trkpt>
      <trkpt lat="42.40802" lon="2.69491">
        <ele>1100.8</ele>
        <time>2018-11-26T04:18:33Z</time>
      </trkpt>
      <trkpt lat="42.40803" lon="2.69491">
        <ele>1100.6</ele>
        <time>2018-11-26T04:18:33Z</time>
      </trkpt>
      <trkpt lat="42.40803" lon="2.69492">
        <ele>1100.3</ele>
        <time>2018-11-26T04:18:33Z</time>
      </trkpt>
      <trkpt lat="42.40803" lon="2.69492">
        <ele>1099.9</ele>
        <time>2018-11-26T04:18:34Z</time>
      </trkpt>
      <trkpt lat="42.40804" lon="2.69493">
        <ele>1099.8</ele>
        <time>2018-11-26T04:18:34Z</time>
      </trkpt>
      <trkpt lat="42.40804" lon="2.69493">
        <ele>1099.7</ele>
        <time>2018-11-26T04:18:34Z</time>
      </trkpt>
      <trkpt lat="42.40804" lon="2.69494">
        <ele>1099.4</ele>
        <time>2018-11-26T04:18:34Z</time>
      </trkpt>
      <trkpt lat="42.40805" lon="2.69494">
        <ele>1099.4</ele>
        <time>2018-11-26T04:18:34Z</time>
      </trkpt>
      <trkpt lat="42.40805" lon="2.69494">
        <ele>1099.3</ele>
        <time>2018-11-26T04:18:34Z</time>
      </trkpt>
      <trkpt lat="42.40805" lon="2.69494">
        <ele>1099.1</ele>
        <time>2018-11-26T04:18:35Z</time>
      </trkpt>
      <trkpt lat="42.40806" lon="2.69494">
        <ele>1098.9</ele>
        <time>2018-11-26T04:18:35Z</time>
      </trkpt>
      <trkpt lat="42.40806" lon="2.69495">
        <ele>1098.8</ele>
        <time>2018-11-26T04:18:35Z</time>
      </trkpt>
      <trkpt lat="42.40807" lon="2.69494">
        <ele>1098.7</ele>
        <time>2018-11-26T04:18:35Z</time>
      </trkpt>
      <trkpt lat="42.40807" lon="2.69494">
        <ele>1098.5</ele>
        <time>2018-11-26T04:18:35Z</time>
      </trkpt>
      <trkpt lat="42.40808" lon="2.69494">
        <ele>1098.7</ele>
        <time>2018-11-26T04:18:36Z</time>
      </trkpt>
      <trkpt lat="42.40808" lon="2.69494">
        <ele>1098.8</ele>
        <time>2018-11-26T04:18:36Z</time>
      </trkpt>
      <trkpt lat="42.40809" lon="2.69494">
        <ele>1098.6</ele>
        <time>2018-11-26T04:18:36Z</time>
      </trkpt>
      <trkpt lat="42.40809" lon="2.69494">
        <ele>1098.5</ele>
        <time>2018-11-26T04:18:36Z</time>
      </trkpt>
      <trkpt lat="42.40809" lon="2.69495">
        <ele>1098.3</ele>
        <time>2018-11-26T04:18:36Z</time>
      </trkpt>
      <trkpt lat="42.40809" lon="2.69495">
        <ele>1098.2</ele>
        <time>2018-11-26T04:18:37Z</time>
      </trkpt>
      <trkpt lat="42.4081" lon="2.69496">
        <ele>1098.2</ele>
        <time>2018-11-26T04:18:37Z</time>
      </trkpt>
      <trkpt lat="42.4081" lon="2.69496">
        <ele>1098.2</ele>
        <time>2018-11-26T04:18:37Z</time>
      </trkpt>
      <trkpt lat="42.4081" lon="2.69496">
        <ele>1098.1</ele>
        <time>2018-11-26T04:18:37Z</time>
      </trkpt>
      <trkpt lat="42.4081" lon="2.69496">
        <ele>1098.1</ele>
        <time>2018-11-26T04:18:37Z</time>
      </trkpt>
      <trkpt lat="42.4081" lon="2.69496">
        <ele>1097.9</ele>
        <time>2018-11-26T04:18:37Z</time>
      </trkpt>
      <trkpt lat="42.4081" lon="2.69496">
        <ele>1097.9</ele>
        <time>2018-11-26T04:18:37Z</time>
      </trkpt>
      <trkpt lat="42.4081" lon="2.69496">
        <ele>1097.7</ele>
        <time>2018-11-26T04:18:37Z</time>
      </trkpt>
      <trkpt lat="42.4081" lon="2.69496">
        <ele>1097.7</ele>
        <time>2018-11-26T04:18:37Z</time>
      </trkpt>
      <trkpt lat="42.4081" lon="2.69496">
        <ele>1097.6</ele>
        <time>2018-11-26T04:18:37Z</time>
      </trkpt>
      <trkpt lat="42.4081" lon="2.69496">
        <ele>1097.2</ele>
        <time>2018-11-26T04:18:37Z</time>
      </trkpt>
      <trkpt lat="42.40811" lon="2.69496">
        <ele>1096.7</ele>
        <time>2018-11-26T04:18:37Z</time>
      </trkpt>
      <trkpt lat="42.40811" lon="2.69497">
        <ele>1096.1</ele>
        <time>2018-11-26T04:18:37Z</time>
      </trkpt>
      <trkpt lat="42.40811" lon="2.69497">
        <ele>1096.1</ele>
        <time>2018-11-26T04:18:38Z</time>
      </trkpt>
      <trkpt lat="42.40811" lon="2.69498">
        <ele>1096.2</ele>
        <time>2018-11-26T04:18:38Z</time>
      </trkpt>
      <trkpt lat="42.40812" lon="2.69499">
        <ele>1096</ele>
        <time>2018-11-26T04:18:38Z</time>
      </trkpt>
      <trkpt lat="42.40812" lon="2.69499">
        <ele>1095.6</ele>
        <time>2018-11-26T04:18:38Z</time>
      </trkpt>
      <trkpt lat="42.40813" lon="2.69498">
        <ele>1095.1</ele>
        <time>2018-11-26T04:18:39Z</time>
      </trkpt>
      <trkpt lat="42.40813" lon="2.69498">
        <ele>1095.1</ele>
        <time>2018-11-26T04:18:39Z</time>
      </trkpt>
      <trkpt lat="42.40814" lon="2.69498">
        <ele>1095.2</ele>
        <time>2018-11-26T04:18:39Z</time>
      </trkpt>
      <trkpt lat="42.40814" lon="2.69499">
        <ele>1095.1</ele>
        <time>2018-11-26T04:18:39Z</time>
      </trkpt>
      <trkpt lat="42.40814" lon="2.69499">
        <ele>1094.8</ele>
        <time>2018-11-26T04:18:39Z</time>
      </trkpt>
      <trkpt lat="42.40814" lon="2.695">
        <ele>1094.5</ele>
        <time>2018-11-26T04:18:40Z</time>
      </trkpt>
      <trkpt lat="42.40814" lon="2.69501">
        <ele>1094.3</ele>
        <time>2018-11-26T04:18:40Z</time>
      </trkpt>
      <trkpt lat="42.40814" lon="2.69502">
        <ele>1093.7</ele>
        <time>2018-11-26T04:18:40Z</time>
      </trkpt>
      <trkpt lat="42.40814" lon="2.69503">
        <ele>1093.5</ele>
        <time>2018-11-26T04:18:41Z</time>
      </trkpt>
      <trkpt lat="42.40815" lon="2.69503">
        <ele>1093.2</ele>
        <time>2018-11-26T04:18:41Z</time>
      </trkpt>
      <trkpt lat="42.40815" lon="2.69504">
        <ele>1093</ele>
        <time>2018-11-26T04:18:41Z</time>
      </trkpt>
      <trkpt lat="42.40816" lon="2.69504">
        <ele>1092.9</ele>
        <time>2018-11-26T04:18:41Z</time>
      </trkpt>
      <trkpt lat="42.40816" lon="2.69504">
        <ele>1092.7</ele>
        <time>2018-11-26T04:18:42Z</time>
      </trkpt>
      <trkpt lat="42.40817" lon="2.69505">
        <ele>1092.5</ele>
        <time>2018-11-26T04:18:42Z</time>
      </trkpt>
      <trkpt lat="42.40818" lon="2.69505">
        <ele>1092.4</ele>
        <time>2018-11-26T04:18:42Z</time>
      </trkpt>
      <trkpt lat="42.40818" lon="2.69505">
        <ele>1092.3</ele>
        <time>2018-11-26T04:18:42Z</time>
      </trkpt>
      <trkpt lat="42.40819" lon="2.69506">
        <ele>1092.1</ele>
        <time>2018-11-26T04:18:43Z</time>
      </trkpt>
      <trkpt lat="42.40819" lon="2.69506">
        <ele>1091.6</ele>
        <time>2018-11-26T04:18:43Z</time>
      </trkpt>
      <trkpt lat="42.40819" lon="2.69507">
        <ele>1091.2</ele>
        <time>2018-11-26T04:18:43Z</time>
      </trkpt>
      <trkpt lat="42.40819" lon="2.69508">
        <ele>1091.1</ele>
        <time>2018-11-26T04:18:43Z</time>
      </trkpt>
      <trkpt lat="42.4082" lon="2.69508">
        <ele>1091.1</ele>
        <time>2018-11-26T04:18:44Z</time>
      </trkpt>
      <trkpt lat="42.40821" lon="2.69509">
        <ele>1091.2</ele>
        <time>2018-11-26T04:18:44Z</time>
      </trkpt>
      <trkpt lat="42.40822" lon="2.69509">
        <ele>1091</ele>
        <time>2018-11-26T04:18:44Z</time>
      </trkpt>
      <trkpt lat="42.40822" lon="2.69509">
        <ele>1090.5</ele>
        <time>2018-11-26T04:18:44Z</time>
      </trkpt>
      <trkpt lat="42.40823" lon="2.69509">
        <ele>1090</ele>
        <time>2018-11-26T04:18:45Z</time>
      </trkpt>
      <trkpt lat="42.40823" lon="2.6951">
        <ele>1089.3</ele>
        <time>2018-11-26T04:18:45Z</time>
      </trkpt>
      <trkpt lat="42.40823" lon="2.6951">
        <ele>1089.5</ele>
        <time>2018-11-26T04:18:45Z</time>
      </trkpt>
      <trkpt lat="42.40824" lon="2.6951">
        <ele>1089.5</ele>
        <time>2018-11-26T04:18:45Z</time>
      </trkpt>
      <trkpt lat="42.40825" lon="2.6951">
        <ele>1089.7</ele>
        <time>2018-11-26T04:18:46Z</time>
      </trkpt>
      <trkpt lat="42.40825" lon="2.6951">
        <ele>1089.4</ele>
        <time>2018-11-26T04:18:46Z</time>
      </trkpt>
      <trkpt lat="42.40826" lon="2.69511">
        <ele>1089.3</ele>
        <time>2018-11-26T04:18:46Z</time>
      </trkpt>
      <trkpt lat="42.40827" lon="2.69511">
        <ele>1088.8</ele>
        <time>2018-11-26T04:18:47Z</time>
      </trkpt>
      <trkpt lat="42.40827" lon="2.69512">
        <ele>1088.6</ele>
        <time>2018-11-26T04:18:47Z</time>
      </trkpt>
      <trkpt lat="42.40828" lon="2.69513">
        <ele>1088.4</ele>
        <time>2018-11-26T04:18:47Z</time>
      </trkpt>
      <trkpt lat="42.40828" lon="2.69513">
        <ele>1087.9</ele>
        <time>2018-11-26T04:18:47Z</time>
      </trkpt>
      <trkpt lat="42.40829" lon="2.69514">
        <ele>1087.7</ele>
        <time>2018-11-26T04:18:48Z</time>
      </trkpt>
      <trkpt lat="42.4083" lon="2.69514">
        <ele>1087.5</ele>
        <time>2018-11-26T04:18:48Z</time>
      </trkpt>
      <trkpt lat="42.4083" lon="2.69515">
        <ele>1087.3</ele>
        <time>2018-11-26T04:18:48Z</time>
      </trkpt>
      <trkpt lat="42.40831" lon="2.69516">
        <ele>1087.1</ele>
        <time>2018-11-26T04:18:49Z</time>
      </trkpt>
      <trkpt lat="42.40831" lon="2.69517">
        <ele>1087</ele>
        <time>2018-11-26T04:18:49Z</time>
      </trkpt>
      <trkpt lat="42.40832" lon="2.69517">
        <ele>1086.7</ele>
        <time>2018-11-26T04:18:49Z</time>
      </trkpt>
      <trkpt lat="42.40833" lon="2.69518">
        <ele>1086.3</ele>
        <time>2018-11-26T04:18:50Z</time>
      </trkpt>
      <trkpt lat="42.40833" lon="2.69519">
        <ele>1086.1</ele>
        <time>2018-11-26T04:18:50Z</time>
      </trkpt>
      <trkpt lat="42.40834" lon="2.69519">
        <ele>1085.9</ele>
        <time>2018-11-26T04:18:50Z</time>
      </trkpt>
      <trkpt lat="42.40835" lon="2.6952">
        <ele>1085.5</ele>
        <time>2018-11-26T04:18:51Z</time>
      </trkpt>
      <trkpt lat="42.40836" lon="2.6952">
        <ele>1085.5</ele>
        <time>2018-11-26T04:18:51Z</time>
      </trkpt>
      <trkpt lat="42.40837" lon="2.69521">
        <ele>1085.6</ele>
        <time>2018-11-26T04:18:52Z</time>
      </trkpt>
      <trkpt lat="42.40838" lon="2.69521">
        <ele>1085.7</ele>
        <time>2018-11-26T04:18:52Z</time>
      </trkpt>
      <trkpt lat="42.40843" lon="2.69523">
        <ele>1085.8</ele>
        <time>2018-11-26T04:18:54Z</time>
      </trkpt>
      <trkpt lat="42.40844" lon="2.69524">
        <ele>1085.8</ele>
        <time>2018-11-26T04:18:55Z</time>
      </trkpt>
      <trkpt lat="42.40845" lon="2.69525">
        <ele>1085.6</ele>
        <time>2018-11-26T04:18:55Z</time>
      </trkpt>
      <trkpt lat="42.40846" lon="2.69526">
        <ele>1085.3</ele>
        <time>2018-11-26T04:18:55Z</time>
      </trkpt>
      <trkpt lat="42.40851" lon="2.69535">
        <ele>1085.6</ele>
        <time>2018-11-26T04:18:59Z</time>
      </trkpt>
      <trkpt lat="42.40852" lon="2.69538">
        <ele>1085.2</ele>
        <time>2018-11-26T04:19:00Z</time>
      </trkpt>
      <trkpt lat="42.40853" lon="2.69539">
        <ele>1084.9</ele>
        <time>2018-11-26T04:19:00Z</time>
      </trkpt>
      <trkpt lat="42.40853" lon="2.6954">
        <ele>1084.8</ele>
        <time>2018-11-26T04:19:01Z</time>
      </trkpt>
      <trkpt lat="42.40854" lon="2.69541">
        <ele>1084.6</ele>
        <time>2018-11-26T04:19:01Z</time>
      </trkpt>
      <trkpt lat="42.40854" lon="2.69542">
        <ele>1084.4</ele>
        <time>2018-11-26T04:19:01Z</time>
      </trkpt>
      <trkpt lat="42.40855" lon="2.69543">
        <ele>1084.3</ele>
        <time>2018-11-26T04:19:02Z</time>
      </trkpt>
      <trkpt lat="42.40855" lon="2.69544">
        <ele>1084.1</ele>
        <time>2018-11-26T04:19:02Z</time>
      </trkpt>
      <trkpt lat="42.40856" lon="2.69545">
        <ele>1083.8</ele>
        <time>2018-11-26T04:19:02Z</time>
      </trkpt>
      <trkpt lat="42.40857" lon="2.69545">
        <ele>1083.6</ele>
        <time>2018-11-26T04:19:03Z</time>
      </trkpt>
      <trkpt lat="42.40857" lon="2.69546">
        <ele>1083.3</ele>
        <time>2018-11-26T04:19:03Z</time>
      </trkpt>
      <trkpt lat="42.40858" lon="2.69547">
        <ele>1083.2</ele>
        <time>2018-11-26T04:19:03Z</time>
      </trkpt>
      <trkpt lat="42.40858" lon="2.69548">
        <ele>1082.8</ele>
        <time>2018-11-26T04:19:04Z</time>
      </trkpt>
      <trkpt lat="42.40858" lon="2.69548">
        <ele>1082.6</ele>
        <time>2018-11-26T04:19:04Z</time>
      </trkpt>
      <trkpt lat="42.40859" lon="2.69549">
        <ele>1082.5</ele>
        <time>2018-11-26T04:19:04Z</time>
      </trkpt>
      <trkpt lat="42.40859" lon="2.6955">
        <ele>1082.3</ele>
        <time>2018-11-26T04:19:05Z</time>
      </trkpt>
      <trkpt lat="42.4086" lon="2.69551">
        <ele>1082.4</ele>
        <time>2018-11-26T04:19:05Z</time>
      </trkpt>
      <trkpt lat="42.4086" lon="2.69552">
        <ele>1082.5</ele>
        <time>2018-11-26T04:19:05Z</time>
      </trkpt>
      <trkpt lat="42.4086" lon="2.69553">
        <ele>1082.6</ele>
        <time>2018-11-26T04:19:06Z</time>
      </trkpt>
      <trkpt lat="42.40861" lon="2.69554">
        <ele>1082.6</ele>
        <time>2018-11-26T04:19:06Z</time>
      </trkpt>
      <trkpt lat="42.40862" lon="2.69555">
        <ele>1082.4</ele>
        <time>2018-11-26T04:19:06Z</time>
      </trkpt>
      <trkpt lat="42.40862" lon="2.69555">
        <ele>1082.3</ele>
        <time>2018-11-26T04:19:07Z</time>
      </trkpt>
      <trkpt lat="42.40863" lon="2.69556">
        <ele>1081.9</ele>
        <time>2018-11-26T04:19:07Z</time>
      </trkpt>
      <trkpt lat="42.40863" lon="2.69557">
        <ele>1081.5</ele>
        <time>2018-11-26T04:19:07Z</time>
      </trkpt>
      <trkpt lat="42.40864" lon="2.69557">
        <ele>1081</ele>
        <time>2018-11-26T04:19:07Z</time>
      </trkpt>
      <trkpt lat="42.40864" lon="2.69557">
        <ele>1081</ele>
        <time>2018-11-26T04:19:08Z</time>
      </trkpt>
      <trkpt lat="42.40865" lon="2.69558">
        <ele>1080.8</ele>
        <time>2018-11-26T04:19:08Z</time>
      </trkpt>
      <trkpt lat="42.40866" lon="2.69558">
        <ele>1080.7</ele>
        <time>2018-11-26T04:19:08Z</time>
      </trkpt>
      <trkpt lat="42.40867" lon="2.69559">
        <ele>1080.5</ele>
        <time>2018-11-26T04:19:09Z</time>
      </trkpt>
      <trkpt lat="42.40868" lon="2.6956">
        <ele>1080.3</ele>
        <time>2018-11-26T04:19:09Z</time>
      </trkpt>
      <trkpt lat="42.4087" lon="2.69562">
        <ele>1080.1</ele>
        <time>2018-11-26T04:19:10Z</time>
      </trkpt>
      <trkpt lat="42.40872" lon="2.69563">
        <ele>1079.4</ele>
        <time>2018-11-26T04:19:11Z</time>
      </trkpt>
      <trkpt lat="42.40873" lon="2.69564">
        <ele>1078.9</ele>
        <time>2018-11-26T04:19:12Z</time>
      </trkpt>
      <trkpt lat="42.40874" lon="2.69564">
        <ele>1078.3</ele>
        <time>2018-11-26T04:19:12Z</time>
      </trkpt>
      <trkpt lat="42.40875" lon="2.69565">
        <ele>1078.5</ele>
        <time>2018-11-26T04:19:13Z</time>
      </trkpt>
      <trkpt lat="42.40876" lon="2.69566">
        <ele>1078.8</ele>
        <time>2018-11-26T04:19:13Z</time>
      </trkpt>
      <trkpt lat="42.40877" lon="2.69566">
        <ele>1078.6</ele>
        <time>2018-11-26T04:19:13Z</time>
      </trkpt>
      <trkpt lat="42.40877" lon="2.69567">
        <ele>1078.2</ele>
        <time>2018-11-26T04:19:14Z</time>
      </trkpt>
      <trkpt lat="42.40878" lon="2.69567">
        <ele>1077.8</ele>
        <time>2018-11-26T04:19:14Z</time>
      </trkpt>
      <trkpt lat="42.40879" lon="2.69568">
        <ele>1077.2</ele>
        <time>2018-11-26T04:19:14Z</time>
      </trkpt>
      <trkpt lat="42.40879" lon="2.69568">
        <ele>1077.1</ele>
        <time>2018-11-26T04:19:15Z</time>
      </trkpt>
      <trkpt lat="42.4088" lon="2.69568">
        <ele>1077.3</ele>
        <time>2018-11-26T04:19:15Z</time>
      </trkpt>
      <trkpt lat="42.4088" lon="2.69569">
        <ele>1077.2</ele>
        <time>2018-11-26T04:19:15Z</time>
      </trkpt>
      <trkpt lat="42.4088" lon="2.69569">
        <ele>1077.2</ele>
        <time>2018-11-26T04:19:15Z</time>
      </trkpt>
      <trkpt lat="42.4088" lon="2.69569">
        <ele>1077.3</ele>
        <time>2018-11-26T04:19:15Z</time>
      </trkpt>
      <trkpt lat="42.4088" lon="2.69569">
        <ele>1077.2</ele>
        <time>2018-11-26T04:19:15Z</time>
      </trkpt>
      <trkpt lat="42.4088" lon="2.69569">
        <ele>1077.3</ele>
        <time>2018-11-26T04:19:15Z</time>
      </trkpt>
      <trkpt lat="42.4088" lon="2.69569">
        <ele>1077.4</ele>
        <time>2018-11-26T04:19:15Z</time>
      </trkpt>
      <trkpt lat="42.40881" lon="2.69569">
        <ele>1077.6</ele>
        <time>2018-11-26T04:19:16Z</time>
      </trkpt>
      <trkpt lat="42.40881" lon="2.69569">
        <ele>1077.5</ele>
        <time>2018-11-26T04:19:16Z</time>
      </trkpt>
      <trkpt lat="42.40881" lon="2.69569">
        <ele>1077.4</ele>
        <time>2018-11-26T04:19:16Z</time>
      </trkpt>
      <trkpt lat="42.40881" lon="2.6957">
        <ele>1077.3</ele>
        <time>2018-11-26T04:19:16Z</time>
      </trkpt>
      <trkpt lat="42.40882" lon="2.69571">
        <ele>1077.1</ele>
        <time>2018-11-26T04:19:16Z</time>
      </trkpt>
      <trkpt lat="42.40883" lon="2.69572">
        <ele>1077.2</ele>
        <time>2018-11-26T04:19:17Z</time>
      </trkpt>
      <trkpt lat="42.40883" lon="2.69572">
        <ele>1077.3</ele>
        <time>2018-11-26T04:19:17Z</time>
      </trkpt>
      <trkpt lat="42.40884" lon="2.69572">
        <ele>1077.6</ele>
        <time>2018-11-26T04:19:17Z</time>
      </trkpt>
      <trkpt lat="42.40884" lon="2.69573">
        <ele>1077.5</ele>
        <time>2018-11-26T04:19:17Z</time>
      </trkpt>
      <trkpt lat="42.40884" lon="2.69573">
        <ele>1077.5</ele>
        <time>2018-11-26T04:19:18Z</time>
      </trkpt>
      <trkpt lat="42.40884" lon="2.69573">
        <ele>1077.4</ele>
        <time>2018-11-26T04:19:18Z</time>
      </trkpt>
      <trkpt lat="42.40884" lon="2.69573">
        <ele>1077.2</ele>
        <time>2018-11-26T04:19:18Z</time>
      </trkpt>
      <trkpt lat="42.40884" lon="2.69573">
        <ele>1077.1</ele>
        <time>2018-11-26T04:19:18Z</time>
      </trkpt>
      <trkpt lat="42.40884" lon="2.69573">
        <ele>1077.1</ele>
        <time>2018-11-26T04:19:18Z</time>
      </trkpt>
      <trkpt lat="42.40884" lon="2.69573">
        <ele>1077.2</ele>
        <time>2018-11-26T04:19:18Z</time>
      </trkpt>
      <trkpt lat="42.40885" lon="2.69574">
        <ele>1077.4</ele>
        <time>2018-11-26T04:19:18Z</time>
      </trkpt>
      <trkpt lat="42.40886" lon="2.69574">
        <ele>1077.9</ele>
        <time>2018-11-26T04:19:18Z</time>
      </trkpt>
      <trkpt lat="42.40886" lon="2.69575">
        <ele>1077.5</ele>
        <time>2018-11-26T04:19:19Z</time>
      </trkpt>
      <trkpt lat="42.40887" lon="2.69575">
        <ele>1077.2</ele>
        <time>2018-11-26T04:19:19Z</time>
      </trkpt>
      <trkpt lat="42.40888" lon="2.69576">
        <ele>1077.2</ele>
        <time>2018-11-26T04:19:19Z</time>
      </trkpt>
      <trkpt lat="42.40888" lon="2.69577">
        <ele>1077</ele>
        <time>2018-11-26T04:19:20Z</time>
      </trkpt>
      <trkpt lat="42.40889" lon="2.69577">
        <ele>1076.8</ele>
        <time>2018-11-26T04:19:20Z</time>
      </trkpt>
      <trkpt lat="42.4089" lon="2.69578">
        <ele>1076.4</ele>
        <time>2018-11-26T04:19:21Z</time>
      </trkpt>
      <trkpt lat="42.40891" lon="2.69578">
        <ele>1076.2</ele>
        <time>2018-11-26T04:19:21Z</time>
      </trkpt>
      <trkpt lat="42.40892" lon="2.69579">
        <ele>1076.1</ele>
        <time>2018-11-26T04:19:21Z</time>
      </trkpt>
      <trkpt lat="42.40893" lon="2.6958">
        <ele>1075.9</ele>
        <time>2018-11-26T04:19:22Z</time>
      </trkpt>
      <trkpt lat="42.40894" lon="2.69583">
        <ele>1075.8</ele>
        <time>2018-11-26T04:19:23Z</time>
      </trkpt>
      <trkpt lat="42.40895" lon="2.69584">
        <ele>1075.6</ele>
        <time>2018-11-26T04:19:23Z</time>
      </trkpt>
      <trkpt lat="42.40896" lon="2.69585">
        <ele>1075.6</ele>
        <time>2018-11-26T04:19:24Z</time>
      </trkpt>
      <trkpt lat="42.40897" lon="2.69586">
        <ele>1075.6</ele>
        <time>2018-11-26T04:19:24Z</time>
      </trkpt>
      <trkpt lat="42.40898" lon="2.69586">
        <ele>1075.7</ele>
        <time>2018-11-26T04:19:25Z</time>
      </trkpt>
      <trkpt lat="42.40899" lon="2.69588">
        <ele>1075.8</ele>
        <time>2018-11-26T04:19:25Z</time>
      </trkpt>
      <trkpt lat="42.409" lon="2.69589">
        <ele>1075.9</ele>
        <time>2018-11-26T04:19:26Z</time>
      </trkpt>
      <trkpt lat="42.40902" lon="2.69591">
        <ele>1076.3</ele>
        <time>2018-11-26T04:19:27Z</time>
      </trkpt>
      <trkpt lat="42.40903" lon="2.69592">
        <ele>1076.7</ele>
        <time>2018-11-26T04:19:27Z</time>
      </trkpt>
      <trkpt lat="42.40903" lon="2.69592">
        <ele>1077.1</ele>
        <time>2018-11-26T04:19:27Z</time>
      </trkpt>
      <trkpt lat="42.40904" lon="2.69592">
        <ele>1077.4</ele>
        <time>2018-11-26T04:19:28Z</time>
      </trkpt>
      <trkpt lat="42.40905" lon="2.69593">
        <ele>1077.6</ele>
        <time>2018-11-26T04:19:28Z</time>
      </trkpt>
      <trkpt lat="42.40906" lon="2.69595">
        <ele>1077.7</ele>
        <time>2018-11-26T04:19:29Z</time>
      </trkpt>
      <trkpt lat="42.40907" lon="2.69596">
        <ele>1077.7</ele>
        <time>2018-11-26T04:19:29Z</time>
      </trkpt>
      <trkpt lat="42.40907" lon="2.69596">
        <ele>1077.7</ele>
        <time>2018-11-26T04:19:29Z</time>
      </trkpt>
      <trkpt lat="42.40908" lon="2.69596">
        <ele>1077.7</ele>
        <time>2018-11-26T04:19:30Z</time>
      </trkpt>
      <trkpt lat="42.40909" lon="2.69597">
        <ele>1077.9</ele>
        <time>2018-11-26T04:19:30Z</time>
      </trkpt>
      <trkpt lat="42.40909" lon="2.69597">
        <ele>1078.1</ele>
        <time>2018-11-26T04:19:30Z</time>
      </trkpt>
      <trkpt lat="42.40909" lon="2.69598">
        <ele>1078.1</ele>
        <time>2018-11-26T04:19:30Z</time>
      </trkpt>
      <trkpt lat="42.40908" lon="2.69599">
        <ele>1078</ele>
        <time>2018-11-26T04:19:31Z</time>
      </trkpt>
      <trkpt lat="42.40908" lon="2.696">
        <ele>1078</ele>
        <time>2018-11-26T04:19:31Z</time>
      </trkpt>
      <trkpt lat="42.40908" lon="2.69601">
        <ele>1078</ele>
        <time>2018-11-26T04:19:31Z</time>
      </trkpt>
      <trkpt lat="42.40907" lon="2.69601">
        <ele>1078.1</ele>
        <time>2018-11-26T04:19:32Z</time>
      </trkpt>
      <trkpt lat="42.40906" lon="2.696">
        <ele>1078</ele>
        <time>2018-11-26T04:19:32Z</time>
      </trkpt>
      <trkpt lat="42.40905" lon="2.696">
        <ele>1078.2</ele>
        <time>2018-11-26T04:19:32Z</time>
      </trkpt>
      <trkpt lat="42.40905" lon="2.69599">
        <ele>1078.2</ele>
        <time>2018-11-26T04:19:33Z</time>
      </trkpt>
      <trkpt lat="42.40904" lon="2.69598">
        <ele>1078</ele>
        <time>2018-11-26T04:19:33Z</time>
      </trkpt>
      <trkpt lat="42.40904" lon="2.69597">
        <ele>1078.1</ele>
        <time>2018-11-26T04:19:33Z</time>
      </trkpt>
      <trkpt lat="42.40903" lon="2.69595">
        <ele>1078</ele>
        <time>2018-11-26T04:19:34Z</time>
      </trkpt>
      <trkpt lat="42.40902" lon="2.69595">
        <ele>1078</ele>
        <time>2018-11-26T04:19:34Z</time>
      </trkpt>
      <trkpt lat="42.40902" lon="2.69595">
        <ele>1078</ele>
        <time>2018-11-26T04:19:34Z</time>
      </trkpt>
      <trkpt lat="42.40902" lon="2.69595">
        <ele>1078</ele>
        <time>2018-11-26T04:19:35Z</time>
      </trkpt>
      <trkpt lat="42.40902" lon="2.69596">
        <ele>1078.2</ele>
        <time>2018-11-26T04:19:35Z</time>
      </trkpt>
      <trkpt lat="42.40903" lon="2.69596">
        <ele>1078.1</ele>
        <time>2018-11-26T04:19:35Z</time>
      </trkpt>
      <trkpt lat="42.40903" lon="2.69596">
        <ele>1078.3</ele>
        <time>2018-11-26T04:19:35Z</time>
      </trkpt>
      <trkpt lat="42.40903" lon="2.69596">
        <ele>1078.4</ele>
        <time>2018-11-26T04:19:35Z</time>
      </trkpt>
      <trkpt lat="42.40903" lon="2.69596">
        <ele>1078.7</ele>
        <time>2018-11-26T04:19:35Z</time>
      </trkpt>
      <trkpt lat="42.40903" lon="2.69596">
        <ele>1078.6</ele>
        <time>2018-11-26T04:19:35Z</time>
      </trkpt>
      <trkpt lat="42.40903" lon="2.69596">
        <ele>1078.3</ele>
        <time>2018-11-26T04:19:35Z</time>
      </trkpt>
      <trkpt lat="42.40903" lon="2.69596">
        <ele>1078.1</ele>
        <time>2018-11-26T04:19:35Z</time>
      </trkpt>
      <trkpt lat="42.40903" lon="2.69596">
        <ele>1077.8</ele>
        <time>2018-11-26T04:19:35Z</time>
      </trkpt>
      <trkpt lat="42.40903" lon="2.69596">
        <ele>1077.9</ele>
        <time>2018-11-26T04:19:35Z</time>
      </trkpt>
      <trkpt lat="42.40903" lon="2.69596">
        <ele>1078</ele>
        <time>2018-11-26T04:19:35Z</time>
      </trkpt>
      <trkpt lat="42.40903" lon="2.69596">
        <ele>1077.9</ele>
        <time>2018-11-26T04:19:35Z</time>
      </trkpt>
      <trkpt lat="42.40903" lon="2.69596">
        <ele>1077.9</ele>
        <time>2018-11-26T04:19:35Z</time>
      </trkpt>
      <trkpt lat="42.40903" lon="2.69596">
        <ele>1077.9</ele>
        <time>2018-11-26T04:19:35Z</time>
      </trkpt>
      <trkpt lat="42.40903" lon="2.69596">
        <ele>1077.9</ele>
        <time>2018-11-26T04:19:35Z</time>
      </trkpt>
      <trkpt lat="42.40903" lon="2.69596">
        <ele>1078.1</ele>
        <time>2018-11-26T04:19:35Z</time>
      </trkpt>
      <trkpt lat="42.40903" lon="2.69597">
        <ele>1078.3</ele>
        <time>2018-11-26T04:19:35Z</time>
      </trkpt>
      <trkpt lat="42.40903" lon="2.69597">
        <ele>1078.7</ele>
        <time>2018-11-26T04:19:36Z</time>
      </trkpt>
      <trkpt lat="42.40903" lon="2.69598">
        <ele>1078.5</ele>
        <time>2018-11-26T04:19:36Z</time>
      </trkpt>
      <trkpt lat="42.40903" lon="2.69598">
        <ele>1078.3</ele>
        <time>2018-11-26T04:19:36Z</time>
      </trkpt>
      <trkpt lat="42.40903" lon="2.69599">
        <ele>1078.1</ele>
        <time>2018-11-26T04:19:36Z</time>
      </trkpt>
      <trkpt lat="42.40903" lon="2.69599">
        <ele>1078</ele>
        <time>2018-11-26T04:19:36Z</time>
      </trkpt>
      <trkpt lat="42.40904" lon="2.69599">
        <ele>1078.2</ele>
        <time>2018-11-26T04:19:36Z</time>
      </trkpt>
      <trkpt lat="42.40904" lon="2.696">
        <ele>1078.2</ele>
        <time>2018-11-26T04:19:37Z</time>
      </trkpt>
      <trkpt lat="42.40904" lon="2.696">
        <ele>1078.3</ele>
        <time>2018-11-26T04:19:37Z</time>
      </trkpt>
      <trkpt lat="42.40904" lon="2.696">
        <ele>1078.3</ele>
        <time>2018-11-26T04:19:37Z</time>
      </trkpt>
      <trkpt lat="42.40904" lon="2.696">
        <ele>1078.3</ele>
        <time>2018-11-26T04:19:37Z</time>
      </trkpt>
      <trkpt lat="42.40904" lon="2.696">
        <ele>1078.4</ele>
        <time>2018-11-26T04:19:37Z</time>
      </trkpt>
      <trkpt lat="42.40904" lon="2.696">
        <ele>1078.5</ele>
        <time>2018-11-26T04:19:37Z</time>
      </trkpt>
      <trkpt lat="42.40904" lon="2.696">
        <ele>1078.6</ele>
        <time>2018-11-26T04:19:37Z</time>
      </trkpt>
      <trkpt lat="42.40904" lon="2.696">
        <ele>1078.6</ele>
        <time>2018-11-26T04:19:37Z</time>
      </trkpt>
      <trkpt lat="42.40904" lon="2.696">
        <ele>1078.6</ele>
        <time>2018-11-26T04:19:37Z</time>
      </trkpt>
      <trkpt lat="42.40904" lon="2.696">
        <ele>1078.4</ele>
        <time>2018-11-26T04:19:37Z</time>
      </trkpt>
      <trkpt lat="42.40904" lon="2.696">
        <ele>1078.4</ele>
        <time>2018-11-26T04:19:37Z</time>
      </trkpt>
      <trkpt lat="42.40904" lon="2.696">
        <ele>1078.1</ele>
        <time>2018-11-26T04:19:37Z</time>
      </trkpt>
      <trkpt lat="42.40903" lon="2.696">
        <ele>1077.6</ele>
        <time>2018-11-26T04:19:37Z</time>
      </trkpt>
      <trkpt lat="42.40904" lon="2.69599">
        <ele>1076.8</ele>
        <time>2018-11-26T04:19:38Z</time>
      </trkpt>
      <trkpt lat="42.40904" lon="2.69599">
        <ele>1076.8</ele>
        <time>2018-11-26T04:19:38Z</time>
      </trkpt>
      <trkpt lat="42.40904" lon="2.69599">
        <ele>1076.9</ele>
        <time>2018-11-26T04:19:38Z</time>
      </trkpt>
      <trkpt lat="42.40904" lon="2.69599">
        <ele>1076.7</ele>
        <time>2018-11-26T04:19:38Z</time>
      </trkpt>
      <trkpt lat="42.40904" lon="2.69599">
        <ele>1076.9</ele>
        <time>2018-11-26T04:19:38Z</time>
      </trkpt>
      <trkpt lat="42.40904" lon="2.69599">
        <ele>1077</ele>
        <time>2018-11-26T04:19:38Z</time>
      </trkpt>
      <trkpt lat="42.40904" lon="2.69599">
        <ele>1077.4</ele>
        <time>2018-11-26T04:19:38Z</time>
      </trkpt>
      <trkpt lat="42.40904" lon="2.69599">
        <ele>1077.6</ele>
        <time>2018-11-26T04:19:38Z</time>
      </trkpt>
      <trkpt lat="42.40904" lon="2.69599">
        <ele>1077.7</ele>
        <time>2018-11-26T04:19:38Z</time>
      </trkpt>
      <trkpt lat="42.40904" lon="2.69599">
        <ele>1077.5</ele>
        <time>2018-11-26T04:19:38Z</time>
      </trkpt>
      <trkpt lat="42.40904" lon="2.69599">
        <ele>1077.4</ele>
        <time>2018-11-26T04:19:38Z</time>
      </trkpt>
      <trkpt lat="42.40903" lon="2.69599">
        <ele>1077.4</ele>
        <time>2018-11-26T04:19:38Z</time>
      </trkpt>
      <trkpt lat="42.40904" lon="2.69599">
        <ele>1077.3</ele>
        <time>2018-11-26T04:19:38Z</time>
      </trkpt>
      <trkpt lat="42.40904" lon="2.69599">
        <ele>1077.2</ele>
        <time>2018-11-26T04:19:38Z</time>
      </trkpt>
      <trkpt lat="42.40904" lon="2.69599">
        <ele>1077.2</ele>
        <time>2018-11-26T04:19:38Z</time>
      </trkpt>
      <trkpt lat="42.40904" lon="2.69599">
        <ele>1077.1</ele>
        <time>2018-11-26T04:19:38Z</time>
      </trkpt>
      <trkpt lat="42.40904" lon="2.69599">
        <ele>1077.3</ele>
        <time>2018-11-26T04:19:38Z</time>
      </trkpt>
      <trkpt lat="42.40904" lon="2.69599">
        <ele>1077.7</ele>
        <time>2018-11-26T04:19:38Z</time>
      </trkpt>
      <trkpt lat="42.40904" lon="2.69599">
        <ele>1078</ele>
        <time>2018-11-26T04:19:38Z</time>
      </trkpt>
      <trkpt lat="42.40904" lon="2.69599">
        <ele>1077.9</ele>
        <time>2018-11-26T04:19:38Z</time>
      </trkpt>
      <trkpt lat="42.40904" lon="2.69599">
        <ele>1077.7</ele>
        <time>2018-11-26T04:19:38Z</time>
      </trkpt>
      <trkpt lat="42.40904" lon="2.69599">
        <ele>1077.5</ele>
        <time>2018-11-26T04:19:38Z</time>
      </trkpt>
      <trkpt lat="42.40905" lon="2.69599">
        <ele>1077.3</ele>
        <time>2018-11-26T04:19:38Z</time>
      </trkpt>
      <trkpt lat="42.40905" lon="2.69599">
        <ele>1077.3</ele>
        <time>2018-11-26T04:19:38Z</time>
      </trkpt>
      <trkpt lat="42.40905" lon="2.69599">
        <ele>1077.5</ele>
        <time>2018-11-26T04:19:38Z</time>
      </trkpt>
      <trkpt lat="42.40905" lon="2.69599">
        <ele>1077.6</ele>
        <time>2018-11-26T04:19:39Z</time>
      </trkpt>
      <trkpt lat="42.40905" lon="2.69599">
        <ele>1077.7</ele>
        <time>2018-11-26T04:19:39Z</time>
      </trkpt>
      <trkpt lat="42.40905" lon="2.69599">
        <ele>1077.9</ele>
        <time>2018-11-26T04:19:39Z</time>
      </trkpt>
      <trkpt lat="42.40905" lon="2.69599">
        <ele>1078.1</ele>
        <time>2018-11-26T04:19:39Z</time>
      </trkpt>
      <trkpt lat="42.40905" lon="2.69599">
        <ele>1077.8</ele>
        <time>2018-11-26T04:19:39Z</time>
      </trkpt>
      <trkpt lat="42.40905" lon="2.69599">
        <ele>1077.1</ele>
        <time>2018-11-26T04:19:39Z</time>
      </trkpt>
      <trkpt lat="42.40905" lon="2.69598">
        <ele>1076.4</ele>
        <time>2018-11-26T04:19:39Z</time>
      </trkpt>
      <trkpt lat="42.40905" lon="2.69598">
        <ele>1076.9</ele>
        <time>2018-11-26T04:19:39Z</time>
      </trkpt>
      <trkpt lat="42.40904" lon="2.69598">
        <ele>1077.2</ele>
        <time>2018-11-26T04:19:39Z</time>
      </trkpt>
      <trkpt lat="42.40904" lon="2.69598">
        <ele>1077.8</ele>
        <time>2018-11-26T04:19:39Z</time>
      </trkpt>
      <trkpt lat="42.40904" lon="2.69598">
        <ele>1077.9</ele>
        <time>2018-11-26T04:19:39Z</time>
      </trkpt>
      <trkpt lat="42.40904" lon="2.69598">
        <ele>1078</ele>
        <time>2018-11-26T04:19:39Z</time>
      </trkpt>
      <trkpt lat="42.40904" lon="2.69598">
        <ele>1078.1</ele>
        <time>2018-11-26T04:19:39Z</time>
      </trkpt>
      <trkpt lat="42.40904" lon="2.69598">
        <ele>1078.2</ele>
        <time>2018-11-26T04:19:39Z</time>
      </trkpt>
      <trkpt lat="42.40904" lon="2.69598">
        <ele>1078.1</ele>
        <time>2018-11-26T04:19:39Z</time>
      </trkpt>
      <trkpt lat="42.40904" lon="2.69598">
        <ele>1078</ele>
        <time>2018-11-26T04:19:39Z</time>
      </trkpt>
      <trkpt lat="42.40904" lon="2.69598">
        <ele>1077.9</ele>
        <time>2018-11-26T04:19:39Z</time>
      </trkpt>
      <trkpt lat="42.40904" lon="2.69598">
        <ele>1078.2</ele>
        <time>2018-11-26T04:19:39Z</time>
      </trkpt>
      <trkpt lat="42.40904" lon="2.69598">
        <ele>1078.4</ele>
        <time>2018-11-26T04:19:39Z</time>
      </trkpt>
      <trkpt lat="42.40904" lon="2.69598">
        <ele>1078.9</ele>
        <time>2018-11-26T04:19:39Z</time>
      </trkpt>
      <trkpt lat="42.40904" lon="2.69598">
        <ele>1078.7</ele>
        <time>2018-11-26T04:19:39Z</time>
      </trkpt>
      <trkpt lat="42.40904" lon="2.69598">
        <ele>1078.6</ele>
        <time>2018-11-26T04:19:40Z</time>
      </trkpt>
      <trkpt lat="42.40904" lon="2.69598">
        <ele>1078.5</ele>
        <time>2018-11-26T04:19:40Z</time>
      </trkpt>
      <trkpt lat="42.40904" lon="2.69598">
        <ele>1078.2</ele>
        <time>2018-11-26T04:19:40Z</time>
      </trkpt>
      <trkpt lat="42.40904" lon="2.69598">
        <ele>1078.1</ele>
        <time>2018-11-26T04:19:40Z</time>
      </trkpt>
      <trkpt lat="42.40904" lon="2.69598">
        <ele>1077.8</ele>
        <time>2018-11-26T04:19:40Z</time>
      </trkpt>
      <trkpt lat="42.40904" lon="2.69598">
        <ele>1077.6</ele>
        <time>2018-11-26T04:19:40Z</time>
      </trkpt>
      <trkpt lat="42.40904" lon="2.69598">
        <ele>1077.3</ele>
        <time>2018-11-26T04:19:40Z</time>
      </trkpt>
      <trkpt lat="42.40903" lon="2.69598">
        <ele>1077.4</ele>
        <time>2018-11-26T04:19:40Z</time>
      </trkpt>
      <trkpt lat="42.40903" lon="2.69599">
        <ele>1077.3</ele>
        <time>2018-11-26T04:19:40Z</time>
      </trkpt>
      <trkpt lat="42.40903" lon="2.69599">
        <ele>1077.2</ele>
        <time>2018-11-26T04:19:40Z</time>
      </trkpt>
      <trkpt lat="42.40903" lon="2.69599">
        <ele>1077.3</ele>
        <time>2018-11-26T04:19:40Z</time>
      </trkpt>
      <trkpt lat="42.40903" lon="2.69599">
        <ele>1077.4</ele>
        <time>2018-11-26T04:19:40Z</time>
      </trkpt>
      <trkpt lat="42.40903" lon="2.69598">
        <ele>1077.6</ele>
        <time>2018-11-26T04:19:40Z</time>
      </trkpt>
      <trkpt lat="42.40903" lon="2.69598">
        <ele>1077.6</ele>
        <time>2018-11-26T04:19:41Z</time>
      </trkpt>
      <trkpt lat="42.40903" lon="2.69598">
        <ele>1077.6</ele>
        <time>2018-11-26T04:19:41Z</time>
      </trkpt>
      <trkpt lat="42.40903" lon="2.69598">
        <ele>1077.5</ele>
        <time>2018-11-26T04:19:41Z</time>
      </trkpt>
      <trkpt lat="42.40903" lon="2.69599">
        <ele>1077.5</ele>
        <time>2018-11-26T04:19:41Z</time>
      </trkpt>
      <trkpt lat="42.40903" lon="2.69599">
        <ele>1077.6</ele>
        <time>2018-11-26T04:19:41Z</time>
      </trkpt>
      <trkpt lat="42.40903" lon="2.69599">
        <ele>1077.3</ele>
        <time>2018-11-26T04:19:41Z</time>
      </trkpt>
      <trkpt lat="42.40903" lon="2.69599">
        <ele>1077.2</ele>
        <time>2018-11-26T04:19:41Z</time>
      </trkpt>
      <trkpt lat="42.40903" lon="2.69599">
        <ele>1076.9</ele>
        <time>2018-11-26T04:19:41Z</time>
      </trkpt>
      <trkpt lat="42.40903" lon="2.69599">
        <ele>1076.9</ele>
        <time>2018-11-26T04:19:41Z</time>
      </trkpt>
      <trkpt lat="42.40903" lon="2.69599">
        <ele>1076.8</ele>
        <time>2018-11-26T04:19:41Z</time>
      </trkpt>
      <trkpt lat="42.40903" lon="2.69599">
        <ele>1076.8</ele>
        <time>2018-11-26T04:19:41Z</time>
      </trkpt>
      <trkpt lat="42.40903" lon="2.69599">
        <ele>1076.7</ele>
        <time>2018-11-26T04:19:41Z</time>
      </trkpt>
      <trkpt lat="42.40903" lon="2.69599">
        <ele>1076.9</ele>
        <time>2018-11-26T04:19:41Z</time>
      </trkpt>
      <trkpt lat="42.40903" lon="2.69599">
        <ele>1077</ele>
        <time>2018-11-26T04:19:41Z</time>
      </trkpt>
      <trkpt lat="42.40903" lon="2.69598">
        <ele>1077.3</ele>
        <time>2018-11-26T04:19:41Z</time>
      </trkpt>
      <trkpt lat="42.40903" lon="2.69599">
        <ele>1077.3</ele>
        <time>2018-11-26T04:19:41Z</time>
      </trkpt>
      <trkpt lat="42.40903" lon="2.69599">
        <ele>1077.2</ele>
        <time>2018-11-26T04:19:41Z</time>
      </trkpt>
      <trkpt lat="42.40903" lon="2.69599">
        <ele>1077.1</ele>
        <time>2018-11-26T04:19:41Z</time>
      </trkpt>
      <trkpt lat="42.40903" lon="2.69599">
        <ele>1077.2</ele>
        <time>2018-11-26T04:19:41Z</time>
      </trkpt>
      <trkpt lat="42.40903" lon="2.69599">
        <ele>1077.2</ele>
        <time>2018-11-26T04:19:41Z</time>
      </trkpt>
      <trkpt lat="42.40903" lon="2.69599">
        <ele>1077.1</ele>
        <time>2018-11-26T04:19:41Z</time>
      </trkpt>
      <trkpt lat="42.40903" lon="2.69599">
        <ele>1077.2</ele>
        <time>2018-11-26T04:19:41Z</time>
      </trkpt>
      <trkpt lat="42.40903" lon="2.69599">
        <ele>1077.3</ele>
        <time>2018-11-26T04:19:41Z</time>
      </trkpt>
      <trkpt lat="42.40903" lon="2.69599">
        <ele>1077.5</ele>
        <time>2018-11-26T04:19:41Z</time>
      </trkpt>
      <trkpt lat="42.40903" lon="2.69599">
        <ele>1077.4</ele>
        <time>2018-11-26T04:19:41Z</time>
      </trkpt>
      <trkpt lat="42.40903" lon="2.69599">
        <ele>1077.1</ele>
        <time>2018-11-26T04:19:41Z</time>
      </trkpt>
      <trkpt lat="42.40903" lon="2.69599">
        <ele>1077</ele>
        <time>2018-11-26T04:19:41Z</time>
      </trkpt>
      <trkpt lat="42.40903" lon="2.69599">
        <ele>1076.6</ele>
        <time>2018-11-26T04:19:41Z</time>
      </trkpt>
      <trkpt lat="42.40903" lon="2.696">
        <ele>1076.7</ele>
        <time>2018-11-26T04:19:41Z</time>
      </trkpt>
      <trkpt lat="42.40903" lon="2.696">
        <ele>1076.9</ele>
        <time>2018-11-26T04:19:41Z</time>
      </trkpt>
      <trkpt lat="42.40903" lon="2.696">
        <ele>1077.2</ele>
        <time>2018-11-26T04:19:41Z</time>
      </trkpt>
      <trkpt lat="42.40903" lon="2.696">
        <ele>1077.4</ele>
        <time>2018-11-26T04:19:41Z</time>
      </trkpt>
      <trkpt lat="42.40903" lon="2.696">
        <ele>1077.6</ele>
        <time>2018-11-26T04:19:41Z</time>
      </trkpt>
      <trkpt lat="42.40903" lon="2.696">
        <ele>1077.8</ele>
        <time>2018-11-26T04:19:41Z</time>
      </trkpt>
      <trkpt lat="42.40903" lon="2.696">
        <ele>1077.9</ele>
        <time>2018-11-26T04:19:41Z</time>
      </trkpt>
      <trkpt lat="42.40903" lon="2.696">
        <ele>1077.8</ele>
        <time>2018-11-26T04:19:41Z</time>
      </trkpt>
      <trkpt lat="42.40903" lon="2.696">
        <ele>1078</ele>
        <time>2018-11-26T04:19:41Z</time>
      </trkpt>
      <trkpt lat="42.40903" lon="2.696">
        <ele>1077.7</ele>
        <time>2018-11-26T04:19:41Z</time>
      </trkpt>
      <trkpt lat="42.40903" lon="2.696">
        <ele>1077.6</ele>
        <time>2018-11-26T04:19:41Z</time>
      </trkpt>
      <trkpt lat="42.40903" lon="2.696">
        <ele>1077.3</ele>
        <time>2018-11-26T04:19:41Z</time>
      </trkpt>
      <trkpt lat="42.40903" lon="2.696">
        <ele>1077.3</ele>
        <time>2018-11-26T04:19:41Z</time>
      </trkpt>
      <trkpt lat="42.40903" lon="2.69599">
        <ele>1077.2</ele>
        <time>2018-11-26T04:19:41Z</time>
      </trkpt>
      <trkpt lat="42.40903" lon="2.69599">
        <ele>1077.1</ele>
        <time>2018-11-26T04:19:41Z</time>
      </trkpt>
      <trkpt lat="42.40903" lon="2.69599">
        <ele>1077.4</ele>
        <time>2018-11-26T04:19:41Z</time>
      </trkpt>
      <trkpt lat="42.40903" lon="2.69599">
        <ele>1077.8</ele>
        <time>2018-11-26T04:19:41Z</time>
      </trkpt>
      <trkpt lat="42.40903" lon="2.69599">
        <ele>1078.1</ele>
        <time>2018-11-26T04:19:41Z</time>
      </trkpt>
      <trkpt lat="42.40903" lon="2.69599">
        <ele>1078.6</ele>
        <time>2018-11-26T04:19:41Z</time>
      </trkpt>
      <trkpt lat="42.40903" lon="2.69599">
        <ele>1078.7</ele>
        <time>2018-11-26T04:19:41Z</time>
      </trkpt>
      <trkpt lat="42.40903" lon="2.69599">
        <ele>1078.6</ele>
        <time>2018-11-26T04:19:41Z</time>
      </trkpt>
      <trkpt lat="42.40903" lon="2.69599">
        <ele>1078.5</ele>
        <time>2018-11-26T04:19:41Z</time>
      </trkpt>
      <trkpt lat="42.40903" lon="2.69599">
        <ele>1078.1</ele>
        <time>2018-11-26T04:19:42Z</time>
      </trkpt>
      <trkpt lat="42.40903" lon="2.69598">
        <ele>1077.8</ele>
        <time>2018-11-26T04:19:42Z</time>
      </trkpt>
      <trkpt lat="42.40903" lon="2.69597">
        <ele>1077.4</ele>
        <time>2018-11-26T04:19:42Z</time>
      </trkpt>
      <trkpt lat="42.40903" lon="2.69598">
        <ele>1077.5</ele>
        <time>2018-11-26T04:19:42Z</time>
      </trkpt>
      <trkpt lat="42.40903" lon="2.69598">
        <ele>1077.6</ele>
        <time>2018-11-26T04:19:42Z</time>
      </trkpt>
      <trkpt lat="42.40903" lon="2.69597">
        <ele>1077.8</ele>
        <time>2018-11-26T04:19:42Z</time>
      </trkpt>
      <trkpt lat="42.40903" lon="2.69597">
        <ele>1077.7</ele>
        <time>2018-11-26T04:19:42Z</time>
      </trkpt>
      <trkpt lat="42.40903" lon="2.69597">
        <ele>1077.4</ele>
        <time>2018-11-26T04:19:42Z</time>
      </trkpt>
      <trkpt lat="42.40903" lon="2.69597">
        <ele>1077.3</ele>
        <time>2018-11-26T04:19:43Z</time>
      </trkpt>
      <trkpt lat="42.40903" lon="2.69597">
        <ele>1077.3</ele>
        <time>2018-11-26T04:19:43Z</time>
      </trkpt>
      <trkpt lat="42.40903" lon="2.69597">
        <ele>1077.3</ele>
        <time>2018-11-26T04:19:43Z</time>
      </trkpt>
      <trkpt lat="42.40903" lon="2.69597">
        <ele>1077.1</ele>
        <time>2018-11-26T04:19:43Z</time>
      </trkpt>
      <trkpt lat="42.40903" lon="2.69597">
        <ele>1077</ele>
        <time>2018-11-26T04:19:43Z</time>
      </trkpt>
      <trkpt lat="42.40903" lon="2.69597">
        <ele>1076.9</ele>
        <time>2018-11-26T04:19:43Z</time>
      </trkpt>
      <trkpt lat="42.40903" lon="2.69597">
        <ele>1076.9</ele>
        <time>2018-11-26T04:19:43Z</time>
      </trkpt>
      <trkpt lat="42.40903" lon="2.69597">
        <ele>1076.7</ele>
        <time>2018-11-26T04:19:43Z</time>
      </trkpt>
      <trkpt lat="42.40903" lon="2.69597">
        <ele>1076.7</ele>
        <time>2018-11-26T04:19:43Z</time>
      </trkpt>
      <trkpt lat="42.40903" lon="2.69597">
        <ele>1077</ele>
        <time>2018-11-26T04:19:43Z</time>
      </trkpt>
      <trkpt lat="42.40902" lon="2.69597">
        <ele>1077.2</ele>
        <time>2018-11-26T04:19:43Z</time>
      </trkpt>
      <trkpt lat="42.40902" lon="2.69597">
        <ele>1077.1</ele>
        <time>2018-11-26T04:19:43Z</time>
      </trkpt>
      <trkpt lat="42.40902" lon="2.69597">
        <ele>1077.1</ele>
        <time>2018-11-26T04:19:43Z</time>
      </trkpt>
      <trkpt lat="42.40902" lon="2.69597">
        <ele>1076.9</ele>
        <time>2018-11-26T04:19:43Z</time>
      </trkpt>
      <trkpt lat="42.40902" lon="2.69597">
        <ele>1077</ele>
        <time>2018-11-26T04:19:43Z</time>
      </trkpt>
      <trkpt lat="42.40902" lon="2.69598">
        <ele>1077.1</ele>
        <time>2018-11-26T04:19:43Z</time>
      </trkpt>
      <trkpt lat="42.40902" lon="2.69597">
        <ele>1077</ele>
        <time>2018-11-26T04:19:43Z</time>
      </trkpt>
      <trkpt lat="42.40902" lon="2.69597">
        <ele>1077.2</ele>
        <time>2018-11-26T04:19:43Z</time>
      </trkpt>
      <trkpt lat="42.40902" lon="2.69598">
        <ele>1077.3</ele>
        <time>2018-11-26T04:19:43Z</time>
      </trkpt>
      <trkpt lat="42.40902" lon="2.69597">
        <ele>1077.4</ele>
        <time>2018-11-26T04:19:43Z</time>
      </trkpt>
      <trkpt lat="42.40902" lon="2.69597">
        <ele>1077.4</ele>
        <time>2018-11-26T04:19:43Z</time>
      </trkpt>
      <trkpt lat="42.40902" lon="2.69597">
        <ele>1077.2</ele>
        <time>2018-11-26T04:19:43Z</time>
      </trkpt>
      <trkpt lat="42.40902" lon="2.69597">
        <ele>1077.1</ele>
        <time>2018-11-26T04:19:43Z</time>
      </trkpt>
      <trkpt lat="42.40902" lon="2.69597">
        <ele>1076.9</ele>
        <time>2018-11-26T04:19:43Z</time>
      </trkpt>
      <trkpt lat="42.40902" lon="2.69597">
        <ele>1077</ele>
        <time>2018-11-26T04:19:43Z</time>
      </trkpt>
      <trkpt lat="42.40902" lon="2.69597">
        <ele>1077.2</ele>
        <time>2018-11-26T04:19:43Z</time>
      </trkpt>
      <trkpt lat="42.40902" lon="2.69597">
        <ele>1077.4</ele>
        <time>2018-11-26T04:19:43Z</time>
      </trkpt>
      <trkpt lat="42.40902" lon="2.69597">
        <ele>1077.6</ele>
        <time>2018-11-26T04:19:43Z</time>
      </trkpt>
      <trkpt lat="42.40902" lon="2.69597">
        <ele>1077.7</ele>
        <time>2018-11-26T04:19:43Z</time>
      </trkpt>
      <trkpt lat="42.40902" lon="2.69597">
        <ele>1078.1</ele>
        <time>2018-11-26T04:19:43Z</time>
      </trkpt>
      <trkpt lat="42.40902" lon="2.69597">
        <ele>1078.3</ele>
        <time>2018-11-26T04:19:43Z</time>
      </trkpt>
      <trkpt lat="42.40902" lon="2.69597">
        <ele>1078.5</ele>
        <time>2018-11-26T04:19:44Z</time>
      </trkpt>
      <trkpt lat="42.40902" lon="2.69597">
        <ele>1078.7</ele>
        <time>2018-11-26T04:19:44Z</time>
      </trkpt>
      <trkpt lat="42.40902" lon="2.69597">
        <ele>1078.5</ele>
        <time>2018-11-26T04:19:44Z</time>
      </trkpt>
      <trkpt lat="42.40902" lon="2.69597">
        <ele>1078.3</ele>
        <time>2018-11-26T04:19:44Z</time>
      </trkpt>
      <trkpt lat="42.40902" lon="2.69597">
        <ele>1078.1</ele>
        <time>2018-11-26T04:19:44Z</time>
      </trkpt>
      <trkpt lat="42.40902" lon="2.69597">
        <ele>1078.3</ele>
        <time>2018-11-26T04:19:44Z</time>
      </trkpt>
      <trkpt lat="42.40902" lon="2.69597">
        <ele>1078.4</ele>
        <time>2018-11-26T04:19:44Z</time>
      </trkpt>
      <trkpt lat="42.40902" lon="2.69597">
        <ele>1078.5</ele>
        <time>2018-11-26T04:19:44Z</time>
      </trkpt>
      <trkpt lat="42.40902" lon="2.69597">
        <ele>1078.5</ele>
        <time>2018-11-26T04:19:44Z</time>
      </trkpt>
      <trkpt lat="42.40902" lon="2.69597">
        <ele>1078.5</ele>
        <time>2018-11-26T04:19:44Z</time>
      </trkpt>
      <trkpt lat="42.40902" lon="2.69597">
        <ele>1078.4</ele>
        <time>2018-11-26T04:19:44Z</time>
      </trkpt>
      <trkpt lat="42.40902" lon="2.69597">
        <ele>1078.3</ele>
        <time>2018-11-26T04:19:44Z</time>
      </trkpt>
      <trkpt lat="42.40902" lon="2.69597">
        <ele>1078.1</ele>
        <time>2018-11-26T04:19:44Z</time>
      </trkpt>
      <trkpt lat="42.40902" lon="2.69598">
        <ele>1077.9</ele>
        <time>2018-11-26T04:19:44Z</time>
      </trkpt>
      <trkpt lat="42.40902" lon="2.69598">
        <ele>1077.7</ele>
        <time>2018-11-26T04:19:44Z</time>
      </trkpt>
      <trkpt lat="42.40902" lon="2.69598">
        <ele>1077.4</ele>
        <time>2018-11-26T04:19:44Z</time>
      </trkpt>
      <trkpt lat="42.40902" lon="2.69598">
        <ele>1077.3</ele>
        <time>2018-11-26T04:19:44Z</time>
      </trkpt>
      <trkpt lat="42.40902" lon="2.69598">
        <ele>1076.9</ele>
        <time>2018-11-26T04:19:44Z</time>
      </trkpt>
      <trkpt lat="42.40902" lon="2.69598">
        <ele>1076.9</ele>
        <time>2018-11-26T04:19:44Z</time>
      </trkpt>
      <trkpt lat="42.40902" lon="2.69598">
        <ele>1076.7</ele>
        <time>2018-11-26T04:19:44Z</time>
      </trkpt>
      <trkpt lat="42.40902" lon="2.69599">
        <ele>1076.4</ele>
        <time>2018-11-26T04:19:44Z</time>
      </trkpt>
      <trkpt lat="42.40902" lon="2.69599">
        <ele>1076.5</ele>
        <time>2018-11-26T04:19:44Z</time>
      </trkpt>
      <trkpt lat="42.40902" lon="2.69599">
        <ele>1076.5</ele>
        <time>2018-11-26T04:19:44Z</time>
      </trkpt>
      <trkpt lat="42.40902" lon="2.69599">
        <ele>1076.6</ele>
        <time>2018-11-26T04:19:44Z</time>
      </trkpt>
      <trkpt lat="42.40902" lon="2.69599">
        <ele>1076.6</ele>
        <time>2018-11-26T04:19:44Z</time>
      </trkpt>
      <trkpt lat="42.40902" lon="2.69599">
        <ele>1076.6</ele>
        <time>2018-11-26T04:19:44Z</time>
      </trkpt>
      <trkpt lat="42.40902" lon="2.69599">
        <ele>1076.6</ele>
        <time>2018-11-26T04:19:44Z</time>
      </trkpt>
      <trkpt lat="42.40902" lon="2.69599">
        <ele>1076.5</ele>
        <time>2018-11-26T04:19:44Z</time>
      </trkpt>
      <trkpt lat="42.40902" lon="2.69599">
        <ele>1076.5</ele>
        <time>2018-11-26T04:19:44Z</time>
      </trkpt>
      <trkpt lat="42.40902" lon="2.69599">
        <ele>1076.5</ele>
        <time>2018-11-26T04:19:44Z</time>
      </trkpt>
      <trkpt lat="42.40902" lon="2.69599">
        <ele>1076.6</ele>
        <time>2018-11-26T04:19:44Z</time>
      </trkpt>
      <trkpt lat="42.40902" lon="2.69599">
        <ele>1076.9</ele>
        <time>2018-11-26T04:19:44Z</time>
      </trkpt>
      <trkpt lat="42.40902" lon="2.69599">
        <ele>1077</ele>
        <time>2018-11-26T04:19:44Z</time>
      </trkpt>
      <trkpt lat="42.40902" lon="2.69599">
        <ele>1077.3</ele>
        <time>2018-11-26T04:19:44Z</time>
      </trkpt>
      <trkpt lat="42.40902" lon="2.69599">
        <ele>1077.4</ele>
        <time>2018-11-26T04:19:44Z</time>
      </trkpt>
      <trkpt lat="42.40902" lon="2.69599">
        <ele>1077.6</ele>
        <time>2018-11-26T04:19:44Z</time>
      </trkpt>
      <trkpt lat="42.40902" lon="2.69599">
        <ele>1077.7</ele>
        <time>2018-11-26T04:19:44Z</time>
      </trkpt>
      <trkpt lat="42.40902" lon="2.69599">
        <ele>1077.6</ele>
        <time>2018-11-26T04:19:44Z</time>
      </trkpt>
      <trkpt lat="42.40902" lon="2.69599">
        <ele>1077.5</ele>
        <time>2018-11-26T04:19:44Z</time>
      </trkpt>
      <trkpt lat="42.40902" lon="2.69599">
        <ele>1077.3</ele>
        <time>2018-11-26T04:19:44Z</time>
      </trkpt>
      <trkpt lat="42.40902" lon="2.69599">
        <ele>1077.4</ele>
        <time>2018-11-26T04:19:44Z</time>
      </trkpt>
      <trkpt lat="42.40902" lon="2.69599">
        <ele>1077.7</ele>
        <time>2018-11-26T04:19:44Z</time>
      </trkpt>
      <trkpt lat="42.40902" lon="2.69599">
        <ele>1077.9</ele>
        <time>2018-11-26T04:19:44Z</time>
      </trkpt>
      <trkpt lat="42.40902" lon="2.69599">
        <ele>1078</ele>
        <time>2018-11-26T04:19:45Z</time>
      </trkpt>
      <trkpt lat="42.40902" lon="2.69599">
        <ele>1078.2</ele>
        <time>2018-11-26T04:19:45Z</time>
      </trkpt>
      <trkpt lat="42.40902" lon="2.69599">
        <ele>1078.3</ele>
        <time>2018-11-26T04:19:45Z</time>
      </trkpt>
      <trkpt lat="42.40902" lon="2.69599">
        <ele>1078.4</ele>
        <time>2018-11-26T04:19:45Z</time>
      </trkpt>
      <trkpt lat="42.40902" lon="2.69599">
        <ele>1078.1</ele>
        <time>2018-11-26T04:19:45Z</time>
      </trkpt>
      <trkpt lat="42.40902" lon="2.69599">
        <ele>1077.5</ele>
        <time>2018-11-26T04:19:45Z</time>
      </trkpt>
      <trkpt lat="42.40902" lon="2.69599">
        <ele>1076.7</ele>
        <time>2018-11-26T04:19:45Z</time>
      </trkpt>
      <trkpt lat="42.40902" lon="2.69599">
        <ele>1076.9</ele>
        <time>2018-11-26T04:19:45Z</time>
      </trkpt>
      <trkpt lat="42.40902" lon="2.69599">
        <ele>1077.1</ele>
        <time>2018-11-26T04:19:45Z</time>
      </trkpt>
      <trkpt lat="42.40902" lon="2.69599">
        <ele>1077.5</ele>
        <time>2018-11-26T04:19:45Z</time>
      </trkpt>
      <trkpt lat="42.40902" lon="2.69599">
        <ele>1077.4</ele>
        <time>2018-11-26T04:19:45Z</time>
      </trkpt>
      <trkpt lat="42.40902" lon="2.69599">
        <ele>1077.3</ele>
        <time>2018-11-26T04:19:45Z</time>
      </trkpt>
      <trkpt lat="42.40902" lon="2.69599">
        <ele>1077.2</ele>
        <time>2018-11-26T04:19:45Z</time>
      </trkpt>
      <trkpt lat="42.40902" lon="2.69599">
        <ele>1077.3</ele>
        <time>2018-11-26T04:19:45Z</time>
      </trkpt>
      <trkpt lat="42.40902" lon="2.69599">
        <ele>1077.5</ele>
        <time>2018-11-26T04:19:45Z</time>
      </trkpt>
      <trkpt lat="42.40902" lon="2.69599">
        <ele>1077.7</ele>
        <time>2018-11-26T04:19:45Z</time>
      </trkpt>
      <trkpt lat="42.40902" lon="2.69599">
        <ele>1077.8</ele>
        <time>2018-11-26T04:19:45Z</time>
      </trkpt>
      <trkpt lat="42.40902" lon="2.69599">
        <ele>1077.7</ele>
        <time>2018-11-26T04:19:45Z</time>
      </trkpt>
      <trkpt lat="42.40902" lon="2.69599">
        <ele>1077.7</ele>
        <time>2018-11-26T04:19:45Z</time>
      </trkpt>
      <trkpt lat="42.40902" lon="2.69599">
        <ele>1077.8</ele>
        <time>2018-11-26T04:19:45Z</time>
      </trkpt>
      <trkpt lat="42.40902" lon="2.69599">
        <ele>1077.9</ele>
        <time>2018-11-26T04:19:45Z</time>
      </trkpt>
      <trkpt lat="42.40902" lon="2.69599">
        <ele>1078.2</ele>
        <time>2018-11-26T04:19:45Z</time>
      </trkpt>
      <trkpt lat="42.40902" lon="2.69599">
        <ele>1078.3</ele>
        <time>2018-11-26T04:19:45Z</time>
      </trkpt>
      <trkpt lat="42.40902" lon="2.69599">
        <ele>1078.4</ele>
        <time>2018-11-26T04:19:45Z</time>
      </trkpt>
      <trkpt lat="42.40902" lon="2.69599">
        <ele>1078.5</ele>
        <time>2018-11-26T04:19:45Z</time>
      </trkpt>
      <trkpt lat="42.40902" lon="2.69599">
        <ele>1078.5</ele>
        <time>2018-11-26T04:19:45Z</time>
      </trkpt>
      <trkpt lat="42.40902" lon="2.69599">
        <ele>1078.4</ele>
        <time>2018-11-26T04:19:45Z</time>
      </trkpt>
      <trkpt lat="42.40902" lon="2.69599">
        <ele>1078.4</ele>
        <time>2018-11-26T04:19:45Z</time>
      </trkpt>
      <trkpt lat="42.40902" lon="2.69599">
        <ele>1078.2</ele>
        <time>2018-11-26T04:19:45Z</time>
      </trkpt>
      <trkpt lat="42.40902" lon="2.69599">
        <ele>1078.3</ele>
        <time>2018-11-26T04:19:45Z</time>
      </trkpt>
      <trkpt lat="42.40902" lon="2.69599">
        <ele>1078.5</ele>
        <time>2018-11-26T04:19:45Z</time>
      </trkpt>
      <trkpt lat="42.40902" lon="2.69599">
        <ele>1078.7</ele>
        <time>2018-11-26T04:19:45Z</time>
      </trkpt>
      <trkpt lat="42.40902" lon="2.69599">
        <ele>1078.8</ele>
        <time>2018-11-26T04:19:45Z</time>
      </trkpt>
      <trkpt lat="42.40902" lon="2.69599">
        <ele>1078.7</ele>
        <time>2018-11-26T04:19:45Z</time>
      </trkpt>
      <trkpt lat="42.40902" lon="2.69599">
        <ele>1078.9</ele>
        <time>2018-11-26T04:19:45Z</time>
      </trkpt>
      <trkpt lat="42.40902" lon="2.69599">
        <ele>1079</ele>
        <time>2018-11-26T04:19:45Z</time>
      </trkpt>
      <trkpt lat="42.40902" lon="2.69599">
        <ele>1079.1</ele>
        <time>2018-11-26T04:19:45Z</time>
      </trkpt>
      <trkpt lat="42.40902" lon="2.69599">
        <ele>1079.4</ele>
        <time>2018-11-26T04:19:45Z</time>
      </trkpt>
      <trkpt lat="42.40902" lon="2.69599">
        <ele>1079.4</ele>
        <time>2018-11-26T04:19:45Z</time>
      </trkpt>
      <trkpt lat="42.40902" lon="2.69599">
        <ele>1079.3</ele>
        <time>2018-11-26T04:19:45Z</time>
      </trkpt>
      <trkpt lat="42.40902" lon="2.69599">
        <ele>1079.4</ele>
        <time>2018-11-26T04:19:45Z</time>
      </trkpt>
      <trkpt lat="42.40902" lon="2.69599">
        <ele>1079.5</ele>
        <time>2018-11-26T04:19:45Z</time>
      </trkpt>
      <trkpt lat="42.40902" lon="2.69599">
        <ele>1079.2</ele>
        <time>2018-11-26T04:19:45Z</time>
      </trkpt>
      <trkpt lat="42.40902" lon="2.69599">
        <ele>1078.9</ele>
        <time>2018-11-26T04:19:45Z</time>
      </trkpt>
      <trkpt lat="42.40902" lon="2.69599">
        <ele>1078.6</ele>
        <time>2018-11-26T04:19:45Z</time>
      </trkpt>
      <trkpt lat="42.40902" lon="2.69599">
        <ele>1078.4</ele>
        <time>2018-11-26T04:19:45Z</time>
      </trkpt>
      <trkpt lat="42.40902" lon="2.69599">
        <ele>1078.4</ele>
        <time>2018-11-26T04:19:45Z</time>
      </trkpt>
      <trkpt lat="42.40902" lon="2.69599">
        <ele>1078.4</ele>
        <time>2018-11-26T04:19:45Z</time>
      </trkpt>
      <trkpt lat="42.40902" lon="2.69599">
        <ele>1078.4</ele>
        <time>2018-11-26T04:19:45Z</time>
      </trkpt>
      <trkpt lat="42.40902" lon="2.69599">
        <ele>1078.4</ele>
        <time>2018-11-26T04:19:45Z</time>
      </trkpt>
      <trkpt lat="42.40902" lon="2.69599">
        <ele>1078.5</ele>
        <time>2018-11-26T04:19:45Z</time>
      </trkpt>
      <trkpt lat="42.40902" lon="2.69599">
        <ele>1078.6</ele>
        <time>2018-11-26T04:19:45Z</time>
      </trkpt>
      <trkpt lat="42.40902" lon="2.69599">
        <ele>1078.8</ele>
        <time>2018-11-26T04:19:45Z</time>
      </trkpt>
      <trkpt lat="42.40902" lon="2.69599">
        <ele>1078.9</ele>
        <time>2018-11-26T04:19:45Z</time>
      </trkpt>
      <trkpt lat="42.40902" lon="2.69599">
        <ele>1078.7</ele>
        <time>2018-11-26T04:19:45Z</time>
      </trkpt>
      <trkpt lat="42.40902" lon="2.69599">
        <ele>1078.6</ele>
        <time>2018-11-26T04:19:45Z</time>
      </trkpt>
      <trkpt lat="42.40902" lon="2.69599">
        <ele>1078.3</ele>
        <time>2018-11-26T04:19:45Z</time>
      </trkpt>
      <trkpt lat="42.40902" lon="2.69599">
        <ele>1078.1</ele>
        <time>2018-11-26T04:19:45Z</time>
      </trkpt>
      <trkpt lat="42.40902" lon="2.69599">
        <ele>1077.9</ele>
        <time>2018-11-26T04:19:45Z</time>
      </trkpt>
      <trkpt lat="42.40902" lon="2.69599">
        <ele>1077.7</ele>
        <time>2018-11-26T04:19:45Z</time>
      </trkpt>
      <trkpt lat="42.40902" lon="2.69599">
        <ele>1077.4</ele>
        <time>2018-11-26T04:19:45Z</time>
      </trkpt>
      <trkpt lat="42.40902" lon="2.69599">
        <ele>1077.7</ele>
        <time>2018-11-26T04:19:45Z</time>
      </trkpt>
      <trkpt lat="42.40902" lon="2.69599">
        <ele>1078</ele>
        <time>2018-11-26T04:19:45Z</time>
      </trkpt>
      <trkpt lat="42.40902" lon="2.69599">
        <ele>1078.5</ele>
        <time>2018-11-26T04:19:45Z</time>
      </trkpt>
      <trkpt lat="42.40902" lon="2.69599">
        <ele>1078.4</ele>
        <time>2018-11-26T04:19:45Z</time>
      </trkpt>
      <trkpt lat="42.40902" lon="2.69599">
        <ele>1078.3</ele>
        <time>2018-11-26T04:19:45Z</time>
      </trkpt>
      <trkpt lat="42.40902" lon="2.69599">
        <ele>1078.4</ele>
        <time>2018-11-26T04:19:45Z</time>
      </trkpt>
      <trkpt lat="42.40902" lon="2.69599">
        <ele>1078.3</ele>
        <time>2018-11-26T04:19:45Z</time>
      </trkpt>
      <trkpt lat="42.40903" lon="2.69599">
        <ele>1078.4</ele>
        <time>2018-11-26T04:19:45Z</time>
      </trkpt>
      <trkpt lat="42.40903" lon="2.69599">
        <ele>1078.3</ele>
        <time>2018-11-26T04:19:45Z</time>
      </trkpt>
      <trkpt lat="42.40903" lon="2.69599">
        <ele>1078.1</ele>
        <time>2018-11-26T04:19:45Z</time>
      </trkpt>
      <trkpt lat="42.40903" lon="2.69599">
        <ele>1078</ele>
        <time>2018-11-26T04:19:45Z</time>
      </trkpt>
      <trkpt lat="42.40903" lon="2.69599">
        <ele>1077.7</ele>
        <time>2018-11-26T04:19:45Z</time>
      </trkpt>
      <trkpt lat="42.40903" lon="2.69599">
        <ele>1077.8</ele>
        <time>2018-11-26T04:19:45Z</time>
      </trkpt>
      <trkpt lat="42.40903" lon="2.69599">
        <ele>1078.3</ele>
        <time>2018-11-26T04:19:45Z</time>
      </trkpt>
      <trkpt lat="42.40903" lon="2.69599">
        <ele>1078.7</ele>
        <time>2018-11-26T04:19:45Z</time>
      </trkpt>
      <trkpt lat="42.40903" lon="2.69599">
        <ele>1079.2</ele>
        <time>2018-11-26T04:19:45Z</time>
      </trkpt>
      <trkpt lat="42.40903" lon="2.69599">
        <ele>1079.2</ele>
        <time>2018-11-26T04:19:45Z</time>
      </trkpt>
      <trkpt lat="42.40903" lon="2.69599">
        <ele>1079</ele>
        <time>2018-11-26T04:19:45Z</time>
      </trkpt>
      <trkpt lat="42.40903" lon="2.69599">
        <ele>1078.6</ele>
        <time>2018-11-26T04:19:45Z</time>
      </trkpt>
      <trkpt lat="42.40903" lon="2.696">
        <ele>1078.6</ele>
        <time>2018-11-26T04:19:45Z</time>
      </trkpt>
      <trkpt lat="42.40903" lon="2.696">
        <ele>1078.7</ele>
        <time>2018-11-26T04:19:45Z</time>
      </trkpt>
      <trkpt lat="42.40903" lon="2.696">
        <ele>1078.9</ele>
        <time>2018-11-26T04:19:45Z</time>
      </trkpt>
      <trkpt lat="42.40903" lon="2.696">
        <ele>1078.7</ele>
        <time>2018-11-26T04:19:45Z</time>
      </trkpt>
      <trkpt lat="42.40903" lon="2.696">
        <ele>1078.6</ele>
        <time>2018-11-26T04:19:46Z</time>
      </trkpt>
      <trkpt lat="42.40903" lon="2.696">
        <ele>1078.4</ele>
        <time>2018-11-26T04:19:46Z</time>
      </trkpt>
      <trkpt lat="42.40903" lon="2.696">
        <ele>1078.2</ele>
        <time>2018-11-26T04:19:46Z</time>
      </trkpt>
      <trkpt lat="42.40903" lon="2.696">
        <ele>1078.2</ele>
        <time>2018-11-26T04:19:46Z</time>
      </trkpt>
      <trkpt lat="42.40903" lon="2.696">
        <ele>1078.1</ele>
        <time>2018-11-26T04:19:46Z</time>
      </trkpt>
      <trkpt lat="42.40903" lon="2.696">
        <ele>1078</ele>
        <time>2018-11-26T04:19:46Z</time>
      </trkpt>
      <trkpt lat="42.40903" lon="2.696">
        <ele>1077.9</ele>
        <time>2018-11-26T04:19:46Z</time>
      </trkpt>
      <trkpt lat="42.40903" lon="2.696">
        <ele>1077.7</ele>
        <time>2018-11-26T04:19:46Z</time>
      </trkpt>
      <trkpt lat="42.40903" lon="2.696">
        <ele>1077.7</ele>
        <time>2018-11-26T04:19:46Z</time>
      </trkpt>
      <trkpt lat="42.40902" lon="2.696">
        <ele>1077.7</ele>
        <time>2018-11-26T04:19:46Z</time>
      </trkpt>
      <trkpt lat="42.40902" lon="2.696">
        <ele>1077.5</ele>
        <time>2018-11-26T04:19:46Z</time>
      </trkpt>
      <trkpt lat="42.40902" lon="2.696">
        <ele>1077.5</ele>
        <time>2018-11-26T04:19:46Z</time>
      </trkpt>
      <trkpt lat="42.40902" lon="2.696">
        <ele>1077.7</ele>
        <time>2018-11-26T04:19:46Z</time>
      </trkpt>
      <trkpt lat="42.40902" lon="2.696">
        <ele>1077.9</ele>
        <time>2018-11-26T04:19:46Z</time>
      </trkpt>
      <trkpt lat="42.40902" lon="2.696">
        <ele>1078.2</ele>
        <time>2018-11-26T04:19:46Z</time>
      </trkpt>
      <trkpt lat="42.40902" lon="2.69601">
        <ele>1078.2</ele>
        <time>2018-11-26T04:19:46Z</time>
      </trkpt>
      <trkpt lat="42.40902" lon="2.69601">
        <ele>1078.2</ele>
        <time>2018-11-26T04:19:46Z</time>
      </trkpt>
      <trkpt lat="42.40902" lon="2.69601">
        <ele>1078.2</ele>
        <time>2018-11-26T04:19:46Z</time>
      </trkpt>
      <trkpt lat="42.40902" lon="2.69601">
        <ele>1078.4</ele>
        <time>2018-11-26T04:19:46Z</time>
      </trkpt>
      <trkpt lat="42.40902" lon="2.69601">
        <ele>1078.4</ele>
        <time>2018-11-26T04:19:46Z</time>
      </trkpt>
      <trkpt lat="42.40902" lon="2.69601">
        <ele>1078.7</ele>
        <time>2018-11-26T04:19:46Z</time>
      </trkpt>
      <trkpt lat="42.40902" lon="2.69601">
        <ele>1078.7</ele>
        <time>2018-11-26T04:19:46Z</time>
      </trkpt>
      <trkpt lat="42.40902" lon="2.69601">
        <ele>1078.6</ele>
        <time>2018-11-26T04:19:46Z</time>
      </trkpt>
      <trkpt lat="42.40902" lon="2.69601">
        <ele>1078.5</ele>
        <time>2018-11-26T04:19:46Z</time>
      </trkpt>
      <trkpt lat="42.40902" lon="2.69601">
        <ele>1078.5</ele>
        <time>2018-11-26T04:19:46Z</time>
      </trkpt>
      <trkpt lat="42.40902" lon="2.69601">
        <ele>1078.3</ele>
        <time>2018-11-26T04:19:46Z</time>
      </trkpt>
      <trkpt lat="42.40903" lon="2.69601">
        <ele>1078.2</ele>
        <time>2018-11-26T04:19:46Z</time>
      </trkpt>
      <trkpt lat="42.40903" lon="2.696">
        <ele>1078.1</ele>
        <time>2018-11-26T04:19:46Z</time>
      </trkpt>
      <trkpt lat="42.40903" lon="2.696">
        <ele>1078.1</ele>
        <time>2018-11-26T04:19:46Z</time>
      </trkpt>
      <trkpt lat="42.40903" lon="2.696">
        <ele>1078</ele>
        <time>2018-11-26T04:19:46Z</time>
      </trkpt>
      <trkpt lat="42.40903" lon="2.696">
        <ele>1077.8</ele>
        <time>2018-11-26T04:19:46Z</time>
      </trkpt>
      <trkpt lat="42.40903" lon="2.696">
        <ele>1078</ele>
        <time>2018-11-26T04:19:46Z</time>
      </trkpt>
      <trkpt lat="42.40903" lon="2.696">
        <ele>1078.1</ele>
        <time>2018-11-26T04:19:46Z</time>
      </trkpt>
      <trkpt lat="42.40903" lon="2.696">
        <ele>1078.5</ele>
        <time>2018-11-26T04:19:46Z</time>
      </trkpt>
      <trkpt lat="42.40903" lon="2.696">
        <ele>1078.5</ele>
        <time>2018-11-26T04:19:46Z</time>
      </trkpt>
      <trkpt lat="42.40903" lon="2.696">
        <ele>1078.2</ele>
        <time>2018-11-26T04:19:46Z</time>
      </trkpt>
      <trkpt lat="42.40903" lon="2.696">
        <ele>1078.1</ele>
        <time>2018-11-26T04:19:46Z</time>
      </trkpt>
      <trkpt lat="42.40903" lon="2.696">
        <ele>1078.4</ele>
        <time>2018-11-26T04:19:46Z</time>
      </trkpt>
      <trkpt lat="42.40903" lon="2.696">
        <ele>1078.6</ele>
        <time>2018-11-26T04:19:46Z</time>
      </trkpt>
      <trkpt lat="42.40904" lon="2.696">
        <ele>1079</ele>
        <time>2018-11-26T04:19:47Z</time>
      </trkpt>
      <trkpt lat="42.40903" lon="2.696">
        <ele>1079.2</ele>
        <time>2018-11-26T04:19:47Z</time>
      </trkpt>
      <trkpt lat="42.40904" lon="2.696">
        <ele>1079.6</ele>
        <time>2018-11-26T04:19:47Z</time>
      </trkpt>
      <trkpt lat="42.40904" lon="2.696">
        <ele>1080</ele>
        <time>2018-11-26T04:19:47Z</time>
      </trkpt>
      <trkpt lat="42.40904" lon="2.696">
        <ele>1079.6</ele>
        <time>2018-11-26T04:19:47Z</time>
      </trkpt>
      <trkpt lat="42.40904" lon="2.696">
        <ele>1079.2</ele>
        <time>2018-11-26T04:19:47Z</time>
      </trkpt>
      <trkpt lat="42.40904" lon="2.69601">
        <ele>1078.6</ele>
        <time>2018-11-26T04:19:47Z</time>
      </trkpt>
      <trkpt lat="42.40904" lon="2.69601">
        <ele>1077.8</ele>
        <time>2018-11-26T04:19:47Z</time>
      </trkpt>
      <trkpt lat="42.40904" lon="2.69601">
        <ele>1077.8</ele>
        <time>2018-11-26T04:19:47Z</time>
      </trkpt>
      <trkpt lat="42.40904" lon="2.69601">
        <ele>1077.7</ele>
        <time>2018-11-26T04:19:47Z</time>
      </trkpt>
      <trkpt lat="42.40904" lon="2.69601">
        <ele>1077.5</ele>
        <time>2018-11-26T04:19:47Z</time>
      </trkpt>
      <trkpt lat="42.40904" lon="2.69601">
        <ele>1077.6</ele>
        <time>2018-11-26T04:19:47Z</time>
      </trkpt>
      <trkpt lat="42.40904" lon="2.69601">
        <ele>1077.6</ele>
        <time>2018-11-26T04:19:47Z</time>
      </trkpt>
      <trkpt lat="42.40904" lon="2.69601">
        <ele>1077.6</ele>
        <time>2018-11-26T04:19:47Z</time>
      </trkpt>
      <trkpt lat="42.40904" lon="2.69601">
        <ele>1077.8</ele>
        <time>2018-11-26T04:19:47Z</time>
      </trkpt>
      <trkpt lat="42.40904" lon="2.69601">
        <ele>1077.9</ele>
        <time>2018-11-26T04:19:47Z</time>
      </trkpt>
      <trkpt lat="42.40904" lon="2.69601">
        <ele>1077.9</ele>
        <time>2018-11-26T04:19:47Z</time>
      </trkpt>
      <trkpt lat="42.40904" lon="2.69601">
        <ele>1077.8</ele>
        <time>2018-11-26T04:19:47Z</time>
      </trkpt>
      <trkpt lat="42.40904" lon="2.69601">
        <ele>1077.6</ele>
        <time>2018-11-26T04:19:47Z</time>
      </trkpt>
      <trkpt lat="42.40904" lon="2.69601">
        <ele>1077.5</ele>
        <time>2018-11-26T04:19:47Z</time>
      </trkpt>
      <trkpt lat="42.40904" lon="2.69601">
        <ele>1077.8</ele>
        <time>2018-11-26T04:19:47Z</time>
      </trkpt>
      <trkpt lat="42.40904" lon="2.69601">
        <ele>1078.4</ele>
        <time>2018-11-26T04:19:47Z</time>
      </trkpt>
      <trkpt lat="42.40904" lon="2.69601">
        <ele>1078.9</ele>
        <time>2018-11-26T04:19:47Z</time>
      </trkpt>
      <trkpt lat="42.40904" lon="2.69601">
        <ele>1078.9</ele>
        <time>2018-11-26T04:19:47Z</time>
      </trkpt>
      <trkpt lat="42.40904" lon="2.69601">
        <ele>1078.9</ele>
        <time>2018-11-26T04:19:47Z</time>
      </trkpt>
      <trkpt lat="42.40904" lon="2.69601">
        <ele>1078.9</ele>
        <time>2018-11-26T04:19:47Z</time>
      </trkpt>
      <trkpt lat="42.40904" lon="2.69601">
        <ele>1078.8</ele>
        <time>2018-11-26T04:19:47Z</time>
      </trkpt>
      <trkpt lat="42.40904" lon="2.69602">
        <ele>1078.7</ele>
        <time>2018-11-26T04:19:47Z</time>
      </trkpt>
      <trkpt lat="42.40904" lon="2.69602">
        <ele>1078.7</ele>
        <time>2018-11-26T04:19:47Z</time>
      </trkpt>
      <trkpt lat="42.40904" lon="2.69601">
        <ele>1078.7</ele>
        <time>2018-11-26T04:19:47Z</time>
      </trkpt>
      <trkpt lat="42.40904" lon="2.69601">
        <ele>1078.6</ele>
        <time>2018-11-26T04:19:47Z</time>
      </trkpt>
      <trkpt lat="42.40904" lon="2.69601">
        <ele>1078.5</ele>
        <time>2018-11-26T04:19:47Z</time>
      </trkpt>
      <trkpt lat="42.40904" lon="2.69601">
        <ele>1078.4</ele>
        <time>2018-11-26T04:19:47Z</time>
      </trkpt>
      <trkpt lat="42.40904" lon="2.69601">
        <ele>1078.3</ele>
        <time>2018-11-26T04:19:47Z</time>
      </trkpt>
      <trkpt lat="42.40904" lon="2.69601">
        <ele>1078.5</ele>
        <time>2018-11-26T04:19:47Z</time>
      </trkpt>
      <trkpt lat="42.40904" lon="2.69601">
        <ele>1078.4</ele>
        <time>2018-11-26T04:19:47Z</time>
      </trkpt>
      <trkpt lat="42.40904" lon="2.69601">
        <ele>1078.5</ele>
        <time>2018-11-26T04:19:47Z</time>
      </trkpt>
      <trkpt lat="42.40904" lon="2.69601">
        <ele>1078.6</ele>
        <time>2018-11-26T04:19:47Z</time>
      </trkpt>
      <trkpt lat="42.40904" lon="2.69601">
        <ele>1078.7</ele>
        <time>2018-11-26T04:19:47Z</time>
      </trkpt>
      <trkpt lat="42.40904" lon="2.69601">
        <ele>1078.6</ele>
        <time>2018-11-26T04:19:47Z</time>
      </trkpt>
      <trkpt lat="42.40904" lon="2.69601">
        <ele>1078.3</ele>
        <time>2018-11-26T04:19:47Z</time>
      </trkpt>
      <trkpt lat="42.40904" lon="2.69601">
        <ele>1078</ele>
        <time>2018-11-26T04:19:47Z</time>
      </trkpt>
      <trkpt lat="42.40904" lon="2.69601">
        <ele>1078.2</ele>
        <time>2018-11-26T04:19:47Z</time>
      </trkpt>
      <trkpt lat="42.40904" lon="2.69601">
        <ele>1078.5</ele>
        <time>2018-11-26T04:19:47Z</time>
      </trkpt>
      <trkpt lat="42.40904" lon="2.69601">
        <ele>1078.7</ele>
        <time>2018-11-26T04:19:47Z</time>
      </trkpt>
      <trkpt lat="42.40904" lon="2.69601">
        <ele>1079.2</ele>
        <time>2018-11-26T04:19:48Z</time>
      </trkpt>
      <trkpt lat="42.40904" lon="2.69601">
        <ele>1078.9</ele>
        <time>2018-11-26T04:19:48Z</time>
      </trkpt>
      <trkpt lat="42.40904" lon="2.696">
        <ele>1078.7</ele>
        <time>2018-11-26T04:19:48Z</time>
      </trkpt>
      <trkpt lat="42.40904" lon="2.696">
        <ele>1078.4</ele>
        <time>2018-11-26T04:19:48Z</time>
      </trkpt>
      <trkpt lat="42.40904" lon="2.696">
        <ele>1078.4</ele>
        <time>2018-11-26T04:19:48Z</time>
      </trkpt>
      <trkpt lat="42.40904" lon="2.69599">
        <ele>1078.3</ele>
        <time>2018-11-26T04:19:48Z</time>
      </trkpt>
      <trkpt lat="42.40904" lon="2.69599">
        <ele>1078.3</ele>
        <time>2018-11-26T04:19:48Z</time>
      </trkpt>
      <trkpt lat="42.40904" lon="2.69599">
        <ele>1078.2</ele>
        <time>2018-11-26T04:19:48Z</time>
      </trkpt>
      <trkpt lat="42.40904" lon="2.69599">
        <ele>1078.1</ele>
        <time>2018-11-26T04:19:48Z</time>
      </trkpt>
      <trkpt lat="42.40904" lon="2.69599">
        <ele>1077.8</ele>
        <time>2018-11-26T04:19:48Z</time>
      </trkpt>
      <trkpt lat="42.40904" lon="2.69599">
        <ele>1078</ele>
        <time>2018-11-26T04:19:48Z</time>
      </trkpt>
      <trkpt lat="42.40904" lon="2.69599">
        <ele>1078.1</ele>
        <time>2018-11-26T04:19:48Z</time>
      </trkpt>
      <trkpt lat="42.40905" lon="2.69599">
        <ele>1078.3</ele>
        <time>2018-11-26T04:19:48Z</time>
      </trkpt>
      <trkpt lat="42.40905" lon="2.69599">
        <ele>1078.2</ele>
        <time>2018-11-26T04:19:49Z</time>
      </trkpt>
      <trkpt lat="42.40905" lon="2.69599">
        <ele>1078.2</ele>
        <time>2018-11-26T04:19:49Z</time>
      </trkpt>
      <trkpt lat="42.40905" lon="2.69599">
        <ele>1078.1</ele>
        <time>2018-11-26T04:19:49Z</time>
      </trkpt>
      <trkpt lat="42.40905" lon="2.69599">
        <ele>1078.1</ele>
        <time>2018-11-26T04:19:49Z</time>
      </trkpt>
      <trkpt lat="42.40905" lon="2.69599">
        <ele>1078.1</ele>
        <time>2018-11-26T04:19:49Z</time>
      </trkpt>
      <trkpt lat="42.40905" lon="2.69599">
        <ele>1078</ele>
        <time>2018-11-26T04:19:49Z</time>
      </trkpt>
      <trkpt lat="42.40905" lon="2.69599">
        <ele>1077.9</ele>
        <time>2018-11-26T04:19:49Z</time>
      </trkpt>
      <trkpt lat="42.40905" lon="2.69599">
        <ele>1077.9</ele>
        <time>2018-11-26T04:19:49Z</time>
      </trkpt>
      <trkpt lat="42.40905" lon="2.69599">
        <ele>1078.1</ele>
        <time>2018-11-26T04:19:49Z</time>
      </trkpt>
      <trkpt lat="42.40905" lon="2.69599">
        <ele>1078.2</ele>
        <time>2018-11-26T04:19:49Z</time>
      </trkpt>
      <trkpt lat="42.40905" lon="2.69599">
        <ele>1078.3</ele>
        <time>2018-11-26T04:19:49Z</time>
      </trkpt>
      <trkpt lat="42.40905" lon="2.69599">
        <ele>1078.5</ele>
        <time>2018-11-26T04:19:49Z</time>
      </trkpt>
      <trkpt lat="42.40905" lon="2.69599">
        <ele>1078.7</ele>
        <time>2018-11-26T04:19:49Z</time>
      </trkpt>
      <trkpt lat="42.40905" lon="2.69599">
        <ele>1078.8</ele>
        <time>2018-11-26T04:19:49Z</time>
      </trkpt>
      <trkpt lat="42.40905" lon="2.69599">
        <ele>1079</ele>
        <time>2018-11-26T04:19:49Z</time>
      </trkpt>
      <trkpt lat="42.40905" lon="2.69599">
        <ele>1079.4</ele>
        <time>2018-11-26T04:19:49Z</time>
      </trkpt>
      <trkpt lat="42.40905" lon="2.69599">
        <ele>1079.5</ele>
        <time>2018-11-26T04:19:49Z</time>
      </trkpt>
      <trkpt lat="42.40905" lon="2.69599">
        <ele>1079.6</ele>
        <time>2018-11-26T04:19:49Z</time>
      </trkpt>
      <trkpt lat="42.40905" lon="2.69599">
        <ele>1079.5</ele>
        <time>2018-11-26T04:19:49Z</time>
      </trkpt>
      <trkpt lat="42.40904" lon="2.69599">
        <ele>1079.4</ele>
        <time>2018-11-26T04:19:49Z</time>
      </trkpt>
      <trkpt lat="42.40904" lon="2.69599">
        <ele>1079.2</ele>
        <time>2018-11-26T04:19:49Z</time>
      </trkpt>
      <trkpt lat="42.40904" lon="2.69599">
        <ele>1078.9</ele>
        <time>2018-11-26T04:19:49Z</time>
      </trkpt>
      <trkpt lat="42.40904" lon="2.69599">
        <ele>1078.5</ele>
        <time>2018-11-26T04:19:49Z</time>
      </trkpt>
      <trkpt lat="42.40904" lon="2.69599">
        <ele>1078.5</ele>
        <time>2018-11-26T04:19:49Z</time>
      </trkpt>
      <trkpt lat="42.40904" lon="2.69599">
        <ele>1078.5</ele>
        <time>2018-11-26T04:19:49Z</time>
      </trkpt>
      <trkpt lat="42.40904" lon="2.69599">
        <ele>1078.3</ele>
        <time>2018-11-26T04:19:49Z</time>
      </trkpt>
      <trkpt lat="42.40904" lon="2.69599">
        <ele>1078.6</ele>
        <time>2018-11-26T04:19:49Z</time>
      </trkpt>
      <trkpt lat="42.40904" lon="2.69599">
        <ele>1078.6</ele>
        <time>2018-11-26T04:19:49Z</time>
      </trkpt>
      <trkpt lat="42.40904" lon="2.69599">
        <ele>1078.9</ele>
        <time>2018-11-26T04:19:50Z</time>
      </trkpt>
      <trkpt lat="42.40904" lon="2.69599">
        <ele>1078.7</ele>
        <time>2018-11-26T04:19:50Z</time>
      </trkpt>
      <trkpt lat="42.40904" lon="2.69599">
        <ele>1078.5</ele>
        <time>2018-11-26T04:19:50Z</time>
      </trkpt>
      <trkpt lat="42.40904" lon="2.69599">
        <ele>1078.2</ele>
        <time>2018-11-26T04:19:50Z</time>
      </trkpt>
      <trkpt lat="42.40904" lon="2.69599">
        <ele>1078.4</ele>
        <time>2018-11-26T04:19:50Z</time>
      </trkpt>
      <trkpt lat="42.40904" lon="2.69599">
        <ele>1078.6</ele>
        <time>2018-11-26T04:19:50Z</time>
      </trkpt>
      <trkpt lat="42.40904" lon="2.69599">
        <ele>1079</ele>
        <time>2018-11-26T04:19:50Z</time>
      </trkpt>
      <trkpt lat="42.40904" lon="2.69599">
        <ele>1079</ele>
        <time>2018-11-26T04:19:50Z</time>
      </trkpt>
      <trkpt lat="42.40904" lon="2.69599">
        <ele>1078.9</ele>
        <time>2018-11-26T04:19:50Z</time>
      </trkpt>
      <trkpt lat="42.40904" lon="2.69599">
        <ele>1079</ele>
        <time>2018-11-26T04:19:50Z</time>
      </trkpt>
      <trkpt lat="42.40904" lon="2.69599">
        <ele>1078.9</ele>
        <time>2018-11-26T04:19:50Z</time>
      </trkpt>
      <trkpt lat="42.40904" lon="2.69599">
        <ele>1078.9</ele>
        <time>2018-11-26T04:19:50Z</time>
      </trkpt>
      <trkpt lat="42.40904" lon="2.69598">
        <ele>1078.8</ele>
        <time>2018-11-26T04:19:50Z</time>
      </trkpt>
      <trkpt lat="42.40904" lon="2.69598">
        <ele>1078.7</ele>
        <time>2018-11-26T04:19:50Z</time>
      </trkpt>
      <trkpt lat="42.40904" lon="2.69598">
        <ele>1078.6</ele>
        <time>2018-11-26T04:19:50Z</time>
      </trkpt>
      <trkpt lat="42.40904" lon="2.69598">
        <ele>1078.5</ele>
        <time>2018-11-26T04:19:50Z</time>
      </trkpt>
      <trkpt lat="42.40904" lon="2.69598">
        <ele>1078.3</ele>
        <time>2018-11-26T04:19:50Z</time>
      </trkpt>
      <trkpt lat="42.40905" lon="2.69598">
        <ele>1078.3</ele>
        <time>2018-11-26T04:19:50Z</time>
      </trkpt>
      <trkpt lat="42.40905" lon="2.69598">
        <ele>1078.5</ele>
        <time>2018-11-26T04:19:50Z</time>
      </trkpt>
      <trkpt lat="42.40905" lon="2.69598">
        <ele>1078.5</ele>
        <time>2018-11-26T04:19:50Z</time>
      </trkpt>
      <trkpt lat="42.40905" lon="2.69597">
        <ele>1078.5</ele>
        <time>2018-11-26T04:19:50Z</time>
      </trkpt>
      <trkpt lat="42.40905" lon="2.69597">
        <ele>1078.4</ele>
        <time>2018-11-26T04:19:50Z</time>
      </trkpt>
      <trkpt lat="42.40905" lon="2.69597">
        <ele>1078.3</ele>
        <time>2018-11-26T04:19:50Z</time>
      </trkpt>
      <trkpt lat="42.40905" lon="2.69597">
        <ele>1078.4</ele>
        <time>2018-11-26T04:19:50Z</time>
      </trkpt>
      <trkpt lat="42.40905" lon="2.69597">
        <ele>1078.2</ele>
        <time>2018-11-26T04:19:50Z</time>
      </trkpt>
      <trkpt lat="42.40905" lon="2.69597">
        <ele>1078.1</ele>
        <time>2018-11-26T04:19:50Z</time>
      </trkpt>
      <trkpt lat="42.40905" lon="2.69597">
        <ele>1078.2</ele>
        <time>2018-11-26T04:19:50Z</time>
      </trkpt>
      <trkpt lat="42.40905" lon="2.69597">
        <ele>1078.2</ele>
        <time>2018-11-26T04:19:50Z</time>
      </trkpt>
      <trkpt lat="42.40905" lon="2.69597">
        <ele>1078.2</ele>
        <time>2018-11-26T04:19:50Z</time>
      </trkpt>
      <trkpt lat="42.40905" lon="2.69597">
        <ele>1078.4</ele>
        <time>2018-11-26T04:19:50Z</time>
      </trkpt>
      <trkpt lat="42.40905" lon="2.69597">
        <ele>1078.5</ele>
        <time>2018-11-26T04:19:50Z</time>
      </trkpt>
      <trkpt lat="42.40905" lon="2.69597">
        <ele>1078.7</ele>
        <time>2018-11-26T04:19:50Z</time>
      </trkpt>
      <trkpt lat="42.40905" lon="2.69597">
        <ele>1078.9</ele>
        <time>2018-11-26T04:19:50Z</time>
      </trkpt>
      <trkpt lat="42.40904" lon="2.69597">
        <ele>1079</ele>
        <time>2018-11-26T04:19:50Z</time>
      </trkpt>
      <trkpt lat="42.40904" lon="2.69597">
        <ele>1079</ele>
        <time>2018-11-26T04:19:50Z</time>
      </trkpt>
      <trkpt lat="42.40904" lon="2.69597">
        <ele>1079</ele>
        <time>2018-11-26T04:19:50Z</time>
      </trkpt>
      <trkpt lat="42.40904" lon="2.69597">
        <ele>1079</ele>
        <time>2018-11-26T04:19:50Z</time>
      </trkpt>
      <trkpt lat="42.40904" lon="2.69597">
        <ele>1078.9</ele>
        <time>2018-11-26T04:19:50Z</time>
      </trkpt>
      <trkpt lat="42.40904" lon="2.69597">
        <ele>1078.9</ele>
        <time>2018-11-26T04:19:50Z</time>
      </trkpt>
      <trkpt lat="42.40904" lon="2.69597">
        <ele>1078.8</ele>
        <time>2018-11-26T04:19:50Z</time>
      </trkpt>
      <trkpt lat="42.40904" lon="2.69597">
        <ele>1078.7</ele>
        <time>2018-11-26T04:19:50Z</time>
      </trkpt>
      <trkpt lat="42.40904" lon="2.69597">
        <ele>1078.6</ele>
        <time>2018-11-26T04:19:50Z</time>
      </trkpt>
      <trkpt lat="42.40904" lon="2.69597">
        <ele>1078.5</ele>
        <time>2018-11-26T04:19:50Z</time>
      </trkpt>
      <trkpt lat="42.40904" lon="2.69598">
        <ele>1078.6</ele>
        <time>2018-11-26T04:19:51Z</time>
      </trkpt>
      <trkpt lat="42.40904" lon="2.69598">
        <ele>1078.5</ele>
        <time>2018-11-26T04:19:51Z</time>
      </trkpt>
      <trkpt lat="42.40904" lon="2.69598">
        <ele>1078.6</ele>
        <time>2018-11-26T04:19:51Z</time>
      </trkpt>
      <trkpt lat="42.40904" lon="2.69598">
        <ele>1078.7</ele>
        <time>2018-11-26T04:19:51Z</time>
      </trkpt>
      <trkpt lat="42.40904" lon="2.69598">
        <ele>1078.8</ele>
        <time>2018-11-26T04:19:51Z</time>
      </trkpt>
      <trkpt lat="42.40904" lon="2.69598">
        <ele>1078.9</ele>
        <time>2018-11-26T04:19:51Z</time>
      </trkpt>
      <trkpt lat="42.40904" lon="2.69598">
        <ele>1078.9</ele>
        <time>2018-11-26T04:19:51Z</time>
      </trkpt>
      <trkpt lat="42.40904" lon="2.69598">
        <ele>1078.7</ele>
        <time>2018-11-26T04:19:51Z</time>
      </trkpt>
      <trkpt lat="42.40904" lon="2.69598">
        <ele>1078.7</ele>
        <time>2018-11-26T04:19:51Z</time>
      </trkpt>
      <trkpt lat="42.40904" lon="2.69598">
        <ele>1078.6</ele>
        <time>2018-11-26T04:19:51Z</time>
      </trkpt>
      <trkpt lat="42.40904" lon="2.69598">
        <ele>1078.2</ele>
        <time>2018-11-26T04:19:51Z</time>
      </trkpt>
      <trkpt lat="42.40904" lon="2.69598">
        <ele>1077.8</ele>
        <time>2018-11-26T04:19:51Z</time>
      </trkpt>
      <trkpt lat="42.40904" lon="2.69598">
        <ele>1078</ele>
        <time>2018-11-26T04:19:51Z</time>
      </trkpt>
      <trkpt lat="42.40904" lon="2.69598">
        <ele>1078.1</ele>
        <time>2018-11-26T04:19:51Z</time>
      </trkpt>
      <trkpt lat="42.40904" lon="2.69598">
        <ele>1078.4</ele>
        <time>2018-11-26T04:19:51Z</time>
      </trkpt>
      <trkpt lat="42.40904" lon="2.69598">
        <ele>1078.4</ele>
        <time>2018-11-26T04:19:51Z</time>
      </trkpt>
      <trkpt lat="42.40904" lon="2.69598">
        <ele>1078.5</ele>
        <time>2018-11-26T04:19:51Z</time>
      </trkpt>
      <trkpt lat="42.40904" lon="2.69598">
        <ele>1078.7</ele>
        <time>2018-11-26T04:19:51Z</time>
      </trkpt>
      <trkpt lat="42.40904" lon="2.69598">
        <ele>1078.8</ele>
        <time>2018-11-26T04:19:51Z</time>
      </trkpt>
      <trkpt lat="42.40904" lon="2.69598">
        <ele>1079</ele>
        <time>2018-11-26T04:19:51Z</time>
      </trkpt>
      <trkpt lat="42.40904" lon="2.69598">
        <ele>1079.3</ele>
        <time>2018-11-26T04:19:51Z</time>
      </trkpt>
      <trkpt lat="42.40904" lon="2.69598">
        <ele>1079.3</ele>
        <time>2018-11-26T04:19:51Z</time>
      </trkpt>
      <trkpt lat="42.40904" lon="2.69598">
        <ele>1079.3</ele>
        <time>2018-11-26T04:19:51Z</time>
      </trkpt>
      <trkpt lat="42.40904" lon="2.69598">
        <ele>1079.2</ele>
        <time>2018-11-26T04:19:51Z</time>
      </trkpt>
      <trkpt lat="42.40904" lon="2.69598">
        <ele>1079.3</ele>
        <time>2018-11-26T04:19:51Z</time>
      </trkpt>
      <trkpt lat="42.40904" lon="2.69598">
        <ele>1079.2</ele>
        <time>2018-11-26T04:19:51Z</time>
      </trkpt>
      <trkpt lat="42.40904" lon="2.69598">
        <ele>1079</ele>
        <time>2018-11-26T04:19:51Z</time>
      </trkpt>
      <trkpt lat="42.40904" lon="2.69598">
        <ele>1078.9</ele>
        <time>2018-11-26T04:19:51Z</time>
      </trkpt>
      <trkpt lat="42.40904" lon="2.69598">
        <ele>1078.9</ele>
        <time>2018-11-26T04:19:51Z</time>
      </trkpt>
      <trkpt lat="42.40904" lon="2.69598">
        <ele>1079</ele>
        <time>2018-11-26T04:19:51Z</time>
      </trkpt>
      <trkpt lat="42.40904" lon="2.69598">
        <ele>1079.2</ele>
        <time>2018-11-26T04:19:51Z</time>
      </trkpt>
      <trkpt lat="42.40904" lon="2.69598">
        <ele>1079.1</ele>
        <time>2018-11-26T04:19:51Z</time>
      </trkpt>
      <trkpt lat="42.40904" lon="2.69598">
        <ele>1079.1</ele>
        <time>2018-11-26T04:19:51Z</time>
      </trkpt>
      <trkpt lat="42.40904" lon="2.69598">
        <ele>1079.3</ele>
        <time>2018-11-26T04:19:51Z</time>
      </trkpt>
      <trkpt lat="42.40904" lon="2.69598">
        <ele>1079</ele>
        <time>2018-11-26T04:19:51Z</time>
      </trkpt>
      <trkpt lat="42.40904" lon="2.69598">
        <ele>1078.9</ele>
        <time>2018-11-26T04:19:51Z</time>
      </trkpt>
      <trkpt lat="42.40904" lon="2.69598">
        <ele>1078.6</ele>
        <time>2018-11-26T04:19:51Z</time>
      </trkpt>
      <trkpt lat="42.40904" lon="2.69597">
        <ele>1078.6</ele>
        <time>2018-11-26T04:19:51Z</time>
      </trkpt>
      <trkpt lat="42.40904" lon="2.69597">
        <ele>1078.7</ele>
        <time>2018-11-26T04:19:51Z</time>
      </trkpt>
      <trkpt lat="42.40904" lon="2.69597">
        <ele>1078.9</ele>
        <time>2018-11-26T04:19:51Z</time>
      </trkpt>
      <trkpt lat="42.40904" lon="2.69597">
        <ele>1078.7</ele>
        <time>2018-11-26T04:19:51Z</time>
      </trkpt>
      <trkpt lat="42.40904" lon="2.69597">
        <ele>1078.7</ele>
        <time>2018-11-26T04:19:51Z</time>
      </trkpt>
      <trkpt lat="42.40904" lon="2.69597">
        <ele>1078.5</ele>
        <time>2018-11-26T04:19:51Z</time>
      </trkpt>
      <trkpt lat="42.40904" lon="2.69597">
        <ele>1078.5</ele>
        <time>2018-11-26T04:19:51Z</time>
      </trkpt>
      <trkpt lat="42.40904" lon="2.69597">
        <ele>1078.5</ele>
        <time>2018-11-26T04:19:51Z</time>
      </trkpt>
      <trkpt lat="42.40904" lon="2.69597">
        <ele>1078.8</ele>
        <time>2018-11-26T04:19:51Z</time>
      </trkpt>
      <trkpt lat="42.40904" lon="2.69597">
        <ele>1079</ele>
        <time>2018-11-26T04:19:51Z</time>
      </trkpt>
      <trkpt lat="42.40904" lon="2.69597">
        <ele>1078.8</ele>
        <time>2018-11-26T04:19:51Z</time>
      </trkpt>
      <trkpt lat="42.40904" lon="2.69597">
        <ele>1078.8</ele>
        <time>2018-11-26T04:19:51Z</time>
      </trkpt>
      <trkpt lat="42.40904" lon="2.69597">
        <ele>1078.6</ele>
        <time>2018-11-26T04:19:51Z</time>
      </trkpt>
      <trkpt lat="42.40904" lon="2.69597">
        <ele>1078.8</ele>
        <time>2018-11-26T04:19:51Z</time>
      </trkpt>
      <trkpt lat="42.40904" lon="2.69597">
        <ele>1079.1</ele>
        <time>2018-11-26T04:19:51Z</time>
      </trkpt>
      <trkpt lat="42.40904" lon="2.69597">
        <ele>1079.5</ele>
        <time>2018-11-26T04:19:51Z</time>
      </trkpt>
      <trkpt lat="42.40904" lon="2.69597">
        <ele>1079.6</ele>
        <time>2018-11-26T04:19:51Z</time>
      </trkpt>
      <trkpt lat="42.40904" lon="2.69597">
        <ele>1079.6</ele>
        <time>2018-11-26T04:19:51Z</time>
      </trkpt>
      <trkpt lat="42.40904" lon="2.69597">
        <ele>1079.6</ele>
        <time>2018-11-26T04:19:51Z</time>
      </trkpt>
      <trkpt lat="42.40904" lon="2.69597">
        <ele>1079.6</ele>
        <time>2018-11-26T04:19:51Z</time>
      </trkpt>
      <trkpt lat="42.40904" lon="2.69597">
        <ele>1079.5</ele>
        <time>2018-11-26T04:19:51Z</time>
      </trkpt>
      <trkpt lat="42.40904" lon="2.69597">
        <ele>1079.4</ele>
        <time>2018-11-26T04:19:51Z</time>
      </trkpt>
      <trkpt lat="42.40904" lon="2.69597">
        <ele>1079.3</ele>
        <time>2018-11-26T04:19:51Z</time>
      </trkpt>
      <trkpt lat="42.40904" lon="2.69597">
        <ele>1079.1</ele>
        <time>2018-11-26T04:19:51Z</time>
      </trkpt>
      <trkpt lat="42.40904" lon="2.69597">
        <ele>1078.8</ele>
        <time>2018-11-26T04:19:51Z</time>
      </trkpt>
      <trkpt lat="42.40904" lon="2.69597">
        <ele>1078.4</ele>
        <time>2018-11-26T04:19:51Z</time>
      </trkpt>
      <trkpt lat="42.40904" lon="2.69597">
        <ele>1078.6</ele>
        <time>2018-11-26T04:19:51Z</time>
      </trkpt>
      <trkpt lat="42.40904" lon="2.69597">
        <ele>1078.8</ele>
        <time>2018-11-26T04:19:51Z</time>
      </trkpt>
      <trkpt lat="42.40904" lon="2.69597">
        <ele>1079.1</ele>
        <time>2018-11-26T04:19:51Z</time>
      </trkpt>
      <trkpt lat="42.40904" lon="2.69597">
        <ele>1078.9</ele>
        <time>2018-11-26T04:19:51Z</time>
      </trkpt>
      <trkpt lat="42.40904" lon="2.69597">
        <ele>1078.7</ele>
        <time>2018-11-26T04:19:51Z</time>
      </trkpt>
      <trkpt lat="42.40904" lon="2.69597">
        <ele>1078.4</ele>
        <time>2018-11-26T04:19:51Z</time>
      </trkpt>
      <trkpt lat="42.40904" lon="2.69597">
        <ele>1078.4</ele>
        <time>2018-11-26T04:19:51Z</time>
      </trkpt>
      <trkpt lat="42.40904" lon="2.69597">
        <ele>1078.2</ele>
        <time>2018-11-26T04:19:51Z</time>
      </trkpt>
      <trkpt lat="42.40904" lon="2.69597">
        <ele>1078.1</ele>
        <time>2018-11-26T04:19:51Z</time>
      </trkpt>
      <trkpt lat="42.40904" lon="2.69597">
        <ele>1078.1</ele>
        <time>2018-11-26T04:19:51Z</time>
      </trkpt>
      <trkpt lat="42.40904" lon="2.69597">
        <ele>1078.1</ele>
        <time>2018-11-26T04:19:51Z</time>
      </trkpt>
      <trkpt lat="42.40904" lon="2.69597">
        <ele>1078.3</ele>
        <time>2018-11-26T04:19:51Z</time>
      </trkpt>
      <trkpt lat="42.40904" lon="2.69597">
        <ele>1078.4</ele>
        <time>2018-11-26T04:19:51Z</time>
      </trkpt>
      <trkpt lat="42.40904" lon="2.69597">
        <ele>1078.3</ele>
        <time>2018-11-26T04:19:51Z</time>
      </trkpt>
      <trkpt lat="42.40904" lon="2.69597">
        <ele>1078.4</ele>
        <time>2018-11-26T04:19:51Z</time>
      </trkpt>
      <trkpt lat="42.40904" lon="2.69597">
        <ele>1078.4</ele>
        <time>2018-11-26T04:19:51Z</time>
      </trkpt>
      <trkpt lat="42.40904" lon="2.69597">
        <ele>1078.5</ele>
        <time>2018-11-26T04:19:51Z</time>
      </trkpt>
      <trkpt lat="42.40904" lon="2.69597">
        <ele>1078.7</ele>
        <time>2018-11-26T04:19:51Z</time>
      </trkpt>
      <trkpt lat="42.40904" lon="2.69597">
        <ele>1078.8</ele>
        <time>2018-11-26T04:19:51Z</time>
      </trkpt>
      <trkpt lat="42.40904" lon="2.69597">
        <ele>1078.9</ele>
        <time>2018-11-26T04:19:51Z</time>
      </trkpt>
      <trkpt lat="42.40904" lon="2.69597">
        <ele>1079.1</ele>
        <time>2018-11-26T04:19:51Z</time>
      </trkpt>
      <trkpt lat="42.40904" lon="2.69597">
        <ele>1079.3</ele>
        <time>2018-11-26T04:19:51Z</time>
      </trkpt>
      <trkpt lat="42.40904" lon="2.69597">
        <ele>1079.3</ele>
        <time>2018-11-26T04:19:51Z</time>
      </trkpt>
      <trkpt lat="42.40904" lon="2.69597">
        <ele>1079</ele>
        <time>2018-11-26T04:19:51Z</time>
      </trkpt>
      <trkpt lat="42.40904" lon="2.69597">
        <ele>1078.7</ele>
        <time>2018-11-26T04:19:51Z</time>
      </trkpt>
      <trkpt lat="42.40904" lon="2.69597">
        <ele>1078.7</ele>
        <time>2018-11-26T04:19:51Z</time>
      </trkpt>
      <trkpt lat="42.40904" lon="2.69597">
        <ele>1078.7</ele>
        <time>2018-11-26T04:19:51Z</time>
      </trkpt>
      <trkpt lat="42.40904" lon="2.69597">
        <ele>1078.8</ele>
        <time>2018-11-26T04:19:51Z</time>
      </trkpt>
      <trkpt lat="42.40904" lon="2.69597">
        <ele>1078.7</ele>
        <time>2018-11-26T04:19:51Z</time>
      </trkpt>
      <trkpt lat="42.40904" lon="2.69597">
        <ele>1078.8</ele>
        <time>2018-11-26T04:19:51Z</time>
      </trkpt>
      <trkpt lat="42.40904" lon="2.69597">
        <ele>1078.8</ele>
        <time>2018-11-26T04:19:51Z</time>
      </trkpt>
      <trkpt lat="42.40904" lon="2.69597">
        <ele>1078.9</ele>
        <time>2018-11-26T04:19:51Z</time>
      </trkpt>
      <trkpt lat="42.40904" lon="2.69597">
        <ele>1079.1</ele>
        <time>2018-11-26T04:19:51Z</time>
      </trkpt>
      <trkpt lat="42.40904" lon="2.69597">
        <ele>1079.1</ele>
        <time>2018-11-26T04:19:51Z</time>
      </trkpt>
      <trkpt lat="42.40903" lon="2.69597">
        <ele>1079.3</ele>
        <time>2018-11-26T04:19:51Z</time>
      </trkpt>
      <trkpt lat="42.40903" lon="2.69597">
        <ele>1079.1</ele>
        <time>2018-11-26T04:19:51Z</time>
      </trkpt>
      <trkpt lat="42.40903" lon="2.69597">
        <ele>1078.9</ele>
        <time>2018-11-26T04:19:51Z</time>
      </trkpt>
      <trkpt lat="42.40903" lon="2.69597">
        <ele>1078.4</ele>
        <time>2018-11-26T04:19:52Z</time>
      </trkpt>
      <trkpt lat="42.40903" lon="2.69597">
        <ele>1078.5</ele>
        <time>2018-11-26T04:19:52Z</time>
      </trkpt>
      <trkpt lat="42.40903" lon="2.69597">
        <ele>1078.4</ele>
        <time>2018-11-26T04:19:52Z</time>
      </trkpt>
      <trkpt lat="42.40903" lon="2.69596">
        <ele>1078.4</ele>
        <time>2018-11-26T04:19:52Z</time>
      </trkpt>
      <trkpt lat="42.40904" lon="2.69596">
        <ele>1078.6</ele>
        <time>2018-11-26T04:19:52Z</time>
      </trkpt>
      <trkpt lat="42.40904" lon="2.69596">
        <ele>1079</ele>
        <time>2018-11-26T04:19:52Z</time>
      </trkpt>
      <trkpt lat="42.40904" lon="2.69596">
        <ele>1079.5</ele>
        <time>2018-11-26T04:19:52Z</time>
      </trkpt>
      <trkpt lat="42.40904" lon="2.69596">
        <ele>1079.4</ele>
        <time>2018-11-26T04:19:52Z</time>
      </trkpt>
      <trkpt lat="42.40904" lon="2.69596">
        <ele>1079.4</ele>
        <time>2018-11-26T04:19:52Z</time>
      </trkpt>
      <trkpt lat="42.40904" lon="2.69596">
        <ele>1079.5</ele>
        <time>2018-11-26T04:19:52Z</time>
      </trkpt>
      <trkpt lat="42.40904" lon="2.69596">
        <ele>1079.3</ele>
        <time>2018-11-26T04:19:52Z</time>
      </trkpt>
      <trkpt lat="42.40904" lon="2.69596">
        <ele>1078.9</ele>
        <time>2018-11-26T04:19:52Z</time>
      </trkpt>
      <trkpt lat="42.40904" lon="2.69596">
        <ele>1078.6</ele>
        <time>2018-11-26T04:19:52Z</time>
      </trkpt>
      <trkpt lat="42.40904" lon="2.69596">
        <ele>1078.6</ele>
        <time>2018-11-26T04:19:52Z</time>
      </trkpt>
      <trkpt lat="42.40904" lon="2.69596">
        <ele>1078.7</ele>
        <time>2018-11-26T04:19:52Z</time>
      </trkpt>
      <trkpt lat="42.40904" lon="2.69596">
        <ele>1078.7</ele>
        <time>2018-11-26T04:19:52Z</time>
      </trkpt>
      <trkpt lat="42.40904" lon="2.69596">
        <ele>1078.8</ele>
        <time>2018-11-26T04:19:52Z</time>
      </trkpt>
      <trkpt lat="42.40904" lon="2.69596">
        <ele>1078.9</ele>
        <time>2018-11-26T04:19:52Z</time>
      </trkpt>
      <trkpt lat="42.40904" lon="2.69596">
        <ele>1079</ele>
        <time>2018-11-26T04:19:52Z</time>
      </trkpt>
      <trkpt lat="42.40904" lon="2.69596">
        <ele>1079.2</ele>
        <time>2018-11-26T04:19:52Z</time>
      </trkpt>
      <trkpt lat="42.40904" lon="2.69596">
        <ele>1079.3</ele>
        <time>2018-11-26T04:19:52Z</time>
      </trkpt>
      <trkpt lat="42.40904" lon="2.69596">
        <ele>1079.5</ele>
        <time>2018-11-26T04:19:52Z</time>
      </trkpt>
      <trkpt lat="42.40904" lon="2.69596">
        <ele>1079.8</ele>
        <time>2018-11-26T04:19:52Z</time>
      </trkpt>
      <trkpt lat="42.40904" lon="2.69596">
        <ele>1079.9</ele>
        <time>2018-11-26T04:19:52Z</time>
      </trkpt>
      <trkpt lat="42.40904" lon="2.69596">
        <ele>1079.9</ele>
        <time>2018-11-26T04:19:52Z</time>
      </trkpt>
      <trkpt lat="42.40904" lon="2.69596">
        <ele>1079.9</ele>
        <time>2018-11-26T04:19:52Z</time>
      </trkpt>
      <trkpt lat="42.40904" lon="2.69596">
        <ele>1079.8</ele>
        <time>2018-11-26T04:19:52Z</time>
      </trkpt>
      <trkpt lat="42.40904" lon="2.69596">
        <ele>1079.4</ele>
        <time>2018-11-26T04:19:52Z</time>
      </trkpt>
      <trkpt lat="42.40904" lon="2.69596">
        <ele>1079</ele>
        <time>2018-11-26T04:19:52Z</time>
      </trkpt>
      <trkpt lat="42.40904" lon="2.69596">
        <ele>1079.1</ele>
        <time>2018-11-26T04:19:52Z</time>
      </trkpt>
      <trkpt lat="42.40904" lon="2.69596">
        <ele>1079</ele>
        <time>2018-11-26T04:19:52Z</time>
      </trkpt>
      <trkpt lat="42.40904" lon="2.69596">
        <ele>1079</ele>
        <time>2018-11-26T04:19:52Z</time>
      </trkpt>
      <trkpt lat="42.40904" lon="2.69596">
        <ele>1079.1</ele>
        <time>2018-11-26T04:19:52Z</time>
      </trkpt>
      <trkpt lat="42.40904" lon="2.69596">
        <ele>1079.1</ele>
        <time>2018-11-26T04:19:52Z</time>
      </trkpt>
      <trkpt lat="42.40904" lon="2.69596">
        <ele>1079.1</ele>
        <time>2018-11-26T04:19:52Z</time>
      </trkpt>
      <trkpt lat="42.40904" lon="2.69596">
        <ele>1078.9</ele>
        <time>2018-11-26T04:19:52Z</time>
      </trkpt>
      <trkpt lat="42.40904" lon="2.69596">
        <ele>1079</ele>
        <time>2018-11-26T04:19:52Z</time>
      </trkpt>
      <trkpt lat="42.40904" lon="2.69596">
        <ele>1079.1</ele>
        <time>2018-11-26T04:19:52Z</time>
      </trkpt>
      <trkpt lat="42.40904" lon="2.69596">
        <ele>1079.3</ele>
        <time>2018-11-26T04:19:52Z</time>
      </trkpt>
      <trkpt lat="42.40904" lon="2.69596">
        <ele>1079.2</ele>
        <time>2018-11-26T04:19:52Z</time>
      </trkpt>
      <trkpt lat="42.40904" lon="2.69596">
        <ele>1079</ele>
        <time>2018-11-26T04:19:52Z</time>
      </trkpt>
      <trkpt lat="42.40904" lon="2.69596">
        <ele>1078.6</ele>
        <time>2018-11-26T04:19:52Z</time>
      </trkpt>
      <trkpt lat="42.40904" lon="2.69596">
        <ele>1078.6</ele>
        <time>2018-11-26T04:19:52Z</time>
      </trkpt>
      <trkpt lat="42.40904" lon="2.69596">
        <ele>1078.6</ele>
        <time>2018-11-26T04:19:52Z</time>
      </trkpt>
      <trkpt lat="42.40904" lon="2.69596">
        <ele>1078.7</ele>
        <time>2018-11-26T04:19:52Z</time>
      </trkpt>
      <trkpt lat="42.40904" lon="2.69595">
        <ele>1078.6</ele>
        <time>2018-11-26T04:19:52Z</time>
      </trkpt>
      <trkpt lat="42.40904" lon="2.69595">
        <ele>1078.6</ele>
        <time>2018-11-26T04:19:52Z</time>
      </trkpt>
      <trkpt lat="42.40904" lon="2.69595">
        <ele>1078.4</ele>
        <time>2018-11-26T04:19:52Z</time>
      </trkpt>
      <trkpt lat="42.40904" lon="2.69595">
        <ele>1078.6</ele>
        <time>2018-11-26T04:19:52Z</time>
      </trkpt>
      <trkpt lat="42.40904" lon="2.69595">
        <ele>1079</ele>
        <time>2018-11-26T04:19:52Z</time>
      </trkpt>
      <trkpt lat="42.40904" lon="2.69595">
        <ele>1079.5</ele>
        <time>2018-11-26T04:19:52Z</time>
      </trkpt>
      <trkpt lat="42.40904" lon="2.69595">
        <ele>1079.4</ele>
        <time>2018-11-26T04:19:52Z</time>
      </trkpt>
      <trkpt lat="42.40904" lon="2.69595">
        <ele>1079.3</ele>
        <time>2018-11-26T04:19:52Z</time>
      </trkpt>
      <trkpt lat="42.40904" lon="2.69595">
        <ele>1079.2</ele>
        <time>2018-11-26T04:19:52Z</time>
      </trkpt>
      <trkpt lat="42.40904" lon="2.69595">
        <ele>1078.9</ele>
        <time>2018-11-26T04:19:52Z</time>
      </trkpt>
      <trkpt lat="42.40904" lon="2.69596">
        <ele>1079</ele>
        <time>2018-11-26T04:19:52Z</time>
      </trkpt>
      <trkpt lat="42.40904" lon="2.69596">
        <ele>1079.2</ele>
        <time>2018-11-26T04:19:52Z</time>
      </trkpt>
      <trkpt lat="42.40904" lon="2.69596">
        <ele>1079.2</ele>
        <time>2018-11-26T04:19:52Z</time>
      </trkpt>
      <trkpt lat="42.40904" lon="2.69596">
        <ele>1079.3</ele>
        <time>2018-11-26T04:19:53Z</time>
      </trkpt>
      <trkpt lat="42.40904" lon="2.69596">
        <ele>1079.5</ele>
        <time>2018-11-26T04:19:53Z</time>
      </trkpt>
      <trkpt lat="42.40904" lon="2.69596">
        <ele>1079.8</ele>
        <time>2018-11-26T04:19:53Z</time>
      </trkpt>
      <trkpt lat="42.40904" lon="2.69596">
        <ele>1079.7</ele>
        <time>2018-11-26T04:19:53Z</time>
      </trkpt>
      <trkpt lat="42.40904" lon="2.69596">
        <ele>1079.4</ele>
        <time>2018-11-26T04:19:53Z</time>
      </trkpt>
      <trkpt lat="42.40904" lon="2.69596">
        <ele>1079.2</ele>
        <time>2018-11-26T04:19:53Z</time>
      </trkpt>
      <trkpt lat="42.40904" lon="2.69596">
        <ele>1079</ele>
        <time>2018-11-26T04:19:53Z</time>
      </trkpt>
      <trkpt lat="42.40904" lon="2.69596">
        <ele>1078.7</ele>
        <time>2018-11-26T04:19:53Z</time>
      </trkpt>
      <trkpt lat="42.40904" lon="2.69596">
        <ele>1078.3</ele>
        <time>2018-11-26T04:19:53Z</time>
      </trkpt>
      <trkpt lat="42.40904" lon="2.69596">
        <ele>1078.4</ele>
        <time>2018-11-26T04:19:53Z</time>
      </trkpt>
      <trkpt lat="42.40904" lon="2.69596">
        <ele>1078.6</ele>
        <time>2018-11-26T04:19:53Z</time>
      </trkpt>
      <trkpt lat="42.40904" lon="2.69596">
        <ele>1079</ele>
        <time>2018-11-26T04:19:53Z</time>
      </trkpt>
      <trkpt lat="42.40904" lon="2.69596">
        <ele>1079.4</ele>
        <time>2018-11-26T04:19:53Z</time>
      </trkpt>
      <trkpt lat="42.40904" lon="2.69596">
        <ele>1079.2</ele>
        <time>2018-11-26T04:19:53Z</time>
      </trkpt>
      <trkpt lat="42.40904" lon="2.69596">
        <ele>1079.1</ele>
        <time>2018-11-26T04:19:53Z</time>
      </trkpt>
      <trkpt lat="42.40904" lon="2.69596">
        <ele>1078.7</ele>
        <time>2018-11-26T04:19:53Z</time>
      </trkpt>
      <trkpt lat="42.40904" lon="2.69596">
        <ele>1078.9</ele>
        <time>2018-11-26T04:19:53Z</time>
      </trkpt>
      <trkpt lat="42.40904" lon="2.69596">
        <ele>1079.1</ele>
        <time>2018-11-26T04:19:53Z</time>
      </trkpt>
      <trkpt lat="42.40904" lon="2.69596">
        <ele>1079.5</ele>
        <time>2018-11-26T04:19:53Z</time>
      </trkpt>
      <trkpt lat="42.40904" lon="2.69596">
        <ele>1079.5</ele>
        <time>2018-11-26T04:19:53Z</time>
      </trkpt>
      <trkpt lat="42.40904" lon="2.69596">
        <ele>1079.5</ele>
        <time>2018-11-26T04:19:53Z</time>
      </trkpt>
      <trkpt lat="42.40904" lon="2.69596">
        <ele>1079.6</ele>
        <time>2018-11-26T04:19:53Z</time>
      </trkpt>
      <trkpt lat="42.40904" lon="2.69596">
        <ele>1079.8</ele>
        <time>2018-11-26T04:19:53Z</time>
      </trkpt>
      <trkpt lat="42.40904" lon="2.69596">
        <ele>1079.8</ele>
        <time>2018-11-26T04:19:53Z</time>
      </trkpt>
      <trkpt lat="42.40904" lon="2.69596">
        <ele>1080</ele>
        <time>2018-11-26T04:19:53Z</time>
      </trkpt>
      <trkpt lat="42.40904" lon="2.69596">
        <ele>1079.9</ele>
        <time>2018-11-26T04:19:53Z</time>
      </trkpt>
      <trkpt lat="42.40904" lon="2.69596">
        <ele>1079.7</ele>
        <time>2018-11-26T04:19:53Z</time>
      </trkpt>
      <trkpt lat="42.40904" lon="2.69596">
        <ele>1079.5</ele>
        <time>2018-11-26T04:19:53Z</time>
      </trkpt>
      <trkpt lat="42.40904" lon="2.69596">
        <ele>1079.5</ele>
        <time>2018-11-26T04:19:53Z</time>
      </trkpt>
      <trkpt lat="42.40904" lon="2.69596">
        <ele>1079.3</ele>
        <time>2018-11-26T04:19:53Z</time>
      </trkpt>
      <trkpt lat="42.40904" lon="2.69596">
        <ele>1079.2</ele>
        <time>2018-11-26T04:19:53Z</time>
      </trkpt>
      <trkpt lat="42.40904" lon="2.69596">
        <ele>1079</ele>
        <time>2018-11-26T04:19:53Z</time>
      </trkpt>
      <trkpt lat="42.40904" lon="2.69596">
        <ele>1078.9</ele>
        <time>2018-11-26T04:19:53Z</time>
      </trkpt>
      <trkpt lat="42.40904" lon="2.69596">
        <ele>1078.6</ele>
        <time>2018-11-26T04:19:53Z</time>
      </trkpt>
      <trkpt lat="42.40904" lon="2.69596">
        <ele>1078.5</ele>
        <time>2018-11-26T04:19:53Z</time>
      </trkpt>
      <trkpt lat="42.40904" lon="2.69596">
        <ele>1078.5</ele>
        <time>2018-11-26T04:19:53Z</time>
      </trkpt>
      <trkpt lat="42.40904" lon="2.69596">
        <ele>1078.7</ele>
        <time>2018-11-26T04:19:53Z</time>
      </trkpt>
      <trkpt lat="42.40904" lon="2.69596">
        <ele>1078.8</ele>
        <time>2018-11-26T04:19:53Z</time>
      </trkpt>
      <trkpt lat="42.40904" lon="2.69596">
        <ele>1079</ele>
        <time>2018-11-26T04:19:53Z</time>
      </trkpt>
      <trkpt lat="42.40904" lon="2.69596">
        <ele>1079.2</ele>
        <time>2018-11-26T04:19:53Z</time>
      </trkpt>
      <trkpt lat="42.40904" lon="2.69596">
        <ele>1079.6</ele>
        <time>2018-11-26T04:19:53Z</time>
      </trkpt>
      <trkpt lat="42.40904" lon="2.69596">
        <ele>1079.5</ele>
        <time>2018-11-26T04:19:53Z</time>
      </trkpt>
      <trkpt lat="42.40904" lon="2.69596">
        <ele>1079.6</ele>
        <time>2018-11-26T04:19:53Z</time>
      </trkpt>
      <trkpt lat="42.40904" lon="2.69596">
        <ele>1079.5</ele>
        <time>2018-11-26T04:19:53Z</time>
      </trkpt>
      <trkpt lat="42.40904" lon="2.69596">
        <ele>1079.5</ele>
        <time>2018-11-26T04:19:53Z</time>
      </trkpt>
      <trkpt lat="42.40904" lon="2.69596">
        <ele>1079.5</ele>
        <time>2018-11-26T04:19:53Z</time>
      </trkpt>
      <trkpt lat="42.40904" lon="2.69596">
        <ele>1079.6</ele>
        <time>2018-11-26T04:19:53Z</time>
      </trkpt>
      <trkpt lat="42.40904" lon="2.69596">
        <ele>1079.6</ele>
        <time>2018-11-26T04:19:53Z</time>
      </trkpt>
      <trkpt lat="42.40904" lon="2.69596">
        <ele>1079.9</ele>
        <time>2018-11-26T04:19:53Z</time>
      </trkpt>
      <trkpt lat="42.40904" lon="2.69596">
        <ele>1080.1</ele>
        <time>2018-11-26T04:19:53Z</time>
      </trkpt>
      <trkpt lat="42.40904" lon="2.69596">
        <ele>1080.5</ele>
        <time>2018-11-26T04:19:53Z</time>
      </trkpt>
      <trkpt lat="42.40904" lon="2.69596">
        <ele>1080.2</ele>
        <time>2018-11-26T04:19:53Z</time>
      </trkpt>
      <trkpt lat="42.40904" lon="2.69596">
        <ele>1079.9</ele>
        <time>2018-11-26T04:19:53Z</time>
      </trkpt>
      <trkpt lat="42.40905" lon="2.69596">
        <ele>1079.3</ele>
        <time>2018-11-26T04:19:54Z</time>
      </trkpt>
      <trkpt lat="42.40905" lon="2.69596">
        <ele>1079.4</ele>
        <time>2018-11-26T04:19:54Z</time>
      </trkpt>
      <trkpt lat="42.40905" lon="2.69596">
        <ele>1079.6</ele>
        <time>2018-11-26T04:19:54Z</time>
      </trkpt>
      <trkpt lat="42.40905" lon="2.69596">
        <ele>1079.8</ele>
        <time>2018-11-26T04:19:54Z</time>
      </trkpt>
      <trkpt lat="42.40905" lon="2.69596">
        <ele>1079.5</ele>
        <time>2018-11-26T04:19:54Z</time>
      </trkpt>
      <trkpt lat="42.40905" lon="2.69596">
        <ele>1079.2</ele>
        <time>2018-11-26T04:19:54Z</time>
      </trkpt>
      <trkpt lat="42.40905" lon="2.69596">
        <ele>1078.9</ele>
        <time>2018-11-26T04:19:54Z</time>
      </trkpt>
      <trkpt lat="42.40905" lon="2.69596">
        <ele>1078.9</ele>
        <time>2018-11-26T04:19:54Z</time>
      </trkpt>
      <trkpt lat="42.40905" lon="2.69596">
        <ele>1078.9</ele>
        <time>2018-11-26T04:19:54Z</time>
      </trkpt>
      <trkpt lat="42.40905" lon="2.69596">
        <ele>1079</ele>
        <time>2018-11-26T04:19:54Z</time>
      </trkpt>
      <trkpt lat="42.40905" lon="2.69596">
        <ele>1079.3</ele>
        <time>2018-11-26T04:19:54Z</time>
      </trkpt>
      <trkpt lat="42.40905" lon="2.69596">
        <ele>1079.5</ele>
        <time>2018-11-26T04:19:54Z</time>
      </trkpt>
      <trkpt lat="42.40905" lon="2.69596">
        <ele>1079.9</ele>
        <time>2018-11-26T04:19:54Z</time>
      </trkpt>
      <trkpt lat="42.40906" lon="2.69596">
        <ele>1079.9</ele>
        <time>2018-11-26T04:19:54Z</time>
      </trkpt>
      <trkpt lat="42.40906" lon="2.69596">
        <ele>1079.8</ele>
        <time>2018-11-26T04:19:54Z</time>
      </trkpt>
      <trkpt lat="42.40906" lon="2.69596">
        <ele>1079.8</ele>
        <time>2018-11-26T04:19:54Z</time>
      </trkpt>
      <trkpt lat="42.40906" lon="2.69595">
        <ele>1079.6</ele>
        <time>2018-11-26T04:19:54Z</time>
      </trkpt>
      <trkpt lat="42.40906" lon="2.69595">
        <ele>1079.6</ele>
        <time>2018-11-26T04:19:54Z</time>
      </trkpt>
      <trkpt lat="42.40906" lon="2.69595">
        <ele>1079.7</ele>
        <time>2018-11-26T04:19:54Z</time>
      </trkpt>
      <trkpt lat="42.40906" lon="2.69595">
        <ele>1079.6</ele>
        <time>2018-11-26T04:19:54Z</time>
      </trkpt>
      <trkpt lat="42.40906" lon="2.69595">
        <ele>1079.8</ele>
        <time>2018-11-26T04:19:54Z</time>
      </trkpt>
      <trkpt lat="42.40906" lon="2.69595">
        <ele>1080.1</ele>
        <time>2018-11-26T04:19:54Z</time>
      </trkpt>
      <trkpt lat="42.40906" lon="2.69595">
        <ele>1080.3</ele>
        <time>2018-11-26T04:19:54Z</time>
      </trkpt>
      <trkpt lat="42.40906" lon="2.69595">
        <ele>1080.2</ele>
        <time>2018-11-26T04:19:54Z</time>
      </trkpt>
      <trkpt lat="42.40906" lon="2.69595">
        <ele>1079.9</ele>
        <time>2018-11-26T04:19:54Z</time>
      </trkpt>
      <trkpt lat="42.40906" lon="2.69596">
        <ele>1079.7</ele>
        <time>2018-11-26T04:19:54Z</time>
      </trkpt>
      <trkpt lat="42.40906" lon="2.69596">
        <ele>1079.5</ele>
        <time>2018-11-26T04:19:54Z</time>
      </trkpt>
      <trkpt lat="42.40906" lon="2.69596">
        <ele>1079.5</ele>
        <time>2018-11-26T04:19:54Z</time>
      </trkpt>
      <trkpt lat="42.40906" lon="2.69596">
        <ele>1079.4</ele>
        <time>2018-11-26T04:19:54Z</time>
      </trkpt>
      <trkpt lat="42.40906" lon="2.69596">
        <ele>1079.2</ele>
        <time>2018-11-26T04:19:54Z</time>
      </trkpt>
      <trkpt lat="42.40906" lon="2.69596">
        <ele>1079.1</ele>
        <time>2018-11-26T04:19:55Z</time>
      </trkpt>
      <trkpt lat="42.40906" lon="2.69596">
        <ele>1079</ele>
        <time>2018-11-26T04:19:55Z</time>
      </trkpt>
      <trkpt lat="42.40906" lon="2.69596">
        <ele>1078.7</ele>
        <time>2018-11-26T04:19:55Z</time>
      </trkpt>
      <trkpt lat="42.40906" lon="2.69596">
        <ele>1078.6</ele>
        <time>2018-11-26T04:19:55Z</time>
      </trkpt>
      <trkpt lat="42.40906" lon="2.69596">
        <ele>1078.6</ele>
        <time>2018-11-26T04:19:55Z</time>
      </trkpt>
      <trkpt lat="42.40906" lon="2.69596">
        <ele>1078.7</ele>
        <time>2018-11-26T04:19:55Z</time>
      </trkpt>
      <trkpt lat="42.40906" lon="2.69596">
        <ele>1078.7</ele>
        <time>2018-11-26T04:19:55Z</time>
      </trkpt>
      <trkpt lat="42.40906" lon="2.69596">
        <ele>1078.9</ele>
        <time>2018-11-26T04:19:55Z</time>
      </trkpt>
      <trkpt lat="42.40906" lon="2.69596">
        <ele>1079.2</ele>
        <time>2018-11-26T04:19:55Z</time>
      </trkpt>
      <trkpt lat="42.40906" lon="2.69597">
        <ele>1079.3</ele>
        <time>2018-11-26T04:19:55Z</time>
      </trkpt>
      <trkpt lat="42.40906" lon="2.69597">
        <ele>1079.6</ele>
        <time>2018-11-26T04:19:55Z</time>
      </trkpt>
      <trkpt lat="42.40906" lon="2.69597">
        <ele>1079.8</ele>
        <time>2018-11-26T04:19:55Z</time>
      </trkpt>
      <trkpt lat="42.40906" lon="2.69597">
        <ele>1079.8</ele>
        <time>2018-11-26T04:19:55Z</time>
      </trkpt>
      <trkpt lat="42.40906" lon="2.69597">
        <ele>1079.9</ele>
        <time>2018-11-26T04:19:55Z</time>
      </trkpt>
      <trkpt lat="42.40906" lon="2.69597">
        <ele>1080</ele>
        <time>2018-11-26T04:19:55Z</time>
      </trkpt>
      <trkpt lat="42.40906" lon="2.69597">
        <ele>1079.7</ele>
        <time>2018-11-26T04:19:55Z</time>
      </trkpt>
      <trkpt lat="42.40906" lon="2.69597">
        <ele>1079.5</ele>
        <time>2018-11-26T04:19:55Z</time>
      </trkpt>
      <trkpt lat="42.40907" lon="2.69597">
        <ele>1079.2</ele>
        <time>2018-11-26T04:19:55Z</time>
      </trkpt>
      <trkpt lat="42.40907" lon="2.69597">
        <ele>1079.2</ele>
        <time>2018-11-26T04:19:55Z</time>
      </trkpt>
      <trkpt lat="42.40907" lon="2.69597">
        <ele>1079.3</ele>
        <time>2018-11-26T04:19:55Z</time>
      </trkpt>
      <trkpt lat="42.40907" lon="2.69597">
        <ele>1079.2</ele>
        <time>2018-11-26T04:19:55Z</time>
      </trkpt>
      <trkpt lat="42.40907" lon="2.69597">
        <ele>1079.1</ele>
        <time>2018-11-26T04:19:55Z</time>
      </trkpt>
      <trkpt lat="42.40907" lon="2.69597">
        <ele>1079.2</ele>
        <time>2018-11-26T04:19:55Z</time>
      </trkpt>
      <trkpt lat="42.40907" lon="2.69597">
        <ele>1079.3</ele>
        <time>2018-11-26T04:19:55Z</time>
      </trkpt>
      <trkpt lat="42.40907" lon="2.69597">
        <ele>1079.4</ele>
        <time>2018-11-26T04:19:55Z</time>
      </trkpt>
      <trkpt lat="42.40907" lon="2.69597">
        <ele>1079.4</ele>
        <time>2018-11-26T04:19:55Z</time>
      </trkpt>
      <trkpt lat="42.40907" lon="2.69597">
        <ele>1079.3</ele>
        <time>2018-11-26T04:19:55Z</time>
      </trkpt>
      <trkpt lat="42.40907" lon="2.69597">
        <ele>1079.3</ele>
        <time>2018-11-26T04:19:55Z</time>
      </trkpt>
      <trkpt lat="42.40907" lon="2.69597">
        <ele>1079.2</ele>
        <time>2018-11-26T04:19:55Z</time>
      </trkpt>
      <trkpt lat="42.40907" lon="2.69598">
        <ele>1079.1</ele>
        <time>2018-11-26T04:19:55Z</time>
      </trkpt>
      <trkpt lat="42.40907" lon="2.69598">
        <ele>1078.9</ele>
        <time>2018-11-26T04:19:55Z</time>
      </trkpt>
      <trkpt lat="42.40907" lon="2.69598">
        <ele>1078.9</ele>
        <time>2018-11-26T04:19:55Z</time>
      </trkpt>
      <trkpt lat="42.40907" lon="2.69598">
        <ele>1079</ele>
        <time>2018-11-26T04:19:55Z</time>
      </trkpt>
      <trkpt lat="42.40907" lon="2.69598">
        <ele>1079.1</ele>
        <time>2018-11-26T04:19:55Z</time>
      </trkpt>
      <trkpt lat="42.40908" lon="2.69598">
        <ele>1079.2</ele>
        <time>2018-11-26T04:19:56Z</time>
      </trkpt>
      <trkpt lat="42.40908" lon="2.69598">
        <ele>1079.4</ele>
        <time>2018-11-26T04:19:56Z</time>
      </trkpt>
      <trkpt lat="42.40908" lon="2.69598">
        <ele>1079.6</ele>
        <time>2018-11-26T04:19:56Z</time>
      </trkpt>
      <trkpt lat="42.40908" lon="2.69598">
        <ele>1080</ele>
        <time>2018-11-26T04:19:56Z</time>
      </trkpt>
      <trkpt lat="42.40908" lon="2.69597">
        <ele>1080.1</ele>
        <time>2018-11-26T04:19:56Z</time>
      </trkpt>
      <trkpt lat="42.40908" lon="2.69597">
        <ele>1080.3</ele>
        <time>2018-11-26T04:19:56Z</time>
      </trkpt>
      <trkpt lat="42.40908" lon="2.69597">
        <ele>1080.5</ele>
        <time>2018-11-26T04:19:56Z</time>
      </trkpt>
      <trkpt lat="42.40908" lon="2.69597">
        <ele>1080.5</ele>
        <time>2018-11-26T04:19:56Z</time>
      </trkpt>
      <trkpt lat="42.40908" lon="2.69597">
        <ele>1080.4</ele>
        <time>2018-11-26T04:19:56Z</time>
      </trkpt>
      <trkpt lat="42.40908" lon="2.69597">
        <ele>1080.3</ele>
        <time>2018-11-26T04:19:56Z</time>
      </trkpt>
      <trkpt lat="42.40908" lon="2.69597">
        <ele>1080.2</ele>
        <time>2018-11-26T04:19:56Z</time>
      </trkpt>
      <trkpt lat="42.40908" lon="2.69597">
        <ele>1080</ele>
        <time>2018-11-26T04:19:56Z</time>
      </trkpt>
      <trkpt lat="42.40908" lon="2.69597">
        <ele>1079.8</ele>
        <time>2018-11-26T04:19:56Z</time>
      </trkpt>
      <trkpt lat="42.40908" lon="2.69597">
        <ele>1079.8</ele>
        <time>2018-11-26T04:19:56Z</time>
      </trkpt>
      <trkpt lat="42.40908" lon="2.69597">
        <ele>1079.9</ele>
        <time>2018-11-26T04:19:56Z</time>
      </trkpt>
      <trkpt lat="42.40908" lon="2.69597">
        <ele>1080</ele>
        <time>2018-11-26T04:19:56Z</time>
      </trkpt>
      <trkpt lat="42.40908" lon="2.69597">
        <ele>1079.9</ele>
        <time>2018-11-26T04:19:56Z</time>
      </trkpt>
      <trkpt lat="42.40908" lon="2.69597">
        <ele>1079.9</ele>
        <time>2018-11-26T04:19:56Z</time>
      </trkpt>
      <trkpt lat="42.40908" lon="2.69597">
        <ele>1079.6</ele>
        <time>2018-11-26T04:19:56Z</time>
      </trkpt>
      <trkpt lat="42.40908" lon="2.69597">
        <ele>1079.7</ele>
        <time>2018-11-26T04:19:56Z</time>
      </trkpt>
      <trkpt lat="42.40908" lon="2.69597">
        <ele>1079.8</ele>
        <time>2018-11-26T04:19:56Z</time>
      </trkpt>
      <trkpt lat="42.40908" lon="2.69597">
        <ele>1079.9</ele>
        <time>2018-11-26T04:19:56Z</time>
      </trkpt>
      <trkpt lat="42.40908" lon="2.69597">
        <ele>1079.7</ele>
        <time>2018-11-26T04:19:56Z</time>
      </trkpt>
      <trkpt lat="42.40907" lon="2.69597">
        <ele>1079.6</ele>
        <time>2018-11-26T04:19:56Z</time>
      </trkpt>
      <trkpt lat="42.40907" lon="2.69597">
        <ele>1079.6</ele>
        <time>2018-11-26T04:19:56Z</time>
      </trkpt>
      <trkpt lat="42.40907" lon="2.69597">
        <ele>1079.4</ele>
        <time>2018-11-26T04:19:56Z</time>
      </trkpt>
      <trkpt lat="42.40908" lon="2.69597">
        <ele>1079.6</ele>
        <time>2018-11-26T04:19:56Z</time>
      </trkpt>
      <trkpt lat="42.40908" lon="2.69597">
        <ele>1080</ele>
        <time>2018-11-26T04:19:56Z</time>
      </trkpt>
      <trkpt lat="42.40908" lon="2.69597">
        <ele>1080.3</ele>
        <time>2018-11-26T04:19:56Z</time>
      </trkpt>
      <trkpt lat="42.40908" lon="2.69597">
        <ele>1080.2</ele>
        <time>2018-11-26T04:19:56Z</time>
      </trkpt>
      <trkpt lat="42.40908" lon="2.69597">
        <ele>1079.8</ele>
        <time>2018-11-26T04:19:56Z</time>
      </trkpt>
      <trkpt lat="42.40907" lon="2.69597">
        <ele>1079.4</ele>
        <time>2018-11-26T04:19:56Z</time>
      </trkpt>
      <trkpt lat="42.40907" lon="2.69597">
        <ele>1079.2</ele>
        <time>2018-11-26T04:19:56Z</time>
      </trkpt>
      <trkpt lat="42.40907" lon="2.69597">
        <ele>1079</ele>
        <time>2018-11-26T04:19:56Z</time>
      </trkpt>
      <trkpt lat="42.40907" lon="2.69597">
        <ele>1078.9</ele>
        <time>2018-11-26T04:19:56Z</time>
      </trkpt>
      <trkpt lat="42.40907" lon="2.69598">
        <ele>1078.8</ele>
        <time>2018-11-26T04:19:56Z</time>
      </trkpt>
      <trkpt lat="42.40907" lon="2.69598">
        <ele>1078.7</ele>
        <time>2018-11-26T04:19:56Z</time>
      </trkpt>
      <trkpt lat="42.40907" lon="2.69598">
        <ele>1078.4</ele>
        <time>2018-11-26T04:19:56Z</time>
      </trkpt>
      <trkpt lat="42.40907" lon="2.69598">
        <ele>1078.7</ele>
        <time>2018-11-26T04:19:56Z</time>
      </trkpt>
      <trkpt lat="42.40907" lon="2.69598">
        <ele>1079.1</ele>
        <time>2018-11-26T04:19:56Z</time>
      </trkpt>
      <trkpt lat="42.40907" lon="2.69598">
        <ele>1079.5</ele>
        <time>2018-11-26T04:19:56Z</time>
      </trkpt>
      <trkpt lat="42.40907" lon="2.69598">
        <ele>1080.1</ele>
        <time>2018-11-26T04:19:56Z</time>
      </trkpt>
      <trkpt lat="42.40907" lon="2.69598">
        <ele>1080</ele>
        <time>2018-11-26T04:19:56Z</time>
      </trkpt>
      <trkpt lat="42.40907" lon="2.69598">
        <ele>1079.8</ele>
        <time>2018-11-26T04:19:56Z</time>
      </trkpt>
      <trkpt lat="42.40907" lon="2.69598">
        <ele>1079.7</ele>
        <time>2018-11-26T04:19:56Z</time>
      </trkpt>
      <trkpt lat="42.40907" lon="2.69598">
        <ele>1079.7</ele>
        <time>2018-11-26T04:19:56Z</time>
      </trkpt>
      <trkpt lat="42.40907" lon="2.69598">
        <ele>1079.6</ele>
        <time>2018-11-26T04:19:56Z</time>
      </trkpt>
      <trkpt lat="42.40907" lon="2.69598">
        <ele>1079.4</ele>
        <time>2018-11-26T04:19:56Z</time>
      </trkpt>
      <trkpt lat="42.40907" lon="2.69598">
        <ele>1079.3</ele>
        <time>2018-11-26T04:19:56Z</time>
      </trkpt>
      <trkpt lat="42.40907" lon="2.69598">
        <ele>1079.4</ele>
        <time>2018-11-26T04:19:56Z</time>
      </trkpt>
      <trkpt lat="42.40907" lon="2.69598">
        <ele>1079.3</ele>
        <time>2018-11-26T04:19:57Z</time>
      </trkpt>
      <trkpt lat="42.40907" lon="2.69598">
        <ele>1079.7</ele>
        <time>2018-11-26T04:19:57Z</time>
      </trkpt>
      <trkpt lat="42.40907" lon="2.69597">
        <ele>1080.1</ele>
        <time>2018-11-26T04:19:57Z</time>
      </trkpt>
      <trkpt lat="42.40907" lon="2.69597">
        <ele>1080.7</ele>
        <time>2018-11-26T04:19:57Z</time>
      </trkpt>
      <trkpt lat="42.40907" lon="2.69597">
        <ele>1080.6</ele>
        <time>2018-11-26T04:19:57Z</time>
      </trkpt>
      <trkpt lat="42.40907" lon="2.69597">
        <ele>1080.6</ele>
        <time>2018-11-26T04:19:57Z</time>
      </trkpt>
      <trkpt lat="42.40907" lon="2.69597">
        <ele>1080.6</ele>
        <time>2018-11-26T04:19:57Z</time>
      </trkpt>
      <trkpt lat="42.40907" lon="2.69597">
        <ele>1080.4</ele>
        <time>2018-11-26T04:19:57Z</time>
      </trkpt>
      <trkpt lat="42.40907" lon="2.69597">
        <ele>1080.3</ele>
        <time>2018-11-26T04:19:57Z</time>
      </trkpt>
      <trkpt lat="42.40907" lon="2.69597">
        <ele>1080</ele>
        <time>2018-11-26T04:19:57Z</time>
      </trkpt>
      <trkpt lat="42.40907" lon="2.69597">
        <ele>1079.8</ele>
        <time>2018-11-26T04:19:57Z</time>
      </trkpt>
      <trkpt lat="42.40907" lon="2.69597">
        <ele>1079.8</ele>
        <time>2018-11-26T04:19:57Z</time>
      </trkpt>
      <trkpt lat="42.40907" lon="2.69597">
        <ele>1079.7</ele>
        <time>2018-11-26T04:19:57Z</time>
      </trkpt>
      <trkpt lat="42.40907" lon="2.69597">
        <ele>1079.7</ele>
        <time>2018-11-26T04:19:57Z</time>
      </trkpt>
      <trkpt lat="42.40907" lon="2.69597">
        <ele>1079.5</ele>
        <time>2018-11-26T04:19:57Z</time>
      </trkpt>
      <trkpt lat="42.40907" lon="2.69597">
        <ele>1079.4</ele>
        <time>2018-11-26T04:19:57Z</time>
      </trkpt>
      <trkpt lat="42.40907" lon="2.69597">
        <ele>1079.1</ele>
        <time>2018-11-26T04:19:57Z</time>
      </trkpt>
      <trkpt lat="42.40907" lon="2.69597">
        <ele>1079.2</ele>
        <time>2018-11-26T04:19:57Z</time>
      </trkpt>
      <trkpt lat="42.40907" lon="2.69597">
        <ele>1079.3</ele>
        <time>2018-11-26T04:19:57Z</time>
      </trkpt>
      <trkpt lat="42.40907" lon="2.69597">
        <ele>1079.3</ele>
        <time>2018-11-26T04:19:57Z</time>
      </trkpt>
      <trkpt lat="42.40907" lon="2.69597">
        <ele>1079.5</ele>
        <time>2018-11-26T04:19:57Z</time>
      </trkpt>
      <trkpt lat="42.40907" lon="2.69597">
        <ele>1079.8</ele>
        <time>2018-11-26T04:19:57Z</time>
      </trkpt>
      <trkpt lat="42.40907" lon="2.69597">
        <ele>1080.2</ele>
        <time>2018-11-26T04:19:57Z</time>
      </trkpt>
      <trkpt lat="42.40907" lon="2.69597">
        <ele>1080.2</ele>
        <time>2018-11-26T04:19:57Z</time>
      </trkpt>
      <trkpt lat="42.40907" lon="2.69597">
        <ele>1080.4</ele>
        <time>2018-11-26T04:19:57Z</time>
      </trkpt>
      <trkpt lat="42.40907" lon="2.69597">
        <ele>1080.4</ele>
        <time>2018-11-26T04:19:57Z</time>
      </trkpt>
      <trkpt lat="42.40907" lon="2.69597">
        <ele>1080.3</ele>
        <time>2018-11-26T04:19:57Z</time>
      </trkpt>
      <trkpt lat="42.40907" lon="2.69597">
        <ele>1080.3</ele>
        <time>2018-11-26T04:19:57Z</time>
      </trkpt>
      <trkpt lat="42.40907" lon="2.69597">
        <ele>1080.1</ele>
        <time>2018-11-26T04:19:57Z</time>
      </trkpt>
      <trkpt lat="42.40907" lon="2.69597">
        <ele>1079.9</ele>
        <time>2018-11-26T04:19:57Z</time>
      </trkpt>
      <trkpt lat="42.40907" lon="2.69597">
        <ele>1079.9</ele>
        <time>2018-11-26T04:19:57Z</time>
      </trkpt>
      <trkpt lat="42.40907" lon="2.69597">
        <ele>1080.1</ele>
        <time>2018-11-26T04:19:57Z</time>
      </trkpt>
      <trkpt lat="42.40907" lon="2.69597">
        <ele>1080.3</ele>
        <time>2018-11-26T04:19:57Z</time>
      </trkpt>
      <trkpt lat="42.40907" lon="2.69597">
        <ele>1080.2</ele>
        <time>2018-11-26T04:19:57Z</time>
      </trkpt>
      <trkpt lat="42.40907" lon="2.69597">
        <ele>1080.2</ele>
        <time>2018-11-26T04:19:57Z</time>
      </trkpt>
      <trkpt lat="42.40907" lon="2.69597">
        <ele>1079.9</ele>
        <time>2018-11-26T04:19:57Z</time>
      </trkpt>
      <trkpt lat="42.40907" lon="2.69597">
        <ele>1079.8</ele>
        <time>2018-11-26T04:19:57Z</time>
      </trkpt>
      <trkpt lat="42.40907" lon="2.69597">
        <ele>1079.9</ele>
        <time>2018-11-26T04:19:57Z</time>
      </trkpt>
      <trkpt lat="42.40907" lon="2.69597">
        <ele>1079.8</ele>
        <time>2018-11-26T04:19:57Z</time>
      </trkpt>
      <trkpt lat="42.40907" lon="2.69597">
        <ele>1080</ele>
        <time>2018-11-26T04:19:57Z</time>
      </trkpt>
      <trkpt lat="42.40907" lon="2.69597">
        <ele>1080.1</ele>
        <time>2018-11-26T04:19:57Z</time>
      </trkpt>
      <trkpt lat="42.40907" lon="2.69597">
        <ele>1080.3</ele>
        <time>2018-11-26T04:19:57Z</time>
      </trkpt>
      <trkpt lat="42.40907" lon="2.69597">
        <ele>1080.2</ele>
        <time>2018-11-26T04:19:57Z</time>
      </trkpt>
      <trkpt lat="42.40907" lon="2.69597">
        <ele>1080.2</ele>
        <time>2018-11-26T04:19:57Z</time>
      </trkpt>
      <trkpt lat="42.40907" lon="2.69597">
        <ele>1080.1</ele>
        <time>2018-11-26T04:19:57Z</time>
      </trkpt>
      <trkpt lat="42.40906" lon="2.69597">
        <ele>1080</ele>
        <time>2018-11-26T04:19:57Z</time>
      </trkpt>
      <trkpt lat="42.40906" lon="2.69597">
        <ele>1080.2</ele>
        <time>2018-11-26T04:19:57Z</time>
      </trkpt>
      <trkpt lat="42.40907" lon="2.69597">
        <ele>1080.2</ele>
        <time>2018-11-26T04:19:57Z</time>
      </trkpt>
      <trkpt lat="42.40907" lon="2.69597">
        <ele>1080.4</ele>
        <time>2018-11-26T04:19:57Z</time>
      </trkpt>
      <trkpt lat="42.40907" lon="2.69597">
        <ele>1080.3</ele>
        <time>2018-11-26T04:19:57Z</time>
      </trkpt>
      <trkpt lat="42.40907" lon="2.69597">
        <ele>1080.3</ele>
        <time>2018-11-26T04:19:57Z</time>
      </trkpt>
      <trkpt lat="42.40907" lon="2.69597">
        <ele>1080.1</ele>
        <time>2018-11-26T04:19:57Z</time>
      </trkpt>
      <trkpt lat="42.40907" lon="2.69597">
        <ele>1080.1</ele>
        <time>2018-11-26T04:19:57Z</time>
      </trkpt>
      <trkpt lat="42.40907" lon="2.69597">
        <ele>1080</ele>
        <time>2018-11-26T04:19:58Z</time>
      </trkpt>
      <trkpt lat="42.40907" lon="2.69597">
        <ele>1080.1</ele>
        <time>2018-11-26T04:19:58Z</time>
      </trkpt>
      <trkpt lat="42.40907" lon="2.69597">
        <ele>1080.1</ele>
        <time>2018-11-26T04:19:58Z</time>
      </trkpt>
      <trkpt lat="42.40907" lon="2.69597">
        <ele>1080</ele>
        <time>2018-11-26T04:19:58Z</time>
      </trkpt>
      <trkpt lat="42.40907" lon="2.69597">
        <ele>1080.2</ele>
        <time>2018-11-26T04:19:58Z</time>
      </trkpt>
      <trkpt lat="42.40907" lon="2.69598">
        <ele>1080</ele>
        <time>2018-11-26T04:19:58Z</time>
      </trkpt>
      <trkpt lat="42.40907" lon="2.69598">
        <ele>1079.9</ele>
        <time>2018-11-26T04:19:58Z</time>
      </trkpt>
      <trkpt lat="42.40907" lon="2.69598">
        <ele>1079.7</ele>
        <time>2018-11-26T04:19:58Z</time>
      </trkpt>
      <trkpt lat="42.40907" lon="2.69598">
        <ele>1079.8</ele>
        <time>2018-11-26T04:19:58Z</time>
      </trkpt>
      <trkpt lat="42.40907" lon="2.69598">
        <ele>1079.9</ele>
        <time>2018-11-26T04:19:58Z</time>
      </trkpt>
      <trkpt lat="42.40907" lon="2.69598">
        <ele>1080</ele>
        <time>2018-11-26T04:19:58Z</time>
      </trkpt>
      <trkpt lat="42.40907" lon="2.69598">
        <ele>1080.3</ele>
        <time>2018-11-26T04:19:58Z</time>
      </trkpt>
      <trkpt lat="42.40907" lon="2.69598">
        <ele>1080.4</ele>
        <time>2018-11-26T04:19:58Z</time>
      </trkpt>
      <trkpt lat="42.40907" lon="2.69598">
        <ele>1080.5</ele>
        <time>2018-11-26T04:19:58Z</time>
      </trkpt>
      <trkpt lat="42.40907" lon="2.69598">
        <ele>1080.6</ele>
        <time>2018-11-26T04:19:58Z</time>
      </trkpt>
      <trkpt lat="42.40907" lon="2.69598">
        <ele>1080.6</ele>
        <time>2018-11-26T04:19:58Z</time>
      </trkpt>
      <trkpt lat="42.40907" lon="2.69598">
        <ele>1080.6</ele>
        <time>2018-11-26T04:19:58Z</time>
      </trkpt>
      <trkpt lat="42.40907" lon="2.69598">
        <ele>1080.7</ele>
        <time>2018-11-26T04:19:58Z</time>
      </trkpt>
      <trkpt lat="42.40907" lon="2.69598">
        <ele>1080.5</ele>
        <time>2018-11-26T04:19:58Z</time>
      </trkpt>
      <trkpt lat="42.40907" lon="2.69598">
        <ele>1080</ele>
        <time>2018-11-26T04:19:58Z</time>
      </trkpt>
      <trkpt lat="42.40907" lon="2.69598">
        <ele>1079.6</ele>
        <time>2018-11-26T04:19:58Z</time>
      </trkpt>
      <trkpt lat="42.40907" lon="2.69598">
        <ele>1080</ele>
        <time>2018-11-26T04:19:58Z</time>
      </trkpt>
      <trkpt lat="42.40907" lon="2.69598">
        <ele>1080.2</ele>
        <time>2018-11-26T04:19:58Z</time>
      </trkpt>
      <trkpt lat="42.40907" lon="2.69598">
        <ele>1080.8</ele>
        <time>2018-11-26T04:19:58Z</time>
      </trkpt>
      <trkpt lat="42.40907" lon="2.69598">
        <ele>1080.8</ele>
        <time>2018-11-26T04:19:58Z</time>
      </trkpt>
      <trkpt lat="42.40907" lon="2.69598">
        <ele>1080.9</ele>
        <time>2018-11-26T04:19:58Z</time>
      </trkpt>
      <trkpt lat="42.40907" lon="2.69598">
        <ele>1080.9</ele>
        <time>2018-11-26T04:19:58Z</time>
      </trkpt>
      <trkpt lat="42.40907" lon="2.69598">
        <ele>1080.7</ele>
        <time>2018-11-26T04:19:58Z</time>
      </trkpt>
      <trkpt lat="42.40907" lon="2.69598">
        <ele>1080.7</ele>
        <time>2018-11-26T04:19:58Z</time>
      </trkpt>
      <trkpt lat="42.40907" lon="2.69598">
        <ele>1080.5</ele>
        <time>2018-11-26T04:19:58Z</time>
      </trkpt>
      <trkpt lat="42.40907" lon="2.69598">
        <ele>1080.4</ele>
        <time>2018-11-26T04:19:58Z</time>
      </trkpt>
      <trkpt lat="42.40907" lon="2.69598">
        <ele>1080.3</ele>
        <time>2018-11-26T04:19:58Z</time>
      </trkpt>
      <trkpt lat="42.40907" lon="2.69598">
        <ele>1080</ele>
        <time>2018-11-26T04:19:58Z</time>
      </trkpt>
      <trkpt lat="42.40907" lon="2.69598">
        <ele>1079.8</ele>
        <time>2018-11-26T04:19:58Z</time>
      </trkpt>
      <trkpt lat="42.40907" lon="2.69598">
        <ele>1079.8</ele>
        <time>2018-11-26T04:19:58Z</time>
      </trkpt>
      <trkpt lat="42.40907" lon="2.69598">
        <ele>1079.7</ele>
        <time>2018-11-26T04:19:58Z</time>
      </trkpt>
      <trkpt lat="42.40907" lon="2.69599">
        <ele>1079.6</ele>
        <time>2018-11-26T04:19:58Z</time>
      </trkpt>
      <trkpt lat="42.40907" lon="2.69599">
        <ele>1079.6</ele>
        <time>2018-11-26T04:19:58Z</time>
      </trkpt>
      <trkpt lat="42.40907" lon="2.69599">
        <ele>1079.7</ele>
        <time>2018-11-26T04:19:58Z</time>
      </trkpt>
      <trkpt lat="42.40907" lon="2.69599">
        <ele>1079.7</ele>
        <time>2018-11-26T04:19:58Z</time>
      </trkpt>
      <trkpt lat="42.40907" lon="2.69599">
        <ele>1079.9</ele>
        <time>2018-11-26T04:19:58Z</time>
      </trkpt>
      <trkpt lat="42.40907" lon="2.69599">
        <ele>1080.1</ele>
        <time>2018-11-26T04:19:58Z</time>
      </trkpt>
      <trkpt lat="42.40907" lon="2.69599">
        <ele>1080.4</ele>
        <time>2018-11-26T04:19:58Z</time>
      </trkpt>
      <trkpt lat="42.40907" lon="2.69599">
        <ele>1080.5</ele>
        <time>2018-11-26T04:19:58Z</time>
      </trkpt>
      <trkpt lat="42.40907" lon="2.69599">
        <ele>1080.5</ele>
        <time>2018-11-26T04:19:58Z</time>
      </trkpt>
      <trkpt lat="42.40907" lon="2.69599">
        <ele>1080.5</ele>
        <time>2018-11-26T04:19:58Z</time>
      </trkpt>
      <trkpt lat="42.40907" lon="2.69599">
        <ele>1080.4</ele>
        <time>2018-11-26T04:19:58Z</time>
      </trkpt>
      <trkpt lat="42.40907" lon="2.69599">
        <ele>1080.4</ele>
        <time>2018-11-26T04:19:58Z</time>
      </trkpt>
      <trkpt lat="42.40907" lon="2.69599">
        <ele>1080.3</ele>
        <time>2018-11-26T04:19:58Z</time>
      </trkpt>
      <trkpt lat="42.40907" lon="2.69599">
        <ele>1080.3</ele>
        <time>2018-11-26T04:19:58Z</time>
      </trkpt>
      <trkpt lat="42.40907" lon="2.69599">
        <ele>1080.3</ele>
        <time>2018-11-26T04:19:58Z</time>
      </trkpt>
      <trkpt lat="42.40907" lon="2.69599">
        <ele>1080.4</ele>
        <time>2018-11-26T04:19:58Z</time>
      </trkpt>
      <trkpt lat="42.40907" lon="2.69599">
        <ele>1080.4</ele>
        <time>2018-11-26T04:19:58Z</time>
      </trkpt>
      <trkpt lat="42.40907" lon="2.69599">
        <ele>1080.2</ele>
        <time>2018-11-26T04:19:58Z</time>
      </trkpt>
      <trkpt lat="42.40907" lon="2.69599">
        <ele>1080.2</ele>
        <time>2018-11-26T04:19:58Z</time>
      </trkpt>
      <trkpt lat="42.40907" lon="2.69599">
        <ele>1079.9</ele>
        <time>2018-11-26T04:19:59Z</time>
      </trkpt>
      <trkpt lat="42.40907" lon="2.69599">
        <ele>1079.9</ele>
        <time>2018-11-26T04:19:59Z</time>
      </trkpt>
      <trkpt lat="42.40907" lon="2.69599">
        <ele>1079.9</ele>
        <time>2018-11-26T04:19:59Z</time>
      </trkpt>
      <trkpt lat="42.40907" lon="2.69599">
        <ele>1079.9</ele>
        <time>2018-11-26T04:19:59Z</time>
      </trkpt>
      <trkpt lat="42.40907" lon="2.69599">
        <ele>1079.6</ele>
        <time>2018-11-26T04:19:59Z</time>
      </trkpt>
      <trkpt lat="42.40907" lon="2.69599">
        <ele>1079.4</ele>
        <time>2018-11-26T04:19:59Z</time>
      </trkpt>
      <trkpt lat="42.40907" lon="2.69599">
        <ele>1079.1</ele>
        <time>2018-11-26T04:19:59Z</time>
      </trkpt>
      <trkpt lat="42.40907" lon="2.69599">
        <ele>1079.4</ele>
        <time>2018-11-26T04:19:59Z</time>
      </trkpt>
      <trkpt lat="42.40907" lon="2.69599">
        <ele>1079.6</ele>
        <time>2018-11-26T04:19:59Z</time>
      </trkpt>
      <trkpt lat="42.40907" lon="2.69599">
        <ele>1080</ele>
        <time>2018-11-26T04:19:59Z</time>
      </trkpt>
      <trkpt lat="42.40907" lon="2.69599">
        <ele>1080.7</ele>
        <time>2018-11-26T04:19:59Z</time>
      </trkpt>
      <trkpt lat="42.40907" lon="2.69599">
        <ele>1080.7</ele>
        <time>2018-11-26T04:19:59Z</time>
      </trkpt>
      <trkpt lat="42.40907" lon="2.696">
        <ele>1080.7</ele>
        <time>2018-11-26T04:19:59Z</time>
      </trkpt>
      <trkpt lat="42.40907" lon="2.696">
        <ele>1080.6</ele>
        <time>2018-11-26T04:19:59Z</time>
      </trkpt>
      <trkpt lat="42.40907" lon="2.696">
        <ele>1080.6</ele>
        <time>2018-11-26T04:19:59Z</time>
      </trkpt>
      <trkpt lat="42.40907" lon="2.696">
        <ele>1080.6</ele>
        <time>2018-11-26T04:19:59Z</time>
      </trkpt>
      <trkpt lat="42.40907" lon="2.696">
        <ele>1080.8</ele>
        <time>2018-11-26T04:19:59Z</time>
      </trkpt>
      <trkpt lat="42.40907" lon="2.696">
        <ele>1080.5</ele>
        <time>2018-11-26T04:19:59Z</time>
      </trkpt>
      <trkpt lat="42.40907" lon="2.696">
        <ele>1080.3</ele>
        <time>2018-11-26T04:19:59Z</time>
      </trkpt>
      <trkpt lat="42.40907" lon="2.696">
        <ele>1079.9</ele>
        <time>2018-11-26T04:19:59Z</time>
      </trkpt>
      <trkpt lat="42.40907" lon="2.696">
        <ele>1080.1</ele>
        <time>2018-11-26T04:19:59Z</time>
      </trkpt>
      <trkpt lat="42.40907" lon="2.696">
        <ele>1080.2</ele>
        <time>2018-11-26T04:19:59Z</time>
      </trkpt>
      <trkpt lat="42.40907" lon="2.696">
        <ele>1080.5</ele>
        <time>2018-11-26T04:19:59Z</time>
      </trkpt>
      <trkpt lat="42.40907" lon="2.696">
        <ele>1080.3</ele>
        <time>2018-11-26T04:19:59Z</time>
      </trkpt>
      <trkpt lat="42.40907" lon="2.696">
        <ele>1080.3</ele>
        <time>2018-11-26T04:19:59Z</time>
      </trkpt>
      <trkpt lat="42.40907" lon="2.696">
        <ele>1080.2</ele>
        <time>2018-11-26T04:19:59Z</time>
      </trkpt>
      <trkpt lat="42.40907" lon="2.696">
        <ele>1080.1</ele>
        <time>2018-11-26T04:19:59Z</time>
      </trkpt>
      <trkpt lat="42.40907" lon="2.696">
        <ele>1080</ele>
        <time>2018-11-26T04:19:59Z</time>
      </trkpt>
      <trkpt lat="42.40907" lon="2.696">
        <ele>1079.7</ele>
        <time>2018-11-26T04:19:59Z</time>
      </trkpt>
      <trkpt lat="42.40907" lon="2.696">
        <ele>1079.6</ele>
        <time>2018-11-26T04:19:59Z</time>
      </trkpt>
      <trkpt lat="42.40907" lon="2.696">
        <ele>1079.8</ele>
        <time>2018-11-26T04:19:59Z</time>
      </trkpt>
      <trkpt lat="42.40907" lon="2.696">
        <ele>1079.9</ele>
        <time>2018-11-26T04:19:59Z</time>
      </trkpt>
      <trkpt lat="42.40907" lon="2.696">
        <ele>1080.3</ele>
        <time>2018-11-26T04:19:59Z</time>
      </trkpt>
      <trkpt lat="42.40907" lon="2.696">
        <ele>1080.1</ele>
        <time>2018-11-26T04:19:59Z</time>
      </trkpt>
      <trkpt lat="42.40907" lon="2.696">
        <ele>1080.1</ele>
        <time>2018-11-26T04:19:59Z</time>
      </trkpt>
      <trkpt lat="42.40907" lon="2.696">
        <ele>1080.1</ele>
        <time>2018-11-26T04:19:59Z</time>
      </trkpt>
      <trkpt lat="42.40907" lon="2.696">
        <ele>1080.3</ele>
        <time>2018-11-26T04:19:59Z</time>
      </trkpt>
      <trkpt lat="42.40907" lon="2.696">
        <ele>1080.3</ele>
        <time>2018-11-26T04:19:59Z</time>
      </trkpt>
      <trkpt lat="42.40907" lon="2.696">
        <ele>1080.4</ele>
        <time>2018-11-26T04:19:59Z</time>
      </trkpt>
      <trkpt lat="42.40907" lon="2.696">
        <ele>1080.5</ele>
        <time>2018-11-26T04:19:59Z</time>
      </trkpt>
      <trkpt lat="42.40907" lon="2.696">
        <ele>1080.7</ele>
        <time>2018-11-26T04:19:59Z</time>
      </trkpt>
      <trkpt lat="42.40907" lon="2.69601">
        <ele>1080.8</ele>
        <time>2018-11-26T04:19:59Z</time>
      </trkpt>
      <trkpt lat="42.40907" lon="2.69601">
        <ele>1080.8</ele>
        <time>2018-11-26T04:19:59Z</time>
      </trkpt>
      <trkpt lat="42.40907" lon="2.69601">
        <ele>1080.7</ele>
        <time>2018-11-26T04:19:59Z</time>
      </trkpt>
      <trkpt lat="42.40907" lon="2.69601">
        <ele>1080.6</ele>
        <time>2018-11-26T04:19:59Z</time>
      </trkpt>
      <trkpt lat="42.40907" lon="2.69601">
        <ele>1080.6</ele>
        <time>2018-11-26T04:19:59Z</time>
      </trkpt>
      <trkpt lat="42.40907" lon="2.69601">
        <ele>1080.6</ele>
        <time>2018-11-26T04:19:59Z</time>
      </trkpt>
      <trkpt lat="42.40907" lon="2.69601">
        <ele>1080.4</ele>
        <time>2018-11-26T04:19:59Z</time>
      </trkpt>
      <trkpt lat="42.40907" lon="2.696">
        <ele>1080.2</ele>
        <time>2018-11-26T04:19:59Z</time>
      </trkpt>
      <trkpt lat="42.40907" lon="2.696">
        <ele>1080.4</ele>
        <time>2018-11-26T04:19:59Z</time>
      </trkpt>
      <trkpt lat="42.40907" lon="2.696">
        <ele>1080.7</ele>
        <time>2018-11-26T04:19:59Z</time>
      </trkpt>
      <trkpt lat="42.40907" lon="2.696">
        <ele>1081.1</ele>
        <time>2018-11-26T04:19:59Z</time>
      </trkpt>
      <trkpt lat="42.40907" lon="2.696">
        <ele>1081.1</ele>
        <time>2018-11-26T04:19:59Z</time>
      </trkpt>
      <trkpt lat="42.40907" lon="2.696">
        <ele>1081.2</ele>
        <time>2018-11-26T04:19:59Z</time>
      </trkpt>
      <trkpt lat="42.40907" lon="2.69601">
        <ele>1081.3</ele>
        <time>2018-11-26T04:19:59Z</time>
      </trkpt>
      <trkpt lat="42.40907" lon="2.69601">
        <ele>1081.1</ele>
        <time>2018-11-26T04:19:59Z</time>
      </trkpt>
      <trkpt lat="42.40907" lon="2.69601">
        <ele>1081</ele>
        <time>2018-11-26T04:19:59Z</time>
      </trkpt>
      <trkpt lat="42.40907" lon="2.69601">
        <ele>1080.6</ele>
        <time>2018-11-26T04:19:59Z</time>
      </trkpt>
      <trkpt lat="42.40907" lon="2.69601">
        <ele>1080.7</ele>
        <time>2018-11-26T04:19:59Z</time>
      </trkpt>
      <trkpt lat="42.40907" lon="2.69601">
        <ele>1080.6</ele>
        <time>2018-11-26T04:19:59Z</time>
      </trkpt>
      <trkpt lat="42.40907" lon="2.69601">
        <ele>1080.7</ele>
        <time>2018-11-26T04:19:59Z</time>
      </trkpt>
      <trkpt lat="42.40907" lon="2.69601">
        <ele>1080.6</ele>
        <time>2018-11-26T04:19:59Z</time>
      </trkpt>
      <trkpt lat="42.40907" lon="2.696">
        <ele>1080.6</ele>
        <time>2018-11-26T04:19:59Z</time>
      </trkpt>
      <trkpt lat="42.40907" lon="2.696">
        <ele>1080.5</ele>
        <time>2018-11-26T04:19:59Z</time>
      </trkpt>
      <trkpt lat="42.40907" lon="2.696">
        <ele>1080.3</ele>
        <time>2018-11-26T04:19:59Z</time>
      </trkpt>
      <trkpt lat="42.40907" lon="2.696">
        <ele>1080.2</ele>
        <time>2018-11-26T04:19:59Z</time>
      </trkpt>
      <trkpt lat="42.40907" lon="2.696">
        <ele>1080</ele>
        <time>2018-11-26T04:19:59Z</time>
      </trkpt>
      <trkpt lat="42.40907" lon="2.696">
        <ele>1079.7</ele>
        <time>2018-11-26T04:19:59Z</time>
      </trkpt>
      <trkpt lat="42.40907" lon="2.696">
        <ele>1079.6</ele>
        <time>2018-11-26T04:19:59Z</time>
      </trkpt>
      <trkpt lat="42.40907" lon="2.696">
        <ele>1079.3</ele>
        <time>2018-11-26T04:20:00Z</time>
      </trkpt>
      <trkpt lat="42.40907" lon="2.696">
        <ele>1078.8</ele>
        <time>2018-11-26T04:20:00Z</time>
      </trkpt>
      <trkpt lat="42.40907" lon="2.696">
        <ele>1079.1</ele>
        <time>2018-11-26T04:20:00Z</time>
      </trkpt>
      <trkpt lat="42.40907" lon="2.696">
        <ele>1079.7</ele>
        <time>2018-11-26T04:20:00Z</time>
      </trkpt>
      <trkpt lat="42.40907" lon="2.696">
        <ele>1080.3</ele>
        <time>2018-11-26T04:20:00Z</time>
      </trkpt>
      <trkpt lat="42.40907" lon="2.696">
        <ele>1080.4</ele>
        <time>2018-11-26T04:20:00Z</time>
      </trkpt>
      <trkpt lat="42.40907" lon="2.696">
        <ele>1080.6</ele>
        <time>2018-11-26T04:20:00Z</time>
      </trkpt>
      <trkpt lat="42.40907" lon="2.696">
        <ele>1080.9</ele>
        <time>2018-11-26T04:20:00Z</time>
      </trkpt>
      <trkpt lat="42.40907" lon="2.696">
        <ele>1080.8</ele>
        <time>2018-11-26T04:20:00Z</time>
      </trkpt>
      <trkpt lat="42.40907" lon="2.696">
        <ele>1080.7</ele>
        <time>2018-11-26T04:20:00Z</time>
      </trkpt>
      <trkpt lat="42.40907" lon="2.696">
        <ele>1080.6</ele>
        <time>2018-11-26T04:20:00Z</time>
      </trkpt>
      <trkpt lat="42.40907" lon="2.696">
        <ele>1080.7</ele>
        <time>2018-11-26T04:20:00Z</time>
      </trkpt>
      <trkpt lat="42.40907" lon="2.696">
        <ele>1080.8</ele>
        <time>2018-11-26T04:20:00Z</time>
      </trkpt>
      <trkpt lat="42.40907" lon="2.696">
        <ele>1080.9</ele>
        <time>2018-11-26T04:20:00Z</time>
      </trkpt>
      <trkpt lat="42.40907" lon="2.696">
        <ele>1081.2</ele>
        <time>2018-11-26T04:20:00Z</time>
      </trkpt>
      <trkpt lat="42.40907" lon="2.696">
        <ele>1080.9</ele>
        <time>2018-11-26T04:20:00Z</time>
      </trkpt>
      <trkpt lat="42.40907" lon="2.696">
        <ele>1080.7</ele>
        <time>2018-11-26T04:20:00Z</time>
      </trkpt>
      <trkpt lat="42.40907" lon="2.696">
        <ele>1080.5</ele>
        <time>2018-11-26T04:20:00Z</time>
      </trkpt>
      <trkpt lat="42.40907" lon="2.696">
        <ele>1080.5</ele>
        <time>2018-11-26T04:20:00Z</time>
      </trkpt>
      <trkpt lat="42.40907" lon="2.696">
        <ele>1080.6</ele>
        <time>2018-11-26T04:20:00Z</time>
      </trkpt>
      <trkpt lat="42.40907" lon="2.696">
        <ele>1080.6</ele>
        <time>2018-11-26T04:20:00Z</time>
      </trkpt>
      <trkpt lat="42.40907" lon="2.696">
        <ele>1080.4</ele>
        <time>2018-11-26T04:20:00Z</time>
      </trkpt>
      <trkpt lat="42.40907" lon="2.696">
        <ele>1080.4</ele>
        <time>2018-11-26T04:20:00Z</time>
      </trkpt>
      <trkpt lat="42.40907" lon="2.696">
        <ele>1080.2</ele>
        <time>2018-11-26T04:20:00Z</time>
      </trkpt>
      <trkpt lat="42.40907" lon="2.696">
        <ele>1080.2</ele>
        <time>2018-11-26T04:20:00Z</time>
      </trkpt>
      <trkpt lat="42.40907" lon="2.696">
        <ele>1080.1</ele>
        <time>2018-11-26T04:20:00Z</time>
      </trkpt>
      <trkpt lat="42.40907" lon="2.696">
        <ele>1080.1</ele>
        <time>2018-11-26T04:20:00Z</time>
      </trkpt>
      <trkpt lat="42.40907" lon="2.696">
        <ele>1080.1</ele>
        <time>2018-11-26T04:20:00Z</time>
      </trkpt>
      <trkpt lat="42.40907" lon="2.696">
        <ele>1080</ele>
        <time>2018-11-26T04:20:00Z</time>
      </trkpt>
      <trkpt lat="42.40907" lon="2.696">
        <ele>1079.9</ele>
        <time>2018-11-26T04:20:00Z</time>
      </trkpt>
      <trkpt lat="42.40907" lon="2.696">
        <ele>1080</ele>
        <time>2018-11-26T04:20:00Z</time>
      </trkpt>
      <trkpt lat="42.40907" lon="2.696">
        <ele>1079.9</ele>
        <time>2018-11-26T04:20:00Z</time>
      </trkpt>
      <trkpt lat="42.40907" lon="2.696">
        <ele>1080</ele>
        <time>2018-11-26T04:20:00Z</time>
      </trkpt>
      <trkpt lat="42.40907" lon="2.696">
        <ele>1080.2</ele>
        <time>2018-11-26T04:20:00Z</time>
      </trkpt>
      <trkpt lat="42.40907" lon="2.696">
        <ele>1080.2</ele>
        <time>2018-11-26T04:20:00Z</time>
      </trkpt>
      <trkpt lat="42.40907" lon="2.696">
        <ele>1080.2</ele>
        <time>2018-11-26T04:20:00Z</time>
      </trkpt>
      <trkpt lat="42.40907" lon="2.696">
        <ele>1080.3</ele>
        <time>2018-11-26T04:20:00Z</time>
      </trkpt>
      <trkpt lat="42.40907" lon="2.69599">
        <ele>1080.4</ele>
        <time>2018-11-26T04:20:00Z</time>
      </trkpt>
      <trkpt lat="42.40907" lon="2.696">
        <ele>1080.5</ele>
        <time>2018-11-26T04:20:00Z</time>
      </trkpt>
      <trkpt lat="42.40907" lon="2.696">
        <ele>1080.7</ele>
        <time>2018-11-26T04:20:00Z</time>
      </trkpt>
      <trkpt lat="42.40907" lon="2.696">
        <ele>1080.9</ele>
        <time>2018-11-26T04:20:00Z</time>
      </trkpt>
      <trkpt lat="42.40907" lon="2.696">
        <ele>1081.3</ele>
        <time>2018-11-26T04:20:00Z</time>
      </trkpt>
      <trkpt lat="42.40907" lon="2.696">
        <ele>1081.6</ele>
        <time>2018-11-26T04:20:00Z</time>
      </trkpt>
      <trkpt lat="42.40906" lon="2.69601">
        <ele>1081.3</ele>
        <time>2018-11-26T04:20:01Z</time>
      </trkpt>
      <trkpt lat="42.40906" lon="2.69601">
        <ele>1081.1</ele>
        <time>2018-11-26T04:20:01Z</time>
      </trkpt>
      <trkpt lat="42.40906" lon="2.69601">
        <ele>1080.9</ele>
        <time>2018-11-26T04:20:01Z</time>
      </trkpt>
      <trkpt lat="42.40906" lon="2.69601">
        <ele>1081</ele>
        <time>2018-11-26T04:20:01Z</time>
      </trkpt>
      <trkpt lat="42.40906" lon="2.69601">
        <ele>1081.2</ele>
        <time>2018-11-26T04:20:01Z</time>
      </trkpt>
      <trkpt lat="42.40906" lon="2.69601">
        <ele>1081.5</ele>
        <time>2018-11-26T04:20:01Z</time>
      </trkpt>
      <trkpt lat="42.40906" lon="2.69601">
        <ele>1081.3</ele>
        <time>2018-11-26T04:20:01Z</time>
      </trkpt>
      <trkpt lat="42.40906" lon="2.69601">
        <ele>1081.1</ele>
        <time>2018-11-26T04:20:01Z</time>
      </trkpt>
      <trkpt lat="42.40906" lon="2.696">
        <ele>1080.9</ele>
        <time>2018-11-26T04:20:01Z</time>
      </trkpt>
      <trkpt lat="42.40906" lon="2.696">
        <ele>1080.6</ele>
        <time>2018-11-26T04:20:01Z</time>
      </trkpt>
      <trkpt lat="42.40906" lon="2.696">
        <ele>1080.6</ele>
        <time>2018-11-26T04:20:01Z</time>
      </trkpt>
      <trkpt lat="42.40906" lon="2.696">
        <ele>1080.8</ele>
        <time>2018-11-26T04:20:01Z</time>
      </trkpt>
      <trkpt lat="42.40906" lon="2.696">
        <ele>1080.9</ele>
        <time>2018-11-26T04:20:01Z</time>
      </trkpt>
      <trkpt lat="42.40906" lon="2.696">
        <ele>1080.9</ele>
        <time>2018-11-26T04:20:01Z</time>
      </trkpt>
      <trkpt lat="42.40906" lon="2.696">
        <ele>1080.9</ele>
        <time>2018-11-26T04:20:01Z</time>
      </trkpt>
      <trkpt lat="42.40906" lon="2.696">
        <ele>1081.1</ele>
        <time>2018-11-26T04:20:01Z</time>
      </trkpt>
      <trkpt lat="42.40907" lon="2.696">
        <ele>1081</ele>
        <time>2018-11-26T04:20:01Z</time>
      </trkpt>
      <trkpt lat="42.40907" lon="2.696">
        <ele>1080.8</ele>
        <time>2018-11-26T04:20:01Z</time>
      </trkpt>
      <trkpt lat="42.40907" lon="2.696">
        <ele>1080.6</ele>
        <time>2018-11-26T04:20:01Z</time>
      </trkpt>
      <trkpt lat="42.40907" lon="2.696">
        <ele>1080.7</ele>
        <time>2018-11-26T04:20:01Z</time>
      </trkpt>
      <trkpt lat="42.40907" lon="2.696">
        <ele>1080.6</ele>
        <time>2018-11-26T04:20:01Z</time>
      </trkpt>
      <trkpt lat="42.40907" lon="2.696">
        <ele>1080.5</ele>
        <time>2018-11-26T04:20:01Z</time>
      </trkpt>
      <trkpt lat="42.40907" lon="2.696">
        <ele>1080.6</ele>
        <time>2018-11-26T04:20:01Z</time>
      </trkpt>
      <trkpt lat="42.40907" lon="2.696">
        <ele>1080.7</ele>
        <time>2018-11-26T04:20:01Z</time>
      </trkpt>
      <trkpt lat="42.40907" lon="2.696">
        <ele>1081</ele>
        <time>2018-11-26T04:20:01Z</time>
      </trkpt>
      <trkpt lat="42.40907" lon="2.696">
        <ele>1081.3</ele>
        <time>2018-11-26T04:20:01Z</time>
      </trkpt>
      <trkpt lat="42.40907" lon="2.696">
        <ele>1081.1</ele>
        <time>2018-11-26T04:20:01Z</time>
      </trkpt>
      <trkpt lat="42.40907" lon="2.696">
        <ele>1080.8</ele>
        <time>2018-11-26T04:20:01Z</time>
      </trkpt>
      <trkpt lat="42.40907" lon="2.696">
        <ele>1080.3</ele>
        <time>2018-11-26T04:20:01Z</time>
      </trkpt>
      <trkpt lat="42.40907" lon="2.696">
        <ele>1080.1</ele>
        <time>2018-11-26T04:20:01Z</time>
      </trkpt>
      <trkpt lat="42.40907" lon="2.696">
        <ele>1079.8</ele>
        <time>2018-11-26T04:20:01Z</time>
      </trkpt>
      <trkpt lat="42.40907" lon="2.696">
        <ele>1079.2</ele>
        <time>2018-11-26T04:20:01Z</time>
      </trkpt>
      <trkpt lat="42.40907" lon="2.696">
        <ele>1079.4</ele>
        <time>2018-11-26T04:20:01Z</time>
      </trkpt>
      <trkpt lat="42.40907" lon="2.696">
        <ele>1079.8</ele>
        <time>2018-11-26T04:20:01Z</time>
      </trkpt>
      <trkpt lat="42.40907" lon="2.696">
        <ele>1080.2</ele>
        <time>2018-11-26T04:20:01Z</time>
      </trkpt>
      <trkpt lat="42.40907" lon="2.696">
        <ele>1080.4</ele>
        <time>2018-11-26T04:20:01Z</time>
      </trkpt>
      <trkpt lat="42.40907" lon="2.696">
        <ele>1080.3</ele>
        <time>2018-11-26T04:20:01Z</time>
      </trkpt>
      <trkpt lat="42.40907" lon="2.696">
        <ele>1080.4</ele>
        <time>2018-11-26T04:20:01Z</time>
      </trkpt>
      <trkpt lat="42.40907" lon="2.696">
        <ele>1080.7</ele>
        <time>2018-11-26T04:20:01Z</time>
      </trkpt>
      <trkpt lat="42.40907" lon="2.696">
        <ele>1081.2</ele>
        <time>2018-11-26T04:20:01Z</time>
      </trkpt>
      <trkpt lat="42.40907" lon="2.696">
        <ele>1081.6</ele>
        <time>2018-11-26T04:20:01Z</time>
      </trkpt>
      <trkpt lat="42.40907" lon="2.696">
        <ele>1081.5</ele>
        <time>2018-11-26T04:20:01Z</time>
      </trkpt>
      <trkpt lat="42.40907" lon="2.69599">
        <ele>1081.1</ele>
        <time>2018-11-26T04:20:01Z</time>
      </trkpt>
      <trkpt lat="42.40907" lon="2.69599">
        <ele>1080.8</ele>
        <time>2018-11-26T04:20:01Z</time>
      </trkpt>
      <trkpt lat="42.40907" lon="2.69599">
        <ele>1080.4</ele>
        <time>2018-11-26T04:20:01Z</time>
      </trkpt>
      <trkpt lat="42.40907" lon="2.69599">
        <ele>1080.6</ele>
        <time>2018-11-26T04:20:01Z</time>
      </trkpt>
      <trkpt lat="42.40907" lon="2.69599">
        <ele>1080.6</ele>
        <time>2018-11-26T04:20:02Z</time>
      </trkpt>
      <trkpt lat="42.40908" lon="2.69599">
        <ele>1080.8</ele>
        <time>2018-11-26T04:20:02Z</time>
      </trkpt>
      <trkpt lat="42.40908" lon="2.69599">
        <ele>1080.7</ele>
        <time>2018-11-26T04:20:02Z</time>
      </trkpt>
      <trkpt lat="42.40908" lon="2.69599">
        <ele>1080.6</ele>
        <time>2018-11-26T04:20:02Z</time>
      </trkpt>
      <trkpt lat="42.40908" lon="2.69599">
        <ele>1080.4</ele>
        <time>2018-11-26T04:20:02Z</time>
      </trkpt>
      <trkpt lat="42.40908" lon="2.69598">
        <ele>1080.7</ele>
        <time>2018-11-26T04:20:02Z</time>
      </trkpt>
      <trkpt lat="42.40908" lon="2.69598">
        <ele>1080.9</ele>
        <time>2018-11-26T04:20:02Z</time>
      </trkpt>
      <trkpt lat="42.40908" lon="2.69598">
        <ele>1081.3</ele>
        <time>2018-11-26T04:20:02Z</time>
      </trkpt>
      <trkpt lat="42.40908" lon="2.69598">
        <ele>1081</ele>
        <time>2018-11-26T04:20:02Z</time>
      </trkpt>
      <trkpt lat="42.40908" lon="2.69598">
        <ele>1080.5</ele>
        <time>2018-11-26T04:20:02Z</time>
      </trkpt>
      <trkpt lat="42.40908" lon="2.69598">
        <ele>1080</ele>
        <time>2018-11-26T04:20:02Z</time>
      </trkpt>
      <trkpt lat="42.40908" lon="2.69598">
        <ele>1080.1</ele>
        <time>2018-11-26T04:20:02Z</time>
      </trkpt>
      <trkpt lat="42.40908" lon="2.69598">
        <ele>1080.3</ele>
        <time>2018-11-26T04:20:02Z</time>
      </trkpt>
      <trkpt lat="42.40908" lon="2.69599">
        <ele>1080.5</ele>
        <time>2018-11-26T04:20:02Z</time>
      </trkpt>
      <trkpt lat="42.40908" lon="2.69599">
        <ele>1080.5</ele>
        <time>2018-11-26T04:20:02Z</time>
      </trkpt>
      <trkpt lat="42.40908" lon="2.69599">
        <ele>1080.4</ele>
        <time>2018-11-26T04:20:02Z</time>
      </trkpt>
      <trkpt lat="42.40908" lon="2.69599">
        <ele>1080.1</ele>
        <time>2018-11-26T04:20:02Z</time>
      </trkpt>
      <trkpt lat="42.40908" lon="2.69599">
        <ele>1079.9</ele>
        <time>2018-11-26T04:20:02Z</time>
      </trkpt>
      <trkpt lat="42.40908" lon="2.69599">
        <ele>1080</ele>
        <time>2018-11-26T04:20:02Z</time>
      </trkpt>
      <trkpt lat="42.40908" lon="2.69599">
        <ele>1080</ele>
        <time>2018-11-26T04:20:02Z</time>
      </trkpt>
      <trkpt lat="42.40908" lon="2.69599">
        <ele>1080</ele>
        <time>2018-11-26T04:20:02Z</time>
      </trkpt>
      <trkpt lat="42.40908" lon="2.69599">
        <ele>1080.3</ele>
        <time>2018-11-26T04:20:02Z</time>
      </trkpt>
      <trkpt lat="42.40908" lon="2.69598">
        <ele>1080.6</ele>
        <time>2018-11-26T04:20:02Z</time>
      </trkpt>
      <trkpt lat="42.40908" lon="2.69598">
        <ele>1081.2</ele>
        <time>2018-11-26T04:20:02Z</time>
      </trkpt>
      <trkpt lat="42.40908" lon="2.69598">
        <ele>1081</ele>
        <time>2018-11-26T04:20:02Z</time>
      </trkpt>
      <trkpt lat="42.40908" lon="2.69598">
        <ele>1080.8</ele>
        <time>2018-11-26T04:20:02Z</time>
      </trkpt>
      <trkpt lat="42.40908" lon="2.69598">
        <ele>1080.6</ele>
        <time>2018-11-26T04:20:02Z</time>
      </trkpt>
      <trkpt lat="42.40908" lon="2.69598">
        <ele>1080.3</ele>
        <time>2018-11-26T04:20:02Z</time>
      </trkpt>
      <trkpt lat="42.40908" lon="2.69598">
        <ele>1080.1</ele>
        <time>2018-11-26T04:20:02Z</time>
      </trkpt>
      <trkpt lat="42.40908" lon="2.69598">
        <ele>1079.6</ele>
        <time>2018-11-26T04:20:02Z</time>
      </trkpt>
      <trkpt lat="42.40908" lon="2.69598">
        <ele>1079.8</ele>
        <time>2018-11-26T04:20:02Z</time>
      </trkpt>
      <trkpt lat="42.40908" lon="2.69598">
        <ele>1080.1</ele>
        <time>2018-11-26T04:20:02Z</time>
      </trkpt>
      <trkpt lat="42.40908" lon="2.69598">
        <ele>1080.4</ele>
        <time>2018-11-26T04:20:02Z</time>
      </trkpt>
      <trkpt lat="42.40908" lon="2.69598">
        <ele>1080.5</ele>
        <time>2018-11-26T04:20:02Z</time>
      </trkpt>
      <trkpt lat="42.40908" lon="2.69598">
        <ele>1080.4</ele>
        <time>2018-11-26T04:20:02Z</time>
      </trkpt>
      <trkpt lat="42.40908" lon="2.69598">
        <ele>1080.6</ele>
        <time>2018-11-26T04:20:02Z</time>
      </trkpt>
      <trkpt lat="42.40908" lon="2.69598">
        <ele>1080.6</ele>
        <time>2018-11-26T04:20:02Z</time>
      </trkpt>
      <trkpt lat="42.40908" lon="2.69598">
        <ele>1080.5</ele>
        <time>2018-11-26T04:20:02Z</time>
      </trkpt>
      <trkpt lat="42.40908" lon="2.69598">
        <ele>1080.5</ele>
        <time>2018-11-26T04:20:02Z</time>
      </trkpt>
      <trkpt lat="42.40908" lon="2.69598">
        <ele>1080.5</ele>
        <time>2018-11-26T04:20:02Z</time>
      </trkpt>
      <trkpt lat="42.40908" lon="2.69598">
        <ele>1080.7</ele>
        <time>2018-11-26T04:20:02Z</time>
      </trkpt>
      <trkpt lat="42.40908" lon="2.69598">
        <ele>1080.9</ele>
        <time>2018-11-26T04:20:02Z</time>
      </trkpt>
      <trkpt lat="42.40908" lon="2.69598">
        <ele>1081.1</ele>
        <time>2018-11-26T04:20:02Z</time>
      </trkpt>
      <trkpt lat="42.40908" lon="2.69598">
        <ele>1081.2</ele>
        <time>2018-11-26T04:20:02Z</time>
      </trkpt>
      <trkpt lat="42.40908" lon="2.69598">
        <ele>1081.3</ele>
        <time>2018-11-26T04:20:02Z</time>
      </trkpt>
      <trkpt lat="42.40908" lon="2.69598">
        <ele>1081.6</ele>
        <time>2018-11-26T04:20:02Z</time>
      </trkpt>
      <trkpt lat="42.40908" lon="2.69598">
        <ele>1081.5</ele>
        <time>2018-11-26T04:20:02Z</time>
      </trkpt>
      <trkpt lat="42.40908" lon="2.69597">
        <ele>1081.5</ele>
        <time>2018-11-26T04:20:02Z</time>
      </trkpt>
      <trkpt lat="42.40908" lon="2.69597">
        <ele>1081.6</ele>
        <time>2018-11-26T04:20:02Z</time>
      </trkpt>
      <trkpt lat="42.40908" lon="2.69597">
        <ele>1081.7</ele>
        <time>2018-11-26T04:20:02Z</time>
      </trkpt>
      <trkpt lat="42.40908" lon="2.69597">
        <ele>1081.6</ele>
        <time>2018-11-26T04:20:03Z</time>
      </trkpt>
      <trkpt lat="42.40908" lon="2.69597">
        <ele>1081.7</ele>
        <time>2018-11-26T04:20:03Z</time>
      </trkpt>
      <trkpt lat="42.40908" lon="2.69597">
        <ele>1081.6</ele>
        <time>2018-11-26T04:20:03Z</time>
      </trkpt>
      <trkpt lat="42.40908" lon="2.69597">
        <ele>1081.6</ele>
        <time>2018-11-26T04:20:03Z</time>
      </trkpt>
      <trkpt lat="42.40908" lon="2.69597">
        <ele>1081.4</ele>
        <time>2018-11-26T04:20:03Z</time>
      </trkpt>
      <trkpt lat="42.40908" lon="2.69597">
        <ele>1081.4</ele>
        <time>2018-11-26T04:20:03Z</time>
      </trkpt>
      <trkpt lat="42.40908" lon="2.69597">
        <ele>1081.1</ele>
        <time>2018-11-26T04:20:03Z</time>
      </trkpt>
      <trkpt lat="42.40908" lon="2.69597">
        <ele>1080.9</ele>
        <time>2018-11-26T04:20:03Z</time>
      </trkpt>
      <trkpt lat="42.40908" lon="2.69597">
        <ele>1080.5</ele>
        <time>2018-11-26T04:20:03Z</time>
      </trkpt>
      <trkpt lat="42.40908" lon="2.69597">
        <ele>1080.5</ele>
        <time>2018-11-26T04:20:03Z</time>
      </trkpt>
      <trkpt lat="42.40908" lon="2.69597">
        <ele>1080.6</ele>
        <time>2018-11-26T04:20:03Z</time>
      </trkpt>
      <trkpt lat="42.40908" lon="2.69597">
        <ele>1080.5</ele>
        <time>2018-11-26T04:20:03Z</time>
      </trkpt>
      <trkpt lat="42.40908" lon="2.69597">
        <ele>1080.5</ele>
        <time>2018-11-26T04:20:03Z</time>
      </trkpt>
      <trkpt lat="42.40908" lon="2.69597">
        <ele>1080.6</ele>
        <time>2018-11-26T04:20:03Z</time>
      </trkpt>
      <trkpt lat="42.40908" lon="2.69597">
        <ele>1080.5</ele>
        <time>2018-11-26T04:20:03Z</time>
      </trkpt>
      <trkpt lat="42.40908" lon="2.69597">
        <ele>1080.7</ele>
        <time>2018-11-26T04:20:03Z</time>
      </trkpt>
      <trkpt lat="42.40908" lon="2.69597">
        <ele>1081</ele>
        <time>2018-11-26T04:20:03Z</time>
      </trkpt>
      <trkpt lat="42.40908" lon="2.69597">
        <ele>1081.4</ele>
        <time>2018-11-26T04:20:03Z</time>
      </trkpt>
      <trkpt lat="42.40908" lon="2.69598">
        <ele>1081.4</ele>
        <time>2018-11-26T04:20:03Z</time>
      </trkpt>
      <trkpt lat="42.40908" lon="2.69598">
        <ele>1081.3</ele>
        <time>2018-11-26T04:20:03Z</time>
      </trkpt>
      <trkpt lat="42.40908" lon="2.69598">
        <ele>1081.2</ele>
        <time>2018-11-26T04:20:03Z</time>
      </trkpt>
      <trkpt lat="42.40908" lon="2.69598">
        <ele>1080.9</ele>
        <time>2018-11-26T04:20:03Z</time>
      </trkpt>
      <trkpt lat="42.40908" lon="2.69598">
        <ele>1081</ele>
        <time>2018-11-26T04:20:03Z</time>
      </trkpt>
      <trkpt lat="42.40908" lon="2.69598">
        <ele>1081.2</ele>
        <time>2018-11-26T04:20:03Z</time>
      </trkpt>
      <trkpt lat="42.40908" lon="2.69598">
        <ele>1081.4</ele>
        <time>2018-11-26T04:20:03Z</time>
      </trkpt>
      <trkpt lat="42.40908" lon="2.69598">
        <ele>1081.5</ele>
        <time>2018-11-26T04:20:03Z</time>
      </trkpt>
      <trkpt lat="42.40908" lon="2.69598">
        <ele>1081.4</ele>
        <time>2018-11-26T04:20:03Z</time>
      </trkpt>
      <trkpt lat="42.40908" lon="2.69598">
        <ele>1081.4</ele>
        <time>2018-11-26T04:20:03Z</time>
      </trkpt>
      <trkpt lat="42.40908" lon="2.69598">
        <ele>1081.2</ele>
        <time>2018-11-26T04:20:03Z</time>
      </trkpt>
      <trkpt lat="42.40908" lon="2.69598">
        <ele>1081.2</ele>
        <time>2018-11-26T04:20:03Z</time>
      </trkpt>
      <trkpt lat="42.40908" lon="2.69598">
        <ele>1080.9</ele>
        <time>2018-11-26T04:20:03Z</time>
      </trkpt>
      <trkpt lat="42.40908" lon="2.69598">
        <ele>1080.9</ele>
        <time>2018-11-26T04:20:03Z</time>
      </trkpt>
      <trkpt lat="42.40908" lon="2.69598">
        <ele>1080.9</ele>
        <time>2018-11-26T04:20:03Z</time>
      </trkpt>
      <trkpt lat="42.40908" lon="2.69598">
        <ele>1080.9</ele>
        <time>2018-11-26T04:20:03Z</time>
      </trkpt>
      <trkpt lat="42.40908" lon="2.69598">
        <ele>1081.1</ele>
        <time>2018-11-26T04:20:03Z</time>
      </trkpt>
      <trkpt lat="42.40908" lon="2.69598">
        <ele>1081.2</ele>
        <time>2018-11-26T04:20:03Z</time>
      </trkpt>
      <trkpt lat="42.40908" lon="2.69598">
        <ele>1081.5</ele>
        <time>2018-11-26T04:20:03Z</time>
      </trkpt>
      <trkpt lat="42.40908" lon="2.69598">
        <ele>1081.6</ele>
        <time>2018-11-26T04:20:03Z</time>
      </trkpt>
      <trkpt lat="42.40907" lon="2.69598">
        <ele>1081.6</ele>
        <time>2018-11-26T04:20:03Z</time>
      </trkpt>
      <trkpt lat="42.40907" lon="2.69598">
        <ele>1081.7</ele>
        <time>2018-11-26T04:20:03Z</time>
      </trkpt>
      <trkpt lat="42.40907" lon="2.69598">
        <ele>1081.8</ele>
        <time>2018-11-26T04:20:03Z</time>
      </trkpt>
      <trkpt lat="42.40907" lon="2.69598">
        <ele>1081.8</ele>
        <time>2018-11-26T04:20:03Z</time>
      </trkpt>
      <trkpt lat="42.40907" lon="2.69598">
        <ele>1082</ele>
        <time>2018-11-26T04:20:03Z</time>
      </trkpt>
      <trkpt lat="42.40908" lon="2.69598">
        <ele>1082.1</ele>
        <time>2018-11-26T04:20:03Z</time>
      </trkpt>
      <trkpt lat="42.40908" lon="2.69598">
        <ele>1081.8</ele>
        <time>2018-11-26T04:20:03Z</time>
      </trkpt>
      <trkpt lat="42.40907" lon="2.69598">
        <ele>1081.5</ele>
        <time>2018-11-26T04:20:03Z</time>
      </trkpt>
      <trkpt lat="42.40907" lon="2.69598">
        <ele>1081</ele>
        <time>2018-11-26T04:20:03Z</time>
      </trkpt>
      <trkpt lat="42.40907" lon="2.69598">
        <ele>1081</ele>
        <time>2018-11-26T04:20:03Z</time>
      </trkpt>
      <trkpt lat="42.40907" lon="2.69598">
        <ele>1081</ele>
        <time>2018-11-26T04:20:03Z</time>
      </trkpt>
      <trkpt lat="42.40907" lon="2.69599">
        <ele>1080.9</ele>
        <time>2018-11-26T04:20:03Z</time>
      </trkpt>
      <trkpt lat="42.40907" lon="2.69599">
        <ele>1081.1</ele>
        <time>2018-11-26T04:20:03Z</time>
      </trkpt>
      <trkpt lat="42.40907" lon="2.69599">
        <ele>1081.2</ele>
        <time>2018-11-26T04:20:03Z</time>
      </trkpt>
      <trkpt lat="42.40907" lon="2.69599">
        <ele>1081.2</ele>
        <time>2018-11-26T04:20:03Z</time>
      </trkpt>
      <trkpt lat="42.40907" lon="2.69599">
        <ele>1081.3</ele>
        <time>2018-11-26T04:20:03Z</time>
      </trkpt>
      <trkpt lat="42.40907" lon="2.69599">
        <ele>1081.7</ele>
        <time>2018-11-26T04:20:03Z</time>
      </trkpt>
      <trkpt lat="42.40907" lon="2.69599">
        <ele>1082</ele>
        <time>2018-11-26T04:20:03Z</time>
      </trkpt>
      <trkpt lat="42.40907" lon="2.69599">
        <ele>1081.8</ele>
        <time>2018-11-26T04:20:03Z</time>
      </trkpt>
      <trkpt lat="42.40907" lon="2.69599">
        <ele>1081.6</ele>
        <time>2018-11-26T04:20:03Z</time>
      </trkpt>
      <trkpt lat="42.40907" lon="2.69599">
        <ele>1081.4</ele>
        <time>2018-11-26T04:20:03Z</time>
      </trkpt>
      <trkpt lat="42.40907" lon="2.69599">
        <ele>1081.2</ele>
        <time>2018-11-26T04:20:03Z</time>
      </trkpt>
      <trkpt lat="42.40907" lon="2.69599">
        <ele>1081.1</ele>
        <time>2018-11-26T04:20:03Z</time>
      </trkpt>
      <trkpt lat="42.40907" lon="2.69599">
        <ele>1080.9</ele>
        <time>2018-11-26T04:20:03Z</time>
      </trkpt>
      <trkpt lat="42.40907" lon="2.69599">
        <ele>1080.8</ele>
        <time>2018-11-26T04:20:03Z</time>
      </trkpt>
      <trkpt lat="42.40907" lon="2.69599">
        <ele>1080.8</ele>
        <time>2018-11-26T04:20:03Z</time>
      </trkpt>
      <trkpt lat="42.40907" lon="2.69599">
        <ele>1080.9</ele>
        <time>2018-11-26T04:20:03Z</time>
      </trkpt>
      <trkpt lat="42.40907" lon="2.69599">
        <ele>1080.8</ele>
        <time>2018-11-26T04:20:03Z</time>
      </trkpt>
      <trkpt lat="42.40907" lon="2.69599">
        <ele>1080.8</ele>
        <time>2018-11-26T04:20:03Z</time>
      </trkpt>
      <trkpt lat="42.40907" lon="2.69599">
        <ele>1080.8</ele>
        <time>2018-11-26T04:20:03Z</time>
      </trkpt>
      <trkpt lat="42.40907" lon="2.69599">
        <ele>1080.8</ele>
        <time>2018-11-26T04:20:03Z</time>
      </trkpt>
      <trkpt lat="42.40907" lon="2.69599">
        <ele>1080.7</ele>
        <time>2018-11-26T04:20:03Z</time>
      </trkpt>
      <trkpt lat="42.40907" lon="2.69599">
        <ele>1080.6</ele>
        <time>2018-11-26T04:20:03Z</time>
      </trkpt>
      <trkpt lat="42.40907" lon="2.69599">
        <ele>1080.4</ele>
        <time>2018-11-26T04:20:03Z</time>
      </trkpt>
      <trkpt lat="42.40907" lon="2.69599">
        <ele>1080.5</ele>
        <time>2018-11-26T04:20:04Z</time>
      </trkpt>
      <trkpt lat="42.40907" lon="2.69599">
        <ele>1080.4</ele>
        <time>2018-11-26T04:20:04Z</time>
      </trkpt>
      <trkpt lat="42.40907" lon="2.69598">
        <ele>1080.4</ele>
        <time>2018-11-26T04:20:04Z</time>
      </trkpt>
      <trkpt lat="42.40907" lon="2.69598">
        <ele>1080.4</ele>
        <time>2018-11-26T04:20:04Z</time>
      </trkpt>
      <trkpt lat="42.40907" lon="2.69598">
        <ele>1080.6</ele>
        <time>2018-11-26T04:20:04Z</time>
      </trkpt>
      <trkpt lat="42.40908" lon="2.69598">
        <ele>1080.9</ele>
        <time>2018-11-26T04:20:04Z</time>
      </trkpt>
      <trkpt lat="42.40907" lon="2.69598">
        <ele>1081.3</ele>
        <time>2018-11-26T04:20:04Z</time>
      </trkpt>
      <trkpt lat="42.40907" lon="2.69598">
        <ele>1081.4</ele>
        <time>2018-11-26T04:20:04Z</time>
      </trkpt>
      <trkpt lat="42.40907" lon="2.69598">
        <ele>1081.4</ele>
        <time>2018-11-26T04:20:04Z</time>
      </trkpt>
      <trkpt lat="42.40907" lon="2.69598">
        <ele>1081.3</ele>
        <time>2018-11-26T04:20:04Z</time>
      </trkpt>
      <trkpt lat="42.40907" lon="2.69598">
        <ele>1081.2</ele>
        <time>2018-11-26T04:20:04Z</time>
      </trkpt>
      <trkpt lat="42.40907" lon="2.69598">
        <ele>1081.1</ele>
        <time>2018-11-26T04:20:04Z</time>
      </trkpt>
      <trkpt lat="42.40907" lon="2.69598">
        <ele>1081</ele>
        <time>2018-11-26T04:20:04Z</time>
      </trkpt>
      <trkpt lat="42.40907" lon="2.69598">
        <ele>1080.9</ele>
        <time>2018-11-26T04:20:04Z</time>
      </trkpt>
      <trkpt lat="42.40907" lon="2.69598">
        <ele>1080.6</ele>
        <time>2018-11-26T04:20:04Z</time>
      </trkpt>
      <trkpt lat="42.40907" lon="2.69598">
        <ele>1080.4</ele>
        <time>2018-11-26T04:20:04Z</time>
      </trkpt>
      <trkpt lat="42.40907" lon="2.69598">
        <ele>1080.6</ele>
        <time>2018-11-26T04:20:04Z</time>
      </trkpt>
      <trkpt lat="42.40907" lon="2.69598">
        <ele>1080.6</ele>
        <time>2018-11-26T04:20:04Z</time>
      </trkpt>
      <trkpt lat="42.40907" lon="2.69598">
        <ele>1080.5</ele>
        <time>2018-11-26T04:20:04Z</time>
      </trkpt>
      <trkpt lat="42.40907" lon="2.69598">
        <ele>1080.6</ele>
        <time>2018-11-26T04:20:04Z</time>
      </trkpt>
      <trkpt lat="42.40907" lon="2.69598">
        <ele>1080.8</ele>
        <time>2018-11-26T04:20:04Z</time>
      </trkpt>
      <trkpt lat="42.40907" lon="2.69598">
        <ele>1081</ele>
        <time>2018-11-26T04:20:04Z</time>
      </trkpt>
      <trkpt lat="42.40907" lon="2.69598">
        <ele>1081.3</ele>
        <time>2018-11-26T04:20:04Z</time>
      </trkpt>
      <trkpt lat="42.40907" lon="2.69598">
        <ele>1081.1</ele>
        <time>2018-11-26T04:20:04Z</time>
      </trkpt>
      <trkpt lat="42.40907" lon="2.69598">
        <ele>1081</ele>
        <time>2018-11-26T04:20:04Z</time>
      </trkpt>
      <trkpt lat="42.40907" lon="2.69598">
        <ele>1080.9</ele>
        <time>2018-11-26T04:20:04Z</time>
      </trkpt>
      <trkpt lat="42.40907" lon="2.69598">
        <ele>1080.8</ele>
        <time>2018-11-26T04:20:04Z</time>
      </trkpt>
      <trkpt lat="42.40907" lon="2.69598">
        <ele>1080.8</ele>
        <time>2018-11-26T04:20:04Z</time>
      </trkpt>
      <trkpt lat="42.40907" lon="2.69598">
        <ele>1080.7</ele>
        <time>2018-11-26T04:20:04Z</time>
      </trkpt>
      <trkpt lat="42.40907" lon="2.69598">
        <ele>1080.6</ele>
        <time>2018-11-26T04:20:04Z</time>
      </trkpt>
      <trkpt lat="42.40907" lon="2.69598">
        <ele>1080.5</ele>
        <time>2018-11-26T04:20:04Z</time>
      </trkpt>
      <trkpt lat="42.40907" lon="2.69597">
        <ele>1080.6</ele>
        <time>2018-11-26T04:20:04Z</time>
      </trkpt>
      <trkpt lat="42.40907" lon="2.69597">
        <ele>1080.6</ele>
        <time>2018-11-26T04:20:04Z</time>
      </trkpt>
      <trkpt lat="42.40907" lon="2.69597">
        <ele>1080.7</ele>
        <time>2018-11-26T04:20:04Z</time>
      </trkpt>
      <trkpt lat="42.40907" lon="2.69598">
        <ele>1080.7</ele>
        <time>2018-11-26T04:20:04Z</time>
      </trkpt>
      <trkpt lat="42.40907" lon="2.69598">
        <ele>1080.9</ele>
        <time>2018-11-26T04:20:04Z</time>
      </trkpt>
      <trkpt lat="42.40907" lon="2.69598">
        <ele>1081.1</ele>
        <time>2018-11-26T04:20:04Z</time>
      </trkpt>
      <trkpt lat="42.40907" lon="2.69598">
        <ele>1081.6</ele>
        <time>2018-11-26T04:20:04Z</time>
      </trkpt>
      <trkpt lat="42.40907" lon="2.69597">
        <ele>1081.6</ele>
        <time>2018-11-26T04:20:05Z</time>
      </trkpt>
      <trkpt lat="42.40907" lon="2.69597">
        <ele>1081.6</ele>
        <time>2018-11-26T04:20:05Z</time>
      </trkpt>
      <trkpt lat="42.40907" lon="2.69597">
        <ele>1081.5</ele>
        <time>2018-11-26T04:20:05Z</time>
      </trkpt>
      <trkpt lat="42.40907" lon="2.69597">
        <ele>1081.6</ele>
        <time>2018-11-26T04:20:05Z</time>
      </trkpt>
      <trkpt lat="42.40907" lon="2.69597">
        <ele>1081.5</ele>
        <time>2018-11-26T04:20:05Z</time>
      </trkpt>
      <trkpt lat="42.40907" lon="2.69597">
        <ele>1081.4</ele>
        <time>2018-11-26T04:20:05Z</time>
      </trkpt>
      <trkpt lat="42.40907" lon="2.69597">
        <ele>1081.1</ele>
        <time>2018-11-26T04:20:05Z</time>
      </trkpt>
      <trkpt lat="42.40907" lon="2.69597">
        <ele>1080.9</ele>
        <time>2018-11-26T04:20:05Z</time>
      </trkpt>
      <trkpt lat="42.40907" lon="2.69597">
        <ele>1080.7</ele>
        <time>2018-11-26T04:20:05Z</time>
      </trkpt>
      <trkpt lat="42.40907" lon="2.69597">
        <ele>1080.3</ele>
        <time>2018-11-26T04:20:05Z</time>
      </trkpt>
      <trkpt lat="42.40907" lon="2.69597">
        <ele>1080.8</ele>
        <time>2018-11-26T04:20:05Z</time>
      </trkpt>
      <trkpt lat="42.40907" lon="2.69597">
        <ele>1081.3</ele>
        <time>2018-11-26T04:20:05Z</time>
      </trkpt>
      <trkpt lat="42.40907" lon="2.69597">
        <ele>1081.9</ele>
        <time>2018-11-26T04:20:05Z</time>
      </trkpt>
      <trkpt lat="42.40907" lon="2.69597">
        <ele>1081.6</ele>
        <time>2018-11-26T04:20:05Z</time>
      </trkpt>
      <trkpt lat="42.40907" lon="2.69597">
        <ele>1081</ele>
        <time>2018-11-26T04:20:05Z</time>
      </trkpt>
      <trkpt lat="42.40907" lon="2.69597">
        <ele>1080.4</ele>
        <time>2018-11-26T04:20:05Z</time>
      </trkpt>
      <trkpt lat="42.40907" lon="2.69597">
        <ele>1080.6</ele>
        <time>2018-11-26T04:20:05Z</time>
      </trkpt>
      <trkpt lat="42.40907" lon="2.69597">
        <ele>1080.8</ele>
        <time>2018-11-26T04:20:05Z</time>
      </trkpt>
      <trkpt lat="42.40907" lon="2.69597">
        <ele>1081.2</ele>
        <time>2018-11-26T04:20:05Z</time>
      </trkpt>
      <trkpt lat="42.40907" lon="2.69597">
        <ele>1081.3</ele>
        <time>2018-11-26T04:20:05Z</time>
      </trkpt>
      <trkpt lat="42.40907" lon="2.69596">
        <ele>1081.3</ele>
        <time>2018-11-26T04:20:05Z</time>
      </trkpt>
      <trkpt lat="42.40907" lon="2.69596">
        <ele>1081.3</ele>
        <time>2018-11-26T04:20:05Z</time>
      </trkpt>
      <trkpt lat="42.40907" lon="2.69596">
        <ele>1081.3</ele>
        <time>2018-11-26T04:20:05Z</time>
      </trkpt>
      <trkpt lat="42.40907" lon="2.69596">
        <ele>1081.2</ele>
        <time>2018-11-26T04:20:05Z</time>
      </trkpt>
      <trkpt lat="42.40907" lon="2.69596">
        <ele>1081.1</ele>
        <time>2018-11-26T04:20:05Z</time>
      </trkpt>
      <trkpt lat="42.40907" lon="2.69596">
        <ele>1081</ele>
        <time>2018-11-26T04:20:05Z</time>
      </trkpt>
      <trkpt lat="42.40907" lon="2.69596">
        <ele>1080.8</ele>
        <time>2018-11-26T04:20:05Z</time>
      </trkpt>
      <trkpt lat="42.40907" lon="2.69596">
        <ele>1080.6</ele>
        <time>2018-11-26T04:20:05Z</time>
      </trkpt>
      <trkpt lat="42.40907" lon="2.69596">
        <ele>1080.6</ele>
        <time>2018-11-26T04:20:05Z</time>
      </trkpt>
      <trkpt lat="42.40907" lon="2.69596">
        <ele>1080.5</ele>
        <time>2018-11-26T04:20:05Z</time>
      </trkpt>
      <trkpt lat="42.40907" lon="2.69596">
        <ele>1080.4</ele>
        <time>2018-11-26T04:20:05Z</time>
      </trkpt>
      <trkpt lat="42.40907" lon="2.69596">
        <ele>1080.5</ele>
        <time>2018-11-26T04:20:05Z</time>
      </trkpt>
      <trkpt lat="42.40907" lon="2.69596">
        <ele>1080.6</ele>
        <time>2018-11-26T04:20:05Z</time>
      </trkpt>
      <trkpt lat="42.40907" lon="2.69596">
        <ele>1080.6</ele>
        <time>2018-11-26T04:20:05Z</time>
      </trkpt>
      <trkpt lat="42.40907" lon="2.69596">
        <ele>1080.8</ele>
        <time>2018-11-26T04:20:05Z</time>
      </trkpt>
      <trkpt lat="42.40907" lon="2.69596">
        <ele>1080.9</ele>
        <time>2018-11-26T04:20:05Z</time>
      </trkpt>
      <trkpt lat="42.40907" lon="2.69596">
        <ele>1081</ele>
        <time>2018-11-26T04:20:05Z</time>
      </trkpt>
      <trkpt lat="42.40907" lon="2.69596">
        <ele>1081.2</ele>
        <time>2018-11-26T04:20:05Z</time>
      </trkpt>
      <trkpt lat="42.40907" lon="2.69596">
        <ele>1081.5</ele>
        <time>2018-11-26T04:20:05Z</time>
      </trkpt>
      <trkpt lat="42.40907" lon="2.69596">
        <ele>1081.4</ele>
        <time>2018-11-26T04:20:05Z</time>
      </trkpt>
      <trkpt lat="42.40907" lon="2.69596">
        <ele>1081.5</ele>
        <time>2018-11-26T04:20:05Z</time>
      </trkpt>
      <trkpt lat="42.40907" lon="2.69596">
        <ele>1081.4</ele>
        <time>2018-11-26T04:20:05Z</time>
      </trkpt>
      <trkpt lat="42.40907" lon="2.69596">
        <ele>1081.3</ele>
        <time>2018-11-26T04:20:05Z</time>
      </trkpt>
      <trkpt lat="42.40907" lon="2.69596">
        <ele>1081.2</ele>
        <time>2018-11-26T04:20:05Z</time>
      </trkpt>
      <trkpt lat="42.40907" lon="2.69596">
        <ele>1081.2</ele>
        <time>2018-11-26T04:20:05Z</time>
      </trkpt>
      <trkpt lat="42.40907" lon="2.69596">
        <ele>1081.2</ele>
        <time>2018-11-26T04:20:05Z</time>
      </trkpt>
      <trkpt lat="42.40907" lon="2.69596">
        <ele>1081.2</ele>
        <time>2018-11-26T04:20:05Z</time>
      </trkpt>
      <trkpt lat="42.40907" lon="2.69596">
        <ele>1081.3</ele>
        <time>2018-11-26T04:20:05Z</time>
      </trkpt>
      <trkpt lat="42.40907" lon="2.69596">
        <ele>1081.4</ele>
        <time>2018-11-26T04:20:05Z</time>
      </trkpt>
      <trkpt lat="42.40907" lon="2.69596">
        <ele>1081.7</ele>
        <time>2018-11-26T04:20:05Z</time>
      </trkpt>
      <trkpt lat="42.40907" lon="2.69596">
        <ele>1082</ele>
        <time>2018-11-26T04:20:05Z</time>
      </trkpt>
      <trkpt lat="42.40907" lon="2.69596">
        <ele>1081.9</ele>
        <time>2018-11-26T04:20:05Z</time>
      </trkpt>
      <trkpt lat="42.40907" lon="2.69596">
        <ele>1082.1</ele>
        <time>2018-11-26T04:20:05Z</time>
      </trkpt>
      <trkpt lat="42.40907" lon="2.69596">
        <ele>1082</ele>
        <time>2018-11-26T04:20:05Z</time>
      </trkpt>
      <trkpt lat="42.40907" lon="2.69596">
        <ele>1082</ele>
        <time>2018-11-26T04:20:05Z</time>
      </trkpt>
      <trkpt lat="42.40907" lon="2.69596">
        <ele>1082</ele>
        <time>2018-11-26T04:20:05Z</time>
      </trkpt>
      <trkpt lat="42.40907" lon="2.69596">
        <ele>1081.8</ele>
        <time>2018-11-26T04:20:05Z</time>
      </trkpt>
      <trkpt lat="42.40907" lon="2.69596">
        <ele>1081.7</ele>
        <time>2018-11-26T04:20:05Z</time>
      </trkpt>
      <trkpt lat="42.40907" lon="2.69596">
        <ele>1081.9</ele>
        <time>2018-11-26T04:20:05Z</time>
      </trkpt>
      <trkpt lat="42.40907" lon="2.69596">
        <ele>1081.9</ele>
        <time>2018-11-26T04:20:05Z</time>
      </trkpt>
      <trkpt lat="42.40907" lon="2.69596">
        <ele>1081.9</ele>
        <time>2018-11-26T04:20:05Z</time>
      </trkpt>
      <trkpt lat="42.40907" lon="2.69596">
        <ele>1081.9</ele>
        <time>2018-11-26T04:20:05Z</time>
      </trkpt>
      <trkpt lat="42.40907" lon="2.69596">
        <ele>1081.7</ele>
        <time>2018-11-26T04:20:05Z</time>
      </trkpt>
      <trkpt lat="42.40907" lon="2.69596">
        <ele>1081.3</ele>
        <time>2018-11-26T04:20:05Z</time>
      </trkpt>
      <trkpt lat="42.40907" lon="2.69596">
        <ele>1081.7</ele>
        <time>2018-11-26T04:20:05Z</time>
      </trkpt>
      <trkpt lat="42.40907" lon="2.69596">
        <ele>1082.1</ele>
        <time>2018-11-26T04:20:05Z</time>
      </trkpt>
      <trkpt lat="42.40907" lon="2.69596">
        <ele>1082.5</ele>
        <time>2018-11-26T04:20:05Z</time>
      </trkpt>
      <trkpt lat="42.40907" lon="2.69596">
        <ele>1082.3</ele>
        <time>2018-11-26T04:20:05Z</time>
      </trkpt>
      <trkpt lat="42.40907" lon="2.69596">
        <ele>1082</ele>
        <time>2018-11-26T04:20:05Z</time>
      </trkpt>
      <trkpt lat="42.40907" lon="2.69596">
        <ele>1081.8</ele>
        <time>2018-11-26T04:20:05Z</time>
      </trkpt>
      <trkpt lat="42.40907" lon="2.69596">
        <ele>1081.8</ele>
        <time>2018-11-26T04:20:05Z</time>
      </trkpt>
      <trkpt lat="42.40907" lon="2.69596">
        <ele>1082</ele>
        <time>2018-11-26T04:20:05Z</time>
      </trkpt>
      <trkpt lat="42.40907" lon="2.69596">
        <ele>1082.4</ele>
        <time>2018-11-26T04:20:05Z</time>
      </trkpt>
      <trkpt lat="42.40907" lon="2.69596">
        <ele>1082.3</ele>
        <time>2018-11-26T04:20:05Z</time>
      </trkpt>
      <trkpt lat="42.40907" lon="2.69596">
        <ele>1082.2</ele>
        <time>2018-11-26T04:20:06Z</time>
      </trkpt>
      <trkpt lat="42.40907" lon="2.69596">
        <ele>1082</ele>
        <time>2018-11-26T04:20:06Z</time>
      </trkpt>
      <trkpt lat="42.40907" lon="2.69595">
        <ele>1081.9</ele>
        <time>2018-11-26T04:20:06Z</time>
      </trkpt>
      <trkpt lat="42.40907" lon="2.69596">
        <ele>1081.7</ele>
        <time>2018-11-26T04:20:06Z</time>
      </trkpt>
      <trkpt lat="42.40907" lon="2.69595">
        <ele>1081.5</ele>
        <time>2018-11-26T04:20:06Z</time>
      </trkpt>
      <trkpt lat="42.40907" lon="2.69595">
        <ele>1081.2</ele>
        <time>2018-11-26T04:20:06Z</time>
      </trkpt>
      <trkpt lat="42.40908" lon="2.69595">
        <ele>1081.3</ele>
        <time>2018-11-26T04:20:06Z</time>
      </trkpt>
      <trkpt lat="42.40908" lon="2.69596">
        <ele>1081.4</ele>
        <time>2018-11-26T04:20:06Z</time>
      </trkpt>
      <trkpt lat="42.40908" lon="2.69596">
        <ele>1081.7</ele>
        <time>2018-11-26T04:20:06Z</time>
      </trkpt>
      <trkpt lat="42.40908" lon="2.69596">
        <ele>1081.5</ele>
        <time>2018-11-26T04:20:06Z</time>
      </trkpt>
      <trkpt lat="42.40908" lon="2.69596">
        <ele>1081.5</ele>
        <time>2018-11-26T04:20:06Z</time>
      </trkpt>
      <trkpt lat="42.40908" lon="2.69596">
        <ele>1081.6</ele>
        <time>2018-11-26T04:20:06Z</time>
      </trkpt>
      <trkpt lat="42.40908" lon="2.69596">
        <ele>1081.5</ele>
        <time>2018-11-26T04:20:06Z</time>
      </trkpt>
      <trkpt lat="42.40908" lon="2.69596">
        <ele>1081.6</ele>
        <time>2018-11-26T04:20:06Z</time>
      </trkpt>
      <trkpt lat="42.40908" lon="2.69596">
        <ele>1081.6</ele>
        <time>2018-11-26T04:20:06Z</time>
      </trkpt>
      <trkpt lat="42.40908" lon="2.69596">
        <ele>1081.7</ele>
        <time>2018-11-26T04:20:06Z</time>
      </trkpt>
      <trkpt lat="42.40908" lon="2.69596">
        <ele>1081.6</ele>
        <time>2018-11-26T04:20:06Z</time>
      </trkpt>
      <trkpt lat="42.40908" lon="2.69596">
        <ele>1081.6</ele>
        <time>2018-11-26T04:20:06Z</time>
      </trkpt>
      <trkpt lat="42.40908" lon="2.69596">
        <ele>1081.6</ele>
        <time>2018-11-26T04:20:06Z</time>
      </trkpt>
      <trkpt lat="42.40908" lon="2.69596">
        <ele>1081.1</ele>
        <time>2018-11-26T04:20:06Z</time>
      </trkpt>
      <trkpt lat="42.40908" lon="2.69596">
        <ele>1080.7</ele>
        <time>2018-11-26T04:20:06Z</time>
      </trkpt>
      <trkpt lat="42.40908" lon="2.69596">
        <ele>1080.7</ele>
        <time>2018-11-26T04:20:06Z</time>
      </trkpt>
      <trkpt lat="42.40908" lon="2.69596">
        <ele>1080.7</ele>
        <time>2018-11-26T04:20:06Z</time>
      </trkpt>
      <trkpt lat="42.40908" lon="2.69596">
        <ele>1080.7</ele>
        <time>2018-11-26T04:20:06Z</time>
      </trkpt>
      <trkpt lat="42.40908" lon="2.69596">
        <ele>1080.9</ele>
        <time>2018-11-26T04:20:06Z</time>
      </trkpt>
      <trkpt lat="42.40908" lon="2.69596">
        <ele>1081.2</ele>
        <time>2018-11-26T04:20:06Z</time>
      </trkpt>
      <trkpt lat="42.40908" lon="2.69596">
        <ele>1081.4</ele>
        <time>2018-11-26T04:20:06Z</time>
      </trkpt>
      <trkpt lat="42.40908" lon="2.69596">
        <ele>1081.2</ele>
        <time>2018-11-26T04:20:06Z</time>
      </trkpt>
      <trkpt lat="42.40908" lon="2.69596">
        <ele>1081</ele>
        <time>2018-11-26T04:20:06Z</time>
      </trkpt>
      <trkpt lat="42.40908" lon="2.69596">
        <ele>1080.7</ele>
        <time>2018-11-26T04:20:06Z</time>
      </trkpt>
      <trkpt lat="42.40908" lon="2.69596">
        <ele>1081</ele>
        <time>2018-11-26T04:20:06Z</time>
      </trkpt>
      <trkpt lat="42.40908" lon="2.69596">
        <ele>1081.2</ele>
        <time>2018-11-26T04:20:06Z</time>
      </trkpt>
      <trkpt lat="42.40908" lon="2.69596">
        <ele>1081.3</ele>
        <time>2018-11-26T04:20:06Z</time>
      </trkpt>
      <trkpt lat="42.40908" lon="2.69596">
        <ele>1081.3</ele>
        <time>2018-11-26T04:20:06Z</time>
      </trkpt>
      <trkpt lat="42.40908" lon="2.69596">
        <ele>1081.3</ele>
        <time>2018-11-26T04:20:06Z</time>
      </trkpt>
      <trkpt lat="42.40908" lon="2.69596">
        <ele>1081.5</ele>
        <time>2018-11-26T04:20:06Z</time>
      </trkpt>
      <trkpt lat="42.40908" lon="2.69596">
        <ele>1081.4</ele>
        <time>2018-11-26T04:20:06Z</time>
      </trkpt>
      <trkpt lat="42.40908" lon="2.69596">
        <ele>1081.4</ele>
        <time>2018-11-26T04:20:06Z</time>
      </trkpt>
      <trkpt lat="42.40908" lon="2.69596">
        <ele>1081.1</ele>
        <time>2018-11-26T04:20:06Z</time>
      </trkpt>
      <trkpt lat="42.40908" lon="2.69596">
        <ele>1081.1</ele>
        <time>2018-11-26T04:20:06Z</time>
      </trkpt>
      <trkpt lat="42.40908" lon="2.69596">
        <ele>1080.7</ele>
        <time>2018-11-26T04:20:06Z</time>
      </trkpt>
      <trkpt lat="42.40908" lon="2.69596">
        <ele>1080.3</ele>
        <time>2018-11-26T04:20:07Z</time>
      </trkpt>
      <trkpt lat="42.40908" lon="2.69596">
        <ele>1080.5</ele>
        <time>2018-11-26T04:20:07Z</time>
      </trkpt>
      <trkpt lat="42.40909" lon="2.69596">
        <ele>1080.9</ele>
        <time>2018-11-26T04:20:07Z</time>
      </trkpt>
      <trkpt lat="42.40909" lon="2.69596">
        <ele>1081.5</ele>
        <time>2018-11-26T04:20:07Z</time>
      </trkpt>
      <trkpt lat="42.40909" lon="2.69597">
        <ele>1081.6</ele>
        <time>2018-11-26T04:20:07Z</time>
      </trkpt>
      <trkpt lat="42.40909" lon="2.69597">
        <ele>1081.7</ele>
        <time>2018-11-26T04:20:07Z</time>
      </trkpt>
      <trkpt lat="42.40909" lon="2.69597">
        <ele>1081.8</ele>
        <time>2018-11-26T04:20:07Z</time>
      </trkpt>
      <trkpt lat="42.40909" lon="2.69597">
        <ele>1081.8</ele>
        <time>2018-11-26T04:20:07Z</time>
      </trkpt>
      <trkpt lat="42.40909" lon="2.69597">
        <ele>1081.6</ele>
        <time>2018-11-26T04:20:07Z</time>
      </trkpt>
      <trkpt lat="42.40909" lon="2.69597">
        <ele>1081.5</ele>
        <time>2018-11-26T04:20:07Z</time>
      </trkpt>
      <trkpt lat="42.40909" lon="2.69597">
        <ele>1081.3</ele>
        <time>2018-11-26T04:20:07Z</time>
      </trkpt>
      <trkpt lat="42.40909" lon="2.69598">
        <ele>1081.4</ele>
        <time>2018-11-26T04:20:07Z</time>
      </trkpt>
      <trkpt lat="42.40909" lon="2.69598">
        <ele>1081.5</ele>
        <time>2018-11-26T04:20:07Z</time>
      </trkpt>
      <trkpt lat="42.40909" lon="2.69598">
        <ele>1081.7</ele>
        <time>2018-11-26T04:20:07Z</time>
      </trkpt>
      <trkpt lat="42.40909" lon="2.69599">
        <ele>1081.4</ele>
        <time>2018-11-26T04:20:08Z</time>
      </trkpt>
      <trkpt lat="42.4091" lon="2.69599">
        <ele>1081.5</ele>
        <time>2018-11-26T04:20:08Z</time>
      </trkpt>
      <trkpt lat="42.4091" lon="2.69599">
        <ele>1081.3</ele>
        <time>2018-11-26T04:20:08Z</time>
      </trkpt>
      <trkpt lat="42.4091" lon="2.69599">
        <ele>1081.1</ele>
        <time>2018-11-26T04:20:08Z</time>
      </trkpt>
      <trkpt lat="42.4091" lon="2.69599">
        <ele>1080.8</ele>
        <time>2018-11-26T04:20:08Z</time>
      </trkpt>
      <trkpt lat="42.4091" lon="2.69599">
        <ele>1080.9</ele>
        <time>2018-11-26T04:20:08Z</time>
      </trkpt>
      <trkpt lat="42.4091" lon="2.69599">
        <ele>1081.1</ele>
        <time>2018-11-26T04:20:08Z</time>
      </trkpt>
      <trkpt lat="42.4091" lon="2.69598">
        <ele>1081.3</ele>
        <time>2018-11-26T04:20:08Z</time>
      </trkpt>
      <trkpt lat="42.4091" lon="2.69598">
        <ele>1081.4</ele>
        <time>2018-11-26T04:20:08Z</time>
      </trkpt>
      <trkpt lat="42.4091" lon="2.69598">
        <ele>1081.6</ele>
        <time>2018-11-26T04:20:08Z</time>
      </trkpt>
      <trkpt lat="42.4091" lon="2.69598">
        <ele>1081.7</ele>
        <time>2018-11-26T04:20:08Z</time>
      </trkpt>
      <trkpt lat="42.4091" lon="2.69598">
        <ele>1081.8</ele>
        <time>2018-11-26T04:20:08Z</time>
      </trkpt>
      <trkpt lat="42.40909" lon="2.69598">
        <ele>1081.7</ele>
        <time>2018-11-26T04:20:08Z</time>
      </trkpt>
      <trkpt lat="42.40909" lon="2.69598">
        <ele>1081.4</ele>
        <time>2018-11-26T04:20:08Z</time>
      </trkpt>
      <trkpt lat="42.40909" lon="2.69598">
        <ele>1081.1</ele>
        <time>2018-11-26T04:20:08Z</time>
      </trkpt>
      <trkpt lat="42.40909" lon="2.69598">
        <ele>1081.3</ele>
        <time>2018-11-26T04:20:08Z</time>
      </trkpt>
      <trkpt lat="42.40909" lon="2.69598">
        <ele>1081.6</ele>
        <time>2018-11-26T04:20:08Z</time>
      </trkpt>
      <trkpt lat="42.40909" lon="2.69598">
        <ele>1081.8</ele>
        <time>2018-11-26T04:20:08Z</time>
      </trkpt>
      <trkpt lat="42.40909" lon="2.69598">
        <ele>1081.9</ele>
        <time>2018-11-26T04:20:08Z</time>
      </trkpt>
      <trkpt lat="42.40909" lon="2.69598">
        <ele>1082</ele>
        <time>2018-11-26T04:20:08Z</time>
      </trkpt>
      <trkpt lat="42.40909" lon="2.69598">
        <ele>1082.3</ele>
        <time>2018-11-26T04:20:08Z</time>
      </trkpt>
      <trkpt lat="42.40909" lon="2.69598">
        <ele>1082.2</ele>
        <time>2018-11-26T04:20:08Z</time>
      </trkpt>
      <trkpt lat="42.40909" lon="2.69598">
        <ele>1082.1</ele>
        <time>2018-11-26T04:20:08Z</time>
      </trkpt>
      <trkpt lat="42.40909" lon="2.69598">
        <ele>1081.8</ele>
        <time>2018-11-26T04:20:08Z</time>
      </trkpt>
      <trkpt lat="42.40909" lon="2.69598">
        <ele>1081.9</ele>
        <time>2018-11-26T04:20:08Z</time>
      </trkpt>
      <trkpt lat="42.40909" lon="2.69598">
        <ele>1081.8</ele>
        <time>2018-11-26T04:20:08Z</time>
      </trkpt>
      <trkpt lat="42.40909" lon="2.69598">
        <ele>1081.9</ele>
        <time>2018-11-26T04:20:08Z</time>
      </trkpt>
      <trkpt lat="42.40909" lon="2.69598">
        <ele>1081.8</ele>
        <time>2018-11-26T04:20:08Z</time>
      </trkpt>
      <trkpt lat="42.40909" lon="2.69598">
        <ele>1081.8</ele>
        <time>2018-11-26T04:20:08Z</time>
      </trkpt>
      <trkpt lat="42.40909" lon="2.69598">
        <ele>1081.9</ele>
        <time>2018-11-26T04:20:08Z</time>
      </trkpt>
      <trkpt lat="42.40909" lon="2.69598">
        <ele>1082.2</ele>
        <time>2018-11-26T04:20:08Z</time>
      </trkpt>
      <trkpt lat="42.40909" lon="2.69598">
        <ele>1082.1</ele>
        <time>2018-11-26T04:20:08Z</time>
      </trkpt>
      <trkpt lat="42.40909" lon="2.69598">
        <ele>1082.2</ele>
        <time>2018-11-26T04:20:08Z</time>
      </trkpt>
      <trkpt lat="42.40909" lon="2.69598">
        <ele>1082.4</ele>
        <time>2018-11-26T04:20:08Z</time>
      </trkpt>
      <trkpt lat="42.40909" lon="2.69598">
        <ele>1082.2</ele>
        <time>2018-11-26T04:20:08Z</time>
      </trkpt>
      <trkpt lat="42.40909" lon="2.69598">
        <ele>1082.1</ele>
        <time>2018-11-26T04:20:08Z</time>
      </trkpt>
      <trkpt lat="42.40909" lon="2.69598">
        <ele>1081.9</ele>
        <time>2018-11-26T04:20:09Z</time>
      </trkpt>
      <trkpt lat="42.40909" lon="2.69598">
        <ele>1081.9</ele>
        <time>2018-11-26T04:20:09Z</time>
      </trkpt>
      <trkpt lat="42.40909" lon="2.69598">
        <ele>1081.9</ele>
        <time>2018-11-26T04:20:09Z</time>
      </trkpt>
      <trkpt lat="42.40909" lon="2.69598">
        <ele>1081.9</ele>
        <time>2018-11-26T04:20:09Z</time>
      </trkpt>
      <trkpt lat="42.40909" lon="2.69598">
        <ele>1081.5</ele>
        <time>2018-11-26T04:20:09Z</time>
      </trkpt>
      <trkpt lat="42.40909" lon="2.69598">
        <ele>1081.1</ele>
        <time>2018-11-26T04:20:09Z</time>
      </trkpt>
      <trkpt lat="42.40909" lon="2.69598">
        <ele>1080.4</ele>
        <time>2018-11-26T04:20:09Z</time>
      </trkpt>
      <trkpt lat="42.40909" lon="2.69598">
        <ele>1080.6</ele>
        <time>2018-11-26T04:20:09Z</time>
      </trkpt>
      <trkpt lat="42.40909" lon="2.69598">
        <ele>1080.6</ele>
        <time>2018-11-26T04:20:09Z</time>
      </trkpt>
      <trkpt lat="42.40909" lon="2.69598">
        <ele>1080.9</ele>
        <time>2018-11-26T04:20:09Z</time>
      </trkpt>
      <trkpt lat="42.40909" lon="2.69598">
        <ele>1081</ele>
        <time>2018-11-26T04:20:09Z</time>
      </trkpt>
      <trkpt lat="42.40909" lon="2.69598">
        <ele>1080.9</ele>
        <time>2018-11-26T04:20:09Z</time>
      </trkpt>
      <trkpt lat="42.40909" lon="2.69598">
        <ele>1080.9</ele>
        <time>2018-11-26T04:20:09Z</time>
      </trkpt>
      <trkpt lat="42.40909" lon="2.69598">
        <ele>1080.7</ele>
        <time>2018-11-26T04:20:09Z</time>
      </trkpt>
      <trkpt lat="42.40909" lon="2.69598">
        <ele>1081</ele>
        <time>2018-11-26T04:20:09Z</time>
      </trkpt>
      <trkpt lat="42.40909" lon="2.69598">
        <ele>1081.2</ele>
        <time>2018-11-26T04:20:09Z</time>
      </trkpt>
      <trkpt lat="42.40909" lon="2.69597">
        <ele>1081.6</ele>
        <time>2018-11-26T04:20:09Z</time>
      </trkpt>
      <trkpt lat="42.40908" lon="2.69597">
        <ele>1081.6</ele>
        <time>2018-11-26T04:20:09Z</time>
      </trkpt>
      <trkpt lat="42.40908" lon="2.69597">
        <ele>1081.7</ele>
        <time>2018-11-26T04:20:09Z</time>
      </trkpt>
      <trkpt lat="42.40908" lon="2.69597">
        <ele>1081.8</ele>
        <time>2018-11-26T04:20:09Z</time>
      </trkpt>
      <trkpt lat="42.40908" lon="2.69597">
        <ele>1081.8</ele>
        <time>2018-11-26T04:20:10Z</time>
      </trkpt>
      <trkpt lat="42.40908" lon="2.69597">
        <ele>1081.8</ele>
        <time>2018-11-26T04:20:10Z</time>
      </trkpt>
      <trkpt lat="42.40908" lon="2.69597">
        <ele>1081.7</ele>
        <time>2018-11-26T04:20:10Z</time>
      </trkpt>
      <trkpt lat="42.40908" lon="2.69597">
        <ele>1081.6</ele>
        <time>2018-11-26T04:20:10Z</time>
      </trkpt>
      <trkpt lat="42.40908" lon="2.69597">
        <ele>1081.5</ele>
        <time>2018-11-26T04:20:10Z</time>
      </trkpt>
      <trkpt lat="42.40908" lon="2.69597">
        <ele>1081.5</ele>
        <time>2018-11-26T04:20:10Z</time>
      </trkpt>
      <trkpt lat="42.40908" lon="2.69597">
        <ele>1081.4</ele>
        <time>2018-11-26T04:20:10Z</time>
      </trkpt>
      <trkpt lat="42.40908" lon="2.69596">
        <ele>1081.2</ele>
        <time>2018-11-26T04:20:10Z</time>
      </trkpt>
      <trkpt lat="42.40908" lon="2.69596">
        <ele>1081</ele>
        <time>2018-11-26T04:20:10Z</time>
      </trkpt>
      <trkpt lat="42.40908" lon="2.69596">
        <ele>1080.9</ele>
        <time>2018-11-26T04:20:10Z</time>
      </trkpt>
      <trkpt lat="42.40908" lon="2.69596">
        <ele>1080.9</ele>
        <time>2018-11-26T04:20:10Z</time>
      </trkpt>
      <trkpt lat="42.40908" lon="2.69596">
        <ele>1081</ele>
        <time>2018-11-26T04:20:10Z</time>
      </trkpt>
      <trkpt lat="42.40908" lon="2.69596">
        <ele>1081.2</ele>
        <time>2018-11-26T04:20:10Z</time>
      </trkpt>
      <trkpt lat="42.40908" lon="2.69596">
        <ele>1081</ele>
        <time>2018-11-26T04:20:10Z</time>
      </trkpt>
      <trkpt lat="42.40908" lon="2.69596">
        <ele>1081</ele>
        <time>2018-11-26T04:20:10Z</time>
      </trkpt>
      <trkpt lat="42.40908" lon="2.69596">
        <ele>1080.6</ele>
        <time>2018-11-26T04:20:10Z</time>
      </trkpt>
      <trkpt lat="42.40908" lon="2.69595">
        <ele>1080.8</ele>
        <time>2018-11-26T04:20:10Z</time>
      </trkpt>
      <trkpt lat="42.40908" lon="2.69595">
        <ele>1080.9</ele>
        <time>2018-11-26T04:20:10Z</time>
      </trkpt>
      <trkpt lat="42.40908" lon="2.69595">
        <ele>1081.3</ele>
        <time>2018-11-26T04:20:10Z</time>
      </trkpt>
      <trkpt lat="42.40908" lon="2.69595">
        <ele>1081.2</ele>
        <time>2018-11-26T04:20:10Z</time>
      </trkpt>
      <trkpt lat="42.40907" lon="2.69595">
        <ele>1081.1</ele>
        <time>2018-11-26T04:20:10Z</time>
      </trkpt>
      <trkpt lat="42.40907" lon="2.69595">
        <ele>1081</ele>
        <time>2018-11-26T04:20:10Z</time>
      </trkpt>
      <trkpt lat="42.40907" lon="2.69594">
        <ele>1080.8</ele>
        <time>2018-11-26T04:20:11Z</time>
      </trkpt>
      <trkpt lat="42.40907" lon="2.69594">
        <ele>1080.9</ele>
        <time>2018-11-26T04:20:11Z</time>
      </trkpt>
      <trkpt lat="42.40907" lon="2.69594">
        <ele>1080.7</ele>
        <time>2018-11-26T04:20:11Z</time>
      </trkpt>
      <trkpt lat="42.40907" lon="2.69594">
        <ele>1080.6</ele>
        <time>2018-11-26T04:20:11Z</time>
      </trkpt>
      <trkpt lat="42.40907" lon="2.69594">
        <ele>1080.6</ele>
        <time>2018-11-26T04:20:11Z</time>
      </trkpt>
      <trkpt lat="42.40908" lon="2.69594">
        <ele>1080.9</ele>
        <time>2018-11-26T04:20:11Z</time>
      </trkpt>
      <trkpt lat="42.40908" lon="2.69594">
        <ele>1081.2</ele>
        <time>2018-11-26T04:20:11Z</time>
      </trkpt>
      <trkpt lat="42.40908" lon="2.69594">
        <ele>1081.2</ele>
        <time>2018-11-26T04:20:11Z</time>
      </trkpt>
      <trkpt lat="42.40908" lon="2.69595">
        <ele>1081.1</ele>
        <time>2018-11-26T04:20:11Z</time>
      </trkpt>
      <trkpt lat="42.40908" lon="2.69595">
        <ele>1081</ele>
        <time>2018-11-26T04:20:11Z</time>
      </trkpt>
      <trkpt lat="42.40908" lon="2.69595">
        <ele>1081</ele>
        <time>2018-11-26T04:20:11Z</time>
      </trkpt>
      <trkpt lat="42.40908" lon="2.69595">
        <ele>1081.1</ele>
        <time>2018-11-26T04:20:11Z</time>
      </trkpt>
      <trkpt lat="42.40908" lon="2.69595">
        <ele>1081.1</ele>
        <time>2018-11-26T04:20:11Z</time>
      </trkpt>
      <trkpt lat="42.40908" lon="2.69595">
        <ele>1081.1</ele>
        <time>2018-11-26T04:20:11Z</time>
      </trkpt>
      <trkpt lat="42.40908" lon="2.69595">
        <ele>1081.3</ele>
        <time>2018-11-26T04:20:11Z</time>
      </trkpt>
      <trkpt lat="42.40908" lon="2.69595">
        <ele>1081.5</ele>
        <time>2018-11-26T04:20:11Z</time>
      </trkpt>
      <trkpt lat="42.40908" lon="2.69595">
        <ele>1081.7</ele>
        <time>2018-11-26T04:20:11Z</time>
      </trkpt>
      <trkpt lat="42.40908" lon="2.69594">
        <ele>1081.4</ele>
        <time>2018-11-26T04:20:11Z</time>
      </trkpt>
      <trkpt lat="42.40908" lon="2.69594">
        <ele>1081.4</ele>
        <time>2018-11-26T04:20:12Z</time>
      </trkpt>
      <trkpt lat="42.40907" lon="2.69595">
        <ele>1081.1</ele>
        <time>2018-11-26T04:20:12Z</time>
      </trkpt>
      <trkpt lat="42.40907" lon="2.69595">
        <ele>1081.2</ele>
        <time>2018-11-26T04:20:12Z</time>
      </trkpt>
      <trkpt lat="42.40907" lon="2.69595">
        <ele>1081.5</ele>
        <time>2018-11-26T04:20:12Z</time>
      </trkpt>
      <trkpt lat="42.40907" lon="2.69595">
        <ele>1081.7</ele>
        <time>2018-11-26T04:20:12Z</time>
      </trkpt>
      <trkpt lat="42.40907" lon="2.69595">
        <ele>1081.6</ele>
        <time>2018-11-26T04:20:12Z</time>
      </trkpt>
      <trkpt lat="42.40907" lon="2.69595">
        <ele>1081.7</ele>
        <time>2018-11-26T04:20:12Z</time>
      </trkpt>
      <trkpt lat="42.40907" lon="2.69595">
        <ele>1081.9</ele>
        <time>2018-11-26T04:20:12Z</time>
      </trkpt>
      <trkpt lat="42.40907" lon="2.69595">
        <ele>1082.2</ele>
        <time>2018-11-26T04:20:12Z</time>
      </trkpt>
      <trkpt lat="42.40907" lon="2.69595">
        <ele>1082.5</ele>
        <time>2018-11-26T04:20:12Z</time>
      </trkpt>
      <trkpt lat="42.40907" lon="2.69595">
        <ele>1083</ele>
        <time>2018-11-26T04:20:12Z</time>
      </trkpt>
      <trkpt lat="42.40907" lon="2.69595">
        <ele>1082.6</ele>
        <time>2018-11-26T04:20:12Z</time>
      </trkpt>
      <trkpt lat="42.40907" lon="2.69595">
        <ele>1082.3</ele>
        <time>2018-11-26T04:20:12Z</time>
      </trkpt>
      <trkpt lat="42.40907" lon="2.69595">
        <ele>1081.9</ele>
        <time>2018-11-26T04:20:12Z</time>
      </trkpt>
      <trkpt lat="42.40907" lon="2.69595">
        <ele>1081.7</ele>
        <time>2018-11-26T04:20:12Z</time>
      </trkpt>
      <trkpt lat="42.40907" lon="2.69595">
        <ele>1081.6</ele>
        <time>2018-11-26T04:20:12Z</time>
      </trkpt>
      <trkpt lat="42.40907" lon="2.69595">
        <ele>1081.4</ele>
        <time>2018-11-26T04:20:12Z</time>
      </trkpt>
      <trkpt lat="42.40907" lon="2.69595">
        <ele>1081.1</ele>
        <time>2018-11-26T04:20:12Z</time>
      </trkpt>
      <trkpt lat="42.40907" lon="2.69595">
        <ele>1080.9</ele>
        <time>2018-11-26T04:20:12Z</time>
      </trkpt>
      <trkpt lat="42.40907" lon="2.69596">
        <ele>1080.8</ele>
        <time>2018-11-26T04:20:12Z</time>
      </trkpt>
      <trkpt lat="42.40907" lon="2.69596">
        <ele>1080.6</ele>
        <time>2018-11-26T04:20:12Z</time>
      </trkpt>
      <trkpt lat="42.40907" lon="2.69596">
        <ele>1080.6</ele>
        <time>2018-11-26T04:20:12Z</time>
      </trkpt>
      <trkpt lat="42.40907" lon="2.69596">
        <ele>1080.7</ele>
        <time>2018-11-26T04:20:12Z</time>
      </trkpt>
      <trkpt lat="42.40907" lon="2.69596">
        <ele>1080.8</ele>
        <time>2018-11-26T04:20:12Z</time>
      </trkpt>
      <trkpt lat="42.40907" lon="2.69596">
        <ele>1081</ele>
        <time>2018-11-26T04:20:12Z</time>
      </trkpt>
      <trkpt lat="42.40907" lon="2.69596">
        <ele>1081.4</ele>
        <time>2018-11-26T04:20:12Z</time>
      </trkpt>
      <trkpt lat="42.40907" lon="2.69596">
        <ele>1081.8</ele>
        <time>2018-11-26T04:20:12Z</time>
      </trkpt>
      <trkpt lat="42.40907" lon="2.69596">
        <ele>1081.8</ele>
        <time>2018-11-26T04:20:12Z</time>
      </trkpt>
      <trkpt lat="42.40907" lon="2.69596">
        <ele>1081.8</ele>
        <time>2018-11-26T04:20:13Z</time>
      </trkpt>
      <trkpt lat="42.40907" lon="2.69596">
        <ele>1081.9</ele>
        <time>2018-11-26T04:20:13Z</time>
      </trkpt>
      <trkpt lat="42.40907" lon="2.69596">
        <ele>1081.8</ele>
        <time>2018-11-26T04:20:13Z</time>
      </trkpt>
      <trkpt lat="42.40907" lon="2.69596">
        <ele>1081.7</ele>
        <time>2018-11-26T04:20:13Z</time>
      </trkpt>
      <trkpt lat="42.40907" lon="2.69596">
        <ele>1081.7</ele>
        <time>2018-11-26T04:20:13Z</time>
      </trkpt>
      <trkpt lat="42.40907" lon="2.69596">
        <ele>1081.8</ele>
        <time>2018-11-26T04:20:13Z</time>
      </trkpt>
      <trkpt lat="42.40907" lon="2.69596">
        <ele>1081.7</ele>
        <time>2018-11-26T04:20:13Z</time>
      </trkpt>
      <trkpt lat="42.40907" lon="2.69596">
        <ele>1081.5</ele>
        <time>2018-11-26T04:20:13Z</time>
      </trkpt>
      <trkpt lat="42.40907" lon="2.69596">
        <ele>1081.3</ele>
        <time>2018-11-26T04:20:13Z</time>
      </trkpt>
      <trkpt lat="42.40907" lon="2.69596">
        <ele>1081.2</ele>
        <time>2018-11-26T04:20:13Z</time>
      </trkpt>
      <trkpt lat="42.40907" lon="2.69596">
        <ele>1081.4</ele>
        <time>2018-11-26T04:20:13Z</time>
      </trkpt>
      <trkpt lat="42.40907" lon="2.69596">
        <ele>1081.4</ele>
        <time>2018-11-26T04:20:13Z</time>
      </trkpt>
      <trkpt lat="42.40907" lon="2.69596">
        <ele>1081.7</ele>
        <time>2018-11-26T04:20:13Z</time>
      </trkpt>
      <trkpt lat="42.40907" lon="2.69596">
        <ele>1082.2</ele>
        <time>2018-11-26T04:20:13Z</time>
      </trkpt>
      <trkpt lat="42.40907" lon="2.69596">
        <ele>1082.8</ele>
        <time>2018-11-26T04:20:13Z</time>
      </trkpt>
      <trkpt lat="42.40907" lon="2.69596">
        <ele>1082.6</ele>
        <time>2018-11-26T04:20:13Z</time>
      </trkpt>
      <trkpt lat="42.40907" lon="2.69596">
        <ele>1082.2</ele>
        <time>2018-11-26T04:20:13Z</time>
      </trkpt>
      <trkpt lat="42.40907" lon="2.69596">
        <ele>1081.7</ele>
        <time>2018-11-26T04:20:13Z</time>
      </trkpt>
      <trkpt lat="42.40907" lon="2.69596">
        <ele>1081.7</ele>
        <time>2018-11-26T04:20:13Z</time>
      </trkpt>
      <trkpt lat="42.40907" lon="2.69596">
        <ele>1081.6</ele>
        <time>2018-11-26T04:20:13Z</time>
      </trkpt>
      <trkpt lat="42.40907" lon="2.69596">
        <ele>1081.4</ele>
        <time>2018-11-26T04:20:13Z</time>
      </trkpt>
      <trkpt lat="42.40907" lon="2.69596">
        <ele>1081.6</ele>
        <time>2018-11-26T04:20:13Z</time>
      </trkpt>
      <trkpt lat="42.40906" lon="2.69596">
        <ele>1081.8</ele>
        <time>2018-11-26T04:20:13Z</time>
      </trkpt>
      <trkpt lat="42.40907" lon="2.69596">
        <ele>1082</ele>
        <time>2018-11-26T04:20:13Z</time>
      </trkpt>
      <trkpt lat="42.40907" lon="2.69596">
        <ele>1082.3</ele>
        <time>2018-11-26T04:20:13Z</time>
      </trkpt>
      <trkpt lat="42.40907" lon="2.69596">
        <ele>1082.2</ele>
        <time>2018-11-26T04:20:13Z</time>
      </trkpt>
      <trkpt lat="42.40907" lon="2.69596">
        <ele>1082</ele>
        <time>2018-11-26T04:20:13Z</time>
      </trkpt>
      <trkpt lat="42.40907" lon="2.69596">
        <ele>1081.6</ele>
        <time>2018-11-26T04:20:13Z</time>
      </trkpt>
      <trkpt lat="42.40907" lon="2.69596">
        <ele>1081.8</ele>
        <time>2018-11-26T04:20:13Z</time>
      </trkpt>
      <trkpt lat="42.40907" lon="2.69596">
        <ele>1082</ele>
        <time>2018-11-26T04:20:13Z</time>
      </trkpt>
      <trkpt lat="42.40907" lon="2.69596">
        <ele>1082.3</ele>
        <time>2018-11-26T04:20:13Z</time>
      </trkpt>
      <trkpt lat="42.40907" lon="2.69595">
        <ele>1082.2</ele>
        <time>2018-11-26T04:20:13Z</time>
      </trkpt>
      <trkpt lat="42.40907" lon="2.69595">
        <ele>1082.1</ele>
        <time>2018-11-26T04:20:13Z</time>
      </trkpt>
      <trkpt lat="42.40906" lon="2.69595">
        <ele>1082.1</ele>
        <time>2018-11-26T04:20:13Z</time>
      </trkpt>
      <trkpt lat="42.40906" lon="2.69595">
        <ele>1082</ele>
        <time>2018-11-26T04:20:13Z</time>
      </trkpt>
      <trkpt lat="42.40906" lon="2.69595">
        <ele>1081.9</ele>
        <time>2018-11-26T04:20:13Z</time>
      </trkpt>
      <trkpt lat="42.40906" lon="2.69595">
        <ele>1081.8</ele>
        <time>2018-11-26T04:20:13Z</time>
      </trkpt>
      <trkpt lat="42.40906" lon="2.69595">
        <ele>1081.8</ele>
        <time>2018-11-26T04:20:13Z</time>
      </trkpt>
      <trkpt lat="42.40906" lon="2.69595">
        <ele>1081.7</ele>
        <time>2018-11-26T04:20:13Z</time>
      </trkpt>
      <trkpt lat="42.40906" lon="2.69595">
        <ele>1081.8</ele>
        <time>2018-11-26T04:20:13Z</time>
      </trkpt>
      <trkpt lat="42.40906" lon="2.69594">
        <ele>1081.9</ele>
        <time>2018-11-26T04:20:13Z</time>
      </trkpt>
      <trkpt lat="42.40906" lon="2.69594">
        <ele>1081.7</ele>
        <time>2018-11-26T04:20:13Z</time>
      </trkpt>
      <trkpt lat="42.40906" lon="2.69594">
        <ele>1081.5</ele>
        <time>2018-11-26T04:20:13Z</time>
      </trkpt>
      <trkpt lat="42.40906" lon="2.69594">
        <ele>1081.3</ele>
        <time>2018-11-26T04:20:13Z</time>
      </trkpt>
      <trkpt lat="42.40906" lon="2.69594">
        <ele>1081.2</ele>
        <time>2018-11-26T04:20:13Z</time>
      </trkpt>
      <trkpt lat="42.40906" lon="2.69594">
        <ele>1081.3</ele>
        <time>2018-11-26T04:20:14Z</time>
      </trkpt>
      <trkpt lat="42.40906" lon="2.69594">
        <ele>1081</ele>
        <time>2018-11-26T04:20:14Z</time>
      </trkpt>
      <trkpt lat="42.40906" lon="2.69594">
        <ele>1081</ele>
        <time>2018-11-26T04:20:14Z</time>
      </trkpt>
      <trkpt lat="42.40906" lon="2.69594">
        <ele>1080.9</ele>
        <time>2018-11-26T04:20:14Z</time>
      </trkpt>
      <trkpt lat="42.40905" lon="2.69594">
        <ele>1080.8</ele>
        <time>2018-11-26T04:20:14Z</time>
      </trkpt>
      <trkpt lat="42.40905" lon="2.69594">
        <ele>1081</ele>
        <time>2018-11-26T04:20:14Z</time>
      </trkpt>
      <trkpt lat="42.40905" lon="2.69594">
        <ele>1081.2</ele>
        <time>2018-11-26T04:20:14Z</time>
      </trkpt>
      <trkpt lat="42.40905" lon="2.69593">
        <ele>1081.5</ele>
        <time>2018-11-26T04:20:14Z</time>
      </trkpt>
      <trkpt lat="42.40905" lon="2.69593">
        <ele>1081.4</ele>
        <time>2018-11-26T04:20:14Z</time>
      </trkpt>
      <trkpt lat="42.40905" lon="2.69593">
        <ele>1081.4</ele>
        <time>2018-11-26T04:20:14Z</time>
      </trkpt>
      <trkpt lat="42.40905" lon="2.69593">
        <ele>1081.4</ele>
        <time>2018-11-26T04:20:14Z</time>
      </trkpt>
      <trkpt lat="42.40905" lon="2.69593">
        <ele>1081.7</ele>
        <time>2018-11-26T04:20:14Z</time>
      </trkpt>
      <trkpt lat="42.40905" lon="2.69593">
        <ele>1081.9</ele>
        <time>2018-11-26T04:20:14Z</time>
      </trkpt>
      <trkpt lat="42.40905" lon="2.69593">
        <ele>1082.2</ele>
        <time>2018-11-26T04:20:14Z</time>
      </trkpt>
      <trkpt lat="42.40905" lon="2.69593">
        <ele>1082.8</ele>
        <time>2018-11-26T04:20:14Z</time>
      </trkpt>
      <trkpt lat="42.40905" lon="2.69593">
        <ele>1082.8</ele>
        <time>2018-11-26T04:20:14Z</time>
      </trkpt>
      <trkpt lat="42.40905" lon="2.69593">
        <ele>1082.6</ele>
        <time>2018-11-26T04:20:14Z</time>
      </trkpt>
      <trkpt lat="42.40905" lon="2.69593">
        <ele>1082.4</ele>
        <time>2018-11-26T04:20:14Z</time>
      </trkpt>
      <trkpt lat="42.40905" lon="2.69593">
        <ele>1082.3</ele>
        <time>2018-11-26T04:20:14Z</time>
      </trkpt>
      <trkpt lat="42.40905" lon="2.69592">
        <ele>1082.2</ele>
        <time>2018-11-26T04:20:14Z</time>
      </trkpt>
      <trkpt lat="42.40905" lon="2.69592">
        <ele>1082.1</ele>
        <time>2018-11-26T04:20:14Z</time>
      </trkpt>
      <trkpt lat="42.40905" lon="2.69592">
        <ele>1081.9</ele>
        <time>2018-11-26T04:20:14Z</time>
      </trkpt>
      <trkpt lat="42.40904" lon="2.69592">
        <ele>1081.9</ele>
        <time>2018-11-26T04:20:14Z</time>
      </trkpt>
      <trkpt lat="42.40905" lon="2.69592">
        <ele>1081.8</ele>
        <time>2018-11-26T04:20:15Z</time>
      </trkpt>
      <trkpt lat="42.40905" lon="2.69592">
        <ele>1081.8</ele>
        <time>2018-11-26T04:20:15Z</time>
      </trkpt>
      <trkpt lat="42.40904" lon="2.69592">
        <ele>1081.8</ele>
        <time>2018-11-26T04:20:15Z</time>
      </trkpt>
      <trkpt lat="42.40908" lon="2.69597">
        <ele>1081.2</ele>
        <time>2018-11-26T04:20:17Z</time>
      </trkpt>
      <trkpt lat="42.40908" lon="2.69597">
        <ele>1081.5</ele>
        <time>2018-11-26T04:20:17Z</time>
      </trkpt>
      <trkpt lat="42.40908" lon="2.69597">
        <ele>1082</ele>
        <time>2018-11-26T04:20:17Z</time>
      </trkpt>
      <trkpt lat="42.40908" lon="2.69597">
        <ele>1081.9</ele>
        <time>2018-11-26T04:20:17Z</time>
      </trkpt>
      <trkpt lat="42.40908" lon="2.69597">
        <ele>1081.7</ele>
        <time>2018-11-26T04:20:17Z</time>
      </trkpt>
      <trkpt lat="42.40908" lon="2.69597">
        <ele>1081.5</ele>
        <time>2018-11-26T04:20:17Z</time>
      </trkpt>
      <trkpt lat="42.40908" lon="2.69597">
        <ele>1081.5</ele>
        <time>2018-11-26T04:20:17Z</time>
      </trkpt>
      <trkpt lat="42.40908" lon="2.69597">
        <ele>1081.3</ele>
        <time>2018-11-26T04:20:17Z</time>
      </trkpt>
      <trkpt lat="42.40908" lon="2.69597">
        <ele>1081.3</ele>
        <time>2018-11-26T04:20:17Z</time>
      </trkpt>
      <trkpt lat="42.40908" lon="2.69597">
        <ele>1081.3</ele>
        <time>2018-11-26T04:20:17Z</time>
      </trkpt>
      <trkpt lat="42.40908" lon="2.69597">
        <ele>1081.3</ele>
        <time>2018-11-26T04:20:17Z</time>
      </trkpt>
      <trkpt lat="42.40908" lon="2.69597">
        <ele>1081.2</ele>
        <time>2018-11-26T04:20:17Z</time>
      </trkpt>
      <trkpt lat="42.40908" lon="2.69597">
        <ele>1081.1</ele>
        <time>2018-11-26T04:20:17Z</time>
      </trkpt>
      <trkpt lat="42.40908" lon="2.69597">
        <ele>1081.2</ele>
        <time>2018-11-26T04:20:17Z</time>
      </trkpt>
      <trkpt lat="42.40908" lon="2.69597">
        <ele>1081.3</ele>
        <time>2018-11-26T04:20:17Z</time>
      </trkpt>
      <trkpt lat="42.40908" lon="2.69596">
        <ele>1081.6</ele>
        <time>2018-11-26T04:20:17Z</time>
      </trkpt>
      <trkpt lat="42.40908" lon="2.69596">
        <ele>1081.6</ele>
        <time>2018-11-26T04:20:17Z</time>
      </trkpt>
      <trkpt lat="42.40908" lon="2.69596">
        <ele>1081.7</ele>
        <time>2018-11-26T04:20:17Z</time>
      </trkpt>
      <trkpt lat="42.40908" lon="2.69596">
        <ele>1081.8</ele>
        <time>2018-11-26T04:20:17Z</time>
      </trkpt>
      <trkpt lat="42.40908" lon="2.69596">
        <ele>1081.8</ele>
        <time>2018-11-26T04:20:17Z</time>
      </trkpt>
      <trkpt lat="42.40908" lon="2.69596">
        <ele>1081.7</ele>
        <time>2018-11-26T04:20:17Z</time>
      </trkpt>
      <trkpt lat="42.40908" lon="2.69595">
        <ele>1081.6</ele>
        <time>2018-11-26T04:20:17Z</time>
      </trkpt>
      <trkpt lat="42.40908" lon="2.69595">
        <ele>1081.4</ele>
        <time>2018-11-26T04:20:18Z</time>
      </trkpt>
      <trkpt lat="42.40908" lon="2.69595">
        <ele>1081.4</ele>
        <time>2018-11-26T04:20:18Z</time>
      </trkpt>
      <trkpt lat="42.40908" lon="2.69595">
        <ele>1081.4</ele>
        <time>2018-11-26T04:20:18Z</time>
      </trkpt>
      <trkpt lat="42.40908" lon="2.69595">
        <ele>1081.3</ele>
        <time>2018-11-26T04:20:18Z</time>
      </trkpt>
      <trkpt lat="42.40908" lon="2.69595">
        <ele>1081.4</ele>
        <time>2018-11-26T04:20:18Z</time>
      </trkpt>
      <trkpt lat="42.40907" lon="2.69595">
        <ele>1081.5</ele>
        <time>2018-11-26T04:20:18Z</time>
      </trkpt>
      <trkpt lat="42.40907" lon="2.69595">
        <ele>1081.9</ele>
        <time>2018-11-26T04:20:18Z</time>
      </trkpt>
      <trkpt lat="42.40907" lon="2.69595">
        <ele>1081.7</ele>
        <time>2018-11-26T04:20:18Z</time>
      </trkpt>
      <trkpt lat="42.40907" lon="2.69595">
        <ele>1081.7</ele>
        <time>2018-11-26T04:20:18Z</time>
      </trkpt>
      <trkpt lat="42.40907" lon="2.69594">
        <ele>1081.7</ele>
        <time>2018-11-26T04:20:18Z</time>
      </trkpt>
      <trkpt lat="42.40907" lon="2.69594">
        <ele>1081.5</ele>
        <time>2018-11-26T04:20:18Z</time>
      </trkpt>
      <trkpt lat="42.40907" lon="2.69594">
        <ele>1081.4</ele>
        <time>2018-11-26T04:20:18Z</time>
      </trkpt>
      <trkpt lat="42.40907" lon="2.69595">
        <ele>1081.3</ele>
        <time>2018-11-26T04:20:18Z</time>
      </trkpt>
      <trkpt lat="42.40912" lon="2.69597">
        <ele>1080.5</ele>
        <time>2018-11-26T04:20:20Z</time>
      </trkpt>
      <trkpt lat="42.40912" lon="2.69597">
        <ele>1080.5</ele>
        <time>2018-11-26T04:20:20Z</time>
      </trkpt>
      <trkpt lat="42.40912" lon="2.69597">
        <ele>1080.4</ele>
        <time>2018-11-26T04:20:20Z</time>
      </trkpt>
      <trkpt lat="42.40912" lon="2.69597">
        <ele>1080.2</ele>
        <time>2018-11-26T04:20:21Z</time>
      </trkpt>
      <trkpt lat="42.40912" lon="2.69598">
        <ele>1081.2</ele>
        <time>2018-11-26T04:20:21Z</time>
      </trkpt>
      <trkpt lat="42.40912" lon="2.69598">
        <ele>1081.3</ele>
        <time>2018-11-26T04:20:21Z</time>
      </trkpt>
      <trkpt lat="42.40912" lon="2.69598">
        <ele>1081.4</ele>
        <time>2018-11-26T04:20:21Z</time>
      </trkpt>
      <trkpt lat="42.40912" lon="2.69598">
        <ele>1081.4</ele>
        <time>2018-11-26T04:20:21Z</time>
      </trkpt>
      <trkpt lat="42.40912" lon="2.69598">
        <ele>1081.4</ele>
        <time>2018-11-26T04:20:21Z</time>
      </trkpt>
      <trkpt lat="42.40912" lon="2.69598">
        <ele>1081.4</ele>
        <time>2018-11-26T04:20:21Z</time>
      </trkpt>
      <trkpt lat="42.40912" lon="2.69598">
        <ele>1081.1</ele>
        <time>2018-11-26T04:20:21Z</time>
      </trkpt>
      <trkpt lat="42.40912" lon="2.69598">
        <ele>1080.9</ele>
        <time>2018-11-26T04:20:21Z</time>
      </trkpt>
      <trkpt lat="42.40912" lon="2.69598">
        <ele>1080.8</ele>
        <time>2018-11-26T04:20:21Z</time>
      </trkpt>
      <trkpt lat="42.40912" lon="2.69598">
        <ele>1080.6</ele>
        <time>2018-11-26T04:20:21Z</time>
      </trkpt>
      <trkpt lat="42.40912" lon="2.69598">
        <ele>1080.2</ele>
        <time>2018-11-26T04:20:21Z</time>
      </trkpt>
      <trkpt lat="42.40912" lon="2.69598">
        <ele>1080.3</ele>
        <time>2018-11-26T04:20:21Z</time>
      </trkpt>
      <trkpt lat="42.40912" lon="2.69598">
        <ele>1080.4</ele>
        <time>2018-11-26T04:20:21Z</time>
      </trkpt>
      <trkpt lat="42.40912" lon="2.69598">
        <ele>1080.4</ele>
        <time>2018-11-26T04:20:21Z</time>
      </trkpt>
      <trkpt lat="42.40912" lon="2.69598">
        <ele>1080.5</ele>
        <time>2018-11-26T04:20:21Z</time>
      </trkpt>
      <trkpt lat="42.40912" lon="2.69599">
        <ele>1080.8</ele>
        <time>2018-11-26T04:20:21Z</time>
      </trkpt>
      <trkpt lat="42.40912" lon="2.69599">
        <ele>1081</ele>
        <time>2018-11-26T04:20:21Z</time>
      </trkpt>
      <trkpt lat="42.40912" lon="2.69599">
        <ele>1081.4</ele>
        <time>2018-11-26T04:20:21Z</time>
      </trkpt>
      <trkpt lat="42.40912" lon="2.69599">
        <ele>1081.5</ele>
        <time>2018-11-26T04:20:21Z</time>
      </trkpt>
      <trkpt lat="42.40912" lon="2.69599">
        <ele>1081.4</ele>
        <time>2018-11-26T04:20:21Z</time>
      </trkpt>
      <trkpt lat="42.40912" lon="2.69599">
        <ele>1081.6</ele>
        <time>2018-11-26T04:20:21Z</time>
      </trkpt>
      <trkpt lat="42.40912" lon="2.69599">
        <ele>1081.5</ele>
        <time>2018-11-26T04:20:21Z</time>
      </trkpt>
      <trkpt lat="42.40912" lon="2.69599">
        <ele>1081.5</ele>
        <time>2018-11-26T04:20:21Z</time>
      </trkpt>
      <trkpt lat="42.40912" lon="2.69598">
        <ele>1081.5</ele>
        <time>2018-11-26T04:20:21Z</time>
      </trkpt>
      <trkpt lat="42.40912" lon="2.69599">
        <ele>1081.6</ele>
        <time>2018-11-26T04:20:21Z</time>
      </trkpt>
      <trkpt lat="42.40912" lon="2.69599">
        <ele>1081.9</ele>
        <time>2018-11-26T04:20:21Z</time>
      </trkpt>
      <trkpt lat="42.40912" lon="2.69598">
        <ele>1082</ele>
        <time>2018-11-26T04:20:21Z</time>
      </trkpt>
      <trkpt lat="42.40912" lon="2.69598">
        <ele>1081.8</ele>
        <time>2018-11-26T04:20:21Z</time>
      </trkpt>
      <trkpt lat="42.40912" lon="2.69598">
        <ele>1081.7</ele>
        <time>2018-11-26T04:20:21Z</time>
      </trkpt>
      <trkpt lat="42.40912" lon="2.69598">
        <ele>1081.3</ele>
        <time>2018-11-26T04:20:21Z</time>
      </trkpt>
      <trkpt lat="42.40911" lon="2.69598">
        <ele>1080.9</ele>
        <time>2018-11-26T04:20:22Z</time>
      </trkpt>
      <trkpt lat="42.40911" lon="2.69598">
        <ele>1080.9</ele>
        <time>2018-11-26T04:20:22Z</time>
      </trkpt>
      <trkpt lat="42.40911" lon="2.69598">
        <ele>1080.9</ele>
        <time>2018-11-26T04:20:22Z</time>
      </trkpt>
      <trkpt lat="42.40911" lon="2.69598">
        <ele>1080.9</ele>
        <time>2018-11-26T04:20:22Z</time>
      </trkpt>
      <trkpt lat="42.40911" lon="2.69598">
        <ele>1080.8</ele>
        <time>2018-11-26T04:20:22Z</time>
      </trkpt>
      <trkpt lat="42.40911" lon="2.69598">
        <ele>1080.7</ele>
        <time>2018-11-26T04:20:22Z</time>
      </trkpt>
      <trkpt lat="42.40911" lon="2.69598">
        <ele>1080.4</ele>
        <time>2018-11-26T04:20:22Z</time>
      </trkpt>
      <trkpt lat="42.40911" lon="2.69598">
        <ele>1080.9</ele>
        <time>2018-11-26T04:20:22Z</time>
      </trkpt>
      <trkpt lat="42.40911" lon="2.69598">
        <ele>1081.3</ele>
        <time>2018-11-26T04:20:22Z</time>
      </trkpt>
      <trkpt lat="42.40911" lon="2.69598">
        <ele>1081.7</ele>
        <time>2018-11-26T04:20:22Z</time>
      </trkpt>
      <trkpt lat="42.40911" lon="2.69598">
        <ele>1081.9</ele>
        <time>2018-11-26T04:20:22Z</time>
      </trkpt>
      <trkpt lat="42.40911" lon="2.69598">
        <ele>1082.1</ele>
        <time>2018-11-26T04:20:22Z</time>
      </trkpt>
      <trkpt lat="42.40911" lon="2.69598">
        <ele>1082.2</ele>
        <time>2018-11-26T04:20:22Z</time>
      </trkpt>
      <trkpt lat="42.40912" lon="2.69598">
        <ele>1081.4</ele>
        <time>2018-11-26T04:20:22Z</time>
      </trkpt>
      <trkpt lat="42.40912" lon="2.69598">
        <ele>1081.6</ele>
        <time>2018-11-26T04:20:22Z</time>
      </trkpt>
      <trkpt lat="42.40912" lon="2.69598">
        <ele>1081.7</ele>
        <time>2018-11-26T04:20:22Z</time>
      </trkpt>
      <trkpt lat="42.40912" lon="2.69598">
        <ele>1081.8</ele>
        <time>2018-11-26T04:20:22Z</time>
      </trkpt>
      <trkpt lat="42.40912" lon="2.69598">
        <ele>1081.6</ele>
        <time>2018-11-26T04:20:22Z</time>
      </trkpt>
      <trkpt lat="42.40912" lon="2.69598">
        <ele>1081.5</ele>
        <time>2018-11-26T04:20:22Z</time>
      </trkpt>
      <trkpt lat="42.40912" lon="2.69598">
        <ele>1081.3</ele>
        <time>2018-11-26T04:20:22Z</time>
      </trkpt>
      <trkpt lat="42.40912" lon="2.69598">
        <ele>1081.2</ele>
        <time>2018-11-26T04:20:22Z</time>
      </trkpt>
      <trkpt lat="42.40912" lon="2.69598">
        <ele>1081</ele>
        <time>2018-11-26T04:20:22Z</time>
      </trkpt>
      <trkpt lat="42.40912" lon="2.69598">
        <ele>1080.9</ele>
        <time>2018-11-26T04:20:22Z</time>
      </trkpt>
      <trkpt lat="42.40912" lon="2.69598">
        <ele>1080.6</ele>
        <time>2018-11-26T04:20:22Z</time>
      </trkpt>
      <trkpt lat="42.40912" lon="2.69598">
        <ele>1080.2</ele>
        <time>2018-11-26T04:20:22Z</time>
      </trkpt>
      <trkpt lat="42.40912" lon="2.69598">
        <ele>1080.4</ele>
        <time>2018-11-26T04:20:22Z</time>
      </trkpt>
      <trkpt lat="42.40912" lon="2.69598">
        <ele>1080.7</ele>
        <time>2018-11-26T04:20:22Z</time>
      </trkpt>
      <trkpt lat="42.40912" lon="2.69598">
        <ele>1080.8</ele>
        <time>2018-11-26T04:20:22Z</time>
      </trkpt>
      <trkpt lat="42.40912" lon="2.69598">
        <ele>1081.2</ele>
        <time>2018-11-26T04:20:22Z</time>
      </trkpt>
      <trkpt lat="42.4091" lon="2.69597">
        <ele>1081.9</ele>
        <time>2018-11-26T04:20:23Z</time>
      </trkpt>
      <trkpt lat="42.4091" lon="2.69597">
        <ele>1081.7</ele>
        <time>2018-11-26T04:20:23Z</time>
      </trkpt>
      <trkpt lat="42.4091" lon="2.69597">
        <ele>1081.5</ele>
        <time>2018-11-26T04:20:23Z</time>
      </trkpt>
      <trkpt lat="42.4091" lon="2.69597">
        <ele>1081.6</ele>
        <time>2018-11-26T04:20:23Z</time>
      </trkpt>
      <trkpt lat="42.4091" lon="2.69597">
        <ele>1081.8</ele>
        <time>2018-11-26T04:20:23Z</time>
      </trkpt>
      <trkpt lat="42.4091" lon="2.69597">
        <ele>1082.1</ele>
        <time>2018-11-26T04:20:23Z</time>
      </trkpt>
      <trkpt lat="42.4091" lon="2.69597">
        <ele>1082.1</ele>
        <time>2018-11-26T04:20:23Z</time>
      </trkpt>
      <trkpt lat="42.4091" lon="2.69597">
        <ele>1082.2</ele>
        <time>2018-11-26T04:20:23Z</time>
      </trkpt>
      <trkpt lat="42.40911" lon="2.69598">
        <ele>1080.2</ele>
        <time>2018-11-26T04:20:23Z</time>
      </trkpt>
      <trkpt lat="42.40911" lon="2.69598">
        <ele>1079.7</ele>
        <time>2018-11-26T04:20:24Z</time>
      </trkpt>
      <trkpt lat="42.40911" lon="2.69598">
        <ele>1080</ele>
        <time>2018-11-26T04:20:24Z</time>
      </trkpt>
      <trkpt lat="42.40911" lon="2.69599">
        <ele>1080.5</ele>
        <time>2018-11-26T04:20:24Z</time>
      </trkpt>
      <trkpt lat="42.40911" lon="2.69599">
        <ele>1080.9</ele>
        <time>2018-11-26T04:20:24Z</time>
      </trkpt>
      <trkpt lat="42.40911" lon="2.69599">
        <ele>1080.7</ele>
        <time>2018-11-26T04:20:24Z</time>
      </trkpt>
      <trkpt lat="42.40911" lon="2.69599">
        <ele>1080.6</ele>
        <time>2018-11-26T04:20:24Z</time>
      </trkpt>
      <trkpt lat="42.40911" lon="2.69599">
        <ele>1080.4</ele>
        <time>2018-11-26T04:20:24Z</time>
      </trkpt>
      <trkpt lat="42.40911" lon="2.69599">
        <ele>1080.5</ele>
        <time>2018-11-26T04:20:24Z</time>
      </trkpt>
      <trkpt lat="42.40911" lon="2.69599">
        <ele>1080.4</ele>
        <time>2018-11-26T04:20:24Z</time>
      </trkpt>
      <trkpt lat="42.40911" lon="2.69599">
        <ele>1080.3</ele>
        <time>2018-11-26T04:20:24Z</time>
      </trkpt>
      <trkpt lat="42.40911" lon="2.69599">
        <ele>1080.3</ele>
        <time>2018-11-26T04:20:24Z</time>
      </trkpt>
      <trkpt lat="42.40911" lon="2.69599">
        <ele>1080.1</ele>
        <time>2018-11-26T04:20:24Z</time>
      </trkpt>
      <trkpt lat="42.40911" lon="2.69599">
        <ele>1080</ele>
        <time>2018-11-26T04:20:24Z</time>
      </trkpt>
      <trkpt lat="42.40911" lon="2.696">
        <ele>1080</ele>
        <time>2018-11-26T04:20:24Z</time>
      </trkpt>
      <trkpt lat="42.40911" lon="2.696">
        <ele>1080.2</ele>
        <time>2018-11-26T04:20:24Z</time>
      </trkpt>
      <trkpt lat="42.40911" lon="2.696">
        <ele>1080.4</ele>
        <time>2018-11-26T04:20:24Z</time>
      </trkpt>
      <trkpt lat="42.40911" lon="2.696">
        <ele>1080.7</ele>
        <time>2018-11-26T04:20:24Z</time>
      </trkpt>
      <trkpt lat="42.40911" lon="2.696">
        <ele>1081</ele>
        <time>2018-11-26T04:20:24Z</time>
      </trkpt>
      <trkpt lat="42.40911" lon="2.696">
        <ele>1081.1</ele>
        <time>2018-11-26T04:20:24Z</time>
      </trkpt>
      <trkpt lat="42.40911" lon="2.696">
        <ele>1081.4</ele>
        <time>2018-11-26T04:20:24Z</time>
      </trkpt>
      <trkpt lat="42.40911" lon="2.696">
        <ele>1081.6</ele>
        <time>2018-11-26T04:20:24Z</time>
      </trkpt>
      <trkpt lat="42.40911" lon="2.696">
        <ele>1081.7</ele>
        <time>2018-11-26T04:20:24Z</time>
      </trkpt>
      <trkpt lat="42.40911" lon="2.696">
        <ele>1081.8</ele>
        <time>2018-11-26T04:20:24Z</time>
      </trkpt>
      <trkpt lat="42.40911" lon="2.696">
        <ele>1081.7</ele>
        <time>2018-11-26T04:20:24Z</time>
      </trkpt>
      <trkpt lat="42.40911" lon="2.696">
        <ele>1081.5</ele>
        <time>2018-11-26T04:20:24Z</time>
      </trkpt>
      <trkpt lat="42.40911" lon="2.696">
        <ele>1081.4</ele>
        <time>2018-11-26T04:20:24Z</time>
      </trkpt>
      <trkpt lat="42.40911" lon="2.696">
        <ele>1081.4</ele>
        <time>2018-11-26T04:20:24Z</time>
      </trkpt>
      <trkpt lat="42.40911" lon="2.696">
        <ele>1081.5</ele>
        <time>2018-11-26T04:20:24Z</time>
      </trkpt>
      <trkpt lat="42.40911" lon="2.696">
        <ele>1081.7</ele>
        <time>2018-11-26T04:20:24Z</time>
      </trkpt>
      <trkpt lat="42.40911" lon="2.696">
        <ele>1081.6</ele>
        <time>2018-11-26T04:20:24Z</time>
      </trkpt>
      <trkpt lat="42.40911" lon="2.696">
        <ele>1081.4</ele>
        <time>2018-11-26T04:20:24Z</time>
      </trkpt>
      <trkpt lat="42.40911" lon="2.696">
        <ele>1081.2</ele>
        <time>2018-11-26T04:20:24Z</time>
      </trkpt>
      <trkpt lat="42.40911" lon="2.696">
        <ele>1081.3</ele>
        <time>2018-11-26T04:20:24Z</time>
      </trkpt>
      <trkpt lat="42.40911" lon="2.696">
        <ele>1081.4</ele>
        <time>2018-11-26T04:20:25Z</time>
      </trkpt>
      <trkpt lat="42.40911" lon="2.696">
        <ele>1081.5</ele>
        <time>2018-11-26T04:20:25Z</time>
      </trkpt>
      <trkpt lat="42.40911" lon="2.696">
        <ele>1081.6</ele>
        <time>2018-11-26T04:20:25Z</time>
      </trkpt>
      <trkpt lat="42.40911" lon="2.696">
        <ele>1081.4</ele>
        <time>2018-11-26T04:20:25Z</time>
      </trkpt>
      <trkpt lat="42.40911" lon="2.69601">
        <ele>1081.2</ele>
        <time>2018-11-26T04:20:25Z</time>
      </trkpt>
      <trkpt lat="42.40911" lon="2.69601">
        <ele>1080.9</ele>
        <time>2018-11-26T04:20:25Z</time>
      </trkpt>
      <trkpt lat="42.40911" lon="2.69601">
        <ele>1080.9</ele>
        <time>2018-11-26T04:20:25Z</time>
      </trkpt>
      <trkpt lat="42.40911" lon="2.69601">
        <ele>1081.2</ele>
        <time>2018-11-26T04:20:25Z</time>
      </trkpt>
      <trkpt lat="42.40911" lon="2.69601">
        <ele>1081.4</ele>
        <time>2018-11-26T04:20:25Z</time>
      </trkpt>
      <trkpt lat="42.40911" lon="2.69601">
        <ele>1081.1</ele>
        <time>2018-11-26T04:20:25Z</time>
      </trkpt>
      <trkpt lat="42.4091" lon="2.69601">
        <ele>1080.7</ele>
        <time>2018-11-26T04:20:25Z</time>
      </trkpt>
      <trkpt lat="42.4091" lon="2.69601">
        <ele>1079.9</ele>
        <time>2018-11-26T04:20:25Z</time>
      </trkpt>
      <trkpt lat="42.4091" lon="2.69601">
        <ele>1079.9</ele>
        <time>2018-11-26T04:20:25Z</time>
      </trkpt>
      <trkpt lat="42.4091" lon="2.69601">
        <ele>1079.9</ele>
        <time>2018-11-26T04:20:25Z</time>
      </trkpt>
      <trkpt lat="42.4091" lon="2.69601">
        <ele>1079.9</ele>
        <time>2018-11-26T04:20:25Z</time>
      </trkpt>
      <trkpt lat="42.4091" lon="2.69601">
        <ele>1079.9</ele>
        <time>2018-11-26T04:20:25Z</time>
      </trkpt>
      <trkpt lat="42.4091" lon="2.69601">
        <ele>1080</ele>
        <time>2018-11-26T04:20:25Z</time>
      </trkpt>
      <trkpt lat="42.4091" lon="2.69601">
        <ele>1080.1</ele>
        <time>2018-11-26T04:20:25Z</time>
      </trkpt>
      <trkpt lat="42.4091" lon="2.69601">
        <ele>1080.2</ele>
        <time>2018-11-26T04:20:25Z</time>
      </trkpt>
      <trkpt lat="42.4091" lon="2.69601">
        <ele>1080.3</ele>
        <time>2018-11-26T04:20:25Z</time>
      </trkpt>
      <trkpt lat="42.4091" lon="2.69601">
        <ele>1080.4</ele>
        <time>2018-11-26T04:20:25Z</time>
      </trkpt>
      <trkpt lat="42.4091" lon="2.69601">
        <ele>1080.6</ele>
        <time>2018-11-26T04:20:25Z</time>
      </trkpt>
      <trkpt lat="42.4091" lon="2.69601">
        <ele>1080.8</ele>
        <time>2018-11-26T04:20:25Z</time>
      </trkpt>
      <trkpt lat="42.4091" lon="2.69601">
        <ele>1081.1</ele>
        <time>2018-11-26T04:20:25Z</time>
      </trkpt>
      <trkpt lat="42.4091" lon="2.69601">
        <ele>1081.5</ele>
        <time>2018-11-26T04:20:25Z</time>
      </trkpt>
      <trkpt lat="42.4091" lon="2.69601">
        <ele>1081.5</ele>
        <time>2018-11-26T04:20:25Z</time>
      </trkpt>
      <trkpt lat="42.4091" lon="2.69601">
        <ele>1081.3</ele>
        <time>2018-11-26T04:20:25Z</time>
      </trkpt>
      <trkpt lat="42.4091" lon="2.69601">
        <ele>1081.2</ele>
        <time>2018-11-26T04:20:25Z</time>
      </trkpt>
      <trkpt lat="42.4091" lon="2.69601">
        <ele>1081.2</ele>
        <time>2018-11-26T04:20:25Z</time>
      </trkpt>
      <trkpt lat="42.4091" lon="2.69601">
        <ele>1081.1</ele>
        <time>2018-11-26T04:20:25Z</time>
      </trkpt>
      <trkpt lat="42.4091" lon="2.69601">
        <ele>1081.1</ele>
        <time>2018-11-26T04:20:25Z</time>
      </trkpt>
      <trkpt lat="42.4091" lon="2.69601">
        <ele>1081.2</ele>
        <time>2018-11-26T04:20:25Z</time>
      </trkpt>
      <trkpt lat="42.4091" lon="2.69601">
        <ele>1081.1</ele>
        <time>2018-11-26T04:20:25Z</time>
      </trkpt>
      <trkpt lat="42.4091" lon="2.69601">
        <ele>1081.1</ele>
        <time>2018-11-26T04:20:25Z</time>
      </trkpt>
      <trkpt lat="42.4091" lon="2.69601">
        <ele>1081.3</ele>
        <time>2018-11-26T04:20:25Z</time>
      </trkpt>
      <trkpt lat="42.4091" lon="2.69601">
        <ele>1081.2</ele>
        <time>2018-11-26T04:20:25Z</time>
      </trkpt>
      <trkpt lat="42.4091" lon="2.69601">
        <ele>1081.3</ele>
        <time>2018-11-26T04:20:25Z</time>
      </trkpt>
      <trkpt lat="42.4091" lon="2.69601">
        <ele>1081.4</ele>
        <time>2018-11-26T04:20:25Z</time>
      </trkpt>
      <trkpt lat="42.4091" lon="2.69601">
        <ele>1081.3</ele>
        <time>2018-11-26T04:20:25Z</time>
      </trkpt>
      <trkpt lat="42.4091" lon="2.69601">
        <ele>1081.4</ele>
        <time>2018-11-26T04:20:25Z</time>
      </trkpt>
      <trkpt lat="42.4091" lon="2.69601">
        <ele>1081.4</ele>
        <time>2018-11-26T04:20:25Z</time>
      </trkpt>
      <trkpt lat="42.4091" lon="2.69601">
        <ele>1081.3</ele>
        <time>2018-11-26T04:20:25Z</time>
      </trkpt>
      <trkpt lat="42.4091" lon="2.69601">
        <ele>1081.2</ele>
        <time>2018-11-26T04:20:25Z</time>
      </trkpt>
      <trkpt lat="42.4091" lon="2.69601">
        <ele>1081.1</ele>
        <time>2018-11-26T04:20:25Z</time>
      </trkpt>
      <trkpt lat="42.4091" lon="2.69601">
        <ele>1081.2</ele>
        <time>2018-11-26T04:20:25Z</time>
      </trkpt>
      <trkpt lat="42.4091" lon="2.69601">
        <ele>1081.3</ele>
        <time>2018-11-26T04:20:25Z</time>
      </trkpt>
      <trkpt lat="42.4091" lon="2.69601">
        <ele>1081.3</ele>
        <time>2018-11-26T04:20:25Z</time>
      </trkpt>
      <trkpt lat="42.4091" lon="2.69601">
        <ele>1081.4</ele>
        <time>2018-11-26T04:20:25Z</time>
      </trkpt>
      <trkpt lat="42.4091" lon="2.69601">
        <ele>1081.3</ele>
        <time>2018-11-26T04:20:25Z</time>
      </trkpt>
      <trkpt lat="42.4091" lon="2.69601">
        <ele>1081.4</ele>
        <time>2018-11-26T04:20:25Z</time>
      </trkpt>
      <trkpt lat="42.40909" lon="2.696">
        <ele>1081.5</ele>
        <time>2018-11-26T04:20:26Z</time>
      </trkpt>
      <trkpt lat="42.40909" lon="2.696">
        <ele>1081.4</ele>
        <time>2018-11-26T04:20:26Z</time>
      </trkpt>
      <trkpt lat="42.40909" lon="2.696">
        <ele>1081.2</ele>
        <time>2018-11-26T04:20:26Z</time>
      </trkpt>
      <trkpt lat="42.40909" lon="2.696">
        <ele>1081.2</ele>
        <time>2018-11-26T04:20:26Z</time>
      </trkpt>
      <trkpt lat="42.40909" lon="2.696">
        <ele>1081.2</ele>
        <time>2018-11-26T04:20:26Z</time>
      </trkpt>
      <trkpt lat="42.40909" lon="2.696">
        <ele>1081.2</ele>
        <time>2018-11-26T04:20:26Z</time>
      </trkpt>
      <trkpt lat="42.40909" lon="2.696">
        <ele>1081</ele>
        <time>2018-11-26T04:20:26Z</time>
      </trkpt>
      <trkpt lat="42.40909" lon="2.696">
        <ele>1081.1</ele>
        <time>2018-11-26T04:20:26Z</time>
      </trkpt>
      <trkpt lat="42.40909" lon="2.696">
        <ele>1081.4</ele>
        <time>2018-11-26T04:20:26Z</time>
      </trkpt>
      <trkpt lat="42.40909" lon="2.696">
        <ele>1081.6</ele>
        <time>2018-11-26T04:20:26Z</time>
      </trkpt>
      <trkpt lat="42.40909" lon="2.696">
        <ele>1081.5</ele>
        <time>2018-11-26T04:20:26Z</time>
      </trkpt>
      <trkpt lat="42.40909" lon="2.696">
        <ele>1081.4</ele>
        <time>2018-11-26T04:20:26Z</time>
      </trkpt>
      <trkpt lat="42.40909" lon="2.696">
        <ele>1081.1</ele>
        <time>2018-11-26T04:20:26Z</time>
      </trkpt>
      <trkpt lat="42.40909" lon="2.696">
        <ele>1081</ele>
        <time>2018-11-26T04:20:26Z</time>
      </trkpt>
      <trkpt lat="42.40909" lon="2.696">
        <ele>1081</ele>
        <time>2018-11-26T04:20:26Z</time>
      </trkpt>
      <trkpt lat="42.40909" lon="2.696">
        <ele>1080.8</ele>
        <time>2018-11-26T04:20:26Z</time>
      </trkpt>
      <trkpt lat="42.40909" lon="2.696">
        <ele>1080.5</ele>
        <time>2018-11-26T04:20:26Z</time>
      </trkpt>
      <trkpt lat="42.40909" lon="2.69601">
        <ele>1080.8</ele>
        <time>2018-11-26T04:20:26Z</time>
      </trkpt>
      <trkpt lat="42.40909" lon="2.69601">
        <ele>1081</ele>
        <time>2018-11-26T04:20:26Z</time>
      </trkpt>
      <trkpt lat="42.40909" lon="2.69601">
        <ele>1081.4</ele>
        <time>2018-11-26T04:20:26Z</time>
      </trkpt>
      <trkpt lat="42.40909" lon="2.69601">
        <ele>1081.3</ele>
        <time>2018-11-26T04:20:26Z</time>
      </trkpt>
      <trkpt lat="42.40909" lon="2.69601">
        <ele>1081.2</ele>
        <time>2018-11-26T04:20:26Z</time>
      </trkpt>
      <trkpt lat="42.40909" lon="2.69601">
        <ele>1081</ele>
        <time>2018-11-26T04:20:26Z</time>
      </trkpt>
      <trkpt lat="42.40909" lon="2.696">
        <ele>1081.1</ele>
        <time>2018-11-26T04:20:26Z</time>
      </trkpt>
      <trkpt lat="42.40909" lon="2.696">
        <ele>1081.2</ele>
        <time>2018-11-26T04:20:26Z</time>
      </trkpt>
      <trkpt lat="42.40909" lon="2.696">
        <ele>1081.4</ele>
        <time>2018-11-26T04:20:26Z</time>
      </trkpt>
      <trkpt lat="42.40909" lon="2.696">
        <ele>1081.2</ele>
        <time>2018-11-26T04:20:26Z</time>
      </trkpt>
      <trkpt lat="42.40909" lon="2.696">
        <ele>1081</ele>
        <time>2018-11-26T04:20:26Z</time>
      </trkpt>
      <trkpt lat="42.40909" lon="2.696">
        <ele>1080.8</ele>
        <time>2018-11-26T04:20:26Z</time>
      </trkpt>
      <trkpt lat="42.40909" lon="2.696">
        <ele>1080.9</ele>
        <time>2018-11-26T04:20:26Z</time>
      </trkpt>
      <trkpt lat="42.40909" lon="2.696">
        <ele>1081</ele>
        <time>2018-11-26T04:20:26Z</time>
      </trkpt>
      <trkpt lat="42.40909" lon="2.696">
        <ele>1081.1</ele>
        <time>2018-11-26T04:20:26Z</time>
      </trkpt>
      <trkpt lat="42.40908" lon="2.696">
        <ele>1081.4</ele>
        <time>2018-11-26T04:20:26Z</time>
      </trkpt>
      <trkpt lat="42.40908" lon="2.696">
        <ele>1081.3</ele>
        <time>2018-11-26T04:20:26Z</time>
      </trkpt>
      <trkpt lat="42.40908" lon="2.696">
        <ele>1081.3</ele>
        <time>2018-11-26T04:20:26Z</time>
      </trkpt>
      <trkpt lat="42.40908" lon="2.696">
        <ele>1081.1</ele>
        <time>2018-11-26T04:20:26Z</time>
      </trkpt>
      <trkpt lat="42.40908" lon="2.696">
        <ele>1081</ele>
        <time>2018-11-26T04:20:26Z</time>
      </trkpt>
      <trkpt lat="42.40908" lon="2.696">
        <ele>1080.9</ele>
        <time>2018-11-26T04:20:26Z</time>
      </trkpt>
      <trkpt lat="42.40908" lon="2.69601">
        <ele>1080.8</ele>
        <time>2018-11-26T04:20:26Z</time>
      </trkpt>
      <trkpt lat="42.40908" lon="2.69601">
        <ele>1080.8</ele>
        <time>2018-11-26T04:20:26Z</time>
      </trkpt>
      <trkpt lat="42.40908" lon="2.69601">
        <ele>1080.8</ele>
        <time>2018-11-26T04:20:26Z</time>
      </trkpt>
      <trkpt lat="42.40908" lon="2.69601">
        <ele>1080.7</ele>
        <time>2018-11-26T04:20:26Z</time>
      </trkpt>
      <trkpt lat="42.40908" lon="2.69601">
        <ele>1080.6</ele>
        <time>2018-11-26T04:20:26Z</time>
      </trkpt>
      <trkpt lat="42.40908" lon="2.69601">
        <ele>1080.5</ele>
        <time>2018-11-26T04:20:26Z</time>
      </trkpt>
      <trkpt lat="42.40908" lon="2.69601">
        <ele>1080.4</ele>
        <time>2018-11-26T04:20:26Z</time>
      </trkpt>
      <trkpt lat="42.40908" lon="2.69601">
        <ele>1080.2</ele>
        <time>2018-11-26T04:20:26Z</time>
      </trkpt>
      <trkpt lat="42.40908" lon="2.69601">
        <ele>1080.2</ele>
        <time>2018-11-26T04:20:26Z</time>
      </trkpt>
      <trkpt lat="42.40908" lon="2.69601">
        <ele>1080.1</ele>
        <time>2018-11-26T04:20:26Z</time>
      </trkpt>
      <trkpt lat="42.40908" lon="2.69601">
        <ele>1080.3</ele>
        <time>2018-11-26T04:20:26Z</time>
      </trkpt>
      <trkpt lat="42.40908" lon="2.69601">
        <ele>1080.5</ele>
        <time>2018-11-26T04:20:26Z</time>
      </trkpt>
      <trkpt lat="42.40908" lon="2.69601">
        <ele>1080.8</ele>
        <time>2018-11-26T04:20:26Z</time>
      </trkpt>
      <trkpt lat="42.40908" lon="2.69601">
        <ele>1081.4</ele>
        <time>2018-11-26T04:20:26Z</time>
      </trkpt>
      <trkpt lat="42.40908" lon="2.69601">
        <ele>1081.1</ele>
        <time>2018-11-26T04:20:26Z</time>
      </trkpt>
      <trkpt lat="42.40908" lon="2.69601">
        <ele>1080.9</ele>
        <time>2018-11-26T04:20:26Z</time>
      </trkpt>
      <trkpt lat="42.40908" lon="2.69601">
        <ele>1080.7</ele>
        <time>2018-11-26T04:20:26Z</time>
      </trkpt>
      <trkpt lat="42.40908" lon="2.69601">
        <ele>1080.7</ele>
        <time>2018-11-26T04:20:27Z</time>
      </trkpt>
      <trkpt lat="42.40908" lon="2.69601">
        <ele>1080.8</ele>
        <time>2018-11-26T04:20:27Z</time>
      </trkpt>
      <trkpt lat="42.40908" lon="2.69601">
        <ele>1080.7</ele>
        <time>2018-11-26T04:20:27Z</time>
      </trkpt>
      <trkpt lat="42.40908" lon="2.69601">
        <ele>1080.7</ele>
        <time>2018-11-26T04:20:27Z</time>
      </trkpt>
      <trkpt lat="42.40908" lon="2.69602">
        <ele>1080.7</ele>
        <time>2018-11-26T04:20:27Z</time>
      </trkpt>
      <trkpt lat="42.40908" lon="2.69602">
        <ele>1080.7</ele>
        <time>2018-11-26T04:20:27Z</time>
      </trkpt>
      <trkpt lat="42.40908" lon="2.69602">
        <ele>1080.9</ele>
        <time>2018-11-26T04:20:27Z</time>
      </trkpt>
      <trkpt lat="42.40908" lon="2.69602">
        <ele>1081.1</ele>
        <time>2018-11-26T04:20:27Z</time>
      </trkpt>
      <trkpt lat="42.40908" lon="2.69602">
        <ele>1081.5</ele>
        <time>2018-11-26T04:20:27Z</time>
      </trkpt>
      <trkpt lat="42.40908" lon="2.69602">
        <ele>1081.4</ele>
        <time>2018-11-26T04:20:27Z</time>
      </trkpt>
      <trkpt lat="42.40908" lon="2.69602">
        <ele>1081.3</ele>
        <time>2018-11-26T04:20:27Z</time>
      </trkpt>
      <trkpt lat="42.40908" lon="2.69602">
        <ele>1081.2</ele>
        <time>2018-11-26T04:20:27Z</time>
      </trkpt>
      <trkpt lat="42.40908" lon="2.69602">
        <ele>1081.1</ele>
        <time>2018-11-26T04:20:27Z</time>
      </trkpt>
      <trkpt lat="42.40908" lon="2.69602">
        <ele>1081.3</ele>
        <time>2018-11-26T04:20:27Z</time>
      </trkpt>
      <trkpt lat="42.40908" lon="2.69602">
        <ele>1081.6</ele>
        <time>2018-11-26T04:20:27Z</time>
      </trkpt>
      <trkpt lat="42.40908" lon="2.69602">
        <ele>1082</ele>
        <time>2018-11-26T04:20:27Z</time>
      </trkpt>
      <trkpt lat="42.40908" lon="2.69602">
        <ele>1081.8</ele>
        <time>2018-11-26T04:20:27Z</time>
      </trkpt>
      <trkpt lat="42.40908" lon="2.69602">
        <ele>1081.6</ele>
        <time>2018-11-26T04:20:27Z</time>
      </trkpt>
      <trkpt lat="42.40908" lon="2.69602">
        <ele>1081.2</ele>
        <time>2018-11-26T04:20:27Z</time>
      </trkpt>
      <trkpt lat="42.40908" lon="2.69602">
        <ele>1081.4</ele>
        <time>2018-11-26T04:20:27Z</time>
      </trkpt>
      <trkpt lat="42.40908" lon="2.69602">
        <ele>1081.4</ele>
        <time>2018-11-26T04:20:27Z</time>
      </trkpt>
      <trkpt lat="42.40908" lon="2.69602">
        <ele>1081.6</ele>
        <time>2018-11-26T04:20:27Z</time>
      </trkpt>
      <trkpt lat="42.40908" lon="2.69601">
        <ele>1081.5</ele>
        <time>2018-11-26T04:20:27Z</time>
      </trkpt>
      <trkpt lat="42.40908" lon="2.69601">
        <ele>1081.2</ele>
        <time>2018-11-26T04:20:27Z</time>
      </trkpt>
      <trkpt lat="42.40908" lon="2.69601">
        <ele>1081.1</ele>
        <time>2018-11-26T04:20:27Z</time>
      </trkpt>
      <trkpt lat="42.40908" lon="2.69601">
        <ele>1081.1</ele>
        <time>2018-11-26T04:20:27Z</time>
      </trkpt>
      <trkpt lat="42.40908" lon="2.69601">
        <ele>1081.2</ele>
        <time>2018-11-26T04:20:27Z</time>
      </trkpt>
      <trkpt lat="42.40908" lon="2.69601">
        <ele>1081.1</ele>
        <time>2018-11-26T04:20:28Z</time>
      </trkpt>
      <trkpt lat="42.40908" lon="2.69601">
        <ele>1081.2</ele>
        <time>2018-11-26T04:20:28Z</time>
      </trkpt>
      <trkpt lat="42.40908" lon="2.696">
        <ele>1081</ele>
        <time>2018-11-26T04:20:28Z</time>
      </trkpt>
      <trkpt lat="42.40908" lon="2.696">
        <ele>1080.7</ele>
        <time>2018-11-26T04:20:28Z</time>
      </trkpt>
      <trkpt lat="42.40908" lon="2.696">
        <ele>1080.4</ele>
        <time>2018-11-26T04:20:28Z</time>
      </trkpt>
      <trkpt lat="42.40908" lon="2.696">
        <ele>1080.7</ele>
        <time>2018-11-26T04:20:28Z</time>
      </trkpt>
      <trkpt lat="42.40908" lon="2.696">
        <ele>1080.9</ele>
        <time>2018-11-26T04:20:28Z</time>
      </trkpt>
      <trkpt lat="42.40908" lon="2.696">
        <ele>1081.2</ele>
        <time>2018-11-26T04:20:28Z</time>
      </trkpt>
      <trkpt lat="42.40908" lon="2.69599">
        <ele>1080.9</ele>
        <time>2018-11-26T04:20:28Z</time>
      </trkpt>
      <trkpt lat="42.40908" lon="2.69599">
        <ele>1080.9</ele>
        <time>2018-11-26T04:20:28Z</time>
      </trkpt>
      <trkpt lat="42.40908" lon="2.69599">
        <ele>1080.6</ele>
        <time>2018-11-26T04:20:28Z</time>
      </trkpt>
      <trkpt lat="42.40908" lon="2.69599">
        <ele>1080.6</ele>
        <time>2018-11-26T04:20:28Z</time>
      </trkpt>
      <trkpt lat="42.40908" lon="2.69599">
        <ele>1080.7</ele>
        <time>2018-11-26T04:20:28Z</time>
      </trkpt>
      <trkpt lat="42.40908" lon="2.69599">
        <ele>1080.9</ele>
        <time>2018-11-26T04:20:28Z</time>
      </trkpt>
      <trkpt lat="42.40908" lon="2.69599">
        <ele>1081.1</ele>
        <time>2018-11-26T04:20:28Z</time>
      </trkpt>
      <trkpt lat="42.40908" lon="2.69599">
        <ele>1081.3</ele>
        <time>2018-11-26T04:20:28Z</time>
      </trkpt>
      <trkpt lat="42.40908" lon="2.69599">
        <ele>1081.6</ele>
        <time>2018-11-26T04:20:28Z</time>
      </trkpt>
      <trkpt lat="42.40907" lon="2.69599">
        <ele>1082</ele>
        <time>2018-11-26T04:20:28Z</time>
      </trkpt>
      <trkpt lat="42.40907" lon="2.69599">
        <ele>1081.9</ele>
        <time>2018-11-26T04:20:28Z</time>
      </trkpt>
      <trkpt lat="42.40907" lon="2.69599">
        <ele>1081.6</ele>
        <time>2018-11-26T04:20:29Z</time>
      </trkpt>
      <trkpt lat="42.40907" lon="2.69599">
        <ele>1081.2</ele>
        <time>2018-11-26T04:20:29Z</time>
      </trkpt>
      <trkpt lat="42.40907" lon="2.69598">
        <ele>1081.2</ele>
        <time>2018-11-26T04:20:29Z</time>
      </trkpt>
      <trkpt lat="42.40907" lon="2.69598">
        <ele>1081.2</ele>
        <time>2018-11-26T04:20:29Z</time>
      </trkpt>
      <trkpt lat="42.40906" lon="2.69598">
        <ele>1081.3</ele>
        <time>2018-11-26T04:20:29Z</time>
      </trkpt>
      <trkpt lat="42.40906" lon="2.69598">
        <ele>1081.2</ele>
        <time>2018-11-26T04:20:29Z</time>
      </trkpt>
      <trkpt lat="42.40906" lon="2.69598">
        <ele>1081</ele>
        <time>2018-11-26T04:20:29Z</time>
      </trkpt>
      <trkpt lat="42.40906" lon="2.69598">
        <ele>1080.6</ele>
        <time>2018-11-26T04:20:29Z</time>
      </trkpt>
      <trkpt lat="42.40906" lon="2.69598">
        <ele>1080.5</ele>
        <time>2018-11-26T04:20:29Z</time>
      </trkpt>
      <trkpt lat="42.40906" lon="2.69598">
        <ele>1080.4</ele>
        <time>2018-11-26T04:20:29Z</time>
      </trkpt>
      <trkpt lat="42.40906" lon="2.69598">
        <ele>1080.4</ele>
        <time>2018-11-26T04:20:29Z</time>
      </trkpt>
      <trkpt lat="42.40906" lon="2.69598">
        <ele>1080.5</ele>
        <time>2018-11-26T04:20:29Z</time>
      </trkpt>
      <trkpt lat="42.40905" lon="2.69598">
        <ele>1080.8</ele>
        <time>2018-11-26T04:20:29Z</time>
      </trkpt>
      <trkpt lat="42.40905" lon="2.69598">
        <ele>1081.4</ele>
        <time>2018-11-26T04:20:29Z</time>
      </trkpt>
      <trkpt lat="42.40905" lon="2.69598">
        <ele>1081.9</ele>
        <time>2018-11-26T04:20:29Z</time>
      </trkpt>
      <trkpt lat="42.40905" lon="2.69598">
        <ele>1081.8</ele>
        <time>2018-11-26T04:20:29Z</time>
      </trkpt>
      <trkpt lat="42.40905" lon="2.69598">
        <ele>1081.6</ele>
        <time>2018-11-26T04:20:29Z</time>
      </trkpt>
      <trkpt lat="42.40905" lon="2.69598">
        <ele>1081.4</ele>
        <time>2018-11-26T04:20:29Z</time>
      </trkpt>
      <trkpt lat="42.40905" lon="2.69598">
        <ele>1081.3</ele>
        <time>2018-11-26T04:20:30Z</time>
      </trkpt>
      <trkpt lat="42.40904" lon="2.69598">
        <ele>1081.3</ele>
        <time>2018-11-26T04:20:30Z</time>
      </trkpt>
      <trkpt lat="42.40904" lon="2.69598">
        <ele>1081.3</ele>
        <time>2018-11-26T04:20:30Z</time>
      </trkpt>
      <trkpt lat="42.40904" lon="2.69598">
        <ele>1081.2</ele>
        <time>2018-11-26T04:20:30Z</time>
      </trkpt>
      <trkpt lat="42.40904" lon="2.69597">
        <ele>1081.2</ele>
        <time>2018-11-26T04:20:30Z</time>
      </trkpt>
      <trkpt lat="42.40904" lon="2.69598">
        <ele>1081.3</ele>
        <time>2018-11-26T04:20:30Z</time>
      </trkpt>
      <trkpt lat="42.40904" lon="2.69598">
        <ele>1081.1</ele>
        <time>2018-11-26T04:20:30Z</time>
      </trkpt>
      <trkpt lat="42.40903" lon="2.69598">
        <ele>1080.9</ele>
        <time>2018-11-26T04:20:30Z</time>
      </trkpt>
      <trkpt lat="42.40903" lon="2.69598">
        <ele>1080.7</ele>
        <time>2018-11-26T04:20:30Z</time>
      </trkpt>
      <trkpt lat="42.40903" lon="2.69598">
        <ele>1080.7</ele>
        <time>2018-11-26T04:20:30Z</time>
      </trkpt>
      <trkpt lat="42.40903" lon="2.69598">
        <ele>1080.9</ele>
        <time>2018-11-26T04:20:30Z</time>
      </trkpt>
      <trkpt lat="42.40903" lon="2.69598">
        <ele>1080.9</ele>
        <time>2018-11-26T04:20:30Z</time>
      </trkpt>
      <trkpt lat="42.40903" lon="2.69598">
        <ele>1081.1</ele>
        <time>2018-11-26T04:20:30Z</time>
      </trkpt>
      <trkpt lat="42.40903" lon="2.69598">
        <ele>1080.9</ele>
        <time>2018-11-26T04:20:30Z</time>
      </trkpt>
      <trkpt lat="42.40904" lon="2.69598">
        <ele>1080.8</ele>
        <time>2018-11-26T04:20:30Z</time>
      </trkpt>
      <trkpt lat="42.40904" lon="2.69598">
        <ele>1080.6</ele>
        <time>2018-11-26T04:20:30Z</time>
      </trkpt>
      <trkpt lat="42.40904" lon="2.69598">
        <ele>1080.7</ele>
        <time>2018-11-26T04:20:30Z</time>
      </trkpt>
      <trkpt lat="42.40904" lon="2.69598">
        <ele>1080.8</ele>
        <time>2018-11-26T04:20:31Z</time>
      </trkpt>
      <trkpt lat="42.40904" lon="2.69598">
        <ele>1080.9</ele>
        <time>2018-11-26T04:20:31Z</time>
      </trkpt>
      <trkpt lat="42.40904" lon="2.69599">
        <ele>1080.9</ele>
        <time>2018-11-26T04:20:31Z</time>
      </trkpt>
      <trkpt lat="42.40904" lon="2.69599">
        <ele>1081.2</ele>
        <time>2018-11-26T04:20:31Z</time>
      </trkpt>
      <trkpt lat="42.40904" lon="2.69599">
        <ele>1081.4</ele>
        <time>2018-11-26T04:20:31Z</time>
      </trkpt>
      <trkpt lat="42.40904" lon="2.69599">
        <ele>1081.2</ele>
        <time>2018-11-26T04:20:31Z</time>
      </trkpt>
      <trkpt lat="42.40904" lon="2.69599">
        <ele>1081.1</ele>
        <time>2018-11-26T04:20:31Z</time>
      </trkpt>
      <trkpt lat="42.40904" lon="2.69599">
        <ele>1080.9</ele>
        <time>2018-11-26T04:20:31Z</time>
      </trkpt>
      <trkpt lat="42.40904" lon="2.69599">
        <ele>1081</ele>
        <time>2018-11-26T04:20:31Z</time>
      </trkpt>
      <trkpt lat="42.40905" lon="2.69599">
        <ele>1081.1</ele>
        <time>2018-11-26T04:20:31Z</time>
      </trkpt>
      <trkpt lat="42.40905" lon="2.69599">
        <ele>1081.1</ele>
        <time>2018-11-26T04:20:31Z</time>
      </trkpt>
      <trkpt lat="42.40905" lon="2.69599">
        <ele>1081.3</ele>
        <time>2018-11-26T04:20:31Z</time>
      </trkpt>
      <trkpt lat="42.40905" lon="2.69599">
        <ele>1081.4</ele>
        <time>2018-11-26T04:20:31Z</time>
      </trkpt>
      <trkpt lat="42.40905" lon="2.69599">
        <ele>1081.8</ele>
        <time>2018-11-26T04:20:31Z</time>
      </trkpt>
      <trkpt lat="42.40905" lon="2.69599">
        <ele>1082</ele>
        <time>2018-11-26T04:20:31Z</time>
      </trkpt>
      <trkpt lat="42.40905" lon="2.69599">
        <ele>1082.1</ele>
        <time>2018-11-26T04:20:31Z</time>
      </trkpt>
      <trkpt lat="42.40905" lon="2.69599">
        <ele>1082.2</ele>
        <time>2018-11-26T04:20:31Z</time>
      </trkpt>
      <trkpt lat="42.40905" lon="2.69599">
        <ele>1082.3</ele>
        <time>2018-11-26T04:20:31Z</time>
      </trkpt>
      <trkpt lat="42.40906" lon="2.69599">
        <ele>1082.6</ele>
        <time>2018-11-26T04:20:31Z</time>
      </trkpt>
      <trkpt lat="42.40906" lon="2.69599">
        <ele>1082.8</ele>
        <time>2018-11-26T04:20:31Z</time>
      </trkpt>
      <trkpt lat="42.40906" lon="2.69598">
        <ele>1083.2</ele>
        <time>2018-11-26T04:20:32Z</time>
      </trkpt>
      <trkpt lat="42.40906" lon="2.69598">
        <ele>1082.9</ele>
        <time>2018-11-26T04:20:32Z</time>
      </trkpt>
      <trkpt lat="42.40906" lon="2.69598">
        <ele>1082.4</ele>
        <time>2018-11-26T04:20:32Z</time>
      </trkpt>
      <trkpt lat="42.40906" lon="2.69598">
        <ele>1081.7</ele>
        <time>2018-11-26T04:20:32Z</time>
      </trkpt>
      <trkpt lat="42.40906" lon="2.69598">
        <ele>1081.8</ele>
        <time>2018-11-26T04:20:32Z</time>
      </trkpt>
      <trkpt lat="42.40906" lon="2.69598">
        <ele>1081.8</ele>
        <time>2018-11-26T04:20:32Z</time>
      </trkpt>
      <trkpt lat="42.40906" lon="2.69598">
        <ele>1081.6</ele>
        <time>2018-11-26T04:20:32Z</time>
      </trkpt>
      <trkpt lat="42.40906" lon="2.69598">
        <ele>1081.5</ele>
        <time>2018-11-26T04:20:32Z</time>
      </trkpt>
      <trkpt lat="42.40906" lon="2.69598">
        <ele>1081.4</ele>
        <time>2018-11-26T04:20:32Z</time>
      </trkpt>
      <trkpt lat="42.40906" lon="2.69598">
        <ele>1081.3</ele>
        <time>2018-11-26T04:20:32Z</time>
      </trkpt>
      <trkpt lat="42.40906" lon="2.69598">
        <ele>1081.2</ele>
        <time>2018-11-26T04:20:32Z</time>
      </trkpt>
      <trkpt lat="42.40906" lon="2.69598">
        <ele>1081.3</ele>
        <time>2018-11-26T04:20:32Z</time>
      </trkpt>
      <trkpt lat="42.40906" lon="2.69598">
        <ele>1081.6</ele>
        <time>2018-11-26T04:20:32Z</time>
      </trkpt>
      <trkpt lat="42.40906" lon="2.69598">
        <ele>1082</ele>
        <time>2018-11-26T04:20:32Z</time>
      </trkpt>
      <trkpt lat="42.40906" lon="2.69598">
        <ele>1081.8</ele>
        <time>2018-11-26T04:20:32Z</time>
      </trkpt>
      <trkpt lat="42.40906" lon="2.69598">
        <ele>1081.9</ele>
        <time>2018-11-26T04:20:32Z</time>
      </trkpt>
      <trkpt lat="42.40906" lon="2.69598">
        <ele>1081.7</ele>
        <time>2018-11-26T04:20:32Z</time>
      </trkpt>
      <trkpt lat="42.40906" lon="2.69598">
        <ele>1081.6</ele>
        <time>2018-11-26T04:20:32Z</time>
      </trkpt>
      <trkpt lat="42.40906" lon="2.69598">
        <ele>1081.5</ele>
        <time>2018-11-26T04:20:32Z</time>
      </trkpt>
      <trkpt lat="42.40906" lon="2.69598">
        <ele>1081.5</ele>
        <time>2018-11-26T04:20:32Z</time>
      </trkpt>
      <trkpt lat="42.40906" lon="2.69598">
        <ele>1081.5</ele>
        <time>2018-11-26T04:20:32Z</time>
      </trkpt>
      <trkpt lat="42.40906" lon="2.69598">
        <ele>1081.8</ele>
        <time>2018-11-26T04:20:32Z</time>
      </trkpt>
      <trkpt lat="42.40906" lon="2.69598">
        <ele>1081.8</ele>
        <time>2018-11-26T04:20:32Z</time>
      </trkpt>
      <trkpt lat="42.40906" lon="2.69598">
        <ele>1081.8</ele>
        <time>2018-11-26T04:20:32Z</time>
      </trkpt>
      <trkpt lat="42.40906" lon="2.69598">
        <ele>1081.6</ele>
        <time>2018-11-26T04:20:32Z</time>
      </trkpt>
      <trkpt lat="42.40906" lon="2.69598">
        <ele>1081.5</ele>
        <time>2018-11-26T04:20:32Z</time>
      </trkpt>
      <trkpt lat="42.40906" lon="2.69598">
        <ele>1081.3</ele>
        <time>2018-11-26T04:20:32Z</time>
      </trkpt>
      <trkpt lat="42.40906" lon="2.69598">
        <ele>1081.4</ele>
        <time>2018-11-26T04:20:32Z</time>
      </trkpt>
      <trkpt lat="42.40906" lon="2.69598">
        <ele>1081.5</ele>
        <time>2018-11-26T04:20:32Z</time>
      </trkpt>
      <trkpt lat="42.40906" lon="2.69598">
        <ele>1081.8</ele>
        <time>2018-11-26T04:20:32Z</time>
      </trkpt>
      <trkpt lat="42.40906" lon="2.69598">
        <ele>1081.8</ele>
        <time>2018-11-26T04:20:32Z</time>
      </trkpt>
      <trkpt lat="42.40906" lon="2.69597">
        <ele>1082</ele>
        <time>2018-11-26T04:20:32Z</time>
      </trkpt>
      <trkpt lat="42.40906" lon="2.69597">
        <ele>1082</ele>
        <time>2018-11-26T04:20:32Z</time>
      </trkpt>
      <trkpt lat="42.40906" lon="2.69597">
        <ele>1082</ele>
        <time>2018-11-26T04:20:32Z</time>
      </trkpt>
      <trkpt lat="42.40906" lon="2.69597">
        <ele>1081.7</ele>
        <time>2018-11-26T04:20:32Z</time>
      </trkpt>
      <trkpt lat="42.40907" lon="2.69597">
        <ele>1081.5</ele>
        <time>2018-11-26T04:20:32Z</time>
      </trkpt>
      <trkpt lat="42.40907" lon="2.69597">
        <ele>1081.4</ele>
        <time>2018-11-26T04:20:32Z</time>
      </trkpt>
      <trkpt lat="42.40907" lon="2.69597">
        <ele>1081.3</ele>
        <time>2018-11-26T04:20:32Z</time>
      </trkpt>
      <trkpt lat="42.40907" lon="2.69597">
        <ele>1081.2</ele>
        <time>2018-11-26T04:20:32Z</time>
      </trkpt>
      <trkpt lat="42.40907" lon="2.69597">
        <ele>1081.3</ele>
        <time>2018-11-26T04:20:32Z</time>
      </trkpt>
      <trkpt lat="42.40907" lon="2.69597">
        <ele>1081.3</ele>
        <time>2018-11-26T04:20:32Z</time>
      </trkpt>
      <trkpt lat="42.40907" lon="2.69597">
        <ele>1081.4</ele>
        <time>2018-11-26T04:20:32Z</time>
      </trkpt>
      <trkpt lat="42.40907" lon="2.69597">
        <ele>1081.4</ele>
        <time>2018-11-26T04:20:32Z</time>
      </trkpt>
      <trkpt lat="42.40907" lon="2.69597">
        <ele>1081.3</ele>
        <time>2018-11-26T04:20:32Z</time>
      </trkpt>
      <trkpt lat="42.40907" lon="2.69597">
        <ele>1081.2</ele>
        <time>2018-11-26T04:20:32Z</time>
      </trkpt>
      <trkpt lat="42.40907" lon="2.69597">
        <ele>1081</ele>
        <time>2018-11-26T04:20:32Z</time>
      </trkpt>
      <trkpt lat="42.40907" lon="2.69597">
        <ele>1081.1</ele>
        <time>2018-11-26T04:20:32Z</time>
      </trkpt>
      <trkpt lat="42.40907" lon="2.69597">
        <ele>1081.3</ele>
        <time>2018-11-26T04:20:32Z</time>
      </trkpt>
      <trkpt lat="42.40907" lon="2.69597">
        <ele>1081.6</ele>
        <time>2018-11-26T04:20:32Z</time>
      </trkpt>
      <trkpt lat="42.40907" lon="2.69597">
        <ele>1081.4</ele>
        <time>2018-11-26T04:20:32Z</time>
      </trkpt>
      <trkpt lat="42.40907" lon="2.69597">
        <ele>1081.1</ele>
        <time>2018-11-26T04:20:32Z</time>
      </trkpt>
      <trkpt lat="42.40907" lon="2.69597">
        <ele>1080.7</ele>
        <time>2018-11-26T04:20:32Z</time>
      </trkpt>
      <trkpt lat="42.40907" lon="2.69597">
        <ele>1080.9</ele>
        <time>2018-11-26T04:20:32Z</time>
      </trkpt>
      <trkpt lat="42.40907" lon="2.69597">
        <ele>1081.1</ele>
        <time>2018-11-26T04:20:32Z</time>
      </trkpt>
      <trkpt lat="42.40907" lon="2.69597">
        <ele>1081.5</ele>
        <time>2018-11-26T04:20:32Z</time>
      </trkpt>
      <trkpt lat="42.40907" lon="2.69597">
        <ele>1081.3</ele>
        <time>2018-11-26T04:20:32Z</time>
      </trkpt>
      <trkpt lat="42.40907" lon="2.69597">
        <ele>1081.3</ele>
        <time>2018-11-26T04:20:32Z</time>
      </trkpt>
      <trkpt lat="42.40907" lon="2.69597">
        <ele>1081.2</ele>
        <time>2018-11-26T04:20:32Z</time>
      </trkpt>
      <trkpt lat="42.40907" lon="2.69597">
        <ele>1081.4</ele>
        <time>2018-11-26T04:20:32Z</time>
      </trkpt>
      <trkpt lat="42.40907" lon="2.69597">
        <ele>1081.7</ele>
        <time>2018-11-26T04:20:32Z</time>
      </trkpt>
      <trkpt lat="42.40907" lon="2.69597">
        <ele>1082.2</ele>
        <time>2018-11-26T04:20:32Z</time>
      </trkpt>
      <trkpt lat="42.40907" lon="2.69597">
        <ele>1082.6</ele>
        <time>2018-11-26T04:20:32Z</time>
      </trkpt>
      <trkpt lat="42.40907" lon="2.69597">
        <ele>1082.5</ele>
        <time>2018-11-26T04:20:32Z</time>
      </trkpt>
      <trkpt lat="42.40907" lon="2.69597">
        <ele>1082.4</ele>
        <time>2018-11-26T04:20:32Z</time>
      </trkpt>
      <trkpt lat="42.40907" lon="2.69597">
        <ele>1082.2</ele>
        <time>2018-11-26T04:20:32Z</time>
      </trkpt>
      <trkpt lat="42.40907" lon="2.69597">
        <ele>1081.9</ele>
        <time>2018-11-26T04:20:32Z</time>
      </trkpt>
      <trkpt lat="42.40907" lon="2.69597">
        <ele>1081.5</ele>
        <time>2018-11-26T04:20:32Z</time>
      </trkpt>
      <trkpt lat="42.40907" lon="2.69597">
        <ele>1081.1</ele>
        <time>2018-11-26T04:20:32Z</time>
      </trkpt>
      <trkpt lat="42.40907" lon="2.69597">
        <ele>1081.3</ele>
        <time>2018-11-26T04:20:32Z</time>
      </trkpt>
      <trkpt lat="42.40907" lon="2.69597">
        <ele>1081.6</ele>
        <time>2018-11-26T04:20:32Z</time>
      </trkpt>
      <trkpt lat="42.40906" lon="2.69598">
        <ele>1082</ele>
        <time>2018-11-26T04:20:33Z</time>
      </trkpt>
      <trkpt lat="42.40906" lon="2.69598">
        <ele>1081.9</ele>
        <time>2018-11-26T04:20:33Z</time>
      </trkpt>
      <trkpt lat="42.40906" lon="2.69598">
        <ele>1081.6</ele>
        <time>2018-11-26T04:20:33Z</time>
      </trkpt>
      <trkpt lat="42.40906" lon="2.69598">
        <ele>1081.2</ele>
        <time>2018-11-26T04:20:33Z</time>
      </trkpt>
      <trkpt lat="42.40906" lon="2.69598">
        <ele>1081.1</ele>
        <time>2018-11-26T04:20:33Z</time>
      </trkpt>
      <trkpt lat="42.40906" lon="2.69598">
        <ele>1080.8</ele>
        <time>2018-11-26T04:20:33Z</time>
      </trkpt>
      <trkpt lat="42.40906" lon="2.69598">
        <ele>1080.3</ele>
        <time>2018-11-26T04:20:33Z</time>
      </trkpt>
      <trkpt lat="42.40906" lon="2.69598">
        <ele>1079.8</ele>
        <time>2018-11-26T04:20:33Z</time>
      </trkpt>
      <trkpt lat="42.40906" lon="2.69598">
        <ele>1080.1</ele>
        <time>2018-11-26T04:20:33Z</time>
      </trkpt>
      <trkpt lat="42.40906" lon="2.69598">
        <ele>1080.4</ele>
        <time>2018-11-26T04:20:33Z</time>
      </trkpt>
      <trkpt lat="42.40906" lon="2.69598">
        <ele>1080.9</ele>
        <time>2018-11-26T04:20:33Z</time>
      </trkpt>
      <trkpt lat="42.40906" lon="2.69598">
        <ele>1081</ele>
        <time>2018-11-26T04:20:33Z</time>
      </trkpt>
      <trkpt lat="42.40906" lon="2.69598">
        <ele>1081.3</ele>
        <time>2018-11-26T04:20:33Z</time>
      </trkpt>
      <trkpt lat="42.40906" lon="2.69597">
        <ele>1081.6</ele>
        <time>2018-11-26T04:20:33Z</time>
      </trkpt>
      <trkpt lat="42.40906" lon="2.69597">
        <ele>1081.7</ele>
        <time>2018-11-26T04:20:33Z</time>
      </trkpt>
      <trkpt lat="42.40906" lon="2.69597">
        <ele>1081.7</ele>
        <time>2018-11-26T04:20:33Z</time>
      </trkpt>
      <trkpt lat="42.40906" lon="2.69597">
        <ele>1081.7</ele>
        <time>2018-11-26T04:20:33Z</time>
      </trkpt>
      <trkpt lat="42.40906" lon="2.69597">
        <ele>1081.7</ele>
        <time>2018-11-26T04:20:33Z</time>
      </trkpt>
      <trkpt lat="42.40906" lon="2.69597">
        <ele>1081.9</ele>
        <time>2018-11-26T04:20:33Z</time>
      </trkpt>
      <trkpt lat="42.40906" lon="2.69597">
        <ele>1081.8</ele>
        <time>2018-11-26T04:20:33Z</time>
      </trkpt>
      <trkpt lat="42.40906" lon="2.69598">
        <ele>1081.9</ele>
        <time>2018-11-26T04:20:33Z</time>
      </trkpt>
      <trkpt lat="42.40906" lon="2.69598">
        <ele>1081.7</ele>
        <time>2018-11-26T04:20:33Z</time>
      </trkpt>
      <trkpt lat="42.40906" lon="2.69598">
        <ele>1081.8</ele>
        <time>2018-11-26T04:20:33Z</time>
      </trkpt>
      <trkpt lat="42.40906" lon="2.69598">
        <ele>1081.7</ele>
        <time>2018-11-26T04:20:33Z</time>
      </trkpt>
      <trkpt lat="42.40906" lon="2.69598">
        <ele>1081.6</ele>
        <time>2018-11-26T04:20:33Z</time>
      </trkpt>
      <trkpt lat="42.40906" lon="2.69598">
        <ele>1081.6</ele>
        <time>2018-11-26T04:20:33Z</time>
      </trkpt>
      <trkpt lat="42.40906" lon="2.69598">
        <ele>1081.3</ele>
        <time>2018-11-26T04:20:33Z</time>
      </trkpt>
      <trkpt lat="42.40906" lon="2.69598">
        <ele>1081.3</ele>
        <time>2018-11-26T04:20:33Z</time>
      </trkpt>
      <trkpt lat="42.40906" lon="2.69598">
        <ele>1081.5</ele>
        <time>2018-11-26T04:20:33Z</time>
      </trkpt>
      <trkpt lat="42.40905" lon="2.69598">
        <ele>1081.6</ele>
        <time>2018-11-26T04:20:33Z</time>
      </trkpt>
      <trkpt lat="42.40905" lon="2.69598">
        <ele>1081.5</ele>
        <time>2018-11-26T04:20:33Z</time>
      </trkpt>
      <trkpt lat="42.40905" lon="2.69598">
        <ele>1081.6</ele>
        <time>2018-11-26T04:20:33Z</time>
      </trkpt>
      <trkpt lat="42.40905" lon="2.69599">
        <ele>1081.5</ele>
        <time>2018-11-26T04:20:33Z</time>
      </trkpt>
      <trkpt lat="42.40905" lon="2.69599">
        <ele>1081.7</ele>
        <time>2018-11-26T04:20:33Z</time>
      </trkpt>
      <trkpt lat="42.40905" lon="2.69599">
        <ele>1082</ele>
        <time>2018-11-26T04:20:33Z</time>
      </trkpt>
      <trkpt lat="42.40905" lon="2.69599">
        <ele>1082.3</ele>
        <time>2018-11-26T04:20:34Z</time>
      </trkpt>
      <trkpt lat="42.40905" lon="2.69599">
        <ele>1082.2</ele>
        <time>2018-11-26T04:20:34Z</time>
      </trkpt>
      <trkpt lat="42.40905" lon="2.69599">
        <ele>1082.2</ele>
        <time>2018-11-26T04:20:34Z</time>
      </trkpt>
      <trkpt lat="42.40905" lon="2.69599">
        <ele>1082.2</ele>
        <time>2018-11-26T04:20:34Z</time>
      </trkpt>
      <trkpt lat="42.40905" lon="2.69599">
        <ele>1082.2</ele>
        <time>2018-11-26T04:20:34Z</time>
      </trkpt>
      <trkpt lat="42.40905" lon="2.69599">
        <ele>1082.3</ele>
        <time>2018-11-26T04:20:34Z</time>
      </trkpt>
      <trkpt lat="42.40905" lon="2.69599">
        <ele>1082.2</ele>
        <time>2018-11-26T04:20:34Z</time>
      </trkpt>
      <trkpt lat="42.40905" lon="2.69599">
        <ele>1082</ele>
        <time>2018-11-26T04:20:34Z</time>
      </trkpt>
      <trkpt lat="42.40905" lon="2.69599">
        <ele>1082</ele>
        <time>2018-11-26T04:20:34Z</time>
      </trkpt>
      <trkpt lat="42.40905" lon="2.69599">
        <ele>1081.8</ele>
        <time>2018-11-26T04:20:34Z</time>
      </trkpt>
      <trkpt lat="42.40905" lon="2.69599">
        <ele>1081.5</ele>
        <time>2018-11-26T04:20:34Z</time>
      </trkpt>
      <trkpt lat="42.40905" lon="2.696">
        <ele>1081.6</ele>
        <time>2018-11-26T04:20:34Z</time>
      </trkpt>
      <trkpt lat="42.40905" lon="2.69599">
        <ele>1081.7</ele>
        <time>2018-11-26T04:20:34Z</time>
      </trkpt>
      <trkpt lat="42.40905" lon="2.696">
        <ele>1081.9</ele>
        <time>2018-11-26T04:20:34Z</time>
      </trkpt>
      <trkpt lat="42.40904" lon="2.696">
        <ele>1081.8</ele>
        <time>2018-11-26T04:20:34Z</time>
      </trkpt>
      <trkpt lat="42.40905" lon="2.69599">
        <ele>1081.8</ele>
        <time>2018-11-26T04:20:34Z</time>
      </trkpt>
      <trkpt lat="42.40905" lon="2.69599">
        <ele>1081.6</ele>
        <time>2018-11-26T04:20:34Z</time>
      </trkpt>
      <trkpt lat="42.40905" lon="2.696">
        <ele>1081.8</ele>
        <time>2018-11-26T04:20:35Z</time>
      </trkpt>
      <trkpt lat="42.40905" lon="2.69599">
        <ele>1081.9</ele>
        <time>2018-11-26T04:20:35Z</time>
      </trkpt>
      <trkpt lat="42.40905" lon="2.69599">
        <ele>1081.9</ele>
        <time>2018-11-26T04:20:35Z</time>
      </trkpt>
      <trkpt lat="42.40905" lon="2.69599">
        <ele>1081.9</ele>
        <time>2018-11-26T04:20:35Z</time>
      </trkpt>
      <trkpt lat="42.40905" lon="2.69599">
        <ele>1081.9</ele>
        <time>2018-11-26T04:20:35Z</time>
      </trkpt>
      <trkpt lat="42.40905" lon="2.69599">
        <ele>1081.9</ele>
        <time>2018-11-26T04:20:35Z</time>
      </trkpt>
      <trkpt lat="42.40905" lon="2.69599">
        <ele>1082</ele>
        <time>2018-11-26T04:20:35Z</time>
      </trkpt>
      <trkpt lat="42.40905" lon="2.69598">
        <ele>1082</ele>
        <time>2018-11-26T04:20:35Z</time>
      </trkpt>
      <trkpt lat="42.40905" lon="2.69598">
        <ele>1082.2</ele>
        <time>2018-11-26T04:20:35Z</time>
      </trkpt>
      <trkpt lat="42.40906" lon="2.69598">
        <ele>1082.5</ele>
        <time>2018-11-26T04:20:35Z</time>
      </trkpt>
      <trkpt lat="42.40906" lon="2.69599">
        <ele>1082.4</ele>
        <time>2018-11-26T04:20:36Z</time>
      </trkpt>
      <trkpt lat="42.40906" lon="2.69599">
        <ele>1082.3</ele>
        <time>2018-11-26T04:20:36Z</time>
      </trkpt>
      <trkpt lat="42.40906" lon="2.69599">
        <ele>1082.3</ele>
        <time>2018-11-26T04:20:36Z</time>
      </trkpt>
      <trkpt lat="42.40906" lon="2.69598">
        <ele>1082.4</ele>
        <time>2018-11-26T04:20:36Z</time>
      </trkpt>
      <trkpt lat="42.40907" lon="2.69598">
        <ele>1082.7</ele>
        <time>2018-11-26T04:20:36Z</time>
      </trkpt>
      <trkpt lat="42.40907" lon="2.69597">
        <ele>1083.2</ele>
        <time>2018-11-26T04:20:37Z</time>
      </trkpt>
      <trkpt lat="42.40909" lon="2.69596">
        <ele>1082.9</ele>
        <time>2018-11-26T04:20:37Z</time>
      </trkpt>
      <trkpt lat="42.4091" lon="2.69596">
        <ele>1082.7</ele>
        <time>2018-11-26T04:20:38Z</time>
      </trkpt>
      <trkpt lat="42.4091" lon="2.69595">
        <ele>1082.6</ele>
        <time>2018-11-26T04:20:38Z</time>
      </trkpt>
      <trkpt lat="42.40911" lon="2.69595">
        <ele>1082.5</ele>
        <time>2018-11-26T04:20:38Z</time>
      </trkpt>
      <trkpt lat="42.40911" lon="2.69595">
        <ele>1082.1</ele>
        <time>2018-11-26T04:20:38Z</time>
      </trkpt>
      <trkpt lat="42.40911" lon="2.69595">
        <ele>1081.8</ele>
        <time>2018-11-26T04:20:38Z</time>
      </trkpt>
      <trkpt lat="42.40911" lon="2.69595">
        <ele>1081.7</ele>
        <time>2018-11-26T04:20:38Z</time>
      </trkpt>
      <trkpt lat="42.40911" lon="2.69595">
        <ele>1081.5</ele>
        <time>2018-11-26T04:20:38Z</time>
      </trkpt>
      <trkpt lat="42.40911" lon="2.69595">
        <ele>1081.3</ele>
        <time>2018-11-26T04:20:38Z</time>
      </trkpt>
      <trkpt lat="42.40911" lon="2.69595">
        <ele>1081.3</ele>
        <time>2018-11-26T04:20:38Z</time>
      </trkpt>
      <trkpt lat="42.40911" lon="2.69595">
        <ele>1081.3</ele>
        <time>2018-11-26T04:20:38Z</time>
      </trkpt>
      <trkpt lat="42.40911" lon="2.69596">
        <ele>1081.4</ele>
        <time>2018-11-26T04:20:38Z</time>
      </trkpt>
      <trkpt lat="42.40911" lon="2.69596">
        <ele>1081.2</ele>
        <time>2018-11-26T04:20:39Z</time>
      </trkpt>
      <trkpt lat="42.40911" lon="2.69597">
        <ele>1081.9</ele>
        <time>2018-11-26T04:20:39Z</time>
      </trkpt>
      <trkpt lat="42.40911" lon="2.69597">
        <ele>1081.9</ele>
        <time>2018-11-26T04:20:39Z</time>
      </trkpt>
      <trkpt lat="42.40911" lon="2.69598">
        <ele>1081.9</ele>
        <time>2018-11-26T04:20:39Z</time>
      </trkpt>
      <trkpt lat="42.40911" lon="2.69598">
        <ele>1081.7</ele>
        <time>2018-11-26T04:20:39Z</time>
      </trkpt>
      <trkpt lat="42.40911" lon="2.69598">
        <ele>1081.6</ele>
        <time>2018-11-26T04:20:39Z</time>
      </trkpt>
      <trkpt lat="42.40911" lon="2.69598">
        <ele>1081.8</ele>
        <time>2018-11-26T04:20:39Z</time>
      </trkpt>
      <trkpt lat="42.40911" lon="2.69598">
        <ele>1082.1</ele>
        <time>2018-11-26T04:20:39Z</time>
      </trkpt>
      <trkpt lat="42.40911" lon="2.69598">
        <ele>1082.6</ele>
        <time>2018-11-26T04:20:39Z</time>
      </trkpt>
      <trkpt lat="42.40911" lon="2.69598">
        <ele>1082.6</ele>
        <time>2018-11-26T04:20:39Z</time>
      </trkpt>
      <trkpt lat="42.40911" lon="2.69598">
        <ele>1082.7</ele>
        <time>2018-11-26T04:20:39Z</time>
      </trkpt>
      <trkpt lat="42.40911" lon="2.69598">
        <ele>1082.5</ele>
        <time>2018-11-26T04:20:39Z</time>
      </trkpt>
      <trkpt lat="42.40911" lon="2.69598">
        <ele>1082.4</ele>
        <time>2018-11-26T04:20:40Z</time>
      </trkpt>
      <trkpt lat="42.40912" lon="2.69597">
        <ele>1082.1</ele>
        <time>2018-11-26T04:20:40Z</time>
      </trkpt>
      <trkpt lat="42.40913" lon="2.69597">
        <ele>1082.2</ele>
        <time>2018-11-26T04:20:40Z</time>
      </trkpt>
      <trkpt lat="42.40913" lon="2.69597">
        <ele>1082.2</ele>
        <time>2018-11-26T04:20:40Z</time>
      </trkpt>
      <trkpt lat="42.40913" lon="2.69597">
        <ele>1082.1</ele>
        <time>2018-11-26T04:20:40Z</time>
      </trkpt>
      <trkpt lat="42.40913" lon="2.69597">
        <ele>1082.1</ele>
        <time>2018-11-26T04:20:41Z</time>
      </trkpt>
      <trkpt lat="42.40913" lon="2.69598">
        <ele>1082.2</ele>
        <time>2018-11-26T04:20:41Z</time>
      </trkpt>
      <trkpt lat="42.40912" lon="2.69598">
        <ele>1082.2</ele>
        <time>2018-11-26T04:20:41Z</time>
      </trkpt>
      <trkpt lat="42.40912" lon="2.69599">
        <ele>1082.4</ele>
        <time>2018-11-26T04:20:41Z</time>
      </trkpt>
      <trkpt lat="42.40912" lon="2.69599">
        <ele>1082.1</ele>
        <time>2018-11-26T04:20:41Z</time>
      </trkpt>
      <trkpt lat="42.40912" lon="2.69599">
        <ele>1081.8</ele>
        <time>2018-11-26T04:20:41Z</time>
      </trkpt>
      <trkpt lat="42.40912" lon="2.69599">
        <ele>1081.5</ele>
        <time>2018-11-26T04:20:41Z</time>
      </trkpt>
      <trkpt lat="42.40912" lon="2.69599">
        <ele>1081.9</ele>
        <time>2018-11-26T04:20:42Z</time>
      </trkpt>
      <trkpt lat="42.40912" lon="2.69599">
        <ele>1082.2</ele>
        <time>2018-11-26T04:20:42Z</time>
      </trkpt>
      <trkpt lat="42.40912" lon="2.69599">
        <ele>1082.8</ele>
        <time>2018-11-26T04:20:42Z</time>
      </trkpt>
      <trkpt lat="42.40912" lon="2.69599">
        <ele>1082.9</ele>
        <time>2018-11-26T04:20:42Z</time>
      </trkpt>
      <trkpt lat="42.40912" lon="2.69599">
        <ele>1083.1</ele>
        <time>2018-11-26T04:20:42Z</time>
      </trkpt>
      <trkpt lat="42.40912" lon="2.69599">
        <ele>1083.4</ele>
        <time>2018-11-26T04:20:42Z</time>
      </trkpt>
      <trkpt lat="42.40912" lon="2.69599">
        <ele>1083.2</ele>
        <time>2018-11-26T04:20:42Z</time>
      </trkpt>
      <trkpt lat="42.40912" lon="2.696">
        <ele>1083.2</ele>
        <time>2018-11-26T04:20:42Z</time>
      </trkpt>
      <trkpt lat="42.40912" lon="2.69602">
        <ele>1083</ele>
        <time>2018-11-26T04:20:43Z</time>
      </trkpt>
      <trkpt lat="42.40913" lon="2.69603">
        <ele>1083.3</ele>
        <time>2018-11-26T04:20:43Z</time>
      </trkpt>
      <trkpt lat="42.40914" lon="2.69604">
        <ele>1083.8</ele>
        <time>2018-11-26T04:20:44Z</time>
      </trkpt>
      <trkpt lat="42.40915" lon="2.69605">
        <ele>1084.2</ele>
        <time>2018-11-26T04:20:44Z</time>
      </trkpt>
      <trkpt lat="42.40915" lon="2.69606">
        <ele>1084.3</ele>
        <time>2018-11-26T04:20:44Z</time>
      </trkpt>
      <trkpt lat="42.40915" lon="2.69606">
        <ele>1084.3</ele>
        <time>2018-11-26T04:20:44Z</time>
      </trkpt>
      <trkpt lat="42.40915" lon="2.69606">
        <ele>1084.5</ele>
        <time>2018-11-26T04:20:44Z</time>
      </trkpt>
      <trkpt lat="42.40916" lon="2.69606">
        <ele>1084.5</ele>
        <time>2018-11-26T04:20:44Z</time>
      </trkpt>
      <trkpt lat="42.40917" lon="2.69608">
        <ele>1084.9</ele>
        <time>2018-11-26T04:20:45Z</time>
      </trkpt>
      <trkpt lat="42.40918" lon="2.69609">
        <ele>1085.4</ele>
        <time>2018-11-26T04:20:46Z</time>
      </trkpt>
      <trkpt lat="42.40919" lon="2.6961">
        <ele>1085.4</ele>
        <time>2018-11-26T04:20:46Z</time>
      </trkpt>
      <trkpt lat="42.4092" lon="2.69611">
        <ele>1085.7</ele>
        <time>2018-11-26T04:20:47Z</time>
      </trkpt>
      <trkpt lat="42.40921" lon="2.69612">
        <ele>1086.1</ele>
        <time>2018-11-26T04:20:47Z</time>
      </trkpt>
      <trkpt lat="42.40923" lon="2.69615">
        <ele>1086.6</ele>
        <time>2018-11-26T04:20:48Z</time>
      </trkpt>
      <trkpt lat="42.40928" lon="2.69621">
        <ele>1087.4</ele>
        <time>2018-11-26T04:20:51Z</time>
      </trkpt>
      <trkpt lat="42.40929" lon="2.69623">
        <ele>1087.9</ele>
        <time>2018-11-26T04:20:52Z</time>
      </trkpt>
      <trkpt lat="42.4093" lon="2.69624">
        <ele>1088.6</ele>
        <time>2018-11-26T04:20:52Z</time>
      </trkpt>
      <trkpt lat="42.40931" lon="2.69625">
        <ele>1088.8</ele>
        <time>2018-11-26T04:20:53Z</time>
      </trkpt>
      <trkpt lat="42.40932" lon="2.69625">
        <ele>1089.2</ele>
        <time>2018-11-26T04:20:53Z</time>
      </trkpt>
      <trkpt lat="42.40933" lon="2.69626">
        <ele>1089.5</ele>
        <time>2018-11-26T04:20:54Z</time>
      </trkpt>
      <trkpt lat="42.40934" lon="2.69627">
        <ele>1089.6</ele>
        <time>2018-11-26T04:20:54Z</time>
      </trkpt>
      <trkpt lat="42.40936" lon="2.69629">
        <ele>1090.4</ele>
        <time>2018-11-26T04:20:55Z</time>
      </trkpt>
      <trkpt lat="42.40937" lon="2.6963">
        <ele>1090.6</ele>
        <time>2018-11-26T04:20:56Z</time>
      </trkpt>
      <trkpt lat="42.40941" lon="2.69633">
        <ele>1091.8</ele>
        <time>2018-11-26T04:20:58Z</time>
      </trkpt>
      <trkpt lat="42.40942" lon="2.69634">
        <ele>1092.1</ele>
        <time>2018-11-26T04:20:58Z</time>
      </trkpt>
      <trkpt lat="42.40943" lon="2.69635">
        <ele>1092.4</ele>
        <time>2018-11-26T04:20:59Z</time>
      </trkpt>
      <trkpt lat="42.40944" lon="2.69636">
        <ele>1092.9</ele>
        <time>2018-11-26T04:20:59Z</time>
      </trkpt>
      <trkpt lat="42.40945" lon="2.69637">
        <ele>1093.3</ele>
        <time>2018-11-26T04:21:00Z</time>
      </trkpt>
      <trkpt lat="42.40946" lon="2.69639">
        <ele>1094.1</ele>
        <time>2018-11-26T04:21:00Z</time>
      </trkpt>
      <trkpt lat="42.40947" lon="2.6964">
        <ele>1094.2</ele>
        <time>2018-11-26T04:21:01Z</time>
      </trkpt>
      <trkpt lat="42.40948" lon="2.69641">
        <ele>1094.4</ele>
        <time>2018-11-26T04:21:01Z</time>
      </trkpt>
      <trkpt lat="42.40951" lon="2.69643">
        <ele>1094.6</ele>
        <time>2018-11-26T04:21:03Z</time>
      </trkpt>
      <trkpt lat="42.40952" lon="2.69643">
        <ele>1094.8</ele>
        <time>2018-11-26T04:21:03Z</time>
      </trkpt>
      <trkpt lat="42.40953" lon="2.69644">
        <ele>1095.1</ele>
        <time>2018-11-26T04:21:04Z</time>
      </trkpt>
      <trkpt lat="42.40954" lon="2.69644">
        <ele>1095.7</ele>
        <time>2018-11-26T04:21:04Z</time>
      </trkpt>
      <trkpt lat="42.40955" lon="2.69645">
        <ele>1096.4</ele>
        <time>2018-11-26T04:21:04Z</time>
      </trkpt>
      <trkpt lat="42.40955" lon="2.69647">
        <ele>1096.9</ele>
        <time>2018-11-26T04:21:05Z</time>
      </trkpt>
      <trkpt lat="42.40956" lon="2.69648">
        <ele>1097.4</ele>
        <time>2018-11-26T04:21:05Z</time>
      </trkpt>
      <trkpt lat="42.40957" lon="2.6965">
        <ele>1098.3</ele>
        <time>2018-11-26T04:21:06Z</time>
      </trkpt>
      <trkpt lat="42.40959" lon="2.69653">
        <ele>1098.7</ele>
        <time>2018-11-26T04:21:07Z</time>
      </trkpt>
      <trkpt lat="42.4096" lon="2.69654">
        <ele>1099</ele>
        <time>2018-11-26T04:21:08Z</time>
      </trkpt>
      <trkpt lat="42.40961" lon="2.69655">
        <ele>1099.2</ele>
        <time>2018-11-26T04:21:08Z</time>
      </trkpt>
      <trkpt lat="42.40964" lon="2.69661">
        <ele>1100.9</ele>
        <time>2018-11-26T04:21:10Z</time>
      </trkpt>
      <trkpt lat="42.40966" lon="2.69666">
        <ele>1101.9</ele>
        <time>2018-11-26T04:21:12Z</time>
      </trkpt>
      <trkpt lat="42.40966" lon="2.69667">
        <ele>1102.2</ele>
        <time>2018-11-26T04:21:12Z</time>
      </trkpt>
      <trkpt lat="42.40967" lon="2.69668">
        <ele>1102.3</ele>
        <time>2018-11-26T04:21:13Z</time>
      </trkpt>
      <trkpt lat="42.40969" lon="2.69669">
        <ele>1102.6</ele>
        <time>2018-11-26T04:21:13Z</time>
      </trkpt>
      <trkpt lat="42.4097" lon="2.69669">
        <ele>1102.8</ele>
        <time>2018-11-26T04:21:14Z</time>
      </trkpt>
      <trkpt lat="42.40971" lon="2.6967">
        <ele>1103</ele>
        <time>2018-11-26T04:21:14Z</time>
      </trkpt>
      <trkpt lat="42.40972" lon="2.6967">
        <ele>1103.4</ele>
        <time>2018-11-26T04:21:15Z</time>
      </trkpt>
      <trkpt lat="42.40972" lon="2.69671">
        <ele>1103.7</ele>
        <time>2018-11-26T04:21:15Z</time>
      </trkpt>
      <trkpt lat="42.40973" lon="2.69671">
        <ele>1104.3</ele>
        <time>2018-11-26T04:21:15Z</time>
      </trkpt>
      <trkpt lat="42.40974" lon="2.6967">
        <ele>1104.7</ele>
        <time>2018-11-26T04:21:16Z</time>
      </trkpt>
      <trkpt lat="42.40975" lon="2.69669">
        <ele>1105.2</ele>
        <time>2018-11-26T04:21:16Z</time>
      </trkpt>
      <trkpt lat="42.40977" lon="2.6967">
        <ele>1105.9</ele>
        <time>2018-11-26T04:21:17Z</time>
      </trkpt>
      <trkpt lat="42.40978" lon="2.6967">
        <ele>1105.9</ele>
        <time>2018-11-26T04:21:18Z</time>
      </trkpt>
      <trkpt lat="42.40979" lon="2.6967">
        <ele>1106</ele>
        <time>2018-11-26T04:21:18Z</time>
      </trkpt>
      <trkpt lat="42.4098" lon="2.69671">
        <ele>1106.2</ele>
        <time>2018-11-26T04:21:18Z</time>
      </trkpt>
      <trkpt lat="42.40981" lon="2.69671">
        <ele>1106.5</ele>
        <time>2018-11-26T04:21:19Z</time>
      </trkpt>
      <trkpt lat="42.40982" lon="2.69671">
        <ele>1107.1</ele>
        <time>2018-11-26T04:21:19Z</time>
      </trkpt>
      <trkpt lat="42.40983" lon="2.69672">
        <ele>1107.4</ele>
        <time>2018-11-26T04:21:20Z</time>
      </trkpt>
      <trkpt lat="42.40984" lon="2.69673">
        <ele>1107.9</ele>
        <time>2018-11-26T04:21:20Z</time>
      </trkpt>
      <trkpt lat="42.40985" lon="2.69674">
        <ele>1108.3</ele>
        <time>2018-11-26T04:21:21Z</time>
      </trkpt>
      <trkpt lat="42.40986" lon="2.69675">
        <ele>1108.7</ele>
        <time>2018-11-26T04:21:21Z</time>
      </trkpt>
      <trkpt lat="42.40986" lon="2.69676">
        <ele>1109</ele>
        <time>2018-11-26T04:21:22Z</time>
      </trkpt>
      <trkpt lat="42.40987" lon="2.69679">
        <ele>1109.6</ele>
        <time>2018-11-26T04:21:22Z</time>
      </trkpt>
      <trkpt lat="42.40989" lon="2.6968">
        <ele>1109.7</ele>
        <time>2018-11-26T04:21:23Z</time>
      </trkpt>
      <trkpt lat="42.4099" lon="2.69682">
        <ele>1110.1</ele>
        <time>2018-11-26T04:21:24Z</time>
      </trkpt>
      <trkpt lat="42.4099" lon="2.69683">
        <ele>1110.2</ele>
        <time>2018-11-26T04:21:24Z</time>
      </trkpt>
      <trkpt lat="42.40993" lon="2.69684">
        <ele>1110.7</ele>
        <time>2018-11-26T04:21:25Z</time>
      </trkpt>
      <trkpt lat="42.40993" lon="2.69684">
        <ele>1111.1</ele>
        <time>2018-11-26T04:21:25Z</time>
      </trkpt>
      <trkpt lat="42.40995" lon="2.69687">
        <ele>1111.9</ele>
        <time>2018-11-26T04:21:26Z</time>
      </trkpt>
      <trkpt lat="42.40995" lon="2.69688">
        <ele>1112.4</ele>
        <time>2018-11-26T04:21:27Z</time>
      </trkpt>
      <trkpt lat="42.40996" lon="2.69689">
        <ele>1113.1</ele>
        <time>2018-11-26T04:21:27Z</time>
      </trkpt>
      <trkpt lat="42.40997" lon="2.6969">
        <ele>1113.9</ele>
        <time>2018-11-26T04:21:28Z</time>
      </trkpt>
      <trkpt lat="42.40998" lon="2.69691">
        <ele>1113.9</ele>
        <time>2018-11-26T04:21:28Z</time>
      </trkpt>
      <trkpt lat="42.40998" lon="2.69692">
        <ele>1114</ele>
        <time>2018-11-26T04:21:29Z</time>
      </trkpt>
      <trkpt lat="42.41" lon="2.69693">
        <ele>1114.6</ele>
        <time>2018-11-26T04:21:29Z</time>
      </trkpt>
      <trkpt lat="42.41001" lon="2.69693">
        <ele>1114.9</ele>
        <time>2018-11-26T04:21:30Z</time>
      </trkpt>
      <trkpt lat="42.41002" lon="2.69694">
        <ele>1115.6</ele>
        <time>2018-11-26T04:21:30Z</time>
      </trkpt>
      <trkpt lat="42.41002" lon="2.69695">
        <ele>1116.4</ele>
        <time>2018-11-26T04:21:31Z</time>
      </trkpt>
      <trkpt lat="42.41003" lon="2.69696">
        <ele>1116.8</ele>
        <time>2018-11-26T04:21:31Z</time>
      </trkpt>
      <trkpt lat="42.41004" lon="2.69697">
        <ele>1117.2</ele>
        <time>2018-11-26T04:21:31Z</time>
      </trkpt>
      <trkpt lat="42.41004" lon="2.69697">
        <ele>1117.7</ele>
        <time>2018-11-26T04:21:32Z</time>
      </trkpt>
      <trkpt lat="42.41005" lon="2.69698">
        <ele>1117.6</ele>
        <time>2018-11-26T04:21:32Z</time>
      </trkpt>
      <trkpt lat="42.41006" lon="2.69699">
        <ele>1117.6</ele>
        <time>2018-11-26T04:21:32Z</time>
      </trkpt>
      <trkpt lat="42.41008" lon="2.69699">
        <ele>1118</ele>
        <time>2018-11-26T04:21:33Z</time>
      </trkpt>
      <trkpt lat="42.41009" lon="2.69699">
        <ele>1118.6</ele>
        <time>2018-11-26T04:21:34Z</time>
      </trkpt>
      <trkpt lat="42.41009" lon="2.697">
        <ele>1119.1</ele>
        <time>2018-11-26T04:21:34Z</time>
      </trkpt>
      <trkpt lat="42.4101" lon="2.69702">
        <ele>1119</ele>
        <time>2018-11-26T04:21:35Z</time>
      </trkpt>
      <trkpt lat="42.4101" lon="2.69704">
        <ele>1119</ele>
        <time>2018-11-26T04:21:35Z</time>
      </trkpt>
      <trkpt lat="42.41011" lon="2.69705">
        <ele>1119</ele>
        <time>2018-11-26T04:21:35Z</time>
      </trkpt>
      <trkpt lat="42.41011" lon="2.69706">
        <ele>1119.1</ele>
        <time>2018-11-26T04:21:36Z</time>
      </trkpt>
      <trkpt lat="42.41012" lon="2.69706">
        <ele>1119.2</ele>
        <time>2018-11-26T04:21:36Z</time>
      </trkpt>
      <trkpt lat="42.41012" lon="2.69706">
        <ele>1119.3</ele>
        <time>2018-11-26T04:21:36Z</time>
      </trkpt>
      <trkpt lat="42.41012" lon="2.69706">
        <ele>1119.4</ele>
        <time>2018-11-26T04:21:36Z</time>
      </trkpt>
      <trkpt lat="42.41012" lon="2.69706">
        <ele>1119.5</ele>
        <time>2018-11-26T04:21:36Z</time>
      </trkpt>
      <trkpt lat="42.41012" lon="2.69706">
        <ele>1119.8</ele>
        <time>2018-11-26T04:21:36Z</time>
      </trkpt>
      <trkpt lat="42.41012" lon="2.69706">
        <ele>1119.8</ele>
        <time>2018-11-26T04:21:36Z</time>
      </trkpt>
      <trkpt lat="42.41012" lon="2.69706">
        <ele>1119.8</ele>
        <time>2018-11-26T04:21:36Z</time>
      </trkpt>
      <trkpt lat="42.41012" lon="2.69706">
        <ele>1119.7</ele>
        <time>2018-11-26T04:21:36Z</time>
      </trkpt>
      <trkpt lat="42.41012" lon="2.69706">
        <ele>1119.7</ele>
        <time>2018-11-26T04:21:36Z</time>
      </trkpt>
      <trkpt lat="42.41012" lon="2.69706">
        <ele>1119.7</ele>
        <time>2018-11-26T04:21:36Z</time>
      </trkpt>
      <trkpt lat="42.41012" lon="2.69706">
        <ele>1119.8</ele>
        <time>2018-11-26T04:21:36Z</time>
      </trkpt>
      <trkpt lat="42.41012" lon="2.69706">
        <ele>1120.1</ele>
        <time>2018-11-26T04:21:36Z</time>
      </trkpt>
      <trkpt lat="42.41012" lon="2.69706">
        <ele>1120.5</ele>
        <time>2018-11-26T04:21:36Z</time>
      </trkpt>
      <trkpt lat="42.41012" lon="2.69706">
        <ele>1121.3</ele>
        <time>2018-11-26T04:21:36Z</time>
      </trkpt>
      <trkpt lat="42.41013" lon="2.69706">
        <ele>1121.4</ele>
        <time>2018-11-26T04:21:36Z</time>
      </trkpt>
      <trkpt lat="42.41013" lon="2.69707">
        <ele>1121.8</ele>
        <time>2018-11-26T04:21:37Z</time>
      </trkpt>
      <trkpt lat="42.41015" lon="2.69708">
        <ele>1122.6</ele>
        <time>2018-11-26T04:21:37Z</time>
      </trkpt>
      <trkpt lat="42.41015" lon="2.69709">
        <ele>1122.7</ele>
        <time>2018-11-26T04:21:38Z</time>
      </trkpt>
      <trkpt lat="42.41016" lon="2.69709">
        <ele>1122.8</ele>
        <time>2018-11-26T04:21:38Z</time>
      </trkpt>
      <trkpt lat="42.41017" lon="2.69709">
        <ele>1123.2</ele>
        <time>2018-11-26T04:21:39Z</time>
      </trkpt>
      <trkpt lat="42.41018" lon="2.69708">
        <ele>1123.7</ele>
        <time>2018-11-26T04:21:39Z</time>
      </trkpt>
      <trkpt lat="42.41019" lon="2.69708">
        <ele>1124.2</ele>
        <time>2018-11-26T04:21:39Z</time>
      </trkpt>
      <trkpt lat="42.41019" lon="2.6971">
        <ele>1125.1</ele>
        <time>2018-11-26T04:21:40Z</time>
      </trkpt>
      <trkpt lat="42.4102" lon="2.69711">
        <ele>1125.2</ele>
        <time>2018-11-26T04:21:40Z</time>
      </trkpt>
      <trkpt lat="42.4102" lon="2.69712">
        <ele>1125.2</ele>
        <time>2018-11-26T04:21:41Z</time>
      </trkpt>
      <trkpt lat="42.41021" lon="2.69713">
        <ele>1125.2</ele>
        <time>2018-11-26T04:21:41Z</time>
      </trkpt>
      <trkpt lat="42.41022" lon="2.69714">
        <ele>1125.6</ele>
        <time>2018-11-26T04:21:41Z</time>
      </trkpt>
      <trkpt lat="42.41022" lon="2.69714">
        <ele>1126.2</ele>
        <time>2018-11-26T04:21:42Z</time>
      </trkpt>
      <trkpt lat="42.41023" lon="2.69714">
        <ele>1127</ele>
        <time>2018-11-26T04:21:42Z</time>
      </trkpt>
      <trkpt lat="42.41024" lon="2.69713">
        <ele>1127</ele>
        <time>2018-11-26T04:21:43Z</time>
      </trkpt>
      <trkpt lat="42.41025" lon="2.69712">
        <ele>1126.9</ele>
        <time>2018-11-26T04:21:43Z</time>
      </trkpt>
      <trkpt lat="42.41026" lon="2.69712">
        <ele>1126.7</ele>
        <time>2018-11-26T04:21:43Z</time>
      </trkpt>
      <trkpt lat="42.41027" lon="2.69712">
        <ele>1126.5</ele>
        <time>2018-11-26T04:21:44Z</time>
      </trkpt>
      <trkpt lat="42.41027" lon="2.69712">
        <ele>1126.5</ele>
        <time>2018-11-26T04:21:44Z</time>
      </trkpt>
      <trkpt lat="42.41028" lon="2.69713">
        <ele>1126.5</ele>
        <time>2018-11-26T04:21:44Z</time>
      </trkpt>
      <trkpt lat="42.41028" lon="2.69714">
        <ele>1126.6</ele>
        <time>2018-11-26T04:21:45Z</time>
      </trkpt>
      <trkpt lat="42.41028" lon="2.69715">
        <ele>1126.5</ele>
        <time>2018-11-26T04:21:45Z</time>
      </trkpt>
      <trkpt lat="42.41028" lon="2.69716">
        <ele>1126.7</ele>
        <time>2018-11-26T04:21:45Z</time>
      </trkpt>
      <trkpt lat="42.41029" lon="2.69718">
        <ele>1126.9</ele>
        <time>2018-11-26T04:21:46Z</time>
      </trkpt>
      <trkpt lat="42.41028" lon="2.69719">
        <ele>1126.8</ele>
        <time>2018-11-26T04:21:46Z</time>
      </trkpt>
      <trkpt lat="42.41029" lon="2.6972">
        <ele>1126.8</ele>
        <time>2018-11-26T04:21:46Z</time>
      </trkpt>
      <trkpt lat="42.41029" lon="2.69722">
        <ele>1126.6</ele>
        <time>2018-11-26T04:21:47Z</time>
      </trkpt>
      <trkpt lat="42.41029" lon="2.69723">
        <ele>1126.7</ele>
        <time>2018-11-26T04:21:47Z</time>
      </trkpt>
      <trkpt lat="42.4103" lon="2.69723">
        <ele>1126.8</ele>
        <time>2018-11-26T04:21:47Z</time>
      </trkpt>
      <trkpt lat="42.4103" lon="2.69724">
        <ele>1126.9</ele>
        <time>2018-11-26T04:21:48Z</time>
      </trkpt>
      <trkpt lat="42.41034" lon="2.69725">
        <ele>1126.8</ele>
        <time>2018-11-26T04:21:49Z</time>
      </trkpt>
      <trkpt lat="42.41035" lon="2.69725">
        <ele>1126.8</ele>
        <time>2018-11-26T04:21:50Z</time>
      </trkpt>
      <trkpt lat="42.41037" lon="2.69726">
        <ele>1127.2</ele>
        <time>2018-11-26T04:21:51Z</time>
      </trkpt>
      <trkpt lat="42.41038" lon="2.69727">
        <ele>1127.2</ele>
        <time>2018-11-26T04:21:51Z</time>
      </trkpt>
      <trkpt lat="42.4104" lon="2.69728">
        <ele>1127.4</ele>
        <time>2018-11-26T04:21:52Z</time>
      </trkpt>
      <trkpt lat="42.41041" lon="2.69729">
        <ele>1127.3</ele>
        <time>2018-11-26T04:21:52Z</time>
      </trkpt>
      <trkpt lat="42.41041" lon="2.69732">
        <ele>1126.5</ele>
        <time>2018-11-26T04:21:53Z</time>
      </trkpt>
      <trkpt lat="42.41042" lon="2.69734">
        <ele>1126.4</ele>
        <time>2018-11-26T04:21:54Z</time>
      </trkpt>
      <trkpt lat="42.41042" lon="2.69735">
        <ele>1126.2</ele>
        <time>2018-11-26T04:21:54Z</time>
      </trkpt>
      <trkpt lat="42.41042" lon="2.69735">
        <ele>1125.8</ele>
        <time>2018-11-26T04:21:54Z</time>
      </trkpt>
      <trkpt lat="42.41043" lon="2.69735">
        <ele>1126.1</ele>
        <time>2018-11-26T04:21:54Z</time>
      </trkpt>
      <trkpt lat="42.41043" lon="2.69735">
        <ele>1126.3</ele>
        <time>2018-11-26T04:21:54Z</time>
      </trkpt>
      <trkpt lat="42.41043" lon="2.69735">
        <ele>1126.7</ele>
        <time>2018-11-26T04:21:54Z</time>
      </trkpt>
      <trkpt lat="42.41043" lon="2.69735">
        <ele>1126.8</ele>
        <time>2018-11-26T04:21:55Z</time>
      </trkpt>
      <trkpt lat="42.41043" lon="2.69734">
        <ele>1126.8</ele>
        <time>2018-11-26T04:21:55Z</time>
      </trkpt>
      <trkpt lat="42.41043" lon="2.69734">
        <ele>1126.9</ele>
        <time>2018-11-26T04:21:55Z</time>
      </trkpt>
      <trkpt lat="42.41044" lon="2.69735">
        <ele>1126.8</ele>
        <time>2018-11-26T04:21:55Z</time>
      </trkpt>
      <trkpt lat="42.41044" lon="2.69736">
        <ele>1126.9</ele>
        <time>2018-11-26T04:21:56Z</time>
      </trkpt>
      <trkpt lat="42.41045" lon="2.69738">
        <ele>1127.1</ele>
        <time>2018-11-26T04:21:56Z</time>
      </trkpt>
      <trkpt lat="42.41047" lon="2.69741">
        <ele>1127.5</ele>
        <time>2018-11-26T04:21:58Z</time>
      </trkpt>
      <trkpt lat="42.41047" lon="2.69742">
        <ele>1127.6</ele>
        <time>2018-11-26T04:21:58Z</time>
      </trkpt>
      <trkpt lat="42.41052" lon="2.69747">
        <ele>1127.5</ele>
        <time>2018-11-26T04:22:00Z</time>
      </trkpt>
      <trkpt lat="42.41053" lon="2.69749">
        <ele>1127.4</ele>
        <time>2018-11-26T04:22:01Z</time>
      </trkpt>
      <trkpt lat="42.41054" lon="2.6975">
        <ele>1127.3</ele>
        <time>2018-11-26T04:22:01Z</time>
      </trkpt>
      <trkpt lat="42.41055" lon="2.69752">
        <ele>1127.2</ele>
        <time>2018-11-26T04:22:02Z</time>
      </trkpt>
      <trkpt lat="42.41055" lon="2.69753">
        <ele>1127.4</ele>
        <time>2018-11-26T04:22:03Z</time>
      </trkpt>
      <trkpt lat="42.41058" lon="2.69757">
        <ele>1128.5</ele>
        <time>2018-11-26T04:22:04Z</time>
      </trkpt>
      <trkpt lat="42.41059" lon="2.69758">
        <ele>1128.7</ele>
        <time>2018-11-26T04:22:05Z</time>
      </trkpt>
      <trkpt lat="42.41061" lon="2.69762">
        <ele>1129.6</ele>
        <time>2018-11-26T04:22:06Z</time>
      </trkpt>
      <trkpt lat="42.41061" lon="2.69763">
        <ele>1129.9</ele>
        <time>2018-11-26T04:22:06Z</time>
      </trkpt>
      <trkpt lat="42.41062" lon="2.69765">
        <ele>1130.2</ele>
        <time>2018-11-26T04:22:07Z</time>
      </trkpt>
      <trkpt lat="42.41066" lon="2.69772">
        <ele>1132.4</ele>
        <time>2018-11-26T04:22:10Z</time>
      </trkpt>
      <trkpt lat="42.41067" lon="2.69773">
        <ele>1132.4</ele>
        <time>2018-11-26T04:22:10Z</time>
      </trkpt>
      <trkpt lat="42.41068" lon="2.69775">
        <ele>1132.3</ele>
        <time>2018-11-26T04:22:11Z</time>
      </trkpt>
      <trkpt lat="42.41069" lon="2.69776">
        <ele>1132.4</ele>
        <time>2018-11-26T04:22:11Z</time>
      </trkpt>
      <trkpt lat="42.41072" lon="2.69781">
        <ele>1133.2</ele>
        <time>2018-11-26T04:22:13Z</time>
      </trkpt>
      <trkpt lat="42.41074" lon="2.69783">
        <ele>1133.2</ele>
        <time>2018-11-26T04:22:14Z</time>
      </trkpt>
      <trkpt lat="42.41075" lon="2.69785">
        <ele>1133.5</ele>
        <time>2018-11-26T04:22:15Z</time>
      </trkpt>
      <trkpt lat="42.41075" lon="2.69786">
        <ele>1134.2</ele>
        <time>2018-11-26T04:22:15Z</time>
      </trkpt>
      <trkpt lat="42.41077" lon="2.69791">
        <ele>1135</ele>
        <time>2018-11-26T04:22:17Z</time>
      </trkpt>
      <trkpt lat="42.41078" lon="2.69796">
        <ele>1135.9</ele>
        <time>2018-11-26T04:22:18Z</time>
      </trkpt>
      <trkpt lat="42.41079" lon="2.69797">
        <ele>1136.2</ele>
        <time>2018-11-26T04:22:19Z</time>
      </trkpt>
      <trkpt lat="42.41079" lon="2.69798">
        <ele>1136.6</ele>
        <time>2018-11-26T04:22:19Z</time>
      </trkpt>
      <trkpt lat="42.4108" lon="2.69799">
        <ele>1137</ele>
        <time>2018-11-26T04:22:20Z</time>
      </trkpt>
      <trkpt lat="42.4108" lon="2.69801">
        <ele>1137.6</ele>
        <time>2018-11-26T04:22:20Z</time>
      </trkpt>
      <trkpt lat="42.4108" lon="2.69802">
        <ele>1137.7</ele>
        <time>2018-11-26T04:22:20Z</time>
      </trkpt>
      <trkpt lat="42.4108" lon="2.69803">
        <ele>1138</ele>
        <time>2018-11-26T04:22:21Z</time>
      </trkpt>
      <trkpt lat="42.41079" lon="2.69805">
        <ele>1138.4</ele>
        <time>2018-11-26T04:22:21Z</time>
      </trkpt>
      <trkpt lat="42.4108" lon="2.69806">
        <ele>1138.7</ele>
        <time>2018-11-26T04:22:22Z</time>
      </trkpt>
      <trkpt lat="42.4108" lon="2.69808">
        <ele>1139</ele>
        <time>2018-11-26T04:22:22Z</time>
      </trkpt>
      <trkpt lat="42.4108" lon="2.69809">
        <ele>1139.4</ele>
        <time>2018-11-26T04:22:23Z</time>
      </trkpt>
      <trkpt lat="42.4108" lon="2.69811">
        <ele>1139.6</ele>
        <time>2018-11-26T04:22:23Z</time>
      </trkpt>
      <trkpt lat="42.4108" lon="2.69812">
        <ele>1139.9</ele>
        <time>2018-11-26T04:22:23Z</time>
      </trkpt>
      <trkpt lat="42.4108" lon="2.69813">
        <ele>1140.3</ele>
        <time>2018-11-26T04:22:24Z</time>
      </trkpt>
      <trkpt lat="42.4108" lon="2.69819">
        <ele>1142.2</ele>
        <time>2018-11-26T04:22:25Z</time>
      </trkpt>
      <trkpt lat="42.4108" lon="2.6982">
        <ele>1142.8</ele>
        <time>2018-11-26T04:22:26Z</time>
      </trkpt>
      <trkpt lat="42.41079" lon="2.69821">
        <ele>1143.6</ele>
        <time>2018-11-26T04:22:26Z</time>
      </trkpt>
      <trkpt lat="42.41079" lon="2.69823">
        <ele>1144.8</ele>
        <time>2018-11-26T04:22:27Z</time>
      </trkpt>
      <trkpt lat="42.41079" lon="2.69824">
        <ele>1145</ele>
        <time>2018-11-26T04:22:27Z</time>
      </trkpt>
      <trkpt lat="42.41079" lon="2.69825">
        <ele>1145.4</ele>
        <time>2018-11-26T04:22:27Z</time>
      </trkpt>
      <trkpt lat="42.41079" lon="2.69826">
        <ele>1145.8</ele>
        <time>2018-11-26T04:22:28Z</time>
      </trkpt>
      <trkpt lat="42.41078" lon="2.69827">
        <ele>1145.8</ele>
        <time>2018-11-26T04:22:28Z</time>
      </trkpt>
      <trkpt lat="42.41077" lon="2.69829">
        <ele>1145.3</ele>
        <time>2018-11-26T04:22:29Z</time>
      </trkpt>
      <trkpt lat="42.41077" lon="2.6983">
        <ele>1145.8</ele>
        <time>2018-11-26T04:22:29Z</time>
      </trkpt>
      <trkpt lat="42.41077" lon="2.69831">
        <ele>1146.1</ele>
        <time>2018-11-26T04:22:29Z</time>
      </trkpt>
      <trkpt lat="42.41077" lon="2.69832">
        <ele>1146.9</ele>
        <time>2018-11-26T04:22:30Z</time>
      </trkpt>
      <trkpt lat="42.41077" lon="2.69833">
        <ele>1147.1</ele>
        <time>2018-11-26T04:22:30Z</time>
      </trkpt>
      <trkpt lat="42.41077" lon="2.69834">
        <ele>1147.6</ele>
        <time>2018-11-26T04:22:30Z</time>
      </trkpt>
      <trkpt lat="42.41077" lon="2.69835">
        <ele>1148.2</ele>
        <time>2018-11-26T04:22:31Z</time>
      </trkpt>
      <trkpt lat="42.41078" lon="2.69836">
        <ele>1148.3</ele>
        <time>2018-11-26T04:22:31Z</time>
      </trkpt>
      <trkpt lat="42.41078" lon="2.69837">
        <ele>1148.3</ele>
        <time>2018-11-26T04:22:31Z</time>
      </trkpt>
      <trkpt lat="42.41077" lon="2.69838">
        <ele>1148.6</ele>
        <time>2018-11-26T04:22:32Z</time>
      </trkpt>
      <trkpt lat="42.41076" lon="2.69839">
        <ele>1148.6</ele>
        <time>2018-11-26T04:22:32Z</time>
      </trkpt>
      <trkpt lat="42.41076" lon="2.6984">
        <ele>1148.9</ele>
        <time>2018-11-26T04:22:32Z</time>
      </trkpt>
      <trkpt lat="42.41075" lon="2.69842">
        <ele>1149.1</ele>
        <time>2018-11-26T04:22:33Z</time>
      </trkpt>
      <trkpt lat="42.41076" lon="2.69844">
        <ele>1149.3</ele>
        <time>2018-11-26T04:22:34Z</time>
      </trkpt>
      <trkpt lat="42.41076" lon="2.69846">
        <ele>1149</ele>
        <time>2018-11-26T04:22:34Z</time>
      </trkpt>
      <trkpt lat="42.41076" lon="2.69847">
        <ele>1148.8</ele>
        <time>2018-11-26T04:22:35Z</time>
      </trkpt>
      <trkpt lat="42.41076" lon="2.69849">
        <ele>1149.3</ele>
        <time>2018-11-26T04:22:35Z</time>
      </trkpt>
      <trkpt lat="42.41077" lon="2.69851">
        <ele>1149.7</ele>
        <time>2018-11-26T04:22:36Z</time>
      </trkpt>
      <trkpt lat="42.41077" lon="2.69852">
        <ele>1150.2</ele>
        <time>2018-11-26T04:22:36Z</time>
      </trkpt>
      <trkpt lat="42.41078" lon="2.69854">
        <ele>1150.6</ele>
        <time>2018-11-26T04:22:37Z</time>
      </trkpt>
      <trkpt lat="42.4108" lon="2.69856">
        <ele>1151.5</ele>
        <time>2018-11-26T04:22:38Z</time>
      </trkpt>
      <trkpt lat="42.41081" lon="2.69857">
        <ele>1151.7</ele>
        <time>2018-11-26T04:22:38Z</time>
      </trkpt>
      <trkpt lat="42.41081" lon="2.69859">
        <ele>1151.9</ele>
        <time>2018-11-26T04:22:39Z</time>
      </trkpt>
      <trkpt lat="42.41082" lon="2.69862">
        <ele>1152.6</ele>
        <time>2018-11-26T04:22:40Z</time>
      </trkpt>
      <trkpt lat="42.41082" lon="2.69864">
        <ele>1152.8</ele>
        <time>2018-11-26T04:22:40Z</time>
      </trkpt>
      <trkpt lat="42.41084" lon="2.69867">
        <ele>1154.2</ele>
        <time>2018-11-26T04:22:41Z</time>
      </trkpt>
      <trkpt lat="42.41085" lon="2.69869">
        <ele>1155.2</ele>
        <time>2018-11-26T04:22:42Z</time>
      </trkpt>
      <trkpt lat="42.41085" lon="2.69871">
        <ele>1155.7</ele>
        <time>2018-11-26T04:22:43Z</time>
      </trkpt>
      <trkpt lat="42.41085" lon="2.69872">
        <ele>1156</ele>
        <time>2018-11-26T04:22:43Z</time>
      </trkpt>
      <trkpt lat="42.41086" lon="2.69873">
        <ele>1156.6</ele>
        <time>2018-11-26T04:22:43Z</time>
      </trkpt>
      <trkpt lat="42.41086" lon="2.69874">
        <ele>1156.7</ele>
        <time>2018-11-26T04:22:44Z</time>
      </trkpt>
      <trkpt lat="42.41086" lon="2.69875">
        <ele>1156.9</ele>
        <time>2018-11-26T04:22:44Z</time>
      </trkpt>
      <trkpt lat="42.41086" lon="2.69876">
        <ele>1157</ele>
        <time>2018-11-26T04:22:44Z</time>
      </trkpt>
      <trkpt lat="42.41086" lon="2.69878">
        <ele>1157.3</ele>
        <time>2018-11-26T04:22:45Z</time>
      </trkpt>
      <trkpt lat="42.41086" lon="2.69879">
        <ele>1157.5</ele>
        <time>2018-11-26T04:22:45Z</time>
      </trkpt>
      <trkpt lat="42.41087" lon="2.6988">
        <ele>1157.9</ele>
        <time>2018-11-26T04:22:46Z</time>
      </trkpt>
      <trkpt lat="42.41086" lon="2.69881">
        <ele>1158</ele>
        <time>2018-11-26T04:22:46Z</time>
      </trkpt>
      <trkpt lat="42.41087" lon="2.69883">
        <ele>1158.2</ele>
        <time>2018-11-26T04:22:46Z</time>
      </trkpt>
      <trkpt lat="42.41087" lon="2.69884">
        <ele>1158.4</ele>
        <time>2018-11-26T04:22:47Z</time>
      </trkpt>
      <trkpt lat="42.41088" lon="2.69884">
        <ele>1158.6</ele>
        <time>2018-11-26T04:22:47Z</time>
      </trkpt>
      <trkpt lat="42.41089" lon="2.69885">
        <ele>1158.8</ele>
        <time>2018-11-26T04:22:47Z</time>
      </trkpt>
      <trkpt lat="42.41089" lon="2.69886">
        <ele>1159.3</ele>
        <time>2018-11-26T04:22:48Z</time>
      </trkpt>
      <trkpt lat="42.41089" lon="2.69888">
        <ele>1159.9</ele>
        <time>2018-11-26T04:22:48Z</time>
      </trkpt>
      <trkpt lat="42.41089" lon="2.69889">
        <ele>1160.1</ele>
        <time>2018-11-26T04:22:49Z</time>
      </trkpt>
      <trkpt lat="42.41089" lon="2.6989">
        <ele>1160.6</ele>
        <time>2018-11-26T04:22:49Z</time>
      </trkpt>
      <trkpt lat="42.41089" lon="2.69891">
        <ele>1161.3</ele>
        <time>2018-11-26T04:22:49Z</time>
      </trkpt>
      <trkpt lat="42.41089" lon="2.69893">
        <ele>1161.6</ele>
        <time>2018-11-26T04:22:50Z</time>
      </trkpt>
      <trkpt lat="42.41089" lon="2.69894">
        <ele>1161.9</ele>
        <time>2018-11-26T04:22:50Z</time>
      </trkpt>
      <trkpt lat="42.4109" lon="2.69895">
        <ele>1162.2</ele>
        <time>2018-11-26T04:22:50Z</time>
      </trkpt>
      <trkpt lat="42.41091" lon="2.69896">
        <ele>1162.3</ele>
        <time>2018-11-26T04:22:51Z</time>
      </trkpt>
      <trkpt lat="42.41092" lon="2.69897">
        <ele>1162.4</ele>
        <time>2018-11-26T04:22:51Z</time>
      </trkpt>
      <trkpt lat="42.41093" lon="2.699">
        <ele>1162.6</ele>
        <time>2018-11-26T04:22:52Z</time>
      </trkpt>
      <trkpt lat="42.41093" lon="2.69901">
        <ele>1162.9</ele>
        <time>2018-11-26T04:22:53Z</time>
      </trkpt>
      <trkpt lat="42.41093" lon="2.69902">
        <ele>1163.2</ele>
        <time>2018-11-26T04:22:53Z</time>
      </trkpt>
      <trkpt lat="42.41092" lon="2.69904">
        <ele>1163.6</ele>
        <time>2018-11-26T04:22:54Z</time>
      </trkpt>
      <trkpt lat="42.41092" lon="2.69905">
        <ele>1164.1</ele>
        <time>2018-11-26T04:22:54Z</time>
      </trkpt>
      <trkpt lat="42.41092" lon="2.69906">
        <ele>1164.7</ele>
        <time>2018-11-26T04:22:54Z</time>
      </trkpt>
      <trkpt lat="42.41092" lon="2.69908">
        <ele>1165.6</ele>
        <time>2018-11-26T04:22:55Z</time>
      </trkpt>
      <trkpt lat="42.41092" lon="2.69909">
        <ele>1165.7</ele>
        <time>2018-11-26T04:22:55Z</time>
      </trkpt>
      <trkpt lat="42.41092" lon="2.6991">
        <ele>1166</ele>
        <time>2018-11-26T04:22:55Z</time>
      </trkpt>
      <trkpt lat="42.41092" lon="2.69911">
        <ele>1166.3</ele>
        <time>2018-11-26T04:22:56Z</time>
      </trkpt>
      <trkpt lat="42.41091" lon="2.69912">
        <ele>1166.3</ele>
        <time>2018-11-26T04:22:56Z</time>
      </trkpt>
      <trkpt lat="42.4109" lon="2.69913">
        <ele>1166.4</ele>
        <time>2018-11-26T04:22:57Z</time>
      </trkpt>
      <trkpt lat="42.41089" lon="2.69914">
        <ele>1166.4</ele>
        <time>2018-11-26T04:22:57Z</time>
      </trkpt>
      <trkpt lat="42.41088" lon="2.69915">
        <ele>1166.7</ele>
        <time>2018-11-26T04:22:58Z</time>
      </trkpt>
      <trkpt lat="42.41088" lon="2.69917">
        <ele>1167.2</ele>
        <time>2018-11-26T04:22:58Z</time>
      </trkpt>
      <trkpt lat="42.41089" lon="2.69919">
        <ele>1168.1</ele>
        <time>2018-11-26T04:22:59Z</time>
      </trkpt>
      <trkpt lat="42.41089" lon="2.69921">
        <ele>1168.4</ele>
        <time>2018-11-26T04:22:59Z</time>
      </trkpt>
      <trkpt lat="42.41089" lon="2.69922">
        <ele>1168.7</ele>
        <time>2018-11-26T04:23:00Z</time>
      </trkpt>
      <trkpt lat="42.4109" lon="2.69925">
        <ele>1169.3</ele>
        <time>2018-11-26T04:23:01Z</time>
      </trkpt>
      <trkpt lat="42.41091" lon="2.69926">
        <ele>1169.3</ele>
        <time>2018-11-26T04:23:01Z</time>
      </trkpt>
      <trkpt lat="42.41091" lon="2.69927">
        <ele>1169.4</ele>
        <time>2018-11-26T04:23:02Z</time>
      </trkpt>
      <trkpt lat="42.41092" lon="2.69927">
        <ele>1169.6</ele>
        <time>2018-11-26T04:23:02Z</time>
      </trkpt>
      <trkpt lat="42.41092" lon="2.69928">
        <ele>1169.9</ele>
        <time>2018-11-26T04:23:02Z</time>
      </trkpt>
      <trkpt lat="42.41092" lon="2.69929">
        <ele>1170.4</ele>
        <time>2018-11-26T04:23:02Z</time>
      </trkpt>
      <trkpt lat="42.41092" lon="2.69931">
        <ele>1170.8</ele>
        <time>2018-11-26T04:23:03Z</time>
      </trkpt>
      <trkpt lat="42.41092" lon="2.69932">
        <ele>1171.4</ele>
        <time>2018-11-26T04:23:03Z</time>
      </trkpt>
      <trkpt lat="42.41092" lon="2.69933">
        <ele>1172.1</ele>
        <time>2018-11-26T04:23:03Z</time>
      </trkpt>
      <trkpt lat="42.41092" lon="2.69934">
        <ele>1172.2</ele>
        <time>2018-11-26T04:23:04Z</time>
      </trkpt>
      <trkpt lat="42.41092" lon="2.69935">
        <ele>1172.4</ele>
        <time>2018-11-26T04:23:04Z</time>
      </trkpt>
      <trkpt lat="42.41092" lon="2.69937">
        <ele>1172.6</ele>
        <time>2018-11-26T04:23:05Z</time>
      </trkpt>
      <trkpt lat="42.41092" lon="2.69938">
        <ele>1172.8</ele>
        <time>2018-11-26T04:23:05Z</time>
      </trkpt>
      <trkpt lat="42.41092" lon="2.6994">
        <ele>1173.1</ele>
        <time>2018-11-26T04:23:06Z</time>
      </trkpt>
      <trkpt lat="42.41093" lon="2.69941">
        <ele>1173.4</ele>
        <time>2018-11-26T04:23:06Z</time>
      </trkpt>
      <trkpt lat="42.41094" lon="2.69942">
        <ele>1173.6</ele>
        <time>2018-11-26T04:23:06Z</time>
      </trkpt>
      <trkpt lat="42.41094" lon="2.69942">
        <ele>1174.1</ele>
        <time>2018-11-26T04:23:07Z</time>
      </trkpt>
      <trkpt lat="42.41095" lon="2.69943">
        <ele>1174.8</ele>
        <time>2018-11-26T04:23:07Z</time>
      </trkpt>
      <trkpt lat="42.41096" lon="2.69944">
        <ele>1175.8</ele>
        <time>2018-11-26T04:23:08Z</time>
      </trkpt>
      <trkpt lat="42.41096" lon="2.69945">
        <ele>1175.8</ele>
        <time>2018-11-26T04:23:08Z</time>
      </trkpt>
      <trkpt lat="42.41099" lon="2.69947">
        <ele>1176.2</ele>
        <time>2018-11-26T04:23:09Z</time>
      </trkpt>
      <trkpt lat="42.411" lon="2.69947">
        <ele>1176.4</ele>
        <time>2018-11-26T04:23:09Z</time>
      </trkpt>
      <trkpt lat="42.411" lon="2.69948">
        <ele>1176.8</ele>
        <time>2018-11-26T04:23:10Z</time>
      </trkpt>
      <trkpt lat="42.41101" lon="2.69949">
        <ele>1177.1</ele>
        <time>2018-11-26T04:23:10Z</time>
      </trkpt>
      <trkpt lat="42.41102" lon="2.6995">
        <ele>1177.3</ele>
        <time>2018-11-26T04:23:11Z</time>
      </trkpt>
      <trkpt lat="42.41105" lon="2.69958">
        <ele>1178.8</ele>
        <time>2018-11-26T04:23:14Z</time>
      </trkpt>
      <trkpt lat="42.41106" lon="2.6996">
        <ele>1179.1</ele>
        <time>2018-11-26T04:23:14Z</time>
      </trkpt>
      <trkpt lat="42.41107" lon="2.69961">
        <ele>1179.6</ele>
        <time>2018-11-26T04:23:14Z</time>
      </trkpt>
      <trkpt lat="42.41108" lon="2.69962">
        <ele>1180.2</ele>
        <time>2018-11-26T04:23:15Z</time>
      </trkpt>
      <trkpt lat="42.41108" lon="2.69965">
        <ele>1180.5</ele>
        <time>2018-11-26T04:23:16Z</time>
      </trkpt>
      <trkpt lat="42.41108" lon="2.69966">
        <ele>1180.9</ele>
        <time>2018-11-26T04:23:16Z</time>
      </trkpt>
      <trkpt lat="42.41109" lon="2.69967">
        <ele>1181</ele>
        <time>2018-11-26T04:23:17Z</time>
      </trkpt>
      <trkpt lat="42.41109" lon="2.69969">
        <ele>1181.1</ele>
        <time>2018-11-26T04:23:17Z</time>
      </trkpt>
      <trkpt lat="42.4111" lon="2.6997">
        <ele>1181.4</ele>
        <time>2018-11-26T04:23:17Z</time>
      </trkpt>
      <trkpt lat="42.4111" lon="2.69971">
        <ele>1181.5</ele>
        <time>2018-11-26T04:23:18Z</time>
      </trkpt>
      <trkpt lat="42.4111" lon="2.69974">
        <ele>1181.5</ele>
        <time>2018-11-26T04:23:19Z</time>
      </trkpt>
      <trkpt lat="42.41111" lon="2.69975">
        <ele>1181.8</ele>
        <time>2018-11-26T04:23:19Z</time>
      </trkpt>
      <trkpt lat="42.41111" lon="2.69977">
        <ele>1182.2</ele>
        <time>2018-11-26T04:23:20Z</time>
      </trkpt>
      <trkpt lat="42.4111" lon="2.69977">
        <ele>1182.8</ele>
        <time>2018-11-26T04:23:20Z</time>
      </trkpt>
      <trkpt lat="42.41109" lon="2.69978">
        <ele>1183</ele>
        <time>2018-11-26T04:23:20Z</time>
      </trkpt>
      <trkpt lat="42.41109" lon="2.69978">
        <ele>1183.3</ele>
        <time>2018-11-26T04:23:21Z</time>
      </trkpt>
      <trkpt lat="42.41108" lon="2.69979">
        <ele>1183.6</ele>
        <time>2018-11-26T04:23:21Z</time>
      </trkpt>
      <trkpt lat="42.41108" lon="2.6998">
        <ele>1184</ele>
        <time>2018-11-26T04:23:21Z</time>
      </trkpt>
      <trkpt lat="42.41109" lon="2.69982">
        <ele>1184.4</ele>
        <time>2018-11-26T04:23:22Z</time>
      </trkpt>
      <trkpt lat="42.41109" lon="2.69983">
        <ele>1185</ele>
        <time>2018-11-26T04:23:22Z</time>
      </trkpt>
      <trkpt lat="42.41111" lon="2.69984">
        <ele>1185.6</ele>
        <time>2018-11-26T04:23:23Z</time>
      </trkpt>
      <trkpt lat="42.41111" lon="2.69985">
        <ele>1185.6</ele>
        <time>2018-11-26T04:23:23Z</time>
      </trkpt>
      <trkpt lat="42.41112" lon="2.69988">
        <ele>1185.9</ele>
        <time>2018-11-26T04:23:24Z</time>
      </trkpt>
      <trkpt lat="42.41113" lon="2.69989">
        <ele>1186.3</ele>
        <time>2018-11-26T04:23:24Z</time>
      </trkpt>
      <trkpt lat="42.41113" lon="2.6999">
        <ele>1186.9</ele>
        <time>2018-11-26T04:23:25Z</time>
      </trkpt>
      <trkpt lat="42.41114" lon="2.69992">
        <ele>1187.1</ele>
        <time>2018-11-26T04:23:25Z</time>
      </trkpt>
      <trkpt lat="42.41114" lon="2.69993">
        <ele>1187.2</ele>
        <time>2018-11-26T04:23:26Z</time>
      </trkpt>
      <trkpt lat="42.41115" lon="2.69994">
        <ele>1187.4</ele>
        <time>2018-11-26T04:23:26Z</time>
      </trkpt>
      <trkpt lat="42.41115" lon="2.69995">
        <ele>1187.5</ele>
        <time>2018-11-26T04:23:26Z</time>
      </trkpt>
      <trkpt lat="42.41116" lon="2.69996">
        <ele>1187.8</ele>
        <time>2018-11-26T04:23:27Z</time>
      </trkpt>
      <trkpt lat="42.41116" lon="2.69998">
        <ele>1187.8</ele>
        <time>2018-11-26T04:23:27Z</time>
      </trkpt>
      <trkpt lat="42.41116" lon="2.69998">
        <ele>1188.1</ele>
        <time>2018-11-26T04:23:27Z</time>
      </trkpt>
      <trkpt lat="42.41116" lon="2.69999">
        <ele>1188.5</ele>
        <time>2018-11-26T04:23:28Z</time>
      </trkpt>
      <trkpt lat="42.41117" lon="2.7">
        <ele>1188.9</ele>
        <time>2018-11-26T04:23:28Z</time>
      </trkpt>
      <trkpt lat="42.41118" lon="2.70002">
        <ele>1189.5</ele>
        <time>2018-11-26T04:23:29Z</time>
      </trkpt>
      <trkpt lat="42.41119" lon="2.70004">
        <ele>1188.9</ele>
        <time>2018-11-26T04:23:30Z</time>
      </trkpt>
      <trkpt lat="42.4112" lon="2.70005">
        <ele>1188.9</ele>
        <time>2018-11-26T04:23:30Z</time>
      </trkpt>
      <trkpt lat="42.4112" lon="2.70006">
        <ele>1189.1</ele>
        <time>2018-11-26T04:23:30Z</time>
      </trkpt>
      <trkpt lat="42.41121" lon="2.70006">
        <ele>1189.2</ele>
        <time>2018-11-26T04:23:31Z</time>
      </trkpt>
      <trkpt lat="42.41121" lon="2.70007">
        <ele>1189.4</ele>
        <time>2018-11-26T04:23:31Z</time>
      </trkpt>
      <trkpt lat="42.41122" lon="2.70008">
        <ele>1189.7</ele>
        <time>2018-11-26T04:23:31Z</time>
      </trkpt>
      <trkpt lat="42.41123" lon="2.70008">
        <ele>1190</ele>
        <time>2018-11-26T04:23:32Z</time>
      </trkpt>
      <trkpt lat="42.41124" lon="2.70009">
        <ele>1190.2</ele>
        <time>2018-11-26T04:23:32Z</time>
      </trkpt>
      <trkpt lat="42.41124" lon="2.7001">
        <ele>1190.2</ele>
        <time>2018-11-26T04:23:32Z</time>
      </trkpt>
      <trkpt lat="42.41125" lon="2.70012">
        <ele>1190.3</ele>
        <time>2018-11-26T04:23:33Z</time>
      </trkpt>
      <trkpt lat="42.41125" lon="2.70013">
        <ele>1190.5</ele>
        <time>2018-11-26T04:23:33Z</time>
      </trkpt>
      <trkpt lat="42.41126" lon="2.70014">
        <ele>1190.8</ele>
        <time>2018-11-26T04:23:34Z</time>
      </trkpt>
      <trkpt lat="42.41126" lon="2.70015">
        <ele>1191.3</ele>
        <time>2018-11-26T04:23:34Z</time>
      </trkpt>
      <trkpt lat="42.41127" lon="2.70015">
        <ele>1191.8</ele>
        <time>2018-11-26T04:23:34Z</time>
      </trkpt>
      <trkpt lat="42.41127" lon="2.70016">
        <ele>1191.8</ele>
        <time>2018-11-26T04:23:34Z</time>
      </trkpt>
      <trkpt lat="42.41127" lon="2.70017">
        <ele>1191.9</ele>
        <time>2018-11-26T04:23:35Z</time>
      </trkpt>
      <trkpt lat="42.41128" lon="2.70018">
        <ele>1192.1</ele>
        <time>2018-11-26T04:23:35Z</time>
      </trkpt>
      <trkpt lat="42.41131" lon="2.70025">
        <ele>1192.5</ele>
        <time>2018-11-26T04:23:38Z</time>
      </trkpt>
      <trkpt lat="42.41132" lon="2.70026">
        <ele>1192.9</ele>
        <time>2018-11-26T04:23:38Z</time>
      </trkpt>
      <trkpt lat="42.41135" lon="2.7003">
        <ele>1194.1</ele>
        <time>2018-11-26T04:23:40Z</time>
      </trkpt>
      <trkpt lat="42.41136" lon="2.70031">
        <ele>1194.3</ele>
        <time>2018-11-26T04:23:40Z</time>
      </trkpt>
      <trkpt lat="42.41137" lon="2.70033">
        <ele>1195.2</ele>
        <time>2018-11-26T04:23:41Z</time>
      </trkpt>
      <trkpt lat="42.41137" lon="2.70035">
        <ele>1195.2</ele>
        <time>2018-11-26T04:23:41Z</time>
      </trkpt>
      <trkpt lat="42.41138" lon="2.70036">
        <ele>1195.1</ele>
        <time>2018-11-26T04:23:42Z</time>
      </trkpt>
      <trkpt lat="42.41139" lon="2.70037">
        <ele>1195.2</ele>
        <time>2018-11-26T04:23:42Z</time>
      </trkpt>
      <trkpt lat="42.4114" lon="2.70038">
        <ele>1195.5</ele>
        <time>2018-11-26T04:23:43Z</time>
      </trkpt>
      <trkpt lat="42.41143" lon="2.70044">
        <ele>1196.8</ele>
        <time>2018-11-26T04:23:45Z</time>
      </trkpt>
      <trkpt lat="42.41144" lon="2.70046">
        <ele>1197.1</ele>
        <time>2018-11-26T04:23:46Z</time>
      </trkpt>
      <trkpt lat="42.41145" lon="2.70048">
        <ele>1197.3</ele>
        <time>2018-11-26T04:23:46Z</time>
      </trkpt>
      <trkpt lat="42.41146" lon="2.7005">
        <ele>1197.1</ele>
        <time>2018-11-26T04:23:47Z</time>
      </trkpt>
      <trkpt lat="42.41147" lon="2.70051">
        <ele>1197</ele>
        <time>2018-11-26T04:23:48Z</time>
      </trkpt>
      <trkpt lat="42.4115" lon="2.70055">
        <ele>1197.1</ele>
        <time>2018-11-26T04:23:49Z</time>
      </trkpt>
      <trkpt lat="42.4115" lon="2.70056">
        <ele>1197.4</ele>
        <time>2018-11-26T04:23:50Z</time>
      </trkpt>
      <trkpt lat="42.41152" lon="2.70057">
        <ele>1197.9</ele>
        <time>2018-11-26T04:23:50Z</time>
      </trkpt>
      <trkpt lat="42.41153" lon="2.70058">
        <ele>1198.3</ele>
        <time>2018-11-26T04:23:51Z</time>
      </trkpt>
      <trkpt lat="42.41154" lon="2.70058">
        <ele>1198.2</ele>
        <time>2018-11-26T04:23:51Z</time>
      </trkpt>
      <trkpt lat="42.41155" lon="2.70059">
        <ele>1198.1</ele>
        <time>2018-11-26T04:23:52Z</time>
      </trkpt>
      <trkpt lat="42.41156" lon="2.7006">
        <ele>1198.2</ele>
        <time>2018-11-26T04:23:52Z</time>
      </trkpt>
      <trkpt lat="42.41158" lon="2.70062">
        <ele>1198.3</ele>
        <time>2018-11-26T04:23:53Z</time>
      </trkpt>
      <trkpt lat="42.41159" lon="2.70063">
        <ele>1198.4</ele>
        <time>2018-11-26T04:23:54Z</time>
      </trkpt>
      <trkpt lat="42.4116" lon="2.70065">
        <ele>1198.8</ele>
        <time>2018-11-26T04:23:54Z</time>
      </trkpt>
      <trkpt lat="42.41161" lon="2.70066">
        <ele>1199.2</ele>
        <time>2018-11-26T04:23:55Z</time>
      </trkpt>
      <trkpt lat="42.41161" lon="2.70067">
        <ele>1199.8</ele>
        <time>2018-11-26T04:23:55Z</time>
      </trkpt>
      <trkpt lat="42.41161" lon="2.70068">
        <ele>1200.2</ele>
        <time>2018-11-26T04:23:55Z</time>
      </trkpt>
      <trkpt lat="42.41161" lon="2.70069">
        <ele>1200.7</ele>
        <time>2018-11-26T04:23:56Z</time>
      </trkpt>
      <trkpt lat="42.41162" lon="2.70069">
        <ele>1201.2</ele>
        <time>2018-11-26T04:23:56Z</time>
      </trkpt>
      <trkpt lat="42.41162" lon="2.7007">
        <ele>1201.6</ele>
        <time>2018-11-26T04:23:56Z</time>
      </trkpt>
      <trkpt lat="42.41162" lon="2.70071">
        <ele>1202</ele>
        <time>2018-11-26T04:23:56Z</time>
      </trkpt>
      <trkpt lat="42.41162" lon="2.70072">
        <ele>1202.6</ele>
        <time>2018-11-26T04:23:57Z</time>
      </trkpt>
      <trkpt lat="42.41162" lon="2.70073">
        <ele>1202.7</ele>
        <time>2018-11-26T04:23:57Z</time>
      </trkpt>
      <trkpt lat="42.41163" lon="2.70074">
        <ele>1202.8</ele>
        <time>2018-11-26T04:23:57Z</time>
      </trkpt>
      <trkpt lat="42.41163" lon="2.70074">
        <ele>1202.8</ele>
        <time>2018-11-26T04:23:58Z</time>
      </trkpt>
      <trkpt lat="42.41163" lon="2.70075">
        <ele>1203.2</ele>
        <time>2018-11-26T04:23:58Z</time>
      </trkpt>
      <trkpt lat="42.41164" lon="2.70076">
        <ele>1203.6</ele>
        <time>2018-11-26T04:23:58Z</time>
      </trkpt>
      <trkpt lat="42.41164" lon="2.70077">
        <ele>1204.1</ele>
        <time>2018-11-26T04:23:58Z</time>
      </trkpt>
      <trkpt lat="42.41164" lon="2.70077">
        <ele>1204.1</ele>
        <time>2018-11-26T04:23:59Z</time>
      </trkpt>
      <trkpt lat="42.41164" lon="2.70078">
        <ele>1204.3</ele>
        <time>2018-11-26T04:23:59Z</time>
      </trkpt>
      <trkpt lat="42.41165" lon="2.70078">
        <ele>1204.5</ele>
        <time>2018-11-26T04:23:59Z</time>
      </trkpt>
      <trkpt lat="42.41165" lon="2.70079">
        <ele>1205</ele>
        <time>2018-11-26T04:23:59Z</time>
      </trkpt>
      <trkpt lat="42.41165" lon="2.7008">
        <ele>1205.5</ele>
        <time>2018-11-26T04:23:59Z</time>
      </trkpt>
      <trkpt lat="42.41165" lon="2.70081">
        <ele>1206.3</ele>
        <time>2018-11-26T04:24:00Z</time>
      </trkpt>
      <trkpt lat="42.41165" lon="2.70081">
        <ele>1207.5</ele>
        <time>2018-11-26T04:24:00Z</time>
      </trkpt>
      <trkpt lat="42.41165" lon="2.70082">
        <ele>1207.7</ele>
        <time>2018-11-26T04:24:00Z</time>
      </trkpt>
      <trkpt lat="42.41166" lon="2.70082">
        <ele>1208</ele>
        <time>2018-11-26T04:24:00Z</time>
      </trkpt>
      <trkpt lat="42.41166" lon="2.70083">
        <ele>1208.4</ele>
        <time>2018-11-26T04:24:01Z</time>
      </trkpt>
      <trkpt lat="42.41167" lon="2.70084">
        <ele>1208.5</ele>
        <time>2018-11-26T04:24:01Z</time>
      </trkpt>
      <trkpt lat="42.41167" lon="2.70084">
        <ele>1208.6</ele>
        <time>2018-11-26T04:24:01Z</time>
      </trkpt>
      <trkpt lat="42.41167" lon="2.70085">
        <ele>1208.7</ele>
        <time>2018-11-26T04:24:01Z</time>
      </trkpt>
      <trkpt lat="42.41168" lon="2.70086">
        <ele>1208.9</ele>
        <time>2018-11-26T04:24:02Z</time>
      </trkpt>
      <trkpt lat="42.41169" lon="2.70087">
        <ele>1209.2</ele>
        <time>2018-11-26T04:24:02Z</time>
      </trkpt>
      <trkpt lat="42.4117" lon="2.70087">
        <ele>1209.3</ele>
        <time>2018-11-26T04:24:03Z</time>
      </trkpt>
      <trkpt lat="42.4117" lon="2.70088">
        <ele>1209.4</ele>
        <time>2018-11-26T04:24:03Z</time>
      </trkpt>
      <trkpt lat="42.41171" lon="2.70089">
        <ele>1209.6</ele>
        <time>2018-11-26T04:24:03Z</time>
      </trkpt>
      <trkpt lat="42.41172" lon="2.7009">
        <ele>1209.8</ele>
        <time>2018-11-26T04:24:04Z</time>
      </trkpt>
      <trkpt lat="42.41172" lon="2.70091">
        <ele>1210</ele>
        <time>2018-11-26T04:24:04Z</time>
      </trkpt>
      <trkpt lat="42.41173" lon="2.70091">
        <ele>1210.1</ele>
        <time>2018-11-26T04:24:04Z</time>
      </trkpt>
      <trkpt lat="42.41173" lon="2.70092">
        <ele>1210.4</ele>
        <time>2018-11-26T04:24:05Z</time>
      </trkpt>
      <trkpt lat="42.41173" lon="2.70093">
        <ele>1210.8</ele>
        <time>2018-11-26T04:24:05Z</time>
      </trkpt>
      <trkpt lat="42.41172" lon="2.70093">
        <ele>1211.3</ele>
        <time>2018-11-26T04:24:05Z</time>
      </trkpt>
      <trkpt lat="42.41172" lon="2.70094">
        <ele>1212.1</ele>
        <time>2018-11-26T04:24:05Z</time>
      </trkpt>
      <trkpt lat="42.41172" lon="2.70095">
        <ele>1212.2</ele>
        <time>2018-11-26T04:24:05Z</time>
      </trkpt>
      <trkpt lat="42.41171" lon="2.70095">
        <ele>1212.4</ele>
        <time>2018-11-26T04:24:06Z</time>
      </trkpt>
      <trkpt lat="42.41171" lon="2.70096">
        <ele>1212.8</ele>
        <time>2018-11-26T04:24:06Z</time>
      </trkpt>
      <trkpt lat="42.4117" lon="2.70097">
        <ele>1213.1</ele>
        <time>2018-11-26T04:24:06Z</time>
      </trkpt>
      <trkpt lat="42.4117" lon="2.70097">
        <ele>1213.6</ele>
        <time>2018-11-26T04:24:06Z</time>
      </trkpt>
      <trkpt lat="42.41171" lon="2.70099">
        <ele>1214.4</ele>
        <time>2018-11-26T04:24:07Z</time>
      </trkpt>
      <trkpt lat="42.41171" lon="2.70099">
        <ele>1214.3</ele>
        <time>2018-11-26T04:24:07Z</time>
      </trkpt>
      <trkpt lat="42.41174" lon="2.70101">
        <ele>1214.4</ele>
        <time>2018-11-26T04:24:08Z</time>
      </trkpt>
      <trkpt lat="42.41175" lon="2.70101">
        <ele>1214.4</ele>
        <time>2018-11-26T04:24:09Z</time>
      </trkpt>
      <trkpt lat="42.41179" lon="2.70105">
        <ele>1215.8</ele>
        <time>2018-11-26T04:24:11Z</time>
      </trkpt>
      <trkpt lat="42.4118" lon="2.70106">
        <ele>1216.6</ele>
        <time>2018-11-26T04:24:11Z</time>
      </trkpt>
      <trkpt lat="42.4118" lon="2.70107">
        <ele>1217.7</ele>
        <time>2018-11-26T04:24:11Z</time>
      </trkpt>
      <trkpt lat="42.41181" lon="2.70108">
        <ele>1218</ele>
        <time>2018-11-26T04:24:12Z</time>
      </trkpt>
      <trkpt lat="42.41181" lon="2.70109">
        <ele>1218.5</ele>
        <time>2018-11-26T04:24:12Z</time>
      </trkpt>
      <trkpt lat="42.41181" lon="2.70111">
        <ele>1218.9</ele>
        <time>2018-11-26T04:24:13Z</time>
      </trkpt>
      <trkpt lat="42.41182" lon="2.70112">
        <ele>1219.4</ele>
        <time>2018-11-26T04:24:13Z</time>
      </trkpt>
      <trkpt lat="42.41182" lon="2.70113">
        <ele>1219.9</ele>
        <time>2018-11-26T04:24:13Z</time>
      </trkpt>
      <trkpt lat="42.41182" lon="2.70113">
        <ele>1220.7</ele>
        <time>2018-11-26T04:24:14Z</time>
      </trkpt>
      <trkpt lat="42.41183" lon="2.70114">
        <ele>1221</ele>
        <time>2018-11-26T04:24:14Z</time>
      </trkpt>
      <trkpt lat="42.41183" lon="2.70115">
        <ele>1221.1</ele>
        <time>2018-11-26T04:24:14Z</time>
      </trkpt>
      <trkpt lat="42.41183" lon="2.70116">
        <ele>1221.5</ele>
        <time>2018-11-26T04:24:15Z</time>
      </trkpt>
      <trkpt lat="42.41184" lon="2.70117">
        <ele>1221.7</ele>
        <time>2018-11-26T04:24:15Z</time>
      </trkpt>
      <trkpt lat="42.41184" lon="2.70118">
        <ele>1222</ele>
        <time>2018-11-26T04:24:15Z</time>
      </trkpt>
      <trkpt lat="42.41184" lon="2.70119">
        <ele>1222.6</ele>
        <time>2018-11-26T04:24:16Z</time>
      </trkpt>
      <trkpt lat="42.41185" lon="2.70121">
        <ele>1223.3</ele>
        <time>2018-11-26T04:24:16Z</time>
      </trkpt>
      <trkpt lat="42.41185" lon="2.70123">
        <ele>1223.7</ele>
        <time>2018-11-26T04:24:17Z</time>
      </trkpt>
      <trkpt lat="42.41186" lon="2.70124">
        <ele>1224</ele>
        <time>2018-11-26T04:24:17Z</time>
      </trkpt>
      <trkpt lat="42.41187" lon="2.70125">
        <ele>1224.5</ele>
        <time>2018-11-26T04:24:18Z</time>
      </trkpt>
      <trkpt lat="42.41188" lon="2.70125">
        <ele>1225.1</ele>
        <time>2018-11-26T04:24:18Z</time>
      </trkpt>
      <trkpt lat="42.41188" lon="2.70126">
        <ele>1225.9</ele>
        <time>2018-11-26T04:24:18Z</time>
      </trkpt>
      <trkpt lat="42.41191" lon="2.70128">
        <ele>1226.5</ele>
        <time>2018-11-26T04:24:20Z</time>
      </trkpt>
      <trkpt lat="42.41192" lon="2.70129">
        <ele>1226.8</ele>
        <time>2018-11-26T04:24:20Z</time>
      </trkpt>
      <trkpt lat="42.41192" lon="2.70131">
        <ele>1227</ele>
        <time>2018-11-26T04:24:20Z</time>
      </trkpt>
      <trkpt lat="42.41193" lon="2.70131">
        <ele>1227.1</ele>
        <time>2018-11-26T04:24:21Z</time>
      </trkpt>
      <trkpt lat="42.41194" lon="2.70132">
        <ele>1227.3</ele>
        <time>2018-11-26T04:24:21Z</time>
      </trkpt>
      <trkpt lat="42.41195" lon="2.70133">
        <ele>1227.3</ele>
        <time>2018-11-26T04:24:22Z</time>
      </trkpt>
      <trkpt lat="42.41195" lon="2.70134">
        <ele>1227.3</ele>
        <time>2018-11-26T04:24:22Z</time>
      </trkpt>
      <trkpt lat="42.41195" lon="2.70135">
        <ele>1227.3</ele>
        <time>2018-11-26T04:24:22Z</time>
      </trkpt>
      <trkpt lat="42.41195" lon="2.70137">
        <ele>1227.1</ele>
        <time>2018-11-26T04:24:23Z</time>
      </trkpt>
      <trkpt lat="42.41195" lon="2.70138">
        <ele>1227.6</ele>
        <time>2018-11-26T04:24:23Z</time>
      </trkpt>
      <trkpt lat="42.41195" lon="2.70139">
        <ele>1228</ele>
        <time>2018-11-26T04:24:23Z</time>
      </trkpt>
      <trkpt lat="42.41196" lon="2.7014">
        <ele>1228.5</ele>
        <time>2018-11-26T04:24:24Z</time>
      </trkpt>
      <trkpt lat="42.41196" lon="2.70141">
        <ele>1228.7</ele>
        <time>2018-11-26T04:24:24Z</time>
      </trkpt>
      <trkpt lat="42.41197" lon="2.70142">
        <ele>1229.1</ele>
        <time>2018-11-26T04:24:25Z</time>
      </trkpt>
      <trkpt lat="42.41197" lon="2.70142">
        <ele>1229.3</ele>
        <time>2018-11-26T04:24:25Z</time>
      </trkpt>
      <trkpt lat="42.41198" lon="2.70143">
        <ele>1229.5</ele>
        <time>2018-11-26T04:24:25Z</time>
      </trkpt>
      <trkpt lat="42.41198" lon="2.70143">
        <ele>1229.7</ele>
        <time>2018-11-26T04:24:25Z</time>
      </trkpt>
      <trkpt lat="42.41198" lon="2.70143">
        <ele>1230.2</ele>
        <time>2018-11-26T04:24:25Z</time>
      </trkpt>
      <trkpt lat="42.41197" lon="2.70143">
        <ele>1230.3</ele>
        <time>2018-11-26T04:24:25Z</time>
      </trkpt>
      <trkpt lat="42.41197" lon="2.70145">
        <ele>1230.7</ele>
        <time>2018-11-26T04:24:26Z</time>
      </trkpt>
      <trkpt lat="42.41197" lon="2.70146">
        <ele>1230.9</ele>
        <time>2018-11-26T04:24:26Z</time>
      </trkpt>
      <trkpt lat="42.41197" lon="2.70147">
        <ele>1231.3</ele>
        <time>2018-11-26T04:24:27Z</time>
      </trkpt>
      <trkpt lat="42.41197" lon="2.70148">
        <ele>1231.9</ele>
        <time>2018-11-26T04:24:27Z</time>
      </trkpt>
      <trkpt lat="42.41197" lon="2.70149">
        <ele>1232.2</ele>
        <time>2018-11-26T04:24:27Z</time>
      </trkpt>
      <trkpt lat="42.41198" lon="2.7015">
        <ele>1232.8</ele>
        <time>2018-11-26T04:24:27Z</time>
      </trkpt>
      <trkpt lat="42.41198" lon="2.70151">
        <ele>1233.5</ele>
        <time>2018-11-26T04:24:28Z</time>
      </trkpt>
      <trkpt lat="42.41198" lon="2.70151">
        <ele>1233.9</ele>
        <time>2018-11-26T04:24:28Z</time>
      </trkpt>
      <trkpt lat="42.41198" lon="2.70152">
        <ele>1234.4</ele>
        <time>2018-11-26T04:24:28Z</time>
      </trkpt>
      <trkpt lat="42.41198" lon="2.70153">
        <ele>1235.1</ele>
        <time>2018-11-26T04:24:29Z</time>
      </trkpt>
      <trkpt lat="42.41198" lon="2.70154">
        <ele>1234.9</ele>
        <time>2018-11-26T04:24:29Z</time>
      </trkpt>
      <trkpt lat="42.41197" lon="2.70154">
        <ele>1234.8</ele>
        <time>2018-11-26T04:24:29Z</time>
      </trkpt>
      <trkpt lat="42.41196" lon="2.70155">
        <ele>1234.8</ele>
        <time>2018-11-26T04:24:30Z</time>
      </trkpt>
      <trkpt lat="42.41195" lon="2.70155">
        <ele>1235</ele>
        <time>2018-11-26T04:24:30Z</time>
      </trkpt>
      <trkpt lat="42.41194" lon="2.70156">
        <ele>1235.4</ele>
        <time>2018-11-26T04:24:31Z</time>
      </trkpt>
      <trkpt lat="42.41193" lon="2.70157">
        <ele>1235.9</ele>
        <time>2018-11-26T04:24:31Z</time>
      </trkpt>
      <trkpt lat="42.41193" lon="2.70157">
        <ele>1236.1</ele>
        <time>2018-11-26T04:24:31Z</time>
      </trkpt>
      <trkpt lat="42.41193" lon="2.70158">
        <ele>1236.4</ele>
        <time>2018-11-26T04:24:31Z</time>
      </trkpt>
      <trkpt lat="42.41193" lon="2.70159">
        <ele>1237</ele>
        <time>2018-11-26T04:24:32Z</time>
      </trkpt>
      <trkpt lat="42.41193" lon="2.7016">
        <ele>1237.2</ele>
        <time>2018-11-26T04:24:32Z</time>
      </trkpt>
      <trkpt lat="42.41193" lon="2.70161">
        <ele>1237.6</ele>
        <time>2018-11-26T04:24:32Z</time>
      </trkpt>
      <trkpt lat="42.41193" lon="2.70162">
        <ele>1238</ele>
        <time>2018-11-26T04:24:32Z</time>
      </trkpt>
      <trkpt lat="42.41193" lon="2.70162">
        <ele>1238.6</ele>
        <time>2018-11-26T04:24:33Z</time>
      </trkpt>
      <trkpt lat="42.41193" lon="2.70163">
        <ele>1238.8</ele>
        <time>2018-11-26T04:24:33Z</time>
      </trkpt>
      <trkpt lat="42.41194" lon="2.70164">
        <ele>1239.1</ele>
        <time>2018-11-26T04:24:33Z</time>
      </trkpt>
      <trkpt lat="42.41194" lon="2.70165">
        <ele>1239.4</ele>
        <time>2018-11-26T04:24:34Z</time>
      </trkpt>
      <trkpt lat="42.41195" lon="2.70166">
        <ele>1239.4</ele>
        <time>2018-11-26T04:24:34Z</time>
      </trkpt>
      <trkpt lat="42.41195" lon="2.70167">
        <ele>1239.5</ele>
        <time>2018-11-26T04:24:34Z</time>
      </trkpt>
      <trkpt lat="42.41196" lon="2.70167">
        <ele>1239.7</ele>
        <time>2018-11-26T04:24:35Z</time>
      </trkpt>
      <trkpt lat="42.41197" lon="2.70168">
        <ele>1239.9</ele>
        <time>2018-11-26T04:24:35Z</time>
      </trkpt>
      <trkpt lat="42.41198" lon="2.70169">
        <ele>1240.1</ele>
        <time>2018-11-26T04:24:36Z</time>
      </trkpt>
      <trkpt lat="42.41198" lon="2.7017">
        <ele>1240.5</ele>
        <time>2018-11-26T04:24:36Z</time>
      </trkpt>
      <trkpt lat="42.41199" lon="2.70171">
        <ele>1240.7</ele>
        <time>2018-11-26T04:24:36Z</time>
      </trkpt>
      <trkpt lat="42.412" lon="2.70172">
        <ele>1240.9</ele>
        <time>2018-11-26T04:24:37Z</time>
      </trkpt>
      <trkpt lat="42.412" lon="2.70172">
        <ele>1241</ele>
        <time>2018-11-26T04:24:37Z</time>
      </trkpt>
      <trkpt lat="42.412" lon="2.70173">
        <ele>1241.2</ele>
        <time>2018-11-26T04:24:37Z</time>
      </trkpt>
      <trkpt lat="42.412" lon="2.70174">
        <ele>1241.4</ele>
        <time>2018-11-26T04:24:37Z</time>
      </trkpt>
      <trkpt lat="42.412" lon="2.70175">
        <ele>1241.8</ele>
        <time>2018-11-26T04:24:38Z</time>
      </trkpt>
      <trkpt lat="42.412" lon="2.70176">
        <ele>1242.3</ele>
        <time>2018-11-26T04:24:38Z</time>
      </trkpt>
      <trkpt lat="42.412" lon="2.70177">
        <ele>1242.4</ele>
        <time>2018-11-26T04:24:38Z</time>
      </trkpt>
      <trkpt lat="42.41201" lon="2.70178">
        <ele>1242.3</ele>
        <time>2018-11-26T04:24:39Z</time>
      </trkpt>
      <trkpt lat="42.41201" lon="2.70178">
        <ele>1242.4</ele>
        <time>2018-11-26T04:24:39Z</time>
      </trkpt>
      <trkpt lat="42.412" lon="2.70179">
        <ele>1242.4</ele>
        <time>2018-11-26T04:24:39Z</time>
      </trkpt>
      <trkpt lat="42.412" lon="2.7018">
        <ele>1242.7</ele>
        <time>2018-11-26T04:24:39Z</time>
      </trkpt>
      <trkpt lat="42.412" lon="2.7018">
        <ele>1242.9</ele>
        <time>2018-11-26T04:24:39Z</time>
      </trkpt>
      <trkpt lat="42.41199" lon="2.70181">
        <ele>1242.9</ele>
        <time>2018-11-26T04:24:40Z</time>
      </trkpt>
      <trkpt lat="42.41199" lon="2.70181">
        <ele>1243.1</ele>
        <time>2018-11-26T04:24:40Z</time>
      </trkpt>
      <trkpt lat="42.41198" lon="2.70181">
        <ele>1243.3</ele>
        <time>2018-11-26T04:24:40Z</time>
      </trkpt>
      <trkpt lat="42.41197" lon="2.70182">
        <ele>1243.7</ele>
        <time>2018-11-26T04:24:41Z</time>
      </trkpt>
      <trkpt lat="42.41196" lon="2.70182">
        <ele>1244.2</ele>
        <time>2018-11-26T04:24:41Z</time>
      </trkpt>
      <trkpt lat="42.41196" lon="2.70182">
        <ele>1244.8</ele>
        <time>2018-11-26T04:24:41Z</time>
      </trkpt>
      <trkpt lat="42.41196" lon="2.70183">
        <ele>1244.9</ele>
        <time>2018-11-26T04:24:41Z</time>
      </trkpt>
      <trkpt lat="42.41195" lon="2.70183">
        <ele>1244.9</ele>
        <time>2018-11-26T04:24:42Z</time>
      </trkpt>
      <trkpt lat="42.41194" lon="2.70183">
        <ele>1244.7</ele>
        <time>2018-11-26T04:24:42Z</time>
      </trkpt>
      <trkpt lat="42.41194" lon="2.70184">
        <ele>1244.7</ele>
        <time>2018-11-26T04:24:42Z</time>
      </trkpt>
      <trkpt lat="42.41194" lon="2.70185">
        <ele>1244.9</ele>
        <time>2018-11-26T04:24:42Z</time>
      </trkpt>
      <trkpt lat="42.41194" lon="2.70185">
        <ele>1244.9</ele>
        <time>2018-11-26T04:24:42Z</time>
      </trkpt>
      <trkpt lat="42.41194" lon="2.70185">
        <ele>1245.1</ele>
        <time>2018-11-26T04:24:42Z</time>
      </trkpt>
      <trkpt lat="42.41194" lon="2.70185">
        <ele>1245.1</ele>
        <time>2018-11-26T04:24:42Z</time>
      </trkpt>
      <trkpt lat="42.41194" lon="2.70185">
        <ele>1245.2</ele>
        <time>2018-11-26T04:24:43Z</time>
      </trkpt>
      <trkpt lat="42.41194" lon="2.70186">
        <ele>1245.2</ele>
        <time>2018-11-26T04:24:43Z</time>
      </trkpt>
      <trkpt lat="42.41194" lon="2.70186">
        <ele>1245.2</ele>
        <time>2018-11-26T04:24:43Z</time>
      </trkpt>
      <trkpt lat="42.41194" lon="2.70186">
        <ele>1245.3</ele>
        <time>2018-11-26T04:24:43Z</time>
      </trkpt>
      <trkpt lat="42.41194" lon="2.70186">
        <ele>1245.5</ele>
        <time>2018-11-26T04:24:43Z</time>
      </trkpt>
      <trkpt lat="42.41194" lon="2.70186">
        <ele>1245.4</ele>
        <time>2018-11-26T04:24:43Z</time>
      </trkpt>
      <trkpt lat="42.41194" lon="2.70186">
        <ele>1245.3</ele>
        <time>2018-11-26T04:24:43Z</time>
      </trkpt>
      <trkpt lat="42.41194" lon="2.70186">
        <ele>1245.2</ele>
        <time>2018-11-26T04:24:43Z</time>
      </trkpt>
      <trkpt lat="42.41194" lon="2.70186">
        <ele>1245.4</ele>
        <time>2018-11-26T04:24:43Z</time>
      </trkpt>
      <trkpt lat="42.41194" lon="2.70186">
        <ele>1245.8</ele>
        <time>2018-11-26T04:24:43Z</time>
      </trkpt>
      <trkpt lat="42.41194" lon="2.70187">
        <ele>1246.1</ele>
        <time>2018-11-26T04:24:43Z</time>
      </trkpt>
      <trkpt lat="42.41194" lon="2.70187">
        <ele>1246.7</ele>
        <time>2018-11-26T04:24:43Z</time>
      </trkpt>
      <trkpt lat="42.41194" lon="2.70188">
        <ele>1246.8</ele>
        <time>2018-11-26T04:24:43Z</time>
      </trkpt>
      <trkpt lat="42.41195" lon="2.70188">
        <ele>1246.8</ele>
        <time>2018-11-26T04:24:44Z</time>
      </trkpt>
      <trkpt lat="42.41195" lon="2.70189">
        <ele>1247.1</ele>
        <time>2018-11-26T04:24:44Z</time>
      </trkpt>
      <trkpt lat="42.41196" lon="2.7019">
        <ele>1247.3</ele>
        <time>2018-11-26T04:24:44Z</time>
      </trkpt>
      <trkpt lat="42.41196" lon="2.70191">
        <ele>1247.8</ele>
        <time>2018-11-26T04:24:44Z</time>
      </trkpt>
      <trkpt lat="42.41197" lon="2.70192">
        <ele>1248.3</ele>
        <time>2018-11-26T04:24:45Z</time>
      </trkpt>
      <trkpt lat="42.41197" lon="2.70193">
        <ele>1248.3</ele>
        <time>2018-11-26T04:24:45Z</time>
      </trkpt>
      <trkpt lat="42.41198" lon="2.70194">
        <ele>1248.4</ele>
        <time>2018-11-26T04:24:46Z</time>
      </trkpt>
      <trkpt lat="42.41198" lon="2.70195">
        <ele>1248.4</ele>
        <time>2018-11-26T04:24:46Z</time>
      </trkpt>
      <trkpt lat="42.41198" lon="2.70196">
        <ele>1248.6</ele>
        <time>2018-11-26T04:24:46Z</time>
      </trkpt>
      <trkpt lat="42.412" lon="2.70197">
        <ele>1249.4</ele>
        <time>2018-11-26T04:24:47Z</time>
      </trkpt>
      <trkpt lat="42.41201" lon="2.70198">
        <ele>1249.6</ele>
        <time>2018-11-26T04:24:47Z</time>
      </trkpt>
      <trkpt lat="42.41201" lon="2.70199">
        <ele>1249.7</ele>
        <time>2018-11-26T04:24:48Z</time>
      </trkpt>
      <trkpt lat="42.41201" lon="2.702">
        <ele>1249.9</ele>
        <time>2018-11-26T04:24:48Z</time>
      </trkpt>
      <trkpt lat="42.41201" lon="2.70201">
        <ele>1250.4</ele>
        <time>2018-11-26T04:24:48Z</time>
      </trkpt>
      <trkpt lat="42.41201" lon="2.70202">
        <ele>1250.5</ele>
        <time>2018-11-26T04:24:49Z</time>
      </trkpt>
      <trkpt lat="42.41201" lon="2.70203">
        <ele>1250.7</ele>
        <time>2018-11-26T04:24:49Z</time>
      </trkpt>
      <trkpt lat="42.41201" lon="2.70205">
        <ele>1251.2</ele>
        <time>2018-11-26T04:24:49Z</time>
      </trkpt>
      <trkpt lat="42.41201" lon="2.70206">
        <ele>1251.4</ele>
        <time>2018-11-26T04:24:50Z</time>
      </trkpt>
      <trkpt lat="42.41202" lon="2.70206">
        <ele>1251.8</ele>
        <time>2018-11-26T04:24:50Z</time>
      </trkpt>
      <trkpt lat="42.41202" lon="2.70207">
        <ele>1252.3</ele>
        <time>2018-11-26T04:24:50Z</time>
      </trkpt>
      <trkpt lat="42.41202" lon="2.70208">
        <ele>1252.3</ele>
        <time>2018-11-26T04:24:51Z</time>
      </trkpt>
      <trkpt lat="42.41202" lon="2.70211">
        <ele>1252.4</ele>
        <time>2018-11-26T04:24:51Z</time>
      </trkpt>
      <trkpt lat="42.41202" lon="2.70212">
        <ele>1252.6</ele>
        <time>2018-11-26T04:24:52Z</time>
      </trkpt>
      <trkpt lat="42.41202" lon="2.70213">
        <ele>1252.8</ele>
        <time>2018-11-26T04:24:52Z</time>
      </trkpt>
      <trkpt lat="42.41203" lon="2.70214">
        <ele>1252.9</ele>
        <time>2018-11-26T04:24:52Z</time>
      </trkpt>
      <trkpt lat="42.41203" lon="2.70215">
        <ele>1253.1</ele>
        <time>2018-11-26T04:24:53Z</time>
      </trkpt>
      <trkpt lat="42.41203" lon="2.70216">
        <ele>1253.2</ele>
        <time>2018-11-26T04:24:53Z</time>
      </trkpt>
      <trkpt lat="42.41202" lon="2.70217">
        <ele>1253.4</ele>
        <time>2018-11-26T04:24:53Z</time>
      </trkpt>
      <trkpt lat="42.41201" lon="2.70217">
        <ele>1253.7</ele>
        <time>2018-11-26T04:24:54Z</time>
      </trkpt>
      <trkpt lat="42.41201" lon="2.70218">
        <ele>1254.1</ele>
        <time>2018-11-26T04:24:54Z</time>
      </trkpt>
      <trkpt lat="42.412" lon="2.70218">
        <ele>1254.6</ele>
        <time>2018-11-26T04:24:54Z</time>
      </trkpt>
      <trkpt lat="42.412" lon="2.70219">
        <ele>1255.2</ele>
        <time>2018-11-26T04:24:54Z</time>
      </trkpt>
      <trkpt lat="42.412" lon="2.70219">
        <ele>1255.4</ele>
        <time>2018-11-26T04:24:55Z</time>
      </trkpt>
      <trkpt lat="42.412" lon="2.7022">
        <ele>1255.8</ele>
        <time>2018-11-26T04:24:55Z</time>
      </trkpt>
      <trkpt lat="42.41201" lon="2.70221">
        <ele>1256.1</ele>
        <time>2018-11-26T04:24:55Z</time>
      </trkpt>
      <trkpt lat="42.41201" lon="2.70221">
        <ele>1256.2</ele>
        <time>2018-11-26T04:24:55Z</time>
      </trkpt>
      <trkpt lat="42.41201" lon="2.70222">
        <ele>1256.4</ele>
        <time>2018-11-26T04:24:56Z</time>
      </trkpt>
      <trkpt lat="42.41201" lon="2.70223">
        <ele>1256.4</ele>
        <time>2018-11-26T04:24:56Z</time>
      </trkpt>
      <trkpt lat="42.41201" lon="2.70224">
        <ele>1256.7</ele>
        <time>2018-11-26T04:24:56Z</time>
      </trkpt>
      <trkpt lat="42.412" lon="2.70224">
        <ele>1257.1</ele>
        <time>2018-11-26T04:24:56Z</time>
      </trkpt>
      <trkpt lat="42.41199" lon="2.70224">
        <ele>1257.6</ele>
        <time>2018-11-26T04:24:57Z</time>
      </trkpt>
      <trkpt lat="42.41199" lon="2.70225">
        <ele>1257.6</ele>
        <time>2018-11-26T04:24:57Z</time>
      </trkpt>
      <trkpt lat="42.41199" lon="2.70226">
        <ele>1257.5</ele>
        <time>2018-11-26T04:24:57Z</time>
      </trkpt>
      <trkpt lat="42.41198" lon="2.70227">
        <ele>1257.5</ele>
        <time>2018-11-26T04:24:58Z</time>
      </trkpt>
      <trkpt lat="42.41198" lon="2.70228">
        <ele>1257.4</ele>
        <time>2018-11-26T04:24:58Z</time>
      </trkpt>
      <trkpt lat="42.41198" lon="2.70229">
        <ele>1257.8</ele>
        <time>2018-11-26T04:24:58Z</time>
      </trkpt>
      <trkpt lat="42.41198" lon="2.7023">
        <ele>1258.2</ele>
        <time>2018-11-26T04:24:59Z</time>
      </trkpt>
      <trkpt lat="42.41198" lon="2.70231">
        <ele>1258.9</ele>
        <time>2018-11-26T04:24:59Z</time>
      </trkpt>
      <trkpt lat="42.41199" lon="2.70231">
        <ele>1258.9</ele>
        <time>2018-11-26T04:24:59Z</time>
      </trkpt>
      <trkpt lat="42.41199" lon="2.70232">
        <ele>1258.9</ele>
        <time>2018-11-26T04:24:59Z</time>
      </trkpt>
      <trkpt lat="42.412" lon="2.70233">
        <ele>1258.9</ele>
        <time>2018-11-26T04:25:00Z</time>
      </trkpt>
      <trkpt lat="42.41201" lon="2.70235">
        <ele>1259.7</ele>
        <time>2018-11-26T04:25:01Z</time>
      </trkpt>
      <trkpt lat="42.41202" lon="2.70236">
        <ele>1260.3</ele>
        <time>2018-11-26T04:25:01Z</time>
      </trkpt>
      <trkpt lat="42.41202" lon="2.70238">
        <ele>1260.2</ele>
        <time>2018-11-26T04:25:01Z</time>
      </trkpt>
      <trkpt lat="42.41202" lon="2.70239">
        <ele>1260.2</ele>
        <time>2018-11-26T04:25:02Z</time>
      </trkpt>
      <trkpt lat="42.41202" lon="2.7024">
        <ele>1260.1</ele>
        <time>2018-11-26T04:25:02Z</time>
      </trkpt>
      <trkpt lat="42.41202" lon="2.70242">
        <ele>1260.2</ele>
        <time>2018-11-26T04:25:03Z</time>
      </trkpt>
      <trkpt lat="42.41202" lon="2.70243">
        <ele>1260.5</ele>
        <time>2018-11-26T04:25:03Z</time>
      </trkpt>
      <trkpt lat="42.41202" lon="2.70244">
        <ele>1260.7</ele>
        <time>2018-11-26T04:25:03Z</time>
      </trkpt>
      <trkpt lat="42.41202" lon="2.70245">
        <ele>1260.7</ele>
        <time>2018-11-26T04:25:04Z</time>
      </trkpt>
      <trkpt lat="42.41202" lon="2.70246">
        <ele>1261</ele>
        <time>2018-11-26T04:25:04Z</time>
      </trkpt>
      <trkpt lat="42.41201" lon="2.70249">
        <ele>1261.8</ele>
        <time>2018-11-26T04:25:05Z</time>
      </trkpt>
      <trkpt lat="42.41201" lon="2.7025">
        <ele>1262.2</ele>
        <time>2018-11-26T04:25:05Z</time>
      </trkpt>
      <trkpt lat="42.41201" lon="2.70251">
        <ele>1262.5</ele>
        <time>2018-11-26T04:25:06Z</time>
      </trkpt>
      <trkpt lat="42.41202" lon="2.70252">
        <ele>1262.9</ele>
        <time>2018-11-26T04:25:06Z</time>
      </trkpt>
      <trkpt lat="42.41202" lon="2.70253">
        <ele>1263.1</ele>
        <time>2018-11-26T04:25:06Z</time>
      </trkpt>
      <trkpt lat="42.41201" lon="2.70255">
        <ele>1263.6</ele>
        <time>2018-11-26T04:25:07Z</time>
      </trkpt>
      <trkpt lat="42.41202" lon="2.70256">
        <ele>1264</ele>
        <time>2018-11-26T04:25:07Z</time>
      </trkpt>
      <trkpt lat="42.41202" lon="2.70257">
        <ele>1264.1</ele>
        <time>2018-11-26T04:25:07Z</time>
      </trkpt>
      <trkpt lat="42.41203" lon="2.7026">
        <ele>1264.6</ele>
        <time>2018-11-26T04:25:09Z</time>
      </trkpt>
      <trkpt lat="42.41204" lon="2.70263">
        <ele>1264.6</ele>
        <time>2018-11-26T04:25:09Z</time>
      </trkpt>
      <trkpt lat="42.41205" lon="2.70267">
        <ele>1264.9</ele>
        <time>2018-11-26T04:25:11Z</time>
      </trkpt>
      <trkpt lat="42.41205" lon="2.70268">
        <ele>1265.2</ele>
        <time>2018-11-26T04:25:11Z</time>
      </trkpt>
      <trkpt lat="42.41205" lon="2.70272">
        <ele>1265.7</ele>
        <time>2018-11-26T04:25:12Z</time>
      </trkpt>
      <trkpt lat="42.41206" lon="2.70273">
        <ele>1265.8</ele>
        <time>2018-11-26T04:25:12Z</time>
      </trkpt>
      <trkpt lat="42.41206" lon="2.70274">
        <ele>1266</ele>
        <time>2018-11-26T04:25:13Z</time>
      </trkpt>
      <trkpt lat="42.41206" lon="2.70275">
        <ele>1266.2</ele>
        <time>2018-11-26T04:25:13Z</time>
      </trkpt>
      <trkpt lat="42.41206" lon="2.70276">
        <ele>1266.5</ele>
        <time>2018-11-26T04:25:13Z</time>
      </trkpt>
      <trkpt lat="42.41206" lon="2.70276">
        <ele>1266.8</ele>
        <time>2018-11-26T04:25:13Z</time>
      </trkpt>
      <trkpt lat="42.41206" lon="2.70276">
        <ele>1267.2</ele>
        <time>2018-11-26T04:25:13Z</time>
      </trkpt>
      <trkpt lat="42.41205" lon="2.70276">
        <ele>1267.5</ele>
        <time>2018-11-26T04:25:13Z</time>
      </trkpt>
      <trkpt lat="42.41205" lon="2.70277">
        <ele>1267.7</ele>
        <time>2018-11-26T04:25:14Z</time>
      </trkpt>
      <trkpt lat="42.41205" lon="2.70278">
        <ele>1268.2</ele>
        <time>2018-11-26T04:25:14Z</time>
      </trkpt>
      <trkpt lat="42.41205" lon="2.70279">
        <ele>1268.3</ele>
        <time>2018-11-26T04:25:14Z</time>
      </trkpt>
      <trkpt lat="42.41205" lon="2.7028">
        <ele>1268.2</ele>
        <time>2018-11-26T04:25:15Z</time>
      </trkpt>
      <trkpt lat="42.41205" lon="2.70281">
        <ele>1268.2</ele>
        <time>2018-11-26T04:25:15Z</time>
      </trkpt>
      <trkpt lat="42.41205" lon="2.70282">
        <ele>1268.3</ele>
        <time>2018-11-26T04:25:15Z</time>
      </trkpt>
      <trkpt lat="42.41205" lon="2.70283">
        <ele>1268.2</ele>
        <time>2018-11-26T04:25:15Z</time>
      </trkpt>
      <trkpt lat="42.41205" lon="2.70284">
        <ele>1268.2</ele>
        <time>2018-11-26T04:25:16Z</time>
      </trkpt>
      <trkpt lat="42.41205" lon="2.70285">
        <ele>1268.3</ele>
        <time>2018-11-26T04:25:16Z</time>
      </trkpt>
      <trkpt lat="42.41204" lon="2.70286">
        <ele>1268.3</ele>
        <time>2018-11-26T04:25:16Z</time>
      </trkpt>
      <trkpt lat="42.41205" lon="2.70287">
        <ele>1268.4</ele>
        <time>2018-11-26T04:25:17Z</time>
      </trkpt>
      <trkpt lat="42.41205" lon="2.70287">
        <ele>1268.5</ele>
        <time>2018-11-26T04:25:17Z</time>
      </trkpt>
      <trkpt lat="42.41205" lon="2.70288">
        <ele>1268.4</ele>
        <time>2018-11-26T04:25:17Z</time>
      </trkpt>
      <trkpt lat="42.41205" lon="2.70289">
        <ele>1268.1</ele>
        <time>2018-11-26T04:25:17Z</time>
      </trkpt>
      <trkpt lat="42.41205" lon="2.70289">
        <ele>1267.9</ele>
        <time>2018-11-26T04:25:17Z</time>
      </trkpt>
      <trkpt lat="42.41205" lon="2.70289">
        <ele>1268</ele>
        <time>2018-11-26T04:25:17Z</time>
      </trkpt>
      <trkpt lat="42.41205" lon="2.70289">
        <ele>1268.1</ele>
        <time>2018-11-26T04:25:17Z</time>
      </trkpt>
      <trkpt lat="42.41205" lon="2.70289">
        <ele>1268.1</ele>
        <time>2018-11-26T04:25:17Z</time>
      </trkpt>
      <trkpt lat="42.41205" lon="2.70289">
        <ele>1268.2</ele>
        <time>2018-11-26T04:25:17Z</time>
      </trkpt>
      <trkpt lat="42.41205" lon="2.70289">
        <ele>1268.3</ele>
        <time>2018-11-26T04:25:17Z</time>
      </trkpt>
      <trkpt lat="42.41205" lon="2.70289">
        <ele>1268.2</ele>
        <time>2018-11-26T04:25:17Z</time>
      </trkpt>
      <trkpt lat="42.41205" lon="2.70289">
        <ele>1268.4</ele>
        <time>2018-11-26T04:25:18Z</time>
      </trkpt>
      <trkpt lat="42.41205" lon="2.70289">
        <ele>1268.5</ele>
        <time>2018-11-26T04:25:18Z</time>
      </trkpt>
      <trkpt lat="42.41205" lon="2.7029">
        <ele>1268.6</ele>
        <time>2018-11-26T04:25:18Z</time>
      </trkpt>
      <trkpt lat="42.41205" lon="2.70291">
        <ele>1268.9</ele>
        <time>2018-11-26T04:25:18Z</time>
      </trkpt>
      <trkpt lat="42.41205" lon="2.70292">
        <ele>1268.7</ele>
        <time>2018-11-26T04:25:18Z</time>
      </trkpt>
      <trkpt lat="42.41204" lon="2.70292">
        <ele>1268.6</ele>
        <time>2018-11-26T04:25:19Z</time>
      </trkpt>
      <trkpt lat="42.41205" lon="2.70292">
        <ele>1268.3</ele>
        <time>2018-11-26T04:25:19Z</time>
      </trkpt>
      <trkpt lat="42.41205" lon="2.70292">
        <ele>1268.4</ele>
        <time>2018-11-26T04:25:19Z</time>
      </trkpt>
      <trkpt lat="42.41205" lon="2.70293">
        <ele>1268.8</ele>
        <time>2018-11-26T04:25:19Z</time>
      </trkpt>
      <trkpt lat="42.41205" lon="2.70293">
        <ele>1269.2</ele>
        <time>2018-11-26T04:25:19Z</time>
      </trkpt>
      <trkpt lat="42.41205" lon="2.70293">
        <ele>1269.3</ele>
        <time>2018-11-26T04:25:19Z</time>
      </trkpt>
      <trkpt lat="42.41205" lon="2.70293">
        <ele>1269.5</ele>
        <time>2018-11-26T04:25:19Z</time>
      </trkpt>
      <trkpt lat="42.41205" lon="2.70293">
        <ele>1269.7</ele>
        <time>2018-11-26T04:25:19Z</time>
      </trkpt>
      <trkpt lat="42.41205" lon="2.70293">
        <ele>1269.5</ele>
        <time>2018-11-26T04:25:19Z</time>
      </trkpt>
      <trkpt lat="42.41205" lon="2.70293">
        <ele>1269.4</ele>
        <time>2018-11-26T04:25:19Z</time>
      </trkpt>
      <trkpt lat="42.41205" lon="2.70293">
        <ele>1269.1</ele>
        <time>2018-11-26T04:25:19Z</time>
      </trkpt>
      <trkpt lat="42.41204" lon="2.70293">
        <ele>1268.7</ele>
        <time>2018-11-26T04:25:19Z</time>
      </trkpt>
      <trkpt lat="42.41204" lon="2.70294">
        <ele>1268.6</ele>
        <time>2018-11-26T04:25:19Z</time>
      </trkpt>
      <trkpt lat="42.41204" lon="2.70294">
        <ele>1268.6</ele>
        <time>2018-11-26T04:25:20Z</time>
      </trkpt>
      <trkpt lat="42.41204" lon="2.70294">
        <ele>1268.4</ele>
        <time>2018-11-26T04:25:20Z</time>
      </trkpt>
      <trkpt lat="42.41204" lon="2.70294">
        <ele>1268.5</ele>
        <time>2018-11-26T04:25:20Z</time>
      </trkpt>
      <trkpt lat="42.41204" lon="2.70294">
        <ele>1268.6</ele>
        <time>2018-11-26T04:25:20Z</time>
      </trkpt>
      <trkpt lat="42.41204" lon="2.70295">
        <ele>1268.6</ele>
        <time>2018-11-26T04:25:20Z</time>
      </trkpt>
      <trkpt lat="42.41204" lon="2.70295">
        <ele>1268.9</ele>
        <time>2018-11-26T04:25:20Z</time>
      </trkpt>
      <trkpt lat="42.41204" lon="2.70296">
        <ele>1269.4</ele>
        <time>2018-11-26T04:25:20Z</time>
      </trkpt>
      <trkpt lat="42.41204" lon="2.70295">
        <ele>1269.9</ele>
        <time>2018-11-26T04:25:20Z</time>
      </trkpt>
      <trkpt lat="42.41204" lon="2.70295">
        <ele>1269.8</ele>
        <time>2018-11-26T04:25:20Z</time>
      </trkpt>
      <trkpt lat="42.41204" lon="2.70296">
        <ele>1269.3</ele>
        <time>2018-11-26T04:25:21Z</time>
      </trkpt>
      <trkpt lat="42.41204" lon="2.70297">
        <ele>1269.3</ele>
        <time>2018-11-26T04:25:21Z</time>
      </trkpt>
      <trkpt lat="42.41204" lon="2.70297">
        <ele>1269.4</ele>
        <time>2018-11-26T04:25:21Z</time>
      </trkpt>
      <trkpt lat="42.41204" lon="2.70298">
        <ele>1269.2</ele>
        <time>2018-11-26T04:25:21Z</time>
      </trkpt>
      <trkpt lat="42.41204" lon="2.70298">
        <ele>1269.2</ele>
        <time>2018-11-26T04:25:21Z</time>
      </trkpt>
      <trkpt lat="42.41204" lon="2.70298">
        <ele>1269.4</ele>
        <time>2018-11-26T04:25:21Z</time>
      </trkpt>
      <trkpt lat="42.41204" lon="2.70298">
        <ele>1269.7</ele>
        <time>2018-11-26T04:25:21Z</time>
      </trkpt>
      <trkpt lat="42.41204" lon="2.70298">
        <ele>1270.1</ele>
        <time>2018-11-26T04:25:21Z</time>
      </trkpt>
      <trkpt lat="42.41204" lon="2.70298">
        <ele>1270.1</ele>
        <time>2018-11-26T04:25:21Z</time>
      </trkpt>
      <trkpt lat="42.41204" lon="2.70298">
        <ele>1269.9</ele>
        <time>2018-11-26T04:25:21Z</time>
      </trkpt>
      <trkpt lat="42.41204" lon="2.70298">
        <ele>1269.7</ele>
        <time>2018-11-26T04:25:21Z</time>
      </trkpt>
      <trkpt lat="42.41204" lon="2.70298">
        <ele>1269.7</ele>
        <time>2018-11-26T04:25:21Z</time>
      </trkpt>
      <trkpt lat="42.41204" lon="2.70298">
        <ele>1269.7</ele>
        <time>2018-11-26T04:25:21Z</time>
      </trkpt>
      <trkpt lat="42.41204" lon="2.70298">
        <ele>1269.8</ele>
        <time>2018-11-26T04:25:21Z</time>
      </trkpt>
      <trkpt lat="42.41204" lon="2.70298">
        <ele>1269.8</ele>
        <time>2018-11-26T04:25:22Z</time>
      </trkpt>
      <trkpt lat="42.41204" lon="2.70298">
        <ele>1269.6</ele>
        <time>2018-11-26T04:25:22Z</time>
      </trkpt>
      <trkpt lat="42.41204" lon="2.70299">
        <ele>1269.4</ele>
        <time>2018-11-26T04:25:22Z</time>
      </trkpt>
      <trkpt lat="42.41204" lon="2.70299">
        <ele>1269.1</ele>
        <time>2018-11-26T04:25:22Z</time>
      </trkpt>
      <trkpt lat="42.41204" lon="2.70299">
        <ele>1269.1</ele>
        <time>2018-11-26T04:25:22Z</time>
      </trkpt>
      <trkpt lat="42.41204" lon="2.70299">
        <ele>1268.9</ele>
        <time>2018-11-26T04:25:22Z</time>
      </trkpt>
      <trkpt lat="42.41204" lon="2.70299">
        <ele>1268.6</ele>
        <time>2018-11-26T04:25:22Z</time>
      </trkpt>
      <trkpt lat="42.41204" lon="2.70299">
        <ele>1268.6</ele>
        <time>2018-11-26T04:25:22Z</time>
      </trkpt>
      <trkpt lat="42.41204" lon="2.70299">
        <ele>1268.5</ele>
        <time>2018-11-26T04:25:22Z</time>
      </trkpt>
      <trkpt lat="42.41204" lon="2.70299">
        <ele>1268.3</ele>
        <time>2018-11-26T04:25:22Z</time>
      </trkpt>
      <trkpt lat="42.41204" lon="2.70299">
        <ele>1268.3</ele>
        <time>2018-11-26T04:25:22Z</time>
      </trkpt>
      <trkpt lat="42.41204" lon="2.70299">
        <ele>1268.4</ele>
        <time>2018-11-26T04:25:22Z</time>
      </trkpt>
      <trkpt lat="42.41204" lon="2.70299">
        <ele>1268.6</ele>
        <time>2018-11-26T04:25:22Z</time>
      </trkpt>
      <trkpt lat="42.41204" lon="2.70299">
        <ele>1268.8</ele>
        <time>2018-11-26T04:25:22Z</time>
      </trkpt>
      <trkpt lat="42.41204" lon="2.70299">
        <ele>1269</ele>
        <time>2018-11-26T04:25:22Z</time>
      </trkpt>
      <trkpt lat="42.41204" lon="2.70299">
        <ele>1269.1</ele>
        <time>2018-11-26T04:25:22Z</time>
      </trkpt>
      <trkpt lat="42.41204" lon="2.70299">
        <ele>1269.4</ele>
        <time>2018-11-26T04:25:22Z</time>
      </trkpt>
      <trkpt lat="42.41204" lon="2.703">
        <ele>1269.4</ele>
        <time>2018-11-26T04:25:22Z</time>
      </trkpt>
      <trkpt lat="42.41203" lon="2.703">
        <ele>1269.4</ele>
        <time>2018-11-26T04:25:22Z</time>
      </trkpt>
      <trkpt lat="42.41204" lon="2.703">
        <ele>1269.4</ele>
        <time>2018-11-26T04:25:22Z</time>
      </trkpt>
      <trkpt lat="42.41204" lon="2.703">
        <ele>1269.1</ele>
        <time>2018-11-26T04:25:22Z</time>
      </trkpt>
      <trkpt lat="42.41204" lon="2.703">
        <ele>1268.8</ele>
        <time>2018-11-26T04:25:22Z</time>
      </trkpt>
      <trkpt lat="42.41204" lon="2.703">
        <ele>1268.5</ele>
        <time>2018-11-26T04:25:22Z</time>
      </trkpt>
      <trkpt lat="42.41204" lon="2.70301">
        <ele>1268.6</ele>
        <time>2018-11-26T04:25:22Z</time>
      </trkpt>
      <trkpt lat="42.41204" lon="2.70302">
        <ele>1268.5</ele>
        <time>2018-11-26T04:25:23Z</time>
      </trkpt>
      <trkpt lat="42.41205" lon="2.70302">
        <ele>1268.5</ele>
        <time>2018-11-26T04:25:23Z</time>
      </trkpt>
      <trkpt lat="42.41205" lon="2.70303">
        <ele>1268.8</ele>
        <time>2018-11-26T04:25:23Z</time>
      </trkpt>
      <trkpt lat="42.41206" lon="2.70305">
        <ele>1269.4</ele>
        <time>2018-11-26T04:25:24Z</time>
      </trkpt>
      <trkpt lat="42.41207" lon="2.70307">
        <ele>1269.5</ele>
        <time>2018-11-26T04:25:25Z</time>
      </trkpt>
      <trkpt lat="42.41208" lon="2.70308">
        <ele>1269.7</ele>
        <time>2018-11-26T04:25:25Z</time>
      </trkpt>
      <trkpt lat="42.41208" lon="2.70309">
        <ele>1269.9</ele>
        <time>2018-11-26T04:25:26Z</time>
      </trkpt>
      <trkpt lat="42.41207" lon="2.7031">
        <ele>1269.8</ele>
        <time>2018-11-26T04:25:26Z</time>
      </trkpt>
      <trkpt lat="42.41207" lon="2.70311">
        <ele>1269.7</ele>
        <time>2018-11-26T04:25:26Z</time>
      </trkpt>
      <trkpt lat="42.41207" lon="2.70313">
        <ele>1269.7</ele>
        <time>2018-11-26T04:25:27Z</time>
      </trkpt>
      <trkpt lat="42.41208" lon="2.70315">
        <ele>1269.7</ele>
        <time>2018-11-26T04:25:27Z</time>
      </trkpt>
      <trkpt lat="42.41208" lon="2.70316">
        <ele>1269.9</ele>
        <time>2018-11-26T04:25:28Z</time>
      </trkpt>
      <trkpt lat="42.41208" lon="2.70318">
        <ele>1270</ele>
        <time>2018-11-26T04:25:28Z</time>
      </trkpt>
      <trkpt lat="42.41209" lon="2.70319">
        <ele>1270.3</ele>
        <time>2018-11-26T04:25:28Z</time>
      </trkpt>
      <trkpt lat="42.41211" lon="2.70322">
        <ele>1270</ele>
        <time>2018-11-26T04:25:30Z</time>
      </trkpt>
      <trkpt lat="42.41212" lon="2.70325">
        <ele>1269.4</ele>
        <time>2018-11-26T04:25:31Z</time>
      </trkpt>
      <trkpt lat="42.41214" lon="2.70327">
        <ele>1269.4</ele>
        <time>2018-11-26T04:25:32Z</time>
      </trkpt>
      <trkpt lat="42.41217" lon="2.70336">
        <ele>1269.9</ele>
        <time>2018-11-26T04:25:35Z</time>
      </trkpt>
      <trkpt lat="42.41218" lon="2.70338">
        <ele>1269.9</ele>
        <time>2018-11-26T04:25:35Z</time>
      </trkpt>
      <trkpt lat="42.41218" lon="2.70341">
        <ele>1270.5</ele>
        <time>2018-11-26T04:25:36Z</time>
      </trkpt>
      <trkpt lat="42.41218" lon="2.70343">
        <ele>1270.8</ele>
        <time>2018-11-26T04:25:37Z</time>
      </trkpt>
      <trkpt lat="42.41218" lon="2.70345">
        <ele>1270.7</ele>
        <time>2018-11-26T04:25:37Z</time>
      </trkpt>
      <trkpt lat="42.41218" lon="2.70346">
        <ele>1270.6</ele>
        <time>2018-11-26T04:25:38Z</time>
      </trkpt>
      <trkpt lat="42.41221" lon="2.70352">
        <ele>1270.8</ele>
        <time>2018-11-26T04:25:40Z</time>
      </trkpt>
      <trkpt lat="42.41222" lon="2.70354">
        <ele>1270.8</ele>
        <time>2018-11-26T04:25:40Z</time>
      </trkpt>
      <trkpt lat="42.41225" lon="2.70362">
        <ele>1271.5</ele>
        <time>2018-11-26T04:25:43Z</time>
      </trkpt>
      <trkpt lat="42.41225" lon="2.70363">
        <ele>1271.9</ele>
        <time>2018-11-26T04:25:43Z</time>
      </trkpt>
      <trkpt lat="42.41225" lon="2.70365">
        <ele>1271.7</ele>
        <time>2018-11-26T04:25:44Z</time>
      </trkpt>
      <trkpt lat="42.41225" lon="2.70366">
        <ele>1271.5</ele>
        <time>2018-11-26T04:25:44Z</time>
      </trkpt>
      <trkpt lat="42.41226" lon="2.70368">
        <ele>1271.4</ele>
        <time>2018-11-26T04:25:45Z</time>
      </trkpt>
      <trkpt lat="42.41226" lon="2.70369">
        <ele>1271.6</ele>
        <time>2018-11-26T04:25:45Z</time>
      </trkpt>
      <trkpt lat="42.41226" lon="2.70374">
        <ele>1272.3</ele>
        <time>2018-11-26T04:25:47Z</time>
      </trkpt>
      <trkpt lat="42.41226" lon="2.70375">
        <ele>1272.4</ele>
        <time>2018-11-26T04:25:47Z</time>
      </trkpt>
      <trkpt lat="42.41227" lon="2.70378">
        <ele>1272.8</ele>
        <time>2018-11-26T04:25:48Z</time>
      </trkpt>
      <trkpt lat="42.41229" lon="2.70381">
        <ele>1273.6</ele>
        <time>2018-11-26T04:25:49Z</time>
      </trkpt>
      <trkpt lat="42.41229" lon="2.70383">
        <ele>1274.1</ele>
        <time>2018-11-26T04:25:50Z</time>
      </trkpt>
      <trkpt lat="42.41229" lon="2.70384">
        <ele>1274.1</ele>
        <time>2018-11-26T04:25:50Z</time>
      </trkpt>
      <trkpt lat="42.41229" lon="2.70385">
        <ele>1274.1</ele>
        <time>2018-11-26T04:25:50Z</time>
      </trkpt>
      <trkpt lat="42.41229" lon="2.70385">
        <ele>1274.2</ele>
        <time>2018-11-26T04:25:50Z</time>
      </trkpt>
      <trkpt lat="42.41229" lon="2.70385">
        <ele>1274.2</ele>
        <time>2018-11-26T04:25:50Z</time>
      </trkpt>
      <trkpt lat="42.41229" lon="2.70385">
        <ele>1274.3</ele>
        <time>2018-11-26T04:25:50Z</time>
      </trkpt>
      <trkpt lat="42.41229" lon="2.70385">
        <ele>1274.5</ele>
        <time>2018-11-26T04:25:50Z</time>
      </trkpt>
      <trkpt lat="42.41229" lon="2.70385">
        <ele>1274.3</ele>
        <time>2018-11-26T04:25:50Z</time>
      </trkpt>
      <trkpt lat="42.4123" lon="2.70385">
        <ele>1274.3</ele>
        <time>2018-11-26T04:25:50Z</time>
      </trkpt>
      <trkpt lat="42.4123" lon="2.70385">
        <ele>1274.2</ele>
        <time>2018-11-26T04:25:50Z</time>
      </trkpt>
      <trkpt lat="42.4123" lon="2.70385">
        <ele>1274.6</ele>
        <time>2018-11-26T04:25:50Z</time>
      </trkpt>
      <trkpt lat="42.4123" lon="2.70385">
        <ele>1275.1</ele>
        <time>2018-11-26T04:25:50Z</time>
      </trkpt>
      <trkpt lat="42.41231" lon="2.70386">
        <ele>1275.8</ele>
        <time>2018-11-26T04:25:51Z</time>
      </trkpt>
      <trkpt lat="42.41231" lon="2.70388">
        <ele>1275.8</ele>
        <time>2018-11-26T04:25:51Z</time>
      </trkpt>
      <trkpt lat="42.41232" lon="2.7039">
        <ele>1275.8</ele>
        <time>2018-11-26T04:25:52Z</time>
      </trkpt>
      <trkpt lat="42.41233" lon="2.70393">
        <ele>1275.8</ele>
        <time>2018-11-26T04:25:53Z</time>
      </trkpt>
      <trkpt lat="42.41234" lon="2.70394">
        <ele>1276.1</ele>
        <time>2018-11-26T04:25:54Z</time>
      </trkpt>
      <trkpt lat="42.41234" lon="2.70396">
        <ele>1276.5</ele>
        <time>2018-11-26T04:25:54Z</time>
      </trkpt>
      <trkpt lat="42.41234" lon="2.70398">
        <ele>1277.2</ele>
        <time>2018-11-26T04:25:55Z</time>
      </trkpt>
      <trkpt lat="42.41234" lon="2.704">
        <ele>1277.4</ele>
        <time>2018-11-26T04:25:55Z</time>
      </trkpt>
      <trkpt lat="42.41234" lon="2.70402">
        <ele>1277.8</ele>
        <time>2018-11-26T04:25:56Z</time>
      </trkpt>
      <trkpt lat="42.41236" lon="2.70405">
        <ele>1278.4</ele>
        <time>2018-11-26T04:25:57Z</time>
      </trkpt>
      <trkpt lat="42.41237" lon="2.70407">
        <ele>1278.5</ele>
        <time>2018-11-26T04:25:57Z</time>
      </trkpt>
      <trkpt lat="42.41238" lon="2.7041">
        <ele>1278.8</ele>
        <time>2018-11-26T04:25:59Z</time>
      </trkpt>
      <trkpt lat="42.41238" lon="2.70412">
        <ele>1279.1</ele>
        <time>2018-11-26T04:25:59Z</time>
      </trkpt>
      <trkpt lat="42.41239" lon="2.70414">
        <ele>1279.3</ele>
        <time>2018-11-26T04:26:00Z</time>
      </trkpt>
      <trkpt lat="42.41243" lon="2.7042">
        <ele>1279.6</ele>
        <time>2018-11-26T04:26:02Z</time>
      </trkpt>
      <trkpt lat="42.41244" lon="2.70422">
        <ele>1279.9</ele>
        <time>2018-11-26T04:26:03Z</time>
      </trkpt>
      <trkpt lat="42.41245" lon="2.70422">
        <ele>1280.4</ele>
        <time>2018-11-26T04:26:03Z</time>
      </trkpt>
      <trkpt lat="42.41246" lon="2.70422">
        <ele>1280.6</ele>
        <time>2018-11-26T04:26:04Z</time>
      </trkpt>
      <trkpt lat="42.41248" lon="2.70422">
        <ele>1281.1</ele>
        <time>2018-11-26T04:26:04Z</time>
      </trkpt>
      <trkpt lat="42.41249" lon="2.70423">
        <ele>1281.4</ele>
        <time>2018-11-26T04:26:05Z</time>
      </trkpt>
      <trkpt lat="42.4125" lon="2.70423">
        <ele>1281.7</ele>
        <time>2018-11-26T04:26:06Z</time>
      </trkpt>
      <trkpt lat="42.41253" lon="2.70423">
        <ele>1282.8</ele>
        <time>2018-11-26T04:26:07Z</time>
      </trkpt>
      <trkpt lat="42.41255" lon="2.70423">
        <ele>1283.1</ele>
        <time>2018-11-26T04:26:07Z</time>
      </trkpt>
      <trkpt lat="42.4126" lon="2.70424">
        <ele>1284.3</ele>
        <time>2018-11-26T04:26:09Z</time>
      </trkpt>
      <trkpt lat="42.41261" lon="2.70425">
        <ele>1284.5</ele>
        <time>2018-11-26T04:26:10Z</time>
      </trkpt>
      <trkpt lat="42.41263" lon="2.70426">
        <ele>1284.8</ele>
        <time>2018-11-26T04:26:11Z</time>
      </trkpt>
      <trkpt lat="42.41264" lon="2.70426">
        <ele>1285</ele>
        <time>2018-11-26T04:26:11Z</time>
      </trkpt>
      <trkpt lat="42.41267" lon="2.70426">
        <ele>1285.5</ele>
        <time>2018-11-26T04:26:12Z</time>
      </trkpt>
      <trkpt lat="42.41272" lon="2.70427">
        <ele>1286.7</ele>
        <time>2018-11-26T04:26:14Z</time>
      </trkpt>
      <trkpt lat="42.41273" lon="2.70427">
        <ele>1287</ele>
        <time>2018-11-26T04:26:15Z</time>
      </trkpt>
      <trkpt lat="42.41276" lon="2.70427">
        <ele>1287.8</ele>
        <time>2018-11-26T04:26:16Z</time>
      </trkpt>
      <trkpt lat="42.41277" lon="2.70427">
        <ele>1288.4</ele>
        <time>2018-11-26T04:26:16Z</time>
      </trkpt>
      <trkpt lat="42.41278" lon="2.70427">
        <ele>1288.6</ele>
        <time>2018-11-26T04:26:17Z</time>
      </trkpt>
      <trkpt lat="42.41279" lon="2.70427">
        <ele>1288.6</ele>
        <time>2018-11-26T04:26:17Z</time>
      </trkpt>
      <trkpt lat="42.4128" lon="2.70427">
        <ele>1288.7</ele>
        <time>2018-11-26T04:26:18Z</time>
      </trkpt>
      <trkpt lat="42.41281" lon="2.70426">
        <ele>1289.1</ele>
        <time>2018-11-26T04:26:18Z</time>
      </trkpt>
      <trkpt lat="42.41282" lon="2.70426">
        <ele>1289.2</ele>
        <time>2018-11-26T04:26:19Z</time>
      </trkpt>
      <trkpt lat="42.41284" lon="2.70425">
        <ele>1289.5</ele>
        <time>2018-11-26T04:26:19Z</time>
      </trkpt>
      <trkpt lat="42.41289" lon="2.70425">
        <ele>1291.7</ele>
        <time>2018-11-26T04:26:21Z</time>
      </trkpt>
      <trkpt lat="42.4129" lon="2.70425">
        <ele>1291.7</ele>
        <time>2018-11-26T04:26:22Z</time>
      </trkpt>
      <trkpt lat="42.41291" lon="2.70425">
        <ele>1291.8</ele>
        <time>2018-11-26T04:26:22Z</time>
      </trkpt>
      <trkpt lat="42.41292" lon="2.70426">
        <ele>1292</ele>
        <time>2018-11-26T04:26:23Z</time>
      </trkpt>
      <trkpt lat="42.41293" lon="2.70427">
        <ele>1292.2</ele>
        <time>2018-11-26T04:26:23Z</time>
      </trkpt>
      <trkpt lat="42.41294" lon="2.70427">
        <ele>1292.2</ele>
        <time>2018-11-26T04:26:23Z</time>
      </trkpt>
      <trkpt lat="42.413" lon="2.70429">
        <ele>1293.4</ele>
        <time>2018-11-26T04:26:26Z</time>
      </trkpt>
      <trkpt lat="42.41301" lon="2.7043">
        <ele>1293.3</ele>
        <time>2018-11-26T04:26:26Z</time>
      </trkpt>
      <trkpt lat="42.41305" lon="2.70429">
        <ele>1293.6</ele>
        <time>2018-11-26T04:26:28Z</time>
      </trkpt>
      <trkpt lat="42.41306" lon="2.70429">
        <ele>1294.3</ele>
        <time>2018-11-26T04:26:28Z</time>
      </trkpt>
      <trkpt lat="42.41307" lon="2.70429">
        <ele>1295.1</ele>
        <time>2018-11-26T04:26:29Z</time>
      </trkpt>
      <trkpt lat="42.41311" lon="2.70431">
        <ele>1296.4</ele>
        <time>2018-11-26T04:26:30Z</time>
      </trkpt>
      <trkpt lat="42.41312" lon="2.70431">
        <ele>1296.6</ele>
        <time>2018-11-26T04:26:31Z</time>
      </trkpt>
      <trkpt lat="42.41313" lon="2.70431">
        <ele>1296.9</ele>
        <time>2018-11-26T04:26:31Z</time>
      </trkpt>
      <trkpt lat="42.41313" lon="2.70431">
        <ele>1297.5</ele>
        <time>2018-11-26T04:26:32Z</time>
      </trkpt>
      <trkpt lat="42.41314" lon="2.70431">
        <ele>1297.6</ele>
        <time>2018-11-26T04:26:32Z</time>
      </trkpt>
      <trkpt lat="42.41315" lon="2.70431">
        <ele>1297.7</ele>
        <time>2018-11-26T04:26:32Z</time>
      </trkpt>
      <trkpt lat="42.41316" lon="2.70431">
        <ele>1297.9</ele>
        <time>2018-11-26T04:26:33Z</time>
      </trkpt>
      <trkpt lat="42.41317" lon="2.70431">
        <ele>1297.9</ele>
        <time>2018-11-26T04:26:33Z</time>
      </trkpt>
      <trkpt lat="42.41318" lon="2.70431">
        <ele>1297.8</ele>
        <time>2018-11-26T04:26:33Z</time>
      </trkpt>
      <trkpt lat="42.41319" lon="2.70431">
        <ele>1297.6</ele>
        <time>2018-11-26T04:26:34Z</time>
      </trkpt>
      <trkpt lat="42.4132" lon="2.70431">
        <ele>1297.5</ele>
        <time>2018-11-26T04:26:34Z</time>
      </trkpt>
      <trkpt lat="42.41322" lon="2.70431">
        <ele>1297.4</ele>
        <time>2018-11-26T04:26:35Z</time>
      </trkpt>
      <trkpt lat="42.41323" lon="2.70431">
        <ele>1297.5</ele>
        <time>2018-11-26T04:26:35Z</time>
      </trkpt>
      <trkpt lat="42.41324" lon="2.70431">
        <ele>1297.6</ele>
        <time>2018-11-26T04:26:36Z</time>
      </trkpt>
      <trkpt lat="42.41326" lon="2.70434">
        <ele>1297.8</ele>
        <time>2018-11-26T04:26:37Z</time>
      </trkpt>
      <trkpt lat="42.41327" lon="2.70435">
        <ele>1298.1</ele>
        <time>2018-11-26T04:26:38Z</time>
      </trkpt>
      <trkpt lat="42.41328" lon="2.70436">
        <ele>1298.2</ele>
        <time>2018-11-26T04:26:38Z</time>
      </trkpt>
      <trkpt lat="42.41329" lon="2.70437">
        <ele>1298.6</ele>
        <time>2018-11-26T04:26:39Z</time>
      </trkpt>
      <trkpt lat="42.41331" lon="2.70438">
        <ele>1299.4</ele>
        <time>2018-11-26T04:26:39Z</time>
      </trkpt>
      <trkpt lat="42.41332" lon="2.70438">
        <ele>1300.1</ele>
        <time>2018-11-26T04:26:40Z</time>
      </trkpt>
      <trkpt lat="42.41333" lon="2.70439">
        <ele>1300.2</ele>
        <time>2018-11-26T04:26:40Z</time>
      </trkpt>
      <trkpt lat="42.41333" lon="2.7044">
        <ele>1300.5</ele>
        <time>2018-11-26T04:26:41Z</time>
      </trkpt>
      <trkpt lat="42.41334" lon="2.70442">
        <ele>1300.8</ele>
        <time>2018-11-26T04:26:41Z</time>
      </trkpt>
      <trkpt lat="42.41334" lon="2.70443">
        <ele>1301.3</ele>
        <time>2018-11-26T04:26:41Z</time>
      </trkpt>
      <trkpt lat="42.41334" lon="2.70444">
        <ele>1301.5</ele>
        <time>2018-11-26T04:26:42Z</time>
      </trkpt>
      <trkpt lat="42.41335" lon="2.70445">
        <ele>1301.5</ele>
        <time>2018-11-26T04:26:42Z</time>
      </trkpt>
      <trkpt lat="42.41335" lon="2.70447">
        <ele>1301.6</ele>
        <time>2018-11-26T04:26:43Z</time>
      </trkpt>
      <trkpt lat="42.41335" lon="2.70448">
        <ele>1301.9</ele>
        <time>2018-11-26T04:26:43Z</time>
      </trkpt>
      <trkpt lat="42.41336" lon="2.70451">
        <ele>1302.7</ele>
        <time>2018-11-26T04:26:44Z</time>
      </trkpt>
      <trkpt lat="42.41337" lon="2.70452">
        <ele>1302.6</ele>
        <time>2018-11-26T04:26:44Z</time>
      </trkpt>
      <trkpt lat="42.41338" lon="2.70452">
        <ele>1302.5</ele>
        <time>2018-11-26T04:26:45Z</time>
      </trkpt>
      <trkpt lat="42.41339" lon="2.70453">
        <ele>1302.3</ele>
        <time>2018-11-26T04:26:45Z</time>
      </trkpt>
      <trkpt lat="42.4134" lon="2.70454">
        <ele>1302.7</ele>
        <time>2018-11-26T04:26:46Z</time>
      </trkpt>
      <trkpt lat="42.4134" lon="2.70456">
        <ele>1303.1</ele>
        <time>2018-11-26T04:26:46Z</time>
      </trkpt>
      <trkpt lat="42.41343" lon="2.70458">
        <ele>1304.3</ele>
        <time>2018-11-26T04:26:47Z</time>
      </trkpt>
      <trkpt lat="42.41344" lon="2.70459">
        <ele>1304.6</ele>
        <time>2018-11-26T04:26:48Z</time>
      </trkpt>
      <trkpt lat="42.41344" lon="2.7046">
        <ele>1305.2</ele>
        <time>2018-11-26T04:26:48Z</time>
      </trkpt>
      <trkpt lat="42.41344" lon="2.70462">
        <ele>1305.2</ele>
        <time>2018-11-26T04:26:49Z</time>
      </trkpt>
      <trkpt lat="42.41344" lon="2.70463">
        <ele>1305.4</ele>
        <time>2018-11-26T04:26:49Z</time>
      </trkpt>
      <trkpt lat="42.41344" lon="2.70465">
        <ele>1305.6</ele>
        <time>2018-11-26T04:26:50Z</time>
      </trkpt>
      <trkpt lat="42.41346" lon="2.70469">
        <ele>1306.1</ele>
        <time>2018-11-26T04:26:51Z</time>
      </trkpt>
      <trkpt lat="42.41347" lon="2.70471">
        <ele>1306.3</ele>
        <time>2018-11-26T04:26:52Z</time>
      </trkpt>
      <trkpt lat="42.41348" lon="2.70475">
        <ele>1307.3</ele>
        <time>2018-11-26T04:26:53Z</time>
      </trkpt>
      <trkpt lat="42.41348" lon="2.70476">
        <ele>1307.5</ele>
        <time>2018-11-26T04:26:53Z</time>
      </trkpt>
      <trkpt lat="42.41348" lon="2.70478">
        <ele>1308</ele>
        <time>2018-11-26T04:26:54Z</time>
      </trkpt>
      <trkpt lat="42.41348" lon="2.7048">
        <ele>1308.2</ele>
        <time>2018-11-26T04:26:54Z</time>
      </trkpt>
      <trkpt lat="42.41348" lon="2.70481">
        <ele>1308.4</ele>
        <time>2018-11-26T04:26:55Z</time>
      </trkpt>
      <trkpt lat="42.41349" lon="2.70484">
        <ele>1309.3</ele>
        <time>2018-11-26T04:26:56Z</time>
      </trkpt>
      <trkpt lat="42.4135" lon="2.70487">
        <ele>1309.7</ele>
        <time>2018-11-26T04:26:57Z</time>
      </trkpt>
      <trkpt lat="42.41351" lon="2.70489">
        <ele>1309.9</ele>
        <time>2018-11-26T04:26:57Z</time>
      </trkpt>
      <trkpt lat="42.41351" lon="2.70491">
        <ele>1310.2</ele>
        <time>2018-11-26T04:26:58Z</time>
      </trkpt>
      <trkpt lat="42.41352" lon="2.70492">
        <ele>1310.4</ele>
        <time>2018-11-26T04:26:58Z</time>
      </trkpt>
      <trkpt lat="42.41352" lon="2.70494">
        <ele>1310.8</ele>
        <time>2018-11-26T04:26:59Z</time>
      </trkpt>
      <trkpt lat="42.41352" lon="2.70495">
        <ele>1310.8</ele>
        <time>2018-11-26T04:26:59Z</time>
      </trkpt>
      <trkpt lat="42.41351" lon="2.70496">
        <ele>1310.9</ele>
        <time>2018-11-26T04:27:00Z</time>
      </trkpt>
      <trkpt lat="42.41351" lon="2.70497">
        <ele>1310.8</ele>
        <time>2018-11-26T04:27:00Z</time>
      </trkpt>
      <trkpt lat="42.41351" lon="2.70499">
        <ele>1311.1</ele>
        <time>2018-11-26T04:27:00Z</time>
      </trkpt>
      <trkpt lat="42.41351" lon="2.705">
        <ele>1311.8</ele>
        <time>2018-11-26T04:27:01Z</time>
      </trkpt>
      <trkpt lat="42.41351" lon="2.70501">
        <ele>1312.5</ele>
        <time>2018-11-26T04:27:01Z</time>
      </trkpt>
      <trkpt lat="42.41351" lon="2.70503">
        <ele>1312.7</ele>
        <time>2018-11-26T04:27:02Z</time>
      </trkpt>
      <trkpt lat="42.41351" lon="2.70504">
        <ele>1312.9</ele>
        <time>2018-11-26T04:27:02Z</time>
      </trkpt>
      <trkpt lat="42.41352" lon="2.70506">
        <ele>1313.3</ele>
        <time>2018-11-26T04:27:03Z</time>
      </trkpt>
      <trkpt lat="42.41352" lon="2.70507">
        <ele>1313.5</ele>
        <time>2018-11-26T04:27:03Z</time>
      </trkpt>
      <trkpt lat="42.41353" lon="2.70508">
        <ele>1313.8</ele>
        <time>2018-11-26T04:27:03Z</time>
      </trkpt>
      <trkpt lat="42.41357" lon="2.7051">
        <ele>1315.2</ele>
        <time>2018-11-26T04:27:05Z</time>
      </trkpt>
      <trkpt lat="42.41359" lon="2.70511">
        <ele>1315.5</ele>
        <time>2018-11-26T04:27:06Z</time>
      </trkpt>
      <trkpt lat="42.41361" lon="2.70512">
        <ele>1315.7</ele>
        <time>2018-11-26T04:27:07Z</time>
      </trkpt>
      <trkpt lat="42.41362" lon="2.70512">
        <ele>1316</ele>
        <time>2018-11-26T04:27:07Z</time>
      </trkpt>
      <trkpt lat="42.41363" lon="2.70513">
        <ele>1316.4</ele>
        <time>2018-11-26T04:27:08Z</time>
      </trkpt>
      <trkpt lat="42.41364" lon="2.70514">
        <ele>1317.1</ele>
        <time>2018-11-26T04:27:08Z</time>
      </trkpt>
      <trkpt lat="42.41364" lon="2.70515">
        <ele>1317.6</ele>
        <time>2018-11-26T04:27:09Z</time>
      </trkpt>
      <trkpt lat="42.41366" lon="2.70519">
        <ele>1319</ele>
        <time>2018-11-26T04:27:10Z</time>
      </trkpt>
      <trkpt lat="42.41367" lon="2.70522">
        <ele>1319.3</ele>
        <time>2018-11-26T04:27:11Z</time>
      </trkpt>
      <trkpt lat="42.41368" lon="2.70523">
        <ele>1319.7</ele>
        <time>2018-11-26T04:27:12Z</time>
      </trkpt>
      <trkpt lat="42.41371" lon="2.70524">
        <ele>1320</ele>
        <time>2018-11-26T04:27:13Z</time>
      </trkpt>
      <trkpt lat="42.41372" lon="2.70524">
        <ele>1320.1</ele>
        <time>2018-11-26T04:27:13Z</time>
      </trkpt>
      <trkpt lat="42.41373" lon="2.70524">
        <ele>1320.4</ele>
        <time>2018-11-26T04:27:14Z</time>
      </trkpt>
      <trkpt lat="42.41375" lon="2.70524">
        <ele>1320.7</ele>
        <time>2018-11-26T04:27:14Z</time>
      </trkpt>
      <trkpt lat="42.41377" lon="2.70526">
        <ele>1321.4</ele>
        <time>2018-11-26T04:27:15Z</time>
      </trkpt>
      <trkpt lat="42.41377" lon="2.70527">
        <ele>1321.8</ele>
        <time>2018-11-26T04:27:16Z</time>
      </trkpt>
      <trkpt lat="42.41378" lon="2.70527">
        <ele>1322.2</ele>
        <time>2018-11-26T04:27:16Z</time>
      </trkpt>
      <trkpt lat="42.4138" lon="2.70528">
        <ele>1322.4</ele>
        <time>2018-11-26T04:27:17Z</time>
      </trkpt>
      <trkpt lat="42.41385" lon="2.7053">
        <ele>1323.5</ele>
        <time>2018-11-26T04:27:19Z</time>
      </trkpt>
      <trkpt lat="42.41386" lon="2.7053">
        <ele>1323.9</ele>
        <time>2018-11-26T04:27:19Z</time>
      </trkpt>
      <trkpt lat="42.41386" lon="2.7053">
        <ele>1324.4</ele>
        <time>2018-11-26T04:27:19Z</time>
      </trkpt>
      <trkpt lat="42.41387" lon="2.70531">
        <ele>1324.9</ele>
        <time>2018-11-26T04:27:20Z</time>
      </trkpt>
      <trkpt lat="42.41388" lon="2.70532">
        <ele>1325.9</ele>
        <time>2018-11-26T04:27:20Z</time>
      </trkpt>
      <trkpt lat="42.41389" lon="2.70533">
        <ele>1326.2</ele>
        <time>2018-11-26T04:27:21Z</time>
      </trkpt>
      <trkpt lat="42.41391" lon="2.70533">
        <ele>1326.5</ele>
        <time>2018-11-26T04:27:21Z</time>
      </trkpt>
      <trkpt lat="42.41392" lon="2.70533">
        <ele>1326.8</ele>
        <time>2018-11-26T04:27:22Z</time>
      </trkpt>
      <trkpt lat="42.41393" lon="2.70533">
        <ele>1327</ele>
        <time>2018-11-26T04:27:22Z</time>
      </trkpt>
      <trkpt lat="42.41393" lon="2.70533">
        <ele>1327.2</ele>
        <time>2018-11-26T04:27:22Z</time>
      </trkpt>
      <trkpt lat="42.41394" lon="2.70534">
        <ele>1327.6</ele>
        <time>2018-11-26T04:27:23Z</time>
      </trkpt>
      <trkpt lat="42.41395" lon="2.70535">
        <ele>1328.1</ele>
        <time>2018-11-26T04:27:23Z</time>
      </trkpt>
      <trkpt lat="42.41396" lon="2.70535">
        <ele>1328.6</ele>
        <time>2018-11-26T04:27:24Z</time>
      </trkpt>
      <trkpt lat="42.41398" lon="2.70536">
        <ele>1329.4</ele>
        <time>2018-11-26T04:27:24Z</time>
      </trkpt>
      <trkpt lat="42.414" lon="2.70536">
        <ele>1330.6</ele>
        <time>2018-11-26T04:27:25Z</time>
      </trkpt>
      <trkpt lat="42.41401" lon="2.70536">
        <ele>1330.7</ele>
        <time>2018-11-26T04:27:26Z</time>
      </trkpt>
      <trkpt lat="42.41401" lon="2.70537">
        <ele>1330.6</ele>
        <time>2018-11-26T04:27:26Z</time>
      </trkpt>
      <trkpt lat="42.41401" lon="2.70538">
        <ele>1330.6</ele>
        <time>2018-11-26T04:27:26Z</time>
      </trkpt>
      <trkpt lat="42.41401" lon="2.70539">
        <ele>1331</ele>
        <time>2018-11-26T04:27:27Z</time>
      </trkpt>
      <trkpt lat="42.41401" lon="2.7054">
        <ele>1331.4</ele>
        <time>2018-11-26T04:27:27Z</time>
      </trkpt>
      <trkpt lat="42.41403" lon="2.7054">
        <ele>1332.1</ele>
        <time>2018-11-26T04:27:27Z</time>
      </trkpt>
      <trkpt lat="42.41404" lon="2.7054">
        <ele>1332.1</ele>
        <time>2018-11-26T04:27:28Z</time>
      </trkpt>
      <trkpt lat="42.41405" lon="2.7054">
        <ele>1332.1</ele>
        <time>2018-11-26T04:27:28Z</time>
      </trkpt>
      <trkpt lat="42.41406" lon="2.70539">
        <ele>1332.2</ele>
        <time>2018-11-26T04:27:29Z</time>
      </trkpt>
      <trkpt lat="42.41408" lon="2.70538">
        <ele>1332.3</ele>
        <time>2018-11-26T04:27:29Z</time>
      </trkpt>
      <trkpt lat="42.41409" lon="2.70538">
        <ele>1332.5</ele>
        <time>2018-11-26T04:27:30Z</time>
      </trkpt>
      <trkpt lat="42.4141" lon="2.70539">
        <ele>1332.6</ele>
        <time>2018-11-26T04:27:30Z</time>
      </trkpt>
      <trkpt lat="42.41411" lon="2.7054">
        <ele>1332.7</ele>
        <time>2018-11-26T04:27:31Z</time>
      </trkpt>
      <trkpt lat="42.41412" lon="2.7054">
        <ele>1332.9</ele>
        <time>2018-11-26T04:27:31Z</time>
      </trkpt>
      <trkpt lat="42.4142" lon="2.70539">
        <ele>1333.5</ele>
        <time>2018-11-26T04:27:34Z</time>
      </trkpt>
      <trkpt lat="42.41422" lon="2.70539">
        <ele>1333.4</ele>
        <time>2018-11-26T04:27:35Z</time>
      </trkpt>
      <trkpt lat="42.41423" lon="2.70539">
        <ele>1333.6</ele>
        <time>2018-11-26T04:27:36Z</time>
      </trkpt>
      <trkpt lat="42.41425" lon="2.70538">
        <ele>1333.7</ele>
        <time>2018-11-26T04:27:37Z</time>
      </trkpt>
      <trkpt lat="42.41426" lon="2.70538">
        <ele>1334.1</ele>
        <time>2018-11-26T04:27:37Z</time>
      </trkpt>
      <trkpt lat="42.41431" lon="2.70537">
        <ele>1335</ele>
        <time>2018-11-26T04:27:39Z</time>
      </trkpt>
      <trkpt lat="42.41432" lon="2.70536">
        <ele>1335.4</ele>
        <time>2018-11-26T04:27:39Z</time>
      </trkpt>
      <trkpt lat="42.41433" lon="2.70536">
        <ele>1335.7</ele>
        <time>2018-11-26T04:27:40Z</time>
      </trkpt>
      <trkpt lat="42.41436" lon="2.70537">
        <ele>1336.7</ele>
        <time>2018-11-26T04:27:41Z</time>
      </trkpt>
      <trkpt lat="42.41439" lon="2.70537">
        <ele>1337</ele>
        <time>2018-11-26T04:27:42Z</time>
      </trkpt>
      <trkpt lat="42.4144" lon="2.70537">
        <ele>1337</ele>
        <time>2018-11-26T04:27:43Z</time>
      </trkpt>
      <trkpt lat="42.41444" lon="2.70536">
        <ele>1337.5</ele>
        <time>2018-11-26T04:27:44Z</time>
      </trkpt>
      <trkpt lat="42.41445" lon="2.70536">
        <ele>1337.6</ele>
        <time>2018-11-26T04:27:45Z</time>
      </trkpt>
      <trkpt lat="42.41446" lon="2.70536">
        <ele>1338</ele>
        <time>2018-11-26T04:27:45Z</time>
      </trkpt>
      <trkpt lat="42.41448" lon="2.70536">
        <ele>1338.3</ele>
        <time>2018-11-26T04:27:46Z</time>
      </trkpt>
      <trkpt lat="42.41448" lon="2.70536">
        <ele>1338.4</ele>
        <time>2018-11-26T04:27:46Z</time>
      </trkpt>
      <trkpt lat="42.41449" lon="2.70537">
        <ele>1338.8</ele>
        <time>2018-11-26T04:27:46Z</time>
      </trkpt>
      <trkpt lat="42.4145" lon="2.70538">
        <ele>1339.2</ele>
        <time>2018-11-26T04:27:47Z</time>
      </trkpt>
      <trkpt lat="42.4145" lon="2.70538">
        <ele>1339.4</ele>
        <time>2018-11-26T04:27:47Z</time>
      </trkpt>
      <trkpt lat="42.41451" lon="2.70539">
        <ele>1339.5</ele>
        <time>2018-11-26T04:27:47Z</time>
      </trkpt>
      <trkpt lat="42.41452" lon="2.70539">
        <ele>1339.8</ele>
        <time>2018-11-26T04:27:48Z</time>
      </trkpt>
      <trkpt lat="42.41453" lon="2.70539">
        <ele>1340.2</ele>
        <time>2018-11-26T04:27:48Z</time>
      </trkpt>
      <trkpt lat="42.41454" lon="2.70539">
        <ele>1340.5</ele>
        <time>2018-11-26T04:27:49Z</time>
      </trkpt>
      <trkpt lat="42.41456" lon="2.70539">
        <ele>1340.9</ele>
        <time>2018-11-26T04:27:49Z</time>
      </trkpt>
      <trkpt lat="42.41458" lon="2.70539">
        <ele>1341.1</ele>
        <time>2018-11-26T04:27:50Z</time>
      </trkpt>
      <trkpt lat="42.41459" lon="2.70539">
        <ele>1340.7</ele>
        <time>2018-11-26T04:27:51Z</time>
      </trkpt>
      <trkpt lat="42.41462" lon="2.70539">
        <ele>1340.6</ele>
        <time>2018-11-26T04:27:52Z</time>
      </trkpt>
      <trkpt lat="42.41463" lon="2.70538">
        <ele>1340.9</ele>
        <time>2018-11-26T04:27:52Z</time>
      </trkpt>
      <trkpt lat="42.41466" lon="2.70538">
        <ele>1341.3</ele>
        <time>2018-11-26T04:27:53Z</time>
      </trkpt>
      <trkpt lat="42.41467" lon="2.70539">
        <ele>1341.4</ele>
        <time>2018-11-26T04:27:54Z</time>
      </trkpt>
      <trkpt lat="42.41468" lon="2.70539">
        <ele>1341.5</ele>
        <time>2018-11-26T04:27:54Z</time>
      </trkpt>
      <trkpt lat="42.41469" lon="2.70539">
        <ele>1341.8</ele>
        <time>2018-11-26T04:27:55Z</time>
      </trkpt>
      <trkpt lat="42.41471" lon="2.70539">
        <ele>1342.6</ele>
        <time>2018-11-26T04:27:56Z</time>
      </trkpt>
      <trkpt lat="42.41473" lon="2.70539">
        <ele>1343.1</ele>
        <time>2018-11-26T04:27:56Z</time>
      </trkpt>
      <trkpt lat="42.41474" lon="2.70539">
        <ele>1343.6</ele>
        <time>2018-11-26T04:27:56Z</time>
      </trkpt>
      <trkpt lat="42.41475" lon="2.70543">
        <ele>1345.1</ele>
        <time>2018-11-26T04:27:58Z</time>
      </trkpt>
      <trkpt lat="42.41476" lon="2.70544">
        <ele>1345.1</ele>
        <time>2018-11-26T04:27:58Z</time>
      </trkpt>
      <trkpt lat="42.41476" lon="2.70545">
        <ele>1345.1</ele>
        <time>2018-11-26T04:27:58Z</time>
      </trkpt>
      <trkpt lat="42.41476" lon="2.70546">
        <ele>1345.4</ele>
        <time>2018-11-26T04:27:59Z</time>
      </trkpt>
      <trkpt lat="42.41477" lon="2.70546">
        <ele>1345.7</ele>
        <time>2018-11-26T04:27:59Z</time>
      </trkpt>
      <trkpt lat="42.41477" lon="2.70547">
        <ele>1346.1</ele>
        <time>2018-11-26T04:27:59Z</time>
      </trkpt>
      <trkpt lat="42.41478" lon="2.70548">
        <ele>1346.3</ele>
        <time>2018-11-26T04:28:00Z</time>
      </trkpt>
      <trkpt lat="42.41479" lon="2.70548">
        <ele>1346.5</ele>
        <time>2018-11-26T04:28:00Z</time>
      </trkpt>
      <trkpt lat="42.4148" lon="2.70548">
        <ele>1347</ele>
        <time>2018-11-26T04:28:00Z</time>
      </trkpt>
      <trkpt lat="42.41481" lon="2.70549">
        <ele>1347</ele>
        <time>2018-11-26T04:28:01Z</time>
      </trkpt>
      <trkpt lat="42.41481" lon="2.7055">
        <ele>1347</ele>
        <time>2018-11-26T04:28:01Z</time>
      </trkpt>
      <trkpt lat="42.41482" lon="2.7055">
        <ele>1347.2</ele>
        <time>2018-11-26T04:28:01Z</time>
      </trkpt>
      <trkpt lat="42.41484" lon="2.7055">
        <ele>1347.2</ele>
        <time>2018-11-26T04:28:02Z</time>
      </trkpt>
      <trkpt lat="42.41485" lon="2.7055">
        <ele>1346.9</ele>
        <time>2018-11-26T04:28:03Z</time>
      </trkpt>
      <trkpt lat="42.41486" lon="2.7055">
        <ele>1346.7</ele>
        <time>2018-11-26T04:28:03Z</time>
      </trkpt>
      <trkpt lat="42.41487" lon="2.70551">
        <ele>1346.7</ele>
        <time>2018-11-26T04:28:03Z</time>
      </trkpt>
      <trkpt lat="42.41488" lon="2.70551">
        <ele>1346.9</ele>
        <time>2018-11-26T04:28:04Z</time>
      </trkpt>
      <trkpt lat="42.41489" lon="2.70551">
        <ele>1347.2</ele>
        <time>2018-11-26T04:28:04Z</time>
      </trkpt>
      <trkpt lat="42.4149" lon="2.7055">
        <ele>1347.4</ele>
        <time>2018-11-26T04:28:04Z</time>
      </trkpt>
      <trkpt lat="42.41492" lon="2.7055">
        <ele>1348.3</ele>
        <time>2018-11-26T04:28:05Z</time>
      </trkpt>
      <trkpt lat="42.41493" lon="2.7055">
        <ele>1348.3</ele>
        <time>2018-11-26T04:28:06Z</time>
      </trkpt>
      <trkpt lat="42.41494" lon="2.7055">
        <ele>1348.6</ele>
        <time>2018-11-26T04:28:06Z</time>
      </trkpt>
      <trkpt lat="42.41494" lon="2.70551">
        <ele>1348.8</ele>
        <time>2018-11-26T04:28:06Z</time>
      </trkpt>
      <trkpt lat="42.41495" lon="2.70551">
        <ele>1348.9</ele>
        <time>2018-11-26T04:28:07Z</time>
      </trkpt>
      <trkpt lat="42.41496" lon="2.70551">
        <ele>1349.3</ele>
        <time>2018-11-26T04:28:07Z</time>
      </trkpt>
      <trkpt lat="42.41496" lon="2.70551">
        <ele>1349.5</ele>
        <time>2018-11-26T04:28:07Z</time>
      </trkpt>
      <trkpt lat="42.41497" lon="2.70551">
        <ele>1349.9</ele>
        <time>2018-11-26T04:28:08Z</time>
      </trkpt>
      <trkpt lat="42.41498" lon="2.70551">
        <ele>1350.1</ele>
        <time>2018-11-26T04:28:08Z</time>
      </trkpt>
      <trkpt lat="42.41498" lon="2.70551">
        <ele>1350.3</ele>
        <time>2018-11-26T04:28:08Z</time>
      </trkpt>
      <trkpt lat="42.41499" lon="2.70552">
        <ele>1350.4</ele>
        <time>2018-11-26T04:28:08Z</time>
      </trkpt>
      <trkpt lat="42.41499" lon="2.70553">
        <ele>1350.5</ele>
        <time>2018-11-26T04:28:09Z</time>
      </trkpt>
      <trkpt lat="42.415" lon="2.70553">
        <ele>1350.7</ele>
        <time>2018-11-26T04:28:09Z</time>
      </trkpt>
      <trkpt lat="42.415" lon="2.70552">
        <ele>1350.6</ele>
        <time>2018-11-26T04:28:09Z</time>
      </trkpt>
      <trkpt lat="42.415" lon="2.70552">
        <ele>1350.6</ele>
        <time>2018-11-26T04:28:09Z</time>
      </trkpt>
      <trkpt lat="42.415" lon="2.70552">
        <ele>1350.5</ele>
        <time>2018-11-26T04:28:09Z</time>
      </trkpt>
      <trkpt lat="42.415" lon="2.70552">
        <ele>1350.2</ele>
        <time>2018-11-26T04:28:09Z</time>
      </trkpt>
      <trkpt lat="42.415" lon="2.70552">
        <ele>1350.1</ele>
        <time>2018-11-26T04:28:09Z</time>
      </trkpt>
      <trkpt lat="42.415" lon="2.70552">
        <ele>1349.9</ele>
        <time>2018-11-26T04:28:09Z</time>
      </trkpt>
      <trkpt lat="42.415" lon="2.70552">
        <ele>1349.9</ele>
        <time>2018-11-26T04:28:09Z</time>
      </trkpt>
      <trkpt lat="42.415" lon="2.70552">
        <ele>1349.8</ele>
        <time>2018-11-26T04:28:09Z</time>
      </trkpt>
      <trkpt lat="42.415" lon="2.70552">
        <ele>1349.9</ele>
        <time>2018-11-26T04:28:09Z</time>
      </trkpt>
      <trkpt lat="42.41501" lon="2.70551">
        <ele>1350</ele>
        <time>2018-11-26T04:28:09Z</time>
      </trkpt>
      <trkpt lat="42.41501" lon="2.70551">
        <ele>1350</ele>
        <time>2018-11-26T04:28:09Z</time>
      </trkpt>
      <trkpt lat="42.415" lon="2.70551">
        <ele>1350.1</ele>
        <time>2018-11-26T04:28:10Z</time>
      </trkpt>
      <trkpt lat="42.41501" lon="2.70551">
        <ele>1350.3</ele>
        <time>2018-11-26T04:28:10Z</time>
      </trkpt>
      <trkpt lat="42.41501" lon="2.70551">
        <ele>1350.3</ele>
        <time>2018-11-26T04:28:10Z</time>
      </trkpt>
      <trkpt lat="42.41501" lon="2.70551">
        <ele>1350.1</ele>
        <time>2018-11-26T04:28:10Z</time>
      </trkpt>
      <trkpt lat="42.41501" lon="2.70551">
        <ele>1349.9</ele>
        <time>2018-11-26T04:28:10Z</time>
      </trkpt>
      <trkpt lat="42.41501" lon="2.70551">
        <ele>1349.5</ele>
        <time>2018-11-26T04:28:10Z</time>
      </trkpt>
      <trkpt lat="42.41501" lon="2.70551">
        <ele>1349.6</ele>
        <time>2018-11-26T04:28:10Z</time>
      </trkpt>
      <trkpt lat="42.41501" lon="2.70551">
        <ele>1349.7</ele>
        <time>2018-11-26T04:28:10Z</time>
      </trkpt>
      <trkpt lat="42.41501" lon="2.7055">
        <ele>1349.9</ele>
        <time>2018-11-26T04:28:10Z</time>
      </trkpt>
      <trkpt lat="42.41501" lon="2.7055">
        <ele>1350</ele>
        <time>2018-11-26T04:28:10Z</time>
      </trkpt>
      <trkpt lat="42.41502" lon="2.7055">
        <ele>1350.2</ele>
        <time>2018-11-26T04:28:10Z</time>
      </trkpt>
      <trkpt lat="42.41502" lon="2.7055">
        <ele>1350.5</ele>
        <time>2018-11-26T04:28:10Z</time>
      </trkpt>
      <trkpt lat="42.41502" lon="2.70549">
        <ele>1350.3</ele>
        <time>2018-11-26T04:28:10Z</time>
      </trkpt>
      <trkpt lat="42.41503" lon="2.70549">
        <ele>1350.2</ele>
        <time>2018-11-26T04:28:11Z</time>
      </trkpt>
      <trkpt lat="42.41503" lon="2.70548">
        <ele>1350.1</ele>
        <time>2018-11-26T04:28:11Z</time>
      </trkpt>
      <trkpt lat="42.41504" lon="2.70548">
        <ele>1350</ele>
        <time>2018-11-26T04:28:11Z</time>
      </trkpt>
      <trkpt lat="42.41504" lon="2.70548">
        <ele>1349.8</ele>
        <time>2018-11-26T04:28:11Z</time>
      </trkpt>
      <trkpt lat="42.41505" lon="2.70548">
        <ele>1349.6</ele>
        <time>2018-11-26T04:28:12Z</time>
      </trkpt>
      <trkpt lat="42.41506" lon="2.70548">
        <ele>1349.4</ele>
        <time>2018-11-26T04:28:12Z</time>
      </trkpt>
      <trkpt lat="42.41506" lon="2.70548">
        <ele>1349.5</ele>
        <time>2018-11-26T04:28:12Z</time>
      </trkpt>
      <trkpt lat="42.41507" lon="2.70548">
        <ele>1349.5</ele>
        <time>2018-11-26T04:28:13Z</time>
      </trkpt>
      <trkpt lat="42.41508" lon="2.70548">
        <ele>1349.6</ele>
        <time>2018-11-26T04:28:13Z</time>
      </trkpt>
      <trkpt lat="42.41508" lon="2.70548">
        <ele>1349.6</ele>
        <time>2018-11-26T04:28:13Z</time>
      </trkpt>
      <trkpt lat="42.41509" lon="2.70548">
        <ele>1349.6</ele>
        <time>2018-11-26T04:28:13Z</time>
      </trkpt>
      <trkpt lat="42.4151" lon="2.70548">
        <ele>1349.8</ele>
        <time>2018-11-26T04:28:14Z</time>
      </trkpt>
      <trkpt lat="42.41511" lon="2.70548">
        <ele>1349.7</ele>
        <time>2018-11-26T04:28:14Z</time>
      </trkpt>
      <trkpt lat="42.41511" lon="2.70548">
        <ele>1349.9</ele>
        <time>2018-11-26T04:28:14Z</time>
      </trkpt>
      <trkpt lat="42.41512" lon="2.70548">
        <ele>1349.9</ele>
        <time>2018-11-26T04:28:15Z</time>
      </trkpt>
      <trkpt lat="42.41512" lon="2.70549">
        <ele>1350.2</ele>
        <time>2018-11-26T04:28:15Z</time>
      </trkpt>
      <trkpt lat="42.41513" lon="2.70549">
        <ele>1350.5</ele>
        <time>2018-11-26T04:28:15Z</time>
      </trkpt>
      <trkpt lat="42.41512" lon="2.70549">
        <ele>1351</ele>
        <time>2018-11-26T04:28:15Z</time>
      </trkpt>
      <trkpt lat="42.41512" lon="2.70549">
        <ele>1350.7</ele>
        <time>2018-11-26T04:28:15Z</time>
      </trkpt>
      <trkpt lat="42.41513" lon="2.70549">
        <ele>1350.5</ele>
        <time>2018-11-26T04:28:15Z</time>
      </trkpt>
      <trkpt lat="42.41513" lon="2.70549">
        <ele>1350.1</ele>
        <time>2018-11-26T04:28:15Z</time>
      </trkpt>
      <trkpt lat="42.41513" lon="2.70549">
        <ele>1349.8</ele>
        <time>2018-11-26T04:28:15Z</time>
      </trkpt>
      <trkpt lat="42.41513" lon="2.70549">
        <ele>1349.7</ele>
        <time>2018-11-26T04:28:15Z</time>
      </trkpt>
      <trkpt lat="42.41513" lon="2.70548">
        <ele>1349.8</ele>
        <time>2018-11-26T04:28:15Z</time>
      </trkpt>
      <trkpt lat="42.41513" lon="2.70549">
        <ele>1349.8</ele>
        <time>2018-11-26T04:28:15Z</time>
      </trkpt>
      <trkpt lat="42.41513" lon="2.70549">
        <ele>1349.8</ele>
        <time>2018-11-26T04:28:16Z</time>
      </trkpt>
      <trkpt lat="42.41513" lon="2.70548">
        <ele>1350.1</ele>
        <time>2018-11-26T04:28:16Z</time>
      </trkpt>
      <trkpt lat="42.41513" lon="2.70548">
        <ele>1350.3</ele>
        <time>2018-11-26T04:28:16Z</time>
      </trkpt>
      <trkpt lat="42.41513" lon="2.70548">
        <ele>1350.1</ele>
        <time>2018-11-26T04:28:16Z</time>
      </trkpt>
      <trkpt lat="42.41513" lon="2.70548">
        <ele>1349.7</ele>
        <time>2018-11-26T04:28:16Z</time>
      </trkpt>
      <trkpt lat="42.41513" lon="2.70548">
        <ele>1349.3</ele>
        <time>2018-11-26T04:28:16Z</time>
      </trkpt>
      <trkpt lat="42.41513" lon="2.70548">
        <ele>1349.2</ele>
        <time>2018-11-26T04:28:16Z</time>
      </trkpt>
      <trkpt lat="42.41513" lon="2.70548">
        <ele>1349.1</ele>
        <time>2018-11-26T04:28:16Z</time>
      </trkpt>
      <trkpt lat="42.41513" lon="2.70549">
        <ele>1348.9</ele>
        <time>2018-11-26T04:28:16Z</time>
      </trkpt>
      <trkpt lat="42.41513" lon="2.70549">
        <ele>1348.9</ele>
        <time>2018-11-26T04:28:16Z</time>
      </trkpt>
      <trkpt lat="42.41513" lon="2.70549">
        <ele>1348.9</ele>
        <time>2018-11-26T04:28:16Z</time>
      </trkpt>
      <trkpt lat="42.41513" lon="2.7055">
        <ele>1349</ele>
        <time>2018-11-26T04:28:17Z</time>
      </trkpt>
      <trkpt lat="42.41513" lon="2.7055">
        <ele>1348.9</ele>
        <time>2018-11-26T04:28:17Z</time>
      </trkpt>
      <trkpt lat="42.41513" lon="2.7055">
        <ele>1348.9</ele>
        <time>2018-11-26T04:28:17Z</time>
      </trkpt>
      <trkpt lat="42.41513" lon="2.7055">
        <ele>1348.8</ele>
        <time>2018-11-26T04:28:17Z</time>
      </trkpt>
      <trkpt lat="42.41512" lon="2.7055">
        <ele>1348.7</ele>
        <time>2018-11-26T04:28:17Z</time>
      </trkpt>
      <trkpt lat="42.41512" lon="2.7055">
        <ele>1348.8</ele>
        <time>2018-11-26T04:28:17Z</time>
      </trkpt>
      <trkpt lat="42.41512" lon="2.70551">
        <ele>1348.9</ele>
        <time>2018-11-26T04:28:17Z</time>
      </trkpt>
      <trkpt lat="42.41512" lon="2.70551">
        <ele>1349</ele>
        <time>2018-11-26T04:28:17Z</time>
      </trkpt>
      <trkpt lat="42.41512" lon="2.70551">
        <ele>1349.1</ele>
        <time>2018-11-26T04:28:17Z</time>
      </trkpt>
      <trkpt lat="42.41512" lon="2.70551">
        <ele>1348.9</ele>
        <time>2018-11-26T04:28:17Z</time>
      </trkpt>
      <trkpt lat="42.41512" lon="2.70551">
        <ele>1348.9</ele>
        <time>2018-11-26T04:28:17Z</time>
      </trkpt>
      <trkpt lat="42.41512" lon="2.70551">
        <ele>1349.1</ele>
        <time>2018-11-26T04:28:17Z</time>
      </trkpt>
      <trkpt lat="42.41512" lon="2.70551">
        <ele>1349.1</ele>
        <time>2018-11-26T04:28:17Z</time>
      </trkpt>
      <trkpt lat="42.41512" lon="2.70551">
        <ele>1349.3</ele>
        <time>2018-11-26T04:28:17Z</time>
      </trkpt>
      <trkpt lat="42.41512" lon="2.70551">
        <ele>1349.1</ele>
        <time>2018-11-26T04:28:17Z</time>
      </trkpt>
      <trkpt lat="42.41512" lon="2.70551">
        <ele>1348.8</ele>
        <time>2018-11-26T04:28:17Z</time>
      </trkpt>
      <trkpt lat="42.41512" lon="2.70552">
        <ele>1348.4</ele>
        <time>2018-11-26T04:28:17Z</time>
      </trkpt>
      <trkpt lat="42.41512" lon="2.70552">
        <ele>1348.6</ele>
        <time>2018-11-26T04:28:17Z</time>
      </trkpt>
      <trkpt lat="42.41512" lon="2.70552">
        <ele>1348.9</ele>
        <time>2018-11-26T04:28:17Z</time>
      </trkpt>
      <trkpt lat="42.41512" lon="2.70552">
        <ele>1349.2</ele>
        <time>2018-11-26T04:28:17Z</time>
      </trkpt>
      <trkpt lat="42.41512" lon="2.70551">
        <ele>1349.5</ele>
        <time>2018-11-26T04:28:17Z</time>
      </trkpt>
      <trkpt lat="42.41512" lon="2.70551">
        <ele>1349.4</ele>
        <time>2018-11-26T04:28:17Z</time>
      </trkpt>
      <trkpt lat="42.41512" lon="2.70552">
        <ele>1349</ele>
        <time>2018-11-26T04:28:18Z</time>
      </trkpt>
      <trkpt lat="42.41512" lon="2.70552">
        <ele>1348.5</ele>
        <time>2018-11-26T04:28:18Z</time>
      </trkpt>
      <trkpt lat="42.41512" lon="2.70552">
        <ele>1348.5</ele>
        <time>2018-11-26T04:28:18Z</time>
      </trkpt>
      <trkpt lat="42.41512" lon="2.70552">
        <ele>1348.5</ele>
        <time>2018-11-26T04:28:18Z</time>
      </trkpt>
      <trkpt lat="42.41512" lon="2.70552">
        <ele>1348.6</ele>
        <time>2018-11-26T04:28:18Z</time>
      </trkpt>
      <trkpt lat="42.41512" lon="2.70552">
        <ele>1348.7</ele>
        <time>2018-11-26T04:28:18Z</time>
      </trkpt>
      <trkpt lat="42.41512" lon="2.70552">
        <ele>1348.9</ele>
        <time>2018-11-26T04:28:18Z</time>
      </trkpt>
      <trkpt lat="42.41512" lon="2.70552">
        <ele>1349.2</ele>
        <time>2018-11-26T04:28:18Z</time>
      </trkpt>
      <trkpt lat="42.41512" lon="2.70552">
        <ele>1349.3</ele>
        <time>2018-11-26T04:28:18Z</time>
      </trkpt>
      <trkpt lat="42.41512" lon="2.70552">
        <ele>1349.1</ele>
        <time>2018-11-26T04:28:18Z</time>
      </trkpt>
      <trkpt lat="42.41512" lon="2.70552">
        <ele>1349.1</ele>
        <time>2018-11-26T04:28:18Z</time>
      </trkpt>
      <trkpt lat="42.41512" lon="2.70552">
        <ele>1349.1</ele>
        <time>2018-11-26T04:28:18Z</time>
      </trkpt>
      <trkpt lat="42.41512" lon="2.70552">
        <ele>1349.2</ele>
        <time>2018-11-26T04:28:18Z</time>
      </trkpt>
      <trkpt lat="42.41512" lon="2.70552">
        <ele>1349.4</ele>
        <time>2018-11-26T04:28:18Z</time>
      </trkpt>
      <trkpt lat="42.41512" lon="2.70553">
        <ele>1349.5</ele>
        <time>2018-11-26T04:28:18Z</time>
      </trkpt>
      <trkpt lat="42.41512" lon="2.70552">
        <ele>1349.5</ele>
        <time>2018-11-26T04:28:18Z</time>
      </trkpt>
      <trkpt lat="42.41512" lon="2.70552">
        <ele>1349.2</ele>
        <time>2018-11-26T04:28:18Z</time>
      </trkpt>
      <trkpt lat="42.41512" lon="2.70552">
        <ele>1349</ele>
        <time>2018-11-26T04:28:18Z</time>
      </trkpt>
      <trkpt lat="42.41512" lon="2.70552">
        <ele>1349.2</ele>
        <time>2018-11-26T04:28:18Z</time>
      </trkpt>
      <trkpt lat="42.41512" lon="2.70552">
        <ele>1349.1</ele>
        <time>2018-11-26T04:28:19Z</time>
      </trkpt>
      <trkpt lat="42.41513" lon="2.70551">
        <ele>1349.2</ele>
        <time>2018-11-26T04:28:19Z</time>
      </trkpt>
      <trkpt lat="42.41514" lon="2.7055">
        <ele>1349.2</ele>
        <time>2018-11-26T04:28:19Z</time>
      </trkpt>
      <trkpt lat="42.41514" lon="2.7055">
        <ele>1349.2</ele>
        <time>2018-11-26T04:28:20Z</time>
      </trkpt>
      <trkpt lat="42.41514" lon="2.7055">
        <ele>1349.4</ele>
        <time>2018-11-26T04:28:20Z</time>
      </trkpt>
      <trkpt lat="42.41514" lon="2.7055">
        <ele>1349.6</ele>
        <time>2018-11-26T04:28:20Z</time>
      </trkpt>
      <trkpt lat="42.41514" lon="2.7055">
        <ele>1350</ele>
        <time>2018-11-26T04:28:20Z</time>
      </trkpt>
      <trkpt lat="42.41514" lon="2.7055">
        <ele>1350.4</ele>
        <time>2018-11-26T04:28:20Z</time>
      </trkpt>
      <trkpt lat="42.41514" lon="2.7055">
        <ele>1350.4</ele>
        <time>2018-11-26T04:28:20Z</time>
      </trkpt>
      <trkpt lat="42.41514" lon="2.7055">
        <ele>1350.4</ele>
        <time>2018-11-26T04:28:20Z</time>
      </trkpt>
      <trkpt lat="42.41514" lon="2.7055">
        <ele>1350.4</ele>
        <time>2018-11-26T04:28:20Z</time>
      </trkpt>
      <trkpt lat="42.41514" lon="2.7055">
        <ele>1350.5</ele>
        <time>2018-11-26T04:28:20Z</time>
      </trkpt>
      <trkpt lat="42.41514" lon="2.7055">
        <ele>1350.5</ele>
        <time>2018-11-26T04:28:20Z</time>
      </trkpt>
      <trkpt lat="42.41514" lon="2.7055">
        <ele>1350.6</ele>
        <time>2018-11-26T04:28:20Z</time>
      </trkpt>
      <trkpt lat="42.41514" lon="2.7055">
        <ele>1350.9</ele>
        <time>2018-11-26T04:28:20Z</time>
      </trkpt>
      <trkpt lat="42.41514" lon="2.7055">
        <ele>1351</ele>
        <time>2018-11-26T04:28:20Z</time>
      </trkpt>
      <trkpt lat="42.41514" lon="2.7055">
        <ele>1351.4</ele>
        <time>2018-11-26T04:28:20Z</time>
      </trkpt>
      <trkpt lat="42.41514" lon="2.7055">
        <ele>1351.4</ele>
        <time>2018-11-26T04:28:20Z</time>
      </trkpt>
      <trkpt lat="42.41514" lon="2.7055">
        <ele>1351.3</ele>
        <time>2018-11-26T04:28:20Z</time>
      </trkpt>
      <trkpt lat="42.41514" lon="2.7055">
        <ele>1351.2</ele>
        <time>2018-11-26T04:28:20Z</time>
      </trkpt>
      <trkpt lat="42.41514" lon="2.7055">
        <ele>1351.1</ele>
        <time>2018-11-26T04:28:20Z</time>
      </trkpt>
      <trkpt lat="42.41514" lon="2.7055">
        <ele>1350.8</ele>
        <time>2018-11-26T04:28:20Z</time>
      </trkpt>
      <trkpt lat="42.41513" lon="2.7055">
        <ele>1350.4</ele>
        <time>2018-11-26T04:28:20Z</time>
      </trkpt>
      <trkpt lat="42.41514" lon="2.7055">
        <ele>1350.4</ele>
        <time>2018-11-26T04:28:20Z</time>
      </trkpt>
      <trkpt lat="42.41514" lon="2.7055">
        <ele>1350.3</ele>
        <time>2018-11-26T04:28:20Z</time>
      </trkpt>
      <trkpt lat="42.41513" lon="2.7055">
        <ele>1350.3</ele>
        <time>2018-11-26T04:28:20Z</time>
      </trkpt>
      <trkpt lat="42.41514" lon="2.7055">
        <ele>1350.3</ele>
        <time>2018-11-26T04:28:20Z</time>
      </trkpt>
      <trkpt lat="42.41514" lon="2.7055">
        <ele>1350.4</ele>
        <time>2018-11-26T04:28:20Z</time>
      </trkpt>
      <trkpt lat="42.41514" lon="2.7055">
        <ele>1350.5</ele>
        <time>2018-11-26T04:28:20Z</time>
      </trkpt>
      <trkpt lat="42.41513" lon="2.7055">
        <ele>1350.6</ele>
        <time>2018-11-26T04:28:21Z</time>
      </trkpt>
      <trkpt lat="42.41513" lon="2.7055">
        <ele>1350.8</ele>
        <time>2018-11-26T04:28:21Z</time>
      </trkpt>
      <trkpt lat="42.41513" lon="2.7055">
        <ele>1351</ele>
        <time>2018-11-26T04:28:21Z</time>
      </trkpt>
      <trkpt lat="42.41513" lon="2.7055">
        <ele>1351</ele>
        <time>2018-11-26T04:28:21Z</time>
      </trkpt>
      <trkpt lat="42.41513" lon="2.7055">
        <ele>1350.9</ele>
        <time>2018-11-26T04:28:21Z</time>
      </trkpt>
      <trkpt lat="42.41513" lon="2.7055">
        <ele>1350.8</ele>
        <time>2018-11-26T04:28:21Z</time>
      </trkpt>
      <trkpt lat="42.41513" lon="2.7055">
        <ele>1350.7</ele>
        <time>2018-11-26T04:28:21Z</time>
      </trkpt>
      <trkpt lat="42.41513" lon="2.7055">
        <ele>1350.3</ele>
        <time>2018-11-26T04:28:21Z</time>
      </trkpt>
      <trkpt lat="42.41513" lon="2.7055">
        <ele>1350.1</ele>
        <time>2018-11-26T04:28:21Z</time>
      </trkpt>
      <trkpt lat="42.41513" lon="2.7055">
        <ele>1349.6</ele>
        <time>2018-11-26T04:28:21Z</time>
      </trkpt>
      <trkpt lat="42.41513" lon="2.7055">
        <ele>1349.5</ele>
        <time>2018-11-26T04:28:21Z</time>
      </trkpt>
      <trkpt lat="42.41514" lon="2.70549">
        <ele>1349.4</ele>
        <time>2018-11-26T04:28:21Z</time>
      </trkpt>
      <trkpt lat="42.41514" lon="2.70549">
        <ele>1349.4</ele>
        <time>2018-11-26T04:28:21Z</time>
      </trkpt>
      <trkpt lat="42.41514" lon="2.7055">
        <ele>1349.2</ele>
        <time>2018-11-26T04:28:21Z</time>
      </trkpt>
      <trkpt lat="42.41514" lon="2.7055">
        <ele>1349.2</ele>
        <time>2018-11-26T04:28:21Z</time>
      </trkpt>
      <trkpt lat="42.41513" lon="2.7055">
        <ele>1349.3</ele>
        <time>2018-11-26T04:28:21Z</time>
      </trkpt>
      <trkpt lat="42.41513" lon="2.70549">
        <ele>1349.3</ele>
        <time>2018-11-26T04:28:21Z</time>
      </trkpt>
      <trkpt lat="42.41513" lon="2.70549">
        <ele>1349.4</ele>
        <time>2018-11-26T04:28:21Z</time>
      </trkpt>
      <trkpt lat="42.41513" lon="2.70549">
        <ele>1349.7</ele>
        <time>2018-11-26T04:28:21Z</time>
      </trkpt>
      <trkpt lat="42.41513" lon="2.70549">
        <ele>1349.9</ele>
        <time>2018-11-26T04:28:21Z</time>
      </trkpt>
      <trkpt lat="42.41513" lon="2.70549">
        <ele>1350</ele>
        <time>2018-11-26T04:28:21Z</time>
      </trkpt>
      <trkpt lat="42.41513" lon="2.70549">
        <ele>1350.2</ele>
        <time>2018-11-26T04:28:22Z</time>
      </trkpt>
      <trkpt lat="42.41513" lon="2.70549">
        <ele>1350.4</ele>
        <time>2018-11-26T04:28:22Z</time>
      </trkpt>
      <trkpt lat="42.41513" lon="2.70549">
        <ele>1350.4</ele>
        <time>2018-11-26T04:28:22Z</time>
      </trkpt>
      <trkpt lat="42.41513" lon="2.70549">
        <ele>1350.5</ele>
        <time>2018-11-26T04:28:22Z</time>
      </trkpt>
      <trkpt lat="42.41513" lon="2.70549">
        <ele>1350.4</ele>
        <time>2018-11-26T04:28:22Z</time>
      </trkpt>
      <trkpt lat="42.41513" lon="2.70549">
        <ele>1350.3</ele>
        <time>2018-11-26T04:28:22Z</time>
      </trkpt>
      <trkpt lat="42.41513" lon="2.70549">
        <ele>1349.9</ele>
        <time>2018-11-26T04:28:22Z</time>
      </trkpt>
      <trkpt lat="42.41513" lon="2.70549">
        <ele>1349.7</ele>
        <time>2018-11-26T04:28:22Z</time>
      </trkpt>
      <trkpt lat="42.41513" lon="2.70549">
        <ele>1349.6</ele>
        <time>2018-11-26T04:28:22Z</time>
      </trkpt>
      <trkpt lat="42.41513" lon="2.70549">
        <ele>1349.3</ele>
        <time>2018-11-26T04:28:22Z</time>
      </trkpt>
      <trkpt lat="42.41513" lon="2.70549">
        <ele>1349.1</ele>
        <time>2018-11-26T04:28:22Z</time>
      </trkpt>
      <trkpt lat="42.41513" lon="2.70549">
        <ele>1349.2</ele>
        <time>2018-11-26T04:28:22Z</time>
      </trkpt>
      <trkpt lat="42.41513" lon="2.70549">
        <ele>1349.3</ele>
        <time>2018-11-26T04:28:22Z</time>
      </trkpt>
      <trkpt lat="42.41513" lon="2.70549">
        <ele>1349.4</ele>
        <time>2018-11-26T04:28:22Z</time>
      </trkpt>
      <trkpt lat="42.41513" lon="2.70549">
        <ele>1349.6</ele>
        <time>2018-11-26T04:28:22Z</time>
      </trkpt>
      <trkpt lat="42.41513" lon="2.70549">
        <ele>1349.7</ele>
        <time>2018-11-26T04:28:22Z</time>
      </trkpt>
      <trkpt lat="42.41513" lon="2.70549">
        <ele>1350</ele>
        <time>2018-11-26T04:28:22Z</time>
      </trkpt>
      <trkpt lat="42.41513" lon="2.7055">
        <ele>1350</ele>
        <time>2018-11-26T04:28:22Z</time>
      </trkpt>
      <trkpt lat="42.41513" lon="2.7055">
        <ele>1349.9</ele>
        <time>2018-11-26T04:28:22Z</time>
      </trkpt>
      <trkpt lat="42.41513" lon="2.7055">
        <ele>1349.8</ele>
        <time>2018-11-26T04:28:22Z</time>
      </trkpt>
      <trkpt lat="42.41513" lon="2.7055">
        <ele>1350</ele>
        <time>2018-11-26T04:28:23Z</time>
      </trkpt>
      <trkpt lat="42.41513" lon="2.7055">
        <ele>1350.2</ele>
        <time>2018-11-26T04:28:23Z</time>
      </trkpt>
      <trkpt lat="42.41513" lon="2.7055">
        <ele>1350.4</ele>
        <time>2018-11-26T04:28:23Z</time>
      </trkpt>
      <trkpt lat="42.41513" lon="2.7055">
        <ele>1350.2</ele>
        <time>2018-11-26T04:28:23Z</time>
      </trkpt>
      <trkpt lat="42.41513" lon="2.70549">
        <ele>1350</ele>
        <time>2018-11-26T04:28:23Z</time>
      </trkpt>
      <trkpt lat="42.41514" lon="2.70549">
        <ele>1349.7</ele>
        <time>2018-11-26T04:28:23Z</time>
      </trkpt>
      <trkpt lat="42.41514" lon="2.70549">
        <ele>1349.3</ele>
        <time>2018-11-26T04:28:23Z</time>
      </trkpt>
      <trkpt lat="42.41513" lon="2.70549">
        <ele>1349.4</ele>
        <time>2018-11-26T04:28:23Z</time>
      </trkpt>
      <trkpt lat="42.41514" lon="2.70549">
        <ele>1349.4</ele>
        <time>2018-11-26T04:28:23Z</time>
      </trkpt>
      <trkpt lat="42.41514" lon="2.70549">
        <ele>1349.5</ele>
        <time>2018-11-26T04:28:23Z</time>
      </trkpt>
      <trkpt lat="42.41514" lon="2.7055">
        <ele>1349.6</ele>
        <time>2018-11-26T04:28:24Z</time>
      </trkpt>
      <trkpt lat="42.41513" lon="2.7055">
        <ele>1349.9</ele>
        <time>2018-11-26T04:28:24Z</time>
      </trkpt>
      <trkpt lat="42.41513" lon="2.7055">
        <ele>1350</ele>
        <time>2018-11-26T04:28:24Z</time>
      </trkpt>
      <trkpt lat="42.41514" lon="2.7055">
        <ele>1350</ele>
        <time>2018-11-26T04:28:24Z</time>
      </trkpt>
      <trkpt lat="42.41514" lon="2.7055">
        <ele>1349.9</ele>
        <time>2018-11-26T04:28:24Z</time>
      </trkpt>
      <trkpt lat="42.41514" lon="2.7055">
        <ele>1349.9</ele>
        <time>2018-11-26T04:28:24Z</time>
      </trkpt>
      <trkpt lat="42.41514" lon="2.7055">
        <ele>1349.9</ele>
        <time>2018-11-26T04:28:24Z</time>
      </trkpt>
      <trkpt lat="42.41514" lon="2.7055">
        <ele>1350.2</ele>
        <time>2018-11-26T04:28:24Z</time>
      </trkpt>
      <trkpt lat="42.41514" lon="2.7055">
        <ele>1350.3</ele>
        <time>2018-11-26T04:28:24Z</time>
      </trkpt>
      <trkpt lat="42.41514" lon="2.7055">
        <ele>1350.2</ele>
        <time>2018-11-26T04:28:24Z</time>
      </trkpt>
      <trkpt lat="42.41514" lon="2.7055">
        <ele>1350</ele>
        <time>2018-11-26T04:28:24Z</time>
      </trkpt>
      <trkpt lat="42.41514" lon="2.7055">
        <ele>1349.7</ele>
        <time>2018-11-26T04:28:24Z</time>
      </trkpt>
      <trkpt lat="42.41514" lon="2.7055">
        <ele>1349.3</ele>
        <time>2018-11-26T04:28:24Z</time>
      </trkpt>
      <trkpt lat="42.41514" lon="2.7055">
        <ele>1349.4</ele>
        <time>2018-11-26T04:28:24Z</time>
      </trkpt>
      <trkpt lat="42.41514" lon="2.7055">
        <ele>1349.6</ele>
        <time>2018-11-26T04:28:24Z</time>
      </trkpt>
      <trkpt lat="42.41514" lon="2.7055">
        <ele>1349.7</ele>
        <time>2018-11-26T04:28:24Z</time>
      </trkpt>
      <trkpt lat="42.41514" lon="2.7055">
        <ele>1349.5</ele>
        <time>2018-11-26T04:28:24Z</time>
      </trkpt>
      <trkpt lat="42.41514" lon="2.7055">
        <ele>1349.3</ele>
        <time>2018-11-26T04:28:24Z</time>
      </trkpt>
      <trkpt lat="42.41514" lon="2.7055">
        <ele>1348.9</ele>
        <time>2018-11-26T04:28:24Z</time>
      </trkpt>
      <trkpt lat="42.41514" lon="2.7055">
        <ele>1349.1</ele>
        <time>2018-11-26T04:28:24Z</time>
      </trkpt>
      <trkpt lat="42.41514" lon="2.7055">
        <ele>1349.3</ele>
        <time>2018-11-26T04:28:24Z</time>
      </trkpt>
      <trkpt lat="42.41514" lon="2.7055">
        <ele>1349.5</ele>
        <time>2018-11-26T04:28:24Z</time>
      </trkpt>
      <trkpt lat="42.41514" lon="2.7055">
        <ele>1349.3</ele>
        <time>2018-11-26T04:28:24Z</time>
      </trkpt>
      <trkpt lat="42.41514" lon="2.7055">
        <ele>1349.1</ele>
        <time>2018-11-26T04:28:24Z</time>
      </trkpt>
      <trkpt lat="42.41514" lon="2.7055">
        <ele>1348.8</ele>
        <time>2018-11-26T04:28:24Z</time>
      </trkpt>
      <trkpt lat="42.41514" lon="2.7055">
        <ele>1349</ele>
        <time>2018-11-26T04:28:24Z</time>
      </trkpt>
      <trkpt lat="42.41514" lon="2.7055">
        <ele>1349.1</ele>
        <time>2018-11-26T04:28:24Z</time>
      </trkpt>
      <trkpt lat="42.41514" lon="2.7055">
        <ele>1349.3</ele>
        <time>2018-11-26T04:28:24Z</time>
      </trkpt>
      <trkpt lat="42.41514" lon="2.70551">
        <ele>1349.4</ele>
        <time>2018-11-26T04:28:24Z</time>
      </trkpt>
      <trkpt lat="42.41514" lon="2.70551">
        <ele>1349.5</ele>
        <time>2018-11-26T04:28:24Z</time>
      </trkpt>
      <trkpt lat="42.41514" lon="2.70551">
        <ele>1349.6</ele>
        <time>2018-11-26T04:28:24Z</time>
      </trkpt>
      <trkpt lat="42.41514" lon="2.70551">
        <ele>1349.8</ele>
        <time>2018-11-26T04:28:24Z</time>
      </trkpt>
      <trkpt lat="42.41514" lon="2.70551">
        <ele>1349.6</ele>
        <time>2018-11-26T04:28:24Z</time>
      </trkpt>
      <trkpt lat="42.41514" lon="2.70551">
        <ele>1349.5</ele>
        <time>2018-11-26T04:28:24Z</time>
      </trkpt>
      <trkpt lat="42.41514" lon="2.70551">
        <ele>1349.4</ele>
        <time>2018-11-26T04:28:24Z</time>
      </trkpt>
      <trkpt lat="42.41514" lon="2.70551">
        <ele>1349.4</ele>
        <time>2018-11-26T04:28:24Z</time>
      </trkpt>
      <trkpt lat="42.41514" lon="2.70551">
        <ele>1349.5</ele>
        <time>2018-11-26T04:28:24Z</time>
      </trkpt>
      <trkpt lat="42.41514" lon="2.70551">
        <ele>1349.8</ele>
        <time>2018-11-26T04:28:24Z</time>
      </trkpt>
      <trkpt lat="42.41514" lon="2.70551">
        <ele>1349.6</ele>
        <time>2018-11-26T04:28:24Z</time>
      </trkpt>
      <trkpt lat="42.41514" lon="2.70551">
        <ele>1349.5</ele>
        <time>2018-11-26T04:28:24Z</time>
      </trkpt>
      <trkpt lat="42.41514" lon="2.70551">
        <ele>1349.2</ele>
        <time>2018-11-26T04:28:24Z</time>
      </trkpt>
      <trkpt lat="42.41514" lon="2.70551">
        <ele>1349.2</ele>
        <time>2018-11-26T04:28:24Z</time>
      </trkpt>
      <trkpt lat="42.41514" lon="2.70551">
        <ele>1349.1</ele>
        <time>2018-11-26T04:28:24Z</time>
      </trkpt>
      <trkpt lat="42.41514" lon="2.70551">
        <ele>1349</ele>
        <time>2018-11-26T04:28:24Z</time>
      </trkpt>
      <trkpt lat="42.41514" lon="2.70551">
        <ele>1348.8</ele>
        <time>2018-11-26T04:28:24Z</time>
      </trkpt>
      <trkpt lat="42.41514" lon="2.70551">
        <ele>1349.1</ele>
        <time>2018-11-26T04:28:24Z</time>
      </trkpt>
      <trkpt lat="42.41514" lon="2.70551">
        <ele>1349.3</ele>
        <time>2018-11-26T04:28:24Z</time>
      </trkpt>
      <trkpt lat="42.41514" lon="2.70551">
        <ele>1349.6</ele>
        <time>2018-11-26T04:28:24Z</time>
      </trkpt>
      <trkpt lat="42.41514" lon="2.70551">
        <ele>1349.7</ele>
        <time>2018-11-26T04:28:24Z</time>
      </trkpt>
      <trkpt lat="42.41514" lon="2.70551">
        <ele>1349.6</ele>
        <time>2018-11-26T04:28:24Z</time>
      </trkpt>
      <trkpt lat="42.41514" lon="2.70551">
        <ele>1349.5</ele>
        <time>2018-11-26T04:28:24Z</time>
      </trkpt>
      <trkpt lat="42.41514" lon="2.70551">
        <ele>1349.5</ele>
        <time>2018-11-26T04:28:24Z</time>
      </trkpt>
      <trkpt lat="42.41514" lon="2.70551">
        <ele>1349.5</ele>
        <time>2018-11-26T04:28:24Z</time>
      </trkpt>
      <trkpt lat="42.41514" lon="2.70551">
        <ele>1349.5</ele>
        <time>2018-11-26T04:28:24Z</time>
      </trkpt>
      <trkpt lat="42.41514" lon="2.70551">
        <ele>1349.3</ele>
        <time>2018-11-26T04:28:24Z</time>
      </trkpt>
      <trkpt lat="42.41514" lon="2.70551">
        <ele>1349.1</ele>
        <time>2018-11-26T04:28:24Z</time>
      </trkpt>
      <trkpt lat="42.41514" lon="2.70551">
        <ele>1348.6</ele>
        <time>2018-11-26T04:28:24Z</time>
      </trkpt>
      <trkpt lat="42.41514" lon="2.70551">
        <ele>1348.8</ele>
        <time>2018-11-26T04:28:24Z</time>
      </trkpt>
      <trkpt lat="42.41514" lon="2.70551">
        <ele>1348.9</ele>
        <time>2018-11-26T04:28:24Z</time>
      </trkpt>
      <trkpt lat="42.41514" lon="2.70551">
        <ele>1349</ele>
        <time>2018-11-26T04:28:24Z</time>
      </trkpt>
      <trkpt lat="42.41514" lon="2.70551">
        <ele>1349.2</ele>
        <time>2018-11-26T04:28:25Z</time>
      </trkpt>
      <trkpt lat="42.41514" lon="2.70551">
        <ele>1349.2</ele>
        <time>2018-11-26T04:28:25Z</time>
      </trkpt>
      <trkpt lat="42.41514" lon="2.70551">
        <ele>1349.4</ele>
        <time>2018-11-26T04:28:25Z</time>
      </trkpt>
      <trkpt lat="42.41514" lon="2.70551">
        <ele>1349.7</ele>
        <time>2018-11-26T04:28:25Z</time>
      </trkpt>
      <trkpt lat="42.41514" lon="2.70551">
        <ele>1349.8</ele>
        <time>2018-11-26T04:28:25Z</time>
      </trkpt>
      <trkpt lat="42.41514" lon="2.70551">
        <ele>1349.8</ele>
        <time>2018-11-26T04:28:25Z</time>
      </trkpt>
      <trkpt lat="42.41514" lon="2.70551">
        <ele>1350</ele>
        <time>2018-11-26T04:28:25Z</time>
      </trkpt>
      <trkpt lat="42.41514" lon="2.70551">
        <ele>1350.2</ele>
        <time>2018-11-26T04:28:25Z</time>
      </trkpt>
      <trkpt lat="42.41514" lon="2.70551">
        <ele>1350.2</ele>
        <time>2018-11-26T04:28:25Z</time>
      </trkpt>
      <trkpt lat="42.41514" lon="2.70551">
        <ele>1350.4</ele>
        <time>2018-11-26T04:28:25Z</time>
      </trkpt>
      <trkpt lat="42.41514" lon="2.70551">
        <ele>1350.4</ele>
        <time>2018-11-26T04:28:25Z</time>
      </trkpt>
      <trkpt lat="42.41514" lon="2.70551">
        <ele>1350.4</ele>
        <time>2018-11-26T04:28:25Z</time>
      </trkpt>
      <trkpt lat="42.41514" lon="2.70551">
        <ele>1350.4</ele>
        <time>2018-11-26T04:28:25Z</time>
      </trkpt>
      <trkpt lat="42.41514" lon="2.70551">
        <ele>1350.3</ele>
        <time>2018-11-26T04:28:25Z</time>
      </trkpt>
      <trkpt lat="42.41514" lon="2.70552">
        <ele>1350.4</ele>
        <time>2018-11-26T04:28:25Z</time>
      </trkpt>
      <trkpt lat="42.41514" lon="2.70552">
        <ele>1350.3</ele>
        <time>2018-11-26T04:28:25Z</time>
      </trkpt>
      <trkpt lat="42.41514" lon="2.70552">
        <ele>1350.4</ele>
        <time>2018-11-26T04:28:25Z</time>
      </trkpt>
      <trkpt lat="42.41514" lon="2.70552">
        <ele>1350.3</ele>
        <time>2018-11-26T04:28:25Z</time>
      </trkpt>
      <trkpt lat="42.41514" lon="2.70551">
        <ele>1350.3</ele>
        <time>2018-11-26T04:28:25Z</time>
      </trkpt>
      <trkpt lat="42.41514" lon="2.70551">
        <ele>1350.2</ele>
        <time>2018-11-26T04:28:25Z</time>
      </trkpt>
      <trkpt lat="42.41514" lon="2.70551">
        <ele>1350</ele>
        <time>2018-11-26T04:28:25Z</time>
      </trkpt>
      <trkpt lat="42.41514" lon="2.70551">
        <ele>1350</ele>
        <time>2018-11-26T04:28:25Z</time>
      </trkpt>
      <trkpt lat="42.41514" lon="2.70551">
        <ele>1349.9</ele>
        <time>2018-11-26T04:28:25Z</time>
      </trkpt>
      <trkpt lat="42.41514" lon="2.70551">
        <ele>1350</ele>
        <time>2018-11-26T04:28:25Z</time>
      </trkpt>
      <trkpt lat="42.41514" lon="2.70551">
        <ele>1350.3</ele>
        <time>2018-11-26T04:28:25Z</time>
      </trkpt>
      <trkpt lat="42.41514" lon="2.70551">
        <ele>1350.5</ele>
        <time>2018-11-26T04:28:25Z</time>
      </trkpt>
      <trkpt lat="42.41514" lon="2.70551">
        <ele>1350.3</ele>
        <time>2018-11-26T04:28:25Z</time>
      </trkpt>
      <trkpt lat="42.41514" lon="2.70551">
        <ele>1350.2</ele>
        <time>2018-11-26T04:28:25Z</time>
      </trkpt>
      <trkpt lat="42.41514" lon="2.70551">
        <ele>1350.1</ele>
        <time>2018-11-26T04:28:25Z</time>
      </trkpt>
      <trkpt lat="42.41514" lon="2.70551">
        <ele>1350.2</ele>
        <time>2018-11-26T04:28:25Z</time>
      </trkpt>
      <trkpt lat="42.41514" lon="2.70551">
        <ele>1350.1</ele>
        <time>2018-11-26T04:28:25Z</time>
      </trkpt>
      <trkpt lat="42.41514" lon="2.70551">
        <ele>1350.3</ele>
        <time>2018-11-26T04:28:25Z</time>
      </trkpt>
      <trkpt lat="42.41514" lon="2.70551">
        <ele>1350.1</ele>
        <time>2018-11-26T04:28:25Z</time>
      </trkpt>
      <trkpt lat="42.41514" lon="2.70551">
        <ele>1350.1</ele>
        <time>2018-11-26T04:28:25Z</time>
      </trkpt>
      <trkpt lat="42.41514" lon="2.70551">
        <ele>1350.1</ele>
        <time>2018-11-26T04:28:25Z</time>
      </trkpt>
      <trkpt lat="42.41514" lon="2.70551">
        <ele>1350</ele>
        <time>2018-11-26T04:28:25Z</time>
      </trkpt>
      <trkpt lat="42.41514" lon="2.70551">
        <ele>1350.3</ele>
        <time>2018-11-26T04:28:25Z</time>
      </trkpt>
      <trkpt lat="42.41514" lon="2.70551">
        <ele>1350.5</ele>
        <time>2018-11-26T04:28:25Z</time>
      </trkpt>
      <trkpt lat="42.41514" lon="2.70551">
        <ele>1351</ele>
        <time>2018-11-26T04:28:25Z</time>
      </trkpt>
      <trkpt lat="42.41514" lon="2.70551">
        <ele>1350.8</ele>
        <time>2018-11-26T04:28:25Z</time>
      </trkpt>
      <trkpt lat="42.41514" lon="2.70551">
        <ele>1350.5</ele>
        <time>2018-11-26T04:28:25Z</time>
      </trkpt>
      <trkpt lat="42.41514" lon="2.70551">
        <ele>1350.3</ele>
        <time>2018-11-26T04:28:25Z</time>
      </trkpt>
      <trkpt lat="42.41514" lon="2.70551">
        <ele>1350</ele>
        <time>2018-11-26T04:28:25Z</time>
      </trkpt>
      <trkpt lat="42.41514" lon="2.70551">
        <ele>1349.8</ele>
        <time>2018-11-26T04:28:25Z</time>
      </trkpt>
      <trkpt lat="42.41514" lon="2.70551">
        <ele>1349.6</ele>
        <time>2018-11-26T04:28:25Z</time>
      </trkpt>
      <trkpt lat="42.41514" lon="2.70551">
        <ele>1349.5</ele>
        <time>2018-11-26T04:28:25Z</time>
      </trkpt>
      <trkpt lat="42.41514" lon="2.7055">
        <ele>1349.5</ele>
        <time>2018-11-26T04:28:25Z</time>
      </trkpt>
      <trkpt lat="42.41514" lon="2.70551">
        <ele>1349.4</ele>
        <time>2018-11-26T04:28:25Z</time>
      </trkpt>
      <trkpt lat="42.41514" lon="2.70551">
        <ele>1349.3</ele>
        <time>2018-11-26T04:28:25Z</time>
      </trkpt>
      <trkpt lat="42.41514" lon="2.70551">
        <ele>1349.3</ele>
        <time>2018-11-26T04:28:25Z</time>
      </trkpt>
      <trkpt lat="42.41514" lon="2.7055">
        <ele>1349.3</ele>
        <time>2018-11-26T04:28:25Z</time>
      </trkpt>
      <trkpt lat="42.41514" lon="2.7055">
        <ele>1349.2</ele>
        <time>2018-11-26T04:28:25Z</time>
      </trkpt>
      <trkpt lat="42.41514" lon="2.7055">
        <ele>1349.3</ele>
        <time>2018-11-26T04:28:26Z</time>
      </trkpt>
      <trkpt lat="42.41514" lon="2.7055">
        <ele>1349.4</ele>
        <time>2018-11-26T04:28:26Z</time>
      </trkpt>
      <trkpt lat="42.41514" lon="2.7055">
        <ele>1349.5</ele>
        <time>2018-11-26T04:28:26Z</time>
      </trkpt>
      <trkpt lat="42.41514" lon="2.7055">
        <ele>1349.7</ele>
        <time>2018-11-26T04:28:26Z</time>
      </trkpt>
      <trkpt lat="42.41514" lon="2.7055">
        <ele>1349.7</ele>
        <time>2018-11-26T04:28:26Z</time>
      </trkpt>
      <trkpt lat="42.41514" lon="2.7055">
        <ele>1349.7</ele>
        <time>2018-11-26T04:28:26Z</time>
      </trkpt>
      <trkpt lat="42.41514" lon="2.7055">
        <ele>1349.9</ele>
        <time>2018-11-26T04:28:26Z</time>
      </trkpt>
      <trkpt lat="42.41514" lon="2.7055">
        <ele>1349.9</ele>
        <time>2018-11-26T04:28:26Z</time>
      </trkpt>
      <trkpt lat="42.41514" lon="2.7055">
        <ele>1349.8</ele>
        <time>2018-11-26T04:28:26Z</time>
      </trkpt>
      <trkpt lat="42.41514" lon="2.7055">
        <ele>1349.8</ele>
        <time>2018-11-26T04:28:26Z</time>
      </trkpt>
      <trkpt lat="42.41514" lon="2.7055">
        <ele>1349.8</ele>
        <time>2018-11-26T04:28:26Z</time>
      </trkpt>
      <trkpt lat="42.41514" lon="2.7055">
        <ele>1349.9</ele>
        <time>2018-11-26T04:28:26Z</time>
      </trkpt>
      <trkpt lat="42.41514" lon="2.7055">
        <ele>1350.1</ele>
        <time>2018-11-26T04:28:26Z</time>
      </trkpt>
      <trkpt lat="42.41515" lon="2.7055">
        <ele>1349.9</ele>
        <time>2018-11-26T04:28:26Z</time>
      </trkpt>
      <trkpt lat="42.41515" lon="2.7055">
        <ele>1349.7</ele>
        <time>2018-11-26T04:28:26Z</time>
      </trkpt>
      <trkpt lat="42.41514" lon="2.7055">
        <ele>1349.4</ele>
        <time>2018-11-26T04:28:26Z</time>
      </trkpt>
      <trkpt lat="42.41514" lon="2.7055">
        <ele>1349.3</ele>
        <time>2018-11-26T04:28:26Z</time>
      </trkpt>
      <trkpt lat="42.41515" lon="2.7055">
        <ele>1349.5</ele>
        <time>2018-11-26T04:28:26Z</time>
      </trkpt>
      <trkpt lat="42.41515" lon="2.7055">
        <ele>1349.5</ele>
        <time>2018-11-26T04:28:26Z</time>
      </trkpt>
      <trkpt lat="42.41515" lon="2.7055">
        <ele>1349.5</ele>
        <time>2018-11-26T04:28:26Z</time>
      </trkpt>
      <trkpt lat="42.41516" lon="2.7055">
        <ele>1349.7</ele>
        <time>2018-11-26T04:28:27Z</time>
      </trkpt>
      <trkpt lat="42.41517" lon="2.7055">
        <ele>1349.8</ele>
        <time>2018-11-26T04:28:27Z</time>
      </trkpt>
      <trkpt lat="42.41517" lon="2.7055">
        <ele>1350.1</ele>
        <time>2018-11-26T04:28:27Z</time>
      </trkpt>
      <trkpt lat="42.41519" lon="2.70551">
        <ele>1349.7</ele>
        <time>2018-11-26T04:28:28Z</time>
      </trkpt>
      <trkpt lat="42.4152" lon="2.70551">
        <ele>1349.2</ele>
        <time>2018-11-26T04:28:28Z</time>
      </trkpt>
      <trkpt lat="42.41522" lon="2.70552">
        <ele>1349.7</ele>
        <time>2018-11-26T04:28:29Z</time>
      </trkpt>
      <trkpt lat="42.41523" lon="2.70552">
        <ele>1350.1</ele>
        <time>2018-11-26T04:28:29Z</time>
      </trkpt>
      <trkpt lat="42.41524" lon="2.70552">
        <ele>1350.2</ele>
        <time>2018-11-26T04:28:30Z</time>
      </trkpt>
      <trkpt lat="42.41525" lon="2.70553">
        <ele>1350.3</ele>
        <time>2018-11-26T04:28:30Z</time>
      </trkpt>
      <trkpt lat="42.41526" lon="2.70554">
        <ele>1350.5</ele>
        <time>2018-11-26T04:28:31Z</time>
      </trkpt>
      <trkpt lat="42.41527" lon="2.70554">
        <ele>1350.4</ele>
        <time>2018-11-26T04:28:31Z</time>
      </trkpt>
      <trkpt lat="42.41528" lon="2.70555">
        <ele>1350.3</ele>
        <time>2018-11-26T04:28:32Z</time>
      </trkpt>
      <trkpt lat="42.41528" lon="2.70554">
        <ele>1350.3</ele>
        <time>2018-11-26T04:28:32Z</time>
      </trkpt>
      <trkpt lat="42.41528" lon="2.70555">
        <ele>1350.2</ele>
        <time>2018-11-26T04:28:32Z</time>
      </trkpt>
      <trkpt lat="42.41528" lon="2.70555">
        <ele>1350.1</ele>
        <time>2018-11-26T04:28:32Z</time>
      </trkpt>
      <trkpt lat="42.41529" lon="2.70555">
        <ele>1349.9</ele>
        <time>2018-11-26T04:28:32Z</time>
      </trkpt>
      <trkpt lat="42.41529" lon="2.70555">
        <ele>1349.9</ele>
        <time>2018-11-26T04:28:32Z</time>
      </trkpt>
      <trkpt lat="42.41531" lon="2.70556">
        <ele>1349.9</ele>
        <time>2018-11-26T04:28:33Z</time>
      </trkpt>
      <trkpt lat="42.41532" lon="2.70557">
        <ele>1349.5</ele>
        <time>2018-11-26T04:28:33Z</time>
      </trkpt>
      <trkpt lat="42.41533" lon="2.70557">
        <ele>1349.1</ele>
        <time>2018-11-26T04:28:34Z</time>
      </trkpt>
      <trkpt lat="42.41534" lon="2.70557">
        <ele>1348.3</ele>
        <time>2018-11-26T04:28:34Z</time>
      </trkpt>
      <trkpt lat="42.41535" lon="2.70557">
        <ele>1348.1</ele>
        <time>2018-11-26T04:28:35Z</time>
      </trkpt>
      <trkpt lat="42.41536" lon="2.70557">
        <ele>1348</ele>
        <time>2018-11-26T04:28:35Z</time>
      </trkpt>
      <trkpt lat="42.41537" lon="2.70557">
        <ele>1347.9</ele>
        <time>2018-11-26T04:28:36Z</time>
      </trkpt>
      <trkpt lat="42.41538" lon="2.70557">
        <ele>1347.8</ele>
        <time>2018-11-26T04:28:36Z</time>
      </trkpt>
      <trkpt lat="42.41539" lon="2.70557">
        <ele>1347.7</ele>
        <time>2018-11-26T04:28:36Z</time>
      </trkpt>
      <trkpt lat="42.41539" lon="2.70557">
        <ele>1347.7</ele>
        <time>2018-11-26T04:28:36Z</time>
      </trkpt>
      <trkpt lat="42.41539" lon="2.70557">
        <ele>1347.7</ele>
        <time>2018-11-26T04:28:36Z</time>
      </trkpt>
      <trkpt lat="42.41539" lon="2.70557">
        <ele>1347.6</ele>
        <time>2018-11-26T04:28:36Z</time>
      </trkpt>
      <trkpt lat="42.41539" lon="2.70557">
        <ele>1347.5</ele>
        <time>2018-11-26T04:28:36Z</time>
      </trkpt>
      <trkpt lat="42.41539" lon="2.70557">
        <ele>1347.4</ele>
        <time>2018-11-26T04:28:36Z</time>
      </trkpt>
      <trkpt lat="42.41539" lon="2.70557">
        <ele>1347.3</ele>
        <time>2018-11-26T04:28:36Z</time>
      </trkpt>
      <trkpt lat="42.41539" lon="2.70557">
        <ele>1347.2</ele>
        <time>2018-11-26T04:28:37Z</time>
      </trkpt>
      <trkpt lat="42.4154" lon="2.70557">
        <ele>1347.2</ele>
        <time>2018-11-26T04:28:37Z</time>
      </trkpt>
      <trkpt lat="42.41541" lon="2.70558">
        <ele>1347.2</ele>
        <time>2018-11-26T04:28:37Z</time>
      </trkpt>
      <trkpt lat="42.41543" lon="2.70559">
        <ele>1347.2</ele>
        <time>2018-11-26T04:28:38Z</time>
      </trkpt>
      <trkpt lat="42.41544" lon="2.7056">
        <ele>1347.4</ele>
        <time>2018-11-26T04:28:38Z</time>
      </trkpt>
      <trkpt lat="42.41544" lon="2.7056">
        <ele>1347.7</ele>
        <time>2018-11-26T04:28:39Z</time>
      </trkpt>
      <trkpt lat="42.41544" lon="2.7056">
        <ele>1347.4</ele>
        <time>2018-11-26T04:28:39Z</time>
      </trkpt>
      <trkpt lat="42.41544" lon="2.7056">
        <ele>1347.3</ele>
        <time>2018-11-26T04:28:39Z</time>
      </trkpt>
      <trkpt lat="42.41544" lon="2.7056">
        <ele>1347.1</ele>
        <time>2018-11-26T04:28:39Z</time>
      </trkpt>
      <trkpt lat="42.41544" lon="2.7056">
        <ele>1346.8</ele>
        <time>2018-11-26T04:28:39Z</time>
      </trkpt>
      <trkpt lat="42.41544" lon="2.7056">
        <ele>1346.6</ele>
        <time>2018-11-26T04:28:39Z</time>
      </trkpt>
      <trkpt lat="42.41544" lon="2.7056">
        <ele>1346.3</ele>
        <time>2018-11-26T04:28:39Z</time>
      </trkpt>
      <trkpt lat="42.41544" lon="2.7056">
        <ele>1346.3</ele>
        <time>2018-11-26T04:28:39Z</time>
      </trkpt>
      <trkpt lat="42.41544" lon="2.7056">
        <ele>1346.5</ele>
        <time>2018-11-26T04:28:39Z</time>
      </trkpt>
      <trkpt lat="42.41545" lon="2.7056">
        <ele>1346.8</ele>
        <time>2018-11-26T04:28:39Z</time>
      </trkpt>
      <trkpt lat="42.41545" lon="2.7056">
        <ele>1347.2</ele>
        <time>2018-11-26T04:28:39Z</time>
      </trkpt>
      <trkpt lat="42.41545" lon="2.7056">
        <ele>1347</ele>
        <time>2018-11-26T04:28:39Z</time>
      </trkpt>
      <trkpt lat="42.41545" lon="2.7056">
        <ele>1346.9</ele>
        <time>2018-11-26T04:28:39Z</time>
      </trkpt>
      <trkpt lat="42.41545" lon="2.7056">
        <ele>1346.8</ele>
        <time>2018-11-26T04:28:39Z</time>
      </trkpt>
      <trkpt lat="42.41545" lon="2.7056">
        <ele>1346.9</ele>
        <time>2018-11-26T04:28:39Z</time>
      </trkpt>
      <trkpt lat="42.41545" lon="2.7056">
        <ele>1347.2</ele>
        <time>2018-11-26T04:28:39Z</time>
      </trkpt>
      <trkpt lat="42.41545" lon="2.70561">
        <ele>1347.5</ele>
        <time>2018-11-26T04:28:39Z</time>
      </trkpt>
      <trkpt lat="42.41545" lon="2.70561">
        <ele>1347.1</ele>
        <time>2018-11-26T04:28:39Z</time>
      </trkpt>
      <trkpt lat="42.41545" lon="2.70561">
        <ele>1346.6</ele>
        <time>2018-11-26T04:28:39Z</time>
      </trkpt>
      <trkpt lat="42.41545" lon="2.70561">
        <ele>1346</ele>
        <time>2018-11-26T04:28:39Z</time>
      </trkpt>
      <trkpt lat="42.41545" lon="2.70561">
        <ele>1346</ele>
        <time>2018-11-26T04:28:40Z</time>
      </trkpt>
      <trkpt lat="42.41546" lon="2.70562">
        <ele>1346</ele>
        <time>2018-11-26T04:28:40Z</time>
      </trkpt>
      <trkpt lat="42.41546" lon="2.70562">
        <ele>1346</ele>
        <time>2018-11-26T04:28:40Z</time>
      </trkpt>
      <trkpt lat="42.41547" lon="2.70562">
        <ele>1345.9</ele>
        <time>2018-11-26T04:28:40Z</time>
      </trkpt>
      <trkpt lat="42.41547" lon="2.70562">
        <ele>1345.8</ele>
        <time>2018-11-26T04:28:41Z</time>
      </trkpt>
      <trkpt lat="42.41548" lon="2.70563">
        <ele>1345.8</ele>
        <time>2018-11-26T04:28:41Z</time>
      </trkpt>
      <trkpt lat="42.41548" lon="2.70563">
        <ele>1345.6</ele>
        <time>2018-11-26T04:28:41Z</time>
      </trkpt>
      <trkpt lat="42.41549" lon="2.70563">
        <ele>1345.5</ele>
        <time>2018-11-26T04:28:41Z</time>
      </trkpt>
      <trkpt lat="42.4155" lon="2.70563">
        <ele>1345.2</ele>
        <time>2018-11-26T04:28:42Z</time>
      </trkpt>
      <trkpt lat="42.41551" lon="2.70563">
        <ele>1345</ele>
        <time>2018-11-26T04:28:42Z</time>
      </trkpt>
      <trkpt lat="42.41551" lon="2.70563">
        <ele>1345.2</ele>
        <time>2018-11-26T04:28:42Z</time>
      </trkpt>
      <trkpt lat="42.41552" lon="2.70563">
        <ele>1345.3</ele>
        <time>2018-11-26T04:28:43Z</time>
      </trkpt>
      <trkpt lat="42.41553" lon="2.70563">
        <ele>1345.6</ele>
        <time>2018-11-26T04:28:43Z</time>
      </trkpt>
      <trkpt lat="42.41554" lon="2.70563">
        <ele>1345.4</ele>
        <time>2018-11-26T04:28:43Z</time>
      </trkpt>
      <trkpt lat="42.41554" lon="2.70562">
        <ele>1345.3</ele>
        <time>2018-11-26T04:28:44Z</time>
      </trkpt>
      <trkpt lat="42.41554" lon="2.70561">
        <ele>1345.1</ele>
        <time>2018-11-26T04:28:44Z</time>
      </trkpt>
      <trkpt lat="42.41554" lon="2.70561">
        <ele>1345.3</ele>
        <time>2018-11-26T04:28:44Z</time>
      </trkpt>
      <trkpt lat="42.41554" lon="2.70561">
        <ele>1345.2</ele>
        <time>2018-11-26T04:28:44Z</time>
      </trkpt>
      <trkpt lat="42.41554" lon="2.70561">
        <ele>1345.4</ele>
        <time>2018-11-26T04:28:44Z</time>
      </trkpt>
      <trkpt lat="42.41554" lon="2.70561">
        <ele>1345.2</ele>
        <time>2018-11-26T04:28:44Z</time>
      </trkpt>
      <trkpt lat="42.41554" lon="2.70561">
        <ele>1345</ele>
        <time>2018-11-26T04:28:44Z</time>
      </trkpt>
      <trkpt lat="42.41554" lon="2.70561">
        <ele>1344.8</ele>
        <time>2018-11-26T04:28:44Z</time>
      </trkpt>
      <trkpt lat="42.41554" lon="2.70561">
        <ele>1344.3</ele>
        <time>2018-11-26T04:28:44Z</time>
      </trkpt>
      <trkpt lat="42.41554" lon="2.70561">
        <ele>1344.2</ele>
        <time>2018-11-26T04:28:44Z</time>
      </trkpt>
      <trkpt lat="42.41554" lon="2.70561">
        <ele>1344.1</ele>
        <time>2018-11-26T04:28:44Z</time>
      </trkpt>
      <trkpt lat="42.41554" lon="2.70561">
        <ele>1343.9</ele>
        <time>2018-11-26T04:28:44Z</time>
      </trkpt>
      <trkpt lat="42.41554" lon="2.70561">
        <ele>1344</ele>
        <time>2018-11-26T04:28:44Z</time>
      </trkpt>
      <trkpt lat="42.41554" lon="2.70561">
        <ele>1344.1</ele>
        <time>2018-11-26T04:28:44Z</time>
      </trkpt>
      <trkpt lat="42.41554" lon="2.70561">
        <ele>1344.1</ele>
        <time>2018-11-26T04:28:44Z</time>
      </trkpt>
      <trkpt lat="42.41554" lon="2.70561">
        <ele>1344.3</ele>
        <time>2018-11-26T04:28:44Z</time>
      </trkpt>
      <trkpt lat="42.41554" lon="2.70561">
        <ele>1344.4</ele>
        <time>2018-11-26T04:28:45Z</time>
      </trkpt>
      <trkpt lat="42.41555" lon="2.70562">
        <ele>1344.5</ele>
        <time>2018-11-26T04:28:45Z</time>
      </trkpt>
      <trkpt lat="42.41555" lon="2.70563">
        <ele>1344.5</ele>
        <time>2018-11-26T04:28:45Z</time>
      </trkpt>
      <trkpt lat="42.41555" lon="2.70564">
        <ele>1344.4</ele>
        <time>2018-11-26T04:28:45Z</time>
      </trkpt>
      <trkpt lat="42.41555" lon="2.70564">
        <ele>1344.3</ele>
        <time>2018-11-26T04:28:45Z</time>
      </trkpt>
      <trkpt lat="42.41555" lon="2.70565">
        <ele>1344.2</ele>
        <time>2018-11-26T04:28:46Z</time>
      </trkpt>
      <trkpt lat="42.41556" lon="2.70565">
        <ele>1344</ele>
        <time>2018-11-26T04:28:46Z</time>
      </trkpt>
      <trkpt lat="42.41557" lon="2.70566">
        <ele>1343.8</ele>
        <time>2018-11-26T04:28:46Z</time>
      </trkpt>
      <trkpt lat="42.41558" lon="2.70566">
        <ele>1343.7</ele>
        <time>2018-11-26T04:28:47Z</time>
      </trkpt>
      <trkpt lat="42.41559" lon="2.70566">
        <ele>1344</ele>
        <time>2018-11-26T04:28:47Z</time>
      </trkpt>
      <trkpt lat="42.4156" lon="2.70567">
        <ele>1344</ele>
        <time>2018-11-26T04:28:47Z</time>
      </trkpt>
      <trkpt lat="42.4156" lon="2.70567">
        <ele>1343.9</ele>
        <time>2018-11-26T04:28:48Z</time>
      </trkpt>
      <trkpt lat="42.4156" lon="2.70569">
        <ele>1343.6</ele>
        <time>2018-11-26T04:28:48Z</time>
      </trkpt>
      <trkpt lat="42.4156" lon="2.7057">
        <ele>1343.3</ele>
        <time>2018-11-26T04:28:48Z</time>
      </trkpt>
      <trkpt lat="42.4156" lon="2.7057">
        <ele>1343.6</ele>
        <time>2018-11-26T04:28:49Z</time>
      </trkpt>
      <trkpt lat="42.4156" lon="2.70571">
        <ele>1343.9</ele>
        <time>2018-11-26T04:28:49Z</time>
      </trkpt>
      <trkpt lat="42.4156" lon="2.70573">
        <ele>1344.3</ele>
        <time>2018-11-26T04:28:49Z</time>
      </trkpt>
      <trkpt lat="42.4156" lon="2.70574">
        <ele>1344.4</ele>
        <time>2018-11-26T04:28:50Z</time>
      </trkpt>
      <trkpt lat="42.41559" lon="2.70575">
        <ele>1344.4</ele>
        <time>2018-11-26T04:28:50Z</time>
      </trkpt>
      <trkpt lat="42.41559" lon="2.70577">
        <ele>1344.5</ele>
        <time>2018-11-26T04:28:51Z</time>
      </trkpt>
      <trkpt lat="42.41559" lon="2.70578">
        <ele>1344.4</ele>
        <time>2018-11-26T04:28:51Z</time>
      </trkpt>
      <trkpt lat="42.41558" lon="2.7058">
        <ele>1344.3</ele>
        <time>2018-11-26T04:28:52Z</time>
      </trkpt>
      <trkpt lat="42.41557" lon="2.70582">
        <ele>1344.2</ele>
        <time>2018-11-26T04:28:52Z</time>
      </trkpt>
      <trkpt lat="42.41557" lon="2.70583">
        <ele>1343.9</ele>
        <time>2018-11-26T04:28:53Z</time>
      </trkpt>
      <trkpt lat="42.41557" lon="2.70584">
        <ele>1344</ele>
        <time>2018-11-26T04:28:53Z</time>
      </trkpt>
      <trkpt lat="42.41556" lon="2.70585">
        <ele>1344.1</ele>
        <time>2018-11-26T04:28:53Z</time>
      </trkpt>
      <trkpt lat="42.41556" lon="2.70589">
        <ele>1344.7</ele>
        <time>2018-11-26T04:28:54Z</time>
      </trkpt>
      <trkpt lat="42.41555" lon="2.7059">
        <ele>1345.1</ele>
        <time>2018-11-26T04:28:55Z</time>
      </trkpt>
      <trkpt lat="42.41555" lon="2.70591">
        <ele>1344.8</ele>
        <time>2018-11-26T04:28:55Z</time>
      </trkpt>
      <trkpt lat="42.41556" lon="2.70594">
        <ele>1344</ele>
        <time>2018-11-26T04:28:56Z</time>
      </trkpt>
      <trkpt lat="42.41556" lon="2.70595">
        <ele>1344</ele>
        <time>2018-11-26T04:28:56Z</time>
      </trkpt>
      <trkpt lat="42.41556" lon="2.70596">
        <ele>1344.1</ele>
        <time>2018-11-26T04:28:57Z</time>
      </trkpt>
      <trkpt lat="42.41556" lon="2.70597">
        <ele>1344.2</ele>
        <time>2018-11-26T04:28:57Z</time>
      </trkpt>
      <trkpt lat="42.41555" lon="2.70599">
        <ele>1344.3</ele>
        <time>2018-11-26T04:28:57Z</time>
      </trkpt>
      <trkpt lat="42.41555" lon="2.706">
        <ele>1344.3</ele>
        <time>2018-11-26T04:28:58Z</time>
      </trkpt>
      <trkpt lat="42.41555" lon="2.70602">
        <ele>1344.4</ele>
        <time>2018-11-26T04:28:58Z</time>
      </trkpt>
      <trkpt lat="42.41554" lon="2.70604">
        <ele>1344.6</ele>
        <time>2018-11-26T04:28:59Z</time>
      </trkpt>
      <trkpt lat="42.41554" lon="2.70605">
        <ele>1344.2</ele>
        <time>2018-11-26T04:28:59Z</time>
      </trkpt>
      <trkpt lat="42.41554" lon="2.70605">
        <ele>1344.3</ele>
        <time>2018-11-26T04:28:59Z</time>
      </trkpt>
      <trkpt lat="42.41554" lon="2.70605">
        <ele>1344.4</ele>
        <time>2018-11-26T04:28:59Z</time>
      </trkpt>
      <trkpt lat="42.41554" lon="2.70605">
        <ele>1344.1</ele>
        <time>2018-11-26T04:28:59Z</time>
      </trkpt>
      <trkpt lat="42.41554" lon="2.70605">
        <ele>1344</ele>
        <time>2018-11-26T04:28:59Z</time>
      </trkpt>
      <trkpt lat="42.41554" lon="2.70606">
        <ele>1343.6</ele>
        <time>2018-11-26T04:29:00Z</time>
      </trkpt>
      <trkpt lat="42.41554" lon="2.70606">
        <ele>1343.6</ele>
        <time>2018-11-26T04:29:00Z</time>
      </trkpt>
      <trkpt lat="42.41554" lon="2.70606">
        <ele>1343.7</ele>
        <time>2018-11-26T04:29:00Z</time>
      </trkpt>
      <trkpt lat="42.41554" lon="2.70607">
        <ele>1343.9</ele>
        <time>2018-11-26T04:29:00Z</time>
      </trkpt>
      <trkpt lat="42.41554" lon="2.70608">
        <ele>1343.9</ele>
        <time>2018-11-26T04:29:00Z</time>
      </trkpt>
      <trkpt lat="42.41554" lon="2.70609">
        <ele>1343.8</ele>
        <time>2018-11-26T04:29:01Z</time>
      </trkpt>
      <trkpt lat="42.41553" lon="2.70609">
        <ele>1343.5</ele>
        <time>2018-11-26T04:29:01Z</time>
      </trkpt>
      <trkpt lat="42.41553" lon="2.7061">
        <ele>1343</ele>
        <time>2018-11-26T04:29:01Z</time>
      </trkpt>
      <trkpt lat="42.41553" lon="2.7061">
        <ele>1343</ele>
        <time>2018-11-26T04:29:01Z</time>
      </trkpt>
      <trkpt lat="42.41553" lon="2.70611">
        <ele>1342.7</ele>
        <time>2018-11-26T04:29:01Z</time>
      </trkpt>
      <trkpt lat="42.41553" lon="2.70612">
        <ele>1342.4</ele>
        <time>2018-11-26T04:29:02Z</time>
      </trkpt>
      <trkpt lat="42.41553" lon="2.70613">
        <ele>1342.4</ele>
        <time>2018-11-26T04:29:02Z</time>
      </trkpt>
      <trkpt lat="42.41553" lon="2.70613">
        <ele>1342.4</ele>
        <time>2018-11-26T04:29:02Z</time>
      </trkpt>
      <trkpt lat="42.41552" lon="2.70614">
        <ele>1342.5</ele>
        <time>2018-11-26T04:29:02Z</time>
      </trkpt>
      <trkpt lat="42.41552" lon="2.70615">
        <ele>1342.6</ele>
        <time>2018-11-26T04:29:03Z</time>
      </trkpt>
      <trkpt lat="42.41552" lon="2.70616">
        <ele>1342.5</ele>
        <time>2018-11-26T04:29:03Z</time>
      </trkpt>
      <trkpt lat="42.41552" lon="2.70617">
        <ele>1342.7</ele>
        <time>2018-11-26T04:29:03Z</time>
      </trkpt>
      <trkpt lat="42.41551" lon="2.70618">
        <ele>1342.6</ele>
        <time>2018-11-26T04:29:04Z</time>
      </trkpt>
      <trkpt lat="42.41551" lon="2.70619">
        <ele>1342.5</ele>
        <time>2018-11-26T04:29:04Z</time>
      </trkpt>
      <trkpt lat="42.41551" lon="2.7062">
        <ele>1342.4</ele>
        <time>2018-11-26T04:29:04Z</time>
      </trkpt>
      <trkpt lat="42.4155" lon="2.70621">
        <ele>1342.3</ele>
        <time>2018-11-26T04:29:04Z</time>
      </trkpt>
      <trkpt lat="42.4155" lon="2.70621">
        <ele>1342.3</ele>
        <time>2018-11-26T04:29:05Z</time>
      </trkpt>
      <trkpt lat="42.4155" lon="2.70622">
        <ele>1342.3</ele>
        <time>2018-11-26T04:29:05Z</time>
      </trkpt>
      <trkpt lat="42.4155" lon="2.70623">
        <ele>1342.4</ele>
        <time>2018-11-26T04:29:05Z</time>
      </trkpt>
      <trkpt lat="42.41549" lon="2.70624">
        <ele>1342.4</ele>
        <time>2018-11-26T04:29:05Z</time>
      </trkpt>
      <trkpt lat="42.41549" lon="2.70625">
        <ele>1342.5</ele>
        <time>2018-11-26T04:29:06Z</time>
      </trkpt>
      <trkpt lat="42.41549" lon="2.70626">
        <ele>1342.5</ele>
        <time>2018-11-26T04:29:06Z</time>
      </trkpt>
      <trkpt lat="42.41548" lon="2.70627">
        <ele>1342.2</ele>
        <time>2018-11-26T04:29:06Z</time>
      </trkpt>
      <trkpt lat="42.41548" lon="2.70627">
        <ele>1342.1</ele>
        <time>2018-11-26T04:29:07Z</time>
      </trkpt>
      <trkpt lat="42.41547" lon="2.70628">
        <ele>1341.8</ele>
        <time>2018-11-26T04:29:07Z</time>
      </trkpt>
      <trkpt lat="42.41547" lon="2.70629">
        <ele>1341.8</ele>
        <time>2018-11-26T04:29:07Z</time>
      </trkpt>
      <trkpt lat="42.41547" lon="2.7063">
        <ele>1341.5</ele>
        <time>2018-11-26T04:29:08Z</time>
      </trkpt>
      <trkpt lat="42.41547" lon="2.7063">
        <ele>1341.3</ele>
        <time>2018-11-26T04:29:08Z</time>
      </trkpt>
      <trkpt lat="42.41546" lon="2.70631">
        <ele>1341.4</ele>
        <time>2018-11-26T04:29:08Z</time>
      </trkpt>
      <trkpt lat="42.41546" lon="2.70631">
        <ele>1341.6</ele>
        <time>2018-11-26T04:29:08Z</time>
      </trkpt>
      <trkpt lat="42.41546" lon="2.70632">
        <ele>1341.6</ele>
        <time>2018-11-26T04:29:08Z</time>
      </trkpt>
      <trkpt lat="42.41546" lon="2.70633">
        <ele>1341.6</ele>
        <time>2018-11-26T04:29:09Z</time>
      </trkpt>
      <trkpt lat="42.41546" lon="2.70634">
        <ele>1341.5</ele>
        <time>2018-11-26T04:29:09Z</time>
      </trkpt>
      <trkpt lat="42.41546" lon="2.70634">
        <ele>1341.2</ele>
        <time>2018-11-26T04:29:09Z</time>
      </trkpt>
      <trkpt lat="42.41546" lon="2.70634">
        <ele>1341</ele>
        <time>2018-11-26T04:29:09Z</time>
      </trkpt>
      <trkpt lat="42.41545" lon="2.70634">
        <ele>1341</ele>
        <time>2018-11-26T04:29:09Z</time>
      </trkpt>
      <trkpt lat="42.41545" lon="2.70634">
        <ele>1340.7</ele>
        <time>2018-11-26T04:29:09Z</time>
      </trkpt>
      <trkpt lat="42.41545" lon="2.70635">
        <ele>1340.6</ele>
        <time>2018-11-26T04:29:09Z</time>
      </trkpt>
      <trkpt lat="42.41545" lon="2.70636">
        <ele>1340.5</ele>
        <time>2018-11-26T04:29:10Z</time>
      </trkpt>
      <trkpt lat="42.41545" lon="2.70637">
        <ele>1340.4</ele>
        <time>2018-11-26T04:29:10Z</time>
      </trkpt>
      <trkpt lat="42.41545" lon="2.70638">
        <ele>1340.4</ele>
        <time>2018-11-26T04:29:10Z</time>
      </trkpt>
      <trkpt lat="42.41545" lon="2.70639">
        <ele>1340.3</ele>
        <time>2018-11-26T04:29:11Z</time>
      </trkpt>
      <trkpt lat="42.41545" lon="2.7064">
        <ele>1340</ele>
        <time>2018-11-26T04:29:11Z</time>
      </trkpt>
      <trkpt lat="42.41545" lon="2.70641">
        <ele>1339.8</ele>
        <time>2018-11-26T04:29:11Z</time>
      </trkpt>
      <trkpt lat="42.41545" lon="2.70642">
        <ele>1339.9</ele>
        <time>2018-11-26T04:29:11Z</time>
      </trkpt>
      <trkpt lat="42.41544" lon="2.70643">
        <ele>1340</ele>
        <time>2018-11-26T04:29:12Z</time>
      </trkpt>
      <trkpt lat="42.41544" lon="2.70644">
        <ele>1339.9</ele>
        <time>2018-11-26T04:29:12Z</time>
      </trkpt>
      <trkpt lat="42.41544" lon="2.70644">
        <ele>1339.8</ele>
        <time>2018-11-26T04:29:12Z</time>
      </trkpt>
      <trkpt lat="42.41544" lon="2.70645">
        <ele>1339.6</ele>
        <time>2018-11-26T04:29:12Z</time>
      </trkpt>
      <trkpt lat="42.41544" lon="2.70645">
        <ele>1339.4</ele>
        <time>2018-11-26T04:29:12Z</time>
      </trkpt>
      <trkpt lat="42.41544" lon="2.70645">
        <ele>1338.9</ele>
        <time>2018-11-26T04:29:12Z</time>
      </trkpt>
      <trkpt lat="42.41544" lon="2.70646">
        <ele>1339</ele>
        <time>2018-11-26T04:29:13Z</time>
      </trkpt>
      <trkpt lat="42.41544" lon="2.70647">
        <ele>1339.1</ele>
        <time>2018-11-26T04:29:13Z</time>
      </trkpt>
      <trkpt lat="42.41544" lon="2.70648">
        <ele>1339.2</ele>
        <time>2018-11-26T04:29:13Z</time>
      </trkpt>
      <trkpt lat="42.41544" lon="2.70648">
        <ele>1338.9</ele>
        <time>2018-11-26T04:29:13Z</time>
      </trkpt>
      <trkpt lat="42.41544" lon="2.70649">
        <ele>1338.7</ele>
        <time>2018-11-26T04:29:14Z</time>
      </trkpt>
      <trkpt lat="42.41544" lon="2.7065">
        <ele>1338.2</ele>
        <time>2018-11-26T04:29:14Z</time>
      </trkpt>
      <trkpt lat="42.41544" lon="2.70651">
        <ele>1338.1</ele>
        <time>2018-11-26T04:29:14Z</time>
      </trkpt>
      <trkpt lat="42.41544" lon="2.70652">
        <ele>1337.9</ele>
        <time>2018-11-26T04:29:14Z</time>
      </trkpt>
      <trkpt lat="42.41544" lon="2.70653">
        <ele>1337.7</ele>
        <time>2018-11-26T04:29:15Z</time>
      </trkpt>
      <trkpt lat="42.41544" lon="2.70653">
        <ele>1337.8</ele>
        <time>2018-11-26T04:29:15Z</time>
      </trkpt>
      <trkpt lat="42.41544" lon="2.70655">
        <ele>1337.6</ele>
        <time>2018-11-26T04:29:15Z</time>
      </trkpt>
      <trkpt lat="42.41544" lon="2.70655">
        <ele>1337.4</ele>
        <time>2018-11-26T04:29:15Z</time>
      </trkpt>
      <trkpt lat="42.41544" lon="2.70656">
        <ele>1337.3</ele>
        <time>2018-11-26T04:29:16Z</time>
      </trkpt>
      <trkpt lat="42.41544" lon="2.70657">
        <ele>1337.3</ele>
        <time>2018-11-26T04:29:16Z</time>
      </trkpt>
      <trkpt lat="42.41544" lon="2.70658">
        <ele>1337.1</ele>
        <time>2018-11-26T04:29:16Z</time>
      </trkpt>
      <trkpt lat="42.41544" lon="2.7066">
        <ele>1336.9</ele>
        <time>2018-11-26T04:29:17Z</time>
      </trkpt>
      <trkpt lat="42.41544" lon="2.70661">
        <ele>1337.1</ele>
        <time>2018-11-26T04:29:17Z</time>
      </trkpt>
      <trkpt lat="42.41544" lon="2.70663">
        <ele>1337.6</ele>
        <time>2018-11-26T04:29:18Z</time>
      </trkpt>
      <trkpt lat="42.41544" lon="2.70664">
        <ele>1337.4</ele>
        <time>2018-11-26T04:29:18Z</time>
      </trkpt>
      <trkpt lat="42.41544" lon="2.70665">
        <ele>1337.2</ele>
        <time>2018-11-26T04:29:18Z</time>
      </trkpt>
      <trkpt lat="42.41544" lon="2.70666">
        <ele>1337</ele>
        <time>2018-11-26T04:29:19Z</time>
      </trkpt>
      <trkpt lat="42.41544" lon="2.70668">
        <ele>1337.3</ele>
        <time>2018-11-26T04:29:19Z</time>
      </trkpt>
      <trkpt lat="42.41544" lon="2.7067">
        <ele>1337.6</ele>
        <time>2018-11-26T04:29:20Z</time>
      </trkpt>
      <trkpt lat="42.41544" lon="2.70671">
        <ele>1337.4</ele>
        <time>2018-11-26T04:29:20Z</time>
      </trkpt>
      <trkpt lat="42.41543" lon="2.70673">
        <ele>1336.9</ele>
        <time>2018-11-26T04:29:21Z</time>
      </trkpt>
      <trkpt lat="42.41543" lon="2.70674">
        <ele>1336.5</ele>
        <time>2018-11-26T04:29:21Z</time>
      </trkpt>
      <trkpt lat="42.41543" lon="2.70675">
        <ele>1336.6</ele>
        <time>2018-11-26T04:29:21Z</time>
      </trkpt>
      <trkpt lat="42.41543" lon="2.70676">
        <ele>1336.8</ele>
        <time>2018-11-26T04:29:22Z</time>
      </trkpt>
      <trkpt lat="42.41543" lon="2.70677">
        <ele>1336.9</ele>
        <time>2018-11-26T04:29:22Z</time>
      </trkpt>
      <trkpt lat="42.41543" lon="2.70677">
        <ele>1337.3</ele>
        <time>2018-11-26T04:29:22Z</time>
      </trkpt>
      <trkpt lat="42.41542" lon="2.70679">
        <ele>1337.2</ele>
        <time>2018-11-26T04:29:23Z</time>
      </trkpt>
      <trkpt lat="42.41542" lon="2.70681">
        <ele>1336.8</ele>
        <time>2018-11-26T04:29:23Z</time>
      </trkpt>
      <trkpt lat="42.41542" lon="2.70682">
        <ele>1337</ele>
        <time>2018-11-26T04:29:23Z</time>
      </trkpt>
      <trkpt lat="42.41542" lon="2.70683">
        <ele>1337.3</ele>
        <time>2018-11-26T04:29:24Z</time>
      </trkpt>
      <trkpt lat="42.41542" lon="2.70686">
        <ele>1337.6</ele>
        <time>2018-11-26T04:29:25Z</time>
      </trkpt>
      <trkpt lat="42.41542" lon="2.70691">
        <ele>1337.8</ele>
        <time>2018-11-26T04:29:26Z</time>
      </trkpt>
      <trkpt lat="42.41542" lon="2.70693">
        <ele>1337.5</ele>
        <time>2018-11-26T04:29:27Z</time>
      </trkpt>
      <trkpt lat="42.41542" lon="2.70694">
        <ele>1337</ele>
        <time>2018-11-26T04:29:27Z</time>
      </trkpt>
      <trkpt lat="42.41542" lon="2.70696">
        <ele>1337</ele>
        <time>2018-11-26T04:29:28Z</time>
      </trkpt>
      <trkpt lat="42.41543" lon="2.70698">
        <ele>1337.2</ele>
        <time>2018-11-26T04:29:28Z</time>
      </trkpt>
      <trkpt lat="42.41543" lon="2.70701">
        <ele>1337.3</ele>
        <time>2018-11-26T04:29:29Z</time>
      </trkpt>
      <trkpt lat="42.41543" lon="2.70702">
        <ele>1337.3</ele>
        <time>2018-11-26T04:29:29Z</time>
      </trkpt>
      <trkpt lat="42.41543" lon="2.70703">
        <ele>1337.5</ele>
        <time>2018-11-26T04:29:30Z</time>
      </trkpt>
      <trkpt lat="42.41543" lon="2.70704">
        <ele>1337.4</ele>
        <time>2018-11-26T04:29:30Z</time>
      </trkpt>
      <trkpt lat="42.41544" lon="2.70705">
        <ele>1337.5</ele>
        <time>2018-11-26T04:29:31Z</time>
      </trkpt>
      <trkpt lat="42.41544" lon="2.70707">
        <ele>1337.6</ele>
        <time>2018-11-26T04:29:31Z</time>
      </trkpt>
      <trkpt lat="42.41545" lon="2.7071">
        <ele>1337.9</ele>
        <time>2018-11-26T04:29:32Z</time>
      </trkpt>
      <trkpt lat="42.41545" lon="2.70711">
        <ele>1338.2</ele>
        <time>2018-11-26T04:29:32Z</time>
      </trkpt>
      <trkpt lat="42.41545" lon="2.70712">
        <ele>1338.3</ele>
        <time>2018-11-26T04:29:32Z</time>
      </trkpt>
      <trkpt lat="42.41545" lon="2.70713">
        <ele>1338.4</ele>
        <time>2018-11-26T04:29:33Z</time>
      </trkpt>
      <trkpt lat="42.41546" lon="2.70718">
        <ele>1338.5</ele>
        <time>2018-11-26T04:29:34Z</time>
      </trkpt>
      <trkpt lat="42.41546" lon="2.70719">
        <ele>1338.2</ele>
        <time>2018-11-26T04:29:35Z</time>
      </trkpt>
      <trkpt lat="42.41546" lon="2.7072">
        <ele>1338</ele>
        <time>2018-11-26T04:29:35Z</time>
      </trkpt>
      <trkpt lat="42.41546" lon="2.70721">
        <ele>1338</ele>
        <time>2018-11-26T04:29:35Z</time>
      </trkpt>
      <trkpt lat="42.41546" lon="2.70722">
        <ele>1338.1</ele>
        <time>2018-11-26T04:29:36Z</time>
      </trkpt>
      <trkpt lat="42.41547" lon="2.70722">
        <ele>1338.3</ele>
        <time>2018-11-26T04:29:36Z</time>
      </trkpt>
      <trkpt lat="42.41547" lon="2.70722">
        <ele>1338.3</ele>
        <time>2018-11-26T04:29:36Z</time>
      </trkpt>
      <trkpt lat="42.41547" lon="2.70722">
        <ele>1338.4</ele>
        <time>2018-11-26T04:29:36Z</time>
      </trkpt>
      <trkpt lat="42.41547" lon="2.70722">
        <ele>1338.6</ele>
        <time>2018-11-26T04:29:36Z</time>
      </trkpt>
      <trkpt lat="42.41547" lon="2.70722">
        <ele>1338.4</ele>
        <time>2018-11-26T04:29:36Z</time>
      </trkpt>
      <trkpt lat="42.41546" lon="2.70722">
        <ele>1338.3</ele>
        <time>2018-11-26T04:29:36Z</time>
      </trkpt>
      <trkpt lat="42.41547" lon="2.70722">
        <ele>1338.2</ele>
        <time>2018-11-26T04:29:36Z</time>
      </trkpt>
      <trkpt lat="42.41547" lon="2.70722">
        <ele>1338.1</ele>
        <time>2018-11-26T04:29:36Z</time>
      </trkpt>
      <trkpt lat="42.41547" lon="2.70722">
        <ele>1337.9</ele>
        <time>2018-11-26T04:29:36Z</time>
      </trkpt>
      <trkpt lat="42.41546" lon="2.70722">
        <ele>1337.7</ele>
        <time>2018-11-26T04:29:36Z</time>
      </trkpt>
      <trkpt lat="42.41546" lon="2.70722">
        <ele>1337.4</ele>
        <time>2018-11-26T04:29:36Z</time>
      </trkpt>
      <trkpt lat="42.41546" lon="2.70723">
        <ele>1337.1</ele>
        <time>2018-11-26T04:29:36Z</time>
      </trkpt>
      <trkpt lat="42.41547" lon="2.70724">
        <ele>1336.7</ele>
        <time>2018-11-26T04:29:37Z</time>
      </trkpt>
      <trkpt lat="42.41547" lon="2.70724">
        <ele>1337</ele>
        <time>2018-11-26T04:29:37Z</time>
      </trkpt>
      <trkpt lat="42.41548" lon="2.70725">
        <ele>1337.1</ele>
        <time>2018-11-26T04:29:37Z</time>
      </trkpt>
      <trkpt lat="42.41548" lon="2.70726">
        <ele>1337.4</ele>
        <time>2018-11-26T04:29:38Z</time>
      </trkpt>
      <trkpt lat="42.41549" lon="2.70728">
        <ele>1337.8</ele>
        <time>2018-11-26T04:29:38Z</time>
      </trkpt>
      <trkpt lat="42.41549" lon="2.7073">
        <ele>1337.9</ele>
        <time>2018-11-26T04:29:39Z</time>
      </trkpt>
      <trkpt lat="42.4155" lon="2.70732">
        <ele>1338.1</ele>
        <time>2018-11-26T04:29:39Z</time>
      </trkpt>
      <trkpt lat="42.4155" lon="2.70733">
        <ele>1338.3</ele>
        <time>2018-11-26T04:29:40Z</time>
      </trkpt>
      <trkpt lat="42.4155" lon="2.70734">
        <ele>1338.4</ele>
        <time>2018-11-26T04:29:40Z</time>
      </trkpt>
      <trkpt lat="42.4155" lon="2.70734">
        <ele>1338.6</ele>
        <time>2018-11-26T04:29:40Z</time>
      </trkpt>
      <trkpt lat="42.4155" lon="2.70733">
        <ele>1338.5</ele>
        <time>2018-11-26T04:29:40Z</time>
      </trkpt>
      <trkpt lat="42.4155" lon="2.70734">
        <ele>1338.6</ele>
        <time>2018-11-26T04:29:40Z</time>
      </trkpt>
      <trkpt lat="42.4155" lon="2.70734">
        <ele>1338.5</ele>
        <time>2018-11-26T04:29:40Z</time>
      </trkpt>
      <trkpt lat="42.4155" lon="2.70734">
        <ele>1338.5</ele>
        <time>2018-11-26T04:29:40Z</time>
      </trkpt>
      <trkpt lat="42.4155" lon="2.70734">
        <ele>1338.8</ele>
        <time>2018-11-26T04:29:40Z</time>
      </trkpt>
      <trkpt lat="42.4155" lon="2.70736">
        <ele>1339.1</ele>
        <time>2018-11-26T04:29:41Z</time>
      </trkpt>
      <trkpt lat="42.4155" lon="2.70737">
        <ele>1339.3</ele>
        <time>2018-11-26T04:29:41Z</time>
      </trkpt>
      <trkpt lat="42.4155" lon="2.70738">
        <ele>1339.5</ele>
        <time>2018-11-26T04:29:41Z</time>
      </trkpt>
      <trkpt lat="42.4155" lon="2.7074">
        <ele>1339.8</ele>
        <time>2018-11-26T04:29:42Z</time>
      </trkpt>
      <trkpt lat="42.4155" lon="2.70741">
        <ele>1339.8</ele>
        <time>2018-11-26T04:29:42Z</time>
      </trkpt>
      <trkpt lat="42.4155" lon="2.70742">
        <ele>1339.9</ele>
        <time>2018-11-26T04:29:43Z</time>
      </trkpt>
      <trkpt lat="42.4155" lon="2.70743">
        <ele>1340.1</ele>
        <time>2018-11-26T04:29:43Z</time>
      </trkpt>
      <trkpt lat="42.41549" lon="2.70744">
        <ele>1340.1</ele>
        <time>2018-11-26T04:29:43Z</time>
      </trkpt>
      <trkpt lat="42.41549" lon="2.70745">
        <ele>1340.5</ele>
        <time>2018-11-26T04:29:44Z</time>
      </trkpt>
      <trkpt lat="42.41549" lon="2.70746">
        <ele>1340.7</ele>
        <time>2018-11-26T04:29:44Z</time>
      </trkpt>
      <trkpt lat="42.41548" lon="2.70747">
        <ele>1340.7</ele>
        <time>2018-11-26T04:29:44Z</time>
      </trkpt>
      <trkpt lat="42.41548" lon="2.70748">
        <ele>1340.6</ele>
        <time>2018-11-26T04:29:44Z</time>
      </trkpt>
      <trkpt lat="42.41548" lon="2.70749">
        <ele>1340.5</ele>
        <time>2018-11-26T04:29:45Z</time>
      </trkpt>
      <trkpt lat="42.41548" lon="2.7075">
        <ele>1340.6</ele>
        <time>2018-11-26T04:29:45Z</time>
      </trkpt>
      <trkpt lat="42.41549" lon="2.70752">
        <ele>1341.1</ele>
        <time>2018-11-26T04:29:46Z</time>
      </trkpt>
      <trkpt lat="42.4155" lon="2.70753">
        <ele>1341.4</ele>
        <time>2018-11-26T04:29:46Z</time>
      </trkpt>
      <trkpt lat="42.4155" lon="2.70754">
        <ele>1341.9</ele>
        <time>2018-11-26T04:29:47Z</time>
      </trkpt>
      <trkpt lat="42.4155" lon="2.70755">
        <ele>1342.3</ele>
        <time>2018-11-26T04:29:47Z</time>
      </trkpt>
      <trkpt lat="42.41551" lon="2.70756">
        <ele>1343.1</ele>
        <time>2018-11-26T04:29:47Z</time>
      </trkpt>
      <trkpt lat="42.41551" lon="2.70758">
        <ele>1343</ele>
        <time>2018-11-26T04:29:48Z</time>
      </trkpt>
      <trkpt lat="42.41551" lon="2.70758">
        <ele>1343.1</ele>
        <time>2018-11-26T04:29:48Z</time>
      </trkpt>
      <trkpt lat="42.4155" lon="2.70759">
        <ele>1343</ele>
        <time>2018-11-26T04:29:48Z</time>
      </trkpt>
      <trkpt lat="42.4155" lon="2.7076">
        <ele>1343.1</ele>
        <time>2018-11-26T04:29:48Z</time>
      </trkpt>
      <trkpt lat="42.4155" lon="2.70761">
        <ele>1343.2</ele>
        <time>2018-11-26T04:29:49Z</time>
      </trkpt>
      <trkpt lat="42.41551" lon="2.70762">
        <ele>1343.4</ele>
        <time>2018-11-26T04:29:49Z</time>
      </trkpt>
      <trkpt lat="42.41551" lon="2.70763">
        <ele>1344</ele>
        <time>2018-11-26T04:29:49Z</time>
      </trkpt>
      <trkpt lat="42.41552" lon="2.70764">
        <ele>1344.6</ele>
        <time>2018-11-26T04:29:50Z</time>
      </trkpt>
      <trkpt lat="42.41552" lon="2.70765">
        <ele>1345.4</ele>
        <time>2018-11-26T04:29:50Z</time>
      </trkpt>
      <trkpt lat="42.41552" lon="2.70766">
        <ele>1345.8</ele>
        <time>2018-11-26T04:29:50Z</time>
      </trkpt>
      <trkpt lat="42.41552" lon="2.70766">
        <ele>1346</ele>
        <time>2018-11-26T04:29:50Z</time>
      </trkpt>
      <trkpt lat="42.41552" lon="2.70767">
        <ele>1346.3</ele>
        <time>2018-11-26T04:29:51Z</time>
      </trkpt>
      <trkpt lat="42.41552" lon="2.70768">
        <ele>1346.3</ele>
        <time>2018-11-26T04:29:51Z</time>
      </trkpt>
      <trkpt lat="42.41551" lon="2.70768">
        <ele>1346.5</ele>
        <time>2018-11-26T04:29:51Z</time>
      </trkpt>
      <trkpt lat="42.41551" lon="2.70769">
        <ele>1346.6</ele>
        <time>2018-11-26T04:29:51Z</time>
      </trkpt>
      <trkpt lat="42.41551" lon="2.7077">
        <ele>1346.7</ele>
        <time>2018-11-26T04:29:52Z</time>
      </trkpt>
      <trkpt lat="42.41552" lon="2.7077">
        <ele>1346.6</ele>
        <time>2018-11-26T04:29:52Z</time>
      </trkpt>
      <trkpt lat="42.41552" lon="2.7077">
        <ele>1346.1</ele>
        <time>2018-11-26T04:29:52Z</time>
      </trkpt>
      <trkpt lat="42.41552" lon="2.7077">
        <ele>1345.7</ele>
        <time>2018-11-26T04:29:52Z</time>
      </trkpt>
      <trkpt lat="42.41552" lon="2.70771">
        <ele>1345.8</ele>
        <time>2018-11-26T04:29:52Z</time>
      </trkpt>
      <trkpt lat="42.41552" lon="2.70771">
        <ele>1346</ele>
        <time>2018-11-26T04:29:52Z</time>
      </trkpt>
      <trkpt lat="42.41553" lon="2.70772">
        <ele>1346.2</ele>
        <time>2018-11-26T04:29:53Z</time>
      </trkpt>
      <trkpt lat="42.41554" lon="2.70772">
        <ele>1346.2</ele>
        <time>2018-11-26T04:29:53Z</time>
      </trkpt>
      <trkpt lat="42.41555" lon="2.70773">
        <ele>1346.1</ele>
        <time>2018-11-26T04:29:53Z</time>
      </trkpt>
      <trkpt lat="42.41555" lon="2.70773">
        <ele>1346.1</ele>
        <time>2018-11-26T04:29:54Z</time>
      </trkpt>
      <trkpt lat="42.41555" lon="2.70774">
        <ele>1345.6</ele>
        <time>2018-11-26T04:29:54Z</time>
      </trkpt>
      <trkpt lat="42.41555" lon="2.70775">
        <ele>1345.2</ele>
        <time>2018-11-26T04:29:54Z</time>
      </trkpt>
      <trkpt lat="42.41556" lon="2.70775">
        <ele>1344.3</ele>
        <time>2018-11-26T04:29:54Z</time>
      </trkpt>
      <trkpt lat="42.41556" lon="2.70775">
        <ele>1344.3</ele>
        <time>2018-11-26T04:29:54Z</time>
      </trkpt>
      <trkpt lat="42.41557" lon="2.70775">
        <ele>1344</ele>
        <time>2018-11-26T04:29:55Z</time>
      </trkpt>
      <trkpt lat="42.41558" lon="2.70775">
        <ele>1343.8</ele>
        <time>2018-11-26T04:29:55Z</time>
      </trkpt>
      <trkpt lat="42.41558" lon="2.70775">
        <ele>1343.9</ele>
        <time>2018-11-26T04:29:55Z</time>
      </trkpt>
      <trkpt lat="42.41558" lon="2.70775">
        <ele>1344</ele>
        <time>2018-11-26T04:29:55Z</time>
      </trkpt>
      <trkpt lat="42.41558" lon="2.70775">
        <ele>1344.3</ele>
        <time>2018-11-26T04:29:55Z</time>
      </trkpt>
      <trkpt lat="42.41558" lon="2.70775">
        <ele>1344.3</ele>
        <time>2018-11-26T04:29:55Z</time>
      </trkpt>
      <trkpt lat="42.41558" lon="2.70775">
        <ele>1344.1</ele>
        <time>2018-11-26T04:29:56Z</time>
      </trkpt>
      <trkpt lat="42.41559" lon="2.70776">
        <ele>1343.9</ele>
        <time>2018-11-26T04:29:56Z</time>
      </trkpt>
      <trkpt lat="42.4156" lon="2.70777">
        <ele>1343.6</ele>
        <time>2018-11-26T04:29:56Z</time>
      </trkpt>
      <trkpt lat="42.4156" lon="2.70777">
        <ele>1343.8</ele>
        <time>2018-11-26T04:29:57Z</time>
      </trkpt>
      <trkpt lat="42.41561" lon="2.70778">
        <ele>1344.1</ele>
        <time>2018-11-26T04:29:57Z</time>
      </trkpt>
      <trkpt lat="42.41562" lon="2.70778">
        <ele>1344.1</ele>
        <time>2018-11-26T04:29:57Z</time>
      </trkpt>
      <trkpt lat="42.41562" lon="2.70779">
        <ele>1344.2</ele>
        <time>2018-11-26T04:29:57Z</time>
      </trkpt>
      <trkpt lat="42.41562" lon="2.70779">
        <ele>1344.2</ele>
        <time>2018-11-26T04:29:57Z</time>
      </trkpt>
      <trkpt lat="42.41562" lon="2.70779">
        <ele>1344</ele>
        <time>2018-11-26T04:29:58Z</time>
      </trkpt>
      <trkpt lat="42.41563" lon="2.7078">
        <ele>1343.8</ele>
        <time>2018-11-26T04:29:58Z</time>
      </trkpt>
      <trkpt lat="42.41563" lon="2.7078">
        <ele>1343.6</ele>
        <time>2018-11-26T04:29:58Z</time>
      </trkpt>
      <trkpt lat="42.41563" lon="2.70781">
        <ele>1343.6</ele>
        <time>2018-11-26T04:29:58Z</time>
      </trkpt>
      <trkpt lat="42.41563" lon="2.70781">
        <ele>1343.4</ele>
        <time>2018-11-26T04:29:58Z</time>
      </trkpt>
      <trkpt lat="42.41563" lon="2.70783">
        <ele>1343.2</ele>
        <time>2018-11-26T04:29:59Z</time>
      </trkpt>
      <trkpt lat="42.41563" lon="2.70783">
        <ele>1342.9</ele>
        <time>2018-11-26T04:29:59Z</time>
      </trkpt>
      <trkpt lat="42.41564" lon="2.70784">
        <ele>1343</ele>
        <time>2018-11-26T04:29:59Z</time>
      </trkpt>
      <trkpt lat="42.41564" lon="2.70784">
        <ele>1343.3</ele>
        <time>2018-11-26T04:29:59Z</time>
      </trkpt>
      <trkpt lat="42.41565" lon="2.70784">
        <ele>1343.5</ele>
        <time>2018-11-26T04:30:00Z</time>
      </trkpt>
      <trkpt lat="42.41565" lon="2.70785">
        <ele>1343.6</ele>
        <time>2018-11-26T04:30:00Z</time>
      </trkpt>
      <trkpt lat="42.41565" lon="2.70785">
        <ele>1343.5</ele>
        <time>2018-11-26T04:30:00Z</time>
      </trkpt>
      <trkpt lat="42.41565" lon="2.70785">
        <ele>1343.6</ele>
        <time>2018-11-26T04:30:00Z</time>
      </trkpt>
      <trkpt lat="42.41565" lon="2.70785">
        <ele>1343.9</ele>
        <time>2018-11-26T04:30:00Z</time>
      </trkpt>
      <trkpt lat="42.41566" lon="2.70786">
        <ele>1344.5</ele>
        <time>2018-11-26T04:30:00Z</time>
      </trkpt>
      <trkpt lat="42.41566" lon="2.70786">
        <ele>1344.5</ele>
        <time>2018-11-26T04:30:00Z</time>
      </trkpt>
      <trkpt lat="42.41566" lon="2.70786">
        <ele>1344.4</ele>
        <time>2018-11-26T04:30:01Z</time>
      </trkpt>
      <trkpt lat="42.41566" lon="2.70787">
        <ele>1344.4</ele>
        <time>2018-11-26T04:30:01Z</time>
      </trkpt>
      <trkpt lat="42.41566" lon="2.70787">
        <ele>1344.4</ele>
        <time>2018-11-26T04:30:01Z</time>
      </trkpt>
      <trkpt lat="42.41567" lon="2.70787">
        <ele>1344.5</ele>
        <time>2018-11-26T04:30:01Z</time>
      </trkpt>
      <trkpt lat="42.41567" lon="2.70788">
        <ele>1344.6</ele>
        <time>2018-11-26T04:30:01Z</time>
      </trkpt>
      <trkpt lat="42.41567" lon="2.70788">
        <ele>1344.5</ele>
        <time>2018-11-26T04:30:01Z</time>
      </trkpt>
      <trkpt lat="42.41567" lon="2.70788">
        <ele>1344.6</ele>
        <time>2018-11-26T04:30:01Z</time>
      </trkpt>
      <trkpt lat="42.41567" lon="2.70788">
        <ele>1344.6</ele>
        <time>2018-11-26T04:30:01Z</time>
      </trkpt>
      <trkpt lat="42.41567" lon="2.70788">
        <ele>1344.7</ele>
        <time>2018-11-26T04:30:01Z</time>
      </trkpt>
      <trkpt lat="42.41567" lon="2.70789">
        <ele>1344.9</ele>
        <time>2018-11-26T04:30:01Z</time>
      </trkpt>
      <trkpt lat="42.41567" lon="2.7079">
        <ele>1344.9</ele>
        <time>2018-11-26T04:30:02Z</time>
      </trkpt>
      <trkpt lat="42.41567" lon="2.7079">
        <ele>1345.3</ele>
        <time>2018-11-26T04:30:02Z</time>
      </trkpt>
      <trkpt lat="42.41567" lon="2.70791">
        <ele>1345.6</ele>
        <time>2018-11-26T04:30:02Z</time>
      </trkpt>
      <trkpt lat="42.41567" lon="2.70792">
        <ele>1346.1</ele>
        <time>2018-11-26T04:30:03Z</time>
      </trkpt>
      <trkpt lat="42.41567" lon="2.70793">
        <ele>1346.6</ele>
        <time>2018-11-26T04:30:03Z</time>
      </trkpt>
      <trkpt lat="42.41567" lon="2.70794">
        <ele>1346.6</ele>
        <time>2018-11-26T04:30:03Z</time>
      </trkpt>
      <trkpt lat="42.41568" lon="2.70795">
        <ele>1346.6</ele>
        <time>2018-11-26T04:30:03Z</time>
      </trkpt>
      <trkpt lat="42.41568" lon="2.70795">
        <ele>1346.5</ele>
        <time>2018-11-26T04:30:04Z</time>
      </trkpt>
      <trkpt lat="42.41569" lon="2.70796">
        <ele>1347.1</ele>
        <time>2018-11-26T04:30:04Z</time>
      </trkpt>
      <trkpt lat="42.41569" lon="2.70797">
        <ele>1347.8</ele>
        <time>2018-11-26T04:30:04Z</time>
      </trkpt>
      <trkpt lat="42.4157" lon="2.70799">
        <ele>1349.9</ele>
        <time>2018-11-26T04:30:05Z</time>
      </trkpt>
      <trkpt lat="42.41579" lon="2.70824">
        <ele>1351.1</ele>
        <time>2018-11-26T04:30:13Z</time>
      </trkpt>
      <trkpt lat="42.41579" lon="2.70824">
        <ele>1351.2</ele>
        <time>2018-11-26T04:30:13Z</time>
      </trkpt>
      <trkpt lat="42.41579" lon="2.70825">
        <ele>1351.5</ele>
        <time>2018-11-26T04:30:13Z</time>
      </trkpt>
      <trkpt lat="42.41579" lon="2.70825">
        <ele>1351.6</ele>
        <time>2018-11-26T04:30:14Z</time>
      </trkpt>
      <trkpt lat="42.4158" lon="2.70826">
        <ele>1351.6</ele>
        <time>2018-11-26T04:30:14Z</time>
      </trkpt>
      <trkpt lat="42.4158" lon="2.70826">
        <ele>1351.7</ele>
        <time>2018-11-26T04:30:14Z</time>
      </trkpt>
      <trkpt lat="42.41581" lon="2.70827">
        <ele>1351.8</ele>
        <time>2018-11-26T04:30:14Z</time>
      </trkpt>
      <trkpt lat="42.41581" lon="2.70828">
        <ele>1351.9</ele>
        <time>2018-11-26T04:30:15Z</time>
      </trkpt>
      <trkpt lat="42.41581" lon="2.70829">
        <ele>1352</ele>
        <time>2018-11-26T04:30:15Z</time>
      </trkpt>
      <trkpt lat="42.41581" lon="2.70829">
        <ele>1352.2</ele>
        <time>2018-11-26T04:30:15Z</time>
      </trkpt>
      <trkpt lat="42.41581" lon="2.7083">
        <ele>1352.4</ele>
        <time>2018-11-26T04:30:15Z</time>
      </trkpt>
      <trkpt lat="42.41581" lon="2.70831">
        <ele>1352.6</ele>
        <time>2018-11-26T04:30:15Z</time>
      </trkpt>
      <trkpt lat="42.41582" lon="2.70831">
        <ele>1352.8</ele>
        <time>2018-11-26T04:30:16Z</time>
      </trkpt>
      <trkpt lat="42.41582" lon="2.70832">
        <ele>1352.9</ele>
        <time>2018-11-26T04:30:16Z</time>
      </trkpt>
      <trkpt lat="42.41583" lon="2.70833">
        <ele>1352.8</ele>
        <time>2018-11-26T04:30:16Z</time>
      </trkpt>
      <trkpt lat="42.41584" lon="2.70834">
        <ele>1352.7</ele>
        <time>2018-11-26T04:30:17Z</time>
      </trkpt>
      <trkpt lat="42.41585" lon="2.70836">
        <ele>1353</ele>
        <time>2018-11-26T04:30:18Z</time>
      </trkpt>
      <trkpt lat="42.41586" lon="2.70837">
        <ele>1353.5</ele>
        <time>2018-11-26T04:30:18Z</time>
      </trkpt>
      <trkpt lat="42.41587" lon="2.70838">
        <ele>1354.1</ele>
        <time>2018-11-26T04:30:18Z</time>
      </trkpt>
      <trkpt lat="42.41587" lon="2.70838">
        <ele>1354.5</ele>
        <time>2018-11-26T04:30:19Z</time>
      </trkpt>
      <trkpt lat="42.41587" lon="2.70839">
        <ele>1355</ele>
        <time>2018-11-26T04:30:19Z</time>
      </trkpt>
      <trkpt lat="42.41587" lon="2.7084">
        <ele>1355.7</ele>
        <time>2018-11-26T04:30:19Z</time>
      </trkpt>
      <trkpt lat="42.41588" lon="2.7084">
        <ele>1355.4</ele>
        <time>2018-11-26T04:30:19Z</time>
      </trkpt>
      <trkpt lat="42.41588" lon="2.70841">
        <ele>1355.1</ele>
        <time>2018-11-26T04:30:20Z</time>
      </trkpt>
      <trkpt lat="42.41588" lon="2.70841">
        <ele>1354.8</ele>
        <time>2018-11-26T04:30:20Z</time>
      </trkpt>
      <trkpt lat="42.41589" lon="2.70842">
        <ele>1355</ele>
        <time>2018-11-26T04:30:20Z</time>
      </trkpt>
      <trkpt lat="42.4159" lon="2.70843">
        <ele>1355.7</ele>
        <time>2018-11-26T04:30:20Z</time>
      </trkpt>
      <trkpt lat="42.4159" lon="2.70843">
        <ele>1355.7</ele>
        <time>2018-11-26T04:30:21Z</time>
      </trkpt>
      <trkpt lat="42.41591" lon="2.70844">
        <ele>1355.6</ele>
        <time>2018-11-26T04:30:21Z</time>
      </trkpt>
      <trkpt lat="42.41591" lon="2.70845">
        <ele>1355.5</ele>
        <time>2018-11-26T04:30:21Z</time>
      </trkpt>
      <trkpt lat="42.41592" lon="2.70846">
        <ele>1355.5</ele>
        <time>2018-11-26T04:30:22Z</time>
      </trkpt>
      <trkpt lat="42.41593" lon="2.70846">
        <ele>1355.8</ele>
        <time>2018-11-26T04:30:22Z</time>
      </trkpt>
      <trkpt lat="42.41593" lon="2.70847">
        <ele>1355.9</ele>
        <time>2018-11-26T04:30:22Z</time>
      </trkpt>
      <trkpt lat="42.41594" lon="2.70848">
        <ele>1355.7</ele>
        <time>2018-11-26T04:30:23Z</time>
      </trkpt>
      <trkpt lat="42.41594" lon="2.70849">
        <ele>1355.6</ele>
        <time>2018-11-26T04:30:23Z</time>
      </trkpt>
      <trkpt lat="42.41595" lon="2.7085">
        <ele>1355.4</ele>
        <time>2018-11-26T04:30:23Z</time>
      </trkpt>
      <trkpt lat="42.41595" lon="2.70851">
        <ele>1355.3</ele>
        <time>2018-11-26T04:30:24Z</time>
      </trkpt>
      <trkpt lat="42.41596" lon="2.70852">
        <ele>1355.1</ele>
        <time>2018-11-26T04:30:24Z</time>
      </trkpt>
      <trkpt lat="42.41596" lon="2.70854">
        <ele>1355.1</ele>
        <time>2018-11-26T04:30:25Z</time>
      </trkpt>
      <trkpt lat="42.41596" lon="2.70857">
        <ele>1355.6</ele>
        <time>2018-11-26T04:30:26Z</time>
      </trkpt>
      <trkpt lat="42.41597" lon="2.70859">
        <ele>1355.7</ele>
        <time>2018-11-26T04:30:26Z</time>
      </trkpt>
      <trkpt lat="42.41597" lon="2.70859">
        <ele>1355.6</ele>
        <time>2018-11-26T04:30:26Z</time>
      </trkpt>
      <trkpt lat="42.41597" lon="2.70859">
        <ele>1355.4</ele>
        <time>2018-11-26T04:30:26Z</time>
      </trkpt>
      <trkpt lat="42.41597" lon="2.70859">
        <ele>1355.4</ele>
        <time>2018-11-26T04:30:26Z</time>
      </trkpt>
      <trkpt lat="42.41597" lon="2.70859">
        <ele>1355.5</ele>
        <time>2018-11-26T04:30:26Z</time>
      </trkpt>
      <trkpt lat="42.41597" lon="2.70859">
        <ele>1355.7</ele>
        <time>2018-11-26T04:30:26Z</time>
      </trkpt>
      <trkpt lat="42.41597" lon="2.70859">
        <ele>1356</ele>
        <time>2018-11-26T04:30:26Z</time>
      </trkpt>
      <trkpt lat="42.41597" lon="2.70859">
        <ele>1356</ele>
        <time>2018-11-26T04:30:26Z</time>
      </trkpt>
      <trkpt lat="42.41597" lon="2.70859">
        <ele>1355.7</ele>
        <time>2018-11-26T04:30:26Z</time>
      </trkpt>
      <trkpt lat="42.41597" lon="2.70859">
        <ele>1355.5</ele>
        <time>2018-11-26T04:30:26Z</time>
      </trkpt>
      <trkpt lat="42.41597" lon="2.70859">
        <ele>1355.6</ele>
        <time>2018-11-26T04:30:27Z</time>
      </trkpt>
      <trkpt lat="42.41597" lon="2.70858">
        <ele>1355.9</ele>
        <time>2018-11-26T04:30:27Z</time>
      </trkpt>
      <trkpt lat="42.41597" lon="2.7086">
        <ele>1355.8</ele>
        <time>2018-11-26T04:30:27Z</time>
      </trkpt>
      <trkpt lat="42.41598" lon="2.70861">
        <ele>1355.6</ele>
        <time>2018-11-26T04:30:28Z</time>
      </trkpt>
      <trkpt lat="42.41598" lon="2.70862">
        <ele>1355.4</ele>
        <time>2018-11-26T04:30:28Z</time>
      </trkpt>
      <trkpt lat="42.41599" lon="2.70863">
        <ele>1355.2</ele>
        <time>2018-11-26T04:30:28Z</time>
      </trkpt>
      <trkpt lat="42.41599" lon="2.70864">
        <ele>1355</ele>
        <time>2018-11-26T04:30:29Z</time>
      </trkpt>
      <trkpt lat="42.416" lon="2.70865">
        <ele>1354.6</ele>
        <time>2018-11-26T04:30:29Z</time>
      </trkpt>
      <trkpt lat="42.41601" lon="2.7087">
        <ele>1355.2</ele>
        <time>2018-11-26T04:30:31Z</time>
      </trkpt>
      <trkpt lat="42.41602" lon="2.70871">
        <ele>1355.4</ele>
        <time>2018-11-26T04:30:31Z</time>
      </trkpt>
      <trkpt lat="42.41602" lon="2.70872">
        <ele>1355.4</ele>
        <time>2018-11-26T04:30:31Z</time>
      </trkpt>
      <trkpt lat="42.41602" lon="2.70873">
        <ele>1355.7</ele>
        <time>2018-11-26T04:30:31Z</time>
      </trkpt>
      <trkpt lat="42.41604" lon="2.70878">
        <ele>1355.7</ele>
        <time>2018-11-26T04:30:33Z</time>
      </trkpt>
      <trkpt lat="42.41605" lon="2.70879">
        <ele>1355.9</ele>
        <time>2018-11-26T04:30:34Z</time>
      </trkpt>
      <trkpt lat="42.41605" lon="2.7088">
        <ele>1355.9</ele>
        <time>2018-11-26T04:30:34Z</time>
      </trkpt>
      <trkpt lat="42.41605" lon="2.70882">
        <ele>1355.7</ele>
        <time>2018-11-26T04:30:34Z</time>
      </trkpt>
      <trkpt lat="42.41606" lon="2.70883">
        <ele>1355.3</ele>
        <time>2018-11-26T04:30:35Z</time>
      </trkpt>
      <trkpt lat="42.41606" lon="2.70884">
        <ele>1354.9</ele>
        <time>2018-11-26T04:30:35Z</time>
      </trkpt>
      <trkpt lat="42.41607" lon="2.70885">
        <ele>1354.8</ele>
        <time>2018-11-26T04:30:36Z</time>
      </trkpt>
      <trkpt lat="42.41608" lon="2.70887">
        <ele>1354.6</ele>
        <time>2018-11-26T04:30:36Z</time>
      </trkpt>
      <trkpt lat="42.41608" lon="2.70888">
        <ele>1354.4</ele>
        <time>2018-11-26T04:30:37Z</time>
      </trkpt>
      <trkpt lat="42.41609" lon="2.70889">
        <ele>1354.5</ele>
        <time>2018-11-26T04:30:37Z</time>
      </trkpt>
      <trkpt lat="42.41609" lon="2.7089">
        <ele>1354.7</ele>
        <time>2018-11-26T04:30:37Z</time>
      </trkpt>
      <trkpt lat="42.4161" lon="2.70891">
        <ele>1354.9</ele>
        <time>2018-11-26T04:30:38Z</time>
      </trkpt>
      <trkpt lat="42.4161" lon="2.70895">
        <ele>1354.9</ele>
        <time>2018-11-26T04:30:39Z</time>
      </trkpt>
      <trkpt lat="42.41611" lon="2.70896">
        <ele>1355</ele>
        <time>2018-11-26T04:30:39Z</time>
      </trkpt>
      <trkpt lat="42.41612" lon="2.70899">
        <ele>1354.7</ele>
        <time>2018-11-26T04:30:40Z</time>
      </trkpt>
      <trkpt lat="42.41612" lon="2.709">
        <ele>1354.3</ele>
        <time>2018-11-26T04:30:41Z</time>
      </trkpt>
      <trkpt lat="42.41613" lon="2.709">
        <ele>1354.3</ele>
        <time>2018-11-26T04:30:41Z</time>
      </trkpt>
      <trkpt lat="42.41613" lon="2.70901">
        <ele>1354.1</ele>
        <time>2018-11-26T04:30:41Z</time>
      </trkpt>
      <trkpt lat="42.41614" lon="2.70902">
        <ele>1354</ele>
        <time>2018-11-26T04:30:41Z</time>
      </trkpt>
      <trkpt lat="42.41614" lon="2.70903">
        <ele>1353.7</ele>
        <time>2018-11-26T04:30:42Z</time>
      </trkpt>
      <trkpt lat="42.41615" lon="2.70906">
        <ele>1354.2</ele>
        <time>2018-11-26T04:30:43Z</time>
      </trkpt>
      <trkpt lat="42.41615" lon="2.70907">
        <ele>1354.4</ele>
        <time>2018-11-26T04:30:43Z</time>
      </trkpt>
      <trkpt lat="42.41615" lon="2.70908">
        <ele>1354.5</ele>
        <time>2018-11-26T04:30:43Z</time>
      </trkpt>
      <trkpt lat="42.41615" lon="2.7091">
        <ele>1354.5</ele>
        <time>2018-11-26T04:30:44Z</time>
      </trkpt>
      <trkpt lat="42.41616" lon="2.70911">
        <ele>1354.6</ele>
        <time>2018-11-26T04:30:44Z</time>
      </trkpt>
      <trkpt lat="42.41616" lon="2.70913">
        <ele>1354.3</ele>
        <time>2018-11-26T04:30:45Z</time>
      </trkpt>
      <trkpt lat="42.41616" lon="2.70915">
        <ele>1354</ele>
        <time>2018-11-26T04:30:45Z</time>
      </trkpt>
      <trkpt lat="42.41616" lon="2.70916">
        <ele>1354</ele>
        <time>2018-11-26T04:30:46Z</time>
      </trkpt>
      <trkpt lat="42.41616" lon="2.70917">
        <ele>1353.9</ele>
        <time>2018-11-26T04:30:46Z</time>
      </trkpt>
      <trkpt lat="42.41617" lon="2.70918">
        <ele>1353.8</ele>
        <time>2018-11-26T04:30:46Z</time>
      </trkpt>
      <trkpt lat="42.41617" lon="2.7092">
        <ele>1353.6</ele>
        <time>2018-11-26T04:30:47Z</time>
      </trkpt>
      <trkpt lat="42.41617" lon="2.7092">
        <ele>1353.7</ele>
        <time>2018-11-26T04:30:47Z</time>
      </trkpt>
      <trkpt lat="42.41618" lon="2.70922">
        <ele>1353.6</ele>
        <time>2018-11-26T04:30:48Z</time>
      </trkpt>
      <trkpt lat="42.41618" lon="2.70923">
        <ele>1353.5</ele>
        <time>2018-11-26T04:30:48Z</time>
      </trkpt>
      <trkpt lat="42.41618" lon="2.70924">
        <ele>1353.6</ele>
        <time>2018-11-26T04:30:48Z</time>
      </trkpt>
      <trkpt lat="42.41619" lon="2.70925">
        <ele>1353.4</ele>
        <time>2018-11-26T04:30:49Z</time>
      </trkpt>
      <trkpt lat="42.41619" lon="2.70926">
        <ele>1353.4</ele>
        <time>2018-11-26T04:30:49Z</time>
      </trkpt>
      <trkpt lat="42.41619" lon="2.70928">
        <ele>1353.4</ele>
        <time>2018-11-26T04:30:49Z</time>
      </trkpt>
      <trkpt lat="42.41619" lon="2.70929">
        <ele>1353.3</ele>
        <time>2018-11-26T04:30:50Z</time>
      </trkpt>
      <trkpt lat="42.41619" lon="2.7093">
        <ele>1353.2</ele>
        <time>2018-11-26T04:30:50Z</time>
      </trkpt>
      <trkpt lat="42.4162" lon="2.70931">
        <ele>1353.3</ele>
        <time>2018-11-26T04:30:51Z</time>
      </trkpt>
      <trkpt lat="42.4162" lon="2.70932">
        <ele>1353.3</ele>
        <time>2018-11-26T04:30:51Z</time>
      </trkpt>
      <trkpt lat="42.4162" lon="2.70933">
        <ele>1353.3</ele>
        <time>2018-11-26T04:30:51Z</time>
      </trkpt>
      <trkpt lat="42.4162" lon="2.70934">
        <ele>1353.2</ele>
        <time>2018-11-26T04:30:51Z</time>
      </trkpt>
      <trkpt lat="42.4162" lon="2.70935">
        <ele>1353.2</ele>
        <time>2018-11-26T04:30:52Z</time>
      </trkpt>
      <trkpt lat="42.41621" lon="2.70935">
        <ele>1353.2</ele>
        <time>2018-11-26T04:30:52Z</time>
      </trkpt>
      <trkpt lat="42.41621" lon="2.70936">
        <ele>1353</ele>
        <time>2018-11-26T04:30:52Z</time>
      </trkpt>
      <trkpt lat="42.41621" lon="2.70937">
        <ele>1353</ele>
        <time>2018-11-26T04:30:52Z</time>
      </trkpt>
      <trkpt lat="42.41621" lon="2.70938">
        <ele>1352.8</ele>
        <time>2018-11-26T04:30:53Z</time>
      </trkpt>
      <trkpt lat="42.41621" lon="2.70939">
        <ele>1352.9</ele>
        <time>2018-11-26T04:30:53Z</time>
      </trkpt>
      <trkpt lat="42.41621" lon="2.7094">
        <ele>1353</ele>
        <time>2018-11-26T04:30:53Z</time>
      </trkpt>
      <trkpt lat="42.41621" lon="2.70941">
        <ele>1353.3</ele>
        <time>2018-11-26T04:30:54Z</time>
      </trkpt>
      <trkpt lat="42.41621" lon="2.70942">
        <ele>1353.4</ele>
        <time>2018-11-26T04:30:54Z</time>
      </trkpt>
      <trkpt lat="42.41621" lon="2.70943">
        <ele>1353.4</ele>
        <time>2018-11-26T04:30:54Z</time>
      </trkpt>
      <trkpt lat="42.41621" lon="2.70944">
        <ele>1353.4</ele>
        <time>2018-11-26T04:30:54Z</time>
      </trkpt>
      <trkpt lat="42.41621" lon="2.70945">
        <ele>1353.4</ele>
        <time>2018-11-26T04:30:55Z</time>
      </trkpt>
      <trkpt lat="42.41621" lon="2.70946">
        <ele>1353.5</ele>
        <time>2018-11-26T04:30:55Z</time>
      </trkpt>
      <trkpt lat="42.41621" lon="2.70947">
        <ele>1353.2</ele>
        <time>2018-11-26T04:30:55Z</time>
      </trkpt>
      <trkpt lat="42.41621" lon="2.70947">
        <ele>1353.2</ele>
        <time>2018-11-26T04:30:55Z</time>
      </trkpt>
      <trkpt lat="42.41622" lon="2.70948">
        <ele>1353.1</ele>
        <time>2018-11-26T04:30:56Z</time>
      </trkpt>
      <trkpt lat="42.41622" lon="2.70949">
        <ele>1353.1</ele>
        <time>2018-11-26T04:30:56Z</time>
      </trkpt>
      <trkpt lat="42.41622" lon="2.7095">
        <ele>1353</ele>
        <time>2018-11-26T04:30:56Z</time>
      </trkpt>
      <trkpt lat="42.41622" lon="2.70951">
        <ele>1353.2</ele>
        <time>2018-11-26T04:30:57Z</time>
      </trkpt>
      <trkpt lat="42.41622" lon="2.70951">
        <ele>1353.4</ele>
        <time>2018-11-26T04:30:57Z</time>
      </trkpt>
      <trkpt lat="42.41622" lon="2.70951">
        <ele>1353.8</ele>
        <time>2018-11-26T04:30:57Z</time>
      </trkpt>
      <trkpt lat="42.41622" lon="2.70952">
        <ele>1353.7</ele>
        <time>2018-11-26T04:30:57Z</time>
      </trkpt>
      <trkpt lat="42.41622" lon="2.70952">
        <ele>1353.4</ele>
        <time>2018-11-26T04:30:57Z</time>
      </trkpt>
      <trkpt lat="42.41622" lon="2.70953">
        <ele>1353.1</ele>
        <time>2018-11-26T04:30:57Z</time>
      </trkpt>
      <trkpt lat="42.41622" lon="2.70954">
        <ele>1352.8</ele>
        <time>2018-11-26T04:30:57Z</time>
      </trkpt>
      <trkpt lat="42.41622" lon="2.70955">
        <ele>1352.9</ele>
        <time>2018-11-26T04:30:58Z</time>
      </trkpt>
      <trkpt lat="42.41622" lon="2.70955">
        <ele>1352.8</ele>
        <time>2018-11-26T04:30:58Z</time>
      </trkpt>
      <trkpt lat="42.41622" lon="2.70956">
        <ele>1352.7</ele>
        <time>2018-11-26T04:30:58Z</time>
      </trkpt>
      <trkpt lat="42.41622" lon="2.70957">
        <ele>1352.8</ele>
        <time>2018-11-26T04:30:58Z</time>
      </trkpt>
      <trkpt lat="42.41622" lon="2.70958">
        <ele>1353</ele>
        <time>2018-11-26T04:30:59Z</time>
      </trkpt>
      <trkpt lat="42.41622" lon="2.70959">
        <ele>1353.2</ele>
        <time>2018-11-26T04:30:59Z</time>
      </trkpt>
      <trkpt lat="42.41622" lon="2.70959">
        <ele>1353.2</ele>
        <time>2018-11-26T04:30:59Z</time>
      </trkpt>
      <trkpt lat="42.41622" lon="2.7096">
        <ele>1353.2</ele>
        <time>2018-11-26T04:30:59Z</time>
      </trkpt>
      <trkpt lat="42.41622" lon="2.70961">
        <ele>1353.1</ele>
        <time>2018-11-26T04:31:00Z</time>
      </trkpt>
      <trkpt lat="42.41622" lon="2.70962">
        <ele>1353</ele>
        <time>2018-11-26T04:31:00Z</time>
      </trkpt>
      <trkpt lat="42.41622" lon="2.70962">
        <ele>1352.9</ele>
        <time>2018-11-26T04:31:00Z</time>
      </trkpt>
      <trkpt lat="42.41622" lon="2.70963">
        <ele>1352.7</ele>
        <time>2018-11-26T04:31:00Z</time>
      </trkpt>
      <trkpt lat="42.41622" lon="2.70964">
        <ele>1352.7</ele>
        <time>2018-11-26T04:31:00Z</time>
      </trkpt>
      <trkpt lat="42.41622" lon="2.70965">
        <ele>1352.8</ele>
        <time>2018-11-26T04:31:01Z</time>
      </trkpt>
      <trkpt lat="42.41622" lon="2.70965">
        <ele>1352.9</ele>
        <time>2018-11-26T04:31:01Z</time>
      </trkpt>
      <trkpt lat="42.41622" lon="2.70965">
        <ele>1352.8</ele>
        <time>2018-11-26T04:31:01Z</time>
      </trkpt>
      <trkpt lat="42.41622" lon="2.70966">
        <ele>1352.6</ele>
        <time>2018-11-26T04:31:01Z</time>
      </trkpt>
      <trkpt lat="42.41622" lon="2.70966">
        <ele>1352.2</ele>
        <time>2018-11-26T04:31:01Z</time>
      </trkpt>
      <trkpt lat="42.41622" lon="2.70967">
        <ele>1351.9</ele>
        <time>2018-11-26T04:31:01Z</time>
      </trkpt>
      <trkpt lat="42.41622" lon="2.70967">
        <ele>1352</ele>
        <time>2018-11-26T04:31:02Z</time>
      </trkpt>
      <trkpt lat="42.41623" lon="2.70968">
        <ele>1352.2</ele>
        <time>2018-11-26T04:31:02Z</time>
      </trkpt>
      <trkpt lat="42.41623" lon="2.70968">
        <ele>1352.4</ele>
        <time>2018-11-26T04:31:02Z</time>
      </trkpt>
      <trkpt lat="42.41623" lon="2.70969">
        <ele>1352.1</ele>
        <time>2018-11-26T04:31:02Z</time>
      </trkpt>
      <trkpt lat="42.41623" lon="2.7097">
        <ele>1351.9</ele>
        <time>2018-11-26T04:31:02Z</time>
      </trkpt>
      <trkpt lat="42.41624" lon="2.70971">
        <ele>1351.6</ele>
        <time>2018-11-26T04:31:03Z</time>
      </trkpt>
      <trkpt lat="42.41624" lon="2.70972">
        <ele>1351.6</ele>
        <time>2018-11-26T04:31:03Z</time>
      </trkpt>
      <trkpt lat="42.41624" lon="2.70973">
        <ele>1351.6</ele>
        <time>2018-11-26T04:31:04Z</time>
      </trkpt>
      <trkpt lat="42.41624" lon="2.70974">
        <ele>1351.7</ele>
        <time>2018-11-26T04:31:04Z</time>
      </trkpt>
      <trkpt lat="42.41624" lon="2.70975">
        <ele>1351.2</ele>
        <time>2018-11-26T04:31:04Z</time>
      </trkpt>
      <trkpt lat="42.41624" lon="2.70976">
        <ele>1350.8</ele>
        <time>2018-11-26T04:31:04Z</time>
      </trkpt>
      <trkpt lat="42.41624" lon="2.70977">
        <ele>1350.1</ele>
        <time>2018-11-26T04:31:05Z</time>
      </trkpt>
      <trkpt lat="42.41624" lon="2.70979">
        <ele>1349.9</ele>
        <time>2018-11-26T04:31:05Z</time>
      </trkpt>
      <trkpt lat="42.41624" lon="2.7098">
        <ele>1349.9</ele>
        <time>2018-11-26T04:31:06Z</time>
      </trkpt>
      <trkpt lat="42.41624" lon="2.70981">
        <ele>1349.8</ele>
        <time>2018-11-26T04:31:06Z</time>
      </trkpt>
      <trkpt lat="42.41625" lon="2.70982">
        <ele>1349.5</ele>
        <time>2018-11-26T04:31:06Z</time>
      </trkpt>
      <trkpt lat="42.41625" lon="2.70983">
        <ele>1349.4</ele>
        <time>2018-11-26T04:31:06Z</time>
      </trkpt>
      <trkpt lat="42.41625" lon="2.70984">
        <ele>1348.9</ele>
        <time>2018-11-26T04:31:07Z</time>
      </trkpt>
      <trkpt lat="42.41625" lon="2.70985">
        <ele>1349</ele>
        <time>2018-11-26T04:31:07Z</time>
      </trkpt>
      <trkpt lat="42.41625" lon="2.70986">
        <ele>1349</ele>
        <time>2018-11-26T04:31:07Z</time>
      </trkpt>
      <trkpt lat="42.41625" lon="2.70987">
        <ele>1349</ele>
        <time>2018-11-26T04:31:08Z</time>
      </trkpt>
      <trkpt lat="42.41626" lon="2.70988">
        <ele>1348.9</ele>
        <time>2018-11-26T04:31:08Z</time>
      </trkpt>
      <trkpt lat="42.41626" lon="2.70989">
        <ele>1348.7</ele>
        <time>2018-11-26T04:31:08Z</time>
      </trkpt>
      <trkpt lat="42.41626" lon="2.7099">
        <ele>1348.6</ele>
        <time>2018-11-26T04:31:08Z</time>
      </trkpt>
      <trkpt lat="42.41626" lon="2.70991">
        <ele>1348.8</ele>
        <time>2018-11-26T04:31:09Z</time>
      </trkpt>
      <trkpt lat="42.41626" lon="2.70991">
        <ele>1349.1</ele>
        <time>2018-11-26T04:31:09Z</time>
      </trkpt>
      <trkpt lat="42.41626" lon="2.70992">
        <ele>1349.6</ele>
        <time>2018-11-26T04:31:09Z</time>
      </trkpt>
      <trkpt lat="42.41626" lon="2.70993">
        <ele>1349.6</ele>
        <time>2018-11-26T04:31:10Z</time>
      </trkpt>
      <trkpt lat="42.41626" lon="2.70993">
        <ele>1349.6</ele>
        <time>2018-11-26T04:31:10Z</time>
      </trkpt>
      <trkpt lat="42.41626" lon="2.70993">
        <ele>1349.8</ele>
        <time>2018-11-26T04:31:10Z</time>
      </trkpt>
      <trkpt lat="42.41626" lon="2.70993">
        <ele>1349.9</ele>
        <time>2018-11-26T04:31:10Z</time>
      </trkpt>
      <trkpt lat="42.41626" lon="2.70993">
        <ele>1349.6</ele>
        <time>2018-11-26T04:31:10Z</time>
      </trkpt>
      <trkpt lat="42.41626" lon="2.70994">
        <ele>1349.2</ele>
        <time>2018-11-26T04:31:10Z</time>
      </trkpt>
      <trkpt lat="42.41627" lon="2.70994">
        <ele>1348.7</ele>
        <time>2018-11-26T04:31:10Z</time>
      </trkpt>
      <trkpt lat="42.41627" lon="2.70995">
        <ele>1348.5</ele>
        <time>2018-11-26T04:31:10Z</time>
      </trkpt>
      <trkpt lat="42.41627" lon="2.70995">
        <ele>1348.3</ele>
        <time>2018-11-26T04:31:10Z</time>
      </trkpt>
      <trkpt lat="42.41627" lon="2.70996">
        <ele>1348.1</ele>
        <time>2018-11-26T04:31:11Z</time>
      </trkpt>
      <trkpt lat="42.41628" lon="2.70996">
        <ele>1348.2</ele>
        <time>2018-11-26T04:31:11Z</time>
      </trkpt>
      <trkpt lat="42.41628" lon="2.70996">
        <ele>1348.2</ele>
        <time>2018-11-26T04:31:11Z</time>
      </trkpt>
      <trkpt lat="42.41628" lon="2.70996">
        <ele>1348.1</ele>
        <time>2018-11-26T04:31:11Z</time>
      </trkpt>
      <trkpt lat="42.41628" lon="2.70996">
        <ele>1348</ele>
        <time>2018-11-26T04:31:11Z</time>
      </trkpt>
      <trkpt lat="42.41628" lon="2.70996">
        <ele>1347.7</ele>
        <time>2018-11-26T04:31:11Z</time>
      </trkpt>
      <trkpt lat="42.41628" lon="2.70996">
        <ele>1347.5</ele>
        <time>2018-11-26T04:31:11Z</time>
      </trkpt>
      <trkpt lat="42.41628" lon="2.70996">
        <ele>1347.5</ele>
        <time>2018-11-26T04:31:11Z</time>
      </trkpt>
      <trkpt lat="42.41628" lon="2.70996">
        <ele>1347.6</ele>
        <time>2018-11-26T04:31:11Z</time>
      </trkpt>
      <trkpt lat="42.41628" lon="2.70997">
        <ele>1347.7</ele>
        <time>2018-11-26T04:31:11Z</time>
      </trkpt>
      <trkpt lat="42.41629" lon="2.70997">
        <ele>1347.8</ele>
        <time>2018-11-26T04:31:11Z</time>
      </trkpt>
      <trkpt lat="42.41629" lon="2.70998">
        <ele>1348.1</ele>
        <time>2018-11-26T04:31:12Z</time>
      </trkpt>
      <trkpt lat="42.41629" lon="2.70999">
        <ele>1348.3</ele>
        <time>2018-11-26T04:31:12Z</time>
      </trkpt>
      <trkpt lat="42.41629" lon="2.71">
        <ele>1348.6</ele>
        <time>2018-11-26T04:31:12Z</time>
      </trkpt>
      <trkpt lat="42.4163" lon="2.71003">
        <ele>1348.6</ele>
        <time>2018-11-26T04:31:13Z</time>
      </trkpt>
      <trkpt lat="42.4163" lon="2.71006">
        <ele>1348.4</ele>
        <time>2018-11-26T04:31:14Z</time>
      </trkpt>
      <trkpt lat="42.4163" lon="2.71007">
        <ele>1348</ele>
        <time>2018-11-26T04:31:14Z</time>
      </trkpt>
      <trkpt lat="42.4163" lon="2.7101">
        <ele>1347.6</ele>
        <time>2018-11-26T04:31:15Z</time>
      </trkpt>
      <trkpt lat="42.41631" lon="2.71012">
        <ele>1347.5</ele>
        <time>2018-11-26T04:31:16Z</time>
      </trkpt>
      <trkpt lat="42.41631" lon="2.71013">
        <ele>1347.6</ele>
        <time>2018-11-26T04:31:16Z</time>
      </trkpt>
      <trkpt lat="42.41631" lon="2.71014">
        <ele>1347.7</ele>
        <time>2018-11-26T04:31:16Z</time>
      </trkpt>
      <trkpt lat="42.41631" lon="2.71015">
        <ele>1347.8</ele>
        <time>2018-11-26T04:31:17Z</time>
      </trkpt>
      <trkpt lat="42.41631" lon="2.71016">
        <ele>1347.7</ele>
        <time>2018-11-26T04:31:17Z</time>
      </trkpt>
      <trkpt lat="42.41632" lon="2.71017">
        <ele>1347.9</ele>
        <time>2018-11-26T04:31:17Z</time>
      </trkpt>
      <trkpt lat="42.41632" lon="2.71017">
        <ele>1348</ele>
        <time>2018-11-26T04:31:17Z</time>
      </trkpt>
      <trkpt lat="42.41632" lon="2.71018">
        <ele>1348.5</ele>
        <time>2018-11-26T04:31:18Z</time>
      </trkpt>
      <trkpt lat="42.41632" lon="2.71018">
        <ele>1348.8</ele>
        <time>2018-11-26T04:31:18Z</time>
      </trkpt>
      <trkpt lat="42.41632" lon="2.71019">
        <ele>1348.7</ele>
        <time>2018-11-26T04:31:18Z</time>
      </trkpt>
      <trkpt lat="42.41632" lon="2.71019">
        <ele>1348.5</ele>
        <time>2018-11-26T04:31:18Z</time>
      </trkpt>
      <trkpt lat="42.41632" lon="2.7102">
        <ele>1348.3</ele>
        <time>2018-11-26T04:31:18Z</time>
      </trkpt>
      <trkpt lat="42.41632" lon="2.7102">
        <ele>1348.5</ele>
        <time>2018-11-26T04:31:18Z</time>
      </trkpt>
      <trkpt lat="42.41632" lon="2.7102">
        <ele>1348.6</ele>
        <time>2018-11-26T04:31:18Z</time>
      </trkpt>
      <trkpt lat="42.41632" lon="2.7102">
        <ele>1348.9</ele>
        <time>2018-11-26T04:31:18Z</time>
      </trkpt>
      <trkpt lat="42.41632" lon="2.7102">
        <ele>1348.9</ele>
        <time>2018-11-26T04:31:18Z</time>
      </trkpt>
      <trkpt lat="42.41632" lon="2.71021">
        <ele>1348.9</ele>
        <time>2018-11-26T04:31:19Z</time>
      </trkpt>
      <trkpt lat="42.41632" lon="2.71021">
        <ele>1348.7</ele>
        <time>2018-11-26T04:31:19Z</time>
      </trkpt>
      <trkpt lat="42.41632" lon="2.71021">
        <ele>1348.9</ele>
        <time>2018-11-26T04:31:19Z</time>
      </trkpt>
      <trkpt lat="42.41632" lon="2.71021">
        <ele>1349</ele>
        <time>2018-11-26T04:31:19Z</time>
      </trkpt>
      <trkpt lat="42.41632" lon="2.71021">
        <ele>1349</ele>
        <time>2018-11-26T04:31:19Z</time>
      </trkpt>
      <trkpt lat="42.41632" lon="2.71022">
        <ele>1349.2</ele>
        <time>2018-11-26T04:31:19Z</time>
      </trkpt>
      <trkpt lat="42.41632" lon="2.71022">
        <ele>1349.3</ele>
        <time>2018-11-26T04:31:19Z</time>
      </trkpt>
      <trkpt lat="42.41632" lon="2.71023">
        <ele>1349.6</ele>
        <time>2018-11-26T04:31:19Z</time>
      </trkpt>
      <trkpt lat="42.41632" lon="2.71024">
        <ele>1349.7</ele>
        <time>2018-11-26T04:31:20Z</time>
      </trkpt>
      <trkpt lat="42.41632" lon="2.71025">
        <ele>1349.5</ele>
        <time>2018-11-26T04:31:20Z</time>
      </trkpt>
      <trkpt lat="42.41632" lon="2.71026">
        <ele>1349.5</ele>
        <time>2018-11-26T04:31:20Z</time>
      </trkpt>
      <trkpt lat="42.41632" lon="2.71027">
        <ele>1349.2</ele>
        <time>2018-11-26T04:31:21Z</time>
      </trkpt>
      <trkpt lat="42.41632" lon="2.71028">
        <ele>1349.4</ele>
        <time>2018-11-26T04:31:21Z</time>
      </trkpt>
      <trkpt lat="42.41633" lon="2.71029">
        <ele>1349.4</ele>
        <time>2018-11-26T04:31:21Z</time>
      </trkpt>
      <trkpt lat="42.41633" lon="2.7103">
        <ele>1349.5</ele>
        <time>2018-11-26T04:31:21Z</time>
      </trkpt>
      <trkpt lat="42.41633" lon="2.71031">
        <ele>1349.4</ele>
        <time>2018-11-26T04:31:22Z</time>
      </trkpt>
      <trkpt lat="42.41634" lon="2.71034">
        <ele>1349.2</ele>
        <time>2018-11-26T04:31:23Z</time>
      </trkpt>
      <trkpt lat="42.41634" lon="2.71036">
        <ele>1349.3</ele>
        <time>2018-11-26T04:31:23Z</time>
      </trkpt>
      <trkpt lat="42.41636" lon="2.71043">
        <ele>1349.9</ele>
        <time>2018-11-26T04:31:25Z</time>
      </trkpt>
      <trkpt lat="42.41636" lon="2.71044">
        <ele>1350.2</ele>
        <time>2018-11-26T04:31:26Z</time>
      </trkpt>
      <trkpt lat="42.41636" lon="2.71045">
        <ele>1350.3</ele>
        <time>2018-11-26T04:31:26Z</time>
      </trkpt>
      <trkpt lat="42.41636" lon="2.71046">
        <ele>1350.5</ele>
        <time>2018-11-26T04:31:26Z</time>
      </trkpt>
      <trkpt lat="42.41637" lon="2.71047">
        <ele>1350.8</ele>
        <time>2018-11-26T04:31:27Z</time>
      </trkpt>
      <trkpt lat="42.41637" lon="2.71048">
        <ele>1350.8</ele>
        <time>2018-11-26T04:31:27Z</time>
      </trkpt>
      <trkpt lat="42.41637" lon="2.7105">
        <ele>1350.8</ele>
        <time>2018-11-26T04:31:28Z</time>
      </trkpt>
      <trkpt lat="42.41637" lon="2.71051">
        <ele>1350.9</ele>
        <time>2018-11-26T04:31:28Z</time>
      </trkpt>
      <trkpt lat="42.41637" lon="2.71052">
        <ele>1351</ele>
        <time>2018-11-26T04:31:28Z</time>
      </trkpt>
      <trkpt lat="42.41638" lon="2.71053">
        <ele>1350.9</ele>
        <time>2018-11-26T04:31:29Z</time>
      </trkpt>
      <trkpt lat="42.41638" lon="2.71054">
        <ele>1351</ele>
        <time>2018-11-26T04:31:29Z</time>
      </trkpt>
      <trkpt lat="42.41638" lon="2.71056">
        <ele>1351.2</ele>
        <time>2018-11-26T04:31:29Z</time>
      </trkpt>
      <trkpt lat="42.41639" lon="2.71058">
        <ele>1352.2</ele>
        <time>2018-11-26T04:31:30Z</time>
      </trkpt>
      <trkpt lat="42.41639" lon="2.71059">
        <ele>1352.1</ele>
        <time>2018-11-26T04:31:31Z</time>
      </trkpt>
      <trkpt lat="42.4164" lon="2.7106">
        <ele>1351.9</ele>
        <time>2018-11-26T04:31:31Z</time>
      </trkpt>
      <trkpt lat="42.41641" lon="2.71062">
        <ele>1351.7</ele>
        <time>2018-11-26T04:31:32Z</time>
      </trkpt>
      <trkpt lat="42.41641" lon="2.71063">
        <ele>1351.6</ele>
        <time>2018-11-26T04:31:32Z</time>
      </trkpt>
      <trkpt lat="42.41642" lon="2.71065">
        <ele>1351.5</ele>
        <time>2018-11-26T04:31:32Z</time>
      </trkpt>
      <trkpt lat="42.41642" lon="2.71066">
        <ele>1351.5</ele>
        <time>2018-11-26T04:31:33Z</time>
      </trkpt>
      <trkpt lat="42.41643" lon="2.71067">
        <ele>1351.6</ele>
        <time>2018-11-26T04:31:33Z</time>
      </trkpt>
      <trkpt lat="42.41644" lon="2.71068">
        <ele>1352</ele>
        <time>2018-11-26T04:31:34Z</time>
      </trkpt>
      <trkpt lat="42.41644" lon="2.71071">
        <ele>1352.6</ele>
        <time>2018-11-26T04:31:35Z</time>
      </trkpt>
      <trkpt lat="42.41645" lon="2.71072">
        <ele>1352.8</ele>
        <time>2018-11-26T04:31:35Z</time>
      </trkpt>
      <trkpt lat="42.41645" lon="2.71074">
        <ele>1352.9</ele>
        <time>2018-11-26T04:31:36Z</time>
      </trkpt>
      <trkpt lat="42.41646" lon="2.71075">
        <ele>1352.9</ele>
        <time>2018-11-26T04:31:36Z</time>
      </trkpt>
      <trkpt lat="42.41646" lon="2.71076">
        <ele>1352.8</ele>
        <time>2018-11-26T04:31:36Z</time>
      </trkpt>
      <trkpt lat="42.41646" lon="2.71077">
        <ele>1352.9</ele>
        <time>2018-11-26T04:31:37Z</time>
      </trkpt>
      <trkpt lat="42.41647" lon="2.71078">
        <ele>1353.3</ele>
        <time>2018-11-26T04:31:37Z</time>
      </trkpt>
      <trkpt lat="42.41647" lon="2.71079">
        <ele>1353.8</ele>
        <time>2018-11-26T04:31:37Z</time>
      </trkpt>
      <trkpt lat="42.41648" lon="2.71079">
        <ele>1354.6</ele>
        <time>2018-11-26T04:31:38Z</time>
      </trkpt>
      <trkpt lat="42.41648" lon="2.7108">
        <ele>1354.5</ele>
        <time>2018-11-26T04:31:38Z</time>
      </trkpt>
      <trkpt lat="42.41649" lon="2.7108">
        <ele>1354.2</ele>
        <time>2018-11-26T04:31:38Z</time>
      </trkpt>
      <trkpt lat="42.41649" lon="2.71081">
        <ele>1353.9</ele>
        <time>2018-11-26T04:31:38Z</time>
      </trkpt>
      <trkpt lat="42.41649" lon="2.71081">
        <ele>1354.1</ele>
        <time>2018-11-26T04:31:38Z</time>
      </trkpt>
      <trkpt lat="42.41649" lon="2.71081">
        <ele>1354.3</ele>
        <time>2018-11-26T04:31:38Z</time>
      </trkpt>
      <trkpt lat="42.41649" lon="2.71082">
        <ele>1354.6</ele>
        <time>2018-11-26T04:31:39Z</time>
      </trkpt>
      <trkpt lat="42.41649" lon="2.71082">
        <ele>1354.5</ele>
        <time>2018-11-26T04:31:39Z</time>
      </trkpt>
      <trkpt lat="42.41649" lon="2.71082">
        <ele>1354.4</ele>
        <time>2018-11-26T04:31:39Z</time>
      </trkpt>
      <trkpt lat="42.41649" lon="2.71082">
        <ele>1354.3</ele>
        <time>2018-11-26T04:31:39Z</time>
      </trkpt>
      <trkpt lat="42.41649" lon="2.71082">
        <ele>1354.2</ele>
        <time>2018-11-26T04:31:39Z</time>
      </trkpt>
      <trkpt lat="42.41649" lon="2.71082">
        <ele>1354.3</ele>
        <time>2018-11-26T04:31:39Z</time>
      </trkpt>
      <trkpt lat="42.41649" lon="2.71082">
        <ele>1354.4</ele>
        <time>2018-11-26T04:31:39Z</time>
      </trkpt>
      <trkpt lat="42.41649" lon="2.71082">
        <ele>1354.3</ele>
        <time>2018-11-26T04:31:39Z</time>
      </trkpt>
      <trkpt lat="42.41649" lon="2.71082">
        <ele>1354.1</ele>
        <time>2018-11-26T04:31:39Z</time>
      </trkpt>
      <trkpt lat="42.41649" lon="2.71082">
        <ele>1353.8</ele>
        <time>2018-11-26T04:31:39Z</time>
      </trkpt>
      <trkpt lat="42.41649" lon="2.71082">
        <ele>1353.4</ele>
        <time>2018-11-26T04:31:39Z</time>
      </trkpt>
      <trkpt lat="42.41649" lon="2.71082">
        <ele>1353.8</ele>
        <time>2018-11-26T04:31:39Z</time>
      </trkpt>
      <trkpt lat="42.41649" lon="2.71082">
        <ele>1354.4</ele>
        <time>2018-11-26T04:31:39Z</time>
      </trkpt>
      <trkpt lat="42.41649" lon="2.71082">
        <ele>1355.2</ele>
        <time>2018-11-26T04:31:39Z</time>
      </trkpt>
      <trkpt lat="42.41649" lon="2.71082">
        <ele>1355</ele>
        <time>2018-11-26T04:31:39Z</time>
      </trkpt>
      <trkpt lat="42.41649" lon="2.71082">
        <ele>1354.8</ele>
        <time>2018-11-26T04:31:39Z</time>
      </trkpt>
      <trkpt lat="42.41648" lon="2.71083">
        <ele>1354.4</ele>
        <time>2018-11-26T04:31:39Z</time>
      </trkpt>
      <trkpt lat="42.41648" lon="2.71083">
        <ele>1354.5</ele>
        <time>2018-11-26T04:31:39Z</time>
      </trkpt>
      <trkpt lat="42.41648" lon="2.71084">
        <ele>1354.5</ele>
        <time>2018-11-26T04:31:39Z</time>
      </trkpt>
      <trkpt lat="42.41648" lon="2.71084">
        <ele>1354.4</ele>
        <time>2018-11-26T04:31:40Z</time>
      </trkpt>
      <trkpt lat="42.41648" lon="2.71086">
        <ele>1354</ele>
        <time>2018-11-26T04:31:40Z</time>
      </trkpt>
      <trkpt lat="42.41648" lon="2.71087">
        <ele>1353.6</ele>
        <time>2018-11-26T04:31:40Z</time>
      </trkpt>
      <trkpt lat="42.4165" lon="2.71089">
        <ele>1353.1</ele>
        <time>2018-11-26T04:31:41Z</time>
      </trkpt>
      <trkpt lat="42.41651" lon="2.71092">
        <ele>1353.6</ele>
        <time>2018-11-26T04:31:42Z</time>
      </trkpt>
      <trkpt lat="42.41652" lon="2.71093">
        <ele>1353.5</ele>
        <time>2018-11-26T04:31:43Z</time>
      </trkpt>
      <trkpt lat="42.41652" lon="2.71094">
        <ele>1353.7</ele>
        <time>2018-11-26T04:31:43Z</time>
      </trkpt>
      <trkpt lat="42.41653" lon="2.71094">
        <ele>1353.7</ele>
        <time>2018-11-26T04:31:43Z</time>
      </trkpt>
      <trkpt lat="42.41653" lon="2.71095">
        <ele>1353.5</ele>
        <time>2018-11-26T04:31:44Z</time>
      </trkpt>
      <trkpt lat="42.41654" lon="2.71097">
        <ele>1353.5</ele>
        <time>2018-11-26T04:31:44Z</time>
      </trkpt>
      <trkpt lat="42.41654" lon="2.71098">
        <ele>1353.1</ele>
        <time>2018-11-26T04:31:45Z</time>
      </trkpt>
      <trkpt lat="42.41655" lon="2.71099">
        <ele>1353</ele>
        <time>2018-11-26T04:31:45Z</time>
      </trkpt>
      <trkpt lat="42.41656" lon="2.711">
        <ele>1352.9</ele>
        <time>2018-11-26T04:31:45Z</time>
      </trkpt>
      <trkpt lat="42.41657" lon="2.71101">
        <ele>1352.7</ele>
        <time>2018-11-26T04:31:46Z</time>
      </trkpt>
      <trkpt lat="42.41657" lon="2.71101">
        <ele>1353</ele>
        <time>2018-11-26T04:31:46Z</time>
      </trkpt>
      <trkpt lat="42.41659" lon="2.71104">
        <ele>1353.4</ele>
        <time>2018-11-26T04:31:47Z</time>
      </trkpt>
      <trkpt lat="42.4166" lon="2.71106">
        <ele>1353.9</ele>
        <time>2018-11-26T04:31:48Z</time>
      </trkpt>
      <trkpt lat="42.41661" lon="2.71107">
        <ele>1354.2</ele>
        <time>2018-11-26T04:31:48Z</time>
      </trkpt>
      <trkpt lat="42.41661" lon="2.71107">
        <ele>1354</ele>
        <time>2018-11-26T04:31:49Z</time>
      </trkpt>
      <trkpt lat="42.41662" lon="2.71108">
        <ele>1353.9</ele>
        <time>2018-11-26T04:31:49Z</time>
      </trkpt>
      <trkpt lat="42.41664" lon="2.7111">
        <ele>1353.5</ele>
        <time>2018-11-26T04:31:50Z</time>
      </trkpt>
      <trkpt lat="42.41664" lon="2.71111">
        <ele>1353.4</ele>
        <time>2018-11-26T04:31:50Z</time>
      </trkpt>
      <trkpt lat="42.41664" lon="2.71112">
        <ele>1353.4</ele>
        <time>2018-11-26T04:31:50Z</time>
      </trkpt>
      <trkpt lat="42.41664" lon="2.71113">
        <ele>1353.5</ele>
        <time>2018-11-26T04:31:51Z</time>
      </trkpt>
      <trkpt lat="42.41665" lon="2.71114">
        <ele>1353.5</ele>
        <time>2018-11-26T04:31:51Z</time>
      </trkpt>
      <trkpt lat="42.41665" lon="2.71114">
        <ele>1353.5</ele>
        <time>2018-11-26T04:31:51Z</time>
      </trkpt>
      <trkpt lat="42.41666" lon="2.71115">
        <ele>1353.5</ele>
        <time>2018-11-26T04:31:52Z</time>
      </trkpt>
      <trkpt lat="42.41667" lon="2.71115">
        <ele>1353.3</ele>
        <time>2018-11-26T04:31:52Z</time>
      </trkpt>
      <trkpt lat="42.41667" lon="2.71115">
        <ele>1353.1</ele>
        <time>2018-11-26T04:31:52Z</time>
      </trkpt>
      <trkpt lat="42.41668" lon="2.71115">
        <ele>1352.8</ele>
        <time>2018-11-26T04:31:52Z</time>
      </trkpt>
      <trkpt lat="42.41667" lon="2.71115">
        <ele>1353.1</ele>
        <time>2018-11-26T04:31:52Z</time>
      </trkpt>
      <trkpt lat="42.41667" lon="2.71115">
        <ele>1353.6</ele>
        <time>2018-11-26T04:31:52Z</time>
      </trkpt>
      <trkpt lat="42.41667" lon="2.71115">
        <ele>1354.1</ele>
        <time>2018-11-26T04:31:52Z</time>
      </trkpt>
      <trkpt lat="42.41667" lon="2.71115">
        <ele>1354.1</ele>
        <time>2018-11-26T04:31:52Z</time>
      </trkpt>
      <trkpt lat="42.41667" lon="2.71115">
        <ele>1354</ele>
        <time>2018-11-26T04:31:52Z</time>
      </trkpt>
      <trkpt lat="42.41667" lon="2.71115">
        <ele>1354.1</ele>
        <time>2018-11-26T04:31:52Z</time>
      </trkpt>
      <trkpt lat="42.41668" lon="2.71115">
        <ele>1354</ele>
        <time>2018-11-26T04:31:52Z</time>
      </trkpt>
      <trkpt lat="42.41668" lon="2.71115">
        <ele>1353.9</ele>
        <time>2018-11-26T04:31:52Z</time>
      </trkpt>
      <trkpt lat="42.41668" lon="2.71115">
        <ele>1353.7</ele>
        <time>2018-11-26T04:31:52Z</time>
      </trkpt>
      <trkpt lat="42.41668" lon="2.71115">
        <ele>1353.6</ele>
        <time>2018-11-26T04:31:53Z</time>
      </trkpt>
      <trkpt lat="42.41667" lon="2.71116">
        <ele>1353.1</ele>
        <time>2018-11-26T04:31:53Z</time>
      </trkpt>
      <trkpt lat="42.41668" lon="2.71117">
        <ele>1352.4</ele>
        <time>2018-11-26T04:31:53Z</time>
      </trkpt>
      <trkpt lat="42.41669" lon="2.71118">
        <ele>1351.6</ele>
        <time>2018-11-26T04:31:54Z</time>
      </trkpt>
      <trkpt lat="42.41669" lon="2.71119">
        <ele>1351.7</ele>
        <time>2018-11-26T04:31:54Z</time>
      </trkpt>
      <trkpt lat="42.4167" lon="2.7112">
        <ele>1352</ele>
        <time>2018-11-26T04:31:54Z</time>
      </trkpt>
      <trkpt lat="42.4167" lon="2.71121">
        <ele>1352.1</ele>
        <time>2018-11-26T04:31:55Z</time>
      </trkpt>
      <trkpt lat="42.4167" lon="2.71122">
        <ele>1351.8</ele>
        <time>2018-11-26T04:31:55Z</time>
      </trkpt>
      <trkpt lat="42.41671" lon="2.71123">
        <ele>1351.4</ele>
        <time>2018-11-26T04:31:55Z</time>
      </trkpt>
      <trkpt lat="42.41671" lon="2.71124">
        <ele>1350.9</ele>
        <time>2018-11-26T04:31:56Z</time>
      </trkpt>
      <trkpt lat="42.41671" lon="2.71124">
        <ele>1351</ele>
        <time>2018-11-26T04:31:56Z</time>
      </trkpt>
      <trkpt lat="42.41672" lon="2.71125">
        <ele>1351</ele>
        <time>2018-11-26T04:31:56Z</time>
      </trkpt>
      <trkpt lat="42.41673" lon="2.71125">
        <ele>1351</ele>
        <time>2018-11-26T04:31:56Z</time>
      </trkpt>
      <trkpt lat="42.41673" lon="2.71126">
        <ele>1351</ele>
        <time>2018-11-26T04:31:57Z</time>
      </trkpt>
      <trkpt lat="42.41675" lon="2.71127">
        <ele>1350.8</ele>
        <time>2018-11-26T04:31:57Z</time>
      </trkpt>
      <trkpt lat="42.41676" lon="2.71127">
        <ele>1350.6</ele>
        <time>2018-11-26T04:31:58Z</time>
      </trkpt>
      <trkpt lat="42.41678" lon="2.71128">
        <ele>1350</ele>
        <time>2018-11-26T04:31:59Z</time>
      </trkpt>
      <trkpt lat="42.41679" lon="2.71128">
        <ele>1349.4</ele>
        <time>2018-11-26T04:31:59Z</time>
      </trkpt>
      <trkpt lat="42.41679" lon="2.71129">
        <ele>1349.3</ele>
        <time>2018-11-26T04:31:59Z</time>
      </trkpt>
      <trkpt lat="42.4168" lon="2.71129">
        <ele>1349.4</ele>
        <time>2018-11-26T04:32:00Z</time>
      </trkpt>
      <trkpt lat="42.41681" lon="2.7113">
        <ele>1349.3</ele>
        <time>2018-11-26T04:32:00Z</time>
      </trkpt>
      <trkpt lat="42.41682" lon="2.71132">
        <ele>1349.1</ele>
        <time>2018-11-26T04:32:01Z</time>
      </trkpt>
      <trkpt lat="42.41683" lon="2.71133">
        <ele>1349.2</ele>
        <time>2018-11-26T04:32:01Z</time>
      </trkpt>
      <trkpt lat="42.41683" lon="2.71134">
        <ele>1349</ele>
        <time>2018-11-26T04:32:02Z</time>
      </trkpt>
      <trkpt lat="42.41684" lon="2.71135">
        <ele>1348.8</ele>
        <time>2018-11-26T04:32:02Z</time>
      </trkpt>
      <trkpt lat="42.41685" lon="2.71136">
        <ele>1348.6</ele>
        <time>2018-11-26T04:32:03Z</time>
      </trkpt>
      <trkpt lat="42.4169" lon="2.71138">
        <ele>1348.1</ele>
        <time>2018-11-26T04:32:05Z</time>
      </trkpt>
      <trkpt lat="42.41696" lon="2.71142">
        <ele>1348.4</ele>
        <time>2018-11-26T04:32:07Z</time>
      </trkpt>
      <trkpt lat="42.41697" lon="2.71143">
        <ele>1348.6</ele>
        <time>2018-11-26T04:32:08Z</time>
      </trkpt>
      <trkpt lat="42.41698" lon="2.71143">
        <ele>1348.7</ele>
        <time>2018-11-26T04:32:08Z</time>
      </trkpt>
      <trkpt lat="42.41699" lon="2.71144">
        <ele>1349</ele>
        <time>2018-11-26T04:32:09Z</time>
      </trkpt>
      <trkpt lat="42.41701" lon="2.71146">
        <ele>1349</ele>
        <time>2018-11-26T04:32:10Z</time>
      </trkpt>
      <trkpt lat="42.41703" lon="2.7115">
        <ele>1349.2</ele>
        <time>2018-11-26T04:32:11Z</time>
      </trkpt>
      <trkpt lat="42.41704" lon="2.71151">
        <ele>1349.5</ele>
        <time>2018-11-26T04:32:12Z</time>
      </trkpt>
      <trkpt lat="42.41704" lon="2.71152">
        <ele>1350.1</ele>
        <time>2018-11-26T04:32:12Z</time>
      </trkpt>
      <trkpt lat="42.41706" lon="2.71153">
        <ele>1350.5</ele>
        <time>2018-11-26T04:32:13Z</time>
      </trkpt>
      <trkpt lat="42.41707" lon="2.71154">
        <ele>1350.8</ele>
        <time>2018-11-26T04:32:13Z</time>
      </trkpt>
      <trkpt lat="42.41708" lon="2.71155">
        <ele>1351.2</ele>
        <time>2018-11-26T04:32:14Z</time>
      </trkpt>
      <trkpt lat="42.41709" lon="2.71156">
        <ele>1351.5</ele>
        <time>2018-11-26T04:32:14Z</time>
      </trkpt>
      <trkpt lat="42.41709" lon="2.71157">
        <ele>1352.1</ele>
        <time>2018-11-26T04:32:14Z</time>
      </trkpt>
      <trkpt lat="42.41709" lon="2.71158">
        <ele>1352.3</ele>
        <time>2018-11-26T04:32:15Z</time>
      </trkpt>
      <trkpt lat="42.41709" lon="2.71159">
        <ele>1352.6</ele>
        <time>2018-11-26T04:32:15Z</time>
      </trkpt>
      <trkpt lat="42.41709" lon="2.7116">
        <ele>1353.1</ele>
        <time>2018-11-26T04:32:15Z</time>
      </trkpt>
      <trkpt lat="42.41709" lon="2.71161">
        <ele>1352.7</ele>
        <time>2018-11-26T04:32:16Z</time>
      </trkpt>
      <trkpt lat="42.41708" lon="2.71162">
        <ele>1352.4</ele>
        <time>2018-11-26T04:32:16Z</time>
      </trkpt>
      <trkpt lat="42.41708" lon="2.71163">
        <ele>1352</ele>
        <time>2018-11-26T04:32:16Z</time>
      </trkpt>
      <trkpt lat="42.41707" lon="2.71164">
        <ele>1352.1</ele>
        <time>2018-11-26T04:32:17Z</time>
      </trkpt>
      <trkpt lat="42.41708" lon="2.71166">
        <ele>1352.3</ele>
        <time>2018-11-26T04:32:17Z</time>
      </trkpt>
      <trkpt lat="42.41709" lon="2.71167">
        <ele>1352.6</ele>
        <time>2018-11-26T04:32:18Z</time>
      </trkpt>
      <trkpt lat="42.4171" lon="2.71167">
        <ele>1353.1</ele>
        <time>2018-11-26T04:32:18Z</time>
      </trkpt>
      <trkpt lat="42.41711" lon="2.71168">
        <ele>1353.2</ele>
        <time>2018-11-26T04:32:19Z</time>
      </trkpt>
      <trkpt lat="42.41711" lon="2.71169">
        <ele>1353.5</ele>
        <time>2018-11-26T04:32:19Z</time>
      </trkpt>
      <trkpt lat="42.41712" lon="2.7117">
        <ele>1353.8</ele>
        <time>2018-11-26T04:32:19Z</time>
      </trkpt>
      <trkpt lat="42.41713" lon="2.71171">
        <ele>1353.9</ele>
        <time>2018-11-26T04:32:20Z</time>
      </trkpt>
      <trkpt lat="42.41714" lon="2.71171">
        <ele>1354.1</ele>
        <time>2018-11-26T04:32:20Z</time>
      </trkpt>
      <trkpt lat="42.41715" lon="2.71171">
        <ele>1354.5</ele>
        <time>2018-11-26T04:32:21Z</time>
      </trkpt>
      <trkpt lat="42.41719" lon="2.71175">
        <ele>1355.8</ele>
        <time>2018-11-26T04:32:23Z</time>
      </trkpt>
      <trkpt lat="42.4172" lon="2.71176">
        <ele>1356</ele>
        <time>2018-11-26T04:32:23Z</time>
      </trkpt>
      <trkpt lat="42.41721" lon="2.71176">
        <ele>1355.9</ele>
        <time>2018-11-26T04:32:24Z</time>
      </trkpt>
      <trkpt lat="42.41722" lon="2.71176">
        <ele>1356</ele>
        <time>2018-11-26T04:32:24Z</time>
      </trkpt>
      <trkpt lat="42.41723" lon="2.71176">
        <ele>1356.3</ele>
        <time>2018-11-26T04:32:25Z</time>
      </trkpt>
      <trkpt lat="42.41724" lon="2.71177">
        <ele>1356.5</ele>
        <time>2018-11-26T04:32:25Z</time>
      </trkpt>
      <trkpt lat="42.41725" lon="2.71178">
        <ele>1356.7</ele>
        <time>2018-11-26T04:32:25Z</time>
      </trkpt>
      <trkpt lat="42.41726" lon="2.71178">
        <ele>1356.7</ele>
        <time>2018-11-26T04:32:26Z</time>
      </trkpt>
      <trkpt lat="42.41726" lon="2.71178">
        <ele>1356.8</ele>
        <time>2018-11-26T04:32:26Z</time>
      </trkpt>
      <trkpt lat="42.41727" lon="2.71177">
        <ele>1357</ele>
        <time>2018-11-26T04:32:26Z</time>
      </trkpt>
      <trkpt lat="42.41727" lon="2.71178">
        <ele>1356.9</ele>
        <time>2018-11-26T04:32:26Z</time>
      </trkpt>
      <trkpt lat="42.41728" lon="2.71179">
        <ele>1357</ele>
        <time>2018-11-26T04:32:27Z</time>
      </trkpt>
      <trkpt lat="42.41729" lon="2.7118">
        <ele>1357</ele>
        <time>2018-11-26T04:32:27Z</time>
      </trkpt>
      <trkpt lat="42.41731" lon="2.71181">
        <ele>1357.4</ele>
        <time>2018-11-26T04:32:28Z</time>
      </trkpt>
      <trkpt lat="42.41732" lon="2.71181">
        <ele>1357.6</ele>
        <time>2018-11-26T04:32:29Z</time>
      </trkpt>
      <trkpt lat="42.41733" lon="2.71182">
        <ele>1357.9</ele>
        <time>2018-11-26T04:32:29Z</time>
      </trkpt>
      <trkpt lat="42.41733" lon="2.71182">
        <ele>1358.1</ele>
        <time>2018-11-26T04:32:29Z</time>
      </trkpt>
      <trkpt lat="42.41734" lon="2.71183">
        <ele>1358.5</ele>
        <time>2018-11-26T04:32:30Z</time>
      </trkpt>
      <trkpt lat="42.41735" lon="2.71183">
        <ele>1358.7</ele>
        <time>2018-11-26T04:32:30Z</time>
      </trkpt>
      <trkpt lat="42.41735" lon="2.71184">
        <ele>1359.2</ele>
        <time>2018-11-26T04:32:30Z</time>
      </trkpt>
      <trkpt lat="42.41736" lon="2.71185">
        <ele>1359.5</ele>
        <time>2018-11-26T04:32:31Z</time>
      </trkpt>
      <trkpt lat="42.41737" lon="2.71185">
        <ele>1360.2</ele>
        <time>2018-11-26T04:32:31Z</time>
      </trkpt>
      <trkpt lat="42.41737" lon="2.71186">
        <ele>1360.4</ele>
        <time>2018-11-26T04:32:31Z</time>
      </trkpt>
      <trkpt lat="42.41738" lon="2.71187">
        <ele>1360.5</ele>
        <time>2018-11-26T04:32:31Z</time>
      </trkpt>
      <trkpt lat="42.41739" lon="2.71187">
        <ele>1360.7</ele>
        <time>2018-11-26T04:32:32Z</time>
      </trkpt>
      <trkpt lat="42.4174" lon="2.71188">
        <ele>1361</ele>
        <time>2018-11-26T04:32:32Z</time>
      </trkpt>
      <trkpt lat="42.4174" lon="2.71188">
        <ele>1361.4</ele>
        <time>2018-11-26T04:32:33Z</time>
      </trkpt>
      <trkpt lat="42.41741" lon="2.71188">
        <ele>1361.9</ele>
        <time>2018-11-26T04:32:33Z</time>
      </trkpt>
      <trkpt lat="42.41741" lon="2.71189">
        <ele>1362.2</ele>
        <time>2018-11-26T04:32:33Z</time>
      </trkpt>
      <trkpt lat="42.41741" lon="2.7119">
        <ele>1362.6</ele>
        <time>2018-11-26T04:32:33Z</time>
      </trkpt>
      <trkpt lat="42.4174" lon="2.7119">
        <ele>1363</ele>
        <time>2018-11-26T04:32:33Z</time>
      </trkpt>
      <trkpt lat="42.4174" lon="2.71191">
        <ele>1363.1</ele>
        <time>2018-11-26T04:32:34Z</time>
      </trkpt>
      <trkpt lat="42.41741" lon="2.71191">
        <ele>1363.2</ele>
        <time>2018-11-26T04:32:34Z</time>
      </trkpt>
      <trkpt lat="42.41741" lon="2.71192">
        <ele>1363.3</ele>
        <time>2018-11-26T04:32:34Z</time>
      </trkpt>
      <trkpt lat="42.41741" lon="2.71193">
        <ele>1363.4</ele>
        <time>2018-11-26T04:32:34Z</time>
      </trkpt>
      <trkpt lat="42.4174" lon="2.71193">
        <ele>1363.6</ele>
        <time>2018-11-26T04:32:34Z</time>
      </trkpt>
      <trkpt lat="42.4174" lon="2.71194">
        <ele>1364</ele>
        <time>2018-11-26T04:32:35Z</time>
      </trkpt>
      <trkpt lat="42.4174" lon="2.71194">
        <ele>1364.3</ele>
        <time>2018-11-26T04:32:35Z</time>
      </trkpt>
      <trkpt lat="42.4174" lon="2.71194">
        <ele>1364.5</ele>
        <time>2018-11-26T04:32:35Z</time>
      </trkpt>
      <trkpt lat="42.41739" lon="2.71195">
        <ele>1364.7</ele>
        <time>2018-11-26T04:32:35Z</time>
      </trkpt>
      <trkpt lat="42.41739" lon="2.71195">
        <ele>1365.1</ele>
        <time>2018-11-26T04:32:35Z</time>
      </trkpt>
      <trkpt lat="42.41738" lon="2.71196">
        <ele>1365.5</ele>
        <time>2018-11-26T04:32:36Z</time>
      </trkpt>
      <trkpt lat="42.41737" lon="2.71196">
        <ele>1366</ele>
        <time>2018-11-26T04:32:36Z</time>
      </trkpt>
      <trkpt lat="42.41736" lon="2.71196">
        <ele>1366.6</ele>
        <time>2018-11-26T04:32:37Z</time>
      </trkpt>
      <trkpt lat="42.41735" lon="2.71197">
        <ele>1366.9</ele>
        <time>2018-11-26T04:32:37Z</time>
      </trkpt>
      <trkpt lat="42.41735" lon="2.71197">
        <ele>1367</ele>
        <time>2018-11-26T04:32:37Z</time>
      </trkpt>
      <trkpt lat="42.41734" lon="2.71198">
        <ele>1367.5</ele>
        <time>2018-11-26T04:32:38Z</time>
      </trkpt>
      <trkpt lat="42.41734" lon="2.71199">
        <ele>1367.7</ele>
        <time>2018-11-26T04:32:38Z</time>
      </trkpt>
      <trkpt lat="42.41733" lon="2.712">
        <ele>1368</ele>
        <time>2018-11-26T04:32:38Z</time>
      </trkpt>
      <trkpt lat="42.41733" lon="2.71201">
        <ele>1368.4</ele>
        <time>2018-11-26T04:32:38Z</time>
      </trkpt>
      <trkpt lat="42.41734" lon="2.71202">
        <ele>1368.7</ele>
        <time>2018-11-26T04:32:39Z</time>
      </trkpt>
      <trkpt lat="42.41734" lon="2.71203">
        <ele>1368.9</ele>
        <time>2018-11-26T04:32:39Z</time>
      </trkpt>
      <trkpt lat="42.41735" lon="2.71204">
        <ele>1369.1</ele>
        <time>2018-11-26T04:32:40Z</time>
      </trkpt>
      <trkpt lat="42.41736" lon="2.71206">
        <ele>1369.8</ele>
        <time>2018-11-26T04:32:40Z</time>
      </trkpt>
      <trkpt lat="42.41737" lon="2.71207">
        <ele>1370.3</ele>
        <time>2018-11-26T04:32:41Z</time>
      </trkpt>
      <trkpt lat="42.41737" lon="2.71208">
        <ele>1370.9</ele>
        <time>2018-11-26T04:32:41Z</time>
      </trkpt>
      <trkpt lat="42.41736" lon="2.71209">
        <ele>1371.3</ele>
        <time>2018-11-26T04:32:42Z</time>
      </trkpt>
      <trkpt lat="42.41736" lon="2.7121">
        <ele>1371.8</ele>
        <time>2018-11-26T04:32:42Z</time>
      </trkpt>
      <trkpt lat="42.41735" lon="2.71211">
        <ele>1372.5</ele>
        <time>2018-11-26T04:32:42Z</time>
      </trkpt>
      <trkpt lat="42.41735" lon="2.71212">
        <ele>1372.8</ele>
        <time>2018-11-26T04:32:43Z</time>
      </trkpt>
      <trkpt lat="42.41735" lon="2.71213">
        <ele>1373</ele>
        <time>2018-11-26T04:32:43Z</time>
      </trkpt>
      <trkpt lat="42.41735" lon="2.71215">
        <ele>1373.4</ele>
        <time>2018-11-26T04:32:43Z</time>
      </trkpt>
      <trkpt lat="42.41735" lon="2.71216">
        <ele>1373.5</ele>
        <time>2018-11-26T04:32:44Z</time>
      </trkpt>
      <trkpt lat="42.41736" lon="2.71218">
        <ele>1374</ele>
        <time>2018-11-26T04:32:44Z</time>
      </trkpt>
      <trkpt lat="42.41737" lon="2.71219">
        <ele>1374.4</ele>
        <time>2018-11-26T04:32:45Z</time>
      </trkpt>
      <trkpt lat="42.41737" lon="2.71219">
        <ele>1374.9</ele>
        <time>2018-11-26T04:32:45Z</time>
      </trkpt>
      <trkpt lat="42.41738" lon="2.7122">
        <ele>1375.8</ele>
        <time>2018-11-26T04:32:45Z</time>
      </trkpt>
      <trkpt lat="42.4174" lon="2.71221">
        <ele>1375.8</ele>
        <time>2018-11-26T04:32:46Z</time>
      </trkpt>
      <trkpt lat="42.41741" lon="2.71222">
        <ele>1375.9</ele>
        <time>2018-11-26T04:32:47Z</time>
      </trkpt>
      <trkpt lat="42.41742" lon="2.71222">
        <ele>1376.1</ele>
        <time>2018-11-26T04:32:47Z</time>
      </trkpt>
      <trkpt lat="42.41743" lon="2.71224">
        <ele>1377</ele>
        <time>2018-11-26T04:32:48Z</time>
      </trkpt>
      <trkpt lat="42.41744" lon="2.71225">
        <ele>1377</ele>
        <time>2018-11-26T04:32:48Z</time>
      </trkpt>
      <trkpt lat="42.41744" lon="2.71225">
        <ele>1376.8</ele>
        <time>2018-11-26T04:32:48Z</time>
      </trkpt>
      <trkpt lat="42.41744" lon="2.71226">
        <ele>1376.7</ele>
        <time>2018-11-26T04:32:48Z</time>
      </trkpt>
      <trkpt lat="42.41743" lon="2.71226">
        <ele>1376.9</ele>
        <time>2018-11-26T04:32:49Z</time>
      </trkpt>
      <trkpt lat="42.41743" lon="2.71226">
        <ele>1377.1</ele>
        <time>2018-11-26T04:32:49Z</time>
      </trkpt>
      <trkpt lat="42.41743" lon="2.71227">
        <ele>1377.3</ele>
        <time>2018-11-26T04:32:49Z</time>
      </trkpt>
      <trkpt lat="42.41742" lon="2.71227">
        <ele>1377</ele>
        <time>2018-11-26T04:32:49Z</time>
      </trkpt>
      <trkpt lat="42.41742" lon="2.71228">
        <ele>1376.7</ele>
        <time>2018-11-26T04:32:49Z</time>
      </trkpt>
      <trkpt lat="42.41742" lon="2.71228">
        <ele>1376.4</ele>
        <time>2018-11-26T04:32:50Z</time>
      </trkpt>
      <trkpt lat="42.41742" lon="2.71229">
        <ele>1376.3</ele>
        <time>2018-11-26T04:32:50Z</time>
      </trkpt>
      <trkpt lat="42.41742" lon="2.7123">
        <ele>1376.5</ele>
        <time>2018-11-26T04:32:50Z</time>
      </trkpt>
      <trkpt lat="42.41742" lon="2.7123">
        <ele>1376.5</ele>
        <time>2018-11-26T04:32:50Z</time>
      </trkpt>
      <trkpt lat="42.41742" lon="2.71231">
        <ele>1376.6</ele>
        <time>2018-11-26T04:32:50Z</time>
      </trkpt>
      <trkpt lat="42.41742" lon="2.71231">
        <ele>1376.5</ele>
        <time>2018-11-26T04:32:50Z</time>
      </trkpt>
      <trkpt lat="42.41742" lon="2.71232">
        <ele>1376.3</ele>
        <time>2018-11-26T04:32:51Z</time>
      </trkpt>
      <trkpt lat="42.41742" lon="2.71233">
        <ele>1376</ele>
        <time>2018-11-26T04:32:51Z</time>
      </trkpt>
      <trkpt lat="42.41742" lon="2.71235">
        <ele>1376.4</ele>
        <time>2018-11-26T04:32:52Z</time>
      </trkpt>
      <trkpt lat="42.41742" lon="2.71236">
        <ele>1376.8</ele>
        <time>2018-11-26T04:32:52Z</time>
      </trkpt>
      <trkpt lat="42.41742" lon="2.71237">
        <ele>1377</ele>
        <time>2018-11-26T04:32:52Z</time>
      </trkpt>
      <trkpt lat="42.41742" lon="2.71238">
        <ele>1377.3</ele>
        <time>2018-11-26T04:32:53Z</time>
      </trkpt>
      <trkpt lat="42.41743" lon="2.71238">
        <ele>1377.5</ele>
        <time>2018-11-26T04:32:53Z</time>
      </trkpt>
      <trkpt lat="42.41743" lon="2.71239">
        <ele>1377.5</ele>
        <time>2018-11-26T04:32:53Z</time>
      </trkpt>
      <trkpt lat="42.41743" lon="2.7124">
        <ele>1377.5</ele>
        <time>2018-11-26T04:32:53Z</time>
      </trkpt>
      <trkpt lat="42.41743" lon="2.7124">
        <ele>1377.6</ele>
        <time>2018-11-26T04:32:53Z</time>
      </trkpt>
      <trkpt lat="42.41743" lon="2.71241">
        <ele>1377.6</ele>
        <time>2018-11-26T04:32:54Z</time>
      </trkpt>
      <trkpt lat="42.41742" lon="2.71242">
        <ele>1377.4</ele>
        <time>2018-11-26T04:32:54Z</time>
      </trkpt>
      <trkpt lat="42.41742" lon="2.71243">
        <ele>1377.2</ele>
        <time>2018-11-26T04:32:54Z</time>
      </trkpt>
      <trkpt lat="42.41742" lon="2.71245">
        <ele>1377</ele>
        <time>2018-11-26T04:32:55Z</time>
      </trkpt>
      <trkpt lat="42.41743" lon="2.71247">
        <ele>1377.4</ele>
        <time>2018-11-26T04:32:55Z</time>
      </trkpt>
      <trkpt lat="42.41744" lon="2.71247">
        <ele>1377.7</ele>
        <time>2018-11-26T04:32:56Z</time>
      </trkpt>
      <trkpt lat="42.41745" lon="2.71247">
        <ele>1378.2</ele>
        <time>2018-11-26T04:32:56Z</time>
      </trkpt>
      <trkpt lat="42.41745" lon="2.71247">
        <ele>1378.5</ele>
        <time>2018-11-26T04:32:56Z</time>
      </trkpt>
      <trkpt lat="42.41745" lon="2.71247">
        <ele>1378.9</ele>
        <time>2018-11-26T04:32:56Z</time>
      </trkpt>
      <trkpt lat="42.41745" lon="2.71247">
        <ele>1379.3</ele>
        <time>2018-11-26T04:32:56Z</time>
      </trkpt>
      <trkpt lat="42.41746" lon="2.71247">
        <ele>1379.4</ele>
        <time>2018-11-26T04:32:56Z</time>
      </trkpt>
      <trkpt lat="42.41746" lon="2.71247">
        <ele>1379.6</ele>
        <time>2018-11-26T04:32:57Z</time>
      </trkpt>
      <trkpt lat="42.41746" lon="2.71246">
        <ele>1379.9</ele>
        <time>2018-11-26T04:32:57Z</time>
      </trkpt>
      <trkpt lat="42.41746" lon="2.71245">
        <ele>1380.2</ele>
        <time>2018-11-26T04:32:57Z</time>
      </trkpt>
      <trkpt lat="42.41746" lon="2.71244">
        <ele>1380.7</ele>
        <time>2018-11-26T04:32:58Z</time>
      </trkpt>
      <trkpt lat="42.41747" lon="2.71244">
        <ele>1381.4</ele>
        <time>2018-11-26T04:32:58Z</time>
      </trkpt>
      <trkpt lat="42.41748" lon="2.71245">
        <ele>1381.3</ele>
        <time>2018-11-26T04:32:58Z</time>
      </trkpt>
      <trkpt lat="42.41748" lon="2.71246">
        <ele>1381.4</ele>
        <time>2018-11-26T04:32:59Z</time>
      </trkpt>
      <trkpt lat="42.41749" lon="2.71246">
        <ele>1381.4</ele>
        <time>2018-11-26T04:32:59Z</time>
      </trkpt>
      <trkpt lat="42.41749" lon="2.71246">
        <ele>1381.7</ele>
        <time>2018-11-26T04:32:59Z</time>
      </trkpt>
      <trkpt lat="42.4175" lon="2.71246">
        <ele>1381.8</ele>
        <time>2018-11-26T04:32:59Z</time>
      </trkpt>
      <trkpt lat="42.4175" lon="2.71246">
        <ele>1382.2</ele>
        <time>2018-11-26T04:33:00Z</time>
      </trkpt>
      <trkpt lat="42.41751" lon="2.71245">
        <ele>1382.3</ele>
        <time>2018-11-26T04:33:00Z</time>
      </trkpt>
      <trkpt lat="42.41751" lon="2.71245">
        <ele>1382.5</ele>
        <time>2018-11-26T04:33:00Z</time>
      </trkpt>
      <trkpt lat="42.41752" lon="2.71245">
        <ele>1382.8</ele>
        <time>2018-11-26T04:33:00Z</time>
      </trkpt>
      <trkpt lat="42.41752" lon="2.71244">
        <ele>1382.9</ele>
        <time>2018-11-26T04:33:00Z</time>
      </trkpt>
      <trkpt lat="42.41752" lon="2.71244">
        <ele>1383</ele>
        <time>2018-11-26T04:33:01Z</time>
      </trkpt>
      <trkpt lat="42.41753" lon="2.71244">
        <ele>1383.2</ele>
        <time>2018-11-26T04:33:01Z</time>
      </trkpt>
      <trkpt lat="42.41753" lon="2.71243">
        <ele>1383.1</ele>
        <time>2018-11-26T04:33:01Z</time>
      </trkpt>
      <trkpt lat="42.41753" lon="2.71243">
        <ele>1383.1</ele>
        <time>2018-11-26T04:33:01Z</time>
      </trkpt>
      <trkpt lat="42.41754" lon="2.71243">
        <ele>1383.1</ele>
        <time>2018-11-26T04:33:01Z</time>
      </trkpt>
      <trkpt lat="42.41755" lon="2.71243">
        <ele>1383.4</ele>
        <time>2018-11-26T04:33:02Z</time>
      </trkpt>
      <trkpt lat="42.41755" lon="2.71243">
        <ele>1383.6</ele>
        <time>2018-11-26T04:33:02Z</time>
      </trkpt>
      <trkpt lat="42.41755" lon="2.71242">
        <ele>1384</ele>
        <time>2018-11-26T04:33:02Z</time>
      </trkpt>
      <trkpt lat="42.41755" lon="2.71242">
        <ele>1384.1</ele>
        <time>2018-11-26T04:33:02Z</time>
      </trkpt>
      <trkpt lat="42.41756" lon="2.71241">
        <ele>1384.3</ele>
        <time>2018-11-26T04:33:02Z</time>
      </trkpt>
      <trkpt lat="42.41756" lon="2.71241">
        <ele>1384.6</ele>
        <time>2018-11-26T04:33:02Z</time>
      </trkpt>
      <trkpt lat="42.41756" lon="2.7124">
        <ele>1384.7</ele>
        <time>2018-11-26T04:33:03Z</time>
      </trkpt>
      <trkpt lat="42.41756" lon="2.71239">
        <ele>1385.1</ele>
        <time>2018-11-26T04:33:03Z</time>
      </trkpt>
      <trkpt lat="42.41757" lon="2.71239">
        <ele>1385.6</ele>
        <time>2018-11-26T04:33:03Z</time>
      </trkpt>
      <trkpt lat="42.41757" lon="2.71238">
        <ele>1386.1</ele>
        <time>2018-11-26T04:33:04Z</time>
      </trkpt>
      <trkpt lat="42.41758" lon="2.71237">
        <ele>1386.2</ele>
        <time>2018-11-26T04:33:04Z</time>
      </trkpt>
      <trkpt lat="42.41759" lon="2.71237">
        <ele>1386.2</ele>
        <time>2018-11-26T04:33:04Z</time>
      </trkpt>
      <trkpt lat="42.4176" lon="2.71238">
        <ele>1386.3</ele>
        <time>2018-11-26T04:33:05Z</time>
      </trkpt>
      <trkpt lat="42.41761" lon="2.71239">
        <ele>1386.6</ele>
        <time>2018-11-26T04:33:05Z</time>
      </trkpt>
      <trkpt lat="42.41762" lon="2.71239">
        <ele>1387.1</ele>
        <time>2018-11-26T04:33:06Z</time>
      </trkpt>
      <trkpt lat="42.41764" lon="2.71238">
        <ele>1387.6</ele>
        <time>2018-11-26T04:33:06Z</time>
      </trkpt>
      <trkpt lat="42.41765" lon="2.71238">
        <ele>1387.7</ele>
        <time>2018-11-26T04:33:07Z</time>
      </trkpt>
      <trkpt lat="42.41766" lon="2.71239">
        <ele>1387.8</ele>
        <time>2018-11-26T04:33:07Z</time>
      </trkpt>
      <trkpt lat="42.41766" lon="2.71239">
        <ele>1388.2</ele>
        <time>2018-11-26T04:33:07Z</time>
      </trkpt>
      <trkpt lat="42.41767" lon="2.71239">
        <ele>1388.5</ele>
        <time>2018-11-26T04:33:08Z</time>
      </trkpt>
      <trkpt lat="42.41767" lon="2.71239">
        <ele>1389</ele>
        <time>2018-11-26T04:33:08Z</time>
      </trkpt>
      <trkpt lat="42.41767" lon="2.7124">
        <ele>1389.6</ele>
        <time>2018-11-26T04:33:08Z</time>
      </trkpt>
      <trkpt lat="42.41767" lon="2.71241">
        <ele>1389.7</ele>
        <time>2018-11-26T04:33:08Z</time>
      </trkpt>
      <trkpt lat="42.41768" lon="2.71241">
        <ele>1389.9</ele>
        <time>2018-11-26T04:33:09Z</time>
      </trkpt>
      <trkpt lat="42.41769" lon="2.71241">
        <ele>1390.1</ele>
        <time>2018-11-26T04:33:09Z</time>
      </trkpt>
      <trkpt lat="42.41769" lon="2.71241">
        <ele>1390.6</ele>
        <time>2018-11-26T04:33:09Z</time>
      </trkpt>
      <trkpt lat="42.4177" lon="2.71241">
        <ele>1390.9</ele>
        <time>2018-11-26T04:33:09Z</time>
      </trkpt>
      <trkpt lat="42.4177" lon="2.71242">
        <ele>1391.6</ele>
        <time>2018-11-26T04:33:09Z</time>
      </trkpt>
      <trkpt lat="42.4177" lon="2.71243">
        <ele>1391.8</ele>
        <time>2018-11-26T04:33:10Z</time>
      </trkpt>
      <trkpt lat="42.4177" lon="2.71244">
        <ele>1392.2</ele>
        <time>2018-11-26T04:33:10Z</time>
      </trkpt>
      <trkpt lat="42.4177" lon="2.71244">
        <ele>1392.6</ele>
        <time>2018-11-26T04:33:10Z</time>
      </trkpt>
      <trkpt lat="42.41769" lon="2.71245">
        <ele>1392.8</ele>
        <time>2018-11-26T04:33:10Z</time>
      </trkpt>
      <trkpt lat="42.41769" lon="2.71246">
        <ele>1393.2</ele>
        <time>2018-11-26T04:33:11Z</time>
      </trkpt>
      <trkpt lat="42.41769" lon="2.71247">
        <ele>1393.7</ele>
        <time>2018-11-26T04:33:11Z</time>
      </trkpt>
      <trkpt lat="42.41769" lon="2.71248">
        <ele>1393.8</ele>
        <time>2018-11-26T04:33:11Z</time>
      </trkpt>
      <trkpt lat="42.41769" lon="2.71248">
        <ele>1393.7</ele>
        <time>2018-11-26T04:33:11Z</time>
      </trkpt>
      <trkpt lat="42.4177" lon="2.71248">
        <ele>1393.6</ele>
        <time>2018-11-26T04:33:12Z</time>
      </trkpt>
      <trkpt lat="42.41771" lon="2.71248">
        <ele>1393.4</ele>
        <time>2018-11-26T04:33:12Z</time>
      </trkpt>
      <trkpt lat="42.41771" lon="2.71249">
        <ele>1393.4</ele>
        <time>2018-11-26T04:33:12Z</time>
      </trkpt>
      <trkpt lat="42.41772" lon="2.71251">
        <ele>1393.2</ele>
        <time>2018-11-26T04:33:13Z</time>
      </trkpt>
      <trkpt lat="42.41772" lon="2.71252">
        <ele>1393.1</ele>
        <time>2018-11-26T04:33:13Z</time>
      </trkpt>
      <trkpt lat="42.41773" lon="2.71252">
        <ele>1393</ele>
        <time>2018-11-26T04:33:13Z</time>
      </trkpt>
      <trkpt lat="42.41773" lon="2.71252">
        <ele>1393</ele>
        <time>2018-11-26T04:33:13Z</time>
      </trkpt>
      <trkpt lat="42.41773" lon="2.71252">
        <ele>1393.1</ele>
        <time>2018-11-26T04:33:13Z</time>
      </trkpt>
      <trkpt lat="42.41773" lon="2.71252">
        <ele>1393.4</ele>
        <time>2018-11-26T04:33:13Z</time>
      </trkpt>
      <trkpt lat="42.41773" lon="2.71252">
        <ele>1393.6</ele>
        <time>2018-11-26T04:33:14Z</time>
      </trkpt>
      <trkpt lat="42.41773" lon="2.71252">
        <ele>1393.6</ele>
        <time>2018-11-26T04:33:14Z</time>
      </trkpt>
      <trkpt lat="42.41773" lon="2.71252">
        <ele>1393.6</ele>
        <time>2018-11-26T04:33:14Z</time>
      </trkpt>
      <trkpt lat="42.41773" lon="2.71252">
        <ele>1393.7</ele>
        <time>2018-11-26T04:33:14Z</time>
      </trkpt>
      <trkpt lat="42.41773" lon="2.71252">
        <ele>1393.5</ele>
        <time>2018-11-26T04:33:14Z</time>
      </trkpt>
      <trkpt lat="42.41773" lon="2.71252">
        <ele>1393.6</ele>
        <time>2018-11-26T04:33:14Z</time>
      </trkpt>
      <trkpt lat="42.41773" lon="2.71252">
        <ele>1393.4</ele>
        <time>2018-11-26T04:33:14Z</time>
      </trkpt>
      <trkpt lat="42.41773" lon="2.71252">
        <ele>1393.3</ele>
        <time>2018-11-26T04:33:14Z</time>
      </trkpt>
      <trkpt lat="42.41773" lon="2.71252">
        <ele>1393</ele>
        <time>2018-11-26T04:33:14Z</time>
      </trkpt>
      <trkpt lat="42.41773" lon="2.71252">
        <ele>1392.8</ele>
        <time>2018-11-26T04:33:14Z</time>
      </trkpt>
      <trkpt lat="42.41774" lon="2.71252">
        <ele>1392.4</ele>
        <time>2018-11-26T04:33:14Z</time>
      </trkpt>
      <trkpt lat="42.41775" lon="2.71252">
        <ele>1392.4</ele>
        <time>2018-11-26T04:33:14Z</time>
      </trkpt>
      <trkpt lat="42.41775" lon="2.71252">
        <ele>1392.3</ele>
        <time>2018-11-26T04:33:14Z</time>
      </trkpt>
      <trkpt lat="42.41775" lon="2.71252">
        <ele>1392.2</ele>
        <time>2018-11-26T04:33:14Z</time>
      </trkpt>
      <trkpt lat="42.41775" lon="2.71252">
        <ele>1392.5</ele>
        <time>2018-11-26T04:33:14Z</time>
      </trkpt>
      <trkpt lat="42.41775" lon="2.71252">
        <ele>1392.8</ele>
        <time>2018-11-26T04:33:14Z</time>
      </trkpt>
      <trkpt lat="42.41775" lon="2.71252">
        <ele>1393.2</ele>
        <time>2018-11-26T04:33:14Z</time>
      </trkpt>
      <trkpt lat="42.41775" lon="2.71252">
        <ele>1393.1</ele>
        <time>2018-11-26T04:33:15Z</time>
      </trkpt>
      <trkpt lat="42.41775" lon="2.71252">
        <ele>1393.1</ele>
        <time>2018-11-26T04:33:15Z</time>
      </trkpt>
      <trkpt lat="42.41775" lon="2.71252">
        <ele>1393</ele>
        <time>2018-11-26T04:33:15Z</time>
      </trkpt>
      <trkpt lat="42.41775" lon="2.71252">
        <ele>1393.2</ele>
        <time>2018-11-26T04:33:15Z</time>
      </trkpt>
      <trkpt lat="42.41775" lon="2.71251">
        <ele>1393.6</ele>
        <time>2018-11-26T04:33:15Z</time>
      </trkpt>
      <trkpt lat="42.41775" lon="2.71251">
        <ele>1393.8</ele>
        <time>2018-11-26T04:33:15Z</time>
      </trkpt>
      <trkpt lat="42.41775" lon="2.71251">
        <ele>1394.4</ele>
        <time>2018-11-26T04:33:15Z</time>
      </trkpt>
      <trkpt lat="42.41775" lon="2.71251">
        <ele>1394.5</ele>
        <time>2018-11-26T04:33:15Z</time>
      </trkpt>
      <trkpt lat="42.41776" lon="2.71252">
        <ele>1394.6</ele>
        <time>2018-11-26T04:33:15Z</time>
      </trkpt>
      <trkpt lat="42.41777" lon="2.71252">
        <ele>1394.8</ele>
        <time>2018-11-26T04:33:15Z</time>
      </trkpt>
      <trkpt lat="42.41777" lon="2.71252">
        <ele>1394.9</ele>
        <time>2018-11-26T04:33:16Z</time>
      </trkpt>
      <trkpt lat="42.41778" lon="2.71252">
        <ele>1395.2</ele>
        <time>2018-11-26T04:33:16Z</time>
      </trkpt>
      <trkpt lat="42.41778" lon="2.71251">
        <ele>1395.4</ele>
        <time>2018-11-26T04:33:16Z</time>
      </trkpt>
      <trkpt lat="42.41779" lon="2.71251">
        <ele>1395.6</ele>
        <time>2018-11-26T04:33:16Z</time>
      </trkpt>
      <trkpt lat="42.41779" lon="2.7125">
        <ele>1395.9</ele>
        <time>2018-11-26T04:33:17Z</time>
      </trkpt>
      <trkpt lat="42.4178" lon="2.7125">
        <ele>1396.4</ele>
        <time>2018-11-26T04:33:17Z</time>
      </trkpt>
      <trkpt lat="42.4178" lon="2.71249">
        <ele>1396.4</ele>
        <time>2018-11-26T04:33:17Z</time>
      </trkpt>
      <trkpt lat="42.41781" lon="2.7125">
        <ele>1396.3</ele>
        <time>2018-11-26T04:33:18Z</time>
      </trkpt>
      <trkpt lat="42.41782" lon="2.7125">
        <ele>1396.3</ele>
        <time>2018-11-26T04:33:18Z</time>
      </trkpt>
      <trkpt lat="42.41783" lon="2.71249">
        <ele>1396.4</ele>
        <time>2018-11-26T04:33:18Z</time>
      </trkpt>
      <trkpt lat="42.41783" lon="2.71249">
        <ele>1396.7</ele>
        <time>2018-11-26T04:33:18Z</time>
      </trkpt>
      <trkpt lat="42.41783" lon="2.71248">
        <ele>1397.2</ele>
        <time>2018-11-26T04:33:19Z</time>
      </trkpt>
      <trkpt lat="42.41784" lon="2.71247">
        <ele>1397.6</ele>
        <time>2018-11-26T04:33:19Z</time>
      </trkpt>
      <trkpt lat="42.41785" lon="2.71247">
        <ele>1397.5</ele>
        <time>2018-11-26T04:33:19Z</time>
      </trkpt>
      <trkpt lat="42.41785" lon="2.71246">
        <ele>1397.3</ele>
        <time>2018-11-26T04:33:20Z</time>
      </trkpt>
      <trkpt lat="42.41786" lon="2.71247">
        <ele>1397</ele>
        <time>2018-11-26T04:33:20Z</time>
      </trkpt>
      <trkpt lat="42.41786" lon="2.71246">
        <ele>1397.4</ele>
        <time>2018-11-26T04:33:20Z</time>
      </trkpt>
      <trkpt lat="42.41787" lon="2.71246">
        <ele>1397.6</ele>
        <time>2018-11-26T04:33:20Z</time>
      </trkpt>
      <trkpt lat="42.41787" lon="2.71245">
        <ele>1398</ele>
        <time>2018-11-26T04:33:21Z</time>
      </trkpt>
      <trkpt lat="42.41788" lon="2.71245">
        <ele>1398</ele>
        <time>2018-11-26T04:33:21Z</time>
      </trkpt>
      <trkpt lat="42.41789" lon="2.71244">
        <ele>1398.1</ele>
        <time>2018-11-26T04:33:21Z</time>
      </trkpt>
      <trkpt lat="42.4179" lon="2.71245">
        <ele>1398.5</ele>
        <time>2018-11-26T04:33:22Z</time>
      </trkpt>
      <trkpt lat="42.41792" lon="2.71245">
        <ele>1399</ele>
        <time>2018-11-26T04:33:22Z</time>
      </trkpt>
      <trkpt lat="42.41794" lon="2.71246">
        <ele>1399.5</ele>
        <time>2018-11-26T04:33:23Z</time>
      </trkpt>
      <trkpt lat="42.41794" lon="2.71246">
        <ele>1399.3</ele>
        <time>2018-11-26T04:33:24Z</time>
      </trkpt>
      <trkpt lat="42.41795" lon="2.71247">
        <ele>1399.1</ele>
        <time>2018-11-26T04:33:24Z</time>
      </trkpt>
      <trkpt lat="42.41795" lon="2.71247">
        <ele>1398.8</ele>
        <time>2018-11-26T04:33:24Z</time>
      </trkpt>
      <trkpt lat="42.41796" lon="2.71247">
        <ele>1398.8</ele>
        <time>2018-11-26T04:33:24Z</time>
      </trkpt>
      <trkpt lat="42.41796" lon="2.71247">
        <ele>1398.8</ele>
        <time>2018-11-26T04:33:24Z</time>
      </trkpt>
      <trkpt lat="42.41797" lon="2.71246">
        <ele>1398.9</ele>
        <time>2018-11-26T04:33:25Z</time>
      </trkpt>
      <trkpt lat="42.41797" lon="2.71246">
        <ele>1398.9</ele>
        <time>2018-11-26T04:33:25Z</time>
      </trkpt>
      <trkpt lat="42.41798" lon="2.71245">
        <ele>1398.9</ele>
        <time>2018-11-26T04:33:25Z</time>
      </trkpt>
      <trkpt lat="42.41798" lon="2.71244">
        <ele>1398.8</ele>
        <time>2018-11-26T04:33:26Z</time>
      </trkpt>
      <trkpt lat="42.41799" lon="2.71244">
        <ele>1398.4</ele>
        <time>2018-11-26T04:33:26Z</time>
      </trkpt>
      <trkpt lat="42.41799" lon="2.71243">
        <ele>1398.1</ele>
        <time>2018-11-26T04:33:26Z</time>
      </trkpt>
      <trkpt lat="42.41799" lon="2.71242">
        <ele>1397.6</ele>
        <time>2018-11-26T04:33:26Z</time>
      </trkpt>
      <trkpt lat="42.41801" lon="2.71242">
        <ele>1397.7</ele>
        <time>2018-11-26T04:33:27Z</time>
      </trkpt>
      <trkpt lat="42.41802" lon="2.71242">
        <ele>1397.7</ele>
        <time>2018-11-26T04:33:27Z</time>
      </trkpt>
      <trkpt lat="42.41802" lon="2.71242">
        <ele>1397.8</ele>
        <time>2018-11-26T04:33:28Z</time>
      </trkpt>
      <trkpt lat="42.41803" lon="2.71242">
        <ele>1398</ele>
        <time>2018-11-26T04:33:28Z</time>
      </trkpt>
      <trkpt lat="42.41804" lon="2.71242">
        <ele>1398.2</ele>
        <time>2018-11-26T04:33:28Z</time>
      </trkpt>
      <trkpt lat="42.41805" lon="2.71242">
        <ele>1398.3</ele>
        <time>2018-11-26T04:33:29Z</time>
      </trkpt>
      <trkpt lat="42.41809" lon="2.71244">
        <ele>1398.8</ele>
        <time>2018-11-26T04:33:30Z</time>
      </trkpt>
      <trkpt lat="42.4181" lon="2.71245">
        <ele>1399</ele>
        <time>2018-11-26T04:33:31Z</time>
      </trkpt>
      <trkpt lat="42.41812" lon="2.71245">
        <ele>1399.3</ele>
        <time>2018-11-26T04:33:31Z</time>
      </trkpt>
      <trkpt lat="42.41812" lon="2.71245">
        <ele>1399.4</ele>
        <time>2018-11-26T04:33:32Z</time>
      </trkpt>
      <trkpt lat="42.41813" lon="2.71246">
        <ele>1399.2</ele>
        <time>2018-11-26T04:33:32Z</time>
      </trkpt>
      <trkpt lat="42.41814" lon="2.71246">
        <ele>1399.3</ele>
        <time>2018-11-26T04:33:32Z</time>
      </trkpt>
      <trkpt lat="42.41814" lon="2.71246">
        <ele>1399.6</ele>
        <time>2018-11-26T04:33:33Z</time>
      </trkpt>
      <trkpt lat="42.41815" lon="2.71246">
        <ele>1400.1</ele>
        <time>2018-11-26T04:33:33Z</time>
      </trkpt>
      <trkpt lat="42.41816" lon="2.71247">
        <ele>1400.8</ele>
        <time>2018-11-26T04:33:33Z</time>
      </trkpt>
      <trkpt lat="42.41816" lon="2.71247">
        <ele>1400.9</ele>
        <time>2018-11-26T04:33:33Z</time>
      </trkpt>
      <trkpt lat="42.41817" lon="2.71248">
        <ele>1401</ele>
        <time>2018-11-26T04:33:34Z</time>
      </trkpt>
      <trkpt lat="42.41817" lon="2.71249">
        <ele>1401</ele>
        <time>2018-11-26T04:33:34Z</time>
      </trkpt>
      <trkpt lat="42.41817" lon="2.71249">
        <ele>1400.9</ele>
        <time>2018-11-26T04:33:34Z</time>
      </trkpt>
      <trkpt lat="42.41818" lon="2.71249">
        <ele>1400.7</ele>
        <time>2018-11-26T04:33:34Z</time>
      </trkpt>
      <trkpt lat="42.41818" lon="2.7125">
        <ele>1400.4</ele>
        <time>2018-11-26T04:33:34Z</time>
      </trkpt>
      <trkpt lat="42.41818" lon="2.7125">
        <ele>1400.1</ele>
        <time>2018-11-26T04:33:34Z</time>
      </trkpt>
      <trkpt lat="42.41818" lon="2.7125">
        <ele>1400.4</ele>
        <time>2018-11-26T04:33:35Z</time>
      </trkpt>
      <trkpt lat="42.41819" lon="2.7125">
        <ele>1400.5</ele>
        <time>2018-11-26T04:33:35Z</time>
      </trkpt>
      <trkpt lat="42.41819" lon="2.7125">
        <ele>1400.8</ele>
        <time>2018-11-26T04:33:35Z</time>
      </trkpt>
      <trkpt lat="42.4182" lon="2.7125">
        <ele>1401.1</ele>
        <time>2018-11-26T04:33:35Z</time>
      </trkpt>
      <trkpt lat="42.41821" lon="2.7125">
        <ele>1401.5</ele>
        <time>2018-11-26T04:33:36Z</time>
      </trkpt>
      <trkpt lat="42.41821" lon="2.7125">
        <ele>1401.9</ele>
        <time>2018-11-26T04:33:36Z</time>
      </trkpt>
      <trkpt lat="42.41821" lon="2.7125">
        <ele>1402</ele>
        <time>2018-11-26T04:33:36Z</time>
      </trkpt>
      <trkpt lat="42.41822" lon="2.7125">
        <ele>1402.1</ele>
        <time>2018-11-26T04:33:36Z</time>
      </trkpt>
      <trkpt lat="42.41823" lon="2.7125">
        <ele>1402.2</ele>
        <time>2018-11-26T04:33:36Z</time>
      </trkpt>
      <trkpt lat="42.41823" lon="2.7125">
        <ele>1402.4</ele>
        <time>2018-11-26T04:33:37Z</time>
      </trkpt>
      <trkpt lat="42.41824" lon="2.71249">
        <ele>1402.4</ele>
        <time>2018-11-26T04:33:37Z</time>
      </trkpt>
      <trkpt lat="42.41824" lon="2.71249">
        <ele>1402.6</ele>
        <time>2018-11-26T04:33:37Z</time>
      </trkpt>
      <trkpt lat="42.41824" lon="2.71249">
        <ele>1403</ele>
        <time>2018-11-26T04:33:37Z</time>
      </trkpt>
      <trkpt lat="42.41825" lon="2.71249">
        <ele>1403.6</ele>
        <time>2018-11-26T04:33:37Z</time>
      </trkpt>
      <trkpt lat="42.41825" lon="2.71249">
        <ele>1404.3</ele>
        <time>2018-11-26T04:33:38Z</time>
      </trkpt>
      <trkpt lat="42.41826" lon="2.7125">
        <ele>1404.5</ele>
        <time>2018-11-26T04:33:38Z</time>
      </trkpt>
      <trkpt lat="42.41827" lon="2.7125">
        <ele>1404.7</ele>
        <time>2018-11-26T04:33:38Z</time>
      </trkpt>
      <trkpt lat="42.41827" lon="2.7125">
        <ele>1404.9</ele>
        <time>2018-11-26T04:33:38Z</time>
      </trkpt>
      <trkpt lat="42.41828" lon="2.7125">
        <ele>1404.9</ele>
        <time>2018-11-26T04:33:38Z</time>
      </trkpt>
      <trkpt lat="42.41829" lon="2.7125">
        <ele>1404.9</ele>
        <time>2018-11-26T04:33:39Z</time>
      </trkpt>
      <trkpt lat="42.41829" lon="2.7125">
        <ele>1404.7</ele>
        <time>2018-11-26T04:33:39Z</time>
      </trkpt>
      <trkpt lat="42.4183" lon="2.71249">
        <ele>1404.5</ele>
        <time>2018-11-26T04:33:39Z</time>
      </trkpt>
      <trkpt lat="42.4183" lon="2.71248">
        <ele>1404.3</ele>
        <time>2018-11-26T04:33:40Z</time>
      </trkpt>
      <trkpt lat="42.41831" lon="2.71247">
        <ele>1404</ele>
        <time>2018-11-26T04:33:40Z</time>
      </trkpt>
      <trkpt lat="42.41831" lon="2.71247">
        <ele>1404.2</ele>
        <time>2018-11-26T04:33:40Z</time>
      </trkpt>
      <trkpt lat="42.41833" lon="2.71245">
        <ele>1404.8</ele>
        <time>2018-11-26T04:33:41Z</time>
      </trkpt>
      <trkpt lat="42.41833" lon="2.71244">
        <ele>1404.7</ele>
        <time>2018-11-26T04:33:41Z</time>
      </trkpt>
      <trkpt lat="42.41834" lon="2.71243">
        <ele>1404.5</ele>
        <time>2018-11-26T04:33:42Z</time>
      </trkpt>
      <trkpt lat="42.41835" lon="2.71243">
        <ele>1404.3</ele>
        <time>2018-11-26T04:33:42Z</time>
      </trkpt>
      <trkpt lat="42.41835" lon="2.71242">
        <ele>1404.5</ele>
        <time>2018-11-26T04:33:42Z</time>
      </trkpt>
      <trkpt lat="42.41836" lon="2.71241">
        <ele>1404.6</ele>
        <time>2018-11-26T04:33:43Z</time>
      </trkpt>
      <trkpt lat="42.41837" lon="2.7124">
        <ele>1404.6</ele>
        <time>2018-11-26T04:33:43Z</time>
      </trkpt>
      <trkpt lat="42.41838" lon="2.71239">
        <ele>1404.9</ele>
        <time>2018-11-26T04:33:44Z</time>
      </trkpt>
      <trkpt lat="42.41838" lon="2.71238">
        <ele>1405.4</ele>
        <time>2018-11-26T04:33:44Z</time>
      </trkpt>
      <trkpt lat="42.41839" lon="2.71237">
        <ele>1406.1</ele>
        <time>2018-11-26T04:33:45Z</time>
      </trkpt>
      <trkpt lat="42.4184" lon="2.71236">
        <ele>1406.3</ele>
        <time>2018-11-26T04:33:45Z</time>
      </trkpt>
      <trkpt lat="42.41843" lon="2.71233">
        <ele>1407.2</ele>
        <time>2018-11-26T04:33:47Z</time>
      </trkpt>
      <trkpt lat="42.41843" lon="2.71232">
        <ele>1407.6</ele>
        <time>2018-11-26T04:33:47Z</time>
      </trkpt>
      <trkpt lat="42.41844" lon="2.71231">
        <ele>1407.7</ele>
        <time>2018-11-26T04:33:47Z</time>
      </trkpt>
      <trkpt lat="42.41844" lon="2.71231">
        <ele>1407.8</ele>
        <time>2018-11-26T04:33:47Z</time>
      </trkpt>
      <trkpt lat="42.41845" lon="2.7123">
        <ele>1408</ele>
        <time>2018-11-26T04:33:48Z</time>
      </trkpt>
      <trkpt lat="42.41845" lon="2.71229">
        <ele>1407.9</ele>
        <time>2018-11-26T04:33:48Z</time>
      </trkpt>
      <trkpt lat="42.41846" lon="2.71228">
        <ele>1407.9</ele>
        <time>2018-11-26T04:33:49Z</time>
      </trkpt>
      <trkpt lat="42.41847" lon="2.71227">
        <ele>1407.8</ele>
        <time>2018-11-26T04:33:49Z</time>
      </trkpt>
      <trkpt lat="42.41847" lon="2.71227">
        <ele>1407.6</ele>
        <time>2018-11-26T04:33:49Z</time>
      </trkpt>
      <trkpt lat="42.41848" lon="2.71226">
        <ele>1407.4</ele>
        <time>2018-11-26T04:33:49Z</time>
      </trkpt>
      <trkpt lat="42.4185" lon="2.71225">
        <ele>1406.8</ele>
        <time>2018-11-26T04:33:50Z</time>
      </trkpt>
      <trkpt lat="42.41852" lon="2.71222">
        <ele>1407.6</ele>
        <time>2018-11-26T04:33:52Z</time>
      </trkpt>
      <trkpt lat="42.41853" lon="2.71221">
        <ele>1407.5</ele>
        <time>2018-11-26T04:33:52Z</time>
      </trkpt>
      <trkpt lat="42.41854" lon="2.71221">
        <ele>1407.4</ele>
        <time>2018-11-26T04:33:52Z</time>
      </trkpt>
      <trkpt lat="42.41855" lon="2.71221">
        <ele>1407.3</ele>
        <time>2018-11-26T04:33:53Z</time>
      </trkpt>
      <trkpt lat="42.41856" lon="2.7122">
        <ele>1407.4</ele>
        <time>2018-11-26T04:33:53Z</time>
      </trkpt>
      <trkpt lat="42.41857" lon="2.7122">
        <ele>1407.6</ele>
        <time>2018-11-26T04:33:54Z</time>
      </trkpt>
      <trkpt lat="42.41859" lon="2.7122">
        <ele>1407.4</ele>
        <time>2018-11-26T04:33:54Z</time>
      </trkpt>
      <trkpt lat="42.4186" lon="2.7122">
        <ele>1407</ele>
        <time>2018-11-26T04:33:55Z</time>
      </trkpt>
      <trkpt lat="42.41863" lon="2.71218">
        <ele>1406.8</ele>
        <time>2018-11-26T04:33:56Z</time>
      </trkpt>
      <trkpt lat="42.41864" lon="2.71218">
        <ele>1406.9</ele>
        <time>2018-11-26T04:33:56Z</time>
      </trkpt>
      <trkpt lat="42.41864" lon="2.71217">
        <ele>1407</ele>
        <time>2018-11-26T04:33:57Z</time>
      </trkpt>
      <trkpt lat="42.41865" lon="2.71216">
        <ele>1406.9</ele>
        <time>2018-11-26T04:33:57Z</time>
      </trkpt>
      <trkpt lat="42.41866" lon="2.71215">
        <ele>1406.9</ele>
        <time>2018-11-26T04:33:57Z</time>
      </trkpt>
      <trkpt lat="42.41866" lon="2.71215">
        <ele>1406.9</ele>
        <time>2018-11-26T04:33:58Z</time>
      </trkpt>
      <trkpt lat="42.41867" lon="2.71214">
        <ele>1407</ele>
        <time>2018-11-26T04:33:58Z</time>
      </trkpt>
      <trkpt lat="42.41867" lon="2.71213">
        <ele>1407.1</ele>
        <time>2018-11-26T04:33:59Z</time>
      </trkpt>
      <trkpt lat="42.41867" lon="2.71212">
        <ele>1407.2</ele>
        <time>2018-11-26T04:33:59Z</time>
      </trkpt>
      <trkpt lat="42.41868" lon="2.71211">
        <ele>1407.6</ele>
        <time>2018-11-26T04:33:59Z</time>
      </trkpt>
      <trkpt lat="42.41868" lon="2.71211">
        <ele>1407.6</ele>
        <time>2018-11-26T04:33:59Z</time>
      </trkpt>
      <trkpt lat="42.41869" lon="2.7121">
        <ele>1407.9</ele>
        <time>2018-11-26T04:34:00Z</time>
      </trkpt>
      <trkpt lat="42.4187" lon="2.71209">
        <ele>1407.9</ele>
        <time>2018-11-26T04:34:00Z</time>
      </trkpt>
      <trkpt lat="42.41871" lon="2.71209">
        <ele>1408.3</ele>
        <time>2018-11-26T04:34:01Z</time>
      </trkpt>
      <trkpt lat="42.41872" lon="2.71209">
        <ele>1408</ele>
        <time>2018-11-26T04:34:01Z</time>
      </trkpt>
      <trkpt lat="42.41873" lon="2.71209">
        <ele>1407.9</ele>
        <time>2018-11-26T04:34:01Z</time>
      </trkpt>
      <trkpt lat="42.41873" lon="2.71209">
        <ele>1407.5</ele>
        <time>2018-11-26T04:34:01Z</time>
      </trkpt>
      <trkpt lat="42.41873" lon="2.71209">
        <ele>1407.4</ele>
        <time>2018-11-26T04:34:01Z</time>
      </trkpt>
      <trkpt lat="42.41873" lon="2.7121">
        <ele>1407.5</ele>
        <time>2018-11-26T04:34:02Z</time>
      </trkpt>
      <trkpt lat="42.41873" lon="2.7121">
        <ele>1407.5</ele>
        <time>2018-11-26T04:34:02Z</time>
      </trkpt>
      <trkpt lat="42.41872" lon="2.7121">
        <ele>1407.5</ele>
        <time>2018-11-26T04:34:02Z</time>
      </trkpt>
      <trkpt lat="42.41871" lon="2.7121">
        <ele>1407.4</ele>
        <time>2018-11-26T04:34:02Z</time>
      </trkpt>
      <trkpt lat="42.41871" lon="2.7121">
        <ele>1407.4</ele>
        <time>2018-11-26T04:34:02Z</time>
      </trkpt>
      <trkpt lat="42.4187" lon="2.7121">
        <ele>1407.4</ele>
        <time>2018-11-26T04:34:03Z</time>
      </trkpt>
      <trkpt lat="42.41869" lon="2.71211">
        <ele>1407.4</ele>
        <time>2018-11-26T04:34:03Z</time>
      </trkpt>
      <trkpt lat="42.41867" lon="2.71214">
        <ele>1407.4</ele>
        <time>2018-11-26T04:34:04Z</time>
      </trkpt>
      <trkpt lat="42.41866" lon="2.71216">
        <ele>1407.3</ele>
        <time>2018-11-26T04:34:05Z</time>
      </trkpt>
      <trkpt lat="42.41865" lon="2.71216">
        <ele>1407.3</ele>
        <time>2018-11-26T04:34:05Z</time>
      </trkpt>
      <trkpt lat="42.41864" lon="2.71217">
        <ele>1407.3</ele>
        <time>2018-11-26T04:34:06Z</time>
      </trkpt>
      <trkpt lat="42.41864" lon="2.71217">
        <ele>1407.1</ele>
        <time>2018-11-26T04:34:06Z</time>
      </trkpt>
      <trkpt lat="42.41865" lon="2.71216">
        <ele>1406.3</ele>
        <time>2018-11-26T04:34:06Z</time>
      </trkpt>
      <trkpt lat="42.41868" lon="2.71211">
        <ele>1407.3</ele>
        <time>2018-11-26T04:34:08Z</time>
      </trkpt>
      <trkpt lat="42.41869" lon="2.7121">
        <ele>1407.7</ele>
        <time>2018-11-26T04:34:09Z</time>
      </trkpt>
      <trkpt lat="42.4187" lon="2.71209">
        <ele>1408.2</ele>
        <time>2018-11-26T04:34:09Z</time>
      </trkpt>
      <trkpt lat="42.41871" lon="2.71208">
        <ele>1408.8</ele>
        <time>2018-11-26T04:34:10Z</time>
      </trkpt>
      <trkpt lat="42.41872" lon="2.71207">
        <ele>1409.4</ele>
        <time>2018-11-26T04:34:10Z</time>
      </trkpt>
      <trkpt lat="42.41872" lon="2.71206">
        <ele>1409.1</ele>
        <time>2018-11-26T04:34:10Z</time>
      </trkpt>
      <trkpt lat="42.41873" lon="2.71206">
        <ele>1408.7</ele>
        <time>2018-11-26T04:34:11Z</time>
      </trkpt>
      <trkpt lat="42.41873" lon="2.71206">
        <ele>1408.2</ele>
        <time>2018-11-26T04:34:11Z</time>
      </trkpt>
      <trkpt lat="42.41873" lon="2.71206">
        <ele>1407.5</ele>
        <time>2018-11-26T04:34:11Z</time>
      </trkpt>
      <trkpt lat="42.41873" lon="2.71206">
        <ele>1407.5</ele>
        <time>2018-11-26T04:34:11Z</time>
      </trkpt>
      <trkpt lat="42.41873" lon="2.71206">
        <ele>1407.5</ele>
        <time>2018-11-26T04:34:11Z</time>
      </trkpt>
      <trkpt lat="42.41873" lon="2.71206">
        <ele>1407.3</ele>
        <time>2018-11-26T04:34:11Z</time>
      </trkpt>
      <trkpt lat="42.41873" lon="2.71206">
        <ele>1407.3</ele>
        <time>2018-11-26T04:34:11Z</time>
      </trkpt>
      <trkpt lat="42.41873" lon="2.71206">
        <ele>1407.3</ele>
        <time>2018-11-26T04:34:11Z</time>
      </trkpt>
      <trkpt lat="42.41873" lon="2.71206">
        <ele>1407.2</ele>
        <time>2018-11-26T04:34:11Z</time>
      </trkpt>
      <trkpt lat="42.41873" lon="2.71206">
        <ele>1407.4</ele>
        <time>2018-11-26T04:34:11Z</time>
      </trkpt>
      <trkpt lat="42.41873" lon="2.71206">
        <ele>1407.9</ele>
        <time>2018-11-26T04:34:11Z</time>
      </trkpt>
      <trkpt lat="42.41873" lon="2.71206">
        <ele>1408.6</ele>
        <time>2018-11-26T04:34:11Z</time>
      </trkpt>
      <trkpt lat="42.41873" lon="2.71206">
        <ele>1408.6</ele>
        <time>2018-11-26T04:34:11Z</time>
      </trkpt>
      <trkpt lat="42.41873" lon="2.71206">
        <ele>1408.8</ele>
        <time>2018-11-26T04:34:11Z</time>
      </trkpt>
      <trkpt lat="42.41873" lon="2.71206">
        <ele>1408.9</ele>
        <time>2018-11-26T04:34:11Z</time>
      </trkpt>
      <trkpt lat="42.41873" lon="2.71206">
        <ele>1408.8</ele>
        <time>2018-11-26T04:34:11Z</time>
      </trkpt>
      <trkpt lat="42.41873" lon="2.71206">
        <ele>1408.8</ele>
        <time>2018-11-26T04:34:11Z</time>
      </trkpt>
      <trkpt lat="42.41873" lon="2.71206">
        <ele>1408.6</ele>
        <time>2018-11-26T04:34:11Z</time>
      </trkpt>
      <trkpt lat="42.41873" lon="2.71206">
        <ele>1408.4</ele>
        <time>2018-11-26T04:34:11Z</time>
      </trkpt>
      <trkpt lat="42.41873" lon="2.71206">
        <ele>1408.5</ele>
        <time>2018-11-26T04:34:11Z</time>
      </trkpt>
      <trkpt lat="42.41873" lon="2.71206">
        <ele>1408.8</ele>
        <time>2018-11-26T04:34:11Z</time>
      </trkpt>
      <trkpt lat="42.41873" lon="2.71206">
        <ele>1409.1</ele>
        <time>2018-11-26T04:34:11Z</time>
      </trkpt>
      <trkpt lat="42.41873" lon="2.71206">
        <ele>1409.2</ele>
        <time>2018-11-26T04:34:11Z</time>
      </trkpt>
      <trkpt lat="42.41874" lon="2.71206">
        <ele>1409.2</ele>
        <time>2018-11-26T04:34:12Z</time>
      </trkpt>
      <trkpt lat="42.41874" lon="2.71206">
        <ele>1409.1</ele>
        <time>2018-11-26T04:34:12Z</time>
      </trkpt>
      <trkpt lat="42.41874" lon="2.71206">
        <ele>1409</ele>
        <time>2018-11-26T04:34:12Z</time>
      </trkpt>
      <trkpt lat="42.41874" lon="2.71206">
        <ele>1409</ele>
        <time>2018-11-26T04:34:12Z</time>
      </trkpt>
      <trkpt lat="42.41874" lon="2.71206">
        <ele>1408.9</ele>
        <time>2018-11-26T04:34:12Z</time>
      </trkpt>
      <trkpt lat="42.41874" lon="2.71206">
        <ele>1408.7</ele>
        <time>2018-11-26T04:34:12Z</time>
      </trkpt>
      <trkpt lat="42.41874" lon="2.71206">
        <ele>1408.3</ele>
        <time>2018-11-26T04:34:12Z</time>
      </trkpt>
      <trkpt lat="42.41874" lon="2.71206">
        <ele>1408</ele>
        <time>2018-11-26T04:34:12Z</time>
      </trkpt>
      <trkpt lat="42.41874" lon="2.71206">
        <ele>1408.1</ele>
        <time>2018-11-26T04:34:12Z</time>
      </trkpt>
      <trkpt lat="42.41874" lon="2.71206">
        <ele>1408.2</ele>
        <time>2018-11-26T04:34:12Z</time>
      </trkpt>
      <trkpt lat="42.41874" lon="2.71206">
        <ele>1408.5</ele>
        <time>2018-11-26T04:34:12Z</time>
      </trkpt>
      <trkpt lat="42.41874" lon="2.71206">
        <ele>1408.7</ele>
        <time>2018-11-26T04:34:12Z</time>
      </trkpt>
      <trkpt lat="42.41874" lon="2.71207">
        <ele>1408.5</ele>
        <time>2018-11-26T04:34:12Z</time>
      </trkpt>
      <trkpt lat="42.41874" lon="2.71207">
        <ele>1408.3</ele>
        <time>2018-11-26T04:34:12Z</time>
      </trkpt>
      <trkpt lat="42.41874" lon="2.71207">
        <ele>1407.9</ele>
        <time>2018-11-26T04:34:12Z</time>
      </trkpt>
      <trkpt lat="42.41874" lon="2.71207">
        <ele>1407.8</ele>
        <time>2018-11-26T04:34:12Z</time>
      </trkpt>
      <trkpt lat="42.41874" lon="2.71207">
        <ele>1407.4</ele>
        <time>2018-11-26T04:34:12Z</time>
      </trkpt>
      <trkpt lat="42.41874" lon="2.71207">
        <ele>1407.1</ele>
        <time>2018-11-26T04:34:12Z</time>
      </trkpt>
      <trkpt lat="42.41874" lon="2.71207">
        <ele>1407</ele>
        <time>2018-11-26T04:34:12Z</time>
      </trkpt>
      <trkpt lat="42.41874" lon="2.71207">
        <ele>1406.9</ele>
        <time>2018-11-26T04:34:12Z</time>
      </trkpt>
      <trkpt lat="42.41874" lon="2.71207">
        <ele>1406.8</ele>
        <time>2018-11-26T04:34:12Z</time>
      </trkpt>
      <trkpt lat="42.41874" lon="2.71207">
        <ele>1406.9</ele>
        <time>2018-11-26T04:34:12Z</time>
      </trkpt>
      <trkpt lat="42.41874" lon="2.71207">
        <ele>1407.1</ele>
        <time>2018-11-26T04:34:12Z</time>
      </trkpt>
      <trkpt lat="42.41874" lon="2.71207">
        <ele>1407.4</ele>
        <time>2018-11-26T04:34:12Z</time>
      </trkpt>
      <trkpt lat="42.41874" lon="2.71207">
        <ele>1407.6</ele>
        <time>2018-11-26T04:34:12Z</time>
      </trkpt>
      <trkpt lat="42.41874" lon="2.71207">
        <ele>1408.1</ele>
        <time>2018-11-26T04:34:12Z</time>
      </trkpt>
      <trkpt lat="42.41875" lon="2.71207">
        <ele>1408.6</ele>
        <time>2018-11-26T04:34:12Z</time>
      </trkpt>
      <trkpt lat="42.41875" lon="2.71207">
        <ele>1408.7</ele>
        <time>2018-11-26T04:34:13Z</time>
      </trkpt>
      <trkpt lat="42.41875" lon="2.71208">
        <ele>1409</ele>
        <time>2018-11-26T04:34:13Z</time>
      </trkpt>
      <trkpt lat="42.41875" lon="2.71208">
        <ele>1409.1</ele>
        <time>2018-11-26T04:34:13Z</time>
      </trkpt>
      <trkpt lat="42.41875" lon="2.71208">
        <ele>1409.5</ele>
        <time>2018-11-26T04:34:13Z</time>
      </trkpt>
      <trkpt lat="42.41875" lon="2.71208">
        <ele>1409.4</ele>
        <time>2018-11-26T04:34:13Z</time>
      </trkpt>
      <trkpt lat="42.41875" lon="2.71208">
        <ele>1409.6</ele>
        <time>2018-11-26T04:34:13Z</time>
      </trkpt>
      <trkpt lat="42.41875" lon="2.71208">
        <ele>1409.6</ele>
        <time>2018-11-26T04:34:13Z</time>
      </trkpt>
      <trkpt lat="42.41875" lon="2.71208">
        <ele>1409.4</ele>
        <time>2018-11-26T04:34:13Z</time>
      </trkpt>
      <trkpt lat="42.41875" lon="2.71208">
        <ele>1408.9</ele>
        <time>2018-11-26T04:34:13Z</time>
      </trkpt>
      <trkpt lat="42.41875" lon="2.71208">
        <ele>1408.4</ele>
        <time>2018-11-26T04:34:13Z</time>
      </trkpt>
      <trkpt lat="42.41875" lon="2.71208">
        <ele>1408.5</ele>
        <time>2018-11-26T04:34:13Z</time>
      </trkpt>
      <trkpt lat="42.41875" lon="2.71208">
        <ele>1408.7</ele>
        <time>2018-11-26T04:34:13Z</time>
      </trkpt>
      <trkpt lat="42.41875" lon="2.71208">
        <ele>1408.8</ele>
        <time>2018-11-26T04:34:13Z</time>
      </trkpt>
      <trkpt lat="42.41875" lon="2.71208">
        <ele>1408.8</ele>
        <time>2018-11-26T04:34:13Z</time>
      </trkpt>
      <trkpt lat="42.41875" lon="2.71208">
        <ele>1408.7</ele>
        <time>2018-11-26T04:34:13Z</time>
      </trkpt>
      <trkpt lat="42.41875" lon="2.71208">
        <ele>1408.6</ele>
        <time>2018-11-26T04:34:13Z</time>
      </trkpt>
      <trkpt lat="42.41875" lon="2.71208">
        <ele>1408.5</ele>
        <time>2018-11-26T04:34:13Z</time>
      </trkpt>
      <trkpt lat="42.41875" lon="2.71208">
        <ele>1408.5</ele>
        <time>2018-11-26T04:34:13Z</time>
      </trkpt>
      <trkpt lat="42.41875" lon="2.71208">
        <ele>1408.4</ele>
        <time>2018-11-26T04:34:13Z</time>
      </trkpt>
      <trkpt lat="42.41875" lon="2.71208">
        <ele>1408.1</ele>
        <time>2018-11-26T04:34:13Z</time>
      </trkpt>
      <trkpt lat="42.41875" lon="2.71208">
        <ele>1408.3</ele>
        <time>2018-11-26T04:34:13Z</time>
      </trkpt>
      <trkpt lat="42.41875" lon="2.71207">
        <ele>1408.6</ele>
        <time>2018-11-26T04:34:13Z</time>
      </trkpt>
      <trkpt lat="42.41875" lon="2.71207">
        <ele>1409.2</ele>
        <time>2018-11-26T04:34:13Z</time>
      </trkpt>
      <trkpt lat="42.41875" lon="2.71207">
        <ele>1409.1</ele>
        <time>2018-11-26T04:34:13Z</time>
      </trkpt>
      <trkpt lat="42.41875" lon="2.71207">
        <ele>1409.1</ele>
        <time>2018-11-26T04:34:13Z</time>
      </trkpt>
      <trkpt lat="42.41875" lon="2.71207">
        <ele>1409.1</ele>
        <time>2018-11-26T04:34:13Z</time>
      </trkpt>
      <trkpt lat="42.41875" lon="2.71207">
        <ele>1408.9</ele>
        <time>2018-11-26T04:34:13Z</time>
      </trkpt>
      <trkpt lat="42.41875" lon="2.71207">
        <ele>1408.8</ele>
        <time>2018-11-26T04:34:13Z</time>
      </trkpt>
      <trkpt lat="42.41875" lon="2.71207">
        <ele>1408.7</ele>
        <time>2018-11-26T04:34:13Z</time>
      </trkpt>
      <trkpt lat="42.41875" lon="2.71207">
        <ele>1408.8</ele>
        <time>2018-11-26T04:34:13Z</time>
      </trkpt>
      <trkpt lat="42.41875" lon="2.71207">
        <ele>1408.8</ele>
        <time>2018-11-26T04:34:13Z</time>
      </trkpt>
      <trkpt lat="42.41875" lon="2.71207">
        <ele>1408.9</ele>
        <time>2018-11-26T04:34:13Z</time>
      </trkpt>
      <trkpt lat="42.41875" lon="2.71208">
        <ele>1408.9</ele>
        <time>2018-11-26T04:34:14Z</time>
      </trkpt>
      <trkpt lat="42.41875" lon="2.71208">
        <ele>1408.9</ele>
        <time>2018-11-26T04:34:14Z</time>
      </trkpt>
      <trkpt lat="42.41875" lon="2.71208">
        <ele>1409</ele>
        <time>2018-11-26T04:34:14Z</time>
      </trkpt>
      <trkpt lat="42.41875" lon="2.71208">
        <ele>1408.9</ele>
        <time>2018-11-26T04:34:14Z</time>
      </trkpt>
      <trkpt lat="42.41875" lon="2.71208">
        <ele>1409</ele>
        <time>2018-11-26T04:34:14Z</time>
      </trkpt>
      <trkpt lat="42.41875" lon="2.71207">
        <ele>1409</ele>
        <time>2018-11-26T04:34:14Z</time>
      </trkpt>
      <trkpt lat="42.41875" lon="2.71207">
        <ele>1409</ele>
        <time>2018-11-26T04:34:14Z</time>
      </trkpt>
      <trkpt lat="42.41875" lon="2.71207">
        <ele>1408.8</ele>
        <time>2018-11-26T04:34:14Z</time>
      </trkpt>
      <trkpt lat="42.41875" lon="2.71207">
        <ele>1408.5</ele>
        <time>2018-11-26T04:34:14Z</time>
      </trkpt>
      <trkpt lat="42.41875" lon="2.71207">
        <ele>1408.1</ele>
        <time>2018-11-26T04:34:14Z</time>
      </trkpt>
      <trkpt lat="42.41875" lon="2.71207">
        <ele>1408.1</ele>
        <time>2018-11-26T04:34:14Z</time>
      </trkpt>
      <trkpt lat="42.41874" lon="2.71207">
        <ele>1408.1</ele>
        <time>2018-11-26T04:34:14Z</time>
      </trkpt>
      <trkpt lat="42.41874" lon="2.71207">
        <ele>1408</ele>
        <time>2018-11-26T04:34:14Z</time>
      </trkpt>
      <trkpt lat="42.41874" lon="2.71207">
        <ele>1408.1</ele>
        <time>2018-11-26T04:34:14Z</time>
      </trkpt>
      <trkpt lat="42.41874" lon="2.71207">
        <ele>1408.1</ele>
        <time>2018-11-26T04:34:14Z</time>
      </trkpt>
      <trkpt lat="42.41874" lon="2.71207">
        <ele>1408</ele>
        <time>2018-11-26T04:34:14Z</time>
      </trkpt>
      <trkpt lat="42.41874" lon="2.71207">
        <ele>1408.2</ele>
        <time>2018-11-26T04:34:14Z</time>
      </trkpt>
      <trkpt lat="42.41874" lon="2.71207">
        <ele>1408.4</ele>
        <time>2018-11-26T04:34:14Z</time>
      </trkpt>
      <trkpt lat="42.41874" lon="2.71207">
        <ele>1408.7</ele>
        <time>2018-11-26T04:34:14Z</time>
      </trkpt>
      <trkpt lat="42.41874" lon="2.71207">
        <ele>1409.1</ele>
        <time>2018-11-26T04:34:14Z</time>
      </trkpt>
      <trkpt lat="42.41874" lon="2.71207">
        <ele>1409</ele>
        <time>2018-11-26T04:34:14Z</time>
      </trkpt>
      <trkpt lat="42.41874" lon="2.71207">
        <ele>1409</ele>
        <time>2018-11-26T04:34:14Z</time>
      </trkpt>
      <trkpt lat="42.41874" lon="2.71207">
        <ele>1408.9</ele>
        <time>2018-11-26T04:34:14Z</time>
      </trkpt>
      <trkpt lat="42.41874" lon="2.71207">
        <ele>1408.9</ele>
        <time>2018-11-26T04:34:14Z</time>
      </trkpt>
      <trkpt lat="42.41874" lon="2.71207">
        <ele>1408.7</ele>
        <time>2018-11-26T04:34:14Z</time>
      </trkpt>
      <trkpt lat="42.41874" lon="2.71207">
        <ele>1408.3</ele>
        <time>2018-11-26T04:34:14Z</time>
      </trkpt>
      <trkpt lat="42.41874" lon="2.71207">
        <ele>1408.2</ele>
        <time>2018-11-26T04:34:14Z</time>
      </trkpt>
      <trkpt lat="42.41874" lon="2.71207">
        <ele>1408.1</ele>
        <time>2018-11-26T04:34:14Z</time>
      </trkpt>
      <trkpt lat="42.41874" lon="2.71207">
        <ele>1407.9</ele>
        <time>2018-11-26T04:34:14Z</time>
      </trkpt>
      <trkpt lat="42.41874" lon="2.71207">
        <ele>1408</ele>
        <time>2018-11-26T04:34:14Z</time>
      </trkpt>
      <trkpt lat="42.41874" lon="2.71207">
        <ele>1407.7</ele>
        <time>2018-11-26T04:34:14Z</time>
      </trkpt>
      <trkpt lat="42.41874" lon="2.71207">
        <ele>1407.7</ele>
        <time>2018-11-26T04:34:14Z</time>
      </trkpt>
      <trkpt lat="42.41874" lon="2.71207">
        <ele>1407.8</ele>
        <time>2018-11-26T04:34:14Z</time>
      </trkpt>
      <trkpt lat="42.41874" lon="2.71207">
        <ele>1408</ele>
        <time>2018-11-26T04:34:14Z</time>
      </trkpt>
      <trkpt lat="42.41874" lon="2.71207">
        <ele>1408.2</ele>
        <time>2018-11-26T04:34:14Z</time>
      </trkpt>
      <trkpt lat="42.41874" lon="2.71207">
        <ele>1408.9</ele>
        <time>2018-11-26T04:34:14Z</time>
      </trkpt>
      <trkpt lat="42.41874" lon="2.71207">
        <ele>1409.3</ele>
        <time>2018-11-26T04:34:14Z</time>
      </trkpt>
      <trkpt lat="42.41874" lon="2.71208">
        <ele>1409.3</ele>
        <time>2018-11-26T04:34:15Z</time>
      </trkpt>
      <trkpt lat="42.41874" lon="2.71208">
        <ele>1409.3</ele>
        <time>2018-11-26T04:34:15Z</time>
      </trkpt>
      <trkpt lat="42.41874" lon="2.71208">
        <ele>1409.5</ele>
        <time>2018-11-26T04:34:15Z</time>
      </trkpt>
      <trkpt lat="42.41874" lon="2.71208">
        <ele>1409.4</ele>
        <time>2018-11-26T04:34:15Z</time>
      </trkpt>
      <trkpt lat="42.41874" lon="2.71208">
        <ele>1409.3</ele>
        <time>2018-11-26T04:34:15Z</time>
      </trkpt>
      <trkpt lat="42.41874" lon="2.71208">
        <ele>1408.9</ele>
        <time>2018-11-26T04:34:15Z</time>
      </trkpt>
      <trkpt lat="42.41874" lon="2.71208">
        <ele>1409.2</ele>
        <time>2018-11-26T04:34:15Z</time>
      </trkpt>
      <trkpt lat="42.41874" lon="2.71208">
        <ele>1409.5</ele>
        <time>2018-11-26T04:34:15Z</time>
      </trkpt>
      <trkpt lat="42.41874" lon="2.71208">
        <ele>1409.7</ele>
        <time>2018-11-26T04:34:15Z</time>
      </trkpt>
      <trkpt lat="42.41875" lon="2.71208">
        <ele>1409.6</ele>
        <time>2018-11-26T04:34:15Z</time>
      </trkpt>
      <trkpt lat="42.41875" lon="2.71208">
        <ele>1409.3</ele>
        <time>2018-11-26T04:34:15Z</time>
      </trkpt>
      <trkpt lat="42.41875" lon="2.71208">
        <ele>1409.1</ele>
        <time>2018-11-26T04:34:15Z</time>
      </trkpt>
      <trkpt lat="42.41875" lon="2.71208">
        <ele>1409.1</ele>
        <time>2018-11-26T04:34:15Z</time>
      </trkpt>
      <trkpt lat="42.41875" lon="2.71208">
        <ele>1409</ele>
        <time>2018-11-26T04:34:15Z</time>
      </trkpt>
      <trkpt lat="42.41875" lon="2.71208">
        <ele>1409</ele>
        <time>2018-11-26T04:34:15Z</time>
      </trkpt>
      <trkpt lat="42.41875" lon="2.71208">
        <ele>1408.8</ele>
        <time>2018-11-26T04:34:15Z</time>
      </trkpt>
      <trkpt lat="42.41875" lon="2.71208">
        <ele>1408.8</ele>
        <time>2018-11-26T04:34:15Z</time>
      </trkpt>
      <trkpt lat="42.41875" lon="2.71208">
        <ele>1408.6</ele>
        <time>2018-11-26T04:34:15Z</time>
      </trkpt>
      <trkpt lat="42.41875" lon="2.71207">
        <ele>1408.4</ele>
        <time>2018-11-26T04:34:15Z</time>
      </trkpt>
      <trkpt lat="42.41875" lon="2.71207">
        <ele>1408.4</ele>
        <time>2018-11-26T04:34:15Z</time>
      </trkpt>
      <trkpt lat="42.41875" lon="2.71207">
        <ele>1408.5</ele>
        <time>2018-11-26T04:34:15Z</time>
      </trkpt>
      <trkpt lat="42.41875" lon="2.71207">
        <ele>1408.6</ele>
        <time>2018-11-26T04:34:15Z</time>
      </trkpt>
      <trkpt lat="42.41875" lon="2.71207">
        <ele>1408.6</ele>
        <time>2018-11-26T04:34:15Z</time>
      </trkpt>
      <trkpt lat="42.41875" lon="2.71207">
        <ele>1408.4</ele>
        <time>2018-11-26T04:34:15Z</time>
      </trkpt>
      <trkpt lat="42.41875" lon="2.71207">
        <ele>1408.1</ele>
        <time>2018-11-26T04:34:15Z</time>
      </trkpt>
      <trkpt lat="42.41875" lon="2.71207">
        <ele>1408</ele>
        <time>2018-11-26T04:34:15Z</time>
      </trkpt>
      <trkpt lat="42.41875" lon="2.71207">
        <ele>1407.8</ele>
        <time>2018-11-26T04:34:16Z</time>
      </trkpt>
      <trkpt lat="42.41875" lon="2.71207">
        <ele>1407.8</ele>
        <time>2018-11-26T04:34:16Z</time>
      </trkpt>
      <trkpt lat="42.41875" lon="2.71206">
        <ele>1407.8</ele>
        <time>2018-11-26T04:34:16Z</time>
      </trkpt>
      <trkpt lat="42.41875" lon="2.71206">
        <ele>1407.7</ele>
        <time>2018-11-26T04:34:16Z</time>
      </trkpt>
      <trkpt lat="42.41875" lon="2.71206">
        <ele>1407.8</ele>
        <time>2018-11-26T04:34:16Z</time>
      </trkpt>
      <trkpt lat="42.41875" lon="2.71206">
        <ele>1407.8</ele>
        <time>2018-11-26T04:34:16Z</time>
      </trkpt>
      <trkpt lat="42.41875" lon="2.71207">
        <ele>1408</ele>
        <time>2018-11-26T04:34:16Z</time>
      </trkpt>
      <trkpt lat="42.41875" lon="2.71207">
        <ele>1408.4</ele>
        <time>2018-11-26T04:34:16Z</time>
      </trkpt>
      <trkpt lat="42.41875" lon="2.71207">
        <ele>1408.8</ele>
        <time>2018-11-26T04:34:16Z</time>
      </trkpt>
      <trkpt lat="42.41875" lon="2.71207">
        <ele>1408.7</ele>
        <time>2018-11-26T04:34:16Z</time>
      </trkpt>
      <trkpt lat="42.41875" lon="2.71207">
        <ele>1408.6</ele>
        <time>2018-11-26T04:34:16Z</time>
      </trkpt>
      <trkpt lat="42.41875" lon="2.71207">
        <ele>1408.4</ele>
        <time>2018-11-26T04:34:16Z</time>
      </trkpt>
      <trkpt lat="42.41875" lon="2.71207">
        <ele>1408.3</ele>
        <time>2018-11-26T04:34:16Z</time>
      </trkpt>
      <trkpt lat="42.41875" lon="2.71207">
        <ele>1408.2</ele>
        <time>2018-11-26T04:34:16Z</time>
      </trkpt>
      <trkpt lat="42.41875" lon="2.71207">
        <ele>1408.1</ele>
        <time>2018-11-26T04:34:16Z</time>
      </trkpt>
      <trkpt lat="42.41875" lon="2.71207">
        <ele>1408.1</ele>
        <time>2018-11-26T04:34:16Z</time>
      </trkpt>
      <trkpt lat="42.41875" lon="2.71207">
        <ele>1408</ele>
        <time>2018-11-26T04:34:16Z</time>
      </trkpt>
      <trkpt lat="42.41875" lon="2.71207">
        <ele>1408.1</ele>
        <time>2018-11-26T04:34:16Z</time>
      </trkpt>
      <trkpt lat="42.41875" lon="2.71207">
        <ele>1407.8</ele>
        <time>2018-11-26T04:34:16Z</time>
      </trkpt>
      <trkpt lat="42.41875" lon="2.71207">
        <ele>1407.4</ele>
        <time>2018-11-26T04:34:16Z</time>
      </trkpt>
      <trkpt lat="42.41875" lon="2.71207">
        <ele>1407.1</ele>
        <time>2018-11-26T04:34:16Z</time>
      </trkpt>
      <trkpt lat="42.41875" lon="2.71207">
        <ele>1407</ele>
        <time>2018-11-26T04:34:16Z</time>
      </trkpt>
      <trkpt lat="42.41875" lon="2.71207">
        <ele>1407</ele>
        <time>2018-11-26T04:34:16Z</time>
      </trkpt>
      <trkpt lat="42.41875" lon="2.71207">
        <ele>1407.2</ele>
        <time>2018-11-26T04:34:16Z</time>
      </trkpt>
      <trkpt lat="42.41875" lon="2.71207">
        <ele>1407.1</ele>
        <time>2018-11-26T04:34:16Z</time>
      </trkpt>
      <trkpt lat="42.41875" lon="2.71207">
        <ele>1406.9</ele>
        <time>2018-11-26T04:34:16Z</time>
      </trkpt>
      <trkpt lat="42.41875" lon="2.71207">
        <ele>1406.6</ele>
        <time>2018-11-26T04:34:16Z</time>
      </trkpt>
      <trkpt lat="42.41875" lon="2.71207">
        <ele>1406.2</ele>
        <time>2018-11-26T04:34:16Z</time>
      </trkpt>
      <trkpt lat="42.41874" lon="2.71207">
        <ele>1406.3</ele>
        <time>2018-11-26T04:34:16Z</time>
      </trkpt>
      <trkpt lat="42.41874" lon="2.71206">
        <ele>1406.2</ele>
        <time>2018-11-26T04:34:17Z</time>
      </trkpt>
      <trkpt lat="42.41874" lon="2.71206">
        <ele>1406</ele>
        <time>2018-11-26T04:34:17Z</time>
      </trkpt>
      <trkpt lat="42.41873" lon="2.71206">
        <ele>1406.3</ele>
        <time>2018-11-26T04:34:17Z</time>
      </trkpt>
      <trkpt lat="42.41873" lon="2.71206">
        <ele>1406.6</ele>
        <time>2018-11-26T04:34:17Z</time>
      </trkpt>
      <trkpt lat="42.41873" lon="2.71206">
        <ele>1407.1</ele>
        <time>2018-11-26T04:34:17Z</time>
      </trkpt>
      <trkpt lat="42.41873" lon="2.71206">
        <ele>1407.2</ele>
        <time>2018-11-26T04:34:17Z</time>
      </trkpt>
      <trkpt lat="42.41874" lon="2.71206">
        <ele>1407.3</ele>
        <time>2018-11-26T04:34:17Z</time>
      </trkpt>
      <trkpt lat="42.41874" lon="2.71206">
        <ele>1407.6</ele>
        <time>2018-11-26T04:34:17Z</time>
      </trkpt>
      <trkpt lat="42.41874" lon="2.71206">
        <ele>1407.4</ele>
        <time>2018-11-26T04:34:17Z</time>
      </trkpt>
      <trkpt lat="42.41875" lon="2.71206">
        <ele>1407.5</ele>
        <time>2018-11-26T04:34:17Z</time>
      </trkpt>
      <trkpt lat="42.41875" lon="2.71206">
        <ele>1407.4</ele>
        <time>2018-11-26T04:34:18Z</time>
      </trkpt>
      <trkpt lat="42.41876" lon="2.71206">
        <ele>1407.2</ele>
        <time>2018-11-26T04:34:18Z</time>
      </trkpt>
      <trkpt lat="42.41876" lon="2.71206">
        <ele>1407.2</ele>
        <time>2018-11-26T04:34:18Z</time>
      </trkpt>
      <trkpt lat="42.41876" lon="2.71206">
        <ele>1407.4</ele>
        <time>2018-11-26T04:34:18Z</time>
      </trkpt>
      <trkpt lat="42.41876" lon="2.71206">
        <ele>1407.5</ele>
        <time>2018-11-26T04:34:18Z</time>
      </trkpt>
      <trkpt lat="42.41876" lon="2.71206">
        <ele>1407.5</ele>
        <time>2018-11-26T04:34:18Z</time>
      </trkpt>
      <trkpt lat="42.41876" lon="2.71206">
        <ele>1407.5</ele>
        <time>2018-11-26T04:34:18Z</time>
      </trkpt>
      <trkpt lat="42.41876" lon="2.71206">
        <ele>1407.7</ele>
        <time>2018-11-26T04:34:18Z</time>
      </trkpt>
      <trkpt lat="42.41876" lon="2.71206">
        <ele>1407.5</ele>
        <time>2018-11-26T04:34:18Z</time>
      </trkpt>
      <trkpt lat="42.41876" lon="2.71206">
        <ele>1407.6</ele>
        <time>2018-11-26T04:34:18Z</time>
      </trkpt>
      <trkpt lat="42.41876" lon="2.71206">
        <ele>1407.4</ele>
        <time>2018-11-26T04:34:19Z</time>
      </trkpt>
      <trkpt lat="42.41875" lon="2.71206">
        <ele>1407.5</ele>
        <time>2018-11-26T04:34:19Z</time>
      </trkpt>
      <trkpt lat="42.41875" lon="2.71206">
        <ele>1407.3</ele>
        <time>2018-11-26T04:34:19Z</time>
      </trkpt>
      <trkpt lat="42.41875" lon="2.71206">
        <ele>1407.3</ele>
        <time>2018-11-26T04:34:19Z</time>
      </trkpt>
      <trkpt lat="42.41875" lon="2.71206">
        <ele>1407.2</ele>
        <time>2018-11-26T04:34:19Z</time>
      </trkpt>
      <trkpt lat="42.41875" lon="2.71207">
        <ele>1407</ele>
        <time>2018-11-26T04:34:19Z</time>
      </trkpt>
      <trkpt lat="42.41875" lon="2.71207">
        <ele>1406.9</ele>
        <time>2018-11-26T04:34:19Z</time>
      </trkpt>
      <trkpt lat="42.41875" lon="2.71207">
        <ele>1406.8</ele>
        <time>2018-11-26T04:34:19Z</time>
      </trkpt>
      <trkpt lat="42.41875" lon="2.71207">
        <ele>1406.8</ele>
        <time>2018-11-26T04:34:19Z</time>
      </trkpt>
      <trkpt lat="42.41875" lon="2.71207">
        <ele>1406.9</ele>
        <time>2018-11-26T04:34:19Z</time>
      </trkpt>
      <trkpt lat="42.41875" lon="2.71207">
        <ele>1406.9</ele>
        <time>2018-11-26T04:34:19Z</time>
      </trkpt>
      <trkpt lat="42.41875" lon="2.71207">
        <ele>1406.9</ele>
        <time>2018-11-26T04:34:19Z</time>
      </trkpt>
      <trkpt lat="42.41875" lon="2.71207">
        <ele>1407.1</ele>
        <time>2018-11-26T04:34:19Z</time>
      </trkpt>
      <trkpt lat="42.41875" lon="2.71207">
        <ele>1407</ele>
        <time>2018-11-26T04:34:19Z</time>
      </trkpt>
      <trkpt lat="42.41875" lon="2.71208">
        <ele>1407.2</ele>
        <time>2018-11-26T04:34:19Z</time>
      </trkpt>
      <trkpt lat="42.41874" lon="2.71208">
        <ele>1407.2</ele>
        <time>2018-11-26T04:34:19Z</time>
      </trkpt>
      <trkpt lat="42.41874" lon="2.71208">
        <ele>1407.3</ele>
        <time>2018-11-26T04:34:19Z</time>
      </trkpt>
      <trkpt lat="42.41874" lon="2.71208">
        <ele>1407.2</ele>
        <time>2018-11-26T04:34:19Z</time>
      </trkpt>
      <trkpt lat="42.41874" lon="2.71208">
        <ele>1407.1</ele>
        <time>2018-11-26T04:34:20Z</time>
      </trkpt>
      <trkpt lat="42.41874" lon="2.71208">
        <ele>1406.9</ele>
        <time>2018-11-26T04:34:20Z</time>
      </trkpt>
      <trkpt lat="42.41874" lon="2.71208">
        <ele>1407.1</ele>
        <time>2018-11-26T04:34:20Z</time>
      </trkpt>
      <trkpt lat="42.41874" lon="2.71208">
        <ele>1407.3</ele>
        <time>2018-11-26T04:34:20Z</time>
      </trkpt>
      <trkpt lat="42.41874" lon="2.71208">
        <ele>1407.7</ele>
        <time>2018-11-26T04:34:20Z</time>
      </trkpt>
      <trkpt lat="42.41874" lon="2.71208">
        <ele>1408</ele>
        <time>2018-11-26T04:34:20Z</time>
      </trkpt>
      <trkpt lat="42.41874" lon="2.71208">
        <ele>1408.1</ele>
        <time>2018-11-26T04:34:20Z</time>
      </trkpt>
      <trkpt lat="42.41874" lon="2.71208">
        <ele>1407.3</ele>
        <time>2018-11-26T04:34:20Z</time>
      </trkpt>
      <trkpt lat="42.41875" lon="2.71208">
        <ele>1406.7</ele>
        <time>2018-11-26T04:34:20Z</time>
      </trkpt>
      <trkpt lat="42.41876" lon="2.71207">
        <ele>1406.8</ele>
        <time>2018-11-26T04:34:20Z</time>
      </trkpt>
      <trkpt lat="42.41876" lon="2.71206">
        <ele>1406.9</ele>
        <time>2018-11-26T04:34:21Z</time>
      </trkpt>
      <trkpt lat="42.41876" lon="2.71205">
        <ele>1407</ele>
        <time>2018-11-26T04:34:21Z</time>
      </trkpt>
      <trkpt lat="42.41877" lon="2.71204">
        <ele>1407.1</ele>
        <time>2018-11-26T04:34:22Z</time>
      </trkpt>
      <trkpt lat="42.41878" lon="2.71203">
        <ele>1407.1</ele>
        <time>2018-11-26T04:34:22Z</time>
      </trkpt>
      <trkpt lat="42.41879" lon="2.71203">
        <ele>1407.3</ele>
        <time>2018-11-26T04:34:22Z</time>
      </trkpt>
      <trkpt lat="42.41879" lon="2.71202">
        <ele>1407.5</ele>
        <time>2018-11-26T04:34:23Z</time>
      </trkpt>
      <trkpt lat="42.4188" lon="2.71202">
        <ele>1407.4</ele>
        <time>2018-11-26T04:34:23Z</time>
      </trkpt>
      <trkpt lat="42.41881" lon="2.71202">
        <ele>1407.5</ele>
        <time>2018-11-26T04:34:23Z</time>
      </trkpt>
      <trkpt lat="42.41881" lon="2.71202">
        <ele>1407.6</ele>
        <time>2018-11-26T04:34:23Z</time>
      </trkpt>
      <trkpt lat="42.41882" lon="2.71202">
        <ele>1407.5</ele>
        <time>2018-11-26T04:34:24Z</time>
      </trkpt>
      <trkpt lat="42.41883" lon="2.71203">
        <ele>1407.2</ele>
        <time>2018-11-26T04:34:24Z</time>
      </trkpt>
      <trkpt lat="42.41885" lon="2.71203">
        <ele>1406.7</ele>
        <time>2018-11-26T04:34:25Z</time>
      </trkpt>
      <trkpt lat="42.41886" lon="2.71203">
        <ele>1405.6</ele>
        <time>2018-11-26T04:34:26Z</time>
      </trkpt>
      <trkpt lat="42.41887" lon="2.71203">
        <ele>1405.7</ele>
        <time>2018-11-26T04:34:26Z</time>
      </trkpt>
      <trkpt lat="42.41888" lon="2.71203">
        <ele>1405.6</ele>
        <time>2018-11-26T04:34:26Z</time>
      </trkpt>
      <trkpt lat="42.41889" lon="2.71204">
        <ele>1405.6</ele>
        <time>2018-11-26T04:34:27Z</time>
      </trkpt>
      <trkpt lat="42.41889" lon="2.71205">
        <ele>1405.8</ele>
        <time>2018-11-26T04:34:27Z</time>
      </trkpt>
      <trkpt lat="42.4189" lon="2.71206">
        <ele>1405.8</ele>
        <time>2018-11-26T04:34:27Z</time>
      </trkpt>
      <trkpt lat="42.41891" lon="2.71207">
        <ele>1406</ele>
        <time>2018-11-26T04:34:28Z</time>
      </trkpt>
      <trkpt lat="42.41892" lon="2.71206">
        <ele>1406.2</ele>
        <time>2018-11-26T04:34:28Z</time>
      </trkpt>
      <trkpt lat="42.41892" lon="2.71206">
        <ele>1406</ele>
        <time>2018-11-26T04:34:28Z</time>
      </trkpt>
      <trkpt lat="42.41894" lon="2.71205">
        <ele>1405.1</ele>
        <time>2018-11-26T04:34:29Z</time>
      </trkpt>
      <trkpt lat="42.41895" lon="2.71204">
        <ele>1404.7</ele>
        <time>2018-11-26T04:34:30Z</time>
      </trkpt>
      <trkpt lat="42.41896" lon="2.71204">
        <ele>1404.2</ele>
        <time>2018-11-26T04:34:30Z</time>
      </trkpt>
      <trkpt lat="42.41899" lon="2.71205">
        <ele>1402.9</ele>
        <time>2018-11-26T04:34:31Z</time>
      </trkpt>
      <trkpt lat="42.419" lon="2.71205">
        <ele>1402.6</ele>
        <time>2018-11-26T04:34:31Z</time>
      </trkpt>
      <trkpt lat="42.419" lon="2.71205">
        <ele>1402.5</ele>
        <time>2018-11-26T04:34:32Z</time>
      </trkpt>
      <trkpt lat="42.41902" lon="2.71205">
        <ele>1402.2</ele>
        <time>2018-11-26T04:34:33Z</time>
      </trkpt>
      <trkpt lat="42.41903" lon="2.71205">
        <ele>1402.3</ele>
        <time>2018-11-26T04:34:33Z</time>
      </trkpt>
      <trkpt lat="42.41904" lon="2.71206">
        <ele>1402.5</ele>
        <time>2018-11-26T04:34:33Z</time>
      </trkpt>
      <trkpt lat="42.41905" lon="2.71206">
        <ele>1402.7</ele>
        <time>2018-11-26T04:34:33Z</time>
      </trkpt>
      <trkpt lat="42.41905" lon="2.71206">
        <ele>1402.9</ele>
        <time>2018-11-26T04:34:34Z</time>
      </trkpt>
      <trkpt lat="42.41905" lon="2.71206">
        <ele>1402.9</ele>
        <time>2018-11-26T04:34:34Z</time>
      </trkpt>
      <trkpt lat="42.41905" lon="2.71206">
        <ele>1402.9</ele>
        <time>2018-11-26T04:34:34Z</time>
      </trkpt>
      <trkpt lat="42.41905" lon="2.71206">
        <ele>1403</ele>
        <time>2018-11-26T04:34:34Z</time>
      </trkpt>
      <trkpt lat="42.41905" lon="2.71206">
        <ele>1403</ele>
        <time>2018-11-26T04:34:34Z</time>
      </trkpt>
      <trkpt lat="42.41905" lon="2.71206">
        <ele>1403.1</ele>
        <time>2018-11-26T04:34:34Z</time>
      </trkpt>
      <trkpt lat="42.41905" lon="2.71206">
        <ele>1403</ele>
        <time>2018-11-26T04:34:34Z</time>
      </trkpt>
      <trkpt lat="42.41905" lon="2.71206">
        <ele>1403</ele>
        <time>2018-11-26T04:34:34Z</time>
      </trkpt>
      <trkpt lat="42.41905" lon="2.71207">
        <ele>1403</ele>
        <time>2018-11-26T04:34:34Z</time>
      </trkpt>
      <trkpt lat="42.41905" lon="2.71207">
        <ele>1402.8</ele>
        <time>2018-11-26T04:34:34Z</time>
      </trkpt>
      <trkpt lat="42.41905" lon="2.71207">
        <ele>1402.9</ele>
        <time>2018-11-26T04:34:34Z</time>
      </trkpt>
      <trkpt lat="42.41905" lon="2.71207">
        <ele>1403.2</ele>
        <time>2018-11-26T04:34:34Z</time>
      </trkpt>
      <trkpt lat="42.41904" lon="2.71207">
        <ele>1403.4</ele>
        <time>2018-11-26T04:34:34Z</time>
      </trkpt>
      <trkpt lat="42.41904" lon="2.71207">
        <ele>1403.3</ele>
        <time>2018-11-26T04:34:34Z</time>
      </trkpt>
      <trkpt lat="42.41904" lon="2.71207">
        <ele>1403.4</ele>
        <time>2018-11-26T04:34:34Z</time>
      </trkpt>
      <trkpt lat="42.41905" lon="2.71207">
        <ele>1403.6</ele>
        <time>2018-11-26T04:34:34Z</time>
      </trkpt>
      <trkpt lat="42.41905" lon="2.71207">
        <ele>1403.5</ele>
        <time>2018-11-26T04:34:34Z</time>
      </trkpt>
      <trkpt lat="42.41905" lon="2.71207">
        <ele>1403.5</ele>
        <time>2018-11-26T04:34:34Z</time>
      </trkpt>
      <trkpt lat="42.41905" lon="2.71207">
        <ele>1403.5</ele>
        <time>2018-11-26T04:34:34Z</time>
      </trkpt>
      <trkpt lat="42.41905" lon="2.71207">
        <ele>1403.5</ele>
        <time>2018-11-26T04:34:34Z</time>
      </trkpt>
      <trkpt lat="42.41905" lon="2.71207">
        <ele>1403.3</ele>
        <time>2018-11-26T04:34:34Z</time>
      </trkpt>
      <trkpt lat="42.41905" lon="2.71207">
        <ele>1403.3</ele>
        <time>2018-11-26T04:34:34Z</time>
      </trkpt>
      <trkpt lat="42.41905" lon="2.71207">
        <ele>1403</ele>
        <time>2018-11-26T04:34:34Z</time>
      </trkpt>
      <trkpt lat="42.41905" lon="2.71206">
        <ele>1402.8</ele>
        <time>2018-11-26T04:34:34Z</time>
      </trkpt>
      <trkpt lat="42.41904" lon="2.71207">
        <ele>1402</ele>
        <time>2018-11-26T04:34:34Z</time>
      </trkpt>
      <trkpt lat="42.41904" lon="2.71206">
        <ele>1402.1</ele>
        <time>2018-11-26T04:34:34Z</time>
      </trkpt>
      <trkpt lat="42.41904" lon="2.71207">
        <ele>1402</ele>
        <time>2018-11-26T04:34:34Z</time>
      </trkpt>
      <trkpt lat="42.41905" lon="2.71207">
        <ele>1401.9</ele>
        <time>2018-11-26T04:34:34Z</time>
      </trkpt>
      <trkpt lat="42.41905" lon="2.71207">
        <ele>1402.2</ele>
        <time>2018-11-26T04:34:34Z</time>
      </trkpt>
      <trkpt lat="42.41905" lon="2.71207">
        <ele>1402.4</ele>
        <time>2018-11-26T04:34:35Z</time>
      </trkpt>
      <trkpt lat="42.41905" lon="2.71206">
        <ele>1402.9</ele>
        <time>2018-11-26T04:34:35Z</time>
      </trkpt>
      <trkpt lat="42.41905" lon="2.71206">
        <ele>1402.9</ele>
        <time>2018-11-26T04:34:35Z</time>
      </trkpt>
      <trkpt lat="42.41905" lon="2.71206">
        <ele>1402.9</ele>
        <time>2018-11-26T04:34:35Z</time>
      </trkpt>
      <trkpt lat="42.41905" lon="2.71206">
        <ele>1403.2</ele>
        <time>2018-11-26T04:34:35Z</time>
      </trkpt>
      <trkpt lat="42.41905" lon="2.71206">
        <ele>1403.4</ele>
        <time>2018-11-26T04:34:35Z</time>
      </trkpt>
      <trkpt lat="42.41905" lon="2.71206">
        <ele>1403.4</ele>
        <time>2018-11-26T04:34:35Z</time>
      </trkpt>
      <trkpt lat="42.41905" lon="2.71206">
        <ele>1403.3</ele>
        <time>2018-11-26T04:34:35Z</time>
      </trkpt>
      <trkpt lat="42.41905" lon="2.71206">
        <ele>1403.3</ele>
        <time>2018-11-26T04:34:35Z</time>
      </trkpt>
      <trkpt lat="42.41905" lon="2.71206">
        <ele>1403.4</ele>
        <time>2018-11-26T04:34:35Z</time>
      </trkpt>
      <trkpt lat="42.41905" lon="2.71206">
        <ele>1403.4</ele>
        <time>2018-11-26T04:34:35Z</time>
      </trkpt>
      <trkpt lat="42.41905" lon="2.71206">
        <ele>1403.4</ele>
        <time>2018-11-26T04:34:35Z</time>
      </trkpt>
      <trkpt lat="42.41905" lon="2.71206">
        <ele>1403.1</ele>
        <time>2018-11-26T04:34:35Z</time>
      </trkpt>
      <trkpt lat="42.41905" lon="2.71206">
        <ele>1402.8</ele>
        <time>2018-11-26T04:34:35Z</time>
      </trkpt>
      <trkpt lat="42.41905" lon="2.71206">
        <ele>1402.5</ele>
        <time>2018-11-26T04:34:35Z</time>
      </trkpt>
      <trkpt lat="42.41905" lon="2.71206">
        <ele>1402.4</ele>
        <time>2018-11-26T04:34:35Z</time>
      </trkpt>
      <trkpt lat="42.41905" lon="2.71206">
        <ele>1402.3</ele>
        <time>2018-11-26T04:34:35Z</time>
      </trkpt>
      <trkpt lat="42.41904" lon="2.71206">
        <ele>1402.1</ele>
        <time>2018-11-26T04:34:35Z</time>
      </trkpt>
      <trkpt lat="42.41904" lon="2.71205">
        <ele>1402.2</ele>
        <time>2018-11-26T04:34:35Z</time>
      </trkpt>
      <trkpt lat="42.41904" lon="2.71205">
        <ele>1402.4</ele>
        <time>2018-11-26T04:34:35Z</time>
      </trkpt>
      <trkpt lat="42.41904" lon="2.71205">
        <ele>1402.7</ele>
        <time>2018-11-26T04:34:35Z</time>
      </trkpt>
      <trkpt lat="42.41904" lon="2.71205">
        <ele>1403</ele>
        <time>2018-11-26T04:34:35Z</time>
      </trkpt>
      <trkpt lat="42.41904" lon="2.71205">
        <ele>1403.1</ele>
        <time>2018-11-26T04:34:35Z</time>
      </trkpt>
      <trkpt lat="42.41904" lon="2.71205">
        <ele>1403.3</ele>
        <time>2018-11-26T04:34:35Z</time>
      </trkpt>
      <trkpt lat="42.41904" lon="2.71205">
        <ele>1403.7</ele>
        <time>2018-11-26T04:34:35Z</time>
      </trkpt>
      <trkpt lat="42.41905" lon="2.71205">
        <ele>1403.6</ele>
        <time>2018-11-26T04:34:35Z</time>
      </trkpt>
      <trkpt lat="42.41905" lon="2.71206">
        <ele>1403.7</ele>
        <time>2018-11-26T04:34:36Z</time>
      </trkpt>
      <trkpt lat="42.41905" lon="2.71206">
        <ele>1403.6</ele>
        <time>2018-11-26T04:34:36Z</time>
      </trkpt>
      <trkpt lat="42.41905" lon="2.71206">
        <ele>1403.3</ele>
        <time>2018-11-26T04:34:36Z</time>
      </trkpt>
      <trkpt lat="42.41905" lon="2.71206">
        <ele>1403</ele>
        <time>2018-11-26T04:34:36Z</time>
      </trkpt>
      <trkpt lat="42.41905" lon="2.71206">
        <ele>1402.3</ele>
        <time>2018-11-26T04:34:36Z</time>
      </trkpt>
      <trkpt lat="42.41905" lon="2.71205">
        <ele>1402.5</ele>
        <time>2018-11-26T04:34:36Z</time>
      </trkpt>
      <trkpt lat="42.41905" lon="2.71205">
        <ele>1402.5</ele>
        <time>2018-11-26T04:34:36Z</time>
      </trkpt>
      <trkpt lat="42.41905" lon="2.71205">
        <ele>1402.5</ele>
        <time>2018-11-26T04:34:36Z</time>
      </trkpt>
      <trkpt lat="42.41905" lon="2.71205">
        <ele>1402.6</ele>
        <time>2018-11-26T04:34:36Z</time>
      </trkpt>
      <trkpt lat="42.41905" lon="2.71205">
        <ele>1402.8</ele>
        <time>2018-11-26T04:34:36Z</time>
      </trkpt>
      <trkpt lat="42.41905" lon="2.71205">
        <ele>1403.2</ele>
        <time>2018-11-26T04:34:36Z</time>
      </trkpt>
      <trkpt lat="42.41905" lon="2.71205">
        <ele>1403.5</ele>
        <time>2018-11-26T04:34:36Z</time>
      </trkpt>
      <trkpt lat="42.41905" lon="2.71205">
        <ele>1403.3</ele>
        <time>2018-11-26T04:34:36Z</time>
      </trkpt>
      <trkpt lat="42.41905" lon="2.71205">
        <ele>1403.1</ele>
        <time>2018-11-26T04:34:36Z</time>
      </trkpt>
      <trkpt lat="42.41905" lon="2.71205">
        <ele>1402.7</ele>
        <time>2018-11-26T04:34:36Z</time>
      </trkpt>
      <trkpt lat="42.41905" lon="2.71205">
        <ele>1402.7</ele>
        <time>2018-11-26T04:34:36Z</time>
      </trkpt>
      <trkpt lat="42.41905" lon="2.71205">
        <ele>1402.5</ele>
        <time>2018-11-26T04:34:36Z</time>
      </trkpt>
      <trkpt lat="42.41905" lon="2.71205">
        <ele>1402.3</ele>
        <time>2018-11-26T04:34:36Z</time>
      </trkpt>
      <trkpt lat="42.41905" lon="2.71205">
        <ele>1402.5</ele>
        <time>2018-11-26T04:34:36Z</time>
      </trkpt>
      <trkpt lat="42.41905" lon="2.71206">
        <ele>1402.7</ele>
        <time>2018-11-26T04:34:36Z</time>
      </trkpt>
      <trkpt lat="42.41905" lon="2.71206">
        <ele>1402.8</ele>
        <time>2018-11-26T04:34:36Z</time>
      </trkpt>
      <trkpt lat="42.41905" lon="2.71206">
        <ele>1402.8</ele>
        <time>2018-11-26T04:34:36Z</time>
      </trkpt>
      <trkpt lat="42.41906" lon="2.71206">
        <ele>1402.8</ele>
        <time>2018-11-26T04:34:37Z</time>
      </trkpt>
      <trkpt lat="42.41906" lon="2.71207">
        <ele>1402.9</ele>
        <time>2018-11-26T04:34:37Z</time>
      </trkpt>
      <trkpt lat="42.41907" lon="2.71208">
        <ele>1402.7</ele>
        <time>2018-11-26T04:34:37Z</time>
      </trkpt>
      <trkpt lat="42.41907" lon="2.71209">
        <ele>1402.7</ele>
        <time>2018-11-26T04:34:38Z</time>
      </trkpt>
      <trkpt lat="42.41908" lon="2.71209">
        <ele>1402.5</ele>
        <time>2018-11-26T04:34:38Z</time>
      </trkpt>
      <trkpt lat="42.41908" lon="2.7121">
        <ele>1402.3</ele>
        <time>2018-11-26T04:34:38Z</time>
      </trkpt>
      <trkpt lat="42.41909" lon="2.71211">
        <ele>1402.4</ele>
        <time>2018-11-26T04:34:39Z</time>
      </trkpt>
      <trkpt lat="42.41911" lon="2.71212">
        <ele>1402.8</ele>
        <time>2018-11-26T04:34:40Z</time>
      </trkpt>
      <trkpt lat="42.41912" lon="2.71213">
        <ele>1402.6</ele>
        <time>2018-11-26T04:34:40Z</time>
      </trkpt>
      <trkpt lat="42.41913" lon="2.71213">
        <ele>1402.3</ele>
        <time>2018-11-26T04:34:40Z</time>
      </trkpt>
      <trkpt lat="42.41913" lon="2.71213">
        <ele>1402.2</ele>
        <time>2018-11-26T04:34:40Z</time>
      </trkpt>
      <trkpt lat="42.41914" lon="2.71213">
        <ele>1402</ele>
        <time>2018-11-26T04:34:41Z</time>
      </trkpt>
      <trkpt lat="42.41914" lon="2.71214">
        <ele>1401.8</ele>
        <time>2018-11-26T04:34:41Z</time>
      </trkpt>
      <trkpt lat="42.41915" lon="2.71214">
        <ele>1401.6</ele>
        <time>2018-11-26T04:34:41Z</time>
      </trkpt>
      <trkpt lat="42.41915" lon="2.71215">
        <ele>1401.4</ele>
        <time>2018-11-26T04:34:41Z</time>
      </trkpt>
      <trkpt lat="42.41915" lon="2.71215">
        <ele>1401.2</ele>
        <time>2018-11-26T04:34:42Z</time>
      </trkpt>
      <trkpt lat="42.41916" lon="2.71215">
        <ele>1401.3</ele>
        <time>2018-11-26T04:34:42Z</time>
      </trkpt>
      <trkpt lat="42.41916" lon="2.71215">
        <ele>1401.6</ele>
        <time>2018-11-26T04:34:42Z</time>
      </trkpt>
      <trkpt lat="42.41917" lon="2.71215">
        <ele>1402</ele>
        <time>2018-11-26T04:34:42Z</time>
      </trkpt>
      <trkpt lat="42.41918" lon="2.71216">
        <ele>1402</ele>
        <time>2018-11-26T04:34:43Z</time>
      </trkpt>
      <trkpt lat="42.41918" lon="2.71216">
        <ele>1402</ele>
        <time>2018-11-26T04:34:43Z</time>
      </trkpt>
      <trkpt lat="42.4192" lon="2.71217">
        <ele>1401.9</ele>
        <time>2018-11-26T04:34:44Z</time>
      </trkpt>
      <trkpt lat="42.41921" lon="2.71218">
        <ele>1402.2</ele>
        <time>2018-11-26T04:34:44Z</time>
      </trkpt>
      <trkpt lat="42.41921" lon="2.71219">
        <ele>1402.4</ele>
        <time>2018-11-26T04:34:44Z</time>
      </trkpt>
      <trkpt lat="42.41922" lon="2.7122">
        <ele>1403</ele>
        <time>2018-11-26T04:34:45Z</time>
      </trkpt>
      <trkpt lat="42.41923" lon="2.71221">
        <ele>1403.3</ele>
        <time>2018-11-26T04:34:45Z</time>
      </trkpt>
      <trkpt lat="42.41923" lon="2.71222">
        <ele>1403.5</ele>
        <time>2018-11-26T04:34:45Z</time>
      </trkpt>
      <trkpt lat="42.41923" lon="2.71222">
        <ele>1403.3</ele>
        <time>2018-11-26T04:34:46Z</time>
      </trkpt>
      <trkpt lat="42.41923" lon="2.71222">
        <ele>1403.1</ele>
        <time>2018-11-26T04:34:46Z</time>
      </trkpt>
      <trkpt lat="42.41923" lon="2.71222">
        <ele>1402.9</ele>
        <time>2018-11-26T04:34:46Z</time>
      </trkpt>
      <trkpt lat="42.41923" lon="2.71222">
        <ele>1402.8</ele>
        <time>2018-11-26T04:34:46Z</time>
      </trkpt>
      <trkpt lat="42.41923" lon="2.71222">
        <ele>1402.7</ele>
        <time>2018-11-26T04:34:46Z</time>
      </trkpt>
      <trkpt lat="42.41923" lon="2.71222">
        <ele>1402.6</ele>
        <time>2018-11-26T04:34:46Z</time>
      </trkpt>
      <trkpt lat="42.41923" lon="2.71222">
        <ele>1402.4</ele>
        <time>2018-11-26T04:34:46Z</time>
      </trkpt>
      <trkpt lat="42.41923" lon="2.71222">
        <ele>1402.3</ele>
        <time>2018-11-26T04:34:46Z</time>
      </trkpt>
      <trkpt lat="42.41923" lon="2.71222">
        <ele>1402.1</ele>
        <time>2018-11-26T04:34:46Z</time>
      </trkpt>
      <trkpt lat="42.41923" lon="2.71222">
        <ele>1401.9</ele>
        <time>2018-11-26T04:34:46Z</time>
      </trkpt>
      <trkpt lat="42.41923" lon="2.71222">
        <ele>1402.1</ele>
        <time>2018-11-26T04:34:46Z</time>
      </trkpt>
      <trkpt lat="42.41923" lon="2.71222">
        <ele>1402.3</ele>
        <time>2018-11-26T04:34:46Z</time>
      </trkpt>
      <trkpt lat="42.41923" lon="2.71222">
        <ele>1402.6</ele>
        <time>2018-11-26T04:34:46Z</time>
      </trkpt>
      <trkpt lat="42.41923" lon="2.71222">
        <ele>1402.4</ele>
        <time>2018-11-26T04:34:46Z</time>
      </trkpt>
      <trkpt lat="42.41923" lon="2.71222">
        <ele>1402.3</ele>
        <time>2018-11-26T04:34:46Z</time>
      </trkpt>
      <trkpt lat="42.41923" lon="2.71222">
        <ele>1401.8</ele>
        <time>2018-11-26T04:34:46Z</time>
      </trkpt>
      <trkpt lat="42.41923" lon="2.71222">
        <ele>1402.1</ele>
        <time>2018-11-26T04:34:46Z</time>
      </trkpt>
      <trkpt lat="42.41923" lon="2.71222">
        <ele>1402.6</ele>
        <time>2018-11-26T04:34:46Z</time>
      </trkpt>
      <trkpt lat="42.41923" lon="2.71222">
        <ele>1403.1</ele>
        <time>2018-11-26T04:34:46Z</time>
      </trkpt>
      <trkpt lat="42.41923" lon="2.71222">
        <ele>1403.1</ele>
        <time>2018-11-26T04:34:46Z</time>
      </trkpt>
      <trkpt lat="42.41923" lon="2.71222">
        <ele>1403</ele>
        <time>2018-11-26T04:34:46Z</time>
      </trkpt>
      <trkpt lat="42.41923" lon="2.71222">
        <ele>1403</ele>
        <time>2018-11-26T04:34:46Z</time>
      </trkpt>
      <trkpt lat="42.41923" lon="2.71222">
        <ele>1402.9</ele>
        <time>2018-11-26T04:34:46Z</time>
      </trkpt>
      <trkpt lat="42.41923" lon="2.71223">
        <ele>1402.9</ele>
        <time>2018-11-26T04:34:46Z</time>
      </trkpt>
      <trkpt lat="42.41923" lon="2.71223">
        <ele>1403.1</ele>
        <time>2018-11-26T04:34:46Z</time>
      </trkpt>
      <trkpt lat="42.41923" lon="2.71223">
        <ele>1403.1</ele>
        <time>2018-11-26T04:34:46Z</time>
      </trkpt>
      <trkpt lat="42.41923" lon="2.71223">
        <ele>1403</ele>
        <time>2018-11-26T04:34:46Z</time>
      </trkpt>
      <trkpt lat="42.41923" lon="2.71223">
        <ele>1402.9</ele>
        <time>2018-11-26T04:34:46Z</time>
      </trkpt>
      <trkpt lat="42.41923" lon="2.71223">
        <ele>1402.8</ele>
        <time>2018-11-26T04:34:46Z</time>
      </trkpt>
      <trkpt lat="42.41923" lon="2.71223">
        <ele>1402.7</ele>
        <time>2018-11-26T04:34:46Z</time>
      </trkpt>
      <trkpt lat="42.41923" lon="2.71223">
        <ele>1402.6</ele>
        <time>2018-11-26T04:34:46Z</time>
      </trkpt>
      <trkpt lat="42.41923" lon="2.71223">
        <ele>1402.5</ele>
        <time>2018-11-26T04:34:46Z</time>
      </trkpt>
      <trkpt lat="42.41923" lon="2.71223">
        <ele>1402.5</ele>
        <time>2018-11-26T04:34:46Z</time>
      </trkpt>
      <trkpt lat="42.41923" lon="2.71223">
        <ele>1402.5</ele>
        <time>2018-11-26T04:34:46Z</time>
      </trkpt>
      <trkpt lat="42.41923" lon="2.71223">
        <ele>1402.4</ele>
        <time>2018-11-26T04:34:46Z</time>
      </trkpt>
      <trkpt lat="42.41923" lon="2.71224">
        <ele>1402.5</ele>
        <time>2018-11-26T04:34:46Z</time>
      </trkpt>
      <trkpt lat="42.41923" lon="2.71224">
        <ele>1402.4</ele>
        <time>2018-11-26T04:34:47Z</time>
      </trkpt>
      <trkpt lat="42.41923" lon="2.71224">
        <ele>1402.4</ele>
        <time>2018-11-26T04:34:47Z</time>
      </trkpt>
      <trkpt lat="42.41923" lon="2.71224">
        <ele>1402.5</ele>
        <time>2018-11-26T04:34:47Z</time>
      </trkpt>
      <trkpt lat="42.41923" lon="2.71224">
        <ele>1402.5</ele>
        <time>2018-11-26T04:34:47Z</time>
      </trkpt>
      <trkpt lat="42.41923" lon="2.71224">
        <ele>1402.7</ele>
        <time>2018-11-26T04:34:47Z</time>
      </trkpt>
      <trkpt lat="42.41923" lon="2.71224">
        <ele>1402.7</ele>
        <time>2018-11-26T04:34:47Z</time>
      </trkpt>
      <trkpt lat="42.41923" lon="2.71224">
        <ele>1402.9</ele>
        <time>2018-11-26T04:34:47Z</time>
      </trkpt>
      <trkpt lat="42.41923" lon="2.71224">
        <ele>1403.2</ele>
        <time>2018-11-26T04:34:47Z</time>
      </trkpt>
      <trkpt lat="42.41923" lon="2.71224">
        <ele>1403.5</ele>
        <time>2018-11-26T04:34:47Z</time>
      </trkpt>
      <trkpt lat="42.41923" lon="2.71224">
        <ele>1403.5</ele>
        <time>2018-11-26T04:34:47Z</time>
      </trkpt>
      <trkpt lat="42.41923" lon="2.71224">
        <ele>1403.3</ele>
        <time>2018-11-26T04:34:47Z</time>
      </trkpt>
      <trkpt lat="42.41923" lon="2.71224">
        <ele>1403.2</ele>
        <time>2018-11-26T04:34:47Z</time>
      </trkpt>
      <trkpt lat="42.41923" lon="2.71224">
        <ele>1403.2</ele>
        <time>2018-11-26T04:34:47Z</time>
      </trkpt>
      <trkpt lat="42.41923" lon="2.71225">
        <ele>1403.1</ele>
        <time>2018-11-26T04:34:47Z</time>
      </trkpt>
      <trkpt lat="42.41923" lon="2.71225">
        <ele>1403.1</ele>
        <time>2018-11-26T04:34:47Z</time>
      </trkpt>
      <trkpt lat="42.41923" lon="2.71225">
        <ele>1403.1</ele>
        <time>2018-11-26T04:34:47Z</time>
      </trkpt>
      <trkpt lat="42.41923" lon="2.71225">
        <ele>1403.1</ele>
        <time>2018-11-26T04:34:47Z</time>
      </trkpt>
      <trkpt lat="42.41923" lon="2.71225">
        <ele>1403.2</ele>
        <time>2018-11-26T04:34:47Z</time>
      </trkpt>
      <trkpt lat="42.41923" lon="2.71225">
        <ele>1402.8</ele>
        <time>2018-11-26T04:34:47Z</time>
      </trkpt>
      <trkpt lat="42.41923" lon="2.71225">
        <ele>1402.2</ele>
        <time>2018-11-26T04:34:47Z</time>
      </trkpt>
      <trkpt lat="42.41923" lon="2.71225">
        <ele>1401.5</ele>
        <time>2018-11-26T04:34:47Z</time>
      </trkpt>
      <trkpt lat="42.41923" lon="2.71225">
        <ele>1401.8</ele>
        <time>2018-11-26T04:34:47Z</time>
      </trkpt>
      <trkpt lat="42.41923" lon="2.71225">
        <ele>1402.2</ele>
        <time>2018-11-26T04:34:47Z</time>
      </trkpt>
      <trkpt lat="42.41923" lon="2.71224">
        <ele>1402.8</ele>
        <time>2018-11-26T04:34:47Z</time>
      </trkpt>
      <trkpt lat="42.41923" lon="2.71224">
        <ele>1403.7</ele>
        <time>2018-11-26T04:34:47Z</time>
      </trkpt>
      <trkpt lat="42.41923" lon="2.71225">
        <ele>1403.6</ele>
        <time>2018-11-26T04:34:47Z</time>
      </trkpt>
      <trkpt lat="42.41924" lon="2.71225">
        <ele>1403.4</ele>
        <time>2018-11-26T04:34:47Z</time>
      </trkpt>
      <trkpt lat="42.41924" lon="2.71226">
        <ele>1403.3</ele>
        <time>2018-11-26T04:34:48Z</time>
      </trkpt>
      <trkpt lat="42.41924" lon="2.71227">
        <ele>1403.3</ele>
        <time>2018-11-26T04:34:48Z</time>
      </trkpt>
      <trkpt lat="42.41924" lon="2.71228">
        <ele>1403.1</ele>
        <time>2018-11-26T04:34:48Z</time>
      </trkpt>
      <trkpt lat="42.41925" lon="2.71229">
        <ele>1403</ele>
        <time>2018-11-26T04:34:48Z</time>
      </trkpt>
      <trkpt lat="42.41925" lon="2.71229">
        <ele>1403</ele>
        <time>2018-11-26T04:34:49Z</time>
      </trkpt>
      <trkpt lat="42.41926" lon="2.7123">
        <ele>1403</ele>
        <time>2018-11-26T04:34:49Z</time>
      </trkpt>
      <trkpt lat="42.41926" lon="2.7123">
        <ele>1402.9</ele>
        <time>2018-11-26T04:34:49Z</time>
      </trkpt>
      <trkpt lat="42.41927" lon="2.7123">
        <ele>1402.9</ele>
        <time>2018-11-26T04:34:50Z</time>
      </trkpt>
      <trkpt lat="42.41928" lon="2.7123">
        <ele>1402.8</ele>
        <time>2018-11-26T04:34:50Z</time>
      </trkpt>
      <trkpt lat="42.41929" lon="2.71231">
        <ele>1402.6</ele>
        <time>2018-11-26T04:34:50Z</time>
      </trkpt>
      <trkpt lat="42.41929" lon="2.71231">
        <ele>1402.6</ele>
        <time>2018-11-26T04:34:50Z</time>
      </trkpt>
      <trkpt lat="42.41929" lon="2.71232">
        <ele>1402.6</ele>
        <time>2018-11-26T04:34:51Z</time>
      </trkpt>
      <trkpt lat="42.4193" lon="2.71232">
        <ele>1402.8</ele>
        <time>2018-11-26T04:34:51Z</time>
      </trkpt>
      <trkpt lat="42.4193" lon="2.71233">
        <ele>1403.2</ele>
        <time>2018-11-26T04:34:51Z</time>
      </trkpt>
      <trkpt lat="42.41931" lon="2.71233">
        <ele>1403.7</ele>
        <time>2018-11-26T04:34:51Z</time>
      </trkpt>
      <trkpt lat="42.41931" lon="2.71233">
        <ele>1404.6</ele>
        <time>2018-11-26T04:34:52Z</time>
      </trkpt>
      <trkpt lat="42.41932" lon="2.71234">
        <ele>1404.8</ele>
        <time>2018-11-26T04:34:52Z</time>
      </trkpt>
      <trkpt lat="42.41933" lon="2.71235">
        <ele>1405.1</ele>
        <time>2018-11-26T04:34:52Z</time>
      </trkpt>
      <trkpt lat="42.41933" lon="2.71235">
        <ele>1405.4</ele>
        <time>2018-11-26T04:34:53Z</time>
      </trkpt>
      <trkpt lat="42.41933" lon="2.71236">
        <ele>1405.5</ele>
        <time>2018-11-26T04:34:53Z</time>
      </trkpt>
      <trkpt lat="42.41933" lon="2.71236">
        <ele>1405.7</ele>
        <time>2018-11-26T04:34:53Z</time>
      </trkpt>
      <trkpt lat="42.41933" lon="2.71237">
        <ele>1406.1</ele>
        <time>2018-11-26T04:34:53Z</time>
      </trkpt>
      <trkpt lat="42.41933" lon="2.71237">
        <ele>1406.3</ele>
        <time>2018-11-26T04:34:53Z</time>
      </trkpt>
      <trkpt lat="42.41933" lon="2.71238">
        <ele>1406.7</ele>
        <time>2018-11-26T04:34:53Z</time>
      </trkpt>
      <trkpt lat="42.41933" lon="2.71239">
        <ele>1407.1</ele>
        <time>2018-11-26T04:34:54Z</time>
      </trkpt>
      <trkpt lat="42.41933" lon="2.7124">
        <ele>1407.3</ele>
        <time>2018-11-26T04:34:54Z</time>
      </trkpt>
      <trkpt lat="42.41933" lon="2.7124">
        <ele>1407.3</ele>
        <time>2018-11-26T04:34:54Z</time>
      </trkpt>
      <trkpt lat="42.41933" lon="2.7124">
        <ele>1407.7</ele>
        <time>2018-11-26T04:34:54Z</time>
      </trkpt>
      <trkpt lat="42.41933" lon="2.71241">
        <ele>1407.9</ele>
        <time>2018-11-26T04:34:54Z</time>
      </trkpt>
      <trkpt lat="42.41934" lon="2.71242">
        <ele>1407.7</ele>
        <time>2018-11-26T04:34:55Z</time>
      </trkpt>
      <trkpt lat="42.41935" lon="2.71242">
        <ele>1407.6</ele>
        <time>2018-11-26T04:34:55Z</time>
      </trkpt>
      <trkpt lat="42.41935" lon="2.71243">
        <ele>1407.3</ele>
        <time>2018-11-26T04:34:55Z</time>
      </trkpt>
      <trkpt lat="42.41935" lon="2.71243">
        <ele>1407.1</ele>
        <time>2018-11-26T04:34:55Z</time>
      </trkpt>
      <trkpt lat="42.41936" lon="2.71244">
        <ele>1406.9</ele>
        <time>2018-11-26T04:34:56Z</time>
      </trkpt>
      <trkpt lat="42.41936" lon="2.71244">
        <ele>1407</ele>
        <time>2018-11-26T04:34:56Z</time>
      </trkpt>
      <trkpt lat="42.41936" lon="2.71244">
        <ele>1407.2</ele>
        <time>2018-11-26T04:34:56Z</time>
      </trkpt>
      <trkpt lat="42.41936" lon="2.71245">
        <ele>1407.3</ele>
        <time>2018-11-26T04:34:56Z</time>
      </trkpt>
      <trkpt lat="42.41937" lon="2.71245">
        <ele>1407.3</ele>
        <time>2018-11-26T04:34:56Z</time>
      </trkpt>
      <trkpt lat="42.41937" lon="2.71245">
        <ele>1407.3</ele>
        <time>2018-11-26T04:34:56Z</time>
      </trkpt>
      <trkpt lat="42.41937" lon="2.71245">
        <ele>1407.4</ele>
        <time>2018-11-26T04:34:56Z</time>
      </trkpt>
      <trkpt lat="42.41937" lon="2.71245">
        <ele>1407.4</ele>
        <time>2018-11-26T04:34:56Z</time>
      </trkpt>
      <trkpt lat="42.41937" lon="2.71245">
        <ele>1407.7</ele>
        <time>2018-11-26T04:34:56Z</time>
      </trkpt>
      <trkpt lat="42.41937" lon="2.71245">
        <ele>1407.8</ele>
        <time>2018-11-26T04:34:56Z</time>
      </trkpt>
      <trkpt lat="42.41937" lon="2.71245">
        <ele>1408.1</ele>
        <time>2018-11-26T04:34:56Z</time>
      </trkpt>
      <trkpt lat="42.41937" lon="2.71246">
        <ele>1408.1</ele>
        <time>2018-11-26T04:34:56Z</time>
      </trkpt>
      <trkpt lat="42.41937" lon="2.71246">
        <ele>1408</ele>
        <time>2018-11-26T04:34:57Z</time>
      </trkpt>
      <trkpt lat="42.41938" lon="2.71246">
        <ele>1407.8</ele>
        <time>2018-11-26T04:34:57Z</time>
      </trkpt>
      <trkpt lat="42.41938" lon="2.71246">
        <ele>1407.7</ele>
        <time>2018-11-26T04:34:57Z</time>
      </trkpt>
      <trkpt lat="42.41938" lon="2.71246">
        <ele>1407.8</ele>
        <time>2018-11-26T04:34:57Z</time>
      </trkpt>
      <trkpt lat="42.41938" lon="2.71246">
        <ele>1407.7</ele>
        <time>2018-11-26T04:34:57Z</time>
      </trkpt>
      <trkpt lat="42.41938" lon="2.71246">
        <ele>1407.8</ele>
        <time>2018-11-26T04:34:57Z</time>
      </trkpt>
      <trkpt lat="42.41938" lon="2.71246">
        <ele>1408</ele>
        <time>2018-11-26T04:34:57Z</time>
      </trkpt>
      <trkpt lat="42.41938" lon="2.71246">
        <ele>1408</ele>
        <time>2018-11-26T04:34:57Z</time>
      </trkpt>
      <trkpt lat="42.41938" lon="2.71246">
        <ele>1408.3</ele>
        <time>2018-11-26T04:34:57Z</time>
      </trkpt>
      <trkpt lat="42.41938" lon="2.71246">
        <ele>1408.7</ele>
        <time>2018-11-26T04:34:57Z</time>
      </trkpt>
      <trkpt lat="42.41938" lon="2.71246">
        <ele>1409.1</ele>
        <time>2018-11-26T04:34:57Z</time>
      </trkpt>
      <trkpt lat="42.41938" lon="2.71246">
        <ele>1409.7</ele>
        <time>2018-11-26T04:34:57Z</time>
      </trkpt>
      <trkpt lat="42.41939" lon="2.71247">
        <ele>1409.4</ele>
        <time>2018-11-26T04:34:58Z</time>
      </trkpt>
      <trkpt lat="42.41939" lon="2.71247">
        <ele>1408.9</ele>
        <time>2018-11-26T04:34:58Z</time>
      </trkpt>
      <trkpt lat="42.41939" lon="2.71248">
        <ele>1408.4</ele>
        <time>2018-11-26T04:34:58Z</time>
      </trkpt>
      <trkpt lat="42.4194" lon="2.71248">
        <ele>1408.5</ele>
        <time>2018-11-26T04:34:58Z</time>
      </trkpt>
      <trkpt lat="42.4194" lon="2.71248">
        <ele>1408.6</ele>
        <time>2018-11-26T04:34:58Z</time>
      </trkpt>
      <trkpt lat="42.41941" lon="2.71247">
        <ele>1408.8</ele>
        <time>2018-11-26T04:34:59Z</time>
      </trkpt>
      <trkpt lat="42.41941" lon="2.71247">
        <ele>1408.8</ele>
        <time>2018-11-26T04:34:59Z</time>
      </trkpt>
      <trkpt lat="42.41942" lon="2.71247">
        <ele>1408.8</ele>
        <time>2018-11-26T04:34:59Z</time>
      </trkpt>
      <trkpt lat="42.41943" lon="2.71247">
        <ele>1408.7</ele>
        <time>2018-11-26T04:34:59Z</time>
      </trkpt>
      <trkpt lat="42.41943" lon="2.71247">
        <ele>1408.5</ele>
        <time>2018-11-26T04:35:00Z</time>
      </trkpt>
      <trkpt lat="42.41944" lon="2.71247">
        <ele>1408.3</ele>
        <time>2018-11-26T04:35:00Z</time>
      </trkpt>
      <trkpt lat="42.41944" lon="2.71248">
        <ele>1408.1</ele>
        <time>2018-11-26T04:35:00Z</time>
      </trkpt>
      <trkpt lat="42.41945" lon="2.71248">
        <ele>1407.9</ele>
        <time>2018-11-26T04:35:00Z</time>
      </trkpt>
      <trkpt lat="42.41945" lon="2.71249">
        <ele>1407.8</ele>
        <time>2018-11-26T04:35:01Z</time>
      </trkpt>
      <trkpt lat="42.41946" lon="2.71249">
        <ele>1407.7</ele>
        <time>2018-11-26T04:35:01Z</time>
      </trkpt>
      <trkpt lat="42.41946" lon="2.71249">
        <ele>1407.7</ele>
        <time>2018-11-26T04:35:01Z</time>
      </trkpt>
      <trkpt lat="42.41946" lon="2.71249">
        <ele>1407.5</ele>
        <time>2018-11-26T04:35:01Z</time>
      </trkpt>
      <trkpt lat="42.41946" lon="2.71249">
        <ele>1407.1</ele>
        <time>2018-11-26T04:35:01Z</time>
      </trkpt>
      <trkpt lat="42.41946" lon="2.71249">
        <ele>1406.8</ele>
        <time>2018-11-26T04:35:01Z</time>
      </trkpt>
      <trkpt lat="42.41946" lon="2.71249">
        <ele>1407.2</ele>
        <time>2018-11-26T04:35:01Z</time>
      </trkpt>
      <trkpt lat="42.41946" lon="2.71249">
        <ele>1407.5</ele>
        <time>2018-11-26T04:35:01Z</time>
      </trkpt>
      <trkpt lat="42.41946" lon="2.71249">
        <ele>1408</ele>
        <time>2018-11-26T04:35:01Z</time>
      </trkpt>
      <trkpt lat="42.41947" lon="2.71249">
        <ele>1407.8</ele>
        <time>2018-11-26T04:35:02Z</time>
      </trkpt>
      <trkpt lat="42.41947" lon="2.71249">
        <ele>1407.7</ele>
        <time>2018-11-26T04:35:02Z</time>
      </trkpt>
      <trkpt lat="42.41948" lon="2.71249">
        <ele>1407.6</ele>
        <time>2018-11-26T04:35:02Z</time>
      </trkpt>
      <trkpt lat="42.41948" lon="2.7125">
        <ele>1407.5</ele>
        <time>2018-11-26T04:35:02Z</time>
      </trkpt>
      <trkpt lat="42.41949" lon="2.7125">
        <ele>1407.3</ele>
        <time>2018-11-26T04:35:03Z</time>
      </trkpt>
      <trkpt lat="42.41949" lon="2.71251">
        <ele>1406.9</ele>
        <time>2018-11-26T04:35:03Z</time>
      </trkpt>
      <trkpt lat="42.41949" lon="2.71252">
        <ele>1407.1</ele>
        <time>2018-11-26T04:35:03Z</time>
      </trkpt>
      <trkpt lat="42.4195" lon="2.71253">
        <ele>1407</ele>
        <time>2018-11-26T04:35:03Z</time>
      </trkpt>
      <trkpt lat="42.4195" lon="2.71254">
        <ele>1407.1</ele>
        <time>2018-11-26T04:35:04Z</time>
      </trkpt>
      <trkpt lat="42.41951" lon="2.71254">
        <ele>1407.2</ele>
        <time>2018-11-26T04:35:04Z</time>
      </trkpt>
      <trkpt lat="42.41951" lon="2.71255">
        <ele>1407.1</ele>
        <time>2018-11-26T04:35:04Z</time>
      </trkpt>
      <trkpt lat="42.41952" lon="2.71255">
        <ele>1407</ele>
        <time>2018-11-26T04:35:05Z</time>
      </trkpt>
      <trkpt lat="42.41952" lon="2.71256">
        <ele>1406.9</ele>
        <time>2018-11-26T04:35:05Z</time>
      </trkpt>
      <trkpt lat="42.41953" lon="2.71256">
        <ele>1407.2</ele>
        <time>2018-11-26T04:35:05Z</time>
      </trkpt>
      <trkpt lat="42.41953" lon="2.71257">
        <ele>1407.4</ele>
        <time>2018-11-26T04:35:05Z</time>
      </trkpt>
      <trkpt lat="42.41954" lon="2.71257">
        <ele>1407.7</ele>
        <time>2018-11-26T04:35:06Z</time>
      </trkpt>
      <trkpt lat="42.41954" lon="2.71258">
        <ele>1407.6</ele>
        <time>2018-11-26T04:35:06Z</time>
      </trkpt>
      <trkpt lat="42.41954" lon="2.71258">
        <ele>1407.2</ele>
        <time>2018-11-26T04:35:06Z</time>
      </trkpt>
      <trkpt lat="42.41954" lon="2.71259">
        <ele>1406.9</ele>
        <time>2018-11-26T04:35:06Z</time>
      </trkpt>
      <trkpt lat="42.41954" lon="2.71259">
        <ele>1407</ele>
        <time>2018-11-26T04:35:06Z</time>
      </trkpt>
      <trkpt lat="42.41955" lon="2.71259">
        <ele>1407.2</ele>
        <time>2018-11-26T04:35:06Z</time>
      </trkpt>
      <trkpt lat="42.41955" lon="2.7126">
        <ele>1407.4</ele>
        <time>2018-11-26T04:35:07Z</time>
      </trkpt>
      <trkpt lat="42.41956" lon="2.7126">
        <ele>1407.3</ele>
        <time>2018-11-26T04:35:07Z</time>
      </trkpt>
      <trkpt lat="42.41956" lon="2.7126">
        <ele>1407.3</ele>
        <time>2018-11-26T04:35:07Z</time>
      </trkpt>
      <trkpt lat="42.41957" lon="2.71261">
        <ele>1407.2</ele>
        <time>2018-11-26T04:35:07Z</time>
      </trkpt>
      <trkpt lat="42.41957" lon="2.71261">
        <ele>1407</ele>
        <time>2018-11-26T04:35:07Z</time>
      </trkpt>
      <trkpt lat="42.41957" lon="2.71262">
        <ele>1406.8</ele>
        <time>2018-11-26T04:35:08Z</time>
      </trkpt>
      <trkpt lat="42.41957" lon="2.71262">
        <ele>1406.7</ele>
        <time>2018-11-26T04:35:08Z</time>
      </trkpt>
      <trkpt lat="42.41957" lon="2.71262">
        <ele>1406.2</ele>
        <time>2018-11-26T04:35:08Z</time>
      </trkpt>
      <trkpt lat="42.41958" lon="2.71263">
        <ele>1406.4</ele>
        <time>2018-11-26T04:35:08Z</time>
      </trkpt>
      <trkpt lat="42.41958" lon="2.71263">
        <ele>1406.6</ele>
        <time>2018-11-26T04:35:08Z</time>
      </trkpt>
      <trkpt lat="42.41958" lon="2.71263">
        <ele>1406.9</ele>
        <time>2018-11-26T04:35:08Z</time>
      </trkpt>
      <trkpt lat="42.41958" lon="2.71263">
        <ele>1407</ele>
        <time>2018-11-26T04:35:08Z</time>
      </trkpt>
      <trkpt lat="42.41959" lon="2.71264">
        <ele>1406.8</ele>
        <time>2018-11-26T04:35:09Z</time>
      </trkpt>
      <trkpt lat="42.41959" lon="2.71264">
        <ele>1406.9</ele>
        <time>2018-11-26T04:35:09Z</time>
      </trkpt>
      <trkpt lat="42.4196" lon="2.71265">
        <ele>1406.8</ele>
        <time>2018-11-26T04:35:09Z</time>
      </trkpt>
      <trkpt lat="42.4196" lon="2.71265">
        <ele>1406.8</ele>
        <time>2018-11-26T04:35:09Z</time>
      </trkpt>
      <trkpt lat="42.4196" lon="2.71266">
        <ele>1406.9</ele>
        <time>2018-11-26T04:35:09Z</time>
      </trkpt>
      <trkpt lat="42.41961" lon="2.71266">
        <ele>1407.1</ele>
        <time>2018-11-26T04:35:10Z</time>
      </trkpt>
      <trkpt lat="42.41961" lon="2.71267">
        <ele>1407.1</ele>
        <time>2018-11-26T04:35:10Z</time>
      </trkpt>
      <trkpt lat="42.41961" lon="2.71267">
        <ele>1407.3</ele>
        <time>2018-11-26T04:35:10Z</time>
      </trkpt>
      <trkpt lat="42.41961" lon="2.71268">
        <ele>1407.4</ele>
        <time>2018-11-26T04:35:10Z</time>
      </trkpt>
      <trkpt lat="42.41962" lon="2.71268">
        <ele>1407.4</ele>
        <time>2018-11-26T04:35:10Z</time>
      </trkpt>
      <trkpt lat="42.41962" lon="2.71269">
        <ele>1407.6</ele>
        <time>2018-11-26T04:35:11Z</time>
      </trkpt>
      <trkpt lat="42.41962" lon="2.71269">
        <ele>1407.7</ele>
        <time>2018-11-26T04:35:11Z</time>
      </trkpt>
      <trkpt lat="42.41962" lon="2.71269">
        <ele>1407.6</ele>
        <time>2018-11-26T04:35:11Z</time>
      </trkpt>
      <trkpt lat="42.41962" lon="2.71269">
        <ele>1407.4</ele>
        <time>2018-11-26T04:35:11Z</time>
      </trkpt>
      <trkpt lat="42.41962" lon="2.71269">
        <ele>1407.2</ele>
        <time>2018-11-26T04:35:11Z</time>
      </trkpt>
      <trkpt lat="42.41962" lon="2.71269">
        <ele>1407.5</ele>
        <time>2018-11-26T04:35:11Z</time>
      </trkpt>
      <trkpt lat="42.41962" lon="2.71269">
        <ele>1408</ele>
        <time>2018-11-26T04:35:11Z</time>
      </trkpt>
      <trkpt lat="42.41962" lon="2.71269">
        <ele>1408.5</ele>
        <time>2018-11-26T04:35:11Z</time>
      </trkpt>
      <trkpt lat="42.41962" lon="2.71269">
        <ele>1408.4</ele>
        <time>2018-11-26T04:35:11Z</time>
      </trkpt>
      <trkpt lat="42.41963" lon="2.7127">
        <ele>1408.3</ele>
        <time>2018-11-26T04:35:11Z</time>
      </trkpt>
      <trkpt lat="42.41963" lon="2.71271">
        <ele>1408</ele>
        <time>2018-11-26T04:35:11Z</time>
      </trkpt>
      <trkpt lat="42.41963" lon="2.71272">
        <ele>1407.9</ele>
        <time>2018-11-26T04:35:12Z</time>
      </trkpt>
      <trkpt lat="42.41963" lon="2.71273">
        <ele>1408</ele>
        <time>2018-11-26T04:35:12Z</time>
      </trkpt>
      <trkpt lat="42.41963" lon="2.71274">
        <ele>1408</ele>
        <time>2018-11-26T04:35:12Z</time>
      </trkpt>
      <trkpt lat="42.41964" lon="2.71274">
        <ele>1408</ele>
        <time>2018-11-26T04:35:13Z</time>
      </trkpt>
      <trkpt lat="42.41964" lon="2.71275">
        <ele>1408</ele>
        <time>2018-11-26T04:35:13Z</time>
      </trkpt>
      <trkpt lat="42.41964" lon="2.71276">
        <ele>1408</ele>
        <time>2018-11-26T04:35:13Z</time>
      </trkpt>
      <trkpt lat="42.41965" lon="2.71276">
        <ele>1407.9</ele>
        <time>2018-11-26T04:35:13Z</time>
      </trkpt>
      <trkpt lat="42.41965" lon="2.71277">
        <ele>1407.6</ele>
        <time>2018-11-26T04:35:14Z</time>
      </trkpt>
      <trkpt lat="42.41967" lon="2.7128">
        <ele>1406.9</ele>
        <time>2018-11-26T04:35:15Z</time>
      </trkpt>
      <trkpt lat="42.41968" lon="2.71281">
        <ele>1407</ele>
        <time>2018-11-26T04:35:15Z</time>
      </trkpt>
      <trkpt lat="42.41969" lon="2.71282">
        <ele>1406.8</ele>
        <time>2018-11-26T04:35:16Z</time>
      </trkpt>
      <trkpt lat="42.4197" lon="2.71283">
        <ele>1406.6</ele>
        <time>2018-11-26T04:35:16Z</time>
      </trkpt>
      <trkpt lat="42.41971" lon="2.71285">
        <ele>1406.1</ele>
        <time>2018-11-26T04:35:17Z</time>
      </trkpt>
      <trkpt lat="42.41971" lon="2.71286">
        <ele>1405.7</ele>
        <time>2018-11-26T04:35:17Z</time>
      </trkpt>
      <trkpt lat="42.41972" lon="2.71287">
        <ele>1405.4</ele>
        <time>2018-11-26T04:35:18Z</time>
      </trkpt>
      <trkpt lat="42.41972" lon="2.71288">
        <ele>1405.2</ele>
        <time>2018-11-26T04:35:18Z</time>
      </trkpt>
      <trkpt lat="42.41972" lon="2.71289">
        <ele>1405.2</ele>
        <time>2018-11-26T04:35:18Z</time>
      </trkpt>
      <trkpt lat="42.41972" lon="2.7129">
        <ele>1405.1</ele>
        <time>2018-11-26T04:35:19Z</time>
      </trkpt>
      <trkpt lat="42.41973" lon="2.71291">
        <ele>1405</ele>
        <time>2018-11-26T04:35:19Z</time>
      </trkpt>
      <trkpt lat="42.41973" lon="2.71292">
        <ele>1405.1</ele>
        <time>2018-11-26T04:35:19Z</time>
      </trkpt>
      <trkpt lat="42.41973" lon="2.71293">
        <ele>1405</ele>
        <time>2018-11-26T04:35:19Z</time>
      </trkpt>
      <trkpt lat="42.41973" lon="2.71294">
        <ele>1404.8</ele>
        <time>2018-11-26T04:35:20Z</time>
      </trkpt>
      <trkpt lat="42.41974" lon="2.71294">
        <ele>1404.9</ele>
        <time>2018-11-26T04:35:20Z</time>
      </trkpt>
      <trkpt lat="42.41974" lon="2.71295">
        <ele>1405.3</ele>
        <time>2018-11-26T04:35:20Z</time>
      </trkpt>
      <trkpt lat="42.41975" lon="2.71296">
        <ele>1405.1</ele>
        <time>2018-11-26T04:35:21Z</time>
      </trkpt>
      <trkpt lat="42.41975" lon="2.71297">
        <ele>1405</ele>
        <time>2018-11-26T04:35:21Z</time>
      </trkpt>
      <trkpt lat="42.41976" lon="2.71298">
        <ele>1404.8</ele>
        <time>2018-11-26T04:35:21Z</time>
      </trkpt>
      <trkpt lat="42.41976" lon="2.71298">
        <ele>1404.6</ele>
        <time>2018-11-26T04:35:21Z</time>
      </trkpt>
      <trkpt lat="42.41976" lon="2.71299">
        <ele>1404.3</ele>
        <time>2018-11-26T04:35:22Z</time>
      </trkpt>
      <trkpt lat="42.41976" lon="2.713">
        <ele>1403.8</ele>
        <time>2018-11-26T04:35:22Z</time>
      </trkpt>
      <trkpt lat="42.41977" lon="2.713">
        <ele>1403.7</ele>
        <time>2018-11-26T04:35:22Z</time>
      </trkpt>
      <trkpt lat="42.41978" lon="2.71301">
        <ele>1403.7</ele>
        <time>2018-11-26T04:35:23Z</time>
      </trkpt>
      <trkpt lat="42.41978" lon="2.71302">
        <ele>1403.4</ele>
        <time>2018-11-26T04:35:23Z</time>
      </trkpt>
      <trkpt lat="42.41979" lon="2.71303">
        <ele>1403.4</ele>
        <time>2018-11-26T04:35:23Z</time>
      </trkpt>
      <trkpt lat="42.41979" lon="2.71304">
        <ele>1403.3</ele>
        <time>2018-11-26T04:35:24Z</time>
      </trkpt>
      <trkpt lat="42.41979" lon="2.71305">
        <ele>1403.1</ele>
        <time>2018-11-26T04:35:24Z</time>
      </trkpt>
      <trkpt lat="42.41979" lon="2.71306">
        <ele>1402.8</ele>
        <time>2018-11-26T04:35:24Z</time>
      </trkpt>
      <trkpt lat="42.4198" lon="2.71307">
        <ele>1402.8</ele>
        <time>2018-11-26T04:35:24Z</time>
      </trkpt>
      <trkpt lat="42.4198" lon="2.71307">
        <ele>1402.9</ele>
        <time>2018-11-26T04:35:25Z</time>
      </trkpt>
      <trkpt lat="42.41981" lon="2.71308">
        <ele>1402.9</ele>
        <time>2018-11-26T04:35:25Z</time>
      </trkpt>
      <trkpt lat="42.41982" lon="2.71309">
        <ele>1402.8</ele>
        <time>2018-11-26T04:35:25Z</time>
      </trkpt>
      <trkpt lat="42.41982" lon="2.71311">
        <ele>1402.8</ele>
        <time>2018-11-26T04:35:26Z</time>
      </trkpt>
      <trkpt lat="42.41986" lon="2.71322">
        <ele>1400.8</ele>
        <time>2018-11-26T04:35:30Z</time>
      </trkpt>
      <trkpt lat="42.41986" lon="2.71323">
        <ele>1400.6</ele>
        <time>2018-11-26T04:35:30Z</time>
      </trkpt>
      <trkpt lat="42.41986" lon="2.71324">
        <ele>1400.7</ele>
        <time>2018-11-26T04:35:30Z</time>
      </trkpt>
      <trkpt lat="42.41987" lon="2.71327">
        <ele>1401</ele>
        <time>2018-11-26T04:35:31Z</time>
      </trkpt>
      <trkpt lat="42.41988" lon="2.71328">
        <ele>1400.9</ele>
        <time>2018-11-26T04:35:32Z</time>
      </trkpt>
      <trkpt lat="42.41988" lon="2.71329">
        <ele>1401</ele>
        <time>2018-11-26T04:35:32Z</time>
      </trkpt>
      <trkpt lat="42.41988" lon="2.71331">
        <ele>1401.1</ele>
        <time>2018-11-26T04:35:33Z</time>
      </trkpt>
      <trkpt lat="42.41989" lon="2.71335">
        <ele>1400.9</ele>
        <time>2018-11-26T04:35:34Z</time>
      </trkpt>
      <trkpt lat="42.41989" lon="2.71337">
        <ele>1400.7</ele>
        <time>2018-11-26T04:35:34Z</time>
      </trkpt>
      <trkpt lat="42.4199" lon="2.71338">
        <ele>1400.5</ele>
        <time>2018-11-26T04:35:35Z</time>
      </trkpt>
      <trkpt lat="42.4199" lon="2.7134">
        <ele>1400.4</ele>
        <time>2018-11-26T04:35:35Z</time>
      </trkpt>
      <trkpt lat="42.41991" lon="2.71343">
        <ele>1400.1</ele>
        <time>2018-11-26T04:35:36Z</time>
      </trkpt>
      <trkpt lat="42.41991" lon="2.71345">
        <ele>1399.9</ele>
        <time>2018-11-26T04:35:37Z</time>
      </trkpt>
      <trkpt lat="42.41991" lon="2.71346">
        <ele>1399.6</ele>
        <time>2018-11-26T04:35:37Z</time>
      </trkpt>
      <trkpt lat="42.41991" lon="2.71347">
        <ele>1399.3</ele>
        <time>2018-11-26T04:35:38Z</time>
      </trkpt>
      <trkpt lat="42.41992" lon="2.71348">
        <ele>1399.1</ele>
        <time>2018-11-26T04:35:38Z</time>
      </trkpt>
      <trkpt lat="42.41992" lon="2.71349">
        <ele>1398.7</ele>
        <time>2018-11-26T04:35:38Z</time>
      </trkpt>
      <trkpt lat="42.41993" lon="2.71351">
        <ele>1398.9</ele>
        <time>2018-11-26T04:35:39Z</time>
      </trkpt>
      <trkpt lat="42.41993" lon="2.71351">
        <ele>1398.9</ele>
        <time>2018-11-26T04:35:39Z</time>
      </trkpt>
      <trkpt lat="42.41994" lon="2.71352">
        <ele>1399</ele>
        <time>2018-11-26T04:35:39Z</time>
      </trkpt>
      <trkpt lat="42.41994" lon="2.71354">
        <ele>1398.9</ele>
        <time>2018-11-26T04:35:40Z</time>
      </trkpt>
      <trkpt lat="42.41994" lon="2.71355">
        <ele>1399</ele>
        <time>2018-11-26T04:35:40Z</time>
      </trkpt>
      <trkpt lat="42.41995" lon="2.71356">
        <ele>1399</ele>
        <time>2018-11-26T04:35:41Z</time>
      </trkpt>
      <trkpt lat="42.41995" lon="2.71358">
        <ele>1398.9</ele>
        <time>2018-11-26T04:35:41Z</time>
      </trkpt>
      <trkpt lat="42.41994" lon="2.71359">
        <ele>1398.5</ele>
        <time>2018-11-26T04:35:41Z</time>
      </trkpt>
      <trkpt lat="42.41994" lon="2.7136">
        <ele>1398.2</ele>
        <time>2018-11-26T04:35:42Z</time>
      </trkpt>
      <trkpt lat="42.41994" lon="2.71361">
        <ele>1398</ele>
        <time>2018-11-26T04:35:42Z</time>
      </trkpt>
      <trkpt lat="42.41995" lon="2.71362">
        <ele>1397.7</ele>
        <time>2018-11-26T04:35:42Z</time>
      </trkpt>
      <trkpt lat="42.41995" lon="2.71363">
        <ele>1397.2</ele>
        <time>2018-11-26T04:35:43Z</time>
      </trkpt>
      <trkpt lat="42.41997" lon="2.71368">
        <ele>1396.2</ele>
        <time>2018-11-26T04:35:44Z</time>
      </trkpt>
      <trkpt lat="42.41998" lon="2.71369">
        <ele>1396.3</ele>
        <time>2018-11-26T04:35:45Z</time>
      </trkpt>
      <trkpt lat="42.41998" lon="2.7137">
        <ele>1396.7</ele>
        <time>2018-11-26T04:35:45Z</time>
      </trkpt>
      <trkpt lat="42.41998" lon="2.71371">
        <ele>1396.9</ele>
        <time>2018-11-26T04:35:45Z</time>
      </trkpt>
      <trkpt lat="42.41999" lon="2.71372">
        <ele>1396.9</ele>
        <time>2018-11-26T04:35:46Z</time>
      </trkpt>
      <trkpt lat="42.41999" lon="2.71373">
        <ele>1396.7</ele>
        <time>2018-11-26T04:35:46Z</time>
      </trkpt>
      <trkpt lat="42.41999" lon="2.71374">
        <ele>1396.6</ele>
        <time>2018-11-26T04:35:46Z</time>
      </trkpt>
      <trkpt lat="42.41999" lon="2.71375">
        <ele>1396.6</ele>
        <time>2018-11-26T04:35:46Z</time>
      </trkpt>
      <trkpt lat="42.42" lon="2.71377">
        <ele>1396.5</ele>
        <time>2018-11-26T04:35:47Z</time>
      </trkpt>
      <trkpt lat="42.42001" lon="2.71379">
        <ele>1396.2</ele>
        <time>2018-11-26T04:35:48Z</time>
      </trkpt>
      <trkpt lat="42.42001" lon="2.7138">
        <ele>1396</ele>
        <time>2018-11-26T04:35:48Z</time>
      </trkpt>
      <trkpt lat="42.42001" lon="2.71382">
        <ele>1395.5</ele>
        <time>2018-11-26T04:35:49Z</time>
      </trkpt>
      <trkpt lat="42.42002" lon="2.71385">
        <ele>1395.5</ele>
        <time>2018-11-26T04:35:50Z</time>
      </trkpt>
      <trkpt lat="42.42003" lon="2.71388">
        <ele>1395.3</ele>
        <time>2018-11-26T04:35:51Z</time>
      </trkpt>
      <trkpt lat="42.42003" lon="2.71389">
        <ele>1394.9</ele>
        <time>2018-11-26T04:35:51Z</time>
      </trkpt>
      <trkpt lat="42.42004" lon="2.7139">
        <ele>1395</ele>
        <time>2018-11-26T04:35:51Z</time>
      </trkpt>
      <trkpt lat="42.42004" lon="2.71391">
        <ele>1395.1</ele>
        <time>2018-11-26T04:35:52Z</time>
      </trkpt>
      <trkpt lat="42.42005" lon="2.71392">
        <ele>1395.3</ele>
        <time>2018-11-26T04:35:52Z</time>
      </trkpt>
      <trkpt lat="42.42005" lon="2.71393">
        <ele>1395</ele>
        <time>2018-11-26T04:35:53Z</time>
      </trkpt>
      <trkpt lat="42.42006" lon="2.71394">
        <ele>1394.9</ele>
        <time>2018-11-26T04:35:53Z</time>
      </trkpt>
      <trkpt lat="42.42007" lon="2.71395">
        <ele>1394.5</ele>
        <time>2018-11-26T04:35:53Z</time>
      </trkpt>
      <trkpt lat="42.42007" lon="2.71396">
        <ele>1394.1</ele>
        <time>2018-11-26T04:35:54Z</time>
      </trkpt>
      <trkpt lat="42.42007" lon="2.71398">
        <ele>1394</ele>
        <time>2018-11-26T04:35:54Z</time>
      </trkpt>
      <trkpt lat="42.42007" lon="2.71399">
        <ele>1393.8</ele>
        <time>2018-11-26T04:35:55Z</time>
      </trkpt>
      <trkpt lat="42.42007" lon="2.71401">
        <ele>1393.7</ele>
        <time>2018-11-26T04:35:55Z</time>
      </trkpt>
      <trkpt lat="42.42007" lon="2.71402">
        <ele>1393.8</ele>
        <time>2018-11-26T04:35:55Z</time>
      </trkpt>
      <trkpt lat="42.42008" lon="2.71403">
        <ele>1393.9</ele>
        <time>2018-11-26T04:35:56Z</time>
      </trkpt>
      <trkpt lat="42.42009" lon="2.71403">
        <ele>1394</ele>
        <time>2018-11-26T04:35:56Z</time>
      </trkpt>
      <trkpt lat="42.42009" lon="2.71404">
        <ele>1394.1</ele>
        <time>2018-11-26T04:35:56Z</time>
      </trkpt>
      <trkpt lat="42.4201" lon="2.71405">
        <ele>1394.3</ele>
        <time>2018-11-26T04:35:57Z</time>
      </trkpt>
      <trkpt lat="42.4201" lon="2.71406">
        <ele>1394.4</ele>
        <time>2018-11-26T04:35:57Z</time>
      </trkpt>
      <trkpt lat="42.4201" lon="2.71407">
        <ele>1394.2</ele>
        <time>2018-11-26T04:35:57Z</time>
      </trkpt>
      <trkpt lat="42.42011" lon="2.71408">
        <ele>1394.1</ele>
        <time>2018-11-26T04:35:58Z</time>
      </trkpt>
      <trkpt lat="42.42011" lon="2.71409">
        <ele>1394</ele>
        <time>2018-11-26T04:35:58Z</time>
      </trkpt>
      <trkpt lat="42.42012" lon="2.7141">
        <ele>1393.9</ele>
        <time>2018-11-26T04:35:58Z</time>
      </trkpt>
      <trkpt lat="42.42013" lon="2.71411">
        <ele>1393.6</ele>
        <time>2018-11-26T04:35:59Z</time>
      </trkpt>
      <trkpt lat="42.42013" lon="2.71414">
        <ele>1393.3</ele>
        <time>2018-11-26T04:36:00Z</time>
      </trkpt>
      <trkpt lat="42.42014" lon="2.71415">
        <ele>1393.3</ele>
        <time>2018-11-26T04:36:00Z</time>
      </trkpt>
      <trkpt lat="42.42016" lon="2.71421">
        <ele>1392.8</ele>
        <time>2018-11-26T04:36:02Z</time>
      </trkpt>
      <trkpt lat="42.42016" lon="2.71422">
        <ele>1392.8</ele>
        <time>2018-11-26T04:36:02Z</time>
      </trkpt>
      <trkpt lat="42.42017" lon="2.71423">
        <ele>1392.9</ele>
        <time>2018-11-26T04:36:03Z</time>
      </trkpt>
      <trkpt lat="42.42017" lon="2.71424">
        <ele>1392.7</ele>
        <time>2018-11-26T04:36:03Z</time>
      </trkpt>
      <trkpt lat="42.42017" lon="2.71425">
        <ele>1392.6</ele>
        <time>2018-11-26T04:36:03Z</time>
      </trkpt>
      <trkpt lat="42.42017" lon="2.71427">
        <ele>1392.3</ele>
        <time>2018-11-26T04:36:04Z</time>
      </trkpt>
      <trkpt lat="42.42018" lon="2.71428">
        <ele>1392</ele>
        <time>2018-11-26T04:36:04Z</time>
      </trkpt>
      <trkpt lat="42.42018" lon="2.71429">
        <ele>1392.3</ele>
        <time>2018-11-26T04:36:05Z</time>
      </trkpt>
      <trkpt lat="42.42018" lon="2.7143">
        <ele>1392.7</ele>
        <time>2018-11-26T04:36:05Z</time>
      </trkpt>
      <trkpt lat="42.42018" lon="2.7143">
        <ele>1393.2</ele>
        <time>2018-11-26T04:36:05Z</time>
      </trkpt>
      <trkpt lat="42.42018" lon="2.7143">
        <ele>1393.2</ele>
        <time>2018-11-26T04:36:05Z</time>
      </trkpt>
      <trkpt lat="42.42018" lon="2.71431">
        <ele>1393.2</ele>
        <time>2018-11-26T04:36:05Z</time>
      </trkpt>
      <trkpt lat="42.42018" lon="2.71431">
        <ele>1393.1</ele>
        <time>2018-11-26T04:36:05Z</time>
      </trkpt>
      <trkpt lat="42.42018" lon="2.71431">
        <ele>1392.9</ele>
        <time>2018-11-26T04:36:05Z</time>
      </trkpt>
      <trkpt lat="42.42018" lon="2.71431">
        <ele>1392.8</ele>
        <time>2018-11-26T04:36:05Z</time>
      </trkpt>
      <trkpt lat="42.42018" lon="2.71431">
        <ele>1392.5</ele>
        <time>2018-11-26T04:36:05Z</time>
      </trkpt>
      <trkpt lat="42.42018" lon="2.71431">
        <ele>1392.2</ele>
        <time>2018-11-26T04:36:05Z</time>
      </trkpt>
      <trkpt lat="42.42018" lon="2.71431">
        <ele>1392.2</ele>
        <time>2018-11-26T04:36:05Z</time>
      </trkpt>
      <trkpt lat="42.42018" lon="2.71431">
        <ele>1392.3</ele>
        <time>2018-11-26T04:36:05Z</time>
      </trkpt>
      <trkpt lat="42.42018" lon="2.71431">
        <ele>1392.5</ele>
        <time>2018-11-26T04:36:05Z</time>
      </trkpt>
      <trkpt lat="42.42018" lon="2.71431">
        <ele>1392.5</ele>
        <time>2018-11-26T04:36:05Z</time>
      </trkpt>
      <trkpt lat="42.42018" lon="2.71432">
        <ele>1392.3</ele>
        <time>2018-11-26T04:36:05Z</time>
      </trkpt>
      <trkpt lat="42.42018" lon="2.71432">
        <ele>1392.1</ele>
        <time>2018-11-26T04:36:05Z</time>
      </trkpt>
      <trkpt lat="42.42018" lon="2.71432">
        <ele>1392.5</ele>
        <time>2018-11-26T04:36:05Z</time>
      </trkpt>
      <trkpt lat="42.42018" lon="2.71432">
        <ele>1393.1</ele>
        <time>2018-11-26T04:36:06Z</time>
      </trkpt>
      <trkpt lat="42.42018" lon="2.71432">
        <ele>1393.7</ele>
        <time>2018-11-26T04:36:06Z</time>
      </trkpt>
      <trkpt lat="42.42018" lon="2.71432">
        <ele>1393.4</ele>
        <time>2018-11-26T04:36:06Z</time>
      </trkpt>
      <trkpt lat="42.42018" lon="2.71432">
        <ele>1393.2</ele>
        <time>2018-11-26T04:36:06Z</time>
      </trkpt>
      <trkpt lat="42.42018" lon="2.71432">
        <ele>1392.9</ele>
        <time>2018-11-26T04:36:06Z</time>
      </trkpt>
      <trkpt lat="42.42018" lon="2.71433">
        <ele>1392.4</ele>
        <time>2018-11-26T04:36:06Z</time>
      </trkpt>
      <trkpt lat="42.42018" lon="2.71434">
        <ele>1392.4</ele>
        <time>2018-11-26T04:36:06Z</time>
      </trkpt>
      <trkpt lat="42.42019" lon="2.71437">
        <ele>1392.5</ele>
        <time>2018-11-26T04:36:07Z</time>
      </trkpt>
      <trkpt lat="42.42019" lon="2.71438">
        <ele>1392.4</ele>
        <time>2018-11-26T04:36:07Z</time>
      </trkpt>
      <trkpt lat="42.42019" lon="2.71439">
        <ele>1392.3</ele>
        <time>2018-11-26T04:36:08Z</time>
      </trkpt>
      <trkpt lat="42.4202" lon="2.7144">
        <ele>1392.2</ele>
        <time>2018-11-26T04:36:08Z</time>
      </trkpt>
      <trkpt lat="42.4202" lon="2.7144">
        <ele>1392.1</ele>
        <time>2018-11-26T04:36:08Z</time>
      </trkpt>
      <trkpt lat="42.4202" lon="2.71441">
        <ele>1391.9</ele>
        <time>2018-11-26T04:36:09Z</time>
      </trkpt>
      <trkpt lat="42.4202" lon="2.71442">
        <ele>1391.8</ele>
        <time>2018-11-26T04:36:09Z</time>
      </trkpt>
      <trkpt lat="42.42021" lon="2.71443">
        <ele>1391.9</ele>
        <time>2018-11-26T04:36:09Z</time>
      </trkpt>
      <trkpt lat="42.42022" lon="2.71444">
        <ele>1392.1</ele>
        <time>2018-11-26T04:36:10Z</time>
      </trkpt>
      <trkpt lat="42.42022" lon="2.71445">
        <ele>1392.5</ele>
        <time>2018-11-26T04:36:10Z</time>
      </trkpt>
      <trkpt lat="42.42022" lon="2.71449">
        <ele>1392</ele>
        <time>2018-11-26T04:36:11Z</time>
      </trkpt>
      <trkpt lat="42.42022" lon="2.7145">
        <ele>1391.7</ele>
        <time>2018-11-26T04:36:12Z</time>
      </trkpt>
      <trkpt lat="42.42022" lon="2.71451">
        <ele>1391.8</ele>
        <time>2018-11-26T04:36:12Z</time>
      </trkpt>
      <trkpt lat="42.42022" lon="2.71452">
        <ele>1391.7</ele>
        <time>2018-11-26T04:36:12Z</time>
      </trkpt>
      <trkpt lat="42.42022" lon="2.71453">
        <ele>1391.8</ele>
        <time>2018-11-26T04:36:12Z</time>
      </trkpt>
      <trkpt lat="42.42022" lon="2.71454">
        <ele>1391.8</ele>
        <time>2018-11-26T04:36:13Z</time>
      </trkpt>
      <trkpt lat="42.42023" lon="2.71455">
        <ele>1391.8</ele>
        <time>2018-11-26T04:36:13Z</time>
      </trkpt>
      <trkpt lat="42.42023" lon="2.71456">
        <ele>1391.8</ele>
        <time>2018-11-26T04:36:13Z</time>
      </trkpt>
      <trkpt lat="42.42023" lon="2.71456">
        <ele>1391.8</ele>
        <time>2018-11-26T04:36:14Z</time>
      </trkpt>
      <trkpt lat="42.42023" lon="2.71457">
        <ele>1391.5</ele>
        <time>2018-11-26T04:36:14Z</time>
      </trkpt>
      <trkpt lat="42.42023" lon="2.71458">
        <ele>1391.3</ele>
        <time>2018-11-26T04:36:14Z</time>
      </trkpt>
      <trkpt lat="42.42024" lon="2.71459">
        <ele>1391</ele>
        <time>2018-11-26T04:36:14Z</time>
      </trkpt>
      <trkpt lat="42.42024" lon="2.71459">
        <ele>1390.6</ele>
        <time>2018-11-26T04:36:14Z</time>
      </trkpt>
      <trkpt lat="42.42024" lon="2.71459">
        <ele>1391.2</ele>
        <time>2018-11-26T04:36:14Z</time>
      </trkpt>
      <trkpt lat="42.42024" lon="2.7146">
        <ele>1391.6</ele>
        <time>2018-11-26T04:36:15Z</time>
      </trkpt>
      <trkpt lat="42.42024" lon="2.71461">
        <ele>1391.5</ele>
        <time>2018-11-26T04:36:15Z</time>
      </trkpt>
      <trkpt lat="42.42025" lon="2.71462">
        <ele>1391.5</ele>
        <time>2018-11-26T04:36:15Z</time>
      </trkpt>
      <trkpt lat="42.42024" lon="2.71462">
        <ele>1391.6</ele>
        <time>2018-11-26T04:36:15Z</time>
      </trkpt>
      <trkpt lat="42.42025" lon="2.71465">
        <ele>1391.7</ele>
        <time>2018-11-26T04:36:16Z</time>
      </trkpt>
      <trkpt lat="42.42025" lon="2.71466">
        <ele>1391.9</ele>
        <time>2018-11-26T04:36:17Z</time>
      </trkpt>
      <trkpt lat="42.42026" lon="2.71467">
        <ele>1391.9</ele>
        <time>2018-11-26T04:36:17Z</time>
      </trkpt>
      <trkpt lat="42.42026" lon="2.71469">
        <ele>1391.7</ele>
        <time>2018-11-26T04:36:17Z</time>
      </trkpt>
      <trkpt lat="42.42026" lon="2.7147">
        <ele>1391.7</ele>
        <time>2018-11-26T04:36:18Z</time>
      </trkpt>
      <trkpt lat="42.42026" lon="2.71471">
        <ele>1391.4</ele>
        <time>2018-11-26T04:36:18Z</time>
      </trkpt>
      <trkpt lat="42.42027" lon="2.71472">
        <ele>1391.6</ele>
        <time>2018-11-26T04:36:18Z</time>
      </trkpt>
      <trkpt lat="42.42027" lon="2.71472">
        <ele>1391.8</ele>
        <time>2018-11-26T04:36:18Z</time>
      </trkpt>
      <trkpt lat="42.42027" lon="2.71473">
        <ele>1391.8</ele>
        <time>2018-11-26T04:36:19Z</time>
      </trkpt>
      <trkpt lat="42.42027" lon="2.71473">
        <ele>1391.7</ele>
        <time>2018-11-26T04:36:19Z</time>
      </trkpt>
      <trkpt lat="42.42027" lon="2.71474">
        <ele>1391.5</ele>
        <time>2018-11-26T04:36:19Z</time>
      </trkpt>
      <trkpt lat="42.42027" lon="2.71474">
        <ele>1391.3</ele>
        <time>2018-11-26T04:36:19Z</time>
      </trkpt>
      <trkpt lat="42.42027" lon="2.71474">
        <ele>1391.1</ele>
        <time>2018-11-26T04:36:19Z</time>
      </trkpt>
      <trkpt lat="42.42027" lon="2.71474">
        <ele>1391</ele>
        <time>2018-11-26T04:36:19Z</time>
      </trkpt>
      <trkpt lat="42.42027" lon="2.71474">
        <ele>1390.9</ele>
        <time>2018-11-26T04:36:19Z</time>
      </trkpt>
      <trkpt lat="42.42027" lon="2.71474">
        <ele>1390.8</ele>
        <time>2018-11-26T04:36:19Z</time>
      </trkpt>
      <trkpt lat="42.42027" lon="2.71474">
        <ele>1390.7</ele>
        <time>2018-11-26T04:36:19Z</time>
      </trkpt>
      <trkpt lat="42.42027" lon="2.71474">
        <ele>1390.9</ele>
        <time>2018-11-26T04:36:19Z</time>
      </trkpt>
      <trkpt lat="42.42027" lon="2.71474">
        <ele>1390.8</ele>
        <time>2018-11-26T04:36:19Z</time>
      </trkpt>
      <trkpt lat="42.42027" lon="2.71474">
        <ele>1390.8</ele>
        <time>2018-11-26T04:36:19Z</time>
      </trkpt>
      <trkpt lat="42.42027" lon="2.71474">
        <ele>1390.8</ele>
        <time>2018-11-26T04:36:19Z</time>
      </trkpt>
      <trkpt lat="42.42027" lon="2.71474">
        <ele>1390.7</ele>
        <time>2018-11-26T04:36:19Z</time>
      </trkpt>
      <trkpt lat="42.42028" lon="2.71474">
        <ele>1390.5</ele>
        <time>2018-11-26T04:36:19Z</time>
      </trkpt>
      <trkpt lat="42.42028" lon="2.71475">
        <ele>1390.3</ele>
        <time>2018-11-26T04:36:19Z</time>
      </trkpt>
      <trkpt lat="42.42028" lon="2.71475">
        <ele>1390</ele>
        <time>2018-11-26T04:36:20Z</time>
      </trkpt>
      <trkpt lat="42.42028" lon="2.71476">
        <ele>1390</ele>
        <time>2018-11-26T04:36:20Z</time>
      </trkpt>
      <trkpt lat="42.42028" lon="2.71476">
        <ele>1390.1</ele>
        <time>2018-11-26T04:36:20Z</time>
      </trkpt>
      <trkpt lat="42.42029" lon="2.71477">
        <ele>1390.3</ele>
        <time>2018-11-26T04:36:20Z</time>
      </trkpt>
      <trkpt lat="42.42029" lon="2.71477">
        <ele>1390.4</ele>
        <time>2018-11-26T04:36:20Z</time>
      </trkpt>
      <trkpt lat="42.42029" lon="2.71477">
        <ele>1390.4</ele>
        <time>2018-11-26T04:36:20Z</time>
      </trkpt>
      <trkpt lat="42.42029" lon="2.71478">
        <ele>1390.3</ele>
        <time>2018-11-26T04:36:21Z</time>
      </trkpt>
      <trkpt lat="42.42029" lon="2.71478">
        <ele>1390.2</ele>
        <time>2018-11-26T04:36:21Z</time>
      </trkpt>
      <trkpt lat="42.42029" lon="2.71479">
        <ele>1390.3</ele>
        <time>2018-11-26T04:36:21Z</time>
      </trkpt>
      <trkpt lat="42.4203" lon="2.7148">
        <ele>1390.3</ele>
        <time>2018-11-26T04:36:21Z</time>
      </trkpt>
      <trkpt lat="42.4203" lon="2.7148">
        <ele>1390.4</ele>
        <time>2018-11-26T04:36:21Z</time>
      </trkpt>
      <trkpt lat="42.4203" lon="2.71481">
        <ele>1390.5</ele>
        <time>2018-11-26T04:36:22Z</time>
      </trkpt>
      <trkpt lat="42.42031" lon="2.71482">
        <ele>1390.7</ele>
        <time>2018-11-26T04:36:22Z</time>
      </trkpt>
      <trkpt lat="42.42032" lon="2.71486">
        <ele>1390.9</ele>
        <time>2018-11-26T04:36:23Z</time>
      </trkpt>
      <trkpt lat="42.42032" lon="2.71487">
        <ele>1390.6</ele>
        <time>2018-11-26T04:36:24Z</time>
      </trkpt>
      <trkpt lat="42.42033" lon="2.71488">
        <ele>1390.7</ele>
        <time>2018-11-26T04:36:24Z</time>
      </trkpt>
      <trkpt lat="42.42033" lon="2.71491">
        <ele>1390.9</ele>
        <time>2018-11-26T04:36:25Z</time>
      </trkpt>
      <trkpt lat="42.42034" lon="2.71492">
        <ele>1391.1</ele>
        <time>2018-11-26T04:36:25Z</time>
      </trkpt>
      <trkpt lat="42.42035" lon="2.71493">
        <ele>1391.2</ele>
        <time>2018-11-26T04:36:26Z</time>
      </trkpt>
      <trkpt lat="42.42035" lon="2.71495">
        <ele>1391.3</ele>
        <time>2018-11-26T04:36:26Z</time>
      </trkpt>
      <trkpt lat="42.42037" lon="2.71499">
        <ele>1391.4</ele>
        <time>2018-11-26T04:36:28Z</time>
      </trkpt>
      <trkpt lat="42.42038" lon="2.715">
        <ele>1391.2</ele>
        <time>2018-11-26T04:36:28Z</time>
      </trkpt>
      <trkpt lat="42.42043" lon="2.71507">
        <ele>1391.1</ele>
        <time>2018-11-26T04:36:31Z</time>
      </trkpt>
      <trkpt lat="42.42043" lon="2.71508">
        <ele>1391</ele>
        <time>2018-11-26T04:36:31Z</time>
      </trkpt>
      <trkpt lat="42.42044" lon="2.71509">
        <ele>1390.9</ele>
        <time>2018-11-26T04:36:32Z</time>
      </trkpt>
      <trkpt lat="42.42044" lon="2.7151">
        <ele>1390.8</ele>
        <time>2018-11-26T04:36:32Z</time>
      </trkpt>
      <trkpt lat="42.42046" lon="2.71512">
        <ele>1390.8</ele>
        <time>2018-11-26T04:36:33Z</time>
      </trkpt>
      <trkpt lat="42.42047" lon="2.71513">
        <ele>1390.8</ele>
        <time>2018-11-26T04:36:34Z</time>
      </trkpt>
      <trkpt lat="42.42049" lon="2.71517">
        <ele>1390.9</ele>
        <time>2018-11-26T04:36:35Z</time>
      </trkpt>
      <trkpt lat="42.42049" lon="2.71518">
        <ele>1390.9</ele>
        <time>2018-11-26T04:36:35Z</time>
      </trkpt>
      <trkpt lat="42.42054" lon="2.71525">
        <ele>1390.2</ele>
        <time>2018-11-26T04:36:38Z</time>
      </trkpt>
      <trkpt lat="42.42059" lon="2.71531">
        <ele>1390.7</ele>
        <time>2018-11-26T04:36:41Z</time>
      </trkpt>
      <trkpt lat="42.42059" lon="2.71532">
        <ele>1390.5</ele>
        <time>2018-11-26T04:36:41Z</time>
      </trkpt>
      <trkpt lat="42.4206" lon="2.71533">
        <ele>1390.5</ele>
        <time>2018-11-26T04:36:41Z</time>
      </trkpt>
      <trkpt lat="42.4206" lon="2.71535">
        <ele>1390.6</ele>
        <time>2018-11-26T04:36:42Z</time>
      </trkpt>
      <trkpt lat="42.42063" lon="2.71537">
        <ele>1391.5</ele>
        <time>2018-11-26T04:36:43Z</time>
      </trkpt>
      <trkpt lat="42.42064" lon="2.71538">
        <ele>1392.2</ele>
        <time>2018-11-26T04:36:43Z</time>
      </trkpt>
      <trkpt lat="42.42067" lon="2.71542">
        <ele>1391.5</ele>
        <time>2018-11-26T04:36:45Z</time>
      </trkpt>
      <trkpt lat="42.42067" lon="2.71543">
        <ele>1391.7</ele>
        <time>2018-11-26T04:36:46Z</time>
      </trkpt>
      <trkpt lat="42.42068" lon="2.71544">
        <ele>1391.8</ele>
        <time>2018-11-26T04:36:46Z</time>
      </trkpt>
      <trkpt lat="42.42068" lon="2.71544">
        <ele>1392</ele>
        <time>2018-11-26T04:36:46Z</time>
      </trkpt>
      <trkpt lat="42.42069" lon="2.71545">
        <ele>1391.7</ele>
        <time>2018-11-26T04:36:47Z</time>
      </trkpt>
      <trkpt lat="42.4207" lon="2.71546">
        <ele>1391.6</ele>
        <time>2018-11-26T04:36:47Z</time>
      </trkpt>
      <trkpt lat="42.42071" lon="2.71547">
        <ele>1391.3</ele>
        <time>2018-11-26T04:36:47Z</time>
      </trkpt>
      <trkpt lat="42.42071" lon="2.71547">
        <ele>1391.2</ele>
        <time>2018-11-26T04:36:48Z</time>
      </trkpt>
      <trkpt lat="42.42073" lon="2.71549">
        <ele>1390.8</ele>
        <time>2018-11-26T04:36:49Z</time>
      </trkpt>
      <trkpt lat="42.42074" lon="2.7155">
        <ele>1390.8</ele>
        <time>2018-11-26T04:36:49Z</time>
      </trkpt>
      <trkpt lat="42.42075" lon="2.7155">
        <ele>1390.9</ele>
        <time>2018-11-26T04:36:49Z</time>
      </trkpt>
      <trkpt lat="42.42075" lon="2.71551">
        <ele>1390.8</ele>
        <time>2018-11-26T04:36:50Z</time>
      </trkpt>
      <trkpt lat="42.42076" lon="2.71551">
        <ele>1390.8</ele>
        <time>2018-11-26T04:36:50Z</time>
      </trkpt>
      <trkpt lat="42.42077" lon="2.71551">
        <ele>1390.9</ele>
        <time>2018-11-26T04:36:50Z</time>
      </trkpt>
      <trkpt lat="42.42078" lon="2.71552">
        <ele>1391.4</ele>
        <time>2018-11-26T04:36:51Z</time>
      </trkpt>
      <trkpt lat="42.42081" lon="2.71554">
        <ele>1391.6</ele>
        <time>2018-11-26T04:36:52Z</time>
      </trkpt>
      <trkpt lat="42.42082" lon="2.71555">
        <ele>1391.6</ele>
        <time>2018-11-26T04:36:52Z</time>
      </trkpt>
      <trkpt lat="42.42083" lon="2.71555">
        <ele>1391.4</ele>
        <time>2018-11-26T04:36:53Z</time>
      </trkpt>
      <trkpt lat="42.42083" lon="2.71556">
        <ele>1391.3</ele>
        <time>2018-11-26T04:36:53Z</time>
      </trkpt>
      <trkpt lat="42.42084" lon="2.71557">
        <ele>1390.9</ele>
        <time>2018-11-26T04:36:54Z</time>
      </trkpt>
      <trkpt lat="42.42085" lon="2.71557">
        <ele>1390.8</ele>
        <time>2018-11-26T04:36:54Z</time>
      </trkpt>
      <trkpt lat="42.42086" lon="2.71557">
        <ele>1390.8</ele>
        <time>2018-11-26T04:36:54Z</time>
      </trkpt>
      <trkpt lat="42.42086" lon="2.71558">
        <ele>1390.7</ele>
        <time>2018-11-26T04:36:55Z</time>
      </trkpt>
      <trkpt lat="42.42087" lon="2.71558">
        <ele>1390.7</ele>
        <time>2018-11-26T04:36:55Z</time>
      </trkpt>
      <trkpt lat="42.42087" lon="2.71558">
        <ele>1390.7</ele>
        <time>2018-11-26T04:36:55Z</time>
      </trkpt>
      <trkpt lat="42.42088" lon="2.71558">
        <ele>1390.7</ele>
        <time>2018-11-26T04:36:55Z</time>
      </trkpt>
      <trkpt lat="42.42089" lon="2.71558">
        <ele>1390.5</ele>
        <time>2018-11-26T04:36:55Z</time>
      </trkpt>
      <trkpt lat="42.42089" lon="2.71558">
        <ele>1390.3</ele>
        <time>2018-11-26T04:36:56Z</time>
      </trkpt>
      <trkpt lat="42.4209" lon="2.71559">
        <ele>1389.9</ele>
        <time>2018-11-26T04:36:56Z</time>
      </trkpt>
      <trkpt lat="42.42091" lon="2.7156">
        <ele>1390.2</ele>
        <time>2018-11-26T04:36:56Z</time>
      </trkpt>
      <trkpt lat="42.42092" lon="2.7156">
        <ele>1390.4</ele>
        <time>2018-11-26T04:36:57Z</time>
      </trkpt>
      <trkpt lat="42.42092" lon="2.71561">
        <ele>1390.8</ele>
        <time>2018-11-26T04:36:57Z</time>
      </trkpt>
      <trkpt lat="42.42093" lon="2.71561">
        <ele>1391.2</ele>
        <time>2018-11-26T04:36:57Z</time>
      </trkpt>
      <trkpt lat="42.42094" lon="2.71561">
        <ele>1391.1</ele>
        <time>2018-11-26T04:36:58Z</time>
      </trkpt>
      <trkpt lat="42.42094" lon="2.71561">
        <ele>1391</ele>
        <time>2018-11-26T04:36:58Z</time>
      </trkpt>
      <trkpt lat="42.42094" lon="2.71562">
        <ele>1390.7</ele>
        <time>2018-11-26T04:36:58Z</time>
      </trkpt>
      <trkpt lat="42.42095" lon="2.71562">
        <ele>1390.5</ele>
        <time>2018-11-26T04:36:58Z</time>
      </trkpt>
      <trkpt lat="42.42096" lon="2.71563">
        <ele>1390.1</ele>
        <time>2018-11-26T04:36:59Z</time>
      </trkpt>
      <trkpt lat="42.42097" lon="2.71565">
        <ele>1390.5</ele>
        <time>2018-11-26T04:36:59Z</time>
      </trkpt>
      <trkpt lat="42.42098" lon="2.71566">
        <ele>1390.7</ele>
        <time>2018-11-26T04:37:00Z</time>
      </trkpt>
      <trkpt lat="42.42099" lon="2.71567">
        <ele>1390.9</ele>
        <time>2018-11-26T04:37:00Z</time>
      </trkpt>
      <trkpt lat="42.421" lon="2.71568">
        <ele>1390.9</ele>
        <time>2018-11-26T04:37:01Z</time>
      </trkpt>
      <trkpt lat="42.421" lon="2.71568">
        <ele>1390.8</ele>
        <time>2018-11-26T04:37:01Z</time>
      </trkpt>
      <trkpt lat="42.42101" lon="2.71569">
        <ele>1390.6</ele>
        <time>2018-11-26T04:37:01Z</time>
      </trkpt>
      <trkpt lat="42.42101" lon="2.71569">
        <ele>1390.5</ele>
        <time>2018-11-26T04:37:02Z</time>
      </trkpt>
      <trkpt lat="42.42102" lon="2.7157">
        <ele>1390.3</ele>
        <time>2018-11-26T04:37:02Z</time>
      </trkpt>
      <trkpt lat="42.42103" lon="2.7157">
        <ele>1390.4</ele>
        <time>2018-11-26T04:37:02Z</time>
      </trkpt>
      <trkpt lat="42.42103" lon="2.7157">
        <ele>1390.6</ele>
        <time>2018-11-26T04:37:02Z</time>
      </trkpt>
      <trkpt lat="42.42104" lon="2.71571">
        <ele>1390.8</ele>
        <time>2018-11-26T04:37:03Z</time>
      </trkpt>
      <trkpt lat="42.42104" lon="2.71571">
        <ele>1390.7</ele>
        <time>2018-11-26T04:37:03Z</time>
      </trkpt>
      <trkpt lat="42.42105" lon="2.71571">
        <ele>1390.6</ele>
        <time>2018-11-26T04:37:03Z</time>
      </trkpt>
      <trkpt lat="42.42105" lon="2.71571">
        <ele>1390.5</ele>
        <time>2018-11-26T04:37:03Z</time>
      </trkpt>
      <trkpt lat="42.42106" lon="2.71572">
        <ele>1390.7</ele>
        <time>2018-11-26T04:37:04Z</time>
      </trkpt>
      <trkpt lat="42.42107" lon="2.71572">
        <ele>1391</ele>
        <time>2018-11-26T04:37:04Z</time>
      </trkpt>
      <trkpt lat="42.42108" lon="2.71572">
        <ele>1390.7</ele>
        <time>2018-11-26T04:37:04Z</time>
      </trkpt>
      <trkpt lat="42.42109" lon="2.71572">
        <ele>1390.2</ele>
        <time>2018-11-26T04:37:05Z</time>
      </trkpt>
      <trkpt lat="42.4211" lon="2.71573">
        <ele>1389.7</ele>
        <time>2018-11-26T04:37:05Z</time>
      </trkpt>
      <trkpt lat="42.42111" lon="2.71573">
        <ele>1389.5</ele>
        <time>2018-11-26T04:37:06Z</time>
      </trkpt>
      <trkpt lat="42.42112" lon="2.71573">
        <ele>1389.4</ele>
        <time>2018-11-26T04:37:06Z</time>
      </trkpt>
      <trkpt lat="42.42113" lon="2.71573">
        <ele>1389.3</ele>
        <time>2018-11-26T04:37:06Z</time>
      </trkpt>
      <trkpt lat="42.42114" lon="2.71573">
        <ele>1389.3</ele>
        <time>2018-11-26T04:37:07Z</time>
      </trkpt>
      <trkpt lat="42.42114" lon="2.71573">
        <ele>1389.1</ele>
        <time>2018-11-26T04:37:07Z</time>
      </trkpt>
      <trkpt lat="42.42115" lon="2.71573">
        <ele>1388.9</ele>
        <time>2018-11-26T04:37:07Z</time>
      </trkpt>
      <trkpt lat="42.42116" lon="2.71572">
        <ele>1388.5</ele>
        <time>2018-11-26T04:37:08Z</time>
      </trkpt>
      <trkpt lat="42.42117" lon="2.71572">
        <ele>1388.3</ele>
        <time>2018-11-26T04:37:08Z</time>
      </trkpt>
      <trkpt lat="42.42118" lon="2.71571">
        <ele>1387.9</ele>
        <time>2018-11-26T04:37:08Z</time>
      </trkpt>
      <trkpt lat="42.42118" lon="2.71571">
        <ele>1387.8</ele>
        <time>2018-11-26T04:37:09Z</time>
      </trkpt>
      <trkpt lat="42.42119" lon="2.71571">
        <ele>1387.7</ele>
        <time>2018-11-26T04:37:09Z</time>
      </trkpt>
      <trkpt lat="42.4212" lon="2.71571">
        <ele>1387.6</ele>
        <time>2018-11-26T04:37:09Z</time>
      </trkpt>
      <trkpt lat="42.42122" lon="2.71572">
        <ele>1387.5</ele>
        <time>2018-11-26T04:37:10Z</time>
      </trkpt>
      <trkpt lat="42.42122" lon="2.71572">
        <ele>1387.5</ele>
        <time>2018-11-26T04:37:10Z</time>
      </trkpt>
      <trkpt lat="42.42123" lon="2.71572">
        <ele>1387.1</ele>
        <time>2018-11-26T04:37:11Z</time>
      </trkpt>
      <trkpt lat="42.42124" lon="2.71571">
        <ele>1386.7</ele>
        <time>2018-11-26T04:37:11Z</time>
      </trkpt>
      <trkpt lat="42.42125" lon="2.71571">
        <ele>1386.1</ele>
        <time>2018-11-26T04:37:11Z</time>
      </trkpt>
      <trkpt lat="42.42125" lon="2.71571">
        <ele>1386</ele>
        <time>2018-11-26T04:37:12Z</time>
      </trkpt>
      <trkpt lat="42.42126" lon="2.71571">
        <ele>1386.1</ele>
        <time>2018-11-26T04:37:12Z</time>
      </trkpt>
      <trkpt lat="42.42127" lon="2.71571">
        <ele>1385.9</ele>
        <time>2018-11-26T04:37:12Z</time>
      </trkpt>
      <trkpt lat="42.42128" lon="2.71572">
        <ele>1385.9</ele>
        <time>2018-11-26T04:37:13Z</time>
      </trkpt>
      <trkpt lat="42.42128" lon="2.71572">
        <ele>1385.8</ele>
        <time>2018-11-26T04:37:13Z</time>
      </trkpt>
      <trkpt lat="42.42129" lon="2.71571">
        <ele>1385.5</ele>
        <time>2018-11-26T04:37:13Z</time>
      </trkpt>
      <trkpt lat="42.4213" lon="2.71571">
        <ele>1385.3</ele>
        <time>2018-11-26T04:37:13Z</time>
      </trkpt>
      <trkpt lat="42.4213" lon="2.71572">
        <ele>1385.2</ele>
        <time>2018-11-26T04:37:14Z</time>
      </trkpt>
      <trkpt lat="42.42131" lon="2.71572">
        <ele>1385.1</ele>
        <time>2018-11-26T04:37:14Z</time>
      </trkpt>
      <trkpt lat="42.42132" lon="2.71571">
        <ele>1385.1</ele>
        <time>2018-11-26T04:37:14Z</time>
      </trkpt>
      <trkpt lat="42.42133" lon="2.71571">
        <ele>1385</ele>
        <time>2018-11-26T04:37:15Z</time>
      </trkpt>
      <trkpt lat="42.42133" lon="2.71571">
        <ele>1385.1</ele>
        <time>2018-11-26T04:37:15Z</time>
      </trkpt>
      <trkpt lat="42.42133" lon="2.7157">
        <ele>1385</ele>
        <time>2018-11-26T04:37:15Z</time>
      </trkpt>
      <trkpt lat="42.42133" lon="2.71569">
        <ele>1384.8</ele>
        <time>2018-11-26T04:37:15Z</time>
      </trkpt>
      <trkpt lat="42.42133" lon="2.71569">
        <ele>1384.5</ele>
        <time>2018-11-26T04:37:15Z</time>
      </trkpt>
      <trkpt lat="42.42134" lon="2.71569">
        <ele>1384.3</ele>
        <time>2018-11-26T04:37:16Z</time>
      </trkpt>
      <trkpt lat="42.42134" lon="2.71568">
        <ele>1384</ele>
        <time>2018-11-26T04:37:16Z</time>
      </trkpt>
      <trkpt lat="42.42135" lon="2.71568">
        <ele>1383.5</ele>
        <time>2018-11-26T04:37:16Z</time>
      </trkpt>
      <trkpt lat="42.42135" lon="2.71568">
        <ele>1383.5</ele>
        <time>2018-11-26T04:37:16Z</time>
      </trkpt>
      <trkpt lat="42.42136" lon="2.71568">
        <ele>1383.5</ele>
        <time>2018-11-26T04:37:16Z</time>
      </trkpt>
      <trkpt lat="42.42136" lon="2.71567">
        <ele>1383.4</ele>
        <time>2018-11-26T04:37:17Z</time>
      </trkpt>
      <trkpt lat="42.42136" lon="2.71566">
        <ele>1383.3</ele>
        <time>2018-11-26T04:37:17Z</time>
      </trkpt>
      <trkpt lat="42.42136" lon="2.71565">
        <ele>1383</ele>
        <time>2018-11-26T04:37:17Z</time>
      </trkpt>
      <trkpt lat="42.42136" lon="2.71565">
        <ele>1382.4</ele>
        <time>2018-11-26T04:37:17Z</time>
      </trkpt>
      <trkpt lat="42.42136" lon="2.71565">
        <ele>1382.3</ele>
        <time>2018-11-26T04:37:17Z</time>
      </trkpt>
      <trkpt lat="42.42137" lon="2.71565">
        <ele>1382.2</ele>
        <time>2018-11-26T04:37:18Z</time>
      </trkpt>
      <trkpt lat="42.42137" lon="2.71565">
        <ele>1382.2</ele>
        <time>2018-11-26T04:37:18Z</time>
      </trkpt>
      <trkpt lat="42.42138" lon="2.71565">
        <ele>1382.4</ele>
        <time>2018-11-26T04:37:18Z</time>
      </trkpt>
      <trkpt lat="42.42139" lon="2.71565">
        <ele>1383.1</ele>
        <time>2018-11-26T04:37:18Z</time>
      </trkpt>
      <trkpt lat="42.4214" lon="2.71565">
        <ele>1382.9</ele>
        <time>2018-11-26T04:37:19Z</time>
      </trkpt>
      <trkpt lat="42.4214" lon="2.71565">
        <ele>1382.9</ele>
        <time>2018-11-26T04:37:19Z</time>
      </trkpt>
      <trkpt lat="42.42141" lon="2.71565">
        <ele>1382.6</ele>
        <time>2018-11-26T04:37:19Z</time>
      </trkpt>
      <trkpt lat="42.42143" lon="2.71567">
        <ele>1383</ele>
        <time>2018-11-26T04:37:20Z</time>
      </trkpt>
      <trkpt lat="42.42144" lon="2.71567">
        <ele>1383.1</ele>
        <time>2018-11-26T04:37:20Z</time>
      </trkpt>
      <trkpt lat="42.42144" lon="2.71567">
        <ele>1383.2</ele>
        <time>2018-11-26T04:37:21Z</time>
      </trkpt>
      <trkpt lat="42.42144" lon="2.71567">
        <ele>1383.5</ele>
        <time>2018-11-26T04:37:21Z</time>
      </trkpt>
      <trkpt lat="42.42145" lon="2.71568">
        <ele>1383.6</ele>
        <time>2018-11-26T04:37:21Z</time>
      </trkpt>
      <trkpt lat="42.42145" lon="2.71569">
        <ele>1383.9</ele>
        <time>2018-11-26T04:37:21Z</time>
      </trkpt>
      <trkpt lat="42.42146" lon="2.71569">
        <ele>1384.2</ele>
        <time>2018-11-26T04:37:22Z</time>
      </trkpt>
      <trkpt lat="42.42146" lon="2.7157">
        <ele>1384.5</ele>
        <time>2018-11-26T04:37:22Z</time>
      </trkpt>
      <trkpt lat="42.42147" lon="2.7157">
        <ele>1385</ele>
        <time>2018-11-26T04:37:22Z</time>
      </trkpt>
      <trkpt lat="42.42147" lon="2.71571">
        <ele>1385.4</ele>
        <time>2018-11-26T04:37:22Z</time>
      </trkpt>
      <trkpt lat="42.42147" lon="2.71572">
        <ele>1386</ele>
        <time>2018-11-26T04:37:23Z</time>
      </trkpt>
      <trkpt lat="42.42148" lon="2.71573">
        <ele>1385.8</ele>
        <time>2018-11-26T04:37:23Z</time>
      </trkpt>
      <trkpt lat="42.42149" lon="2.71573">
        <ele>1385.6</ele>
        <time>2018-11-26T04:37:23Z</time>
      </trkpt>
      <trkpt lat="42.42149" lon="2.71574">
        <ele>1385.4</ele>
        <time>2018-11-26T04:37:24Z</time>
      </trkpt>
      <trkpt lat="42.4215" lon="2.71575">
        <ele>1385.1</ele>
        <time>2018-11-26T04:37:24Z</time>
      </trkpt>
      <trkpt lat="42.4215" lon="2.71575">
        <ele>1385.2</ele>
        <time>2018-11-26T04:37:24Z</time>
      </trkpt>
      <trkpt lat="42.4215" lon="2.71575">
        <ele>1385.6</ele>
        <time>2018-11-26T04:37:24Z</time>
      </trkpt>
      <trkpt lat="42.4215" lon="2.71575">
        <ele>1385.9</ele>
        <time>2018-11-26T04:37:24Z</time>
      </trkpt>
      <trkpt lat="42.4215" lon="2.71576">
        <ele>1385.9</ele>
        <time>2018-11-26T04:37:24Z</time>
      </trkpt>
      <trkpt lat="42.42151" lon="2.71576">
        <ele>1386</ele>
        <time>2018-11-26T04:37:24Z</time>
      </trkpt>
      <trkpt lat="42.42151" lon="2.71576">
        <ele>1386.2</ele>
        <time>2018-11-26T04:37:24Z</time>
      </trkpt>
      <trkpt lat="42.42151" lon="2.71576">
        <ele>1385.6</ele>
        <time>2018-11-26T04:37:24Z</time>
      </trkpt>
      <trkpt lat="42.42151" lon="2.71576">
        <ele>1385.7</ele>
        <time>2018-11-26T04:37:25Z</time>
      </trkpt>
      <trkpt lat="42.42151" lon="2.71576">
        <ele>1385.8</ele>
        <time>2018-11-26T04:37:25Z</time>
      </trkpt>
      <trkpt lat="42.42151" lon="2.71577">
        <ele>1386.1</ele>
        <time>2018-11-26T04:37:25Z</time>
      </trkpt>
      <trkpt lat="42.42151" lon="2.71576">
        <ele>1385.8</ele>
        <time>2018-11-26T04:37:25Z</time>
      </trkpt>
      <trkpt lat="42.42151" lon="2.71577">
        <ele>1385.4</ele>
        <time>2018-11-26T04:37:25Z</time>
      </trkpt>
      <trkpt lat="42.42152" lon="2.71577">
        <ele>1384.9</ele>
        <time>2018-11-26T04:37:25Z</time>
      </trkpt>
      <trkpt lat="42.42152" lon="2.71577">
        <ele>1384.9</ele>
        <time>2018-11-26T04:37:25Z</time>
      </trkpt>
      <trkpt lat="42.42152" lon="2.71577">
        <ele>1385</ele>
        <time>2018-11-26T04:37:25Z</time>
      </trkpt>
      <trkpt lat="42.42152" lon="2.71577">
        <ele>1384.9</ele>
        <time>2018-11-26T04:37:25Z</time>
      </trkpt>
      <trkpt lat="42.42152" lon="2.71577">
        <ele>1384.8</ele>
        <time>2018-11-26T04:37:25Z</time>
      </trkpt>
      <trkpt lat="42.42152" lon="2.71577">
        <ele>1384.8</ele>
        <time>2018-11-26T04:37:25Z</time>
      </trkpt>
      <trkpt lat="42.42152" lon="2.71577">
        <ele>1384.8</ele>
        <time>2018-11-26T04:37:26Z</time>
      </trkpt>
      <trkpt lat="42.42152" lon="2.71577">
        <ele>1384.8</ele>
        <time>2018-11-26T04:37:26Z</time>
      </trkpt>
      <trkpt lat="42.42152" lon="2.71578">
        <ele>1384.9</ele>
        <time>2018-11-26T04:37:26Z</time>
      </trkpt>
      <trkpt lat="42.42152" lon="2.71578">
        <ele>1384.9</ele>
        <time>2018-11-26T04:37:26Z</time>
      </trkpt>
      <trkpt lat="42.42152" lon="2.71578">
        <ele>1384.9</ele>
        <time>2018-11-26T04:37:26Z</time>
      </trkpt>
      <trkpt lat="42.42152" lon="2.71578">
        <ele>1384.9</ele>
        <time>2018-11-26T04:37:26Z</time>
      </trkpt>
      <trkpt lat="42.42152" lon="2.71578">
        <ele>1384.8</ele>
        <time>2018-11-26T04:37:26Z</time>
      </trkpt>
      <trkpt lat="42.42152" lon="2.71578">
        <ele>1384.7</ele>
        <time>2018-11-26T04:37:26Z</time>
      </trkpt>
      <trkpt lat="42.42153" lon="2.71578">
        <ele>1384.7</ele>
        <time>2018-11-26T04:37:26Z</time>
      </trkpt>
      <trkpt lat="42.42153" lon="2.71578">
        <ele>1384.7</ele>
        <time>2018-11-26T04:37:26Z</time>
      </trkpt>
      <trkpt lat="42.42153" lon="2.71578">
        <ele>1384.8</ele>
        <time>2018-11-26T04:37:26Z</time>
      </trkpt>
      <trkpt lat="42.42153" lon="2.71578">
        <ele>1384.8</ele>
        <time>2018-11-26T04:37:26Z</time>
      </trkpt>
      <trkpt lat="42.42153" lon="2.71578">
        <ele>1384.8</ele>
        <time>2018-11-26T04:37:26Z</time>
      </trkpt>
      <trkpt lat="42.42153" lon="2.71578">
        <ele>1385</ele>
        <time>2018-11-26T04:37:26Z</time>
      </trkpt>
      <trkpt lat="42.42153" lon="2.71578">
        <ele>1385</ele>
        <time>2018-11-26T04:37:26Z</time>
      </trkpt>
      <trkpt lat="42.42153" lon="2.71578">
        <ele>1385.1</ele>
        <time>2018-11-26T04:37:26Z</time>
      </trkpt>
      <trkpt lat="42.42153" lon="2.71578">
        <ele>1385.3</ele>
        <time>2018-11-26T04:37:26Z</time>
      </trkpt>
      <trkpt lat="42.42153" lon="2.71578">
        <ele>1385.5</ele>
        <time>2018-11-26T04:37:26Z</time>
      </trkpt>
      <trkpt lat="42.42153" lon="2.71578">
        <ele>1385.1</ele>
        <time>2018-11-26T04:37:26Z</time>
      </trkpt>
      <trkpt lat="42.42153" lon="2.71577">
        <ele>1384.8</ele>
        <time>2018-11-26T04:37:26Z</time>
      </trkpt>
      <trkpt lat="42.42153" lon="2.71577">
        <ele>1384.4</ele>
        <time>2018-11-26T04:37:26Z</time>
      </trkpt>
      <trkpt lat="42.42153" lon="2.71577">
        <ele>1384.5</ele>
        <time>2018-11-26T04:37:26Z</time>
      </trkpt>
      <trkpt lat="42.42153" lon="2.71577">
        <ele>1384.6</ele>
        <time>2018-11-26T04:37:26Z</time>
      </trkpt>
      <trkpt lat="42.42153" lon="2.71576">
        <ele>1384.7</ele>
        <time>2018-11-26T04:37:26Z</time>
      </trkpt>
      <trkpt lat="42.42153" lon="2.71576">
        <ele>1384.8</ele>
        <time>2018-11-26T04:37:27Z</time>
      </trkpt>
      <trkpt lat="42.42153" lon="2.71576">
        <ele>1384.8</ele>
        <time>2018-11-26T04:37:27Z</time>
      </trkpt>
      <trkpt lat="42.42154" lon="2.71576">
        <ele>1384.7</ele>
        <time>2018-11-26T04:37:27Z</time>
      </trkpt>
      <trkpt lat="42.42154" lon="2.71576">
        <ele>1384.9</ele>
        <time>2018-11-26T04:37:27Z</time>
      </trkpt>
      <trkpt lat="42.42154" lon="2.71576">
        <ele>1385.1</ele>
        <time>2018-11-26T04:37:27Z</time>
      </trkpt>
      <trkpt lat="42.42154" lon="2.71575">
        <ele>1385.4</ele>
        <time>2018-11-26T04:37:27Z</time>
      </trkpt>
      <trkpt lat="42.42154" lon="2.71575">
        <ele>1386</ele>
        <time>2018-11-26T04:37:27Z</time>
      </trkpt>
      <trkpt lat="42.42154" lon="2.71575">
        <ele>1385.7</ele>
        <time>2018-11-26T04:37:27Z</time>
      </trkpt>
      <trkpt lat="42.42154" lon="2.71575">
        <ele>1385.6</ele>
        <time>2018-11-26T04:37:27Z</time>
      </trkpt>
      <trkpt lat="42.42154" lon="2.71575">
        <ele>1385.1</ele>
        <time>2018-11-26T04:37:27Z</time>
      </trkpt>
      <trkpt lat="42.42154" lon="2.71575">
        <ele>1384.9</ele>
        <time>2018-11-26T04:37:27Z</time>
      </trkpt>
      <trkpt lat="42.42153" lon="2.71575">
        <ele>1384.7</ele>
        <time>2018-11-26T04:37:27Z</time>
      </trkpt>
      <trkpt lat="42.42153" lon="2.71575">
        <ele>1384.3</ele>
        <time>2018-11-26T04:37:27Z</time>
      </trkpt>
      <trkpt lat="42.42153" lon="2.71576">
        <ele>1384.3</ele>
        <time>2018-11-26T04:37:28Z</time>
      </trkpt>
      <trkpt lat="42.42153" lon="2.71576">
        <ele>1384.3</ele>
        <time>2018-11-26T04:37:28Z</time>
      </trkpt>
      <trkpt lat="42.42154" lon="2.71577">
        <ele>1384.3</ele>
        <time>2018-11-26T04:37:28Z</time>
      </trkpt>
      <trkpt lat="42.42154" lon="2.71577">
        <ele>1384.2</ele>
        <time>2018-11-26T04:37:28Z</time>
      </trkpt>
      <trkpt lat="42.42154" lon="2.71577">
        <ele>1384</ele>
        <time>2018-11-26T04:37:28Z</time>
      </trkpt>
      <trkpt lat="42.42154" lon="2.71577">
        <ele>1383.7</ele>
        <time>2018-11-26T04:37:28Z</time>
      </trkpt>
      <trkpt lat="42.42154" lon="2.71577">
        <ele>1383.8</ele>
        <time>2018-11-26T04:37:28Z</time>
      </trkpt>
      <trkpt lat="42.42154" lon="2.71578">
        <ele>1383.9</ele>
        <time>2018-11-26T04:37:28Z</time>
      </trkpt>
      <trkpt lat="42.42154" lon="2.71578">
        <ele>1383.9</ele>
        <time>2018-11-26T04:37:28Z</time>
      </trkpt>
      <trkpt lat="42.42154" lon="2.71578">
        <ele>1384</ele>
        <time>2018-11-26T04:37:28Z</time>
      </trkpt>
      <trkpt lat="42.42154" lon="2.71578">
        <ele>1384.1</ele>
        <time>2018-11-26T04:37:28Z</time>
      </trkpt>
      <trkpt lat="42.42154" lon="2.71578">
        <ele>1384.5</ele>
        <time>2018-11-26T04:37:28Z</time>
      </trkpt>
      <trkpt lat="42.42154" lon="2.71578">
        <ele>1384.9</ele>
        <time>2018-11-26T04:37:28Z</time>
      </trkpt>
      <trkpt lat="42.42154" lon="2.71578">
        <ele>1384.8</ele>
        <time>2018-11-26T04:37:28Z</time>
      </trkpt>
      <trkpt lat="42.42154" lon="2.71578">
        <ele>1384.8</ele>
        <time>2018-11-26T04:37:28Z</time>
      </trkpt>
      <trkpt lat="42.42153" lon="2.71578">
        <ele>1384.6</ele>
        <time>2018-11-26T04:37:29Z</time>
      </trkpt>
      <trkpt lat="42.42153" lon="2.71578">
        <ele>1384.9</ele>
        <time>2018-11-26T04:37:29Z</time>
      </trkpt>
      <trkpt lat="42.42153" lon="2.71578">
        <ele>1385.3</ele>
        <time>2018-11-26T04:37:29Z</time>
      </trkpt>
      <trkpt lat="42.42153" lon="2.71578">
        <ele>1386</ele>
        <time>2018-11-26T04:37:29Z</time>
      </trkpt>
      <trkpt lat="42.42153" lon="2.71578">
        <ele>1386</ele>
        <time>2018-11-26T04:37:29Z</time>
      </trkpt>
      <trkpt lat="42.42153" lon="2.71578">
        <ele>1386.2</ele>
        <time>2018-11-26T04:37:29Z</time>
      </trkpt>
      <trkpt lat="42.42153" lon="2.71578">
        <ele>1386.5</ele>
        <time>2018-11-26T04:37:29Z</time>
      </trkpt>
      <trkpt lat="42.42153" lon="2.71578">
        <ele>1386.5</ele>
        <time>2018-11-26T04:37:29Z</time>
      </trkpt>
      <trkpt lat="42.42153" lon="2.71579">
        <ele>1386.5</ele>
        <time>2018-11-26T04:37:29Z</time>
      </trkpt>
      <trkpt lat="42.42153" lon="2.71579">
        <ele>1386.5</ele>
        <time>2018-11-26T04:37:29Z</time>
      </trkpt>
      <trkpt lat="42.42153" lon="2.71579">
        <ele>1386.4</ele>
        <time>2018-11-26T04:37:29Z</time>
      </trkpt>
      <trkpt lat="42.42153" lon="2.71579">
        <ele>1386.3</ele>
        <time>2018-11-26T04:37:29Z</time>
      </trkpt>
      <trkpt lat="42.42153" lon="2.71579">
        <ele>1386</ele>
        <time>2018-11-26T04:37:29Z</time>
      </trkpt>
      <trkpt lat="42.42153" lon="2.71579">
        <ele>1385.8</ele>
        <time>2018-11-26T04:37:29Z</time>
      </trkpt>
      <trkpt lat="42.42153" lon="2.71579">
        <ele>1385.8</ele>
        <time>2018-11-26T04:37:29Z</time>
      </trkpt>
      <trkpt lat="42.42152" lon="2.71579">
        <ele>1385.6</ele>
        <time>2018-11-26T04:37:29Z</time>
      </trkpt>
      <trkpt lat="42.42152" lon="2.71579">
        <ele>1385.5</ele>
        <time>2018-11-26T04:37:29Z</time>
      </trkpt>
      <trkpt lat="42.42152" lon="2.71579">
        <ele>1385.6</ele>
        <time>2018-11-26T04:37:29Z</time>
      </trkpt>
      <trkpt lat="42.42152" lon="2.71579">
        <ele>1385.8</ele>
        <time>2018-11-26T04:37:29Z</time>
      </trkpt>
      <trkpt lat="42.42152" lon="2.71579">
        <ele>1385.9</ele>
        <time>2018-11-26T04:37:29Z</time>
      </trkpt>
      <trkpt lat="42.42152" lon="2.71579">
        <ele>1385.7</ele>
        <time>2018-11-26T04:37:29Z</time>
      </trkpt>
      <trkpt lat="42.42152" lon="2.71579">
        <ele>1385.6</ele>
        <time>2018-11-26T04:37:29Z</time>
      </trkpt>
      <trkpt lat="42.42152" lon="2.71579">
        <ele>1385.5</ele>
        <time>2018-11-26T04:37:29Z</time>
      </trkpt>
      <trkpt lat="42.42152" lon="2.71579">
        <ele>1385.4</ele>
        <time>2018-11-26T04:37:29Z</time>
      </trkpt>
      <trkpt lat="42.42152" lon="2.71579">
        <ele>1385.4</ele>
        <time>2018-11-26T04:37:29Z</time>
      </trkpt>
      <trkpt lat="42.42152" lon="2.71579">
        <ele>1385.4</ele>
        <time>2018-11-26T04:37:29Z</time>
      </trkpt>
      <trkpt lat="42.42152" lon="2.71579">
        <ele>1385.5</ele>
        <time>2018-11-26T04:37:29Z</time>
      </trkpt>
      <trkpt lat="42.42152" lon="2.71579">
        <ele>1385.6</ele>
        <time>2018-11-26T04:37:29Z</time>
      </trkpt>
      <trkpt lat="42.42152" lon="2.71579">
        <ele>1385.7</ele>
        <time>2018-11-26T04:37:29Z</time>
      </trkpt>
      <trkpt lat="42.42152" lon="2.71579">
        <ele>1385.9</ele>
        <time>2018-11-26T04:37:29Z</time>
      </trkpt>
      <trkpt lat="42.42152" lon="2.71579">
        <ele>1385.8</ele>
        <time>2018-11-26T04:37:29Z</time>
      </trkpt>
      <trkpt lat="42.42152" lon="2.71579">
        <ele>1385.5</ele>
        <time>2018-11-26T04:37:29Z</time>
      </trkpt>
      <trkpt lat="42.42152" lon="2.71579">
        <ele>1385.4</ele>
        <time>2018-11-26T04:37:30Z</time>
      </trkpt>
      <trkpt lat="42.42152" lon="2.71579">
        <ele>1385.4</ele>
        <time>2018-11-26T04:37:30Z</time>
      </trkpt>
      <trkpt lat="42.42152" lon="2.71579">
        <ele>1385.7</ele>
        <time>2018-11-26T04:37:30Z</time>
      </trkpt>
      <trkpt lat="42.42152" lon="2.71579">
        <ele>1385.9</ele>
        <time>2018-11-26T04:37:30Z</time>
      </trkpt>
      <trkpt lat="42.42152" lon="2.71579">
        <ele>1385.8</ele>
        <time>2018-11-26T04:37:30Z</time>
      </trkpt>
      <trkpt lat="42.42152" lon="2.71579">
        <ele>1385.9</ele>
        <time>2018-11-26T04:37:30Z</time>
      </trkpt>
      <trkpt lat="42.42152" lon="2.71579">
        <ele>1386</ele>
        <time>2018-11-26T04:37:30Z</time>
      </trkpt>
      <trkpt lat="42.42152" lon="2.71579">
        <ele>1385.9</ele>
        <time>2018-11-26T04:37:30Z</time>
      </trkpt>
      <trkpt lat="42.42152" lon="2.71579">
        <ele>1385.9</ele>
        <time>2018-11-26T04:37:30Z</time>
      </trkpt>
      <trkpt lat="42.42152" lon="2.71579">
        <ele>1385.6</ele>
        <time>2018-11-26T04:37:30Z</time>
      </trkpt>
      <trkpt lat="42.42152" lon="2.7158">
        <ele>1385.5</ele>
        <time>2018-11-26T04:37:30Z</time>
      </trkpt>
      <trkpt lat="42.42152" lon="2.7158">
        <ele>1385.6</ele>
        <time>2018-11-26T04:37:30Z</time>
      </trkpt>
      <trkpt lat="42.42152" lon="2.7158">
        <ele>1385.9</ele>
        <time>2018-11-26T04:37:30Z</time>
      </trkpt>
      <trkpt lat="42.42152" lon="2.7158">
        <ele>1386.2</ele>
        <time>2018-11-26T04:37:30Z</time>
      </trkpt>
      <trkpt lat="42.42152" lon="2.7158">
        <ele>1386.1</ele>
        <time>2018-11-26T04:37:30Z</time>
      </trkpt>
      <trkpt lat="42.42152" lon="2.7158">
        <ele>1386</ele>
        <time>2018-11-26T04:37:30Z</time>
      </trkpt>
      <trkpt lat="42.42152" lon="2.7158">
        <ele>1385.8</ele>
        <time>2018-11-26T04:37:30Z</time>
      </trkpt>
      <trkpt lat="42.42152" lon="2.7158">
        <ele>1385.9</ele>
        <time>2018-11-26T04:37:30Z</time>
      </trkpt>
      <trkpt lat="42.42152" lon="2.7158">
        <ele>1385.8</ele>
        <time>2018-11-26T04:37:30Z</time>
      </trkpt>
      <trkpt lat="42.42152" lon="2.7158">
        <ele>1385.6</ele>
        <time>2018-11-26T04:37:30Z</time>
      </trkpt>
      <trkpt lat="42.42152" lon="2.7158">
        <ele>1385.5</ele>
        <time>2018-11-26T04:37:30Z</time>
      </trkpt>
      <trkpt lat="42.42152" lon="2.7158">
        <ele>1385.2</ele>
        <time>2018-11-26T04:37:30Z</time>
      </trkpt>
      <trkpt lat="42.42152" lon="2.7158">
        <ele>1384.9</ele>
        <time>2018-11-26T04:37:30Z</time>
      </trkpt>
      <trkpt lat="42.42152" lon="2.71581">
        <ele>1385.1</ele>
        <time>2018-11-26T04:37:30Z</time>
      </trkpt>
      <trkpt lat="42.42152" lon="2.71581">
        <ele>1385.4</ele>
        <time>2018-11-26T04:37:30Z</time>
      </trkpt>
      <trkpt lat="42.42152" lon="2.71581">
        <ele>1385.9</ele>
        <time>2018-11-26T04:37:30Z</time>
      </trkpt>
      <trkpt lat="42.42152" lon="2.71581">
        <ele>1385.8</ele>
        <time>2018-11-26T04:37:30Z</time>
      </trkpt>
      <trkpt lat="42.42152" lon="2.71581">
        <ele>1385.8</ele>
        <time>2018-11-26T04:37:30Z</time>
      </trkpt>
      <trkpt lat="42.42152" lon="2.71581">
        <ele>1385.5</ele>
        <time>2018-11-26T04:37:30Z</time>
      </trkpt>
      <trkpt lat="42.42152" lon="2.71581">
        <ele>1385.4</ele>
        <time>2018-11-26T04:37:30Z</time>
      </trkpt>
      <trkpt lat="42.42152" lon="2.71582">
        <ele>1385.6</ele>
        <time>2018-11-26T04:37:30Z</time>
      </trkpt>
      <trkpt lat="42.42152" lon="2.71582">
        <ele>1385.6</ele>
        <time>2018-11-26T04:37:30Z</time>
      </trkpt>
      <trkpt lat="42.42152" lon="2.71582">
        <ele>1385.8</ele>
        <time>2018-11-26T04:37:30Z</time>
      </trkpt>
      <trkpt lat="42.42152" lon="2.71582">
        <ele>1385.9</ele>
        <time>2018-11-26T04:37:31Z</time>
      </trkpt>
      <trkpt lat="42.42152" lon="2.71582">
        <ele>1385.8</ele>
        <time>2018-11-26T04:37:31Z</time>
      </trkpt>
      <trkpt lat="42.42152" lon="2.71581">
        <ele>1385.8</ele>
        <time>2018-11-26T04:37:31Z</time>
      </trkpt>
      <trkpt lat="42.42151" lon="2.71581">
        <ele>1385.8</ele>
        <time>2018-11-26T04:37:31Z</time>
      </trkpt>
      <trkpt lat="42.42151" lon="2.71581">
        <ele>1385.9</ele>
        <time>2018-11-26T04:37:31Z</time>
      </trkpt>
      <trkpt lat="42.42151" lon="2.71581">
        <ele>1385.9</ele>
        <time>2018-11-26T04:37:31Z</time>
      </trkpt>
      <trkpt lat="42.42151" lon="2.71581">
        <ele>1386</ele>
        <time>2018-11-26T04:37:31Z</time>
      </trkpt>
      <trkpt lat="42.42151" lon="2.71581">
        <ele>1386.2</ele>
        <time>2018-11-26T04:37:31Z</time>
      </trkpt>
      <trkpt lat="42.42151" lon="2.71581">
        <ele>1386.3</ele>
        <time>2018-11-26T04:37:31Z</time>
      </trkpt>
      <trkpt lat="42.42151" lon="2.71581">
        <ele>1386.2</ele>
        <time>2018-11-26T04:37:31Z</time>
      </trkpt>
      <trkpt lat="42.42151" lon="2.71581">
        <ele>1386</ele>
        <time>2018-11-26T04:37:31Z</time>
      </trkpt>
      <trkpt lat="42.42151" lon="2.71581">
        <ele>1385.7</ele>
        <time>2018-11-26T04:37:31Z</time>
      </trkpt>
      <trkpt lat="42.42151" lon="2.71581">
        <ele>1385.4</ele>
        <time>2018-11-26T04:37:31Z</time>
      </trkpt>
      <trkpt lat="42.42152" lon="2.71581">
        <ele>1385.5</ele>
        <time>2018-11-26T04:37:32Z</time>
      </trkpt>
      <trkpt lat="42.42152" lon="2.71581">
        <ele>1385.7</ele>
        <time>2018-11-26T04:37:32Z</time>
      </trkpt>
      <trkpt lat="42.42152" lon="2.71581">
        <ele>1385.8</ele>
        <time>2018-11-26T04:37:32Z</time>
      </trkpt>
      <trkpt lat="42.42152" lon="2.71581">
        <ele>1385.5</ele>
        <time>2018-11-26T04:37:32Z</time>
      </trkpt>
      <trkpt lat="42.42151" lon="2.71581">
        <ele>1385.1</ele>
        <time>2018-11-26T04:37:32Z</time>
      </trkpt>
      <trkpt lat="42.42151" lon="2.71581">
        <ele>1384.7</ele>
        <time>2018-11-26T04:37:32Z</time>
      </trkpt>
      <trkpt lat="42.42152" lon="2.71581">
        <ele>1384.5</ele>
        <time>2018-11-26T04:37:32Z</time>
      </trkpt>
      <trkpt lat="42.42152" lon="2.71582">
        <ele>1384.5</ele>
        <time>2018-11-26T04:37:32Z</time>
      </trkpt>
      <trkpt lat="42.42152" lon="2.71582">
        <ele>1384.2</ele>
        <time>2018-11-26T04:37:32Z</time>
      </trkpt>
      <trkpt lat="42.42152" lon="2.71582">
        <ele>1384.1</ele>
        <time>2018-11-26T04:37:32Z</time>
      </trkpt>
      <trkpt lat="42.42152" lon="2.71582">
        <ele>1384</ele>
        <time>2018-11-26T04:37:32Z</time>
      </trkpt>
      <trkpt lat="42.42152" lon="2.71582">
        <ele>1383.6</ele>
        <time>2018-11-26T04:37:32Z</time>
      </trkpt>
      <trkpt lat="42.42152" lon="2.71582">
        <ele>1383.8</ele>
        <time>2018-11-26T04:37:32Z</time>
      </trkpt>
      <trkpt lat="42.42152" lon="2.71582">
        <ele>1384.2</ele>
        <time>2018-11-26T04:37:32Z</time>
      </trkpt>
      <trkpt lat="42.42152" lon="2.71582">
        <ele>1384.4</ele>
        <time>2018-11-26T04:37:32Z</time>
      </trkpt>
      <trkpt lat="42.42152" lon="2.71582">
        <ele>1384.5</ele>
        <time>2018-11-26T04:37:32Z</time>
      </trkpt>
      <trkpt lat="42.42152" lon="2.71582">
        <ele>1384.5</ele>
        <time>2018-11-26T04:37:32Z</time>
      </trkpt>
      <trkpt lat="42.42152" lon="2.71582">
        <ele>1384.4</ele>
        <time>2018-11-26T04:37:32Z</time>
      </trkpt>
      <trkpt lat="42.42152" lon="2.71582">
        <ele>1384.4</ele>
        <time>2018-11-26T04:37:32Z</time>
      </trkpt>
      <trkpt lat="42.42152" lon="2.71582">
        <ele>1384.3</ele>
        <time>2018-11-26T04:37:32Z</time>
      </trkpt>
      <trkpt lat="42.42151" lon="2.71582">
        <ele>1384.2</ele>
        <time>2018-11-26T04:37:33Z</time>
      </trkpt>
      <trkpt lat="42.42151" lon="2.71582">
        <ele>1384.2</ele>
        <time>2018-11-26T04:37:33Z</time>
      </trkpt>
      <trkpt lat="42.42151" lon="2.71582">
        <ele>1384</ele>
        <time>2018-11-26T04:37:33Z</time>
      </trkpt>
      <trkpt lat="42.42151" lon="2.71582">
        <ele>1383.9</ele>
        <time>2018-11-26T04:37:33Z</time>
      </trkpt>
      <trkpt lat="42.42151" lon="2.71583">
        <ele>1383.6</ele>
        <time>2018-11-26T04:37:33Z</time>
      </trkpt>
      <trkpt lat="42.42151" lon="2.71583">
        <ele>1383.8</ele>
        <time>2018-11-26T04:37:33Z</time>
      </trkpt>
      <trkpt lat="42.42151" lon="2.71583">
        <ele>1383.8</ele>
        <time>2018-11-26T04:37:33Z</time>
      </trkpt>
      <trkpt lat="42.42151" lon="2.71583">
        <ele>1384.1</ele>
        <time>2018-11-26T04:37:33Z</time>
      </trkpt>
      <trkpt lat="42.42151" lon="2.71583">
        <ele>1384</ele>
        <time>2018-11-26T04:37:33Z</time>
      </trkpt>
      <trkpt lat="42.42151" lon="2.71583">
        <ele>1383.9</ele>
        <time>2018-11-26T04:37:33Z</time>
      </trkpt>
      <trkpt lat="42.42151" lon="2.71583">
        <ele>1383.8</ele>
        <time>2018-11-26T04:37:33Z</time>
      </trkpt>
      <trkpt lat="42.42151" lon="2.71583">
        <ele>1384</ele>
        <time>2018-11-26T04:37:33Z</time>
      </trkpt>
      <trkpt lat="42.42151" lon="2.71583">
        <ele>1384.1</ele>
        <time>2018-11-26T04:37:33Z</time>
      </trkpt>
      <trkpt lat="42.42151" lon="2.71583">
        <ele>1384.2</ele>
        <time>2018-11-26T04:37:33Z</time>
      </trkpt>
      <trkpt lat="42.4215" lon="2.71583">
        <ele>1384.4</ele>
        <time>2018-11-26T04:37:33Z</time>
      </trkpt>
      <trkpt lat="42.4215" lon="2.71583">
        <ele>1384.6</ele>
        <time>2018-11-26T04:37:33Z</time>
      </trkpt>
      <trkpt lat="42.4215" lon="2.71583">
        <ele>1384.6</ele>
        <time>2018-11-26T04:37:33Z</time>
      </trkpt>
      <trkpt lat="42.4215" lon="2.71583">
        <ele>1384.9</ele>
        <time>2018-11-26T04:37:33Z</time>
      </trkpt>
      <trkpt lat="42.4215" lon="2.71583">
        <ele>1384.6</ele>
        <time>2018-11-26T04:37:33Z</time>
      </trkpt>
      <trkpt lat="42.4215" lon="2.71583">
        <ele>1384.4</ele>
        <time>2018-11-26T04:37:33Z</time>
      </trkpt>
      <trkpt lat="42.4215" lon="2.71583">
        <ele>1384.1</ele>
        <time>2018-11-26T04:37:33Z</time>
      </trkpt>
      <trkpt lat="42.4215" lon="2.71583">
        <ele>1384.2</ele>
        <time>2018-11-26T04:37:33Z</time>
      </trkpt>
      <trkpt lat="42.4215" lon="2.71583">
        <ele>1384.2</ele>
        <time>2018-11-26T04:37:33Z</time>
      </trkpt>
      <trkpt lat="42.4215" lon="2.71583">
        <ele>1384.4</ele>
        <time>2018-11-26T04:37:33Z</time>
      </trkpt>
      <trkpt lat="42.4215" lon="2.71583">
        <ele>1384.4</ele>
        <time>2018-11-26T04:37:33Z</time>
      </trkpt>
      <trkpt lat="42.4215" lon="2.71582">
        <ele>1384.4</ele>
        <time>2018-11-26T04:37:33Z</time>
      </trkpt>
      <trkpt lat="42.4215" lon="2.71582">
        <ele>1384.6</ele>
        <time>2018-11-26T04:37:33Z</time>
      </trkpt>
      <trkpt lat="42.4215" lon="2.71582">
        <ele>1384.5</ele>
        <time>2018-11-26T04:37:33Z</time>
      </trkpt>
      <trkpt lat="42.4215" lon="2.71582">
        <ele>1384.2</ele>
        <time>2018-11-26T04:37:33Z</time>
      </trkpt>
      <trkpt lat="42.4215" lon="2.71582">
        <ele>1384</ele>
        <time>2018-11-26T04:37:34Z</time>
      </trkpt>
      <trkpt lat="42.4215" lon="2.71581">
        <ele>1383.9</ele>
        <time>2018-11-26T04:37:34Z</time>
      </trkpt>
      <trkpt lat="42.4215" lon="2.71581">
        <ele>1384</ele>
        <time>2018-11-26T04:37:34Z</time>
      </trkpt>
      <trkpt lat="42.4215" lon="2.71581">
        <ele>1384.2</ele>
        <time>2018-11-26T04:37:34Z</time>
      </trkpt>
      <trkpt lat="42.42151" lon="2.71581">
        <ele>1384.4</ele>
        <time>2018-11-26T04:37:34Z</time>
      </trkpt>
      <trkpt lat="42.42151" lon="2.7158">
        <ele>1384.4</ele>
        <time>2018-11-26T04:37:34Z</time>
      </trkpt>
      <trkpt lat="42.42151" lon="2.7158">
        <ele>1384.2</ele>
        <time>2018-11-26T04:37:34Z</time>
      </trkpt>
      <trkpt lat="42.42151" lon="2.7158">
        <ele>1384.3</ele>
        <time>2018-11-26T04:37:34Z</time>
      </trkpt>
      <trkpt lat="42.42151" lon="2.7158">
        <ele>1384.3</ele>
        <time>2018-11-26T04:37:34Z</time>
      </trkpt>
      <trkpt lat="42.42151" lon="2.71579">
        <ele>1384.3</ele>
        <time>2018-11-26T04:37:34Z</time>
      </trkpt>
      <trkpt lat="42.42151" lon="2.71579">
        <ele>1384.5</ele>
        <time>2018-11-26T04:37:34Z</time>
      </trkpt>
      <trkpt lat="42.42151" lon="2.71579">
        <ele>1384.4</ele>
        <time>2018-11-26T04:37:34Z</time>
      </trkpt>
      <trkpt lat="42.42151" lon="2.71578">
        <ele>1384.3</ele>
        <time>2018-11-26T04:37:35Z</time>
      </trkpt>
      <trkpt lat="42.42151" lon="2.71578">
        <ele>1384.3</ele>
        <time>2018-11-26T04:37:35Z</time>
      </trkpt>
      <trkpt lat="42.42151" lon="2.71578">
        <ele>1384.2</ele>
        <time>2018-11-26T04:37:35Z</time>
      </trkpt>
      <trkpt lat="42.42151" lon="2.71578">
        <ele>1384.2</ele>
        <time>2018-11-26T04:37:35Z</time>
      </trkpt>
      <trkpt lat="42.42151" lon="2.71577">
        <ele>1384.1</ele>
        <time>2018-11-26T04:37:35Z</time>
      </trkpt>
      <trkpt lat="42.42151" lon="2.71577">
        <ele>1384.1</ele>
        <time>2018-11-26T04:37:35Z</time>
      </trkpt>
      <trkpt lat="42.42151" lon="2.71577">
        <ele>1384.2</ele>
        <time>2018-11-26T04:37:35Z</time>
      </trkpt>
      <trkpt lat="42.42152" lon="2.71576">
        <ele>1384.3</ele>
        <time>2018-11-26T04:37:35Z</time>
      </trkpt>
      <trkpt lat="42.42152" lon="2.71576">
        <ele>1384.5</ele>
        <time>2018-11-26T04:37:35Z</time>
      </trkpt>
      <trkpt lat="42.42152" lon="2.71575">
        <ele>1384.6</ele>
        <time>2018-11-26T04:37:35Z</time>
      </trkpt>
      <trkpt lat="42.42152" lon="2.71575">
        <ele>1384.5</ele>
        <time>2018-11-26T04:37:36Z</time>
      </trkpt>
      <trkpt lat="42.42152" lon="2.71575">
        <ele>1384.5</ele>
        <time>2018-11-26T04:37:36Z</time>
      </trkpt>
      <trkpt lat="42.42152" lon="2.71574">
        <ele>1384.4</ele>
        <time>2018-11-26T04:37:36Z</time>
      </trkpt>
      <trkpt lat="42.42152" lon="2.71574">
        <ele>1384.5</ele>
        <time>2018-11-26T04:37:36Z</time>
      </trkpt>
      <trkpt lat="42.42152" lon="2.71574">
        <ele>1384.5</ele>
        <time>2018-11-26T04:37:36Z</time>
      </trkpt>
      <trkpt lat="42.42152" lon="2.71574">
        <ele>1384.7</ele>
        <time>2018-11-26T04:37:36Z</time>
      </trkpt>
      <trkpt lat="42.42152" lon="2.71574">
        <ele>1385.1</ele>
        <time>2018-11-26T04:37:36Z</time>
      </trkpt>
      <trkpt lat="42.42152" lon="2.71574">
        <ele>1385.4</ele>
        <time>2018-11-26T04:37:36Z</time>
      </trkpt>
      <trkpt lat="42.42152" lon="2.71574">
        <ele>1385.3</ele>
        <time>2018-11-26T04:37:36Z</time>
      </trkpt>
      <trkpt lat="42.42152" lon="2.71574">
        <ele>1385.4</ele>
        <time>2018-11-26T04:37:36Z</time>
      </trkpt>
      <trkpt lat="42.42152" lon="2.71574">
        <ele>1385.3</ele>
        <time>2018-11-26T04:37:36Z</time>
      </trkpt>
      <trkpt lat="42.42152" lon="2.71574">
        <ele>1385.2</ele>
        <time>2018-11-26T04:37:36Z</time>
      </trkpt>
      <trkpt lat="42.42153" lon="2.71574">
        <ele>1385</ele>
        <time>2018-11-26T04:37:36Z</time>
      </trkpt>
      <trkpt lat="42.42153" lon="2.71574">
        <ele>1384.7</ele>
        <time>2018-11-26T04:37:36Z</time>
      </trkpt>
      <trkpt lat="42.42153" lon="2.71574">
        <ele>1384.2</ele>
        <time>2018-11-26T04:37:36Z</time>
      </trkpt>
      <trkpt lat="42.42153" lon="2.71574">
        <ele>1384.4</ele>
        <time>2018-11-26T04:37:36Z</time>
      </trkpt>
      <trkpt lat="42.42153" lon="2.71574">
        <ele>1384.5</ele>
        <time>2018-11-26T04:37:36Z</time>
      </trkpt>
      <trkpt lat="42.42153" lon="2.71574">
        <ele>1384.8</ele>
        <time>2018-11-26T04:37:36Z</time>
      </trkpt>
      <trkpt lat="42.42153" lon="2.71574">
        <ele>1384.8</ele>
        <time>2018-11-26T04:37:36Z</time>
      </trkpt>
      <trkpt lat="42.42153" lon="2.71574">
        <ele>1384.8</ele>
        <time>2018-11-26T04:37:37Z</time>
      </trkpt>
      <trkpt lat="42.42153" lon="2.71574">
        <ele>1384.9</ele>
        <time>2018-11-26T04:37:37Z</time>
      </trkpt>
      <trkpt lat="42.42153" lon="2.71574">
        <ele>1384.6</ele>
        <time>2018-11-26T04:37:37Z</time>
      </trkpt>
      <trkpt lat="42.42153" lon="2.71574">
        <ele>1384.4</ele>
        <time>2018-11-26T04:37:37Z</time>
      </trkpt>
      <trkpt lat="42.42153" lon="2.71574">
        <ele>1384.3</ele>
        <time>2018-11-26T04:37:37Z</time>
      </trkpt>
      <trkpt lat="42.42153" lon="2.71574">
        <ele>1384.3</ele>
        <time>2018-11-26T04:37:37Z</time>
      </trkpt>
      <trkpt lat="42.42153" lon="2.71574">
        <ele>1384.5</ele>
        <time>2018-11-26T04:37:37Z</time>
      </trkpt>
      <trkpt lat="42.42153" lon="2.71574">
        <ele>1384.9</ele>
        <time>2018-11-26T04:37:37Z</time>
      </trkpt>
      <trkpt lat="42.42153" lon="2.71574">
        <ele>1385.2</ele>
        <time>2018-11-26T04:37:37Z</time>
      </trkpt>
      <trkpt lat="42.42153" lon="2.71574">
        <ele>1385.4</ele>
        <time>2018-11-26T04:37:37Z</time>
      </trkpt>
      <trkpt lat="42.42153" lon="2.71573">
        <ele>1385.5</ele>
        <time>2018-11-26T04:37:37Z</time>
      </trkpt>
      <trkpt lat="42.42153" lon="2.71573">
        <ele>1385.9</ele>
        <time>2018-11-26T04:37:38Z</time>
      </trkpt>
      <trkpt lat="42.42154" lon="2.71574">
        <ele>1385.8</ele>
        <time>2018-11-26T04:37:38Z</time>
      </trkpt>
      <trkpt lat="42.42153" lon="2.71574">
        <ele>1385.6</ele>
        <time>2018-11-26T04:37:38Z</time>
      </trkpt>
      <trkpt lat="42.42153" lon="2.71573">
        <ele>1385.5</ele>
        <time>2018-11-26T04:37:38Z</time>
      </trkpt>
      <trkpt lat="42.42153" lon="2.71573">
        <ele>1385.3</ele>
        <time>2018-11-26T04:37:38Z</time>
      </trkpt>
      <trkpt lat="42.42153" lon="2.71573">
        <ele>1385.3</ele>
        <time>2018-11-26T04:37:38Z</time>
      </trkpt>
      <trkpt lat="42.42152" lon="2.71572">
        <ele>1385.1</ele>
        <time>2018-11-26T04:37:38Z</time>
      </trkpt>
      <trkpt lat="42.42152" lon="2.71572">
        <ele>1384.9</ele>
        <time>2018-11-26T04:37:39Z</time>
      </trkpt>
      <trkpt lat="42.42152" lon="2.71572">
        <ele>1384.8</ele>
        <time>2018-11-26T04:37:39Z</time>
      </trkpt>
      <trkpt lat="42.42152" lon="2.71572">
        <ele>1384.7</ele>
        <time>2018-11-26T04:37:39Z</time>
      </trkpt>
      <trkpt lat="42.42152" lon="2.71572">
        <ele>1384.7</ele>
        <time>2018-11-26T04:37:39Z</time>
      </trkpt>
      <trkpt lat="42.42152" lon="2.71572">
        <ele>1384.8</ele>
        <time>2018-11-26T04:37:39Z</time>
      </trkpt>
      <trkpt lat="42.42152" lon="2.71571">
        <ele>1384.8</ele>
        <time>2018-11-26T04:37:39Z</time>
      </trkpt>
      <trkpt lat="42.42152" lon="2.71571">
        <ele>1385</ele>
        <time>2018-11-26T04:37:39Z</time>
      </trkpt>
      <trkpt lat="42.42152" lon="2.71571">
        <ele>1385</ele>
        <time>2018-11-26T04:37:39Z</time>
      </trkpt>
      <trkpt lat="42.42151" lon="2.71571">
        <ele>1385.1</ele>
        <time>2018-11-26T04:37:39Z</time>
      </trkpt>
      <trkpt lat="42.42151" lon="2.71571">
        <ele>1385.3</ele>
        <time>2018-11-26T04:37:39Z</time>
      </trkpt>
      <trkpt lat="42.42151" lon="2.71571">
        <ele>1385.4</ele>
        <time>2018-11-26T04:37:39Z</time>
      </trkpt>
      <trkpt lat="42.42151" lon="2.7157">
        <ele>1385.7</ele>
        <time>2018-11-26T04:37:39Z</time>
      </trkpt>
      <trkpt lat="42.42151" lon="2.7157">
        <ele>1386</ele>
        <time>2018-11-26T04:37:39Z</time>
      </trkpt>
      <trkpt lat="42.42151" lon="2.7157">
        <ele>1385.9</ele>
        <time>2018-11-26T04:37:39Z</time>
      </trkpt>
      <trkpt lat="42.42151" lon="2.7157">
        <ele>1385.7</ele>
        <time>2018-11-26T04:37:39Z</time>
      </trkpt>
      <trkpt lat="42.42151" lon="2.7157">
        <ele>1385.5</ele>
        <time>2018-11-26T04:37:40Z</time>
      </trkpt>
      <trkpt lat="42.42151" lon="2.71569">
        <ele>1385.7</ele>
        <time>2018-11-26T04:37:40Z</time>
      </trkpt>
      <trkpt lat="42.42151" lon="2.71569">
        <ele>1385.7</ele>
        <time>2018-11-26T04:37:40Z</time>
      </trkpt>
      <trkpt lat="42.42151" lon="2.71569">
        <ele>1385.8</ele>
        <time>2018-11-26T04:37:40Z</time>
      </trkpt>
      <trkpt lat="42.42151" lon="2.71569">
        <ele>1385.7</ele>
        <time>2018-11-26T04:37:40Z</time>
      </trkpt>
      <trkpt lat="42.42151" lon="2.71569">
        <ele>1385.6</ele>
        <time>2018-11-26T04:37:40Z</time>
      </trkpt>
      <trkpt lat="42.42151" lon="2.71569">
        <ele>1385.5</ele>
        <time>2018-11-26T04:37:40Z</time>
      </trkpt>
      <trkpt lat="42.42151" lon="2.71569">
        <ele>1385.6</ele>
        <time>2018-11-26T04:37:40Z</time>
      </trkpt>
      <trkpt lat="42.42151" lon="2.71569">
        <ele>1385.3</ele>
        <time>2018-11-26T04:37:40Z</time>
      </trkpt>
      <trkpt lat="42.42151" lon="2.71569">
        <ele>1385.2</ele>
        <time>2018-11-26T04:37:40Z</time>
      </trkpt>
      <trkpt lat="42.42151" lon="2.71569">
        <ele>1385.1</ele>
        <time>2018-11-26T04:37:40Z</time>
      </trkpt>
      <trkpt lat="42.42151" lon="2.71568">
        <ele>1385.2</ele>
        <time>2018-11-26T04:37:40Z</time>
      </trkpt>
      <trkpt lat="42.42151" lon="2.71569">
        <ele>1385.5</ele>
        <time>2018-11-26T04:37:40Z</time>
      </trkpt>
      <trkpt lat="42.42152" lon="2.71569">
        <ele>1385.8</ele>
        <time>2018-11-26T04:37:40Z</time>
      </trkpt>
      <trkpt lat="42.42152" lon="2.71569">
        <ele>1385.7</ele>
        <time>2018-11-26T04:37:40Z</time>
      </trkpt>
      <trkpt lat="42.42152" lon="2.71569">
        <ele>1385.9</ele>
        <time>2018-11-26T04:37:40Z</time>
      </trkpt>
      <trkpt lat="42.42152" lon="2.7157">
        <ele>1386</ele>
        <time>2018-11-26T04:37:40Z</time>
      </trkpt>
      <trkpt lat="42.42152" lon="2.7157">
        <ele>1385.9</ele>
        <time>2018-11-26T04:37:40Z</time>
      </trkpt>
      <trkpt lat="42.42152" lon="2.7157">
        <ele>1385.8</ele>
        <time>2018-11-26T04:37:40Z</time>
      </trkpt>
      <trkpt lat="42.42152" lon="2.7157">
        <ele>1385.7</ele>
        <time>2018-11-26T04:37:40Z</time>
      </trkpt>
      <trkpt lat="42.42152" lon="2.7157">
        <ele>1385.8</ele>
        <time>2018-11-26T04:37:40Z</time>
      </trkpt>
      <trkpt lat="42.42152" lon="2.7157">
        <ele>1386</ele>
        <time>2018-11-26T04:37:41Z</time>
      </trkpt>
      <trkpt lat="42.42152" lon="2.71571">
        <ele>1386.4</ele>
        <time>2018-11-26T04:37:41Z</time>
      </trkpt>
      <trkpt lat="42.42152" lon="2.71571">
        <ele>1386.3</ele>
        <time>2018-11-26T04:37:41Z</time>
      </trkpt>
      <trkpt lat="42.42152" lon="2.71571">
        <ele>1386.1</ele>
        <time>2018-11-26T04:37:41Z</time>
      </trkpt>
      <trkpt lat="42.42152" lon="2.71571">
        <ele>1385.7</ele>
        <time>2018-11-26T04:37:41Z</time>
      </trkpt>
      <trkpt lat="42.42152" lon="2.71571">
        <ele>1385.3</ele>
        <time>2018-11-26T04:37:41Z</time>
      </trkpt>
      <trkpt lat="42.42152" lon="2.71571">
        <ele>1385.4</ele>
        <time>2018-11-26T04:37:41Z</time>
      </trkpt>
      <trkpt lat="42.42152" lon="2.71571">
        <ele>1385.4</ele>
        <time>2018-11-26T04:37:41Z</time>
      </trkpt>
      <trkpt lat="42.42152" lon="2.71571">
        <ele>1385.5</ele>
        <time>2018-11-26T04:37:41Z</time>
      </trkpt>
      <trkpt lat="42.42152" lon="2.71571">
        <ele>1385.3</ele>
        <time>2018-11-26T04:37:41Z</time>
      </trkpt>
      <trkpt lat="42.42152" lon="2.71571">
        <ele>1385.2</ele>
        <time>2018-11-26T04:37:41Z</time>
      </trkpt>
      <trkpt lat="42.42153" lon="2.71571">
        <ele>1385</ele>
        <time>2018-11-26T04:37:41Z</time>
      </trkpt>
      <trkpt lat="42.42153" lon="2.71572">
        <ele>1385.2</ele>
        <time>2018-11-26T04:37:41Z</time>
      </trkpt>
      <trkpt lat="42.42153" lon="2.71572">
        <ele>1385.6</ele>
        <time>2018-11-26T04:37:41Z</time>
      </trkpt>
      <trkpt lat="42.42153" lon="2.71572">
        <ele>1385.9</ele>
        <time>2018-11-26T04:37:41Z</time>
      </trkpt>
      <trkpt lat="42.42153" lon="2.71572">
        <ele>1385.6</ele>
        <time>2018-11-26T04:37:41Z</time>
      </trkpt>
      <trkpt lat="42.42153" lon="2.71572">
        <ele>1385.2</ele>
        <time>2018-11-26T04:37:41Z</time>
      </trkpt>
      <trkpt lat="42.42153" lon="2.71572">
        <ele>1384.6</ele>
        <time>2018-11-26T04:37:41Z</time>
      </trkpt>
      <trkpt lat="42.42153" lon="2.71572">
        <ele>1384.8</ele>
        <time>2018-11-26T04:37:41Z</time>
      </trkpt>
      <trkpt lat="42.42153" lon="2.71572">
        <ele>1384.9</ele>
        <time>2018-11-26T04:37:41Z</time>
      </trkpt>
      <trkpt lat="42.42153" lon="2.71572">
        <ele>1385</ele>
        <time>2018-11-26T04:37:41Z</time>
      </trkpt>
      <trkpt lat="42.42153" lon="2.71572">
        <ele>1385.4</ele>
        <time>2018-11-26T04:37:42Z</time>
      </trkpt>
      <trkpt lat="42.42153" lon="2.71572">
        <ele>1385.2</ele>
        <time>2018-11-26T04:37:42Z</time>
      </trkpt>
      <trkpt lat="42.42153" lon="2.71573">
        <ele>1385</ele>
        <time>2018-11-26T04:37:42Z</time>
      </trkpt>
      <trkpt lat="42.42153" lon="2.71573">
        <ele>1384.8</ele>
        <time>2018-11-26T04:37:42Z</time>
      </trkpt>
      <trkpt lat="42.42153" lon="2.71573">
        <ele>1384.8</ele>
        <time>2018-11-26T04:37:42Z</time>
      </trkpt>
      <trkpt lat="42.42153" lon="2.71573">
        <ele>1384.9</ele>
        <time>2018-11-26T04:37:42Z</time>
      </trkpt>
      <trkpt lat="42.42154" lon="2.71573">
        <ele>1384.8</ele>
        <time>2018-11-26T04:37:42Z</time>
      </trkpt>
      <trkpt lat="42.42154" lon="2.71573">
        <ele>1384.9</ele>
        <time>2018-11-26T04:37:42Z</time>
      </trkpt>
      <trkpt lat="42.42154" lon="2.71573">
        <ele>1385.1</ele>
        <time>2018-11-26T04:37:42Z</time>
      </trkpt>
      <trkpt lat="42.42154" lon="2.71573">
        <ele>1385.2</ele>
        <time>2018-11-26T04:37:42Z</time>
      </trkpt>
      <trkpt lat="42.42154" lon="2.71573">
        <ele>1385.2</ele>
        <time>2018-11-26T04:37:42Z</time>
      </trkpt>
      <trkpt lat="42.42154" lon="2.71573">
        <ele>1384.9</ele>
        <time>2018-11-26T04:37:42Z</time>
      </trkpt>
      <trkpt lat="42.42154" lon="2.71572">
        <ele>1384.9</ele>
        <time>2018-11-26T04:37:42Z</time>
      </trkpt>
      <trkpt lat="42.42154" lon="2.71572">
        <ele>1384.6</ele>
        <time>2018-11-26T04:37:42Z</time>
      </trkpt>
      <trkpt lat="42.42154" lon="2.71572">
        <ele>1384.4</ele>
        <time>2018-11-26T04:37:42Z</time>
      </trkpt>
      <trkpt lat="42.42154" lon="2.71572">
        <ele>1384.1</ele>
        <time>2018-11-26T04:37:42Z</time>
      </trkpt>
      <trkpt lat="42.42154" lon="2.71572">
        <ele>1384.4</ele>
        <time>2018-11-26T04:37:42Z</time>
      </trkpt>
      <trkpt lat="42.42154" lon="2.71572">
        <ele>1384.9</ele>
        <time>2018-11-26T04:37:42Z</time>
      </trkpt>
      <trkpt lat="42.42154" lon="2.71572">
        <ele>1385.3</ele>
        <time>2018-11-26T04:37:42Z</time>
      </trkpt>
      <trkpt lat="42.42154" lon="2.71572">
        <ele>1385.3</ele>
        <time>2018-11-26T04:37:42Z</time>
      </trkpt>
      <trkpt lat="42.42154" lon="2.71572">
        <ele>1385.4</ele>
        <time>2018-11-26T04:37:42Z</time>
      </trkpt>
      <trkpt lat="42.42155" lon="2.71572">
        <ele>1385.5</ele>
        <time>2018-11-26T04:37:42Z</time>
      </trkpt>
      <trkpt lat="42.42154" lon="2.71572">
        <ele>1385.5</ele>
        <time>2018-11-26T04:37:43Z</time>
      </trkpt>
      <trkpt lat="42.42154" lon="2.71572">
        <ele>1385.7</ele>
        <time>2018-11-26T04:37:43Z</time>
      </trkpt>
      <trkpt lat="42.42154" lon="2.71572">
        <ele>1386</ele>
        <time>2018-11-26T04:37:43Z</time>
      </trkpt>
      <trkpt lat="42.42154" lon="2.71572">
        <ele>1385.9</ele>
        <time>2018-11-26T04:37:43Z</time>
      </trkpt>
      <trkpt lat="42.42154" lon="2.71572">
        <ele>1385.5</ele>
        <time>2018-11-26T04:37:43Z</time>
      </trkpt>
      <trkpt lat="42.42154" lon="2.71572">
        <ele>1385.1</ele>
        <time>2018-11-26T04:37:43Z</time>
      </trkpt>
      <trkpt lat="42.42154" lon="2.71572">
        <ele>1385.2</ele>
        <time>2018-11-26T04:37:43Z</time>
      </trkpt>
      <trkpt lat="42.42154" lon="2.71572">
        <ele>1385.3</ele>
        <time>2018-11-26T04:37:43Z</time>
      </trkpt>
      <trkpt lat="42.42154" lon="2.71572">
        <ele>1385.2</ele>
        <time>2018-11-26T04:37:43Z</time>
      </trkpt>
      <trkpt lat="42.42154" lon="2.71572">
        <ele>1385.3</ele>
        <time>2018-11-26T04:37:43Z</time>
      </trkpt>
      <trkpt lat="42.42154" lon="2.71572">
        <ele>1385.2</ele>
        <time>2018-11-26T04:37:43Z</time>
      </trkpt>
      <trkpt lat="42.42154" lon="2.71573">
        <ele>1385</ele>
        <time>2018-11-26T04:37:43Z</time>
      </trkpt>
      <trkpt lat="42.42154" lon="2.71573">
        <ele>1384.8</ele>
        <time>2018-11-26T04:37:43Z</time>
      </trkpt>
      <trkpt lat="42.42154" lon="2.71573">
        <ele>1384.9</ele>
        <time>2018-11-26T04:37:43Z</time>
      </trkpt>
      <trkpt lat="42.42153" lon="2.71573">
        <ele>1385.1</ele>
        <time>2018-11-26T04:37:43Z</time>
      </trkpt>
      <trkpt lat="42.42153" lon="2.71573">
        <ele>1385.2</ele>
        <time>2018-11-26T04:37:43Z</time>
      </trkpt>
      <trkpt lat="42.42153" lon="2.71573">
        <ele>1385.5</ele>
        <time>2018-11-26T04:37:43Z</time>
      </trkpt>
      <trkpt lat="42.42153" lon="2.71573">
        <ele>1385.8</ele>
        <time>2018-11-26T04:37:43Z</time>
      </trkpt>
      <trkpt lat="42.42153" lon="2.71573">
        <ele>1386.2</ele>
        <time>2018-11-26T04:37:43Z</time>
      </trkpt>
      <trkpt lat="42.42153" lon="2.71573">
        <ele>1385.9</ele>
        <time>2018-11-26T04:37:43Z</time>
      </trkpt>
      <trkpt lat="42.42153" lon="2.71573">
        <ele>1385.5</ele>
        <time>2018-11-26T04:37:43Z</time>
      </trkpt>
      <trkpt lat="42.42153" lon="2.71573">
        <ele>1385.1</ele>
        <time>2018-11-26T04:37:43Z</time>
      </trkpt>
      <trkpt lat="42.42153" lon="2.71573">
        <ele>1385.1</ele>
        <time>2018-11-26T04:37:43Z</time>
      </trkpt>
      <trkpt lat="42.42153" lon="2.71573">
        <ele>1385.1</ele>
        <time>2018-11-26T04:37:43Z</time>
      </trkpt>
      <trkpt lat="42.42153" lon="2.71574">
        <ele>1385.3</ele>
        <time>2018-11-26T04:37:43Z</time>
      </trkpt>
      <trkpt lat="42.42153" lon="2.71574">
        <ele>1385.2</ele>
        <time>2018-11-26T04:37:43Z</time>
      </trkpt>
      <trkpt lat="42.42153" lon="2.71574">
        <ele>1385.2</ele>
        <time>2018-11-26T04:37:44Z</time>
      </trkpt>
      <trkpt lat="42.42153" lon="2.71574">
        <ele>1385.2</ele>
        <time>2018-11-26T04:37:44Z</time>
      </trkpt>
      <trkpt lat="42.42153" lon="2.71574">
        <ele>1385</ele>
        <time>2018-11-26T04:37:44Z</time>
      </trkpt>
      <trkpt lat="42.42153" lon="2.71574">
        <ele>1385</ele>
        <time>2018-11-26T04:37:44Z</time>
      </trkpt>
      <trkpt lat="42.42153" lon="2.71574">
        <ele>1385</ele>
        <time>2018-11-26T04:37:44Z</time>
      </trkpt>
      <trkpt lat="42.42153" lon="2.71574">
        <ele>1384.8</ele>
        <time>2018-11-26T04:37:44Z</time>
      </trkpt>
      <trkpt lat="42.42152" lon="2.71574">
        <ele>1384.9</ele>
        <time>2018-11-26T04:37:44Z</time>
      </trkpt>
      <trkpt lat="42.42152" lon="2.71574">
        <ele>1385</ele>
        <time>2018-11-26T04:37:44Z</time>
      </trkpt>
      <trkpt lat="42.42152" lon="2.71574">
        <ele>1385</ele>
        <time>2018-11-26T04:37:44Z</time>
      </trkpt>
      <trkpt lat="42.42152" lon="2.71574">
        <ele>1384.9</ele>
        <time>2018-11-26T04:37:44Z</time>
      </trkpt>
      <trkpt lat="42.42152" lon="2.71574">
        <ele>1384.9</ele>
        <time>2018-11-26T04:37:44Z</time>
      </trkpt>
      <trkpt lat="42.42152" lon="2.71574">
        <ele>1385</ele>
        <time>2018-11-26T04:37:44Z</time>
      </trkpt>
      <trkpt lat="42.42152" lon="2.71574">
        <ele>1385.1</ele>
        <time>2018-11-26T04:37:44Z</time>
      </trkpt>
      <trkpt lat="42.42152" lon="2.71574">
        <ele>1385.2</ele>
        <time>2018-11-26T04:37:44Z</time>
      </trkpt>
      <trkpt lat="42.42152" lon="2.71574">
        <ele>1385.3</ele>
        <time>2018-11-26T04:37:44Z</time>
      </trkpt>
      <trkpt lat="42.42152" lon="2.71574">
        <ele>1385</ele>
        <time>2018-11-26T04:37:44Z</time>
      </trkpt>
      <trkpt lat="42.42152" lon="2.71574">
        <ele>1384.8</ele>
        <time>2018-11-26T04:37:44Z</time>
      </trkpt>
      <trkpt lat="42.42152" lon="2.71575">
        <ele>1384.5</ele>
        <time>2018-11-26T04:37:44Z</time>
      </trkpt>
      <trkpt lat="42.42152" lon="2.71575">
        <ele>1384.1</ele>
        <time>2018-11-26T04:37:44Z</time>
      </trkpt>
      <trkpt lat="42.42152" lon="2.71575">
        <ele>1384.2</ele>
        <time>2018-11-26T04:37:44Z</time>
      </trkpt>
      <trkpt lat="42.42152" lon="2.71575">
        <ele>1384.2</ele>
        <time>2018-11-26T04:37:44Z</time>
      </trkpt>
      <trkpt lat="42.42152" lon="2.71575">
        <ele>1384.1</ele>
        <time>2018-11-26T04:37:44Z</time>
      </trkpt>
      <trkpt lat="42.42152" lon="2.71575">
        <ele>1384.4</ele>
        <time>2018-11-26T04:37:44Z</time>
      </trkpt>
      <trkpt lat="42.42152" lon="2.71575">
        <ele>1384.6</ele>
        <time>2018-11-26T04:37:44Z</time>
      </trkpt>
      <trkpt lat="42.42152" lon="2.71575">
        <ele>1384.9</ele>
        <time>2018-11-26T04:37:44Z</time>
      </trkpt>
      <trkpt lat="42.42152" lon="2.71575">
        <ele>1385.2</ele>
        <time>2018-11-26T04:37:44Z</time>
      </trkpt>
      <trkpt lat="42.42152" lon="2.71575">
        <ele>1385.6</ele>
        <time>2018-11-26T04:37:44Z</time>
      </trkpt>
      <trkpt lat="42.42152" lon="2.71575">
        <ele>1386.2</ele>
        <time>2018-11-26T04:37:44Z</time>
      </trkpt>
      <trkpt lat="42.42152" lon="2.71575">
        <ele>1386.1</ele>
        <time>2018-11-26T04:37:45Z</time>
      </trkpt>
      <trkpt lat="42.42152" lon="2.71576">
        <ele>1385.8</ele>
        <time>2018-11-26T04:37:45Z</time>
      </trkpt>
      <trkpt lat="42.42152" lon="2.71576">
        <ele>1385.6</ele>
        <time>2018-11-26T04:37:45Z</time>
      </trkpt>
      <trkpt lat="42.42152" lon="2.71576">
        <ele>1385.5</ele>
        <time>2018-11-26T04:37:45Z</time>
      </trkpt>
      <trkpt lat="42.42152" lon="2.71576">
        <ele>1385.3</ele>
        <time>2018-11-26T04:37:45Z</time>
      </trkpt>
      <trkpt lat="42.42152" lon="2.71576">
        <ele>1385.1</ele>
        <time>2018-11-26T04:37:45Z</time>
      </trkpt>
      <trkpt lat="42.42152" lon="2.71576">
        <ele>1384.8</ele>
        <time>2018-11-26T04:37:45Z</time>
      </trkpt>
      <trkpt lat="42.42152" lon="2.71577">
        <ele>1384.7</ele>
        <time>2018-11-26T04:37:45Z</time>
      </trkpt>
      <trkpt lat="42.42152" lon="2.71577">
        <ele>1384.6</ele>
        <time>2018-11-26T04:37:45Z</time>
      </trkpt>
      <trkpt lat="42.42152" lon="2.71577">
        <ele>1384.6</ele>
        <time>2018-11-26T04:37:45Z</time>
      </trkpt>
      <trkpt lat="42.42152" lon="2.71577">
        <ele>1384.7</ele>
        <time>2018-11-26T04:37:45Z</time>
      </trkpt>
      <trkpt lat="42.42152" lon="2.71577">
        <ele>1385</ele>
        <time>2018-11-26T04:37:45Z</time>
      </trkpt>
      <trkpt lat="42.42152" lon="2.71578">
        <ele>1385.3</ele>
        <time>2018-11-26T04:37:45Z</time>
      </trkpt>
      <trkpt lat="42.42152" lon="2.71578">
        <ele>1385.3</ele>
        <time>2018-11-26T04:37:45Z</time>
      </trkpt>
      <trkpt lat="42.42152" lon="2.71578">
        <ele>1385.5</ele>
        <time>2018-11-26T04:37:45Z</time>
      </trkpt>
      <trkpt lat="42.42152" lon="2.71578">
        <ele>1385.6</ele>
        <time>2018-11-26T04:37:45Z</time>
      </trkpt>
      <trkpt lat="42.42153" lon="2.71578">
        <ele>1385.7</ele>
        <time>2018-11-26T04:37:46Z</time>
      </trkpt>
      <trkpt lat="42.42153" lon="2.71579">
        <ele>1385.4</ele>
        <time>2018-11-26T04:37:46Z</time>
      </trkpt>
      <trkpt lat="42.42153" lon="2.71579">
        <ele>1385.3</ele>
        <time>2018-11-26T04:37:46Z</time>
      </trkpt>
      <trkpt lat="42.42153" lon="2.71579">
        <ele>1385.3</ele>
        <time>2018-11-26T04:37:46Z</time>
      </trkpt>
      <trkpt lat="42.42153" lon="2.71579">
        <ele>1385</ele>
        <time>2018-11-26T04:37:46Z</time>
      </trkpt>
      <trkpt lat="42.42153" lon="2.7158">
        <ele>1384.8</ele>
        <time>2018-11-26T04:37:46Z</time>
      </trkpt>
      <trkpt lat="42.42153" lon="2.7158">
        <ele>1385</ele>
        <time>2018-11-26T04:37:46Z</time>
      </trkpt>
      <trkpt lat="42.42153" lon="2.7158">
        <ele>1385.2</ele>
        <time>2018-11-26T04:37:46Z</time>
      </trkpt>
      <trkpt lat="42.42153" lon="2.7158">
        <ele>1385.7</ele>
        <time>2018-11-26T04:37:46Z</time>
      </trkpt>
      <trkpt lat="42.42153" lon="2.71581">
        <ele>1386.2</ele>
        <time>2018-11-26T04:37:46Z</time>
      </trkpt>
      <trkpt lat="42.42153" lon="2.71581">
        <ele>1386.1</ele>
        <time>2018-11-26T04:37:46Z</time>
      </trkpt>
      <trkpt lat="42.42153" lon="2.71581">
        <ele>1386.1</ele>
        <time>2018-11-26T04:37:47Z</time>
      </trkpt>
      <trkpt lat="42.42153" lon="2.71582">
        <ele>1386.1</ele>
        <time>2018-11-26T04:37:47Z</time>
      </trkpt>
      <trkpt lat="42.42153" lon="2.71582">
        <ele>1386</ele>
        <time>2018-11-26T04:37:47Z</time>
      </trkpt>
      <trkpt lat="42.42153" lon="2.71582">
        <ele>1386</ele>
        <time>2018-11-26T04:37:47Z</time>
      </trkpt>
      <trkpt lat="42.42153" lon="2.71582">
        <ele>1385.8</ele>
        <time>2018-11-26T04:37:47Z</time>
      </trkpt>
      <trkpt lat="42.42154" lon="2.71583">
        <ele>1385.6</ele>
        <time>2018-11-26T04:37:47Z</time>
      </trkpt>
      <trkpt lat="42.42154" lon="2.71583">
        <ele>1385.4</ele>
        <time>2018-11-26T04:37:47Z</time>
      </trkpt>
      <trkpt lat="42.42154" lon="2.71583">
        <ele>1385.3</ele>
        <time>2018-11-26T04:37:47Z</time>
      </trkpt>
      <trkpt lat="42.42154" lon="2.71583">
        <ele>1385.2</ele>
        <time>2018-11-26T04:37:47Z</time>
      </trkpt>
      <trkpt lat="42.42154" lon="2.71584">
        <ele>1385.1</ele>
        <time>2018-11-26T04:37:47Z</time>
      </trkpt>
      <trkpt lat="42.42154" lon="2.71584">
        <ele>1384.7</ele>
        <time>2018-11-26T04:37:48Z</time>
      </trkpt>
      <trkpt lat="42.42154" lon="2.71584">
        <ele>1385</ele>
        <time>2018-11-26T04:37:48Z</time>
      </trkpt>
      <trkpt lat="42.42154" lon="2.71584">
        <ele>1385.3</ele>
        <time>2018-11-26T04:37:48Z</time>
      </trkpt>
      <trkpt lat="42.42154" lon="2.71585">
        <ele>1385.7</ele>
        <time>2018-11-26T04:37:48Z</time>
      </trkpt>
      <trkpt lat="42.42154" lon="2.71585">
        <ele>1386.2</ele>
        <time>2018-11-26T04:37:48Z</time>
      </trkpt>
      <trkpt lat="42.42155" lon="2.71585">
        <ele>1386</ele>
        <time>2018-11-26T04:37:48Z</time>
      </trkpt>
      <trkpt lat="42.42155" lon="2.71585">
        <ele>1385.5</ele>
        <time>2018-11-26T04:37:48Z</time>
      </trkpt>
      <trkpt lat="42.42155" lon="2.71585">
        <ele>1385.1</ele>
        <time>2018-11-26T04:37:48Z</time>
      </trkpt>
      <trkpt lat="42.42155" lon="2.71585">
        <ele>1385</ele>
        <time>2018-11-26T04:37:48Z</time>
      </trkpt>
      <trkpt lat="42.42155" lon="2.71585">
        <ele>1384.9</ele>
        <time>2018-11-26T04:37:48Z</time>
      </trkpt>
      <trkpt lat="42.42155" lon="2.71586">
        <ele>1384.8</ele>
        <time>2018-11-26T04:37:48Z</time>
      </trkpt>
      <trkpt lat="42.42155" lon="2.71586">
        <ele>1384.9</ele>
        <time>2018-11-26T04:37:48Z</time>
      </trkpt>
      <trkpt lat="42.42155" lon="2.71586">
        <ele>1385.1</ele>
        <time>2018-11-26T04:37:48Z</time>
      </trkpt>
      <trkpt lat="42.42155" lon="2.71586">
        <ele>1385.3</ele>
        <time>2018-11-26T04:37:48Z</time>
      </trkpt>
      <trkpt lat="42.42156" lon="2.71587">
        <ele>1385.2</ele>
        <time>2018-11-26T04:37:49Z</time>
      </trkpt>
      <trkpt lat="42.42156" lon="2.71587">
        <ele>1385.2</ele>
        <time>2018-11-26T04:37:49Z</time>
      </trkpt>
      <trkpt lat="42.42156" lon="2.71587">
        <ele>1385.2</ele>
        <time>2018-11-26T04:37:49Z</time>
      </trkpt>
      <trkpt lat="42.42156" lon="2.71588">
        <ele>1385.1</ele>
        <time>2018-11-26T04:37:49Z</time>
      </trkpt>
      <trkpt lat="42.42156" lon="2.71588">
        <ele>1385.1</ele>
        <time>2018-11-26T04:37:49Z</time>
      </trkpt>
      <trkpt lat="42.42156" lon="2.71588">
        <ele>1384.9</ele>
        <time>2018-11-26T04:37:49Z</time>
      </trkpt>
      <trkpt lat="42.42156" lon="2.71588">
        <ele>1384.9</ele>
        <time>2018-11-26T04:37:49Z</time>
      </trkpt>
      <trkpt lat="42.42156" lon="2.71589">
        <ele>1385.1</ele>
        <time>2018-11-26T04:37:49Z</time>
      </trkpt>
      <trkpt lat="42.42156" lon="2.71589">
        <ele>1385.4</ele>
        <time>2018-11-26T04:37:49Z</time>
      </trkpt>
      <trkpt lat="42.42156" lon="2.71589">
        <ele>1386</ele>
        <time>2018-11-26T04:37:49Z</time>
      </trkpt>
      <trkpt lat="42.42156" lon="2.71589">
        <ele>1385.6</ele>
        <time>2018-11-26T04:37:49Z</time>
      </trkpt>
      <trkpt lat="42.42156" lon="2.7159">
        <ele>1385.3</ele>
        <time>2018-11-26T04:37:50Z</time>
      </trkpt>
      <trkpt lat="42.42156" lon="2.7159">
        <ele>1384.7</ele>
        <time>2018-11-26T04:37:50Z</time>
      </trkpt>
      <trkpt lat="42.42156" lon="2.7159">
        <ele>1384.6</ele>
        <time>2018-11-26T04:37:50Z</time>
      </trkpt>
      <trkpt lat="42.42157" lon="2.71591">
        <ele>1384.4</ele>
        <time>2018-11-26T04:37:50Z</time>
      </trkpt>
      <trkpt lat="42.42157" lon="2.71591">
        <ele>1384.1</ele>
        <time>2018-11-26T04:37:50Z</time>
      </trkpt>
      <trkpt lat="42.42157" lon="2.71591">
        <ele>1384.2</ele>
        <time>2018-11-26T04:37:50Z</time>
      </trkpt>
      <trkpt lat="42.42157" lon="2.71592">
        <ele>1384.4</ele>
        <time>2018-11-26T04:37:50Z</time>
      </trkpt>
      <trkpt lat="42.42158" lon="2.71593">
        <ele>1384.5</ele>
        <time>2018-11-26T04:37:51Z</time>
      </trkpt>
      <trkpt lat="42.42159" lon="2.71595">
        <ele>1384.5</ele>
        <time>2018-11-26T04:37:51Z</time>
      </trkpt>
      <trkpt lat="42.42159" lon="2.71596">
        <ele>1384.4</ele>
        <time>2018-11-26T04:37:52Z</time>
      </trkpt>
      <trkpt lat="42.42159" lon="2.71596">
        <ele>1384.6</ele>
        <time>2018-11-26T04:37:52Z</time>
      </trkpt>
      <trkpt lat="42.42159" lon="2.71596">
        <ele>1384.7</ele>
        <time>2018-11-26T04:37:52Z</time>
      </trkpt>
      <trkpt lat="42.42159" lon="2.71597">
        <ele>1385</ele>
        <time>2018-11-26T04:37:52Z</time>
      </trkpt>
      <trkpt lat="42.42159" lon="2.71597">
        <ele>1384.8</ele>
        <time>2018-11-26T04:37:52Z</time>
      </trkpt>
      <trkpt lat="42.42159" lon="2.71597">
        <ele>1384.5</ele>
        <time>2018-11-26T04:37:52Z</time>
      </trkpt>
      <trkpt lat="42.42159" lon="2.71598">
        <ele>1384</ele>
        <time>2018-11-26T04:37:52Z</time>
      </trkpt>
      <trkpt lat="42.4216" lon="2.71598">
        <ele>1383.7</ele>
        <time>2018-11-26T04:37:53Z</time>
      </trkpt>
      <trkpt lat="42.42161" lon="2.716">
        <ele>1383.1</ele>
        <time>2018-11-26T04:37:53Z</time>
      </trkpt>
      <trkpt lat="42.42161" lon="2.71601">
        <ele>1383.1</ele>
        <time>2018-11-26T04:37:53Z</time>
      </trkpt>
      <trkpt lat="42.42161" lon="2.71601">
        <ele>1383.1</ele>
        <time>2018-11-26T04:37:54Z</time>
      </trkpt>
      <trkpt lat="42.42162" lon="2.71602">
        <ele>1383.1</ele>
        <time>2018-11-26T04:37:54Z</time>
      </trkpt>
      <trkpt lat="42.42162" lon="2.71602">
        <ele>1383.3</ele>
        <time>2018-11-26T04:37:54Z</time>
      </trkpt>
      <trkpt lat="42.42163" lon="2.71603">
        <ele>1383.3</ele>
        <time>2018-11-26T04:37:55Z</time>
      </trkpt>
      <trkpt lat="42.42163" lon="2.71604">
        <ele>1383.6</ele>
        <time>2018-11-26T04:37:55Z</time>
      </trkpt>
      <trkpt lat="42.42163" lon="2.71605">
        <ele>1383.8</ele>
        <time>2018-11-26T04:37:55Z</time>
      </trkpt>
      <trkpt lat="42.42163" lon="2.71607">
        <ele>1383.1</ele>
        <time>2018-11-26T04:37:56Z</time>
      </trkpt>
      <trkpt lat="42.42164" lon="2.71607">
        <ele>1382.7</ele>
        <time>2018-11-26T04:37:56Z</time>
      </trkpt>
      <trkpt lat="42.42164" lon="2.71608">
        <ele>1382.6</ele>
        <time>2018-11-26T04:37:56Z</time>
      </trkpt>
      <trkpt lat="42.42165" lon="2.71609">
        <ele>1382.6</ele>
        <time>2018-11-26T04:37:56Z</time>
      </trkpt>
      <trkpt lat="42.42165" lon="2.7161">
        <ele>1382.4</ele>
        <time>2018-11-26T04:37:57Z</time>
      </trkpt>
      <trkpt lat="42.42165" lon="2.71611">
        <ele>1382.5</ele>
        <time>2018-11-26T04:37:57Z</time>
      </trkpt>
      <trkpt lat="42.42166" lon="2.71614">
        <ele>1383</ele>
        <time>2018-11-26T04:37:58Z</time>
      </trkpt>
      <trkpt lat="42.42166" lon="2.71616">
        <ele>1383.2</ele>
        <time>2018-11-26T04:37:59Z</time>
      </trkpt>
      <trkpt lat="42.42167" lon="2.71618">
        <ele>1384</ele>
        <time>2018-11-26T04:37:59Z</time>
      </trkpt>
      <trkpt lat="42.42167" lon="2.71619">
        <ele>1384.5</ele>
        <time>2018-11-26T04:38:00Z</time>
      </trkpt>
      <trkpt lat="42.42167" lon="2.71621">
        <ele>1385.1</ele>
        <time>2018-11-26T04:38:00Z</time>
      </trkpt>
      <trkpt lat="42.42167" lon="2.71622">
        <ele>1385.3</ele>
        <time>2018-11-26T04:38:01Z</time>
      </trkpt>
      <trkpt lat="42.42168" lon="2.71625">
        <ele>1386</ele>
        <time>2018-11-26T04:38:01Z</time>
      </trkpt>
      <trkpt lat="42.4217" lon="2.71637">
        <ele>1388</ele>
        <time>2018-11-26T04:38:05Z</time>
      </trkpt>
      <trkpt lat="42.4217" lon="2.71638">
        <ele>1388</ele>
        <time>2018-11-26T04:38:05Z</time>
      </trkpt>
      <trkpt lat="42.4217" lon="2.71639">
        <ele>1387.8</ele>
        <time>2018-11-26T04:38:06Z</time>
      </trkpt>
      <trkpt lat="42.42171" lon="2.7164">
        <ele>1387.7</ele>
        <time>2018-11-26T04:38:06Z</time>
      </trkpt>
      <trkpt lat="42.42172" lon="2.71642">
        <ele>1387.5</ele>
        <time>2018-11-26T04:38:07Z</time>
      </trkpt>
      <trkpt lat="42.42172" lon="2.71644">
        <ele>1387.4</ele>
        <time>2018-11-26T04:38:07Z</time>
      </trkpt>
      <trkpt lat="42.42173" lon="2.71645">
        <ele>1387.4</ele>
        <time>2018-11-26T04:38:08Z</time>
      </trkpt>
      <trkpt lat="42.42173" lon="2.71646">
        <ele>1387.1</ele>
        <time>2018-11-26T04:38:08Z</time>
      </trkpt>
      <trkpt lat="42.42174" lon="2.71647">
        <ele>1386.8</ele>
        <time>2018-11-26T04:38:08Z</time>
      </trkpt>
      <trkpt lat="42.42176" lon="2.71652">
        <ele>1388.1</ele>
        <time>2018-11-26T04:38:10Z</time>
      </trkpt>
      <trkpt lat="42.42176" lon="2.71654">
        <ele>1388.6</ele>
        <time>2018-11-26T04:38:11Z</time>
      </trkpt>
      <trkpt lat="42.42177" lon="2.71656">
        <ele>1388.4</ele>
        <time>2018-11-26T04:38:11Z</time>
      </trkpt>
      <trkpt lat="42.42177" lon="2.71657">
        <ele>1388.4</ele>
        <time>2018-11-26T04:38:12Z</time>
      </trkpt>
      <trkpt lat="42.42177" lon="2.71658">
        <ele>1388.6</ele>
        <time>2018-11-26T04:38:12Z</time>
      </trkpt>
      <trkpt lat="42.42177" lon="2.71661">
        <ele>1389.3</ele>
        <time>2018-11-26T04:38:13Z</time>
      </trkpt>
      <trkpt lat="42.42177" lon="2.71663">
        <ele>1390</ele>
        <time>2018-11-26T04:38:14Z</time>
      </trkpt>
      <trkpt lat="42.42177" lon="2.71665">
        <ele>1390.3</ele>
        <time>2018-11-26T04:38:14Z</time>
      </trkpt>
      <trkpt lat="42.42177" lon="2.71666">
        <ele>1390.6</ele>
        <time>2018-11-26T04:38:14Z</time>
      </trkpt>
      <trkpt lat="42.42177" lon="2.71667">
        <ele>1391</ele>
        <time>2018-11-26T04:38:15Z</time>
      </trkpt>
      <trkpt lat="42.42177" lon="2.71668">
        <ele>1391.5</ele>
        <time>2018-11-26T04:38:15Z</time>
      </trkpt>
      <trkpt lat="42.42177" lon="2.71669">
        <ele>1392.2</ele>
        <time>2018-11-26T04:38:15Z</time>
      </trkpt>
      <trkpt lat="42.42177" lon="2.7167">
        <ele>1392.4</ele>
        <time>2018-11-26T04:38:16Z</time>
      </trkpt>
      <trkpt lat="42.42177" lon="2.71671">
        <ele>1392.6</ele>
        <time>2018-11-26T04:38:16Z</time>
      </trkpt>
      <trkpt lat="42.42177" lon="2.71673">
        <ele>1392.7</ele>
        <time>2018-11-26T04:38:16Z</time>
      </trkpt>
      <trkpt lat="42.42177" lon="2.71673">
        <ele>1392.5</ele>
        <time>2018-11-26T04:38:16Z</time>
      </trkpt>
      <trkpt lat="42.42177" lon="2.71674">
        <ele>1392.3</ele>
        <time>2018-11-26T04:38:17Z</time>
      </trkpt>
      <trkpt lat="42.42177" lon="2.71675">
        <ele>1392.3</ele>
        <time>2018-11-26T04:38:17Z</time>
      </trkpt>
      <trkpt lat="42.42177" lon="2.71676">
        <ele>1392.4</ele>
        <time>2018-11-26T04:38:17Z</time>
      </trkpt>
      <trkpt lat="42.42177" lon="2.71677">
        <ele>1392.6</ele>
        <time>2018-11-26T04:38:18Z</time>
      </trkpt>
      <trkpt lat="42.42178" lon="2.71679">
        <ele>1392.8</ele>
        <time>2018-11-26T04:38:18Z</time>
      </trkpt>
      <trkpt lat="42.42178" lon="2.7168">
        <ele>1392.8</ele>
        <time>2018-11-26T04:38:19Z</time>
      </trkpt>
      <trkpt lat="42.42178" lon="2.71681">
        <ele>1392.9</ele>
        <time>2018-11-26T04:38:19Z</time>
      </trkpt>
      <trkpt lat="42.42178" lon="2.71682">
        <ele>1393.1</ele>
        <time>2018-11-26T04:38:19Z</time>
      </trkpt>
      <trkpt lat="42.42178" lon="2.71682">
        <ele>1393.2</ele>
        <time>2018-11-26T04:38:19Z</time>
      </trkpt>
      <trkpt lat="42.42179" lon="2.71683">
        <ele>1393.4</ele>
        <time>2018-11-26T04:38:20Z</time>
      </trkpt>
      <trkpt lat="42.42179" lon="2.71684">
        <ele>1393.5</ele>
        <time>2018-11-26T04:38:20Z</time>
      </trkpt>
      <trkpt lat="42.42179" lon="2.71687">
        <ele>1393.7</ele>
        <time>2018-11-26T04:38:21Z</time>
      </trkpt>
      <trkpt lat="42.42179" lon="2.71688">
        <ele>1393.5</ele>
        <time>2018-11-26T04:38:21Z</time>
      </trkpt>
      <trkpt lat="42.42179" lon="2.71689">
        <ele>1393.4</ele>
        <time>2018-11-26T04:38:21Z</time>
      </trkpt>
      <trkpt lat="42.42179" lon="2.7169">
        <ele>1393.4</ele>
        <time>2018-11-26T04:38:22Z</time>
      </trkpt>
      <trkpt lat="42.4218" lon="2.71691">
        <ele>1393.4</ele>
        <time>2018-11-26T04:38:22Z</time>
      </trkpt>
      <trkpt lat="42.4218" lon="2.71692">
        <ele>1393.7</ele>
        <time>2018-11-26T04:38:22Z</time>
      </trkpt>
      <trkpt lat="42.4218" lon="2.71693">
        <ele>1393.9</ele>
        <time>2018-11-26T04:38:23Z</time>
      </trkpt>
      <trkpt lat="42.4218" lon="2.71693">
        <ele>1394</ele>
        <time>2018-11-26T04:38:23Z</time>
      </trkpt>
      <trkpt lat="42.4218" lon="2.71694">
        <ele>1393.9</ele>
        <time>2018-11-26T04:38:23Z</time>
      </trkpt>
      <trkpt lat="42.4218" lon="2.71694">
        <ele>1393.9</ele>
        <time>2018-11-26T04:38:23Z</time>
      </trkpt>
      <trkpt lat="42.4218" lon="2.71694">
        <ele>1393.9</ele>
        <time>2018-11-26T04:38:23Z</time>
      </trkpt>
      <trkpt lat="42.4218" lon="2.71695">
        <ele>1393.9</ele>
        <time>2018-11-26T04:38:23Z</time>
      </trkpt>
      <trkpt lat="42.4218" lon="2.71696">
        <ele>1393.8</ele>
        <time>2018-11-26T04:38:24Z</time>
      </trkpt>
      <trkpt lat="42.42181" lon="2.71697">
        <ele>1393.8</ele>
        <time>2018-11-26T04:38:24Z</time>
      </trkpt>
      <trkpt lat="42.42181" lon="2.71697">
        <ele>1393.6</ele>
        <time>2018-11-26T04:38:24Z</time>
      </trkpt>
      <trkpt lat="42.42182" lon="2.71709">
        <ele>1395.3</ele>
        <time>2018-11-26T04:38:27Z</time>
      </trkpt>
      <trkpt lat="42.42182" lon="2.71709">
        <ele>1395.3</ele>
        <time>2018-11-26T04:38:28Z</time>
      </trkpt>
      <trkpt lat="42.42182" lon="2.71711">
        <ele>1395.3</ele>
        <time>2018-11-26T04:38:28Z</time>
      </trkpt>
      <trkpt lat="42.42183" lon="2.71712">
        <ele>1395</ele>
        <time>2018-11-26T04:38:29Z</time>
      </trkpt>
      <trkpt lat="42.42183" lon="2.71713">
        <ele>1394.9</ele>
        <time>2018-11-26T04:38:29Z</time>
      </trkpt>
      <trkpt lat="42.42183" lon="2.71714">
        <ele>1394.7</ele>
        <time>2018-11-26T04:38:29Z</time>
      </trkpt>
      <trkpt lat="42.42183" lon="2.71715">
        <ele>1394.9</ele>
        <time>2018-11-26T04:38:29Z</time>
      </trkpt>
      <trkpt lat="42.42183" lon="2.71716">
        <ele>1395.2</ele>
        <time>2018-11-26T04:38:30Z</time>
      </trkpt>
      <trkpt lat="42.42182" lon="2.71718">
        <ele>1395.7</ele>
        <time>2018-11-26T04:38:30Z</time>
      </trkpt>
      <trkpt lat="42.42183" lon="2.71718">
        <ele>1395.5</ele>
        <time>2018-11-26T04:38:30Z</time>
      </trkpt>
      <trkpt lat="42.42182" lon="2.71719">
        <ele>1395.5</ele>
        <time>2018-11-26T04:38:31Z</time>
      </trkpt>
      <trkpt lat="42.42182" lon="2.71719">
        <ele>1395.6</ele>
        <time>2018-11-26T04:38:31Z</time>
      </trkpt>
      <trkpt lat="42.42182" lon="2.7172">
        <ele>1395.8</ele>
        <time>2018-11-26T04:38:31Z</time>
      </trkpt>
      <trkpt lat="42.42181" lon="2.71725">
        <ele>1397.4</ele>
        <time>2018-11-26T04:38:32Z</time>
      </trkpt>
      <trkpt lat="42.42181" lon="2.71726">
        <ele>1397.6</ele>
        <time>2018-11-26T04:38:33Z</time>
      </trkpt>
      <trkpt lat="42.42181" lon="2.71727">
        <ele>1397.5</ele>
        <time>2018-11-26T04:38:33Z</time>
      </trkpt>
      <trkpt lat="42.42182" lon="2.71727">
        <ele>1397.4</ele>
        <time>2018-11-26T04:38:33Z</time>
      </trkpt>
      <trkpt lat="42.42182" lon="2.71729">
        <ele>1396.9</ele>
        <time>2018-11-26T04:38:34Z</time>
      </trkpt>
      <trkpt lat="42.42182" lon="2.7173">
        <ele>1397.4</ele>
        <time>2018-11-26T04:38:34Z</time>
      </trkpt>
      <trkpt lat="42.42182" lon="2.7173">
        <ele>1398.6</ele>
        <time>2018-11-26T04:38:34Z</time>
      </trkpt>
      <trkpt lat="42.42182" lon="2.71732">
        <ele>1398.7</ele>
        <time>2018-11-26T04:38:35Z</time>
      </trkpt>
      <trkpt lat="42.42183" lon="2.71733">
        <ele>1398.7</ele>
        <time>2018-11-26T04:38:35Z</time>
      </trkpt>
      <trkpt lat="42.42183" lon="2.71733">
        <ele>1398.6</ele>
        <time>2018-11-26T04:38:35Z</time>
      </trkpt>
      <trkpt lat="42.42183" lon="2.71734">
        <ele>1398.7</ele>
        <time>2018-11-26T04:38:35Z</time>
      </trkpt>
      <trkpt lat="42.42183" lon="2.71736">
        <ele>1398.6</ele>
        <time>2018-11-26T04:38:36Z</time>
      </trkpt>
      <trkpt lat="42.42183" lon="2.71737">
        <ele>1398.2</ele>
        <time>2018-11-26T04:38:36Z</time>
      </trkpt>
      <trkpt lat="42.42183" lon="2.71737">
        <ele>1397.8</ele>
        <time>2018-11-26T04:38:36Z</time>
      </trkpt>
      <trkpt lat="42.42183" lon="2.71737">
        <ele>1397.3</ele>
        <time>2018-11-26T04:38:36Z</time>
      </trkpt>
      <trkpt lat="42.42183" lon="2.71738">
        <ele>1396.6</ele>
        <time>2018-11-26T04:38:36Z</time>
      </trkpt>
      <trkpt lat="42.42183" lon="2.71738">
        <ele>1396.7</ele>
        <time>2018-11-26T04:38:37Z</time>
      </trkpt>
      <trkpt lat="42.42183" lon="2.71738">
        <ele>1396.8</ele>
        <time>2018-11-26T04:38:37Z</time>
      </trkpt>
      <trkpt lat="42.42183" lon="2.71739">
        <ele>1397.1</ele>
        <time>2018-11-26T04:38:37Z</time>
      </trkpt>
      <trkpt lat="42.42184" lon="2.71739">
        <ele>1396.9</ele>
        <time>2018-11-26T04:38:37Z</time>
      </trkpt>
      <trkpt lat="42.42184" lon="2.7174">
        <ele>1396.7</ele>
        <time>2018-11-26T04:38:37Z</time>
      </trkpt>
      <trkpt lat="42.42184" lon="2.7174">
        <ele>1396.6</ele>
        <time>2018-11-26T04:38:37Z</time>
      </trkpt>
      <trkpt lat="42.42185" lon="2.7174">
        <ele>1396.4</ele>
        <time>2018-11-26T04:38:38Z</time>
      </trkpt>
      <trkpt lat="42.42185" lon="2.71741">
        <ele>1396</ele>
        <time>2018-11-26T04:38:38Z</time>
      </trkpt>
      <trkpt lat="42.42185" lon="2.71741">
        <ele>1395.6</ele>
        <time>2018-11-26T04:38:38Z</time>
      </trkpt>
      <trkpt lat="42.42185" lon="2.71741">
        <ele>1395.6</ele>
        <time>2018-11-26T04:38:38Z</time>
      </trkpt>
      <trkpt lat="42.42185" lon="2.71741">
        <ele>1395.6</ele>
        <time>2018-11-26T04:38:38Z</time>
      </trkpt>
      <trkpt lat="42.42186" lon="2.71741">
        <ele>1395.7</ele>
        <time>2018-11-26T04:38:38Z</time>
      </trkpt>
      <trkpt lat="42.42187" lon="2.71741">
        <ele>1395.3</ele>
        <time>2018-11-26T04:38:39Z</time>
      </trkpt>
      <trkpt lat="42.42188" lon="2.71742">
        <ele>1395.1</ele>
        <time>2018-11-26T04:38:39Z</time>
      </trkpt>
      <trkpt lat="42.42188" lon="2.71742">
        <ele>1395.1</ele>
        <time>2018-11-26T04:38:39Z</time>
      </trkpt>
      <trkpt lat="42.42188" lon="2.71742">
        <ele>1395</ele>
        <time>2018-11-26T04:38:39Z</time>
      </trkpt>
      <trkpt lat="42.42188" lon="2.71742">
        <ele>1394.6</ele>
        <time>2018-11-26T04:38:39Z</time>
      </trkpt>
      <trkpt lat="42.42188" lon="2.71743">
        <ele>1394.4</ele>
        <time>2018-11-26T04:38:39Z</time>
      </trkpt>
      <trkpt lat="42.42189" lon="2.71743">
        <ele>1394</ele>
        <time>2018-11-26T04:38:40Z</time>
      </trkpt>
      <trkpt lat="42.4219" lon="2.71744">
        <ele>1393.6</ele>
        <time>2018-11-26T04:38:40Z</time>
      </trkpt>
      <trkpt lat="42.4219" lon="2.71744">
        <ele>1393.7</ele>
        <time>2018-11-26T04:38:40Z</time>
      </trkpt>
      <trkpt lat="42.42191" lon="2.71744">
        <ele>1393.9</ele>
        <time>2018-11-26T04:38:41Z</time>
      </trkpt>
      <trkpt lat="42.42191" lon="2.71745">
        <ele>1394</ele>
        <time>2018-11-26T04:38:41Z</time>
      </trkpt>
      <trkpt lat="42.42191" lon="2.71745">
        <ele>1394.1</ele>
        <time>2018-11-26T04:38:41Z</time>
      </trkpt>
      <trkpt lat="42.42191" lon="2.71746">
        <ele>1394.1</ele>
        <time>2018-11-26T04:38:41Z</time>
      </trkpt>
      <trkpt lat="42.42191" lon="2.71747">
        <ele>1394</ele>
        <time>2018-11-26T04:38:41Z</time>
      </trkpt>
      <trkpt lat="42.4219" lon="2.71747">
        <ele>1393.8</ele>
        <time>2018-11-26T04:38:42Z</time>
      </trkpt>
      <trkpt lat="42.4219" lon="2.71748">
        <ele>1393.7</ele>
        <time>2018-11-26T04:38:42Z</time>
      </trkpt>
      <trkpt lat="42.4219" lon="2.71748">
        <ele>1393.8</ele>
        <time>2018-11-26T04:38:42Z</time>
      </trkpt>
      <trkpt lat="42.42189" lon="2.71748">
        <ele>1394</ele>
        <time>2018-11-26T04:38:42Z</time>
      </trkpt>
      <trkpt lat="42.42189" lon="2.71749">
        <ele>1394</ele>
        <time>2018-11-26T04:38:42Z</time>
      </trkpt>
      <trkpt lat="42.42189" lon="2.7175">
        <ele>1394.1</ele>
        <time>2018-11-26T04:38:43Z</time>
      </trkpt>
      <trkpt lat="42.42189" lon="2.7175">
        <ele>1394.1</ele>
        <time>2018-11-26T04:38:43Z</time>
      </trkpt>
      <trkpt lat="42.4219" lon="2.71751">
        <ele>1394.2</ele>
        <time>2018-11-26T04:38:43Z</time>
      </trkpt>
      <trkpt lat="42.4219" lon="2.71751">
        <ele>1394.4</ele>
        <time>2018-11-26T04:38:43Z</time>
      </trkpt>
      <trkpt lat="42.4219" lon="2.71751">
        <ele>1394.6</ele>
        <time>2018-11-26T04:38:43Z</time>
      </trkpt>
      <trkpt lat="42.4219" lon="2.71752">
        <ele>1394.4</ele>
        <time>2018-11-26T04:38:43Z</time>
      </trkpt>
      <trkpt lat="42.4219" lon="2.71752">
        <ele>1394.1</ele>
        <time>2018-11-26T04:38:43Z</time>
      </trkpt>
      <trkpt lat="42.4219" lon="2.71752">
        <ele>1393.8</ele>
        <time>2018-11-26T04:38:43Z</time>
      </trkpt>
      <trkpt lat="42.4219" lon="2.71752">
        <ele>1393.7</ele>
        <time>2018-11-26T04:38:43Z</time>
      </trkpt>
      <trkpt lat="42.4219" lon="2.71752">
        <ele>1393.3</ele>
        <time>2018-11-26T04:38:43Z</time>
      </trkpt>
      <trkpt lat="42.42191" lon="2.71753">
        <ele>1392.9</ele>
        <time>2018-11-26T04:38:44Z</time>
      </trkpt>
      <trkpt lat="42.4219" lon="2.71753">
        <ele>1392.8</ele>
        <time>2018-11-26T04:38:44Z</time>
      </trkpt>
      <trkpt lat="42.4219" lon="2.71754">
        <ele>1392.6</ele>
        <time>2018-11-26T04:38:44Z</time>
      </trkpt>
      <trkpt lat="42.4219" lon="2.71755">
        <ele>1392.4</ele>
        <time>2018-11-26T04:38:44Z</time>
      </trkpt>
      <trkpt lat="42.4219" lon="2.71755">
        <ele>1392.1</ele>
        <time>2018-11-26T04:38:45Z</time>
      </trkpt>
      <trkpt lat="42.4219" lon="2.71756">
        <ele>1392.2</ele>
        <time>2018-11-26T04:38:45Z</time>
      </trkpt>
      <trkpt lat="42.42189" lon="2.71757">
        <ele>1392.4</ele>
        <time>2018-11-26T04:38:45Z</time>
      </trkpt>
      <trkpt lat="42.42189" lon="2.71757">
        <ele>1392.6</ele>
        <time>2018-11-26T04:38:45Z</time>
      </trkpt>
      <trkpt lat="42.42189" lon="2.71757">
        <ele>1392.6</ele>
        <time>2018-11-26T04:38:45Z</time>
      </trkpt>
      <trkpt lat="42.42189" lon="2.71758">
        <ele>1392.3</ele>
        <time>2018-11-26T04:38:45Z</time>
      </trkpt>
      <trkpt lat="42.42189" lon="2.71759">
        <ele>1392.9</ele>
        <time>2018-11-26T04:38:46Z</time>
      </trkpt>
      <trkpt lat="42.42189" lon="2.7176">
        <ele>1392.9</ele>
        <time>2018-11-26T04:38:46Z</time>
      </trkpt>
      <trkpt lat="42.42189" lon="2.7176">
        <ele>1393</ele>
        <time>2018-11-26T04:38:46Z</time>
      </trkpt>
      <trkpt lat="42.42189" lon="2.71761">
        <ele>1392.3</ele>
        <time>2018-11-26T04:38:46Z</time>
      </trkpt>
      <trkpt lat="42.42189" lon="2.71762">
        <ele>1392.2</ele>
        <time>2018-11-26T04:38:47Z</time>
      </trkpt>
      <trkpt lat="42.42189" lon="2.71762">
        <ele>1392</ele>
        <time>2018-11-26T04:38:47Z</time>
      </trkpt>
      <trkpt lat="42.4219" lon="2.71763">
        <ele>1391.6</ele>
        <time>2018-11-26T04:38:47Z</time>
      </trkpt>
      <trkpt lat="42.4219" lon="2.71763">
        <ele>1391.5</ele>
        <time>2018-11-26T04:38:47Z</time>
      </trkpt>
      <trkpt lat="42.4219" lon="2.71764">
        <ele>1391.4</ele>
        <time>2018-11-26T04:38:47Z</time>
      </trkpt>
      <trkpt lat="42.4219" lon="2.71764">
        <ele>1391.4</ele>
        <time>2018-11-26T04:38:47Z</time>
      </trkpt>
      <trkpt lat="42.4219" lon="2.71764">
        <ele>1391.4</ele>
        <time>2018-11-26T04:38:47Z</time>
      </trkpt>
      <trkpt lat="42.4219" lon="2.71765">
        <ele>1391.2</ele>
        <time>2018-11-26T04:38:48Z</time>
      </trkpt>
      <trkpt lat="42.4219" lon="2.71765">
        <ele>1391</ele>
        <time>2018-11-26T04:38:48Z</time>
      </trkpt>
      <trkpt lat="42.4219" lon="2.71766">
        <ele>1390.1</ele>
        <time>2018-11-26T04:38:48Z</time>
      </trkpt>
      <trkpt lat="42.4219" lon="2.71766">
        <ele>1390.3</ele>
        <time>2018-11-26T04:38:48Z</time>
      </trkpt>
      <trkpt lat="42.42191" lon="2.71766">
        <ele>1390.6</ele>
        <time>2018-11-26T04:38:48Z</time>
      </trkpt>
      <trkpt lat="42.42191" lon="2.71767">
        <ele>1390.9</ele>
        <time>2018-11-26T04:38:48Z</time>
      </trkpt>
      <trkpt lat="42.42191" lon="2.71767">
        <ele>1390.7</ele>
        <time>2018-11-26T04:38:48Z</time>
      </trkpt>
      <trkpt lat="42.42191" lon="2.71767">
        <ele>1390.4</ele>
        <time>2018-11-26T04:38:49Z</time>
      </trkpt>
      <trkpt lat="42.42192" lon="2.71768">
        <ele>1389.9</ele>
        <time>2018-11-26T04:38:49Z</time>
      </trkpt>
      <trkpt lat="42.42192" lon="2.71768">
        <ele>1389.9</ele>
        <time>2018-11-26T04:38:49Z</time>
      </trkpt>
      <trkpt lat="42.42192" lon="2.71769">
        <ele>1389.8</ele>
        <time>2018-11-26T04:38:49Z</time>
      </trkpt>
      <trkpt lat="42.42192" lon="2.7177">
        <ele>1389.7</ele>
        <time>2018-11-26T04:38:50Z</time>
      </trkpt>
      <trkpt lat="42.42192" lon="2.71771">
        <ele>1389.7</ele>
        <time>2018-11-26T04:38:50Z</time>
      </trkpt>
      <trkpt lat="42.42193" lon="2.71773">
        <ele>1389.1</ele>
        <time>2018-11-26T04:38:50Z</time>
      </trkpt>
      <trkpt lat="42.42193" lon="2.71774">
        <ele>1389.1</ele>
        <time>2018-11-26T04:38:51Z</time>
      </trkpt>
      <trkpt lat="42.42193" lon="2.71775">
        <ele>1388.8</ele>
        <time>2018-11-26T04:38:51Z</time>
      </trkpt>
      <trkpt lat="42.42193" lon="2.71775">
        <ele>1388.5</ele>
        <time>2018-11-26T04:38:51Z</time>
      </trkpt>
      <trkpt lat="42.42194" lon="2.71777">
        <ele>1388.2</ele>
        <time>2018-11-26T04:38:52Z</time>
      </trkpt>
      <trkpt lat="42.42194" lon="2.71779">
        <ele>1387.8</ele>
        <time>2018-11-26T04:38:52Z</time>
      </trkpt>
      <trkpt lat="42.42195" lon="2.7178">
        <ele>1387.6</ele>
        <time>2018-11-26T04:38:53Z</time>
      </trkpt>
      <trkpt lat="42.42195" lon="2.7178">
        <ele>1387.2</ele>
        <time>2018-11-26T04:38:53Z</time>
      </trkpt>
      <trkpt lat="42.42196" lon="2.71781">
        <ele>1387.3</ele>
        <time>2018-11-26T04:38:53Z</time>
      </trkpt>
      <trkpt lat="42.42197" lon="2.71782">
        <ele>1387.5</ele>
        <time>2018-11-26T04:38:54Z</time>
      </trkpt>
      <trkpt lat="42.42197" lon="2.71782">
        <ele>1387.6</ele>
        <time>2018-11-26T04:38:54Z</time>
      </trkpt>
      <trkpt lat="42.42198" lon="2.71783">
        <ele>1387.5</ele>
        <time>2018-11-26T04:38:54Z</time>
      </trkpt>
      <trkpt lat="42.42198" lon="2.71783">
        <ele>1387.1</ele>
        <time>2018-11-26T04:38:54Z</time>
      </trkpt>
      <trkpt lat="42.42199" lon="2.71784">
        <ele>1387.2</ele>
        <time>2018-11-26T04:38:55Z</time>
      </trkpt>
      <trkpt lat="42.42199" lon="2.71784">
        <ele>1387.3</ele>
        <time>2018-11-26T04:38:55Z</time>
      </trkpt>
      <trkpt lat="42.422" lon="2.71785">
        <ele>1387.3</ele>
        <time>2018-11-26T04:38:55Z</time>
      </trkpt>
      <trkpt lat="42.422" lon="2.71786">
        <ele>1387.5</ele>
        <time>2018-11-26T04:38:55Z</time>
      </trkpt>
      <trkpt lat="42.422" lon="2.71786">
        <ele>1387.3</ele>
        <time>2018-11-26T04:38:56Z</time>
      </trkpt>
      <trkpt lat="42.422" lon="2.71787">
        <ele>1387</ele>
        <time>2018-11-26T04:38:56Z</time>
      </trkpt>
      <trkpt lat="42.422" lon="2.71787">
        <ele>1386.7</ele>
        <time>2018-11-26T04:38:56Z</time>
      </trkpt>
      <trkpt lat="42.422" lon="2.71788">
        <ele>1386.4</ele>
        <time>2018-11-26T04:38:56Z</time>
      </trkpt>
      <trkpt lat="42.422" lon="2.71789">
        <ele>1386.1</ele>
        <time>2018-11-26T04:38:56Z</time>
      </trkpt>
      <trkpt lat="42.42201" lon="2.71789">
        <ele>1385.7</ele>
        <time>2018-11-26T04:38:57Z</time>
      </trkpt>
      <trkpt lat="42.42201" lon="2.7179">
        <ele>1385.5</ele>
        <time>2018-11-26T04:38:57Z</time>
      </trkpt>
      <trkpt lat="42.42201" lon="2.7179">
        <ele>1385.3</ele>
        <time>2018-11-26T04:38:57Z</time>
      </trkpt>
      <trkpt lat="42.42202" lon="2.71791">
        <ele>1385</ele>
        <time>2018-11-26T04:38:57Z</time>
      </trkpt>
      <trkpt lat="42.42202" lon="2.71791">
        <ele>1384.9</ele>
        <time>2018-11-26T04:38:57Z</time>
      </trkpt>
      <trkpt lat="42.42203" lon="2.71792">
        <ele>1385</ele>
        <time>2018-11-26T04:38:58Z</time>
      </trkpt>
      <trkpt lat="42.42203" lon="2.71792">
        <ele>1384.8</ele>
        <time>2018-11-26T04:38:58Z</time>
      </trkpt>
      <trkpt lat="42.42204" lon="2.71792">
        <ele>1384.7</ele>
        <time>2018-11-26T04:38:58Z</time>
      </trkpt>
      <trkpt lat="42.42204" lon="2.71792">
        <ele>1384.4</ele>
        <time>2018-11-26T04:38:58Z</time>
      </trkpt>
      <trkpt lat="42.42204" lon="2.71793">
        <ele>1384.3</ele>
        <time>2018-11-26T04:38:58Z</time>
      </trkpt>
      <trkpt lat="42.42205" lon="2.71794">
        <ele>1383.8</ele>
        <time>2018-11-26T04:38:59Z</time>
      </trkpt>
      <trkpt lat="42.42206" lon="2.71794">
        <ele>1383.4</ele>
        <time>2018-11-26T04:38:59Z</time>
      </trkpt>
      <trkpt lat="42.42206" lon="2.71795">
        <ele>1382.9</ele>
        <time>2018-11-26T04:38:59Z</time>
      </trkpt>
      <trkpt lat="42.42207" lon="2.71796">
        <ele>1383.2</ele>
        <time>2018-11-26T04:39:00Z</time>
      </trkpt>
      <trkpt lat="42.42207" lon="2.71797">
        <ele>1383.4</ele>
        <time>2018-11-26T04:39:00Z</time>
      </trkpt>
      <trkpt lat="42.42207" lon="2.71798">
        <ele>1383.3</ele>
        <time>2018-11-26T04:39:00Z</time>
      </trkpt>
      <trkpt lat="42.42207" lon="2.71799">
        <ele>1383</ele>
        <time>2018-11-26T04:39:01Z</time>
      </trkpt>
      <trkpt lat="42.42208" lon="2.718">
        <ele>1382.8</ele>
        <time>2018-11-26T04:39:01Z</time>
      </trkpt>
      <trkpt lat="42.42208" lon="2.71801">
        <ele>1382.7</ele>
        <time>2018-11-26T04:39:01Z</time>
      </trkpt>
      <trkpt lat="42.42209" lon="2.71802">
        <ele>1382.5</ele>
        <time>2018-11-26T04:39:02Z</time>
      </trkpt>
      <trkpt lat="42.42209" lon="2.71803">
        <ele>1382.3</ele>
        <time>2018-11-26T04:39:02Z</time>
      </trkpt>
      <trkpt lat="42.4221" lon="2.71804">
        <ele>1382.3</ele>
        <time>2018-11-26T04:39:02Z</time>
      </trkpt>
      <trkpt lat="42.4221" lon="2.71805">
        <ele>1382.3</ele>
        <time>2018-11-26T04:39:03Z</time>
      </trkpt>
      <trkpt lat="42.42211" lon="2.71808">
        <ele>1383.1</ele>
        <time>2018-11-26T04:39:04Z</time>
      </trkpt>
      <trkpt lat="42.42212" lon="2.71809">
        <ele>1383.6</ele>
        <time>2018-11-26T04:39:04Z</time>
      </trkpt>
      <trkpt lat="42.42212" lon="2.7181">
        <ele>1383.8</ele>
        <time>2018-11-26T04:39:05Z</time>
      </trkpt>
      <trkpt lat="42.42212" lon="2.71811">
        <ele>1384</ele>
        <time>2018-11-26T04:39:05Z</time>
      </trkpt>
      <trkpt lat="42.42212" lon="2.71812">
        <ele>1384.2</ele>
        <time>2018-11-26T04:39:05Z</time>
      </trkpt>
      <trkpt lat="42.42213" lon="2.71812">
        <ele>1384.4</ele>
        <time>2018-11-26T04:39:05Z</time>
      </trkpt>
      <trkpt lat="42.42213" lon="2.71813">
        <ele>1384.5</ele>
        <time>2018-11-26T04:39:05Z</time>
      </trkpt>
      <trkpt lat="42.42213" lon="2.71814">
        <ele>1384.8</ele>
        <time>2018-11-26T04:39:06Z</time>
      </trkpt>
      <trkpt lat="42.42213" lon="2.71814">
        <ele>1385</ele>
        <time>2018-11-26T04:39:06Z</time>
      </trkpt>
      <trkpt lat="42.42213" lon="2.71815">
        <ele>1385.2</ele>
        <time>2018-11-26T04:39:06Z</time>
      </trkpt>
      <trkpt lat="42.42213" lon="2.71816">
        <ele>1385.6</ele>
        <time>2018-11-26T04:39:06Z</time>
      </trkpt>
      <trkpt lat="42.42213" lon="2.71816">
        <ele>1385.5</ele>
        <time>2018-11-26T04:39:06Z</time>
      </trkpt>
      <trkpt lat="42.42213" lon="2.71817">
        <ele>1385.4</ele>
        <time>2018-11-26T04:39:07Z</time>
      </trkpt>
      <trkpt lat="42.42213" lon="2.71817">
        <ele>1385.2</ele>
        <time>2018-11-26T04:39:07Z</time>
      </trkpt>
      <trkpt lat="42.42213" lon="2.71817">
        <ele>1385.2</ele>
        <time>2018-11-26T04:39:07Z</time>
      </trkpt>
      <trkpt lat="42.42213" lon="2.71818">
        <ele>1385.3</ele>
        <time>2018-11-26T04:39:07Z</time>
      </trkpt>
      <trkpt lat="42.42213" lon="2.71819">
        <ele>1385.2</ele>
        <time>2018-11-26T04:39:07Z</time>
      </trkpt>
      <trkpt lat="42.42213" lon="2.71819">
        <ele>1385.2</ele>
        <time>2018-11-26T04:39:07Z</time>
      </trkpt>
      <trkpt lat="42.42213" lon="2.71821">
        <ele>1386</ele>
        <time>2018-11-26T04:39:08Z</time>
      </trkpt>
      <trkpt lat="42.42213" lon="2.71822">
        <ele>1386.1</ele>
        <time>2018-11-26T04:39:08Z</time>
      </trkpt>
      <trkpt lat="42.42213" lon="2.71824">
        <ele>1385.8</ele>
        <time>2018-11-26T04:39:09Z</time>
      </trkpt>
      <trkpt lat="42.42213" lon="2.71826">
        <ele>1385.8</ele>
        <time>2018-11-26T04:39:10Z</time>
      </trkpt>
      <trkpt lat="42.42214" lon="2.71828">
        <ele>1386.3</ele>
        <time>2018-11-26T04:39:10Z</time>
      </trkpt>
      <trkpt lat="42.42214" lon="2.71829">
        <ele>1386.5</ele>
        <time>2018-11-26T04:39:11Z</time>
      </trkpt>
      <trkpt lat="42.42215" lon="2.7183">
        <ele>1386.9</ele>
        <time>2018-11-26T04:39:11Z</time>
      </trkpt>
      <trkpt lat="42.42215" lon="2.71831">
        <ele>1387.1</ele>
        <time>2018-11-26T04:39:11Z</time>
      </trkpt>
      <trkpt lat="42.42215" lon="2.71833">
        <ele>1387.8</ele>
        <time>2018-11-26T04:39:12Z</time>
      </trkpt>
      <trkpt lat="42.42216" lon="2.71834">
        <ele>1387.7</ele>
        <time>2018-11-26T04:39:12Z</time>
      </trkpt>
      <trkpt lat="42.42216" lon="2.71834">
        <ele>1387.7</ele>
        <time>2018-11-26T04:39:12Z</time>
      </trkpt>
      <trkpt lat="42.42216" lon="2.71835">
        <ele>1387.7</ele>
        <time>2018-11-26T04:39:12Z</time>
      </trkpt>
      <trkpt lat="42.42217" lon="2.71836">
        <ele>1388</ele>
        <time>2018-11-26T04:39:13Z</time>
      </trkpt>
      <trkpt lat="42.42217" lon="2.71836">
        <ele>1388.2</ele>
        <time>2018-11-26T04:39:13Z</time>
      </trkpt>
      <trkpt lat="42.42217" lon="2.71837">
        <ele>1388.7</ele>
        <time>2018-11-26T04:39:13Z</time>
      </trkpt>
      <trkpt lat="42.42217" lon="2.71837">
        <ele>1388.9</ele>
        <time>2018-11-26T04:39:13Z</time>
      </trkpt>
      <trkpt lat="42.42218" lon="2.71837">
        <ele>1389.1</ele>
        <time>2018-11-26T04:39:14Z</time>
      </trkpt>
      <trkpt lat="42.42218" lon="2.71838">
        <ele>1389.2</ele>
        <time>2018-11-26T04:39:14Z</time>
      </trkpt>
      <trkpt lat="42.42219" lon="2.71838">
        <ele>1389.3</ele>
        <time>2018-11-26T04:39:14Z</time>
      </trkpt>
      <trkpt lat="42.42219" lon="2.71839">
        <ele>1389.4</ele>
        <time>2018-11-26T04:39:14Z</time>
      </trkpt>
      <trkpt lat="42.42219" lon="2.71839">
        <ele>1389.4</ele>
        <time>2018-11-26T04:39:14Z</time>
      </trkpt>
      <trkpt lat="42.42219" lon="2.7184">
        <ele>1389.3</ele>
        <time>2018-11-26T04:39:14Z</time>
      </trkpt>
      <trkpt lat="42.42219" lon="2.7184">
        <ele>1389.5</ele>
        <time>2018-11-26T04:39:14Z</time>
      </trkpt>
      <trkpt lat="42.42219" lon="2.7184">
        <ele>1389.6</ele>
        <time>2018-11-26T04:39:15Z</time>
      </trkpt>
      <trkpt lat="42.42219" lon="2.7184">
        <ele>1389.8</ele>
        <time>2018-11-26T04:39:15Z</time>
      </trkpt>
      <trkpt lat="42.42219" lon="2.71841">
        <ele>1390.1</ele>
        <time>2018-11-26T04:39:15Z</time>
      </trkpt>
      <trkpt lat="42.42219" lon="2.71841">
        <ele>1390.3</ele>
        <time>2018-11-26T04:39:15Z</time>
      </trkpt>
      <trkpt lat="42.42219" lon="2.71841">
        <ele>1390.5</ele>
        <time>2018-11-26T04:39:15Z</time>
      </trkpt>
      <trkpt lat="42.42219" lon="2.71842">
        <ele>1390.6</ele>
        <time>2018-11-26T04:39:15Z</time>
      </trkpt>
      <trkpt lat="42.42218" lon="2.71842">
        <ele>1390.6</ele>
        <time>2018-11-26T04:39:15Z</time>
      </trkpt>
      <trkpt lat="42.42218" lon="2.71843">
        <ele>1390.1</ele>
        <time>2018-11-26T04:39:16Z</time>
      </trkpt>
      <trkpt lat="42.42218" lon="2.71843">
        <ele>1389.6</ele>
        <time>2018-11-26T04:39:16Z</time>
      </trkpt>
      <trkpt lat="42.42218" lon="2.71844">
        <ele>1389.7</ele>
        <time>2018-11-26T04:39:16Z</time>
      </trkpt>
      <trkpt lat="42.42218" lon="2.71844">
        <ele>1389.9</ele>
        <time>2018-11-26T04:39:16Z</time>
      </trkpt>
      <trkpt lat="42.42218" lon="2.71845">
        <ele>1389.9</ele>
        <time>2018-11-26T04:39:16Z</time>
      </trkpt>
      <trkpt lat="42.42218" lon="2.71846">
        <ele>1390</ele>
        <time>2018-11-26T04:39:17Z</time>
      </trkpt>
      <trkpt lat="42.42218" lon="2.71846">
        <ele>1390.2</ele>
        <time>2018-11-26T04:39:17Z</time>
      </trkpt>
      <trkpt lat="42.42218" lon="2.71846">
        <ele>1390.4</ele>
        <time>2018-11-26T04:39:17Z</time>
      </trkpt>
      <trkpt lat="42.42218" lon="2.71847">
        <ele>1390.5</ele>
        <time>2018-11-26T04:39:17Z</time>
      </trkpt>
      <trkpt lat="42.42218" lon="2.71848">
        <ele>1390.7</ele>
        <time>2018-11-26T04:39:17Z</time>
      </trkpt>
      <trkpt lat="42.42218" lon="2.71848">
        <ele>1390.9</ele>
        <time>2018-11-26T04:39:17Z</time>
      </trkpt>
      <trkpt lat="42.42218" lon="2.71849">
        <ele>1391.3</ele>
        <time>2018-11-26T04:39:18Z</time>
      </trkpt>
      <trkpt lat="42.42218" lon="2.71849">
        <ele>1391.4</ele>
        <time>2018-11-26T04:39:18Z</time>
      </trkpt>
      <trkpt lat="42.42218" lon="2.7185">
        <ele>1391.5</ele>
        <time>2018-11-26T04:39:18Z</time>
      </trkpt>
      <trkpt lat="42.42218" lon="2.71851">
        <ele>1391.7</ele>
        <time>2018-11-26T04:39:18Z</time>
      </trkpt>
      <trkpt lat="42.42218" lon="2.71852">
        <ele>1391</ele>
        <time>2018-11-26T04:39:19Z</time>
      </trkpt>
      <trkpt lat="42.42219" lon="2.71855">
        <ele>1390.3</ele>
        <time>2018-11-26T04:39:20Z</time>
      </trkpt>
      <trkpt lat="42.42219" lon="2.71857">
        <ele>1390.2</ele>
        <time>2018-11-26T04:39:20Z</time>
      </trkpt>
      <trkpt lat="42.42219" lon="2.71858">
        <ele>1390.2</ele>
        <time>2018-11-26T04:39:20Z</time>
      </trkpt>
      <trkpt lat="42.42219" lon="2.71859">
        <ele>1390</ele>
        <time>2018-11-26T04:39:21Z</time>
      </trkpt>
      <trkpt lat="42.42219" lon="2.7186">
        <ele>1389.9</ele>
        <time>2018-11-26T04:39:21Z</time>
      </trkpt>
      <trkpt lat="42.42219" lon="2.71861">
        <ele>1389.8</ele>
        <time>2018-11-26T04:39:21Z</time>
      </trkpt>
      <trkpt lat="42.42219" lon="2.71861">
        <ele>1389.6</ele>
        <time>2018-11-26T04:39:21Z</time>
      </trkpt>
      <trkpt lat="42.4222" lon="2.71862">
        <ele>1389.6</ele>
        <time>2018-11-26T04:39:22Z</time>
      </trkpt>
      <trkpt lat="42.4222" lon="2.71863">
        <ele>1389.2</ele>
        <time>2018-11-26T04:39:22Z</time>
      </trkpt>
      <trkpt lat="42.4222" lon="2.71864">
        <ele>1388.9</ele>
        <time>2018-11-26T04:39:22Z</time>
      </trkpt>
      <trkpt lat="42.4222" lon="2.71865">
        <ele>1388.7</ele>
        <time>2018-11-26T04:39:23Z</time>
      </trkpt>
      <trkpt lat="42.42221" lon="2.71866">
        <ele>1388.5</ele>
        <time>2018-11-26T04:39:23Z</time>
      </trkpt>
      <trkpt lat="42.42221" lon="2.71867">
        <ele>1388.7</ele>
        <time>2018-11-26T04:39:23Z</time>
      </trkpt>
      <trkpt lat="42.42221" lon="2.71868">
        <ele>1388.8</ele>
        <time>2018-11-26T04:39:24Z</time>
      </trkpt>
      <trkpt lat="42.42221" lon="2.7187">
        <ele>1389.1</ele>
        <time>2018-11-26T04:39:24Z</time>
      </trkpt>
      <trkpt lat="42.42221" lon="2.71871">
        <ele>1389.6</ele>
        <time>2018-11-26T04:39:24Z</time>
      </trkpt>
      <trkpt lat="42.42221" lon="2.71871">
        <ele>1389.5</ele>
        <time>2018-11-26T04:39:25Z</time>
      </trkpt>
      <trkpt lat="42.42221" lon="2.71872">
        <ele>1389.5</ele>
        <time>2018-11-26T04:39:25Z</time>
      </trkpt>
      <trkpt lat="42.42221" lon="2.71873">
        <ele>1389.3</ele>
        <time>2018-11-26T04:39:25Z</time>
      </trkpt>
      <trkpt lat="42.42222" lon="2.71874">
        <ele>1389.1</ele>
        <time>2018-11-26T04:39:25Z</time>
      </trkpt>
      <trkpt lat="42.42222" lon="2.71875">
        <ele>1388.8</ele>
        <time>2018-11-26T04:39:26Z</time>
      </trkpt>
      <trkpt lat="42.42222" lon="2.71875">
        <ele>1388.6</ele>
        <time>2018-11-26T04:39:26Z</time>
      </trkpt>
      <trkpt lat="42.42222" lon="2.71876">
        <ele>1388.2</ele>
        <time>2018-11-26T04:39:26Z</time>
      </trkpt>
      <trkpt lat="42.42223" lon="2.71877">
        <ele>1387.8</ele>
        <time>2018-11-26T04:39:26Z</time>
      </trkpt>
      <trkpt lat="42.42223" lon="2.71878">
        <ele>1387.9</ele>
        <time>2018-11-26T04:39:27Z</time>
      </trkpt>
      <trkpt lat="42.42225" lon="2.71881">
        <ele>1388.5</ele>
        <time>2018-11-26T04:39:28Z</time>
      </trkpt>
      <trkpt lat="42.42225" lon="2.71882">
        <ele>1388.2</ele>
        <time>2018-11-26T04:39:28Z</time>
      </trkpt>
      <trkpt lat="42.42225" lon="2.71883">
        <ele>1388</ele>
        <time>2018-11-26T04:39:28Z</time>
      </trkpt>
      <trkpt lat="42.42225" lon="2.71883">
        <ele>1388</ele>
        <time>2018-11-26T04:39:28Z</time>
      </trkpt>
      <trkpt lat="42.42227" lon="2.71888">
        <ele>1386.4</ele>
        <time>2018-11-26T04:39:30Z</time>
      </trkpt>
      <trkpt lat="42.42227" lon="2.71889">
        <ele>1386.7</ele>
        <time>2018-11-26T04:39:30Z</time>
      </trkpt>
      <trkpt lat="42.42227" lon="2.71889">
        <ele>1386.5</ele>
        <time>2018-11-26T04:39:30Z</time>
      </trkpt>
      <trkpt lat="42.42227" lon="2.71891">
        <ele>1386.6</ele>
        <time>2018-11-26T04:39:31Z</time>
      </trkpt>
      <trkpt lat="42.42226" lon="2.71892">
        <ele>1386.7</ele>
        <time>2018-11-26T04:39:31Z</time>
      </trkpt>
      <trkpt lat="42.42226" lon="2.71893">
        <ele>1387.2</ele>
        <time>2018-11-26T04:39:32Z</time>
      </trkpt>
      <trkpt lat="42.42226" lon="2.71894">
        <ele>1386.9</ele>
        <time>2018-11-26T04:39:32Z</time>
      </trkpt>
      <trkpt lat="42.42226" lon="2.71895">
        <ele>1386.6</ele>
        <time>2018-11-26T04:39:32Z</time>
      </trkpt>
      <trkpt lat="42.42226" lon="2.71895">
        <ele>1386.2</ele>
        <time>2018-11-26T04:39:32Z</time>
      </trkpt>
      <trkpt lat="42.42226" lon="2.71896">
        <ele>1385.9</ele>
        <time>2018-11-26T04:39:32Z</time>
      </trkpt>
      <trkpt lat="42.42226" lon="2.71896">
        <ele>1385.7</ele>
        <time>2018-11-26T04:39:33Z</time>
      </trkpt>
      <trkpt lat="42.42226" lon="2.71897">
        <ele>1385.5</ele>
        <time>2018-11-26T04:39:33Z</time>
      </trkpt>
      <trkpt lat="42.42226" lon="2.71897">
        <ele>1385.2</ele>
        <time>2018-11-26T04:39:33Z</time>
      </trkpt>
      <trkpt lat="42.42226" lon="2.71898">
        <ele>1384.9</ele>
        <time>2018-11-26T04:39:33Z</time>
      </trkpt>
      <trkpt lat="42.42225" lon="2.71898">
        <ele>1384.6</ele>
        <time>2018-11-26T04:39:33Z</time>
      </trkpt>
      <trkpt lat="42.42226" lon="2.71899">
        <ele>1384.5</ele>
        <time>2018-11-26T04:39:33Z</time>
      </trkpt>
      <trkpt lat="42.42226" lon="2.719">
        <ele>1384.5</ele>
        <time>2018-11-26T04:39:34Z</time>
      </trkpt>
      <trkpt lat="42.42226" lon="2.71901">
        <ele>1384.3</ele>
        <time>2018-11-26T04:39:34Z</time>
      </trkpt>
      <trkpt lat="42.42226" lon="2.71902">
        <ele>1384.3</ele>
        <time>2018-11-26T04:39:34Z</time>
      </trkpt>
      <trkpt lat="42.42226" lon="2.71902">
        <ele>1384.5</ele>
        <time>2018-11-26T04:39:34Z</time>
      </trkpt>
      <trkpt lat="42.42226" lon="2.71903">
        <ele>1384.5</ele>
        <time>2018-11-26T04:39:35Z</time>
      </trkpt>
      <trkpt lat="42.42226" lon="2.71904">
        <ele>1384.5</ele>
        <time>2018-11-26T04:39:35Z</time>
      </trkpt>
      <trkpt lat="42.42227" lon="2.71904">
        <ele>1384.3</ele>
        <time>2018-11-26T04:39:35Z</time>
      </trkpt>
      <trkpt lat="42.42227" lon="2.71905">
        <ele>1384.3</ele>
        <time>2018-11-26T04:39:35Z</time>
      </trkpt>
      <trkpt lat="42.42227" lon="2.71906">
        <ele>1384.1</ele>
        <time>2018-11-26T04:39:36Z</time>
      </trkpt>
      <trkpt lat="42.42228" lon="2.71906">
        <ele>1383.9</ele>
        <time>2018-11-26T04:39:36Z</time>
      </trkpt>
      <trkpt lat="42.42228" lon="2.71907">
        <ele>1383.7</ele>
        <time>2018-11-26T04:39:36Z</time>
      </trkpt>
      <trkpt lat="42.42228" lon="2.71908">
        <ele>1383.6</ele>
        <time>2018-11-26T04:39:36Z</time>
      </trkpt>
      <trkpt lat="42.42228" lon="2.71908">
        <ele>1383.2</ele>
        <time>2018-11-26T04:39:36Z</time>
      </trkpt>
      <trkpt lat="42.42228" lon="2.71909">
        <ele>1382.8</ele>
        <time>2018-11-26T04:39:37Z</time>
      </trkpt>
      <trkpt lat="42.42227" lon="2.7191">
        <ele>1382.7</ele>
        <time>2018-11-26T04:39:37Z</time>
      </trkpt>
      <trkpt lat="42.42227" lon="2.71911">
        <ele>1382.6</ele>
        <time>2018-11-26T04:39:37Z</time>
      </trkpt>
      <trkpt lat="42.42227" lon="2.71912">
        <ele>1382.6</ele>
        <time>2018-11-26T04:39:38Z</time>
      </trkpt>
      <trkpt lat="42.42227" lon="2.71913">
        <ele>1382.5</ele>
        <time>2018-11-26T04:39:38Z</time>
      </trkpt>
      <trkpt lat="42.42227" lon="2.71914">
        <ele>1382.3</ele>
        <time>2018-11-26T04:39:38Z</time>
      </trkpt>
      <trkpt lat="42.42228" lon="2.71914">
        <ele>1382.1</ele>
        <time>2018-11-26T04:39:38Z</time>
      </trkpt>
      <trkpt lat="42.42228" lon="2.71915">
        <ele>1382</ele>
        <time>2018-11-26T04:39:39Z</time>
      </trkpt>
      <trkpt lat="42.42228" lon="2.71916">
        <ele>1381.7</ele>
        <time>2018-11-26T04:39:39Z</time>
      </trkpt>
      <trkpt lat="42.42227" lon="2.71917">
        <ele>1381.2</ele>
        <time>2018-11-26T04:39:39Z</time>
      </trkpt>
      <trkpt lat="42.42227" lon="2.71918">
        <ele>1380.5</ele>
        <time>2018-11-26T04:39:39Z</time>
      </trkpt>
      <trkpt lat="42.42227" lon="2.71919">
        <ele>1380.6</ele>
        <time>2018-11-26T04:39:40Z</time>
      </trkpt>
      <trkpt lat="42.42227" lon="2.71919">
        <ele>1380.6</ele>
        <time>2018-11-26T04:39:40Z</time>
      </trkpt>
      <trkpt lat="42.42227" lon="2.7192">
        <ele>1380.6</ele>
        <time>2018-11-26T04:39:40Z</time>
      </trkpt>
      <trkpt lat="42.42226" lon="2.71921">
        <ele>1380.5</ele>
        <time>2018-11-26T04:39:40Z</time>
      </trkpt>
      <trkpt lat="42.42226" lon="2.71922">
        <ele>1380.2</ele>
        <time>2018-11-26T04:39:41Z</time>
      </trkpt>
      <trkpt lat="42.42227" lon="2.71924">
        <ele>1379.5</ele>
        <time>2018-11-26T04:39:41Z</time>
      </trkpt>
      <trkpt lat="42.42227" lon="2.71924">
        <ele>1379.4</ele>
        <time>2018-11-26T04:39:41Z</time>
      </trkpt>
      <trkpt lat="42.42226" lon="2.71925">
        <ele>1378.8</ele>
        <time>2018-11-26T04:39:42Z</time>
      </trkpt>
      <trkpt lat="42.42226" lon="2.71926">
        <ele>1378.8</ele>
        <time>2018-11-26T04:39:42Z</time>
      </trkpt>
      <trkpt lat="42.42226" lon="2.71927">
        <ele>1378.8</ele>
        <time>2018-11-26T04:39:42Z</time>
      </trkpt>
      <trkpt lat="42.42226" lon="2.71928">
        <ele>1378.9</ele>
        <time>2018-11-26T04:39:43Z</time>
      </trkpt>
      <trkpt lat="42.42225" lon="2.71931">
        <ele>1378</ele>
        <time>2018-11-26T04:39:44Z</time>
      </trkpt>
      <trkpt lat="42.42224" lon="2.71933">
        <ele>1377.8</ele>
        <time>2018-11-26T04:39:44Z</time>
      </trkpt>
      <trkpt lat="42.42224" lon="2.71934">
        <ele>1377.5</ele>
        <time>2018-11-26T04:39:44Z</time>
      </trkpt>
      <trkpt lat="42.42223" lon="2.71935">
        <ele>1377.2</ele>
        <time>2018-11-26T04:39:45Z</time>
      </trkpt>
      <trkpt lat="42.42223" lon="2.71935">
        <ele>1376.9</ele>
        <time>2018-11-26T04:39:45Z</time>
      </trkpt>
      <trkpt lat="42.42223" lon="2.71936">
        <ele>1376.9</ele>
        <time>2018-11-26T04:39:45Z</time>
      </trkpt>
      <trkpt lat="42.42222" lon="2.71937">
        <ele>1377.1</ele>
        <time>2018-11-26T04:39:46Z</time>
      </trkpt>
      <trkpt lat="42.42222" lon="2.71939">
        <ele>1377</ele>
        <time>2018-11-26T04:39:46Z</time>
      </trkpt>
      <trkpt lat="42.42221" lon="2.7194">
        <ele>1377</ele>
        <time>2018-11-26T04:39:47Z</time>
      </trkpt>
      <trkpt lat="42.42221" lon="2.71941">
        <ele>1376.9</ele>
        <time>2018-11-26T04:39:47Z</time>
      </trkpt>
      <trkpt lat="42.42221" lon="2.71942">
        <ele>1377</ele>
        <time>2018-11-26T04:39:47Z</time>
      </trkpt>
      <trkpt lat="42.4222" lon="2.71943">
        <ele>1376.9</ele>
        <time>2018-11-26T04:39:48Z</time>
      </trkpt>
      <trkpt lat="42.4222" lon="2.71944">
        <ele>1376.8</ele>
        <time>2018-11-26T04:39:48Z</time>
      </trkpt>
      <trkpt lat="42.42219" lon="2.71945">
        <ele>1376.8</ele>
        <time>2018-11-26T04:39:48Z</time>
      </trkpt>
      <trkpt lat="42.42219" lon="2.71946">
        <ele>1376.9</ele>
        <time>2018-11-26T04:39:49Z</time>
      </trkpt>
      <trkpt lat="42.42218" lon="2.71947">
        <ele>1377</ele>
        <time>2018-11-26T04:39:49Z</time>
      </trkpt>
      <trkpt lat="42.42218" lon="2.71949">
        <ele>1377.1</ele>
        <time>2018-11-26T04:39:50Z</time>
      </trkpt>
      <trkpt lat="42.42217" lon="2.7195">
        <ele>1377.1</ele>
        <time>2018-11-26T04:39:50Z</time>
      </trkpt>
      <trkpt lat="42.42217" lon="2.71951">
        <ele>1377.2</ele>
        <time>2018-11-26T04:39:50Z</time>
      </trkpt>
      <trkpt lat="42.42217" lon="2.71952">
        <ele>1376.9</ele>
        <time>2018-11-26T04:39:50Z</time>
      </trkpt>
      <trkpt lat="42.42217" lon="2.71954">
        <ele>1376.2</ele>
        <time>2018-11-26T04:39:51Z</time>
      </trkpt>
      <trkpt lat="42.42217" lon="2.71955">
        <ele>1376.2</ele>
        <time>2018-11-26T04:39:51Z</time>
      </trkpt>
      <trkpt lat="42.42217" lon="2.71956">
        <ele>1376.1</ele>
        <time>2018-11-26T04:39:52Z</time>
      </trkpt>
      <trkpt lat="42.42217" lon="2.71957">
        <ele>1375.5</ele>
        <time>2018-11-26T04:39:52Z</time>
      </trkpt>
      <trkpt lat="42.42217" lon="2.71958">
        <ele>1374.8</ele>
        <time>2018-11-26T04:39:52Z</time>
      </trkpt>
      <trkpt lat="42.42217" lon="2.71959">
        <ele>1373.9</ele>
        <time>2018-11-26T04:39:53Z</time>
      </trkpt>
      <trkpt lat="42.42217" lon="2.7196">
        <ele>1373.9</ele>
        <time>2018-11-26T04:39:53Z</time>
      </trkpt>
      <trkpt lat="42.42217" lon="2.7196">
        <ele>1373.5</ele>
        <time>2018-11-26T04:39:53Z</time>
      </trkpt>
      <trkpt lat="42.42217" lon="2.71961">
        <ele>1373.2</ele>
        <time>2018-11-26T04:39:53Z</time>
      </trkpt>
      <trkpt lat="42.42218" lon="2.71962">
        <ele>1373.2</ele>
        <time>2018-11-26T04:39:53Z</time>
      </trkpt>
      <trkpt lat="42.42218" lon="2.71962">
        <ele>1373.2</ele>
        <time>2018-11-26T04:39:54Z</time>
      </trkpt>
      <trkpt lat="42.42218" lon="2.71963">
        <ele>1373.2</ele>
        <time>2018-11-26T04:39:54Z</time>
      </trkpt>
      <trkpt lat="42.42218" lon="2.71965">
        <ele>1373.1</ele>
        <time>2018-11-26T04:39:54Z</time>
      </trkpt>
      <trkpt lat="42.42218" lon="2.71968">
        <ele>1373.3</ele>
        <time>2018-11-26T04:39:55Z</time>
      </trkpt>
      <trkpt lat="42.42218" lon="2.71969">
        <ele>1373.4</ele>
        <time>2018-11-26T04:39:56Z</time>
      </trkpt>
      <trkpt lat="42.42218" lon="2.71971">
        <ele>1373.1</ele>
        <time>2018-11-26T04:39:56Z</time>
      </trkpt>
      <trkpt lat="42.42218" lon="2.71972">
        <ele>1372.9</ele>
        <time>2018-11-26T04:39:57Z</time>
      </trkpt>
      <trkpt lat="42.42218" lon="2.71973">
        <ele>1372.7</ele>
        <time>2018-11-26T04:39:57Z</time>
      </trkpt>
      <trkpt lat="42.42218" lon="2.71974">
        <ele>1372.6</ele>
        <time>2018-11-26T04:39:57Z</time>
      </trkpt>
      <trkpt lat="42.42218" lon="2.71975">
        <ele>1372.3</ele>
        <time>2018-11-26T04:39:57Z</time>
      </trkpt>
      <trkpt lat="42.42218" lon="2.71975">
        <ele>1372.4</ele>
        <time>2018-11-26T04:39:58Z</time>
      </trkpt>
      <trkpt lat="42.42218" lon="2.71976">
        <ele>1372.5</ele>
        <time>2018-11-26T04:39:58Z</time>
      </trkpt>
      <trkpt lat="42.42218" lon="2.71977">
        <ele>1372.4</ele>
        <time>2018-11-26T04:39:58Z</time>
      </trkpt>
      <trkpt lat="42.42218" lon="2.71977">
        <ele>1372.4</ele>
        <time>2018-11-26T04:39:58Z</time>
      </trkpt>
      <trkpt lat="42.42218" lon="2.7198">
        <ele>1372.4</ele>
        <time>2018-11-26T04:39:59Z</time>
      </trkpt>
      <trkpt lat="42.42219" lon="2.71981">
        <ele>1372.4</ele>
        <time>2018-11-26T04:39:59Z</time>
      </trkpt>
      <trkpt lat="42.42219" lon="2.71982">
        <ele>1372.5</ele>
        <time>2018-11-26T04:40:00Z</time>
      </trkpt>
      <trkpt lat="42.42219" lon="2.71983">
        <ele>1372.5</ele>
        <time>2018-11-26T04:40:00Z</time>
      </trkpt>
      <trkpt lat="42.42218" lon="2.71984">
        <ele>1372.4</ele>
        <time>2018-11-26T04:40:00Z</time>
      </trkpt>
      <trkpt lat="42.42218" lon="2.71985">
        <ele>1372.3</ele>
        <time>2018-11-26T04:40:01Z</time>
      </trkpt>
      <trkpt lat="42.42218" lon="2.71986">
        <ele>1372.3</ele>
        <time>2018-11-26T04:40:01Z</time>
      </trkpt>
      <trkpt lat="42.42218" lon="2.71987">
        <ele>1372.3</ele>
        <time>2018-11-26T04:40:01Z</time>
      </trkpt>
      <trkpt lat="42.42217" lon="2.71988">
        <ele>1372.4</ele>
        <time>2018-11-26T04:40:02Z</time>
      </trkpt>
      <trkpt lat="42.42218" lon="2.71989">
        <ele>1372.6</ele>
        <time>2018-11-26T04:40:02Z</time>
      </trkpt>
      <trkpt lat="42.42218" lon="2.71993">
        <ele>1372.7</ele>
        <time>2018-11-26T04:40:03Z</time>
      </trkpt>
      <trkpt lat="42.42218" lon="2.71995">
        <ele>1372.7</ele>
        <time>2018-11-26T04:40:04Z</time>
      </trkpt>
      <trkpt lat="42.42217" lon="2.71998">
        <ele>1372.4</ele>
        <time>2018-11-26T04:40:05Z</time>
      </trkpt>
      <trkpt lat="42.42217" lon="2.71999">
        <ele>1372.2</ele>
        <time>2018-11-26T04:40:05Z</time>
      </trkpt>
      <trkpt lat="42.42216" lon="2.72004">
        <ele>1373.5</ele>
        <time>2018-11-26T04:40:06Z</time>
      </trkpt>
      <trkpt lat="42.42216" lon="2.72005">
        <ele>1373.6</ele>
        <time>2018-11-26T04:40:07Z</time>
      </trkpt>
      <trkpt lat="42.42216" lon="2.72007">
        <ele>1373.6</ele>
        <time>2018-11-26T04:40:07Z</time>
      </trkpt>
      <trkpt lat="42.42216" lon="2.72007">
        <ele>1373.7</ele>
        <time>2018-11-26T04:40:07Z</time>
      </trkpt>
      <trkpt lat="42.42216" lon="2.72007">
        <ele>1373.6</ele>
        <time>2018-11-26T04:40:07Z</time>
      </trkpt>
      <trkpt lat="42.42215" lon="2.72008">
        <ele>1373.2</ele>
        <time>2018-11-26T04:40:08Z</time>
      </trkpt>
      <trkpt lat="42.42215" lon="2.72009">
        <ele>1372.9</ele>
        <time>2018-11-26T04:40:08Z</time>
      </trkpt>
      <trkpt lat="42.42215" lon="2.72011">
        <ele>1372.8</ele>
        <time>2018-11-26T04:40:08Z</time>
      </trkpt>
      <trkpt lat="42.42215" lon="2.72012">
        <ele>1372.7</ele>
        <time>2018-11-26T04:40:09Z</time>
      </trkpt>
      <trkpt lat="42.42215" lon="2.72013">
        <ele>1372.4</ele>
        <time>2018-11-26T04:40:09Z</time>
      </trkpt>
      <trkpt lat="42.42215" lon="2.72016">
        <ele>1372.4</ele>
        <time>2018-11-26T04:40:10Z</time>
      </trkpt>
      <trkpt lat="42.42214" lon="2.72017">
        <ele>1372.2</ele>
        <time>2018-11-26T04:40:10Z</time>
      </trkpt>
      <trkpt lat="42.42214" lon="2.72019">
        <ele>1372.3</ele>
        <time>2018-11-26T04:40:11Z</time>
      </trkpt>
      <trkpt lat="42.42214" lon="2.72023">
        <ele>1372.5</ele>
        <time>2018-11-26T04:40:12Z</time>
      </trkpt>
      <trkpt lat="42.42214" lon="2.72024">
        <ele>1372.4</ele>
        <time>2018-11-26T04:40:13Z</time>
      </trkpt>
      <trkpt lat="42.42214" lon="2.72026">
        <ele>1372.2</ele>
        <time>2018-11-26T04:40:13Z</time>
      </trkpt>
      <trkpt lat="42.42214" lon="2.72028">
        <ele>1371.9</ele>
        <time>2018-11-26T04:40:14Z</time>
      </trkpt>
      <trkpt lat="42.42214" lon="2.72029">
        <ele>1372</ele>
        <time>2018-11-26T04:40:14Z</time>
      </trkpt>
      <trkpt lat="42.42214" lon="2.7203">
        <ele>1371.9</ele>
        <time>2018-11-26T04:40:14Z</time>
      </trkpt>
      <trkpt lat="42.42214" lon="2.72031">
        <ele>1371.7</ele>
        <time>2018-11-26T04:40:15Z</time>
      </trkpt>
      <trkpt lat="42.42215" lon="2.72032">
        <ele>1371.6</ele>
        <time>2018-11-26T04:40:15Z</time>
      </trkpt>
      <trkpt lat="42.42215" lon="2.72033">
        <ele>1371.6</ele>
        <time>2018-11-26T04:40:15Z</time>
      </trkpt>
      <trkpt lat="42.42215" lon="2.72033">
        <ele>1371.9</ele>
        <time>2018-11-26T04:40:15Z</time>
      </trkpt>
      <trkpt lat="42.42215" lon="2.72033">
        <ele>1372.1</ele>
        <time>2018-11-26T04:40:15Z</time>
      </trkpt>
      <trkpt lat="42.42215" lon="2.72033">
        <ele>1372.3</ele>
        <time>2018-11-26T04:40:15Z</time>
      </trkpt>
      <trkpt lat="42.42215" lon="2.72033">
        <ele>1372.2</ele>
        <time>2018-11-26T04:40:15Z</time>
      </trkpt>
      <trkpt lat="42.42215" lon="2.72033">
        <ele>1372.4</ele>
        <time>2018-11-26T04:40:15Z</time>
      </trkpt>
      <trkpt lat="42.42215" lon="2.72033">
        <ele>1372.5</ele>
        <time>2018-11-26T04:40:15Z</time>
      </trkpt>
      <trkpt lat="42.42215" lon="2.72033">
        <ele>1372.5</ele>
        <time>2018-11-26T04:40:15Z</time>
      </trkpt>
      <trkpt lat="42.42215" lon="2.72033">
        <ele>1372.5</ele>
        <time>2018-11-26T04:40:15Z</time>
      </trkpt>
      <trkpt lat="42.42214" lon="2.72033">
        <ele>1372.5</ele>
        <time>2018-11-26T04:40:15Z</time>
      </trkpt>
      <trkpt lat="42.42214" lon="2.72033">
        <ele>1372.4</ele>
        <time>2018-11-26T04:40:15Z</time>
      </trkpt>
      <trkpt lat="42.42214" lon="2.72033">
        <ele>1372.5</ele>
        <time>2018-11-26T04:40:15Z</time>
      </trkpt>
      <trkpt lat="42.42214" lon="2.72033">
        <ele>1372.3</ele>
        <time>2018-11-26T04:40:15Z</time>
      </trkpt>
      <trkpt lat="42.42214" lon="2.72033">
        <ele>1372.2</ele>
        <time>2018-11-26T04:40:15Z</time>
      </trkpt>
      <trkpt lat="42.42214" lon="2.72033">
        <ele>1372</ele>
        <time>2018-11-26T04:40:16Z</time>
      </trkpt>
      <trkpt lat="42.42214" lon="2.72033">
        <ele>1371.8</ele>
        <time>2018-11-26T04:40:16Z</time>
      </trkpt>
      <trkpt lat="42.42214" lon="2.72033">
        <ele>1371.9</ele>
        <time>2018-11-26T04:40:16Z</time>
      </trkpt>
      <trkpt lat="42.42214" lon="2.72033">
        <ele>1372.2</ele>
        <time>2018-11-26T04:40:16Z</time>
      </trkpt>
      <trkpt lat="42.42214" lon="2.72034">
        <ele>1372.2</ele>
        <time>2018-11-26T04:40:16Z</time>
      </trkpt>
      <trkpt lat="42.42214" lon="2.72035">
        <ele>1372.4</ele>
        <time>2018-11-26T04:40:16Z</time>
      </trkpt>
      <trkpt lat="42.42214" lon="2.72036">
        <ele>1372.8</ele>
        <time>2018-11-26T04:40:16Z</time>
      </trkpt>
      <trkpt lat="42.42214" lon="2.72036">
        <ele>1373.2</ele>
        <time>2018-11-26T04:40:16Z</time>
      </trkpt>
      <trkpt lat="42.42214" lon="2.72036">
        <ele>1373.6</ele>
        <time>2018-11-26T04:40:16Z</time>
      </trkpt>
      <trkpt lat="42.42214" lon="2.72036">
        <ele>1373.5</ele>
        <time>2018-11-26T04:40:16Z</time>
      </trkpt>
      <trkpt lat="42.42214" lon="2.72037">
        <ele>1373.5</ele>
        <time>2018-11-26T04:40:17Z</time>
      </trkpt>
      <trkpt lat="42.42214" lon="2.72037">
        <ele>1373.4</ele>
        <time>2018-11-26T04:40:17Z</time>
      </trkpt>
      <trkpt lat="42.42214" lon="2.72037">
        <ele>1373.6</ele>
        <time>2018-11-26T04:40:17Z</time>
      </trkpt>
      <trkpt lat="42.42214" lon="2.72037">
        <ele>1373.9</ele>
        <time>2018-11-26T04:40:17Z</time>
      </trkpt>
      <trkpt lat="42.42214" lon="2.72037">
        <ele>1374.2</ele>
        <time>2018-11-26T04:40:17Z</time>
      </trkpt>
      <trkpt lat="42.42214" lon="2.72037">
        <ele>1374</ele>
        <time>2018-11-26T04:40:17Z</time>
      </trkpt>
      <trkpt lat="42.42214" lon="2.72037">
        <ele>1374</ele>
        <time>2018-11-26T04:40:17Z</time>
      </trkpt>
      <trkpt lat="42.42214" lon="2.72037">
        <ele>1373.9</ele>
        <time>2018-11-26T04:40:17Z</time>
      </trkpt>
      <trkpt lat="42.42214" lon="2.72037">
        <ele>1374</ele>
        <time>2018-11-26T04:40:17Z</time>
      </trkpt>
      <trkpt lat="42.42214" lon="2.72037">
        <ele>1374</ele>
        <time>2018-11-26T04:40:17Z</time>
      </trkpt>
      <trkpt lat="42.42214" lon="2.72037">
        <ele>1374</ele>
        <time>2018-11-26T04:40:17Z</time>
      </trkpt>
      <trkpt lat="42.42214" lon="2.72037">
        <ele>1373.8</ele>
        <time>2018-11-26T04:40:17Z</time>
      </trkpt>
      <trkpt lat="42.42213" lon="2.72037">
        <ele>1373.5</ele>
        <time>2018-11-26T04:40:17Z</time>
      </trkpt>
      <trkpt lat="42.42213" lon="2.72037">
        <ele>1373.2</ele>
        <time>2018-11-26T04:40:17Z</time>
      </trkpt>
      <trkpt lat="42.42213" lon="2.72037">
        <ele>1372.6</ele>
        <time>2018-11-26T04:40:17Z</time>
      </trkpt>
      <trkpt lat="42.42213" lon="2.72037">
        <ele>1372.5</ele>
        <time>2018-11-26T04:40:17Z</time>
      </trkpt>
      <trkpt lat="42.42213" lon="2.72037">
        <ele>1372.3</ele>
        <time>2018-11-26T04:40:17Z</time>
      </trkpt>
      <trkpt lat="42.42213" lon="2.72037">
        <ele>1372.2</ele>
        <time>2018-11-26T04:40:17Z</time>
      </trkpt>
      <trkpt lat="42.42213" lon="2.72037">
        <ele>1372.5</ele>
        <time>2018-11-26T04:40:17Z</time>
      </trkpt>
      <trkpt lat="42.42213" lon="2.72037">
        <ele>1372.8</ele>
        <time>2018-11-26T04:40:17Z</time>
      </trkpt>
      <trkpt lat="42.42213" lon="2.72037">
        <ele>1373.1</ele>
        <time>2018-11-26T04:40:17Z</time>
      </trkpt>
      <trkpt lat="42.42213" lon="2.72037">
        <ele>1373.3</ele>
        <time>2018-11-26T04:40:17Z</time>
      </trkpt>
      <trkpt lat="42.42213" lon="2.72037">
        <ele>1373.7</ele>
        <time>2018-11-26T04:40:17Z</time>
      </trkpt>
      <trkpt lat="42.42213" lon="2.72037">
        <ele>1373.9</ele>
        <time>2018-11-26T04:40:17Z</time>
      </trkpt>
      <trkpt lat="42.42213" lon="2.72037">
        <ele>1373.8</ele>
        <time>2018-11-26T04:40:17Z</time>
      </trkpt>
      <trkpt lat="42.42213" lon="2.72037">
        <ele>1373.7</ele>
        <time>2018-11-26T04:40:17Z</time>
      </trkpt>
      <trkpt lat="42.42213" lon="2.72037">
        <ele>1373.7</ele>
        <time>2018-11-26T04:40:17Z</time>
      </trkpt>
      <trkpt lat="42.42213" lon="2.72037">
        <ele>1373.5</ele>
        <time>2018-11-26T04:40:18Z</time>
      </trkpt>
      <trkpt lat="42.42213" lon="2.72037">
        <ele>1373.4</ele>
        <time>2018-11-26T04:40:18Z</time>
      </trkpt>
      <trkpt lat="42.42213" lon="2.72037">
        <ele>1373.1</ele>
        <time>2018-11-26T04:40:18Z</time>
      </trkpt>
      <trkpt lat="42.42212" lon="2.72037">
        <ele>1372.8</ele>
        <time>2018-11-26T04:40:18Z</time>
      </trkpt>
      <trkpt lat="42.42212" lon="2.72037">
        <ele>1372.8</ele>
        <time>2018-11-26T04:40:18Z</time>
      </trkpt>
      <trkpt lat="42.42212" lon="2.72037">
        <ele>1373.1</ele>
        <time>2018-11-26T04:40:18Z</time>
      </trkpt>
      <trkpt lat="42.42212" lon="2.72037">
        <ele>1373.1</ele>
        <time>2018-11-26T04:40:18Z</time>
      </trkpt>
      <trkpt lat="42.42212" lon="2.72037">
        <ele>1373.1</ele>
        <time>2018-11-26T04:40:18Z</time>
      </trkpt>
      <trkpt lat="42.42212" lon="2.72037">
        <ele>1372.9</ele>
        <time>2018-11-26T04:40:18Z</time>
      </trkpt>
      <trkpt lat="42.42212" lon="2.72036">
        <ele>1372.9</ele>
        <time>2018-11-26T04:40:18Z</time>
      </trkpt>
      <trkpt lat="42.42212" lon="2.72036">
        <ele>1372.7</ele>
        <time>2018-11-26T04:40:18Z</time>
      </trkpt>
      <trkpt lat="42.42212" lon="2.72036">
        <ele>1372.6</ele>
        <time>2018-11-26T04:40:18Z</time>
      </trkpt>
      <trkpt lat="42.42212" lon="2.72036">
        <ele>1372.4</ele>
        <time>2018-11-26T04:40:18Z</time>
      </trkpt>
      <trkpt lat="42.42211" lon="2.72036">
        <ele>1372.5</ele>
        <time>2018-11-26T04:40:18Z</time>
      </trkpt>
      <trkpt lat="42.42211" lon="2.72036">
        <ele>1372.6</ele>
        <time>2018-11-26T04:40:18Z</time>
      </trkpt>
      <trkpt lat="42.42211" lon="2.72036">
        <ele>1372.7</ele>
        <time>2018-11-26T04:40:18Z</time>
      </trkpt>
      <trkpt lat="42.42211" lon="2.72036">
        <ele>1372.7</ele>
        <time>2018-11-26T04:40:18Z</time>
      </trkpt>
      <trkpt lat="42.42211" lon="2.72036">
        <ele>1372.6</ele>
        <time>2018-11-26T04:40:19Z</time>
      </trkpt>
      <trkpt lat="42.42211" lon="2.72036">
        <ele>1372.5</ele>
        <time>2018-11-26T04:40:19Z</time>
      </trkpt>
      <trkpt lat="42.42211" lon="2.72035">
        <ele>1372.2</ele>
        <time>2018-11-26T04:40:19Z</time>
      </trkpt>
      <trkpt lat="42.4221" lon="2.72035">
        <ele>1372.2</ele>
        <time>2018-11-26T04:40:19Z</time>
      </trkpt>
      <trkpt lat="42.4221" lon="2.72035">
        <ele>1372.3</ele>
        <time>2018-11-26T04:40:19Z</time>
      </trkpt>
      <trkpt lat="42.4221" lon="2.72035">
        <ele>1372.3</ele>
        <time>2018-11-26T04:40:19Z</time>
      </trkpt>
      <trkpt lat="42.4221" lon="2.72035">
        <ele>1372.3</ele>
        <time>2018-11-26T04:40:19Z</time>
      </trkpt>
      <trkpt lat="42.4221" lon="2.72035">
        <ele>1372.3</ele>
        <time>2018-11-26T04:40:19Z</time>
      </trkpt>
      <trkpt lat="42.4221" lon="2.72035">
        <ele>1372.3</ele>
        <time>2018-11-26T04:40:19Z</time>
      </trkpt>
      <trkpt lat="42.4221" lon="2.72035">
        <ele>1372.4</ele>
        <time>2018-11-26T04:40:19Z</time>
      </trkpt>
      <trkpt lat="42.4221" lon="2.72035">
        <ele>1372.3</ele>
        <time>2018-11-26T04:40:19Z</time>
      </trkpt>
      <trkpt lat="42.42209" lon="2.72035">
        <ele>1372.1</ele>
        <time>2018-11-26T04:40:19Z</time>
      </trkpt>
      <trkpt lat="42.42209" lon="2.72034">
        <ele>1372.2</ele>
        <time>2018-11-26T04:40:19Z</time>
      </trkpt>
      <trkpt lat="42.42209" lon="2.72034">
        <ele>1372.5</ele>
        <time>2018-11-26T04:40:19Z</time>
      </trkpt>
      <trkpt lat="42.42209" lon="2.72034">
        <ele>1372.8</ele>
        <time>2018-11-26T04:40:19Z</time>
      </trkpt>
      <trkpt lat="42.42209" lon="2.72034">
        <ele>1372.8</ele>
        <time>2018-11-26T04:40:19Z</time>
      </trkpt>
      <trkpt lat="42.42209" lon="2.72034">
        <ele>1372.7</ele>
        <time>2018-11-26T04:40:20Z</time>
      </trkpt>
      <trkpt lat="42.42209" lon="2.72034">
        <ele>1372.7</ele>
        <time>2018-11-26T04:40:20Z</time>
      </trkpt>
      <trkpt lat="42.42209" lon="2.72033">
        <ele>1372.7</ele>
        <time>2018-11-26T04:40:20Z</time>
      </trkpt>
      <trkpt lat="42.42209" lon="2.72033">
        <ele>1372.5</ele>
        <time>2018-11-26T04:40:20Z</time>
      </trkpt>
      <trkpt lat="42.42209" lon="2.72033">
        <ele>1372.4</ele>
        <time>2018-11-26T04:40:20Z</time>
      </trkpt>
      <trkpt lat="42.42209" lon="2.72033">
        <ele>1372.2</ele>
        <time>2018-11-26T04:40:20Z</time>
      </trkpt>
      <trkpt lat="42.42209" lon="2.72033">
        <ele>1372.2</ele>
        <time>2018-11-26T04:40:20Z</time>
      </trkpt>
      <trkpt lat="42.42209" lon="2.72032">
        <ele>1372</ele>
        <time>2018-11-26T04:40:20Z</time>
      </trkpt>
      <trkpt lat="42.42209" lon="2.72032">
        <ele>1371.8</ele>
        <time>2018-11-26T04:40:20Z</time>
      </trkpt>
      <trkpt lat="42.42208" lon="2.72032">
        <ele>1371.9</ele>
        <time>2018-11-26T04:40:20Z</time>
      </trkpt>
      <trkpt lat="42.42209" lon="2.72032">
        <ele>1371.8</ele>
        <time>2018-11-26T04:40:21Z</time>
      </trkpt>
      <trkpt lat="42.42209" lon="2.72032">
        <ele>1371.8</ele>
        <time>2018-11-26T04:40:21Z</time>
      </trkpt>
      <trkpt lat="42.42209" lon="2.72032">
        <ele>1371.8</ele>
        <time>2018-11-26T04:40:21Z</time>
      </trkpt>
      <trkpt lat="42.42209" lon="2.72031">
        <ele>1372.2</ele>
        <time>2018-11-26T04:40:21Z</time>
      </trkpt>
      <trkpt lat="42.42209" lon="2.72031">
        <ele>1372.2</ele>
        <time>2018-11-26T04:40:21Z</time>
      </trkpt>
      <trkpt lat="42.42209" lon="2.72031">
        <ele>1372.1</ele>
        <time>2018-11-26T04:40:21Z</time>
      </trkpt>
      <trkpt lat="42.42209" lon="2.72031">
        <ele>1372.3</ele>
        <time>2018-11-26T04:40:21Z</time>
      </trkpt>
      <trkpt lat="42.42209" lon="2.72031">
        <ele>1372.5</ele>
        <time>2018-11-26T04:40:21Z</time>
      </trkpt>
      <trkpt lat="42.42209" lon="2.72031">
        <ele>1372.8</ele>
        <time>2018-11-26T04:40:21Z</time>
      </trkpt>
      <trkpt lat="42.42208" lon="2.72031">
        <ele>1372.6</ele>
        <time>2018-11-26T04:40:21Z</time>
      </trkpt>
      <trkpt lat="42.42213" lon="2.72036">
        <ele>1371.4</ele>
        <time>2018-11-26T04:40:24Z</time>
      </trkpt>
      <trkpt lat="42.42213" lon="2.72036">
        <ele>1371.3</ele>
        <time>2018-11-26T04:40:24Z</time>
      </trkpt>
      <trkpt lat="42.42213" lon="2.72036">
        <ele>1371.1</ele>
        <time>2018-11-26T04:40:24Z</time>
      </trkpt>
      <trkpt lat="42.42213" lon="2.72036">
        <ele>1371.1</ele>
        <time>2018-11-26T04:40:24Z</time>
      </trkpt>
      <trkpt lat="42.42213" lon="2.72036">
        <ele>1371.3</ele>
        <time>2018-11-26T04:40:24Z</time>
      </trkpt>
      <trkpt lat="42.42213" lon="2.72036">
        <ele>1371.8</ele>
        <time>2018-11-26T04:40:24Z</time>
      </trkpt>
      <trkpt lat="42.42213" lon="2.72036">
        <ele>1372.3</ele>
        <time>2018-11-26T04:40:24Z</time>
      </trkpt>
      <trkpt lat="42.42213" lon="2.72036">
        <ele>1372.3</ele>
        <time>2018-11-26T04:40:24Z</time>
      </trkpt>
      <trkpt lat="42.42213" lon="2.72036">
        <ele>1372</ele>
        <time>2018-11-26T04:40:24Z</time>
      </trkpt>
      <trkpt lat="42.42213" lon="2.72036">
        <ele>1371.8</ele>
        <time>2018-11-26T04:40:24Z</time>
      </trkpt>
      <trkpt lat="42.42213" lon="2.72036">
        <ele>1372</ele>
        <time>2018-11-26T04:40:24Z</time>
      </trkpt>
      <trkpt lat="42.42213" lon="2.72036">
        <ele>1372.3</ele>
        <time>2018-11-26T04:40:24Z</time>
      </trkpt>
      <trkpt lat="42.42213" lon="2.72037">
        <ele>1372.9</ele>
        <time>2018-11-26T04:40:25Z</time>
      </trkpt>
      <trkpt lat="42.42214" lon="2.72037">
        <ele>1372.8</ele>
        <time>2018-11-26T04:40:25Z</time>
      </trkpt>
      <trkpt lat="42.42214" lon="2.72037">
        <ele>1372.6</ele>
        <time>2018-11-26T04:40:25Z</time>
      </trkpt>
      <trkpt lat="42.42214" lon="2.72037">
        <ele>1372.5</ele>
        <time>2018-11-26T04:40:25Z</time>
      </trkpt>
      <trkpt lat="42.42214" lon="2.72037">
        <ele>1372.4</ele>
        <time>2018-11-26T04:40:25Z</time>
      </trkpt>
      <trkpt lat="42.42214" lon="2.72036">
        <ele>1372.1</ele>
        <time>2018-11-26T04:40:25Z</time>
      </trkpt>
      <trkpt lat="42.42214" lon="2.72036">
        <ele>1371.7</ele>
        <time>2018-11-26T04:40:25Z</time>
      </trkpt>
      <trkpt lat="42.42213" lon="2.72036">
        <ele>1371.9</ele>
        <time>2018-11-26T04:40:25Z</time>
      </trkpt>
      <trkpt lat="42.42213" lon="2.72036">
        <ele>1371.9</ele>
        <time>2018-11-26T04:40:25Z</time>
      </trkpt>
      <trkpt lat="42.42213" lon="2.72036">
        <ele>1372.1</ele>
        <time>2018-11-26T04:40:25Z</time>
      </trkpt>
      <trkpt lat="42.42213" lon="2.72036">
        <ele>1372.3</ele>
        <time>2018-11-26T04:40:25Z</time>
      </trkpt>
      <trkpt lat="42.42213" lon="2.72036">
        <ele>1372.5</ele>
        <time>2018-11-26T04:40:25Z</time>
      </trkpt>
      <trkpt lat="42.42213" lon="2.72036">
        <ele>1372.6</ele>
        <time>2018-11-26T04:40:25Z</time>
      </trkpt>
      <trkpt lat="42.42213" lon="2.72036">
        <ele>1372.7</ele>
        <time>2018-11-26T04:40:25Z</time>
      </trkpt>
      <trkpt lat="42.42213" lon="2.72036">
        <ele>1372.7</ele>
        <time>2018-11-26T04:40:25Z</time>
      </trkpt>
      <trkpt lat="42.42213" lon="2.72036">
        <ele>1372.6</ele>
        <time>2018-11-26T04:40:25Z</time>
      </trkpt>
      <trkpt lat="42.42213" lon="2.72036">
        <ele>1372.6</ele>
        <time>2018-11-26T04:40:25Z</time>
      </trkpt>
      <trkpt lat="42.42213" lon="2.72036">
        <ele>1372.4</ele>
        <time>2018-11-26T04:40:25Z</time>
      </trkpt>
      <trkpt lat="42.42213" lon="2.72036">
        <ele>1372.2</ele>
        <time>2018-11-26T04:40:25Z</time>
      </trkpt>
      <trkpt lat="42.42214" lon="2.72036">
        <ele>1371.9</ele>
        <time>2018-11-26T04:40:25Z</time>
      </trkpt>
      <trkpt lat="42.42214" lon="2.72036">
        <ele>1372.1</ele>
        <time>2018-11-26T04:40:25Z</time>
      </trkpt>
      <trkpt lat="42.42214" lon="2.72036">
        <ele>1372.4</ele>
        <time>2018-11-26T04:40:25Z</time>
      </trkpt>
      <trkpt lat="42.42214" lon="2.72036">
        <ele>1372.6</ele>
        <time>2018-11-26T04:40:25Z</time>
      </trkpt>
      <trkpt lat="42.42214" lon="2.72036">
        <ele>1372.5</ele>
        <time>2018-11-26T04:40:25Z</time>
      </trkpt>
      <trkpt lat="42.42214" lon="2.72036">
        <ele>1372.6</ele>
        <time>2018-11-26T04:40:25Z</time>
      </trkpt>
      <trkpt lat="42.42214" lon="2.72036">
        <ele>1372.8</ele>
        <time>2018-11-26T04:40:25Z</time>
      </trkpt>
      <trkpt lat="42.42214" lon="2.72036">
        <ele>1372.9</ele>
        <time>2018-11-26T04:40:25Z</time>
      </trkpt>
      <trkpt lat="42.42214" lon="2.72036">
        <ele>1372.8</ele>
        <time>2018-11-26T04:40:25Z</time>
      </trkpt>
      <trkpt lat="42.42214" lon="2.72036">
        <ele>1372.7</ele>
        <time>2018-11-26T04:40:25Z</time>
      </trkpt>
      <trkpt lat="42.42214" lon="2.72036">
        <ele>1372.6</ele>
        <time>2018-11-26T04:40:25Z</time>
      </trkpt>
      <trkpt lat="42.42214" lon="2.72036">
        <ele>1372.6</ele>
        <time>2018-11-26T04:40:25Z</time>
      </trkpt>
      <trkpt lat="42.42214" lon="2.72036">
        <ele>1372.5</ele>
        <time>2018-11-26T04:40:25Z</time>
      </trkpt>
      <trkpt lat="42.42214" lon="2.72035">
        <ele>1372.3</ele>
        <time>2018-11-26T04:40:25Z</time>
      </trkpt>
      <trkpt lat="42.42214" lon="2.72035">
        <ele>1372.1</ele>
        <time>2018-11-26T04:40:25Z</time>
      </trkpt>
      <trkpt lat="42.42214" lon="2.72035">
        <ele>1372</ele>
        <time>2018-11-26T04:40:25Z</time>
      </trkpt>
      <trkpt lat="42.42214" lon="2.72035">
        <ele>1371.8</ele>
        <time>2018-11-26T04:40:25Z</time>
      </trkpt>
      <trkpt lat="42.42214" lon="2.72035">
        <ele>1371.9</ele>
        <time>2018-11-26T04:40:25Z</time>
      </trkpt>
      <trkpt lat="42.42214" lon="2.72035">
        <ele>1371.7</ele>
        <time>2018-11-26T04:40:25Z</time>
      </trkpt>
      <trkpt lat="42.42214" lon="2.72035">
        <ele>1371.6</ele>
        <time>2018-11-26T04:40:25Z</time>
      </trkpt>
      <trkpt lat="42.42214" lon="2.72035">
        <ele>1371.7</ele>
        <time>2018-11-26T04:40:25Z</time>
      </trkpt>
      <trkpt lat="42.42214" lon="2.72035">
        <ele>1371.8</ele>
        <time>2018-11-26T04:40:26Z</time>
      </trkpt>
      <trkpt lat="42.42214" lon="2.72035">
        <ele>1371.9</ele>
        <time>2018-11-26T04:40:26Z</time>
      </trkpt>
      <trkpt lat="42.42214" lon="2.72035">
        <ele>1372.2</ele>
        <time>2018-11-26T04:40:26Z</time>
      </trkpt>
      <trkpt lat="42.42214" lon="2.72035">
        <ele>1372.2</ele>
        <time>2018-11-26T04:40:26Z</time>
      </trkpt>
      <trkpt lat="42.42214" lon="2.72035">
        <ele>1372.2</ele>
        <time>2018-11-26T04:40:26Z</time>
      </trkpt>
      <trkpt lat="42.42214" lon="2.72035">
        <ele>1372.1</ele>
        <time>2018-11-26T04:40:26Z</time>
      </trkpt>
      <trkpt lat="42.42214" lon="2.72035">
        <ele>1371.9</ele>
        <time>2018-11-26T04:40:26Z</time>
      </trkpt>
      <trkpt lat="42.42214" lon="2.72035">
        <ele>1371.8</ele>
        <time>2018-11-26T04:40:26Z</time>
      </trkpt>
      <trkpt lat="42.42213" lon="2.72035">
        <ele>1371.6</ele>
        <time>2018-11-26T04:40:26Z</time>
      </trkpt>
      <trkpt lat="42.42213" lon="2.72035">
        <ele>1371.8</ele>
        <time>2018-11-26T04:40:26Z</time>
      </trkpt>
      <trkpt lat="42.42213" lon="2.72035">
        <ele>1372</ele>
        <time>2018-11-26T04:40:26Z</time>
      </trkpt>
      <trkpt lat="42.42213" lon="2.72035">
        <ele>1372.2</ele>
        <time>2018-11-26T04:40:26Z</time>
      </trkpt>
      <trkpt lat="42.42213" lon="2.72035">
        <ele>1372</ele>
        <time>2018-11-26T04:40:26Z</time>
      </trkpt>
      <trkpt lat="42.42213" lon="2.72035">
        <ele>1372</ele>
        <time>2018-11-26T04:40:26Z</time>
      </trkpt>
      <trkpt lat="42.42213" lon="2.72035">
        <ele>1371.7</ele>
        <time>2018-11-26T04:40:26Z</time>
      </trkpt>
      <trkpt lat="42.42214" lon="2.72036">
        <ele>1371.9</ele>
        <time>2018-11-26T04:40:26Z</time>
      </trkpt>
      <trkpt lat="42.42213" lon="2.72035">
        <ele>1372</ele>
        <time>2018-11-26T04:40:26Z</time>
      </trkpt>
      <trkpt lat="42.42214" lon="2.72035">
        <ele>1372.3</ele>
        <time>2018-11-26T04:40:26Z</time>
      </trkpt>
      <trkpt lat="42.42214" lon="2.72035">
        <ele>1372.4</ele>
        <time>2018-11-26T04:40:26Z</time>
      </trkpt>
      <trkpt lat="42.42213" lon="2.72035">
        <ele>1372.4</ele>
        <time>2018-11-26T04:40:26Z</time>
      </trkpt>
      <trkpt lat="42.42213" lon="2.72035">
        <ele>1372.5</ele>
        <time>2018-11-26T04:40:26Z</time>
      </trkpt>
      <trkpt lat="42.42213" lon="2.72035">
        <ele>1372.5</ele>
        <time>2018-11-26T04:40:26Z</time>
      </trkpt>
      <trkpt lat="42.42213" lon="2.72035">
        <ele>1372.5</ele>
        <time>2018-11-26T04:40:26Z</time>
      </trkpt>
      <trkpt lat="42.42214" lon="2.72035">
        <ele>1372.5</ele>
        <time>2018-11-26T04:40:26Z</time>
      </trkpt>
      <trkpt lat="42.42214" lon="2.72035">
        <ele>1372.7</ele>
        <time>2018-11-26T04:40:26Z</time>
      </trkpt>
      <trkpt lat="42.42213" lon="2.72035">
        <ele>1372.5</ele>
        <time>2018-11-26T04:40:26Z</time>
      </trkpt>
      <trkpt lat="42.42214" lon="2.72035">
        <ele>1372.3</ele>
        <time>2018-11-26T04:40:26Z</time>
      </trkpt>
      <trkpt lat="42.42214" lon="2.72035">
        <ele>1372.1</ele>
        <time>2018-11-26T04:40:26Z</time>
      </trkpt>
      <trkpt lat="42.42214" lon="2.72035">
        <ele>1372.1</ele>
        <time>2018-11-26T04:40:26Z</time>
      </trkpt>
      <trkpt lat="42.42214" lon="2.72035">
        <ele>1372.3</ele>
        <time>2018-11-26T04:40:26Z</time>
      </trkpt>
      <trkpt lat="42.42214" lon="2.72035">
        <ele>1372.5</ele>
        <time>2018-11-26T04:40:26Z</time>
      </trkpt>
      <trkpt lat="42.42214" lon="2.72035">
        <ele>1372.6</ele>
        <time>2018-11-26T04:40:26Z</time>
      </trkpt>
      <trkpt lat="42.42214" lon="2.72035">
        <ele>1372.5</ele>
        <time>2018-11-26T04:40:26Z</time>
      </trkpt>
      <trkpt lat="42.42214" lon="2.72036">
        <ele>1372.2</ele>
        <time>2018-11-26T04:40:27Z</time>
      </trkpt>
      <trkpt lat="42.42214" lon="2.72036">
        <ele>1372.1</ele>
        <time>2018-11-26T04:40:27Z</time>
      </trkpt>
      <trkpt lat="42.42214" lon="2.72036">
        <ele>1372.2</ele>
        <time>2018-11-26T04:40:27Z</time>
      </trkpt>
      <trkpt lat="42.42214" lon="2.72036">
        <ele>1372.5</ele>
        <time>2018-11-26T04:40:27Z</time>
      </trkpt>
      <trkpt lat="42.42214" lon="2.72036">
        <ele>1372.8</ele>
        <time>2018-11-26T04:40:27Z</time>
      </trkpt>
      <trkpt lat="42.42214" lon="2.72036">
        <ele>1372.6</ele>
        <time>2018-11-26T04:40:27Z</time>
      </trkpt>
      <trkpt lat="42.42214" lon="2.72036">
        <ele>1372.4</ele>
        <time>2018-11-26T04:40:27Z</time>
      </trkpt>
      <trkpt lat="42.42214" lon="2.72036">
        <ele>1372.1</ele>
        <time>2018-11-26T04:40:27Z</time>
      </trkpt>
      <trkpt lat="42.42214" lon="2.72036">
        <ele>1372.1</ele>
        <time>2018-11-26T04:40:27Z</time>
      </trkpt>
      <trkpt lat="42.42214" lon="2.72036">
        <ele>1372</ele>
        <time>2018-11-26T04:40:27Z</time>
      </trkpt>
      <trkpt lat="42.42214" lon="2.72036">
        <ele>1371.7</ele>
        <time>2018-11-26T04:40:27Z</time>
      </trkpt>
      <trkpt lat="42.42214" lon="2.72036">
        <ele>1371.8</ele>
        <time>2018-11-26T04:40:27Z</time>
      </trkpt>
      <trkpt lat="42.42214" lon="2.72036">
        <ele>1372.1</ele>
        <time>2018-11-26T04:40:27Z</time>
      </trkpt>
      <trkpt lat="42.42214" lon="2.72036">
        <ele>1372.2</ele>
        <time>2018-11-26T04:40:27Z</time>
      </trkpt>
      <trkpt lat="42.42214" lon="2.72036">
        <ele>1372.3</ele>
        <time>2018-11-26T04:40:27Z</time>
      </trkpt>
      <trkpt lat="42.42214" lon="2.72037">
        <ele>1372.2</ele>
        <time>2018-11-26T04:40:27Z</time>
      </trkpt>
      <trkpt lat="42.42214" lon="2.72037">
        <ele>1372.2</ele>
        <time>2018-11-26T04:40:27Z</time>
      </trkpt>
      <trkpt lat="42.42214" lon="2.72037">
        <ele>1372.4</ele>
        <time>2018-11-26T04:40:27Z</time>
      </trkpt>
      <trkpt lat="42.42214" lon="2.72037">
        <ele>1372.3</ele>
        <time>2018-11-26T04:40:27Z</time>
      </trkpt>
      <trkpt lat="42.42214" lon="2.72037">
        <ele>1372.3</ele>
        <time>2018-11-26T04:40:27Z</time>
      </trkpt>
      <trkpt lat="42.42214" lon="2.72037">
        <ele>1372.3</ele>
        <time>2018-11-26T04:40:27Z</time>
      </trkpt>
      <trkpt lat="42.42214" lon="2.72037">
        <ele>1372.2</ele>
        <time>2018-11-26T04:40:27Z</time>
      </trkpt>
      <trkpt lat="42.42214" lon="2.72037">
        <ele>1371.9</ele>
        <time>2018-11-26T04:40:27Z</time>
      </trkpt>
      <trkpt lat="42.42215" lon="2.72036">
        <ele>1371.8</ele>
        <time>2018-11-26T04:40:27Z</time>
      </trkpt>
      <trkpt lat="42.42215" lon="2.72036">
        <ele>1371.8</ele>
        <time>2018-11-26T04:40:27Z</time>
      </trkpt>
      <trkpt lat="42.42215" lon="2.72037">
        <ele>1371.8</ele>
        <time>2018-11-26T04:40:28Z</time>
      </trkpt>
      <trkpt lat="42.42215" lon="2.72037">
        <ele>1371.9</ele>
        <time>2018-11-26T04:40:28Z</time>
      </trkpt>
      <trkpt lat="42.42215" lon="2.72037">
        <ele>1372</ele>
        <time>2018-11-26T04:40:28Z</time>
      </trkpt>
      <trkpt lat="42.42215" lon="2.72036">
        <ele>1372.1</ele>
        <time>2018-11-26T04:40:28Z</time>
      </trkpt>
      <trkpt lat="42.42215" lon="2.72036">
        <ele>1372.4</ele>
        <time>2018-11-26T04:40:28Z</time>
      </trkpt>
      <trkpt lat="42.42215" lon="2.72037">
        <ele>1372.3</ele>
        <time>2018-11-26T04:40:28Z</time>
      </trkpt>
      <trkpt lat="42.42215" lon="2.72037">
        <ele>1372.2</ele>
        <time>2018-11-26T04:40:28Z</time>
      </trkpt>
      <trkpt lat="42.42215" lon="2.72037">
        <ele>1372</ele>
        <time>2018-11-26T04:40:28Z</time>
      </trkpt>
      <trkpt lat="42.42215" lon="2.72037">
        <ele>1371.9</ele>
        <time>2018-11-26T04:40:28Z</time>
      </trkpt>
      <trkpt lat="42.42215" lon="2.72037">
        <ele>1371.9</ele>
        <time>2018-11-26T04:40:28Z</time>
      </trkpt>
      <trkpt lat="42.42215" lon="2.72036">
        <ele>1371.7</ele>
        <time>2018-11-26T04:40:28Z</time>
      </trkpt>
      <trkpt lat="42.42215" lon="2.72036">
        <ele>1371.7</ele>
        <time>2018-11-26T04:40:28Z</time>
      </trkpt>
      <trkpt lat="42.42215" lon="2.72037">
        <ele>1371.8</ele>
        <time>2018-11-26T04:40:28Z</time>
      </trkpt>
      <trkpt lat="42.42215" lon="2.72036">
        <ele>1372</ele>
        <time>2018-11-26T04:40:28Z</time>
      </trkpt>
      <trkpt lat="42.42215" lon="2.72036">
        <ele>1372.2</ele>
        <time>2018-11-26T04:40:28Z</time>
      </trkpt>
      <trkpt lat="42.42215" lon="2.72036">
        <ele>1372.1</ele>
        <time>2018-11-26T04:40:28Z</time>
      </trkpt>
      <trkpt lat="42.42215" lon="2.72036">
        <ele>1372.1</ele>
        <time>2018-11-26T04:40:28Z</time>
      </trkpt>
      <trkpt lat="42.42215" lon="2.72037">
        <ele>1371.9</ele>
        <time>2018-11-26T04:40:28Z</time>
      </trkpt>
      <trkpt lat="42.42215" lon="2.72037">
        <ele>1372</ele>
        <time>2018-11-26T04:40:28Z</time>
      </trkpt>
      <trkpt lat="42.42215" lon="2.72037">
        <ele>1372.1</ele>
        <time>2018-11-26T04:40:28Z</time>
      </trkpt>
      <trkpt lat="42.42215" lon="2.72037">
        <ele>1372.3</ele>
        <time>2018-11-26T04:40:28Z</time>
      </trkpt>
      <trkpt lat="42.42215" lon="2.72037">
        <ele>1372.5</ele>
        <time>2018-11-26T04:40:28Z</time>
      </trkpt>
      <trkpt lat="42.42215" lon="2.72036">
        <ele>1372.8</ele>
        <time>2018-11-26T04:40:29Z</time>
      </trkpt>
      <trkpt lat="42.42215" lon="2.72036">
        <ele>1373.2</ele>
        <time>2018-11-26T04:40:29Z</time>
      </trkpt>
      <trkpt lat="42.42216" lon="2.72036">
        <ele>1373.1</ele>
        <time>2018-11-26T04:40:29Z</time>
      </trkpt>
      <trkpt lat="42.42216" lon="2.72036">
        <ele>1372.9</ele>
        <time>2018-11-26T04:40:29Z</time>
      </trkpt>
      <trkpt lat="42.42216" lon="2.72036">
        <ele>1372.7</ele>
        <time>2018-11-26T04:40:29Z</time>
      </trkpt>
      <trkpt lat="42.42216" lon="2.72036">
        <ele>1372.4</ele>
        <time>2018-11-26T04:40:29Z</time>
      </trkpt>
      <trkpt lat="42.42216" lon="2.72036">
        <ele>1372.4</ele>
        <time>2018-11-26T04:40:29Z</time>
      </trkpt>
      <trkpt lat="42.42216" lon="2.72036">
        <ele>1372.3</ele>
        <time>2018-11-26T04:40:29Z</time>
      </trkpt>
      <trkpt lat="42.42216" lon="2.72035">
        <ele>1372.4</ele>
        <time>2018-11-26T04:40:29Z</time>
      </trkpt>
      <trkpt lat="42.42215" lon="2.72035">
        <ele>1372.5</ele>
        <time>2018-11-26T04:40:29Z</time>
      </trkpt>
      <trkpt lat="42.42215" lon="2.72035">
        <ele>1372.7</ele>
        <time>2018-11-26T04:40:29Z</time>
      </trkpt>
      <trkpt lat="42.42215" lon="2.72034">
        <ele>1373</ele>
        <time>2018-11-26T04:40:29Z</time>
      </trkpt>
      <trkpt lat="42.42215" lon="2.72034">
        <ele>1372.8</ele>
        <time>2018-11-26T04:40:29Z</time>
      </trkpt>
      <trkpt lat="42.42215" lon="2.72034">
        <ele>1372.6</ele>
        <time>2018-11-26T04:40:29Z</time>
      </trkpt>
      <trkpt lat="42.42215" lon="2.72035">
        <ele>1372.4</ele>
        <time>2018-11-26T04:40:29Z</time>
      </trkpt>
      <trkpt lat="42.42215" lon="2.72035">
        <ele>1372.4</ele>
        <time>2018-11-26T04:40:29Z</time>
      </trkpt>
      <trkpt lat="42.42215" lon="2.72035">
        <ele>1372.7</ele>
        <time>2018-11-26T04:40:29Z</time>
      </trkpt>
      <trkpt lat="42.42215" lon="2.72035">
        <ele>1373.1</ele>
        <time>2018-11-26T04:40:30Z</time>
      </trkpt>
      <trkpt lat="42.42214" lon="2.72035">
        <ele>1373</ele>
        <time>2018-11-26T04:40:30Z</time>
      </trkpt>
      <trkpt lat="42.42214" lon="2.72036">
        <ele>1372.9</ele>
        <time>2018-11-26T04:40:30Z</time>
      </trkpt>
      <trkpt lat="42.42214" lon="2.72036">
        <ele>1373</ele>
        <time>2018-11-26T04:40:30Z</time>
      </trkpt>
      <trkpt lat="42.42214" lon="2.72036">
        <ele>1372.8</ele>
        <time>2018-11-26T04:40:30Z</time>
      </trkpt>
      <trkpt lat="42.42214" lon="2.72036">
        <ele>1372.9</ele>
        <time>2018-11-26T04:40:30Z</time>
      </trkpt>
      <trkpt lat="42.42214" lon="2.72036">
        <ele>1373.4</ele>
        <time>2018-11-26T04:40:30Z</time>
      </trkpt>
      <trkpt lat="42.42214" lon="2.72036">
        <ele>1373.3</ele>
        <time>2018-11-26T04:40:30Z</time>
      </trkpt>
      <trkpt lat="42.42213" lon="2.72036">
        <ele>1373.1</ele>
        <time>2018-11-26T04:40:30Z</time>
      </trkpt>
      <trkpt lat="42.42213" lon="2.72036">
        <ele>1373</ele>
        <time>2018-11-26T04:40:30Z</time>
      </trkpt>
      <trkpt lat="42.42213" lon="2.72036">
        <ele>1373</ele>
        <time>2018-11-26T04:40:30Z</time>
      </trkpt>
      <trkpt lat="42.42213" lon="2.72036">
        <ele>1372.8</ele>
        <time>2018-11-26T04:40:30Z</time>
      </trkpt>
      <trkpt lat="42.42213" lon="2.72036">
        <ele>1372.7</ele>
        <time>2018-11-26T04:40:30Z</time>
      </trkpt>
      <trkpt lat="42.42213" lon="2.72036">
        <ele>1372.8</ele>
        <time>2018-11-26T04:40:30Z</time>
      </trkpt>
      <trkpt lat="42.42213" lon="2.72036">
        <ele>1373</ele>
        <time>2018-11-26T04:40:30Z</time>
      </trkpt>
      <trkpt lat="42.42213" lon="2.72036">
        <ele>1373.2</ele>
        <time>2018-11-26T04:40:30Z</time>
      </trkpt>
      <trkpt lat="42.42213" lon="2.72036">
        <ele>1373.5</ele>
        <time>2018-11-26T04:40:30Z</time>
      </trkpt>
      <trkpt lat="42.42213" lon="2.72036">
        <ele>1373.2</ele>
        <time>2018-11-26T04:40:31Z</time>
      </trkpt>
      <trkpt lat="42.42213" lon="2.72036">
        <ele>1372.8</ele>
        <time>2018-11-26T04:40:31Z</time>
      </trkpt>
      <trkpt lat="42.42213" lon="2.72036">
        <ele>1372</ele>
        <time>2018-11-26T04:40:31Z</time>
      </trkpt>
      <trkpt lat="42.42213" lon="2.72036">
        <ele>1372.2</ele>
        <time>2018-11-26T04:40:31Z</time>
      </trkpt>
      <trkpt lat="42.42213" lon="2.72036">
        <ele>1372.2</ele>
        <time>2018-11-26T04:40:31Z</time>
      </trkpt>
      <trkpt lat="42.42212" lon="2.72036">
        <ele>1372.4</ele>
        <time>2018-11-26T04:40:31Z</time>
      </trkpt>
      <trkpt lat="42.42212" lon="2.72036">
        <ele>1372.3</ele>
        <time>2018-11-26T04:40:31Z</time>
      </trkpt>
      <trkpt lat="42.42212" lon="2.72037">
        <ele>1372.2</ele>
        <time>2018-11-26T04:40:31Z</time>
      </trkpt>
      <trkpt lat="42.42212" lon="2.72037">
        <ele>1372.1</ele>
        <time>2018-11-26T04:40:31Z</time>
      </trkpt>
      <trkpt lat="42.42212" lon="2.72037">
        <ele>1372</ele>
        <time>2018-11-26T04:40:31Z</time>
      </trkpt>
      <trkpt lat="42.42212" lon="2.72037">
        <ele>1371.9</ele>
        <time>2018-11-26T04:40:31Z</time>
      </trkpt>
      <trkpt lat="42.42212" lon="2.72037">
        <ele>1371.9</ele>
        <time>2018-11-26T04:40:31Z</time>
      </trkpt>
      <trkpt lat="42.42212" lon="2.72037">
        <ele>1371.9</ele>
        <time>2018-11-26T04:40:31Z</time>
      </trkpt>
      <trkpt lat="42.42212" lon="2.72037">
        <ele>1372</ele>
        <time>2018-11-26T04:40:31Z</time>
      </trkpt>
      <trkpt lat="42.42212" lon="2.72037">
        <ele>1371.9</ele>
        <time>2018-11-26T04:40:31Z</time>
      </trkpt>
      <trkpt lat="42.42212" lon="2.72037">
        <ele>1371.9</ele>
        <time>2018-11-26T04:40:31Z</time>
      </trkpt>
      <trkpt lat="42.42212" lon="2.72037">
        <ele>1372</ele>
        <time>2018-11-26T04:40:31Z</time>
      </trkpt>
      <trkpt lat="42.42212" lon="2.72037">
        <ele>1371.9</ele>
        <time>2018-11-26T04:40:31Z</time>
      </trkpt>
      <trkpt lat="42.42212" lon="2.72037">
        <ele>1372</ele>
        <time>2018-11-26T04:40:31Z</time>
      </trkpt>
      <trkpt lat="42.42212" lon="2.72037">
        <ele>1371.8</ele>
        <time>2018-11-26T04:40:31Z</time>
      </trkpt>
      <trkpt lat="42.42212" lon="2.72037">
        <ele>1371.6</ele>
        <time>2018-11-26T04:40:31Z</time>
      </trkpt>
      <trkpt lat="42.42212" lon="2.72037">
        <ele>1371.2</ele>
        <time>2018-11-26T04:40:31Z</time>
      </trkpt>
      <trkpt lat="42.42212" lon="2.72037">
        <ele>1371.3</ele>
        <time>2018-11-26T04:40:31Z</time>
      </trkpt>
      <trkpt lat="42.42213" lon="2.72037">
        <ele>1371.3</ele>
        <time>2018-11-26T04:40:31Z</time>
      </trkpt>
      <trkpt lat="42.42213" lon="2.72038">
        <ele>1371.2</ele>
        <time>2018-11-26T04:40:32Z</time>
      </trkpt>
      <trkpt lat="42.42214" lon="2.72039">
        <ele>1371.2</ele>
        <time>2018-11-26T04:40:32Z</time>
      </trkpt>
      <trkpt lat="42.42214" lon="2.7204">
        <ele>1371.3</ele>
        <time>2018-11-26T04:40:32Z</time>
      </trkpt>
      <trkpt lat="42.42214" lon="2.7204">
        <ele>1371.3</ele>
        <time>2018-11-26T04:40:32Z</time>
      </trkpt>
      <trkpt lat="42.42214" lon="2.7204">
        <ele>1371.3</ele>
        <time>2018-11-26T04:40:33Z</time>
      </trkpt>
      <trkpt lat="42.42214" lon="2.7204">
        <ele>1371.5</ele>
        <time>2018-11-26T04:40:33Z</time>
      </trkpt>
      <trkpt lat="42.42214" lon="2.7204">
        <ele>1371.6</ele>
        <time>2018-11-26T04:40:33Z</time>
      </trkpt>
      <trkpt lat="42.42214" lon="2.7204">
        <ele>1371.7</ele>
        <time>2018-11-26T04:40:33Z</time>
      </trkpt>
      <trkpt lat="42.42214" lon="2.72041">
        <ele>1372.1</ele>
        <time>2018-11-26T04:40:33Z</time>
      </trkpt>
      <trkpt lat="42.42214" lon="2.72041">
        <ele>1372.3</ele>
        <time>2018-11-26T04:40:33Z</time>
      </trkpt>
      <trkpt lat="42.42214" lon="2.72041">
        <ele>1372.8</ele>
        <time>2018-11-26T04:40:33Z</time>
      </trkpt>
      <trkpt lat="42.42214" lon="2.7204">
        <ele>1372.5</ele>
        <time>2018-11-26T04:40:33Z</time>
      </trkpt>
      <trkpt lat="42.42214" lon="2.7204">
        <ele>1372.2</ele>
        <time>2018-11-26T04:40:33Z</time>
      </trkpt>
      <trkpt lat="42.42214" lon="2.7204">
        <ele>1371.7</ele>
        <time>2018-11-26T04:40:33Z</time>
      </trkpt>
      <trkpt lat="42.42214" lon="2.7204">
        <ele>1371.7</ele>
        <time>2018-11-26T04:40:33Z</time>
      </trkpt>
      <trkpt lat="42.42214" lon="2.72041">
        <ele>1371.6</ele>
        <time>2018-11-26T04:40:33Z</time>
      </trkpt>
      <trkpt lat="42.42214" lon="2.72041">
        <ele>1371.4</ele>
        <time>2018-11-26T04:40:33Z</time>
      </trkpt>
      <trkpt lat="42.42214" lon="2.72041">
        <ele>1371.5</ele>
        <time>2018-11-26T04:40:33Z</time>
      </trkpt>
      <trkpt lat="42.42215" lon="2.72041">
        <ele>1371.6</ele>
        <time>2018-11-26T04:40:33Z</time>
      </trkpt>
      <trkpt lat="42.42214" lon="2.72041">
        <ele>1371.6</ele>
        <time>2018-11-26T04:40:34Z</time>
      </trkpt>
      <trkpt lat="42.42214" lon="2.7204">
        <ele>1371.4</ele>
        <time>2018-11-26T04:40:34Z</time>
      </trkpt>
      <trkpt lat="42.42214" lon="2.72039">
        <ele>1371.3</ele>
        <time>2018-11-26T04:40:34Z</time>
      </trkpt>
      <trkpt lat="42.42214" lon="2.72039">
        <ele>1371.3</ele>
        <time>2018-11-26T04:40:34Z</time>
      </trkpt>
      <trkpt lat="42.42214" lon="2.72038">
        <ele>1371.3</ele>
        <time>2018-11-26T04:40:34Z</time>
      </trkpt>
      <trkpt lat="42.42214" lon="2.72039">
        <ele>1371.3</ele>
        <time>2018-11-26T04:40:34Z</time>
      </trkpt>
      <trkpt lat="42.42214" lon="2.7204">
        <ele>1371.3</ele>
        <time>2018-11-26T04:40:35Z</time>
      </trkpt>
      <trkpt lat="42.42214" lon="2.72041">
        <ele>1371.3</ele>
        <time>2018-11-26T04:40:35Z</time>
      </trkpt>
      <trkpt lat="42.42215" lon="2.72043">
        <ele>1371.7</ele>
        <time>2018-11-26T04:40:36Z</time>
      </trkpt>
      <trkpt lat="42.42215" lon="2.72044">
        <ele>1371.8</ele>
        <time>2018-11-26T04:40:36Z</time>
      </trkpt>
      <trkpt lat="42.42215" lon="2.72044">
        <ele>1371.9</ele>
        <time>2018-11-26T04:40:36Z</time>
      </trkpt>
      <trkpt lat="42.42215" lon="2.72044">
        <ele>1372</ele>
        <time>2018-11-26T04:40:36Z</time>
      </trkpt>
      <trkpt lat="42.42215" lon="2.72044">
        <ele>1372.1</ele>
        <time>2018-11-26T04:40:36Z</time>
      </trkpt>
      <trkpt lat="42.42215" lon="2.72044">
        <ele>1372.2</ele>
        <time>2018-11-26T04:40:36Z</time>
      </trkpt>
      <trkpt lat="42.42215" lon="2.72044">
        <ele>1372.3</ele>
        <time>2018-11-26T04:40:36Z</time>
      </trkpt>
      <trkpt lat="42.42215" lon="2.72044">
        <ele>1372.2</ele>
        <time>2018-11-26T04:40:36Z</time>
      </trkpt>
      <trkpt lat="42.42215" lon="2.72044">
        <ele>1372.3</ele>
        <time>2018-11-26T04:40:36Z</time>
      </trkpt>
      <trkpt lat="42.42215" lon="2.72044">
        <ele>1372.3</ele>
        <time>2018-11-26T04:40:37Z</time>
      </trkpt>
      <trkpt lat="42.42214" lon="2.72044">
        <ele>1372.3</ele>
        <time>2018-11-26T04:40:37Z</time>
      </trkpt>
      <trkpt lat="42.42215" lon="2.72044">
        <ele>1372.2</ele>
        <time>2018-11-26T04:40:37Z</time>
      </trkpt>
      <trkpt lat="42.42215" lon="2.72045">
        <ele>1372.2</ele>
        <time>2018-11-26T04:40:37Z</time>
      </trkpt>
      <trkpt lat="42.42215" lon="2.72045">
        <ele>1372.1</ele>
        <time>2018-11-26T04:40:37Z</time>
      </trkpt>
      <trkpt lat="42.42215" lon="2.72046">
        <ele>1372</ele>
        <time>2018-11-26T04:40:37Z</time>
      </trkpt>
      <trkpt lat="42.42216" lon="2.72047">
        <ele>1372</ele>
        <time>2018-11-26T04:40:38Z</time>
      </trkpt>
      <trkpt lat="42.42216" lon="2.72048">
        <ele>1372</ele>
        <time>2018-11-26T04:40:38Z</time>
      </trkpt>
      <trkpt lat="42.42217" lon="2.7205">
        <ele>1371.7</ele>
        <time>2018-11-26T04:40:39Z</time>
      </trkpt>
      <trkpt lat="42.42218" lon="2.72051">
        <ele>1371.7</ele>
        <time>2018-11-26T04:40:39Z</time>
      </trkpt>
      <trkpt lat="42.42218" lon="2.72052">
        <ele>1371.5</ele>
        <time>2018-11-26T04:40:40Z</time>
      </trkpt>
      <trkpt lat="42.42219" lon="2.72053">
        <ele>1371.4</ele>
        <time>2018-11-26T04:40:40Z</time>
      </trkpt>
      <trkpt lat="42.42219" lon="2.72054">
        <ele>1371.2</ele>
        <time>2018-11-26T04:40:40Z</time>
      </trkpt>
      <trkpt lat="42.4222" lon="2.72054">
        <ele>1370.9</ele>
        <time>2018-11-26T04:40:40Z</time>
      </trkpt>
      <trkpt lat="42.4222" lon="2.72055">
        <ele>1371</ele>
        <time>2018-11-26T04:40:41Z</time>
      </trkpt>
      <trkpt lat="42.4222" lon="2.72056">
        <ele>1371.2</ele>
        <time>2018-11-26T04:40:41Z</time>
      </trkpt>
      <trkpt lat="42.42221" lon="2.72057">
        <ele>1371.6</ele>
        <time>2018-11-26T04:40:41Z</time>
      </trkpt>
      <trkpt lat="42.42221" lon="2.72058">
        <ele>1371.4</ele>
        <time>2018-11-26T04:40:42Z</time>
      </trkpt>
      <trkpt lat="42.42221" lon="2.72059">
        <ele>1371.1</ele>
        <time>2018-11-26T04:40:42Z</time>
      </trkpt>
      <trkpt lat="42.42221" lon="2.7206">
        <ele>1371</ele>
        <time>2018-11-26T04:40:42Z</time>
      </trkpt>
      <trkpt lat="42.42221" lon="2.72061">
        <ele>1370.6</ele>
        <time>2018-11-26T04:40:43Z</time>
      </trkpt>
      <trkpt lat="42.42222" lon="2.72062">
        <ele>1370.8</ele>
        <time>2018-11-26T04:40:43Z</time>
      </trkpt>
      <trkpt lat="42.42222" lon="2.72063">
        <ele>1370.9</ele>
        <time>2018-11-26T04:40:43Z</time>
      </trkpt>
      <trkpt lat="42.42222" lon="2.72064">
        <ele>1371</ele>
        <time>2018-11-26T04:40:44Z</time>
      </trkpt>
      <trkpt lat="42.42222" lon="2.72065">
        <ele>1370.9</ele>
        <time>2018-11-26T04:40:44Z</time>
      </trkpt>
      <trkpt lat="42.42222" lon="2.72066">
        <ele>1370.9</ele>
        <time>2018-11-26T04:40:44Z</time>
      </trkpt>
      <trkpt lat="42.42222" lon="2.72066">
        <ele>1370.8</ele>
        <time>2018-11-26T04:40:44Z</time>
      </trkpt>
      <trkpt lat="42.42222" lon="2.72066">
        <ele>1370.8</ele>
        <time>2018-11-26T04:40:44Z</time>
      </trkpt>
      <trkpt lat="42.42222" lon="2.72066">
        <ele>1370.8</ele>
        <time>2018-11-26T04:40:44Z</time>
      </trkpt>
      <trkpt lat="42.42222" lon="2.72067">
        <ele>1370.9</ele>
        <time>2018-11-26T04:40:45Z</time>
      </trkpt>
      <trkpt lat="42.42223" lon="2.72068">
        <ele>1370.8</ele>
        <time>2018-11-26T04:40:45Z</time>
      </trkpt>
      <trkpt lat="42.42223" lon="2.7207">
        <ele>1370.3</ele>
        <time>2018-11-26T04:40:46Z</time>
      </trkpt>
      <trkpt lat="42.42223" lon="2.72071">
        <ele>1370.3</ele>
        <time>2018-11-26T04:40:46Z</time>
      </trkpt>
      <trkpt lat="42.42224" lon="2.72072">
        <ele>1370.3</ele>
        <time>2018-11-26T04:40:46Z</time>
      </trkpt>
      <trkpt lat="42.42225" lon="2.72077">
        <ele>1371</ele>
        <time>2018-11-26T04:40:48Z</time>
      </trkpt>
      <trkpt lat="42.42226" lon="2.72078">
        <ele>1371.5</ele>
        <time>2018-11-26T04:40:48Z</time>
      </trkpt>
      <trkpt lat="42.42226" lon="2.72079">
        <ele>1371.5</ele>
        <time>2018-11-26T04:40:48Z</time>
      </trkpt>
      <trkpt lat="42.42226" lon="2.7208">
        <ele>1371.6</ele>
        <time>2018-11-26T04:40:49Z</time>
      </trkpt>
      <trkpt lat="42.42227" lon="2.72081">
        <ele>1371.5</ele>
        <time>2018-11-26T04:40:49Z</time>
      </trkpt>
      <trkpt lat="42.42227" lon="2.72082">
        <ele>1371.8</ele>
        <time>2018-11-26T04:40:49Z</time>
      </trkpt>
      <trkpt lat="42.42227" lon="2.72082">
        <ele>1372.2</ele>
        <time>2018-11-26T04:40:50Z</time>
      </trkpt>
      <trkpt lat="42.42228" lon="2.72083">
        <ele>1372.6</ele>
        <time>2018-11-26T04:40:50Z</time>
      </trkpt>
      <trkpt lat="42.42228" lon="2.72084">
        <ele>1372.7</ele>
        <time>2018-11-26T04:40:50Z</time>
      </trkpt>
      <trkpt lat="42.42229" lon="2.72084">
        <ele>1372.9</ele>
        <time>2018-11-26T04:40:50Z</time>
      </trkpt>
      <trkpt lat="42.4223" lon="2.72085">
        <ele>1372.9</ele>
        <time>2018-11-26T04:40:51Z</time>
      </trkpt>
      <trkpt lat="42.4223" lon="2.72085">
        <ele>1372.7</ele>
        <time>2018-11-26T04:40:51Z</time>
      </trkpt>
      <trkpt lat="42.4223" lon="2.72086">
        <ele>1372.4</ele>
        <time>2018-11-26T04:40:51Z</time>
      </trkpt>
      <trkpt lat="42.42231" lon="2.72087">
        <ele>1372.1</ele>
        <time>2018-11-26T04:40:52Z</time>
      </trkpt>
      <trkpt lat="42.42231" lon="2.72088">
        <ele>1372.1</ele>
        <time>2018-11-26T04:40:52Z</time>
      </trkpt>
      <trkpt lat="42.42232" lon="2.7209">
        <ele>1372</ele>
        <time>2018-11-26T04:40:53Z</time>
      </trkpt>
      <trkpt lat="42.42233" lon="2.72091">
        <ele>1372</ele>
        <time>2018-11-26T04:40:53Z</time>
      </trkpt>
      <trkpt lat="42.42233" lon="2.72093">
        <ele>1372.3</ele>
        <time>2018-11-26T04:40:53Z</time>
      </trkpt>
      <trkpt lat="42.42233" lon="2.72094">
        <ele>1372.6</ele>
        <time>2018-11-26T04:40:54Z</time>
      </trkpt>
      <trkpt lat="42.42233" lon="2.72095">
        <ele>1373.2</ele>
        <time>2018-11-26T04:40:54Z</time>
      </trkpt>
      <trkpt lat="42.42233" lon="2.72095">
        <ele>1373.2</ele>
        <time>2018-11-26T04:40:54Z</time>
      </trkpt>
      <trkpt lat="42.42233" lon="2.72096">
        <ele>1373.3</ele>
        <time>2018-11-26T04:40:55Z</time>
      </trkpt>
      <trkpt lat="42.42234" lon="2.72097">
        <ele>1373.4</ele>
        <time>2018-11-26T04:40:55Z</time>
      </trkpt>
      <trkpt lat="42.42234" lon="2.72098">
        <ele>1373.2</ele>
        <time>2018-11-26T04:40:55Z</time>
      </trkpt>
      <trkpt lat="42.42234" lon="2.72099">
        <ele>1372.9</ele>
        <time>2018-11-26T04:40:56Z</time>
      </trkpt>
      <trkpt lat="42.42234" lon="2.721">
        <ele>1372.3</ele>
        <time>2018-11-26T04:40:56Z</time>
      </trkpt>
      <trkpt lat="42.42234" lon="2.72101">
        <ele>1372.4</ele>
        <time>2018-11-26T04:40:56Z</time>
      </trkpt>
      <trkpt lat="42.42234" lon="2.72101">
        <ele>1372.3</ele>
        <time>2018-11-26T04:40:56Z</time>
      </trkpt>
      <trkpt lat="42.42234" lon="2.72101">
        <ele>1372.2</ele>
        <time>2018-11-26T04:40:56Z</time>
      </trkpt>
      <trkpt lat="42.42234" lon="2.72101">
        <ele>1372.5</ele>
        <time>2018-11-26T04:40:56Z</time>
      </trkpt>
      <trkpt lat="42.42234" lon="2.72102">
        <ele>1372.6</ele>
        <time>2018-11-26T04:40:56Z</time>
      </trkpt>
      <trkpt lat="42.42235" lon="2.72103">
        <ele>1372.9</ele>
        <time>2018-11-26T04:40:57Z</time>
      </trkpt>
      <trkpt lat="42.42235" lon="2.72104">
        <ele>1373.4</ele>
        <time>2018-11-26T04:40:57Z</time>
      </trkpt>
      <trkpt lat="42.42235" lon="2.72105">
        <ele>1373.3</ele>
        <time>2018-11-26T04:40:57Z</time>
      </trkpt>
      <trkpt lat="42.42235" lon="2.72106">
        <ele>1373.5</ele>
        <time>2018-11-26T04:40:57Z</time>
      </trkpt>
      <trkpt lat="42.42235" lon="2.72107">
        <ele>1373.5</ele>
        <time>2018-11-26T04:40:58Z</time>
      </trkpt>
      <trkpt lat="42.42234" lon="2.72108">
        <ele>1373.6</ele>
        <time>2018-11-26T04:40:58Z</time>
      </trkpt>
      <trkpt lat="42.42234" lon="2.72109">
        <ele>1373.8</ele>
        <time>2018-11-26T04:40:58Z</time>
      </trkpt>
      <trkpt lat="42.42235" lon="2.7211">
        <ele>1373.8</ele>
        <time>2018-11-26T04:40:59Z</time>
      </trkpt>
      <trkpt lat="42.42235" lon="2.72111">
        <ele>1374</ele>
        <time>2018-11-26T04:40:59Z</time>
      </trkpt>
      <trkpt lat="42.42235" lon="2.72112">
        <ele>1374</ele>
        <time>2018-11-26T04:40:59Z</time>
      </trkpt>
      <trkpt lat="42.42235" lon="2.72113">
        <ele>1374.2</ele>
        <time>2018-11-26T04:41:00Z</time>
      </trkpt>
      <trkpt lat="42.42235" lon="2.72114">
        <ele>1373.9</ele>
        <time>2018-11-26T04:41:00Z</time>
      </trkpt>
      <trkpt lat="42.42235" lon="2.72115">
        <ele>1373.6</ele>
        <time>2018-11-26T04:41:00Z</time>
      </trkpt>
      <trkpt lat="42.42235" lon="2.72116">
        <ele>1373</ele>
        <time>2018-11-26T04:41:01Z</time>
      </trkpt>
      <trkpt lat="42.42235" lon="2.72117">
        <ele>1373</ele>
        <time>2018-11-26T04:41:01Z</time>
      </trkpt>
      <trkpt lat="42.42235" lon="2.72118">
        <ele>1372.9</ele>
        <time>2018-11-26T04:41:01Z</time>
      </trkpt>
      <trkpt lat="42.42235" lon="2.72118">
        <ele>1372.8</ele>
        <time>2018-11-26T04:41:01Z</time>
      </trkpt>
      <trkpt lat="42.42235" lon="2.72118">
        <ele>1372.9</ele>
        <time>2018-11-26T04:41:01Z</time>
      </trkpt>
      <trkpt lat="42.42235" lon="2.72119">
        <ele>1372.9</ele>
        <time>2018-11-26T04:41:01Z</time>
      </trkpt>
      <trkpt lat="42.42235" lon="2.72119">
        <ele>1372.8</ele>
        <time>2018-11-26T04:41:01Z</time>
      </trkpt>
      <trkpt lat="42.42235" lon="2.7212">
        <ele>1372.8</ele>
        <time>2018-11-26T04:41:02Z</time>
      </trkpt>
      <trkpt lat="42.42235" lon="2.7212">
        <ele>1372.7</ele>
        <time>2018-11-26T04:41:02Z</time>
      </trkpt>
      <trkpt lat="42.42236" lon="2.72121">
        <ele>1372.7</ele>
        <time>2018-11-26T04:41:02Z</time>
      </trkpt>
      <trkpt lat="42.42236" lon="2.72122">
        <ele>1372.5</ele>
        <time>2018-11-26T04:41:03Z</time>
      </trkpt>
      <trkpt lat="42.42237" lon="2.72123">
        <ele>1372.5</ele>
        <time>2018-11-26T04:41:03Z</time>
      </trkpt>
      <trkpt lat="42.42237" lon="2.72124">
        <ele>1372.3</ele>
        <time>2018-11-26T04:41:03Z</time>
      </trkpt>
      <trkpt lat="42.42237" lon="2.72125">
        <ele>1372.1</ele>
        <time>2018-11-26T04:41:03Z</time>
      </trkpt>
      <trkpt lat="42.42237" lon="2.72126">
        <ele>1372.3</ele>
        <time>2018-11-26T04:41:04Z</time>
      </trkpt>
      <trkpt lat="42.42238" lon="2.72127">
        <ele>1372.5</ele>
        <time>2018-11-26T04:41:04Z</time>
      </trkpt>
      <trkpt lat="42.42238" lon="2.72128">
        <ele>1372.7</ele>
        <time>2018-11-26T04:41:05Z</time>
      </trkpt>
      <trkpt lat="42.42239" lon="2.72129">
        <ele>1372.7</ele>
        <time>2018-11-26T04:41:05Z</time>
      </trkpt>
      <trkpt lat="42.42239" lon="2.7213">
        <ele>1372.6</ele>
        <time>2018-11-26T04:41:05Z</time>
      </trkpt>
      <trkpt lat="42.4224" lon="2.72131">
        <ele>1372.4</ele>
        <time>2018-11-26T04:41:06Z</time>
      </trkpt>
      <trkpt lat="42.42241" lon="2.72132">
        <ele>1372.1</ele>
        <time>2018-11-26T04:41:06Z</time>
      </trkpt>
      <trkpt lat="42.42242" lon="2.72132">
        <ele>1371.7</ele>
        <time>2018-11-26T04:41:06Z</time>
      </trkpt>
      <trkpt lat="42.42242" lon="2.72133">
        <ele>1371.1</ele>
        <time>2018-11-26T04:41:07Z</time>
      </trkpt>
      <trkpt lat="42.42243" lon="2.72134">
        <ele>1371.1</ele>
        <time>2018-11-26T04:41:07Z</time>
      </trkpt>
      <trkpt lat="42.42249" lon="2.72138">
        <ele>1370.9</ele>
        <time>2018-11-26T04:41:10Z</time>
      </trkpt>
      <trkpt lat="42.42249" lon="2.72139">
        <ele>1370.5</ele>
        <time>2018-11-26T04:41:10Z</time>
      </trkpt>
      <trkpt lat="42.4225" lon="2.7214">
        <ele>1370.1</ele>
        <time>2018-11-26T04:41:11Z</time>
      </trkpt>
      <trkpt lat="42.42251" lon="2.72141">
        <ele>1370.2</ele>
        <time>2018-11-26T04:41:11Z</time>
      </trkpt>
      <trkpt lat="42.42252" lon="2.72142">
        <ele>1370.3</ele>
        <time>2018-11-26T04:41:11Z</time>
      </trkpt>
      <trkpt lat="42.42253" lon="2.72142">
        <ele>1370.4</ele>
        <time>2018-11-26T04:41:12Z</time>
      </trkpt>
      <trkpt lat="42.42254" lon="2.72143">
        <ele>1370.3</ele>
        <time>2018-11-26T04:41:12Z</time>
      </trkpt>
      <trkpt lat="42.42255" lon="2.72144">
        <ele>1370.3</ele>
        <time>2018-11-26T04:41:13Z</time>
      </trkpt>
      <trkpt lat="42.42256" lon="2.72144">
        <ele>1370.5</ele>
        <time>2018-11-26T04:41:13Z</time>
      </trkpt>
      <trkpt lat="42.42257" lon="2.72145">
        <ele>1370.2</ele>
        <time>2018-11-26T04:41:14Z</time>
      </trkpt>
      <trkpt lat="42.42257" lon="2.72146">
        <ele>1369.8</ele>
        <time>2018-11-26T04:41:14Z</time>
      </trkpt>
      <trkpt lat="42.42257" lon="2.72148">
        <ele>1369.2</ele>
        <time>2018-11-26T04:41:14Z</time>
      </trkpt>
      <trkpt lat="42.42258" lon="2.72149">
        <ele>1369.5</ele>
        <time>2018-11-26T04:41:15Z</time>
      </trkpt>
      <trkpt lat="42.42258" lon="2.72149">
        <ele>1370.1</ele>
        <time>2018-11-26T04:41:15Z</time>
      </trkpt>
      <trkpt lat="42.42259" lon="2.7215">
        <ele>1370.9</ele>
        <time>2018-11-26T04:41:15Z</time>
      </trkpt>
      <trkpt lat="42.42259" lon="2.72151">
        <ele>1370.9</ele>
        <time>2018-11-26T04:41:15Z</time>
      </trkpt>
      <trkpt lat="42.42259" lon="2.72151">
        <ele>1370.9</ele>
        <time>2018-11-26T04:41:16Z</time>
      </trkpt>
      <trkpt lat="42.42259" lon="2.72152">
        <ele>1370.8</ele>
        <time>2018-11-26T04:41:16Z</time>
      </trkpt>
      <trkpt lat="42.42259" lon="2.72152">
        <ele>1371</ele>
        <time>2018-11-26T04:41:16Z</time>
      </trkpt>
      <trkpt lat="42.42259" lon="2.72153">
        <ele>1371.1</ele>
        <time>2018-11-26T04:41:16Z</time>
      </trkpt>
      <trkpt lat="42.42259" lon="2.72154">
        <ele>1371.3</ele>
        <time>2018-11-26T04:41:17Z</time>
      </trkpt>
      <trkpt lat="42.42259" lon="2.72155">
        <ele>1371.5</ele>
        <time>2018-11-26T04:41:17Z</time>
      </trkpt>
      <trkpt lat="42.42258" lon="2.72156">
        <ele>1371.6</ele>
        <time>2018-11-26T04:41:17Z</time>
      </trkpt>
      <trkpt lat="42.42258" lon="2.72158">
        <ele>1372.5</ele>
        <time>2018-11-26T04:41:18Z</time>
      </trkpt>
      <trkpt lat="42.42258" lon="2.72159">
        <ele>1372.5</ele>
        <time>2018-11-26T04:41:18Z</time>
      </trkpt>
      <trkpt lat="42.42257" lon="2.72159">
        <ele>1372.3</ele>
        <time>2018-11-26T04:41:18Z</time>
      </trkpt>
      <trkpt lat="42.42257" lon="2.72159">
        <ele>1372.8</ele>
        <time>2018-11-26T04:41:18Z</time>
      </trkpt>
      <trkpt lat="42.42257" lon="2.7216">
        <ele>1373.5</ele>
        <time>2018-11-26T04:41:18Z</time>
      </trkpt>
      <trkpt lat="42.42257" lon="2.7216">
        <ele>1374.3</ele>
        <time>2018-11-26T04:41:19Z</time>
      </trkpt>
      <trkpt lat="42.42257" lon="2.72161">
        <ele>1374.2</ele>
        <time>2018-11-26T04:41:19Z</time>
      </trkpt>
      <trkpt lat="42.42257" lon="2.72161">
        <ele>1374.2</ele>
        <time>2018-11-26T04:41:19Z</time>
      </trkpt>
      <trkpt lat="42.42257" lon="2.72163">
        <ele>1374.4</ele>
        <time>2018-11-26T04:41:19Z</time>
      </trkpt>
      <trkpt lat="42.42257" lon="2.72163">
        <ele>1374.4</ele>
        <time>2018-11-26T04:41:20Z</time>
      </trkpt>
      <trkpt lat="42.42257" lon="2.72163">
        <ele>1374.5</ele>
        <time>2018-11-26T04:41:20Z</time>
      </trkpt>
      <trkpt lat="42.42257" lon="2.72163">
        <ele>1374.5</ele>
        <time>2018-11-26T04:41:20Z</time>
      </trkpt>
      <trkpt lat="42.42257" lon="2.72163">
        <ele>1374.6</ele>
        <time>2018-11-26T04:41:20Z</time>
      </trkpt>
      <trkpt lat="42.42257" lon="2.72163">
        <ele>1374.4</ele>
        <time>2018-11-26T04:41:20Z</time>
      </trkpt>
      <trkpt lat="42.42256" lon="2.72163">
        <ele>1374.4</ele>
        <time>2018-11-26T04:41:20Z</time>
      </trkpt>
      <trkpt lat="42.42256" lon="2.72164">
        <ele>1374.6</ele>
        <time>2018-11-26T04:41:20Z</time>
      </trkpt>
      <trkpt lat="42.42256" lon="2.72164">
        <ele>1374.7</ele>
        <time>2018-11-26T04:41:20Z</time>
      </trkpt>
      <trkpt lat="42.42256" lon="2.72164">
        <ele>1374.8</ele>
        <time>2018-11-26T04:41:20Z</time>
      </trkpt>
      <trkpt lat="42.42257" lon="2.72164">
        <ele>1374.7</ele>
        <time>2018-11-26T04:41:20Z</time>
      </trkpt>
      <trkpt lat="42.42257" lon="2.72164">
        <ele>1374.6</ele>
        <time>2018-11-26T04:41:20Z</time>
      </trkpt>
      <trkpt lat="42.42257" lon="2.72164">
        <ele>1374.5</ele>
        <time>2018-11-26T04:41:20Z</time>
      </trkpt>
      <trkpt lat="42.42256" lon="2.72164">
        <ele>1374.8</ele>
        <time>2018-11-26T04:41:21Z</time>
      </trkpt>
      <trkpt lat="42.42256" lon="2.72164">
        <ele>1375.2</ele>
        <time>2018-11-26T04:41:21Z</time>
      </trkpt>
      <trkpt lat="42.42256" lon="2.72164">
        <ele>1375.5</ele>
        <time>2018-11-26T04:41:21Z</time>
      </trkpt>
      <trkpt lat="42.42256" lon="2.72164">
        <ele>1375.6</ele>
        <time>2018-11-26T04:41:21Z</time>
      </trkpt>
      <trkpt lat="42.42256" lon="2.72164">
        <ele>1375.6</ele>
        <time>2018-11-26T04:41:21Z</time>
      </trkpt>
      <trkpt lat="42.42256" lon="2.72164">
        <ele>1375.6</ele>
        <time>2018-11-26T04:41:21Z</time>
      </trkpt>
      <trkpt lat="42.42255" lon="2.72164">
        <ele>1375.7</ele>
        <time>2018-11-26T04:41:21Z</time>
      </trkpt>
      <trkpt lat="42.42254" lon="2.72164">
        <ele>1375.8</ele>
        <time>2018-11-26T04:41:22Z</time>
      </trkpt>
      <trkpt lat="42.42254" lon="2.72164">
        <ele>1376.1</ele>
        <time>2018-11-26T04:41:22Z</time>
      </trkpt>
      <trkpt lat="42.42253" lon="2.72164">
        <ele>1376.3</ele>
        <time>2018-11-26T04:41:22Z</time>
      </trkpt>
      <trkpt lat="42.42253" lon="2.72165">
        <ele>1376.3</ele>
        <time>2018-11-26T04:41:22Z</time>
      </trkpt>
      <trkpt lat="42.42253" lon="2.72165">
        <ele>1376.4</ele>
        <time>2018-11-26T04:41:22Z</time>
      </trkpt>
      <trkpt lat="42.42253" lon="2.72165">
        <ele>1376.5</ele>
        <time>2018-11-26T04:41:22Z</time>
      </trkpt>
      <trkpt lat="42.42253" lon="2.72165">
        <ele>1376.4</ele>
        <time>2018-11-26T04:41:22Z</time>
      </trkpt>
      <trkpt lat="42.42253" lon="2.72165">
        <ele>1376.5</ele>
        <time>2018-11-26T04:41:22Z</time>
      </trkpt>
      <trkpt lat="42.42252" lon="2.72165">
        <ele>1376.7</ele>
        <time>2018-11-26T04:41:23Z</time>
      </trkpt>
      <trkpt lat="42.42252" lon="2.72165">
        <ele>1376.7</ele>
        <time>2018-11-26T04:41:23Z</time>
      </trkpt>
      <trkpt lat="42.42252" lon="2.72166">
        <ele>1376.5</ele>
        <time>2018-11-26T04:41:23Z</time>
      </trkpt>
      <trkpt lat="42.42252" lon="2.72166">
        <ele>1376.2</ele>
        <time>2018-11-26T04:41:23Z</time>
      </trkpt>
      <trkpt lat="42.42252" lon="2.72166">
        <ele>1376.3</ele>
        <time>2018-11-26T04:41:23Z</time>
      </trkpt>
      <trkpt lat="42.42252" lon="2.72167">
        <ele>1376.4</ele>
        <time>2018-11-26T04:41:23Z</time>
      </trkpt>
      <trkpt lat="42.42252" lon="2.72167">
        <ele>1376.7</ele>
        <time>2018-11-26T04:41:23Z</time>
      </trkpt>
      <trkpt lat="42.42252" lon="2.72168">
        <ele>1376.8</ele>
        <time>2018-11-26T04:41:24Z</time>
      </trkpt>
      <trkpt lat="42.42252" lon="2.72169">
        <ele>1377.2</ele>
        <time>2018-11-26T04:41:24Z</time>
      </trkpt>
      <trkpt lat="42.42252" lon="2.7217">
        <ele>1377.7</ele>
        <time>2018-11-26T04:41:24Z</time>
      </trkpt>
      <trkpt lat="42.42252" lon="2.72171">
        <ele>1378.2</ele>
        <time>2018-11-26T04:41:25Z</time>
      </trkpt>
      <trkpt lat="42.42252" lon="2.72171">
        <ele>1378.4</ele>
        <time>2018-11-26T04:41:25Z</time>
      </trkpt>
      <trkpt lat="42.42252" lon="2.72172">
        <ele>1378.9</ele>
        <time>2018-11-26T04:41:25Z</time>
      </trkpt>
      <trkpt lat="42.42251" lon="2.72173">
        <ele>1379.3</ele>
        <time>2018-11-26T04:41:25Z</time>
      </trkpt>
      <trkpt lat="42.42251" lon="2.72173">
        <ele>1379.2</ele>
        <time>2018-11-26T04:41:25Z</time>
      </trkpt>
      <trkpt lat="42.42251" lon="2.72174">
        <ele>1379.3</ele>
        <time>2018-11-26T04:41:26Z</time>
      </trkpt>
      <trkpt lat="42.42251" lon="2.72175">
        <ele>1379.1</ele>
        <time>2018-11-26T04:41:26Z</time>
      </trkpt>
      <trkpt lat="42.4225" lon="2.72176">
        <ele>1379.2</ele>
        <time>2018-11-26T04:41:26Z</time>
      </trkpt>
      <trkpt lat="42.4225" lon="2.72177">
        <ele>1379.4</ele>
        <time>2018-11-26T04:41:27Z</time>
      </trkpt>
      <trkpt lat="42.4225" lon="2.72178">
        <ele>1379.5</ele>
        <time>2018-11-26T04:41:27Z</time>
      </trkpt>
      <trkpt lat="42.4225" lon="2.72179">
        <ele>1379.5</ele>
        <time>2018-11-26T04:41:27Z</time>
      </trkpt>
      <trkpt lat="42.4225" lon="2.72179">
        <ele>1379.6</ele>
        <time>2018-11-26T04:41:27Z</time>
      </trkpt>
      <trkpt lat="42.4225" lon="2.72179">
        <ele>1379.8</ele>
        <time>2018-11-26T04:41:27Z</time>
      </trkpt>
      <trkpt lat="42.4225" lon="2.72179">
        <ele>1380</ele>
        <time>2018-11-26T04:41:27Z</time>
      </trkpt>
      <trkpt lat="42.42249" lon="2.72179">
        <ele>1380.3</ele>
        <time>2018-11-26T04:41:27Z</time>
      </trkpt>
      <trkpt lat="42.42249" lon="2.7218">
        <ele>1380.7</ele>
        <time>2018-11-26T04:41:28Z</time>
      </trkpt>
      <trkpt lat="42.42249" lon="2.72181">
        <ele>1381.3</ele>
        <time>2018-11-26T04:41:28Z</time>
      </trkpt>
      <trkpt lat="42.42249" lon="2.72182">
        <ele>1381.3</ele>
        <time>2018-11-26T04:41:28Z</time>
      </trkpt>
      <trkpt lat="42.42249" lon="2.72183">
        <ele>1381.4</ele>
        <time>2018-11-26T04:41:28Z</time>
      </trkpt>
      <trkpt lat="42.42249" lon="2.72184">
        <ele>1381.7</ele>
        <time>2018-11-26T04:41:29Z</time>
      </trkpt>
      <trkpt lat="42.42249" lon="2.72184">
        <ele>1382.2</ele>
        <time>2018-11-26T04:41:29Z</time>
      </trkpt>
      <trkpt lat="42.42249" lon="2.72185">
        <ele>1382.9</ele>
        <time>2018-11-26T04:41:29Z</time>
      </trkpt>
      <trkpt lat="42.4225" lon="2.72186">
        <ele>1383.8</ele>
        <time>2018-11-26T04:41:30Z</time>
      </trkpt>
      <trkpt lat="42.4225" lon="2.72187">
        <ele>1384</ele>
        <time>2018-11-26T04:41:30Z</time>
      </trkpt>
      <trkpt lat="42.4225" lon="2.72189">
        <ele>1384.2</ele>
        <time>2018-11-26T04:41:30Z</time>
      </trkpt>
      <trkpt lat="42.4225" lon="2.72189">
        <ele>1384.5</ele>
        <time>2018-11-26T04:41:30Z</time>
      </trkpt>
      <trkpt lat="42.4225" lon="2.7219">
        <ele>1384.6</ele>
        <time>2018-11-26T04:41:31Z</time>
      </trkpt>
      <trkpt lat="42.4225" lon="2.7219">
        <ele>1384.8</ele>
        <time>2018-11-26T04:41:31Z</time>
      </trkpt>
      <trkpt lat="42.4225" lon="2.7219">
        <ele>1384.9</ele>
        <time>2018-11-26T04:41:31Z</time>
      </trkpt>
      <trkpt lat="42.4225" lon="2.72191">
        <ele>1384.7</ele>
        <time>2018-11-26T04:41:31Z</time>
      </trkpt>
      <trkpt lat="42.4225" lon="2.72192">
        <ele>1384.3</ele>
        <time>2018-11-26T04:41:31Z</time>
      </trkpt>
      <trkpt lat="42.4225" lon="2.72192">
        <ele>1384.1</ele>
        <time>2018-11-26T04:41:31Z</time>
      </trkpt>
      <trkpt lat="42.4225" lon="2.72192">
        <ele>1383.6</ele>
        <time>2018-11-26T04:41:31Z</time>
      </trkpt>
      <trkpt lat="42.4225" lon="2.72192">
        <ele>1383.6</ele>
        <time>2018-11-26T04:41:31Z</time>
      </trkpt>
      <trkpt lat="42.4225" lon="2.72192">
        <ele>1383.8</ele>
        <time>2018-11-26T04:41:32Z</time>
      </trkpt>
      <trkpt lat="42.4225" lon="2.72192">
        <ele>1384.2</ele>
        <time>2018-11-26T04:41:32Z</time>
      </trkpt>
      <trkpt lat="42.4225" lon="2.72192">
        <ele>1384.1</ele>
        <time>2018-11-26T04:41:32Z</time>
      </trkpt>
      <trkpt lat="42.4225" lon="2.72192">
        <ele>1384</ele>
        <time>2018-11-26T04:41:32Z</time>
      </trkpt>
      <trkpt lat="42.4225" lon="2.72192">
        <ele>1384</ele>
        <time>2018-11-26T04:41:32Z</time>
      </trkpt>
      <trkpt lat="42.4225" lon="2.72192">
        <ele>1384.1</ele>
        <time>2018-11-26T04:41:32Z</time>
      </trkpt>
      <trkpt lat="42.4225" lon="2.72192">
        <ele>1384.3</ele>
        <time>2018-11-26T04:41:32Z</time>
      </trkpt>
      <trkpt lat="42.4225" lon="2.72192">
        <ele>1384.4</ele>
        <time>2018-11-26T04:41:32Z</time>
      </trkpt>
      <trkpt lat="42.4225" lon="2.72192">
        <ele>1384.2</ele>
        <time>2018-11-26T04:41:32Z</time>
      </trkpt>
      <trkpt lat="42.4225" lon="2.72192">
        <ele>1384.1</ele>
        <time>2018-11-26T04:41:32Z</time>
      </trkpt>
      <trkpt lat="42.4225" lon="2.72192">
        <ele>1383.9</ele>
        <time>2018-11-26T04:41:32Z</time>
      </trkpt>
      <trkpt lat="42.4225" lon="2.72192">
        <ele>1384.2</ele>
        <time>2018-11-26T04:41:32Z</time>
      </trkpt>
      <trkpt lat="42.4225" lon="2.72192">
        <ele>1385</ele>
        <time>2018-11-26T04:41:32Z</time>
      </trkpt>
      <trkpt lat="42.4225" lon="2.72192">
        <ele>1385.1</ele>
        <time>2018-11-26T04:41:32Z</time>
      </trkpt>
      <trkpt lat="42.4225" lon="2.72192">
        <ele>1385</ele>
        <time>2018-11-26T04:41:32Z</time>
      </trkpt>
      <trkpt lat="42.4225" lon="2.72193">
        <ele>1385.2</ele>
        <time>2018-11-26T04:41:32Z</time>
      </trkpt>
      <trkpt lat="42.4225" lon="2.72193">
        <ele>1385.1</ele>
        <time>2018-11-26T04:41:32Z</time>
      </trkpt>
      <trkpt lat="42.4225" lon="2.72193">
        <ele>1385.2</ele>
        <time>2018-11-26T04:41:32Z</time>
      </trkpt>
      <trkpt lat="42.4225" lon="2.72193">
        <ele>1385.1</ele>
        <time>2018-11-26T04:41:32Z</time>
      </trkpt>
      <trkpt lat="42.4225" lon="2.72193">
        <ele>1385.2</ele>
        <time>2018-11-26T04:41:32Z</time>
      </trkpt>
      <trkpt lat="42.4225" lon="2.72193">
        <ele>1385.2</ele>
        <time>2018-11-26T04:41:32Z</time>
      </trkpt>
      <trkpt lat="42.4225" lon="2.72193">
        <ele>1385.3</ele>
        <time>2018-11-26T04:41:33Z</time>
      </trkpt>
      <trkpt lat="42.42251" lon="2.72193">
        <ele>1385.4</ele>
        <time>2018-11-26T04:41:33Z</time>
      </trkpt>
      <trkpt lat="42.42251" lon="2.72193">
        <ele>1385.2</ele>
        <time>2018-11-26T04:41:33Z</time>
      </trkpt>
      <trkpt lat="42.4225" lon="2.72193">
        <ele>1385.2</ele>
        <time>2018-11-26T04:41:33Z</time>
      </trkpt>
      <trkpt lat="42.4225" lon="2.72193">
        <ele>1385.6</ele>
        <time>2018-11-26T04:41:33Z</time>
      </trkpt>
      <trkpt lat="42.4225" lon="2.72192">
        <ele>1386</ele>
        <time>2018-11-26T04:41:33Z</time>
      </trkpt>
      <trkpt lat="42.42249" lon="2.72192">
        <ele>1386.8</ele>
        <time>2018-11-26T04:41:33Z</time>
      </trkpt>
      <trkpt lat="42.42249" lon="2.72192">
        <ele>1386.4</ele>
        <time>2018-11-26T04:41:34Z</time>
      </trkpt>
      <trkpt lat="42.42248" lon="2.72192">
        <ele>1386.1</ele>
        <time>2018-11-26T04:41:34Z</time>
      </trkpt>
      <trkpt lat="42.42248" lon="2.72193">
        <ele>1385.5</ele>
        <time>2018-11-26T04:41:34Z</time>
      </trkpt>
      <trkpt lat="42.42248" lon="2.72194">
        <ele>1385</ele>
        <time>2018-11-26T04:41:34Z</time>
      </trkpt>
      <trkpt lat="42.42249" lon="2.72195">
        <ele>1385.1</ele>
        <time>2018-11-26T04:41:35Z</time>
      </trkpt>
      <trkpt lat="42.42249" lon="2.72196">
        <ele>1385.5</ele>
        <time>2018-11-26T04:41:35Z</time>
      </trkpt>
      <trkpt lat="42.42249" lon="2.72196">
        <ele>1386</ele>
        <time>2018-11-26T04:41:35Z</time>
      </trkpt>
      <trkpt lat="42.42249" lon="2.72197">
        <ele>1385.8</ele>
        <time>2018-11-26T04:41:35Z</time>
      </trkpt>
      <trkpt lat="42.4225" lon="2.72197">
        <ele>1385.7</ele>
        <time>2018-11-26T04:41:36Z</time>
      </trkpt>
      <trkpt lat="42.4225" lon="2.72198">
        <ele>1385.5</ele>
        <time>2018-11-26T04:41:36Z</time>
      </trkpt>
      <trkpt lat="42.4225" lon="2.72199">
        <ele>1385.8</ele>
        <time>2018-11-26T04:41:36Z</time>
      </trkpt>
      <trkpt lat="42.42251" lon="2.72199">
        <ele>1385.9</ele>
        <time>2018-11-26T04:41:36Z</time>
      </trkpt>
      <trkpt lat="42.42251" lon="2.722">
        <ele>1386.2</ele>
        <time>2018-11-26T04:41:36Z</time>
      </trkpt>
      <trkpt lat="42.42251" lon="2.722">
        <ele>1386.1</ele>
        <time>2018-11-26T04:41:37Z</time>
      </trkpt>
      <trkpt lat="42.42252" lon="2.722">
        <ele>1386</ele>
        <time>2018-11-26T04:41:37Z</time>
      </trkpt>
      <trkpt lat="42.42252" lon="2.72201">
        <ele>1385.8</ele>
        <time>2018-11-26T04:41:37Z</time>
      </trkpt>
      <trkpt lat="42.42253" lon="2.72202">
        <ele>1385.7</ele>
        <time>2018-11-26T04:41:37Z</time>
      </trkpt>
      <trkpt lat="42.42253" lon="2.72202">
        <ele>1385.3</ele>
        <time>2018-11-26T04:41:38Z</time>
      </trkpt>
      <trkpt lat="42.42253" lon="2.72203">
        <ele>1384.9</ele>
        <time>2018-11-26T04:41:38Z</time>
      </trkpt>
      <trkpt lat="42.42254" lon="2.72204">
        <ele>1384.8</ele>
        <time>2018-11-26T04:41:38Z</time>
      </trkpt>
      <trkpt lat="42.42254" lon="2.72205">
        <ele>1384.8</ele>
        <time>2018-11-26T04:41:39Z</time>
      </trkpt>
      <trkpt lat="42.42254" lon="2.72206">
        <ele>1384.8</ele>
        <time>2018-11-26T04:41:39Z</time>
      </trkpt>
      <trkpt lat="42.42254" lon="2.72207">
        <ele>1384.8</ele>
        <time>2018-11-26T04:41:39Z</time>
      </trkpt>
      <trkpt lat="42.42254" lon="2.72207">
        <ele>1384.8</ele>
        <time>2018-11-26T04:41:39Z</time>
      </trkpt>
      <trkpt lat="42.42254" lon="2.72208">
        <ele>1384.8</ele>
        <time>2018-11-26T04:41:39Z</time>
      </trkpt>
      <trkpt lat="42.42254" lon="2.72208">
        <ele>1384.6</ele>
        <time>2018-11-26T04:41:39Z</time>
      </trkpt>
      <trkpt lat="42.42255" lon="2.72209">
        <ele>1383.8</ele>
        <time>2018-11-26T04:41:40Z</time>
      </trkpt>
      <trkpt lat="42.42255" lon="2.72209">
        <ele>1383.6</ele>
        <time>2018-11-26T04:41:40Z</time>
      </trkpt>
      <trkpt lat="42.42255" lon="2.72209">
        <ele>1383.4</ele>
        <time>2018-11-26T04:41:40Z</time>
      </trkpt>
      <trkpt lat="42.42255" lon="2.72209">
        <ele>1383.5</ele>
        <time>2018-11-26T04:41:40Z</time>
      </trkpt>
      <trkpt lat="42.42256" lon="2.7221">
        <ele>1383.6</ele>
        <time>2018-11-26T04:41:40Z</time>
      </trkpt>
      <trkpt lat="42.42256" lon="2.72211">
        <ele>1383.8</ele>
        <time>2018-11-26T04:41:41Z</time>
      </trkpt>
      <trkpt lat="42.42256" lon="2.72212">
        <ele>1383.8</ele>
        <time>2018-11-26T04:41:41Z</time>
      </trkpt>
      <trkpt lat="42.42256" lon="2.72213">
        <ele>1383.8</ele>
        <time>2018-11-26T04:41:41Z</time>
      </trkpt>
      <trkpt lat="42.42257" lon="2.72214">
        <ele>1383.9</ele>
        <time>2018-11-26T04:41:42Z</time>
      </trkpt>
      <trkpt lat="42.42257" lon="2.72216">
        <ele>1383.6</ele>
        <time>2018-11-26T04:41:42Z</time>
      </trkpt>
      <trkpt lat="42.42257" lon="2.72217">
        <ele>1383.4</ele>
        <time>2018-11-26T04:41:42Z</time>
      </trkpt>
      <trkpt lat="42.42257" lon="2.72217">
        <ele>1383.2</ele>
        <time>2018-11-26T04:41:43Z</time>
      </trkpt>
      <trkpt lat="42.42257" lon="2.72218">
        <ele>1383.4</ele>
        <time>2018-11-26T04:41:43Z</time>
      </trkpt>
      <trkpt lat="42.42257" lon="2.72219">
        <ele>1383.7</ele>
        <time>2018-11-26T04:41:43Z</time>
      </trkpt>
      <trkpt lat="42.42258" lon="2.7222">
        <ele>1384</ele>
        <time>2018-11-26T04:41:43Z</time>
      </trkpt>
      <trkpt lat="42.42259" lon="2.72223">
        <ele>1384.2</ele>
        <time>2018-11-26T04:41:45Z</time>
      </trkpt>
      <trkpt lat="42.42259" lon="2.72224">
        <ele>1384.5</ele>
        <time>2018-11-26T04:41:45Z</time>
      </trkpt>
      <trkpt lat="42.42259" lon="2.72226">
        <ele>1384.8</ele>
        <time>2018-11-26T04:41:45Z</time>
      </trkpt>
      <trkpt lat="42.4226" lon="2.72228">
        <ele>1385.9</ele>
        <time>2018-11-26T04:41:46Z</time>
      </trkpt>
      <trkpt lat="42.4226" lon="2.72229">
        <ele>1386.2</ele>
        <time>2018-11-26T04:41:46Z</time>
      </trkpt>
      <trkpt lat="42.4226" lon="2.7223">
        <ele>1386.5</ele>
        <time>2018-11-26T04:41:47Z</time>
      </trkpt>
      <trkpt lat="42.42261" lon="2.72232">
        <ele>1386.8</ele>
        <time>2018-11-26T04:41:47Z</time>
      </trkpt>
      <trkpt lat="42.42261" lon="2.72232">
        <ele>1386.9</ele>
        <time>2018-11-26T04:41:47Z</time>
      </trkpt>
      <trkpt lat="42.42261" lon="2.72233">
        <ele>1386.8</ele>
        <time>2018-11-26T04:41:48Z</time>
      </trkpt>
      <trkpt lat="42.42261" lon="2.72234">
        <ele>1386.8</ele>
        <time>2018-11-26T04:41:48Z</time>
      </trkpt>
      <trkpt lat="42.42261" lon="2.72235">
        <ele>1387.1</ele>
        <time>2018-11-26T04:41:48Z</time>
      </trkpt>
      <trkpt lat="42.42261" lon="2.72236">
        <ele>1387.4</ele>
        <time>2018-11-26T04:41:48Z</time>
      </trkpt>
      <trkpt lat="42.42261" lon="2.72236">
        <ele>1387.9</ele>
        <time>2018-11-26T04:41:49Z</time>
      </trkpt>
      <trkpt lat="42.42261" lon="2.72237">
        <ele>1387.8</ele>
        <time>2018-11-26T04:41:49Z</time>
      </trkpt>
      <trkpt lat="42.42261" lon="2.72238">
        <ele>1387.9</ele>
        <time>2018-11-26T04:41:49Z</time>
      </trkpt>
      <trkpt lat="42.42261" lon="2.72239">
        <ele>1388.1</ele>
        <time>2018-11-26T04:41:49Z</time>
      </trkpt>
      <trkpt lat="42.42261" lon="2.7224">
        <ele>1388.3</ele>
        <time>2018-11-26T04:41:50Z</time>
      </trkpt>
      <trkpt lat="42.42261" lon="2.72241">
        <ele>1388.7</ele>
        <time>2018-11-26T04:41:50Z</time>
      </trkpt>
      <trkpt lat="42.42261" lon="2.72242">
        <ele>1389.2</ele>
        <time>2018-11-26T04:41:50Z</time>
      </trkpt>
      <trkpt lat="42.42261" lon="2.72243">
        <ele>1389.4</ele>
        <time>2018-11-26T04:41:51Z</time>
      </trkpt>
      <trkpt lat="42.42261" lon="2.72245">
        <ele>1389.7</ele>
        <time>2018-11-26T04:41:51Z</time>
      </trkpt>
      <trkpt lat="42.4226" lon="2.72245">
        <ele>1390</ele>
        <time>2018-11-26T04:41:51Z</time>
      </trkpt>
      <trkpt lat="42.4226" lon="2.72245">
        <ele>1390</ele>
        <time>2018-11-26T04:41:52Z</time>
      </trkpt>
      <trkpt lat="42.42259" lon="2.72245">
        <ele>1390</ele>
        <time>2018-11-26T04:41:52Z</time>
      </trkpt>
      <trkpt lat="42.42258" lon="2.72246">
        <ele>1390</ele>
        <time>2018-11-26T04:41:52Z</time>
      </trkpt>
      <trkpt lat="42.42258" lon="2.72247">
        <ele>1390.1</ele>
        <time>2018-11-26T04:41:52Z</time>
      </trkpt>
      <trkpt lat="42.42258" lon="2.72247">
        <ele>1390.1</ele>
        <time>2018-11-26T04:41:53Z</time>
      </trkpt>
      <trkpt lat="42.42259" lon="2.72248">
        <ele>1389.9</ele>
        <time>2018-11-26T04:41:53Z</time>
      </trkpt>
      <trkpt lat="42.42259" lon="2.72249">
        <ele>1390.3</ele>
        <time>2018-11-26T04:41:53Z</time>
      </trkpt>
      <trkpt lat="42.42259" lon="2.7225">
        <ele>1390.6</ele>
        <time>2018-11-26T04:41:53Z</time>
      </trkpt>
      <trkpt lat="42.42259" lon="2.7225">
        <ele>1391.1</ele>
        <time>2018-11-26T04:41:54Z</time>
      </trkpt>
      <trkpt lat="42.42259" lon="2.72252">
        <ele>1391</ele>
        <time>2018-11-26T04:41:54Z</time>
      </trkpt>
      <trkpt lat="42.42259" lon="2.72253">
        <ele>1391</ele>
        <time>2018-11-26T04:41:55Z</time>
      </trkpt>
      <trkpt lat="42.42259" lon="2.72255">
        <ele>1391.2</ele>
        <time>2018-11-26T04:41:55Z</time>
      </trkpt>
      <trkpt lat="42.42259" lon="2.72255">
        <ele>1391.7</ele>
        <time>2018-11-26T04:41:55Z</time>
      </trkpt>
      <trkpt lat="42.42259" lon="2.72256">
        <ele>1392</ele>
        <time>2018-11-26T04:41:55Z</time>
      </trkpt>
      <trkpt lat="42.42259" lon="2.72256">
        <ele>1392.6</ele>
        <time>2018-11-26T04:41:56Z</time>
      </trkpt>
      <trkpt lat="42.42259" lon="2.72257">
        <ele>1392.6</ele>
        <time>2018-11-26T04:41:56Z</time>
      </trkpt>
      <trkpt lat="42.42259" lon="2.72258">
        <ele>1392.8</ele>
        <time>2018-11-26T04:41:56Z</time>
      </trkpt>
      <trkpt lat="42.42258" lon="2.72259">
        <ele>1392.9</ele>
        <time>2018-11-26T04:41:56Z</time>
      </trkpt>
      <trkpt lat="42.42258" lon="2.7226">
        <ele>1392.8</ele>
        <time>2018-11-26T04:41:57Z</time>
      </trkpt>
      <trkpt lat="42.42258" lon="2.72261">
        <ele>1392.8</ele>
        <time>2018-11-26T04:41:57Z</time>
      </trkpt>
      <trkpt lat="42.42258" lon="2.72262">
        <ele>1392.8</ele>
        <time>2018-11-26T04:41:57Z</time>
      </trkpt>
      <trkpt lat="42.42258" lon="2.72263">
        <ele>1393.1</ele>
        <time>2018-11-26T04:41:58Z</time>
      </trkpt>
      <trkpt lat="42.42258" lon="2.72264">
        <ele>1393.5</ele>
        <time>2018-11-26T04:41:58Z</time>
      </trkpt>
      <trkpt lat="42.42258" lon="2.72264">
        <ele>1394.1</ele>
        <time>2018-11-26T04:41:58Z</time>
      </trkpt>
      <trkpt lat="42.42259" lon="2.72265">
        <ele>1394.1</ele>
        <time>2018-11-26T04:41:58Z</time>
      </trkpt>
      <trkpt lat="42.42259" lon="2.72265">
        <ele>1394.4</ele>
        <time>2018-11-26T04:41:58Z</time>
      </trkpt>
      <trkpt lat="42.4226" lon="2.72266">
        <ele>1394.5</ele>
        <time>2018-11-26T04:41:59Z</time>
      </trkpt>
      <trkpt lat="42.4226" lon="2.72267">
        <ele>1394.6</ele>
        <time>2018-11-26T04:41:59Z</time>
      </trkpt>
      <trkpt lat="42.4226" lon="2.72269">
        <ele>1394.5</ele>
        <time>2018-11-26T04:42:00Z</time>
      </trkpt>
      <trkpt lat="42.4226" lon="2.7227">
        <ele>1394.6</ele>
        <time>2018-11-26T04:42:00Z</time>
      </trkpt>
      <trkpt lat="42.42261" lon="2.7227">
        <ele>1394.7</ele>
        <time>2018-11-26T04:42:00Z</time>
      </trkpt>
      <trkpt lat="42.42261" lon="2.7227">
        <ele>1394.9</ele>
        <time>2018-11-26T04:42:00Z</time>
      </trkpt>
      <trkpt lat="42.42261" lon="2.7227">
        <ele>1395</ele>
        <time>2018-11-26T04:42:00Z</time>
      </trkpt>
      <trkpt lat="42.42261" lon="2.7227">
        <ele>1395.1</ele>
        <time>2018-11-26T04:42:00Z</time>
      </trkpt>
      <trkpt lat="42.42261" lon="2.72271">
        <ele>1395.2</ele>
        <time>2018-11-26T04:42:00Z</time>
      </trkpt>
      <trkpt lat="42.42261" lon="2.72271">
        <ele>1395.2</ele>
        <time>2018-11-26T04:42:00Z</time>
      </trkpt>
      <trkpt lat="42.42261" lon="2.72271">
        <ele>1395.2</ele>
        <time>2018-11-26T04:42:00Z</time>
      </trkpt>
      <trkpt lat="42.4226" lon="2.72271">
        <ele>1395.2</ele>
        <time>2018-11-26T04:42:01Z</time>
      </trkpt>
      <trkpt lat="42.42259" lon="2.72272">
        <ele>1394.9</ele>
        <time>2018-11-26T04:42:01Z</time>
      </trkpt>
      <trkpt lat="42.42258" lon="2.72273">
        <ele>1394.8</ele>
        <time>2018-11-26T04:42:02Z</time>
      </trkpt>
      <trkpt lat="42.42258" lon="2.72274">
        <ele>1394.7</ele>
        <time>2018-11-26T04:42:02Z</time>
      </trkpt>
      <trkpt lat="42.42258" lon="2.72275">
        <ele>1394.4</ele>
        <time>2018-11-26T04:42:02Z</time>
      </trkpt>
      <trkpt lat="42.42258" lon="2.72276">
        <ele>1394.3</ele>
        <time>2018-11-26T04:42:02Z</time>
      </trkpt>
      <trkpt lat="42.42258" lon="2.72277">
        <ele>1394.3</ele>
        <time>2018-11-26T04:42:03Z</time>
      </trkpt>
      <trkpt lat="42.42258" lon="2.72278">
        <ele>1394</ele>
        <time>2018-11-26T04:42:03Z</time>
      </trkpt>
      <trkpt lat="42.42258" lon="2.72279">
        <ele>1393.9</ele>
        <time>2018-11-26T04:42:03Z</time>
      </trkpt>
      <trkpt lat="42.42259" lon="2.72281">
        <ele>1393.7</ele>
        <time>2018-11-26T04:42:04Z</time>
      </trkpt>
      <trkpt lat="42.42261" lon="2.72289">
        <ele>1394.8</ele>
        <time>2018-11-26T04:42:06Z</time>
      </trkpt>
      <trkpt lat="42.42261" lon="2.7229">
        <ele>1394.4</ele>
        <time>2018-11-26T04:42:07Z</time>
      </trkpt>
      <trkpt lat="42.42262" lon="2.72292">
        <ele>1394.2</ele>
        <time>2018-11-26T04:42:08Z</time>
      </trkpt>
      <trkpt lat="42.42263" lon="2.72294">
        <ele>1394.7</ele>
        <time>2018-11-26T04:42:08Z</time>
      </trkpt>
      <trkpt lat="42.42264" lon="2.72295">
        <ele>1394.9</ele>
        <time>2018-11-26T04:42:09Z</time>
      </trkpt>
      <trkpt lat="42.42264" lon="2.72296">
        <ele>1395.2</ele>
        <time>2018-11-26T04:42:09Z</time>
      </trkpt>
      <trkpt lat="42.42265" lon="2.72298">
        <ele>1395.7</ele>
        <time>2018-11-26T04:42:10Z</time>
      </trkpt>
      <trkpt lat="42.42265" lon="2.72298">
        <ele>1396.2</ele>
        <time>2018-11-26T04:42:10Z</time>
      </trkpt>
      <trkpt lat="42.42266" lon="2.72299">
        <ele>1396</ele>
        <time>2018-11-26T04:42:10Z</time>
      </trkpt>
      <trkpt lat="42.42267" lon="2.72299">
        <ele>1395.7</ele>
        <time>2018-11-26T04:42:11Z</time>
      </trkpt>
      <trkpt lat="42.42268" lon="2.723">
        <ele>1395.4</ele>
        <time>2018-11-26T04:42:11Z</time>
      </trkpt>
      <trkpt lat="42.42273" lon="2.72303">
        <ele>1395.3</ele>
        <time>2018-11-26T04:42:13Z</time>
      </trkpt>
      <trkpt lat="42.42274" lon="2.72304">
        <ele>1395.4</ele>
        <time>2018-11-26T04:42:14Z</time>
      </trkpt>
      <trkpt lat="42.42275" lon="2.72304">
        <ele>1395.5</ele>
        <time>2018-11-26T04:42:14Z</time>
      </trkpt>
      <trkpt lat="42.42275" lon="2.72305">
        <ele>1395.7</ele>
        <time>2018-11-26T04:42:14Z</time>
      </trkpt>
      <trkpt lat="42.42276" lon="2.72306">
        <ele>1395.9</ele>
        <time>2018-11-26T04:42:15Z</time>
      </trkpt>
      <trkpt lat="42.42276" lon="2.72307">
        <ele>1396.3</ele>
        <time>2018-11-26T04:42:15Z</time>
      </trkpt>
      <trkpt lat="42.42277" lon="2.72308">
        <ele>1396.8</ele>
        <time>2018-11-26T04:42:15Z</time>
      </trkpt>
      <trkpt lat="42.42277" lon="2.72308">
        <ele>1397.3</ele>
        <time>2018-11-26T04:42:16Z</time>
      </trkpt>
      <trkpt lat="42.42278" lon="2.72309">
        <ele>1397.3</ele>
        <time>2018-11-26T04:42:16Z</time>
      </trkpt>
      <trkpt lat="42.42278" lon="2.7231">
        <ele>1397.4</ele>
        <time>2018-11-26T04:42:16Z</time>
      </trkpt>
      <trkpt lat="42.42279" lon="2.72312">
        <ele>1397.1</ele>
        <time>2018-11-26T04:42:17Z</time>
      </trkpt>
      <trkpt lat="42.42279" lon="2.72313">
        <ele>1396.8</ele>
        <time>2018-11-26T04:42:17Z</time>
      </trkpt>
      <trkpt lat="42.42279" lon="2.72314">
        <ele>1396.5</ele>
        <time>2018-11-26T04:42:17Z</time>
      </trkpt>
      <trkpt lat="42.4228" lon="2.72314">
        <ele>1396</ele>
        <time>2018-11-26T04:42:18Z</time>
      </trkpt>
      <trkpt lat="42.4228" lon="2.72315">
        <ele>1396.1</ele>
        <time>2018-11-26T04:42:18Z</time>
      </trkpt>
      <trkpt lat="42.4228" lon="2.72315">
        <ele>1396.2</ele>
        <time>2018-11-26T04:42:18Z</time>
      </trkpt>
      <trkpt lat="42.42281" lon="2.72317">
        <ele>1396.4</ele>
        <time>2018-11-26T04:42:18Z</time>
      </trkpt>
      <trkpt lat="42.42281" lon="2.72318">
        <ele>1396.5</ele>
        <time>2018-11-26T04:42:19Z</time>
      </trkpt>
      <trkpt lat="42.42281" lon="2.72319">
        <ele>1396.9</ele>
        <time>2018-11-26T04:42:19Z</time>
      </trkpt>
      <trkpt lat="42.42281" lon="2.7232">
        <ele>1397.2</ele>
        <time>2018-11-26T04:42:20Z</time>
      </trkpt>
      <trkpt lat="42.42282" lon="2.72321">
        <ele>1397.2</ele>
        <time>2018-11-26T04:42:20Z</time>
      </trkpt>
      <trkpt lat="42.42283" lon="2.72321">
        <ele>1397.4</ele>
        <time>2018-11-26T04:42:20Z</time>
      </trkpt>
      <trkpt lat="42.42283" lon="2.72322">
        <ele>1397.7</ele>
        <time>2018-11-26T04:42:20Z</time>
      </trkpt>
      <trkpt lat="42.42284" lon="2.72323">
        <ele>1397.9</ele>
        <time>2018-11-26T04:42:21Z</time>
      </trkpt>
      <trkpt lat="42.42284" lon="2.72324">
        <ele>1398.2</ele>
        <time>2018-11-26T04:42:21Z</time>
      </trkpt>
      <trkpt lat="42.42285" lon="2.72325">
        <ele>1398.6</ele>
        <time>2018-11-26T04:42:21Z</time>
      </trkpt>
      <trkpt lat="42.42285" lon="2.72325">
        <ele>1399</ele>
        <time>2018-11-26T04:42:22Z</time>
      </trkpt>
      <trkpt lat="42.42285" lon="2.72326">
        <ele>1399</ele>
        <time>2018-11-26T04:42:22Z</time>
      </trkpt>
      <trkpt lat="42.42286" lon="2.72327">
        <ele>1398.8</ele>
        <time>2018-11-26T04:42:22Z</time>
      </trkpt>
      <trkpt lat="42.42286" lon="2.72328">
        <ele>1398.7</ele>
        <time>2018-11-26T04:42:23Z</time>
      </trkpt>
      <trkpt lat="42.42287" lon="2.72329">
        <ele>1398.5</ele>
        <time>2018-11-26T04:42:23Z</time>
      </trkpt>
      <trkpt lat="42.42287" lon="2.72329">
        <ele>1398.4</ele>
        <time>2018-11-26T04:42:23Z</time>
      </trkpt>
      <trkpt lat="42.42287" lon="2.7233">
        <ele>1398.2</ele>
        <time>2018-11-26T04:42:23Z</time>
      </trkpt>
      <trkpt lat="42.42288" lon="2.72331">
        <ele>1398.4</ele>
        <time>2018-11-26T04:42:24Z</time>
      </trkpt>
      <trkpt lat="42.42288" lon="2.72331">
        <ele>1398.4</ele>
        <time>2018-11-26T04:42:24Z</time>
      </trkpt>
      <trkpt lat="42.42289" lon="2.72332">
        <ele>1398.6</ele>
        <time>2018-11-26T04:42:24Z</time>
      </trkpt>
      <trkpt lat="42.4229" lon="2.72333">
        <ele>1398.7</ele>
        <time>2018-11-26T04:42:25Z</time>
      </trkpt>
      <trkpt lat="42.4229" lon="2.72334">
        <ele>1398.6</ele>
        <time>2018-11-26T04:42:25Z</time>
      </trkpt>
      <trkpt lat="42.42293" lon="2.7234">
        <ele>1397.9</ele>
        <time>2018-11-26T04:42:27Z</time>
      </trkpt>
      <trkpt lat="42.42295" lon="2.72343">
        <ele>1398.4</ele>
        <time>2018-11-26T04:42:28Z</time>
      </trkpt>
      <trkpt lat="42.42295" lon="2.72343">
        <ele>1398.8</ele>
        <time>2018-11-26T04:42:28Z</time>
      </trkpt>
      <trkpt lat="42.42295" lon="2.72344">
        <ele>1399</ele>
        <time>2018-11-26T04:42:29Z</time>
      </trkpt>
      <trkpt lat="42.42296" lon="2.72344">
        <ele>1399.2</ele>
        <time>2018-11-26T04:42:29Z</time>
      </trkpt>
      <trkpt lat="42.42296" lon="2.72346">
        <ele>1399.7</ele>
        <time>2018-11-26T04:42:29Z</time>
      </trkpt>
      <trkpt lat="42.42296" lon="2.72347">
        <ele>1399.8</ele>
        <time>2018-11-26T04:42:30Z</time>
      </trkpt>
      <trkpt lat="42.42297" lon="2.72349">
        <ele>1400.2</ele>
        <time>2018-11-26T04:42:30Z</time>
      </trkpt>
      <trkpt lat="42.42297" lon="2.7235">
        <ele>1400.2</ele>
        <time>2018-11-26T04:42:31Z</time>
      </trkpt>
      <trkpt lat="42.42297" lon="2.72352">
        <ele>1400.1</ele>
        <time>2018-11-26T04:42:31Z</time>
      </trkpt>
      <trkpt lat="42.42298" lon="2.72353">
        <ele>1400</ele>
        <time>2018-11-26T04:42:31Z</time>
      </trkpt>
      <trkpt lat="42.42298" lon="2.72354">
        <ele>1400</ele>
        <time>2018-11-26T04:42:32Z</time>
      </trkpt>
      <trkpt lat="42.42298" lon="2.72355">
        <ele>1399.9</ele>
        <time>2018-11-26T04:42:32Z</time>
      </trkpt>
      <trkpt lat="42.42298" lon="2.72356">
        <ele>1399.9</ele>
        <time>2018-11-26T04:42:32Z</time>
      </trkpt>
      <trkpt lat="42.42299" lon="2.72356">
        <ele>1400.1</ele>
        <time>2018-11-26T04:42:33Z</time>
      </trkpt>
      <trkpt lat="42.42299" lon="2.72357">
        <ele>1400</ele>
        <time>2018-11-26T04:42:33Z</time>
      </trkpt>
      <trkpt lat="42.423" lon="2.72358">
        <ele>1399.9</ele>
        <time>2018-11-26T04:42:33Z</time>
      </trkpt>
      <trkpt lat="42.423" lon="2.72359">
        <ele>1399.8</ele>
        <time>2018-11-26T04:42:34Z</time>
      </trkpt>
      <trkpt lat="42.42301" lon="2.7236">
        <ele>1399.8</ele>
        <time>2018-11-26T04:42:34Z</time>
      </trkpt>
      <trkpt lat="42.42302" lon="2.72361">
        <ele>1399.8</ele>
        <time>2018-11-26T04:42:34Z</time>
      </trkpt>
      <trkpt lat="42.42302" lon="2.72362">
        <ele>1399.8</ele>
        <time>2018-11-26T04:42:35Z</time>
      </trkpt>
      <trkpt lat="42.42302" lon="2.72363">
        <ele>1399.9</ele>
        <time>2018-11-26T04:42:35Z</time>
      </trkpt>
      <trkpt lat="42.42303" lon="2.72364">
        <ele>1400.1</ele>
        <time>2018-11-26T04:42:35Z</time>
      </trkpt>
      <trkpt lat="42.42304" lon="2.72364">
        <ele>1400.3</ele>
        <time>2018-11-26T04:42:36Z</time>
      </trkpt>
      <trkpt lat="42.42304" lon="2.72365">
        <ele>1400.4</ele>
        <time>2018-11-26T04:42:36Z</time>
      </trkpt>
      <trkpt lat="42.42305" lon="2.72366">
        <ele>1400.3</ele>
        <time>2018-11-26T04:42:36Z</time>
      </trkpt>
      <trkpt lat="42.42305" lon="2.72367">
        <ele>1400.2</ele>
        <time>2018-11-26T04:42:37Z</time>
      </trkpt>
      <trkpt lat="42.42305" lon="2.72368">
        <ele>1400.2</ele>
        <time>2018-11-26T04:42:37Z</time>
      </trkpt>
      <trkpt lat="42.42306" lon="2.72369">
        <ele>1400.2</ele>
        <time>2018-11-26T04:42:37Z</time>
      </trkpt>
      <trkpt lat="42.42306" lon="2.7237">
        <ele>1400.1</ele>
        <time>2018-11-26T04:42:38Z</time>
      </trkpt>
      <trkpt lat="42.42306" lon="2.72371">
        <ele>1400</ele>
        <time>2018-11-26T04:42:38Z</time>
      </trkpt>
      <trkpt lat="42.42306" lon="2.72371">
        <ele>1400.4</ele>
        <time>2018-11-26T04:42:38Z</time>
      </trkpt>
      <trkpt lat="42.42306" lon="2.72372">
        <ele>1401</ele>
        <time>2018-11-26T04:42:38Z</time>
      </trkpt>
      <trkpt lat="42.42306" lon="2.72372">
        <ele>1401.8</ele>
        <time>2018-11-26T04:42:38Z</time>
      </trkpt>
      <trkpt lat="42.42306" lon="2.72373">
        <ele>1401.7</ele>
        <time>2018-11-26T04:42:39Z</time>
      </trkpt>
      <trkpt lat="42.42307" lon="2.72374">
        <ele>1401.6</ele>
        <time>2018-11-26T04:42:39Z</time>
      </trkpt>
      <trkpt lat="42.42307" lon="2.72374">
        <ele>1401.2</ele>
        <time>2018-11-26T04:42:39Z</time>
      </trkpt>
      <trkpt lat="42.42307" lon="2.72375">
        <ele>1401.3</ele>
        <time>2018-11-26T04:42:39Z</time>
      </trkpt>
      <trkpt lat="42.42307" lon="2.72375">
        <ele>1401.6</ele>
        <time>2018-11-26T04:42:39Z</time>
      </trkpt>
      <trkpt lat="42.42307" lon="2.72376">
        <ele>1401.8</ele>
        <time>2018-11-26T04:42:40Z</time>
      </trkpt>
      <trkpt lat="42.42307" lon="2.72377">
        <ele>1401.9</ele>
        <time>2018-11-26T04:42:40Z</time>
      </trkpt>
      <trkpt lat="42.42308" lon="2.72378">
        <ele>1402</ele>
        <time>2018-11-26T04:42:40Z</time>
      </trkpt>
      <trkpt lat="42.42308" lon="2.72378">
        <ele>1402.1</ele>
        <time>2018-11-26T04:42:40Z</time>
      </trkpt>
      <trkpt lat="42.42308" lon="2.72379">
        <ele>1402.1</ele>
        <time>2018-11-26T04:42:41Z</time>
      </trkpt>
      <trkpt lat="42.42308" lon="2.72379">
        <ele>1402.1</ele>
        <time>2018-11-26T04:42:41Z</time>
      </trkpt>
      <trkpt lat="42.42308" lon="2.7238">
        <ele>1402</ele>
        <time>2018-11-26T04:42:41Z</time>
      </trkpt>
      <trkpt lat="42.42308" lon="2.72381">
        <ele>1402.1</ele>
        <time>2018-11-26T04:42:41Z</time>
      </trkpt>
      <trkpt lat="42.42308" lon="2.72381">
        <ele>1402.2</ele>
        <time>2018-11-26T04:42:41Z</time>
      </trkpt>
      <trkpt lat="42.42308" lon="2.72382">
        <ele>1402.5</ele>
        <time>2018-11-26T04:42:41Z</time>
      </trkpt>
      <trkpt lat="42.42308" lon="2.72383">
        <ele>1403</ele>
        <time>2018-11-26T04:42:42Z</time>
      </trkpt>
      <trkpt lat="42.42309" lon="2.72383">
        <ele>1403</ele>
        <time>2018-11-26T04:42:42Z</time>
      </trkpt>
      <trkpt lat="42.42309" lon="2.72384">
        <ele>1403.2</ele>
        <time>2018-11-26T04:42:42Z</time>
      </trkpt>
      <trkpt lat="42.42309" lon="2.72385">
        <ele>1403.4</ele>
        <time>2018-11-26T04:42:42Z</time>
      </trkpt>
      <trkpt lat="42.42309" lon="2.72386">
        <ele>1403.6</ele>
        <time>2018-11-26T04:42:43Z</time>
      </trkpt>
      <trkpt lat="42.42309" lon="2.72387">
        <ele>1403.7</ele>
        <time>2018-11-26T04:42:43Z</time>
      </trkpt>
      <trkpt lat="42.42309" lon="2.72387">
        <ele>1404</ele>
        <time>2018-11-26T04:42:43Z</time>
      </trkpt>
      <trkpt lat="42.42309" lon="2.72388">
        <ele>1404.2</ele>
        <time>2018-11-26T04:42:43Z</time>
      </trkpt>
      <trkpt lat="42.42309" lon="2.72389">
        <ele>1404.3</ele>
        <time>2018-11-26T04:42:43Z</time>
      </trkpt>
      <trkpt lat="42.42309" lon="2.72389">
        <ele>1404.5</ele>
        <time>2018-11-26T04:42:44Z</time>
      </trkpt>
      <trkpt lat="42.42309" lon="2.7239">
        <ele>1404.8</ele>
        <time>2018-11-26T04:42:44Z</time>
      </trkpt>
      <trkpt lat="42.42309" lon="2.72391">
        <ele>1405</ele>
        <time>2018-11-26T04:42:44Z</time>
      </trkpt>
      <trkpt lat="42.42309" lon="2.72392">
        <ele>1405.4</ele>
        <time>2018-11-26T04:42:44Z</time>
      </trkpt>
      <trkpt lat="42.42309" lon="2.72392">
        <ele>1405.4</ele>
        <time>2018-11-26T04:42:45Z</time>
      </trkpt>
      <trkpt lat="42.4231" lon="2.72393">
        <ele>1405.4</ele>
        <time>2018-11-26T04:42:45Z</time>
      </trkpt>
      <trkpt lat="42.4231" lon="2.72393">
        <ele>1405.5</ele>
        <time>2018-11-26T04:42:45Z</time>
      </trkpt>
      <trkpt lat="42.4231" lon="2.72394">
        <ele>1405.4</ele>
        <time>2018-11-26T04:42:45Z</time>
      </trkpt>
      <trkpt lat="42.42311" lon="2.72395">
        <ele>1405.6</ele>
        <time>2018-11-26T04:42:46Z</time>
      </trkpt>
      <trkpt lat="42.42311" lon="2.72396">
        <ele>1405.8</ele>
        <time>2018-11-26T04:42:46Z</time>
      </trkpt>
      <trkpt lat="42.42311" lon="2.72397">
        <ele>1406.1</ele>
        <time>2018-11-26T04:42:46Z</time>
      </trkpt>
      <trkpt lat="42.42311" lon="2.72398">
        <ele>1406.2</ele>
        <time>2018-11-26T04:42:46Z</time>
      </trkpt>
      <trkpt lat="42.4231" lon="2.72399">
        <ele>1406.2</ele>
        <time>2018-11-26T04:42:47Z</time>
      </trkpt>
      <trkpt lat="42.42311" lon="2.72399">
        <ele>1406.2</ele>
        <time>2018-11-26T04:42:47Z</time>
      </trkpt>
      <trkpt lat="42.42311" lon="2.724">
        <ele>1406</ele>
        <time>2018-11-26T04:42:47Z</time>
      </trkpt>
      <trkpt lat="42.42311" lon="2.72401">
        <ele>1405.9</ele>
        <time>2018-11-26T04:42:47Z</time>
      </trkpt>
      <trkpt lat="42.42312" lon="2.72401">
        <ele>1405.8</ele>
        <time>2018-11-26T04:42:48Z</time>
      </trkpt>
      <trkpt lat="42.42312" lon="2.72402">
        <ele>1405.9</ele>
        <time>2018-11-26T04:42:48Z</time>
      </trkpt>
      <trkpt lat="42.42312" lon="2.72403">
        <ele>1406</ele>
        <time>2018-11-26T04:42:48Z</time>
      </trkpt>
      <trkpt lat="42.42312" lon="2.72404">
        <ele>1406.2</ele>
        <time>2018-11-26T04:42:48Z</time>
      </trkpt>
      <trkpt lat="42.42312" lon="2.72405">
        <ele>1406.2</ele>
        <time>2018-11-26T04:42:49Z</time>
      </trkpt>
      <trkpt lat="42.42313" lon="2.72406">
        <ele>1406.5</ele>
        <time>2018-11-26T04:42:49Z</time>
      </trkpt>
      <trkpt lat="42.42313" lon="2.72407">
        <ele>1406.7</ele>
        <time>2018-11-26T04:42:49Z</time>
      </trkpt>
      <trkpt lat="42.42313" lon="2.72408">
        <ele>1407.1</ele>
        <time>2018-11-26T04:42:50Z</time>
      </trkpt>
      <trkpt lat="42.42313" lon="2.72409">
        <ele>1407</ele>
        <time>2018-11-26T04:42:50Z</time>
      </trkpt>
      <trkpt lat="42.42313" lon="2.72409">
        <ele>1407.1</ele>
        <time>2018-11-26T04:42:50Z</time>
      </trkpt>
      <trkpt lat="42.42313" lon="2.72409">
        <ele>1407.3</ele>
        <time>2018-11-26T04:42:50Z</time>
      </trkpt>
      <trkpt lat="42.42313" lon="2.72409">
        <ele>1407.1</ele>
        <time>2018-11-26T04:42:50Z</time>
      </trkpt>
      <trkpt lat="42.42313" lon="2.72409">
        <ele>1406.7</ele>
        <time>2018-11-26T04:42:50Z</time>
      </trkpt>
      <trkpt lat="42.42313" lon="2.72409">
        <ele>1406.4</ele>
        <time>2018-11-26T04:42:50Z</time>
      </trkpt>
      <trkpt lat="42.42313" lon="2.7241">
        <ele>1406.2</ele>
        <time>2018-11-26T04:42:50Z</time>
      </trkpt>
      <trkpt lat="42.42313" lon="2.7241">
        <ele>1406.1</ele>
        <time>2018-11-26T04:42:50Z</time>
      </trkpt>
      <trkpt lat="42.42313" lon="2.7241">
        <ele>1406</ele>
        <time>2018-11-26T04:42:50Z</time>
      </trkpt>
      <trkpt lat="42.42313" lon="2.7241">
        <ele>1406.1</ele>
        <time>2018-11-26T04:42:50Z</time>
      </trkpt>
      <trkpt lat="42.42312" lon="2.7241">
        <ele>1406.1</ele>
        <time>2018-11-26T04:42:51Z</time>
      </trkpt>
      <trkpt lat="42.42312" lon="2.7241">
        <ele>1406.3</ele>
        <time>2018-11-26T04:42:51Z</time>
      </trkpt>
      <trkpt lat="42.42312" lon="2.7241">
        <ele>1406.2</ele>
        <time>2018-11-26T04:42:51Z</time>
      </trkpt>
      <trkpt lat="42.42312" lon="2.7241">
        <ele>1406.2</ele>
        <time>2018-11-26T04:42:51Z</time>
      </trkpt>
      <trkpt lat="42.42312" lon="2.7241">
        <ele>1406</ele>
        <time>2018-11-26T04:42:51Z</time>
      </trkpt>
      <trkpt lat="42.42312" lon="2.7241">
        <ele>1405.9</ele>
        <time>2018-11-26T04:42:51Z</time>
      </trkpt>
      <trkpt lat="42.42312" lon="2.7241">
        <ele>1405.9</ele>
        <time>2018-11-26T04:42:51Z</time>
      </trkpt>
      <trkpt lat="42.42312" lon="2.7241">
        <ele>1406</ele>
        <time>2018-11-26T04:42:51Z</time>
      </trkpt>
      <trkpt lat="42.42312" lon="2.7241">
        <ele>1406.2</ele>
        <time>2018-11-26T04:42:51Z</time>
      </trkpt>
      <trkpt lat="42.42312" lon="2.7241">
        <ele>1406.5</ele>
        <time>2018-11-26T04:42:51Z</time>
      </trkpt>
      <trkpt lat="42.42312" lon="2.7241">
        <ele>1406.7</ele>
        <time>2018-11-26T04:42:51Z</time>
      </trkpt>
      <trkpt lat="42.42312" lon="2.7241">
        <ele>1407.2</ele>
        <time>2018-11-26T04:42:51Z</time>
      </trkpt>
      <trkpt lat="42.42312" lon="2.7241">
        <ele>1407.2</ele>
        <time>2018-11-26T04:42:51Z</time>
      </trkpt>
      <trkpt lat="42.42312" lon="2.72411">
        <ele>1407.3</ele>
        <time>2018-11-26T04:42:51Z</time>
      </trkpt>
      <trkpt lat="42.42312" lon="2.72412">
        <ele>1407.1</ele>
        <time>2018-11-26T04:42:51Z</time>
      </trkpt>
      <trkpt lat="42.42312" lon="2.72413">
        <ele>1407.1</ele>
        <time>2018-11-26T04:42:52Z</time>
      </trkpt>
      <trkpt lat="42.42312" lon="2.72414">
        <ele>1406.9</ele>
        <time>2018-11-26T04:42:52Z</time>
      </trkpt>
      <trkpt lat="42.42311" lon="2.72414">
        <ele>1406.8</ele>
        <time>2018-11-26T04:42:52Z</time>
      </trkpt>
      <trkpt lat="42.4231" lon="2.72417">
        <ele>1407.9</ele>
        <time>2018-11-26T04:42:53Z</time>
      </trkpt>
      <trkpt lat="42.42309" lon="2.72417">
        <ele>1407.6</ele>
        <time>2018-11-26T04:42:54Z</time>
      </trkpt>
      <trkpt lat="42.42309" lon="2.72418">
        <ele>1407.5</ele>
        <time>2018-11-26T04:42:54Z</time>
      </trkpt>
      <trkpt lat="42.42309" lon="2.72418">
        <ele>1407.4</ele>
        <time>2018-11-26T04:42:54Z</time>
      </trkpt>
      <trkpt lat="42.42309" lon="2.72419">
        <ele>1407.3</ele>
        <time>2018-11-26T04:42:54Z</time>
      </trkpt>
      <trkpt lat="42.42309" lon="2.7242">
        <ele>1407.3</ele>
        <time>2018-11-26T04:42:54Z</time>
      </trkpt>
      <trkpt lat="42.42309" lon="2.72421">
        <ele>1407.4</ele>
        <time>2018-11-26T04:42:55Z</time>
      </trkpt>
      <trkpt lat="42.42309" lon="2.72422">
        <ele>1407.5</ele>
        <time>2018-11-26T04:42:55Z</time>
      </trkpt>
      <trkpt lat="42.42309" lon="2.72423">
        <ele>1407.7</ele>
        <time>2018-11-26T04:42:55Z</time>
      </trkpt>
      <trkpt lat="42.42309" lon="2.72424">
        <ele>1407.7</ele>
        <time>2018-11-26T04:42:56Z</time>
      </trkpt>
      <trkpt lat="42.42309" lon="2.72425">
        <ele>1407.6</ele>
        <time>2018-11-26T04:42:56Z</time>
      </trkpt>
      <trkpt lat="42.42309" lon="2.72426">
        <ele>1407.5</ele>
        <time>2018-11-26T04:42:56Z</time>
      </trkpt>
      <trkpt lat="42.42308" lon="2.72427">
        <ele>1407.1</ele>
        <time>2018-11-26T04:42:56Z</time>
      </trkpt>
      <trkpt lat="42.42308" lon="2.72428">
        <ele>1406.8</ele>
        <time>2018-11-26T04:42:57Z</time>
      </trkpt>
      <trkpt lat="42.42308" lon="2.72429">
        <ele>1406.4</ele>
        <time>2018-11-26T04:42:57Z</time>
      </trkpt>
      <trkpt lat="42.42308" lon="2.7243">
        <ele>1406.6</ele>
        <time>2018-11-26T04:42:57Z</time>
      </trkpt>
      <trkpt lat="42.42309" lon="2.7243">
        <ele>1406.7</ele>
        <time>2018-11-26T04:42:58Z</time>
      </trkpt>
      <trkpt lat="42.42308" lon="2.72431">
        <ele>1406.8</ele>
        <time>2018-11-26T04:42:58Z</time>
      </trkpt>
      <trkpt lat="42.42309" lon="2.72432">
        <ele>1407</ele>
        <time>2018-11-26T04:42:58Z</time>
      </trkpt>
      <trkpt lat="42.42309" lon="2.72432">
        <ele>1407.1</ele>
        <time>2018-11-26T04:42:58Z</time>
      </trkpt>
      <trkpt lat="42.42309" lon="2.72432">
        <ele>1407.3</ele>
        <time>2018-11-26T04:42:58Z</time>
      </trkpt>
      <trkpt lat="42.42308" lon="2.72434">
        <ele>1407.7</ele>
        <time>2018-11-26T04:42:59Z</time>
      </trkpt>
      <trkpt lat="42.42308" lon="2.72435">
        <ele>1407.8</ele>
        <time>2018-11-26T04:42:59Z</time>
      </trkpt>
      <trkpt lat="42.42308" lon="2.72436">
        <ele>1407.9</ele>
        <time>2018-11-26T04:42:59Z</time>
      </trkpt>
      <trkpt lat="42.42308" lon="2.72437">
        <ele>1407.5</ele>
        <time>2018-11-26T04:43:00Z</time>
      </trkpt>
      <trkpt lat="42.42308" lon="2.72438">
        <ele>1407.3</ele>
        <time>2018-11-26T04:43:00Z</time>
      </trkpt>
      <trkpt lat="42.42308" lon="2.72439">
        <ele>1407.2</ele>
        <time>2018-11-26T04:43:00Z</time>
      </trkpt>
      <trkpt lat="42.42307" lon="2.7244">
        <ele>1407.3</ele>
        <time>2018-11-26T04:43:01Z</time>
      </trkpt>
      <trkpt lat="42.42307" lon="2.72441">
        <ele>1407.4</ele>
        <time>2018-11-26T04:43:01Z</time>
      </trkpt>
      <trkpt lat="42.42307" lon="2.72442">
        <ele>1407.2</ele>
        <time>2018-11-26T04:43:01Z</time>
      </trkpt>
      <trkpt lat="42.42307" lon="2.72443">
        <ele>1406.9</ele>
        <time>2018-11-26T04:43:01Z</time>
      </trkpt>
      <trkpt lat="42.42306" lon="2.72443">
        <ele>1406.6</ele>
        <time>2018-11-26T04:43:02Z</time>
      </trkpt>
      <trkpt lat="42.42307" lon="2.72443">
        <ele>1406.2</ele>
        <time>2018-11-26T04:43:02Z</time>
      </trkpt>
      <trkpt lat="42.42307" lon="2.72443">
        <ele>1405.8</ele>
        <time>2018-11-26T04:43:02Z</time>
      </trkpt>
      <trkpt lat="42.42307" lon="2.72444">
        <ele>1406.2</ele>
        <time>2018-11-26T04:43:02Z</time>
      </trkpt>
      <trkpt lat="42.42307" lon="2.72444">
        <ele>1406.5</ele>
        <time>2018-11-26T04:43:02Z</time>
      </trkpt>
      <trkpt lat="42.42307" lon="2.72444">
        <ele>1406.8</ele>
        <time>2018-11-26T04:43:02Z</time>
      </trkpt>
      <trkpt lat="42.42307" lon="2.72444">
        <ele>1407</ele>
        <time>2018-11-26T04:43:02Z</time>
      </trkpt>
      <trkpt lat="42.42307" lon="2.72444">
        <ele>1407</ele>
        <time>2018-11-26T04:43:02Z</time>
      </trkpt>
      <trkpt lat="42.42307" lon="2.72444">
        <ele>1406.9</ele>
        <time>2018-11-26T04:43:02Z</time>
      </trkpt>
      <trkpt lat="42.42307" lon="2.72444">
        <ele>1406.9</ele>
        <time>2018-11-26T04:43:02Z</time>
      </trkpt>
      <trkpt lat="42.42307" lon="2.72444">
        <ele>1406.9</ele>
        <time>2018-11-26T04:43:02Z</time>
      </trkpt>
      <trkpt lat="42.42307" lon="2.72444">
        <ele>1406.6</ele>
        <time>2018-11-26T04:43:02Z</time>
      </trkpt>
      <trkpt lat="42.42307" lon="2.72445">
        <ele>1406.6</ele>
        <time>2018-11-26T04:43:02Z</time>
      </trkpt>
      <trkpt lat="42.42307" lon="2.72447">
        <ele>1406.5</ele>
        <time>2018-11-26T04:43:03Z</time>
      </trkpt>
      <trkpt lat="42.42307" lon="2.72448">
        <ele>1406.3</ele>
        <time>2018-11-26T04:43:03Z</time>
      </trkpt>
      <trkpt lat="42.42307" lon="2.72449">
        <ele>1406.5</ele>
        <time>2018-11-26T04:43:03Z</time>
      </trkpt>
      <trkpt lat="42.42307" lon="2.7245">
        <ele>1406.4</ele>
        <time>2018-11-26T04:43:04Z</time>
      </trkpt>
      <trkpt lat="42.42307" lon="2.72451">
        <ele>1406.6</ele>
        <time>2018-11-26T04:43:04Z</time>
      </trkpt>
      <trkpt lat="42.42307" lon="2.72452">
        <ele>1406.4</ele>
        <time>2018-11-26T04:43:04Z</time>
      </trkpt>
      <trkpt lat="42.42307" lon="2.72451">
        <ele>1406.5</ele>
        <time>2018-11-26T04:43:04Z</time>
      </trkpt>
      <trkpt lat="42.42307" lon="2.72452">
        <ele>1406.3</ele>
        <time>2018-11-26T04:43:04Z</time>
      </trkpt>
      <trkpt lat="42.42307" lon="2.72452">
        <ele>1406.2</ele>
        <time>2018-11-26T04:43:04Z</time>
      </trkpt>
      <trkpt lat="42.42307" lon="2.72452">
        <ele>1406</ele>
        <time>2018-11-26T04:43:04Z</time>
      </trkpt>
      <trkpt lat="42.42307" lon="2.72452">
        <ele>1405.8</ele>
        <time>2018-11-26T04:43:04Z</time>
      </trkpt>
      <trkpt lat="42.42307" lon="2.72452">
        <ele>1405.5</ele>
        <time>2018-11-26T04:43:04Z</time>
      </trkpt>
      <trkpt lat="42.42307" lon="2.72452">
        <ele>1405.3</ele>
        <time>2018-11-26T04:43:04Z</time>
      </trkpt>
      <trkpt lat="42.42307" lon="2.72452">
        <ele>1404.9</ele>
        <time>2018-11-26T04:43:04Z</time>
      </trkpt>
      <trkpt lat="42.42307" lon="2.72452">
        <ele>1405.1</ele>
        <time>2018-11-26T04:43:04Z</time>
      </trkpt>
      <trkpt lat="42.42307" lon="2.72452">
        <ele>1405.2</ele>
        <time>2018-11-26T04:43:04Z</time>
      </trkpt>
      <trkpt lat="42.42307" lon="2.72452">
        <ele>1405.5</ele>
        <time>2018-11-26T04:43:05Z</time>
      </trkpt>
      <trkpt lat="42.42307" lon="2.72452">
        <ele>1405.8</ele>
        <time>2018-11-26T04:43:05Z</time>
      </trkpt>
      <trkpt lat="42.42307" lon="2.72452">
        <ele>1405.8</ele>
        <time>2018-11-26T04:43:05Z</time>
      </trkpt>
      <trkpt lat="42.42307" lon="2.72452">
        <ele>1405.9</ele>
        <time>2018-11-26T04:43:05Z</time>
      </trkpt>
      <trkpt lat="42.42307" lon="2.72453">
        <ele>1406.2</ele>
        <time>2018-11-26T04:43:05Z</time>
      </trkpt>
      <trkpt lat="42.42306" lon="2.72453">
        <ele>1406.1</ele>
        <time>2018-11-26T04:43:05Z</time>
      </trkpt>
      <trkpt lat="42.42306" lon="2.72454">
        <ele>1405.9</ele>
        <time>2018-11-26T04:43:05Z</time>
      </trkpt>
      <trkpt lat="42.42305" lon="2.72456">
        <ele>1405.4</ele>
        <time>2018-11-26T04:43:06Z</time>
      </trkpt>
      <trkpt lat="42.42305" lon="2.72457">
        <ele>1405.1</ele>
        <time>2018-11-26T04:43:06Z</time>
      </trkpt>
      <trkpt lat="42.42305" lon="2.72458">
        <ele>1404.7</ele>
        <time>2018-11-26T04:43:06Z</time>
      </trkpt>
      <trkpt lat="42.42304" lon="2.72459">
        <ele>1404.8</ele>
        <time>2018-11-26T04:43:07Z</time>
      </trkpt>
      <trkpt lat="42.42304" lon="2.7246">
        <ele>1404.9</ele>
        <time>2018-11-26T04:43:07Z</time>
      </trkpt>
      <trkpt lat="42.42304" lon="2.7246">
        <ele>1405.1</ele>
        <time>2018-11-26T04:43:07Z</time>
      </trkpt>
      <trkpt lat="42.42303" lon="2.72462">
        <ele>1405.3</ele>
        <time>2018-11-26T04:43:08Z</time>
      </trkpt>
      <trkpt lat="42.42302" lon="2.72463">
        <ele>1405.5</ele>
        <time>2018-11-26T04:43:08Z</time>
      </trkpt>
      <trkpt lat="42.42302" lon="2.72464">
        <ele>1405.5</ele>
        <time>2018-11-26T04:43:08Z</time>
      </trkpt>
      <trkpt lat="42.42302" lon="2.72464">
        <ele>1405.2</ele>
        <time>2018-11-26T04:43:09Z</time>
      </trkpt>
      <trkpt lat="42.42301" lon="2.72465">
        <ele>1405</ele>
        <time>2018-11-26T04:43:09Z</time>
      </trkpt>
      <trkpt lat="42.42301" lon="2.72466">
        <ele>1404.6</ele>
        <time>2018-11-26T04:43:09Z</time>
      </trkpt>
      <trkpt lat="42.42301" lon="2.72467">
        <ele>1404.4</ele>
        <time>2018-11-26T04:43:10Z</time>
      </trkpt>
      <trkpt lat="42.42301" lon="2.72468">
        <ele>1404.3</ele>
        <time>2018-11-26T04:43:10Z</time>
      </trkpt>
      <trkpt lat="42.42301" lon="2.72469">
        <ele>1404</ele>
        <time>2018-11-26T04:43:10Z</time>
      </trkpt>
      <trkpt lat="42.423" lon="2.72469">
        <ele>1403.9</ele>
        <time>2018-11-26T04:43:10Z</time>
      </trkpt>
      <trkpt lat="42.423" lon="2.7247">
        <ele>1403.7</ele>
        <time>2018-11-26T04:43:10Z</time>
      </trkpt>
      <trkpt lat="42.423" lon="2.7247">
        <ele>1403.5</ele>
        <time>2018-11-26T04:43:11Z</time>
      </trkpt>
      <trkpt lat="42.423" lon="2.72471">
        <ele>1403.7</ele>
        <time>2018-11-26T04:43:11Z</time>
      </trkpt>
      <trkpt lat="42.42299" lon="2.72472">
        <ele>1403.9</ele>
        <time>2018-11-26T04:43:11Z</time>
      </trkpt>
      <trkpt lat="42.42298" lon="2.72475">
        <ele>1403.5</ele>
        <time>2018-11-26T04:43:12Z</time>
      </trkpt>
      <trkpt lat="42.42297" lon="2.72475">
        <ele>1403.2</ele>
        <time>2018-11-26T04:43:12Z</time>
      </trkpt>
      <trkpt lat="42.42297" lon="2.72476">
        <ele>1403.2</ele>
        <time>2018-11-26T04:43:13Z</time>
      </trkpt>
      <trkpt lat="42.42296" lon="2.72477">
        <ele>1403.2</ele>
        <time>2018-11-26T04:43:13Z</time>
      </trkpt>
      <trkpt lat="42.42296" lon="2.72477">
        <ele>1403.2</ele>
        <time>2018-11-26T04:43:13Z</time>
      </trkpt>
      <trkpt lat="42.42296" lon="2.72478">
        <ele>1403</ele>
        <time>2018-11-26T04:43:14Z</time>
      </trkpt>
      <trkpt lat="42.42296" lon="2.72479">
        <ele>1403.1</ele>
        <time>2018-11-26T04:43:14Z</time>
      </trkpt>
      <trkpt lat="42.42296" lon="2.7248">
        <ele>1403.3</ele>
        <time>2018-11-26T04:43:14Z</time>
      </trkpt>
      <trkpt lat="42.42297" lon="2.7248">
        <ele>1403.4</ele>
        <time>2018-11-26T04:43:14Z</time>
      </trkpt>
      <trkpt lat="42.42298" lon="2.7248">
        <ele>1403.2</ele>
        <time>2018-11-26T04:43:15Z</time>
      </trkpt>
      <trkpt lat="42.42298" lon="2.72482">
        <ele>1402.5</ele>
        <time>2018-11-26T04:43:15Z</time>
      </trkpt>
      <trkpt lat="42.42299" lon="2.72482">
        <ele>1402.5</ele>
        <time>2018-11-26T04:43:15Z</time>
      </trkpt>
      <trkpt lat="42.42299" lon="2.72482">
        <ele>1402.2</ele>
        <time>2018-11-26T04:43:15Z</time>
      </trkpt>
      <trkpt lat="42.42299" lon="2.72482">
        <ele>1402</ele>
        <time>2018-11-26T04:43:15Z</time>
      </trkpt>
      <trkpt lat="42.42299" lon="2.72482">
        <ele>1402.1</ele>
        <time>2018-11-26T04:43:15Z</time>
      </trkpt>
      <trkpt lat="42.42299" lon="2.72482">
        <ele>1402.2</ele>
        <time>2018-11-26T04:43:16Z</time>
      </trkpt>
      <trkpt lat="42.423" lon="2.72483">
        <ele>1402.4</ele>
        <time>2018-11-26T04:43:16Z</time>
      </trkpt>
      <trkpt lat="42.423" lon="2.72483">
        <ele>1402.8</ele>
        <time>2018-11-26T04:43:16Z</time>
      </trkpt>
      <trkpt lat="42.42301" lon="2.72483">
        <ele>1402.9</ele>
        <time>2018-11-26T04:43:16Z</time>
      </trkpt>
      <trkpt lat="42.42301" lon="2.72484">
        <ele>1403.2</ele>
        <time>2018-11-26T04:43:16Z</time>
      </trkpt>
      <trkpt lat="42.42301" lon="2.72485">
        <ele>1403.7</ele>
        <time>2018-11-26T04:43:17Z</time>
      </trkpt>
      <trkpt lat="42.42301" lon="2.72486">
        <ele>1403.6</ele>
        <time>2018-11-26T04:43:17Z</time>
      </trkpt>
      <trkpt lat="42.42302" lon="2.72487">
        <ele>1403.7</ele>
        <time>2018-11-26T04:43:17Z</time>
      </trkpt>
      <trkpt lat="42.42302" lon="2.72488">
        <ele>1403.8</ele>
        <time>2018-11-26T04:43:18Z</time>
      </trkpt>
      <trkpt lat="42.42302" lon="2.72489">
        <ele>1403.7</ele>
        <time>2018-11-26T04:43:18Z</time>
      </trkpt>
      <trkpt lat="42.42302" lon="2.7249">
        <ele>1403.5</ele>
        <time>2018-11-26T04:43:18Z</time>
      </trkpt>
      <trkpt lat="42.42301" lon="2.72498">
        <ele>1403.1</ele>
        <time>2018-11-26T04:43:21Z</time>
      </trkpt>
      <trkpt lat="42.42301" lon="2.72499">
        <ele>1403.2</ele>
        <time>2018-11-26T04:43:21Z</time>
      </trkpt>
      <trkpt lat="42.42301" lon="2.725">
        <ele>1403</ele>
        <time>2018-11-26T04:43:21Z</time>
      </trkpt>
      <trkpt lat="42.42301" lon="2.72501">
        <ele>1402.9</ele>
        <time>2018-11-26T04:43:22Z</time>
      </trkpt>
      <trkpt lat="42.42301" lon="2.72503">
        <ele>1402.6</ele>
        <time>2018-11-26T04:43:22Z</time>
      </trkpt>
      <trkpt lat="42.42302" lon="2.72504">
        <ele>1402.3</ele>
        <time>2018-11-26T04:43:23Z</time>
      </trkpt>
      <trkpt lat="42.42302" lon="2.72505">
        <ele>1402.3</ele>
        <time>2018-11-26T04:43:23Z</time>
      </trkpt>
      <trkpt lat="42.42302" lon="2.72507">
        <ele>1402.4</ele>
        <time>2018-11-26T04:43:24Z</time>
      </trkpt>
      <trkpt lat="42.42303" lon="2.72508">
        <ele>1402.5</ele>
        <time>2018-11-26T04:43:24Z</time>
      </trkpt>
      <trkpt lat="42.42303" lon="2.7251">
        <ele>1402.4</ele>
        <time>2018-11-26T04:43:24Z</time>
      </trkpt>
      <trkpt lat="42.42303" lon="2.72511">
        <ele>1402.4</ele>
        <time>2018-11-26T04:43:25Z</time>
      </trkpt>
      <trkpt lat="42.42303" lon="2.72512">
        <ele>1402.4</ele>
        <time>2018-11-26T04:43:25Z</time>
      </trkpt>
      <trkpt lat="42.42303" lon="2.72513">
        <ele>1402.6</ele>
        <time>2018-11-26T04:43:25Z</time>
      </trkpt>
      <trkpt lat="42.42303" lon="2.72515">
        <ele>1402.6</ele>
        <time>2018-11-26T04:43:26Z</time>
      </trkpt>
      <trkpt lat="42.42303" lon="2.72516">
        <ele>1402.7</ele>
        <time>2018-11-26T04:43:26Z</time>
      </trkpt>
      <trkpt lat="42.42303" lon="2.72518">
        <ele>1402.8</ele>
        <time>2018-11-26T04:43:27Z</time>
      </trkpt>
      <trkpt lat="42.42303" lon="2.72519">
        <ele>1403.2</ele>
        <time>2018-11-26T04:43:27Z</time>
      </trkpt>
      <trkpt lat="42.42302" lon="2.72521">
        <ele>1404</ele>
        <time>2018-11-26T04:43:28Z</time>
      </trkpt>
      <trkpt lat="42.42302" lon="2.72522">
        <ele>1404.7</ele>
        <time>2018-11-26T04:43:28Z</time>
      </trkpt>
      <trkpt lat="42.42302" lon="2.72523">
        <ele>1404.7</ele>
        <time>2018-11-26T04:43:29Z</time>
      </trkpt>
      <trkpt lat="42.42301" lon="2.72523">
        <ele>1404.7</ele>
        <time>2018-11-26T04:43:29Z</time>
      </trkpt>
      <trkpt lat="42.423" lon="2.72524">
        <ele>1404.8</ele>
        <time>2018-11-26T04:43:29Z</time>
      </trkpt>
      <trkpt lat="42.423" lon="2.72525">
        <ele>1404.6</ele>
        <time>2018-11-26T04:43:29Z</time>
      </trkpt>
      <trkpt lat="42.423" lon="2.72526">
        <ele>1404.6</ele>
        <time>2018-11-26T04:43:30Z</time>
      </trkpt>
      <trkpt lat="42.42299" lon="2.72527">
        <ele>1404.3</ele>
        <time>2018-11-26T04:43:30Z</time>
      </trkpt>
      <trkpt lat="42.42299" lon="2.72529">
        <ele>1404.6</ele>
        <time>2018-11-26T04:43:31Z</time>
      </trkpt>
      <trkpt lat="42.42299" lon="2.7253">
        <ele>1404.7</ele>
        <time>2018-11-26T04:43:31Z</time>
      </trkpt>
      <trkpt lat="42.42299" lon="2.72531">
        <ele>1405</ele>
        <time>2018-11-26T04:43:31Z</time>
      </trkpt>
      <trkpt lat="42.42299" lon="2.72532">
        <ele>1405</ele>
        <time>2018-11-26T04:43:31Z</time>
      </trkpt>
      <trkpt lat="42.42299" lon="2.72533">
        <ele>1404.9</ele>
        <time>2018-11-26T04:43:32Z</time>
      </trkpt>
      <trkpt lat="42.42299" lon="2.72534">
        <ele>1404.8</ele>
        <time>2018-11-26T04:43:32Z</time>
      </trkpt>
      <trkpt lat="42.42299" lon="2.72535">
        <ele>1404.9</ele>
        <time>2018-11-26T04:43:32Z</time>
      </trkpt>
      <trkpt lat="42.42299" lon="2.72536">
        <ele>1404.9</ele>
        <time>2018-11-26T04:43:33Z</time>
      </trkpt>
      <trkpt lat="42.423" lon="2.72536">
        <ele>1404.9</ele>
        <time>2018-11-26T04:43:33Z</time>
      </trkpt>
      <trkpt lat="42.423" lon="2.72537">
        <ele>1405</ele>
        <time>2018-11-26T04:43:33Z</time>
      </trkpt>
      <trkpt lat="42.423" lon="2.72537">
        <ele>1404.9</ele>
        <time>2018-11-26T04:43:33Z</time>
      </trkpt>
      <trkpt lat="42.423" lon="2.72537">
        <ele>1404.8</ele>
        <time>2018-11-26T04:43:33Z</time>
      </trkpt>
      <trkpt lat="42.423" lon="2.72538">
        <ele>1404.7</ele>
        <time>2018-11-26T04:43:33Z</time>
      </trkpt>
      <trkpt lat="42.423" lon="2.72538">
        <ele>1404.9</ele>
        <time>2018-11-26T04:43:34Z</time>
      </trkpt>
      <trkpt lat="42.423" lon="2.72539">
        <ele>1405.2</ele>
        <time>2018-11-26T04:43:34Z</time>
      </trkpt>
      <trkpt lat="42.423" lon="2.7254">
        <ele>1405.7</ele>
        <time>2018-11-26T04:43:34Z</time>
      </trkpt>
      <trkpt lat="42.423" lon="2.72541">
        <ele>1405.8</ele>
        <time>2018-11-26T04:43:34Z</time>
      </trkpt>
      <trkpt lat="42.423" lon="2.72541">
        <ele>1405.9</ele>
        <time>2018-11-26T04:43:34Z</time>
      </trkpt>
      <trkpt lat="42.423" lon="2.72542">
        <ele>1406</ele>
        <time>2018-11-26T04:43:35Z</time>
      </trkpt>
      <trkpt lat="42.423" lon="2.72543">
        <ele>1406.1</ele>
        <time>2018-11-26T04:43:35Z</time>
      </trkpt>
      <trkpt lat="42.423" lon="2.72543">
        <ele>1406.3</ele>
        <time>2018-11-26T04:43:35Z</time>
      </trkpt>
      <trkpt lat="42.423" lon="2.72544">
        <ele>1406.4</ele>
        <time>2018-11-26T04:43:35Z</time>
      </trkpt>
      <trkpt lat="42.423" lon="2.72545">
        <ele>1406.6</ele>
        <time>2018-11-26T04:43:36Z</time>
      </trkpt>
      <trkpt lat="42.42301" lon="2.72546">
        <ele>1406.8</ele>
        <time>2018-11-26T04:43:36Z</time>
      </trkpt>
      <trkpt lat="42.423" lon="2.72547">
        <ele>1406.8</ele>
        <time>2018-11-26T04:43:36Z</time>
      </trkpt>
      <trkpt lat="42.423" lon="2.72547">
        <ele>1406.9</ele>
        <time>2018-11-26T04:43:36Z</time>
      </trkpt>
      <trkpt lat="42.423" lon="2.72547">
        <ele>1407.1</ele>
        <time>2018-11-26T04:43:36Z</time>
      </trkpt>
      <trkpt lat="42.423" lon="2.72548">
        <ele>1407.4</ele>
        <time>2018-11-26T04:43:36Z</time>
      </trkpt>
      <trkpt lat="42.423" lon="2.72548">
        <ele>1407.2</ele>
        <time>2018-11-26T04:43:37Z</time>
      </trkpt>
      <trkpt lat="42.423" lon="2.72549">
        <ele>1407.3</ele>
        <time>2018-11-26T04:43:37Z</time>
      </trkpt>
      <trkpt lat="42.423" lon="2.7255">
        <ele>1407.2</ele>
        <time>2018-11-26T04:43:37Z</time>
      </trkpt>
      <trkpt lat="42.423" lon="2.72551">
        <ele>1407.1</ele>
        <time>2018-11-26T04:43:37Z</time>
      </trkpt>
      <trkpt lat="42.423" lon="2.72551">
        <ele>1407</ele>
        <time>2018-11-26T04:43:38Z</time>
      </trkpt>
      <trkpt lat="42.423" lon="2.72551">
        <ele>1406.9</ele>
        <time>2018-11-26T04:43:38Z</time>
      </trkpt>
      <trkpt lat="42.423" lon="2.72551">
        <ele>1406.8</ele>
        <time>2018-11-26T04:43:38Z</time>
      </trkpt>
      <trkpt lat="42.423" lon="2.72552">
        <ele>1406.7</ele>
        <time>2018-11-26T04:43:38Z</time>
      </trkpt>
      <trkpt lat="42.423" lon="2.72552">
        <ele>1406.7</ele>
        <time>2018-11-26T04:43:38Z</time>
      </trkpt>
      <trkpt lat="42.423" lon="2.72552">
        <ele>1406.7</ele>
        <time>2018-11-26T04:43:38Z</time>
      </trkpt>
      <trkpt lat="42.423" lon="2.72553">
        <ele>1406.9</ele>
        <time>2018-11-26T04:43:38Z</time>
      </trkpt>
      <trkpt lat="42.423" lon="2.72553">
        <ele>1407.2</ele>
        <time>2018-11-26T04:43:38Z</time>
      </trkpt>
      <trkpt lat="42.423" lon="2.72554">
        <ele>1407.3</ele>
        <time>2018-11-26T04:43:39Z</time>
      </trkpt>
      <trkpt lat="42.423" lon="2.72555">
        <ele>1407.4</ele>
        <time>2018-11-26T04:43:39Z</time>
      </trkpt>
      <trkpt lat="42.423" lon="2.72555">
        <ele>1407.5</ele>
        <time>2018-11-26T04:43:39Z</time>
      </trkpt>
      <trkpt lat="42.423" lon="2.72558">
        <ele>1409.3</ele>
        <time>2018-11-26T04:43:40Z</time>
      </trkpt>
      <trkpt lat="42.42299" lon="2.72558">
        <ele>1409.2</ele>
        <time>2018-11-26T04:43:40Z</time>
      </trkpt>
      <trkpt lat="42.42299" lon="2.72559">
        <ele>1409.1</ele>
        <time>2018-11-26T04:43:40Z</time>
      </trkpt>
      <trkpt lat="42.42299" lon="2.7256">
        <ele>1409.1</ele>
        <time>2018-11-26T04:43:40Z</time>
      </trkpt>
      <trkpt lat="42.42299" lon="2.7256">
        <ele>1409.1</ele>
        <time>2018-11-26T04:43:40Z</time>
      </trkpt>
      <trkpt lat="42.42299" lon="2.7256">
        <ele>1409</ele>
        <time>2018-11-26T04:43:40Z</time>
      </trkpt>
      <trkpt lat="42.42299" lon="2.72561">
        <ele>1408.5</ele>
        <time>2018-11-26T04:43:41Z</time>
      </trkpt>
      <trkpt lat="42.42299" lon="2.72561">
        <ele>1408.3</ele>
        <time>2018-11-26T04:43:41Z</time>
      </trkpt>
      <trkpt lat="42.42298" lon="2.72562">
        <ele>1408.1</ele>
        <time>2018-11-26T04:43:41Z</time>
      </trkpt>
      <trkpt lat="42.42298" lon="2.72563">
        <ele>1408.2</ele>
        <time>2018-11-26T04:43:41Z</time>
      </trkpt>
      <trkpt lat="42.42298" lon="2.72564">
        <ele>1408.2</ele>
        <time>2018-11-26T04:43:42Z</time>
      </trkpt>
      <trkpt lat="42.42299" lon="2.72564">
        <ele>1408.3</ele>
        <time>2018-11-26T04:43:42Z</time>
      </trkpt>
      <trkpt lat="42.42298" lon="2.72565">
        <ele>1408.4</ele>
        <time>2018-11-26T04:43:42Z</time>
      </trkpt>
      <trkpt lat="42.42298" lon="2.72566">
        <ele>1408.5</ele>
        <time>2018-11-26T04:43:42Z</time>
      </trkpt>
      <trkpt lat="42.42298" lon="2.72567">
        <ele>1408.4</ele>
        <time>2018-11-26T04:43:43Z</time>
      </trkpt>
      <trkpt lat="42.42298" lon="2.72568">
        <ele>1408.2</ele>
        <time>2018-11-26T04:43:43Z</time>
      </trkpt>
      <trkpt lat="42.42298" lon="2.72568">
        <ele>1408.1</ele>
        <time>2018-11-26T04:43:43Z</time>
      </trkpt>
      <trkpt lat="42.42298" lon="2.72569">
        <ele>1407.9</ele>
        <time>2018-11-26T04:43:43Z</time>
      </trkpt>
      <trkpt lat="42.42298" lon="2.7257">
        <ele>1407.5</ele>
        <time>2018-11-26T04:43:44Z</time>
      </trkpt>
      <trkpt lat="42.42299" lon="2.72571">
        <ele>1407.5</ele>
        <time>2018-11-26T04:43:44Z</time>
      </trkpt>
      <trkpt lat="42.42299" lon="2.72572">
        <ele>1407.5</ele>
        <time>2018-11-26T04:43:44Z</time>
      </trkpt>
      <trkpt lat="42.42299" lon="2.72573">
        <ele>1407.6</ele>
        <time>2018-11-26T04:43:44Z</time>
      </trkpt>
      <trkpt lat="42.42298" lon="2.72573">
        <ele>1407.7</ele>
        <time>2018-11-26T04:43:45Z</time>
      </trkpt>
      <trkpt lat="42.42298" lon="2.72574">
        <ele>1407.9</ele>
        <time>2018-11-26T04:43:45Z</time>
      </trkpt>
      <trkpt lat="42.42298" lon="2.72575">
        <ele>1408.3</ele>
        <time>2018-11-26T04:43:45Z</time>
      </trkpt>
      <trkpt lat="42.42298" lon="2.72576">
        <ele>1408.2</ele>
        <time>2018-11-26T04:43:46Z</time>
      </trkpt>
      <trkpt lat="42.42299" lon="2.72577">
        <ele>1407.9</ele>
        <time>2018-11-26T04:43:46Z</time>
      </trkpt>
      <trkpt lat="42.42299" lon="2.72578">
        <ele>1407.8</ele>
        <time>2018-11-26T04:43:46Z</time>
      </trkpt>
      <trkpt lat="42.42299" lon="2.72577">
        <ele>1407.3</ele>
        <time>2018-11-26T04:43:46Z</time>
      </trkpt>
      <trkpt lat="42.42299" lon="2.72577">
        <ele>1407.6</ele>
        <time>2018-11-26T04:43:46Z</time>
      </trkpt>
      <trkpt lat="42.42299" lon="2.72577">
        <ele>1407.8</ele>
        <time>2018-11-26T04:43:46Z</time>
      </trkpt>
      <trkpt lat="42.42299" lon="2.72578">
        <ele>1408</ele>
        <time>2018-11-26T04:43:46Z</time>
      </trkpt>
      <trkpt lat="42.42299" lon="2.72578">
        <ele>1408.1</ele>
        <time>2018-11-26T04:43:46Z</time>
      </trkpt>
      <trkpt lat="42.42299" lon="2.72578">
        <ele>1408.4</ele>
        <time>2018-11-26T04:43:46Z</time>
      </trkpt>
      <trkpt lat="42.42299" lon="2.72578">
        <ele>1408.5</ele>
        <time>2018-11-26T04:43:46Z</time>
      </trkpt>
      <trkpt lat="42.42299" lon="2.72578">
        <ele>1408.3</ele>
        <time>2018-11-26T04:43:46Z</time>
      </trkpt>
      <trkpt lat="42.42299" lon="2.72578">
        <ele>1408</ele>
        <time>2018-11-26T04:43:46Z</time>
      </trkpt>
      <trkpt lat="42.42299" lon="2.72578">
        <ele>1407.7</ele>
        <time>2018-11-26T04:43:46Z</time>
      </trkpt>
      <trkpt lat="42.42299" lon="2.72578">
        <ele>1407.6</ele>
        <time>2018-11-26T04:43:46Z</time>
      </trkpt>
      <trkpt lat="42.42299" lon="2.72578">
        <ele>1407.3</ele>
        <time>2018-11-26T04:43:46Z</time>
      </trkpt>
      <trkpt lat="42.42299" lon="2.72578">
        <ele>1407.3</ele>
        <time>2018-11-26T04:43:46Z</time>
      </trkpt>
      <trkpt lat="42.42299" lon="2.72578">
        <ele>1407.4</ele>
        <time>2018-11-26T04:43:46Z</time>
      </trkpt>
      <trkpt lat="42.42299" lon="2.72578">
        <ele>1407.5</ele>
        <time>2018-11-26T04:43:46Z</time>
      </trkpt>
      <trkpt lat="42.42299" lon="2.72578">
        <ele>1407.6</ele>
        <time>2018-11-26T04:43:47Z</time>
      </trkpt>
      <trkpt lat="42.42299" lon="2.72578">
        <ele>1407.6</ele>
        <time>2018-11-26T04:43:47Z</time>
      </trkpt>
      <trkpt lat="42.423" lon="2.72579">
        <ele>1407.5</ele>
        <time>2018-11-26T04:43:47Z</time>
      </trkpt>
      <trkpt lat="42.423" lon="2.7258">
        <ele>1407.5</ele>
        <time>2018-11-26T04:43:47Z</time>
      </trkpt>
      <trkpt lat="42.423" lon="2.72581">
        <ele>1407.6</ele>
        <time>2018-11-26T04:43:47Z</time>
      </trkpt>
      <trkpt lat="42.423" lon="2.72581">
        <ele>1407.7</ele>
        <time>2018-11-26T04:43:47Z</time>
      </trkpt>
      <trkpt lat="42.423" lon="2.72582">
        <ele>1407.9</ele>
        <time>2018-11-26T04:43:48Z</time>
      </trkpt>
      <trkpt lat="42.42301" lon="2.72584">
        <ele>1407.6</ele>
        <time>2018-11-26T04:43:48Z</time>
      </trkpt>
      <trkpt lat="42.42301" lon="2.72585">
        <ele>1407.2</ele>
        <time>2018-11-26T04:43:49Z</time>
      </trkpt>
      <trkpt lat="42.42301" lon="2.72586">
        <ele>1407</ele>
        <time>2018-11-26T04:43:49Z</time>
      </trkpt>
      <trkpt lat="42.42301" lon="2.72587">
        <ele>1406.7</ele>
        <time>2018-11-26T04:43:49Z</time>
      </trkpt>
      <trkpt lat="42.42301" lon="2.72588">
        <ele>1406.4</ele>
        <time>2018-11-26T04:43:50Z</time>
      </trkpt>
      <trkpt lat="42.42302" lon="2.72589">
        <ele>1406.5</ele>
        <time>2018-11-26T04:43:50Z</time>
      </trkpt>
      <trkpt lat="42.42302" lon="2.72589">
        <ele>1406.9</ele>
        <time>2018-11-26T04:43:50Z</time>
      </trkpt>
      <trkpt lat="42.42301" lon="2.72589">
        <ele>1407.3</ele>
        <time>2018-11-26T04:43:50Z</time>
      </trkpt>
      <trkpt lat="42.42301" lon="2.7259">
        <ele>1407.7</ele>
        <time>2018-11-26T04:43:50Z</time>
      </trkpt>
      <trkpt lat="42.42301" lon="2.7259">
        <ele>1407.8</ele>
        <time>2018-11-26T04:43:50Z</time>
      </trkpt>
      <trkpt lat="42.42301" lon="2.7259">
        <ele>1407.8</ele>
        <time>2018-11-26T04:43:50Z</time>
      </trkpt>
      <trkpt lat="42.42301" lon="2.7259">
        <ele>1407.6</ele>
        <time>2018-11-26T04:43:50Z</time>
      </trkpt>
      <trkpt lat="42.42301" lon="2.7259">
        <ele>1407.4</ele>
        <time>2018-11-26T04:43:50Z</time>
      </trkpt>
      <trkpt lat="42.42301" lon="2.7259">
        <ele>1407.3</ele>
        <time>2018-11-26T04:43:51Z</time>
      </trkpt>
      <trkpt lat="42.42301" lon="2.7259">
        <ele>1407.3</ele>
        <time>2018-11-26T04:43:51Z</time>
      </trkpt>
      <trkpt lat="42.42301" lon="2.7259">
        <ele>1407.3</ele>
        <time>2018-11-26T04:43:51Z</time>
      </trkpt>
      <trkpt lat="42.42301" lon="2.7259">
        <ele>1407.3</ele>
        <time>2018-11-26T04:43:51Z</time>
      </trkpt>
      <trkpt lat="42.42301" lon="2.7259">
        <ele>1407.3</ele>
        <time>2018-11-26T04:43:51Z</time>
      </trkpt>
      <trkpt lat="42.42301" lon="2.7259">
        <ele>1407.4</ele>
        <time>2018-11-26T04:43:51Z</time>
      </trkpt>
      <trkpt lat="42.42301" lon="2.7259">
        <ele>1407.4</ele>
        <time>2018-11-26T04:43:51Z</time>
      </trkpt>
      <trkpt lat="42.42301" lon="2.7259">
        <ele>1407.6</ele>
        <time>2018-11-26T04:43:51Z</time>
      </trkpt>
      <trkpt lat="42.42301" lon="2.7259">
        <ele>1407.6</ele>
        <time>2018-11-26T04:43:51Z</time>
      </trkpt>
      <trkpt lat="42.42301" lon="2.7259">
        <ele>1407.8</ele>
        <time>2018-11-26T04:43:51Z</time>
      </trkpt>
      <trkpt lat="42.42301" lon="2.7259">
        <ele>1407.7</ele>
        <time>2018-11-26T04:43:51Z</time>
      </trkpt>
      <trkpt lat="42.42301" lon="2.7259">
        <ele>1407.7</ele>
        <time>2018-11-26T04:43:51Z</time>
      </trkpt>
      <trkpt lat="42.42301" lon="2.7259">
        <ele>1407.7</ele>
        <time>2018-11-26T04:43:51Z</time>
      </trkpt>
      <trkpt lat="42.42301" lon="2.7259">
        <ele>1407.6</ele>
        <time>2018-11-26T04:43:51Z</time>
      </trkpt>
      <trkpt lat="42.42301" lon="2.7259">
        <ele>1407.6</ele>
        <time>2018-11-26T04:43:51Z</time>
      </trkpt>
      <trkpt lat="42.42301" lon="2.7259">
        <ele>1407.6</ele>
        <time>2018-11-26T04:43:51Z</time>
      </trkpt>
      <trkpt lat="42.42301" lon="2.7259">
        <ele>1407.5</ele>
        <time>2018-11-26T04:43:51Z</time>
      </trkpt>
      <trkpt lat="42.42301" lon="2.7259">
        <ele>1407.6</ele>
        <time>2018-11-26T04:43:51Z</time>
      </trkpt>
      <trkpt lat="42.42301" lon="2.7259">
        <ele>1407.5</ele>
        <time>2018-11-26T04:43:51Z</time>
      </trkpt>
      <trkpt lat="42.42301" lon="2.7259">
        <ele>1407.5</ele>
        <time>2018-11-26T04:43:51Z</time>
      </trkpt>
      <trkpt lat="42.42301" lon="2.7259">
        <ele>1407.6</ele>
        <time>2018-11-26T04:43:51Z</time>
      </trkpt>
      <trkpt lat="42.42301" lon="2.7259">
        <ele>1407.8</ele>
        <time>2018-11-26T04:43:51Z</time>
      </trkpt>
      <trkpt lat="42.42301" lon="2.7259">
        <ele>1407.9</ele>
        <time>2018-11-26T04:43:51Z</time>
      </trkpt>
      <trkpt lat="42.42301" lon="2.7259">
        <ele>1407.7</ele>
        <time>2018-11-26T04:43:51Z</time>
      </trkpt>
      <trkpt lat="42.42301" lon="2.7259">
        <ele>1407.4</ele>
        <time>2018-11-26T04:43:51Z</time>
      </trkpt>
      <trkpt lat="42.42301" lon="2.7259">
        <ele>1407.1</ele>
        <time>2018-11-26T04:43:51Z</time>
      </trkpt>
      <trkpt lat="42.42301" lon="2.7259">
        <ele>1407</ele>
        <time>2018-11-26T04:43:51Z</time>
      </trkpt>
      <trkpt lat="42.42301" lon="2.72589">
        <ele>1407</ele>
        <time>2018-11-26T04:43:51Z</time>
      </trkpt>
      <trkpt lat="42.42301" lon="2.72589">
        <ele>1406.9</ele>
        <time>2018-11-26T04:43:51Z</time>
      </trkpt>
      <trkpt lat="42.42301" lon="2.72589">
        <ele>1406.9</ele>
        <time>2018-11-26T04:43:51Z</time>
      </trkpt>
      <trkpt lat="42.42301" lon="2.72589">
        <ele>1407</ele>
        <time>2018-11-26T04:43:51Z</time>
      </trkpt>
      <trkpt lat="42.42301" lon="2.72589">
        <ele>1407.3</ele>
        <time>2018-11-26T04:43:51Z</time>
      </trkpt>
      <trkpt lat="42.42301" lon="2.72589">
        <ele>1407.4</ele>
        <time>2018-11-26T04:43:51Z</time>
      </trkpt>
      <trkpt lat="42.42301" lon="2.72589">
        <ele>1407.4</ele>
        <time>2018-11-26T04:43:51Z</time>
      </trkpt>
      <trkpt lat="42.42301" lon="2.72589">
        <ele>1407.2</ele>
        <time>2018-11-26T04:43:51Z</time>
      </trkpt>
      <trkpt lat="42.42301" lon="2.72589">
        <ele>1407</ele>
        <time>2018-11-26T04:43:51Z</time>
      </trkpt>
      <trkpt lat="42.42301" lon="2.72589">
        <ele>1407.1</ele>
        <time>2018-11-26T04:43:51Z</time>
      </trkpt>
      <trkpt lat="42.42301" lon="2.72589">
        <ele>1407.6</ele>
        <time>2018-11-26T04:43:51Z</time>
      </trkpt>
      <trkpt lat="42.42301" lon="2.72589">
        <ele>1408</ele>
        <time>2018-11-26T04:43:51Z</time>
      </trkpt>
      <trkpt lat="42.42301" lon="2.72589">
        <ele>1407.8</ele>
        <time>2018-11-26T04:43:51Z</time>
      </trkpt>
      <trkpt lat="42.42301" lon="2.72588">
        <ele>1407.7</ele>
        <time>2018-11-26T04:43:52Z</time>
      </trkpt>
      <trkpt lat="42.42301" lon="2.72588">
        <ele>1407.4</ele>
        <time>2018-11-26T04:43:52Z</time>
      </trkpt>
      <trkpt lat="42.42301" lon="2.72588">
        <ele>1407.5</ele>
        <time>2018-11-26T04:43:52Z</time>
      </trkpt>
      <trkpt lat="42.42301" lon="2.72588">
        <ele>1407.5</ele>
        <time>2018-11-26T04:43:52Z</time>
      </trkpt>
      <trkpt lat="42.42301" lon="2.72588">
        <ele>1407.5</ele>
        <time>2018-11-26T04:43:52Z</time>
      </trkpt>
      <trkpt lat="42.42301" lon="2.72588">
        <ele>1407.6</ele>
        <time>2018-11-26T04:43:52Z</time>
      </trkpt>
      <trkpt lat="42.42301" lon="2.72588">
        <ele>1407.7</ele>
        <time>2018-11-26T04:43:52Z</time>
      </trkpt>
      <trkpt lat="42.42301" lon="2.72588">
        <ele>1407.7</ele>
        <time>2018-11-26T04:43:52Z</time>
      </trkpt>
      <trkpt lat="42.42301" lon="2.72588">
        <ele>1407.9</ele>
        <time>2018-11-26T04:43:52Z</time>
      </trkpt>
      <trkpt lat="42.42301" lon="2.72588">
        <ele>1407.9</ele>
        <time>2018-11-26T04:43:52Z</time>
      </trkpt>
      <trkpt lat="42.42301" lon="2.72588">
        <ele>1407.9</ele>
        <time>2018-11-26T04:43:52Z</time>
      </trkpt>
      <trkpt lat="42.42301" lon="2.72587">
        <ele>1407.7</ele>
        <time>2018-11-26T04:43:52Z</time>
      </trkpt>
      <trkpt lat="42.42301" lon="2.72587">
        <ele>1407.6</ele>
        <time>2018-11-26T04:43:52Z</time>
      </trkpt>
      <trkpt lat="42.42301" lon="2.72587">
        <ele>1407.4</ele>
        <time>2018-11-26T04:43:52Z</time>
      </trkpt>
      <trkpt lat="42.42301" lon="2.72587">
        <ele>1406.9</ele>
        <time>2018-11-26T04:43:52Z</time>
      </trkpt>
      <trkpt lat="42.42301" lon="2.72587">
        <ele>1407.1</ele>
        <time>2018-11-26T04:43:52Z</time>
      </trkpt>
      <trkpt lat="42.42301" lon="2.72587">
        <ele>1407.5</ele>
        <time>2018-11-26T04:43:52Z</time>
      </trkpt>
      <trkpt lat="42.42301" lon="2.72587">
        <ele>1407.9</ele>
        <time>2018-11-26T04:43:52Z</time>
      </trkpt>
      <trkpt lat="42.42301" lon="2.72587">
        <ele>1407.7</ele>
        <time>2018-11-26T04:43:52Z</time>
      </trkpt>
      <trkpt lat="42.42301" lon="2.72587">
        <ele>1407.7</ele>
        <time>2018-11-26T04:43:52Z</time>
      </trkpt>
      <trkpt lat="42.42301" lon="2.72587">
        <ele>1407.7</ele>
        <time>2018-11-26T04:43:52Z</time>
      </trkpt>
      <trkpt lat="42.42301" lon="2.72586">
        <ele>1407.5</ele>
        <time>2018-11-26T04:43:52Z</time>
      </trkpt>
      <trkpt lat="42.42301" lon="2.72586">
        <ele>1407.5</ele>
        <time>2018-11-26T04:43:52Z</time>
      </trkpt>
      <trkpt lat="42.42301" lon="2.72586">
        <ele>1407.5</ele>
        <time>2018-11-26T04:43:52Z</time>
      </trkpt>
      <trkpt lat="42.42301" lon="2.72586">
        <ele>1407.3</ele>
        <time>2018-11-26T04:43:52Z</time>
      </trkpt>
      <trkpt lat="42.42301" lon="2.72586">
        <ele>1407.5</ele>
        <time>2018-11-26T04:43:52Z</time>
      </trkpt>
      <trkpt lat="42.42301" lon="2.72586">
        <ele>1407.7</ele>
        <time>2018-11-26T04:43:52Z</time>
      </trkpt>
      <trkpt lat="42.42301" lon="2.72586">
        <ele>1407.9</ele>
        <time>2018-11-26T04:43:52Z</time>
      </trkpt>
      <trkpt lat="42.42301" lon="2.72586">
        <ele>1407.8</ele>
        <time>2018-11-26T04:43:52Z</time>
      </trkpt>
      <trkpt lat="42.42301" lon="2.72586">
        <ele>1407.9</ele>
        <time>2018-11-26T04:43:52Z</time>
      </trkpt>
      <trkpt lat="42.42301" lon="2.72586">
        <ele>1408</ele>
        <time>2018-11-26T04:43:53Z</time>
      </trkpt>
      <trkpt lat="42.42302" lon="2.72587">
        <ele>1407.9</ele>
        <time>2018-11-26T04:43:53Z</time>
      </trkpt>
      <trkpt lat="42.42302" lon="2.72587">
        <ele>1408</ele>
        <time>2018-11-26T04:43:53Z</time>
      </trkpt>
      <trkpt lat="42.42302" lon="2.72587">
        <ele>1407.8</ele>
        <time>2018-11-26T04:43:53Z</time>
      </trkpt>
      <trkpt lat="42.42302" lon="2.72587">
        <ele>1407.9</ele>
        <time>2018-11-26T04:43:53Z</time>
      </trkpt>
      <trkpt lat="42.42302" lon="2.72587">
        <ele>1407.8</ele>
        <time>2018-11-26T04:43:53Z</time>
      </trkpt>
      <trkpt lat="42.42302" lon="2.72587">
        <ele>1407.7</ele>
        <time>2018-11-26T04:43:53Z</time>
      </trkpt>
      <trkpt lat="42.42302" lon="2.72587">
        <ele>1407.6</ele>
        <time>2018-11-26T04:43:53Z</time>
      </trkpt>
      <trkpt lat="42.42302" lon="2.72587">
        <ele>1407.5</ele>
        <time>2018-11-26T04:43:53Z</time>
      </trkpt>
      <trkpt lat="42.42302" lon="2.72587">
        <ele>1407.6</ele>
        <time>2018-11-26T04:43:53Z</time>
      </trkpt>
      <trkpt lat="42.42302" lon="2.72587">
        <ele>1407.6</ele>
        <time>2018-11-26T04:43:53Z</time>
      </trkpt>
      <trkpt lat="42.42302" lon="2.72587">
        <ele>1407.4</ele>
        <time>2018-11-26T04:43:53Z</time>
      </trkpt>
      <trkpt lat="42.42302" lon="2.72587">
        <ele>1407.1</ele>
        <time>2018-11-26T04:43:53Z</time>
      </trkpt>
      <trkpt lat="42.42302" lon="2.72587">
        <ele>1406.6</ele>
        <time>2018-11-26T04:43:53Z</time>
      </trkpt>
      <trkpt lat="42.42302" lon="2.72587">
        <ele>1406.8</ele>
        <time>2018-11-26T04:43:53Z</time>
      </trkpt>
      <trkpt lat="42.42302" lon="2.72587">
        <ele>1407.1</ele>
        <time>2018-11-26T04:43:53Z</time>
      </trkpt>
      <trkpt lat="42.42302" lon="2.72587">
        <ele>1407.4</ele>
        <time>2018-11-26T04:43:53Z</time>
      </trkpt>
      <trkpt lat="42.42302" lon="2.72587">
        <ele>1407.6</ele>
        <time>2018-11-26T04:43:53Z</time>
      </trkpt>
      <trkpt lat="42.42302" lon="2.72586">
        <ele>1407.5</ele>
        <time>2018-11-26T04:43:53Z</time>
      </trkpt>
      <trkpt lat="42.42302" lon="2.72586">
        <ele>1407.6</ele>
        <time>2018-11-26T04:43:53Z</time>
      </trkpt>
      <trkpt lat="42.42302" lon="2.72586">
        <ele>1407.4</ele>
        <time>2018-11-26T04:43:53Z</time>
      </trkpt>
      <trkpt lat="42.42303" lon="2.72586">
        <ele>1407.4</ele>
        <time>2018-11-26T04:43:53Z</time>
      </trkpt>
      <trkpt lat="42.42303" lon="2.72586">
        <ele>1407.1</ele>
        <time>2018-11-26T04:43:54Z</time>
      </trkpt>
      <trkpt lat="42.42303" lon="2.72586">
        <ele>1406.8</ele>
        <time>2018-11-26T04:43:54Z</time>
      </trkpt>
      <trkpt lat="42.42303" lon="2.72586">
        <ele>1407</ele>
        <time>2018-11-26T04:43:54Z</time>
      </trkpt>
      <trkpt lat="42.42303" lon="2.72586">
        <ele>1407.2</ele>
        <time>2018-11-26T04:43:54Z</time>
      </trkpt>
      <trkpt lat="42.42303" lon="2.72586">
        <ele>1407.4</ele>
        <time>2018-11-26T04:43:54Z</time>
      </trkpt>
      <trkpt lat="42.42303" lon="2.72586">
        <ele>1407.3</ele>
        <time>2018-11-26T04:43:54Z</time>
      </trkpt>
      <trkpt lat="42.42303" lon="2.72586">
        <ele>1407.2</ele>
        <time>2018-11-26T04:43:54Z</time>
      </trkpt>
      <trkpt lat="42.42303" lon="2.72586">
        <ele>1407.1</ele>
        <time>2018-11-26T04:43:54Z</time>
      </trkpt>
      <trkpt lat="42.42304" lon="2.72587">
        <ele>1407</ele>
        <time>2018-11-26T04:43:54Z</time>
      </trkpt>
      <trkpt lat="42.42304" lon="2.72587">
        <ele>1407</ele>
        <time>2018-11-26T04:43:54Z</time>
      </trkpt>
      <trkpt lat="42.42304" lon="2.72587">
        <ele>1406.7</ele>
        <time>2018-11-26T04:43:54Z</time>
      </trkpt>
      <trkpt lat="42.42304" lon="2.72587">
        <ele>1406.8</ele>
        <time>2018-11-26T04:43:54Z</time>
      </trkpt>
      <trkpt lat="42.42304" lon="2.72587">
        <ele>1407</ele>
        <time>2018-11-26T04:43:54Z</time>
      </trkpt>
      <trkpt lat="42.42304" lon="2.72587">
        <ele>1407.2</ele>
        <time>2018-11-26T04:43:54Z</time>
      </trkpt>
      <trkpt lat="42.42304" lon="2.72587">
        <ele>1407</ele>
        <time>2018-11-26T04:43:54Z</time>
      </trkpt>
      <trkpt lat="42.42304" lon="2.72587">
        <ele>1406.9</ele>
        <time>2018-11-26T04:43:54Z</time>
      </trkpt>
      <trkpt lat="42.42304" lon="2.72587">
        <ele>1406.6</ele>
        <time>2018-11-26T04:43:54Z</time>
      </trkpt>
      <trkpt lat="42.42304" lon="2.72587">
        <ele>1406.5</ele>
        <time>2018-11-26T04:43:54Z</time>
      </trkpt>
      <trkpt lat="42.42304" lon="2.72587">
        <ele>1406.6</ele>
        <time>2018-11-26T04:43:54Z</time>
      </trkpt>
      <trkpt lat="42.42304" lon="2.72587">
        <ele>1406.5</ele>
        <time>2018-11-26T04:43:54Z</time>
      </trkpt>
      <trkpt lat="42.42304" lon="2.72587">
        <ele>1406.3</ele>
        <time>2018-11-26T04:43:54Z</time>
      </trkpt>
      <trkpt lat="42.42304" lon="2.72587">
        <ele>1406.6</ele>
        <time>2018-11-26T04:43:54Z</time>
      </trkpt>
      <trkpt lat="42.42304" lon="2.72587">
        <ele>1407</ele>
        <time>2018-11-26T04:43:54Z</time>
      </trkpt>
      <trkpt lat="42.42304" lon="2.72587">
        <ele>1407.5</ele>
        <time>2018-11-26T04:43:54Z</time>
      </trkpt>
      <trkpt lat="42.42304" lon="2.72587">
        <ele>1407.3</ele>
        <time>2018-11-26T04:43:54Z</time>
      </trkpt>
      <trkpt lat="42.42304" lon="2.72587">
        <ele>1407</ele>
        <time>2018-11-26T04:43:54Z</time>
      </trkpt>
      <trkpt lat="42.42304" lon="2.72587">
        <ele>1406.6</ele>
        <time>2018-11-26T04:43:54Z</time>
      </trkpt>
      <trkpt lat="42.42304" lon="2.72587">
        <ele>1406.7</ele>
        <time>2018-11-26T04:43:54Z</time>
      </trkpt>
      <trkpt lat="42.42304" lon="2.72587">
        <ele>1406.9</ele>
        <time>2018-11-26T04:43:55Z</time>
      </trkpt>
      <trkpt lat="42.42304" lon="2.72587">
        <ele>1407.2</ele>
        <time>2018-11-26T04:43:55Z</time>
      </trkpt>
      <trkpt lat="42.42304" lon="2.72587">
        <ele>1407.1</ele>
        <time>2018-11-26T04:43:55Z</time>
      </trkpt>
      <trkpt lat="42.42304" lon="2.72587">
        <ele>1407.1</ele>
        <time>2018-11-26T04:43:55Z</time>
      </trkpt>
      <trkpt lat="42.42304" lon="2.72587">
        <ele>1407</ele>
        <time>2018-11-26T04:43:55Z</time>
      </trkpt>
      <trkpt lat="42.42304" lon="2.72587">
        <ele>1407</ele>
        <time>2018-11-26T04:43:55Z</time>
      </trkpt>
      <trkpt lat="42.42304" lon="2.72587">
        <ele>1407.2</ele>
        <time>2018-11-26T04:43:55Z</time>
      </trkpt>
      <trkpt lat="42.42304" lon="2.72587">
        <ele>1407.1</ele>
        <time>2018-11-26T04:43:55Z</time>
      </trkpt>
      <trkpt lat="42.42304" lon="2.72587">
        <ele>1407.2</ele>
        <time>2018-11-26T04:43:55Z</time>
      </trkpt>
      <trkpt lat="42.42304" lon="2.72585">
        <ele>1407.1</ele>
        <time>2018-11-26T04:43:55Z</time>
      </trkpt>
      <trkpt lat="42.42304" lon="2.72587">
        <ele>1406.9</ele>
        <time>2018-11-26T04:43:56Z</time>
      </trkpt>
      <trkpt lat="42.42304" lon="2.72583">
        <ele>1406.8</ele>
        <time>2018-11-26T04:43:57Z</time>
      </trkpt>
      <trkpt lat="42.42304" lon="2.72583">
        <ele>1406.7</ele>
        <time>2018-11-26T04:43:57Z</time>
      </trkpt>
      <trkpt lat="42.42304" lon="2.72583">
        <ele>1406.6</ele>
        <time>2018-11-26T04:43:57Z</time>
      </trkpt>
      <trkpt lat="42.42303" lon="2.72583">
        <ele>1406.7</ele>
        <time>2018-11-26T04:43:57Z</time>
      </trkpt>
      <trkpt lat="42.42303" lon="2.72583">
        <ele>1406.8</ele>
        <time>2018-11-26T04:43:57Z</time>
      </trkpt>
      <trkpt lat="42.42303" lon="2.72583">
        <ele>1406.9</ele>
        <time>2018-11-26T04:43:57Z</time>
      </trkpt>
      <trkpt lat="42.42303" lon="2.72583">
        <ele>1407</ele>
        <time>2018-11-26T04:43:57Z</time>
      </trkpt>
      <trkpt lat="42.42303" lon="2.72583">
        <ele>1407</ele>
        <time>2018-11-26T04:43:57Z</time>
      </trkpt>
      <trkpt lat="42.42303" lon="2.72583">
        <ele>1407</ele>
        <time>2018-11-26T04:43:57Z</time>
      </trkpt>
      <trkpt lat="42.42303" lon="2.72583">
        <ele>1407</ele>
        <time>2018-11-26T04:43:57Z</time>
      </trkpt>
      <trkpt lat="42.42303" lon="2.72583">
        <ele>1407</ele>
        <time>2018-11-26T04:43:57Z</time>
      </trkpt>
      <trkpt lat="42.42303" lon="2.72583">
        <ele>1407</ele>
        <time>2018-11-26T04:43:57Z</time>
      </trkpt>
      <trkpt lat="42.42303" lon="2.72583">
        <ele>1406.8</ele>
        <time>2018-11-26T04:43:57Z</time>
      </trkpt>
      <trkpt lat="42.42303" lon="2.72583">
        <ele>1406.9</ele>
        <time>2018-11-26T04:43:57Z</time>
      </trkpt>
      <trkpt lat="42.42303" lon="2.72583">
        <ele>1407</ele>
        <time>2018-11-26T04:43:57Z</time>
      </trkpt>
      <trkpt lat="42.42303" lon="2.72583">
        <ele>1407.2</ele>
        <time>2018-11-26T04:43:57Z</time>
      </trkpt>
      <trkpt lat="42.42303" lon="2.72583">
        <ele>1407.4</ele>
        <time>2018-11-26T04:43:57Z</time>
      </trkpt>
      <trkpt lat="42.42303" lon="2.72583">
        <ele>1407.6</ele>
        <time>2018-11-26T04:43:57Z</time>
      </trkpt>
      <trkpt lat="42.42303" lon="2.72583">
        <ele>1407.8</ele>
        <time>2018-11-26T04:43:57Z</time>
      </trkpt>
      <trkpt lat="42.42303" lon="2.72583">
        <ele>1408</ele>
        <time>2018-11-26T04:43:57Z</time>
      </trkpt>
      <trkpt lat="42.42303" lon="2.72583">
        <ele>1408.1</ele>
        <time>2018-11-26T04:43:57Z</time>
      </trkpt>
      <trkpt lat="42.42303" lon="2.72583">
        <ele>1408.1</ele>
        <time>2018-11-26T04:43:57Z</time>
      </trkpt>
      <trkpt lat="42.42303" lon="2.72583">
        <ele>1408.2</ele>
        <time>2018-11-26T04:43:57Z</time>
      </trkpt>
      <trkpt lat="42.42303" lon="2.72583">
        <ele>1407.9</ele>
        <time>2018-11-26T04:43:57Z</time>
      </trkpt>
      <trkpt lat="42.42303" lon="2.72583">
        <ele>1407.8</ele>
        <time>2018-11-26T04:43:58Z</time>
      </trkpt>
      <trkpt lat="42.42303" lon="2.72583">
        <ele>1407.9</ele>
        <time>2018-11-26T04:43:58Z</time>
      </trkpt>
      <trkpt lat="42.42303" lon="2.72583">
        <ele>1407.2</ele>
        <time>2018-11-26T04:43:58Z</time>
      </trkpt>
      <trkpt lat="42.42303" lon="2.72582">
        <ele>1407.2</ele>
        <time>2018-11-26T04:43:58Z</time>
      </trkpt>
      <trkpt lat="42.42303" lon="2.72582">
        <ele>1407.4</ele>
        <time>2018-11-26T04:43:58Z</time>
      </trkpt>
      <trkpt lat="42.42303" lon="2.72582">
        <ele>1407.8</ele>
        <time>2018-11-26T04:43:58Z</time>
      </trkpt>
      <trkpt lat="42.42303" lon="2.72583">
        <ele>1408</ele>
        <time>2018-11-26T04:43:58Z</time>
      </trkpt>
      <trkpt lat="42.42303" lon="2.72583">
        <ele>1408</ele>
        <time>2018-11-26T04:43:58Z</time>
      </trkpt>
      <trkpt lat="42.42303" lon="2.72584">
        <ele>1407.7</ele>
        <time>2018-11-26T04:43:58Z</time>
      </trkpt>
      <trkpt lat="42.42303" lon="2.72584">
        <ele>1407.5</ele>
        <time>2018-11-26T04:43:58Z</time>
      </trkpt>
      <trkpt lat="42.42303" lon="2.72584">
        <ele>1407.4</ele>
        <time>2018-11-26T04:43:58Z</time>
      </trkpt>
      <trkpt lat="42.42303" lon="2.72584">
        <ele>1407.2</ele>
        <time>2018-11-26T04:43:58Z</time>
      </trkpt>
      <trkpt lat="42.42303" lon="2.72584">
        <ele>1406.7</ele>
        <time>2018-11-26T04:43:58Z</time>
      </trkpt>
      <trkpt lat="42.42303" lon="2.72584">
        <ele>1406.8</ele>
        <time>2018-11-26T04:43:58Z</time>
      </trkpt>
      <trkpt lat="42.42303" lon="2.72584">
        <ele>1407</ele>
        <time>2018-11-26T04:43:58Z</time>
      </trkpt>
      <trkpt lat="42.42303" lon="2.72584">
        <ele>1407.2</ele>
        <time>2018-11-26T04:43:58Z</time>
      </trkpt>
      <trkpt lat="42.42303" lon="2.72584">
        <ele>1407.5</ele>
        <time>2018-11-26T04:43:58Z</time>
      </trkpt>
      <trkpt lat="42.42303" lon="2.72584">
        <ele>1407.7</ele>
        <time>2018-11-26T04:43:59Z</time>
      </trkpt>
      <trkpt lat="42.42303" lon="2.72584">
        <ele>1407.8</ele>
        <time>2018-11-26T04:43:59Z</time>
      </trkpt>
      <trkpt lat="42.42303" lon="2.72584">
        <ele>1407.9</ele>
        <time>2018-11-26T04:43:59Z</time>
      </trkpt>
      <trkpt lat="42.42303" lon="2.72584">
        <ele>1407.7</ele>
        <time>2018-11-26T04:43:59Z</time>
      </trkpt>
      <trkpt lat="42.42303" lon="2.72583">
        <ele>1407.5</ele>
        <time>2018-11-26T04:43:59Z</time>
      </trkpt>
      <trkpt lat="42.42303" lon="2.72583">
        <ele>1407</ele>
        <time>2018-11-26T04:43:59Z</time>
      </trkpt>
      <trkpt lat="42.42303" lon="2.72583">
        <ele>1407</ele>
        <time>2018-11-26T04:43:59Z</time>
      </trkpt>
      <trkpt lat="42.42303" lon="2.72583">
        <ele>1407</ele>
        <time>2018-11-26T04:43:59Z</time>
      </trkpt>
      <trkpt lat="42.42303" lon="2.72583">
        <ele>1407</ele>
        <time>2018-11-26T04:43:59Z</time>
      </trkpt>
      <trkpt lat="42.42303" lon="2.72583">
        <ele>1406.9</ele>
        <time>2018-11-26T04:43:59Z</time>
      </trkpt>
      <trkpt lat="42.42303" lon="2.72583">
        <ele>1406.9</ele>
        <time>2018-11-26T04:43:59Z</time>
      </trkpt>
      <trkpt lat="42.42303" lon="2.72583">
        <ele>1406.8</ele>
        <time>2018-11-26T04:43:59Z</time>
      </trkpt>
      <trkpt lat="42.42303" lon="2.72583">
        <ele>1406.8</ele>
        <time>2018-11-26T04:43:59Z</time>
      </trkpt>
      <trkpt lat="42.42303" lon="2.72583">
        <ele>1406.7</ele>
        <time>2018-11-26T04:43:59Z</time>
      </trkpt>
      <trkpt lat="42.42303" lon="2.72583">
        <ele>1406.6</ele>
        <time>2018-11-26T04:43:59Z</time>
      </trkpt>
      <trkpt lat="42.42303" lon="2.72583">
        <ele>1406.3</ele>
        <time>2018-11-26T04:43:59Z</time>
      </trkpt>
      <trkpt lat="42.42303" lon="2.72583">
        <ele>1406.4</ele>
        <time>2018-11-26T04:43:59Z</time>
      </trkpt>
      <trkpt lat="42.42303" lon="2.72583">
        <ele>1406.4</ele>
        <time>2018-11-26T04:43:59Z</time>
      </trkpt>
      <trkpt lat="42.42303" lon="2.72583">
        <ele>1406.5</ele>
        <time>2018-11-26T04:43:59Z</time>
      </trkpt>
      <trkpt lat="42.42303" lon="2.72583">
        <ele>1406.5</ele>
        <time>2018-11-26T04:43:59Z</time>
      </trkpt>
      <trkpt lat="42.42303" lon="2.72583">
        <ele>1406.6</ele>
        <time>2018-11-26T04:43:59Z</time>
      </trkpt>
      <trkpt lat="42.42303" lon="2.72583">
        <ele>1406.4</ele>
        <time>2018-11-26T04:43:59Z</time>
      </trkpt>
      <trkpt lat="42.42303" lon="2.72583">
        <ele>1406.8</ele>
        <time>2018-11-26T04:43:59Z</time>
      </trkpt>
      <trkpt lat="42.42303" lon="2.72583">
        <ele>1407.1</ele>
        <time>2018-11-26T04:43:59Z</time>
      </trkpt>
      <trkpt lat="42.42303" lon="2.72583">
        <ele>1407.6</ele>
        <time>2018-11-26T04:43:59Z</time>
      </trkpt>
      <trkpt lat="42.42303" lon="2.72583">
        <ele>1407.6</ele>
        <time>2018-11-26T04:43:59Z</time>
      </trkpt>
      <trkpt lat="42.42303" lon="2.72583">
        <ele>1407.5</ele>
        <time>2018-11-26T04:43:59Z</time>
      </trkpt>
      <trkpt lat="42.42303" lon="2.72583">
        <ele>1407.5</ele>
        <time>2018-11-26T04:43:59Z</time>
      </trkpt>
      <trkpt lat="42.42303" lon="2.72584">
        <ele>1407.5</ele>
        <time>2018-11-26T04:43:59Z</time>
      </trkpt>
      <trkpt lat="42.42303" lon="2.72584">
        <ele>1407.6</ele>
        <time>2018-11-26T04:43:59Z</time>
      </trkpt>
      <trkpt lat="42.42303" lon="2.72584">
        <ele>1407.6</ele>
        <time>2018-11-26T04:43:59Z</time>
      </trkpt>
      <trkpt lat="42.42303" lon="2.72584">
        <ele>1407.5</ele>
        <time>2018-11-26T04:43:59Z</time>
      </trkpt>
      <trkpt lat="42.42303" lon="2.72584">
        <ele>1407.7</ele>
        <time>2018-11-26T04:43:59Z</time>
      </trkpt>
      <trkpt lat="42.42303" lon="2.72584">
        <ele>1407.8</ele>
        <time>2018-11-26T04:43:59Z</time>
      </trkpt>
      <trkpt lat="42.42303" lon="2.72584">
        <ele>1407.9</ele>
        <time>2018-11-26T04:43:59Z</time>
      </trkpt>
      <trkpt lat="42.42302" lon="2.72584">
        <ele>1407.8</ele>
        <time>2018-11-26T04:44:00Z</time>
      </trkpt>
      <trkpt lat="42.42303" lon="2.72584">
        <ele>1407.6</ele>
        <time>2018-11-26T04:44:00Z</time>
      </trkpt>
      <trkpt lat="42.42303" lon="2.72584">
        <ele>1407.4</ele>
        <time>2018-11-26T04:44:00Z</time>
      </trkpt>
      <trkpt lat="42.42303" lon="2.72584">
        <ele>1407.5</ele>
        <time>2018-11-26T04:44:00Z</time>
      </trkpt>
      <trkpt lat="42.42303" lon="2.72585">
        <ele>1407.4</ele>
        <time>2018-11-26T04:44:00Z</time>
      </trkpt>
      <trkpt lat="42.42303" lon="2.72585">
        <ele>1407.5</ele>
        <time>2018-11-26T04:44:00Z</time>
      </trkpt>
      <trkpt lat="42.42303" lon="2.72585">
        <ele>1407.3</ele>
        <time>2018-11-26T04:44:00Z</time>
      </trkpt>
      <trkpt lat="42.42303" lon="2.72585">
        <ele>1407.3</ele>
        <time>2018-11-26T04:44:00Z</time>
      </trkpt>
      <trkpt lat="42.42303" lon="2.72585">
        <ele>1407.2</ele>
        <time>2018-11-26T04:44:00Z</time>
      </trkpt>
      <trkpt lat="42.42303" lon="2.72585">
        <ele>1407.3</ele>
        <time>2018-11-26T04:44:00Z</time>
      </trkpt>
      <trkpt lat="42.42303" lon="2.72585">
        <ele>1407.2</ele>
        <time>2018-11-26T04:44:00Z</time>
      </trkpt>
      <trkpt lat="42.42303" lon="2.72586">
        <ele>1407.3</ele>
        <time>2018-11-26T04:44:00Z</time>
      </trkpt>
      <trkpt lat="42.42303" lon="2.72586">
        <ele>1407.3</ele>
        <time>2018-11-26T04:44:00Z</time>
      </trkpt>
      <trkpt lat="42.42303" lon="2.72586">
        <ele>1407.3</ele>
        <time>2018-11-26T04:44:00Z</time>
      </trkpt>
      <trkpt lat="42.42303" lon="2.72586">
        <ele>1407.4</ele>
        <time>2018-11-26T04:44:00Z</time>
      </trkpt>
      <trkpt lat="42.42303" lon="2.72586">
        <ele>1407.5</ele>
        <time>2018-11-26T04:44:00Z</time>
      </trkpt>
      <trkpt lat="42.42303" lon="2.72586">
        <ele>1407.5</ele>
        <time>2018-11-26T04:44:00Z</time>
      </trkpt>
      <trkpt lat="42.42303" lon="2.72586">
        <ele>1407.4</ele>
        <time>2018-11-26T04:44:00Z</time>
      </trkpt>
      <trkpt lat="42.42303" lon="2.72587">
        <ele>1407.3</ele>
        <time>2018-11-26T04:44:01Z</time>
      </trkpt>
      <trkpt lat="42.42303" lon="2.72587">
        <ele>1407.4</ele>
        <time>2018-11-26T04:44:01Z</time>
      </trkpt>
      <trkpt lat="42.42303" lon="2.72587">
        <ele>1407.5</ele>
        <time>2018-11-26T04:44:01Z</time>
      </trkpt>
      <trkpt lat="42.42303" lon="2.72587">
        <ele>1407.7</ele>
        <time>2018-11-26T04:44:01Z</time>
      </trkpt>
      <trkpt lat="42.42303" lon="2.72587">
        <ele>1407.6</ele>
        <time>2018-11-26T04:44:01Z</time>
      </trkpt>
      <trkpt lat="42.42303" lon="2.72587">
        <ele>1407.7</ele>
        <time>2018-11-26T04:44:01Z</time>
      </trkpt>
      <trkpt lat="42.42303" lon="2.72587">
        <ele>1407.4</ele>
        <time>2018-11-26T04:44:01Z</time>
      </trkpt>
      <trkpt lat="42.42303" lon="2.72587">
        <ele>1407.5</ele>
        <time>2018-11-26T04:44:01Z</time>
      </trkpt>
      <trkpt lat="42.42303" lon="2.72588">
        <ele>1407.5</ele>
        <time>2018-11-26T04:44:01Z</time>
      </trkpt>
      <trkpt lat="42.42303" lon="2.72588">
        <ele>1407.5</ele>
        <time>2018-11-26T04:44:01Z</time>
      </trkpt>
      <trkpt lat="42.42303" lon="2.72588">
        <ele>1407.6</ele>
        <time>2018-11-26T04:44:01Z</time>
      </trkpt>
      <trkpt lat="42.42303" lon="2.72588">
        <ele>1407.6</ele>
        <time>2018-11-26T04:44:01Z</time>
      </trkpt>
      <trkpt lat="42.42303" lon="2.72588">
        <ele>1407.8</ele>
        <time>2018-11-26T04:44:01Z</time>
      </trkpt>
      <trkpt lat="42.42303" lon="2.72588">
        <ele>1407.7</ele>
        <time>2018-11-26T04:44:01Z</time>
      </trkpt>
      <trkpt lat="42.42303" lon="2.72588">
        <ele>1407.6</ele>
        <time>2018-11-26T04:44:01Z</time>
      </trkpt>
      <trkpt lat="42.42303" lon="2.72588">
        <ele>1407.7</ele>
        <time>2018-11-26T04:44:01Z</time>
      </trkpt>
      <trkpt lat="42.42303" lon="2.72588">
        <ele>1407.6</ele>
        <time>2018-11-26T04:44:01Z</time>
      </trkpt>
      <trkpt lat="42.42303" lon="2.72588">
        <ele>1407.7</ele>
        <time>2018-11-26T04:44:01Z</time>
      </trkpt>
      <trkpt lat="42.42303" lon="2.72588">
        <ele>1407.6</ele>
        <time>2018-11-26T04:44:01Z</time>
      </trkpt>
      <trkpt lat="42.42303" lon="2.72588">
        <ele>1407.7</ele>
        <time>2018-11-26T04:44:01Z</time>
      </trkpt>
      <trkpt lat="42.42303" lon="2.72588">
        <ele>1407.4</ele>
        <time>2018-11-26T04:44:01Z</time>
      </trkpt>
      <trkpt lat="42.42303" lon="2.72588">
        <ele>1407</ele>
        <time>2018-11-26T04:44:01Z</time>
      </trkpt>
      <trkpt lat="42.42303" lon="2.72588">
        <ele>1406.5</ele>
        <time>2018-11-26T04:44:01Z</time>
      </trkpt>
      <trkpt lat="42.42303" lon="2.72588">
        <ele>1406.4</ele>
        <time>2018-11-26T04:44:01Z</time>
      </trkpt>
      <trkpt lat="42.42303" lon="2.72588">
        <ele>1406.2</ele>
        <time>2018-11-26T04:44:01Z</time>
      </trkpt>
      <trkpt lat="42.42303" lon="2.72588">
        <ele>1406</ele>
        <time>2018-11-26T04:44:01Z</time>
      </trkpt>
      <trkpt lat="42.42303" lon="2.72588">
        <ele>1406.3</ele>
        <time>2018-11-26T04:44:01Z</time>
      </trkpt>
      <trkpt lat="42.42303" lon="2.72588">
        <ele>1406.4</ele>
        <time>2018-11-26T04:44:01Z</time>
      </trkpt>
      <trkpt lat="42.42303" lon="2.72588">
        <ele>1406.8</ele>
        <time>2018-11-26T04:44:01Z</time>
      </trkpt>
      <trkpt lat="42.42303" lon="2.72588">
        <ele>1407.1</ele>
        <time>2018-11-26T04:44:01Z</time>
      </trkpt>
      <trkpt lat="42.42303" lon="2.72588">
        <ele>1407.3</ele>
        <time>2018-11-26T04:44:01Z</time>
      </trkpt>
      <trkpt lat="42.42303" lon="2.72588">
        <ele>1407.4</ele>
        <time>2018-11-26T04:44:01Z</time>
      </trkpt>
      <trkpt lat="42.42303" lon="2.72588">
        <ele>1407.6</ele>
        <time>2018-11-26T04:44:01Z</time>
      </trkpt>
      <trkpt lat="42.42303" lon="2.72588">
        <ele>1407.7</ele>
        <time>2018-11-26T04:44:01Z</time>
      </trkpt>
      <trkpt lat="42.42303" lon="2.72588">
        <ele>1407.7</ele>
        <time>2018-11-26T04:44:01Z</time>
      </trkpt>
      <trkpt lat="42.42303" lon="2.72588">
        <ele>1407.9</ele>
        <time>2018-11-26T04:44:01Z</time>
      </trkpt>
      <trkpt lat="42.42303" lon="2.72589">
        <ele>1407.9</ele>
        <time>2018-11-26T04:44:01Z</time>
      </trkpt>
      <trkpt lat="42.42303" lon="2.72589">
        <ele>1407.8</ele>
        <time>2018-11-26T04:44:01Z</time>
      </trkpt>
      <trkpt lat="42.42303" lon="2.72589">
        <ele>1407.9</ele>
        <time>2018-11-26T04:44:01Z</time>
      </trkpt>
      <trkpt lat="42.42303" lon="2.72589">
        <ele>1407.7</ele>
        <time>2018-11-26T04:44:01Z</time>
      </trkpt>
      <trkpt lat="42.42303" lon="2.72589">
        <ele>1407.6</ele>
        <time>2018-11-26T04:44:01Z</time>
      </trkpt>
      <trkpt lat="42.42303" lon="2.72589">
        <ele>1407.4</ele>
        <time>2018-11-26T04:44:01Z</time>
      </trkpt>
      <trkpt lat="42.42303" lon="2.72589">
        <ele>1407.5</ele>
        <time>2018-11-26T04:44:01Z</time>
      </trkpt>
      <trkpt lat="42.42303" lon="2.72589">
        <ele>1407.4</ele>
        <time>2018-11-26T04:44:01Z</time>
      </trkpt>
      <trkpt lat="42.42303" lon="2.72589">
        <ele>1407.5</ele>
        <time>2018-11-26T04:44:01Z</time>
      </trkpt>
      <trkpt lat="42.42303" lon="2.72589">
        <ele>1407.7</ele>
        <time>2018-11-26T04:44:02Z</time>
      </trkpt>
      <trkpt lat="42.42303" lon="2.72589">
        <ele>1407.7</ele>
        <time>2018-11-26T04:44:02Z</time>
      </trkpt>
      <trkpt lat="42.42303" lon="2.72589">
        <ele>1407.5</ele>
        <time>2018-11-26T04:44:02Z</time>
      </trkpt>
      <trkpt lat="42.42303" lon="2.72589">
        <ele>1407.6</ele>
        <time>2018-11-26T04:44:02Z</time>
      </trkpt>
      <trkpt lat="42.42303" lon="2.72589">
        <ele>1407.4</ele>
        <time>2018-11-26T04:44:02Z</time>
      </trkpt>
      <trkpt lat="42.42303" lon="2.72589">
        <ele>1407.5</ele>
        <time>2018-11-26T04:44:02Z</time>
      </trkpt>
      <trkpt lat="42.42303" lon="2.72589">
        <ele>1407.3</ele>
        <time>2018-11-26T04:44:02Z</time>
      </trkpt>
      <trkpt lat="42.42303" lon="2.72589">
        <ele>1407.4</ele>
        <time>2018-11-26T04:44:02Z</time>
      </trkpt>
      <trkpt lat="42.42303" lon="2.72589">
        <ele>1407.5</ele>
        <time>2018-11-26T04:44:02Z</time>
      </trkpt>
      <trkpt lat="42.42303" lon="2.72589">
        <ele>1407.5</ele>
        <time>2018-11-26T04:44:02Z</time>
      </trkpt>
      <trkpt lat="42.42303" lon="2.72589">
        <ele>1407.4</ele>
        <time>2018-11-26T04:44:02Z</time>
      </trkpt>
      <trkpt lat="42.42303" lon="2.72589">
        <ele>1407.3</ele>
        <time>2018-11-26T04:44:02Z</time>
      </trkpt>
      <trkpt lat="42.42303" lon="2.72589">
        <ele>1407.2</ele>
        <time>2018-11-26T04:44:02Z</time>
      </trkpt>
      <trkpt lat="42.42303" lon="2.72589">
        <ele>1407.3</ele>
        <time>2018-11-26T04:44:02Z</time>
      </trkpt>
      <trkpt lat="42.42303" lon="2.72589">
        <ele>1407.5</ele>
        <time>2018-11-26T04:44:02Z</time>
      </trkpt>
      <trkpt lat="42.42303" lon="2.72589">
        <ele>1407.6</ele>
        <time>2018-11-26T04:44:02Z</time>
      </trkpt>
      <trkpt lat="42.42303" lon="2.72589">
        <ele>1408</ele>
        <time>2018-11-26T04:44:02Z</time>
      </trkpt>
      <trkpt lat="42.42303" lon="2.72589">
        <ele>1407.8</ele>
        <time>2018-11-26T04:44:02Z</time>
      </trkpt>
      <trkpt lat="42.42303" lon="2.72589">
        <ele>1407.7</ele>
        <time>2018-11-26T04:44:02Z</time>
      </trkpt>
      <trkpt lat="42.42303" lon="2.72589">
        <ele>1407.5</ele>
        <time>2018-11-26T04:44:02Z</time>
      </trkpt>
      <trkpt lat="42.42303" lon="2.72589">
        <ele>1407.6</ele>
        <time>2018-11-26T04:44:02Z</time>
      </trkpt>
      <trkpt lat="42.42303" lon="2.72591">
        <ele>1407.5</ele>
        <time>2018-11-26T04:44:03Z</time>
      </trkpt>
      <trkpt lat="42.42302" lon="2.72591">
        <ele>1407.5</ele>
        <time>2018-11-26T04:44:03Z</time>
      </trkpt>
      <trkpt lat="42.42302" lon="2.72592">
        <ele>1407.2</ele>
        <time>2018-11-26T04:44:03Z</time>
      </trkpt>
      <trkpt lat="42.42302" lon="2.72593">
        <ele>1407</ele>
        <time>2018-11-26T04:44:03Z</time>
      </trkpt>
      <trkpt lat="42.42302" lon="2.72593">
        <ele>1407.1</ele>
        <time>2018-11-26T04:44:03Z</time>
      </trkpt>
      <trkpt lat="42.42302" lon="2.72594">
        <ele>1407</ele>
        <time>2018-11-26T04:44:04Z</time>
      </trkpt>
      <trkpt lat="42.42302" lon="2.72595">
        <ele>1407.1</ele>
        <time>2018-11-26T04:44:04Z</time>
      </trkpt>
      <trkpt lat="42.42302" lon="2.72596">
        <ele>1407.1</ele>
        <time>2018-11-26T04:44:04Z</time>
      </trkpt>
      <trkpt lat="42.42302" lon="2.72597">
        <ele>1407.1</ele>
        <time>2018-11-26T04:44:04Z</time>
      </trkpt>
      <trkpt lat="42.42303" lon="2.72598">
        <ele>1407.2</ele>
        <time>2018-11-26T04:44:05Z</time>
      </trkpt>
      <trkpt lat="42.42304" lon="2.72598">
        <ele>1407.4</ele>
        <time>2018-11-26T04:44:05Z</time>
      </trkpt>
      <trkpt lat="42.42304" lon="2.72599">
        <ele>1407.4</ele>
        <time>2018-11-26T04:44:05Z</time>
      </trkpt>
      <trkpt lat="42.42304" lon="2.726">
        <ele>1407.3</ele>
        <time>2018-11-26T04:44:06Z</time>
      </trkpt>
      <trkpt lat="42.42304" lon="2.726">
        <ele>1407.3</ele>
        <time>2018-11-26T04:44:06Z</time>
      </trkpt>
      <trkpt lat="42.42303" lon="2.72603">
        <ele>1407.8</ele>
        <time>2018-11-26T04:44:07Z</time>
      </trkpt>
      <trkpt lat="42.42303" lon="2.72604">
        <ele>1407.7</ele>
        <time>2018-11-26T04:44:07Z</time>
      </trkpt>
      <trkpt lat="42.42303" lon="2.72605">
        <ele>1407.7</ele>
        <time>2018-11-26T04:44:07Z</time>
      </trkpt>
      <trkpt lat="42.42302" lon="2.72606">
        <ele>1407.5</ele>
        <time>2018-11-26T04:44:08Z</time>
      </trkpt>
      <trkpt lat="42.42302" lon="2.72607">
        <ele>1407.7</ele>
        <time>2018-11-26T04:44:08Z</time>
      </trkpt>
      <trkpt lat="42.42302" lon="2.72608">
        <ele>1408</ele>
        <time>2018-11-26T04:44:08Z</time>
      </trkpt>
      <trkpt lat="42.42302" lon="2.72609">
        <ele>1408.5</ele>
        <time>2018-11-26T04:44:09Z</time>
      </trkpt>
      <trkpt lat="42.42302" lon="2.7261">
        <ele>1408.4</ele>
        <time>2018-11-26T04:44:09Z</time>
      </trkpt>
      <trkpt lat="42.42303" lon="2.72611">
        <ele>1408.5</ele>
        <time>2018-11-26T04:44:09Z</time>
      </trkpt>
      <trkpt lat="42.42303" lon="2.72612">
        <ele>1408.3</ele>
        <time>2018-11-26T04:44:09Z</time>
      </trkpt>
      <trkpt lat="42.42303" lon="2.72612">
        <ele>1408.3</ele>
        <time>2018-11-26T04:44:10Z</time>
      </trkpt>
      <trkpt lat="42.42303" lon="2.72613">
        <ele>1408.3</ele>
        <time>2018-11-26T04:44:10Z</time>
      </trkpt>
      <trkpt lat="42.42303" lon="2.72613">
        <ele>1408.4</ele>
        <time>2018-11-26T04:44:10Z</time>
      </trkpt>
      <trkpt lat="42.42303" lon="2.72614">
        <ele>1408.6</ele>
        <time>2018-11-26T04:44:10Z</time>
      </trkpt>
      <trkpt lat="42.42303" lon="2.72615">
        <ele>1408.4</ele>
        <time>2018-11-26T04:44:10Z</time>
      </trkpt>
      <trkpt lat="42.42304" lon="2.72616">
        <ele>1408.3</ele>
        <time>2018-11-26T04:44:11Z</time>
      </trkpt>
      <trkpt lat="42.42304" lon="2.72617">
        <ele>1408.1</ele>
        <time>2018-11-26T04:44:11Z</time>
      </trkpt>
      <trkpt lat="42.42304" lon="2.72618">
        <ele>1407.9</ele>
        <time>2018-11-26T04:44:11Z</time>
      </trkpt>
      <trkpt lat="42.42304" lon="2.72619">
        <ele>1407.6</ele>
        <time>2018-11-26T04:44:12Z</time>
      </trkpt>
      <trkpt lat="42.42304" lon="2.7262">
        <ele>1407.3</ele>
        <time>2018-11-26T04:44:12Z</time>
      </trkpt>
      <trkpt lat="42.42304" lon="2.72621">
        <ele>1407.3</ele>
        <time>2018-11-26T04:44:12Z</time>
      </trkpt>
      <trkpt lat="42.42305" lon="2.72621">
        <ele>1407.5</ele>
        <time>2018-11-26T04:44:13Z</time>
      </trkpt>
      <trkpt lat="42.42305" lon="2.72621">
        <ele>1407.6</ele>
        <time>2018-11-26T04:44:13Z</time>
      </trkpt>
      <trkpt lat="42.42305" lon="2.72621">
        <ele>1407.4</ele>
        <time>2018-11-26T04:44:13Z</time>
      </trkpt>
      <trkpt lat="42.42305" lon="2.72622">
        <ele>1407.2</ele>
        <time>2018-11-26T04:44:13Z</time>
      </trkpt>
      <trkpt lat="42.42305" lon="2.72622">
        <ele>1407</ele>
        <time>2018-11-26T04:44:13Z</time>
      </trkpt>
      <trkpt lat="42.42305" lon="2.72622">
        <ele>1407</ele>
        <time>2018-11-26T04:44:13Z</time>
      </trkpt>
      <trkpt lat="42.42305" lon="2.72622">
        <ele>1407</ele>
        <time>2018-11-26T04:44:13Z</time>
      </trkpt>
      <trkpt lat="42.42305" lon="2.72622">
        <ele>1407</ele>
        <time>2018-11-26T04:44:13Z</time>
      </trkpt>
      <trkpt lat="42.42305" lon="2.72622">
        <ele>1407.1</ele>
        <time>2018-11-26T04:44:13Z</time>
      </trkpt>
      <trkpt lat="42.42305" lon="2.72622">
        <ele>1407</ele>
        <time>2018-11-26T04:44:13Z</time>
      </trkpt>
      <trkpt lat="42.42305" lon="2.72623">
        <ele>1406.9</ele>
        <time>2018-11-26T04:44:13Z</time>
      </trkpt>
      <trkpt lat="42.42305" lon="2.72623">
        <ele>1406.9</ele>
        <time>2018-11-26T04:44:13Z</time>
      </trkpt>
      <trkpt lat="42.42305" lon="2.72624">
        <ele>1407</ele>
        <time>2018-11-26T04:44:13Z</time>
      </trkpt>
      <trkpt lat="42.42305" lon="2.72624">
        <ele>1407.2</ele>
        <time>2018-11-26T04:44:14Z</time>
      </trkpt>
      <trkpt lat="42.42306" lon="2.72625">
        <ele>1407.6</ele>
        <time>2018-11-26T04:44:14Z</time>
      </trkpt>
      <trkpt lat="42.42306" lon="2.72625">
        <ele>1407.7</ele>
        <time>2018-11-26T04:44:14Z</time>
      </trkpt>
      <trkpt lat="42.42305" lon="2.72626">
        <ele>1407.8</ele>
        <time>2018-11-26T04:44:14Z</time>
      </trkpt>
      <trkpt lat="42.42306" lon="2.72626">
        <ele>1407.9</ele>
        <time>2018-11-26T04:44:14Z</time>
      </trkpt>
      <trkpt lat="42.42306" lon="2.72627">
        <ele>1407.7</ele>
        <time>2018-11-26T04:44:15Z</time>
      </trkpt>
      <trkpt lat="42.42306" lon="2.72627">
        <ele>1407.8</ele>
        <time>2018-11-26T04:44:15Z</time>
      </trkpt>
      <trkpt lat="42.42306" lon="2.72627">
        <ele>1407.7</ele>
        <time>2018-11-26T04:44:15Z</time>
      </trkpt>
      <trkpt lat="42.42306" lon="2.72627">
        <ele>1407.6</ele>
        <time>2018-11-26T04:44:15Z</time>
      </trkpt>
      <trkpt lat="42.42305" lon="2.72627">
        <ele>1407.7</ele>
        <time>2018-11-26T04:44:15Z</time>
      </trkpt>
      <trkpt lat="42.42305" lon="2.72627">
        <ele>1407.9</ele>
        <time>2018-11-26T04:44:15Z</time>
      </trkpt>
      <trkpt lat="42.42306" lon="2.72628">
        <ele>1408</ele>
        <time>2018-11-26T04:44:15Z</time>
      </trkpt>
      <trkpt lat="42.42306" lon="2.7263">
        <ele>1408</ele>
        <time>2018-11-26T04:44:16Z</time>
      </trkpt>
      <trkpt lat="42.42306" lon="2.7263">
        <ele>1407.8</ele>
        <time>2018-11-26T04:44:16Z</time>
      </trkpt>
      <trkpt lat="42.42306" lon="2.72631">
        <ele>1407.9</ele>
        <time>2018-11-26T04:44:16Z</time>
      </trkpt>
      <trkpt lat="42.42306" lon="2.72631">
        <ele>1408.2</ele>
        <time>2018-11-26T04:44:16Z</time>
      </trkpt>
      <trkpt lat="42.42306" lon="2.72631">
        <ele>1408.4</ele>
        <time>2018-11-26T04:44:16Z</time>
      </trkpt>
      <trkpt lat="42.42306" lon="2.72632">
        <ele>1408.6</ele>
        <time>2018-11-26T04:44:16Z</time>
      </trkpt>
      <trkpt lat="42.42306" lon="2.72632">
        <ele>1408.9</ele>
        <time>2018-11-26T04:44:16Z</time>
      </trkpt>
      <trkpt lat="42.42306" lon="2.72632">
        <ele>1409.2</ele>
        <time>2018-11-26T04:44:16Z</time>
      </trkpt>
      <trkpt lat="42.42305" lon="2.72633">
        <ele>1409.1</ele>
        <time>2018-11-26T04:44:17Z</time>
      </trkpt>
      <trkpt lat="42.42305" lon="2.72633">
        <ele>1409</ele>
        <time>2018-11-26T04:44:17Z</time>
      </trkpt>
      <trkpt lat="42.42305" lon="2.72634">
        <ele>1409.1</ele>
        <time>2018-11-26T04:44:17Z</time>
      </trkpt>
      <trkpt lat="42.42305" lon="2.72634">
        <ele>1409.3</ele>
        <time>2018-11-26T04:44:17Z</time>
      </trkpt>
      <trkpt lat="42.42305" lon="2.72634">
        <ele>1409.5</ele>
        <time>2018-11-26T04:44:17Z</time>
      </trkpt>
      <trkpt lat="42.42305" lon="2.72634">
        <ele>1409.7</ele>
        <time>2018-11-26T04:44:17Z</time>
      </trkpt>
      <trkpt lat="42.42305" lon="2.72634">
        <ele>1409.8</ele>
        <time>2018-11-26T04:44:17Z</time>
      </trkpt>
      <trkpt lat="42.42305" lon="2.72635">
        <ele>1410</ele>
        <time>2018-11-26T04:44:17Z</time>
      </trkpt>
      <trkpt lat="42.42304" lon="2.72635">
        <ele>1410.1</ele>
        <time>2018-11-26T04:44:17Z</time>
      </trkpt>
      <trkpt lat="42.42304" lon="2.72635">
        <ele>1410.1</ele>
        <time>2018-11-26T04:44:18Z</time>
      </trkpt>
      <trkpt lat="42.42304" lon="2.72636">
        <ele>1410.1</ele>
        <time>2018-11-26T04:44:18Z</time>
      </trkpt>
      <trkpt lat="42.42304" lon="2.72636">
        <ele>1410.1</ele>
        <time>2018-11-26T04:44:18Z</time>
      </trkpt>
      <trkpt lat="42.42304" lon="2.72636">
        <ele>1410.5</ele>
        <time>2018-11-26T04:44:18Z</time>
      </trkpt>
      <trkpt lat="42.42304" lon="2.72636">
        <ele>1411.1</ele>
        <time>2018-11-26T04:44:18Z</time>
      </trkpt>
      <trkpt lat="42.42304" lon="2.72637">
        <ele>1412</ele>
        <time>2018-11-26T04:44:18Z</time>
      </trkpt>
      <trkpt lat="42.42303" lon="2.72637">
        <ele>1411.8</ele>
        <time>2018-11-26T04:44:18Z</time>
      </trkpt>
      <trkpt lat="42.42303" lon="2.72637">
        <ele>1411.7</ele>
        <time>2018-11-26T04:44:18Z</time>
      </trkpt>
      <trkpt lat="42.42303" lon="2.72638">
        <ele>1411.7</ele>
        <time>2018-11-26T04:44:19Z</time>
      </trkpt>
      <trkpt lat="42.42303" lon="2.72639">
        <ele>1411.9</ele>
        <time>2018-11-26T04:44:19Z</time>
      </trkpt>
      <trkpt lat="42.42302" lon="2.72639">
        <ele>1412</ele>
        <time>2018-11-26T04:44:19Z</time>
      </trkpt>
      <trkpt lat="42.42303" lon="2.7264">
        <ele>1412.2</ele>
        <time>2018-11-26T04:44:19Z</time>
      </trkpt>
      <trkpt lat="42.42303" lon="2.7264">
        <ele>1412.5</ele>
        <time>2018-11-26T04:44:19Z</time>
      </trkpt>
      <trkpt lat="42.42303" lon="2.72641">
        <ele>1412.7</ele>
        <time>2018-11-26T04:44:20Z</time>
      </trkpt>
      <trkpt lat="42.42303" lon="2.72642">
        <ele>1413.1</ele>
        <time>2018-11-26T04:44:20Z</time>
      </trkpt>
      <trkpt lat="42.42303" lon="2.72643">
        <ele>1413.2</ele>
        <time>2018-11-26T04:44:20Z</time>
      </trkpt>
      <trkpt lat="42.42303" lon="2.72644">
        <ele>1413.1</ele>
        <time>2018-11-26T04:44:21Z</time>
      </trkpt>
      <trkpt lat="42.42303" lon="2.72646">
        <ele>1413.1</ele>
        <time>2018-11-26T04:44:21Z</time>
      </trkpt>
      <trkpt lat="42.42303" lon="2.72647">
        <ele>1413.1</ele>
        <time>2018-11-26T04:44:21Z</time>
      </trkpt>
      <trkpt lat="42.42303" lon="2.72647">
        <ele>1413.1</ele>
        <time>2018-11-26T04:44:22Z</time>
      </trkpt>
      <trkpt lat="42.42303" lon="2.72648">
        <ele>1413.1</ele>
        <time>2018-11-26T04:44:22Z</time>
      </trkpt>
      <trkpt lat="42.42303" lon="2.72649">
        <ele>1412.8</ele>
        <time>2018-11-26T04:44:22Z</time>
      </trkpt>
      <trkpt lat="42.42303" lon="2.7265">
        <ele>1412.5</ele>
        <time>2018-11-26T04:44:22Z</time>
      </trkpt>
      <trkpt lat="42.42304" lon="2.72651">
        <ele>1412.1</ele>
        <time>2018-11-26T04:44:23Z</time>
      </trkpt>
      <trkpt lat="42.42304" lon="2.72652">
        <ele>1412.4</ele>
        <time>2018-11-26T04:44:23Z</time>
      </trkpt>
      <trkpt lat="42.42305" lon="2.72654">
        <ele>1413.7</ele>
        <time>2018-11-26T04:44:24Z</time>
      </trkpt>
      <trkpt lat="42.42305" lon="2.72654">
        <ele>1413.7</ele>
        <time>2018-11-26T04:44:24Z</time>
      </trkpt>
      <trkpt lat="42.42305" lon="2.72655">
        <ele>1414</ele>
        <time>2018-11-26T04:44:24Z</time>
      </trkpt>
      <trkpt lat="42.42305" lon="2.72656">
        <ele>1414.3</ele>
        <time>2018-11-26T04:44:24Z</time>
      </trkpt>
      <trkpt lat="42.42305" lon="2.72656">
        <ele>1414.3</ele>
        <time>2018-11-26T04:44:25Z</time>
      </trkpt>
      <trkpt lat="42.42304" lon="2.72657">
        <ele>1414.4</ele>
        <time>2018-11-26T04:44:25Z</time>
      </trkpt>
      <trkpt lat="42.42304" lon="2.72658">
        <ele>1414.6</ele>
        <time>2018-11-26T04:44:25Z</time>
      </trkpt>
      <trkpt lat="42.42304" lon="2.72659">
        <ele>1414.8</ele>
        <time>2018-11-26T04:44:25Z</time>
      </trkpt>
      <trkpt lat="42.42304" lon="2.7266">
        <ele>1415.2</ele>
        <time>2018-11-26T04:44:26Z</time>
      </trkpt>
      <trkpt lat="42.42304" lon="2.72661">
        <ele>1415.5</ele>
        <time>2018-11-26T04:44:26Z</time>
      </trkpt>
      <trkpt lat="42.42304" lon="2.72662">
        <ele>1415.5</ele>
        <time>2018-11-26T04:44:26Z</time>
      </trkpt>
      <trkpt lat="42.42304" lon="2.72662">
        <ele>1415.4</ele>
        <time>2018-11-26T04:44:26Z</time>
      </trkpt>
      <trkpt lat="42.42304" lon="2.72662">
        <ele>1415.3</ele>
        <time>2018-11-26T04:44:26Z</time>
      </trkpt>
      <trkpt lat="42.42304" lon="2.72662">
        <ele>1415.2</ele>
        <time>2018-11-26T04:44:26Z</time>
      </trkpt>
      <trkpt lat="42.42304" lon="2.72662">
        <ele>1415.3</ele>
        <time>2018-11-26T04:44:27Z</time>
      </trkpt>
      <trkpt lat="42.42304" lon="2.72662">
        <ele>1415.3</ele>
        <time>2018-11-26T04:44:27Z</time>
      </trkpt>
      <trkpt lat="42.42304" lon="2.72662">
        <ele>1415.2</ele>
        <time>2018-11-26T04:44:27Z</time>
      </trkpt>
      <trkpt lat="42.42304" lon="2.72662">
        <ele>1415.2</ele>
        <time>2018-11-26T04:44:27Z</time>
      </trkpt>
      <trkpt lat="42.42304" lon="2.72662">
        <ele>1415.1</ele>
        <time>2018-11-26T04:44:27Z</time>
      </trkpt>
      <trkpt lat="42.42304" lon="2.72663">
        <ele>1415.2</ele>
        <time>2018-11-26T04:44:27Z</time>
      </trkpt>
      <trkpt lat="42.42304" lon="2.72663">
        <ele>1415.3</ele>
        <time>2018-11-26T04:44:27Z</time>
      </trkpt>
      <trkpt lat="42.42304" lon="2.72664">
        <ele>1415.6</ele>
        <time>2018-11-26T04:44:27Z</time>
      </trkpt>
      <trkpt lat="42.42304" lon="2.72665">
        <ele>1415.8</ele>
        <time>2018-11-26T04:44:28Z</time>
      </trkpt>
      <trkpt lat="42.42304" lon="2.72666">
        <ele>1415.6</ele>
        <time>2018-11-26T04:44:28Z</time>
      </trkpt>
      <trkpt lat="42.42304" lon="2.72666">
        <ele>1415.3</ele>
        <time>2018-11-26T04:44:28Z</time>
      </trkpt>
      <trkpt lat="42.42304" lon="2.72666">
        <ele>1415.5</ele>
        <time>2018-11-26T04:44:28Z</time>
      </trkpt>
      <trkpt lat="42.42304" lon="2.72666">
        <ele>1416.7</ele>
        <time>2018-11-26T04:44:28Z</time>
      </trkpt>
      <trkpt lat="42.42304" lon="2.72665">
        <ele>1417.2</ele>
        <time>2018-11-26T04:44:28Z</time>
      </trkpt>
      <trkpt lat="42.42303" lon="2.72665">
        <ele>1417.8</ele>
        <time>2018-11-26T04:44:29Z</time>
      </trkpt>
      <trkpt lat="42.42302" lon="2.72665">
        <ele>1417.8</ele>
        <time>2018-11-26T04:44:29Z</time>
      </trkpt>
      <trkpt lat="42.42302" lon="2.72665">
        <ele>1417.8</ele>
        <time>2018-11-26T04:44:29Z</time>
      </trkpt>
      <trkpt lat="42.42301" lon="2.72664">
        <ele>1417.7</ele>
        <time>2018-11-26T04:44:29Z</time>
      </trkpt>
      <trkpt lat="42.42301" lon="2.72664">
        <ele>1417.9</ele>
        <time>2018-11-26T04:44:29Z</time>
      </trkpt>
      <trkpt lat="42.42301" lon="2.72665">
        <ele>1417.9</ele>
        <time>2018-11-26T04:44:30Z</time>
      </trkpt>
      <trkpt lat="42.42301" lon="2.72665">
        <ele>1418.3</ele>
        <time>2018-11-26T04:44:30Z</time>
      </trkpt>
      <trkpt lat="42.42301" lon="2.72665">
        <ele>1418.7</ele>
        <time>2018-11-26T04:44:30Z</time>
      </trkpt>
      <trkpt lat="42.42301" lon="2.72665">
        <ele>1419.3</ele>
        <time>2018-11-26T04:44:30Z</time>
      </trkpt>
      <trkpt lat="42.42301" lon="2.72665">
        <ele>1419.5</ele>
        <time>2018-11-26T04:44:30Z</time>
      </trkpt>
      <trkpt lat="42.423" lon="2.72666">
        <ele>1419.6</ele>
        <time>2018-11-26T04:44:30Z</time>
      </trkpt>
      <trkpt lat="42.423" lon="2.72667">
        <ele>1419.7</ele>
        <time>2018-11-26T04:44:31Z</time>
      </trkpt>
      <trkpt lat="42.423" lon="2.72668">
        <ele>1419.8</ele>
        <time>2018-11-26T04:44:31Z</time>
      </trkpt>
      <trkpt lat="42.423" lon="2.72669">
        <ele>1420.4</ele>
        <time>2018-11-26T04:44:31Z</time>
      </trkpt>
      <trkpt lat="42.42299" lon="2.7267">
        <ele>1420.4</ele>
        <time>2018-11-26T04:44:32Z</time>
      </trkpt>
      <trkpt lat="42.42299" lon="2.7267">
        <ele>1420.6</ele>
        <time>2018-11-26T04:44:32Z</time>
      </trkpt>
      <trkpt lat="42.42298" lon="2.72669">
        <ele>1420.8</ele>
        <time>2018-11-26T04:44:32Z</time>
      </trkpt>
      <trkpt lat="42.42298" lon="2.7267">
        <ele>1420.8</ele>
        <time>2018-11-26T04:44:32Z</time>
      </trkpt>
      <trkpt lat="42.42298" lon="2.72671">
        <ele>1420.8</ele>
        <time>2018-11-26T04:44:33Z</time>
      </trkpt>
      <trkpt lat="42.42298" lon="2.72671">
        <ele>1420.9</ele>
        <time>2018-11-26T04:44:33Z</time>
      </trkpt>
      <trkpt lat="42.42298" lon="2.72671">
        <ele>1420.9</ele>
        <time>2018-11-26T04:44:33Z</time>
      </trkpt>
      <trkpt lat="42.42298" lon="2.72672">
        <ele>1420.8</ele>
        <time>2018-11-26T04:44:33Z</time>
      </trkpt>
      <trkpt lat="42.42298" lon="2.72672">
        <ele>1420.6</ele>
        <time>2018-11-26T04:44:33Z</time>
      </trkpt>
      <trkpt lat="42.42298" lon="2.72672">
        <ele>1420.7</ele>
        <time>2018-11-26T04:44:33Z</time>
      </trkpt>
      <trkpt lat="42.42298" lon="2.72672">
        <ele>1420.8</ele>
        <time>2018-11-26T04:44:33Z</time>
      </trkpt>
      <trkpt lat="42.42298" lon="2.72672">
        <ele>1420.8</ele>
        <time>2018-11-26T04:44:33Z</time>
      </trkpt>
      <trkpt lat="42.42298" lon="2.72672">
        <ele>1421.3</ele>
        <time>2018-11-26T04:44:33Z</time>
      </trkpt>
      <trkpt lat="42.42298" lon="2.72672">
        <ele>1421.5</ele>
        <time>2018-11-26T04:44:33Z</time>
      </trkpt>
      <trkpt lat="42.42297" lon="2.72672">
        <ele>1421.7</ele>
        <time>2018-11-26T04:44:33Z</time>
      </trkpt>
      <trkpt lat="42.42297" lon="2.72673">
        <ele>1421.9</ele>
        <time>2018-11-26T04:44:34Z</time>
      </trkpt>
      <trkpt lat="42.42297" lon="2.72673">
        <ele>1422.2</ele>
        <time>2018-11-26T04:44:34Z</time>
      </trkpt>
      <trkpt lat="42.42297" lon="2.72673">
        <ele>1422.5</ele>
        <time>2018-11-26T04:44:34Z</time>
      </trkpt>
      <trkpt lat="42.42297" lon="2.72674">
        <ele>1422.7</ele>
        <time>2018-11-26T04:44:34Z</time>
      </trkpt>
      <trkpt lat="42.42296" lon="2.72674">
        <ele>1423.6</ele>
        <time>2018-11-26T04:44:34Z</time>
      </trkpt>
      <trkpt lat="42.42295" lon="2.72675">
        <ele>1423.4</ele>
        <time>2018-11-26T04:44:35Z</time>
      </trkpt>
      <trkpt lat="42.42295" lon="2.72676">
        <ele>1423.1</ele>
        <time>2018-11-26T04:44:35Z</time>
      </trkpt>
      <trkpt lat="42.42295" lon="2.72676">
        <ele>1422.9</ele>
        <time>2018-11-26T04:44:35Z</time>
      </trkpt>
      <trkpt lat="42.42295" lon="2.72677">
        <ele>1422.8</ele>
        <time>2018-11-26T04:44:35Z</time>
      </trkpt>
      <trkpt lat="42.42296" lon="2.72677">
        <ele>1422.8</ele>
        <time>2018-11-26T04:44:35Z</time>
      </trkpt>
      <trkpt lat="42.42296" lon="2.72677">
        <ele>1422.9</ele>
        <time>2018-11-26T04:44:35Z</time>
      </trkpt>
      <trkpt lat="42.42296" lon="2.72677">
        <ele>1422.8</ele>
        <time>2018-11-26T04:44:35Z</time>
      </trkpt>
      <trkpt lat="42.42296" lon="2.72677">
        <ele>1422.8</ele>
        <time>2018-11-26T04:44:35Z</time>
      </trkpt>
      <trkpt lat="42.42296" lon="2.72677">
        <ele>1422.8</ele>
        <time>2018-11-26T04:44:35Z</time>
      </trkpt>
      <trkpt lat="42.42296" lon="2.72677">
        <ele>1422.7</ele>
        <time>2018-11-26T04:44:36Z</time>
      </trkpt>
      <trkpt lat="42.42296" lon="2.72677">
        <ele>1422.5</ele>
        <time>2018-11-26T04:44:36Z</time>
      </trkpt>
      <trkpt lat="42.42296" lon="2.72677">
        <ele>1422.4</ele>
        <time>2018-11-26T04:44:36Z</time>
      </trkpt>
      <trkpt lat="42.42296" lon="2.72677">
        <ele>1422.4</ele>
        <time>2018-11-26T04:44:36Z</time>
      </trkpt>
      <trkpt lat="42.42296" lon="2.72678">
        <ele>1422.2</ele>
        <time>2018-11-26T04:44:36Z</time>
      </trkpt>
      <trkpt lat="42.42296" lon="2.72678">
        <ele>1422</ele>
        <time>2018-11-26T04:44:36Z</time>
      </trkpt>
      <trkpt lat="42.42296" lon="2.72678">
        <ele>1422</ele>
        <time>2018-11-26T04:44:36Z</time>
      </trkpt>
      <trkpt lat="42.42296" lon="2.72678">
        <ele>1422.1</ele>
        <time>2018-11-26T04:44:36Z</time>
      </trkpt>
      <trkpt lat="42.42296" lon="2.72678">
        <ele>1422.4</ele>
        <time>2018-11-26T04:44:36Z</time>
      </trkpt>
      <trkpt lat="42.42296" lon="2.72678">
        <ele>1422.7</ele>
        <time>2018-11-26T04:44:36Z</time>
      </trkpt>
      <trkpt lat="42.42296" lon="2.72678">
        <ele>1422.9</ele>
        <time>2018-11-26T04:44:36Z</time>
      </trkpt>
      <trkpt lat="42.42296" lon="2.72678">
        <ele>1423.1</ele>
        <time>2018-11-26T04:44:36Z</time>
      </trkpt>
      <trkpt lat="42.42296" lon="2.72679">
        <ele>1423.4</ele>
        <time>2018-11-26T04:44:36Z</time>
      </trkpt>
      <trkpt lat="42.42297" lon="2.72679">
        <ele>1423.7</ele>
        <time>2018-11-26T04:44:36Z</time>
      </trkpt>
      <trkpt lat="42.42297" lon="2.72679">
        <ele>1423.7</ele>
        <time>2018-11-26T04:44:36Z</time>
      </trkpt>
      <trkpt lat="42.42297" lon="2.72679">
        <ele>1423.8</ele>
        <time>2018-11-26T04:44:36Z</time>
      </trkpt>
      <trkpt lat="42.42297" lon="2.72679">
        <ele>1424</ele>
        <time>2018-11-26T04:44:36Z</time>
      </trkpt>
      <trkpt lat="42.42297" lon="2.7268">
        <ele>1424.1</ele>
        <time>2018-11-26T04:44:37Z</time>
      </trkpt>
      <trkpt lat="42.42296" lon="2.7268">
        <ele>1424</ele>
        <time>2018-11-26T04:44:37Z</time>
      </trkpt>
      <trkpt lat="42.42296" lon="2.72681">
        <ele>1423.8</ele>
        <time>2018-11-26T04:44:37Z</time>
      </trkpt>
      <trkpt lat="42.42296" lon="2.72681">
        <ele>1423.9</ele>
        <time>2018-11-26T04:44:37Z</time>
      </trkpt>
      <trkpt lat="42.42296" lon="2.72681">
        <ele>1424</ele>
        <time>2018-11-26T04:44:37Z</time>
      </trkpt>
      <trkpt lat="42.42296" lon="2.72681">
        <ele>1424.3</ele>
        <time>2018-11-26T04:44:37Z</time>
      </trkpt>
      <trkpt lat="42.42296" lon="2.72682">
        <ele>1424.5</ele>
        <time>2018-11-26T04:44:37Z</time>
      </trkpt>
      <trkpt lat="42.42296" lon="2.72682">
        <ele>1424.8</ele>
        <time>2018-11-26T04:44:37Z</time>
      </trkpt>
      <trkpt lat="42.42296" lon="2.72682">
        <ele>1425.3</ele>
        <time>2018-11-26T04:44:38Z</time>
      </trkpt>
      <trkpt lat="42.42296" lon="2.72683">
        <ele>1425.4</ele>
        <time>2018-11-26T04:44:38Z</time>
      </trkpt>
      <trkpt lat="42.42296" lon="2.72684">
        <ele>1425.7</ele>
        <time>2018-11-26T04:44:38Z</time>
      </trkpt>
      <trkpt lat="42.42295" lon="2.72685">
        <ele>1425.9</ele>
        <time>2018-11-26T04:44:38Z</time>
      </trkpt>
      <trkpt lat="42.42295" lon="2.72686">
        <ele>1425.9</ele>
        <time>2018-11-26T04:44:39Z</time>
      </trkpt>
      <trkpt lat="42.42295" lon="2.72688">
        <ele>1426.1</ele>
        <time>2018-11-26T04:44:39Z</time>
      </trkpt>
      <trkpt lat="42.42294" lon="2.72688">
        <ele>1426.3</ele>
        <time>2018-11-26T04:44:39Z</time>
      </trkpt>
      <trkpt lat="42.42294" lon="2.72688">
        <ele>1426.6</ele>
        <time>2018-11-26T04:44:39Z</time>
      </trkpt>
      <trkpt lat="42.42294" lon="2.72689">
        <ele>1426.6</ele>
        <time>2018-11-26T04:44:40Z</time>
      </trkpt>
      <trkpt lat="42.42294" lon="2.7269">
        <ele>1426.5</ele>
        <time>2018-11-26T04:44:40Z</time>
      </trkpt>
      <trkpt lat="42.42294" lon="2.7269">
        <ele>1426.6</ele>
        <time>2018-11-26T04:44:40Z</time>
      </trkpt>
      <trkpt lat="42.42294" lon="2.7269">
        <ele>1427</ele>
        <time>2018-11-26T04:44:40Z</time>
      </trkpt>
      <trkpt lat="42.42294" lon="2.72691">
        <ele>1427.4</ele>
        <time>2018-11-26T04:44:40Z</time>
      </trkpt>
      <trkpt lat="42.42293" lon="2.72691">
        <ele>1428</ele>
        <time>2018-11-26T04:44:40Z</time>
      </trkpt>
      <trkpt lat="42.42293" lon="2.72691">
        <ele>1428</ele>
        <time>2018-11-26T04:44:41Z</time>
      </trkpt>
      <trkpt lat="42.42292" lon="2.72692">
        <ele>1428</ele>
        <time>2018-11-26T04:44:41Z</time>
      </trkpt>
      <trkpt lat="42.42292" lon="2.72692">
        <ele>1428.2</ele>
        <time>2018-11-26T04:44:41Z</time>
      </trkpt>
      <trkpt lat="42.42292" lon="2.72692">
        <ele>1428.3</ele>
        <time>2018-11-26T04:44:41Z</time>
      </trkpt>
      <trkpt lat="42.42292" lon="2.72692">
        <ele>1428.4</ele>
        <time>2018-11-26T04:44:41Z</time>
      </trkpt>
      <trkpt lat="42.42292" lon="2.72692">
        <ele>1428.5</ele>
        <time>2018-11-26T04:44:41Z</time>
      </trkpt>
      <trkpt lat="42.42292" lon="2.72692">
        <ele>1428.8</ele>
        <time>2018-11-26T04:44:41Z</time>
      </trkpt>
      <trkpt lat="42.42292" lon="2.72693">
        <ele>1428.8</ele>
        <time>2018-11-26T04:44:41Z</time>
      </trkpt>
      <trkpt lat="42.42292" lon="2.72693">
        <ele>1428.8</ele>
        <time>2018-11-26T04:44:42Z</time>
      </trkpt>
      <trkpt lat="42.42292" lon="2.72693">
        <ele>1428.9</ele>
        <time>2018-11-26T04:44:42Z</time>
      </trkpt>
      <trkpt lat="42.42292" lon="2.72693">
        <ele>1429</ele>
        <time>2018-11-26T04:44:42Z</time>
      </trkpt>
      <trkpt lat="42.42292" lon="2.72693">
        <ele>1429.1</ele>
        <time>2018-11-26T04:44:42Z</time>
      </trkpt>
      <trkpt lat="42.42292" lon="2.72693">
        <ele>1429.2</ele>
        <time>2018-11-26T04:44:42Z</time>
      </trkpt>
      <trkpt lat="42.42292" lon="2.72693">
        <ele>1429.1</ele>
        <time>2018-11-26T04:44:42Z</time>
      </trkpt>
      <trkpt lat="42.42292" lon="2.72693">
        <ele>1429.4</ele>
        <time>2018-11-26T04:44:42Z</time>
      </trkpt>
      <trkpt lat="42.42293" lon="2.72694">
        <ele>1429.4</ele>
        <time>2018-11-26T04:44:42Z</time>
      </trkpt>
      <trkpt lat="42.42293" lon="2.72694">
        <ele>1429.5</ele>
        <time>2018-11-26T04:44:42Z</time>
      </trkpt>
      <trkpt lat="42.42293" lon="2.72694">
        <ele>1429.7</ele>
        <time>2018-11-26T04:44:42Z</time>
      </trkpt>
      <trkpt lat="42.42293" lon="2.72694">
        <ele>1430</ele>
        <time>2018-11-26T04:44:42Z</time>
      </trkpt>
      <trkpt lat="42.42293" lon="2.72694">
        <ele>1430</ele>
        <time>2018-11-26T04:44:42Z</time>
      </trkpt>
      <trkpt lat="42.42293" lon="2.72695">
        <ele>1430</ele>
        <time>2018-11-26T04:44:42Z</time>
      </trkpt>
      <trkpt lat="42.42293" lon="2.72695">
        <ele>1429.9</ele>
        <time>2018-11-26T04:44:43Z</time>
      </trkpt>
      <trkpt lat="42.42294" lon="2.72695">
        <ele>1429.8</ele>
        <time>2018-11-26T04:44:43Z</time>
      </trkpt>
      <trkpt lat="42.42294" lon="2.72696">
        <ele>1429.8</ele>
        <time>2018-11-26T04:44:43Z</time>
      </trkpt>
      <trkpt lat="42.42294" lon="2.72696">
        <ele>1429.7</ele>
        <time>2018-11-26T04:44:43Z</time>
      </trkpt>
      <trkpt lat="42.42294" lon="2.72696">
        <ele>1429.7</ele>
        <time>2018-11-26T04:44:43Z</time>
      </trkpt>
      <trkpt lat="42.42294" lon="2.72697">
        <ele>1429.7</ele>
        <time>2018-11-26T04:44:43Z</time>
      </trkpt>
      <trkpt lat="42.42294" lon="2.72697">
        <ele>1429.9</ele>
        <time>2018-11-26T04:44:43Z</time>
      </trkpt>
      <trkpt lat="42.42295" lon="2.72697">
        <ele>1429.9</ele>
        <time>2018-11-26T04:44:44Z</time>
      </trkpt>
      <trkpt lat="42.42295" lon="2.72697">
        <ele>1429.9</ele>
        <time>2018-11-26T04:44:44Z</time>
      </trkpt>
      <trkpt lat="42.42295" lon="2.72697">
        <ele>1430</ele>
        <time>2018-11-26T04:44:44Z</time>
      </trkpt>
      <trkpt lat="42.42295" lon="2.72697">
        <ele>1429.8</ele>
        <time>2018-11-26T04:44:44Z</time>
      </trkpt>
      <trkpt lat="42.42296" lon="2.72697">
        <ele>1429.7</ele>
        <time>2018-11-26T04:44:44Z</time>
      </trkpt>
      <trkpt lat="42.42296" lon="2.72697">
        <ele>1429.3</ele>
        <time>2018-11-26T04:44:44Z</time>
      </trkpt>
      <trkpt lat="42.42296" lon="2.72697">
        <ele>1428.8</ele>
        <time>2018-11-26T04:44:44Z</time>
      </trkpt>
      <trkpt lat="42.42296" lon="2.72697">
        <ele>1429.2</ele>
        <time>2018-11-26T04:44:44Z</time>
      </trkpt>
      <trkpt lat="42.42296" lon="2.72697">
        <ele>1429.8</ele>
        <time>2018-11-26T04:44:44Z</time>
      </trkpt>
      <trkpt lat="42.42296" lon="2.72697">
        <ele>1430.7</ele>
        <time>2018-11-26T04:44:44Z</time>
      </trkpt>
      <trkpt lat="42.42297" lon="2.72697">
        <ele>1430.6</ele>
        <time>2018-11-26T04:44:44Z</time>
      </trkpt>
      <trkpt lat="42.42297" lon="2.72697">
        <ele>1430.6</ele>
        <time>2018-11-26T04:44:45Z</time>
      </trkpt>
      <trkpt lat="42.42297" lon="2.72697">
        <ele>1430.3</ele>
        <time>2018-11-26T04:44:45Z</time>
      </trkpt>
      <trkpt lat="42.42297" lon="2.72698">
        <ele>1430.2</ele>
        <time>2018-11-26T04:44:45Z</time>
      </trkpt>
      <trkpt lat="42.42297" lon="2.72698">
        <ele>1429.9</ele>
        <time>2018-11-26T04:44:45Z</time>
      </trkpt>
      <trkpt lat="42.42297" lon="2.72699">
        <ele>1429.5</ele>
        <time>2018-11-26T04:44:45Z</time>
      </trkpt>
      <trkpt lat="42.42297" lon="2.72699">
        <ele>1429.4</ele>
        <time>2018-11-26T04:44:45Z</time>
      </trkpt>
      <trkpt lat="42.42297" lon="2.72699">
        <ele>1429.2</ele>
        <time>2018-11-26T04:44:45Z</time>
      </trkpt>
      <trkpt lat="42.42297" lon="2.72699">
        <ele>1429.1</ele>
        <time>2018-11-26T04:44:45Z</time>
      </trkpt>
      <trkpt lat="42.42298" lon="2.727">
        <ele>1429</ele>
        <time>2018-11-26T04:44:46Z</time>
      </trkpt>
      <trkpt lat="42.42298" lon="2.72699">
        <ele>1428.9</ele>
        <time>2018-11-26T04:44:46Z</time>
      </trkpt>
      <trkpt lat="42.42298" lon="2.727">
        <ele>1428.9</ele>
        <time>2018-11-26T04:44:46Z</time>
      </trkpt>
      <trkpt lat="42.42298" lon="2.727">
        <ele>1429</ele>
        <time>2018-11-26T04:44:46Z</time>
      </trkpt>
      <trkpt lat="42.42298" lon="2.72701">
        <ele>1429.1</ele>
        <time>2018-11-26T04:44:46Z</time>
      </trkpt>
      <trkpt lat="42.42298" lon="2.72701">
        <ele>1429.2</ele>
        <time>2018-11-26T04:44:46Z</time>
      </trkpt>
      <trkpt lat="42.42298" lon="2.72701">
        <ele>1429.1</ele>
        <time>2018-11-26T04:44:46Z</time>
      </trkpt>
      <trkpt lat="42.42299" lon="2.727">
        <ele>1428.9</ele>
        <time>2018-11-26T04:44:47Z</time>
      </trkpt>
      <trkpt lat="42.423" lon="2.727">
        <ele>1428.4</ele>
        <time>2018-11-26T04:44:47Z</time>
      </trkpt>
      <trkpt lat="42.423" lon="2.72701">
        <ele>1428.6</ele>
        <time>2018-11-26T04:44:47Z</time>
      </trkpt>
      <trkpt lat="42.42301" lon="2.72701">
        <ele>1428.8</ele>
        <time>2018-11-26T04:44:47Z</time>
      </trkpt>
      <trkpt lat="42.42301" lon="2.72702">
        <ele>1429.2</ele>
        <time>2018-11-26T04:44:48Z</time>
      </trkpt>
      <trkpt lat="42.42302" lon="2.72702">
        <ele>1429.1</ele>
        <time>2018-11-26T04:44:48Z</time>
      </trkpt>
      <trkpt lat="42.42302" lon="2.72702">
        <ele>1428.8</ele>
        <time>2018-11-26T04:44:48Z</time>
      </trkpt>
      <trkpt lat="42.42303" lon="2.72703">
        <ele>1428.7</ele>
        <time>2018-11-26T04:44:48Z</time>
      </trkpt>
      <trkpt lat="42.42303" lon="2.72703">
        <ele>1428.5</ele>
        <time>2018-11-26T04:44:49Z</time>
      </trkpt>
      <trkpt lat="42.42303" lon="2.72704">
        <ele>1428.3</ele>
        <time>2018-11-26T04:44:49Z</time>
      </trkpt>
      <trkpt lat="42.42304" lon="2.72704">
        <ele>1427.9</ele>
        <time>2018-11-26T04:44:49Z</time>
      </trkpt>
      <trkpt lat="42.42304" lon="2.72704">
        <ele>1428.2</ele>
        <time>2018-11-26T04:44:49Z</time>
      </trkpt>
      <trkpt lat="42.42305" lon="2.72705">
        <ele>1428.5</ele>
        <time>2018-11-26T04:44:49Z</time>
      </trkpt>
      <trkpt lat="42.42305" lon="2.72705">
        <ele>1428.9</ele>
        <time>2018-11-26T04:44:50Z</time>
      </trkpt>
      <trkpt lat="42.42306" lon="2.72706">
        <ele>1429.6</ele>
        <time>2018-11-26T04:44:50Z</time>
      </trkpt>
      <trkpt lat="42.42307" lon="2.72706">
        <ele>1429.5</ele>
        <time>2018-11-26T04:44:50Z</time>
      </trkpt>
      <trkpt lat="42.42307" lon="2.72707">
        <ele>1429.4</ele>
        <time>2018-11-26T04:44:51Z</time>
      </trkpt>
      <trkpt lat="42.42308" lon="2.72707">
        <ele>1429.4</ele>
        <time>2018-11-26T04:44:51Z</time>
      </trkpt>
      <trkpt lat="42.42309" lon="2.72708">
        <ele>1429.3</ele>
        <time>2018-11-26T04:44:51Z</time>
      </trkpt>
      <trkpt lat="42.42309" lon="2.72708">
        <ele>1429.3</ele>
        <time>2018-11-26T04:44:52Z</time>
      </trkpt>
      <trkpt lat="42.4231" lon="2.72709">
        <ele>1429.4</ele>
        <time>2018-11-26T04:44:52Z</time>
      </trkpt>
      <trkpt lat="42.4231" lon="2.7271">
        <ele>1429</ele>
        <time>2018-11-26T04:44:52Z</time>
      </trkpt>
      <trkpt lat="42.4231" lon="2.7271">
        <ele>1428.6</ele>
        <time>2018-11-26T04:44:52Z</time>
      </trkpt>
      <trkpt lat="42.42309" lon="2.7271">
        <ele>1428.1</ele>
        <time>2018-11-26T04:44:52Z</time>
      </trkpt>
      <trkpt lat="42.4231" lon="2.72711">
        <ele>1428.4</ele>
        <time>2018-11-26T04:44:52Z</time>
      </trkpt>
      <trkpt lat="42.4231" lon="2.72711">
        <ele>1428.4</ele>
        <time>2018-11-26T04:44:52Z</time>
      </trkpt>
      <trkpt lat="42.4231" lon="2.72711">
        <ele>1428.7</ele>
        <time>2018-11-26T04:44:53Z</time>
      </trkpt>
      <trkpt lat="42.4231" lon="2.72712">
        <ele>1428.8</ele>
        <time>2018-11-26T04:44:53Z</time>
      </trkpt>
      <trkpt lat="42.42309" lon="2.72713">
        <ele>1429</ele>
        <time>2018-11-26T04:44:53Z</time>
      </trkpt>
      <trkpt lat="42.42309" lon="2.72713">
        <ele>1429.1</ele>
        <time>2018-11-26T04:44:53Z</time>
      </trkpt>
      <trkpt lat="42.42309" lon="2.72714">
        <ele>1429.3</ele>
        <time>2018-11-26T04:44:53Z</time>
      </trkpt>
      <trkpt lat="42.42309" lon="2.72715">
        <ele>1429.1</ele>
        <time>2018-11-26T04:44:54Z</time>
      </trkpt>
      <trkpt lat="42.42309" lon="2.72716">
        <ele>1428.8</ele>
        <time>2018-11-26T04:44:54Z</time>
      </trkpt>
      <trkpt lat="42.42309" lon="2.72716">
        <ele>1428.5</ele>
        <time>2018-11-26T04:44:54Z</time>
      </trkpt>
      <trkpt lat="42.42309" lon="2.72716">
        <ele>1428.5</ele>
        <time>2018-11-26T04:44:54Z</time>
      </trkpt>
      <trkpt lat="42.42309" lon="2.72716">
        <ele>1428.6</ele>
        <time>2018-11-26T04:44:54Z</time>
      </trkpt>
      <trkpt lat="42.42309" lon="2.72716">
        <ele>1428.5</ele>
        <time>2018-11-26T04:44:54Z</time>
      </trkpt>
      <trkpt lat="42.42309" lon="2.72716">
        <ele>1428.9</ele>
        <time>2018-11-26T04:44:54Z</time>
      </trkpt>
      <trkpt lat="42.42309" lon="2.72716">
        <ele>1429.3</ele>
        <time>2018-11-26T04:44:54Z</time>
      </trkpt>
      <trkpt lat="42.42309" lon="2.72716">
        <ele>1429.8</ele>
        <time>2018-11-26T04:44:54Z</time>
      </trkpt>
      <trkpt lat="42.42308" lon="2.72716">
        <ele>1429.8</ele>
        <time>2018-11-26T04:44:54Z</time>
      </trkpt>
      <trkpt lat="42.42308" lon="2.72717">
        <ele>1429.7</ele>
        <time>2018-11-26T04:44:54Z</time>
      </trkpt>
      <trkpt lat="42.42308" lon="2.72717">
        <ele>1429.7</ele>
        <time>2018-11-26T04:44:55Z</time>
      </trkpt>
      <trkpt lat="42.42307" lon="2.72717">
        <ele>1429.9</ele>
        <time>2018-11-26T04:44:55Z</time>
      </trkpt>
      <trkpt lat="42.42307" lon="2.72717">
        <ele>1430.2</ele>
        <time>2018-11-26T04:44:55Z</time>
      </trkpt>
      <trkpt lat="42.42307" lon="2.72717">
        <ele>1430.4</ele>
        <time>2018-11-26T04:44:55Z</time>
      </trkpt>
      <trkpt lat="42.42307" lon="2.72718">
        <ele>1430.8</ele>
        <time>2018-11-26T04:44:55Z</time>
      </trkpt>
      <trkpt lat="42.42306" lon="2.72718">
        <ele>1430.6</ele>
        <time>2018-11-26T04:44:55Z</time>
      </trkpt>
      <trkpt lat="42.42305" lon="2.72718">
        <ele>1430.2</ele>
        <time>2018-11-26T04:44:56Z</time>
      </trkpt>
      <trkpt lat="42.42305" lon="2.72719">
        <ele>1429.7</ele>
        <time>2018-11-26T04:44:56Z</time>
      </trkpt>
      <trkpt lat="42.42305" lon="2.72719">
        <ele>1429.6</ele>
        <time>2018-11-26T04:44:56Z</time>
      </trkpt>
      <trkpt lat="42.42304" lon="2.72719">
        <ele>1429.6</ele>
        <time>2018-11-26T04:44:56Z</time>
      </trkpt>
      <trkpt lat="42.42304" lon="2.7272">
        <ele>1429.5</ele>
        <time>2018-11-26T04:44:56Z</time>
      </trkpt>
      <trkpt lat="42.42304" lon="2.7272">
        <ele>1429.7</ele>
        <time>2018-11-26T04:44:57Z</time>
      </trkpt>
      <trkpt lat="42.42303" lon="2.72721">
        <ele>1429.7</ele>
        <time>2018-11-26T04:44:57Z</time>
      </trkpt>
      <trkpt lat="42.42303" lon="2.72721">
        <ele>1429.8</ele>
        <time>2018-11-26T04:44:57Z</time>
      </trkpt>
      <trkpt lat="42.42302" lon="2.72722">
        <ele>1429.8</ele>
        <time>2018-11-26T04:44:57Z</time>
      </trkpt>
      <trkpt lat="42.42302" lon="2.72722">
        <ele>1429.8</ele>
        <time>2018-11-26T04:44:58Z</time>
      </trkpt>
      <trkpt lat="42.42302" lon="2.72723">
        <ele>1429.7</ele>
        <time>2018-11-26T04:44:58Z</time>
      </trkpt>
      <trkpt lat="42.42301" lon="2.72723">
        <ele>1429.7</ele>
        <time>2018-11-26T04:44:58Z</time>
      </trkpt>
      <trkpt lat="42.42301" lon="2.72724">
        <ele>1429.9</ele>
        <time>2018-11-26T04:44:58Z</time>
      </trkpt>
      <trkpt lat="42.42301" lon="2.72724">
        <ele>1429.9</ele>
        <time>2018-11-26T04:44:58Z</time>
      </trkpt>
      <trkpt lat="42.423" lon="2.72724">
        <ele>1430.1</ele>
        <time>2018-11-26T04:44:58Z</time>
      </trkpt>
      <trkpt lat="42.423" lon="2.72724">
        <ele>1430.1</ele>
        <time>2018-11-26T04:44:58Z</time>
      </trkpt>
      <trkpt lat="42.423" lon="2.72724">
        <ele>1430.1</ele>
        <time>2018-11-26T04:44:58Z</time>
      </trkpt>
      <trkpt lat="42.423" lon="2.72724">
        <ele>1430.1</ele>
        <time>2018-11-26T04:44:59Z</time>
      </trkpt>
      <trkpt lat="42.42299" lon="2.72724">
        <ele>1429.9</ele>
        <time>2018-11-26T04:44:59Z</time>
      </trkpt>
      <trkpt lat="42.423" lon="2.72724">
        <ele>1429.6</ele>
        <time>2018-11-26T04:44:59Z</time>
      </trkpt>
      <trkpt lat="42.423" lon="2.72724">
        <ele>1429.8</ele>
        <time>2018-11-26T04:44:59Z</time>
      </trkpt>
      <trkpt lat="42.423" lon="2.72724">
        <ele>1430.1</ele>
        <time>2018-11-26T04:44:59Z</time>
      </trkpt>
      <trkpt lat="42.423" lon="2.72724">
        <ele>1430.5</ele>
        <time>2018-11-26T04:44:59Z</time>
      </trkpt>
      <trkpt lat="42.423" lon="2.72724">
        <ele>1430.9</ele>
        <time>2018-11-26T04:44:59Z</time>
      </trkpt>
      <trkpt lat="42.423" lon="2.72725">
        <ele>1430.8</ele>
        <time>2018-11-26T04:44:59Z</time>
      </trkpt>
      <trkpt lat="42.423" lon="2.72725">
        <ele>1430.5</ele>
        <time>2018-11-26T04:44:59Z</time>
      </trkpt>
      <trkpt lat="42.423" lon="2.72725">
        <ele>1430.3</ele>
        <time>2018-11-26T04:44:59Z</time>
      </trkpt>
      <trkpt lat="42.423" lon="2.72725">
        <ele>1430.1</ele>
        <time>2018-11-26T04:44:59Z</time>
      </trkpt>
      <trkpt lat="42.423" lon="2.72725">
        <ele>1429.9</ele>
        <time>2018-11-26T04:44:59Z</time>
      </trkpt>
      <trkpt lat="42.42301" lon="2.72725">
        <ele>1429.4</ele>
        <time>2018-11-26T04:44:59Z</time>
      </trkpt>
      <trkpt lat="42.42301" lon="2.72725">
        <ele>1429.8</ele>
        <time>2018-11-26T04:45:00Z</time>
      </trkpt>
      <trkpt lat="42.42301" lon="2.72725">
        <ele>1430</ele>
        <time>2018-11-26T04:45:00Z</time>
      </trkpt>
      <trkpt lat="42.42301" lon="2.72725">
        <ele>1430.5</ele>
        <time>2018-11-26T04:45:00Z</time>
      </trkpt>
      <trkpt lat="42.42302" lon="2.72725">
        <ele>1430.9</ele>
        <time>2018-11-26T04:45:00Z</time>
      </trkpt>
      <trkpt lat="42.42302" lon="2.72725">
        <ele>1431</ele>
        <time>2018-11-26T04:45:00Z</time>
      </trkpt>
      <trkpt lat="42.42302" lon="2.72726">
        <ele>1431.1</ele>
        <time>2018-11-26T04:45:00Z</time>
      </trkpt>
      <trkpt lat="42.42301" lon="2.72726">
        <ele>1431.4</ele>
        <time>2018-11-26T04:45:00Z</time>
      </trkpt>
      <trkpt lat="42.42301" lon="2.72726">
        <ele>1431.3</ele>
        <time>2018-11-26T04:45:01Z</time>
      </trkpt>
      <trkpt lat="42.42301" lon="2.72726">
        <ele>1431.4</ele>
        <time>2018-11-26T04:45:01Z</time>
      </trkpt>
      <trkpt lat="42.42301" lon="2.72727">
        <ele>1431.3</ele>
        <time>2018-11-26T04:45:01Z</time>
      </trkpt>
      <trkpt lat="42.42301" lon="2.72728">
        <ele>1431.2</ele>
        <time>2018-11-26T04:45:01Z</time>
      </trkpt>
      <trkpt lat="42.42301" lon="2.72728">
        <ele>1430.9</ele>
        <time>2018-11-26T04:45:01Z</time>
      </trkpt>
      <trkpt lat="42.42301" lon="2.72729">
        <ele>1430.6</ele>
        <time>2018-11-26T04:45:01Z</time>
      </trkpt>
      <trkpt lat="42.42301" lon="2.72729">
        <ele>1430.9</ele>
        <time>2018-11-26T04:45:02Z</time>
      </trkpt>
      <trkpt lat="42.42301" lon="2.7273">
        <ele>1431.3</ele>
        <time>2018-11-26T04:45:02Z</time>
      </trkpt>
      <trkpt lat="42.42301" lon="2.7273">
        <ele>1432</ele>
        <time>2018-11-26T04:45:02Z</time>
      </trkpt>
      <trkpt lat="42.42301" lon="2.7273">
        <ele>1431.9</ele>
        <time>2018-11-26T04:45:02Z</time>
      </trkpt>
      <trkpt lat="42.42301" lon="2.7273">
        <ele>1432.1</ele>
        <time>2018-11-26T04:45:02Z</time>
      </trkpt>
      <trkpt lat="42.42301" lon="2.7273">
        <ele>1432</ele>
        <time>2018-11-26T04:45:02Z</time>
      </trkpt>
      <trkpt lat="42.42301" lon="2.72731">
        <ele>1432.1</ele>
        <time>2018-11-26T04:45:02Z</time>
      </trkpt>
      <trkpt lat="42.42301" lon="2.72731">
        <ele>1432.1</ele>
        <time>2018-11-26T04:45:02Z</time>
      </trkpt>
      <trkpt lat="42.42301" lon="2.72731">
        <ele>1432</ele>
        <time>2018-11-26T04:45:02Z</time>
      </trkpt>
      <trkpt lat="42.42301" lon="2.72731">
        <ele>1432.1</ele>
        <time>2018-11-26T04:45:02Z</time>
      </trkpt>
      <trkpt lat="42.42301" lon="2.72731">
        <ele>1432</ele>
        <time>2018-11-26T04:45:02Z</time>
      </trkpt>
      <trkpt lat="42.42301" lon="2.72732">
        <ele>1432</ele>
        <time>2018-11-26T04:45:03Z</time>
      </trkpt>
      <trkpt lat="42.42301" lon="2.72732">
        <ele>1432</ele>
        <time>2018-11-26T04:45:03Z</time>
      </trkpt>
      <trkpt lat="42.42301" lon="2.72732">
        <ele>1432.1</ele>
        <time>2018-11-26T04:45:03Z</time>
      </trkpt>
      <trkpt lat="42.42301" lon="2.72732">
        <ele>1432</ele>
        <time>2018-11-26T04:45:03Z</time>
      </trkpt>
      <trkpt lat="42.42301" lon="2.72732">
        <ele>1432</ele>
        <time>2018-11-26T04:45:03Z</time>
      </trkpt>
      <trkpt lat="42.42301" lon="2.72732">
        <ele>1431.9</ele>
        <time>2018-11-26T04:45:03Z</time>
      </trkpt>
      <trkpt lat="42.42301" lon="2.72732">
        <ele>1431.8</ele>
        <time>2018-11-26T04:45:03Z</time>
      </trkpt>
      <trkpt lat="42.42301" lon="2.72732">
        <ele>1431.5</ele>
        <time>2018-11-26T04:45:03Z</time>
      </trkpt>
      <trkpt lat="42.42301" lon="2.72732">
        <ele>1431.4</ele>
        <time>2018-11-26T04:45:03Z</time>
      </trkpt>
      <trkpt lat="42.42301" lon="2.72732">
        <ele>1431.2</ele>
        <time>2018-11-26T04:45:03Z</time>
      </trkpt>
      <trkpt lat="42.42301" lon="2.72732">
        <ele>1431</ele>
        <time>2018-11-26T04:45:03Z</time>
      </trkpt>
      <trkpt lat="42.42301" lon="2.72732">
        <ele>1431</ele>
        <time>2018-11-26T04:45:03Z</time>
      </trkpt>
      <trkpt lat="42.42301" lon="2.72732">
        <ele>1431.1</ele>
        <time>2018-11-26T04:45:03Z</time>
      </trkpt>
      <trkpt lat="42.42301" lon="2.72732">
        <ele>1431.1</ele>
        <time>2018-11-26T04:45:03Z</time>
      </trkpt>
      <trkpt lat="42.42301" lon="2.72732">
        <ele>1431</ele>
        <time>2018-11-26T04:45:03Z</time>
      </trkpt>
      <trkpt lat="42.423" lon="2.72732">
        <ele>1431.1</ele>
        <time>2018-11-26T04:45:03Z</time>
      </trkpt>
      <trkpt lat="42.423" lon="2.72732">
        <ele>1431.3</ele>
        <time>2018-11-26T04:45:03Z</time>
      </trkpt>
      <trkpt lat="42.423" lon="2.72732">
        <ele>1431.6</ele>
        <time>2018-11-26T04:45:03Z</time>
      </trkpt>
      <trkpt lat="42.423" lon="2.72733">
        <ele>1431.9</ele>
        <time>2018-11-26T04:45:03Z</time>
      </trkpt>
      <trkpt lat="42.423" lon="2.72733">
        <ele>1432.1</ele>
        <time>2018-11-26T04:45:03Z</time>
      </trkpt>
      <trkpt lat="42.423" lon="2.72733">
        <ele>1432.6</ele>
        <time>2018-11-26T04:45:03Z</time>
      </trkpt>
      <trkpt lat="42.423" lon="2.72733">
        <ele>1432.6</ele>
        <time>2018-11-26T04:45:03Z</time>
      </trkpt>
      <trkpt lat="42.423" lon="2.72733">
        <ele>1432.6</ele>
        <time>2018-11-26T04:45:03Z</time>
      </trkpt>
      <trkpt lat="42.423" lon="2.72733">
        <ele>1432.7</ele>
        <time>2018-11-26T04:45:03Z</time>
      </trkpt>
      <trkpt lat="42.423" lon="2.72733">
        <ele>1432.9</ele>
        <time>2018-11-26T04:45:04Z</time>
      </trkpt>
      <trkpt lat="42.423" lon="2.72734">
        <ele>1433.1</ele>
        <time>2018-11-26T04:45:04Z</time>
      </trkpt>
      <trkpt lat="42.423" lon="2.72734">
        <ele>1433.1</ele>
        <time>2018-11-26T04:45:04Z</time>
      </trkpt>
      <trkpt lat="42.423" lon="2.72734">
        <ele>1433.3</ele>
        <time>2018-11-26T04:45:04Z</time>
      </trkpt>
      <trkpt lat="42.423" lon="2.72735">
        <ele>1433.3</ele>
        <time>2018-11-26T04:45:04Z</time>
      </trkpt>
      <trkpt lat="42.42299" lon="2.72735">
        <ele>1433.2</ele>
        <time>2018-11-26T04:45:04Z</time>
      </trkpt>
      <trkpt lat="42.42299" lon="2.72735">
        <ele>1433.1</ele>
        <time>2018-11-26T04:45:04Z</time>
      </trkpt>
      <trkpt lat="42.42299" lon="2.72735">
        <ele>1432.9</ele>
        <time>2018-11-26T04:45:04Z</time>
      </trkpt>
      <trkpt lat="42.42299" lon="2.72735">
        <ele>1432.7</ele>
        <time>2018-11-26T04:45:04Z</time>
      </trkpt>
      <trkpt lat="42.42299" lon="2.72735">
        <ele>1433</ele>
        <time>2018-11-26T04:45:04Z</time>
      </trkpt>
      <trkpt lat="42.42299" lon="2.72735">
        <ele>1433.2</ele>
        <time>2018-11-26T04:45:04Z</time>
      </trkpt>
      <trkpt lat="42.42299" lon="2.72735">
        <ele>1433.6</ele>
        <time>2018-11-26T04:45:04Z</time>
      </trkpt>
      <trkpt lat="42.42299" lon="2.72735">
        <ele>1433.8</ele>
        <time>2018-11-26T04:45:04Z</time>
      </trkpt>
      <trkpt lat="42.42299" lon="2.72735">
        <ele>1433.9</ele>
        <time>2018-11-26T04:45:04Z</time>
      </trkpt>
      <trkpt lat="42.42299" lon="2.72735">
        <ele>1434</ele>
        <time>2018-11-26T04:45:04Z</time>
      </trkpt>
      <trkpt lat="42.42299" lon="2.72735">
        <ele>1433.8</ele>
        <time>2018-11-26T04:45:04Z</time>
      </trkpt>
      <trkpt lat="42.42299" lon="2.72736">
        <ele>1433.8</ele>
        <time>2018-11-26T04:45:04Z</time>
      </trkpt>
      <trkpt lat="42.42299" lon="2.72737">
        <ele>1433.8</ele>
        <time>2018-11-26T04:45:05Z</time>
      </trkpt>
      <trkpt lat="42.42299" lon="2.72737">
        <ele>1433.7</ele>
        <time>2018-11-26T04:45:05Z</time>
      </trkpt>
      <trkpt lat="42.42298" lon="2.72737">
        <ele>1433.7</ele>
        <time>2018-11-26T04:45:05Z</time>
      </trkpt>
      <trkpt lat="42.42298" lon="2.72737">
        <ele>1433.7</ele>
        <time>2018-11-26T04:45:05Z</time>
      </trkpt>
      <trkpt lat="42.42298" lon="2.72737">
        <ele>1433.7</ele>
        <time>2018-11-26T04:45:05Z</time>
      </trkpt>
      <trkpt lat="42.42297" lon="2.72736">
        <ele>1433.8</ele>
        <time>2018-11-26T04:45:06Z</time>
      </trkpt>
      <trkpt lat="42.42296" lon="2.72736">
        <ele>1434</ele>
        <time>2018-11-26T04:45:06Z</time>
      </trkpt>
      <trkpt lat="42.42296" lon="2.72736">
        <ele>1434</ele>
        <time>2018-11-26T04:45:06Z</time>
      </trkpt>
      <trkpt lat="42.42296" lon="2.72736">
        <ele>1434.1</ele>
        <time>2018-11-26T04:45:06Z</time>
      </trkpt>
      <trkpt lat="42.42296" lon="2.72736">
        <ele>1434.3</ele>
        <time>2018-11-26T04:45:06Z</time>
      </trkpt>
      <trkpt lat="42.42296" lon="2.72736">
        <ele>1434.5</ele>
        <time>2018-11-26T04:45:06Z</time>
      </trkpt>
      <trkpt lat="42.42296" lon="2.72736">
        <ele>1434.6</ele>
        <time>2018-11-26T04:45:06Z</time>
      </trkpt>
      <trkpt lat="42.42296" lon="2.72736">
        <ele>1434.8</ele>
        <time>2018-11-26T04:45:06Z</time>
      </trkpt>
      <trkpt lat="42.42296" lon="2.72736">
        <ele>1435</ele>
        <time>2018-11-26T04:45:06Z</time>
      </trkpt>
      <trkpt lat="42.42296" lon="2.72737">
        <ele>1435</ele>
        <time>2018-11-26T04:45:06Z</time>
      </trkpt>
      <trkpt lat="42.42296" lon="2.72737">
        <ele>1435.2</ele>
        <time>2018-11-26T04:45:06Z</time>
      </trkpt>
      <trkpt lat="42.42296" lon="2.72737">
        <ele>1435.2</ele>
        <time>2018-11-26T04:45:06Z</time>
      </trkpt>
      <trkpt lat="42.42296" lon="2.72738">
        <ele>1435.3</ele>
        <time>2018-11-26T04:45:07Z</time>
      </trkpt>
      <trkpt lat="42.42296" lon="2.72738">
        <ele>1435.3</ele>
        <time>2018-11-26T04:45:07Z</time>
      </trkpt>
      <trkpt lat="42.42296" lon="2.72738">
        <ele>1435.4</ele>
        <time>2018-11-26T04:45:07Z</time>
      </trkpt>
      <trkpt lat="42.42295" lon="2.72738">
        <ele>1435.5</ele>
        <time>2018-11-26T04:45:07Z</time>
      </trkpt>
      <trkpt lat="42.42295" lon="2.72738">
        <ele>1435.8</ele>
        <time>2018-11-26T04:45:07Z</time>
      </trkpt>
      <trkpt lat="42.42295" lon="2.72738">
        <ele>1436.1</ele>
        <time>2018-11-26T04:45:07Z</time>
      </trkpt>
      <trkpt lat="42.42294" lon="2.72738">
        <ele>1436.4</ele>
        <time>2018-11-26T04:45:07Z</time>
      </trkpt>
      <trkpt lat="42.42294" lon="2.72739">
        <ele>1436.6</ele>
        <time>2018-11-26T04:45:08Z</time>
      </trkpt>
      <trkpt lat="42.42294" lon="2.7274">
        <ele>1437</ele>
        <time>2018-11-26T04:45:08Z</time>
      </trkpt>
      <trkpt lat="42.42295" lon="2.7274">
        <ele>1437.4</ele>
        <time>2018-11-26T04:45:08Z</time>
      </trkpt>
      <trkpt lat="42.42295" lon="2.7274">
        <ele>1437.2</ele>
        <time>2018-11-26T04:45:08Z</time>
      </trkpt>
      <trkpt lat="42.42295" lon="2.72741">
        <ele>1437.1</ele>
        <time>2018-11-26T04:45:08Z</time>
      </trkpt>
      <trkpt lat="42.42296" lon="2.72741">
        <ele>1437.3</ele>
        <time>2018-11-26T04:45:09Z</time>
      </trkpt>
      <trkpt lat="42.42295" lon="2.72742">
        <ele>1438</ele>
        <time>2018-11-26T04:45:09Z</time>
      </trkpt>
      <trkpt lat="42.42295" lon="2.72743">
        <ele>1437.9</ele>
        <time>2018-11-26T04:45:09Z</time>
      </trkpt>
      <trkpt lat="42.42294" lon="2.72743">
        <ele>1438.2</ele>
        <time>2018-11-26T04:45:09Z</time>
      </trkpt>
      <trkpt lat="42.42293" lon="2.72743">
        <ele>1438.5</ele>
        <time>2018-11-26T04:45:10Z</time>
      </trkpt>
      <trkpt lat="42.42293" lon="2.72743">
        <ele>1438.5</ele>
        <time>2018-11-26T04:45:10Z</time>
      </trkpt>
      <trkpt lat="42.42293" lon="2.72743">
        <ele>1438.7</ele>
        <time>2018-11-26T04:45:10Z</time>
      </trkpt>
      <trkpt lat="42.42293" lon="2.72743">
        <ele>1438.8</ele>
        <time>2018-11-26T04:45:10Z</time>
      </trkpt>
      <trkpt lat="42.42293" lon="2.72744">
        <ele>1439</ele>
        <time>2018-11-26T04:45:10Z</time>
      </trkpt>
      <trkpt lat="42.42294" lon="2.72745">
        <ele>1439.9</ele>
        <time>2018-11-26T04:45:11Z</time>
      </trkpt>
      <trkpt lat="42.42294" lon="2.72746">
        <ele>1440.1</ele>
        <time>2018-11-26T04:45:11Z</time>
      </trkpt>
      <trkpt lat="42.42293" lon="2.72746">
        <ele>1440.4</ele>
        <time>2018-11-26T04:45:11Z</time>
      </trkpt>
      <trkpt lat="42.42293" lon="2.72746">
        <ele>1440.7</ele>
        <time>2018-11-26T04:45:11Z</time>
      </trkpt>
      <trkpt lat="42.42294" lon="2.72746">
        <ele>1440.6</ele>
        <time>2018-11-26T04:45:11Z</time>
      </trkpt>
      <trkpt lat="42.42294" lon="2.72747">
        <ele>1440.6</ele>
        <time>2018-11-26T04:45:11Z</time>
      </trkpt>
      <trkpt lat="42.42293" lon="2.72748">
        <ele>1440.5</ele>
        <time>2018-11-26T04:45:12Z</time>
      </trkpt>
      <trkpt lat="42.42293" lon="2.72748">
        <ele>1440.5</ele>
        <time>2018-11-26T04:45:12Z</time>
      </trkpt>
      <trkpt lat="42.42294" lon="2.72748">
        <ele>1440.5</ele>
        <time>2018-11-26T04:45:12Z</time>
      </trkpt>
      <trkpt lat="42.42294" lon="2.72749">
        <ele>1440.6</ele>
        <time>2018-11-26T04:45:12Z</time>
      </trkpt>
      <trkpt lat="42.42293" lon="2.72749">
        <ele>1440.6</ele>
        <time>2018-11-26T04:45:12Z</time>
      </trkpt>
      <trkpt lat="42.42293" lon="2.72749">
        <ele>1440.8</ele>
        <time>2018-11-26T04:45:12Z</time>
      </trkpt>
      <trkpt lat="42.42293" lon="2.72749">
        <ele>1441.1</ele>
        <time>2018-11-26T04:45:12Z</time>
      </trkpt>
      <trkpt lat="42.42293" lon="2.72749">
        <ele>1441.4</ele>
        <time>2018-11-26T04:45:12Z</time>
      </trkpt>
      <trkpt lat="42.42293" lon="2.72749">
        <ele>1441.4</ele>
        <time>2018-11-26T04:45:12Z</time>
      </trkpt>
      <trkpt lat="42.42293" lon="2.7275">
        <ele>1441.7</ele>
        <time>2018-11-26T04:45:12Z</time>
      </trkpt>
      <trkpt lat="42.42293" lon="2.7275">
        <ele>1441.8</ele>
        <time>2018-11-26T04:45:12Z</time>
      </trkpt>
      <trkpt lat="42.42293" lon="2.72751">
        <ele>1442</ele>
        <time>2018-11-26T04:45:13Z</time>
      </trkpt>
      <trkpt lat="42.42293" lon="2.72751">
        <ele>1442.1</ele>
        <time>2018-11-26T04:45:13Z</time>
      </trkpt>
      <trkpt lat="42.42293" lon="2.72751">
        <ele>1442.3</ele>
        <time>2018-11-26T04:45:13Z</time>
      </trkpt>
      <trkpt lat="42.42293" lon="2.72751">
        <ele>1442.1</ele>
        <time>2018-11-26T04:45:13Z</time>
      </trkpt>
      <trkpt lat="42.42293" lon="2.72751">
        <ele>1441.9</ele>
        <time>2018-11-26T04:45:13Z</time>
      </trkpt>
      <trkpt lat="42.42293" lon="2.72752">
        <ele>1441.6</ele>
        <time>2018-11-26T04:45:13Z</time>
      </trkpt>
      <trkpt lat="42.42293" lon="2.72752">
        <ele>1441.4</ele>
        <time>2018-11-26T04:45:13Z</time>
      </trkpt>
      <trkpt lat="42.42293" lon="2.72752">
        <ele>1441.3</ele>
        <time>2018-11-26T04:45:13Z</time>
      </trkpt>
      <trkpt lat="42.42293" lon="2.72751">
        <ele>1441.4</ele>
        <time>2018-11-26T04:45:13Z</time>
      </trkpt>
      <trkpt lat="42.42293" lon="2.72752">
        <ele>1441.5</ele>
        <time>2018-11-26T04:45:13Z</time>
      </trkpt>
      <trkpt lat="42.42293" lon="2.72752">
        <ele>1441.7</ele>
        <time>2018-11-26T04:45:13Z</time>
      </trkpt>
      <trkpt lat="42.42293" lon="2.72752">
        <ele>1441.9</ele>
        <time>2018-11-26T04:45:13Z</time>
      </trkpt>
      <trkpt lat="42.42293" lon="2.72752">
        <ele>1442.2</ele>
        <time>2018-11-26T04:45:13Z</time>
      </trkpt>
      <trkpt lat="42.42293" lon="2.72752">
        <ele>1442.3</ele>
        <time>2018-11-26T04:45:13Z</time>
      </trkpt>
      <trkpt lat="42.42293" lon="2.72752">
        <ele>1442.5</ele>
        <time>2018-11-26T04:45:13Z</time>
      </trkpt>
      <trkpt lat="42.42293" lon="2.72752">
        <ele>1442.7</ele>
        <time>2018-11-26T04:45:13Z</time>
      </trkpt>
      <trkpt lat="42.42293" lon="2.72752">
        <ele>1442.8</ele>
        <time>2018-11-26T04:45:13Z</time>
      </trkpt>
      <trkpt lat="42.42293" lon="2.72752">
        <ele>1442.7</ele>
        <time>2018-11-26T04:45:13Z</time>
      </trkpt>
      <trkpt lat="42.42293" lon="2.72752">
        <ele>1442.7</ele>
        <time>2018-11-26T04:45:13Z</time>
      </trkpt>
      <trkpt lat="42.42293" lon="2.72752">
        <ele>1442.6</ele>
        <time>2018-11-26T04:45:13Z</time>
      </trkpt>
      <trkpt lat="42.42293" lon="2.72752">
        <ele>1442.5</ele>
        <time>2018-11-26T04:45:13Z</time>
      </trkpt>
      <trkpt lat="42.42293" lon="2.72752">
        <ele>1442.5</ele>
        <time>2018-11-26T04:45:13Z</time>
      </trkpt>
      <trkpt lat="42.42293" lon="2.72752">
        <ele>1442.4</ele>
        <time>2018-11-26T04:45:13Z</time>
      </trkpt>
      <trkpt lat="42.42293" lon="2.72752">
        <ele>1442.5</ele>
        <time>2018-11-26T04:45:13Z</time>
      </trkpt>
      <trkpt lat="42.42293" lon="2.72752">
        <ele>1442.6</ele>
        <time>2018-11-26T04:45:13Z</time>
      </trkpt>
      <trkpt lat="42.42293" lon="2.72752">
        <ele>1442.7</ele>
        <time>2018-11-26T04:45:13Z</time>
      </trkpt>
      <trkpt lat="42.42293" lon="2.72752">
        <ele>1442.6</ele>
        <time>2018-11-26T04:45:14Z</time>
      </trkpt>
      <trkpt lat="42.42293" lon="2.72752">
        <ele>1442.4</ele>
        <time>2018-11-26T04:45:14Z</time>
      </trkpt>
      <trkpt lat="42.42293" lon="2.72752">
        <ele>1442.1</ele>
        <time>2018-11-26T04:45:14Z</time>
      </trkpt>
      <trkpt lat="42.42293" lon="2.72752">
        <ele>1442.2</ele>
        <time>2018-11-26T04:45:14Z</time>
      </trkpt>
      <trkpt lat="42.42293" lon="2.72752">
        <ele>1442.7</ele>
        <time>2018-11-26T04:45:14Z</time>
      </trkpt>
      <trkpt lat="42.42292" lon="2.72753">
        <ele>1442.5</ele>
        <time>2018-11-26T04:45:14Z</time>
      </trkpt>
      <trkpt lat="42.42292" lon="2.72753">
        <ele>1442.4</ele>
        <time>2018-11-26T04:45:14Z</time>
      </trkpt>
      <trkpt lat="42.42292" lon="2.72754">
        <ele>1442.1</ele>
        <time>2018-11-26T04:45:15Z</time>
      </trkpt>
      <trkpt lat="42.42292" lon="2.72754">
        <ele>1442</ele>
        <time>2018-11-26T04:45:15Z</time>
      </trkpt>
      <trkpt lat="42.42292" lon="2.72754">
        <ele>1441.9</ele>
        <time>2018-11-26T04:45:15Z</time>
      </trkpt>
      <trkpt lat="42.42292" lon="2.72754">
        <ele>1441.7</ele>
        <time>2018-11-26T04:45:15Z</time>
      </trkpt>
      <trkpt lat="42.42292" lon="2.72754">
        <ele>1441.7</ele>
        <time>2018-11-26T04:45:15Z</time>
      </trkpt>
      <trkpt lat="42.42292" lon="2.72754">
        <ele>1441.8</ele>
        <time>2018-11-26T04:45:15Z</time>
      </trkpt>
      <trkpt lat="42.42291" lon="2.72755">
        <ele>1442.2</ele>
        <time>2018-11-26T04:45:15Z</time>
      </trkpt>
      <trkpt lat="42.4229" lon="2.72756">
        <ele>1442.3</ele>
        <time>2018-11-26T04:45:16Z</time>
      </trkpt>
      <trkpt lat="42.4229" lon="2.72757">
        <ele>1442.2</ele>
        <time>2018-11-26T04:45:16Z</time>
      </trkpt>
      <trkpt lat="42.42289" lon="2.72758">
        <ele>1442.3</ele>
        <time>2018-11-26T04:45:16Z</time>
      </trkpt>
      <trkpt lat="42.42289" lon="2.72758">
        <ele>1442.1</ele>
        <time>2018-11-26T04:45:17Z</time>
      </trkpt>
      <trkpt lat="42.42289" lon="2.72759">
        <ele>1441.9</ele>
        <time>2018-11-26T04:45:17Z</time>
      </trkpt>
      <trkpt lat="42.42288" lon="2.7276">
        <ele>1441.7</ele>
        <time>2018-11-26T04:45:17Z</time>
      </trkpt>
      <trkpt lat="42.42287" lon="2.72762">
        <ele>1441.2</ele>
        <time>2018-11-26T04:45:18Z</time>
      </trkpt>
      <trkpt lat="42.42286" lon="2.72762">
        <ele>1440.8</ele>
        <time>2018-11-26T04:45:18Z</time>
      </trkpt>
      <trkpt lat="42.42286" lon="2.72763">
        <ele>1440.7</ele>
        <time>2018-11-26T04:45:18Z</time>
      </trkpt>
      <trkpt lat="42.42285" lon="2.72764">
        <ele>1440.6</ele>
        <time>2018-11-26T04:45:19Z</time>
      </trkpt>
      <trkpt lat="42.42285" lon="2.72765">
        <ele>1440.4</ele>
        <time>2018-11-26T04:45:19Z</time>
      </trkpt>
      <trkpt lat="42.42284" lon="2.72766">
        <ele>1440.2</ele>
        <time>2018-11-26T04:45:19Z</time>
      </trkpt>
      <trkpt lat="42.42284" lon="2.72766">
        <ele>1440.1</ele>
        <time>2018-11-26T04:45:20Z</time>
      </trkpt>
      <trkpt lat="42.42284" lon="2.72767">
        <ele>1439.8</ele>
        <time>2018-11-26T04:45:20Z</time>
      </trkpt>
      <trkpt lat="42.42283" lon="2.72768">
        <ele>1439.5</ele>
        <time>2018-11-26T04:45:20Z</time>
      </trkpt>
      <trkpt lat="42.42283" lon="2.72769">
        <ele>1439.4</ele>
        <time>2018-11-26T04:45:20Z</time>
      </trkpt>
      <trkpt lat="42.42283" lon="2.72769">
        <ele>1439</ele>
        <time>2018-11-26T04:45:21Z</time>
      </trkpt>
      <trkpt lat="42.42284" lon="2.72769">
        <ele>1438.6</ele>
        <time>2018-11-26T04:45:21Z</time>
      </trkpt>
      <trkpt lat="42.42284" lon="2.7277">
        <ele>1438.8</ele>
        <time>2018-11-26T04:45:21Z</time>
      </trkpt>
      <trkpt lat="42.42284" lon="2.72771">
        <ele>1439.3</ele>
        <time>2018-11-26T04:45:21Z</time>
      </trkpt>
      <trkpt lat="42.42283" lon="2.72772">
        <ele>1439.5</ele>
        <time>2018-11-26T04:45:22Z</time>
      </trkpt>
      <trkpt lat="42.42283" lon="2.72773">
        <ele>1439.7</ele>
        <time>2018-11-26T04:45:22Z</time>
      </trkpt>
      <trkpt lat="42.42283" lon="2.72774">
        <ele>1439.8</ele>
        <time>2018-11-26T04:45:22Z</time>
      </trkpt>
      <trkpt lat="42.42282" lon="2.72775">
        <ele>1439.8</ele>
        <time>2018-11-26T04:45:22Z</time>
      </trkpt>
      <trkpt lat="42.42282" lon="2.72775">
        <ele>1439.8</ele>
        <time>2018-11-26T04:45:23Z</time>
      </trkpt>
      <trkpt lat="42.42281" lon="2.72776">
        <ele>1439.9</ele>
        <time>2018-11-26T04:45:23Z</time>
      </trkpt>
      <trkpt lat="42.42281" lon="2.72777">
        <ele>1439.8</ele>
        <time>2018-11-26T04:45:23Z</time>
      </trkpt>
      <trkpt lat="42.42281" lon="2.72778">
        <ele>1439.4</ele>
        <time>2018-11-26T04:45:24Z</time>
      </trkpt>
      <trkpt lat="42.4228" lon="2.72779">
        <ele>1439.2</ele>
        <time>2018-11-26T04:45:24Z</time>
      </trkpt>
      <trkpt lat="42.42279" lon="2.72781">
        <ele>1439</ele>
        <time>2018-11-26T04:45:25Z</time>
      </trkpt>
      <trkpt lat="42.42279" lon="2.72782">
        <ele>1439.2</ele>
        <time>2018-11-26T04:45:25Z</time>
      </trkpt>
      <trkpt lat="42.42278" lon="2.72783">
        <ele>1439.5</ele>
        <time>2018-11-26T04:45:26Z</time>
      </trkpt>
      <trkpt lat="42.42277" lon="2.72785">
        <ele>1439.5</ele>
        <time>2018-11-26T04:45:26Z</time>
      </trkpt>
      <trkpt lat="42.42277" lon="2.72785">
        <ele>1439.7</ele>
        <time>2018-11-26T04:45:26Z</time>
      </trkpt>
      <trkpt lat="42.42276" lon="2.72787">
        <ele>1439.7</ele>
        <time>2018-11-26T04:45:27Z</time>
      </trkpt>
      <trkpt lat="42.42275" lon="2.72787">
        <ele>1439.7</ele>
        <time>2018-11-26T04:45:27Z</time>
      </trkpt>
      <trkpt lat="42.42274" lon="2.72788">
        <ele>1439.6</ele>
        <time>2018-11-26T04:45:28Z</time>
      </trkpt>
      <trkpt lat="42.42274" lon="2.72789">
        <ele>1439.5</ele>
        <time>2018-11-26T04:45:28Z</time>
      </trkpt>
      <trkpt lat="42.42274" lon="2.72791">
        <ele>1439.2</ele>
        <time>2018-11-26T04:45:29Z</time>
      </trkpt>
      <trkpt lat="42.42273" lon="2.72792">
        <ele>1439.1</ele>
        <time>2018-11-26T04:45:29Z</time>
      </trkpt>
      <trkpt lat="42.42273" lon="2.72793">
        <ele>1439</ele>
        <time>2018-11-26T04:45:29Z</time>
      </trkpt>
      <trkpt lat="42.42272" lon="2.72793">
        <ele>1438.7</ele>
        <time>2018-11-26T04:45:29Z</time>
      </trkpt>
      <trkpt lat="42.42272" lon="2.72794">
        <ele>1438.5</ele>
        <time>2018-11-26T04:45:30Z</time>
      </trkpt>
      <trkpt lat="42.42271" lon="2.72794">
        <ele>1438.1</ele>
        <time>2018-11-26T04:45:30Z</time>
      </trkpt>
      <trkpt lat="42.42271" lon="2.72795">
        <ele>1437.5</ele>
        <time>2018-11-26T04:45:30Z</time>
      </trkpt>
      <trkpt lat="42.4227" lon="2.72796">
        <ele>1436.9</ele>
        <time>2018-11-26T04:45:31Z</time>
      </trkpt>
      <trkpt lat="42.42269" lon="2.72797">
        <ele>1437.5</ele>
        <time>2018-11-26T04:45:31Z</time>
      </trkpt>
      <trkpt lat="42.42268" lon="2.72798">
        <ele>1437.9</ele>
        <time>2018-11-26T04:45:32Z</time>
      </trkpt>
      <trkpt lat="42.42268" lon="2.72798">
        <ele>1438.1</ele>
        <time>2018-11-26T04:45:32Z</time>
      </trkpt>
      <trkpt lat="42.42267" lon="2.72799">
        <ele>1438.1</ele>
        <time>2018-11-26T04:45:32Z</time>
      </trkpt>
      <trkpt lat="42.42266" lon="2.72799">
        <ele>1438.2</ele>
        <time>2018-11-26T04:45:33Z</time>
      </trkpt>
      <trkpt lat="42.42265" lon="2.728">
        <ele>1438.5</ele>
        <time>2018-11-26T04:45:33Z</time>
      </trkpt>
      <trkpt lat="42.42265" lon="2.72801">
        <ele>1438.8</ele>
        <time>2018-11-26T04:45:33Z</time>
      </trkpt>
      <trkpt lat="42.42264" lon="2.72803">
        <ele>1439.2</ele>
        <time>2018-11-26T04:45:34Z</time>
      </trkpt>
      <trkpt lat="42.42264" lon="2.72804">
        <ele>1439.2</ele>
        <time>2018-11-26T04:45:34Z</time>
      </trkpt>
      <trkpt lat="42.42265" lon="2.72805">
        <ele>1439.2</ele>
        <time>2018-11-26T04:45:35Z</time>
      </trkpt>
      <trkpt lat="42.42266" lon="2.72806">
        <ele>1439.4</ele>
        <time>2018-11-26T04:45:35Z</time>
      </trkpt>
      <trkpt lat="42.42266" lon="2.72806">
        <ele>1439.4</ele>
        <time>2018-11-26T04:45:35Z</time>
      </trkpt>
      <trkpt lat="42.42266" lon="2.72807">
        <ele>1439.3</ele>
        <time>2018-11-26T04:45:36Z</time>
      </trkpt>
      <trkpt lat="42.42266" lon="2.72809">
        <ele>1439.2</ele>
        <time>2018-11-26T04:45:36Z</time>
      </trkpt>
      <trkpt lat="42.42266" lon="2.7281">
        <ele>1439.2</ele>
        <time>2018-11-26T04:45:36Z</time>
      </trkpt>
      <trkpt lat="42.42266" lon="2.72812">
        <ele>1439.2</ele>
        <time>2018-11-26T04:45:37Z</time>
      </trkpt>
      <trkpt lat="42.42267" lon="2.72814">
        <ele>1439.9</ele>
        <time>2018-11-26T04:45:38Z</time>
      </trkpt>
      <trkpt lat="42.42267" lon="2.72815">
        <ele>1439.9</ele>
        <time>2018-11-26T04:45:38Z</time>
      </trkpt>
      <trkpt lat="42.42267" lon="2.72819">
        <ele>1440.6</ele>
        <time>2018-11-26T04:45:39Z</time>
      </trkpt>
      <trkpt lat="42.42266" lon="2.7282">
        <ele>1440.8</ele>
        <time>2018-11-26T04:45:39Z</time>
      </trkpt>
      <trkpt lat="42.42266" lon="2.72821">
        <ele>1441.1</ele>
        <time>2018-11-26T04:45:40Z</time>
      </trkpt>
      <trkpt lat="42.42266" lon="2.72822">
        <ele>1441.2</ele>
        <time>2018-11-26T04:45:40Z</time>
      </trkpt>
      <trkpt lat="42.42265" lon="2.72823">
        <ele>1441.2</ele>
        <time>2018-11-26T04:45:40Z</time>
      </trkpt>
      <trkpt lat="42.42266" lon="2.72824">
        <ele>1441.4</ele>
        <time>2018-11-26T04:45:41Z</time>
      </trkpt>
      <trkpt lat="42.42265" lon="2.72825">
        <ele>1441.7</ele>
        <time>2018-11-26T04:45:41Z</time>
      </trkpt>
      <trkpt lat="42.42265" lon="2.72826">
        <ele>1441.6</ele>
        <time>2018-11-26T04:45:41Z</time>
      </trkpt>
      <trkpt lat="42.42266" lon="2.72827">
        <ele>1441.7</ele>
        <time>2018-11-26T04:45:42Z</time>
      </trkpt>
      <trkpt lat="42.42266" lon="2.72828">
        <ele>1441.7</ele>
        <time>2018-11-26T04:45:42Z</time>
      </trkpt>
      <trkpt lat="42.42266" lon="2.72829">
        <ele>1441.8</ele>
        <time>2018-11-26T04:45:42Z</time>
      </trkpt>
      <trkpt lat="42.42266" lon="2.7283">
        <ele>1442.1</ele>
        <time>2018-11-26T04:45:42Z</time>
      </trkpt>
      <trkpt lat="42.42266" lon="2.72831">
        <ele>1442.2</ele>
        <time>2018-11-26T04:45:43Z</time>
      </trkpt>
      <trkpt lat="42.42266" lon="2.72832">
        <ele>1442.2</ele>
        <time>2018-11-26T04:45:43Z</time>
      </trkpt>
      <trkpt lat="42.42266" lon="2.72833">
        <ele>1442.2</ele>
        <time>2018-11-26T04:45:43Z</time>
      </trkpt>
      <trkpt lat="42.42266" lon="2.72834">
        <ele>1442.1</ele>
        <time>2018-11-26T04:45:44Z</time>
      </trkpt>
      <trkpt lat="42.42265" lon="2.72835">
        <ele>1442.4</ele>
        <time>2018-11-26T04:45:44Z</time>
      </trkpt>
      <trkpt lat="42.42265" lon="2.72836">
        <ele>1442.6</ele>
        <time>2018-11-26T04:45:45Z</time>
      </trkpt>
      <trkpt lat="42.42265" lon="2.72838">
        <ele>1442.7</ele>
        <time>2018-11-26T04:45:45Z</time>
      </trkpt>
      <trkpt lat="42.42265" lon="2.72838">
        <ele>1442.4</ele>
        <time>2018-11-26T04:45:45Z</time>
      </trkpt>
      <trkpt lat="42.42265" lon="2.72839">
        <ele>1442.1</ele>
        <time>2018-11-26T04:45:45Z</time>
      </trkpt>
      <trkpt lat="42.42266" lon="2.7284">
        <ele>1441.7</ele>
        <time>2018-11-26T04:45:46Z</time>
      </trkpt>
      <trkpt lat="42.42266" lon="2.72841">
        <ele>1441.6</ele>
        <time>2018-11-26T04:45:46Z</time>
      </trkpt>
      <trkpt lat="42.42266" lon="2.72842">
        <ele>1441.3</ele>
        <time>2018-11-26T04:45:46Z</time>
      </trkpt>
      <trkpt lat="42.42266" lon="2.72843">
        <ele>1441.1</ele>
        <time>2018-11-26T04:45:47Z</time>
      </trkpt>
      <trkpt lat="42.42266" lon="2.72844">
        <ele>1440.9</ele>
        <time>2018-11-26T04:45:47Z</time>
      </trkpt>
      <trkpt lat="42.42266" lon="2.72845">
        <ele>1440.9</ele>
        <time>2018-11-26T04:45:47Z</time>
      </trkpt>
      <trkpt lat="42.42266" lon="2.72846">
        <ele>1441.1</ele>
        <time>2018-11-26T04:45:47Z</time>
      </trkpt>
      <trkpt lat="42.42266" lon="2.72847">
        <ele>1441.2</ele>
        <time>2018-11-26T04:45:48Z</time>
      </trkpt>
      <trkpt lat="42.42266" lon="2.72847">
        <ele>1441.1</ele>
        <time>2018-11-26T04:45:48Z</time>
      </trkpt>
      <trkpt lat="42.42266" lon="2.72847">
        <ele>1441.1</ele>
        <time>2018-11-26T04:45:48Z</time>
      </trkpt>
      <trkpt lat="42.42266" lon="2.72847">
        <ele>1441.2</ele>
        <time>2018-11-26T04:45:48Z</time>
      </trkpt>
      <trkpt lat="42.42266" lon="2.72847">
        <ele>1441</ele>
        <time>2018-11-26T04:45:48Z</time>
      </trkpt>
      <trkpt lat="42.42266" lon="2.72847">
        <ele>1440.9</ele>
        <time>2018-11-26T04:45:48Z</time>
      </trkpt>
      <trkpt lat="42.42266" lon="2.72847">
        <ele>1440.6</ele>
        <time>2018-11-26T04:45:48Z</time>
      </trkpt>
      <trkpt lat="42.42266" lon="2.72847">
        <ele>1440.8</ele>
        <time>2018-11-26T04:45:48Z</time>
      </trkpt>
      <trkpt lat="42.42266" lon="2.72847">
        <ele>1440.8</ele>
        <time>2018-11-26T04:45:48Z</time>
      </trkpt>
      <trkpt lat="42.42266" lon="2.72847">
        <ele>1441.1</ele>
        <time>2018-11-26T04:45:48Z</time>
      </trkpt>
      <trkpt lat="42.42266" lon="2.72847">
        <ele>1441.3</ele>
        <time>2018-11-26T04:45:48Z</time>
      </trkpt>
      <trkpt lat="42.42266" lon="2.72847">
        <ele>1441.2</ele>
        <time>2018-11-26T04:45:48Z</time>
      </trkpt>
      <trkpt lat="42.42266" lon="2.72847">
        <ele>1441.1</ele>
        <time>2018-11-26T04:45:48Z</time>
      </trkpt>
      <trkpt lat="42.42267" lon="2.72847">
        <ele>1441</ele>
        <time>2018-11-26T04:45:48Z</time>
      </trkpt>
      <trkpt lat="42.42267" lon="2.72847">
        <ele>1441.2</ele>
        <time>2018-11-26T04:45:48Z</time>
      </trkpt>
      <trkpt lat="42.42267" lon="2.72847">
        <ele>1441.4</ele>
        <time>2018-11-26T04:45:48Z</time>
      </trkpt>
      <trkpt lat="42.42267" lon="2.72847">
        <ele>1441.5</ele>
        <time>2018-11-26T04:45:48Z</time>
      </trkpt>
      <trkpt lat="42.42267" lon="2.72847">
        <ele>1441.6</ele>
        <time>2018-11-26T04:45:48Z</time>
      </trkpt>
      <trkpt lat="42.42267" lon="2.72847">
        <ele>1441.6</ele>
        <time>2018-11-26T04:45:48Z</time>
      </trkpt>
      <trkpt lat="42.42267" lon="2.72847">
        <ele>1441.4</ele>
        <time>2018-11-26T04:45:48Z</time>
      </trkpt>
      <trkpt lat="42.42267" lon="2.72848">
        <ele>1441.3</ele>
        <time>2018-11-26T04:45:48Z</time>
      </trkpt>
      <trkpt lat="42.42267" lon="2.72848">
        <ele>1441.1</ele>
        <time>2018-11-26T04:45:48Z</time>
      </trkpt>
      <trkpt lat="42.42267" lon="2.72848">
        <ele>1440.9</ele>
        <time>2018-11-26T04:45:48Z</time>
      </trkpt>
      <trkpt lat="42.42267" lon="2.72848">
        <ele>1440.9</ele>
        <time>2018-11-26T04:45:48Z</time>
      </trkpt>
      <trkpt lat="42.42267" lon="2.72848">
        <ele>1440.8</ele>
        <time>2018-11-26T04:45:48Z</time>
      </trkpt>
      <trkpt lat="42.42267" lon="2.72848">
        <ele>1440.8</ele>
        <time>2018-11-26T04:45:48Z</time>
      </trkpt>
      <trkpt lat="42.42267" lon="2.72848">
        <ele>1441</ele>
        <time>2018-11-26T04:45:48Z</time>
      </trkpt>
      <trkpt lat="42.42267" lon="2.72848">
        <ele>1441.2</ele>
        <time>2018-11-26T04:45:48Z</time>
      </trkpt>
      <trkpt lat="42.42267" lon="2.72848">
        <ele>1441.4</ele>
        <time>2018-11-26T04:45:48Z</time>
      </trkpt>
      <trkpt lat="42.42267" lon="2.72848">
        <ele>1441.8</ele>
        <time>2018-11-26T04:45:48Z</time>
      </trkpt>
      <trkpt lat="42.42267" lon="2.72848">
        <ele>1442.1</ele>
        <time>2018-11-26T04:45:48Z</time>
      </trkpt>
      <trkpt lat="42.42267" lon="2.72849">
        <ele>1442.2</ele>
        <time>2018-11-26T04:45:48Z</time>
      </trkpt>
      <trkpt lat="42.42267" lon="2.7285">
        <ele>1442.4</ele>
        <time>2018-11-26T04:45:49Z</time>
      </trkpt>
      <trkpt lat="42.42267" lon="2.72851">
        <ele>1442.3</ele>
        <time>2018-11-26T04:45:49Z</time>
      </trkpt>
      <trkpt lat="42.42267" lon="2.72852">
        <ele>1442.2</ele>
        <time>2018-11-26T04:45:49Z</time>
      </trkpt>
      <trkpt lat="42.42267" lon="2.72852">
        <ele>1441.9</ele>
        <time>2018-11-26T04:45:49Z</time>
      </trkpt>
      <trkpt lat="42.42267" lon="2.72853">
        <ele>1441.7</ele>
        <time>2018-11-26T04:45:50Z</time>
      </trkpt>
      <trkpt lat="42.42267" lon="2.72854">
        <ele>1441.3</ele>
        <time>2018-11-26T04:45:50Z</time>
      </trkpt>
      <trkpt lat="42.42268" lon="2.72855">
        <ele>1440.7</ele>
        <time>2018-11-26T04:45:50Z</time>
      </trkpt>
      <trkpt lat="42.42268" lon="2.72855">
        <ele>1440.5</ele>
        <time>2018-11-26T04:45:50Z</time>
      </trkpt>
      <trkpt lat="42.42268" lon="2.72856">
        <ele>1440.5</ele>
        <time>2018-11-26T04:45:51Z</time>
      </trkpt>
      <trkpt lat="42.42268" lon="2.72858">
        <ele>1440.2</ele>
        <time>2018-11-26T04:45:51Z</time>
      </trkpt>
      <trkpt lat="42.42268" lon="2.72858">
        <ele>1440.2</ele>
        <time>2018-11-26T04:45:51Z</time>
      </trkpt>
      <trkpt lat="42.42268" lon="2.7286">
        <ele>1440.1</ele>
        <time>2018-11-26T04:45:52Z</time>
      </trkpt>
      <trkpt lat="42.42268" lon="2.72861">
        <ele>1440.1</ele>
        <time>2018-11-26T04:45:52Z</time>
      </trkpt>
      <trkpt lat="42.42268" lon="2.72863">
        <ele>1440.3</ele>
        <time>2018-11-26T04:45:53Z</time>
      </trkpt>
      <trkpt lat="42.42268" lon="2.72867">
        <ele>1440.9</ele>
        <time>2018-11-26T04:45:54Z</time>
      </trkpt>
      <trkpt lat="42.42269" lon="2.72871">
        <ele>1441</ele>
        <time>2018-11-26T04:45:55Z</time>
      </trkpt>
      <trkpt lat="42.42269" lon="2.72872">
        <ele>1441</ele>
        <time>2018-11-26T04:45:56Z</time>
      </trkpt>
      <trkpt lat="42.42268" lon="2.72874">
        <ele>1441</ele>
        <time>2018-11-26T04:45:56Z</time>
      </trkpt>
      <trkpt lat="42.42268" lon="2.72875">
        <ele>1441.2</ele>
        <time>2018-11-26T04:45:56Z</time>
      </trkpt>
      <trkpt lat="42.42268" lon="2.72876">
        <ele>1441.4</ele>
        <time>2018-11-26T04:45:57Z</time>
      </trkpt>
      <trkpt lat="42.42268" lon="2.72877">
        <ele>1441.8</ele>
        <time>2018-11-26T04:45:57Z</time>
      </trkpt>
      <trkpt lat="42.42268" lon="2.72878">
        <ele>1441.9</ele>
        <time>2018-11-26T04:45:57Z</time>
      </trkpt>
      <trkpt lat="42.42267" lon="2.72879">
        <ele>1442.3</ele>
        <time>2018-11-26T04:45:58Z</time>
      </trkpt>
      <trkpt lat="42.42267" lon="2.7288">
        <ele>1442.6</ele>
        <time>2018-11-26T04:45:58Z</time>
      </trkpt>
      <trkpt lat="42.42267" lon="2.72882">
        <ele>1442.3</ele>
        <time>2018-11-26T04:45:58Z</time>
      </trkpt>
      <trkpt lat="42.42267" lon="2.72882">
        <ele>1441.8</ele>
        <time>2018-11-26T04:45:59Z</time>
      </trkpt>
      <trkpt lat="42.42268" lon="2.72883">
        <ele>1441.3</ele>
        <time>2018-11-26T04:45:59Z</time>
      </trkpt>
      <trkpt lat="42.42268" lon="2.72884">
        <ele>1440.5</ele>
        <time>2018-11-26T04:45:59Z</time>
      </trkpt>
      <trkpt lat="42.42268" lon="2.72885">
        <ele>1440.4</ele>
        <time>2018-11-26T04:46:00Z</time>
      </trkpt>
      <trkpt lat="42.42268" lon="2.72887">
        <ele>1439.9</ele>
        <time>2018-11-26T04:46:00Z</time>
      </trkpt>
      <trkpt lat="42.42267" lon="2.72889">
        <ele>1440.4</ele>
        <time>2018-11-26T04:46:01Z</time>
      </trkpt>
      <trkpt lat="42.42266" lon="2.7289">
        <ele>1441</ele>
        <time>2018-11-26T04:46:01Z</time>
      </trkpt>
      <trkpt lat="42.42266" lon="2.72892">
        <ele>1440.8</ele>
        <time>2018-11-26T04:46:02Z</time>
      </trkpt>
      <trkpt lat="42.42265" lon="2.72893">
        <ele>1440.7</ele>
        <time>2018-11-26T04:46:02Z</time>
      </trkpt>
      <trkpt lat="42.42265" lon="2.72894">
        <ele>1440.7</ele>
        <time>2018-11-26T04:46:03Z</time>
      </trkpt>
      <trkpt lat="42.42265" lon="2.72895">
        <ele>1440.8</ele>
        <time>2018-11-26T04:46:03Z</time>
      </trkpt>
      <trkpt lat="42.42266" lon="2.72896">
        <ele>1440.9</ele>
        <time>2018-11-26T04:46:03Z</time>
      </trkpt>
      <trkpt lat="42.42266" lon="2.72896">
        <ele>1440.9</ele>
        <time>2018-11-26T04:46:03Z</time>
      </trkpt>
      <trkpt lat="42.42267" lon="2.72897">
        <ele>1440.8</ele>
        <time>2018-11-26T04:46:04Z</time>
      </trkpt>
      <trkpt lat="42.42267" lon="2.72898">
        <ele>1440.7</ele>
        <time>2018-11-26T04:46:04Z</time>
      </trkpt>
      <trkpt lat="42.42267" lon="2.72899">
        <ele>1440.5</ele>
        <time>2018-11-26T04:46:04Z</time>
      </trkpt>
      <trkpt lat="42.42267" lon="2.729">
        <ele>1440.4</ele>
        <time>2018-11-26T04:46:05Z</time>
      </trkpt>
      <trkpt lat="42.42267" lon="2.72902">
        <ele>1440.4</ele>
        <time>2018-11-26T04:46:05Z</time>
      </trkpt>
      <trkpt lat="42.42267" lon="2.72903">
        <ele>1440.6</ele>
        <time>2018-11-26T04:46:06Z</time>
      </trkpt>
      <trkpt lat="42.42268" lon="2.72904">
        <ele>1440.8</ele>
        <time>2018-11-26T04:46:06Z</time>
      </trkpt>
      <trkpt lat="42.42268" lon="2.72905">
        <ele>1440.8</ele>
        <time>2018-11-26T04:46:06Z</time>
      </trkpt>
      <trkpt lat="42.42268" lon="2.72906">
        <ele>1440.8</ele>
        <time>2018-11-26T04:46:07Z</time>
      </trkpt>
      <trkpt lat="42.42268" lon="2.72907">
        <ele>1440.7</ele>
        <time>2018-11-26T04:46:07Z</time>
      </trkpt>
      <trkpt lat="42.42268" lon="2.72908">
        <ele>1440.3</ele>
        <time>2018-11-26T04:46:07Z</time>
      </trkpt>
      <trkpt lat="42.42268" lon="2.72909">
        <ele>1439.9</ele>
        <time>2018-11-26T04:46:08Z</time>
      </trkpt>
      <trkpt lat="42.42269" lon="2.7291">
        <ele>1439.4</ele>
        <time>2018-11-26T04:46:08Z</time>
      </trkpt>
      <trkpt lat="42.42269" lon="2.72911">
        <ele>1439.4</ele>
        <time>2018-11-26T04:46:08Z</time>
      </trkpt>
      <trkpt lat="42.42269" lon="2.72912">
        <ele>1439.5</ele>
        <time>2018-11-26T04:46:09Z</time>
      </trkpt>
      <trkpt lat="42.4227" lon="2.72913">
        <ele>1439.5</ele>
        <time>2018-11-26T04:46:09Z</time>
      </trkpt>
      <trkpt lat="42.4227" lon="2.72914">
        <ele>1439.7</ele>
        <time>2018-11-26T04:46:09Z</time>
      </trkpt>
      <trkpt lat="42.42271" lon="2.72914">
        <ele>1439.9</ele>
        <time>2018-11-26T04:46:09Z</time>
      </trkpt>
      <trkpt lat="42.42271" lon="2.72915">
        <ele>1440.1</ele>
        <time>2018-11-26T04:46:09Z</time>
      </trkpt>
      <trkpt lat="42.42271" lon="2.72916">
        <ele>1440.3</ele>
        <time>2018-11-26T04:46:10Z</time>
      </trkpt>
      <trkpt lat="42.42271" lon="2.72917">
        <ele>1440.4</ele>
        <time>2018-11-26T04:46:10Z</time>
      </trkpt>
      <trkpt lat="42.42272" lon="2.72918">
        <ele>1440.3</ele>
        <time>2018-11-26T04:46:10Z</time>
      </trkpt>
      <trkpt lat="42.42272" lon="2.7292">
        <ele>1440.3</ele>
        <time>2018-11-26T04:46:11Z</time>
      </trkpt>
      <trkpt lat="42.42272" lon="2.72921">
        <ele>1440.4</ele>
        <time>2018-11-26T04:46:11Z</time>
      </trkpt>
      <trkpt lat="42.42272" lon="2.72922">
        <ele>1440.3</ele>
        <time>2018-11-26T04:46:12Z</time>
      </trkpt>
      <trkpt lat="42.42272" lon="2.72923">
        <ele>1440.2</ele>
        <time>2018-11-26T04:46:12Z</time>
      </trkpt>
      <trkpt lat="42.42272" lon="2.72924">
        <ele>1440.2</ele>
        <time>2018-11-26T04:46:12Z</time>
      </trkpt>
      <trkpt lat="42.42272" lon="2.72925">
        <ele>1440.2</ele>
        <time>2018-11-26T04:46:13Z</time>
      </trkpt>
      <trkpt lat="42.42271" lon="2.72926">
        <ele>1440.4</ele>
        <time>2018-11-26T04:46:13Z</time>
      </trkpt>
      <trkpt lat="42.42272" lon="2.72928">
        <ele>1440.8</ele>
        <time>2018-11-26T04:46:14Z</time>
      </trkpt>
      <trkpt lat="42.42272" lon="2.72929">
        <ele>1440.6</ele>
        <time>2018-11-26T04:46:14Z</time>
      </trkpt>
      <trkpt lat="42.42272" lon="2.7293">
        <ele>1440.3</ele>
        <time>2018-11-26T04:46:14Z</time>
      </trkpt>
      <trkpt lat="42.42272" lon="2.72932">
        <ele>1440</ele>
        <time>2018-11-26T04:46:15Z</time>
      </trkpt>
      <trkpt lat="42.42272" lon="2.72933">
        <ele>1439.6</ele>
        <time>2018-11-26T04:46:15Z</time>
      </trkpt>
      <trkpt lat="42.42272" lon="2.72934">
        <ele>1440</ele>
        <time>2018-11-26T04:46:15Z</time>
      </trkpt>
      <trkpt lat="42.42272" lon="2.72935">
        <ele>1440.7</ele>
        <time>2018-11-26T04:46:16Z</time>
      </trkpt>
      <trkpt lat="42.42272" lon="2.72936">
        <ele>1441.6</ele>
        <time>2018-11-26T04:46:16Z</time>
      </trkpt>
      <trkpt lat="42.42272" lon="2.72937">
        <ele>1441.5</ele>
        <time>2018-11-26T04:46:16Z</time>
      </trkpt>
      <trkpt lat="42.42272" lon="2.72938">
        <ele>1441.5</ele>
        <time>2018-11-26T04:46:17Z</time>
      </trkpt>
      <trkpt lat="42.42271" lon="2.72942">
        <ele>1442.3</ele>
        <time>2018-11-26T04:46:18Z</time>
      </trkpt>
      <trkpt lat="42.4227" lon="2.72942">
        <ele>1442.7</ele>
        <time>2018-11-26T04:46:18Z</time>
      </trkpt>
      <trkpt lat="42.4227" lon="2.72943">
        <ele>1443.1</ele>
        <time>2018-11-26T04:46:18Z</time>
      </trkpt>
      <trkpt lat="42.42269" lon="2.72944">
        <ele>1443.7</ele>
        <time>2018-11-26T04:46:19Z</time>
      </trkpt>
      <trkpt lat="42.42269" lon="2.72945">
        <ele>1443.8</ele>
        <time>2018-11-26T04:46:19Z</time>
      </trkpt>
      <trkpt lat="42.42269" lon="2.72946">
        <ele>1444</ele>
        <time>2018-11-26T04:46:19Z</time>
      </trkpt>
      <trkpt lat="42.42269" lon="2.72947">
        <ele>1444.2</ele>
        <time>2018-11-26T04:46:20Z</time>
      </trkpt>
      <trkpt lat="42.42269" lon="2.72949">
        <ele>1444.4</ele>
        <time>2018-11-26T04:46:20Z</time>
      </trkpt>
      <trkpt lat="42.42269" lon="2.7295">
        <ele>1444.8</ele>
        <time>2018-11-26T04:46:21Z</time>
      </trkpt>
      <trkpt lat="42.42268" lon="2.72951">
        <ele>1445.4</ele>
        <time>2018-11-26T04:46:21Z</time>
      </trkpt>
      <trkpt lat="42.42268" lon="2.72952">
        <ele>1446</ele>
        <time>2018-11-26T04:46:21Z</time>
      </trkpt>
      <trkpt lat="42.42268" lon="2.72953">
        <ele>1446.1</ele>
        <time>2018-11-26T04:46:22Z</time>
      </trkpt>
      <trkpt lat="42.42268" lon="2.72954">
        <ele>1446.2</ele>
        <time>2018-11-26T04:46:22Z</time>
      </trkpt>
      <trkpt lat="42.42268" lon="2.72955">
        <ele>1446.5</ele>
        <time>2018-11-26T04:46:22Z</time>
      </trkpt>
      <trkpt lat="42.42268" lon="2.72956">
        <ele>1446.6</ele>
        <time>2018-11-26T04:46:22Z</time>
      </trkpt>
      <trkpt lat="42.42268" lon="2.72957">
        <ele>1446.5</ele>
        <time>2018-11-26T04:46:23Z</time>
      </trkpt>
      <trkpt lat="42.42269" lon="2.72958">
        <ele>1446.6</ele>
        <time>2018-11-26T04:46:23Z</time>
      </trkpt>
      <trkpt lat="42.42269" lon="2.72959">
        <ele>1446.7</ele>
        <time>2018-11-26T04:46:23Z</time>
      </trkpt>
      <trkpt lat="42.42269" lon="2.72961">
        <ele>1446.7</ele>
        <time>2018-11-26T04:46:24Z</time>
      </trkpt>
      <trkpt lat="42.42269" lon="2.72962">
        <ele>1446.7</ele>
        <time>2018-11-26T04:46:24Z</time>
      </trkpt>
      <trkpt lat="42.42268" lon="2.72964">
        <ele>1446.9</ele>
        <time>2018-11-26T04:46:25Z</time>
      </trkpt>
      <trkpt lat="42.42268" lon="2.72965">
        <ele>1447.2</ele>
        <time>2018-11-26T04:46:25Z</time>
      </trkpt>
      <trkpt lat="42.42267" lon="2.72965">
        <ele>1447.3</ele>
        <time>2018-11-26T04:46:25Z</time>
      </trkpt>
      <trkpt lat="42.42267" lon="2.72966">
        <ele>1447.4</ele>
        <time>2018-11-26T04:46:26Z</time>
      </trkpt>
      <trkpt lat="42.42266" lon="2.72967">
        <ele>1447.6</ele>
        <time>2018-11-26T04:46:26Z</time>
      </trkpt>
      <trkpt lat="42.42266" lon="2.72969">
        <ele>1447.8</ele>
        <time>2018-11-26T04:46:27Z</time>
      </trkpt>
      <trkpt lat="42.42266" lon="2.7297">
        <ele>1447.9</ele>
        <time>2018-11-26T04:46:27Z</time>
      </trkpt>
      <trkpt lat="42.42266" lon="2.72971">
        <ele>1447.7</ele>
        <time>2018-11-26T04:46:27Z</time>
      </trkpt>
      <trkpt lat="42.42266" lon="2.72972">
        <ele>1447.8</ele>
        <time>2018-11-26T04:46:27Z</time>
      </trkpt>
      <trkpt lat="42.42265" lon="2.72973">
        <ele>1448</ele>
        <time>2018-11-26T04:46:28Z</time>
      </trkpt>
      <trkpt lat="42.42264" lon="2.72974">
        <ele>1448.4</ele>
        <time>2018-11-26T04:46:28Z</time>
      </trkpt>
      <trkpt lat="42.42264" lon="2.72975">
        <ele>1448.7</ele>
        <time>2018-11-26T04:46:29Z</time>
      </trkpt>
      <trkpt lat="42.42264" lon="2.72976">
        <ele>1448.6</ele>
        <time>2018-11-26T04:46:29Z</time>
      </trkpt>
      <trkpt lat="42.42264" lon="2.72977">
        <ele>1448.5</ele>
        <time>2018-11-26T04:46:29Z</time>
      </trkpt>
      <trkpt lat="42.42264" lon="2.72978">
        <ele>1448.3</ele>
        <time>2018-11-26T04:46:29Z</time>
      </trkpt>
      <trkpt lat="42.42264" lon="2.72978">
        <ele>1448.4</ele>
        <time>2018-11-26T04:46:30Z</time>
      </trkpt>
      <trkpt lat="42.42264" lon="2.72979">
        <ele>1448.3</ele>
        <time>2018-11-26T04:46:30Z</time>
      </trkpt>
      <trkpt lat="42.42264" lon="2.7298">
        <ele>1448.3</ele>
        <time>2018-11-26T04:46:30Z</time>
      </trkpt>
      <trkpt lat="42.42263" lon="2.72981">
        <ele>1448.2</ele>
        <time>2018-11-26T04:46:31Z</time>
      </trkpt>
      <trkpt lat="42.42263" lon="2.72982">
        <ele>1448.1</ele>
        <time>2018-11-26T04:46:31Z</time>
      </trkpt>
      <trkpt lat="42.42263" lon="2.72983">
        <ele>1448.1</ele>
        <time>2018-11-26T04:46:31Z</time>
      </trkpt>
      <trkpt lat="42.42263" lon="2.72984">
        <ele>1447.8</ele>
        <time>2018-11-26T04:46:31Z</time>
      </trkpt>
      <trkpt lat="42.42263" lon="2.72985">
        <ele>1447.7</ele>
        <time>2018-11-26T04:46:32Z</time>
      </trkpt>
      <trkpt lat="42.42264" lon="2.72986">
        <ele>1447.6</ele>
        <time>2018-11-26T04:46:32Z</time>
      </trkpt>
      <trkpt lat="42.42264" lon="2.72987">
        <ele>1447.4</ele>
        <time>2018-11-26T04:46:32Z</time>
      </trkpt>
      <trkpt lat="42.42264" lon="2.72988">
        <ele>1447.6</ele>
        <time>2018-11-26T04:46:33Z</time>
      </trkpt>
      <trkpt lat="42.42264" lon="2.72989">
        <ele>1447.8</ele>
        <time>2018-11-26T04:46:33Z</time>
      </trkpt>
      <trkpt lat="42.42264" lon="2.72993">
        <ele>1447.4</ele>
        <time>2018-11-26T04:46:34Z</time>
      </trkpt>
      <trkpt lat="42.42264" lon="2.72994">
        <ele>1447.1</ele>
        <time>2018-11-26T04:46:34Z</time>
      </trkpt>
      <trkpt lat="42.42263" lon="2.72997">
        <ele>1447.5</ele>
        <time>2018-11-26T04:46:35Z</time>
      </trkpt>
      <trkpt lat="42.42263" lon="2.72998">
        <ele>1447.7</ele>
        <time>2018-11-26T04:46:36Z</time>
      </trkpt>
      <trkpt lat="42.42262" lon="2.73">
        <ele>1448</ele>
        <time>2018-11-26T04:46:36Z</time>
      </trkpt>
      <trkpt lat="42.42261" lon="2.73001">
        <ele>1448.1</ele>
        <time>2018-11-26T04:46:37Z</time>
      </trkpt>
      <trkpt lat="42.42261" lon="2.73004">
        <ele>1448.2</ele>
        <time>2018-11-26T04:46:38Z</time>
      </trkpt>
      <trkpt lat="42.42261" lon="2.73005">
        <ele>1448.1</ele>
        <time>2018-11-26T04:46:38Z</time>
      </trkpt>
      <trkpt lat="42.42261" lon="2.73006">
        <ele>1448</ele>
        <time>2018-11-26T04:46:38Z</time>
      </trkpt>
      <trkpt lat="42.42261" lon="2.73007">
        <ele>1447.8</ele>
        <time>2018-11-26T04:46:39Z</time>
      </trkpt>
      <trkpt lat="42.42261" lon="2.73008">
        <ele>1447.4</ele>
        <time>2018-11-26T04:46:39Z</time>
      </trkpt>
      <trkpt lat="42.42261" lon="2.73009">
        <ele>1447</ele>
        <time>2018-11-26T04:46:39Z</time>
      </trkpt>
      <trkpt lat="42.42261" lon="2.73011">
        <ele>1447.5</ele>
        <time>2018-11-26T04:46:40Z</time>
      </trkpt>
      <trkpt lat="42.42261" lon="2.73014">
        <ele>1447.8</ele>
        <time>2018-11-26T04:46:41Z</time>
      </trkpt>
      <trkpt lat="42.4226" lon="2.73015">
        <ele>1447.6</ele>
        <time>2018-11-26T04:46:41Z</time>
      </trkpt>
      <trkpt lat="42.4226" lon="2.73016">
        <ele>1447.3</ele>
        <time>2018-11-26T04:46:41Z</time>
      </trkpt>
      <trkpt lat="42.42259" lon="2.7302">
        <ele>1447.4</ele>
        <time>2018-11-26T04:46:43Z</time>
      </trkpt>
      <trkpt lat="42.42259" lon="2.73023">
        <ele>1447.6</ele>
        <time>2018-11-26T04:46:43Z</time>
      </trkpt>
      <trkpt lat="42.42258" lon="2.73026">
        <ele>1447.9</ele>
        <time>2018-11-26T04:46:44Z</time>
      </trkpt>
      <trkpt lat="42.42257" lon="2.73026">
        <ele>1447.8</ele>
        <time>2018-11-26T04:46:45Z</time>
      </trkpt>
      <trkpt lat="42.42257" lon="2.73026">
        <ele>1447.6</ele>
        <time>2018-11-26T04:46:45Z</time>
      </trkpt>
      <trkpt lat="42.42257" lon="2.73026">
        <ele>1447.6</ele>
        <time>2018-11-26T04:46:45Z</time>
      </trkpt>
      <trkpt lat="42.42257" lon="2.73026">
        <ele>1447.6</ele>
        <time>2018-11-26T04:46:45Z</time>
      </trkpt>
      <trkpt lat="42.42257" lon="2.73027">
        <ele>1447.6</ele>
        <time>2018-11-26T04:46:45Z</time>
      </trkpt>
      <trkpt lat="42.42256" lon="2.73028">
        <ele>1447.4</ele>
        <time>2018-11-26T04:46:45Z</time>
      </trkpt>
      <trkpt lat="42.42256" lon="2.73028">
        <ele>1447.3</ele>
        <time>2018-11-26T04:46:46Z</time>
      </trkpt>
      <trkpt lat="42.42256" lon="2.73029">
        <ele>1447.1</ele>
        <time>2018-11-26T04:46:46Z</time>
      </trkpt>
      <trkpt lat="42.42256" lon="2.7303">
        <ele>1447.1</ele>
        <time>2018-11-26T04:46:46Z</time>
      </trkpt>
      <trkpt lat="42.42256" lon="2.7303">
        <ele>1447.2</ele>
        <time>2018-11-26T04:46:46Z</time>
      </trkpt>
      <trkpt lat="42.42255" lon="2.7303">
        <ele>1447.2</ele>
        <time>2018-11-26T04:46:46Z</time>
      </trkpt>
      <trkpt lat="42.42256" lon="2.7303">
        <ele>1447.4</ele>
        <time>2018-11-26T04:46:46Z</time>
      </trkpt>
      <trkpt lat="42.42256" lon="2.7303">
        <ele>1447.5</ele>
        <time>2018-11-26T04:46:46Z</time>
      </trkpt>
      <trkpt lat="42.42256" lon="2.73031">
        <ele>1447.7</ele>
        <time>2018-11-26T04:46:47Z</time>
      </trkpt>
      <trkpt lat="42.42256" lon="2.73031">
        <ele>1448.1</ele>
        <time>2018-11-26T04:46:47Z</time>
      </trkpt>
      <trkpt lat="42.42255" lon="2.73031">
        <ele>1448</ele>
        <time>2018-11-26T04:46:47Z</time>
      </trkpt>
      <trkpt lat="42.42255" lon="2.73032">
        <ele>1448</ele>
        <time>2018-11-26T04:46:47Z</time>
      </trkpt>
      <trkpt lat="42.42255" lon="2.73032">
        <ele>1448</ele>
        <time>2018-11-26T04:46:47Z</time>
      </trkpt>
      <trkpt lat="42.42254" lon="2.73031">
        <ele>1447.9</ele>
        <time>2018-11-26T04:46:47Z</time>
      </trkpt>
      <trkpt lat="42.42254" lon="2.73031">
        <ele>1447.9</ele>
        <time>2018-11-26T04:46:47Z</time>
      </trkpt>
      <trkpt lat="42.42254" lon="2.73031">
        <ele>1447.6</ele>
        <time>2018-11-26T04:46:47Z</time>
      </trkpt>
      <trkpt lat="42.42255" lon="2.73031">
        <ele>1447.7</ele>
        <time>2018-11-26T04:46:48Z</time>
      </trkpt>
      <trkpt lat="42.42255" lon="2.73031">
        <ele>1447.9</ele>
        <time>2018-11-26T04:46:48Z</time>
      </trkpt>
      <trkpt lat="42.42255" lon="2.73031">
        <ele>1448.1</ele>
        <time>2018-11-26T04:46:48Z</time>
      </trkpt>
      <trkpt lat="42.42255" lon="2.73031">
        <ele>1448.1</ele>
        <time>2018-11-26T04:46:48Z</time>
      </trkpt>
      <trkpt lat="42.42255" lon="2.73031">
        <ele>1448</ele>
        <time>2018-11-26T04:46:48Z</time>
      </trkpt>
      <trkpt lat="42.42255" lon="2.73031">
        <ele>1448</ele>
        <time>2018-11-26T04:46:48Z</time>
      </trkpt>
      <trkpt lat="42.42255" lon="2.73031">
        <ele>1448</ele>
        <time>2018-11-26T04:46:48Z</time>
      </trkpt>
      <trkpt lat="42.42255" lon="2.73031">
        <ele>1448</ele>
        <time>2018-11-26T04:46:48Z</time>
      </trkpt>
      <trkpt lat="42.42255" lon="2.73031">
        <ele>1447.9</ele>
        <time>2018-11-26T04:46:48Z</time>
      </trkpt>
      <trkpt lat="42.42255" lon="2.73031">
        <ele>1447.9</ele>
        <time>2018-11-26T04:46:48Z</time>
      </trkpt>
      <trkpt lat="42.42255" lon="2.73031">
        <ele>1447.8</ele>
        <time>2018-11-26T04:46:48Z</time>
      </trkpt>
      <trkpt lat="42.42255" lon="2.73031">
        <ele>1448</ele>
        <time>2018-11-26T04:46:48Z</time>
      </trkpt>
      <trkpt lat="42.42254" lon="2.73031">
        <ele>1448.2</ele>
        <time>2018-11-26T04:46:48Z</time>
      </trkpt>
      <trkpt lat="42.42254" lon="2.73031">
        <ele>1448.5</ele>
        <time>2018-11-26T04:46:48Z</time>
      </trkpt>
      <trkpt lat="42.42254" lon="2.73031">
        <ele>1448.3</ele>
        <time>2018-11-26T04:46:48Z</time>
      </trkpt>
      <trkpt lat="42.42254" lon="2.73031">
        <ele>1448.3</ele>
        <time>2018-11-26T04:46:48Z</time>
      </trkpt>
      <trkpt lat="42.42254" lon="2.73031">
        <ele>1448.2</ele>
        <time>2018-11-26T04:46:48Z</time>
      </trkpt>
      <trkpt lat="42.42254" lon="2.73031">
        <ele>1448</ele>
        <time>2018-11-26T04:46:48Z</time>
      </trkpt>
      <trkpt lat="42.42254" lon="2.73031">
        <ele>1448</ele>
        <time>2018-11-26T04:46:48Z</time>
      </trkpt>
      <trkpt lat="42.42254" lon="2.73031">
        <ele>1447.7</ele>
        <time>2018-11-26T04:46:48Z</time>
      </trkpt>
      <trkpt lat="42.42254" lon="2.73031">
        <ele>1447.6</ele>
        <time>2018-11-26T04:46:48Z</time>
      </trkpt>
      <trkpt lat="42.42254" lon="2.73031">
        <ele>1447.7</ele>
        <time>2018-11-26T04:46:48Z</time>
      </trkpt>
      <trkpt lat="42.42254" lon="2.73031">
        <ele>1447.6</ele>
        <time>2018-11-26T04:46:48Z</time>
      </trkpt>
      <trkpt lat="42.42254" lon="2.73031">
        <ele>1447.8</ele>
        <time>2018-11-26T04:46:48Z</time>
      </trkpt>
      <trkpt lat="42.42254" lon="2.73031">
        <ele>1448</ele>
        <time>2018-11-26T04:46:48Z</time>
      </trkpt>
      <trkpt lat="42.42254" lon="2.73031">
        <ele>1448.2</ele>
        <time>2018-11-26T04:46:48Z</time>
      </trkpt>
      <trkpt lat="42.42254" lon="2.73031">
        <ele>1448.4</ele>
        <time>2018-11-26T04:46:48Z</time>
      </trkpt>
      <trkpt lat="42.42254" lon="2.73031">
        <ele>1448.7</ele>
        <time>2018-11-26T04:46:48Z</time>
      </trkpt>
      <trkpt lat="42.42254" lon="2.73031">
        <ele>1449.2</ele>
        <time>2018-11-26T04:46:48Z</time>
      </trkpt>
      <trkpt lat="42.42254" lon="2.73031">
        <ele>1448.9</ele>
        <time>2018-11-26T04:46:48Z</time>
      </trkpt>
      <trkpt lat="42.42254" lon="2.73032">
        <ele>1448.7</ele>
        <time>2018-11-26T04:46:48Z</time>
      </trkpt>
      <trkpt lat="42.42254" lon="2.73032">
        <ele>1448.4</ele>
        <time>2018-11-26T04:46:48Z</time>
      </trkpt>
      <trkpt lat="42.42254" lon="2.73032">
        <ele>1448.3</ele>
        <time>2018-11-26T04:46:48Z</time>
      </trkpt>
      <trkpt lat="42.42254" lon="2.73032">
        <ele>1448.3</ele>
        <time>2018-11-26T04:46:48Z</time>
      </trkpt>
      <trkpt lat="42.42254" lon="2.73032">
        <ele>1448.1</ele>
        <time>2018-11-26T04:46:48Z</time>
      </trkpt>
      <trkpt lat="42.42254" lon="2.73032">
        <ele>1447.8</ele>
        <time>2018-11-26T04:46:48Z</time>
      </trkpt>
      <trkpt lat="42.42254" lon="2.73032">
        <ele>1447.8</ele>
        <time>2018-11-26T04:46:48Z</time>
      </trkpt>
      <trkpt lat="42.42254" lon="2.73032">
        <ele>1447.8</ele>
        <time>2018-11-26T04:46:48Z</time>
      </trkpt>
      <trkpt lat="42.42254" lon="2.73032">
        <ele>1447.6</ele>
        <time>2018-11-26T04:46:48Z</time>
      </trkpt>
      <trkpt lat="42.42254" lon="2.73032">
        <ele>1447.8</ele>
        <time>2018-11-26T04:46:48Z</time>
      </trkpt>
      <trkpt lat="42.42254" lon="2.73032">
        <ele>1448.2</ele>
        <time>2018-11-26T04:46:48Z</time>
      </trkpt>
      <trkpt lat="42.42254" lon="2.73032">
        <ele>1448.6</ele>
        <time>2018-11-26T04:46:48Z</time>
      </trkpt>
      <trkpt lat="42.42254" lon="2.73032">
        <ele>1448.4</ele>
        <time>2018-11-26T04:46:49Z</time>
      </trkpt>
      <trkpt lat="42.42254" lon="2.73032">
        <ele>1448.1</ele>
        <time>2018-11-26T04:46:49Z</time>
      </trkpt>
      <trkpt lat="42.42254" lon="2.73033">
        <ele>1447.9</ele>
        <time>2018-11-26T04:46:49Z</time>
      </trkpt>
      <trkpt lat="42.42254" lon="2.73033">
        <ele>1448</ele>
        <time>2018-11-26T04:46:49Z</time>
      </trkpt>
      <trkpt lat="42.42254" lon="2.73033">
        <ele>1448.2</ele>
        <time>2018-11-26T04:46:49Z</time>
      </trkpt>
      <trkpt lat="42.42254" lon="2.73033">
        <ele>1448.5</ele>
        <time>2018-11-26T04:46:49Z</time>
      </trkpt>
      <trkpt lat="42.42254" lon="2.73033">
        <ele>1448.5</ele>
        <time>2018-11-26T04:46:49Z</time>
      </trkpt>
      <trkpt lat="42.42254" lon="2.73033">
        <ele>1448.4</ele>
        <time>2018-11-26T04:46:49Z</time>
      </trkpt>
      <trkpt lat="42.42253" lon="2.73033">
        <ele>1448.6</ele>
        <time>2018-11-26T04:46:49Z</time>
      </trkpt>
      <trkpt lat="42.42253" lon="2.73033">
        <ele>1448.6</ele>
        <time>2018-11-26T04:46:49Z</time>
      </trkpt>
      <trkpt lat="42.42253" lon="2.73033">
        <ele>1448.7</ele>
        <time>2018-11-26T04:46:49Z</time>
      </trkpt>
      <trkpt lat="42.42253" lon="2.73033">
        <ele>1448.8</ele>
        <time>2018-11-26T04:46:49Z</time>
      </trkpt>
      <trkpt lat="42.42253" lon="2.73033">
        <ele>1448.9</ele>
        <time>2018-11-26T04:46:49Z</time>
      </trkpt>
      <trkpt lat="42.42253" lon="2.73033">
        <ele>1448.9</ele>
        <time>2018-11-26T04:46:49Z</time>
      </trkpt>
      <trkpt lat="42.42253" lon="2.73033">
        <ele>1449.2</ele>
        <time>2018-11-26T04:46:49Z</time>
      </trkpt>
      <trkpt lat="42.42253" lon="2.73033">
        <ele>1449.6</ele>
        <time>2018-11-26T04:46:49Z</time>
      </trkpt>
      <trkpt lat="42.42253" lon="2.73033">
        <ele>1449.3</ele>
        <time>2018-11-26T04:46:49Z</time>
      </trkpt>
      <trkpt lat="42.42253" lon="2.73033">
        <ele>1449</ele>
        <time>2018-11-26T04:46:49Z</time>
      </trkpt>
      <trkpt lat="42.42253" lon="2.73033">
        <ele>1448.7</ele>
        <time>2018-11-26T04:46:49Z</time>
      </trkpt>
      <trkpt lat="42.42253" lon="2.73033">
        <ele>1448.7</ele>
        <time>2018-11-26T04:46:49Z</time>
      </trkpt>
      <trkpt lat="42.42253" lon="2.73033">
        <ele>1448.6</ele>
        <time>2018-11-26T04:46:49Z</time>
      </trkpt>
      <trkpt lat="42.42253" lon="2.73033">
        <ele>1448.5</ele>
        <time>2018-11-26T04:46:49Z</time>
      </trkpt>
      <trkpt lat="42.42253" lon="2.73033">
        <ele>1448.5</ele>
        <time>2018-11-26T04:46:49Z</time>
      </trkpt>
      <trkpt lat="42.42253" lon="2.73033">
        <ele>1448.5</ele>
        <time>2018-11-26T04:46:49Z</time>
      </trkpt>
      <trkpt lat="42.42253" lon="2.73033">
        <ele>1448.5</ele>
        <time>2018-11-26T04:46:49Z</time>
      </trkpt>
      <trkpt lat="42.42253" lon="2.73033">
        <ele>1448.7</ele>
        <time>2018-11-26T04:46:49Z</time>
      </trkpt>
      <trkpt lat="42.42253" lon="2.73033">
        <ele>1448.6</ele>
        <time>2018-11-26T04:46:49Z</time>
      </trkpt>
      <trkpt lat="42.42253" lon="2.73033">
        <ele>1448.3</ele>
        <time>2018-11-26T04:46:49Z</time>
      </trkpt>
      <trkpt lat="42.42253" lon="2.73033">
        <ele>1448.3</ele>
        <time>2018-11-26T04:46:49Z</time>
      </trkpt>
      <trkpt lat="42.42253" lon="2.73033">
        <ele>1448.2</ele>
        <time>2018-11-26T04:46:49Z</time>
      </trkpt>
      <trkpt lat="42.42253" lon="2.73033">
        <ele>1448.2</ele>
        <time>2018-11-26T04:46:49Z</time>
      </trkpt>
      <trkpt lat="42.42253" lon="2.73033">
        <ele>1448.2</ele>
        <time>2018-11-26T04:46:49Z</time>
      </trkpt>
      <trkpt lat="42.42253" lon="2.73033">
        <ele>1448</ele>
        <time>2018-11-26T04:46:49Z</time>
      </trkpt>
      <trkpt lat="42.42253" lon="2.73033">
        <ele>1447.8</ele>
        <time>2018-11-26T04:46:49Z</time>
      </trkpt>
      <trkpt lat="42.42253" lon="2.73033">
        <ele>1447.9</ele>
        <time>2018-11-26T04:46:49Z</time>
      </trkpt>
      <trkpt lat="42.42253" lon="2.73033">
        <ele>1448</ele>
        <time>2018-11-26T04:46:49Z</time>
      </trkpt>
      <trkpt lat="42.42253" lon="2.73033">
        <ele>1447.9</ele>
        <time>2018-11-26T04:46:49Z</time>
      </trkpt>
      <trkpt lat="42.42253" lon="2.73033">
        <ele>1448.2</ele>
        <time>2018-11-26T04:46:49Z</time>
      </trkpt>
      <trkpt lat="42.42253" lon="2.73033">
        <ele>1448.4</ele>
        <time>2018-11-26T04:46:49Z</time>
      </trkpt>
      <trkpt lat="42.42253" lon="2.73033">
        <ele>1448.5</ele>
        <time>2018-11-26T04:46:49Z</time>
      </trkpt>
      <trkpt lat="42.42253" lon="2.73033">
        <ele>1448.8</ele>
        <time>2018-11-26T04:46:49Z</time>
      </trkpt>
      <trkpt lat="42.42253" lon="2.73033">
        <ele>1448.8</ele>
        <time>2018-11-26T04:46:49Z</time>
      </trkpt>
      <trkpt lat="42.42253" lon="2.73033">
        <ele>1448.4</ele>
        <time>2018-11-26T04:46:49Z</time>
      </trkpt>
      <trkpt lat="42.42253" lon="2.73033">
        <ele>1448.3</ele>
        <time>2018-11-26T04:46:49Z</time>
      </trkpt>
      <trkpt lat="42.42253" lon="2.73033">
        <ele>1448.3</ele>
        <time>2018-11-26T04:46:49Z</time>
      </trkpt>
      <trkpt lat="42.42253" lon="2.73033">
        <ele>1448.1</ele>
        <time>2018-11-26T04:46:49Z</time>
      </trkpt>
      <trkpt lat="42.42253" lon="2.73033">
        <ele>1448</ele>
        <time>2018-11-26T04:46:49Z</time>
      </trkpt>
      <trkpt lat="42.42253" lon="2.73033">
        <ele>1447.6</ele>
        <time>2018-11-26T04:46:49Z</time>
      </trkpt>
      <trkpt lat="42.42253" lon="2.73033">
        <ele>1447.9</ele>
        <time>2018-11-26T04:46:49Z</time>
      </trkpt>
      <trkpt lat="42.42253" lon="2.73033">
        <ele>1448.1</ele>
        <time>2018-11-26T04:46:49Z</time>
      </trkpt>
      <trkpt lat="42.42253" lon="2.73032">
        <ele>1448.7</ele>
        <time>2018-11-26T04:46:50Z</time>
      </trkpt>
      <trkpt lat="42.42253" lon="2.73032">
        <ele>1448.9</ele>
        <time>2018-11-26T04:46:50Z</time>
      </trkpt>
      <trkpt lat="42.42253" lon="2.73032">
        <ele>1448.9</ele>
        <time>2018-11-26T04:46:50Z</time>
      </trkpt>
      <trkpt lat="42.42253" lon="2.73032">
        <ele>1448.5</ele>
        <time>2018-11-26T04:46:50Z</time>
      </trkpt>
      <trkpt lat="42.42253" lon="2.73032">
        <ele>1447.3</ele>
        <time>2018-11-26T04:46:50Z</time>
      </trkpt>
      <trkpt lat="42.42253" lon="2.73032">
        <ele>1447.7</ele>
        <time>2018-11-26T04:46:50Z</time>
      </trkpt>
      <trkpt lat="42.42253" lon="2.73032">
        <ele>1448.6</ele>
        <time>2018-11-26T04:46:50Z</time>
      </trkpt>
      <trkpt lat="42.42253" lon="2.73032">
        <ele>1448.6</ele>
        <time>2018-11-26T04:46:50Z</time>
      </trkpt>
      <trkpt lat="42.42253" lon="2.73032">
        <ele>1448.8</ele>
        <time>2018-11-26T04:46:50Z</time>
      </trkpt>
      <trkpt lat="42.42253" lon="2.73032">
        <ele>1448.8</ele>
        <time>2018-11-26T04:46:50Z</time>
      </trkpt>
      <trkpt lat="42.42253" lon="2.73032">
        <ele>1448.6</ele>
        <time>2018-11-26T04:46:50Z</time>
      </trkpt>
      <trkpt lat="42.42253" lon="2.73032">
        <ele>1448.4</ele>
        <time>2018-11-26T04:46:50Z</time>
      </trkpt>
      <trkpt lat="42.42253" lon="2.73032">
        <ele>1448.2</ele>
        <time>2018-11-26T04:46:50Z</time>
      </trkpt>
      <trkpt lat="42.42253" lon="2.73032">
        <ele>1447.9</ele>
        <time>2018-11-26T04:46:50Z</time>
      </trkpt>
      <trkpt lat="42.42253" lon="2.73031">
        <ele>1447.7</ele>
        <time>2018-11-26T04:46:50Z</time>
      </trkpt>
      <trkpt lat="42.42253" lon="2.73031">
        <ele>1447.6</ele>
        <time>2018-11-26T04:46:50Z</time>
      </trkpt>
      <trkpt lat="42.42253" lon="2.73031">
        <ele>1448</ele>
        <time>2018-11-26T04:46:50Z</time>
      </trkpt>
      <trkpt lat="42.42253" lon="2.73031">
        <ele>1448.4</ele>
        <time>2018-11-26T04:46:50Z</time>
      </trkpt>
      <trkpt lat="42.42253" lon="2.73031">
        <ele>1448.1</ele>
        <time>2018-11-26T04:46:50Z</time>
      </trkpt>
      <trkpt lat="42.42253" lon="2.73031">
        <ele>1448</ele>
        <time>2018-11-26T04:46:50Z</time>
      </trkpt>
      <trkpt lat="42.42253" lon="2.7303">
        <ele>1448.1</ele>
        <time>2018-11-26T04:46:50Z</time>
      </trkpt>
      <trkpt lat="42.42253" lon="2.7303">
        <ele>1448.2</ele>
        <time>2018-11-26T04:46:50Z</time>
      </trkpt>
      <trkpt lat="42.42253" lon="2.7303">
        <ele>1448</ele>
        <time>2018-11-26T04:46:50Z</time>
      </trkpt>
      <trkpt lat="42.42253" lon="2.7303">
        <ele>1447.6</ele>
        <time>2018-11-26T04:46:50Z</time>
      </trkpt>
      <trkpt lat="42.42253" lon="2.7303">
        <ele>1447.3</ele>
        <time>2018-11-26T04:46:50Z</time>
      </trkpt>
      <trkpt lat="42.42253" lon="2.7303">
        <ele>1447.4</ele>
        <time>2018-11-26T04:46:50Z</time>
      </trkpt>
      <trkpt lat="42.42253" lon="2.7303">
        <ele>1447.5</ele>
        <time>2018-11-26T04:46:50Z</time>
      </trkpt>
      <trkpt lat="42.42253" lon="2.7303">
        <ele>1447.6</ele>
        <time>2018-11-26T04:46:50Z</time>
      </trkpt>
      <trkpt lat="42.42253" lon="2.7303">
        <ele>1447.8</ele>
        <time>2018-11-26T04:46:50Z</time>
      </trkpt>
      <trkpt lat="42.42253" lon="2.7303">
        <ele>1448.1</ele>
        <time>2018-11-26T04:46:50Z</time>
      </trkpt>
      <trkpt lat="42.42253" lon="2.7303">
        <ele>1448.6</ele>
        <time>2018-11-26T04:46:50Z</time>
      </trkpt>
      <trkpt lat="42.42253" lon="2.7303">
        <ele>1448.5</ele>
        <time>2018-11-26T04:46:50Z</time>
      </trkpt>
      <trkpt lat="42.42253" lon="2.7303">
        <ele>1448.4</ele>
        <time>2018-11-26T04:46:50Z</time>
      </trkpt>
      <trkpt lat="42.42253" lon="2.7303">
        <ele>1448.2</ele>
        <time>2018-11-26T04:46:51Z</time>
      </trkpt>
      <trkpt lat="42.42253" lon="2.7303">
        <ele>1448.1</ele>
        <time>2018-11-26T04:46:51Z</time>
      </trkpt>
      <trkpt lat="42.42253" lon="2.7303">
        <ele>1448.1</ele>
        <time>2018-11-26T04:46:51Z</time>
      </trkpt>
      <trkpt lat="42.42253" lon="2.7303">
        <ele>1447.9</ele>
        <time>2018-11-26T04:46:51Z</time>
      </trkpt>
      <trkpt lat="42.42253" lon="2.73031">
        <ele>1447.8</ele>
        <time>2018-11-26T04:46:51Z</time>
      </trkpt>
      <trkpt lat="42.42253" lon="2.73031">
        <ele>1447.6</ele>
        <time>2018-11-26T04:46:51Z</time>
      </trkpt>
      <trkpt lat="42.42253" lon="2.73031">
        <ele>1447.3</ele>
        <time>2018-11-26T04:46:51Z</time>
      </trkpt>
      <trkpt lat="42.42253" lon="2.73031">
        <ele>1447.2</ele>
        <time>2018-11-26T04:46:51Z</time>
      </trkpt>
      <trkpt lat="42.42253" lon="2.73031">
        <ele>1447.1</ele>
        <time>2018-11-26T04:46:51Z</time>
      </trkpt>
      <trkpt lat="42.42253" lon="2.73031">
        <ele>1447.3</ele>
        <time>2018-11-26T04:46:51Z</time>
      </trkpt>
      <trkpt lat="42.42253" lon="2.73031">
        <ele>1447.3</ele>
        <time>2018-11-26T04:46:51Z</time>
      </trkpt>
      <trkpt lat="42.42253" lon="2.73031">
        <ele>1447.8</ele>
        <time>2018-11-26T04:46:51Z</time>
      </trkpt>
      <trkpt lat="42.42253" lon="2.73031">
        <ele>1448</ele>
        <time>2018-11-26T04:46:51Z</time>
      </trkpt>
      <trkpt lat="42.42253" lon="2.73031">
        <ele>1448.3</ele>
        <time>2018-11-26T04:46:51Z</time>
      </trkpt>
      <trkpt lat="42.42253" lon="2.73031">
        <ele>1448.8</ele>
        <time>2018-11-26T04:46:51Z</time>
      </trkpt>
      <trkpt lat="42.42253" lon="2.73031">
        <ele>1448.7</ele>
        <time>2018-11-26T04:46:51Z</time>
      </trkpt>
      <trkpt lat="42.42252" lon="2.73031">
        <ele>1447.8</ele>
        <time>2018-11-26T04:46:51Z</time>
      </trkpt>
      <trkpt lat="42.42252" lon="2.7303">
        <ele>1448</ele>
        <time>2018-11-26T04:46:51Z</time>
      </trkpt>
      <trkpt lat="42.42253" lon="2.7303">
        <ele>1447.9</ele>
        <time>2018-11-26T04:46:51Z</time>
      </trkpt>
      <trkpt lat="42.42253" lon="2.7303">
        <ele>1447.8</ele>
        <time>2018-11-26T04:46:51Z</time>
      </trkpt>
      <trkpt lat="42.42253" lon="2.7303">
        <ele>1446.5</ele>
        <time>2018-11-26T04:46:51Z</time>
      </trkpt>
      <trkpt lat="42.42253" lon="2.7303">
        <ele>1446.7</ele>
        <time>2018-11-26T04:46:51Z</time>
      </trkpt>
      <trkpt lat="42.42253" lon="2.7303">
        <ele>1447</ele>
        <time>2018-11-26T04:46:51Z</time>
      </trkpt>
      <trkpt lat="42.42253" lon="2.73029">
        <ele>1447.7</ele>
        <time>2018-11-26T04:46:52Z</time>
      </trkpt>
      <trkpt lat="42.42253" lon="2.73029">
        <ele>1447.5</ele>
        <time>2018-11-26T04:46:52Z</time>
      </trkpt>
      <trkpt lat="42.42253" lon="2.73029">
        <ele>1447.5</ele>
        <time>2018-11-26T04:46:52Z</time>
      </trkpt>
      <trkpt lat="42.42253" lon="2.73029">
        <ele>1447.5</ele>
        <time>2018-11-26T04:46:52Z</time>
      </trkpt>
      <trkpt lat="42.42253" lon="2.73029">
        <ele>1447.4</ele>
        <time>2018-11-26T04:46:52Z</time>
      </trkpt>
      <trkpt lat="42.42254" lon="2.73027">
        <ele>1448.3</ele>
        <time>2018-11-26T04:46:53Z</time>
      </trkpt>
      <trkpt lat="42.42254" lon="2.73026">
        <ele>1448.1</ele>
        <time>2018-11-26T04:46:53Z</time>
      </trkpt>
      <trkpt lat="42.42254" lon="2.73026">
        <ele>1447.8</ele>
        <time>2018-11-26T04:46:53Z</time>
      </trkpt>
      <trkpt lat="42.42254" lon="2.73026">
        <ele>1447.4</ele>
        <time>2018-11-26T04:46:53Z</time>
      </trkpt>
      <trkpt lat="42.42254" lon="2.73026">
        <ele>1447.7</ele>
        <time>2018-11-26T04:46:53Z</time>
      </trkpt>
      <trkpt lat="42.42254" lon="2.73026">
        <ele>1448</ele>
        <time>2018-11-26T04:46:53Z</time>
      </trkpt>
      <trkpt lat="42.42254" lon="2.73026">
        <ele>1448.5</ele>
        <time>2018-11-26T04:46:53Z</time>
      </trkpt>
      <trkpt lat="42.42254" lon="2.73026">
        <ele>1448.3</ele>
        <time>2018-11-26T04:46:53Z</time>
      </trkpt>
      <trkpt lat="42.42254" lon="2.73026">
        <ele>1448</ele>
        <time>2018-11-26T04:46:53Z</time>
      </trkpt>
      <trkpt lat="42.42254" lon="2.73026">
        <ele>1447.6</ele>
        <time>2018-11-26T04:46:53Z</time>
      </trkpt>
      <trkpt lat="42.42254" lon="2.73026">
        <ele>1447.6</ele>
        <time>2018-11-26T04:46:53Z</time>
      </trkpt>
      <trkpt lat="42.42254" lon="2.73026">
        <ele>1447.8</ele>
        <time>2018-11-26T04:46:53Z</time>
      </trkpt>
      <trkpt lat="42.42254" lon="2.73027">
        <ele>1448.1</ele>
        <time>2018-11-26T04:46:53Z</time>
      </trkpt>
      <trkpt lat="42.42254" lon="2.73027">
        <ele>1448.5</ele>
        <time>2018-11-26T04:46:53Z</time>
      </trkpt>
      <trkpt lat="42.42254" lon="2.73027">
        <ele>1448.6</ele>
        <time>2018-11-26T04:46:53Z</time>
      </trkpt>
      <trkpt lat="42.42254" lon="2.73027">
        <ele>1448.5</ele>
        <time>2018-11-26T04:46:53Z</time>
      </trkpt>
      <trkpt lat="42.42254" lon="2.73027">
        <ele>1448.7</ele>
        <time>2018-11-26T04:46:53Z</time>
      </trkpt>
      <trkpt lat="42.42253" lon="2.73028">
        <ele>1446.7</ele>
        <time>2018-11-26T04:46:53Z</time>
      </trkpt>
      <trkpt lat="42.42253" lon="2.73028">
        <ele>1447.1</ele>
        <time>2018-11-26T04:46:53Z</time>
      </trkpt>
      <trkpt lat="42.42253" lon="2.73028">
        <ele>1447.4</ele>
        <time>2018-11-26T04:46:53Z</time>
      </trkpt>
      <trkpt lat="42.42253" lon="2.73028">
        <ele>1448.2</ele>
        <time>2018-11-26T04:46:53Z</time>
      </trkpt>
      <trkpt lat="42.42253" lon="2.73028">
        <ele>1448.2</ele>
        <time>2018-11-26T04:46:53Z</time>
      </trkpt>
      <trkpt lat="42.42253" lon="2.73028">
        <ele>1448.3</ele>
        <time>2018-11-26T04:46:53Z</time>
      </trkpt>
      <trkpt lat="42.42253" lon="2.73028">
        <ele>1448.5</ele>
        <time>2018-11-26T04:46:53Z</time>
      </trkpt>
      <trkpt lat="42.42253" lon="2.73028">
        <ele>1448.4</ele>
        <time>2018-11-26T04:46:53Z</time>
      </trkpt>
      <trkpt lat="42.42253" lon="2.73028">
        <ele>1448.3</ele>
        <time>2018-11-26T04:46:53Z</time>
      </trkpt>
      <trkpt lat="42.42253" lon="2.73028">
        <ele>1448</ele>
        <time>2018-11-26T04:46:53Z</time>
      </trkpt>
      <trkpt lat="42.42253" lon="2.73028">
        <ele>1448</ele>
        <time>2018-11-26T04:46:53Z</time>
      </trkpt>
      <trkpt lat="42.42253" lon="2.73028">
        <ele>1448.1</ele>
        <time>2018-11-26T04:46:53Z</time>
      </trkpt>
      <trkpt lat="42.42253" lon="2.73028">
        <ele>1448.4</ele>
        <time>2018-11-26T04:46:53Z</time>
      </trkpt>
      <trkpt lat="42.42253" lon="2.73028">
        <ele>1448.1</ele>
        <time>2018-11-26T04:46:53Z</time>
      </trkpt>
      <trkpt lat="42.42253" lon="2.73028">
        <ele>1447.6</ele>
        <time>2018-11-26T04:46:53Z</time>
      </trkpt>
      <trkpt lat="42.42253" lon="2.73028">
        <ele>1447.1</ele>
        <time>2018-11-26T04:46:54Z</time>
      </trkpt>
      <trkpt lat="42.42253" lon="2.73028">
        <ele>1447.3</ele>
        <time>2018-11-26T04:46:54Z</time>
      </trkpt>
      <trkpt lat="42.42253" lon="2.73028">
        <ele>1447.8</ele>
        <time>2018-11-26T04:46:54Z</time>
      </trkpt>
      <trkpt lat="42.42253" lon="2.73028">
        <ele>1448.2</ele>
        <time>2018-11-26T04:46:54Z</time>
      </trkpt>
      <trkpt lat="42.42253" lon="2.73028">
        <ele>1448.8</ele>
        <time>2018-11-26T04:46:54Z</time>
      </trkpt>
      <trkpt lat="42.42253" lon="2.73028">
        <ele>1448.7</ele>
        <time>2018-11-26T04:46:54Z</time>
      </trkpt>
      <trkpt lat="42.42253" lon="2.73028">
        <ele>1448.3</ele>
        <time>2018-11-26T04:46:54Z</time>
      </trkpt>
      <trkpt lat="42.42253" lon="2.73028">
        <ele>1447.9</ele>
        <time>2018-11-26T04:46:54Z</time>
      </trkpt>
      <trkpt lat="42.42253" lon="2.73029">
        <ele>1448</ele>
        <time>2018-11-26T04:46:54Z</time>
      </trkpt>
      <trkpt lat="42.42253" lon="2.73029">
        <ele>1447.7</ele>
        <time>2018-11-26T04:46:54Z</time>
      </trkpt>
      <trkpt lat="42.42253" lon="2.73029">
        <ele>1447.6</ele>
        <time>2018-11-26T04:46:54Z</time>
      </trkpt>
      <trkpt lat="42.42253" lon="2.73029">
        <ele>1447.6</ele>
        <time>2018-11-26T04:46:54Z</time>
      </trkpt>
      <trkpt lat="42.42253" lon="2.73029">
        <ele>1447.7</ele>
        <time>2018-11-26T04:46:54Z</time>
      </trkpt>
      <trkpt lat="42.42253" lon="2.73029">
        <ele>1447.6</ele>
        <time>2018-11-26T04:46:54Z</time>
      </trkpt>
      <trkpt lat="42.42252" lon="2.73028">
        <ele>1448.8</ele>
        <time>2018-11-26T04:46:55Z</time>
      </trkpt>
      <trkpt lat="42.42252" lon="2.73028">
        <ele>1448.5</ele>
        <time>2018-11-26T04:46:55Z</time>
      </trkpt>
      <trkpt lat="42.42251" lon="2.73028">
        <ele>1448.4</ele>
        <time>2018-11-26T04:46:55Z</time>
      </trkpt>
      <trkpt lat="42.42251" lon="2.73028">
        <ele>1448.1</ele>
        <time>2018-11-26T04:46:55Z</time>
      </trkpt>
      <trkpt lat="42.42251" lon="2.73028">
        <ele>1449.1</ele>
        <time>2018-11-26T04:46:55Z</time>
      </trkpt>
      <trkpt lat="42.42251" lon="2.73028">
        <ele>1449</ele>
        <time>2018-11-26T04:46:55Z</time>
      </trkpt>
      <trkpt lat="42.42251" lon="2.73028">
        <ele>1448.7</ele>
        <time>2018-11-26T04:46:55Z</time>
      </trkpt>
      <trkpt lat="42.42251" lon="2.73028">
        <ele>1448.5</ele>
        <time>2018-11-26T04:46:55Z</time>
      </trkpt>
      <trkpt lat="42.42251" lon="2.73028">
        <ele>1448.3</ele>
        <time>2018-11-26T04:46:55Z</time>
      </trkpt>
      <trkpt lat="42.42251" lon="2.73028">
        <ele>1448.4</ele>
        <time>2018-11-26T04:46:55Z</time>
      </trkpt>
      <trkpt lat="42.42252" lon="2.73028">
        <ele>1448.4</ele>
        <time>2018-11-26T04:46:55Z</time>
      </trkpt>
      <trkpt lat="42.42252" lon="2.73028">
        <ele>1449.1</ele>
        <time>2018-11-26T04:46:55Z</time>
      </trkpt>
      <trkpt lat="42.42252" lon="2.73028">
        <ele>1449.2</ele>
        <time>2018-11-26T04:46:55Z</time>
      </trkpt>
      <trkpt lat="42.42252" lon="2.73028">
        <ele>1449.1</ele>
        <time>2018-11-26T04:46:55Z</time>
      </trkpt>
      <trkpt lat="42.42252" lon="2.73028">
        <ele>1449.1</ele>
        <time>2018-11-26T04:46:55Z</time>
      </trkpt>
      <trkpt lat="42.42252" lon="2.73028">
        <ele>1449</ele>
        <time>2018-11-26T04:46:56Z</time>
      </trkpt>
      <trkpt lat="42.42251" lon="2.73031">
        <ele>1448.4</ele>
        <time>2018-11-26T04:46:57Z</time>
      </trkpt>
      <trkpt lat="42.42251" lon="2.73031">
        <ele>1448.2</ele>
        <time>2018-11-26T04:46:57Z</time>
      </trkpt>
      <trkpt lat="42.42251" lon="2.73031">
        <ele>1448.3</ele>
        <time>2018-11-26T04:46:57Z</time>
      </trkpt>
      <trkpt lat="42.42252" lon="2.73028">
        <ele>1448</ele>
        <time>2018-11-26T04:46:58Z</time>
      </trkpt>
      <trkpt lat="42.42252" lon="2.73028">
        <ele>1447.8</ele>
        <time>2018-11-26T04:46:58Z</time>
      </trkpt>
      <trkpt lat="42.42252" lon="2.73028">
        <ele>1447.5</ele>
        <time>2018-11-26T04:46:58Z</time>
      </trkpt>
      <trkpt lat="42.42252" lon="2.73028">
        <ele>1447.6</ele>
        <time>2018-11-26T04:46:58Z</time>
      </trkpt>
      <trkpt lat="42.42252" lon="2.73028">
        <ele>1447.8</ele>
        <time>2018-11-26T04:46:58Z</time>
      </trkpt>
      <trkpt lat="42.42252" lon="2.73028">
        <ele>1448.1</ele>
        <time>2018-11-26T04:46:58Z</time>
      </trkpt>
      <trkpt lat="42.42252" lon="2.73028">
        <ele>1448.2</ele>
        <time>2018-11-26T04:46:58Z</time>
      </trkpt>
      <trkpt lat="42.42252" lon="2.73028">
        <ele>1448.3</ele>
        <time>2018-11-26T04:46:58Z</time>
      </trkpt>
      <trkpt lat="42.42252" lon="2.73028">
        <ele>1448.4</ele>
        <time>2018-11-26T04:46:58Z</time>
      </trkpt>
      <trkpt lat="42.42252" lon="2.73029">
        <ele>1448.4</ele>
        <time>2018-11-26T04:46:58Z</time>
      </trkpt>
      <trkpt lat="42.42252" lon="2.73029">
        <ele>1448.5</ele>
        <time>2018-11-26T04:46:58Z</time>
      </trkpt>
      <trkpt lat="42.42252" lon="2.73029">
        <ele>1448.4</ele>
        <time>2018-11-26T04:46:58Z</time>
      </trkpt>
      <trkpt lat="42.42252" lon="2.73029">
        <ele>1448.6</ele>
        <time>2018-11-26T04:46:58Z</time>
      </trkpt>
      <trkpt lat="42.42252" lon="2.73029">
        <ele>1448.9</ele>
        <time>2018-11-26T04:46:58Z</time>
      </trkpt>
      <trkpt lat="42.42252" lon="2.73029">
        <ele>1449.3</ele>
        <time>2018-11-26T04:46:58Z</time>
      </trkpt>
      <trkpt lat="42.42252" lon="2.7303">
        <ele>1449.2</ele>
        <time>2018-11-26T04:46:58Z</time>
      </trkpt>
      <trkpt lat="42.42252" lon="2.7303">
        <ele>1449.2</ele>
        <time>2018-11-26T04:46:58Z</time>
      </trkpt>
      <trkpt lat="42.42252" lon="2.7303">
        <ele>1449.3</ele>
        <time>2018-11-26T04:46:58Z</time>
      </trkpt>
      <trkpt lat="42.42252" lon="2.7303">
        <ele>1449.4</ele>
        <time>2018-11-26T04:46:58Z</time>
      </trkpt>
      <trkpt lat="42.42252" lon="2.7303">
        <ele>1449.3</ele>
        <time>2018-11-26T04:46:58Z</time>
      </trkpt>
      <trkpt lat="42.42252" lon="2.7303">
        <ele>1449.2</ele>
        <time>2018-11-26T04:46:58Z</time>
      </trkpt>
      <trkpt lat="42.42252" lon="2.73031">
        <ele>1449.1</ele>
        <time>2018-11-26T04:46:58Z</time>
      </trkpt>
      <trkpt lat="42.42252" lon="2.73031">
        <ele>1449</ele>
        <time>2018-11-26T04:46:59Z</time>
      </trkpt>
      <trkpt lat="42.42252" lon="2.73031">
        <ele>1448.8</ele>
        <time>2018-11-26T04:46:59Z</time>
      </trkpt>
      <trkpt lat="42.42252" lon="2.73031">
        <ele>1448.4</ele>
        <time>2018-11-26T04:46:59Z</time>
      </trkpt>
      <trkpt lat="42.42252" lon="2.73031">
        <ele>1448.4</ele>
        <time>2018-11-26T04:46:59Z</time>
      </trkpt>
      <trkpt lat="42.42252" lon="2.73031">
        <ele>1448.4</ele>
        <time>2018-11-26T04:46:59Z</time>
      </trkpt>
      <trkpt lat="42.42252" lon="2.73031">
        <ele>1448.2</ele>
        <time>2018-11-26T04:46:59Z</time>
      </trkpt>
      <trkpt lat="42.42252" lon="2.73031">
        <ele>1448.4</ele>
        <time>2018-11-26T04:46:59Z</time>
      </trkpt>
      <trkpt lat="42.42252" lon="2.73031">
        <ele>1448.7</ele>
        <time>2018-11-26T04:46:59Z</time>
      </trkpt>
      <trkpt lat="42.42252" lon="2.73031">
        <ele>1449</ele>
        <time>2018-11-26T04:46:59Z</time>
      </trkpt>
      <trkpt lat="42.42252" lon="2.73031">
        <ele>1449.1</ele>
        <time>2018-11-26T04:46:59Z</time>
      </trkpt>
      <trkpt lat="42.42252" lon="2.73031">
        <ele>1449.2</ele>
        <time>2018-11-26T04:46:59Z</time>
      </trkpt>
      <trkpt lat="42.42252" lon="2.73031">
        <ele>1449.1</ele>
        <time>2018-11-26T04:46:59Z</time>
      </trkpt>
      <trkpt lat="42.42252" lon="2.73031">
        <ele>1449</ele>
        <time>2018-11-26T04:46:59Z</time>
      </trkpt>
      <trkpt lat="42.42252" lon="2.73033">
        <ele>1448.8</ele>
        <time>2018-11-26T04:46:59Z</time>
      </trkpt>
      <trkpt lat="42.42252" lon="2.73033">
        <ele>1449.1</ele>
        <time>2018-11-26T04:46:59Z</time>
      </trkpt>
      <trkpt lat="42.42252" lon="2.73033">
        <ele>1449.3</ele>
        <time>2018-11-26T04:46:59Z</time>
      </trkpt>
      <trkpt lat="42.42252" lon="2.73033">
        <ele>1449.8</ele>
        <time>2018-11-26T04:46:59Z</time>
      </trkpt>
      <trkpt lat="42.42252" lon="2.73033">
        <ele>1449.5</ele>
        <time>2018-11-26T04:46:59Z</time>
      </trkpt>
      <trkpt lat="42.42252" lon="2.73033">
        <ele>1449.1</ele>
        <time>2018-11-26T04:46:59Z</time>
      </trkpt>
      <trkpt lat="42.42252" lon="2.73033">
        <ele>1448.6</ele>
        <time>2018-11-26T04:46:59Z</time>
      </trkpt>
      <trkpt lat="42.42252" lon="2.73033">
        <ele>1448.5</ele>
        <time>2018-11-26T04:46:59Z</time>
      </trkpt>
      <trkpt lat="42.42252" lon="2.73033">
        <ele>1448.4</ele>
        <time>2018-11-26T04:46:59Z</time>
      </trkpt>
      <trkpt lat="42.42252" lon="2.73033">
        <ele>1448.3</ele>
        <time>2018-11-26T04:46:59Z</time>
      </trkpt>
      <trkpt lat="42.42253" lon="2.73033">
        <ele>1448.2</ele>
        <time>2018-11-26T04:47:00Z</time>
      </trkpt>
      <trkpt lat="42.42253" lon="2.73033">
        <ele>1448.1</ele>
        <time>2018-11-26T04:47:00Z</time>
      </trkpt>
      <trkpt lat="42.42253" lon="2.73034">
        <ele>1448</ele>
        <time>2018-11-26T04:47:00Z</time>
      </trkpt>
      <trkpt lat="42.42252" lon="2.73034">
        <ele>1448.3</ele>
        <time>2018-11-26T04:47:00Z</time>
      </trkpt>
      <trkpt lat="42.42252" lon="2.73034">
        <ele>1448.7</ele>
        <time>2018-11-26T04:47:00Z</time>
      </trkpt>
      <trkpt lat="42.42252" lon="2.73035">
        <ele>1449</ele>
        <time>2018-11-26T04:47:00Z</time>
      </trkpt>
      <trkpt lat="42.42252" lon="2.73035">
        <ele>1449.5</ele>
        <time>2018-11-26T04:47:00Z</time>
      </trkpt>
      <trkpt lat="42.42252" lon="2.73035">
        <ele>1449.5</ele>
        <time>2018-11-26T04:47:00Z</time>
      </trkpt>
      <trkpt lat="42.42252" lon="2.73035">
        <ele>1449.4</ele>
        <time>2018-11-26T04:47:00Z</time>
      </trkpt>
      <trkpt lat="42.42252" lon="2.73035">
        <ele>1449.2</ele>
        <time>2018-11-26T04:47:00Z</time>
      </trkpt>
      <trkpt lat="42.42252" lon="2.73035">
        <ele>1448.9</ele>
        <time>2018-11-26T04:47:00Z</time>
      </trkpt>
      <trkpt lat="42.42252" lon="2.73035">
        <ele>1448.7</ele>
        <time>2018-11-26T04:47:00Z</time>
      </trkpt>
      <trkpt lat="42.42252" lon="2.73035">
        <ele>1448.2</ele>
        <time>2018-11-26T04:47:00Z</time>
      </trkpt>
      <trkpt lat="42.42252" lon="2.73036">
        <ele>1448.4</ele>
        <time>2018-11-26T04:47:00Z</time>
      </trkpt>
      <trkpt lat="42.42252" lon="2.73036">
        <ele>1448.6</ele>
        <time>2018-11-26T04:47:01Z</time>
      </trkpt>
      <trkpt lat="42.42252" lon="2.73036">
        <ele>1448.8</ele>
        <time>2018-11-26T04:47:01Z</time>
      </trkpt>
      <trkpt lat="42.42252" lon="2.73036">
        <ele>1448.8</ele>
        <time>2018-11-26T04:47:01Z</time>
      </trkpt>
      <trkpt lat="42.42252" lon="2.73036">
        <ele>1448.9</ele>
        <time>2018-11-26T04:47:01Z</time>
      </trkpt>
      <trkpt lat="42.42251" lon="2.73036">
        <ele>1448.5</ele>
        <time>2018-11-26T04:47:01Z</time>
      </trkpt>
      <trkpt lat="42.42251" lon="2.73037">
        <ele>1448.2</ele>
        <time>2018-11-26T04:47:01Z</time>
      </trkpt>
      <trkpt lat="42.42251" lon="2.73037">
        <ele>1447.8</ele>
        <time>2018-11-26T04:47:01Z</time>
      </trkpt>
      <trkpt lat="42.42251" lon="2.73037">
        <ele>1447.2</ele>
        <time>2018-11-26T04:47:01Z</time>
      </trkpt>
      <trkpt lat="42.42251" lon="2.73037">
        <ele>1447.4</ele>
        <time>2018-11-26T04:47:01Z</time>
      </trkpt>
      <trkpt lat="42.42251" lon="2.73037">
        <ele>1447.8</ele>
        <time>2018-11-26T04:47:01Z</time>
      </trkpt>
      <trkpt lat="42.42251" lon="2.73037">
        <ele>1448.4</ele>
        <time>2018-11-26T04:47:01Z</time>
      </trkpt>
      <trkpt lat="42.42251" lon="2.73037">
        <ele>1448.3</ele>
        <time>2018-11-26T04:47:01Z</time>
      </trkpt>
      <trkpt lat="42.42251" lon="2.73037">
        <ele>1448.3</ele>
        <time>2018-11-26T04:47:01Z</time>
      </trkpt>
      <trkpt lat="42.42251" lon="2.73037">
        <ele>1448.4</ele>
        <time>2018-11-26T04:47:01Z</time>
      </trkpt>
      <trkpt lat="42.42251" lon="2.73037">
        <ele>1448.3</ele>
        <time>2018-11-26T04:47:01Z</time>
      </trkpt>
      <trkpt lat="42.42251" lon="2.73037">
        <ele>1448.2</ele>
        <time>2018-11-26T04:47:01Z</time>
      </trkpt>
      <trkpt lat="42.42251" lon="2.73037">
        <ele>1448.2</ele>
        <time>2018-11-26T04:47:01Z</time>
      </trkpt>
      <trkpt lat="42.42251" lon="2.73037">
        <ele>1448</ele>
        <time>2018-11-26T04:47:01Z</time>
      </trkpt>
      <trkpt lat="42.42251" lon="2.73037">
        <ele>1447.9</ele>
        <time>2018-11-26T04:47:01Z</time>
      </trkpt>
      <trkpt lat="42.42251" lon="2.73037">
        <ele>1447.8</ele>
        <time>2018-11-26T04:47:01Z</time>
      </trkpt>
      <trkpt lat="42.42251" lon="2.73037">
        <ele>1448</ele>
        <time>2018-11-26T04:47:02Z</time>
      </trkpt>
      <trkpt lat="42.42252" lon="2.73037">
        <ele>1448</ele>
        <time>2018-11-26T04:47:02Z</time>
      </trkpt>
      <trkpt lat="42.42252" lon="2.73036">
        <ele>1448.1</ele>
        <time>2018-11-26T04:47:02Z</time>
      </trkpt>
      <trkpt lat="42.42252" lon="2.73036">
        <ele>1448.4</ele>
        <time>2018-11-26T04:47:02Z</time>
      </trkpt>
      <trkpt lat="42.42252" lon="2.73036">
        <ele>1448.1</ele>
        <time>2018-11-26T04:47:02Z</time>
      </trkpt>
      <trkpt lat="42.42252" lon="2.73036">
        <ele>1448</ele>
        <time>2018-11-26T04:47:02Z</time>
      </trkpt>
      <trkpt lat="42.42252" lon="2.73036">
        <ele>1447.7</ele>
        <time>2018-11-26T04:47:02Z</time>
      </trkpt>
      <trkpt lat="42.42252" lon="2.73036">
        <ele>1447.6</ele>
        <time>2018-11-26T04:47:02Z</time>
      </trkpt>
      <trkpt lat="42.42252" lon="2.73036">
        <ele>1447.4</ele>
        <time>2018-11-26T04:47:02Z</time>
      </trkpt>
      <trkpt lat="42.42252" lon="2.73037">
        <ele>1447.2</ele>
        <time>2018-11-26T04:47:02Z</time>
      </trkpt>
      <trkpt lat="42.42252" lon="2.73037">
        <ele>1447.4</ele>
        <time>2018-11-26T04:47:02Z</time>
      </trkpt>
      <trkpt lat="42.42252" lon="2.73037">
        <ele>1447.4</ele>
        <time>2018-11-26T04:47:02Z</time>
      </trkpt>
      <trkpt lat="42.42252" lon="2.73036">
        <ele>1447.6</ele>
        <time>2018-11-26T04:47:03Z</time>
      </trkpt>
      <trkpt lat="42.42252" lon="2.73036">
        <ele>1447.9</ele>
        <time>2018-11-26T04:47:03Z</time>
      </trkpt>
      <trkpt lat="42.42252" lon="2.73036">
        <ele>1448.1</ele>
        <time>2018-11-26T04:47:03Z</time>
      </trkpt>
      <trkpt lat="42.42252" lon="2.73036">
        <ele>1448.4</ele>
        <time>2018-11-26T04:47:03Z</time>
      </trkpt>
      <trkpt lat="42.42252" lon="2.73036">
        <ele>1448.5</ele>
        <time>2018-11-26T04:47:03Z</time>
      </trkpt>
      <trkpt lat="42.42252" lon="2.73036">
        <ele>1448.7</ele>
        <time>2018-11-26T04:47:03Z</time>
      </trkpt>
      <trkpt lat="42.42252" lon="2.73037">
        <ele>1448.9</ele>
        <time>2018-11-26T04:47:03Z</time>
      </trkpt>
      <trkpt lat="42.42252" lon="2.73037">
        <ele>1448.9</ele>
        <time>2018-11-26T04:47:03Z</time>
      </trkpt>
      <trkpt lat="42.42254" lon="2.73032">
        <ele>1448</ele>
        <time>2018-11-26T04:47:05Z</time>
      </trkpt>
      <trkpt lat="42.42254" lon="2.73032">
        <ele>1447.9</ele>
        <time>2018-11-26T04:47:05Z</time>
      </trkpt>
      <trkpt lat="42.42254" lon="2.73032">
        <ele>1448</ele>
        <time>2018-11-26T04:47:05Z</time>
      </trkpt>
      <trkpt lat="42.42254" lon="2.73032">
        <ele>1447.9</ele>
        <time>2018-11-26T04:47:05Z</time>
      </trkpt>
      <trkpt lat="42.42254" lon="2.73031">
        <ele>1447.9</ele>
        <time>2018-11-26T04:47:05Z</time>
      </trkpt>
      <trkpt lat="42.42254" lon="2.73031">
        <ele>1447.9</ele>
        <time>2018-11-26T04:47:05Z</time>
      </trkpt>
      <trkpt lat="42.42254" lon="2.73031">
        <ele>1448.3</ele>
        <time>2018-11-26T04:47:05Z</time>
      </trkpt>
      <trkpt lat="42.42254" lon="2.7303">
        <ele>1449</ele>
        <time>2018-11-26T04:47:05Z</time>
      </trkpt>
      <trkpt lat="42.42254" lon="2.7303">
        <ele>1449.8</ele>
        <time>2018-11-26T04:47:06Z</time>
      </trkpt>
      <trkpt lat="42.42254" lon="2.7303">
        <ele>1450.9</ele>
        <time>2018-11-26T04:47:06Z</time>
      </trkpt>
      <trkpt lat="42.42254" lon="2.7303">
        <ele>1452.2</ele>
        <time>2018-11-26T04:47:06Z</time>
      </trkpt>
      <trkpt lat="42.42253" lon="2.7303">
        <ele>1454.1</ele>
        <time>2018-11-26T04:47:06Z</time>
      </trkpt>
      <trkpt lat="42.42253" lon="2.7303">
        <ele>1456.4</ele>
        <time>2018-11-26T04:47:06Z</time>
      </trkpt>
      <trkpt lat="42.42253" lon="2.7303">
        <ele>1458.8</ele>
        <time>2018-11-26T04:47:06Z</time>
      </trkpt>
      <trkpt lat="42.42253" lon="2.7303">
        <ele>1462.2</ele>
        <time>2018-11-26T04:47:06Z</time>
      </trkpt>
      <trkpt lat="42.42253" lon="2.7303">
        <ele>1466.7</ele>
        <time>2018-11-26T04:47:06Z</time>
      </trkpt>
      <trkpt lat="42.42253" lon="2.73029">
        <ele>1466.6</ele>
        <time>2018-11-26T04:47:06Z</time>
      </trkpt>
      <trkpt lat="42.42253" lon="2.73029">
        <ele>1466.7</ele>
        <time>2018-11-26T04:47:06Z</time>
      </trkpt>
      <trkpt lat="42.42253" lon="2.73029">
        <ele>1466.7</ele>
        <time>2018-11-26T04:47:06Z</time>
      </trkpt>
      <trkpt lat="42.42253" lon="2.73029">
        <ele>1466.8</ele>
        <time>2018-11-26T04:47:06Z</time>
      </trkpt>
      <trkpt lat="42.42253" lon="2.73029">
        <ele>1467</ele>
        <time>2018-11-26T04:47:06Z</time>
      </trkpt>
      <trkpt lat="42.42253" lon="2.73029">
        <ele>1467.3</ele>
        <time>2018-11-26T04:47:06Z</time>
      </trkpt>
      <trkpt lat="42.42253" lon="2.7303">
        <ele>1467.3</ele>
        <time>2018-11-26T04:47:06Z</time>
      </trkpt>
      <trkpt lat="42.42253" lon="2.7303">
        <ele>1467.4</ele>
        <time>2018-11-26T04:47:06Z</time>
      </trkpt>
      <trkpt lat="42.42253" lon="2.7303">
        <ele>1467.4</ele>
        <time>2018-11-26T04:47:07Z</time>
      </trkpt>
      <trkpt lat="42.42253" lon="2.7303">
        <ele>1467.4</ele>
        <time>2018-11-26T04:47:07Z</time>
      </trkpt>
      <trkpt lat="42.42254" lon="2.73029">
        <ele>1467.3</ele>
        <time>2018-11-26T04:47:07Z</time>
      </trkpt>
      <trkpt lat="42.42254" lon="2.73029">
        <ele>1467.4</ele>
        <time>2018-11-26T04:47:07Z</time>
      </trkpt>
      <trkpt lat="42.42254" lon="2.73029">
        <ele>1467.3</ele>
        <time>2018-11-26T04:47:07Z</time>
      </trkpt>
      <trkpt lat="42.42254" lon="2.73029">
        <ele>1467.4</ele>
        <time>2018-11-26T04:47:07Z</time>
      </trkpt>
      <trkpt lat="42.42254" lon="2.73029">
        <ele>1467.7</ele>
        <time>2018-11-26T04:47:07Z</time>
      </trkpt>
      <trkpt lat="42.42253" lon="2.73029">
        <ele>1467.4</ele>
        <time>2018-11-26T04:47:07Z</time>
      </trkpt>
      <trkpt lat="42.42253" lon="2.73029">
        <ele>1467.2</ele>
        <time>2018-11-26T04:47:07Z</time>
      </trkpt>
      <trkpt lat="42.42254" lon="2.73029">
        <ele>1466.7</ele>
        <time>2018-11-26T04:47:07Z</time>
      </trkpt>
      <trkpt lat="42.42254" lon="2.73029">
        <ele>1466.8</ele>
        <time>2018-11-26T04:47:07Z</time>
      </trkpt>
      <trkpt lat="42.42254" lon="2.73029">
        <ele>1467</ele>
        <time>2018-11-26T04:47:07Z</time>
      </trkpt>
      <trkpt lat="42.42254" lon="2.73029">
        <ele>1467.1</ele>
        <time>2018-11-26T04:47:07Z</time>
      </trkpt>
      <trkpt lat="42.42254" lon="2.73029">
        <ele>1467.2</ele>
        <time>2018-11-26T04:47:07Z</time>
      </trkpt>
      <trkpt lat="42.42254" lon="2.73029">
        <ele>1467.2</ele>
        <time>2018-11-26T04:47:07Z</time>
      </trkpt>
      <trkpt lat="42.42254" lon="2.73029">
        <ele>1467.4</ele>
        <time>2018-11-26T04:47:07Z</time>
      </trkpt>
      <trkpt lat="42.42254" lon="2.73029">
        <ele>1467.7</ele>
        <time>2018-11-26T04:47:07Z</time>
      </trkpt>
      <trkpt lat="42.42254" lon="2.73029">
        <ele>1467.6</ele>
        <time>2018-11-26T04:47:07Z</time>
      </trkpt>
      <trkpt lat="42.42254" lon="2.73029">
        <ele>1467.7</ele>
        <time>2018-11-26T04:47:07Z</time>
      </trkpt>
      <trkpt lat="42.42254" lon="2.73029">
        <ele>1467.8</ele>
        <time>2018-11-26T04:47:07Z</time>
      </trkpt>
      <trkpt lat="42.42254" lon="2.73029">
        <ele>1467.5</ele>
        <time>2018-11-26T04:47:07Z</time>
      </trkpt>
      <trkpt lat="42.42254" lon="2.73029">
        <ele>1467</ele>
        <time>2018-11-26T04:47:07Z</time>
      </trkpt>
      <trkpt lat="42.42254" lon="2.73029">
        <ele>1466.4</ele>
        <time>2018-11-26T04:47:07Z</time>
      </trkpt>
      <trkpt lat="42.42254" lon="2.73029">
        <ele>1466.2</ele>
        <time>2018-11-26T04:47:07Z</time>
      </trkpt>
      <trkpt lat="42.42254" lon="2.73029">
        <ele>1466.1</ele>
        <time>2018-11-26T04:47:08Z</time>
      </trkpt>
      <trkpt lat="42.42254" lon="2.73029">
        <ele>1466</ele>
        <time>2018-11-26T04:47:08Z</time>
      </trkpt>
      <trkpt lat="42.42254" lon="2.73029">
        <ele>1466</ele>
        <time>2018-11-26T04:47:08Z</time>
      </trkpt>
      <trkpt lat="42.42254" lon="2.73029">
        <ele>1466.2</ele>
        <time>2018-11-26T04:47:08Z</time>
      </trkpt>
      <trkpt lat="42.42254" lon="2.73029">
        <ele>1466.3</ele>
        <time>2018-11-26T04:47:08Z</time>
      </trkpt>
      <trkpt lat="42.42254" lon="2.73029">
        <ele>1466.4</ele>
        <time>2018-11-26T04:47:08Z</time>
      </trkpt>
      <trkpt lat="42.42254" lon="2.73029">
        <ele>1466.5</ele>
        <time>2018-11-26T04:47:08Z</time>
      </trkpt>
      <trkpt lat="42.42254" lon="2.73029">
        <ele>1466.5</ele>
        <time>2018-11-26T04:47:08Z</time>
      </trkpt>
      <trkpt lat="42.42254" lon="2.73029">
        <ele>1466.7</ele>
        <time>2018-11-26T04:47:08Z</time>
      </trkpt>
      <trkpt lat="42.42254" lon="2.73029">
        <ele>1466.7</ele>
        <time>2018-11-26T04:47:08Z</time>
      </trkpt>
      <trkpt lat="42.42254" lon="2.73029">
        <ele>1466.8</ele>
        <time>2018-11-26T04:47:08Z</time>
      </trkpt>
      <trkpt lat="42.42254" lon="2.73029">
        <ele>1467</ele>
        <time>2018-11-26T04:47:08Z</time>
      </trkpt>
      <trkpt lat="42.42254" lon="2.73029">
        <ele>1467.1</ele>
        <time>2018-11-26T04:47:08Z</time>
      </trkpt>
      <trkpt lat="42.42254" lon="2.73029">
        <ele>1466.9</ele>
        <time>2018-11-26T04:47:08Z</time>
      </trkpt>
      <trkpt lat="42.42254" lon="2.73029">
        <ele>1466.9</ele>
        <time>2018-11-26T04:47:08Z</time>
      </trkpt>
      <trkpt lat="42.42254" lon="2.73029">
        <ele>1466.7</ele>
        <time>2018-11-26T04:47:08Z</time>
      </trkpt>
      <trkpt lat="42.42254" lon="2.73029">
        <ele>1466.4</ele>
        <time>2018-11-26T04:47:08Z</time>
      </trkpt>
      <trkpt lat="42.42254" lon="2.73029">
        <ele>1466.2</ele>
        <time>2018-11-26T04:47:08Z</time>
      </trkpt>
      <trkpt lat="42.42254" lon="2.73029">
        <ele>1466.6</ele>
        <time>2018-11-26T04:47:08Z</time>
      </trkpt>
      <trkpt lat="42.42254" lon="2.73029">
        <ele>1467.1</ele>
        <time>2018-11-26T04:47:08Z</time>
      </trkpt>
      <trkpt lat="42.42254" lon="2.73029">
        <ele>1467.7</ele>
        <time>2018-11-26T04:47:08Z</time>
      </trkpt>
      <trkpt lat="42.42254" lon="2.73029">
        <ele>1467.8</ele>
        <time>2018-11-26T04:47:08Z</time>
      </trkpt>
      <trkpt lat="42.42254" lon="2.73029">
        <ele>1467.9</ele>
        <time>2018-11-26T04:47:08Z</time>
      </trkpt>
      <trkpt lat="42.42254" lon="2.73029">
        <ele>1468</ele>
        <time>2018-11-26T04:47:08Z</time>
      </trkpt>
      <trkpt lat="42.42254" lon="2.73029">
        <ele>1468.1</ele>
        <time>2018-11-26T04:47:08Z</time>
      </trkpt>
      <trkpt lat="42.42254" lon="2.73029">
        <ele>1468</ele>
        <time>2018-11-26T04:47:08Z</time>
      </trkpt>
      <trkpt lat="42.42254" lon="2.73029">
        <ele>1468.1</ele>
        <time>2018-11-26T04:47:08Z</time>
      </trkpt>
      <trkpt lat="42.42254" lon="2.7303">
        <ele>1468</ele>
        <time>2018-11-26T04:47:08Z</time>
      </trkpt>
      <trkpt lat="42.42254" lon="2.7303">
        <ele>1467.9</ele>
        <time>2018-11-26T04:47:08Z</time>
      </trkpt>
      <trkpt lat="42.42254" lon="2.7303">
        <ele>1468</ele>
        <time>2018-11-26T04:47:08Z</time>
      </trkpt>
      <trkpt lat="42.42254" lon="2.7303">
        <ele>1467.8</ele>
        <time>2018-11-26T04:47:08Z</time>
      </trkpt>
      <trkpt lat="42.42254" lon="2.7303">
        <ele>1467.8</ele>
        <time>2018-11-26T04:47:08Z</time>
      </trkpt>
      <trkpt lat="42.42254" lon="2.7303">
        <ele>1467.6</ele>
        <time>2018-11-26T04:47:08Z</time>
      </trkpt>
      <trkpt lat="42.42254" lon="2.7303">
        <ele>1467.5</ele>
        <time>2018-11-26T04:47:08Z</time>
      </trkpt>
      <trkpt lat="42.42254" lon="2.7303">
        <ele>1467.4</ele>
        <time>2018-11-26T04:47:08Z</time>
      </trkpt>
      <trkpt lat="42.42254" lon="2.7303">
        <ele>1467.4</ele>
        <time>2018-11-26T04:47:08Z</time>
      </trkpt>
      <trkpt lat="42.42254" lon="2.7303">
        <ele>1467.3</ele>
        <time>2018-11-26T04:47:08Z</time>
      </trkpt>
      <trkpt lat="42.42254" lon="2.7303">
        <ele>1467.4</ele>
        <time>2018-11-26T04:47:08Z</time>
      </trkpt>
      <trkpt lat="42.42254" lon="2.7303">
        <ele>1467.7</ele>
        <time>2018-11-26T04:47:08Z</time>
      </trkpt>
      <trkpt lat="42.42254" lon="2.7303">
        <ele>1467.9</ele>
        <time>2018-11-26T04:47:09Z</time>
      </trkpt>
      <trkpt lat="42.42254" lon="2.7303">
        <ele>1467.6</ele>
        <time>2018-11-26T04:47:09Z</time>
      </trkpt>
      <trkpt lat="42.42254" lon="2.7303">
        <ele>1467.3</ele>
        <time>2018-11-26T04:47:09Z</time>
      </trkpt>
      <trkpt lat="42.42254" lon="2.7303">
        <ele>1466.9</ele>
        <time>2018-11-26T04:47:09Z</time>
      </trkpt>
      <trkpt lat="42.42254" lon="2.7303">
        <ele>1466.5</ele>
        <time>2018-11-26T04:47:09Z</time>
      </trkpt>
      <trkpt lat="42.42254" lon="2.7303">
        <ele>1466.7</ele>
        <time>2018-11-26T04:47:09Z</time>
      </trkpt>
      <trkpt lat="42.42254" lon="2.7303">
        <ele>1466.8</ele>
        <time>2018-11-26T04:47:09Z</time>
      </trkpt>
      <trkpt lat="42.42254" lon="2.7303">
        <ele>1467.2</ele>
        <time>2018-11-26T04:47:09Z</time>
      </trkpt>
      <trkpt lat="42.42254" lon="2.7303">
        <ele>1467.3</ele>
        <time>2018-11-26T04:47:09Z</time>
      </trkpt>
      <trkpt lat="42.42254" lon="2.7303">
        <ele>1467.4</ele>
        <time>2018-11-26T04:47:09Z</time>
      </trkpt>
      <trkpt lat="42.42254" lon="2.7303">
        <ele>1467.5</ele>
        <time>2018-11-26T04:47:09Z</time>
      </trkpt>
      <trkpt lat="42.42254" lon="2.7303">
        <ele>1467.4</ele>
        <time>2018-11-26T04:47:09Z</time>
      </trkpt>
      <trkpt lat="42.42254" lon="2.7303">
        <ele>1467.2</ele>
        <time>2018-11-26T04:47:09Z</time>
      </trkpt>
      <trkpt lat="42.42254" lon="2.7303">
        <ele>1467.1</ele>
        <time>2018-11-26T04:47:09Z</time>
      </trkpt>
      <trkpt lat="42.42254" lon="2.7303">
        <ele>1467.1</ele>
        <time>2018-11-26T04:47:09Z</time>
      </trkpt>
      <trkpt lat="42.42254" lon="2.7303">
        <ele>1466.9</ele>
        <time>2018-11-26T04:47:09Z</time>
      </trkpt>
      <trkpt lat="42.42254" lon="2.7303">
        <ele>1466.8</ele>
        <time>2018-11-26T04:47:09Z</time>
      </trkpt>
      <trkpt lat="42.42254" lon="2.73029">
        <ele>1466.7</ele>
        <time>2018-11-26T04:47:09Z</time>
      </trkpt>
      <trkpt lat="42.42254" lon="2.73029">
        <ele>1466.8</ele>
        <time>2018-11-26T04:47:09Z</time>
      </trkpt>
      <trkpt lat="42.42254" lon="2.73029">
        <ele>1466.7</ele>
        <time>2018-11-26T04:47:09Z</time>
      </trkpt>
      <trkpt lat="42.42254" lon="2.73029">
        <ele>1466.5</ele>
        <time>2018-11-26T04:47:09Z</time>
      </trkpt>
      <trkpt lat="42.42254" lon="2.73029">
        <ele>1466.3</ele>
        <time>2018-11-26T04:47:09Z</time>
      </trkpt>
      <trkpt lat="42.42254" lon="2.73029">
        <ele>1466</ele>
        <time>2018-11-26T04:47:09Z</time>
      </trkpt>
      <trkpt lat="42.42254" lon="2.73029">
        <ele>1466.2</ele>
        <time>2018-11-26T04:47:09Z</time>
      </trkpt>
      <trkpt lat="42.42254" lon="2.73029">
        <ele>1466.3</ele>
        <time>2018-11-26T04:47:09Z</time>
      </trkpt>
      <trkpt lat="42.42254" lon="2.73029">
        <ele>1466.4</ele>
        <time>2018-11-26T04:47:09Z</time>
      </trkpt>
      <trkpt lat="42.42254" lon="2.73029">
        <ele>1466.6</ele>
        <time>2018-11-26T04:47:09Z</time>
      </trkpt>
      <trkpt lat="42.42254" lon="2.73029">
        <ele>1466.7</ele>
        <time>2018-11-26T04:47:09Z</time>
      </trkpt>
      <trkpt lat="42.42254" lon="2.73029">
        <ele>1467.1</ele>
        <time>2018-11-26T04:47:09Z</time>
      </trkpt>
      <trkpt lat="42.42254" lon="2.73029">
        <ele>1467.1</ele>
        <time>2018-11-26T04:47:09Z</time>
      </trkpt>
      <trkpt lat="42.42254" lon="2.73029">
        <ele>1467.1</ele>
        <time>2018-11-26T04:47:09Z</time>
      </trkpt>
      <trkpt lat="42.42254" lon="2.73029">
        <ele>1467.1</ele>
        <time>2018-11-26T04:47:09Z</time>
      </trkpt>
      <trkpt lat="42.42254" lon="2.73029">
        <ele>1467.1</ele>
        <time>2018-11-26T04:47:09Z</time>
      </trkpt>
      <trkpt lat="42.42254" lon="2.73029">
        <ele>1467.2</ele>
        <time>2018-11-26T04:47:09Z</time>
      </trkpt>
      <trkpt lat="42.42254" lon="2.73029">
        <ele>1467.5</ele>
        <time>2018-11-26T04:47:09Z</time>
      </trkpt>
      <trkpt lat="42.42254" lon="2.73029">
        <ele>1467.6</ele>
        <time>2018-11-26T04:47:10Z</time>
      </trkpt>
      <trkpt lat="42.42254" lon="2.73029">
        <ele>1467.4</ele>
        <time>2018-11-26T04:47:10Z</time>
      </trkpt>
      <trkpt lat="42.42254" lon="2.73029">
        <ele>1467.2</ele>
        <time>2018-11-26T04:47:10Z</time>
      </trkpt>
      <trkpt lat="42.42254" lon="2.73029">
        <ele>1466.7</ele>
        <time>2018-11-26T04:47:10Z</time>
      </trkpt>
      <trkpt lat="42.42254" lon="2.73029">
        <ele>1466.8</ele>
        <time>2018-11-26T04:47:10Z</time>
      </trkpt>
      <trkpt lat="42.42254" lon="2.73029">
        <ele>1466.7</ele>
        <time>2018-11-26T04:47:10Z</time>
      </trkpt>
      <trkpt lat="42.42254" lon="2.73029">
        <ele>1466.6</ele>
        <time>2018-11-26T04:47:10Z</time>
      </trkpt>
      <trkpt lat="42.42254" lon="2.73029">
        <ele>1466.9</ele>
        <time>2018-11-26T04:47:10Z</time>
      </trkpt>
      <trkpt lat="42.42254" lon="2.73029">
        <ele>1467.2</ele>
        <time>2018-11-26T04:47:10Z</time>
      </trkpt>
      <trkpt lat="42.42254" lon="2.73029">
        <ele>1467.6</ele>
        <time>2018-11-26T04:47:10Z</time>
      </trkpt>
      <trkpt lat="42.42254" lon="2.73029">
        <ele>1467.4</ele>
        <time>2018-11-26T04:47:10Z</time>
      </trkpt>
      <trkpt lat="42.42254" lon="2.73029">
        <ele>1467.3</ele>
        <time>2018-11-26T04:47:10Z</time>
      </trkpt>
      <trkpt lat="42.42254" lon="2.73029">
        <ele>1467</ele>
        <time>2018-11-26T04:47:10Z</time>
      </trkpt>
      <trkpt lat="42.42254" lon="2.73029">
        <ele>1466.7</ele>
        <time>2018-11-26T04:47:10Z</time>
      </trkpt>
      <trkpt lat="42.42254" lon="2.73029">
        <ele>1466.7</ele>
        <time>2018-11-26T04:47:10Z</time>
      </trkpt>
      <trkpt lat="42.42254" lon="2.73029">
        <ele>1466.7</ele>
        <time>2018-11-26T04:47:10Z</time>
      </trkpt>
      <trkpt lat="42.42253" lon="2.73029">
        <ele>1466.6</ele>
        <time>2018-11-26T04:47:10Z</time>
      </trkpt>
      <trkpt lat="42.42254" lon="2.73029">
        <ele>1466.7</ele>
        <time>2018-11-26T04:47:10Z</time>
      </trkpt>
      <trkpt lat="42.42254" lon="2.73029">
        <ele>1467</ele>
        <time>2018-11-26T04:47:10Z</time>
      </trkpt>
      <trkpt lat="42.42254" lon="2.73029">
        <ele>1467.2</ele>
        <time>2018-11-26T04:47:10Z</time>
      </trkpt>
      <trkpt lat="42.42254" lon="2.73029">
        <ele>1467.1</ele>
        <time>2018-11-26T04:47:10Z</time>
      </trkpt>
      <trkpt lat="42.42254" lon="2.73029">
        <ele>1467</ele>
        <time>2018-11-26T04:47:10Z</time>
      </trkpt>
      <trkpt lat="42.42254" lon="2.73029">
        <ele>1466.9</ele>
        <time>2018-11-26T04:47:10Z</time>
      </trkpt>
      <trkpt lat="42.42254" lon="2.73029">
        <ele>1467.1</ele>
        <time>2018-11-26T04:47:10Z</time>
      </trkpt>
      <trkpt lat="42.42254" lon="2.7303">
        <ele>1467.3</ele>
        <time>2018-11-26T04:47:10Z</time>
      </trkpt>
      <trkpt lat="42.42254" lon="2.7303">
        <ele>1467.7</ele>
        <time>2018-11-26T04:47:10Z</time>
      </trkpt>
      <trkpt lat="42.42254" lon="2.7303">
        <ele>1467.5</ele>
        <time>2018-11-26T04:47:10Z</time>
      </trkpt>
      <trkpt lat="42.42254" lon="2.7303">
        <ele>1467.3</ele>
        <time>2018-11-26T04:47:10Z</time>
      </trkpt>
      <trkpt lat="42.42254" lon="2.7303">
        <ele>1467.1</ele>
        <time>2018-11-26T04:47:10Z</time>
      </trkpt>
      <trkpt lat="42.42254" lon="2.7303">
        <ele>1467.1</ele>
        <time>2018-11-26T04:47:10Z</time>
      </trkpt>
      <trkpt lat="42.42254" lon="2.7303">
        <ele>1466.9</ele>
        <time>2018-11-26T04:47:10Z</time>
      </trkpt>
      <trkpt lat="42.42254" lon="2.7303">
        <ele>1466.8</ele>
        <time>2018-11-26T04:47:10Z</time>
      </trkpt>
      <trkpt lat="42.42254" lon="2.7303">
        <ele>1466.6</ele>
        <time>2018-11-26T04:47:10Z</time>
      </trkpt>
      <trkpt lat="42.42254" lon="2.7303">
        <ele>1466.7</ele>
        <time>2018-11-26T04:47:10Z</time>
      </trkpt>
      <trkpt lat="42.42254" lon="2.7303">
        <ele>1467.1</ele>
        <time>2018-11-26T04:47:10Z</time>
      </trkpt>
      <trkpt lat="42.42254" lon="2.7303">
        <ele>1467.5</ele>
        <time>2018-11-26T04:47:10Z</time>
      </trkpt>
      <trkpt lat="42.42254" lon="2.7303">
        <ele>1467.4</ele>
        <time>2018-11-26T04:47:10Z</time>
      </trkpt>
      <trkpt lat="42.42254" lon="2.7303">
        <ele>1467.4</ele>
        <time>2018-11-26T04:47:10Z</time>
      </trkpt>
      <trkpt lat="42.42254" lon="2.7303">
        <ele>1467.4</ele>
        <time>2018-11-26T04:47:11Z</time>
      </trkpt>
      <trkpt lat="42.42254" lon="2.7303">
        <ele>1467.2</ele>
        <time>2018-11-26T04:47:11Z</time>
      </trkpt>
      <trkpt lat="42.42254" lon="2.7303">
        <ele>1467</ele>
        <time>2018-11-26T04:47:11Z</time>
      </trkpt>
      <trkpt lat="42.42254" lon="2.7303">
        <ele>1466.7</ele>
        <time>2018-11-26T04:47:11Z</time>
      </trkpt>
      <trkpt lat="42.42254" lon="2.7303">
        <ele>1466.6</ele>
        <time>2018-11-26T04:47:11Z</time>
      </trkpt>
      <trkpt lat="42.42254" lon="2.73031">
        <ele>1466.4</ele>
        <time>2018-11-26T04:47:11Z</time>
      </trkpt>
      <trkpt lat="42.42254" lon="2.73031">
        <ele>1466.3</ele>
        <time>2018-11-26T04:47:11Z</time>
      </trkpt>
      <trkpt lat="42.42254" lon="2.73031">
        <ele>1466.7</ele>
        <time>2018-11-26T04:47:11Z</time>
      </trkpt>
      <trkpt lat="42.42254" lon="2.73031">
        <ele>1467</ele>
        <time>2018-11-26T04:47:11Z</time>
      </trkpt>
      <trkpt lat="42.42254" lon="2.73031">
        <ele>1467.5</ele>
        <time>2018-11-26T04:47:11Z</time>
      </trkpt>
      <trkpt lat="42.42254" lon="2.73031">
        <ele>1468.2</ele>
        <time>2018-11-26T04:47:11Z</time>
      </trkpt>
      <trkpt lat="42.42254" lon="2.73031">
        <ele>1468.1</ele>
        <time>2018-11-26T04:47:11Z</time>
      </trkpt>
      <trkpt lat="42.42254" lon="2.73031">
        <ele>1468</ele>
        <time>2018-11-26T04:47:11Z</time>
      </trkpt>
      <trkpt lat="42.42254" lon="2.73031">
        <ele>1467.7</ele>
        <time>2018-11-26T04:47:11Z</time>
      </trkpt>
      <trkpt lat="42.42254" lon="2.73031">
        <ele>1467.8</ele>
        <time>2018-11-26T04:47:11Z</time>
      </trkpt>
      <trkpt lat="42.42254" lon="2.73031">
        <ele>1468</ele>
        <time>2018-11-26T04:47:11Z</time>
      </trkpt>
      <trkpt lat="42.42254" lon="2.73031">
        <ele>1468.4</ele>
        <time>2018-11-26T04:47:11Z</time>
      </trkpt>
      <trkpt lat="42.42254" lon="2.73031">
        <ele>1468</ele>
        <time>2018-11-26T04:47:11Z</time>
      </trkpt>
      <trkpt lat="42.42254" lon="2.73032">
        <ele>1467.5</ele>
        <time>2018-11-26T04:47:11Z</time>
      </trkpt>
      <trkpt lat="42.42254" lon="2.73032">
        <ele>1466.9</ele>
        <time>2018-11-26T04:47:11Z</time>
      </trkpt>
      <trkpt lat="42.42254" lon="2.73032">
        <ele>1467.3</ele>
        <time>2018-11-26T04:47:11Z</time>
      </trkpt>
      <trkpt lat="42.42254" lon="2.73032">
        <ele>1467.9</ele>
        <time>2018-11-26T04:47:11Z</time>
      </trkpt>
      <trkpt lat="42.42254" lon="2.73032">
        <ele>1468.4</ele>
        <time>2018-11-26T04:47:11Z</time>
      </trkpt>
      <trkpt lat="42.42254" lon="2.73032">
        <ele>1468.4</ele>
        <time>2018-11-26T04:47:11Z</time>
      </trkpt>
      <trkpt lat="42.42254" lon="2.73032">
        <ele>1468.3</ele>
        <time>2018-11-26T04:47:11Z</time>
      </trkpt>
      <trkpt lat="42.42254" lon="2.73032">
        <ele>1468.2</ele>
        <time>2018-11-26T04:47:11Z</time>
      </trkpt>
      <trkpt lat="42.42254" lon="2.73032">
        <ele>1467.9</ele>
        <time>2018-11-26T04:47:11Z</time>
      </trkpt>
      <trkpt lat="42.42254" lon="2.73032">
        <ele>1467.9</ele>
        <time>2018-11-26T04:47:11Z</time>
      </trkpt>
      <trkpt lat="42.42254" lon="2.73032">
        <ele>1468</ele>
        <time>2018-11-26T04:47:11Z</time>
      </trkpt>
      <trkpt lat="42.42254" lon="2.73032">
        <ele>1468</ele>
        <time>2018-11-26T04:47:11Z</time>
      </trkpt>
      <trkpt lat="42.42254" lon="2.73032">
        <ele>1468</ele>
        <time>2018-11-26T04:47:11Z</time>
      </trkpt>
      <trkpt lat="42.42253" lon="2.73032">
        <ele>1468</ele>
        <time>2018-11-26T04:47:11Z</time>
      </trkpt>
      <trkpt lat="42.42253" lon="2.73032">
        <ele>1468.2</ele>
        <time>2018-11-26T04:47:11Z</time>
      </trkpt>
      <trkpt lat="42.42253" lon="2.73032">
        <ele>1467.9</ele>
        <time>2018-11-26T04:47:12Z</time>
      </trkpt>
      <trkpt lat="42.42253" lon="2.73032">
        <ele>1467.4</ele>
        <time>2018-11-26T04:47:12Z</time>
      </trkpt>
      <trkpt lat="42.42253" lon="2.73033">
        <ele>1466.9</ele>
        <time>2018-11-26T04:47:12Z</time>
      </trkpt>
      <trkpt lat="42.42253" lon="2.73033">
        <ele>1467.2</ele>
        <time>2018-11-26T04:47:12Z</time>
      </trkpt>
      <trkpt lat="42.42253" lon="2.73033">
        <ele>1467.4</ele>
        <time>2018-11-26T04:47:12Z</time>
      </trkpt>
      <trkpt lat="42.42253" lon="2.73033">
        <ele>1467.7</ele>
        <time>2018-11-26T04:47:12Z</time>
      </trkpt>
      <trkpt lat="42.42253" lon="2.73033">
        <ele>1467.6</ele>
        <time>2018-11-26T04:47:12Z</time>
      </trkpt>
      <trkpt lat="42.42252" lon="2.73032">
        <ele>1467.6</ele>
        <time>2018-11-26T04:47:12Z</time>
      </trkpt>
      <trkpt lat="42.42253" lon="2.73032">
        <ele>1467.4</ele>
        <time>2018-11-26T04:47:12Z</time>
      </trkpt>
      <trkpt lat="42.42252" lon="2.73031">
        <ele>1467.1</ele>
        <time>2018-11-26T04:47:12Z</time>
      </trkpt>
      <trkpt lat="42.42253" lon="2.73032">
        <ele>1467.4</ele>
        <time>2018-11-26T04:47:12Z</time>
      </trkpt>
      <trkpt lat="42.42253" lon="2.73032">
        <ele>1467.7</ele>
        <time>2018-11-26T04:47:12Z</time>
      </trkpt>
      <trkpt lat="42.42253" lon="2.73032">
        <ele>1468.1</ele>
        <time>2018-11-26T04:47:12Z</time>
      </trkpt>
      <trkpt lat="42.42253" lon="2.73032">
        <ele>1467.9</ele>
        <time>2018-11-26T04:47:12Z</time>
      </trkpt>
      <trkpt lat="42.42253" lon="2.73032">
        <ele>1467.9</ele>
        <time>2018-11-26T04:47:12Z</time>
      </trkpt>
      <trkpt lat="42.42253" lon="2.73032">
        <ele>1467.6</ele>
        <time>2018-11-26T04:47:12Z</time>
      </trkpt>
      <trkpt lat="42.42253" lon="2.73032">
        <ele>1467.6</ele>
        <time>2018-11-26T04:47:12Z</time>
      </trkpt>
      <trkpt lat="42.42253" lon="2.73032">
        <ele>1467.5</ele>
        <time>2018-11-26T04:47:12Z</time>
      </trkpt>
      <trkpt lat="42.42253" lon="2.73031">
        <ele>1467.5</ele>
        <time>2018-11-26T04:47:12Z</time>
      </trkpt>
      <trkpt lat="42.42252" lon="2.73032">
        <ele>1467.4</ele>
        <time>2018-11-26T04:47:13Z</time>
      </trkpt>
      <trkpt lat="42.42252" lon="2.73031">
        <ele>1467.4</ele>
        <time>2018-11-26T04:47:13Z</time>
      </trkpt>
      <trkpt lat="42.42253" lon="2.73031">
        <ele>1467.2</ele>
        <time>2018-11-26T04:47:13Z</time>
      </trkpt>
      <trkpt lat="42.42253" lon="2.73031">
        <ele>1467</ele>
        <time>2018-11-26T04:47:13Z</time>
      </trkpt>
      <trkpt lat="42.42254" lon="2.73031">
        <ele>1467</ele>
        <time>2018-11-26T04:47:13Z</time>
      </trkpt>
      <trkpt lat="42.42254" lon="2.73031">
        <ele>1466.7</ele>
        <time>2018-11-26T04:47:13Z</time>
      </trkpt>
      <trkpt lat="42.42254" lon="2.73031">
        <ele>1466.6</ele>
        <time>2018-11-26T04:47:13Z</time>
      </trkpt>
      <trkpt lat="42.42254" lon="2.73032">
        <ele>1466.5</ele>
        <time>2018-11-26T04:47:13Z</time>
      </trkpt>
      <trkpt lat="42.42255" lon="2.73033">
        <ele>1466.1</ele>
        <time>2018-11-26T04:47:14Z</time>
      </trkpt>
      <trkpt lat="42.42255" lon="2.73034">
        <ele>1466.2</ele>
        <time>2018-11-26T04:47:14Z</time>
      </trkpt>
      <trkpt lat="42.42255" lon="2.73035">
        <ele>1466</ele>
        <time>2018-11-26T04:47:14Z</time>
      </trkpt>
      <trkpt lat="42.42255" lon="2.73036">
        <ele>1466</ele>
        <time>2018-11-26T04:47:15Z</time>
      </trkpt>
      <trkpt lat="42.42255" lon="2.73037">
        <ele>1465.9</ele>
        <time>2018-11-26T04:47:15Z</time>
      </trkpt>
      <trkpt lat="42.42255" lon="2.73038">
        <ele>1466</ele>
        <time>2018-11-26T04:47:15Z</time>
      </trkpt>
      <trkpt lat="42.42255" lon="2.73039">
        <ele>1465.9</ele>
        <time>2018-11-26T04:47:16Z</time>
      </trkpt>
      <trkpt lat="42.42255" lon="2.7304">
        <ele>1465.5</ele>
        <time>2018-11-26T04:47:16Z</time>
      </trkpt>
      <trkpt lat="42.42256" lon="2.73041">
        <ele>1465.1</ele>
        <time>2018-11-26T04:47:16Z</time>
      </trkpt>
      <trkpt lat="42.42256" lon="2.73042">
        <ele>1464.5</ele>
        <time>2018-11-26T04:47:17Z</time>
      </trkpt>
      <trkpt lat="42.42256" lon="2.73043">
        <ele>1464.5</ele>
        <time>2018-11-26T04:47:17Z</time>
      </trkpt>
      <trkpt lat="42.42256" lon="2.73046">
        <ele>1464.5</ele>
        <time>2018-11-26T04:47:18Z</time>
      </trkpt>
      <trkpt lat="42.42256" lon="2.73047">
        <ele>1464.6</ele>
        <time>2018-11-26T04:47:18Z</time>
      </trkpt>
      <trkpt lat="42.42256" lon="2.73048">
        <ele>1464.5</ele>
        <time>2018-11-26T04:47:19Z</time>
      </trkpt>
      <trkpt lat="42.42257" lon="2.73049">
        <ele>1464.4</ele>
        <time>2018-11-26T04:47:19Z</time>
      </trkpt>
      <trkpt lat="42.42257" lon="2.7305">
        <ele>1464.1</ele>
        <time>2018-11-26T04:47:19Z</time>
      </trkpt>
      <trkpt lat="42.42258" lon="2.73051">
        <ele>1464.1</ele>
        <time>2018-11-26T04:47:20Z</time>
      </trkpt>
      <trkpt lat="42.42259" lon="2.73052">
        <ele>1464</ele>
        <time>2018-11-26T04:47:20Z</time>
      </trkpt>
      <trkpt lat="42.42259" lon="2.73052">
        <ele>1463.8</ele>
        <time>2018-11-26T04:47:20Z</time>
      </trkpt>
      <trkpt lat="42.4226" lon="2.73052">
        <ele>1463.7</ele>
        <time>2018-11-26T04:47:21Z</time>
      </trkpt>
      <trkpt lat="42.42262" lon="2.73052">
        <ele>1463.5</ele>
        <time>2018-11-26T04:47:21Z</time>
      </trkpt>
      <trkpt lat="42.42263" lon="2.73052">
        <ele>1463</ele>
        <time>2018-11-26T04:47:22Z</time>
      </trkpt>
      <trkpt lat="42.42264" lon="2.73052">
        <ele>1462.5</ele>
        <time>2018-11-26T04:47:22Z</time>
      </trkpt>
      <trkpt lat="42.42265" lon="2.73053">
        <ele>1461.7</ele>
        <time>2018-11-26T04:47:22Z</time>
      </trkpt>
      <trkpt lat="42.42266" lon="2.73053">
        <ele>1461.6</ele>
        <time>2018-11-26T04:47:23Z</time>
      </trkpt>
      <trkpt lat="42.42267" lon="2.73054">
        <ele>1461</ele>
        <time>2018-11-26T04:47:24Z</time>
      </trkpt>
      <trkpt lat="42.42268" lon="2.73055">
        <ele>1461</ele>
        <time>2018-11-26T04:47:24Z</time>
      </trkpt>
      <trkpt lat="42.42269" lon="2.73055">
        <ele>1460.9</ele>
        <time>2018-11-26T04:47:24Z</time>
      </trkpt>
      <trkpt lat="42.4227" lon="2.73056">
        <ele>1460.9</ele>
        <time>2018-11-26T04:47:25Z</time>
      </trkpt>
      <trkpt lat="42.42272" lon="2.7306">
        <ele>1460.1</ele>
        <time>2018-11-26T04:47:26Z</time>
      </trkpt>
      <trkpt lat="42.42274" lon="2.73061">
        <ele>1459.7</ele>
        <time>2018-11-26T04:47:27Z</time>
      </trkpt>
      <trkpt lat="42.42275" lon="2.73063">
        <ele>1459.1</ele>
        <time>2018-11-26T04:47:28Z</time>
      </trkpt>
      <trkpt lat="42.42276" lon="2.73064">
        <ele>1459</ele>
        <time>2018-11-26T04:47:28Z</time>
      </trkpt>
      <trkpt lat="42.42276" lon="2.73064">
        <ele>1458.5</ele>
        <time>2018-11-26T04:47:28Z</time>
      </trkpt>
      <trkpt lat="42.42277" lon="2.73065">
        <ele>1458.3</ele>
        <time>2018-11-26T04:47:29Z</time>
      </trkpt>
      <trkpt lat="42.42278" lon="2.73065">
        <ele>1458</ele>
        <time>2018-11-26T04:47:29Z</time>
      </trkpt>
      <trkpt lat="42.4228" lon="2.73066">
        <ele>1457.6</ele>
        <time>2018-11-26T04:47:30Z</time>
      </trkpt>
      <trkpt lat="42.42281" lon="2.73066">
        <ele>1457.6</ele>
        <time>2018-11-26T04:47:30Z</time>
      </trkpt>
      <trkpt lat="42.42282" lon="2.73066">
        <ele>1457.6</ele>
        <time>2018-11-26T04:47:31Z</time>
      </trkpt>
      <trkpt lat="42.42283" lon="2.73066">
        <ele>1457.6</ele>
        <time>2018-11-26T04:47:31Z</time>
      </trkpt>
      <trkpt lat="42.42284" lon="2.73066">
        <ele>1457.3</ele>
        <time>2018-11-26T04:47:31Z</time>
      </trkpt>
      <trkpt lat="42.42284" lon="2.73065">
        <ele>1456.9</ele>
        <time>2018-11-26T04:47:32Z</time>
      </trkpt>
      <trkpt lat="42.42286" lon="2.73065">
        <ele>1456.2</ele>
        <time>2018-11-26T04:47:32Z</time>
      </trkpt>
      <trkpt lat="42.42287" lon="2.73065">
        <ele>1455.9</ele>
        <time>2018-11-26T04:47:33Z</time>
      </trkpt>
      <trkpt lat="42.42288" lon="2.73065">
        <ele>1455.7</ele>
        <time>2018-11-26T04:47:33Z</time>
      </trkpt>
      <trkpt lat="42.4229" lon="2.73065">
        <ele>1455.1</ele>
        <time>2018-11-26T04:47:34Z</time>
      </trkpt>
      <trkpt lat="42.42291" lon="2.73065">
        <ele>1454.5</ele>
        <time>2018-11-26T04:47:34Z</time>
      </trkpt>
      <trkpt lat="42.42292" lon="2.73064">
        <ele>1454.4</ele>
        <time>2018-11-26T04:47:35Z</time>
      </trkpt>
      <trkpt lat="42.42294" lon="2.73064">
        <ele>1454.3</ele>
        <time>2018-11-26T04:47:36Z</time>
      </trkpt>
      <trkpt lat="42.42299" lon="2.73065">
        <ele>1453.6</ele>
        <time>2018-11-26T04:47:38Z</time>
      </trkpt>
      <trkpt lat="42.42301" lon="2.73065">
        <ele>1452.8</ele>
        <time>2018-11-26T04:47:39Z</time>
      </trkpt>
      <trkpt lat="42.4231" lon="2.73067">
        <ele>1452.1</ele>
        <time>2018-11-26T04:47:42Z</time>
      </trkpt>
      <trkpt lat="42.42311" lon="2.73067">
        <ele>1451.9</ele>
        <time>2018-11-26T04:47:43Z</time>
      </trkpt>
      <trkpt lat="42.42313" lon="2.73069">
        <ele>1451.5</ele>
        <time>2018-11-26T04:47:43Z</time>
      </trkpt>
      <trkpt lat="42.42314" lon="2.7307">
        <ele>1451.2</ele>
        <time>2018-11-26T04:47:44Z</time>
      </trkpt>
      <trkpt lat="42.42316" lon="2.73073">
        <ele>1450</ele>
        <time>2018-11-26T04:47:45Z</time>
      </trkpt>
      <trkpt lat="42.42319" lon="2.73076">
        <ele>1449.7</ele>
        <time>2018-11-26T04:47:46Z</time>
      </trkpt>
      <trkpt lat="42.4232" lon="2.73078">
        <ele>1449.6</ele>
        <time>2018-11-26T04:47:47Z</time>
      </trkpt>
      <trkpt lat="42.42321" lon="2.7308">
        <ele>1449.7</ele>
        <time>2018-11-26T04:47:48Z</time>
      </trkpt>
      <trkpt lat="42.42322" lon="2.73083">
        <ele>1449.4</ele>
        <time>2018-11-26T04:47:49Z</time>
      </trkpt>
      <trkpt lat="42.42325" lon="2.73089">
        <ele>1448.8</ele>
        <time>2018-11-26T04:47:51Z</time>
      </trkpt>
      <trkpt lat="42.42326" lon="2.73093">
        <ele>1448.6</ele>
        <time>2018-11-26T04:47:52Z</time>
      </trkpt>
      <trkpt lat="42.42327" lon="2.73094">
        <ele>1448.4</ele>
        <time>2018-11-26T04:47:53Z</time>
      </trkpt>
      <trkpt lat="42.42327" lon="2.73095">
        <ele>1448</ele>
        <time>2018-11-26T04:47:53Z</time>
      </trkpt>
      <trkpt lat="42.42328" lon="2.73096">
        <ele>1447.7</ele>
        <time>2018-11-26T04:47:53Z</time>
      </trkpt>
      <trkpt lat="42.42328" lon="2.73097">
        <ele>1447.3</ele>
        <time>2018-11-26T04:47:54Z</time>
      </trkpt>
      <trkpt lat="42.42331" lon="2.73101">
        <ele>1446.8</ele>
        <time>2018-11-26T04:47:55Z</time>
      </trkpt>
      <trkpt lat="42.42332" lon="2.73101">
        <ele>1446.7</ele>
        <time>2018-11-26T04:47:56Z</time>
      </trkpt>
      <trkpt lat="42.42334" lon="2.73103">
        <ele>1446.5</ele>
        <time>2018-11-26T04:47:57Z</time>
      </trkpt>
      <trkpt lat="42.42334" lon="2.73104">
        <ele>1446.4</ele>
        <time>2018-11-26T04:47:57Z</time>
      </trkpt>
      <trkpt lat="42.42335" lon="2.73105">
        <ele>1446.2</ele>
        <time>2018-11-26T04:47:57Z</time>
      </trkpt>
      <trkpt lat="42.42335" lon="2.73106">
        <ele>1446.1</ele>
        <time>2018-11-26T04:47:58Z</time>
      </trkpt>
      <trkpt lat="42.42336" lon="2.73107">
        <ele>1445.6</ele>
        <time>2018-11-26T04:47:58Z</time>
      </trkpt>
      <trkpt lat="42.42337" lon="2.73109">
        <ele>1445.2</ele>
        <time>2018-11-26T04:47:59Z</time>
      </trkpt>
      <trkpt lat="42.42339" lon="2.73111">
        <ele>1444.7</ele>
        <time>2018-11-26T04:48:00Z</time>
      </trkpt>
      <trkpt lat="42.42339" lon="2.73113">
        <ele>1444.7</ele>
        <time>2018-11-26T04:48:00Z</time>
      </trkpt>
      <trkpt lat="42.4234" lon="2.73114">
        <ele>1444.4</ele>
        <time>2018-11-26T04:48:01Z</time>
      </trkpt>
      <trkpt lat="42.4234" lon="2.73115">
        <ele>1444.2</ele>
        <time>2018-11-26T04:48:01Z</time>
      </trkpt>
      <trkpt lat="42.42341" lon="2.73116">
        <ele>1444</ele>
        <time>2018-11-26T04:48:01Z</time>
      </trkpt>
      <trkpt lat="42.42341" lon="2.73118">
        <ele>1443.7</ele>
        <time>2018-11-26T04:48:02Z</time>
      </trkpt>
      <trkpt lat="42.42342" lon="2.73119">
        <ele>1443.7</ele>
        <time>2018-11-26T04:48:02Z</time>
      </trkpt>
      <trkpt lat="42.42342" lon="2.7312">
        <ele>1443.6</ele>
        <time>2018-11-26T04:48:03Z</time>
      </trkpt>
      <trkpt lat="42.42342" lon="2.73121">
        <ele>1443.6</ele>
        <time>2018-11-26T04:48:03Z</time>
      </trkpt>
      <trkpt lat="42.42342" lon="2.73123">
        <ele>1443.6</ele>
        <time>2018-11-26T04:48:04Z</time>
      </trkpt>
      <trkpt lat="42.42342" lon="2.73124">
        <ele>1443.5</ele>
        <time>2018-11-26T04:48:04Z</time>
      </trkpt>
      <trkpt lat="42.42342" lon="2.73125">
        <ele>1443.5</ele>
        <time>2018-11-26T04:48:04Z</time>
      </trkpt>
      <trkpt lat="42.42342" lon="2.73126">
        <ele>1443.4</ele>
        <time>2018-11-26T04:48:05Z</time>
      </trkpt>
      <trkpt lat="42.42342" lon="2.73127">
        <ele>1443.3</ele>
        <time>2018-11-26T04:48:05Z</time>
      </trkpt>
      <trkpt lat="42.42342" lon="2.73128">
        <ele>1443.2</ele>
        <time>2018-11-26T04:48:05Z</time>
      </trkpt>
      <trkpt lat="42.42342" lon="2.73129">
        <ele>1442.9</ele>
        <time>2018-11-26T04:48:05Z</time>
      </trkpt>
      <trkpt lat="42.42342" lon="2.7313">
        <ele>1442.5</ele>
        <time>2018-11-26T04:48:06Z</time>
      </trkpt>
      <trkpt lat="42.42342" lon="2.73131">
        <ele>1442.1</ele>
        <time>2018-11-26T04:48:06Z</time>
      </trkpt>
      <trkpt lat="42.42342" lon="2.73133">
        <ele>1442.1</ele>
        <time>2018-11-26T04:48:06Z</time>
      </trkpt>
      <trkpt lat="42.42343" lon="2.73134">
        <ele>1441.9</ele>
        <time>2018-11-26T04:48:07Z</time>
      </trkpt>
      <trkpt lat="42.42343" lon="2.73135">
        <ele>1441.9</ele>
        <time>2018-11-26T04:48:07Z</time>
      </trkpt>
      <trkpt lat="42.42343" lon="2.73136">
        <ele>1441.7</ele>
        <time>2018-11-26T04:48:08Z</time>
      </trkpt>
      <trkpt lat="42.42343" lon="2.73137">
        <ele>1441.8</ele>
        <time>2018-11-26T04:48:08Z</time>
      </trkpt>
      <trkpt lat="42.42344" lon="2.73138">
        <ele>1441.7</ele>
        <time>2018-11-26T04:48:08Z</time>
      </trkpt>
      <trkpt lat="42.42344" lon="2.73139">
        <ele>1441.6</ele>
        <time>2018-11-26T04:48:09Z</time>
      </trkpt>
      <trkpt lat="42.42345" lon="2.7314">
        <ele>1441.4</ele>
        <time>2018-11-26T04:48:09Z</time>
      </trkpt>
      <trkpt lat="42.42348" lon="2.7314">
        <ele>1440.8</ele>
        <time>2018-11-26T04:48:10Z</time>
      </trkpt>
      <trkpt lat="42.4235" lon="2.7314">
        <ele>1440.8</ele>
        <time>2018-11-26T04:48:11Z</time>
      </trkpt>
      <trkpt lat="42.4235" lon="2.73141">
        <ele>1440.6</ele>
        <time>2018-11-26T04:48:11Z</time>
      </trkpt>
      <trkpt lat="42.42351" lon="2.73141">
        <ele>1440.3</ele>
        <time>2018-11-26T04:48:12Z</time>
      </trkpt>
      <trkpt lat="42.42352" lon="2.73141">
        <ele>1439.9</ele>
        <time>2018-11-26T04:48:12Z</time>
      </trkpt>
      <trkpt lat="42.42352" lon="2.73142">
        <ele>1440.1</ele>
        <time>2018-11-26T04:48:12Z</time>
      </trkpt>
      <trkpt lat="42.42353" lon="2.73142">
        <ele>1440.4</ele>
        <time>2018-11-26T04:48:13Z</time>
      </trkpt>
      <trkpt lat="42.42354" lon="2.73144">
        <ele>1440.4</ele>
        <time>2018-11-26T04:48:13Z</time>
      </trkpt>
      <trkpt lat="42.42354" lon="2.73145">
        <ele>1440.2</ele>
        <time>2018-11-26T04:48:13Z</time>
      </trkpt>
      <trkpt lat="42.42355" lon="2.73145">
        <ele>1440</ele>
        <time>2018-11-26T04:48:14Z</time>
      </trkpt>
      <trkpt lat="42.42355" lon="2.73146">
        <ele>1439.6</ele>
        <time>2018-11-26T04:48:14Z</time>
      </trkpt>
      <trkpt lat="42.42356" lon="2.73148">
        <ele>1438.8</ele>
        <time>2018-11-26T04:48:15Z</time>
      </trkpt>
      <trkpt lat="42.42357" lon="2.73149">
        <ele>1438.1</ele>
        <time>2018-11-26T04:48:15Z</time>
      </trkpt>
      <trkpt lat="42.42358" lon="2.73151">
        <ele>1437.1</ele>
        <time>2018-11-26T04:48:16Z</time>
      </trkpt>
      <trkpt lat="42.42358" lon="2.73152">
        <ele>1437.1</ele>
        <time>2018-11-26T04:48:16Z</time>
      </trkpt>
      <trkpt lat="42.42359" lon="2.73153">
        <ele>1437.2</ele>
        <time>2018-11-26T04:48:16Z</time>
      </trkpt>
      <trkpt lat="42.42359" lon="2.73154">
        <ele>1437.2</ele>
        <time>2018-11-26T04:48:17Z</time>
      </trkpt>
      <trkpt lat="42.4236" lon="2.73156">
        <ele>1437.8</ele>
        <time>2018-11-26T04:48:18Z</time>
      </trkpt>
      <trkpt lat="42.42361" lon="2.73157">
        <ele>1437.9</ele>
        <time>2018-11-26T04:48:18Z</time>
      </trkpt>
      <trkpt lat="42.42361" lon="2.73157">
        <ele>1438.1</ele>
        <time>2018-11-26T04:48:18Z</time>
      </trkpt>
      <trkpt lat="42.42362" lon="2.73157">
        <ele>1438.2</ele>
        <time>2018-11-26T04:48:18Z</time>
      </trkpt>
      <trkpt lat="42.42362" lon="2.73157">
        <ele>1438.3</ele>
        <time>2018-11-26T04:48:18Z</time>
      </trkpt>
      <trkpt lat="42.42362" lon="2.73157">
        <ele>1438.2</ele>
        <time>2018-11-26T04:48:18Z</time>
      </trkpt>
      <trkpt lat="42.42361" lon="2.73157">
        <ele>1438.1</ele>
        <time>2018-11-26T04:48:18Z</time>
      </trkpt>
      <trkpt lat="42.42361" lon="2.73158">
        <ele>1438</ele>
        <time>2018-11-26T04:48:18Z</time>
      </trkpt>
      <trkpt lat="42.42361" lon="2.73158">
        <ele>1438</ele>
        <time>2018-11-26T04:48:18Z</time>
      </trkpt>
      <trkpt lat="42.42362" lon="2.73158">
        <ele>1438</ele>
        <time>2018-11-26T04:48:19Z</time>
      </trkpt>
      <trkpt lat="42.42362" lon="2.73158">
        <ele>1437.9</ele>
        <time>2018-11-26T04:48:19Z</time>
      </trkpt>
      <trkpt lat="42.42362" lon="2.73158">
        <ele>1437.8</ele>
        <time>2018-11-26T04:48:19Z</time>
      </trkpt>
      <trkpt lat="42.42362" lon="2.73159">
        <ele>1437.6</ele>
        <time>2018-11-26T04:48:19Z</time>
      </trkpt>
      <trkpt lat="42.42362" lon="2.73159">
        <ele>1437.5</ele>
        <time>2018-11-26T04:48:19Z</time>
      </trkpt>
      <trkpt lat="42.42362" lon="2.7316">
        <ele>1437.4</ele>
        <time>2018-11-26T04:48:19Z</time>
      </trkpt>
      <trkpt lat="42.42362" lon="2.73161">
        <ele>1437.2</ele>
        <time>2018-11-26T04:48:19Z</time>
      </trkpt>
      <trkpt lat="42.42362" lon="2.73162">
        <ele>1437.1</ele>
        <time>2018-11-26T04:48:20Z</time>
      </trkpt>
      <trkpt lat="42.42362" lon="2.73163">
        <ele>1437</ele>
        <time>2018-11-26T04:48:20Z</time>
      </trkpt>
      <trkpt lat="42.42362" lon="2.73163">
        <ele>1436.8</ele>
        <time>2018-11-26T04:48:20Z</time>
      </trkpt>
      <trkpt lat="42.42363" lon="2.73164">
        <ele>1436.5</ele>
        <time>2018-11-26T04:48:21Z</time>
      </trkpt>
      <trkpt lat="42.42363" lon="2.73165">
        <ele>1436.5</ele>
        <time>2018-11-26T04:48:21Z</time>
      </trkpt>
      <trkpt lat="42.42363" lon="2.73165">
        <ele>1436.3</ele>
        <time>2018-11-26T04:48:21Z</time>
      </trkpt>
      <trkpt lat="42.42364" lon="2.73166">
        <ele>1436.2</ele>
        <time>2018-11-26T04:48:21Z</time>
      </trkpt>
      <trkpt lat="42.42364" lon="2.73166">
        <ele>1436.1</ele>
        <time>2018-11-26T04:48:21Z</time>
      </trkpt>
      <trkpt lat="42.42364" lon="2.73167">
        <ele>1435.9</ele>
        <time>2018-11-26T04:48:22Z</time>
      </trkpt>
      <trkpt lat="42.42365" lon="2.73167">
        <ele>1435.8</ele>
        <time>2018-11-26T04:48:22Z</time>
      </trkpt>
      <trkpt lat="42.42365" lon="2.73167">
        <ele>1435.6</ele>
        <time>2018-11-26T04:48:22Z</time>
      </trkpt>
      <trkpt lat="42.42366" lon="2.73167">
        <ele>1435.6</ele>
        <time>2018-11-26T04:48:22Z</time>
      </trkpt>
      <trkpt lat="42.42366" lon="2.73168">
        <ele>1435.4</ele>
        <time>2018-11-26T04:48:22Z</time>
      </trkpt>
      <trkpt lat="42.42366" lon="2.73168">
        <ele>1435.4</ele>
        <time>2018-11-26T04:48:23Z</time>
      </trkpt>
      <trkpt lat="42.42366" lon="2.73169">
        <ele>1435.5</ele>
        <time>2018-11-26T04:48:23Z</time>
      </trkpt>
      <trkpt lat="42.42366" lon="2.7317">
        <ele>1435.6</ele>
        <time>2018-11-26T04:48:23Z</time>
      </trkpt>
      <trkpt lat="42.42366" lon="2.7317">
        <ele>1435.8</ele>
        <time>2018-11-26T04:48:23Z</time>
      </trkpt>
      <trkpt lat="42.42366" lon="2.73171">
        <ele>1435.6</ele>
        <time>2018-11-26T04:48:23Z</time>
      </trkpt>
      <trkpt lat="42.42366" lon="2.73172">
        <ele>1435.1</ele>
        <time>2018-11-26T04:48:24Z</time>
      </trkpt>
      <trkpt lat="42.42366" lon="2.73173">
        <ele>1434.8</ele>
        <time>2018-11-26T04:48:24Z</time>
      </trkpt>
      <trkpt lat="42.42366" lon="2.73173">
        <ele>1434.4</ele>
        <time>2018-11-26T04:48:24Z</time>
      </trkpt>
      <trkpt lat="42.42367" lon="2.73174">
        <ele>1434</ele>
        <time>2018-11-26T04:48:24Z</time>
      </trkpt>
      <trkpt lat="42.42367" lon="2.73175">
        <ele>1433.6</ele>
        <time>2018-11-26T04:48:25Z</time>
      </trkpt>
      <trkpt lat="42.42367" lon="2.73175">
        <ele>1432.9</ele>
        <time>2018-11-26T04:48:25Z</time>
      </trkpt>
      <trkpt lat="42.42367" lon="2.73176">
        <ele>1433</ele>
        <time>2018-11-26T04:48:25Z</time>
      </trkpt>
      <trkpt lat="42.42367" lon="2.73177">
        <ele>1432.8</ele>
        <time>2018-11-26T04:48:25Z</time>
      </trkpt>
      <trkpt lat="42.42367" lon="2.73178">
        <ele>1432.7</ele>
        <time>2018-11-26T04:48:26Z</time>
      </trkpt>
      <trkpt lat="42.42367" lon="2.73179">
        <ele>1432.7</ele>
        <time>2018-11-26T04:48:26Z</time>
      </trkpt>
      <trkpt lat="42.42367" lon="2.7318">
        <ele>1432.6</ele>
        <time>2018-11-26T04:48:26Z</time>
      </trkpt>
      <trkpt lat="42.42367" lon="2.73181">
        <ele>1432.5</ele>
        <time>2018-11-26T04:48:27Z</time>
      </trkpt>
      <trkpt lat="42.42367" lon="2.73182">
        <ele>1432.4</ele>
        <time>2018-11-26T04:48:27Z</time>
      </trkpt>
      <trkpt lat="42.42367" lon="2.73183">
        <ele>1432.4</ele>
        <time>2018-11-26T04:48:27Z</time>
      </trkpt>
      <trkpt lat="42.42368" lon="2.73184">
        <ele>1432.3</ele>
        <time>2018-11-26T04:48:28Z</time>
      </trkpt>
      <trkpt lat="42.42368" lon="2.73186">
        <ele>1432.8</ele>
        <time>2018-11-26T04:48:28Z</time>
      </trkpt>
      <trkpt lat="42.42369" lon="2.73187">
        <ele>1433.4</ele>
        <time>2018-11-26T04:48:28Z</time>
      </trkpt>
      <trkpt lat="42.42369" lon="2.73189">
        <ele>1433.1</ele>
        <time>2018-11-26T04:48:29Z</time>
      </trkpt>
      <trkpt lat="42.42369" lon="2.7319">
        <ele>1432.8</ele>
        <time>2018-11-26T04:48:29Z</time>
      </trkpt>
      <trkpt lat="42.42369" lon="2.73191">
        <ele>1432.5</ele>
        <time>2018-11-26T04:48:29Z</time>
      </trkpt>
      <trkpt lat="42.42369" lon="2.73192">
        <ele>1432</ele>
        <time>2018-11-26T04:48:30Z</time>
      </trkpt>
      <trkpt lat="42.4237" lon="2.73193">
        <ele>1432</ele>
        <time>2018-11-26T04:48:30Z</time>
      </trkpt>
      <trkpt lat="42.4237" lon="2.73194">
        <ele>1431.8</ele>
        <time>2018-11-26T04:48:30Z</time>
      </trkpt>
      <trkpt lat="42.42371" lon="2.73195">
        <ele>1431.4</ele>
        <time>2018-11-26T04:48:31Z</time>
      </trkpt>
      <trkpt lat="42.42372" lon="2.73196">
        <ele>1431.2</ele>
        <time>2018-11-26T04:48:31Z</time>
      </trkpt>
      <trkpt lat="42.42372" lon="2.73197">
        <ele>1431</ele>
        <time>2018-11-26T04:48:32Z</time>
      </trkpt>
      <trkpt lat="42.42374" lon="2.73198">
        <ele>1430.6</ele>
        <time>2018-11-26T04:48:32Z</time>
      </trkpt>
      <trkpt lat="42.42375" lon="2.732">
        <ele>1430.1</ele>
        <time>2018-11-26T04:48:33Z</time>
      </trkpt>
      <trkpt lat="42.42376" lon="2.73201">
        <ele>1429.9</ele>
        <time>2018-11-26T04:48:34Z</time>
      </trkpt>
      <trkpt lat="42.42376" lon="2.73201">
        <ele>1429.6</ele>
        <time>2018-11-26T04:48:34Z</time>
      </trkpt>
      <trkpt lat="42.42377" lon="2.73202">
        <ele>1429.7</ele>
        <time>2018-11-26T04:48:34Z</time>
      </trkpt>
      <trkpt lat="42.42377" lon="2.73204">
        <ele>1430.2</ele>
        <time>2018-11-26T04:48:35Z</time>
      </trkpt>
      <trkpt lat="42.42377" lon="2.73205">
        <ele>1430.5</ele>
        <time>2018-11-26T04:48:35Z</time>
      </trkpt>
      <trkpt lat="42.42377" lon="2.73206">
        <ele>1430.2</ele>
        <time>2018-11-26T04:48:35Z</time>
      </trkpt>
      <trkpt lat="42.42377" lon="2.73207">
        <ele>1429.9</ele>
        <time>2018-11-26T04:48:36Z</time>
      </trkpt>
      <trkpt lat="42.42378" lon="2.73208">
        <ele>1429.5</ele>
        <time>2018-11-26T04:48:36Z</time>
      </trkpt>
      <trkpt lat="42.42378" lon="2.73209">
        <ele>1429.5</ele>
        <time>2018-11-26T04:48:36Z</time>
      </trkpt>
      <trkpt lat="42.42378" lon="2.7321">
        <ele>1429.3</ele>
        <time>2018-11-26T04:48:37Z</time>
      </trkpt>
      <trkpt lat="42.42378" lon="2.73211">
        <ele>1429.2</ele>
        <time>2018-11-26T04:48:37Z</time>
      </trkpt>
      <trkpt lat="42.42379" lon="2.73212">
        <ele>1429.2</ele>
        <time>2018-11-26T04:48:37Z</time>
      </trkpt>
      <trkpt lat="42.42379" lon="2.73213">
        <ele>1429.2</ele>
        <time>2018-11-26T04:48:37Z</time>
      </trkpt>
      <trkpt lat="42.42379" lon="2.73213">
        <ele>1429.3</ele>
        <time>2018-11-26T04:48:38Z</time>
      </trkpt>
      <trkpt lat="42.42379" lon="2.73214">
        <ele>1429.4</ele>
        <time>2018-11-26T04:48:38Z</time>
      </trkpt>
      <trkpt lat="42.42379" lon="2.73216">
        <ele>1429.3</ele>
        <time>2018-11-26T04:48:38Z</time>
      </trkpt>
      <trkpt lat="42.42379" lon="2.73216">
        <ele>1429.4</ele>
        <time>2018-11-26T04:48:39Z</time>
      </trkpt>
      <trkpt lat="42.42379" lon="2.73217">
        <ele>1429.3</ele>
        <time>2018-11-26T04:48:39Z</time>
      </trkpt>
      <trkpt lat="42.42379" lon="2.73218">
        <ele>1429</ele>
        <time>2018-11-26T04:48:39Z</time>
      </trkpt>
      <trkpt lat="42.4238" lon="2.73219">
        <ele>1428.7</ele>
        <time>2018-11-26T04:48:39Z</time>
      </trkpt>
      <trkpt lat="42.42381" lon="2.7322">
        <ele>1428.8</ele>
        <time>2018-11-26T04:48:40Z</time>
      </trkpt>
      <trkpt lat="42.42381" lon="2.73221">
        <ele>1429.1</ele>
        <time>2018-11-26T04:48:40Z</time>
      </trkpt>
      <trkpt lat="42.42382" lon="2.73222">
        <ele>1429.3</ele>
        <time>2018-11-26T04:48:40Z</time>
      </trkpt>
      <trkpt lat="42.42382" lon="2.73224">
        <ele>1429.5</ele>
        <time>2018-11-26T04:48:41Z</time>
      </trkpt>
      <trkpt lat="42.42383" lon="2.73225">
        <ele>1429.3</ele>
        <time>2018-11-26T04:48:42Z</time>
      </trkpt>
      <trkpt lat="42.42383" lon="2.73226">
        <ele>1429</ele>
        <time>2018-11-26T04:48:42Z</time>
      </trkpt>
      <trkpt lat="42.42384" lon="2.73228">
        <ele>1429.5</ele>
        <time>2018-11-26T04:48:43Z</time>
      </trkpt>
      <trkpt lat="42.42384" lon="2.73229">
        <ele>1429.8</ele>
        <time>2018-11-26T04:48:43Z</time>
      </trkpt>
      <trkpt lat="42.42385" lon="2.7323">
        <ele>1429.8</ele>
        <time>2018-11-26T04:48:43Z</time>
      </trkpt>
      <trkpt lat="42.42385" lon="2.7323">
        <ele>1429.6</ele>
        <time>2018-11-26T04:48:44Z</time>
      </trkpt>
      <trkpt lat="42.42386" lon="2.73231">
        <ele>1429.4</ele>
        <time>2018-11-26T04:48:44Z</time>
      </trkpt>
      <trkpt lat="42.42386" lon="2.73232">
        <ele>1429.3</ele>
        <time>2018-11-26T04:48:44Z</time>
      </trkpt>
      <trkpt lat="42.42387" lon="2.73232">
        <ele>1429</ele>
        <time>2018-11-26T04:48:44Z</time>
      </trkpt>
      <trkpt lat="42.42387" lon="2.73233">
        <ele>1428.8</ele>
        <time>2018-11-26T04:48:45Z</time>
      </trkpt>
      <trkpt lat="42.42387" lon="2.73234">
        <ele>1428.9</ele>
        <time>2018-11-26T04:48:45Z</time>
      </trkpt>
      <trkpt lat="42.42388" lon="2.73234">
        <ele>1429</ele>
        <time>2018-11-26T04:48:45Z</time>
      </trkpt>
      <trkpt lat="42.42388" lon="2.73235">
        <ele>1429.1</ele>
        <time>2018-11-26T04:48:45Z</time>
      </trkpt>
      <trkpt lat="42.42388" lon="2.73236">
        <ele>1429.2</ele>
        <time>2018-11-26T04:48:46Z</time>
      </trkpt>
      <trkpt lat="42.42389" lon="2.73236">
        <ele>1429.3</ele>
        <time>2018-11-26T04:48:46Z</time>
      </trkpt>
      <trkpt lat="42.42389" lon="2.73236">
        <ele>1429.3</ele>
        <time>2018-11-26T04:48:46Z</time>
      </trkpt>
      <trkpt lat="42.42388" lon="2.73236">
        <ele>1429.3</ele>
        <time>2018-11-26T04:48:46Z</time>
      </trkpt>
      <trkpt lat="42.42388" lon="2.73236">
        <ele>1429.4</ele>
        <time>2018-11-26T04:48:46Z</time>
      </trkpt>
      <trkpt lat="42.42389" lon="2.73236">
        <ele>1429.4</ele>
        <time>2018-11-26T04:48:46Z</time>
      </trkpt>
      <trkpt lat="42.42389" lon="2.73237">
        <ele>1429.3</ele>
        <time>2018-11-26T04:48:46Z</time>
      </trkpt>
      <trkpt lat="42.42389" lon="2.73238">
        <ele>1429.3</ele>
        <time>2018-11-26T04:48:46Z</time>
      </trkpt>
      <trkpt lat="42.4239" lon="2.73239">
        <ele>1429.2</ele>
        <time>2018-11-26T04:48:47Z</time>
      </trkpt>
      <trkpt lat="42.4239" lon="2.7324">
        <ele>1429.2</ele>
        <time>2018-11-26T04:48:47Z</time>
      </trkpt>
      <trkpt lat="42.4239" lon="2.73241">
        <ele>1429.2</ele>
        <time>2018-11-26T04:48:47Z</time>
      </trkpt>
      <trkpt lat="42.42391" lon="2.73244">
        <ele>1429</ele>
        <time>2018-11-26T04:48:48Z</time>
      </trkpt>
      <trkpt lat="42.42392" lon="2.73248">
        <ele>1428.3</ele>
        <time>2018-11-26T04:48:50Z</time>
      </trkpt>
      <trkpt lat="42.42393" lon="2.73251">
        <ele>1427.8</ele>
        <time>2018-11-26T04:48:51Z</time>
      </trkpt>
      <trkpt lat="42.42393" lon="2.73254">
        <ele>1427.7</ele>
        <time>2018-11-26T04:48:51Z</time>
      </trkpt>
      <trkpt lat="42.42394" lon="2.73256">
        <ele>1428.2</ele>
        <time>2018-11-26T04:48:52Z</time>
      </trkpt>
      <trkpt lat="42.42394" lon="2.73257">
        <ele>1428.7</ele>
        <time>2018-11-26T04:48:52Z</time>
      </trkpt>
      <trkpt lat="42.42396" lon="2.7326">
        <ele>1428.2</ele>
        <time>2018-11-26T04:48:53Z</time>
      </trkpt>
      <trkpt lat="42.42398" lon="2.73264">
        <ele>1428.1</ele>
        <time>2018-11-26T04:48:55Z</time>
      </trkpt>
      <trkpt lat="42.42399" lon="2.73266">
        <ele>1428.4</ele>
        <time>2018-11-26T04:48:56Z</time>
      </trkpt>
      <trkpt lat="42.424" lon="2.73269">
        <ele>1428.6</ele>
        <time>2018-11-26T04:48:57Z</time>
      </trkpt>
      <trkpt lat="42.424" lon="2.7327">
        <ele>1428.9</ele>
        <time>2018-11-26T04:48:57Z</time>
      </trkpt>
      <trkpt lat="42.424" lon="2.7327">
        <ele>1428.6</ele>
        <time>2018-11-26T04:48:57Z</time>
      </trkpt>
      <trkpt lat="42.424" lon="2.7327">
        <ele>1428.4</ele>
        <time>2018-11-26T04:48:57Z</time>
      </trkpt>
      <trkpt lat="42.424" lon="2.7327">
        <ele>1428.1</ele>
        <time>2018-11-26T04:48:57Z</time>
      </trkpt>
      <trkpt lat="42.424" lon="2.7327">
        <ele>1428.4</ele>
        <time>2018-11-26T04:48:57Z</time>
      </trkpt>
      <trkpt lat="42.424" lon="2.7327">
        <ele>1429</ele>
        <time>2018-11-26T04:48:57Z</time>
      </trkpt>
      <trkpt lat="42.424" lon="2.7327">
        <ele>1429.5</ele>
        <time>2018-11-26T04:48:57Z</time>
      </trkpt>
      <trkpt lat="42.424" lon="2.7327">
        <ele>1429.4</ele>
        <time>2018-11-26T04:48:57Z</time>
      </trkpt>
      <trkpt lat="42.424" lon="2.7327">
        <ele>1429.4</ele>
        <time>2018-11-26T04:48:57Z</time>
      </trkpt>
      <trkpt lat="42.424" lon="2.7327">
        <ele>1429.2</ele>
        <time>2018-11-26T04:48:57Z</time>
      </trkpt>
      <trkpt lat="42.424" lon="2.73271">
        <ele>1429.3</ele>
        <time>2018-11-26T04:48:57Z</time>
      </trkpt>
      <trkpt lat="42.42401" lon="2.73272">
        <ele>1429.4</ele>
        <time>2018-11-26T04:48:58Z</time>
      </trkpt>
      <trkpt lat="42.42401" lon="2.73273">
        <ele>1429.6</ele>
        <time>2018-11-26T04:48:58Z</time>
      </trkpt>
      <trkpt lat="42.42402" lon="2.73277">
        <ele>1429</ele>
        <time>2018-11-26T04:48:59Z</time>
      </trkpt>
      <trkpt lat="42.42402" lon="2.73278">
        <ele>1428.7</ele>
        <time>2018-11-26T04:49:00Z</time>
      </trkpt>
      <trkpt lat="42.42402" lon="2.7328">
        <ele>1428.5</ele>
        <time>2018-11-26T04:49:00Z</time>
      </trkpt>
      <trkpt lat="42.42402" lon="2.73282">
        <ele>1428.1</ele>
        <time>2018-11-26T04:49:01Z</time>
      </trkpt>
      <trkpt lat="42.42402" lon="2.73284">
        <ele>1428.1</ele>
        <time>2018-11-26T04:49:01Z</time>
      </trkpt>
      <trkpt lat="42.42403" lon="2.73288">
        <ele>1427.9</ele>
        <time>2018-11-26T04:49:03Z</time>
      </trkpt>
      <trkpt lat="42.42403" lon="2.7329">
        <ele>1428</ele>
        <time>2018-11-26T04:49:03Z</time>
      </trkpt>
      <trkpt lat="42.42403" lon="2.73291">
        <ele>1427.9</ele>
        <time>2018-11-26T04:49:04Z</time>
      </trkpt>
      <trkpt lat="42.42403" lon="2.73293">
        <ele>1427.9</ele>
        <time>2018-11-26T04:49:04Z</time>
      </trkpt>
      <trkpt lat="42.42404" lon="2.73296">
        <ele>1428</ele>
        <time>2018-11-26T04:49:05Z</time>
      </trkpt>
      <trkpt lat="42.42404" lon="2.73298">
        <ele>1428.3</ele>
        <time>2018-11-26T04:49:06Z</time>
      </trkpt>
      <trkpt lat="42.42404" lon="2.73305">
        <ele>1429.6</ele>
        <time>2018-11-26T04:49:08Z</time>
      </trkpt>
      <trkpt lat="42.42405" lon="2.73308">
        <ele>1429.5</ele>
        <time>2018-11-26T04:49:09Z</time>
      </trkpt>
      <trkpt lat="42.42405" lon="2.73309">
        <ele>1429.1</ele>
        <time>2018-11-26T04:49:09Z</time>
      </trkpt>
      <trkpt lat="42.42404" lon="2.7331">
        <ele>1429.3</ele>
        <time>2018-11-26T04:49:09Z</time>
      </trkpt>
      <trkpt lat="42.42405" lon="2.73311">
        <ele>1429.5</ele>
        <time>2018-11-26T04:49:09Z</time>
      </trkpt>
      <trkpt lat="42.42405" lon="2.73311">
        <ele>1429.5</ele>
        <time>2018-11-26T04:49:09Z</time>
      </trkpt>
      <trkpt lat="42.42405" lon="2.73311">
        <ele>1429.7</ele>
        <time>2018-11-26T04:49:10Z</time>
      </trkpt>
      <trkpt lat="42.42405" lon="2.73311">
        <ele>1429.7</ele>
        <time>2018-11-26T04:49:10Z</time>
      </trkpt>
      <trkpt lat="42.42405" lon="2.73313">
        <ele>1429.8</ele>
        <time>2018-11-26T04:49:10Z</time>
      </trkpt>
      <trkpt lat="42.42405" lon="2.73314">
        <ele>1429.5</ele>
        <time>2018-11-26T04:49:11Z</time>
      </trkpt>
      <trkpt lat="42.42405" lon="2.73315">
        <ele>1429.1</ele>
        <time>2018-11-26T04:49:11Z</time>
      </trkpt>
      <trkpt lat="42.42406" lon="2.73317">
        <ele>1428.3</ele>
        <time>2018-11-26T04:49:11Z</time>
      </trkpt>
      <trkpt lat="42.42406" lon="2.73318">
        <ele>1428.3</ele>
        <time>2018-11-26T04:49:12Z</time>
      </trkpt>
      <trkpt lat="42.42406" lon="2.73319">
        <ele>1428.4</ele>
        <time>2018-11-26T04:49:12Z</time>
      </trkpt>
      <trkpt lat="42.42406" lon="2.7332">
        <ele>1428.5</ele>
        <time>2018-11-26T04:49:12Z</time>
      </trkpt>
      <trkpt lat="42.42406" lon="2.73319">
        <ele>1428.5</ele>
        <time>2018-11-26T04:49:12Z</time>
      </trkpt>
      <trkpt lat="42.42406" lon="2.7332">
        <ele>1428.6</ele>
        <time>2018-11-26T04:49:12Z</time>
      </trkpt>
      <trkpt lat="42.42406" lon="2.7332">
        <ele>1428.5</ele>
        <time>2018-11-26T04:49:12Z</time>
      </trkpt>
      <trkpt lat="42.42406" lon="2.7332">
        <ele>1428.4</ele>
        <time>2018-11-26T04:49:13Z</time>
      </trkpt>
      <trkpt lat="42.42406" lon="2.7332">
        <ele>1428.6</ele>
        <time>2018-11-26T04:49:13Z</time>
      </trkpt>
      <trkpt lat="42.42406" lon="2.7332">
        <ele>1428.5</ele>
        <time>2018-11-26T04:49:13Z</time>
      </trkpt>
      <trkpt lat="42.42406" lon="2.7332">
        <ele>1428.2</ele>
        <time>2018-11-26T04:49:13Z</time>
      </trkpt>
      <trkpt lat="42.42406" lon="2.7332">
        <ele>1428</ele>
        <time>2018-11-26T04:49:13Z</time>
      </trkpt>
      <trkpt lat="42.42406" lon="2.73321">
        <ele>1427.6</ele>
        <time>2018-11-26T04:49:13Z</time>
      </trkpt>
      <trkpt lat="42.42406" lon="2.73321">
        <ele>1427.7</ele>
        <time>2018-11-26T04:49:13Z</time>
      </trkpt>
      <trkpt lat="42.42406" lon="2.73321">
        <ele>1427.9</ele>
        <time>2018-11-26T04:49:13Z</time>
      </trkpt>
      <trkpt lat="42.42406" lon="2.73321">
        <ele>1428.1</ele>
        <time>2018-11-26T04:49:13Z</time>
      </trkpt>
      <trkpt lat="42.42406" lon="2.73321">
        <ele>1427.9</ele>
        <time>2018-11-26T04:49:13Z</time>
      </trkpt>
      <trkpt lat="42.42406" lon="2.73321">
        <ele>1427.8</ele>
        <time>2018-11-26T04:49:13Z</time>
      </trkpt>
      <trkpt lat="42.42406" lon="2.73321">
        <ele>1427.5</ele>
        <time>2018-11-26T04:49:13Z</time>
      </trkpt>
      <trkpt lat="42.42406" lon="2.73321">
        <ele>1427.8</ele>
        <time>2018-11-26T04:49:13Z</time>
      </trkpt>
      <trkpt lat="42.42406" lon="2.73321">
        <ele>1428.1</ele>
        <time>2018-11-26T04:49:13Z</time>
      </trkpt>
      <trkpt lat="42.42406" lon="2.73321">
        <ele>1428.4</ele>
        <time>2018-11-26T04:49:13Z</time>
      </trkpt>
      <trkpt lat="42.42406" lon="2.73322">
        <ele>1428.2</ele>
        <time>2018-11-26T04:49:13Z</time>
      </trkpt>
      <trkpt lat="42.42406" lon="2.73322">
        <ele>1428.2</ele>
        <time>2018-11-26T04:49:13Z</time>
      </trkpt>
      <trkpt lat="42.42407" lon="2.73322">
        <ele>1428</ele>
        <time>2018-11-26T04:49:13Z</time>
      </trkpt>
      <trkpt lat="42.42407" lon="2.73322">
        <ele>1428.2</ele>
        <time>2018-11-26T04:49:13Z</time>
      </trkpt>
      <trkpt lat="42.42407" lon="2.73322">
        <ele>1428.4</ele>
        <time>2018-11-26T04:49:13Z</time>
      </trkpt>
      <trkpt lat="42.42407" lon="2.73322">
        <ele>1428.8</ele>
        <time>2018-11-26T04:49:13Z</time>
      </trkpt>
      <trkpt lat="42.42407" lon="2.73322">
        <ele>1429.3</ele>
        <time>2018-11-26T04:49:13Z</time>
      </trkpt>
      <trkpt lat="42.42407" lon="2.73322">
        <ele>1429.5</ele>
        <time>2018-11-26T04:49:13Z</time>
      </trkpt>
      <trkpt lat="42.42407" lon="2.73322">
        <ele>1429.7</ele>
        <time>2018-11-26T04:49:13Z</time>
      </trkpt>
      <trkpt lat="42.42407" lon="2.73322">
        <ele>1430</ele>
        <time>2018-11-26T04:49:14Z</time>
      </trkpt>
      <trkpt lat="42.42407" lon="2.73323">
        <ele>1429.6</ele>
        <time>2018-11-26T04:49:14Z</time>
      </trkpt>
      <trkpt lat="42.42407" lon="2.73323">
        <ele>1429.1</ele>
        <time>2018-11-26T04:49:14Z</time>
      </trkpt>
      <trkpt lat="42.42407" lon="2.73323">
        <ele>1428.3</ele>
        <time>2018-11-26T04:49:14Z</time>
      </trkpt>
      <trkpt lat="42.42407" lon="2.73323">
        <ele>1428.3</ele>
        <time>2018-11-26T04:49:14Z</time>
      </trkpt>
      <trkpt lat="42.42407" lon="2.73325">
        <ele>1428.2</ele>
        <time>2018-11-26T04:49:14Z</time>
      </trkpt>
      <trkpt lat="42.42407" lon="2.73326">
        <ele>1428.1</ele>
        <time>2018-11-26T04:49:15Z</time>
      </trkpt>
      <trkpt lat="42.42407" lon="2.73329">
        <ele>1428.3</ele>
        <time>2018-11-26T04:49:15Z</time>
      </trkpt>
      <trkpt lat="42.42407" lon="2.7333">
        <ele>1428.3</ele>
        <time>2018-11-26T04:49:16Z</time>
      </trkpt>
      <trkpt lat="42.42408" lon="2.73332">
        <ele>1428.3</ele>
        <time>2018-11-26T04:49:16Z</time>
      </trkpt>
      <trkpt lat="42.42409" lon="2.73335">
        <ele>1428.2</ele>
        <time>2018-11-26T04:49:17Z</time>
      </trkpt>
      <trkpt lat="42.42409" lon="2.73336">
        <ele>1427.9</ele>
        <time>2018-11-26T04:49:18Z</time>
      </trkpt>
      <trkpt lat="42.42409" lon="2.73337">
        <ele>1428</ele>
        <time>2018-11-26T04:49:18Z</time>
      </trkpt>
      <trkpt lat="42.4241" lon="2.73338">
        <ele>1427.9</ele>
        <time>2018-11-26T04:49:18Z</time>
      </trkpt>
      <trkpt lat="42.4241" lon="2.73346">
        <ele>1427.4</ele>
        <time>2018-11-26T04:49:21Z</time>
      </trkpt>
      <trkpt lat="42.4241" lon="2.73349">
        <ele>1427</ele>
        <time>2018-11-26T04:49:22Z</time>
      </trkpt>
      <trkpt lat="42.4241" lon="2.7335">
        <ele>1426.9</ele>
        <time>2018-11-26T04:49:22Z</time>
      </trkpt>
      <trkpt lat="42.42409" lon="2.73353">
        <ele>1426.9</ele>
        <time>2018-11-26T04:49:23Z</time>
      </trkpt>
      <trkpt lat="42.42409" lon="2.73355">
        <ele>1427</ele>
        <time>2018-11-26T04:49:23Z</time>
      </trkpt>
      <trkpt lat="42.4241" lon="2.73359">
        <ele>1426.8</ele>
        <time>2018-11-26T04:49:25Z</time>
      </trkpt>
      <trkpt lat="42.42411" lon="2.73364">
        <ele>1426.3</ele>
        <time>2018-11-26T04:49:26Z</time>
      </trkpt>
      <trkpt lat="42.42411" lon="2.73371">
        <ele>1426</ele>
        <time>2018-11-26T04:49:28Z</time>
      </trkpt>
      <trkpt lat="42.42412" lon="2.73374">
        <ele>1425.7</ele>
        <time>2018-11-26T04:49:29Z</time>
      </trkpt>
      <trkpt lat="42.42412" lon="2.73375">
        <ele>1425.7</ele>
        <time>2018-11-26T04:49:29Z</time>
      </trkpt>
      <trkpt lat="42.42413" lon="2.73377">
        <ele>1425.4</ele>
        <time>2018-11-26T04:49:30Z</time>
      </trkpt>
      <trkpt lat="42.42413" lon="2.73378">
        <ele>1425.6</ele>
        <time>2018-11-26T04:49:30Z</time>
      </trkpt>
      <trkpt lat="42.42414" lon="2.73379">
        <ele>1425.9</ele>
        <time>2018-11-26T04:49:31Z</time>
      </trkpt>
      <trkpt lat="42.42414" lon="2.73382">
        <ele>1426.2</ele>
        <time>2018-11-26T04:49:32Z</time>
      </trkpt>
      <trkpt lat="42.42414" lon="2.73385">
        <ele>1425.9</ele>
        <time>2018-11-26T04:49:33Z</time>
      </trkpt>
      <trkpt lat="42.42415" lon="2.73388">
        <ele>1425.7</ele>
        <time>2018-11-26T04:49:33Z</time>
      </trkpt>
      <trkpt lat="42.42415" lon="2.73391">
        <ele>1426.2</ele>
        <time>2018-11-26T04:49:34Z</time>
      </trkpt>
      <trkpt lat="42.42416" lon="2.73393">
        <ele>1426.1</ele>
        <time>2018-11-26T04:49:35Z</time>
      </trkpt>
      <trkpt lat="42.42416" lon="2.73394">
        <ele>1425.9</ele>
        <time>2018-11-26T04:49:35Z</time>
      </trkpt>
      <trkpt lat="42.42417" lon="2.73395">
        <ele>1425.6</ele>
        <time>2018-11-26T04:49:36Z</time>
      </trkpt>
      <trkpt lat="42.42417" lon="2.73397">
        <ele>1425.5</ele>
        <time>2018-11-26T04:49:36Z</time>
      </trkpt>
      <trkpt lat="42.42418" lon="2.73399">
        <ele>1425</ele>
        <time>2018-11-26T04:49:37Z</time>
      </trkpt>
      <trkpt lat="42.42418" lon="2.73401">
        <ele>1425</ele>
        <time>2018-11-26T04:49:38Z</time>
      </trkpt>
      <trkpt lat="42.42418" lon="2.73402">
        <ele>1425</ele>
        <time>2018-11-26T04:49:38Z</time>
      </trkpt>
      <trkpt lat="42.42419" lon="2.73403">
        <ele>1425</ele>
        <time>2018-11-26T04:49:38Z</time>
      </trkpt>
      <trkpt lat="42.42419" lon="2.73404">
        <ele>1424.9</ele>
        <time>2018-11-26T04:49:39Z</time>
      </trkpt>
      <trkpt lat="42.42419" lon="2.73406">
        <ele>1425</ele>
        <time>2018-11-26T04:49:39Z</time>
      </trkpt>
      <trkpt lat="42.42419" lon="2.73407">
        <ele>1424.9</ele>
        <time>2018-11-26T04:49:39Z</time>
      </trkpt>
      <trkpt lat="42.42419" lon="2.73409">
        <ele>1424.7</ele>
        <time>2018-11-26T04:49:40Z</time>
      </trkpt>
      <trkpt lat="42.42419" lon="2.7341">
        <ele>1424.5</ele>
        <time>2018-11-26T04:49:40Z</time>
      </trkpt>
      <trkpt lat="42.42419" lon="2.73412">
        <ele>1424.1</ele>
        <time>2018-11-26T04:49:41Z</time>
      </trkpt>
      <trkpt lat="42.42419" lon="2.73413">
        <ele>1424.2</ele>
        <time>2018-11-26T04:49:41Z</time>
      </trkpt>
      <trkpt lat="42.42419" lon="2.73414">
        <ele>1424.6</ele>
        <time>2018-11-26T04:49:41Z</time>
      </trkpt>
      <trkpt lat="42.42419" lon="2.73415">
        <ele>1425</ele>
        <time>2018-11-26T04:49:42Z</time>
      </trkpt>
      <trkpt lat="42.42419" lon="2.73416">
        <ele>1425.2</ele>
        <time>2018-11-26T04:49:42Z</time>
      </trkpt>
      <trkpt lat="42.42419" lon="2.73417">
        <ele>1425.3</ele>
        <time>2018-11-26T04:49:43Z</time>
      </trkpt>
      <trkpt lat="42.42419" lon="2.73419">
        <ele>1425.2</ele>
        <time>2018-11-26T04:49:43Z</time>
      </trkpt>
      <trkpt lat="42.42419" lon="2.7342">
        <ele>1425.3</ele>
        <time>2018-11-26T04:49:43Z</time>
      </trkpt>
      <trkpt lat="42.42419" lon="2.73421">
        <ele>1425.1</ele>
        <time>2018-11-26T04:49:44Z</time>
      </trkpt>
      <trkpt lat="42.42419" lon="2.73423">
        <ele>1425.1</ele>
        <time>2018-11-26T04:49:44Z</time>
      </trkpt>
      <trkpt lat="42.42419" lon="2.73423">
        <ele>1424.9</ele>
        <time>2018-11-26T04:49:44Z</time>
      </trkpt>
      <trkpt lat="42.42419" lon="2.73423">
        <ele>1424.8</ele>
        <time>2018-11-26T04:49:44Z</time>
      </trkpt>
      <trkpt lat="42.42419" lon="2.73424">
        <ele>1424.6</ele>
        <time>2018-11-26T04:49:44Z</time>
      </trkpt>
      <trkpt lat="42.42419" lon="2.73424">
        <ele>1424.3</ele>
        <time>2018-11-26T04:49:45Z</time>
      </trkpt>
      <trkpt lat="42.42419" lon="2.73424">
        <ele>1424.3</ele>
        <time>2018-11-26T04:49:45Z</time>
      </trkpt>
      <trkpt lat="42.42419" lon="2.73425">
        <ele>1424.1</ele>
        <time>2018-11-26T04:49:45Z</time>
      </trkpt>
      <trkpt lat="42.42419" lon="2.73425">
        <ele>1424.1</ele>
        <time>2018-11-26T04:49:45Z</time>
      </trkpt>
      <trkpt lat="42.4242" lon="2.73425">
        <ele>1424.4</ele>
        <time>2018-11-26T04:49:45Z</time>
      </trkpt>
      <trkpt lat="42.4242" lon="2.73426">
        <ele>1424.8</ele>
        <time>2018-11-26T04:49:45Z</time>
      </trkpt>
      <trkpt lat="42.4242" lon="2.73427">
        <ele>1425.5</ele>
        <time>2018-11-26T04:49:45Z</time>
      </trkpt>
      <trkpt lat="42.4242" lon="2.73428">
        <ele>1425.5</ele>
        <time>2018-11-26T04:49:46Z</time>
      </trkpt>
      <trkpt lat="42.42419" lon="2.73429">
        <ele>1425.7</ele>
        <time>2018-11-26T04:49:46Z</time>
      </trkpt>
      <trkpt lat="42.42419" lon="2.7343">
        <ele>1425.9</ele>
        <time>2018-11-26T04:49:46Z</time>
      </trkpt>
      <trkpt lat="42.42419" lon="2.7343">
        <ele>1426</ele>
        <time>2018-11-26T04:49:46Z</time>
      </trkpt>
      <trkpt lat="42.42419" lon="2.7343">
        <ele>1426</ele>
        <time>2018-11-26T04:49:47Z</time>
      </trkpt>
      <trkpt lat="42.42419" lon="2.73431">
        <ele>1425.8</ele>
        <time>2018-11-26T04:49:47Z</time>
      </trkpt>
      <trkpt lat="42.42419" lon="2.73431">
        <ele>1425.6</ele>
        <time>2018-11-26T04:49:47Z</time>
      </trkpt>
      <trkpt lat="42.42419" lon="2.73431">
        <ele>1425.3</ele>
        <time>2018-11-26T04:49:47Z</time>
      </trkpt>
      <trkpt lat="42.42419" lon="2.73431">
        <ele>1425</ele>
        <time>2018-11-26T04:49:47Z</time>
      </trkpt>
      <trkpt lat="42.42419" lon="2.73431">
        <ele>1424.4</ele>
        <time>2018-11-26T04:49:47Z</time>
      </trkpt>
      <trkpt lat="42.42419" lon="2.73432">
        <ele>1424.7</ele>
        <time>2018-11-26T04:49:47Z</time>
      </trkpt>
      <trkpt lat="42.42419" lon="2.73432">
        <ele>1425.1</ele>
        <time>2018-11-26T04:49:47Z</time>
      </trkpt>
      <trkpt lat="42.42419" lon="2.73432">
        <ele>1425.6</ele>
        <time>2018-11-26T04:49:47Z</time>
      </trkpt>
      <trkpt lat="42.42419" lon="2.73432">
        <ele>1425.6</ele>
        <time>2018-11-26T04:49:47Z</time>
      </trkpt>
      <trkpt lat="42.42419" lon="2.73433">
        <ele>1425.8</ele>
        <time>2018-11-26T04:49:47Z</time>
      </trkpt>
      <trkpt lat="42.42419" lon="2.73433">
        <ele>1425.8</ele>
        <time>2018-11-26T04:49:47Z</time>
      </trkpt>
      <trkpt lat="42.42419" lon="2.73433">
        <ele>1425.7</ele>
        <time>2018-11-26T04:49:47Z</time>
      </trkpt>
      <trkpt lat="42.42419" lon="2.73433">
        <ele>1425.6</ele>
        <time>2018-11-26T04:49:47Z</time>
      </trkpt>
      <trkpt lat="42.4242" lon="2.73434">
        <ele>1425.5</ele>
        <time>2018-11-26T04:49:48Z</time>
      </trkpt>
      <trkpt lat="42.4242" lon="2.73435">
        <ele>1425.6</ele>
        <time>2018-11-26T04:49:48Z</time>
      </trkpt>
      <trkpt lat="42.4242" lon="2.73436">
        <ele>1425.6</ele>
        <time>2018-11-26T04:49:48Z</time>
      </trkpt>
      <trkpt lat="42.42421" lon="2.73437">
        <ele>1425.8</ele>
        <time>2018-11-26T04:49:49Z</time>
      </trkpt>
      <trkpt lat="42.42421" lon="2.73438">
        <ele>1425.7</ele>
        <time>2018-11-26T04:49:49Z</time>
      </trkpt>
      <trkpt lat="42.42422" lon="2.7344">
        <ele>1425.5</ele>
        <time>2018-11-26T04:49:50Z</time>
      </trkpt>
      <trkpt lat="42.42422" lon="2.73441">
        <ele>1425.2</ele>
        <time>2018-11-26T04:49:50Z</time>
      </trkpt>
      <trkpt lat="42.42422" lon="2.73442">
        <ele>1425.3</ele>
        <time>2018-11-26T04:49:50Z</time>
      </trkpt>
      <trkpt lat="42.42422" lon="2.73443">
        <ele>1425.6</ele>
        <time>2018-11-26T04:49:50Z</time>
      </trkpt>
      <trkpt lat="42.42422" lon="2.73444">
        <ele>1425.8</ele>
        <time>2018-11-26T04:49:51Z</time>
      </trkpt>
      <trkpt lat="42.42422" lon="2.73445">
        <ele>1425.8</ele>
        <time>2018-11-26T04:49:51Z</time>
      </trkpt>
      <trkpt lat="42.42422" lon="2.73446">
        <ele>1425.6</ele>
        <time>2018-11-26T04:49:51Z</time>
      </trkpt>
      <trkpt lat="42.42422" lon="2.73447">
        <ele>1425.3</ele>
        <time>2018-11-26T04:49:52Z</time>
      </trkpt>
      <trkpt lat="42.42423" lon="2.73448">
        <ele>1425.4</ele>
        <time>2018-11-26T04:49:52Z</time>
      </trkpt>
      <trkpt lat="42.42423" lon="2.73449">
        <ele>1425.5</ele>
        <time>2018-11-26T04:49:53Z</time>
      </trkpt>
      <trkpt lat="42.42423" lon="2.73451">
        <ele>1425.9</ele>
        <time>2018-11-26T04:49:53Z</time>
      </trkpt>
      <trkpt lat="42.42423" lon="2.73452">
        <ele>1425.9</ele>
        <time>2018-11-26T04:49:53Z</time>
      </trkpt>
      <trkpt lat="42.42423" lon="2.73453">
        <ele>1426.2</ele>
        <time>2018-11-26T04:49:54Z</time>
      </trkpt>
      <trkpt lat="42.42423" lon="2.73454">
        <ele>1425.9</ele>
        <time>2018-11-26T04:49:54Z</time>
      </trkpt>
      <trkpt lat="42.42423" lon="2.73455">
        <ele>1425.7</ele>
        <time>2018-11-26T04:49:54Z</time>
      </trkpt>
      <trkpt lat="42.42423" lon="2.73456">
        <ele>1425.3</ele>
        <time>2018-11-26T04:49:54Z</time>
      </trkpt>
      <trkpt lat="42.42423" lon="2.73456">
        <ele>1425</ele>
        <time>2018-11-26T04:49:55Z</time>
      </trkpt>
      <trkpt lat="42.42423" lon="2.73457">
        <ele>1424.9</ele>
        <time>2018-11-26T04:49:55Z</time>
      </trkpt>
      <trkpt lat="42.42423" lon="2.73458">
        <ele>1424.6</ele>
        <time>2018-11-26T04:49:55Z</time>
      </trkpt>
      <trkpt lat="42.42423" lon="2.73459">
        <ele>1424.4</ele>
        <time>2018-11-26T04:49:56Z</time>
      </trkpt>
      <trkpt lat="42.42422" lon="2.7346">
        <ele>1424.3</ele>
        <time>2018-11-26T04:49:56Z</time>
      </trkpt>
      <trkpt lat="42.42422" lon="2.73461">
        <ele>1424.2</ele>
        <time>2018-11-26T04:49:56Z</time>
      </trkpt>
      <trkpt lat="42.42422" lon="2.73461">
        <ele>1423.9</ele>
        <time>2018-11-26T04:49:56Z</time>
      </trkpt>
      <trkpt lat="42.42422" lon="2.73462">
        <ele>1423.6</ele>
        <time>2018-11-26T04:49:57Z</time>
      </trkpt>
      <trkpt lat="42.42422" lon="2.73463">
        <ele>1423.1</ele>
        <time>2018-11-26T04:49:57Z</time>
      </trkpt>
      <trkpt lat="42.42422" lon="2.73464">
        <ele>1422.5</ele>
        <time>2018-11-26T04:49:57Z</time>
      </trkpt>
      <trkpt lat="42.42422" lon="2.73466">
        <ele>1422.5</ele>
        <time>2018-11-26T04:49:58Z</time>
      </trkpt>
      <trkpt lat="42.42422" lon="2.73468">
        <ele>1422.3</ele>
        <time>2018-11-26T04:49:58Z</time>
      </trkpt>
      <trkpt lat="42.42421" lon="2.73471">
        <ele>1421.6</ele>
        <time>2018-11-26T04:49:59Z</time>
      </trkpt>
      <trkpt lat="42.42421" lon="2.73472">
        <ele>1421.1</ele>
        <time>2018-11-26T04:49:59Z</time>
      </trkpt>
      <trkpt lat="42.42421" lon="2.73473">
        <ele>1421.1</ele>
        <time>2018-11-26T04:50:00Z</time>
      </trkpt>
      <trkpt lat="42.42421" lon="2.73474">
        <ele>1421.2</ele>
        <time>2018-11-26T04:50:00Z</time>
      </trkpt>
      <trkpt lat="42.42422" lon="2.73475">
        <ele>1421.3</ele>
        <time>2018-11-26T04:50:00Z</time>
      </trkpt>
      <trkpt lat="42.42422" lon="2.73476">
        <ele>1421.4</ele>
        <time>2018-11-26T04:50:01Z</time>
      </trkpt>
      <trkpt lat="42.42422" lon="2.73477">
        <ele>1421.3</ele>
        <time>2018-11-26T04:50:01Z</time>
      </trkpt>
      <trkpt lat="42.42422" lon="2.73478">
        <ele>1421.2</ele>
        <time>2018-11-26T04:50:01Z</time>
      </trkpt>
      <trkpt lat="42.42424" lon="2.73485">
        <ele>1420.3</ele>
        <time>2018-11-26T04:50:04Z</time>
      </trkpt>
      <trkpt lat="42.42423" lon="2.73487">
        <ele>1420.2</ele>
        <time>2018-11-26T04:50:04Z</time>
      </trkpt>
      <trkpt lat="42.42423" lon="2.73488">
        <ele>1420</ele>
        <time>2018-11-26T04:50:04Z</time>
      </trkpt>
      <trkpt lat="42.42423" lon="2.73489">
        <ele>1419.9</ele>
        <time>2018-11-26T04:50:05Z</time>
      </trkpt>
      <trkpt lat="42.42423" lon="2.7349">
        <ele>1419.8</ele>
        <time>2018-11-26T04:50:05Z</time>
      </trkpt>
      <trkpt lat="42.42423" lon="2.73491">
        <ele>1419.6</ele>
        <time>2018-11-26T04:50:05Z</time>
      </trkpt>
      <trkpt lat="42.42422" lon="2.73492">
        <ele>1419.3</ele>
        <time>2018-11-26T04:50:06Z</time>
      </trkpt>
      <trkpt lat="42.42422" lon="2.73493">
        <ele>1419.3</ele>
        <time>2018-11-26T04:50:06Z</time>
      </trkpt>
      <trkpt lat="42.42422" lon="2.73494">
        <ele>1419.1</ele>
        <time>2018-11-26T04:50:06Z</time>
      </trkpt>
      <trkpt lat="42.42422" lon="2.73495">
        <ele>1418.8</ele>
        <time>2018-11-26T04:50:07Z</time>
      </trkpt>
      <trkpt lat="42.42423" lon="2.73496">
        <ele>1418.5</ele>
        <time>2018-11-26T04:50:07Z</time>
      </trkpt>
      <trkpt lat="42.42422" lon="2.73497">
        <ele>1418.4</ele>
        <time>2018-11-26T04:50:07Z</time>
      </trkpt>
      <trkpt lat="42.42422" lon="2.73498">
        <ele>1418</ele>
        <time>2018-11-26T04:50:08Z</time>
      </trkpt>
      <trkpt lat="42.42422" lon="2.735">
        <ele>1417.7</ele>
        <time>2018-11-26T04:50:08Z</time>
      </trkpt>
      <trkpt lat="42.42422" lon="2.73501">
        <ele>1417.4</ele>
        <time>2018-11-26T04:50:08Z</time>
      </trkpt>
      <trkpt lat="42.42423" lon="2.73502">
        <ele>1417</ele>
        <time>2018-11-26T04:50:09Z</time>
      </trkpt>
      <trkpt lat="42.42423" lon="2.73502">
        <ele>1417.1</ele>
        <time>2018-11-26T04:50:09Z</time>
      </trkpt>
      <trkpt lat="42.42423" lon="2.73503">
        <ele>1417.3</ele>
        <time>2018-11-26T04:50:09Z</time>
      </trkpt>
      <trkpt lat="42.42423" lon="2.73504">
        <ele>1417.5</ele>
        <time>2018-11-26T04:50:09Z</time>
      </trkpt>
      <trkpt lat="42.42424" lon="2.73504">
        <ele>1417.5</ele>
        <time>2018-11-26T04:50:10Z</time>
      </trkpt>
      <trkpt lat="42.42424" lon="2.73505">
        <ele>1417.3</ele>
        <time>2018-11-26T04:50:10Z</time>
      </trkpt>
      <trkpt lat="42.42424" lon="2.73505">
        <ele>1417.3</ele>
        <time>2018-11-26T04:50:10Z</time>
      </trkpt>
      <trkpt lat="42.42425" lon="2.73506">
        <ele>1417.2</ele>
        <time>2018-11-26T04:50:10Z</time>
      </trkpt>
      <trkpt lat="42.42425" lon="2.73506">
        <ele>1417</ele>
        <time>2018-11-26T04:50:10Z</time>
      </trkpt>
      <trkpt lat="42.42425" lon="2.73506">
        <ele>1416.8</ele>
        <time>2018-11-26T04:50:10Z</time>
      </trkpt>
      <trkpt lat="42.42426" lon="2.73507">
        <ele>1416.4</ele>
        <time>2018-11-26T04:50:11Z</time>
      </trkpt>
      <trkpt lat="42.42426" lon="2.73507">
        <ele>1416.1</ele>
        <time>2018-11-26T04:50:11Z</time>
      </trkpt>
      <trkpt lat="42.42426" lon="2.73508">
        <ele>1415.7</ele>
        <time>2018-11-26T04:50:11Z</time>
      </trkpt>
      <trkpt lat="42.42426" lon="2.73509">
        <ele>1415.7</ele>
        <time>2018-11-26T04:50:11Z</time>
      </trkpt>
      <trkpt lat="42.42426" lon="2.73509">
        <ele>1415.7</ele>
        <time>2018-11-26T04:50:11Z</time>
      </trkpt>
      <trkpt lat="42.42427" lon="2.73509">
        <ele>1415.5</ele>
        <time>2018-11-26T04:50:11Z</time>
      </trkpt>
      <trkpt lat="42.42427" lon="2.73511">
        <ele>1414.9</ele>
        <time>2018-11-26T04:50:12Z</time>
      </trkpt>
      <trkpt lat="42.42427" lon="2.73511">
        <ele>1414.8</ele>
        <time>2018-11-26T04:50:12Z</time>
      </trkpt>
      <trkpt lat="42.42427" lon="2.73512">
        <ele>1414.7</ele>
        <time>2018-11-26T04:50:12Z</time>
      </trkpt>
      <trkpt lat="42.42427" lon="2.73514">
        <ele>1414.3</ele>
        <time>2018-11-26T04:50:13Z</time>
      </trkpt>
      <trkpt lat="42.42426" lon="2.73515">
        <ele>1413.8</ele>
        <time>2018-11-26T04:50:13Z</time>
      </trkpt>
      <trkpt lat="42.42426" lon="2.73515">
        <ele>1413.8</ele>
        <time>2018-11-26T04:50:13Z</time>
      </trkpt>
      <trkpt lat="42.42426" lon="2.73516">
        <ele>1413.7</ele>
        <time>2018-11-26T04:50:13Z</time>
      </trkpt>
      <trkpt lat="42.42426" lon="2.73518">
        <ele>1413.1</ele>
        <time>2018-11-26T04:50:14Z</time>
      </trkpt>
      <trkpt lat="42.42426" lon="2.73518">
        <ele>1412.5</ele>
        <time>2018-11-26T04:50:14Z</time>
      </trkpt>
      <trkpt lat="42.42426" lon="2.73519">
        <ele>1412.5</ele>
        <time>2018-11-26T04:50:14Z</time>
      </trkpt>
      <trkpt lat="42.42425" lon="2.73521">
        <ele>1412.5</ele>
        <time>2018-11-26T04:50:15Z</time>
      </trkpt>
      <trkpt lat="42.42425" lon="2.73521">
        <ele>1412.3</ele>
        <time>2018-11-26T04:50:15Z</time>
      </trkpt>
      <trkpt lat="42.42425" lon="2.73522">
        <ele>1412.3</ele>
        <time>2018-11-26T04:50:15Z</time>
      </trkpt>
      <trkpt lat="42.42425" lon="2.73522">
        <ele>1412.2</ele>
        <time>2018-11-26T04:50:15Z</time>
      </trkpt>
      <trkpt lat="42.42425" lon="2.73523">
        <ele>1411.8</ele>
        <time>2018-11-26T04:50:16Z</time>
      </trkpt>
      <trkpt lat="42.42425" lon="2.73523">
        <ele>1411.7</ele>
        <time>2018-11-26T04:50:16Z</time>
      </trkpt>
      <trkpt lat="42.42425" lon="2.73523">
        <ele>1411.6</ele>
        <time>2018-11-26T04:50:16Z</time>
      </trkpt>
      <trkpt lat="42.42424" lon="2.73524">
        <ele>1411.7</ele>
        <time>2018-11-26T04:50:16Z</time>
      </trkpt>
      <trkpt lat="42.42424" lon="2.73525">
        <ele>1411.7</ele>
        <time>2018-11-26T04:50:16Z</time>
      </trkpt>
      <trkpt lat="42.42424" lon="2.73526">
        <ele>1411.7</ele>
        <time>2018-11-26T04:50:17Z</time>
      </trkpt>
      <trkpt lat="42.42424" lon="2.73527">
        <ele>1411.5</ele>
        <time>2018-11-26T04:50:17Z</time>
      </trkpt>
      <trkpt lat="42.42424" lon="2.73527">
        <ele>1411.5</ele>
        <time>2018-11-26T04:50:17Z</time>
      </trkpt>
      <trkpt lat="42.42424" lon="2.73528">
        <ele>1411.4</ele>
        <time>2018-11-26T04:50:17Z</time>
      </trkpt>
      <trkpt lat="42.42424" lon="2.73528">
        <ele>1411.3</ele>
        <time>2018-11-26T04:50:17Z</time>
      </trkpt>
      <trkpt lat="42.42424" lon="2.73528">
        <ele>1411.3</ele>
        <time>2018-11-26T04:50:17Z</time>
      </trkpt>
      <trkpt lat="42.42424" lon="2.73528">
        <ele>1411.2</ele>
        <time>2018-11-26T04:50:17Z</time>
      </trkpt>
      <trkpt lat="42.42424" lon="2.73528">
        <ele>1411.2</ele>
        <time>2018-11-26T04:50:17Z</time>
      </trkpt>
      <trkpt lat="42.42424" lon="2.73528">
        <ele>1411.1</ele>
        <time>2018-11-26T04:50:17Z</time>
      </trkpt>
      <trkpt lat="42.42424" lon="2.73528">
        <ele>1411.2</ele>
        <time>2018-11-26T04:50:18Z</time>
      </trkpt>
      <trkpt lat="42.42425" lon="2.73528">
        <ele>1411.2</ele>
        <time>2018-11-26T04:50:18Z</time>
      </trkpt>
      <trkpt lat="42.42425" lon="2.73527">
        <ele>1411.1</ele>
        <time>2018-11-26T04:50:18Z</time>
      </trkpt>
      <trkpt lat="42.42425" lon="2.73527">
        <ele>1411.2</ele>
        <time>2018-11-26T04:50:18Z</time>
      </trkpt>
      <trkpt lat="42.42425" lon="2.73528">
        <ele>1411.3</ele>
        <time>2018-11-26T04:50:18Z</time>
      </trkpt>
      <trkpt lat="42.42425" lon="2.73528">
        <ele>1411.4</ele>
        <time>2018-11-26T04:50:18Z</time>
      </trkpt>
      <trkpt lat="42.42425" lon="2.73528">
        <ele>1411.6</ele>
        <time>2018-11-26T04:50:18Z</time>
      </trkpt>
      <trkpt lat="42.42425" lon="2.73528">
        <ele>1411.7</ele>
        <time>2018-11-26T04:50:18Z</time>
      </trkpt>
      <trkpt lat="42.42425" lon="2.73528">
        <ele>1411.8</ele>
        <time>2018-11-26T04:50:18Z</time>
      </trkpt>
      <trkpt lat="42.42425" lon="2.73528">
        <ele>1411.7</ele>
        <time>2018-11-26T04:50:18Z</time>
      </trkpt>
      <trkpt lat="42.42425" lon="2.73528">
        <ele>1411.8</ele>
        <time>2018-11-26T04:50:18Z</time>
      </trkpt>
      <trkpt lat="42.42425" lon="2.73528">
        <ele>1411.7</ele>
        <time>2018-11-26T04:50:18Z</time>
      </trkpt>
      <trkpt lat="42.42425" lon="2.73529">
        <ele>1411.5</ele>
        <time>2018-11-26T04:50:18Z</time>
      </trkpt>
      <trkpt lat="42.42425" lon="2.73529">
        <ele>1411.3</ele>
        <time>2018-11-26T04:50:18Z</time>
      </trkpt>
      <trkpt lat="42.42425" lon="2.73529">
        <ele>1411</ele>
        <time>2018-11-26T04:50:18Z</time>
      </trkpt>
      <trkpt lat="42.42425" lon="2.73529">
        <ele>1410.9</ele>
        <time>2018-11-26T04:50:18Z</time>
      </trkpt>
      <trkpt lat="42.42426" lon="2.73529">
        <ele>1410.8</ele>
        <time>2018-11-26T04:50:18Z</time>
      </trkpt>
      <trkpt lat="42.42426" lon="2.73529">
        <ele>1410.6</ele>
        <time>2018-11-26T04:50:18Z</time>
      </trkpt>
      <trkpt lat="42.42426" lon="2.73529">
        <ele>1410.4</ele>
        <time>2018-11-26T04:50:18Z</time>
      </trkpt>
      <trkpt lat="42.42426" lon="2.73529">
        <ele>1410.5</ele>
        <time>2018-11-26T04:50:18Z</time>
      </trkpt>
      <trkpt lat="42.42426" lon="2.73529">
        <ele>1410.5</ele>
        <time>2018-11-26T04:50:18Z</time>
      </trkpt>
      <trkpt lat="42.42426" lon="2.7353">
        <ele>1410.8</ele>
        <time>2018-11-26T04:50:19Z</time>
      </trkpt>
      <trkpt lat="42.42426" lon="2.7353">
        <ele>1410.7</ele>
        <time>2018-11-26T04:50:19Z</time>
      </trkpt>
      <trkpt lat="42.42426" lon="2.7353">
        <ele>1410.3</ele>
        <time>2018-11-26T04:50:19Z</time>
      </trkpt>
      <trkpt lat="42.42426" lon="2.7353">
        <ele>1410.1</ele>
        <time>2018-11-26T04:50:19Z</time>
      </trkpt>
      <trkpt lat="42.42426" lon="2.7353">
        <ele>1410</ele>
        <time>2018-11-26T04:50:19Z</time>
      </trkpt>
      <trkpt lat="42.42426" lon="2.7353">
        <ele>1410</ele>
        <time>2018-11-26T04:50:19Z</time>
      </trkpt>
      <trkpt lat="42.42426" lon="2.7353">
        <ele>1409.8</ele>
        <time>2018-11-26T04:50:19Z</time>
      </trkpt>
      <trkpt lat="42.42426" lon="2.7353">
        <ele>1410</ele>
        <time>2018-11-26T04:50:19Z</time>
      </trkpt>
      <trkpt lat="42.42426" lon="2.7353">
        <ele>1410.4</ele>
        <time>2018-11-26T04:50:19Z</time>
      </trkpt>
      <trkpt lat="42.42426" lon="2.7353">
        <ele>1410.8</ele>
        <time>2018-11-26T04:50:19Z</time>
      </trkpt>
      <trkpt lat="42.42426" lon="2.73531">
        <ele>1411.1</ele>
        <time>2018-11-26T04:50:19Z</time>
      </trkpt>
      <trkpt lat="42.42426" lon="2.73531">
        <ele>1411.3</ele>
        <time>2018-11-26T04:50:19Z</time>
      </trkpt>
      <trkpt lat="42.42426" lon="2.73531">
        <ele>1411.6</ele>
        <time>2018-11-26T04:50:19Z</time>
      </trkpt>
      <trkpt lat="42.42426" lon="2.73531">
        <ele>1412.2</ele>
        <time>2018-11-26T04:50:19Z</time>
      </trkpt>
      <trkpt lat="42.42426" lon="2.73531">
        <ele>1412</ele>
        <time>2018-11-26T04:50:19Z</time>
      </trkpt>
      <trkpt lat="42.42426" lon="2.73531">
        <ele>1411.6</ele>
        <time>2018-11-26T04:50:19Z</time>
      </trkpt>
      <trkpt lat="42.42426" lon="2.73532">
        <ele>1411</ele>
        <time>2018-11-26T04:50:19Z</time>
      </trkpt>
      <trkpt lat="42.42426" lon="2.73532">
        <ele>1410.8</ele>
        <time>2018-11-26T04:50:19Z</time>
      </trkpt>
      <trkpt lat="42.42426" lon="2.73532">
        <ele>1410.6</ele>
        <time>2018-11-26T04:50:20Z</time>
      </trkpt>
      <trkpt lat="42.42427" lon="2.73532">
        <ele>1410.1</ele>
        <time>2018-11-26T04:50:20Z</time>
      </trkpt>
      <trkpt lat="42.42427" lon="2.73532">
        <ele>1410.2</ele>
        <time>2018-11-26T04:50:20Z</time>
      </trkpt>
      <trkpt lat="42.42427" lon="2.73533">
        <ele>1410.2</ele>
        <time>2018-11-26T04:50:20Z</time>
      </trkpt>
      <trkpt lat="42.42427" lon="2.73533">
        <ele>1410</ele>
        <time>2018-11-26T04:50:20Z</time>
      </trkpt>
      <trkpt lat="42.42427" lon="2.73534">
        <ele>1409.9</ele>
        <time>2018-11-26T04:50:20Z</time>
      </trkpt>
      <trkpt lat="42.42427" lon="2.73535">
        <ele>1409.9</ele>
        <time>2018-11-26T04:50:21Z</time>
      </trkpt>
      <trkpt lat="42.42427" lon="2.73536">
        <ele>1409.6</ele>
        <time>2018-11-26T04:50:21Z</time>
      </trkpt>
      <trkpt lat="42.42427" lon="2.73536">
        <ele>1409.7</ele>
        <time>2018-11-26T04:50:21Z</time>
      </trkpt>
      <trkpt lat="42.42427" lon="2.73537">
        <ele>1409.9</ele>
        <time>2018-11-26T04:50:21Z</time>
      </trkpt>
      <trkpt lat="42.42427" lon="2.73538">
        <ele>1409.9</ele>
        <time>2018-11-26T04:50:22Z</time>
      </trkpt>
      <trkpt lat="42.42427" lon="2.73538">
        <ele>1410.1</ele>
        <time>2018-11-26T04:50:22Z</time>
      </trkpt>
      <trkpt lat="42.42427" lon="2.73538">
        <ele>1410.3</ele>
        <time>2018-11-26T04:50:22Z</time>
      </trkpt>
      <trkpt lat="42.42427" lon="2.73538">
        <ele>1410.2</ele>
        <time>2018-11-26T04:50:22Z</time>
      </trkpt>
      <trkpt lat="42.42427" lon="2.73538">
        <ele>1410.3</ele>
        <time>2018-11-26T04:50:22Z</time>
      </trkpt>
      <trkpt lat="42.42427" lon="2.73538">
        <ele>1410.3</ele>
        <time>2018-11-26T04:50:22Z</time>
      </trkpt>
      <trkpt lat="42.42427" lon="2.73539">
        <ele>1410.2</ele>
        <time>2018-11-26T04:50:22Z</time>
      </trkpt>
      <trkpt lat="42.42427" lon="2.7354">
        <ele>1410.1</ele>
        <time>2018-11-26T04:50:22Z</time>
      </trkpt>
      <trkpt lat="42.42427" lon="2.7354">
        <ele>1409.9</ele>
        <time>2018-11-26T04:50:23Z</time>
      </trkpt>
      <trkpt lat="42.42427" lon="2.73541">
        <ele>1409.6</ele>
        <time>2018-11-26T04:50:23Z</time>
      </trkpt>
      <trkpt lat="42.42427" lon="2.73541">
        <ele>1409.2</ele>
        <time>2018-11-26T04:50:23Z</time>
      </trkpt>
      <trkpt lat="42.42427" lon="2.73542">
        <ele>1409</ele>
        <time>2018-11-26T04:50:23Z</time>
      </trkpt>
      <trkpt lat="42.42426" lon="2.73542">
        <ele>1408.7</ele>
        <time>2018-11-26T04:50:23Z</time>
      </trkpt>
      <trkpt lat="42.42426" lon="2.73543">
        <ele>1408.3</ele>
        <time>2018-11-26T04:50:23Z</time>
      </trkpt>
      <trkpt lat="42.42426" lon="2.73543">
        <ele>1408.1</ele>
        <time>2018-11-26T04:50:24Z</time>
      </trkpt>
      <trkpt lat="42.42426" lon="2.73544">
        <ele>1407.9</ele>
        <time>2018-11-26T04:50:24Z</time>
      </trkpt>
      <trkpt lat="42.42426" lon="2.73545">
        <ele>1407.8</ele>
        <time>2018-11-26T04:50:24Z</time>
      </trkpt>
      <trkpt lat="42.42426" lon="2.73545">
        <ele>1407.5</ele>
        <time>2018-11-26T04:50:24Z</time>
      </trkpt>
      <trkpt lat="42.42426" lon="2.73546">
        <ele>1407.4</ele>
        <time>2018-11-26T04:50:25Z</time>
      </trkpt>
      <trkpt lat="42.42426" lon="2.73547">
        <ele>1407</ele>
        <time>2018-11-26T04:50:25Z</time>
      </trkpt>
      <trkpt lat="42.42426" lon="2.73548">
        <ele>1407.1</ele>
        <time>2018-11-26T04:50:25Z</time>
      </trkpt>
      <trkpt lat="42.42426" lon="2.73549">
        <ele>1407.1</ele>
        <time>2018-11-26T04:50:25Z</time>
      </trkpt>
      <trkpt lat="42.42426" lon="2.7355">
        <ele>1407</ele>
        <time>2018-11-26T04:50:26Z</time>
      </trkpt>
      <trkpt lat="42.42426" lon="2.73551">
        <ele>1407</ele>
        <time>2018-11-26T04:50:26Z</time>
      </trkpt>
      <trkpt lat="42.42426" lon="2.73552">
        <ele>1406.8</ele>
        <time>2018-11-26T04:50:26Z</time>
      </trkpt>
      <trkpt lat="42.42426" lon="2.73553">
        <ele>1406.7</ele>
        <time>2018-11-26T04:50:27Z</time>
      </trkpt>
      <trkpt lat="42.42426" lon="2.73554">
        <ele>1406.7</ele>
        <time>2018-11-26T04:50:27Z</time>
      </trkpt>
      <trkpt lat="42.42425" lon="2.73557">
        <ele>1406</ele>
        <time>2018-11-26T04:50:28Z</time>
      </trkpt>
      <trkpt lat="42.42424" lon="2.73558">
        <ele>1405.7</ele>
        <time>2018-11-26T04:50:28Z</time>
      </trkpt>
      <trkpt lat="42.42424" lon="2.73558">
        <ele>1405.3</ele>
        <time>2018-11-26T04:50:28Z</time>
      </trkpt>
      <trkpt lat="42.42424" lon="2.73559">
        <ele>1405.3</ele>
        <time>2018-11-26T04:50:29Z</time>
      </trkpt>
      <trkpt lat="42.42423" lon="2.7356">
        <ele>1405.1</ele>
        <time>2018-11-26T04:50:29Z</time>
      </trkpt>
      <trkpt lat="42.42423" lon="2.73561">
        <ele>1405.1</ele>
        <time>2018-11-26T04:50:29Z</time>
      </trkpt>
      <trkpt lat="42.42423" lon="2.73561">
        <ele>1404.9</ele>
        <time>2018-11-26T04:50:29Z</time>
      </trkpt>
      <trkpt lat="42.42423" lon="2.73562">
        <ele>1404.7</ele>
        <time>2018-11-26T04:50:30Z</time>
      </trkpt>
      <trkpt lat="42.42423" lon="2.73564">
        <ele>1404.6</ele>
        <time>2018-11-26T04:50:30Z</time>
      </trkpt>
      <trkpt lat="42.42422" lon="2.73565">
        <ele>1404.6</ele>
        <time>2018-11-26T04:50:30Z</time>
      </trkpt>
      <trkpt lat="42.42422" lon="2.73565">
        <ele>1404.4</ele>
        <time>2018-11-26T04:50:31Z</time>
      </trkpt>
      <trkpt lat="42.42422" lon="2.73566">
        <ele>1404</ele>
        <time>2018-11-26T04:50:31Z</time>
      </trkpt>
      <trkpt lat="42.42422" lon="2.73567">
        <ele>1403.5</ele>
        <time>2018-11-26T04:50:31Z</time>
      </trkpt>
      <trkpt lat="42.42421" lon="2.73568">
        <ele>1403.4</ele>
        <time>2018-11-26T04:50:31Z</time>
      </trkpt>
      <trkpt lat="42.42421" lon="2.73569">
        <ele>1403.4</ele>
        <time>2018-11-26T04:50:32Z</time>
      </trkpt>
      <trkpt lat="42.42421" lon="2.7357">
        <ele>1403.1</ele>
        <time>2018-11-26T04:50:32Z</time>
      </trkpt>
      <trkpt lat="42.4242" lon="2.73571">
        <ele>1403</ele>
        <time>2018-11-26T04:50:33Z</time>
      </trkpt>
      <trkpt lat="42.4242" lon="2.73572">
        <ele>1402.7</ele>
        <time>2018-11-26T04:50:33Z</time>
      </trkpt>
      <trkpt lat="42.42419" lon="2.73573">
        <ele>1402.3</ele>
        <time>2018-11-26T04:50:33Z</time>
      </trkpt>
      <trkpt lat="42.42419" lon="2.73574">
        <ele>1401.8</ele>
        <time>2018-11-26T04:50:33Z</time>
      </trkpt>
      <trkpt lat="42.42419" lon="2.73574">
        <ele>1401.9</ele>
        <time>2018-11-26T04:50:34Z</time>
      </trkpt>
      <trkpt lat="42.42419" lon="2.73575">
        <ele>1402</ele>
        <time>2018-11-26T04:50:34Z</time>
      </trkpt>
      <trkpt lat="42.42419" lon="2.73576">
        <ele>1402.1</ele>
        <time>2018-11-26T04:50:34Z</time>
      </trkpt>
      <trkpt lat="42.42418" lon="2.73577">
        <ele>1402</ele>
        <time>2018-11-26T04:50:34Z</time>
      </trkpt>
      <trkpt lat="42.42418" lon="2.73577">
        <ele>1402.1</ele>
        <time>2018-11-26T04:50:35Z</time>
      </trkpt>
      <trkpt lat="42.42418" lon="2.73578">
        <ele>1401.8</ele>
        <time>2018-11-26T04:50:35Z</time>
      </trkpt>
      <trkpt lat="42.42418" lon="2.73578">
        <ele>1401.4</ele>
        <time>2018-11-26T04:50:35Z</time>
      </trkpt>
      <trkpt lat="42.42418" lon="2.73581">
        <ele>1400.2</ele>
        <time>2018-11-26T04:50:36Z</time>
      </trkpt>
      <trkpt lat="42.42417" lon="2.73583">
        <ele>1399.8</ele>
        <time>2018-11-26T04:50:36Z</time>
      </trkpt>
      <trkpt lat="42.42416" lon="2.73583">
        <ele>1399.8</ele>
        <time>2018-11-26T04:50:37Z</time>
      </trkpt>
      <trkpt lat="42.42416" lon="2.73584">
        <ele>1399.8</ele>
        <time>2018-11-26T04:50:37Z</time>
      </trkpt>
      <trkpt lat="42.42416" lon="2.73585">
        <ele>1399.8</ele>
        <time>2018-11-26T04:50:37Z</time>
      </trkpt>
      <trkpt lat="42.42416" lon="2.73585">
        <ele>1399.8</ele>
        <time>2018-11-26T04:50:37Z</time>
      </trkpt>
      <trkpt lat="42.42416" lon="2.73586">
        <ele>1399.7</ele>
        <time>2018-11-26T04:50:37Z</time>
      </trkpt>
      <trkpt lat="42.42416" lon="2.73587">
        <ele>1399.5</ele>
        <time>2018-11-26T04:50:38Z</time>
      </trkpt>
      <trkpt lat="42.42416" lon="2.73587">
        <ele>1399.5</ele>
        <time>2018-11-26T04:50:38Z</time>
      </trkpt>
      <trkpt lat="42.42416" lon="2.73589">
        <ele>1399.1</ele>
        <time>2018-11-26T04:50:38Z</time>
      </trkpt>
      <trkpt lat="42.42416" lon="2.7359">
        <ele>1399</ele>
        <time>2018-11-26T04:50:39Z</time>
      </trkpt>
      <trkpt lat="42.42415" lon="2.73591">
        <ele>1398.9</ele>
        <time>2018-11-26T04:50:39Z</time>
      </trkpt>
      <trkpt lat="42.42415" lon="2.73591">
        <ele>1398.7</ele>
        <time>2018-11-26T04:50:39Z</time>
      </trkpt>
      <trkpt lat="42.42415" lon="2.73592">
        <ele>1398.6</ele>
        <time>2018-11-26T04:50:39Z</time>
      </trkpt>
      <trkpt lat="42.42415" lon="2.73593">
        <ele>1398.4</ele>
        <time>2018-11-26T04:50:40Z</time>
      </trkpt>
      <trkpt lat="42.42415" lon="2.73593">
        <ele>1398</ele>
        <time>2018-11-26T04:50:40Z</time>
      </trkpt>
      <trkpt lat="42.42415" lon="2.73594">
        <ele>1397.9</ele>
        <time>2018-11-26T04:50:40Z</time>
      </trkpt>
      <trkpt lat="42.42415" lon="2.73595">
        <ele>1397.9</ele>
        <time>2018-11-26T04:50:40Z</time>
      </trkpt>
      <trkpt lat="42.42415" lon="2.73596">
        <ele>1397.9</ele>
        <time>2018-11-26T04:50:41Z</time>
      </trkpt>
      <trkpt lat="42.42415" lon="2.73596">
        <ele>1398</ele>
        <time>2018-11-26T04:50:41Z</time>
      </trkpt>
      <trkpt lat="42.42414" lon="2.73597">
        <ele>1398</ele>
        <time>2018-11-26T04:50:41Z</time>
      </trkpt>
      <trkpt lat="42.42414" lon="2.73598">
        <ele>1398.1</ele>
        <time>2018-11-26T04:50:41Z</time>
      </trkpt>
      <trkpt lat="42.42414" lon="2.73599">
        <ele>1398.2</ele>
        <time>2018-11-26T04:50:42Z</time>
      </trkpt>
      <trkpt lat="42.42413" lon="2.736">
        <ele>1398</ele>
        <time>2018-11-26T04:50:42Z</time>
      </trkpt>
      <trkpt lat="42.42413" lon="2.73601">
        <ele>1397.7</ele>
        <time>2018-11-26T04:50:42Z</time>
      </trkpt>
      <trkpt lat="42.42412" lon="2.73602">
        <ele>1397</ele>
        <time>2018-11-26T04:50:43Z</time>
      </trkpt>
      <trkpt lat="42.42412" lon="2.73603">
        <ele>1396.8</ele>
        <time>2018-11-26T04:50:43Z</time>
      </trkpt>
      <trkpt lat="42.42411" lon="2.73604">
        <ele>1396.6</ele>
        <time>2018-11-26T04:50:43Z</time>
      </trkpt>
      <trkpt lat="42.42411" lon="2.73604">
        <ele>1396.5</ele>
        <time>2018-11-26T04:50:44Z</time>
      </trkpt>
      <trkpt lat="42.42411" lon="2.73605">
        <ele>1396.4</ele>
        <time>2018-11-26T04:50:44Z</time>
      </trkpt>
      <trkpt lat="42.42411" lon="2.73605">
        <ele>1396.1</ele>
        <time>2018-11-26T04:50:44Z</time>
      </trkpt>
      <trkpt lat="42.42412" lon="2.73606">
        <ele>1395.7</ele>
        <time>2018-11-26T04:50:44Z</time>
      </trkpt>
      <trkpt lat="42.42412" lon="2.73606">
        <ele>1395.2</ele>
        <time>2018-11-26T04:50:44Z</time>
      </trkpt>
      <trkpt lat="42.42412" lon="2.73607">
        <ele>1395.1</ele>
        <time>2018-11-26T04:50:44Z</time>
      </trkpt>
      <trkpt lat="42.42412" lon="2.73607">
        <ele>1395</ele>
        <time>2018-11-26T04:50:45Z</time>
      </trkpt>
      <trkpt lat="42.42411" lon="2.73608">
        <ele>1394.7</ele>
        <time>2018-11-26T04:50:45Z</time>
      </trkpt>
      <trkpt lat="42.42411" lon="2.73609">
        <ele>1394.3</ele>
        <time>2018-11-26T04:50:45Z</time>
      </trkpt>
      <trkpt lat="42.42411" lon="2.73609">
        <ele>1394.3</ele>
        <time>2018-11-26T04:50:45Z</time>
      </trkpt>
      <trkpt lat="42.42411" lon="2.7361">
        <ele>1393.9</ele>
        <time>2018-11-26T04:50:45Z</time>
      </trkpt>
      <trkpt lat="42.42411" lon="2.73611">
        <ele>1393.6</ele>
        <time>2018-11-26T04:50:45Z</time>
      </trkpt>
      <trkpt lat="42.42411" lon="2.73611">
        <ele>1393.5</ele>
        <time>2018-11-26T04:50:46Z</time>
      </trkpt>
      <trkpt lat="42.42411" lon="2.73611">
        <ele>1393.3</ele>
        <time>2018-11-26T04:50:46Z</time>
      </trkpt>
      <trkpt lat="42.42411" lon="2.73613">
        <ele>1393.6</ele>
        <time>2018-11-26T04:50:46Z</time>
      </trkpt>
      <trkpt lat="42.42411" lon="2.73614">
        <ele>1393.7</ele>
        <time>2018-11-26T04:50:46Z</time>
      </trkpt>
      <trkpt lat="42.42411" lon="2.73614">
        <ele>1393.5</ele>
        <time>2018-11-26T04:50:47Z</time>
      </trkpt>
      <trkpt lat="42.42411" lon="2.73615">
        <ele>1393.1</ele>
        <time>2018-11-26T04:50:47Z</time>
      </trkpt>
      <trkpt lat="42.42411" lon="2.73616">
        <ele>1392.6</ele>
        <time>2018-11-26T04:50:47Z</time>
      </trkpt>
      <trkpt lat="42.42412" lon="2.73616">
        <ele>1392.4</ele>
        <time>2018-11-26T04:50:47Z</time>
      </trkpt>
      <trkpt lat="42.42412" lon="2.73617">
        <ele>1392.2</ele>
        <time>2018-11-26T04:50:47Z</time>
      </trkpt>
      <trkpt lat="42.42412" lon="2.73617">
        <ele>1391.7</ele>
        <time>2018-11-26T04:50:48Z</time>
      </trkpt>
      <trkpt lat="42.42412" lon="2.73618">
        <ele>1391.1</ele>
        <time>2018-11-26T04:50:48Z</time>
      </trkpt>
      <trkpt lat="42.42412" lon="2.73619">
        <ele>1391</ele>
        <time>2018-11-26T04:50:48Z</time>
      </trkpt>
      <trkpt lat="42.42411" lon="2.7362">
        <ele>1390.9</ele>
        <time>2018-11-26T04:50:48Z</time>
      </trkpt>
      <trkpt lat="42.42411" lon="2.7362">
        <ele>1390.7</ele>
        <time>2018-11-26T04:50:49Z</time>
      </trkpt>
      <trkpt lat="42.42411" lon="2.73624">
        <ele>1389.8</ele>
        <time>2018-11-26T04:50:50Z</time>
      </trkpt>
      <trkpt lat="42.4241" lon="2.73625">
        <ele>1389.5</ele>
        <time>2018-11-26T04:50:50Z</time>
      </trkpt>
      <trkpt lat="42.4241" lon="2.73625">
        <ele>1389.5</ele>
        <time>2018-11-26T04:50:50Z</time>
      </trkpt>
      <trkpt lat="42.4241" lon="2.73626">
        <ele>1389</ele>
        <time>2018-11-26T04:50:50Z</time>
      </trkpt>
      <trkpt lat="42.42409" lon="2.73627">
        <ele>1388.5</ele>
        <time>2018-11-26T04:50:51Z</time>
      </trkpt>
      <trkpt lat="42.42409" lon="2.73628">
        <ele>1387.8</ele>
        <time>2018-11-26T04:50:51Z</time>
      </trkpt>
      <trkpt lat="42.42409" lon="2.73628">
        <ele>1387.6</ele>
        <time>2018-11-26T04:50:51Z</time>
      </trkpt>
      <trkpt lat="42.42408" lon="2.7363">
        <ele>1387.1</ele>
        <time>2018-11-26T04:50:52Z</time>
      </trkpt>
      <trkpt lat="42.42408" lon="2.73631">
        <ele>1386.9</ele>
        <time>2018-11-26T04:50:52Z</time>
      </trkpt>
      <trkpt lat="42.42407" lon="2.73631">
        <ele>1386.7</ele>
        <time>2018-11-26T04:50:52Z</time>
      </trkpt>
      <trkpt lat="42.42407" lon="2.73632">
        <ele>1386.7</ele>
        <time>2018-11-26T04:50:53Z</time>
      </trkpt>
      <trkpt lat="42.42407" lon="2.73633">
        <ele>1386.4</ele>
        <time>2018-11-26T04:50:53Z</time>
      </trkpt>
      <trkpt lat="42.42407" lon="2.73634">
        <ele>1386.6</ele>
        <time>2018-11-26T04:50:53Z</time>
      </trkpt>
      <trkpt lat="42.42406" lon="2.73635">
        <ele>1386.7</ele>
        <time>2018-11-26T04:50:53Z</time>
      </trkpt>
      <trkpt lat="42.42406" lon="2.73636">
        <ele>1386.4</ele>
        <time>2018-11-26T04:50:54Z</time>
      </trkpt>
      <trkpt lat="42.42406" lon="2.73637">
        <ele>1386.1</ele>
        <time>2018-11-26T04:50:54Z</time>
      </trkpt>
      <trkpt lat="42.42406" lon="2.73638">
        <ele>1385.4</ele>
        <time>2018-11-26T04:50:54Z</time>
      </trkpt>
      <trkpt lat="42.42405" lon="2.73638">
        <ele>1385.2</ele>
        <time>2018-11-26T04:50:54Z</time>
      </trkpt>
      <trkpt lat="42.42405" lon="2.73639">
        <ele>1385</ele>
        <time>2018-11-26T04:50:55Z</time>
      </trkpt>
      <trkpt lat="42.42405" lon="2.73639">
        <ele>1384.7</ele>
        <time>2018-11-26T04:50:55Z</time>
      </trkpt>
      <trkpt lat="42.42404" lon="2.73641">
        <ele>1384.3</ele>
        <time>2018-11-26T04:50:55Z</time>
      </trkpt>
      <trkpt lat="42.42404" lon="2.73641">
        <ele>1383.9</ele>
        <time>2018-11-26T04:50:56Z</time>
      </trkpt>
      <trkpt lat="42.42403" lon="2.73642">
        <ele>1383.4</ele>
        <time>2018-11-26T04:50:56Z</time>
      </trkpt>
      <trkpt lat="42.42402" lon="2.73643">
        <ele>1383.1</ele>
        <time>2018-11-26T04:50:56Z</time>
      </trkpt>
      <trkpt lat="42.42402" lon="2.73644">
        <ele>1382.8</ele>
        <time>2018-11-26T04:50:57Z</time>
      </trkpt>
      <trkpt lat="42.42402" lon="2.73645">
        <ele>1382.5</ele>
        <time>2018-11-26T04:50:57Z</time>
      </trkpt>
      <trkpt lat="42.42401" lon="2.73646">
        <ele>1381.5</ele>
        <time>2018-11-26T04:50:58Z</time>
      </trkpt>
      <trkpt lat="42.424" lon="2.73648">
        <ele>1382.2</ele>
        <time>2018-11-26T04:50:58Z</time>
      </trkpt>
      <trkpt lat="42.42399" lon="2.7365">
        <ele>1381.2</ele>
        <time>2018-11-26T04:50:59Z</time>
      </trkpt>
      <trkpt lat="42.42398" lon="2.73651">
        <ele>1380.9</ele>
        <time>2018-11-26T04:50:59Z</time>
      </trkpt>
      <trkpt lat="42.42398" lon="2.73652">
        <ele>1380.6</ele>
        <time>2018-11-26T04:51:00Z</time>
      </trkpt>
      <trkpt lat="42.42397" lon="2.73653">
        <ele>1380.2</ele>
        <time>2018-11-26T04:51:00Z</time>
      </trkpt>
      <trkpt lat="42.42397" lon="2.73653">
        <ele>1380.1</ele>
        <time>2018-11-26T04:51:00Z</time>
      </trkpt>
      <trkpt lat="42.42396" lon="2.73653">
        <ele>1379.9</ele>
        <time>2018-11-26T04:51:00Z</time>
      </trkpt>
      <trkpt lat="42.42396" lon="2.73654">
        <ele>1379.6</ele>
        <time>2018-11-26T04:51:01Z</time>
      </trkpt>
      <trkpt lat="42.42395" lon="2.73655">
        <ele>1379.2</ele>
        <time>2018-11-26T04:51:01Z</time>
      </trkpt>
      <trkpt lat="42.42395" lon="2.73655">
        <ele>1379</ele>
        <time>2018-11-26T04:51:01Z</time>
      </trkpt>
      <trkpt lat="42.42395" lon="2.73657">
        <ele>1378.8</ele>
        <time>2018-11-26T04:51:01Z</time>
      </trkpt>
      <trkpt lat="42.42395" lon="2.73657">
        <ele>1378.6</ele>
        <time>2018-11-26T04:51:02Z</time>
      </trkpt>
      <trkpt lat="42.42395" lon="2.73658">
        <ele>1378.3</ele>
        <time>2018-11-26T04:51:02Z</time>
      </trkpt>
      <trkpt lat="42.42395" lon="2.73658">
        <ele>1377.7</ele>
        <time>2018-11-26T04:51:02Z</time>
      </trkpt>
      <trkpt lat="42.42395" lon="2.73659">
        <ele>1377.5</ele>
        <time>2018-11-26T04:51:02Z</time>
      </trkpt>
      <trkpt lat="42.42395" lon="2.73659">
        <ele>1377.3</ele>
        <time>2018-11-26T04:51:02Z</time>
      </trkpt>
      <trkpt lat="42.42394" lon="2.7366">
        <ele>1377.2</ele>
        <time>2018-11-26T04:51:03Z</time>
      </trkpt>
      <trkpt lat="42.42394" lon="2.73661">
        <ele>1376.8</ele>
        <time>2018-11-26T04:51:03Z</time>
      </trkpt>
      <trkpt lat="42.42394" lon="2.73661">
        <ele>1376.4</ele>
        <time>2018-11-26T04:51:03Z</time>
      </trkpt>
      <trkpt lat="42.42394" lon="2.73661">
        <ele>1375.8</ele>
        <time>2018-11-26T04:51:03Z</time>
      </trkpt>
      <trkpt lat="42.42394" lon="2.73662">
        <ele>1375.7</ele>
        <time>2018-11-26T04:51:03Z</time>
      </trkpt>
      <trkpt lat="42.42393" lon="2.73662">
        <ele>1375.6</ele>
        <time>2018-11-26T04:51:03Z</time>
      </trkpt>
      <trkpt lat="42.42393" lon="2.73663">
        <ele>1375.4</ele>
        <time>2018-11-26T04:51:03Z</time>
      </trkpt>
      <trkpt lat="42.42393" lon="2.73663">
        <ele>1375.2</ele>
        <time>2018-11-26T04:51:04Z</time>
      </trkpt>
      <trkpt lat="42.42393" lon="2.73664">
        <ele>1375.4</ele>
        <time>2018-11-26T04:51:04Z</time>
      </trkpt>
      <trkpt lat="42.42393" lon="2.73665">
        <ele>1375.8</ele>
        <time>2018-11-26T04:51:04Z</time>
      </trkpt>
      <trkpt lat="42.42393" lon="2.73666">
        <ele>1376.1</ele>
        <time>2018-11-26T04:51:04Z</time>
      </trkpt>
      <trkpt lat="42.42394" lon="2.73667">
        <ele>1375.9</ele>
        <time>2018-11-26T04:51:05Z</time>
      </trkpt>
      <trkpt lat="42.42394" lon="2.73668">
        <ele>1375.8</ele>
        <time>2018-11-26T04:51:05Z</time>
      </trkpt>
      <trkpt lat="42.42394" lon="2.73668">
        <ele>1375.7</ele>
        <time>2018-11-26T04:51:05Z</time>
      </trkpt>
      <trkpt lat="42.42394" lon="2.73668">
        <ele>1375.7</ele>
        <time>2018-11-26T04:51:05Z</time>
      </trkpt>
      <trkpt lat="42.42394" lon="2.73668">
        <ele>1375.7</ele>
        <time>2018-11-26T04:51:05Z</time>
      </trkpt>
      <trkpt lat="42.42394" lon="2.73668">
        <ele>1375.9</ele>
        <time>2018-11-26T04:51:05Z</time>
      </trkpt>
      <trkpt lat="42.42394" lon="2.73668">
        <ele>1376</ele>
        <time>2018-11-26T04:51:05Z</time>
      </trkpt>
      <trkpt lat="42.42394" lon="2.73668">
        <ele>1375.9</ele>
        <time>2018-11-26T04:51:05Z</time>
      </trkpt>
      <trkpt lat="42.42394" lon="2.73668">
        <ele>1375.8</ele>
        <time>2018-11-26T04:51:05Z</time>
      </trkpt>
      <trkpt lat="42.42394" lon="2.73669">
        <ele>1375.7</ele>
        <time>2018-11-26T04:51:05Z</time>
      </trkpt>
      <trkpt lat="42.42394" lon="2.73669">
        <ele>1375.6</ele>
        <time>2018-11-26T04:51:05Z</time>
      </trkpt>
      <trkpt lat="42.42394" lon="2.73669">
        <ele>1375.6</ele>
        <time>2018-11-26T04:51:05Z</time>
      </trkpt>
      <trkpt lat="42.42394" lon="2.73669">
        <ele>1375.6</ele>
        <time>2018-11-26T04:51:06Z</time>
      </trkpt>
      <trkpt lat="42.42395" lon="2.73669">
        <ele>1375.7</ele>
        <time>2018-11-26T04:51:06Z</time>
      </trkpt>
      <trkpt lat="42.42395" lon="2.73669">
        <ele>1375.7</ele>
        <time>2018-11-26T04:51:06Z</time>
      </trkpt>
      <trkpt lat="42.42395" lon="2.73669">
        <ele>1375.6</ele>
        <time>2018-11-26T04:51:06Z</time>
      </trkpt>
      <trkpt lat="42.42395" lon="2.7367">
        <ele>1375.5</ele>
        <time>2018-11-26T04:51:06Z</time>
      </trkpt>
      <trkpt lat="42.42395" lon="2.7367">
        <ele>1375.5</ele>
        <time>2018-11-26T04:51:06Z</time>
      </trkpt>
      <trkpt lat="42.42395" lon="2.73671">
        <ele>1375.6</ele>
        <time>2018-11-26T04:51:06Z</time>
      </trkpt>
      <trkpt lat="42.42395" lon="2.73671">
        <ele>1375.8</ele>
        <time>2018-11-26T04:51:06Z</time>
      </trkpt>
      <trkpt lat="42.42395" lon="2.73671">
        <ele>1375.9</ele>
        <time>2018-11-26T04:51:06Z</time>
      </trkpt>
      <trkpt lat="42.42395" lon="2.73671">
        <ele>1376.1</ele>
        <time>2018-11-26T04:51:06Z</time>
      </trkpt>
      <trkpt lat="42.42395" lon="2.73671">
        <ele>1376.1</ele>
        <time>2018-11-26T04:51:06Z</time>
      </trkpt>
      <trkpt lat="42.42396" lon="2.73671">
        <ele>1376</ele>
        <time>2018-11-26T04:51:07Z</time>
      </trkpt>
      <trkpt lat="42.42396" lon="2.7367">
        <ele>1375.9</ele>
        <time>2018-11-26T04:51:07Z</time>
      </trkpt>
      <trkpt lat="42.42396" lon="2.7367">
        <ele>1375.6</ele>
        <time>2018-11-26T04:51:07Z</time>
      </trkpt>
      <trkpt lat="42.42396" lon="2.7367">
        <ele>1375.2</ele>
        <time>2018-11-26T04:51:07Z</time>
      </trkpt>
      <trkpt lat="42.42397" lon="2.7367">
        <ele>1375.2</ele>
        <time>2018-11-26T04:51:07Z</time>
      </trkpt>
      <trkpt lat="42.42397" lon="2.7367">
        <ele>1375.1</ele>
        <time>2018-11-26T04:51:07Z</time>
      </trkpt>
      <trkpt lat="42.42397" lon="2.7367">
        <ele>1374.9</ele>
        <time>2018-11-26T04:51:07Z</time>
      </trkpt>
      <trkpt lat="42.42397" lon="2.7367">
        <ele>1374.8</ele>
        <time>2018-11-26T04:51:07Z</time>
      </trkpt>
      <trkpt lat="42.42398" lon="2.7367">
        <ele>1374.8</ele>
        <time>2018-11-26T04:51:07Z</time>
      </trkpt>
      <trkpt lat="42.42398" lon="2.7367">
        <ele>1374.8</ele>
        <time>2018-11-26T04:51:07Z</time>
      </trkpt>
      <trkpt lat="42.42398" lon="2.7367">
        <ele>1374.6</ele>
        <time>2018-11-26T04:51:08Z</time>
      </trkpt>
      <trkpt lat="42.42398" lon="2.7367">
        <ele>1374.4</ele>
        <time>2018-11-26T04:51:08Z</time>
      </trkpt>
      <trkpt lat="42.42398" lon="2.7367">
        <ele>1374</ele>
        <time>2018-11-26T04:51:08Z</time>
      </trkpt>
      <trkpt lat="42.42399" lon="2.7367">
        <ele>1374.3</ele>
        <time>2018-11-26T04:51:08Z</time>
      </trkpt>
      <trkpt lat="42.42399" lon="2.7367">
        <ele>1374.5</ele>
        <time>2018-11-26T04:51:08Z</time>
      </trkpt>
      <trkpt lat="42.42399" lon="2.7367">
        <ele>1374.9</ele>
        <time>2018-11-26T04:51:08Z</time>
      </trkpt>
      <trkpt lat="42.424" lon="2.7367">
        <ele>1374.9</ele>
        <time>2018-11-26T04:51:08Z</time>
      </trkpt>
      <trkpt lat="42.424" lon="2.7367">
        <ele>1375</ele>
        <time>2018-11-26T04:51:08Z</time>
      </trkpt>
      <trkpt lat="42.424" lon="2.7367">
        <ele>1375.1</ele>
        <time>2018-11-26T04:51:08Z</time>
      </trkpt>
      <trkpt lat="42.424" lon="2.73671">
        <ele>1375</ele>
        <time>2018-11-26T04:51:09Z</time>
      </trkpt>
      <trkpt lat="42.424" lon="2.73671">
        <ele>1375.1</ele>
        <time>2018-11-26T04:51:09Z</time>
      </trkpt>
      <trkpt lat="42.42401" lon="2.73671">
        <ele>1375.3</ele>
        <time>2018-11-26T04:51:09Z</time>
      </trkpt>
      <trkpt lat="42.42401" lon="2.73671">
        <ele>1375.5</ele>
        <time>2018-11-26T04:51:09Z</time>
      </trkpt>
      <trkpt lat="42.42401" lon="2.73671">
        <ele>1375.4</ele>
        <time>2018-11-26T04:51:09Z</time>
      </trkpt>
      <trkpt lat="42.42402" lon="2.73671">
        <ele>1375.3</ele>
        <time>2018-11-26T04:51:09Z</time>
      </trkpt>
      <trkpt lat="42.42402" lon="2.73671">
        <ele>1375.1</ele>
        <time>2018-11-26T04:51:10Z</time>
      </trkpt>
      <trkpt lat="42.42402" lon="2.7367">
        <ele>1375.2</ele>
        <time>2018-11-26T04:51:10Z</time>
      </trkpt>
      <trkpt lat="42.42403" lon="2.7367">
        <ele>1375.4</ele>
        <time>2018-11-26T04:51:10Z</time>
      </trkpt>
      <trkpt lat="42.42403" lon="2.7367">
        <ele>1375.6</ele>
        <time>2018-11-26T04:51:10Z</time>
      </trkpt>
      <trkpt lat="42.42403" lon="2.7367">
        <ele>1375.3</ele>
        <time>2018-11-26T04:51:10Z</time>
      </trkpt>
      <trkpt lat="42.42404" lon="2.7367">
        <ele>1375.1</ele>
        <time>2018-11-26T04:51:10Z</time>
      </trkpt>
      <trkpt lat="42.42403" lon="2.7367">
        <ele>1374.5</ele>
        <time>2018-11-26T04:51:10Z</time>
      </trkpt>
      <trkpt lat="42.42403" lon="2.7367">
        <ele>1374.1</ele>
        <time>2018-11-26T04:51:11Z</time>
      </trkpt>
      <trkpt lat="42.42403" lon="2.7367">
        <ele>1374.2</ele>
        <time>2018-11-26T04:51:11Z</time>
      </trkpt>
      <trkpt lat="42.42404" lon="2.73671">
        <ele>1374.2</ele>
        <time>2018-11-26T04:51:11Z</time>
      </trkpt>
      <trkpt lat="42.42404" lon="2.73671">
        <ele>1374.1</ele>
        <time>2018-11-26T04:51:11Z</time>
      </trkpt>
      <trkpt lat="42.42405" lon="2.73672">
        <ele>1374.1</ele>
        <time>2018-11-26T04:51:11Z</time>
      </trkpt>
      <trkpt lat="42.42405" lon="2.73674">
        <ele>1373.3</ele>
        <time>2018-11-26T04:51:12Z</time>
      </trkpt>
      <trkpt lat="42.42405" lon="2.73675">
        <ele>1373.1</ele>
        <time>2018-11-26T04:51:12Z</time>
      </trkpt>
      <trkpt lat="42.42406" lon="2.73676">
        <ele>1372.7</ele>
        <time>2018-11-26T04:51:13Z</time>
      </trkpt>
      <trkpt lat="42.42406" lon="2.73677">
        <ele>1372.3</ele>
        <time>2018-11-26T04:51:13Z</time>
      </trkpt>
      <trkpt lat="42.42407" lon="2.73678">
        <ele>1372.5</ele>
        <time>2018-11-26T04:51:13Z</time>
      </trkpt>
      <trkpt lat="42.42407" lon="2.73679">
        <ele>1372.7</ele>
        <time>2018-11-26T04:51:14Z</time>
      </trkpt>
      <trkpt lat="42.42407" lon="2.73679">
        <ele>1372.4</ele>
        <time>2018-11-26T04:51:14Z</time>
      </trkpt>
      <trkpt lat="42.42408" lon="2.7368">
        <ele>1372.1</ele>
        <time>2018-11-26T04:51:14Z</time>
      </trkpt>
      <trkpt lat="42.42408" lon="2.7368">
        <ele>1371.7</ele>
        <time>2018-11-26T04:51:14Z</time>
      </trkpt>
      <trkpt lat="42.42409" lon="2.73681">
        <ele>1371.6</ele>
        <time>2018-11-26T04:51:15Z</time>
      </trkpt>
      <trkpt lat="42.42409" lon="2.73681">
        <ele>1371.4</ele>
        <time>2018-11-26T04:51:15Z</time>
      </trkpt>
      <trkpt lat="42.4241" lon="2.73681">
        <ele>1371.2</ele>
        <time>2018-11-26T04:51:15Z</time>
      </trkpt>
      <trkpt lat="42.4241" lon="2.73682">
        <ele>1370.7</ele>
        <time>2018-11-26T04:51:15Z</time>
      </trkpt>
      <trkpt lat="42.42411" lon="2.73682">
        <ele>1370.5</ele>
        <time>2018-11-26T04:51:15Z</time>
      </trkpt>
      <trkpt lat="42.42411" lon="2.73683">
        <ele>1370.3</ele>
        <time>2018-11-26T04:51:16Z</time>
      </trkpt>
      <trkpt lat="42.42412" lon="2.73684">
        <ele>1369.6</ele>
        <time>2018-11-26T04:51:16Z</time>
      </trkpt>
      <trkpt lat="42.42412" lon="2.73685">
        <ele>1369.2</ele>
        <time>2018-11-26T04:51:16Z</time>
      </trkpt>
      <trkpt lat="42.42412" lon="2.73685">
        <ele>1368.8</ele>
        <time>2018-11-26T04:51:17Z</time>
      </trkpt>
      <trkpt lat="42.42413" lon="2.73686">
        <ele>1368.7</ele>
        <time>2018-11-26T04:51:17Z</time>
      </trkpt>
      <trkpt lat="42.42413" lon="2.73687">
        <ele>1368.3</ele>
        <time>2018-11-26T04:51:17Z</time>
      </trkpt>
      <trkpt lat="42.42413" lon="2.73688">
        <ele>1368.1</ele>
        <time>2018-11-26T04:51:17Z</time>
      </trkpt>
      <trkpt lat="42.42414" lon="2.73688">
        <ele>1368</ele>
        <time>2018-11-26T04:51:18Z</time>
      </trkpt>
      <trkpt lat="42.42414" lon="2.73688">
        <ele>1367.7</ele>
        <time>2018-11-26T04:51:18Z</time>
      </trkpt>
      <trkpt lat="42.42415" lon="2.73689">
        <ele>1367.5</ele>
        <time>2018-11-26T04:51:18Z</time>
      </trkpt>
      <trkpt lat="42.42415" lon="2.73689">
        <ele>1367.7</ele>
        <time>2018-11-26T04:51:18Z</time>
      </trkpt>
      <trkpt lat="42.42415" lon="2.7369">
        <ele>1367.7</ele>
        <time>2018-11-26T04:51:18Z</time>
      </trkpt>
      <trkpt lat="42.42416" lon="2.7369">
        <ele>1368</ele>
        <time>2018-11-26T04:51:19Z</time>
      </trkpt>
      <trkpt lat="42.42416" lon="2.7369">
        <ele>1368.2</ele>
        <time>2018-11-26T04:51:19Z</time>
      </trkpt>
      <trkpt lat="42.42416" lon="2.7369">
        <ele>1368.5</ele>
        <time>2018-11-26T04:51:19Z</time>
      </trkpt>
      <trkpt lat="42.42416" lon="2.7369">
        <ele>1368.7</ele>
        <time>2018-11-26T04:51:19Z</time>
      </trkpt>
      <trkpt lat="42.42416" lon="2.7369">
        <ele>1369.2</ele>
        <time>2018-11-26T04:51:19Z</time>
      </trkpt>
      <trkpt lat="42.42417" lon="2.7369">
        <ele>1369</ele>
        <time>2018-11-26T04:51:19Z</time>
      </trkpt>
      <trkpt lat="42.42417" lon="2.7369">
        <ele>1368.8</ele>
        <time>2018-11-26T04:51:19Z</time>
      </trkpt>
      <trkpt lat="42.42417" lon="2.73691">
        <ele>1368.5</ele>
        <time>2018-11-26T04:51:19Z</time>
      </trkpt>
      <trkpt lat="42.42417" lon="2.73691">
        <ele>1368.6</ele>
        <time>2018-11-26T04:51:19Z</time>
      </trkpt>
      <trkpt lat="42.42417" lon="2.73691">
        <ele>1368.6</ele>
        <time>2018-11-26T04:51:19Z</time>
      </trkpt>
      <trkpt lat="42.42417" lon="2.73691">
        <ele>1368.7</ele>
        <time>2018-11-26T04:51:19Z</time>
      </trkpt>
      <trkpt lat="42.42418" lon="2.73691">
        <ele>1368.4</ele>
        <time>2018-11-26T04:51:19Z</time>
      </trkpt>
      <trkpt lat="42.42418" lon="2.73691">
        <ele>1368</ele>
        <time>2018-11-26T04:51:20Z</time>
      </trkpt>
      <trkpt lat="42.42418" lon="2.73692">
        <ele>1367.6</ele>
        <time>2018-11-26T04:51:20Z</time>
      </trkpt>
      <trkpt lat="42.42419" lon="2.73693">
        <ele>1367.3</ele>
        <time>2018-11-26T04:51:20Z</time>
      </trkpt>
      <trkpt lat="42.42419" lon="2.73693">
        <ele>1367.2</ele>
        <time>2018-11-26T04:51:20Z</time>
      </trkpt>
      <trkpt lat="42.4242" lon="2.73693">
        <ele>1366.7</ele>
        <time>2018-11-26T04:51:21Z</time>
      </trkpt>
      <trkpt lat="42.4242" lon="2.73693">
        <ele>1366.3</ele>
        <time>2018-11-26T04:51:21Z</time>
      </trkpt>
      <trkpt lat="42.42421" lon="2.73693">
        <ele>1366.1</ele>
        <time>2018-11-26T04:51:21Z</time>
      </trkpt>
      <trkpt lat="42.42421" lon="2.73694">
        <ele>1365.7</ele>
        <time>2018-11-26T04:51:21Z</time>
      </trkpt>
      <trkpt lat="42.42422" lon="2.73694">
        <ele>1365.3</ele>
        <time>2018-11-26T04:51:21Z</time>
      </trkpt>
      <trkpt lat="42.42422" lon="2.73695">
        <ele>1364.8</ele>
        <time>2018-11-26T04:51:22Z</time>
      </trkpt>
      <trkpt lat="42.42423" lon="2.73695">
        <ele>1364.4</ele>
        <time>2018-11-26T04:51:22Z</time>
      </trkpt>
      <trkpt lat="42.42423" lon="2.73696">
        <ele>1363.8</ele>
        <time>2018-11-26T04:51:22Z</time>
      </trkpt>
      <trkpt lat="42.42424" lon="2.73697">
        <ele>1363.5</ele>
        <time>2018-11-26T04:51:23Z</time>
      </trkpt>
      <trkpt lat="42.42424" lon="2.73697">
        <ele>1363.3</ele>
        <time>2018-11-26T04:51:23Z</time>
      </trkpt>
      <trkpt lat="42.42425" lon="2.73698">
        <ele>1363</ele>
        <time>2018-11-26T04:51:23Z</time>
      </trkpt>
      <trkpt lat="42.42425" lon="2.73698">
        <ele>1362.7</ele>
        <time>2018-11-26T04:51:23Z</time>
      </trkpt>
      <trkpt lat="42.42426" lon="2.73699">
        <ele>1362.5</ele>
        <time>2018-11-26T04:51:24Z</time>
      </trkpt>
      <trkpt lat="42.42426" lon="2.737">
        <ele>1362.5</ele>
        <time>2018-11-26T04:51:24Z</time>
      </trkpt>
      <trkpt lat="42.42426" lon="2.73701">
        <ele>1362.3</ele>
        <time>2018-11-26T04:51:24Z</time>
      </trkpt>
      <trkpt lat="42.42427" lon="2.73702">
        <ele>1362.1</ele>
        <time>2018-11-26T04:51:25Z</time>
      </trkpt>
      <trkpt lat="42.42427" lon="2.73702">
        <ele>1361.8</ele>
        <time>2018-11-26T04:51:25Z</time>
      </trkpt>
      <trkpt lat="42.42428" lon="2.73702">
        <ele>1361.7</ele>
        <time>2018-11-26T04:51:25Z</time>
      </trkpt>
      <trkpt lat="42.42429" lon="2.73704">
        <ele>1361</ele>
        <time>2018-11-26T04:51:26Z</time>
      </trkpt>
      <trkpt lat="42.42429" lon="2.73704">
        <ele>1360.7</ele>
        <time>2018-11-26T04:51:26Z</time>
      </trkpt>
      <trkpt lat="42.42429" lon="2.73705">
        <ele>1360.4</ele>
        <time>2018-11-26T04:51:26Z</time>
      </trkpt>
      <trkpt lat="42.4243" lon="2.73706">
        <ele>1360</ele>
        <time>2018-11-26T04:51:26Z</time>
      </trkpt>
      <trkpt lat="42.4243" lon="2.73706">
        <ele>1359.6</ele>
        <time>2018-11-26T04:51:26Z</time>
      </trkpt>
      <trkpt lat="42.4243" lon="2.73706">
        <ele>1358.9</ele>
        <time>2018-11-26T04:51:27Z</time>
      </trkpt>
      <trkpt lat="42.4243" lon="2.73707">
        <ele>1358.7</ele>
        <time>2018-11-26T04:51:27Z</time>
      </trkpt>
      <trkpt lat="42.4243" lon="2.73707">
        <ele>1358.6</ele>
        <time>2018-11-26T04:51:27Z</time>
      </trkpt>
      <trkpt lat="42.4243" lon="2.73708">
        <ele>1358.4</ele>
        <time>2018-11-26T04:51:27Z</time>
      </trkpt>
      <trkpt lat="42.4243" lon="2.73709">
        <ele>1358.3</ele>
        <time>2018-11-26T04:51:27Z</time>
      </trkpt>
      <trkpt lat="42.4243" lon="2.73711">
        <ele>1358.2</ele>
        <time>2018-11-26T04:51:28Z</time>
      </trkpt>
      <trkpt lat="42.42431" lon="2.73712">
        <ele>1357.8</ele>
        <time>2018-11-26T04:51:28Z</time>
      </trkpt>
      <trkpt lat="42.42431" lon="2.73713">
        <ele>1356.6</ele>
        <time>2018-11-26T04:51:29Z</time>
      </trkpt>
      <trkpt lat="42.42431" lon="2.73714">
        <ele>1357</ele>
        <time>2018-11-26T04:51:29Z</time>
      </trkpt>
      <trkpt lat="42.42432" lon="2.73715">
        <ele>1356.6</ele>
        <time>2018-11-26T04:51:29Z</time>
      </trkpt>
      <trkpt lat="42.42432" lon="2.73716">
        <ele>1356.4</ele>
        <time>2018-11-26T04:51:30Z</time>
      </trkpt>
      <trkpt lat="42.42432" lon="2.73716">
        <ele>1356.2</ele>
        <time>2018-11-26T04:51:30Z</time>
      </trkpt>
      <trkpt lat="42.42431" lon="2.73717">
        <ele>1356.1</ele>
        <time>2018-11-26T04:51:30Z</time>
      </trkpt>
      <trkpt lat="42.42431" lon="2.73718">
        <ele>1355.9</ele>
        <time>2018-11-26T04:51:30Z</time>
      </trkpt>
      <trkpt lat="42.4243" lon="2.73719">
        <ele>1355.9</ele>
        <time>2018-11-26T04:51:31Z</time>
      </trkpt>
      <trkpt lat="42.4243" lon="2.7372">
        <ele>1355.9</ele>
        <time>2018-11-26T04:51:31Z</time>
      </trkpt>
      <trkpt lat="42.42429" lon="2.73722">
        <ele>1355.8</ele>
        <time>2018-11-26T04:51:32Z</time>
      </trkpt>
      <trkpt lat="42.42429" lon="2.73722">
        <ele>1355.4</ele>
        <time>2018-11-26T04:51:32Z</time>
      </trkpt>
      <trkpt lat="42.42429" lon="2.73723">
        <ele>1354.8</ele>
        <time>2018-11-26T04:51:32Z</time>
      </trkpt>
      <trkpt lat="42.42428" lon="2.73724">
        <ele>1354.2</ele>
        <time>2018-11-26T04:51:33Z</time>
      </trkpt>
      <trkpt lat="42.42428" lon="2.73725">
        <ele>1354.1</ele>
        <time>2018-11-26T04:51:33Z</time>
      </trkpt>
      <trkpt lat="42.42427" lon="2.73726">
        <ele>1353.8</ele>
        <time>2018-11-26T04:51:33Z</time>
      </trkpt>
      <trkpt lat="42.42427" lon="2.73726">
        <ele>1353.6</ele>
        <time>2018-11-26T04:51:33Z</time>
      </trkpt>
      <trkpt lat="42.42425" lon="2.73728">
        <ele>1353.5</ele>
        <time>2018-11-26T04:51:34Z</time>
      </trkpt>
      <trkpt lat="42.42425" lon="2.73728">
        <ele>1353.4</ele>
        <time>2018-11-26T04:51:34Z</time>
      </trkpt>
      <trkpt lat="42.42425" lon="2.73729">
        <ele>1353.4</ele>
        <time>2018-11-26T04:51:35Z</time>
      </trkpt>
      <trkpt lat="42.42424" lon="2.7373">
        <ele>1353.1</ele>
        <time>2018-11-26T04:51:35Z</time>
      </trkpt>
      <trkpt lat="42.42423" lon="2.7373">
        <ele>1352.8</ele>
        <time>2018-11-26T04:51:35Z</time>
      </trkpt>
      <trkpt lat="42.42423" lon="2.73731">
        <ele>1352.8</ele>
        <time>2018-11-26T04:51:35Z</time>
      </trkpt>
      <trkpt lat="42.42422" lon="2.73731">
        <ele>1352.7</ele>
        <time>2018-11-26T04:51:36Z</time>
      </trkpt>
      <trkpt lat="42.42422" lon="2.73732">
        <ele>1352.6</ele>
        <time>2018-11-26T04:51:36Z</time>
      </trkpt>
      <trkpt lat="42.42421" lon="2.73733">
        <ele>1352.7</ele>
        <time>2018-11-26T04:51:36Z</time>
      </trkpt>
      <trkpt lat="42.4242" lon="2.73734">
        <ele>1352.5</ele>
        <time>2018-11-26T04:51:37Z</time>
      </trkpt>
      <trkpt lat="42.4242" lon="2.73734">
        <ele>1352.3</ele>
        <time>2018-11-26T04:51:37Z</time>
      </trkpt>
      <trkpt lat="42.4242" lon="2.73735">
        <ele>1352.1</ele>
        <time>2018-11-26T04:51:37Z</time>
      </trkpt>
      <trkpt lat="42.42419" lon="2.73736">
        <ele>1352</ele>
        <time>2018-11-26T04:51:38Z</time>
      </trkpt>
      <trkpt lat="42.42419" lon="2.73737">
        <ele>1351.9</ele>
        <time>2018-11-26T04:51:38Z</time>
      </trkpt>
      <trkpt lat="42.42418" lon="2.73738">
        <ele>1351.6</ele>
        <time>2018-11-26T04:51:38Z</time>
      </trkpt>
      <trkpt lat="42.42418" lon="2.73738">
        <ele>1351.5</ele>
        <time>2018-11-26T04:51:39Z</time>
      </trkpt>
      <trkpt lat="42.42417" lon="2.73739">
        <ele>1351.5</ele>
        <time>2018-11-26T04:51:39Z</time>
      </trkpt>
      <trkpt lat="42.42417" lon="2.7374">
        <ele>1351.3</ele>
        <time>2018-11-26T04:51:39Z</time>
      </trkpt>
      <trkpt lat="42.42417" lon="2.73741">
        <ele>1351</ele>
        <time>2018-11-26T04:51:39Z</time>
      </trkpt>
      <trkpt lat="42.42416" lon="2.73742">
        <ele>1350.4</ele>
        <time>2018-11-26T04:51:40Z</time>
      </trkpt>
      <trkpt lat="42.42415" lon="2.73743">
        <ele>1349.8</ele>
        <time>2018-11-26T04:51:40Z</time>
      </trkpt>
      <trkpt lat="42.42415" lon="2.73743">
        <ele>1349.8</ele>
        <time>2018-11-26T04:51:40Z</time>
      </trkpt>
      <trkpt lat="42.42415" lon="2.73744">
        <ele>1349.9</ele>
        <time>2018-11-26T04:51:41Z</time>
      </trkpt>
      <trkpt lat="42.42414" lon="2.73744">
        <ele>1349.9</ele>
        <time>2018-11-26T04:51:41Z</time>
      </trkpt>
      <trkpt lat="42.42414" lon="2.73744">
        <ele>1349.9</ele>
        <time>2018-11-26T04:51:41Z</time>
      </trkpt>
      <trkpt lat="42.42414" lon="2.73745">
        <ele>1349.5</ele>
        <time>2018-11-26T04:51:41Z</time>
      </trkpt>
      <trkpt lat="42.42413" lon="2.73745">
        <ele>1349</ele>
        <time>2018-11-26T04:51:41Z</time>
      </trkpt>
      <trkpt lat="42.42413" lon="2.73746">
        <ele>1348.4</ele>
        <time>2018-11-26T04:51:42Z</time>
      </trkpt>
      <trkpt lat="42.42412" lon="2.73747">
        <ele>1348.1</ele>
        <time>2018-11-26T04:51:42Z</time>
      </trkpt>
      <trkpt lat="42.42411" lon="2.73747">
        <ele>1347.7</ele>
        <time>2018-11-26T04:51:42Z</time>
      </trkpt>
      <trkpt lat="42.4241" lon="2.73748">
        <ele>1347.2</ele>
        <time>2018-11-26T04:51:43Z</time>
      </trkpt>
      <trkpt lat="42.4241" lon="2.73748">
        <ele>1347.6</ele>
        <time>2018-11-26T04:51:43Z</time>
      </trkpt>
      <trkpt lat="42.42409" lon="2.7375">
        <ele>1347.5</ele>
        <time>2018-11-26T04:51:44Z</time>
      </trkpt>
      <trkpt lat="42.42408" lon="2.7375">
        <ele>1347.2</ele>
        <time>2018-11-26T04:51:44Z</time>
      </trkpt>
      <trkpt lat="42.42408" lon="2.73751">
        <ele>1345.9</ele>
        <time>2018-11-26T04:51:44Z</time>
      </trkpt>
      <trkpt lat="42.42407" lon="2.73752">
        <ele>1345.4</ele>
        <time>2018-11-26T04:51:44Z</time>
      </trkpt>
      <trkpt lat="42.42407" lon="2.73752">
        <ele>1345.3</ele>
        <time>2018-11-26T04:51:45Z</time>
      </trkpt>
      <trkpt lat="42.42407" lon="2.73752">
        <ele>1345.1</ele>
        <time>2018-11-26T04:51:45Z</time>
      </trkpt>
      <trkpt lat="42.42406" lon="2.73753">
        <ele>1344.7</ele>
        <time>2018-11-26T04:51:45Z</time>
      </trkpt>
      <trkpt lat="42.42405" lon="2.73753">
        <ele>1344.8</ele>
        <time>2018-11-26T04:51:45Z</time>
      </trkpt>
      <trkpt lat="42.42405" lon="2.73754">
        <ele>1345.1</ele>
        <time>2018-11-26T04:51:46Z</time>
      </trkpt>
      <trkpt lat="42.42405" lon="2.73755">
        <ele>1345.4</ele>
        <time>2018-11-26T04:51:46Z</time>
      </trkpt>
      <trkpt lat="42.42404" lon="2.73755">
        <ele>1345.2</ele>
        <time>2018-11-26T04:51:46Z</time>
      </trkpt>
      <trkpt lat="42.42404" lon="2.73756">
        <ele>1345</ele>
        <time>2018-11-26T04:51:46Z</time>
      </trkpt>
      <trkpt lat="42.42404" lon="2.73756">
        <ele>1344.7</ele>
        <time>2018-11-26T04:51:46Z</time>
      </trkpt>
      <trkpt lat="42.42404" lon="2.73757">
        <ele>1344.5</ele>
        <time>2018-11-26T04:51:47Z</time>
      </trkpt>
      <trkpt lat="42.42404" lon="2.73758">
        <ele>1344.3</ele>
        <time>2018-11-26T04:51:47Z</time>
      </trkpt>
      <trkpt lat="42.42403" lon="2.73758">
        <ele>1344.2</ele>
        <time>2018-11-26T04:51:47Z</time>
      </trkpt>
      <trkpt lat="42.42403" lon="2.73759">
        <ele>1344</ele>
        <time>2018-11-26T04:51:48Z</time>
      </trkpt>
      <trkpt lat="42.42402" lon="2.7376">
        <ele>1343.8</ele>
        <time>2018-11-26T04:51:48Z</time>
      </trkpt>
      <trkpt lat="42.42402" lon="2.73761">
        <ele>1343.5</ele>
        <time>2018-11-26T04:51:48Z</time>
      </trkpt>
      <trkpt lat="42.42402" lon="2.73762">
        <ele>1343.4</ele>
        <time>2018-11-26T04:51:48Z</time>
      </trkpt>
      <trkpt lat="42.42402" lon="2.73763">
        <ele>1343</ele>
        <time>2018-11-26T04:51:49Z</time>
      </trkpt>
      <trkpt lat="42.42401" lon="2.73763">
        <ele>1342.6</ele>
        <time>2018-11-26T04:51:49Z</time>
      </trkpt>
      <trkpt lat="42.424" lon="2.73764">
        <ele>1341.8</ele>
        <time>2018-11-26T04:51:49Z</time>
      </trkpt>
      <trkpt lat="42.424" lon="2.73765">
        <ele>1341.1</ele>
        <time>2018-11-26T04:51:50Z</time>
      </trkpt>
      <trkpt lat="42.424" lon="2.73765">
        <ele>1341.1</ele>
        <time>2018-11-26T04:51:50Z</time>
      </trkpt>
      <trkpt lat="42.42399" lon="2.73766">
        <ele>1340.8</ele>
        <time>2018-11-26T04:51:50Z</time>
      </trkpt>
      <trkpt lat="42.42399" lon="2.73766">
        <ele>1340.8</ele>
        <time>2018-11-26T04:51:50Z</time>
      </trkpt>
      <trkpt lat="42.42398" lon="2.73767">
        <ele>1340.5</ele>
        <time>2018-11-26T04:51:51Z</time>
      </trkpt>
      <trkpt lat="42.42397" lon="2.73768">
        <ele>1340.4</ele>
        <time>2018-11-26T04:51:51Z</time>
      </trkpt>
      <trkpt lat="42.42397" lon="2.73768">
        <ele>1340.2</ele>
        <time>2018-11-26T04:51:51Z</time>
      </trkpt>
      <trkpt lat="42.42396" lon="2.73769">
        <ele>1340</ele>
        <time>2018-11-26T04:51:52Z</time>
      </trkpt>
      <trkpt lat="42.42396" lon="2.7377">
        <ele>1339.6</ele>
        <time>2018-11-26T04:51:52Z</time>
      </trkpt>
      <trkpt lat="42.42395" lon="2.7377">
        <ele>1339.2</ele>
        <time>2018-11-26T04:51:52Z</time>
      </trkpt>
      <trkpt lat="42.42394" lon="2.73771">
        <ele>1338.9</ele>
        <time>2018-11-26T04:51:53Z</time>
      </trkpt>
      <trkpt lat="42.42394" lon="2.73772">
        <ele>1338.7</ele>
        <time>2018-11-26T04:51:53Z</time>
      </trkpt>
      <trkpt lat="42.42393" lon="2.73773">
        <ele>1338.5</ele>
        <time>2018-11-26T04:51:53Z</time>
      </trkpt>
      <trkpt lat="42.42393" lon="2.73774">
        <ele>1338.2</ele>
        <time>2018-11-26T04:51:54Z</time>
      </trkpt>
      <trkpt lat="42.42392" lon="2.73775">
        <ele>1338</ele>
        <time>2018-11-26T04:51:54Z</time>
      </trkpt>
      <trkpt lat="42.42391" lon="2.73776">
        <ele>1337.8</ele>
        <time>2018-11-26T04:51:54Z</time>
      </trkpt>
      <trkpt lat="42.42391" lon="2.73777">
        <ele>1337.6</ele>
        <time>2018-11-26T04:51:55Z</time>
      </trkpt>
      <trkpt lat="42.4239" lon="2.73777">
        <ele>1337.4</ele>
        <time>2018-11-26T04:51:55Z</time>
      </trkpt>
      <trkpt lat="42.4239" lon="2.73779">
        <ele>1337.1</ele>
        <time>2018-11-26T04:51:55Z</time>
      </trkpt>
      <trkpt lat="42.4239" lon="2.73779">
        <ele>1336.9</ele>
        <time>2018-11-26T04:51:55Z</time>
      </trkpt>
      <trkpt lat="42.42389" lon="2.73779">
        <ele>1336.7</ele>
        <time>2018-11-26T04:51:56Z</time>
      </trkpt>
      <trkpt lat="42.42389" lon="2.7378">
        <ele>1336.5</ele>
        <time>2018-11-26T04:51:56Z</time>
      </trkpt>
      <trkpt lat="42.42388" lon="2.73781">
        <ele>1336.3</ele>
        <time>2018-11-26T04:51:56Z</time>
      </trkpt>
      <trkpt lat="42.42388" lon="2.73781">
        <ele>1336.2</ele>
        <time>2018-11-26T04:51:57Z</time>
      </trkpt>
      <trkpt lat="42.42387" lon="2.73782">
        <ele>1336</ele>
        <time>2018-11-26T04:51:57Z</time>
      </trkpt>
      <trkpt lat="42.42387" lon="2.73783">
        <ele>1335.8</ele>
        <time>2018-11-26T04:51:57Z</time>
      </trkpt>
      <trkpt lat="42.42386" lon="2.73784">
        <ele>1335.8</ele>
        <time>2018-11-26T04:51:57Z</time>
      </trkpt>
      <trkpt lat="42.42386" lon="2.73784">
        <ele>1335.6</ele>
        <time>2018-11-26T04:51:58Z</time>
      </trkpt>
      <trkpt lat="42.42386" lon="2.73785">
        <ele>1335.4</ele>
        <time>2018-11-26T04:51:58Z</time>
      </trkpt>
      <trkpt lat="42.42385" lon="2.73786">
        <ele>1335.2</ele>
        <time>2018-11-26T04:51:58Z</time>
      </trkpt>
      <trkpt lat="42.42385" lon="2.73786">
        <ele>1335</ele>
        <time>2018-11-26T04:51:59Z</time>
      </trkpt>
      <trkpt lat="42.42384" lon="2.73787">
        <ele>1334.8</ele>
        <time>2018-11-26T04:51:59Z</time>
      </trkpt>
      <trkpt lat="42.42384" lon="2.73787">
        <ele>1334.8</ele>
        <time>2018-11-26T04:51:59Z</time>
      </trkpt>
      <trkpt lat="42.42383" lon="2.73788">
        <ele>1334.6</ele>
        <time>2018-11-26T04:51:59Z</time>
      </trkpt>
      <trkpt lat="42.42383" lon="2.73789">
        <ele>1334.5</ele>
        <time>2018-11-26T04:52:00Z</time>
      </trkpt>
      <trkpt lat="42.42383" lon="2.73789">
        <ele>1334.3</ele>
        <time>2018-11-26T04:52:00Z</time>
      </trkpt>
      <trkpt lat="42.42382" lon="2.73789">
        <ele>1334.2</ele>
        <time>2018-11-26T04:52:00Z</time>
      </trkpt>
      <trkpt lat="42.42382" lon="2.7379">
        <ele>1334.1</ele>
        <time>2018-11-26T04:52:00Z</time>
      </trkpt>
      <trkpt lat="42.42382" lon="2.7379">
        <ele>1334</ele>
        <time>2018-11-26T04:52:00Z</time>
      </trkpt>
      <trkpt lat="42.42382" lon="2.7379">
        <ele>1333.6</ele>
        <time>2018-11-26T04:52:00Z</time>
      </trkpt>
      <trkpt lat="42.42382" lon="2.73789">
        <ele>1333.2</ele>
        <time>2018-11-26T04:52:00Z</time>
      </trkpt>
      <trkpt lat="42.42382" lon="2.73789">
        <ele>1333.5</ele>
        <time>2018-11-26T04:52:00Z</time>
      </trkpt>
      <trkpt lat="42.42382" lon="2.73789">
        <ele>1333.8</ele>
        <time>2018-11-26T04:52:00Z</time>
      </trkpt>
      <trkpt lat="42.42382" lon="2.73789">
        <ele>1334.2</ele>
        <time>2018-11-26T04:52:01Z</time>
      </trkpt>
      <trkpt lat="42.42382" lon="2.73788">
        <ele>1334.7</ele>
        <time>2018-11-26T04:52:01Z</time>
      </trkpt>
      <trkpt lat="42.42382" lon="2.73788">
        <ele>1334.4</ele>
        <time>2018-11-26T04:52:01Z</time>
      </trkpt>
      <trkpt lat="42.42382" lon="2.73788">
        <ele>1334.1</ele>
        <time>2018-11-26T04:52:01Z</time>
      </trkpt>
      <trkpt lat="42.42382" lon="2.73788">
        <ele>1333.7</ele>
        <time>2018-11-26T04:52:01Z</time>
      </trkpt>
      <trkpt lat="42.42383" lon="2.73787">
        <ele>1333.8</ele>
        <time>2018-11-26T04:52:01Z</time>
      </trkpt>
      <trkpt lat="42.42383" lon="2.73787">
        <ele>1333.9</ele>
        <time>2018-11-26T04:52:01Z</time>
      </trkpt>
      <trkpt lat="42.42383" lon="2.73787">
        <ele>1334.2</ele>
        <time>2018-11-26T04:52:01Z</time>
      </trkpt>
      <trkpt lat="42.42383" lon="2.73787">
        <ele>1333.8</ele>
        <time>2018-11-26T04:52:01Z</time>
      </trkpt>
      <trkpt lat="42.42382" lon="2.73787">
        <ele>1333.5</ele>
        <time>2018-11-26T04:52:01Z</time>
      </trkpt>
      <trkpt lat="42.42382" lon="2.73788">
        <ele>1332.7</ele>
        <time>2018-11-26T04:52:02Z</time>
      </trkpt>
      <trkpt lat="42.42382" lon="2.73789">
        <ele>1332.6</ele>
        <time>2018-11-26T04:52:02Z</time>
      </trkpt>
      <trkpt lat="42.42381" lon="2.73789">
        <ele>1332.5</ele>
        <time>2018-11-26T04:52:02Z</time>
      </trkpt>
      <trkpt lat="42.42381" lon="2.73789">
        <ele>1332.4</ele>
        <time>2018-11-26T04:52:02Z</time>
      </trkpt>
      <trkpt lat="42.4238" lon="2.73789">
        <ele>1332.4</ele>
        <time>2018-11-26T04:52:02Z</time>
      </trkpt>
      <trkpt lat="42.4238" lon="2.7379">
        <ele>1332.3</ele>
        <time>2018-11-26T04:52:03Z</time>
      </trkpt>
      <trkpt lat="42.42379" lon="2.73791">
        <ele>1332.1</ele>
        <time>2018-11-26T04:52:03Z</time>
      </trkpt>
      <trkpt lat="42.42379" lon="2.73792">
        <ele>1332</ele>
        <time>2018-11-26T04:52:03Z</time>
      </trkpt>
      <trkpt lat="42.42378" lon="2.73792">
        <ele>1331.9</ele>
        <time>2018-11-26T04:52:04Z</time>
      </trkpt>
      <trkpt lat="42.42378" lon="2.73792">
        <ele>1331.8</ele>
        <time>2018-11-26T04:52:04Z</time>
      </trkpt>
      <trkpt lat="42.42378" lon="2.73792">
        <ele>1331.5</ele>
        <time>2018-11-26T04:52:04Z</time>
      </trkpt>
      <trkpt lat="42.42377" lon="2.73792">
        <ele>1331</ele>
        <time>2018-11-26T04:52:04Z</time>
      </trkpt>
      <trkpt lat="42.42377" lon="2.73793">
        <ele>1330.6</ele>
        <time>2018-11-26T04:52:04Z</time>
      </trkpt>
      <trkpt lat="42.42377" lon="2.73794">
        <ele>1330</ele>
        <time>2018-11-26T04:52:04Z</time>
      </trkpt>
      <trkpt lat="42.42377" lon="2.73794">
        <ele>1328.6</ele>
        <time>2018-11-26T04:52:05Z</time>
      </trkpt>
      <trkpt lat="42.42377" lon="2.73795">
        <ele>1328.6</ele>
        <time>2018-11-26T04:52:05Z</time>
      </trkpt>
      <trkpt lat="42.42377" lon="2.73795">
        <ele>1328.3</ele>
        <time>2018-11-26T04:52:05Z</time>
      </trkpt>
      <trkpt lat="42.42377" lon="2.73796">
        <ele>1328.1</ele>
        <time>2018-11-26T04:52:05Z</time>
      </trkpt>
      <trkpt lat="42.42377" lon="2.73796">
        <ele>1328.2</ele>
        <time>2018-11-26T04:52:05Z</time>
      </trkpt>
      <trkpt lat="42.42377" lon="2.73796">
        <ele>1328</ele>
        <time>2018-11-26T04:52:05Z</time>
      </trkpt>
      <trkpt lat="42.42377" lon="2.73797">
        <ele>1328.1</ele>
        <time>2018-11-26T04:52:06Z</time>
      </trkpt>
      <trkpt lat="42.42377" lon="2.73798">
        <ele>1328.2</ele>
        <time>2018-11-26T04:52:06Z</time>
      </trkpt>
      <trkpt lat="42.42377" lon="2.73798">
        <ele>1328.3</ele>
        <time>2018-11-26T04:52:06Z</time>
      </trkpt>
      <trkpt lat="42.42376" lon="2.73798">
        <ele>1328.3</ele>
        <time>2018-11-26T04:52:06Z</time>
      </trkpt>
      <trkpt lat="42.42376" lon="2.73799">
        <ele>1327.9</ele>
        <time>2018-11-26T04:52:06Z</time>
      </trkpt>
      <trkpt lat="42.42376" lon="2.738">
        <ele>1327.3</ele>
        <time>2018-11-26T04:52:07Z</time>
      </trkpt>
      <trkpt lat="42.42375" lon="2.738">
        <ele>1326.6</ele>
        <time>2018-11-26T04:52:07Z</time>
      </trkpt>
      <trkpt lat="42.42375" lon="2.73801">
        <ele>1326.2</ele>
        <time>2018-11-26T04:52:07Z</time>
      </trkpt>
      <trkpt lat="42.42375" lon="2.73801">
        <ele>1325.6</ele>
        <time>2018-11-26T04:52:07Z</time>
      </trkpt>
      <trkpt lat="42.42374" lon="2.73802">
        <ele>1324.9</ele>
        <time>2018-11-26T04:52:07Z</time>
      </trkpt>
      <trkpt lat="42.42374" lon="2.73802">
        <ele>1325.2</ele>
        <time>2018-11-26T04:52:08Z</time>
      </trkpt>
      <trkpt lat="42.42374" lon="2.73803">
        <ele>1325.5</ele>
        <time>2018-11-26T04:52:08Z</time>
      </trkpt>
      <trkpt lat="42.42374" lon="2.73803">
        <ele>1325.9</ele>
        <time>2018-11-26T04:52:08Z</time>
      </trkpt>
      <trkpt lat="42.42374" lon="2.73803">
        <ele>1325.9</ele>
        <time>2018-11-26T04:52:08Z</time>
      </trkpt>
      <trkpt lat="42.42373" lon="2.73804">
        <ele>1325.8</ele>
        <time>2018-11-26T04:52:08Z</time>
      </trkpt>
      <trkpt lat="42.42373" lon="2.73804">
        <ele>1325.8</ele>
        <time>2018-11-26T04:52:08Z</time>
      </trkpt>
      <trkpt lat="42.42373" lon="2.73805">
        <ele>1325.7</ele>
        <time>2018-11-26T04:52:09Z</time>
      </trkpt>
      <trkpt lat="42.42372" lon="2.73805">
        <ele>1325.8</ele>
        <time>2018-11-26T04:52:09Z</time>
      </trkpt>
      <trkpt lat="42.42372" lon="2.73806">
        <ele>1325.9</ele>
        <time>2018-11-26T04:52:09Z</time>
      </trkpt>
      <trkpt lat="42.42372" lon="2.73806">
        <ele>1326</ele>
        <time>2018-11-26T04:52:09Z</time>
      </trkpt>
      <trkpt lat="42.42372" lon="2.73806">
        <ele>1325.6</ele>
        <time>2018-11-26T04:52:09Z</time>
      </trkpt>
      <trkpt lat="42.42371" lon="2.73806">
        <ele>1325.2</ele>
        <time>2018-11-26T04:52:10Z</time>
      </trkpt>
      <trkpt lat="42.42371" lon="2.73807">
        <ele>1324.5</ele>
        <time>2018-11-26T04:52:10Z</time>
      </trkpt>
      <trkpt lat="42.42371" lon="2.73808">
        <ele>1324.1</ele>
        <time>2018-11-26T04:52:10Z</time>
      </trkpt>
      <trkpt lat="42.42371" lon="2.73808">
        <ele>1323.5</ele>
        <time>2018-11-26T04:52:10Z</time>
      </trkpt>
      <trkpt lat="42.42371" lon="2.73809">
        <ele>1322.9</ele>
        <time>2018-11-26T04:52:10Z</time>
      </trkpt>
      <trkpt lat="42.42371" lon="2.73809">
        <ele>1322.6</ele>
        <time>2018-11-26T04:52:11Z</time>
      </trkpt>
      <trkpt lat="42.42371" lon="2.7381">
        <ele>1322.3</ele>
        <time>2018-11-26T04:52:11Z</time>
      </trkpt>
      <trkpt lat="42.42371" lon="2.7381">
        <ele>1322.1</ele>
        <time>2018-11-26T04:52:11Z</time>
      </trkpt>
      <trkpt lat="42.42371" lon="2.7381">
        <ele>1321.8</ele>
        <time>2018-11-26T04:52:11Z</time>
      </trkpt>
      <trkpt lat="42.42371" lon="2.73811">
        <ele>1321.5</ele>
        <time>2018-11-26T04:52:11Z</time>
      </trkpt>
      <trkpt lat="42.42371" lon="2.73811">
        <ele>1321.1</ele>
        <time>2018-11-26T04:52:11Z</time>
      </trkpt>
      <trkpt lat="42.42371" lon="2.73811">
        <ele>1321.2</ele>
        <time>2018-11-26T04:52:11Z</time>
      </trkpt>
      <trkpt lat="42.42372" lon="2.73811">
        <ele>1321.2</ele>
        <time>2018-11-26T04:52:11Z</time>
      </trkpt>
      <trkpt lat="42.42372" lon="2.73811">
        <ele>1321.2</ele>
        <time>2018-11-26T04:52:12Z</time>
      </trkpt>
      <trkpt lat="42.42372" lon="2.73812">
        <ele>1321.4</ele>
        <time>2018-11-26T04:52:12Z</time>
      </trkpt>
      <trkpt lat="42.42371" lon="2.73814">
        <ele>1321.1</ele>
        <time>2018-11-26T04:52:13Z</time>
      </trkpt>
      <trkpt lat="42.42371" lon="2.73815">
        <ele>1320.9</ele>
        <time>2018-11-26T04:52:13Z</time>
      </trkpt>
      <trkpt lat="42.4237" lon="2.73817">
        <ele>1321.1</ele>
        <time>2018-11-26T04:52:13Z</time>
      </trkpt>
      <trkpt lat="42.42369" lon="2.73818">
        <ele>1321.2</ele>
        <time>2018-11-26T04:52:14Z</time>
      </trkpt>
      <trkpt lat="42.42369" lon="2.73821">
        <ele>1320.7</ele>
        <time>2018-11-26T04:52:15Z</time>
      </trkpt>
      <trkpt lat="42.42369" lon="2.73822">
        <ele>1320.1</ele>
        <time>2018-11-26T04:52:15Z</time>
      </trkpt>
      <trkpt lat="42.42369" lon="2.73823">
        <ele>1319.7</ele>
        <time>2018-11-26T04:52:15Z</time>
      </trkpt>
      <trkpt lat="42.42369" lon="2.73824">
        <ele>1319.4</ele>
        <time>2018-11-26T04:52:16Z</time>
      </trkpt>
      <trkpt lat="42.42369" lon="2.73825">
        <ele>1319.3</ele>
        <time>2018-11-26T04:52:16Z</time>
      </trkpt>
      <trkpt lat="42.42369" lon="2.73825">
        <ele>1319.5</ele>
        <time>2018-11-26T04:52:16Z</time>
      </trkpt>
      <trkpt lat="42.42368" lon="2.73826">
        <ele>1319.4</ele>
        <time>2018-11-26T04:52:16Z</time>
      </trkpt>
      <trkpt lat="42.42368" lon="2.73827">
        <ele>1319.5</ele>
        <time>2018-11-26T04:52:17Z</time>
      </trkpt>
      <trkpt lat="42.42368" lon="2.73828">
        <ele>1319.8</ele>
        <time>2018-11-26T04:52:17Z</time>
      </trkpt>
      <trkpt lat="42.42367" lon="2.73828">
        <ele>1320.2</ele>
        <time>2018-11-26T04:52:17Z</time>
      </trkpt>
      <trkpt lat="42.42367" lon="2.73829">
        <ele>1320.5</ele>
        <time>2018-11-26T04:52:17Z</time>
      </trkpt>
      <trkpt lat="42.42367" lon="2.7383">
        <ele>1320.5</ele>
        <time>2018-11-26T04:52:18Z</time>
      </trkpt>
      <trkpt lat="42.42367" lon="2.73831">
        <ele>1320.4</ele>
        <time>2018-11-26T04:52:18Z</time>
      </trkpt>
      <trkpt lat="42.42367" lon="2.73831">
        <ele>1320.1</ele>
        <time>2018-11-26T04:52:18Z</time>
      </trkpt>
      <trkpt lat="42.42367" lon="2.73832">
        <ele>1320.1</ele>
        <time>2018-11-26T04:52:18Z</time>
      </trkpt>
      <trkpt lat="42.42366" lon="2.73832">
        <ele>1320.2</ele>
        <time>2018-11-26T04:52:18Z</time>
      </trkpt>
      <trkpt lat="42.42366" lon="2.73833">
        <ele>1320.1</ele>
        <time>2018-11-26T04:52:19Z</time>
      </trkpt>
      <trkpt lat="42.42366" lon="2.73833">
        <ele>1320</ele>
        <time>2018-11-26T04:52:19Z</time>
      </trkpt>
      <trkpt lat="42.42366" lon="2.73834">
        <ele>1320</ele>
        <time>2018-11-26T04:52:19Z</time>
      </trkpt>
      <trkpt lat="42.42366" lon="2.73834">
        <ele>1319.8</ele>
        <time>2018-11-26T04:52:19Z</time>
      </trkpt>
      <trkpt lat="42.42366" lon="2.73834">
        <ele>1319.7</ele>
        <time>2018-11-26T04:52:19Z</time>
      </trkpt>
      <trkpt lat="42.42366" lon="2.73834">
        <ele>1319.7</ele>
        <time>2018-11-26T04:52:19Z</time>
      </trkpt>
      <trkpt lat="42.42366" lon="2.73834">
        <ele>1319.7</ele>
        <time>2018-11-26T04:52:19Z</time>
      </trkpt>
      <trkpt lat="42.42366" lon="2.73834">
        <ele>1319.7</ele>
        <time>2018-11-26T04:52:19Z</time>
      </trkpt>
      <trkpt lat="42.42366" lon="2.73835">
        <ele>1319.6</ele>
        <time>2018-11-26T04:52:19Z</time>
      </trkpt>
      <trkpt lat="42.42366" lon="2.73835">
        <ele>1319.3</ele>
        <time>2018-11-26T04:52:19Z</time>
      </trkpt>
      <trkpt lat="42.42366" lon="2.73835">
        <ele>1318.8</ele>
        <time>2018-11-26T04:52:19Z</time>
      </trkpt>
      <trkpt lat="42.42367" lon="2.73835">
        <ele>1318.8</ele>
        <time>2018-11-26T04:52:19Z</time>
      </trkpt>
      <trkpt lat="42.42367" lon="2.73835">
        <ele>1318.8</ele>
        <time>2018-11-26T04:52:19Z</time>
      </trkpt>
      <trkpt lat="42.42367" lon="2.73835">
        <ele>1318.9</ele>
        <time>2018-11-26T04:52:19Z</time>
      </trkpt>
      <trkpt lat="42.42367" lon="2.73835">
        <ele>1319.1</ele>
        <time>2018-11-26T04:52:19Z</time>
      </trkpt>
      <trkpt lat="42.42367" lon="2.73835">
        <ele>1319.4</ele>
        <time>2018-11-26T04:52:19Z</time>
      </trkpt>
      <trkpt lat="42.42367" lon="2.73835">
        <ele>1319.7</ele>
        <time>2018-11-26T04:52:19Z</time>
      </trkpt>
      <trkpt lat="42.42367" lon="2.73834">
        <ele>1319.9</ele>
        <time>2018-11-26T04:52:20Z</time>
      </trkpt>
      <trkpt lat="42.42368" lon="2.73833">
        <ele>1320.1</ele>
        <time>2018-11-26T04:52:20Z</time>
      </trkpt>
      <trkpt lat="42.42368" lon="2.73832">
        <ele>1320.3</ele>
        <time>2018-11-26T04:52:20Z</time>
      </trkpt>
      <trkpt lat="42.42368" lon="2.73832">
        <ele>1320.1</ele>
        <time>2018-11-26T04:52:21Z</time>
      </trkpt>
      <trkpt lat="42.4237" lon="2.73829">
        <ele>1320.2</ele>
        <time>2018-11-26T04:52:22Z</time>
      </trkpt>
      <trkpt lat="42.4237" lon="2.73828">
        <ele>1320.4</ele>
        <time>2018-11-26T04:52:22Z</time>
      </trkpt>
      <trkpt lat="42.4237" lon="2.73827">
        <ele>1320.5</ele>
        <time>2018-11-26T04:52:22Z</time>
      </trkpt>
      <trkpt lat="42.4237" lon="2.73827">
        <ele>1320.5</ele>
        <time>2018-11-26T04:52:22Z</time>
      </trkpt>
      <trkpt lat="42.4237" lon="2.73828">
        <ele>1320.6</ele>
        <time>2018-11-26T04:52:22Z</time>
      </trkpt>
      <trkpt lat="42.4237" lon="2.73828">
        <ele>1320.5</ele>
        <time>2018-11-26T04:52:22Z</time>
      </trkpt>
      <trkpt lat="42.4237" lon="2.73829">
        <ele>1320.5</ele>
        <time>2018-11-26T04:52:23Z</time>
      </trkpt>
      <trkpt lat="42.42369" lon="2.7383">
        <ele>1319.8</ele>
        <time>2018-11-26T04:52:23Z</time>
      </trkpt>
      <trkpt lat="42.42369" lon="2.73829">
        <ele>1319.2</ele>
        <time>2018-11-26T04:52:23Z</time>
      </trkpt>
      <trkpt lat="42.42369" lon="2.73829">
        <ele>1319</ele>
        <time>2018-11-26T04:52:23Z</time>
      </trkpt>
      <trkpt lat="42.42369" lon="2.73829">
        <ele>1318.9</ele>
        <time>2018-11-26T04:52:23Z</time>
      </trkpt>
      <trkpt lat="42.42369" lon="2.73829">
        <ele>1318.7</ele>
        <time>2018-11-26T04:52:23Z</time>
      </trkpt>
      <trkpt lat="42.42369" lon="2.7383">
        <ele>1318.5</ele>
        <time>2018-11-26T04:52:24Z</time>
      </trkpt>
      <trkpt lat="42.42369" lon="2.7383">
        <ele>1318.3</ele>
        <time>2018-11-26T04:52:24Z</time>
      </trkpt>
      <trkpt lat="42.42369" lon="2.7383">
        <ele>1317.9</ele>
        <time>2018-11-26T04:52:24Z</time>
      </trkpt>
      <trkpt lat="42.42369" lon="2.7383">
        <ele>1317.3</ele>
        <time>2018-11-26T04:52:24Z</time>
      </trkpt>
      <trkpt lat="42.42369" lon="2.73831">
        <ele>1317.6</ele>
        <time>2018-11-26T04:52:24Z</time>
      </trkpt>
      <trkpt lat="42.42368" lon="2.73831">
        <ele>1317.8</ele>
        <time>2018-11-26T04:52:24Z</time>
      </trkpt>
      <trkpt lat="42.42368" lon="2.73831">
        <ele>1318.1</ele>
        <time>2018-11-26T04:52:24Z</time>
      </trkpt>
      <trkpt lat="42.42368" lon="2.73832">
        <ele>1318</ele>
        <time>2018-11-26T04:52:25Z</time>
      </trkpt>
      <trkpt lat="42.42368" lon="2.73833">
        <ele>1317.8</ele>
        <time>2018-11-26T04:52:25Z</time>
      </trkpt>
      <trkpt lat="42.42368" lon="2.73833">
        <ele>1317.6</ele>
        <time>2018-11-26T04:52:25Z</time>
      </trkpt>
      <trkpt lat="42.42368" lon="2.73834">
        <ele>1317.1</ele>
        <time>2018-11-26T04:52:25Z</time>
      </trkpt>
      <trkpt lat="42.42369" lon="2.73834">
        <ele>1316.9</ele>
        <time>2018-11-26T04:52:25Z</time>
      </trkpt>
      <trkpt lat="42.42369" lon="2.73834">
        <ele>1316.6</ele>
        <time>2018-11-26T04:52:26Z</time>
      </trkpt>
      <trkpt lat="42.42369" lon="2.73834">
        <ele>1316.2</ele>
        <time>2018-11-26T04:52:26Z</time>
      </trkpt>
      <trkpt lat="42.4237" lon="2.73834">
        <ele>1316.4</ele>
        <time>2018-11-26T04:52:26Z</time>
      </trkpt>
      <trkpt lat="42.42371" lon="2.73834">
        <ele>1316.6</ele>
        <time>2018-11-26T04:52:26Z</time>
      </trkpt>
      <trkpt lat="42.42371" lon="2.73834">
        <ele>1316.8</ele>
        <time>2018-11-26T04:52:26Z</time>
      </trkpt>
      <trkpt lat="42.42372" lon="2.73834">
        <ele>1316.9</ele>
        <time>2018-11-26T04:52:27Z</time>
      </trkpt>
      <trkpt lat="42.42372" lon="2.73834">
        <ele>1316.7</ele>
        <time>2018-11-26T04:52:27Z</time>
      </trkpt>
      <trkpt lat="42.42373" lon="2.73835">
        <ele>1316.4</ele>
        <time>2018-11-26T04:52:27Z</time>
      </trkpt>
      <trkpt lat="42.42373" lon="2.73835">
        <ele>1315.9</ele>
        <time>2018-11-26T04:52:27Z</time>
      </trkpt>
      <trkpt lat="42.42374" lon="2.73835">
        <ele>1315.7</ele>
        <time>2018-11-26T04:52:27Z</time>
      </trkpt>
      <trkpt lat="42.42374" lon="2.73835">
        <ele>1315.3</ele>
        <time>2018-11-26T04:52:28Z</time>
      </trkpt>
      <trkpt lat="42.42374" lon="2.73835">
        <ele>1314.8</ele>
        <time>2018-11-26T04:52:28Z</time>
      </trkpt>
      <trkpt lat="42.42374" lon="2.73836">
        <ele>1314.6</ele>
        <time>2018-11-26T04:52:28Z</time>
      </trkpt>
      <trkpt lat="42.42373" lon="2.73837">
        <ele>1313.6</ele>
        <time>2018-11-26T04:52:28Z</time>
      </trkpt>
      <trkpt lat="42.42373" lon="2.73837">
        <ele>1313.3</ele>
        <time>2018-11-26T04:52:28Z</time>
      </trkpt>
      <trkpt lat="42.42373" lon="2.73838">
        <ele>1313.1</ele>
        <time>2018-11-26T04:52:29Z</time>
      </trkpt>
      <trkpt lat="42.42372" lon="2.73839">
        <ele>1312.8</ele>
        <time>2018-11-26T04:52:29Z</time>
      </trkpt>
      <trkpt lat="42.42372" lon="2.73839">
        <ele>1312.7</ele>
        <time>2018-11-26T04:52:29Z</time>
      </trkpt>
      <trkpt lat="42.42372" lon="2.7384">
        <ele>1312.4</ele>
        <time>2018-11-26T04:52:29Z</time>
      </trkpt>
      <trkpt lat="42.42372" lon="2.73841">
        <ele>1312.2</ele>
        <time>2018-11-26T04:52:30Z</time>
      </trkpt>
      <trkpt lat="42.42372" lon="2.73842">
        <ele>1311.7</ele>
        <time>2018-11-26T04:52:30Z</time>
      </trkpt>
      <trkpt lat="42.42372" lon="2.73844">
        <ele>1311.9</ele>
        <time>2018-11-26T04:52:31Z</time>
      </trkpt>
      <trkpt lat="42.42372" lon="2.73845">
        <ele>1311.8</ele>
        <time>2018-11-26T04:52:31Z</time>
      </trkpt>
      <trkpt lat="42.42372" lon="2.73846">
        <ele>1311.5</ele>
        <time>2018-11-26T04:52:31Z</time>
      </trkpt>
      <trkpt lat="42.42372" lon="2.73846">
        <ele>1311.1</ele>
        <time>2018-11-26T04:52:31Z</time>
      </trkpt>
      <trkpt lat="42.42371" lon="2.73847">
        <ele>1310.4</ele>
        <time>2018-11-26T04:52:32Z</time>
      </trkpt>
      <trkpt lat="42.42371" lon="2.73848">
        <ele>1310.4</ele>
        <time>2018-11-26T04:52:32Z</time>
      </trkpt>
      <trkpt lat="42.42371" lon="2.73849">
        <ele>1310.5</ele>
        <time>2018-11-26T04:52:32Z</time>
      </trkpt>
      <trkpt lat="42.42371" lon="2.73849">
        <ele>1310.3</ele>
        <time>2018-11-26T04:52:32Z</time>
      </trkpt>
      <trkpt lat="42.42371" lon="2.73851">
        <ele>1310.3</ele>
        <time>2018-11-26T04:52:33Z</time>
      </trkpt>
      <trkpt lat="42.42371" lon="2.73852">
        <ele>1310.2</ele>
        <time>2018-11-26T04:52:33Z</time>
      </trkpt>
      <trkpt lat="42.42371" lon="2.73853">
        <ele>1310.1</ele>
        <time>2018-11-26T04:52:33Z</time>
      </trkpt>
      <trkpt lat="42.42372" lon="2.73856">
        <ele>1309.5</ele>
        <time>2018-11-26T04:52:34Z</time>
      </trkpt>
      <trkpt lat="42.42372" lon="2.73858">
        <ele>1309.3</ele>
        <time>2018-11-26T04:52:35Z</time>
      </trkpt>
      <trkpt lat="42.42372" lon="2.73859">
        <ele>1309.2</ele>
        <time>2018-11-26T04:52:35Z</time>
      </trkpt>
      <trkpt lat="42.42372" lon="2.7386">
        <ele>1308.8</ele>
        <time>2018-11-26T04:52:35Z</time>
      </trkpt>
      <trkpt lat="42.42372" lon="2.73861">
        <ele>1308.4</ele>
        <time>2018-11-26T04:52:36Z</time>
      </trkpt>
      <trkpt lat="42.42372" lon="2.73861">
        <ele>1308</ele>
        <time>2018-11-26T04:52:36Z</time>
      </trkpt>
      <trkpt lat="42.42373" lon="2.73862">
        <ele>1307.6</ele>
        <time>2018-11-26T04:52:36Z</time>
      </trkpt>
      <trkpt lat="42.42373" lon="2.73864">
        <ele>1306.8</ele>
        <time>2018-11-26T04:52:37Z</time>
      </trkpt>
      <trkpt lat="42.42373" lon="2.73866">
        <ele>1306.8</ele>
        <time>2018-11-26T04:52:37Z</time>
      </trkpt>
      <trkpt lat="42.42373" lon="2.73868">
        <ele>1306.4</ele>
        <time>2018-11-26T04:52:38Z</time>
      </trkpt>
      <trkpt lat="42.42373" lon="2.73869">
        <ele>1306.4</ele>
        <time>2018-11-26T04:52:38Z</time>
      </trkpt>
      <trkpt lat="42.42374" lon="2.7387">
        <ele>1306.4</ele>
        <time>2018-11-26T04:52:38Z</time>
      </trkpt>
      <trkpt lat="42.42374" lon="2.73871">
        <ele>1306.3</ele>
        <time>2018-11-26T04:52:39Z</time>
      </trkpt>
      <trkpt lat="42.42375" lon="2.73872">
        <ele>1306</ele>
        <time>2018-11-26T04:52:39Z</time>
      </trkpt>
      <trkpt lat="42.42375" lon="2.73872">
        <ele>1305.8</ele>
        <time>2018-11-26T04:52:39Z</time>
      </trkpt>
      <trkpt lat="42.42375" lon="2.73874">
        <ele>1305.6</ele>
        <time>2018-11-26T04:52:40Z</time>
      </trkpt>
      <trkpt lat="42.42376" lon="2.73874">
        <ele>1305.4</ele>
        <time>2018-11-26T04:52:40Z</time>
      </trkpt>
      <trkpt lat="42.42376" lon="2.73875">
        <ele>1304.8</ele>
        <time>2018-11-26T04:52:40Z</time>
      </trkpt>
      <trkpt lat="42.42377" lon="2.73875">
        <ele>1304.3</ele>
        <time>2018-11-26T04:52:41Z</time>
      </trkpt>
      <trkpt lat="42.42377" lon="2.73875">
        <ele>1304.2</ele>
        <time>2018-11-26T04:52:41Z</time>
      </trkpt>
      <trkpt lat="42.42378" lon="2.73876">
        <ele>1304.1</ele>
        <time>2018-11-26T04:52:41Z</time>
      </trkpt>
      <trkpt lat="42.42378" lon="2.73877">
        <ele>1303.9</ele>
        <time>2018-11-26T04:52:41Z</time>
      </trkpt>
      <trkpt lat="42.42378" lon="2.73877">
        <ele>1303.7</ele>
        <time>2018-11-26T04:52:41Z</time>
      </trkpt>
      <trkpt lat="42.42378" lon="2.73877">
        <ele>1303.3</ele>
        <time>2018-11-26T04:52:42Z</time>
      </trkpt>
      <trkpt lat="42.42378" lon="2.73878">
        <ele>1302.9</ele>
        <time>2018-11-26T04:52:42Z</time>
      </trkpt>
      <trkpt lat="42.42378" lon="2.73878">
        <ele>1302.9</ele>
        <time>2018-11-26T04:52:42Z</time>
      </trkpt>
      <trkpt lat="42.42378" lon="2.73878">
        <ele>1302.9</ele>
        <time>2018-11-26T04:52:42Z</time>
      </trkpt>
      <trkpt lat="42.42378" lon="2.73878">
        <ele>1302.8</ele>
        <time>2018-11-26T04:52:42Z</time>
      </trkpt>
      <trkpt lat="42.42379" lon="2.73878">
        <ele>1302.7</ele>
        <time>2018-11-26T04:52:42Z</time>
      </trkpt>
      <trkpt lat="42.42379" lon="2.73878">
        <ele>1302.6</ele>
        <time>2018-11-26T04:52:42Z</time>
      </trkpt>
      <trkpt lat="42.4238" lon="2.73877">
        <ele>1302.3</ele>
        <time>2018-11-26T04:52:43Z</time>
      </trkpt>
      <trkpt lat="42.4238" lon="2.73877">
        <ele>1302.5</ele>
        <time>2018-11-26T04:52:43Z</time>
      </trkpt>
      <trkpt lat="42.42381" lon="2.73877">
        <ele>1302.6</ele>
        <time>2018-11-26T04:52:43Z</time>
      </trkpt>
      <trkpt lat="42.42381" lon="2.73877">
        <ele>1302.6</ele>
        <time>2018-11-26T04:52:43Z</time>
      </trkpt>
      <trkpt lat="42.42382" lon="2.73877">
        <ele>1302.1</ele>
        <time>2018-11-26T04:52:43Z</time>
      </trkpt>
      <trkpt lat="42.42382" lon="2.73877">
        <ele>1301.5</ele>
        <time>2018-11-26T04:52:44Z</time>
      </trkpt>
      <trkpt lat="42.42383" lon="2.73877">
        <ele>1300.7</ele>
        <time>2018-11-26T04:52:44Z</time>
      </trkpt>
      <trkpt lat="42.42383" lon="2.73878">
        <ele>1300.6</ele>
        <time>2018-11-26T04:52:44Z</time>
      </trkpt>
      <trkpt lat="42.42383" lon="2.73879">
        <ele>1300.3</ele>
        <time>2018-11-26T04:52:44Z</time>
      </trkpt>
      <trkpt lat="42.42382" lon="2.7388">
        <ele>1300.3</ele>
        <time>2018-11-26T04:52:45Z</time>
      </trkpt>
      <trkpt lat="42.42382" lon="2.73881">
        <ele>1300.2</ele>
        <time>2018-11-26T04:52:45Z</time>
      </trkpt>
      <trkpt lat="42.42383" lon="2.73881">
        <ele>1300.1</ele>
        <time>2018-11-26T04:52:45Z</time>
      </trkpt>
      <trkpt lat="42.42384" lon="2.73882">
        <ele>1299.5</ele>
        <time>2018-11-26T04:52:45Z</time>
      </trkpt>
      <trkpt lat="42.42384" lon="2.73883">
        <ele>1299.2</ele>
        <time>2018-11-26T04:52:46Z</time>
      </trkpt>
      <trkpt lat="42.42384" lon="2.73883">
        <ele>1299</ele>
        <time>2018-11-26T04:52:46Z</time>
      </trkpt>
      <trkpt lat="42.42384" lon="2.73884">
        <ele>1298.6</ele>
        <time>2018-11-26T04:52:46Z</time>
      </trkpt>
      <trkpt lat="42.42383" lon="2.73885">
        <ele>1298.2</ele>
        <time>2018-11-26T04:52:46Z</time>
      </trkpt>
      <trkpt lat="42.42383" lon="2.73885">
        <ele>1297.7</ele>
        <time>2018-11-26T04:52:47Z</time>
      </trkpt>
      <trkpt lat="42.42383" lon="2.73886">
        <ele>1297.1</ele>
        <time>2018-11-26T04:52:47Z</time>
      </trkpt>
      <trkpt lat="42.42384" lon="2.73887">
        <ele>1296.2</ele>
        <time>2018-11-26T04:52:47Z</time>
      </trkpt>
      <trkpt lat="42.42384" lon="2.73888">
        <ele>1296.2</ele>
        <time>2018-11-26T04:52:47Z</time>
      </trkpt>
      <trkpt lat="42.42384" lon="2.73889">
        <ele>1296.3</ele>
        <time>2018-11-26T04:52:48Z</time>
      </trkpt>
      <trkpt lat="42.42385" lon="2.7389">
        <ele>1296.2</ele>
        <time>2018-11-26T04:52:48Z</time>
      </trkpt>
      <trkpt lat="42.42385" lon="2.73892">
        <ele>1296.4</ele>
        <time>2018-11-26T04:52:49Z</time>
      </trkpt>
      <trkpt lat="42.42385" lon="2.73893">
        <ele>1296.6</ele>
        <time>2018-11-26T04:52:49Z</time>
      </trkpt>
      <trkpt lat="42.42385" lon="2.73894">
        <ele>1297.1</ele>
        <time>2018-11-26T04:52:49Z</time>
      </trkpt>
      <trkpt lat="42.42386" lon="2.73895">
        <ele>1296.8</ele>
        <time>2018-11-26T04:52:49Z</time>
      </trkpt>
      <trkpt lat="42.42386" lon="2.73896">
        <ele>1296.4</ele>
        <time>2018-11-26T04:52:50Z</time>
      </trkpt>
      <trkpt lat="42.42386" lon="2.73897">
        <ele>1296</ele>
        <time>2018-11-26T04:52:50Z</time>
      </trkpt>
      <trkpt lat="42.42386" lon="2.73898">
        <ele>1295.2</ele>
        <time>2018-11-26T04:52:50Z</time>
      </trkpt>
      <trkpt lat="42.42387" lon="2.73899">
        <ele>1295</ele>
        <time>2018-11-26T04:52:51Z</time>
      </trkpt>
      <trkpt lat="42.42387" lon="2.739">
        <ele>1294.7</ele>
        <time>2018-11-26T04:52:51Z</time>
      </trkpt>
      <trkpt lat="42.42388" lon="2.73901">
        <ele>1294.2</ele>
        <time>2018-11-26T04:52:51Z</time>
      </trkpt>
      <trkpt lat="42.42388" lon="2.73901">
        <ele>1294.2</ele>
        <time>2018-11-26T04:52:52Z</time>
      </trkpt>
      <trkpt lat="42.42389" lon="2.73901">
        <ele>1294.1</ele>
        <time>2018-11-26T04:52:52Z</time>
      </trkpt>
      <trkpt lat="42.42389" lon="2.73902">
        <ele>1294.2</ele>
        <time>2018-11-26T04:52:52Z</time>
      </trkpt>
      <trkpt lat="42.4239" lon="2.73902">
        <ele>1294.1</ele>
        <time>2018-11-26T04:52:52Z</time>
      </trkpt>
      <trkpt lat="42.4239" lon="2.73903">
        <ele>1293.9</ele>
        <time>2018-11-26T04:52:53Z</time>
      </trkpt>
      <trkpt lat="42.42391" lon="2.73903">
        <ele>1293.7</ele>
        <time>2018-11-26T04:52:53Z</time>
      </trkpt>
      <trkpt lat="42.42392" lon="2.73903">
        <ele>1293.7</ele>
        <time>2018-11-26T04:52:53Z</time>
      </trkpt>
      <trkpt lat="42.42392" lon="2.73904">
        <ele>1293.6</ele>
        <time>2018-11-26T04:52:53Z</time>
      </trkpt>
      <trkpt lat="42.42393" lon="2.73904">
        <ele>1293.3</ele>
        <time>2018-11-26T04:52:54Z</time>
      </trkpt>
      <trkpt lat="42.42394" lon="2.73904">
        <ele>1293.2</ele>
        <time>2018-11-26T04:52:54Z</time>
      </trkpt>
      <trkpt lat="42.42394" lon="2.73904">
        <ele>1292.9</ele>
        <time>2018-11-26T04:52:54Z</time>
      </trkpt>
      <trkpt lat="42.42395" lon="2.73904">
        <ele>1292.6</ele>
        <time>2018-11-26T04:52:55Z</time>
      </trkpt>
      <trkpt lat="42.42395" lon="2.73904">
        <ele>1292.3</ele>
        <time>2018-11-26T04:52:55Z</time>
      </trkpt>
      <trkpt lat="42.42396" lon="2.73904">
        <ele>1292.2</ele>
        <time>2018-11-26T04:52:55Z</time>
      </trkpt>
      <trkpt lat="42.42397" lon="2.73904">
        <ele>1292</ele>
        <time>2018-11-26T04:52:55Z</time>
      </trkpt>
      <trkpt lat="42.42397" lon="2.73903">
        <ele>1291.7</ele>
        <time>2018-11-26T04:52:56Z</time>
      </trkpt>
      <trkpt lat="42.42398" lon="2.73903">
        <ele>1291.5</ele>
        <time>2018-11-26T04:52:56Z</time>
      </trkpt>
      <trkpt lat="42.42399" lon="2.73903">
        <ele>1291.2</ele>
        <time>2018-11-26T04:52:57Z</time>
      </trkpt>
      <trkpt lat="42.424" lon="2.73903">
        <ele>1290.8</ele>
        <time>2018-11-26T04:52:57Z</time>
      </trkpt>
      <trkpt lat="42.42401" lon="2.73902">
        <ele>1290.7</ele>
        <time>2018-11-26T04:52:57Z</time>
      </trkpt>
      <trkpt lat="42.42402" lon="2.73902">
        <ele>1290.3</ele>
        <time>2018-11-26T04:52:57Z</time>
      </trkpt>
      <trkpt lat="42.42402" lon="2.73901">
        <ele>1290</ele>
        <time>2018-11-26T04:52:58Z</time>
      </trkpt>
      <trkpt lat="42.42403" lon="2.73901">
        <ele>1290.4</ele>
        <time>2018-11-26T04:52:58Z</time>
      </trkpt>
      <trkpt lat="42.42404" lon="2.73901">
        <ele>1290.6</ele>
        <time>2018-11-26T04:52:58Z</time>
      </trkpt>
      <trkpt lat="42.42404" lon="2.73901">
        <ele>1291.1</ele>
        <time>2018-11-26T04:52:59Z</time>
      </trkpt>
      <trkpt lat="42.42405" lon="2.73901">
        <ele>1290.8</ele>
        <time>2018-11-26T04:52:59Z</time>
      </trkpt>
      <trkpt lat="42.42406" lon="2.73901">
        <ele>1290.5</ele>
        <time>2018-11-26T04:52:59Z</time>
      </trkpt>
      <trkpt lat="42.42406" lon="2.73901">
        <ele>1289.9</ele>
        <time>2018-11-26T04:52:59Z</time>
      </trkpt>
      <trkpt lat="42.42407" lon="2.73902">
        <ele>1289.3</ele>
        <time>2018-11-26T04:53:00Z</time>
      </trkpt>
      <trkpt lat="42.42407" lon="2.73903">
        <ele>1289.3</ele>
        <time>2018-11-26T04:53:00Z</time>
      </trkpt>
      <trkpt lat="42.42407" lon="2.73904">
        <ele>1289.3</ele>
        <time>2018-11-26T04:53:00Z</time>
      </trkpt>
      <trkpt lat="42.42407" lon="2.73904">
        <ele>1289.1</ele>
        <time>2018-11-26T04:53:01Z</time>
      </trkpt>
      <trkpt lat="42.42408" lon="2.73905">
        <ele>1288.9</ele>
        <time>2018-11-26T04:53:01Z</time>
      </trkpt>
      <trkpt lat="42.42408" lon="2.73905">
        <ele>1288.5</ele>
        <time>2018-11-26T04:53:01Z</time>
      </trkpt>
      <trkpt lat="42.42408" lon="2.73906">
        <ele>1288.2</ele>
        <time>2018-11-26T04:53:01Z</time>
      </trkpt>
      <trkpt lat="42.42408" lon="2.73907">
        <ele>1287.6</ele>
        <time>2018-11-26T04:53:01Z</time>
      </trkpt>
      <trkpt lat="42.42408" lon="2.73907">
        <ele>1287.1</ele>
        <time>2018-11-26T04:53:01Z</time>
      </trkpt>
      <trkpt lat="42.42408" lon="2.73907">
        <ele>1287</ele>
        <time>2018-11-26T04:53:01Z</time>
      </trkpt>
      <trkpt lat="42.42409" lon="2.73907">
        <ele>1287.1</ele>
        <time>2018-11-26T04:53:02Z</time>
      </trkpt>
      <trkpt lat="42.42409" lon="2.73907">
        <ele>1287.2</ele>
        <time>2018-11-26T04:53:02Z</time>
      </trkpt>
      <trkpt lat="42.42409" lon="2.73908">
        <ele>1286.5</ele>
        <time>2018-11-26T04:53:02Z</time>
      </trkpt>
      <trkpt lat="42.42409" lon="2.73908">
        <ele>1286</ele>
        <time>2018-11-26T04:53:02Z</time>
      </trkpt>
      <trkpt lat="42.42409" lon="2.73908">
        <ele>1286.2</ele>
        <time>2018-11-26T04:53:02Z</time>
      </trkpt>
      <trkpt lat="42.4241" lon="2.73909">
        <ele>1286.2</ele>
        <time>2018-11-26T04:53:02Z</time>
      </trkpt>
      <trkpt lat="42.4241" lon="2.73909">
        <ele>1286.3</ele>
        <time>2018-11-26T04:53:02Z</time>
      </trkpt>
      <trkpt lat="42.4241" lon="2.73909">
        <ele>1286.5</ele>
        <time>2018-11-26T04:53:02Z</time>
      </trkpt>
      <trkpt lat="42.4241" lon="2.73909">
        <ele>1286.2</ele>
        <time>2018-11-26T04:53:03Z</time>
      </trkpt>
      <trkpt lat="42.4241" lon="2.73909">
        <ele>1285.7</ele>
        <time>2018-11-26T04:53:03Z</time>
      </trkpt>
      <trkpt lat="42.42411" lon="2.73909">
        <ele>1285.1</ele>
        <time>2018-11-26T04:53:03Z</time>
      </trkpt>
      <trkpt lat="42.42411" lon="2.73909">
        <ele>1285.2</ele>
        <time>2018-11-26T04:53:03Z</time>
      </trkpt>
      <trkpt lat="42.42412" lon="2.73909">
        <ele>1285</ele>
        <time>2018-11-26T04:53:03Z</time>
      </trkpt>
      <trkpt lat="42.42412" lon="2.73909">
        <ele>1284.9</ele>
        <time>2018-11-26T04:53:04Z</time>
      </trkpt>
      <trkpt lat="42.42412" lon="2.7391">
        <ele>1285</ele>
        <time>2018-11-26T04:53:04Z</time>
      </trkpt>
      <trkpt lat="42.42412" lon="2.73911">
        <ele>1285</ele>
        <time>2018-11-26T04:53:04Z</time>
      </trkpt>
      <trkpt lat="42.42411" lon="2.73913">
        <ele>1284.4</ele>
        <time>2018-11-26T04:53:05Z</time>
      </trkpt>
      <trkpt lat="42.42411" lon="2.73914">
        <ele>1284.1</ele>
        <time>2018-11-26T04:53:05Z</time>
      </trkpt>
      <trkpt lat="42.4241" lon="2.73915">
        <ele>1283.7</ele>
        <time>2018-11-26T04:53:05Z</time>
      </trkpt>
      <trkpt lat="42.42409" lon="2.73915">
        <ele>1283.4</ele>
        <time>2018-11-26T04:53:06Z</time>
      </trkpt>
      <trkpt lat="42.42409" lon="2.73916">
        <ele>1282.8</ele>
        <time>2018-11-26T04:53:06Z</time>
      </trkpt>
      <trkpt lat="42.42408" lon="2.73917">
        <ele>1282.7</ele>
        <time>2018-11-26T04:53:06Z</time>
      </trkpt>
      <trkpt lat="42.42408" lon="2.73917">
        <ele>1282.8</ele>
        <time>2018-11-26T04:53:07Z</time>
      </trkpt>
      <trkpt lat="42.42407" lon="2.73918">
        <ele>1282.8</ele>
        <time>2018-11-26T04:53:07Z</time>
      </trkpt>
      <trkpt lat="42.42407" lon="2.73919">
        <ele>1282.8</ele>
        <time>2018-11-26T04:53:07Z</time>
      </trkpt>
      <trkpt lat="42.42406" lon="2.73921">
        <ele>1282.6</ele>
        <time>2018-11-26T04:53:08Z</time>
      </trkpt>
      <trkpt lat="42.42405" lon="2.73922">
        <ele>1282.5</ele>
        <time>2018-11-26T04:53:08Z</time>
      </trkpt>
      <trkpt lat="42.42405" lon="2.73923">
        <ele>1282.2</ele>
        <time>2018-11-26T04:53:09Z</time>
      </trkpt>
      <trkpt lat="42.42404" lon="2.73923">
        <ele>1281.9</ele>
        <time>2018-11-26T04:53:09Z</time>
      </trkpt>
      <trkpt lat="42.42404" lon="2.73924">
        <ele>1281.9</ele>
        <time>2018-11-26T04:53:09Z</time>
      </trkpt>
      <trkpt lat="42.42403" lon="2.73925">
        <ele>1281.6</ele>
        <time>2018-11-26T04:53:09Z</time>
      </trkpt>
      <trkpt lat="42.42403" lon="2.73926">
        <ele>1281.4</ele>
        <time>2018-11-26T04:53:10Z</time>
      </trkpt>
      <trkpt lat="42.42403" lon="2.73927">
        <ele>1281.2</ele>
        <time>2018-11-26T04:53:10Z</time>
      </trkpt>
      <trkpt lat="42.42402" lon="2.73928">
        <ele>1281</ele>
        <time>2018-11-26T04:53:10Z</time>
      </trkpt>
      <trkpt lat="42.42402" lon="2.7393">
        <ele>1280.6</ele>
        <time>2018-11-26T04:53:11Z</time>
      </trkpt>
      <trkpt lat="42.42401" lon="2.73931">
        <ele>1280.5</ele>
        <time>2018-11-26T04:53:11Z</time>
      </trkpt>
      <trkpt lat="42.424" lon="2.73934">
        <ele>1280.2</ele>
        <time>2018-11-26T04:53:12Z</time>
      </trkpt>
      <trkpt lat="42.424" lon="2.73935">
        <ele>1280</ele>
        <time>2018-11-26T04:53:13Z</time>
      </trkpt>
      <trkpt lat="42.424" lon="2.73935">
        <ele>1279.9</ele>
        <time>2018-11-26T04:53:13Z</time>
      </trkpt>
      <trkpt lat="42.42399" lon="2.73936">
        <ele>1279.8</ele>
        <time>2018-11-26T04:53:13Z</time>
      </trkpt>
      <trkpt lat="42.42399" lon="2.73937">
        <ele>1279.6</ele>
        <time>2018-11-26T04:53:14Z</time>
      </trkpt>
      <trkpt lat="42.42399" lon="2.73938">
        <ele>1279.4</ele>
        <time>2018-11-26T04:53:14Z</time>
      </trkpt>
      <trkpt lat="42.42398" lon="2.73939">
        <ele>1279.4</ele>
        <time>2018-11-26T04:53:14Z</time>
      </trkpt>
      <trkpt lat="42.42398" lon="2.73939">
        <ele>1279.4</ele>
        <time>2018-11-26T04:53:14Z</time>
      </trkpt>
      <trkpt lat="42.42398" lon="2.7394">
        <ele>1279.5</ele>
        <time>2018-11-26T04:53:15Z</time>
      </trkpt>
      <trkpt lat="42.42397" lon="2.7394">
        <ele>1279.4</ele>
        <time>2018-11-26T04:53:15Z</time>
      </trkpt>
      <trkpt lat="42.42397" lon="2.73941">
        <ele>1279</ele>
        <time>2018-11-26T04:53:15Z</time>
      </trkpt>
      <trkpt lat="42.42397" lon="2.73941">
        <ele>1278.6</ele>
        <time>2018-11-26T04:53:15Z</time>
      </trkpt>
      <trkpt lat="42.42397" lon="2.73942">
        <ele>1278</ele>
        <time>2018-11-26T04:53:15Z</time>
      </trkpt>
      <trkpt lat="42.42396" lon="2.73943">
        <ele>1278.2</ele>
        <time>2018-11-26T04:53:16Z</time>
      </trkpt>
      <trkpt lat="42.42395" lon="2.73947">
        <ele>1278.2</ele>
        <time>2018-11-26T04:53:17Z</time>
      </trkpt>
      <trkpt lat="42.42395" lon="2.73947">
        <ele>1277.9</ele>
        <time>2018-11-26T04:53:17Z</time>
      </trkpt>
      <trkpt lat="42.42395" lon="2.73948">
        <ele>1277.9</ele>
        <time>2018-11-26T04:53:17Z</time>
      </trkpt>
      <trkpt lat="42.42394" lon="2.73949">
        <ele>1277.9</ele>
        <time>2018-11-26T04:53:18Z</time>
      </trkpt>
      <trkpt lat="42.42394" lon="2.7395">
        <ele>1277.9</ele>
        <time>2018-11-26T04:53:18Z</time>
      </trkpt>
      <trkpt lat="42.42394" lon="2.73951">
        <ele>1277.7</ele>
        <time>2018-11-26T04:53:18Z</time>
      </trkpt>
      <trkpt lat="42.42394" lon="2.73952">
        <ele>1277.4</ele>
        <time>2018-11-26T04:53:18Z</time>
      </trkpt>
      <trkpt lat="42.42394" lon="2.73952">
        <ele>1276.8</ele>
        <time>2018-11-26T04:53:19Z</time>
      </trkpt>
      <trkpt lat="42.42394" lon="2.73954">
        <ele>1276.8</ele>
        <time>2018-11-26T04:53:19Z</time>
      </trkpt>
      <trkpt lat="42.42394" lon="2.73954">
        <ele>1277</ele>
        <time>2018-11-26T04:53:19Z</time>
      </trkpt>
      <trkpt lat="42.42394" lon="2.73955">
        <ele>1277.1</ele>
        <time>2018-11-26T04:53:19Z</time>
      </trkpt>
      <trkpt lat="42.42394" lon="2.73956">
        <ele>1276.7</ele>
        <time>2018-11-26T04:53:20Z</time>
      </trkpt>
      <trkpt lat="42.42394" lon="2.73956">
        <ele>1276.3</ele>
        <time>2018-11-26T04:53:20Z</time>
      </trkpt>
      <trkpt lat="42.42394" lon="2.73957">
        <ele>1275.8</ele>
        <time>2018-11-26T04:53:20Z</time>
      </trkpt>
      <trkpt lat="42.42395" lon="2.73958">
        <ele>1274.8</ele>
        <time>2018-11-26T04:53:20Z</time>
      </trkpt>
      <trkpt lat="42.42395" lon="2.73959">
        <ele>1274.5</ele>
        <time>2018-11-26T04:53:21Z</time>
      </trkpt>
      <trkpt lat="42.42395" lon="2.73959">
        <ele>1274.1</ele>
        <time>2018-11-26T04:53:21Z</time>
      </trkpt>
      <trkpt lat="42.42395" lon="2.7396">
        <ele>1273.8</ele>
        <time>2018-11-26T04:53:21Z</time>
      </trkpt>
      <trkpt lat="42.42395" lon="2.73961">
        <ele>1273.7</ele>
        <time>2018-11-26T04:53:21Z</time>
      </trkpt>
      <trkpt lat="42.42395" lon="2.73962">
        <ele>1273.4</ele>
        <time>2018-11-26T04:53:22Z</time>
      </trkpt>
      <trkpt lat="42.42395" lon="2.73963">
        <ele>1272.9</ele>
        <time>2018-11-26T04:53:22Z</time>
      </trkpt>
      <trkpt lat="42.42396" lon="2.73964">
        <ele>1272.6</ele>
        <time>2018-11-26T04:53:22Z</time>
      </trkpt>
      <trkpt lat="42.42396" lon="2.73964">
        <ele>1271.9</ele>
        <time>2018-11-26T04:53:22Z</time>
      </trkpt>
      <trkpt lat="42.42397" lon="2.73965">
        <ele>1271.8</ele>
        <time>2018-11-26T04:53:23Z</time>
      </trkpt>
      <trkpt lat="42.42397" lon="2.73966">
        <ele>1271.8</ele>
        <time>2018-11-26T04:53:23Z</time>
      </trkpt>
      <trkpt lat="42.42398" lon="2.73967">
        <ele>1271.7</ele>
        <time>2018-11-26T04:53:23Z</time>
      </trkpt>
      <trkpt lat="42.42398" lon="2.73967">
        <ele>1271.8</ele>
        <time>2018-11-26T04:53:24Z</time>
      </trkpt>
      <trkpt lat="42.42399" lon="2.73968">
        <ele>1271.7</ele>
        <time>2018-11-26T04:53:24Z</time>
      </trkpt>
      <trkpt lat="42.424" lon="2.73968">
        <ele>1271.6</ele>
        <time>2018-11-26T04:53:24Z</time>
      </trkpt>
      <trkpt lat="42.42401" lon="2.73968">
        <ele>1271.5</ele>
        <time>2018-11-26T04:53:25Z</time>
      </trkpt>
      <trkpt lat="42.42401" lon="2.73968">
        <ele>1271.3</ele>
        <time>2018-11-26T04:53:25Z</time>
      </trkpt>
      <trkpt lat="42.42402" lon="2.73968">
        <ele>1271.1</ele>
        <time>2018-11-26T04:53:25Z</time>
      </trkpt>
      <trkpt lat="42.42402" lon="2.73968">
        <ele>1270.7</ele>
        <time>2018-11-26T04:53:25Z</time>
      </trkpt>
      <trkpt lat="42.42403" lon="2.73968">
        <ele>1270.6</ele>
        <time>2018-11-26T04:53:26Z</time>
      </trkpt>
      <trkpt lat="42.42404" lon="2.73968">
        <ele>1270.7</ele>
        <time>2018-11-26T04:53:26Z</time>
      </trkpt>
      <trkpt lat="42.42404" lon="2.73968">
        <ele>1270.5</ele>
        <time>2018-11-26T04:53:26Z</time>
      </trkpt>
      <trkpt lat="42.42405" lon="2.73968">
        <ele>1270.6</ele>
        <time>2018-11-26T04:53:26Z</time>
      </trkpt>
      <trkpt lat="42.42405" lon="2.73968">
        <ele>1270.5</ele>
        <time>2018-11-26T04:53:27Z</time>
      </trkpt>
      <trkpt lat="42.42406" lon="2.73969">
        <ele>1270.5</ele>
        <time>2018-11-26T04:53:27Z</time>
      </trkpt>
      <trkpt lat="42.42407" lon="2.73968">
        <ele>1270.6</ele>
        <time>2018-11-26T04:53:27Z</time>
      </trkpt>
      <trkpt lat="42.42407" lon="2.73969">
        <ele>1270.8</ele>
        <time>2018-11-26T04:53:27Z</time>
      </trkpt>
      <trkpt lat="42.42407" lon="2.73969">
        <ele>1270.9</ele>
        <time>2018-11-26T04:53:28Z</time>
      </trkpt>
      <trkpt lat="42.42408" lon="2.7397">
        <ele>1271</ele>
        <time>2018-11-26T04:53:28Z</time>
      </trkpt>
      <trkpt lat="42.42408" lon="2.73969">
        <ele>1271.2</ele>
        <time>2018-11-26T04:53:28Z</time>
      </trkpt>
      <trkpt lat="42.42408" lon="2.73969">
        <ele>1271.3</ele>
        <time>2018-11-26T04:53:28Z</time>
      </trkpt>
      <trkpt lat="42.42408" lon="2.73969">
        <ele>1271.6</ele>
        <time>2018-11-26T04:53:28Z</time>
      </trkpt>
      <trkpt lat="42.42408" lon="2.73969">
        <ele>1271.4</ele>
        <time>2018-11-26T04:53:28Z</time>
      </trkpt>
      <trkpt lat="42.42408" lon="2.7397">
        <ele>1271.1</ele>
        <time>2018-11-26T04:53:28Z</time>
      </trkpt>
      <trkpt lat="42.42408" lon="2.7397">
        <ele>1270.9</ele>
        <time>2018-11-26T04:53:28Z</time>
      </trkpt>
      <trkpt lat="42.42409" lon="2.7397">
        <ele>1270.9</ele>
        <time>2018-11-26T04:53:28Z</time>
      </trkpt>
      <trkpt lat="42.42409" lon="2.7397">
        <ele>1270.9</ele>
        <time>2018-11-26T04:53:29Z</time>
      </trkpt>
      <trkpt lat="42.42409" lon="2.7397">
        <ele>1271</ele>
        <time>2018-11-26T04:53:29Z</time>
      </trkpt>
      <trkpt lat="42.4241" lon="2.7397">
        <ele>1270.8</ele>
        <time>2018-11-26T04:53:29Z</time>
      </trkpt>
      <trkpt lat="42.4241" lon="2.7397">
        <ele>1270.6</ele>
        <time>2018-11-26T04:53:29Z</time>
      </trkpt>
      <trkpt lat="42.42411" lon="2.73969">
        <ele>1270.4</ele>
        <time>2018-11-26T04:53:29Z</time>
      </trkpt>
      <trkpt lat="42.42412" lon="2.73968">
        <ele>1270.5</ele>
        <time>2018-11-26T04:53:30Z</time>
      </trkpt>
      <trkpt lat="42.42412" lon="2.73967">
        <ele>1270.4</ele>
        <time>2018-11-26T04:53:30Z</time>
      </trkpt>
      <trkpt lat="42.42412" lon="2.73967">
        <ele>1270.4</ele>
        <time>2018-11-26T04:53:30Z</time>
      </trkpt>
      <trkpt lat="42.42412" lon="2.73967">
        <ele>1270.1</ele>
        <time>2018-11-26T04:53:30Z</time>
      </trkpt>
      <trkpt lat="42.42413" lon="2.73967">
        <ele>1270</ele>
        <time>2018-11-26T04:53:31Z</time>
      </trkpt>
      <trkpt lat="42.42413" lon="2.73968">
        <ele>1269.5</ele>
        <time>2018-11-26T04:53:31Z</time>
      </trkpt>
      <trkpt lat="42.42413" lon="2.73969">
        <ele>1269.1</ele>
        <time>2018-11-26T04:53:31Z</time>
      </trkpt>
      <trkpt lat="42.42413" lon="2.73969">
        <ele>1268.8</ele>
        <time>2018-11-26T04:53:31Z</time>
      </trkpt>
      <trkpt lat="42.42413" lon="2.7397">
        <ele>1268.5</ele>
        <time>2018-11-26T04:53:32Z</time>
      </trkpt>
      <trkpt lat="42.42414" lon="2.73971">
        <ele>1268.1</ele>
        <time>2018-11-26T04:53:32Z</time>
      </trkpt>
      <trkpt lat="42.42414" lon="2.73972">
        <ele>1268.4</ele>
        <time>2018-11-26T04:53:32Z</time>
      </trkpt>
      <trkpt lat="42.42414" lon="2.73972">
        <ele>1268.7</ele>
        <time>2018-11-26T04:53:32Z</time>
      </trkpt>
      <trkpt lat="42.42414" lon="2.73973">
        <ele>1269.2</ele>
        <time>2018-11-26T04:53:32Z</time>
      </trkpt>
      <trkpt lat="42.42414" lon="2.73973">
        <ele>1269.1</ele>
        <time>2018-11-26T04:53:33Z</time>
      </trkpt>
      <trkpt lat="42.42414" lon="2.73973">
        <ele>1268.7</ele>
        <time>2018-11-26T04:53:33Z</time>
      </trkpt>
      <trkpt lat="42.42415" lon="2.73973">
        <ele>1268.4</ele>
        <time>2018-11-26T04:53:33Z</time>
      </trkpt>
      <trkpt lat="42.42415" lon="2.73973">
        <ele>1268.4</ele>
        <time>2018-11-26T04:53:33Z</time>
      </trkpt>
      <trkpt lat="42.42415" lon="2.73973">
        <ele>1268.2</ele>
        <time>2018-11-26T04:53:33Z</time>
      </trkpt>
      <trkpt lat="42.42415" lon="2.73973">
        <ele>1268.1</ele>
        <time>2018-11-26T04:53:33Z</time>
      </trkpt>
      <trkpt lat="42.42415" lon="2.73973">
        <ele>1268.3</ele>
        <time>2018-11-26T04:53:33Z</time>
      </trkpt>
      <trkpt lat="42.42415" lon="2.73973">
        <ele>1268.3</ele>
        <time>2018-11-26T04:53:33Z</time>
      </trkpt>
      <trkpt lat="42.42415" lon="2.73973">
        <ele>1268.6</ele>
        <time>2018-11-26T04:53:33Z</time>
      </trkpt>
      <trkpt lat="42.42415" lon="2.73973">
        <ele>1268.5</ele>
        <time>2018-11-26T04:53:33Z</time>
      </trkpt>
      <trkpt lat="42.42415" lon="2.73972">
        <ele>1268.5</ele>
        <time>2018-11-26T04:53:34Z</time>
      </trkpt>
      <trkpt lat="42.42415" lon="2.73971">
        <ele>1268.4</ele>
        <time>2018-11-26T04:53:34Z</time>
      </trkpt>
      <trkpt lat="42.42415" lon="2.7397">
        <ele>1268.3</ele>
        <time>2018-11-26T04:53:34Z</time>
      </trkpt>
      <trkpt lat="42.42414" lon="2.73967">
        <ele>1266.1</ele>
        <time>2018-11-26T04:53:35Z</time>
      </trkpt>
      <trkpt lat="42.42414" lon="2.73968">
        <ele>1266</ele>
        <time>2018-11-26T04:53:35Z</time>
      </trkpt>
      <trkpt lat="42.42414" lon="2.73968">
        <ele>1265.8</ele>
        <time>2018-11-26T04:53:35Z</time>
      </trkpt>
      <trkpt lat="42.42414" lon="2.73968">
        <ele>1266.1</ele>
        <time>2018-11-26T04:53:35Z</time>
      </trkpt>
      <trkpt lat="42.42414" lon="2.73968">
        <ele>1266.2</ele>
        <time>2018-11-26T04:53:35Z</time>
      </trkpt>
      <trkpt lat="42.42415" lon="2.73968">
        <ele>1266.2</ele>
        <time>2018-11-26T04:53:35Z</time>
      </trkpt>
      <trkpt lat="42.42415" lon="2.73969">
        <ele>1266</ele>
        <time>2018-11-26T04:53:35Z</time>
      </trkpt>
      <trkpt lat="42.42415" lon="2.73969">
        <ele>1265.9</ele>
        <time>2018-11-26T04:53:36Z</time>
      </trkpt>
      <trkpt lat="42.42415" lon="2.73971">
        <ele>1267.5</ele>
        <time>2018-11-26T04:53:36Z</time>
      </trkpt>
      <trkpt lat="42.42412" lon="2.73983">
        <ele>1267.5</ele>
        <time>2018-11-26T04:53:40Z</time>
      </trkpt>
      <trkpt lat="42.42411" lon="2.73985">
        <ele>1267.6</ele>
        <time>2018-11-26T04:53:41Z</time>
      </trkpt>
      <trkpt lat="42.4241" lon="2.73987">
        <ele>1267.5</ele>
        <time>2018-11-26T04:53:42Z</time>
      </trkpt>
      <trkpt lat="42.42409" lon="2.73988">
        <ele>1267.8</ele>
        <time>2018-11-26T04:53:42Z</time>
      </trkpt>
      <trkpt lat="42.42408" lon="2.7399">
        <ele>1268.7</ele>
        <time>2018-11-26T04:53:43Z</time>
      </trkpt>
      <trkpt lat="42.42407" lon="2.73991">
        <ele>1268.7</ele>
        <time>2018-11-26T04:53:43Z</time>
      </trkpt>
      <trkpt lat="42.42406" lon="2.73993">
        <ele>1269.2</ele>
        <time>2018-11-26T04:53:44Z</time>
      </trkpt>
      <trkpt lat="42.42405" lon="2.73994">
        <ele>1269</ele>
        <time>2018-11-26T04:53:44Z</time>
      </trkpt>
      <trkpt lat="42.42405" lon="2.73996">
        <ele>1268.9</ele>
        <time>2018-11-26T04:53:45Z</time>
      </trkpt>
      <trkpt lat="42.42404" lon="2.73997">
        <ele>1268.8</ele>
        <time>2018-11-26T04:53:45Z</time>
      </trkpt>
      <trkpt lat="42.42404" lon="2.73998">
        <ele>1268.7</ele>
        <time>2018-11-26T04:53:46Z</time>
      </trkpt>
      <trkpt lat="42.42403" lon="2.73999">
        <ele>1268.5</ele>
        <time>2018-11-26T04:53:46Z</time>
      </trkpt>
      <trkpt lat="42.42402" lon="2.74004">
        <ele>1267.8</ele>
        <time>2018-11-26T04:53:47Z</time>
      </trkpt>
      <trkpt lat="42.424" lon="2.74007">
        <ele>1267.3</ele>
        <time>2018-11-26T04:53:49Z</time>
      </trkpt>
      <trkpt lat="42.42397" lon="2.7401">
        <ele>1266.5</ele>
        <time>2018-11-26T04:53:50Z</time>
      </trkpt>
      <trkpt lat="42.42396" lon="2.74011">
        <ele>1266.5</ele>
        <time>2018-11-26T04:53:50Z</time>
      </trkpt>
      <trkpt lat="42.42395" lon="2.74011">
        <ele>1266.3</ele>
        <time>2018-11-26T04:53:51Z</time>
      </trkpt>
      <trkpt lat="42.42394" lon="2.74012">
        <ele>1265.9</ele>
        <time>2018-11-26T04:53:51Z</time>
      </trkpt>
      <trkpt lat="42.42394" lon="2.74013">
        <ele>1266</ele>
        <time>2018-11-26T04:53:52Z</time>
      </trkpt>
      <trkpt lat="42.42393" lon="2.74013">
        <ele>1266.2</ele>
        <time>2018-11-26T04:53:52Z</time>
      </trkpt>
      <trkpt lat="42.42392" lon="2.74014">
        <ele>1266.4</ele>
        <time>2018-11-26T04:53:52Z</time>
      </trkpt>
      <trkpt lat="42.42392" lon="2.74015">
        <ele>1266.6</ele>
        <time>2018-11-26T04:53:53Z</time>
      </trkpt>
      <trkpt lat="42.42391" lon="2.74015">
        <ele>1266.6</ele>
        <time>2018-11-26T04:53:53Z</time>
      </trkpt>
      <trkpt lat="42.42391" lon="2.74016">
        <ele>1266.6</ele>
        <time>2018-11-26T04:53:53Z</time>
      </trkpt>
      <trkpt lat="42.4239" lon="2.74017">
        <ele>1266.6</ele>
        <time>2018-11-26T04:53:54Z</time>
      </trkpt>
      <trkpt lat="42.42389" lon="2.74018">
        <ele>1266.6</ele>
        <time>2018-11-26T04:53:54Z</time>
      </trkpt>
      <trkpt lat="42.4239" lon="2.74019">
        <ele>1266.7</ele>
        <time>2018-11-26T04:53:54Z</time>
      </trkpt>
      <trkpt lat="42.4239" lon="2.74019">
        <ele>1266.7</ele>
        <time>2018-11-26T04:53:54Z</time>
      </trkpt>
      <trkpt lat="42.4239" lon="2.74018">
        <ele>1266.7</ele>
        <time>2018-11-26T04:53:54Z</time>
      </trkpt>
      <trkpt lat="42.42389" lon="2.74019">
        <ele>1266.9</ele>
        <time>2018-11-26T04:53:54Z</time>
      </trkpt>
      <trkpt lat="42.42389" lon="2.74019">
        <ele>1267.1</ele>
        <time>2018-11-26T04:53:54Z</time>
      </trkpt>
      <trkpt lat="42.42389" lon="2.74019">
        <ele>1266.9</ele>
        <time>2018-11-26T04:53:54Z</time>
      </trkpt>
      <trkpt lat="42.42389" lon="2.74019">
        <ele>1266.8</ele>
        <time>2018-11-26T04:53:55Z</time>
      </trkpt>
      <trkpt lat="42.42389" lon="2.74019">
        <ele>1266.6</ele>
        <time>2018-11-26T04:53:55Z</time>
      </trkpt>
      <trkpt lat="42.42389" lon="2.74019">
        <ele>1266.6</ele>
        <time>2018-11-26T04:53:55Z</time>
      </trkpt>
      <trkpt lat="42.42388" lon="2.74019">
        <ele>1266.6</ele>
        <time>2018-11-26T04:53:55Z</time>
      </trkpt>
      <trkpt lat="42.42389" lon="2.7402">
        <ele>1266.5</ele>
        <time>2018-11-26T04:53:55Z</time>
      </trkpt>
      <trkpt lat="42.42389" lon="2.74021">
        <ele>1266.5</ele>
        <time>2018-11-26T04:53:55Z</time>
      </trkpt>
      <trkpt lat="42.42389" lon="2.74021">
        <ele>1266.6</ele>
        <time>2018-11-26T04:53:56Z</time>
      </trkpt>
      <trkpt lat="42.42389" lon="2.74022">
        <ele>1266.8</ele>
        <time>2018-11-26T04:53:56Z</time>
      </trkpt>
      <trkpt lat="42.42389" lon="2.74023">
        <ele>1267</ele>
        <time>2018-11-26T04:53:56Z</time>
      </trkpt>
      <trkpt lat="42.42388" lon="2.74023">
        <ele>1267</ele>
        <time>2018-11-26T04:53:56Z</time>
      </trkpt>
      <trkpt lat="42.42388" lon="2.74024">
        <ele>1267.2</ele>
        <time>2018-11-26T04:53:56Z</time>
      </trkpt>
      <trkpt lat="42.42388" lon="2.74024">
        <ele>1267.5</ele>
        <time>2018-11-26T04:53:57Z</time>
      </trkpt>
      <trkpt lat="42.42388" lon="2.74024">
        <ele>1267.3</ele>
        <time>2018-11-26T04:53:57Z</time>
      </trkpt>
      <trkpt lat="42.42388" lon="2.74024">
        <ele>1267</ele>
        <time>2018-11-26T04:53:57Z</time>
      </trkpt>
      <trkpt lat="42.42388" lon="2.74024">
        <ele>1266.6</ele>
        <time>2018-11-26T04:53:57Z</time>
      </trkpt>
      <trkpt lat="42.42387" lon="2.74024">
        <ele>1266.7</ele>
        <time>2018-11-26T04:53:57Z</time>
      </trkpt>
      <trkpt lat="42.42387" lon="2.74024">
        <ele>1266.8</ele>
        <time>2018-11-26T04:53:57Z</time>
      </trkpt>
      <trkpt lat="42.42387" lon="2.74024">
        <ele>1266.9</ele>
        <time>2018-11-26T04:53:57Z</time>
      </trkpt>
      <trkpt lat="42.42387" lon="2.74024">
        <ele>1267</ele>
        <time>2018-11-26T04:53:57Z</time>
      </trkpt>
      <trkpt lat="42.42387" lon="2.74024">
        <ele>1267.1</ele>
        <time>2018-11-26T04:53:57Z</time>
      </trkpt>
      <trkpt lat="42.42387" lon="2.74025">
        <ele>1267.3</ele>
        <time>2018-11-26T04:53:57Z</time>
      </trkpt>
      <trkpt lat="42.42387" lon="2.74026">
        <ele>1267.7</ele>
        <time>2018-11-26T04:53:57Z</time>
      </trkpt>
      <trkpt lat="42.42386" lon="2.74027">
        <ele>1267.5</ele>
        <time>2018-11-26T04:53:58Z</time>
      </trkpt>
      <trkpt lat="42.42386" lon="2.74028">
        <ele>1267.3</ele>
        <time>2018-11-26T04:53:58Z</time>
      </trkpt>
      <trkpt lat="42.42385" lon="2.74028">
        <ele>1267.2</ele>
        <time>2018-11-26T04:53:58Z</time>
      </trkpt>
      <trkpt lat="42.42385" lon="2.74028">
        <ele>1267.2</ele>
        <time>2018-11-26T04:53:58Z</time>
      </trkpt>
      <trkpt lat="42.42385" lon="2.74029">
        <ele>1267.1</ele>
        <time>2018-11-26T04:53:59Z</time>
      </trkpt>
      <trkpt lat="42.42384" lon="2.74029">
        <ele>1267.2</ele>
        <time>2018-11-26T04:53:59Z</time>
      </trkpt>
      <trkpt lat="42.42383" lon="2.74029">
        <ele>1267</ele>
        <time>2018-11-26T04:53:59Z</time>
      </trkpt>
      <trkpt lat="42.42383" lon="2.7403">
        <ele>1266.9</ele>
        <time>2018-11-26T04:54:00Z</time>
      </trkpt>
      <trkpt lat="42.42379" lon="2.74033">
        <ele>1267.1</ele>
        <time>2018-11-26T04:54:01Z</time>
      </trkpt>
      <trkpt lat="42.42379" lon="2.74034">
        <ele>1267</ele>
        <time>2018-11-26T04:54:02Z</time>
      </trkpt>
      <trkpt lat="42.42378" lon="2.74034">
        <ele>1266.9</ele>
        <time>2018-11-26T04:54:02Z</time>
      </trkpt>
      <trkpt lat="42.42377" lon="2.74035">
        <ele>1266.6</ele>
        <time>2018-11-26T04:54:02Z</time>
      </trkpt>
      <trkpt lat="42.42377" lon="2.74036">
        <ele>1266.4</ele>
        <time>2018-11-26T04:54:02Z</time>
      </trkpt>
      <trkpt lat="42.42377" lon="2.74036">
        <ele>1266.3</ele>
        <time>2018-11-26T04:54:02Z</time>
      </trkpt>
      <trkpt lat="42.42377" lon="2.74036">
        <ele>1266.1</ele>
        <time>2018-11-26T04:54:03Z</time>
      </trkpt>
      <trkpt lat="42.42377" lon="2.74036">
        <ele>1265.8</ele>
        <time>2018-11-26T04:54:03Z</time>
      </trkpt>
      <trkpt lat="42.42377" lon="2.74036">
        <ele>1265.8</ele>
        <time>2018-11-26T04:54:03Z</time>
      </trkpt>
      <trkpt lat="42.42377" lon="2.74036">
        <ele>1266</ele>
        <time>2018-11-26T04:54:03Z</time>
      </trkpt>
      <trkpt lat="42.42377" lon="2.74036">
        <ele>1266.2</ele>
        <time>2018-11-26T04:54:03Z</time>
      </trkpt>
      <trkpt lat="42.42377" lon="2.74036">
        <ele>1266</ele>
        <time>2018-11-26T04:54:03Z</time>
      </trkpt>
      <trkpt lat="42.42377" lon="2.74037">
        <ele>1265.8</ele>
        <time>2018-11-26T04:54:03Z</time>
      </trkpt>
      <trkpt lat="42.42377" lon="2.74037">
        <ele>1265.3</ele>
        <time>2018-11-26T04:54:03Z</time>
      </trkpt>
      <trkpt lat="42.42377" lon="2.74037">
        <ele>1265.2</ele>
        <time>2018-11-26T04:54:03Z</time>
      </trkpt>
      <trkpt lat="42.42377" lon="2.74037">
        <ele>1265.2</ele>
        <time>2018-11-26T04:54:03Z</time>
      </trkpt>
      <trkpt lat="42.42377" lon="2.74037">
        <ele>1265.1</ele>
        <time>2018-11-26T04:54:03Z</time>
      </trkpt>
      <trkpt lat="42.42377" lon="2.74038">
        <ele>1264.9</ele>
        <time>2018-11-26T04:54:03Z</time>
      </trkpt>
      <trkpt lat="42.42377" lon="2.74039">
        <ele>1265</ele>
        <time>2018-11-26T04:54:03Z</time>
      </trkpt>
      <trkpt lat="42.42376" lon="2.74039">
        <ele>1264.9</ele>
        <time>2018-11-26T04:54:04Z</time>
      </trkpt>
      <trkpt lat="42.42375" lon="2.74039">
        <ele>1265.1</ele>
        <time>2018-11-26T04:54:04Z</time>
      </trkpt>
      <trkpt lat="42.42374" lon="2.7404">
        <ele>1265.3</ele>
        <time>2018-11-26T04:54:04Z</time>
      </trkpt>
      <trkpt lat="42.42374" lon="2.7404">
        <ele>1265.6</ele>
        <time>2018-11-26T04:54:05Z</time>
      </trkpt>
      <trkpt lat="42.42373" lon="2.74042">
        <ele>1265</ele>
        <time>2018-11-26T04:54:05Z</time>
      </trkpt>
      <trkpt lat="42.42372" lon="2.74043">
        <ele>1264.6</ele>
        <time>2018-11-26T04:54:06Z</time>
      </trkpt>
      <trkpt lat="42.42369" lon="2.74045">
        <ele>1262.7</ele>
        <time>2018-11-26T04:54:07Z</time>
      </trkpt>
      <trkpt lat="42.42368" lon="2.74046">
        <ele>1262.7</ele>
        <time>2018-11-26T04:54:07Z</time>
      </trkpt>
      <trkpt lat="42.42368" lon="2.74046">
        <ele>1262.6</ele>
        <time>2018-11-26T04:54:08Z</time>
      </trkpt>
      <trkpt lat="42.42368" lon="2.74046">
        <ele>1262.4</ele>
        <time>2018-11-26T04:54:08Z</time>
      </trkpt>
      <trkpt lat="42.42367" lon="2.74046">
        <ele>1262.3</ele>
        <time>2018-11-26T04:54:08Z</time>
      </trkpt>
      <trkpt lat="42.42367" lon="2.74046">
        <ele>1262.1</ele>
        <time>2018-11-26T04:54:08Z</time>
      </trkpt>
      <trkpt lat="42.42366" lon="2.74046">
        <ele>1262.1</ele>
        <time>2018-11-26T04:54:08Z</time>
      </trkpt>
      <trkpt lat="42.42366" lon="2.74046">
        <ele>1262</ele>
        <time>2018-11-26T04:54:08Z</time>
      </trkpt>
      <trkpt lat="42.42366" lon="2.74046">
        <ele>1261.8</ele>
        <time>2018-11-26T04:54:09Z</time>
      </trkpt>
      <trkpt lat="42.42365" lon="2.74046">
        <ele>1261.9</ele>
        <time>2018-11-26T04:54:09Z</time>
      </trkpt>
      <trkpt lat="42.42365" lon="2.74047">
        <ele>1262.2</ele>
        <time>2018-11-26T04:54:09Z</time>
      </trkpt>
      <trkpt lat="42.42364" lon="2.74047">
        <ele>1262.3</ele>
        <time>2018-11-26T04:54:09Z</time>
      </trkpt>
      <trkpt lat="42.42363" lon="2.74047">
        <ele>1261.9</ele>
        <time>2018-11-26T04:54:10Z</time>
      </trkpt>
      <trkpt lat="42.42363" lon="2.74047">
        <ele>1261.5</ele>
        <time>2018-11-26T04:54:10Z</time>
      </trkpt>
      <trkpt lat="42.42363" lon="2.74048">
        <ele>1261.6</ele>
        <time>2018-11-26T04:54:10Z</time>
      </trkpt>
      <trkpt lat="42.42362" lon="2.74049">
        <ele>1261.5</ele>
        <time>2018-11-26T04:54:10Z</time>
      </trkpt>
      <trkpt lat="42.42362" lon="2.74049">
        <ele>1261.5</ele>
        <time>2018-11-26T04:54:10Z</time>
      </trkpt>
      <trkpt lat="42.42361" lon="2.74049">
        <ele>1261.5</ele>
        <time>2018-11-26T04:54:11Z</time>
      </trkpt>
      <trkpt lat="42.4236" lon="2.74052">
        <ele>1260.8</ele>
        <time>2018-11-26T04:54:11Z</time>
      </trkpt>
      <trkpt lat="42.4236" lon="2.74052">
        <ele>1260.7</ele>
        <time>2018-11-26T04:54:12Z</time>
      </trkpt>
      <trkpt lat="42.4236" lon="2.74053">
        <ele>1260.6</ele>
        <time>2018-11-26T04:54:12Z</time>
      </trkpt>
      <trkpt lat="42.42359" lon="2.74053">
        <ele>1260.3</ele>
        <time>2018-11-26T04:54:12Z</time>
      </trkpt>
      <trkpt lat="42.42359" lon="2.74054">
        <ele>1260.1</ele>
        <time>2018-11-26T04:54:12Z</time>
      </trkpt>
      <trkpt lat="42.42359" lon="2.74055">
        <ele>1259.8</ele>
        <time>2018-11-26T04:54:13Z</time>
      </trkpt>
      <trkpt lat="42.42358" lon="2.74055">
        <ele>1259.6</ele>
        <time>2018-11-26T04:54:13Z</time>
      </trkpt>
      <trkpt lat="42.42358" lon="2.74055">
        <ele>1259.4</ele>
        <time>2018-11-26T04:54:13Z</time>
      </trkpt>
      <trkpt lat="42.42357" lon="2.74058">
        <ele>1259.9</ele>
        <time>2018-11-26T04:54:14Z</time>
      </trkpt>
      <trkpt lat="42.42356" lon="2.74058">
        <ele>1260</ele>
        <time>2018-11-26T04:54:14Z</time>
      </trkpt>
      <trkpt lat="42.42356" lon="2.74059">
        <ele>1260.2</ele>
        <time>2018-11-26T04:54:14Z</time>
      </trkpt>
      <trkpt lat="42.42356" lon="2.74059">
        <ele>1260.2</ele>
        <time>2018-11-26T04:54:14Z</time>
      </trkpt>
      <trkpt lat="42.42356" lon="2.7406">
        <ele>1260.2</ele>
        <time>2018-11-26T04:54:15Z</time>
      </trkpt>
      <trkpt lat="42.42355" lon="2.7406">
        <ele>1259.9</ele>
        <time>2018-11-26T04:54:15Z</time>
      </trkpt>
      <trkpt lat="42.42355" lon="2.74061">
        <ele>1259.7</ele>
        <time>2018-11-26T04:54:15Z</time>
      </trkpt>
      <trkpt lat="42.42355" lon="2.74061">
        <ele>1259.4</ele>
        <time>2018-11-26T04:54:15Z</time>
      </trkpt>
      <trkpt lat="42.42354" lon="2.74062">
        <ele>1259.5</ele>
        <time>2018-11-26T04:54:16Z</time>
      </trkpt>
      <trkpt lat="42.42354" lon="2.74063">
        <ele>1259.4</ele>
        <time>2018-11-26T04:54:16Z</time>
      </trkpt>
      <trkpt lat="42.42353" lon="2.74065">
        <ele>1259</ele>
        <time>2018-11-26T04:54:16Z</time>
      </trkpt>
      <trkpt lat="42.42353" lon="2.74066">
        <ele>1258.2</ele>
        <time>2018-11-26T04:54:17Z</time>
      </trkpt>
      <trkpt lat="42.42352" lon="2.74068">
        <ele>1257.7</ele>
        <time>2018-11-26T04:54:17Z</time>
      </trkpt>
      <trkpt lat="42.42351" lon="2.7407">
        <ele>1257.2</ele>
        <time>2018-11-26T04:54:18Z</time>
      </trkpt>
      <trkpt lat="42.42351" lon="2.74071">
        <ele>1256.7</ele>
        <time>2018-11-26T04:54:19Z</time>
      </trkpt>
      <trkpt lat="42.4235" lon="2.74071">
        <ele>1256.5</ele>
        <time>2018-11-26T04:54:19Z</time>
      </trkpt>
      <trkpt lat="42.4235" lon="2.74072">
        <ele>1256.2</ele>
        <time>2018-11-26T04:54:19Z</time>
      </trkpt>
      <trkpt lat="42.4235" lon="2.74073">
        <ele>1255.9</ele>
        <time>2018-11-26T04:54:19Z</time>
      </trkpt>
      <trkpt lat="42.42349" lon="2.74073">
        <ele>1255.7</ele>
        <time>2018-11-26T04:54:19Z</time>
      </trkpt>
      <trkpt lat="42.42349" lon="2.74074">
        <ele>1255.6</ele>
        <time>2018-11-26T04:54:20Z</time>
      </trkpt>
      <trkpt lat="42.42349" lon="2.74074">
        <ele>1255.4</ele>
        <time>2018-11-26T04:54:20Z</time>
      </trkpt>
      <trkpt lat="42.42348" lon="2.74078">
        <ele>1255.7</ele>
        <time>2018-11-26T04:54:21Z</time>
      </trkpt>
      <trkpt lat="42.42348" lon="2.74078">
        <ele>1255.6</ele>
        <time>2018-11-26T04:54:21Z</time>
      </trkpt>
      <trkpt lat="42.42348" lon="2.74079">
        <ele>1255.5</ele>
        <time>2018-11-26T04:54:21Z</time>
      </trkpt>
      <trkpt lat="42.42347" lon="2.74079">
        <ele>1255.3</ele>
        <time>2018-11-26T04:54:21Z</time>
      </trkpt>
      <trkpt lat="42.42347" lon="2.7408">
        <ele>1255</ele>
        <time>2018-11-26T04:54:22Z</time>
      </trkpt>
      <trkpt lat="42.42348" lon="2.7408">
        <ele>1254.8</ele>
        <time>2018-11-26T04:54:22Z</time>
      </trkpt>
      <trkpt lat="42.42347" lon="2.74081">
        <ele>1254.5</ele>
        <time>2018-11-26T04:54:22Z</time>
      </trkpt>
      <trkpt lat="42.42347" lon="2.74082">
        <ele>1254.4</ele>
        <time>2018-11-26T04:54:22Z</time>
      </trkpt>
      <trkpt lat="42.42347" lon="2.74082">
        <ele>1253.9</ele>
        <time>2018-11-26T04:54:22Z</time>
      </trkpt>
      <trkpt lat="42.42347" lon="2.74082">
        <ele>1253.8</ele>
        <time>2018-11-26T04:54:23Z</time>
      </trkpt>
      <trkpt lat="42.42346" lon="2.74084">
        <ele>1253.5</ele>
        <time>2018-11-26T04:54:23Z</time>
      </trkpt>
      <trkpt lat="42.42346" lon="2.74085">
        <ele>1253.5</ele>
        <time>2018-11-26T04:54:23Z</time>
      </trkpt>
      <trkpt lat="42.42346" lon="2.74086">
        <ele>1253.8</ele>
        <time>2018-11-26T04:54:24Z</time>
      </trkpt>
      <trkpt lat="42.42346" lon="2.74087">
        <ele>1253.4</ele>
        <time>2018-11-26T04:54:24Z</time>
      </trkpt>
      <trkpt lat="42.42346" lon="2.74089">
        <ele>1252.7</ele>
        <time>2018-11-26T04:54:25Z</time>
      </trkpt>
      <trkpt lat="42.42345" lon="2.7409">
        <ele>1252.5</ele>
        <time>2018-11-26T04:54:25Z</time>
      </trkpt>
      <trkpt lat="42.42345" lon="2.74091">
        <ele>1252.2</ele>
        <time>2018-11-26T04:54:25Z</time>
      </trkpt>
      <trkpt lat="42.42345" lon="2.74093">
        <ele>1252.3</ele>
        <time>2018-11-26T04:54:26Z</time>
      </trkpt>
      <trkpt lat="42.42345" lon="2.74094">
        <ele>1252.5</ele>
        <time>2018-11-26T04:54:26Z</time>
      </trkpt>
      <trkpt lat="42.42345" lon="2.74098">
        <ele>1250.7</ele>
        <time>2018-11-26T04:54:27Z</time>
      </trkpt>
      <trkpt lat="42.42344" lon="2.74099">
        <ele>1250.6</ele>
        <time>2018-11-26T04:54:28Z</time>
      </trkpt>
      <trkpt lat="42.42344" lon="2.74101">
        <ele>1250.6</ele>
        <time>2018-11-26T04:54:28Z</time>
      </trkpt>
      <trkpt lat="42.42344" lon="2.74102">
        <ele>1250.5</ele>
        <time>2018-11-26T04:54:29Z</time>
      </trkpt>
      <trkpt lat="42.42344" lon="2.74105">
        <ele>1250.6</ele>
        <time>2018-11-26T04:54:29Z</time>
      </trkpt>
      <trkpt lat="42.42344" lon="2.74105">
        <ele>1250.7</ele>
        <time>2018-11-26T04:54:30Z</time>
      </trkpt>
      <trkpt lat="42.42344" lon="2.74107">
        <ele>1251.1</ele>
        <time>2018-11-26T04:54:30Z</time>
      </trkpt>
      <trkpt lat="42.42344" lon="2.74108">
        <ele>1251.2</ele>
        <time>2018-11-26T04:54:30Z</time>
      </trkpt>
      <trkpt lat="42.42344" lon="2.7411">
        <ele>1251.3</ele>
        <time>2018-11-26T04:54:31Z</time>
      </trkpt>
      <trkpt lat="42.42344" lon="2.74111">
        <ele>1250.7</ele>
        <time>2018-11-26T04:54:31Z</time>
      </trkpt>
      <trkpt lat="42.42343" lon="2.74112">
        <ele>1250.3</ele>
        <time>2018-11-26T04:54:32Z</time>
      </trkpt>
      <trkpt lat="42.42343" lon="2.74113">
        <ele>1250.7</ele>
        <time>2018-11-26T04:54:32Z</time>
      </trkpt>
      <trkpt lat="42.42343" lon="2.74115">
        <ele>1251.6</ele>
        <time>2018-11-26T04:54:32Z</time>
      </trkpt>
      <trkpt lat="42.42343" lon="2.74116">
        <ele>1251.5</ele>
        <time>2018-11-26T04:54:33Z</time>
      </trkpt>
      <trkpt lat="42.42343" lon="2.74117">
        <ele>1251.3</ele>
        <time>2018-11-26T04:54:33Z</time>
      </trkpt>
      <trkpt lat="42.42343" lon="2.74118">
        <ele>1251.1</ele>
        <time>2018-11-26T04:54:33Z</time>
      </trkpt>
      <trkpt lat="42.42343" lon="2.74118">
        <ele>1250.5</ele>
        <time>2018-11-26T04:54:33Z</time>
      </trkpt>
      <trkpt lat="42.42342" lon="2.74119">
        <ele>1248.8</ele>
        <time>2018-11-26T04:54:34Z</time>
      </trkpt>
      <trkpt lat="42.42342" lon="2.74121">
        <ele>1249</ele>
        <time>2018-11-26T04:54:34Z</time>
      </trkpt>
      <trkpt lat="42.42342" lon="2.74121">
        <ele>1249</ele>
        <time>2018-11-26T04:54:34Z</time>
      </trkpt>
      <trkpt lat="42.42342" lon="2.74122">
        <ele>1249.2</ele>
        <time>2018-11-26T04:54:35Z</time>
      </trkpt>
      <trkpt lat="42.42341" lon="2.74122">
        <ele>1248.8</ele>
        <time>2018-11-26T04:54:35Z</time>
      </trkpt>
      <trkpt lat="42.42341" lon="2.74122">
        <ele>1248.2</ele>
        <time>2018-11-26T04:54:35Z</time>
      </trkpt>
      <trkpt lat="42.42341" lon="2.74123">
        <ele>1247.4</ele>
        <time>2018-11-26T04:54:35Z</time>
      </trkpt>
      <trkpt lat="42.4234" lon="2.74123">
        <ele>1247.3</ele>
        <time>2018-11-26T04:54:35Z</time>
      </trkpt>
      <trkpt lat="42.4234" lon="2.74123">
        <ele>1247.3</ele>
        <time>2018-11-26T04:54:35Z</time>
      </trkpt>
      <trkpt lat="42.42339" lon="2.74124">
        <ele>1247.2</ele>
        <time>2018-11-26T04:54:36Z</time>
      </trkpt>
      <trkpt lat="42.42339" lon="2.74124">
        <ele>1247.3</ele>
        <time>2018-11-26T04:54:36Z</time>
      </trkpt>
      <trkpt lat="42.42339" lon="2.74125">
        <ele>1247.4</ele>
        <time>2018-11-26T04:54:36Z</time>
      </trkpt>
      <trkpt lat="42.42339" lon="2.74126">
        <ele>1247.6</ele>
        <time>2018-11-26T04:54:36Z</time>
      </trkpt>
      <trkpt lat="42.42338" lon="2.74127">
        <ele>1247.3</ele>
        <time>2018-11-26T04:54:37Z</time>
      </trkpt>
      <trkpt lat="42.42338" lon="2.74128">
        <ele>1247.1</ele>
        <time>2018-11-26T04:54:37Z</time>
      </trkpt>
      <trkpt lat="42.42337" lon="2.74128">
        <ele>1247.3</ele>
        <time>2018-11-26T04:54:37Z</time>
      </trkpt>
      <trkpt lat="42.42337" lon="2.74129">
        <ele>1247.2</ele>
        <time>2018-11-26T04:54:38Z</time>
      </trkpt>
      <trkpt lat="42.42337" lon="2.7413">
        <ele>1247.3</ele>
        <time>2018-11-26T04:54:38Z</time>
      </trkpt>
      <trkpt lat="42.42337" lon="2.74131">
        <ele>1247.5</ele>
        <time>2018-11-26T04:54:38Z</time>
      </trkpt>
      <trkpt lat="42.42337" lon="2.74133">
        <ele>1246.8</ele>
        <time>2018-11-26T04:54:39Z</time>
      </trkpt>
      <trkpt lat="42.42337" lon="2.74134">
        <ele>1246.8</ele>
        <time>2018-11-26T04:54:39Z</time>
      </trkpt>
      <trkpt lat="42.42336" lon="2.74134">
        <ele>1247</ele>
        <time>2018-11-26T04:54:39Z</time>
      </trkpt>
      <trkpt lat="42.42336" lon="2.74136">
        <ele>1246.6</ele>
        <time>2018-11-26T04:54:40Z</time>
      </trkpt>
      <trkpt lat="42.42336" lon="2.74137">
        <ele>1246.3</ele>
        <time>2018-11-26T04:54:40Z</time>
      </trkpt>
      <trkpt lat="42.42336" lon="2.74138">
        <ele>1245.8</ele>
        <time>2018-11-26T04:54:40Z</time>
      </trkpt>
      <trkpt lat="42.42335" lon="2.74139">
        <ele>1245.6</ele>
        <time>2018-11-26T04:54:41Z</time>
      </trkpt>
      <trkpt lat="42.42335" lon="2.7414">
        <ele>1245.7</ele>
        <time>2018-11-26T04:54:41Z</time>
      </trkpt>
      <trkpt lat="42.42334" lon="2.7414">
        <ele>1245.7</ele>
        <time>2018-11-26T04:54:41Z</time>
      </trkpt>
      <trkpt lat="42.42334" lon="2.74141">
        <ele>1245.9</ele>
        <time>2018-11-26T04:54:42Z</time>
      </trkpt>
      <trkpt lat="42.42334" lon="2.74142">
        <ele>1245.7</ele>
        <time>2018-11-26T04:54:42Z</time>
      </trkpt>
      <trkpt lat="42.42334" lon="2.74143">
        <ele>1245.4</ele>
        <time>2018-11-26T04:54:42Z</time>
      </trkpt>
      <trkpt lat="42.42334" lon="2.74144">
        <ele>1244.9</ele>
        <time>2018-11-26T04:54:42Z</time>
      </trkpt>
      <trkpt lat="42.42334" lon="2.74144">
        <ele>1244.6</ele>
        <time>2018-11-26T04:54:43Z</time>
      </trkpt>
      <trkpt lat="42.42334" lon="2.74145">
        <ele>1244.3</ele>
        <time>2018-11-26T04:54:43Z</time>
      </trkpt>
      <trkpt lat="42.42333" lon="2.74145">
        <ele>1243.9</ele>
        <time>2018-11-26T04:54:43Z</time>
      </trkpt>
      <trkpt lat="42.42332" lon="2.74146">
        <ele>1243.7</ele>
        <time>2018-11-26T04:54:44Z</time>
      </trkpt>
      <trkpt lat="42.42332" lon="2.74146">
        <ele>1243.5</ele>
        <time>2018-11-26T04:54:44Z</time>
      </trkpt>
      <trkpt lat="42.42332" lon="2.74147">
        <ele>1243.4</ele>
        <time>2018-11-26T04:54:44Z</time>
      </trkpt>
      <trkpt lat="42.42332" lon="2.74148">
        <ele>1242.9</ele>
        <time>2018-11-26T04:54:44Z</time>
      </trkpt>
      <trkpt lat="42.42332" lon="2.74148">
        <ele>1243</ele>
        <time>2018-11-26T04:54:44Z</time>
      </trkpt>
      <trkpt lat="42.42332" lon="2.74149">
        <ele>1243</ele>
        <time>2018-11-26T04:54:45Z</time>
      </trkpt>
      <trkpt lat="42.42331" lon="2.74151">
        <ele>1241.8</ele>
        <time>2018-11-26T04:54:45Z</time>
      </trkpt>
      <trkpt lat="42.42331" lon="2.74152">
        <ele>1241.1</ele>
        <time>2018-11-26T04:54:46Z</time>
      </trkpt>
      <trkpt lat="42.4233" lon="2.74152">
        <ele>1241.1</ele>
        <time>2018-11-26T04:54:46Z</time>
      </trkpt>
      <trkpt lat="42.4233" lon="2.74153">
        <ele>1241.2</ele>
        <time>2018-11-26T04:54:46Z</time>
      </trkpt>
      <trkpt lat="42.42329" lon="2.74153">
        <ele>1241</ele>
        <time>2018-11-26T04:54:46Z</time>
      </trkpt>
      <trkpt lat="42.42328" lon="2.74153">
        <ele>1240.9</ele>
        <time>2018-11-26T04:54:47Z</time>
      </trkpt>
      <trkpt lat="42.42328" lon="2.74153">
        <ele>1240.6</ele>
        <time>2018-11-26T04:54:47Z</time>
      </trkpt>
      <trkpt lat="42.42327" lon="2.74154">
        <ele>1240.5</ele>
        <time>2018-11-26T04:54:47Z</time>
      </trkpt>
      <trkpt lat="42.42326" lon="2.74154">
        <ele>1240.4</ele>
        <time>2018-11-26T04:54:47Z</time>
      </trkpt>
      <trkpt lat="42.42326" lon="2.74154">
        <ele>1240.5</ele>
        <time>2018-11-26T04:54:48Z</time>
      </trkpt>
      <trkpt lat="42.42325" lon="2.74155">
        <ele>1240.5</ele>
        <time>2018-11-26T04:54:48Z</time>
      </trkpt>
      <trkpt lat="42.42325" lon="2.74158">
        <ele>1240.2</ele>
        <time>2018-11-26T04:54:49Z</time>
      </trkpt>
      <trkpt lat="42.42325" lon="2.74158">
        <ele>1240.1</ele>
        <time>2018-11-26T04:54:49Z</time>
      </trkpt>
      <trkpt lat="42.42324" lon="2.74159">
        <ele>1240</ele>
        <time>2018-11-26T04:54:49Z</time>
      </trkpt>
      <trkpt lat="42.42324" lon="2.74159">
        <ele>1240</ele>
        <time>2018-11-26T04:54:50Z</time>
      </trkpt>
      <trkpt lat="42.42324" lon="2.7416">
        <ele>1239.6</ele>
        <time>2018-11-26T04:54:50Z</time>
      </trkpt>
      <trkpt lat="42.42323" lon="2.74161">
        <ele>1239.3</ele>
        <time>2018-11-26T04:54:50Z</time>
      </trkpt>
      <trkpt lat="42.42323" lon="2.74162">
        <ele>1238.6</ele>
        <time>2018-11-26T04:54:50Z</time>
      </trkpt>
      <trkpt lat="42.42323" lon="2.74163">
        <ele>1238.5</ele>
        <time>2018-11-26T04:54:51Z</time>
      </trkpt>
      <trkpt lat="42.42322" lon="2.74164">
        <ele>1238.1</ele>
        <time>2018-11-26T04:54:51Z</time>
      </trkpt>
      <trkpt lat="42.42322" lon="2.74165">
        <ele>1237.8</ele>
        <time>2018-11-26T04:54:51Z</time>
      </trkpt>
      <trkpt lat="42.42322" lon="2.74166">
        <ele>1237.7</ele>
        <time>2018-11-26T04:54:52Z</time>
      </trkpt>
      <trkpt lat="42.42321" lon="2.74167">
        <ele>1237.6</ele>
        <time>2018-11-26T04:54:52Z</time>
      </trkpt>
      <trkpt lat="42.42321" lon="2.74168">
        <ele>1237.6</ele>
        <time>2018-11-26T04:54:52Z</time>
      </trkpt>
      <trkpt lat="42.42321" lon="2.74169">
        <ele>1237.4</ele>
        <time>2018-11-26T04:54:53Z</time>
      </trkpt>
      <trkpt lat="42.42321" lon="2.7417">
        <ele>1237.2</ele>
        <time>2018-11-26T04:54:53Z</time>
      </trkpt>
      <trkpt lat="42.42321" lon="2.74171">
        <ele>1237</ele>
        <time>2018-11-26T04:54:53Z</time>
      </trkpt>
      <trkpt lat="42.42321" lon="2.74173">
        <ele>1236.6</ele>
        <time>2018-11-26T04:54:54Z</time>
      </trkpt>
      <trkpt lat="42.42321" lon="2.74174">
        <ele>1236.8</ele>
        <time>2018-11-26T04:54:54Z</time>
      </trkpt>
      <trkpt lat="42.42321" lon="2.74175">
        <ele>1237.1</ele>
        <time>2018-11-26T04:54:54Z</time>
      </trkpt>
      <trkpt lat="42.42321" lon="2.74176">
        <ele>1237.6</ele>
        <time>2018-11-26T04:54:55Z</time>
      </trkpt>
      <trkpt lat="42.42321" lon="2.74178">
        <ele>1237.3</ele>
        <time>2018-11-26T04:54:55Z</time>
      </trkpt>
      <trkpt lat="42.42321" lon="2.74179">
        <ele>1237.1</ele>
        <time>2018-11-26T04:54:56Z</time>
      </trkpt>
      <trkpt lat="42.42321" lon="2.7418">
        <ele>1236.8</ele>
        <time>2018-11-26T04:54:56Z</time>
      </trkpt>
      <trkpt lat="42.42321" lon="2.74182">
        <ele>1236.5</ele>
        <time>2018-11-26T04:54:57Z</time>
      </trkpt>
      <trkpt lat="42.42321" lon="2.74187">
        <ele>1235.5</ele>
        <time>2018-11-26T04:54:58Z</time>
      </trkpt>
      <trkpt lat="42.42321" lon="2.74188">
        <ele>1235.6</ele>
        <time>2018-11-26T04:54:58Z</time>
      </trkpt>
      <trkpt lat="42.4232" lon="2.74188">
        <ele>1235.3</ele>
        <time>2018-11-26T04:54:59Z</time>
      </trkpt>
      <trkpt lat="42.42319" lon="2.74189">
        <ele>1235.2</ele>
        <time>2018-11-26T04:54:59Z</time>
      </trkpt>
      <trkpt lat="42.42319" lon="2.7419">
        <ele>1234.8</ele>
        <time>2018-11-26T04:54:59Z</time>
      </trkpt>
      <trkpt lat="42.42318" lon="2.7419">
        <ele>1234.9</ele>
        <time>2018-11-26T04:54:59Z</time>
      </trkpt>
      <trkpt lat="42.42318" lon="2.74191">
        <ele>1234.8</ele>
        <time>2018-11-26T04:55:00Z</time>
      </trkpt>
      <trkpt lat="42.42317" lon="2.74192">
        <ele>1234.9</ele>
        <time>2018-11-26T04:55:00Z</time>
      </trkpt>
      <trkpt lat="42.42317" lon="2.74192">
        <ele>1234.9</ele>
        <time>2018-11-26T04:55:00Z</time>
      </trkpt>
      <trkpt lat="42.42316" lon="2.74192">
        <ele>1234.7</ele>
        <time>2018-11-26T04:55:01Z</time>
      </trkpt>
      <trkpt lat="42.42316" lon="2.74193">
        <ele>1234.3</ele>
        <time>2018-11-26T04:55:01Z</time>
      </trkpt>
      <trkpt lat="42.42316" lon="2.74194">
        <ele>1233.9</ele>
        <time>2018-11-26T04:55:01Z</time>
      </trkpt>
      <trkpt lat="42.42315" lon="2.74194">
        <ele>1233.8</ele>
        <time>2018-11-26T04:55:02Z</time>
      </trkpt>
      <trkpt lat="42.42315" lon="2.74195">
        <ele>1233.7</ele>
        <time>2018-11-26T04:55:02Z</time>
      </trkpt>
      <trkpt lat="42.42314" lon="2.74195">
        <ele>1233.8</ele>
        <time>2018-11-26T04:55:02Z</time>
      </trkpt>
      <trkpt lat="42.42314" lon="2.74195">
        <ele>1233.8</ele>
        <time>2018-11-26T04:55:02Z</time>
      </trkpt>
      <trkpt lat="42.42314" lon="2.74196">
        <ele>1233.5</ele>
        <time>2018-11-26T04:55:02Z</time>
      </trkpt>
      <trkpt lat="42.42314" lon="2.74196">
        <ele>1233.2</ele>
        <time>2018-11-26T04:55:02Z</time>
      </trkpt>
      <trkpt lat="42.42313" lon="2.74197">
        <ele>1232.9</ele>
        <time>2018-11-26T04:55:03Z</time>
      </trkpt>
      <trkpt lat="42.42313" lon="2.74198">
        <ele>1233</ele>
        <time>2018-11-26T04:55:03Z</time>
      </trkpt>
      <trkpt lat="42.42312" lon="2.74198">
        <ele>1233.2</ele>
        <time>2018-11-26T04:55:03Z</time>
      </trkpt>
      <trkpt lat="42.42312" lon="2.74198">
        <ele>1233.4</ele>
        <time>2018-11-26T04:55:03Z</time>
      </trkpt>
      <trkpt lat="42.42312" lon="2.74198">
        <ele>1233.7</ele>
        <time>2018-11-26T04:55:03Z</time>
      </trkpt>
      <trkpt lat="42.42311" lon="2.74198">
        <ele>1233.7</ele>
        <time>2018-11-26T04:55:04Z</time>
      </trkpt>
      <trkpt lat="42.42311" lon="2.74198">
        <ele>1233.7</ele>
        <time>2018-11-26T04:55:04Z</time>
      </trkpt>
      <trkpt lat="42.42311" lon="2.74198">
        <ele>1233.5</ele>
        <time>2018-11-26T04:55:04Z</time>
      </trkpt>
      <trkpt lat="42.42311" lon="2.74199">
        <ele>1233.3</ele>
        <time>2018-11-26T04:55:04Z</time>
      </trkpt>
      <trkpt lat="42.42311" lon="2.74199">
        <ele>1233.2</ele>
        <time>2018-11-26T04:55:04Z</time>
      </trkpt>
      <trkpt lat="42.42311" lon="2.742">
        <ele>1233</ele>
        <time>2018-11-26T04:55:04Z</time>
      </trkpt>
      <trkpt lat="42.42311" lon="2.74201">
        <ele>1233.1</ele>
        <time>2018-11-26T04:55:05Z</time>
      </trkpt>
      <trkpt lat="42.42311" lon="2.74202">
        <ele>1233.2</ele>
        <time>2018-11-26T04:55:05Z</time>
      </trkpt>
      <trkpt lat="42.42312" lon="2.74204">
        <ele>1233.2</ele>
        <time>2018-11-26T04:55:05Z</time>
      </trkpt>
      <trkpt lat="42.42312" lon="2.74205">
        <ele>1232.9</ele>
        <time>2018-11-26T04:55:06Z</time>
      </trkpt>
      <trkpt lat="42.42312" lon="2.74206">
        <ele>1232.7</ele>
        <time>2018-11-26T04:55:06Z</time>
      </trkpt>
      <trkpt lat="42.42312" lon="2.74207">
        <ele>1232.3</ele>
        <time>2018-11-26T04:55:06Z</time>
      </trkpt>
      <trkpt lat="42.42312" lon="2.74208">
        <ele>1232.3</ele>
        <time>2018-11-26T04:55:07Z</time>
      </trkpt>
      <trkpt lat="42.42312" lon="2.74209">
        <ele>1232.2</ele>
        <time>2018-11-26T04:55:07Z</time>
      </trkpt>
      <trkpt lat="42.42312" lon="2.7421">
        <ele>1232.2</ele>
        <time>2018-11-26T04:55:07Z</time>
      </trkpt>
      <trkpt lat="42.42312" lon="2.74211">
        <ele>1232.3</ele>
        <time>2018-11-26T04:55:08Z</time>
      </trkpt>
      <trkpt lat="42.42312" lon="2.74212">
        <ele>1231.9</ele>
        <time>2018-11-26T04:55:08Z</time>
      </trkpt>
      <trkpt lat="42.42312" lon="2.74213">
        <ele>1231.6</ele>
        <time>2018-11-26T04:55:08Z</time>
      </trkpt>
      <trkpt lat="42.42312" lon="2.74214">
        <ele>1231.1</ele>
        <time>2018-11-26T04:55:09Z</time>
      </trkpt>
      <trkpt lat="42.42312" lon="2.74214">
        <ele>1231.1</ele>
        <time>2018-11-26T04:55:09Z</time>
      </trkpt>
      <trkpt lat="42.42312" lon="2.74215">
        <ele>1231.1</ele>
        <time>2018-11-26T04:55:09Z</time>
      </trkpt>
      <trkpt lat="42.42312" lon="2.74216">
        <ele>1231</ele>
        <time>2018-11-26T04:55:09Z</time>
      </trkpt>
      <trkpt lat="42.42312" lon="2.74217">
        <ele>1231</ele>
        <time>2018-11-26T04:55:09Z</time>
      </trkpt>
      <trkpt lat="42.42311" lon="2.74218">
        <ele>1230.9</ele>
        <time>2018-11-26T04:55:10Z</time>
      </trkpt>
      <trkpt lat="42.42311" lon="2.74219">
        <ele>1230.8</ele>
        <time>2018-11-26T04:55:10Z</time>
      </trkpt>
      <trkpt lat="42.42312" lon="2.74219">
        <ele>1230.8</ele>
        <time>2018-11-26T04:55:10Z</time>
      </trkpt>
      <trkpt lat="42.42312" lon="2.7422">
        <ele>1230.9</ele>
        <time>2018-11-26T04:55:10Z</time>
      </trkpt>
      <trkpt lat="42.42312" lon="2.74221">
        <ele>1231.1</ele>
        <time>2018-11-26T04:55:10Z</time>
      </trkpt>
      <trkpt lat="42.42312" lon="2.74221">
        <ele>1231</ele>
        <time>2018-11-26T04:55:11Z</time>
      </trkpt>
      <trkpt lat="42.42312" lon="2.74222">
        <ele>1230.8</ele>
        <time>2018-11-26T04:55:11Z</time>
      </trkpt>
      <trkpt lat="42.42312" lon="2.74223">
        <ele>1230.6</ele>
        <time>2018-11-26T04:55:11Z</time>
      </trkpt>
      <trkpt lat="42.42312" lon="2.74224">
        <ele>1230.2</ele>
        <time>2018-11-26T04:55:11Z</time>
      </trkpt>
      <trkpt lat="42.42312" lon="2.74225">
        <ele>1229.8</ele>
        <time>2018-11-26T04:55:12Z</time>
      </trkpt>
      <trkpt lat="42.42312" lon="2.74226">
        <ele>1229.1</ele>
        <time>2018-11-26T04:55:12Z</time>
      </trkpt>
      <trkpt lat="42.42311" lon="2.74226">
        <ele>1228.3</ele>
        <time>2018-11-26T04:55:12Z</time>
      </trkpt>
      <trkpt lat="42.42311" lon="2.74227">
        <ele>1228.3</ele>
        <time>2018-11-26T04:55:13Z</time>
      </trkpt>
      <trkpt lat="42.42311" lon="2.74228">
        <ele>1228.2</ele>
        <time>2018-11-26T04:55:13Z</time>
      </trkpt>
      <trkpt lat="42.42311" lon="2.74229">
        <ele>1228.2</ele>
        <time>2018-11-26T04:55:13Z</time>
      </trkpt>
      <trkpt lat="42.42311" lon="2.7423">
        <ele>1228.1</ele>
        <time>2018-11-26T04:55:13Z</time>
      </trkpt>
      <trkpt lat="42.42311" lon="2.74231">
        <ele>1227.9</ele>
        <time>2018-11-26T04:55:14Z</time>
      </trkpt>
      <trkpt lat="42.42311" lon="2.74233">
        <ele>1227.8</ele>
        <time>2018-11-26T04:55:14Z</time>
      </trkpt>
      <trkpt lat="42.4231" lon="2.74237">
        <ele>1227.3</ele>
        <time>2018-11-26T04:55:15Z</time>
      </trkpt>
      <trkpt lat="42.4231" lon="2.74238">
        <ele>1227.4</ele>
        <time>2018-11-26T04:55:16Z</time>
      </trkpt>
      <trkpt lat="42.4231" lon="2.74239">
        <ele>1227.2</ele>
        <time>2018-11-26T04:55:16Z</time>
      </trkpt>
      <trkpt lat="42.4231" lon="2.7424">
        <ele>1227</ele>
        <time>2018-11-26T04:55:16Z</time>
      </trkpt>
      <trkpt lat="42.4231" lon="2.74241">
        <ele>1226.9</ele>
        <time>2018-11-26T04:55:17Z</time>
      </trkpt>
      <trkpt lat="42.42309" lon="2.74242">
        <ele>1226.9</ele>
        <time>2018-11-26T04:55:17Z</time>
      </trkpt>
      <trkpt lat="42.42309" lon="2.74243">
        <ele>1226.8</ele>
        <time>2018-11-26T04:55:17Z</time>
      </trkpt>
      <trkpt lat="42.42309" lon="2.74244">
        <ele>1226.7</ele>
        <time>2018-11-26T04:55:18Z</time>
      </trkpt>
      <trkpt lat="42.42309" lon="2.74245">
        <ele>1226.6</ele>
        <time>2018-11-26T04:55:18Z</time>
      </trkpt>
      <trkpt lat="42.42309" lon="2.74246">
        <ele>1226.6</ele>
        <time>2018-11-26T04:55:18Z</time>
      </trkpt>
      <trkpt lat="42.42309" lon="2.74247">
        <ele>1226.4</ele>
        <time>2018-11-26T04:55:19Z</time>
      </trkpt>
      <trkpt lat="42.4231" lon="2.74248">
        <ele>1226.4</ele>
        <time>2018-11-26T04:55:19Z</time>
      </trkpt>
      <trkpt lat="42.42309" lon="2.74249">
        <ele>1226.1</ele>
        <time>2018-11-26T04:55:19Z</time>
      </trkpt>
      <trkpt lat="42.42309" lon="2.7425">
        <ele>1225.8</ele>
        <time>2018-11-26T04:55:19Z</time>
      </trkpt>
      <trkpt lat="42.42309" lon="2.74251">
        <ele>1225.7</ele>
        <time>2018-11-26T04:55:20Z</time>
      </trkpt>
      <trkpt lat="42.42309" lon="2.74252">
        <ele>1225.5</ele>
        <time>2018-11-26T04:55:20Z</time>
      </trkpt>
      <trkpt lat="42.42308" lon="2.74252">
        <ele>1225.2</ele>
        <time>2018-11-26T04:55:20Z</time>
      </trkpt>
      <trkpt lat="42.42308" lon="2.74253">
        <ele>1224.8</ele>
        <time>2018-11-26T04:55:20Z</time>
      </trkpt>
      <trkpt lat="42.42308" lon="2.74254">
        <ele>1224.3</ele>
        <time>2018-11-26T04:55:21Z</time>
      </trkpt>
      <trkpt lat="42.42308" lon="2.74255">
        <ele>1223.5</ele>
        <time>2018-11-26T04:55:21Z</time>
      </trkpt>
      <trkpt lat="42.42308" lon="2.74255">
        <ele>1223.7</ele>
        <time>2018-11-26T04:55:21Z</time>
      </trkpt>
      <trkpt lat="42.42307" lon="2.74256">
        <ele>1223.9</ele>
        <time>2018-11-26T04:55:21Z</time>
      </trkpt>
      <trkpt lat="42.42308" lon="2.74257">
        <ele>1224.1</ele>
        <time>2018-11-26T04:55:22Z</time>
      </trkpt>
      <trkpt lat="42.42308" lon="2.74257">
        <ele>1224.4</ele>
        <time>2018-11-26T04:55:22Z</time>
      </trkpt>
      <trkpt lat="42.42308" lon="2.74258">
        <ele>1224.3</ele>
        <time>2018-11-26T04:55:22Z</time>
      </trkpt>
      <trkpt lat="42.42308" lon="2.74259">
        <ele>1224.1</ele>
        <time>2018-11-26T04:55:22Z</time>
      </trkpt>
      <trkpt lat="42.42308" lon="2.7426">
        <ele>1223.9</ele>
        <time>2018-11-26T04:55:23Z</time>
      </trkpt>
      <trkpt lat="42.42308" lon="2.74261">
        <ele>1223.8</ele>
        <time>2018-11-26T04:55:23Z</time>
      </trkpt>
      <trkpt lat="42.42307" lon="2.74262">
        <ele>1223.6</ele>
        <time>2018-11-26T04:55:23Z</time>
      </trkpt>
      <trkpt lat="42.42308" lon="2.74265">
        <ele>1223.6</ele>
        <time>2018-11-26T04:55:24Z</time>
      </trkpt>
      <trkpt lat="42.42307" lon="2.74266">
        <ele>1223.5</ele>
        <time>2018-11-26T04:55:24Z</time>
      </trkpt>
      <trkpt lat="42.42308" lon="2.74267">
        <ele>1223.4</ele>
        <time>2018-11-26T04:55:25Z</time>
      </trkpt>
      <trkpt lat="42.42307" lon="2.74267">
        <ele>1223.1</ele>
        <time>2018-11-26T04:55:25Z</time>
      </trkpt>
      <trkpt lat="42.42307" lon="2.74268">
        <ele>1223</ele>
        <time>2018-11-26T04:55:25Z</time>
      </trkpt>
      <trkpt lat="42.42306" lon="2.74269">
        <ele>1222.8</ele>
        <time>2018-11-26T04:55:25Z</time>
      </trkpt>
      <trkpt lat="42.42306" lon="2.7427">
        <ele>1222.6</ele>
        <time>2018-11-26T04:55:26Z</time>
      </trkpt>
      <trkpt lat="42.42306" lon="2.74271">
        <ele>1222.5</ele>
        <time>2018-11-26T04:55:26Z</time>
      </trkpt>
      <trkpt lat="42.42306" lon="2.74271">
        <ele>1222.5</ele>
        <time>2018-11-26T04:55:26Z</time>
      </trkpt>
      <trkpt lat="42.42306" lon="2.74272">
        <ele>1222.7</ele>
        <time>2018-11-26T04:55:26Z</time>
      </trkpt>
      <trkpt lat="42.42306" lon="2.74273">
        <ele>1223</ele>
        <time>2018-11-26T04:55:27Z</time>
      </trkpt>
      <trkpt lat="42.42306" lon="2.74274">
        <ele>1223</ele>
        <time>2018-11-26T04:55:27Z</time>
      </trkpt>
      <trkpt lat="42.42306" lon="2.74274">
        <ele>1223.1</ele>
        <time>2018-11-26T04:55:27Z</time>
      </trkpt>
      <trkpt lat="42.42306" lon="2.74275">
        <ele>1223.1</ele>
        <time>2018-11-26T04:55:27Z</time>
      </trkpt>
      <trkpt lat="42.42306" lon="2.74275">
        <ele>1222.9</ele>
        <time>2018-11-26T04:55:27Z</time>
      </trkpt>
      <trkpt lat="42.42306" lon="2.74276">
        <ele>1222.7</ele>
        <time>2018-11-26T04:55:28Z</time>
      </trkpt>
      <trkpt lat="42.42306" lon="2.74278">
        <ele>1221.9</ele>
        <time>2018-11-26T04:55:28Z</time>
      </trkpt>
      <trkpt lat="42.42306" lon="2.74279">
        <ele>1221.6</ele>
        <time>2018-11-26T04:55:28Z</time>
      </trkpt>
      <trkpt lat="42.42306" lon="2.74279">
        <ele>1221.4</ele>
        <time>2018-11-26T04:55:29Z</time>
      </trkpt>
      <trkpt lat="42.42305" lon="2.74279">
        <ele>1221.5</ele>
        <time>2018-11-26T04:55:29Z</time>
      </trkpt>
      <trkpt lat="42.42305" lon="2.74279">
        <ele>1221.2</ele>
        <time>2018-11-26T04:55:29Z</time>
      </trkpt>
      <trkpt lat="42.42304" lon="2.74279">
        <ele>1221.1</ele>
        <time>2018-11-26T04:55:29Z</time>
      </trkpt>
      <trkpt lat="42.42304" lon="2.74281">
        <ele>1220.8</ele>
        <time>2018-11-26T04:55:30Z</time>
      </trkpt>
      <trkpt lat="42.42304" lon="2.74281">
        <ele>1220.6</ele>
        <time>2018-11-26T04:55:30Z</time>
      </trkpt>
      <trkpt lat="42.42303" lon="2.74281">
        <ele>1220.3</ele>
        <time>2018-11-26T04:55:30Z</time>
      </trkpt>
      <trkpt lat="42.42303" lon="2.74283">
        <ele>1219.4</ele>
        <time>2018-11-26T04:55:30Z</time>
      </trkpt>
      <trkpt lat="42.42303" lon="2.74283">
        <ele>1218.6</ele>
        <time>2018-11-26T04:55:31Z</time>
      </trkpt>
      <trkpt lat="42.42303" lon="2.74284">
        <ele>1219.1</ele>
        <time>2018-11-26T04:55:31Z</time>
      </trkpt>
      <trkpt lat="42.42303" lon="2.74285">
        <ele>1219.3</ele>
        <time>2018-11-26T04:55:31Z</time>
      </trkpt>
      <trkpt lat="42.42303" lon="2.74286">
        <ele>1219.1</ele>
        <time>2018-11-26T04:55:31Z</time>
      </trkpt>
      <trkpt lat="42.42303" lon="2.74287">
        <ele>1218.9</ele>
        <time>2018-11-26T04:55:32Z</time>
      </trkpt>
      <trkpt lat="42.42302" lon="2.74287">
        <ele>1218.6</ele>
        <time>2018-11-26T04:55:32Z</time>
      </trkpt>
      <trkpt lat="42.42302" lon="2.74288">
        <ele>1218.2</ele>
        <time>2018-11-26T04:55:32Z</time>
      </trkpt>
      <trkpt lat="42.42302" lon="2.74289">
        <ele>1217.9</ele>
        <time>2018-11-26T04:55:32Z</time>
      </trkpt>
      <trkpt lat="42.42302" lon="2.74289">
        <ele>1217.7</ele>
        <time>2018-11-26T04:55:33Z</time>
      </trkpt>
      <trkpt lat="42.42302" lon="2.7429">
        <ele>1217.6</ele>
        <time>2018-11-26T04:55:33Z</time>
      </trkpt>
      <trkpt lat="42.42302" lon="2.74291">
        <ele>1217.7</ele>
        <time>2018-11-26T04:55:33Z</time>
      </trkpt>
      <trkpt lat="42.42301" lon="2.74291">
        <ele>1217.7</ele>
        <time>2018-11-26T04:55:33Z</time>
      </trkpt>
      <trkpt lat="42.42301" lon="2.74292">
        <ele>1217.7</ele>
        <time>2018-11-26T04:55:33Z</time>
      </trkpt>
      <trkpt lat="42.42301" lon="2.74293">
        <ele>1217.6</ele>
        <time>2018-11-26T04:55:34Z</time>
      </trkpt>
      <trkpt lat="42.42301" lon="2.74293">
        <ele>1217.3</ele>
        <time>2018-11-26T04:55:34Z</time>
      </trkpt>
      <trkpt lat="42.42301" lon="2.74294">
        <ele>1216.8</ele>
        <time>2018-11-26T04:55:34Z</time>
      </trkpt>
      <trkpt lat="42.42301" lon="2.74294">
        <ele>1216.6</ele>
        <time>2018-11-26T04:55:34Z</time>
      </trkpt>
      <trkpt lat="42.42301" lon="2.74295">
        <ele>1216.4</ele>
        <time>2018-11-26T04:55:34Z</time>
      </trkpt>
      <trkpt lat="42.42301" lon="2.74296">
        <ele>1216</ele>
        <time>2018-11-26T04:55:34Z</time>
      </trkpt>
      <trkpt lat="42.42301" lon="2.74297">
        <ele>1215.9</ele>
        <time>2018-11-26T04:55:35Z</time>
      </trkpt>
      <trkpt lat="42.42301" lon="2.74297">
        <ele>1215.9</ele>
        <time>2018-11-26T04:55:35Z</time>
      </trkpt>
      <trkpt lat="42.42301" lon="2.74298">
        <ele>1215.6</ele>
        <time>2018-11-26T04:55:35Z</time>
      </trkpt>
      <trkpt lat="42.42301" lon="2.74299">
        <ele>1215.5</ele>
        <time>2018-11-26T04:55:35Z</time>
      </trkpt>
      <trkpt lat="42.42301" lon="2.74299">
        <ele>1215.4</ele>
        <time>2018-11-26T04:55:36Z</time>
      </trkpt>
      <trkpt lat="42.42301" lon="2.743">
        <ele>1215.3</ele>
        <time>2018-11-26T04:55:36Z</time>
      </trkpt>
      <trkpt lat="42.42301" lon="2.74302">
        <ele>1215</ele>
        <time>2018-11-26T04:55:36Z</time>
      </trkpt>
      <trkpt lat="42.42301" lon="2.74302">
        <ele>1215.1</ele>
        <time>2018-11-26T04:55:37Z</time>
      </trkpt>
      <trkpt lat="42.423" lon="2.74303">
        <ele>1215</ele>
        <time>2018-11-26T04:55:37Z</time>
      </trkpt>
      <trkpt lat="42.423" lon="2.74304">
        <ele>1215</ele>
        <time>2018-11-26T04:55:37Z</time>
      </trkpt>
      <trkpt lat="42.423" lon="2.74305">
        <ele>1214.6</ele>
        <time>2018-11-26T04:55:37Z</time>
      </trkpt>
      <trkpt lat="42.423" lon="2.74307">
        <ele>1213.9</ele>
        <time>2018-11-26T04:55:38Z</time>
      </trkpt>
      <trkpt lat="42.42301" lon="2.74308">
        <ele>1213.2</ele>
        <time>2018-11-26T04:55:38Z</time>
      </trkpt>
      <trkpt lat="42.42301" lon="2.74309">
        <ele>1213.2</ele>
        <time>2018-11-26T04:55:39Z</time>
      </trkpt>
      <trkpt lat="42.42301" lon="2.7431">
        <ele>1213.1</ele>
        <time>2018-11-26T04:55:39Z</time>
      </trkpt>
      <trkpt lat="42.42301" lon="2.74312">
        <ele>1213.1</ele>
        <time>2018-11-26T04:55:39Z</time>
      </trkpt>
      <trkpt lat="42.423" lon="2.74313">
        <ele>1212.9</ele>
        <time>2018-11-26T04:55:40Z</time>
      </trkpt>
      <trkpt lat="42.423" lon="2.74314">
        <ele>1212.7</ele>
        <time>2018-11-26T04:55:40Z</time>
      </trkpt>
      <trkpt lat="42.423" lon="2.74315">
        <ele>1212.3</ele>
        <time>2018-11-26T04:55:40Z</time>
      </trkpt>
      <trkpt lat="42.423" lon="2.74316">
        <ele>1211.8</ele>
        <time>2018-11-26T04:55:41Z</time>
      </trkpt>
      <trkpt lat="42.423" lon="2.74318">
        <ele>1211.6</ele>
        <time>2018-11-26T04:55:41Z</time>
      </trkpt>
      <trkpt lat="42.423" lon="2.74319">
        <ele>1211.1</ele>
        <time>2018-11-26T04:55:41Z</time>
      </trkpt>
      <trkpt lat="42.423" lon="2.74321">
        <ele>1210.8</ele>
        <time>2018-11-26T04:55:42Z</time>
      </trkpt>
      <trkpt lat="42.423" lon="2.74322">
        <ele>1210.9</ele>
        <time>2018-11-26T04:55:42Z</time>
      </trkpt>
      <trkpt lat="42.423" lon="2.74323">
        <ele>1211.1</ele>
        <time>2018-11-26T04:55:43Z</time>
      </trkpt>
      <trkpt lat="42.42299" lon="2.74325">
        <ele>1210.4</ele>
        <time>2018-11-26T04:55:43Z</time>
      </trkpt>
      <trkpt lat="42.42299" lon="2.74326">
        <ele>1210</ele>
        <time>2018-11-26T04:55:44Z</time>
      </trkpt>
      <trkpt lat="42.42299" lon="2.74327">
        <ele>1209.7</ele>
        <time>2018-11-26T04:55:44Z</time>
      </trkpt>
      <trkpt lat="42.42299" lon="2.74328">
        <ele>1209.3</ele>
        <time>2018-11-26T04:55:44Z</time>
      </trkpt>
      <trkpt lat="42.42299" lon="2.74329">
        <ele>1208.9</ele>
        <time>2018-11-26T04:55:44Z</time>
      </trkpt>
      <trkpt lat="42.42299" lon="2.7433">
        <ele>1208.7</ele>
        <time>2018-11-26T04:55:45Z</time>
      </trkpt>
      <trkpt lat="42.42299" lon="2.74331">
        <ele>1208.5</ele>
        <time>2018-11-26T04:55:45Z</time>
      </trkpt>
      <trkpt lat="42.42299" lon="2.74332">
        <ele>1208.3</ele>
        <time>2018-11-26T04:55:45Z</time>
      </trkpt>
      <trkpt lat="42.42299" lon="2.74333">
        <ele>1208.6</ele>
        <time>2018-11-26T04:55:46Z</time>
      </trkpt>
      <trkpt lat="42.42299" lon="2.74334">
        <ele>1208.9</ele>
        <time>2018-11-26T04:55:46Z</time>
      </trkpt>
      <trkpt lat="42.42299" lon="2.74334">
        <ele>1209.2</ele>
        <time>2018-11-26T04:55:46Z</time>
      </trkpt>
      <trkpt lat="42.42299" lon="2.74335">
        <ele>1209.1</ele>
        <time>2018-11-26T04:55:46Z</time>
      </trkpt>
      <trkpt lat="42.423" lon="2.74336">
        <ele>1208.8</ele>
        <time>2018-11-26T04:55:47Z</time>
      </trkpt>
      <trkpt lat="42.423" lon="2.74336">
        <ele>1208.5</ele>
        <time>2018-11-26T04:55:47Z</time>
      </trkpt>
      <trkpt lat="42.423" lon="2.74337">
        <ele>1208.2</ele>
        <time>2018-11-26T04:55:47Z</time>
      </trkpt>
      <trkpt lat="42.423" lon="2.7434">
        <ele>1206.7</ele>
        <time>2018-11-26T04:55:48Z</time>
      </trkpt>
      <trkpt lat="42.423" lon="2.7434">
        <ele>1206.3</ele>
        <time>2018-11-26T04:55:48Z</time>
      </trkpt>
      <trkpt lat="42.423" lon="2.74341">
        <ele>1206</ele>
        <time>2018-11-26T04:55:48Z</time>
      </trkpt>
      <trkpt lat="42.423" lon="2.74342">
        <ele>1205.8</ele>
        <time>2018-11-26T04:55:49Z</time>
      </trkpt>
      <trkpt lat="42.42299" lon="2.74344">
        <ele>1205.4</ele>
        <time>2018-11-26T04:55:49Z</time>
      </trkpt>
      <trkpt lat="42.42299" lon="2.74345">
        <ele>1205.2</ele>
        <time>2018-11-26T04:55:49Z</time>
      </trkpt>
      <trkpt lat="42.42299" lon="2.74348">
        <ele>1205.2</ele>
        <time>2018-11-26T04:55:50Z</time>
      </trkpt>
      <trkpt lat="42.42299" lon="2.74349">
        <ele>1204.9</ele>
        <time>2018-11-26T04:55:50Z</time>
      </trkpt>
      <trkpt lat="42.42299" lon="2.74349">
        <ele>1205.2</ele>
        <time>2018-11-26T04:55:51Z</time>
      </trkpt>
      <trkpt lat="42.42298" lon="2.7435">
        <ele>1205.5</ele>
        <time>2018-11-26T04:55:51Z</time>
      </trkpt>
      <trkpt lat="42.42298" lon="2.74351">
        <ele>1206</ele>
        <time>2018-11-26T04:55:51Z</time>
      </trkpt>
      <trkpt lat="42.42297" lon="2.74352">
        <ele>1206</ele>
        <time>2018-11-26T04:55:52Z</time>
      </trkpt>
      <trkpt lat="42.42297" lon="2.74352">
        <ele>1206.1</ele>
        <time>2018-11-26T04:55:52Z</time>
      </trkpt>
      <trkpt lat="42.42297" lon="2.74353">
        <ele>1206.1</ele>
        <time>2018-11-26T04:55:52Z</time>
      </trkpt>
      <trkpt lat="42.42297" lon="2.74354">
        <ele>1206.2</ele>
        <time>2018-11-26T04:55:52Z</time>
      </trkpt>
      <trkpt lat="42.42297" lon="2.74354">
        <ele>1206.3</ele>
        <time>2018-11-26T04:55:52Z</time>
      </trkpt>
      <trkpt lat="42.42297" lon="2.74355">
        <ele>1206.3</ele>
        <time>2018-11-26T04:55:53Z</time>
      </trkpt>
      <trkpt lat="42.42297" lon="2.74356">
        <ele>1206.2</ele>
        <time>2018-11-26T04:55:53Z</time>
      </trkpt>
      <trkpt lat="42.42297" lon="2.74356">
        <ele>1206.2</ele>
        <time>2018-11-26T04:55:53Z</time>
      </trkpt>
      <trkpt lat="42.42297" lon="2.74357">
        <ele>1206.1</ele>
        <time>2018-11-26T04:55:53Z</time>
      </trkpt>
      <trkpt lat="42.42297" lon="2.74358">
        <ele>1206.2</ele>
        <time>2018-11-26T04:55:53Z</time>
      </trkpt>
      <trkpt lat="42.42297" lon="2.74359">
        <ele>1206.1</ele>
        <time>2018-11-26T04:55:54Z</time>
      </trkpt>
      <trkpt lat="42.42297" lon="2.7436">
        <ele>1206.2</ele>
        <time>2018-11-26T04:55:54Z</time>
      </trkpt>
      <trkpt lat="42.42297" lon="2.7436">
        <ele>1206</ele>
        <time>2018-11-26T04:55:54Z</time>
      </trkpt>
      <trkpt lat="42.42297" lon="2.74361">
        <ele>1205.9</ele>
        <time>2018-11-26T04:55:54Z</time>
      </trkpt>
      <trkpt lat="42.42297" lon="2.74362">
        <ele>1205.7</ele>
        <time>2018-11-26T04:55:55Z</time>
      </trkpt>
      <trkpt lat="42.42297" lon="2.74363">
        <ele>1205.5</ele>
        <time>2018-11-26T04:55:55Z</time>
      </trkpt>
      <trkpt lat="42.42297" lon="2.74364">
        <ele>1205.1</ele>
        <time>2018-11-26T04:55:55Z</time>
      </trkpt>
      <trkpt lat="42.42297" lon="2.74365">
        <ele>1204.7</ele>
        <time>2018-11-26T04:55:56Z</time>
      </trkpt>
      <trkpt lat="42.42297" lon="2.74367">
        <ele>1204.7</ele>
        <time>2018-11-26T04:55:56Z</time>
      </trkpt>
      <trkpt lat="42.42297" lon="2.74368">
        <ele>1204.8</ele>
        <time>2018-11-26T04:55:57Z</time>
      </trkpt>
      <trkpt lat="42.42296" lon="2.7437">
        <ele>1205</ele>
        <time>2018-11-26T04:55:57Z</time>
      </trkpt>
      <trkpt lat="42.42296" lon="2.74371">
        <ele>1204.8</ele>
        <time>2018-11-26T04:55:57Z</time>
      </trkpt>
      <trkpt lat="42.42295" lon="2.74372">
        <ele>1204.5</ele>
        <time>2018-11-26T04:55:58Z</time>
      </trkpt>
      <trkpt lat="42.42295" lon="2.74373">
        <ele>1204</ele>
        <time>2018-11-26T04:55:58Z</time>
      </trkpt>
      <trkpt lat="42.42294" lon="2.74374">
        <ele>1203.9</ele>
        <time>2018-11-26T04:55:59Z</time>
      </trkpt>
      <trkpt lat="42.42294" lon="2.74375">
        <ele>1203.8</ele>
        <time>2018-11-26T04:55:59Z</time>
      </trkpt>
      <trkpt lat="42.42294" lon="2.74377">
        <ele>1203.4</ele>
        <time>2018-11-26T04:56:00Z</time>
      </trkpt>
      <trkpt lat="42.42294" lon="2.74379">
        <ele>1203.1</ele>
        <time>2018-11-26T04:56:00Z</time>
      </trkpt>
      <trkpt lat="42.42294" lon="2.7438">
        <ele>1203.2</ele>
        <time>2018-11-26T04:56:00Z</time>
      </trkpt>
      <trkpt lat="42.42295" lon="2.74381">
        <ele>1203.3</ele>
        <time>2018-11-26T04:56:01Z</time>
      </trkpt>
      <trkpt lat="42.42295" lon="2.74383">
        <ele>1203.4</ele>
        <time>2018-11-26T04:56:01Z</time>
      </trkpt>
      <trkpt lat="42.42295" lon="2.74386">
        <ele>1203</ele>
        <time>2018-11-26T04:56:02Z</time>
      </trkpt>
      <trkpt lat="42.42294" lon="2.74387">
        <ele>1202.6</ele>
        <time>2018-11-26T04:56:03Z</time>
      </trkpt>
      <trkpt lat="42.42295" lon="2.74389">
        <ele>1202.4</ele>
        <time>2018-11-26T04:56:03Z</time>
      </trkpt>
      <trkpt lat="42.42295" lon="2.7439">
        <ele>1202</ele>
        <time>2018-11-26T04:56:03Z</time>
      </trkpt>
      <trkpt lat="42.42295" lon="2.74392">
        <ele>1201.7</ele>
        <time>2018-11-26T04:56:04Z</time>
      </trkpt>
      <trkpt lat="42.42295" lon="2.74393">
        <ele>1201.6</ele>
        <time>2018-11-26T04:56:04Z</time>
      </trkpt>
      <trkpt lat="42.42295" lon="2.74394">
        <ele>1201.3</ele>
        <time>2018-11-26T04:56:05Z</time>
      </trkpt>
      <trkpt lat="42.42295" lon="2.74395">
        <ele>1201.1</ele>
        <time>2018-11-26T04:56:05Z</time>
      </trkpt>
      <trkpt lat="42.42295" lon="2.74396">
        <ele>1201</ele>
        <time>2018-11-26T04:56:05Z</time>
      </trkpt>
      <trkpt lat="42.42295" lon="2.74399">
        <ele>1200.8</ele>
        <time>2018-11-26T04:56:06Z</time>
      </trkpt>
      <trkpt lat="42.42295" lon="2.744">
        <ele>1200.6</ele>
        <time>2018-11-26T04:56:07Z</time>
      </trkpt>
      <trkpt lat="42.42295" lon="2.74401">
        <ele>1200.5</ele>
        <time>2018-11-26T04:56:07Z</time>
      </trkpt>
      <trkpt lat="42.42295" lon="2.74402">
        <ele>1200.2</ele>
        <time>2018-11-26T04:56:07Z</time>
      </trkpt>
      <trkpt lat="42.42295" lon="2.74403">
        <ele>1199.8</ele>
        <time>2018-11-26T04:56:07Z</time>
      </trkpt>
      <trkpt lat="42.42295" lon="2.74404">
        <ele>1199.4</ele>
        <time>2018-11-26T04:56:08Z</time>
      </trkpt>
      <trkpt lat="42.42295" lon="2.74405">
        <ele>1199</ele>
        <time>2018-11-26T04:56:08Z</time>
      </trkpt>
      <trkpt lat="42.42295" lon="2.74406">
        <ele>1198.8</ele>
        <time>2018-11-26T04:56:08Z</time>
      </trkpt>
      <trkpt lat="42.42294" lon="2.74408">
        <ele>1198.5</ele>
        <time>2018-11-26T04:56:09Z</time>
      </trkpt>
      <trkpt lat="42.42294" lon="2.74409">
        <ele>1198.3</ele>
        <time>2018-11-26T04:56:09Z</time>
      </trkpt>
      <trkpt lat="42.42293" lon="2.7441">
        <ele>1197.9</ele>
        <time>2018-11-26T04:56:10Z</time>
      </trkpt>
      <trkpt lat="42.42293" lon="2.74412">
        <ele>1197.8</ele>
        <time>2018-11-26T04:56:10Z</time>
      </trkpt>
      <trkpt lat="42.42293" lon="2.74413">
        <ele>1197.6</ele>
        <time>2018-11-26T04:56:11Z</time>
      </trkpt>
      <trkpt lat="42.42293" lon="2.74414">
        <ele>1197.4</ele>
        <time>2018-11-26T04:56:11Z</time>
      </trkpt>
      <trkpt lat="42.42293" lon="2.74415">
        <ele>1197.2</ele>
        <time>2018-11-26T04:56:11Z</time>
      </trkpt>
      <trkpt lat="42.42293" lon="2.74417">
        <ele>1196.9</ele>
        <time>2018-11-26T04:56:12Z</time>
      </trkpt>
      <trkpt lat="42.42293" lon="2.74418">
        <ele>1196.7</ele>
        <time>2018-11-26T04:56:12Z</time>
      </trkpt>
      <trkpt lat="42.42293" lon="2.74419">
        <ele>1196.2</ele>
        <time>2018-11-26T04:56:12Z</time>
      </trkpt>
      <trkpt lat="42.42293" lon="2.74422">
        <ele>1195.1</ele>
        <time>2018-11-26T04:56:13Z</time>
      </trkpt>
      <trkpt lat="42.42293" lon="2.74423">
        <ele>1195.2</ele>
        <time>2018-11-26T04:56:13Z</time>
      </trkpt>
      <trkpt lat="42.42293" lon="2.74423">
        <ele>1195.1</ele>
        <time>2018-11-26T04:56:14Z</time>
      </trkpt>
      <trkpt lat="42.42293" lon="2.74424">
        <ele>1195.1</ele>
        <time>2018-11-26T04:56:14Z</time>
      </trkpt>
      <trkpt lat="42.42293" lon="2.74425">
        <ele>1195.1</ele>
        <time>2018-11-26T04:56:14Z</time>
      </trkpt>
      <trkpt lat="42.42293" lon="2.74426">
        <ele>1195.2</ele>
        <time>2018-11-26T04:56:14Z</time>
      </trkpt>
      <trkpt lat="42.42294" lon="2.74427">
        <ele>1195.1</ele>
        <time>2018-11-26T04:56:15Z</time>
      </trkpt>
      <trkpt lat="42.42294" lon="2.74428">
        <ele>1195</ele>
        <time>2018-11-26T04:56:15Z</time>
      </trkpt>
      <trkpt lat="42.42294" lon="2.74429">
        <ele>1194.9</ele>
        <time>2018-11-26T04:56:15Z</time>
      </trkpt>
      <trkpt lat="42.42294" lon="2.74434">
        <ele>1193.6</ele>
        <time>2018-11-26T04:56:17Z</time>
      </trkpt>
      <trkpt lat="42.42293" lon="2.74435">
        <ele>1193</ele>
        <time>2018-11-26T04:56:17Z</time>
      </trkpt>
      <trkpt lat="42.42293" lon="2.74436">
        <ele>1193</ele>
        <time>2018-11-26T04:56:17Z</time>
      </trkpt>
      <trkpt lat="42.42293" lon="2.74437">
        <ele>1193.2</ele>
        <time>2018-11-26T04:56:18Z</time>
      </trkpt>
      <trkpt lat="42.42293" lon="2.74438">
        <ele>1193.1</ele>
        <time>2018-11-26T04:56:18Z</time>
      </trkpt>
      <trkpt lat="42.42294" lon="2.74439">
        <ele>1193.2</ele>
        <time>2018-11-26T04:56:18Z</time>
      </trkpt>
      <trkpt lat="42.42293" lon="2.74441">
        <ele>1193</ele>
        <time>2018-11-26T04:56:19Z</time>
      </trkpt>
      <trkpt lat="42.42293" lon="2.74442">
        <ele>1193.1</ele>
        <time>2018-11-26T04:56:19Z</time>
      </trkpt>
      <trkpt lat="42.42293" lon="2.74442">
        <ele>1193.2</ele>
        <time>2018-11-26T04:56:19Z</time>
      </trkpt>
      <trkpt lat="42.42293" lon="2.74443">
        <ele>1193.1</ele>
        <time>2018-11-26T04:56:19Z</time>
      </trkpt>
      <trkpt lat="42.42293" lon="2.74443">
        <ele>1192.8</ele>
        <time>2018-11-26T04:56:20Z</time>
      </trkpt>
      <trkpt lat="42.42293" lon="2.74443">
        <ele>1192.4</ele>
        <time>2018-11-26T04:56:20Z</time>
      </trkpt>
      <trkpt lat="42.42293" lon="2.74443">
        <ele>1192</ele>
        <time>2018-11-26T04:56:20Z</time>
      </trkpt>
      <trkpt lat="42.42293" lon="2.74443">
        <ele>1191.9</ele>
        <time>2018-11-26T04:56:20Z</time>
      </trkpt>
      <trkpt lat="42.42293" lon="2.74443">
        <ele>1191.8</ele>
        <time>2018-11-26T04:56:20Z</time>
      </trkpt>
      <trkpt lat="42.42293" lon="2.74443">
        <ele>1191.8</ele>
        <time>2018-11-26T04:56:20Z</time>
      </trkpt>
      <trkpt lat="42.42293" lon="2.74443">
        <ele>1191.5</ele>
        <time>2018-11-26T04:56:20Z</time>
      </trkpt>
      <trkpt lat="42.42292" lon="2.74443">
        <ele>1191.6</ele>
        <time>2018-11-26T04:56:20Z</time>
      </trkpt>
      <trkpt lat="42.42292" lon="2.74444">
        <ele>1191.5</ele>
        <time>2018-11-26T04:56:20Z</time>
      </trkpt>
      <trkpt lat="42.42292" lon="2.74445">
        <ele>1191.5</ele>
        <time>2018-11-26T04:56:21Z</time>
      </trkpt>
      <trkpt lat="42.42292" lon="2.74446">
        <ele>1191.2</ele>
        <time>2018-11-26T04:56:21Z</time>
      </trkpt>
      <trkpt lat="42.42292" lon="2.74446">
        <ele>1190.9</ele>
        <time>2018-11-26T04:56:21Z</time>
      </trkpt>
      <trkpt lat="42.42291" lon="2.74446">
        <ele>1190.7</ele>
        <time>2018-11-26T04:56:21Z</time>
      </trkpt>
      <trkpt lat="42.42291" lon="2.74446">
        <ele>1190.5</ele>
        <time>2018-11-26T04:56:21Z</time>
      </trkpt>
      <trkpt lat="42.42291" lon="2.74447">
        <ele>1190.1</ele>
        <time>2018-11-26T04:56:21Z</time>
      </trkpt>
      <trkpt lat="42.42291" lon="2.74447">
        <ele>1189.9</ele>
        <time>2018-11-26T04:56:22Z</time>
      </trkpt>
      <trkpt lat="42.4229" lon="2.74448">
        <ele>1189.8</ele>
        <time>2018-11-26T04:56:22Z</time>
      </trkpt>
      <trkpt lat="42.4229" lon="2.74447">
        <ele>1189.6</ele>
        <time>2018-11-26T04:56:22Z</time>
      </trkpt>
      <trkpt lat="42.42289" lon="2.74448">
        <ele>1189.4</ele>
        <time>2018-11-26T04:56:22Z</time>
      </trkpt>
      <trkpt lat="42.42289" lon="2.74449">
        <ele>1189.3</ele>
        <time>2018-11-26T04:56:22Z</time>
      </trkpt>
      <trkpt lat="42.42289" lon="2.74449">
        <ele>1189</ele>
        <time>2018-11-26T04:56:23Z</time>
      </trkpt>
      <trkpt lat="42.42288" lon="2.74452">
        <ele>1187.1</ele>
        <time>2018-11-26T04:56:24Z</time>
      </trkpt>
      <trkpt lat="42.42288" lon="2.74453">
        <ele>1186.9</ele>
        <time>2018-11-26T04:56:24Z</time>
      </trkpt>
      <trkpt lat="42.42289" lon="2.74454">
        <ele>1186.5</ele>
        <time>2018-11-26T04:56:24Z</time>
      </trkpt>
      <trkpt lat="42.42289" lon="2.74454">
        <ele>1186.5</ele>
        <time>2018-11-26T04:56:24Z</time>
      </trkpt>
      <trkpt lat="42.42289" lon="2.74455">
        <ele>1186.8</ele>
        <time>2018-11-26T04:56:25Z</time>
      </trkpt>
      <trkpt lat="42.4229" lon="2.74455">
        <ele>1186.9</ele>
        <time>2018-11-26T04:56:25Z</time>
      </trkpt>
      <trkpt lat="42.4229" lon="2.74455">
        <ele>1186.9</ele>
        <time>2018-11-26T04:56:25Z</time>
      </trkpt>
      <trkpt lat="42.4229" lon="2.74456">
        <ele>1187.1</ele>
        <time>2018-11-26T04:56:25Z</time>
      </trkpt>
      <trkpt lat="42.42291" lon="2.74456">
        <ele>1187.2</ele>
        <time>2018-11-26T04:56:25Z</time>
      </trkpt>
      <trkpt lat="42.42291" lon="2.74457">
        <ele>1187</ele>
        <time>2018-11-26T04:56:26Z</time>
      </trkpt>
      <trkpt lat="42.42292" lon="2.74457">
        <ele>1186.9</ele>
        <time>2018-11-26T04:56:26Z</time>
      </trkpt>
      <trkpt lat="42.42292" lon="2.74457">
        <ele>1186.9</ele>
        <time>2018-11-26T04:56:26Z</time>
      </trkpt>
      <trkpt lat="42.42292" lon="2.74457">
        <ele>1186.8</ele>
        <time>2018-11-26T04:56:26Z</time>
      </trkpt>
      <trkpt lat="42.42292" lon="2.74457">
        <ele>1186.8</ele>
        <time>2018-11-26T04:56:26Z</time>
      </trkpt>
      <trkpt lat="42.42293" lon="2.74457">
        <ele>1186.9</ele>
        <time>2018-11-26T04:56:26Z</time>
      </trkpt>
      <trkpt lat="42.42293" lon="2.74457">
        <ele>1186.9</ele>
        <time>2018-11-26T04:56:26Z</time>
      </trkpt>
      <trkpt lat="42.42293" lon="2.74458">
        <ele>1186.9</ele>
        <time>2018-11-26T04:56:27Z</time>
      </trkpt>
      <trkpt lat="42.42293" lon="2.74458">
        <ele>1186.8</ele>
        <time>2018-11-26T04:56:27Z</time>
      </trkpt>
      <trkpt lat="42.42294" lon="2.74458">
        <ele>1186.8</ele>
        <time>2018-11-26T04:56:27Z</time>
      </trkpt>
      <trkpt lat="42.42294" lon="2.74458">
        <ele>1186.7</ele>
        <time>2018-11-26T04:56:27Z</time>
      </trkpt>
      <trkpt lat="42.42294" lon="2.74458">
        <ele>1186.6</ele>
        <time>2018-11-26T04:56:27Z</time>
      </trkpt>
      <trkpt lat="42.42294" lon="2.74458">
        <ele>1186.5</ele>
        <time>2018-11-26T04:56:27Z</time>
      </trkpt>
      <trkpt lat="42.42294" lon="2.74458">
        <ele>1186.4</ele>
        <time>2018-11-26T04:56:27Z</time>
      </trkpt>
      <trkpt lat="42.42294" lon="2.74458">
        <ele>1186.2</ele>
        <time>2018-11-26T04:56:27Z</time>
      </trkpt>
      <trkpt lat="42.42294" lon="2.74458">
        <ele>1186</ele>
        <time>2018-11-26T04:56:27Z</time>
      </trkpt>
      <trkpt lat="42.42294" lon="2.74458">
        <ele>1186.1</ele>
        <time>2018-11-26T04:56:27Z</time>
      </trkpt>
      <trkpt lat="42.42294" lon="2.74458">
        <ele>1186.2</ele>
        <time>2018-11-26T04:56:27Z</time>
      </trkpt>
      <trkpt lat="42.42294" lon="2.74459">
        <ele>1186.4</ele>
        <time>2018-11-26T04:56:27Z</time>
      </trkpt>
      <trkpt lat="42.42293" lon="2.74459">
        <ele>1186.7</ele>
        <time>2018-11-26T04:56:27Z</time>
      </trkpt>
      <trkpt lat="42.42293" lon="2.74459">
        <ele>1186.6</ele>
        <time>2018-11-26T04:56:27Z</time>
      </trkpt>
      <trkpt lat="42.42293" lon="2.74459">
        <ele>1186.5</ele>
        <time>2018-11-26T04:56:27Z</time>
      </trkpt>
      <trkpt lat="42.42293" lon="2.74459">
        <ele>1186.5</ele>
        <time>2018-11-26T04:56:28Z</time>
      </trkpt>
      <trkpt lat="42.42292" lon="2.7446">
        <ele>1186.6</ele>
        <time>2018-11-26T04:56:28Z</time>
      </trkpt>
      <trkpt lat="42.42292" lon="2.7446">
        <ele>1186.5</ele>
        <time>2018-11-26T04:56:28Z</time>
      </trkpt>
      <trkpt lat="42.42291" lon="2.7446">
        <ele>1186.6</ele>
        <time>2018-11-26T04:56:28Z</time>
      </trkpt>
      <trkpt lat="42.42291" lon="2.7446">
        <ele>1186.8</ele>
        <time>2018-11-26T04:56:28Z</time>
      </trkpt>
      <trkpt lat="42.42291" lon="2.74461">
        <ele>1187</ele>
        <time>2018-11-26T04:56:28Z</time>
      </trkpt>
      <trkpt lat="42.4229" lon="2.74461">
        <ele>1187.2</ele>
        <time>2018-11-26T04:56:29Z</time>
      </trkpt>
      <trkpt lat="42.4229" lon="2.74461">
        <ele>1187.4</ele>
        <time>2018-11-26T04:56:29Z</time>
      </trkpt>
      <trkpt lat="42.42289" lon="2.74462">
        <ele>1187.4</ele>
        <time>2018-11-26T04:56:29Z</time>
      </trkpt>
      <trkpt lat="42.42289" lon="2.74462">
        <ele>1187.6</ele>
        <time>2018-11-26T04:56:29Z</time>
      </trkpt>
      <trkpt lat="42.42289" lon="2.74462">
        <ele>1187.4</ele>
        <time>2018-11-26T04:56:29Z</time>
      </trkpt>
      <trkpt lat="42.42289" lon="2.74462">
        <ele>1187.1</ele>
        <time>2018-11-26T04:56:29Z</time>
      </trkpt>
      <trkpt lat="42.42289" lon="2.74462">
        <ele>1186.7</ele>
        <time>2018-11-26T04:56:29Z</time>
      </trkpt>
      <trkpt lat="42.42288" lon="2.74462">
        <ele>1186.6</ele>
        <time>2018-11-26T04:56:30Z</time>
      </trkpt>
      <trkpt lat="42.42288" lon="2.74463">
        <ele>1186.5</ele>
        <time>2018-11-26T04:56:30Z</time>
      </trkpt>
      <trkpt lat="42.42288" lon="2.74463">
        <ele>1186.4</ele>
        <time>2018-11-26T04:56:30Z</time>
      </trkpt>
      <trkpt lat="42.42288" lon="2.74464">
        <ele>1186.2</ele>
        <time>2018-11-26T04:56:30Z</time>
      </trkpt>
      <trkpt lat="42.42289" lon="2.74464">
        <ele>1186</ele>
        <time>2018-11-26T04:56:30Z</time>
      </trkpt>
      <trkpt lat="42.42289" lon="2.74465">
        <ele>1185.7</ele>
        <time>2018-11-26T04:56:31Z</time>
      </trkpt>
      <trkpt lat="42.42289" lon="2.74466">
        <ele>1185.3</ele>
        <time>2018-11-26T04:56:31Z</time>
      </trkpt>
      <trkpt lat="42.42289" lon="2.74467">
        <ele>1185.3</ele>
        <time>2018-11-26T04:56:31Z</time>
      </trkpt>
      <trkpt lat="42.42289" lon="2.74468">
        <ele>1185.4</ele>
        <time>2018-11-26T04:56:31Z</time>
      </trkpt>
      <trkpt lat="42.42288" lon="2.74471">
        <ele>1185.6</ele>
        <time>2018-11-26T04:56:32Z</time>
      </trkpt>
      <trkpt lat="42.42288" lon="2.74472">
        <ele>1185.8</ele>
        <time>2018-11-26T04:56:33Z</time>
      </trkpt>
      <trkpt lat="42.42288" lon="2.74472">
        <ele>1185.5</ele>
        <time>2018-11-26T04:56:33Z</time>
      </trkpt>
      <trkpt lat="42.42287" lon="2.74472">
        <ele>1185.4</ele>
        <time>2018-11-26T04:56:33Z</time>
      </trkpt>
      <trkpt lat="42.42287" lon="2.74473">
        <ele>1185</ele>
        <time>2018-11-26T04:56:33Z</time>
      </trkpt>
      <trkpt lat="42.42287" lon="2.74473">
        <ele>1184.8</ele>
        <time>2018-11-26T04:56:33Z</time>
      </trkpt>
      <trkpt lat="42.42286" lon="2.74473">
        <ele>1184.5</ele>
        <time>2018-11-26T04:56:33Z</time>
      </trkpt>
      <trkpt lat="42.42286" lon="2.74474">
        <ele>1184.1</ele>
        <time>2018-11-26T04:56:34Z</time>
      </trkpt>
      <trkpt lat="42.42286" lon="2.74475">
        <ele>1183.6</ele>
        <time>2018-11-26T04:56:34Z</time>
      </trkpt>
      <trkpt lat="42.42286" lon="2.74475">
        <ele>1183.6</ele>
        <time>2018-11-26T04:56:34Z</time>
      </trkpt>
      <trkpt lat="42.42286" lon="2.74476">
        <ele>1183.4</ele>
        <time>2018-11-26T04:56:34Z</time>
      </trkpt>
      <trkpt lat="42.42286" lon="2.74476">
        <ele>1183.3</ele>
        <time>2018-11-26T04:56:34Z</time>
      </trkpt>
      <trkpt lat="42.42286" lon="2.74476">
        <ele>1183.2</ele>
        <time>2018-11-26T04:56:34Z</time>
      </trkpt>
      <trkpt lat="42.42285" lon="2.74477">
        <ele>1183.3</ele>
        <time>2018-11-26T04:56:35Z</time>
      </trkpt>
      <trkpt lat="42.42285" lon="2.74477">
        <ele>1183.1</ele>
        <time>2018-11-26T04:56:35Z</time>
      </trkpt>
      <trkpt lat="42.42285" lon="2.74477">
        <ele>1183.3</ele>
        <time>2018-11-26T04:56:35Z</time>
      </trkpt>
      <trkpt lat="42.42285" lon="2.74478">
        <ele>1183.2</ele>
        <time>2018-11-26T04:56:35Z</time>
      </trkpt>
      <trkpt lat="42.42285" lon="2.74478">
        <ele>1183.3</ele>
        <time>2018-11-26T04:56:35Z</time>
      </trkpt>
      <trkpt lat="42.42285" lon="2.74479">
        <ele>1183.4</ele>
        <time>2018-11-26T04:56:35Z</time>
      </trkpt>
      <trkpt lat="42.42285" lon="2.7448">
        <ele>1183.5</ele>
        <time>2018-11-26T04:56:36Z</time>
      </trkpt>
      <trkpt lat="42.42285" lon="2.74481">
        <ele>1183.6</ele>
        <time>2018-11-26T04:56:36Z</time>
      </trkpt>
      <trkpt lat="42.42285" lon="2.74482">
        <ele>1183.5</ele>
        <time>2018-11-26T04:56:36Z</time>
      </trkpt>
      <trkpt lat="42.42285" lon="2.74482">
        <ele>1183.3</ele>
        <time>2018-11-26T04:56:36Z</time>
      </trkpt>
      <trkpt lat="42.42285" lon="2.74483">
        <ele>1183.1</ele>
        <time>2018-11-26T04:56:37Z</time>
      </trkpt>
      <trkpt lat="42.42285" lon="2.74484">
        <ele>1183</ele>
        <time>2018-11-26T04:56:37Z</time>
      </trkpt>
      <trkpt lat="42.42285" lon="2.74485">
        <ele>1182.8</ele>
        <time>2018-11-26T04:56:37Z</time>
      </trkpt>
      <trkpt lat="42.42284" lon="2.74485">
        <ele>1182.6</ele>
        <time>2018-11-26T04:56:37Z</time>
      </trkpt>
      <trkpt lat="42.42284" lon="2.74485">
        <ele>1182.4</ele>
        <time>2018-11-26T04:56:37Z</time>
      </trkpt>
      <trkpt lat="42.42284" lon="2.74486">
        <ele>1182.3</ele>
        <time>2018-11-26T04:56:38Z</time>
      </trkpt>
      <trkpt lat="42.42284" lon="2.74487">
        <ele>1181.9</ele>
        <time>2018-11-26T04:56:38Z</time>
      </trkpt>
      <trkpt lat="42.42283" lon="2.74488">
        <ele>1181.8</ele>
        <time>2018-11-26T04:56:38Z</time>
      </trkpt>
      <trkpt lat="42.42283" lon="2.74489">
        <ele>1181.5</ele>
        <time>2018-11-26T04:56:38Z</time>
      </trkpt>
      <trkpt lat="42.42282" lon="2.7449">
        <ele>1181.4</ele>
        <time>2018-11-26T04:56:39Z</time>
      </trkpt>
      <trkpt lat="42.42282" lon="2.7449">
        <ele>1181.4</ele>
        <time>2018-11-26T04:56:39Z</time>
      </trkpt>
      <trkpt lat="42.42282" lon="2.74491">
        <ele>1181.1</ele>
        <time>2018-11-26T04:56:39Z</time>
      </trkpt>
      <trkpt lat="42.42282" lon="2.74491">
        <ele>1181</ele>
        <time>2018-11-26T04:56:39Z</time>
      </trkpt>
      <trkpt lat="42.42281" lon="2.74492">
        <ele>1180.6</ele>
        <time>2018-11-26T04:56:40Z</time>
      </trkpt>
      <trkpt lat="42.42281" lon="2.74493">
        <ele>1180.2</ele>
        <time>2018-11-26T04:56:40Z</time>
      </trkpt>
      <trkpt lat="42.42281" lon="2.74493">
        <ele>1179.9</ele>
        <time>2018-11-26T04:56:40Z</time>
      </trkpt>
      <trkpt lat="42.42281" lon="2.74493">
        <ele>1179.5</ele>
        <time>2018-11-26T04:56:40Z</time>
      </trkpt>
      <trkpt lat="42.4228" lon="2.74494">
        <ele>1178.9</ele>
        <time>2018-11-26T04:56:40Z</time>
      </trkpt>
      <trkpt lat="42.4228" lon="2.74494">
        <ele>1178.9</ele>
        <time>2018-11-26T04:56:41Z</time>
      </trkpt>
      <trkpt lat="42.42279" lon="2.74495">
        <ele>1178.9</ele>
        <time>2018-11-26T04:56:41Z</time>
      </trkpt>
      <trkpt lat="42.42277" lon="2.74496">
        <ele>1179.2</ele>
        <time>2018-11-26T04:56:42Z</time>
      </trkpt>
      <trkpt lat="42.42276" lon="2.74498">
        <ele>1178.8</ele>
        <time>2018-11-26T04:56:43Z</time>
      </trkpt>
      <trkpt lat="42.42276" lon="2.74498">
        <ele>1178.8</ele>
        <time>2018-11-26T04:56:43Z</time>
      </trkpt>
      <trkpt lat="42.42275" lon="2.74499">
        <ele>1178.8</ele>
        <time>2018-11-26T04:56:43Z</time>
      </trkpt>
      <trkpt lat="42.42275" lon="2.745">
        <ele>1178.9</ele>
        <time>2018-11-26T04:56:43Z</time>
      </trkpt>
      <trkpt lat="42.42275" lon="2.74501">
        <ele>1178.8</ele>
        <time>2018-11-26T04:56:44Z</time>
      </trkpt>
      <trkpt lat="42.42274" lon="2.74501">
        <ele>1178.7</ele>
        <time>2018-11-26T04:56:44Z</time>
      </trkpt>
      <trkpt lat="42.42274" lon="2.74503">
        <ele>1178.2</ele>
        <time>2018-11-26T04:56:44Z</time>
      </trkpt>
      <trkpt lat="42.42274" lon="2.74504">
        <ele>1177.6</ele>
        <time>2018-11-26T04:56:45Z</time>
      </trkpt>
      <trkpt lat="42.42273" lon="2.74505">
        <ele>1177.1</ele>
        <time>2018-11-26T04:56:45Z</time>
      </trkpt>
      <trkpt lat="42.42273" lon="2.74505">
        <ele>1177</ele>
        <time>2018-11-26T04:56:45Z</time>
      </trkpt>
      <trkpt lat="42.42272" lon="2.74505">
        <ele>1176.9</ele>
        <time>2018-11-26T04:56:45Z</time>
      </trkpt>
      <trkpt lat="42.42272" lon="2.74506">
        <ele>1176.9</ele>
        <time>2018-11-26T04:56:45Z</time>
      </trkpt>
      <trkpt lat="42.42271" lon="2.74506">
        <ele>1176.7</ele>
        <time>2018-11-26T04:56:46Z</time>
      </trkpt>
      <trkpt lat="42.42271" lon="2.74507">
        <ele>1176.6</ele>
        <time>2018-11-26T04:56:46Z</time>
      </trkpt>
      <trkpt lat="42.42271" lon="2.74507">
        <ele>1176.5</ele>
        <time>2018-11-26T04:56:46Z</time>
      </trkpt>
      <trkpt lat="42.42268" lon="2.74511">
        <ele>1175.7</ele>
        <time>2018-11-26T04:56:48Z</time>
      </trkpt>
      <trkpt lat="42.42266" lon="2.74513">
        <ele>1175.2</ele>
        <time>2018-11-26T04:56:49Z</time>
      </trkpt>
      <trkpt lat="42.42265" lon="2.74514">
        <ele>1174.7</ele>
        <time>2018-11-26T04:56:49Z</time>
      </trkpt>
      <trkpt lat="42.42264" lon="2.74514">
        <ele>1174.6</ele>
        <time>2018-11-26T04:56:49Z</time>
      </trkpt>
      <trkpt lat="42.42263" lon="2.74516">
        <ele>1174</ele>
        <time>2018-11-26T04:56:50Z</time>
      </trkpt>
      <trkpt lat="42.42262" lon="2.74516">
        <ele>1173.8</ele>
        <time>2018-11-26T04:56:51Z</time>
      </trkpt>
      <trkpt lat="42.42261" lon="2.74517">
        <ele>1173.4</ele>
        <time>2018-11-26T04:56:51Z</time>
      </trkpt>
      <trkpt lat="42.4226" lon="2.74517">
        <ele>1173.1</ele>
        <time>2018-11-26T04:56:51Z</time>
      </trkpt>
      <trkpt lat="42.4226" lon="2.74517">
        <ele>1172.8</ele>
        <time>2018-11-26T04:56:52Z</time>
      </trkpt>
      <trkpt lat="42.42259" lon="2.74518">
        <ele>1172.5</ele>
        <time>2018-11-26T04:56:52Z</time>
      </trkpt>
      <trkpt lat="42.42259" lon="2.74518">
        <ele>1172.6</ele>
        <time>2018-11-26T04:56:52Z</time>
      </trkpt>
      <trkpt lat="42.42258" lon="2.74519">
        <ele>1173.2</ele>
        <time>2018-11-26T04:56:52Z</time>
      </trkpt>
      <trkpt lat="42.42257" lon="2.74519">
        <ele>1173.2</ele>
        <time>2018-11-26T04:56:53Z</time>
      </trkpt>
      <trkpt lat="42.42257" lon="2.7452">
        <ele>1173.1</ele>
        <time>2018-11-26T04:56:53Z</time>
      </trkpt>
      <trkpt lat="42.42257" lon="2.7452">
        <ele>1172.9</ele>
        <time>2018-11-26T04:56:53Z</time>
      </trkpt>
      <trkpt lat="42.42256" lon="2.74521">
        <ele>1172.6</ele>
        <time>2018-11-26T04:56:53Z</time>
      </trkpt>
      <trkpt lat="42.42256" lon="2.74522">
        <ele>1172.2</ele>
        <time>2018-11-26T04:56:54Z</time>
      </trkpt>
      <trkpt lat="42.42256" lon="2.74522">
        <ele>1171.6</ele>
        <time>2018-11-26T04:56:54Z</time>
      </trkpt>
      <trkpt lat="42.42255" lon="2.74523">
        <ele>1171.3</ele>
        <time>2018-11-26T04:56:54Z</time>
      </trkpt>
      <trkpt lat="42.42255" lon="2.74524">
        <ele>1170.3</ele>
        <time>2018-11-26T04:56:54Z</time>
      </trkpt>
      <trkpt lat="42.42254" lon="2.74525">
        <ele>1169.8</ele>
        <time>2018-11-26T04:56:55Z</time>
      </trkpt>
      <trkpt lat="42.42253" lon="2.74526">
        <ele>1169.4</ele>
        <time>2018-11-26T04:56:55Z</time>
      </trkpt>
      <trkpt lat="42.42253" lon="2.74526">
        <ele>1169.3</ele>
        <time>2018-11-26T04:56:55Z</time>
      </trkpt>
      <trkpt lat="42.42251" lon="2.74528">
        <ele>1168.9</ele>
        <time>2018-11-26T04:56:56Z</time>
      </trkpt>
      <trkpt lat="42.42251" lon="2.74529">
        <ele>1168.8</ele>
        <time>2018-11-26T04:56:57Z</time>
      </trkpt>
      <trkpt lat="42.4225" lon="2.74529">
        <ele>1168.8</ele>
        <time>2018-11-26T04:56:57Z</time>
      </trkpt>
      <trkpt lat="42.4225" lon="2.74531">
        <ele>1168.7</ele>
        <time>2018-11-26T04:56:57Z</time>
      </trkpt>
      <trkpt lat="42.42249" lon="2.74531">
        <ele>1168.5</ele>
        <time>2018-11-26T04:56:58Z</time>
      </trkpt>
      <trkpt lat="42.42249" lon="2.74531">
        <ele>1168.4</ele>
        <time>2018-11-26T04:56:58Z</time>
      </trkpt>
      <trkpt lat="42.42248" lon="2.74531">
        <ele>1168.3</ele>
        <time>2018-11-26T04:56:58Z</time>
      </trkpt>
      <trkpt lat="42.42248" lon="2.74532">
        <ele>1168</ele>
        <time>2018-11-26T04:56:58Z</time>
      </trkpt>
      <trkpt lat="42.42247" lon="2.74532">
        <ele>1167.7</ele>
        <time>2018-11-26T04:56:58Z</time>
      </trkpt>
      <trkpt lat="42.42247" lon="2.74533">
        <ele>1167.3</ele>
        <time>2018-11-26T04:56:59Z</time>
      </trkpt>
      <trkpt lat="42.42246" lon="2.74534">
        <ele>1167.2</ele>
        <time>2018-11-26T04:56:59Z</time>
      </trkpt>
      <trkpt lat="42.42245" lon="2.74535">
        <ele>1167.1</ele>
        <time>2018-11-26T04:57:00Z</time>
      </trkpt>
      <trkpt lat="42.42245" lon="2.74536">
        <ele>1167.1</ele>
        <time>2018-11-26T04:57:00Z</time>
      </trkpt>
      <trkpt lat="42.42243" lon="2.74539">
        <ele>1166.2</ele>
        <time>2018-11-26T04:57:01Z</time>
      </trkpt>
      <trkpt lat="42.42243" lon="2.7454">
        <ele>1165.6</ele>
        <time>2018-11-26T04:57:01Z</time>
      </trkpt>
      <trkpt lat="42.42242" lon="2.7454">
        <ele>1164.7</ele>
        <time>2018-11-26T04:57:02Z</time>
      </trkpt>
      <trkpt lat="42.42242" lon="2.7454">
        <ele>1164.4</ele>
        <time>2018-11-26T04:57:02Z</time>
      </trkpt>
      <trkpt lat="42.42241" lon="2.74541">
        <ele>1164.1</ele>
        <time>2018-11-26T04:57:02Z</time>
      </trkpt>
      <trkpt lat="42.42241" lon="2.74541">
        <ele>1163.7</ele>
        <time>2018-11-26T04:57:02Z</time>
      </trkpt>
      <trkpt lat="42.42241" lon="2.74542">
        <ele>1163.8</ele>
        <time>2018-11-26T04:57:02Z</time>
      </trkpt>
      <trkpt lat="42.4224" lon="2.74543">
        <ele>1163.9</ele>
        <time>2018-11-26T04:57:03Z</time>
      </trkpt>
      <trkpt lat="42.4224" lon="2.74544">
        <ele>1164</ele>
        <time>2018-11-26T04:57:03Z</time>
      </trkpt>
      <trkpt lat="42.42239" lon="2.74544">
        <ele>1164.2</ele>
        <time>2018-11-26T04:57:03Z</time>
      </trkpt>
      <trkpt lat="42.42239" lon="2.74545">
        <ele>1163.9</ele>
        <time>2018-11-26T04:57:04Z</time>
      </trkpt>
      <trkpt lat="42.42238" lon="2.74545">
        <ele>1163.3</ele>
        <time>2018-11-26T04:57:04Z</time>
      </trkpt>
      <trkpt lat="42.42237" lon="2.74545">
        <ele>1162.7</ele>
        <time>2018-11-26T04:57:04Z</time>
      </trkpt>
      <trkpt lat="42.42237" lon="2.74545">
        <ele>1162.8</ele>
        <time>2018-11-26T04:57:04Z</time>
      </trkpt>
      <trkpt lat="42.42236" lon="2.74546">
        <ele>1162.9</ele>
        <time>2018-11-26T04:57:05Z</time>
      </trkpt>
      <trkpt lat="42.42235" lon="2.74546">
        <ele>1162.9</ele>
        <time>2018-11-26T04:57:05Z</time>
      </trkpt>
      <trkpt lat="42.42235" lon="2.74548">
        <ele>1163</ele>
        <time>2018-11-26T04:57:06Z</time>
      </trkpt>
      <trkpt lat="42.42235" lon="2.74551">
        <ele>1162.9</ele>
        <time>2018-11-26T04:57:06Z</time>
      </trkpt>
      <trkpt lat="42.42235" lon="2.74553">
        <ele>1162</ele>
        <time>2018-11-26T04:57:07Z</time>
      </trkpt>
      <trkpt lat="42.42234" lon="2.74555">
        <ele>1161.3</ele>
        <time>2018-11-26T04:57:08Z</time>
      </trkpt>
      <trkpt lat="42.42234" lon="2.74556">
        <ele>1161.2</ele>
        <time>2018-11-26T04:57:08Z</time>
      </trkpt>
      <trkpt lat="42.42234" lon="2.74557">
        <ele>1161</ele>
        <time>2018-11-26T04:57:08Z</time>
      </trkpt>
      <trkpt lat="42.42234" lon="2.74558">
        <ele>1160.8</ele>
        <time>2018-11-26T04:57:08Z</time>
      </trkpt>
      <trkpt lat="42.42234" lon="2.74558">
        <ele>1160.7</ele>
        <time>2018-11-26T04:57:09Z</time>
      </trkpt>
      <trkpt lat="42.42234" lon="2.74559">
        <ele>1160.8</ele>
        <time>2018-11-26T04:57:09Z</time>
      </trkpt>
      <trkpt lat="42.42234" lon="2.74559">
        <ele>1161.2</ele>
        <time>2018-11-26T04:57:09Z</time>
      </trkpt>
      <trkpt lat="42.42234" lon="2.74559">
        <ele>1161.4</ele>
        <time>2018-11-26T04:57:09Z</time>
      </trkpt>
      <trkpt lat="42.42234" lon="2.74559">
        <ele>1161.6</ele>
        <time>2018-11-26T04:57:09Z</time>
      </trkpt>
      <trkpt lat="42.42234" lon="2.74559">
        <ele>1161.7</ele>
        <time>2018-11-26T04:57:09Z</time>
      </trkpt>
      <trkpt lat="42.42235" lon="2.74559">
        <ele>1161.7</ele>
        <time>2018-11-26T04:57:09Z</time>
      </trkpt>
      <trkpt lat="42.42235" lon="2.74559">
        <ele>1161.5</ele>
        <time>2018-11-26T04:57:09Z</time>
      </trkpt>
      <trkpt lat="42.42235" lon="2.7456">
        <ele>1161.1</ele>
        <time>2018-11-26T04:57:09Z</time>
      </trkpt>
      <trkpt lat="42.42235" lon="2.7456">
        <ele>1160.6</ele>
        <time>2018-11-26T04:57:09Z</time>
      </trkpt>
      <trkpt lat="42.42235" lon="2.7456">
        <ele>1160.6</ele>
        <time>2018-11-26T04:57:09Z</time>
      </trkpt>
      <trkpt lat="42.42235" lon="2.7456">
        <ele>1160.6</ele>
        <time>2018-11-26T04:57:09Z</time>
      </trkpt>
      <trkpt lat="42.42235" lon="2.74561">
        <ele>1160.5</ele>
        <time>2018-11-26T04:57:10Z</time>
      </trkpt>
      <trkpt lat="42.42235" lon="2.74562">
        <ele>1160.4</ele>
        <time>2018-11-26T04:57:10Z</time>
      </trkpt>
      <trkpt lat="42.42234" lon="2.74562">
        <ele>1160.4</ele>
        <time>2018-11-26T04:57:10Z</time>
      </trkpt>
      <trkpt lat="42.42234" lon="2.74563">
        <ele>1160.4</ele>
        <time>2018-11-26T04:57:10Z</time>
      </trkpt>
      <trkpt lat="42.42234" lon="2.74565">
        <ele>1160.2</ele>
        <time>2018-11-26T04:57:11Z</time>
      </trkpt>
      <trkpt lat="42.42234" lon="2.74566">
        <ele>1160.1</ele>
        <time>2018-11-26T04:57:11Z</time>
      </trkpt>
      <trkpt lat="42.42234" lon="2.74567">
        <ele>1159.9</ele>
        <time>2018-11-26T04:57:12Z</time>
      </trkpt>
      <trkpt lat="42.42234" lon="2.74568">
        <ele>1160</ele>
        <time>2018-11-26T04:57:12Z</time>
      </trkpt>
      <trkpt lat="42.42234" lon="2.74569">
        <ele>1160</ele>
        <time>2018-11-26T04:57:12Z</time>
      </trkpt>
      <trkpt lat="42.42234" lon="2.7457">
        <ele>1160.2</ele>
        <time>2018-11-26T04:57:13Z</time>
      </trkpt>
      <trkpt lat="42.42234" lon="2.74571">
        <ele>1160.2</ele>
        <time>2018-11-26T04:57:13Z</time>
      </trkpt>
      <trkpt lat="42.42234" lon="2.74572">
        <ele>1160.1</ele>
        <time>2018-11-26T04:57:13Z</time>
      </trkpt>
      <trkpt lat="42.42234" lon="2.74574">
        <ele>1160.3</ele>
        <time>2018-11-26T04:57:14Z</time>
      </trkpt>
      <trkpt lat="42.42233" lon="2.74575">
        <ele>1160</ele>
        <time>2018-11-26T04:57:14Z</time>
      </trkpt>
      <trkpt lat="42.42233" lon="2.74576">
        <ele>1159.8</ele>
        <time>2018-11-26T04:57:14Z</time>
      </trkpt>
      <trkpt lat="42.42233" lon="2.74578">
        <ele>1159.6</ele>
        <time>2018-11-26T04:57:15Z</time>
      </trkpt>
      <trkpt lat="42.42233" lon="2.74579">
        <ele>1159.5</ele>
        <time>2018-11-26T04:57:15Z</time>
      </trkpt>
      <trkpt lat="42.42233" lon="2.74581">
        <ele>1159</ele>
        <time>2018-11-26T04:57:16Z</time>
      </trkpt>
      <trkpt lat="42.42233" lon="2.74582">
        <ele>1158.7</ele>
        <time>2018-11-26T04:57:16Z</time>
      </trkpt>
      <trkpt lat="42.42232" lon="2.74584">
        <ele>1158.5</ele>
        <time>2018-11-26T04:57:17Z</time>
      </trkpt>
      <trkpt lat="42.42231" lon="2.74584">
        <ele>1158.4</ele>
        <time>2018-11-26T04:57:17Z</time>
      </trkpt>
      <trkpt lat="42.42231" lon="2.74585">
        <ele>1158.5</ele>
        <time>2018-11-26T04:57:17Z</time>
      </trkpt>
      <trkpt lat="42.4223" lon="2.74586">
        <ele>1158.6</ele>
        <time>2018-11-26T04:57:18Z</time>
      </trkpt>
      <trkpt lat="42.4223" lon="2.74586">
        <ele>1158.6</ele>
        <time>2018-11-26T04:57:18Z</time>
      </trkpt>
      <trkpt lat="42.42229" lon="2.74587">
        <ele>1158.4</ele>
        <time>2018-11-26T04:57:18Z</time>
      </trkpt>
      <trkpt lat="42.42229" lon="2.74588">
        <ele>1158</ele>
        <time>2018-11-26T04:57:19Z</time>
      </trkpt>
      <trkpt lat="42.42229" lon="2.74589">
        <ele>1157.3</ele>
        <time>2018-11-26T04:57:19Z</time>
      </trkpt>
      <trkpt lat="42.42229" lon="2.7459">
        <ele>1157.3</ele>
        <time>2018-11-26T04:57:19Z</time>
      </trkpt>
      <trkpt lat="42.42228" lon="2.74591">
        <ele>1157.4</ele>
        <time>2018-11-26T04:57:19Z</time>
      </trkpt>
      <trkpt lat="42.42228" lon="2.74591">
        <ele>1157.3</ele>
        <time>2018-11-26T04:57:20Z</time>
      </trkpt>
      <trkpt lat="42.42228" lon="2.74592">
        <ele>1157</ele>
        <time>2018-11-26T04:57:20Z</time>
      </trkpt>
      <trkpt lat="42.42227" lon="2.74593">
        <ele>1156.8</ele>
        <time>2018-11-26T04:57:20Z</time>
      </trkpt>
      <trkpt lat="42.42228" lon="2.74594">
        <ele>1156.3</ele>
        <time>2018-11-26T04:57:21Z</time>
      </trkpt>
      <trkpt lat="42.42228" lon="2.74595">
        <ele>1155.8</ele>
        <time>2018-11-26T04:57:21Z</time>
      </trkpt>
      <trkpt lat="42.42227" lon="2.74596">
        <ele>1155.9</ele>
        <time>2018-11-26T04:57:21Z</time>
      </trkpt>
      <trkpt lat="42.42227" lon="2.74597">
        <ele>1156</ele>
        <time>2018-11-26T04:57:21Z</time>
      </trkpt>
      <trkpt lat="42.42227" lon="2.74598">
        <ele>1156</ele>
        <time>2018-11-26T04:57:22Z</time>
      </trkpt>
      <trkpt lat="42.42227" lon="2.74599">
        <ele>1156</ele>
        <time>2018-11-26T04:57:22Z</time>
      </trkpt>
      <trkpt lat="42.42227" lon="2.746">
        <ele>1156</ele>
        <time>2018-11-26T04:57:22Z</time>
      </trkpt>
      <trkpt lat="42.42226" lon="2.74601">
        <ele>1155.8</ele>
        <time>2018-11-26T04:57:23Z</time>
      </trkpt>
      <trkpt lat="42.42226" lon="2.74602">
        <ele>1155.7</ele>
        <time>2018-11-26T04:57:23Z</time>
      </trkpt>
      <trkpt lat="42.42227" lon="2.74604">
        <ele>1155.6</ele>
        <time>2018-11-26T04:57:23Z</time>
      </trkpt>
      <trkpt lat="42.42227" lon="2.74605">
        <ele>1155.7</ele>
        <time>2018-11-26T04:57:24Z</time>
      </trkpt>
      <trkpt lat="42.42227" lon="2.74606">
        <ele>1155.5</ele>
        <time>2018-11-26T04:57:24Z</time>
      </trkpt>
      <trkpt lat="42.42226" lon="2.74607">
        <ele>1155.4</ele>
        <time>2018-11-26T04:57:25Z</time>
      </trkpt>
      <trkpt lat="42.42226" lon="2.74608">
        <ele>1155.3</ele>
        <time>2018-11-26T04:57:25Z</time>
      </trkpt>
      <trkpt lat="42.42226" lon="2.74609">
        <ele>1155.1</ele>
        <time>2018-11-26T04:57:25Z</time>
      </trkpt>
      <trkpt lat="42.42226" lon="2.7461">
        <ele>1155</ele>
        <time>2018-11-26T04:57:25Z</time>
      </trkpt>
      <trkpt lat="42.42226" lon="2.74611">
        <ele>1155</ele>
        <time>2018-11-26T04:57:26Z</time>
      </trkpt>
      <trkpt lat="42.42225" lon="2.74613">
        <ele>1154.8</ele>
        <time>2018-11-26T04:57:26Z</time>
      </trkpt>
      <trkpt lat="42.42225" lon="2.74614">
        <ele>1154.4</ele>
        <time>2018-11-26T04:57:26Z</time>
      </trkpt>
      <trkpt lat="42.42225" lon="2.74615">
        <ele>1154.1</ele>
        <time>2018-11-26T04:57:27Z</time>
      </trkpt>
      <trkpt lat="42.42225" lon="2.74616">
        <ele>1153.7</ele>
        <time>2018-11-26T04:57:27Z</time>
      </trkpt>
      <trkpt lat="42.42225" lon="2.74617">
        <ele>1153.3</ele>
        <time>2018-11-26T04:57:27Z</time>
      </trkpt>
      <trkpt lat="42.42224" lon="2.74618">
        <ele>1152.9</ele>
        <time>2018-11-26T04:57:28Z</time>
      </trkpt>
      <trkpt lat="42.42224" lon="2.7462">
        <ele>1152.7</ele>
        <time>2018-11-26T04:57:28Z</time>
      </trkpt>
      <trkpt lat="42.42223" lon="2.74621">
        <ele>1153</ele>
        <time>2018-11-26T04:57:29Z</time>
      </trkpt>
      <trkpt lat="42.42223" lon="2.74621">
        <ele>1152.8</ele>
        <time>2018-11-26T04:57:29Z</time>
      </trkpt>
      <trkpt lat="42.42223" lon="2.74622">
        <ele>1152.7</ele>
        <time>2018-11-26T04:57:29Z</time>
      </trkpt>
      <trkpt lat="42.42222" lon="2.74622">
        <ele>1152.4</ele>
        <time>2018-11-26T04:57:29Z</time>
      </trkpt>
      <trkpt lat="42.42222" lon="2.74623">
        <ele>1152.4</ele>
        <time>2018-11-26T04:57:30Z</time>
      </trkpt>
      <trkpt lat="42.42222" lon="2.74624">
        <ele>1152.2</ele>
        <time>2018-11-26T04:57:30Z</time>
      </trkpt>
      <trkpt lat="42.42221" lon="2.74625">
        <ele>1152</ele>
        <time>2018-11-26T04:57:30Z</time>
      </trkpt>
      <trkpt lat="42.42221" lon="2.74626">
        <ele>1152.1</ele>
        <time>2018-11-26T04:57:31Z</time>
      </trkpt>
      <trkpt lat="42.42221" lon="2.74626">
        <ele>1151.8</ele>
        <time>2018-11-26T04:57:31Z</time>
      </trkpt>
      <trkpt lat="42.4222" lon="2.74627">
        <ele>1151.8</ele>
        <time>2018-11-26T04:57:31Z</time>
      </trkpt>
      <trkpt lat="42.4222" lon="2.74628">
        <ele>1151.5</ele>
        <time>2018-11-26T04:57:31Z</time>
      </trkpt>
      <trkpt lat="42.4222" lon="2.74629">
        <ele>1151.3</ele>
        <time>2018-11-26T04:57:32Z</time>
      </trkpt>
      <trkpt lat="42.4222" lon="2.7463">
        <ele>1151.2</ele>
        <time>2018-11-26T04:57:32Z</time>
      </trkpt>
      <trkpt lat="42.4222" lon="2.7463">
        <ele>1151.1</ele>
        <time>2018-11-26T04:57:32Z</time>
      </trkpt>
      <trkpt lat="42.42219" lon="2.74631">
        <ele>1150.7</ele>
        <time>2018-11-26T04:57:32Z</time>
      </trkpt>
      <trkpt lat="42.4222" lon="2.74632">
        <ele>1150.4</ele>
        <time>2018-11-26T04:57:33Z</time>
      </trkpt>
      <trkpt lat="42.4222" lon="2.74633">
        <ele>1149.8</ele>
        <time>2018-11-26T04:57:33Z</time>
      </trkpt>
      <trkpt lat="42.42219" lon="2.74634">
        <ele>1149.5</ele>
        <time>2018-11-26T04:57:33Z</time>
      </trkpt>
      <trkpt lat="42.42219" lon="2.74635">
        <ele>1149</ele>
        <time>2018-11-26T04:57:33Z</time>
      </trkpt>
      <trkpt lat="42.42219" lon="2.74637">
        <ele>1148.4</ele>
        <time>2018-11-26T04:57:34Z</time>
      </trkpt>
      <trkpt lat="42.42219" lon="2.74637">
        <ele>1148.6</ele>
        <time>2018-11-26T04:57:34Z</time>
      </trkpt>
      <trkpt lat="42.42218" lon="2.74637">
        <ele>1148.8</ele>
        <time>2018-11-26T04:57:34Z</time>
      </trkpt>
      <trkpt lat="42.42218" lon="2.74638">
        <ele>1148.6</ele>
        <time>2018-11-26T04:57:35Z</time>
      </trkpt>
      <trkpt lat="42.42217" lon="2.74639">
        <ele>1148.4</ele>
        <time>2018-11-26T04:57:35Z</time>
      </trkpt>
      <trkpt lat="42.42217" lon="2.7464">
        <ele>1148.1</ele>
        <time>2018-11-26T04:57:35Z</time>
      </trkpt>
      <trkpt lat="42.42217" lon="2.74641">
        <ele>1147.6</ele>
        <time>2018-11-26T04:57:36Z</time>
      </trkpt>
      <trkpt lat="42.42217" lon="2.74643">
        <ele>1147.2</ele>
        <time>2018-11-26T04:57:36Z</time>
      </trkpt>
      <trkpt lat="42.42217" lon="2.74644">
        <ele>1146.8</ele>
        <time>2018-11-26T04:57:36Z</time>
      </trkpt>
      <trkpt lat="42.42217" lon="2.74647">
        <ele>1146.2</ele>
        <time>2018-11-26T04:57:37Z</time>
      </trkpt>
      <trkpt lat="42.42216" lon="2.74648">
        <ele>1145.8</ele>
        <time>2018-11-26T04:57:38Z</time>
      </trkpt>
      <trkpt lat="42.42217" lon="2.7465">
        <ele>1145.4</ele>
        <time>2018-11-26T04:57:38Z</time>
      </trkpt>
      <trkpt lat="42.42217" lon="2.74651">
        <ele>1145.5</ele>
        <time>2018-11-26T04:57:39Z</time>
      </trkpt>
      <trkpt lat="42.42217" lon="2.74653">
        <ele>1145.8</ele>
        <time>2018-11-26T04:57:39Z</time>
      </trkpt>
      <trkpt lat="42.42217" lon="2.74654">
        <ele>1146.2</ele>
        <time>2018-11-26T04:57:40Z</time>
      </trkpt>
      <trkpt lat="42.42217" lon="2.74656">
        <ele>1145.9</ele>
        <time>2018-11-26T04:57:40Z</time>
      </trkpt>
      <trkpt lat="42.42217" lon="2.74657">
        <ele>1145.5</ele>
        <time>2018-11-26T04:57:40Z</time>
      </trkpt>
      <trkpt lat="42.42217" lon="2.74658">
        <ele>1145</ele>
        <time>2018-11-26T04:57:41Z</time>
      </trkpt>
      <trkpt lat="42.42217" lon="2.7466">
        <ele>1145.1</ele>
        <time>2018-11-26T04:57:41Z</time>
      </trkpt>
      <trkpt lat="42.42217" lon="2.74661">
        <ele>1144.8</ele>
        <time>2018-11-26T04:57:42Z</time>
      </trkpt>
      <trkpt lat="42.42218" lon="2.74662">
        <ele>1144.8</ele>
        <time>2018-11-26T04:57:42Z</time>
      </trkpt>
      <trkpt lat="42.42218" lon="2.74664">
        <ele>1144.5</ele>
        <time>2018-11-26T04:57:42Z</time>
      </trkpt>
      <trkpt lat="42.42218" lon="2.74665">
        <ele>1144.4</ele>
        <time>2018-11-26T04:57:43Z</time>
      </trkpt>
      <trkpt lat="42.42218" lon="2.74666">
        <ele>1144.4</ele>
        <time>2018-11-26T04:57:43Z</time>
      </trkpt>
      <trkpt lat="42.42217" lon="2.74667">
        <ele>1144</ele>
        <time>2018-11-26T04:57:44Z</time>
      </trkpt>
      <trkpt lat="42.42217" lon="2.74667">
        <ele>1143.8</ele>
        <time>2018-11-26T04:57:44Z</time>
      </trkpt>
      <trkpt lat="42.42216" lon="2.74668">
        <ele>1143.7</ele>
        <time>2018-11-26T04:57:44Z</time>
      </trkpt>
      <trkpt lat="42.42216" lon="2.7467">
        <ele>1143.5</ele>
        <time>2018-11-26T04:57:45Z</time>
      </trkpt>
      <trkpt lat="42.42216" lon="2.74671">
        <ele>1143.3</ele>
        <time>2018-11-26T04:57:45Z</time>
      </trkpt>
      <trkpt lat="42.42216" lon="2.74672">
        <ele>1143.4</ele>
        <time>2018-11-26T04:57:45Z</time>
      </trkpt>
      <trkpt lat="42.42216" lon="2.74673">
        <ele>1143.4</ele>
        <time>2018-11-26T04:57:46Z</time>
      </trkpt>
      <trkpt lat="42.42216" lon="2.74674">
        <ele>1143.5</ele>
        <time>2018-11-26T04:57:46Z</time>
      </trkpt>
      <trkpt lat="42.42216" lon="2.74675">
        <ele>1143.2</ele>
        <time>2018-11-26T04:57:46Z</time>
      </trkpt>
      <trkpt lat="42.42216" lon="2.74676">
        <ele>1143</ele>
        <time>2018-11-26T04:57:46Z</time>
      </trkpt>
      <trkpt lat="42.42216" lon="2.74677">
        <ele>1142.4</ele>
        <time>2018-11-26T04:57:47Z</time>
      </trkpt>
      <trkpt lat="42.42217" lon="2.74678">
        <ele>1141.7</ele>
        <time>2018-11-26T04:57:47Z</time>
      </trkpt>
      <trkpt lat="42.42216" lon="2.74679">
        <ele>1141.8</ele>
        <time>2018-11-26T04:57:47Z</time>
      </trkpt>
      <trkpt lat="42.42215" lon="2.74681">
        <ele>1142.1</ele>
        <time>2018-11-26T04:57:48Z</time>
      </trkpt>
      <trkpt lat="42.42215" lon="2.74683">
        <ele>1142.4</ele>
        <time>2018-11-26T04:57:49Z</time>
      </trkpt>
      <trkpt lat="42.42214" lon="2.74684">
        <ele>1142.5</ele>
        <time>2018-11-26T04:57:49Z</time>
      </trkpt>
      <trkpt lat="42.42214" lon="2.74685">
        <ele>1142.3</ele>
        <time>2018-11-26T04:57:49Z</time>
      </trkpt>
      <trkpt lat="42.42214" lon="2.74686">
        <ele>1142.1</ele>
        <time>2018-11-26T04:57:50Z</time>
      </trkpt>
      <trkpt lat="42.42214" lon="2.74687">
        <ele>1141.7</ele>
        <time>2018-11-26T04:57:50Z</time>
      </trkpt>
      <trkpt lat="42.42214" lon="2.74689">
        <ele>1140.8</ele>
        <time>2018-11-26T04:57:50Z</time>
      </trkpt>
      <trkpt lat="42.42213" lon="2.74691">
        <ele>1140.3</ele>
        <time>2018-11-26T04:57:51Z</time>
      </trkpt>
      <trkpt lat="42.42213" lon="2.74691">
        <ele>1140.3</ele>
        <time>2018-11-26T04:57:51Z</time>
      </trkpt>
      <trkpt lat="42.42213" lon="2.74692">
        <ele>1140.5</ele>
        <time>2018-11-26T04:57:52Z</time>
      </trkpt>
      <trkpt lat="42.42212" lon="2.74693">
        <ele>1140.8</ele>
        <time>2018-11-26T04:57:52Z</time>
      </trkpt>
      <trkpt lat="42.42212" lon="2.74694">
        <ele>1140.5</ele>
        <time>2018-11-26T04:57:52Z</time>
      </trkpt>
      <trkpt lat="42.42212" lon="2.74695">
        <ele>1140</ele>
        <time>2018-11-26T04:57:52Z</time>
      </trkpt>
      <trkpt lat="42.42212" lon="2.74696">
        <ele>1139.5</ele>
        <time>2018-11-26T04:57:53Z</time>
      </trkpt>
      <trkpt lat="42.42212" lon="2.74697">
        <ele>1139.5</ele>
        <time>2018-11-26T04:57:53Z</time>
      </trkpt>
      <trkpt lat="42.42212" lon="2.74697">
        <ele>1139.5</ele>
        <time>2018-11-26T04:57:53Z</time>
      </trkpt>
      <trkpt lat="42.42211" lon="2.74699">
        <ele>1139.3</ele>
        <time>2018-11-26T04:57:54Z</time>
      </trkpt>
      <trkpt lat="42.42211" lon="2.74699">
        <ele>1139.1</ele>
        <time>2018-11-26T04:57:54Z</time>
      </trkpt>
      <trkpt lat="42.42211" lon="2.747">
        <ele>1138.5</ele>
        <time>2018-11-26T04:57:54Z</time>
      </trkpt>
      <trkpt lat="42.4221" lon="2.74701">
        <ele>1138.5</ele>
        <time>2018-11-26T04:57:54Z</time>
      </trkpt>
      <trkpt lat="42.4221" lon="2.74702">
        <ele>1138.6</ele>
        <time>2018-11-26T04:57:55Z</time>
      </trkpt>
      <trkpt lat="42.4221" lon="2.74702">
        <ele>1138.5</ele>
        <time>2018-11-26T04:57:55Z</time>
      </trkpt>
      <trkpt lat="42.4221" lon="2.74703">
        <ele>1138.5</ele>
        <time>2018-11-26T04:57:55Z</time>
      </trkpt>
      <trkpt lat="42.4221" lon="2.74704">
        <ele>1138.3</ele>
        <time>2018-11-26T04:57:55Z</time>
      </trkpt>
      <trkpt lat="42.4221" lon="2.74705">
        <ele>1138.1</ele>
        <time>2018-11-26T04:57:56Z</time>
      </trkpt>
      <trkpt lat="42.42209" lon="2.74705">
        <ele>1138.1</ele>
        <time>2018-11-26T04:57:56Z</time>
      </trkpt>
      <trkpt lat="42.42209" lon="2.74706">
        <ele>1138.1</ele>
        <time>2018-11-26T04:57:56Z</time>
      </trkpt>
      <trkpt lat="42.42209" lon="2.74707">
        <ele>1138</ele>
        <time>2018-11-26T04:57:57Z</time>
      </trkpt>
      <trkpt lat="42.42208" lon="2.74708">
        <ele>1138</ele>
        <time>2018-11-26T04:57:57Z</time>
      </trkpt>
      <trkpt lat="42.42208" lon="2.74709">
        <ele>1137.6</ele>
        <time>2018-11-26T04:57:57Z</time>
      </trkpt>
      <trkpt lat="42.42208" lon="2.7471">
        <ele>1137.1</ele>
        <time>2018-11-26T04:57:57Z</time>
      </trkpt>
      <trkpt lat="42.42207" lon="2.74712">
        <ele>1136.5</ele>
        <time>2018-11-26T04:57:58Z</time>
      </trkpt>
      <trkpt lat="42.42207" lon="2.74713">
        <ele>1136.3</ele>
        <time>2018-11-26T04:57:58Z</time>
      </trkpt>
      <trkpt lat="42.42207" lon="2.74715">
        <ele>1136.2</ele>
        <time>2018-11-26T04:57:59Z</time>
      </trkpt>
      <trkpt lat="42.42207" lon="2.74715">
        <ele>1135.9</ele>
        <time>2018-11-26T04:57:59Z</time>
      </trkpt>
      <trkpt lat="42.42206" lon="2.74716">
        <ele>1135.6</ele>
        <time>2018-11-26T04:57:59Z</time>
      </trkpt>
      <trkpt lat="42.42206" lon="2.74716">
        <ele>1135.3</ele>
        <time>2018-11-26T04:57:59Z</time>
      </trkpt>
      <trkpt lat="42.42206" lon="2.74717">
        <ele>1134.8</ele>
        <time>2018-11-26T04:58:00Z</time>
      </trkpt>
      <trkpt lat="42.42206" lon="2.74717">
        <ele>1134.3</ele>
        <time>2018-11-26T04:58:00Z</time>
      </trkpt>
      <trkpt lat="42.42206" lon="2.74718">
        <ele>1133.6</ele>
        <time>2018-11-26T04:58:00Z</time>
      </trkpt>
      <trkpt lat="42.42205" lon="2.74719">
        <ele>1133.6</ele>
        <time>2018-11-26T04:58:00Z</time>
      </trkpt>
      <trkpt lat="42.42205" lon="2.7472">
        <ele>1133.2</ele>
        <time>2018-11-26T04:58:01Z</time>
      </trkpt>
      <trkpt lat="42.42205" lon="2.74721">
        <ele>1133</ele>
        <time>2018-11-26T04:58:01Z</time>
      </trkpt>
      <trkpt lat="42.42205" lon="2.74721">
        <ele>1133.1</ele>
        <time>2018-11-26T04:58:01Z</time>
      </trkpt>
      <trkpt lat="42.42205" lon="2.74722">
        <ele>1133.4</ele>
        <time>2018-11-26T04:58:01Z</time>
      </trkpt>
      <trkpt lat="42.42205" lon="2.74723">
        <ele>1133.8</ele>
        <time>2018-11-26T04:58:02Z</time>
      </trkpt>
      <trkpt lat="42.42205" lon="2.74725">
        <ele>1133.6</ele>
        <time>2018-11-26T04:58:02Z</time>
      </trkpt>
      <trkpt lat="42.42205" lon="2.74726">
        <ele>1133.4</ele>
        <time>2018-11-26T04:58:02Z</time>
      </trkpt>
      <trkpt lat="42.42206" lon="2.74727">
        <ele>1132.9</ele>
        <time>2018-11-26T04:58:03Z</time>
      </trkpt>
      <trkpt lat="42.42206" lon="2.74728">
        <ele>1132.8</ele>
        <time>2018-11-26T04:58:03Z</time>
      </trkpt>
      <trkpt lat="42.42206" lon="2.74729">
        <ele>1132.5</ele>
        <time>2018-11-26T04:58:03Z</time>
      </trkpt>
      <trkpt lat="42.42205" lon="2.7473">
        <ele>1132</ele>
        <time>2018-11-26T04:58:04Z</time>
      </trkpt>
      <trkpt lat="42.42205" lon="2.74731">
        <ele>1131.6</ele>
        <time>2018-11-26T04:58:04Z</time>
      </trkpt>
      <trkpt lat="42.42205" lon="2.74732">
        <ele>1131.2</ele>
        <time>2018-11-26T04:58:04Z</time>
      </trkpt>
      <trkpt lat="42.42204" lon="2.74732">
        <ele>1130.5</ele>
        <time>2018-11-26T04:58:04Z</time>
      </trkpt>
      <trkpt lat="42.42204" lon="2.74733">
        <ele>1130.5</ele>
        <time>2018-11-26T04:58:05Z</time>
      </trkpt>
      <trkpt lat="42.42203" lon="2.74734">
        <ele>1130.5</ele>
        <time>2018-11-26T04:58:05Z</time>
      </trkpt>
      <trkpt lat="42.42203" lon="2.74735">
        <ele>1130.7</ele>
        <time>2018-11-26T04:58:06Z</time>
      </trkpt>
      <trkpt lat="42.42203" lon="2.74736">
        <ele>1130.7</ele>
        <time>2018-11-26T04:58:06Z</time>
      </trkpt>
      <trkpt lat="42.42202" lon="2.74737">
        <ele>1130.7</ele>
        <time>2018-11-26T04:58:06Z</time>
      </trkpt>
      <trkpt lat="42.42202" lon="2.74738">
        <ele>1130.6</ele>
        <time>2018-11-26T04:58:06Z</time>
      </trkpt>
      <trkpt lat="42.42202" lon="2.74739">
        <ele>1130.3</ele>
        <time>2018-11-26T04:58:07Z</time>
      </trkpt>
      <trkpt lat="42.42202" lon="2.74739">
        <ele>1130.2</ele>
        <time>2018-11-26T04:58:07Z</time>
      </trkpt>
      <trkpt lat="42.42201" lon="2.7474">
        <ele>1129.4</ele>
        <time>2018-11-26T04:58:07Z</time>
      </trkpt>
      <trkpt lat="42.42201" lon="2.74741">
        <ele>1129.4</ele>
        <time>2018-11-26T04:58:07Z</time>
      </trkpt>
      <trkpt lat="42.42201" lon="2.74741">
        <ele>1129.4</ele>
        <time>2018-11-26T04:58:08Z</time>
      </trkpt>
      <trkpt lat="42.42201" lon="2.74742">
        <ele>1129.3</ele>
        <time>2018-11-26T04:58:08Z</time>
      </trkpt>
      <trkpt lat="42.422" lon="2.74742">
        <ele>1129</ele>
        <time>2018-11-26T04:58:08Z</time>
      </trkpt>
      <trkpt lat="42.422" lon="2.74743">
        <ele>1128.5</ele>
        <time>2018-11-26T04:58:08Z</time>
      </trkpt>
      <trkpt lat="42.422" lon="2.74743">
        <ele>1127.9</ele>
        <time>2018-11-26T04:58:08Z</time>
      </trkpt>
      <trkpt lat="42.422" lon="2.74744">
        <ele>1127.7</ele>
        <time>2018-11-26T04:58:08Z</time>
      </trkpt>
      <trkpt lat="42.42201" lon="2.74744">
        <ele>1127.4</ele>
        <time>2018-11-26T04:58:08Z</time>
      </trkpt>
      <trkpt lat="42.42201" lon="2.74744">
        <ele>1126.9</ele>
        <time>2018-11-26T04:58:09Z</time>
      </trkpt>
      <trkpt lat="42.422" lon="2.74744">
        <ele>1126.4</ele>
        <time>2018-11-26T04:58:09Z</time>
      </trkpt>
      <trkpt lat="42.422" lon="2.74745">
        <ele>1126.2</ele>
        <time>2018-11-26T04:58:09Z</time>
      </trkpt>
      <trkpt lat="42.42199" lon="2.74747">
        <ele>1125.4</ele>
        <time>2018-11-26T04:58:10Z</time>
      </trkpt>
      <trkpt lat="42.42198" lon="2.74748">
        <ele>1125.1</ele>
        <time>2018-11-26T04:58:10Z</time>
      </trkpt>
      <trkpt lat="42.42198" lon="2.74748">
        <ele>1124.6</ele>
        <time>2018-11-26T04:58:10Z</time>
      </trkpt>
      <trkpt lat="42.42197" lon="2.74748">
        <ele>1124.7</ele>
        <time>2018-11-26T04:58:10Z</time>
      </trkpt>
      <trkpt lat="42.42197" lon="2.74748">
        <ele>1124.4</ele>
        <time>2018-11-26T04:58:11Z</time>
      </trkpt>
      <trkpt lat="42.42196" lon="2.74749">
        <ele>1124.4</ele>
        <time>2018-11-26T04:58:11Z</time>
      </trkpt>
      <trkpt lat="42.42196" lon="2.74749">
        <ele>1124.4</ele>
        <time>2018-11-26T04:58:11Z</time>
      </trkpt>
      <trkpt lat="42.42195" lon="2.74749">
        <ele>1124.4</ele>
        <time>2018-11-26T04:58:11Z</time>
      </trkpt>
      <trkpt lat="42.42195" lon="2.74749">
        <ele>1124.3</ele>
        <time>2018-11-26T04:58:12Z</time>
      </trkpt>
      <trkpt lat="42.42194" lon="2.74749">
        <ele>1124.2</ele>
        <time>2018-11-26T04:58:12Z</time>
      </trkpt>
      <trkpt lat="42.42194" lon="2.7475">
        <ele>1124.2</ele>
        <time>2018-11-26T04:58:12Z</time>
      </trkpt>
      <trkpt lat="42.42194" lon="2.7475">
        <ele>1124.1</ele>
        <time>2018-11-26T04:58:12Z</time>
      </trkpt>
      <trkpt lat="42.42194" lon="2.7475">
        <ele>1124.1</ele>
        <time>2018-11-26T04:58:12Z</time>
      </trkpt>
      <trkpt lat="42.42194" lon="2.74751">
        <ele>1123.8</ele>
        <time>2018-11-26T04:58:12Z</time>
      </trkpt>
      <trkpt lat="42.42193" lon="2.74751">
        <ele>1123.7</ele>
        <time>2018-11-26T04:58:12Z</time>
      </trkpt>
      <trkpt lat="42.42193" lon="2.74751">
        <ele>1123.3</ele>
        <time>2018-11-26T04:58:13Z</time>
      </trkpt>
      <trkpt lat="42.42192" lon="2.74751">
        <ele>1122.9</ele>
        <time>2018-11-26T04:58:13Z</time>
      </trkpt>
      <trkpt lat="42.42192" lon="2.74751">
        <ele>1122.3</ele>
        <time>2018-11-26T04:58:13Z</time>
      </trkpt>
      <trkpt lat="42.42191" lon="2.74751">
        <ele>1121.6</ele>
        <time>2018-11-26T04:58:13Z</time>
      </trkpt>
      <trkpt lat="42.42191" lon="2.74751">
        <ele>1121.2</ele>
        <time>2018-11-26T04:58:14Z</time>
      </trkpt>
      <trkpt lat="42.42191" lon="2.74751">
        <ele>1120.8</ele>
        <time>2018-11-26T04:58:14Z</time>
      </trkpt>
      <trkpt lat="42.4219" lon="2.7475">
        <ele>1120.2</ele>
        <time>2018-11-26T04:58:14Z</time>
      </trkpt>
      <trkpt lat="42.4219" lon="2.7475">
        <ele>1120</ele>
        <time>2018-11-26T04:58:14Z</time>
      </trkpt>
      <trkpt lat="42.4219" lon="2.7475">
        <ele>1119.6</ele>
        <time>2018-11-26T04:58:14Z</time>
      </trkpt>
      <trkpt lat="42.42189" lon="2.7475">
        <ele>1119.3</ele>
        <time>2018-11-26T04:58:14Z</time>
      </trkpt>
      <trkpt lat="42.42189" lon="2.7475">
        <ele>1119.2</ele>
        <time>2018-11-26T04:58:14Z</time>
      </trkpt>
      <trkpt lat="42.42188" lon="2.7475">
        <ele>1119.2</ele>
        <time>2018-11-26T04:58:14Z</time>
      </trkpt>
      <trkpt lat="42.42188" lon="2.7475">
        <ele>1119.1</ele>
        <time>2018-11-26T04:58:15Z</time>
      </trkpt>
      <trkpt lat="42.42187" lon="2.7475">
        <ele>1119.3</ele>
        <time>2018-11-26T04:58:15Z</time>
      </trkpt>
      <trkpt lat="42.42187" lon="2.7475">
        <ele>1119.3</ele>
        <time>2018-11-26T04:58:15Z</time>
      </trkpt>
      <trkpt lat="42.42187" lon="2.74749">
        <ele>1119.4</ele>
        <time>2018-11-26T04:58:15Z</time>
      </trkpt>
      <trkpt lat="42.42186" lon="2.74749">
        <ele>1119.5</ele>
        <time>2018-11-26T04:58:16Z</time>
      </trkpt>
      <trkpt lat="42.42186" lon="2.74748">
        <ele>1119.7</ele>
        <time>2018-11-26T04:58:16Z</time>
      </trkpt>
      <trkpt lat="42.42185" lon="2.74748">
        <ele>1119.8</ele>
        <time>2018-11-26T04:58:16Z</time>
      </trkpt>
      <trkpt lat="42.42185" lon="2.74748">
        <ele>1120.1</ele>
        <time>2018-11-26T04:58:16Z</time>
      </trkpt>
      <trkpt lat="42.42185" lon="2.74747">
        <ele>1119.7</ele>
        <time>2018-11-26T04:58:16Z</time>
      </trkpt>
      <trkpt lat="42.42185" lon="2.74747">
        <ele>1119.2</ele>
        <time>2018-11-26T04:58:16Z</time>
      </trkpt>
      <trkpt lat="42.42185" lon="2.74747">
        <ele>1118.7</ele>
        <time>2018-11-26T04:58:16Z</time>
      </trkpt>
      <trkpt lat="42.42185" lon="2.74747">
        <ele>1118.6</ele>
        <time>2018-11-26T04:58:16Z</time>
      </trkpt>
      <trkpt lat="42.42185" lon="2.74747">
        <ele>1118.7</ele>
        <time>2018-11-26T04:58:17Z</time>
      </trkpt>
      <trkpt lat="42.42184" lon="2.74746">
        <ele>1118.7</ele>
        <time>2018-11-26T04:58:17Z</time>
      </trkpt>
      <trkpt lat="42.42184" lon="2.74746">
        <ele>1118.8</ele>
        <time>2018-11-26T04:58:17Z</time>
      </trkpt>
      <trkpt lat="42.42184" lon="2.74746">
        <ele>1118.8</ele>
        <time>2018-11-26T04:58:17Z</time>
      </trkpt>
      <trkpt lat="42.42184" lon="2.74746">
        <ele>1118.6</ele>
        <time>2018-11-26T04:58:17Z</time>
      </trkpt>
      <trkpt lat="42.42183" lon="2.74746">
        <ele>1118.7</ele>
        <time>2018-11-26T04:58:17Z</time>
      </trkpt>
      <trkpt lat="42.42183" lon="2.74746">
        <ele>1118.5</ele>
        <time>2018-11-26T04:58:17Z</time>
      </trkpt>
      <trkpt lat="42.42182" lon="2.74746">
        <ele>1118.4</ele>
        <time>2018-11-26T04:58:18Z</time>
      </trkpt>
      <trkpt lat="42.42181" lon="2.74746">
        <ele>1118.2</ele>
        <time>2018-11-26T04:58:18Z</time>
      </trkpt>
      <trkpt lat="42.42181" lon="2.74747">
        <ele>1117.8</ele>
        <time>2018-11-26T04:58:18Z</time>
      </trkpt>
      <trkpt lat="42.4218" lon="2.74747">
        <ele>1117.2</ele>
        <time>2018-11-26T04:58:18Z</time>
      </trkpt>
      <trkpt lat="42.42179" lon="2.74749">
        <ele>1115.5</ele>
        <time>2018-11-26T04:58:19Z</time>
      </trkpt>
      <trkpt lat="42.42178" lon="2.74749">
        <ele>1115</ele>
        <time>2018-11-26T04:58:20Z</time>
      </trkpt>
      <trkpt lat="42.42176" lon="2.74749">
        <ele>1114.5</ele>
        <time>2018-11-26T04:58:20Z</time>
      </trkpt>
      <trkpt lat="42.42176" lon="2.7475">
        <ele>1114.3</ele>
        <time>2018-11-26T04:58:21Z</time>
      </trkpt>
      <trkpt lat="42.42175" lon="2.7475">
        <ele>1114</ele>
        <time>2018-11-26T04:58:21Z</time>
      </trkpt>
      <trkpt lat="42.42174" lon="2.7475">
        <ele>1113.9</ele>
        <time>2018-11-26T04:58:21Z</time>
      </trkpt>
      <trkpt lat="42.42174" lon="2.74751">
        <ele>1113.6</ele>
        <time>2018-11-26T04:58:21Z</time>
      </trkpt>
      <trkpt lat="42.42174" lon="2.74751">
        <ele>1113.6</ele>
        <time>2018-11-26T04:58:21Z</time>
      </trkpt>
      <trkpt lat="42.42174" lon="2.7475">
        <ele>1113.4</ele>
        <time>2018-11-26T04:58:21Z</time>
      </trkpt>
      <trkpt lat="42.42174" lon="2.74748">
        <ele>1113.3</ele>
        <time>2018-11-26T04:58:22Z</time>
      </trkpt>
      <trkpt lat="42.42173" lon="2.74747">
        <ele>1113.3</ele>
        <time>2018-11-26T04:58:22Z</time>
      </trkpt>
      <trkpt lat="42.42172" lon="2.74746">
        <ele>1113.3</ele>
        <time>2018-11-26T04:58:23Z</time>
      </trkpt>
      <trkpt lat="42.42172" lon="2.74745">
        <ele>1113.3</ele>
        <time>2018-11-26T04:58:23Z</time>
      </trkpt>
      <trkpt lat="42.4217" lon="2.74744">
        <ele>1113.1</ele>
        <time>2018-11-26T04:58:24Z</time>
      </trkpt>
      <trkpt lat="42.4217" lon="2.74743">
        <ele>1113.1</ele>
        <time>2018-11-26T04:58:24Z</time>
      </trkpt>
      <trkpt lat="42.4217" lon="2.74742">
        <ele>1112.9</ele>
        <time>2018-11-26T04:58:24Z</time>
      </trkpt>
      <trkpt lat="42.4217" lon="2.74741">
        <ele>1112.7</ele>
        <time>2018-11-26T04:58:25Z</time>
      </trkpt>
      <trkpt lat="42.42169" lon="2.74741">
        <ele>1113</ele>
        <time>2018-11-26T04:58:25Z</time>
      </trkpt>
      <trkpt lat="42.42169" lon="2.7474">
        <ele>1113.3</ele>
        <time>2018-11-26T04:58:25Z</time>
      </trkpt>
      <trkpt lat="42.42169" lon="2.7474">
        <ele>1113.6</ele>
        <time>2018-11-26T04:58:25Z</time>
      </trkpt>
      <trkpt lat="42.42169" lon="2.74739">
        <ele>1113.8</ele>
        <time>2018-11-26T04:58:25Z</time>
      </trkpt>
      <trkpt lat="42.42169" lon="2.74739">
        <ele>1114.2</ele>
        <time>2018-11-26T04:58:26Z</time>
      </trkpt>
      <trkpt lat="42.42169" lon="2.74739">
        <ele>1114.5</ele>
        <time>2018-11-26T04:58:26Z</time>
      </trkpt>
      <trkpt lat="42.42169" lon="2.74739">
        <ele>1115</ele>
        <time>2018-11-26T04:58:26Z</time>
      </trkpt>
      <trkpt lat="42.42169" lon="2.74739">
        <ele>1114.9</ele>
        <time>2018-11-26T04:58:26Z</time>
      </trkpt>
      <trkpt lat="42.42169" lon="2.74739">
        <ele>1114.6</ele>
        <time>2018-11-26T04:58:26Z</time>
      </trkpt>
      <trkpt lat="42.42169" lon="2.74739">
        <ele>1114.3</ele>
        <time>2018-11-26T04:58:26Z</time>
      </trkpt>
      <trkpt lat="42.42169" lon="2.74739">
        <ele>1114.3</ele>
        <time>2018-11-26T04:58:26Z</time>
      </trkpt>
      <trkpt lat="42.42169" lon="2.74739">
        <ele>1114.3</ele>
        <time>2018-11-26T04:58:26Z</time>
      </trkpt>
      <trkpt lat="42.42168" lon="2.74739">
        <ele>1114.2</ele>
        <time>2018-11-26T04:58:26Z</time>
      </trkpt>
      <trkpt lat="42.42168" lon="2.74739">
        <ele>1114.1</ele>
        <time>2018-11-26T04:58:26Z</time>
      </trkpt>
      <trkpt lat="42.42168" lon="2.74739">
        <ele>1114.1</ele>
        <time>2018-11-26T04:58:26Z</time>
      </trkpt>
      <trkpt lat="42.42168" lon="2.74739">
        <ele>1114.2</ele>
        <time>2018-11-26T04:58:26Z</time>
      </trkpt>
      <trkpt lat="42.42168" lon="2.74739">
        <ele>1114</ele>
        <time>2018-11-26T04:58:26Z</time>
      </trkpt>
      <trkpt lat="42.42168" lon="2.74739">
        <ele>1113.8</ele>
        <time>2018-11-26T04:58:26Z</time>
      </trkpt>
      <trkpt lat="42.42167" lon="2.74739">
        <ele>1113.6</ele>
        <time>2018-11-26T04:58:26Z</time>
      </trkpt>
      <trkpt lat="42.42167" lon="2.74739">
        <ele>1113.7</ele>
        <time>2018-11-26T04:58:27Z</time>
      </trkpt>
      <trkpt lat="42.42167" lon="2.74739">
        <ele>1113.8</ele>
        <time>2018-11-26T04:58:27Z</time>
      </trkpt>
      <trkpt lat="42.42167" lon="2.74739">
        <ele>1114</ele>
        <time>2018-11-26T04:58:27Z</time>
      </trkpt>
      <trkpt lat="42.42167" lon="2.74739">
        <ele>1114.1</ele>
        <time>2018-11-26T04:58:27Z</time>
      </trkpt>
      <trkpt lat="42.42167" lon="2.74739">
        <ele>1114</ele>
        <time>2018-11-26T04:58:27Z</time>
      </trkpt>
      <trkpt lat="42.42167" lon="2.74739">
        <ele>1114</ele>
        <time>2018-11-26T04:58:27Z</time>
      </trkpt>
      <trkpt lat="42.42167" lon="2.74739">
        <ele>1113.9</ele>
        <time>2018-11-26T04:58:27Z</time>
      </trkpt>
      <trkpt lat="42.42167" lon="2.74739">
        <ele>1113.7</ele>
        <time>2018-11-26T04:58:27Z</time>
      </trkpt>
      <trkpt lat="42.42167" lon="2.74738">
        <ele>1113.6</ele>
        <time>2018-11-26T04:58:27Z</time>
      </trkpt>
      <trkpt lat="42.42167" lon="2.74738">
        <ele>1113.6</ele>
        <time>2018-11-26T04:58:27Z</time>
      </trkpt>
      <trkpt lat="42.42167" lon="2.74738">
        <ele>1113.4</ele>
        <time>2018-11-26T04:58:27Z</time>
      </trkpt>
      <trkpt lat="42.42167" lon="2.74738">
        <ele>1113.3</ele>
        <time>2018-11-26T04:58:27Z</time>
      </trkpt>
      <trkpt lat="42.42167" lon="2.74737">
        <ele>1113</ele>
        <time>2018-11-26T04:58:27Z</time>
      </trkpt>
      <trkpt lat="42.42167" lon="2.74737">
        <ele>1113</ele>
        <time>2018-11-26T04:58:27Z</time>
      </trkpt>
      <trkpt lat="42.42167" lon="2.74737">
        <ele>1113</ele>
        <time>2018-11-26T04:58:27Z</time>
      </trkpt>
      <trkpt lat="42.42167" lon="2.74737">
        <ele>1113</ele>
        <time>2018-11-26T04:58:27Z</time>
      </trkpt>
      <trkpt lat="42.42167" lon="2.74737">
        <ele>1113.5</ele>
        <time>2018-11-26T04:58:27Z</time>
      </trkpt>
      <trkpt lat="42.42167" lon="2.74737">
        <ele>1114.1</ele>
        <time>2018-11-26T04:58:28Z</time>
      </trkpt>
      <trkpt lat="42.42167" lon="2.74737">
        <ele>1114.8</ele>
        <time>2018-11-26T04:58:28Z</time>
      </trkpt>
      <trkpt lat="42.42167" lon="2.74737">
        <ele>1114.6</ele>
        <time>2018-11-26T04:58:28Z</time>
      </trkpt>
      <trkpt lat="42.42167" lon="2.74737">
        <ele>1114.3</ele>
        <time>2018-11-26T04:58:28Z</time>
      </trkpt>
      <trkpt lat="42.42167" lon="2.74737">
        <ele>1114</ele>
        <time>2018-11-26T04:58:28Z</time>
      </trkpt>
      <trkpt lat="42.42168" lon="2.74737">
        <ele>1113.5</ele>
        <time>2018-11-26T04:58:28Z</time>
      </trkpt>
      <trkpt lat="42.42168" lon="2.74737">
        <ele>1113.4</ele>
        <time>2018-11-26T04:58:28Z</time>
      </trkpt>
      <trkpt lat="42.42168" lon="2.74737">
        <ele>1113.4</ele>
        <time>2018-11-26T04:58:28Z</time>
      </trkpt>
      <trkpt lat="42.42168" lon="2.74737">
        <ele>1113.3</ele>
        <time>2018-11-26T04:58:28Z</time>
      </trkpt>
      <trkpt lat="42.42168" lon="2.74737">
        <ele>1113.4</ele>
        <time>2018-11-26T04:58:28Z</time>
      </trkpt>
      <trkpt lat="42.42168" lon="2.74737">
        <ele>1113.4</ele>
        <time>2018-11-26T04:58:28Z</time>
      </trkpt>
      <trkpt lat="42.42168" lon="2.74737">
        <ele>1113.5</ele>
        <time>2018-11-26T04:58:28Z</time>
      </trkpt>
      <trkpt lat="42.42169" lon="2.74737">
        <ele>1113.6</ele>
        <time>2018-11-26T04:58:28Z</time>
      </trkpt>
      <trkpt lat="42.42169" lon="2.74737">
        <ele>1113.4</ele>
        <time>2018-11-26T04:58:28Z</time>
      </trkpt>
      <trkpt lat="42.42169" lon="2.74738">
        <ele>1113.4</ele>
        <time>2018-11-26T04:58:29Z</time>
      </trkpt>
      <trkpt lat="42.42169" lon="2.74738">
        <ele>1113.4</ele>
        <time>2018-11-26T04:58:29Z</time>
      </trkpt>
      <trkpt lat="42.4217" lon="2.74738">
        <ele>1113.3</ele>
        <time>2018-11-26T04:58:29Z</time>
      </trkpt>
      <trkpt lat="42.4217" lon="2.74738">
        <ele>1113.3</ele>
        <time>2018-11-26T04:58:29Z</time>
      </trkpt>
      <trkpt lat="42.4217" lon="2.74738">
        <ele>1113.3</ele>
        <time>2018-11-26T04:58:29Z</time>
      </trkpt>
      <trkpt lat="42.42171" lon="2.74739">
        <ele>1113.2</ele>
        <time>2018-11-26T04:58:29Z</time>
      </trkpt>
      <trkpt lat="42.42171" lon="2.74739">
        <ele>1113.2</ele>
        <time>2018-11-26T04:58:29Z</time>
      </trkpt>
      <trkpt lat="42.42171" lon="2.74739">
        <ele>1113.1</ele>
        <time>2018-11-26T04:58:30Z</time>
      </trkpt>
      <trkpt lat="42.42171" lon="2.7474">
        <ele>1113.2</ele>
        <time>2018-11-26T04:58:30Z</time>
      </trkpt>
      <trkpt lat="42.42171" lon="2.7474">
        <ele>1113.4</ele>
        <time>2018-11-26T04:58:30Z</time>
      </trkpt>
      <trkpt lat="42.42171" lon="2.74741">
        <ele>1113.7</ele>
        <time>2018-11-26T04:58:30Z</time>
      </trkpt>
      <trkpt lat="42.42171" lon="2.74741">
        <ele>1113.6</ele>
        <time>2018-11-26T04:58:30Z</time>
      </trkpt>
      <trkpt lat="42.42171" lon="2.74741">
        <ele>1113.3</ele>
        <time>2018-11-26T04:58:30Z</time>
      </trkpt>
      <trkpt lat="42.42171" lon="2.74741">
        <ele>1113</ele>
        <time>2018-11-26T04:58:30Z</time>
      </trkpt>
      <trkpt lat="42.4217" lon="2.74742">
        <ele>1113.2</ele>
        <time>2018-11-26T04:58:31Z</time>
      </trkpt>
      <trkpt lat="42.4217" lon="2.74742">
        <ele>1113.5</ele>
        <time>2018-11-26T04:58:31Z</time>
      </trkpt>
      <trkpt lat="42.4217" lon="2.74742">
        <ele>1113.8</ele>
        <time>2018-11-26T04:58:31Z</time>
      </trkpt>
      <trkpt lat="42.42171" lon="2.74742">
        <ele>1113.9</ele>
        <time>2018-11-26T04:58:31Z</time>
      </trkpt>
      <trkpt lat="42.42171" lon="2.74742">
        <ele>1114.1</ele>
        <time>2018-11-26T04:58:31Z</time>
      </trkpt>
      <trkpt lat="42.42171" lon="2.74742">
        <ele>1114.3</ele>
        <time>2018-11-26T04:58:31Z</time>
      </trkpt>
      <trkpt lat="42.42171" lon="2.74742">
        <ele>1114.3</ele>
        <time>2018-11-26T04:58:31Z</time>
      </trkpt>
      <trkpt lat="42.42171" lon="2.74741">
        <ele>1114.7</ele>
        <time>2018-11-26T04:58:31Z</time>
      </trkpt>
      <trkpt lat="42.42172" lon="2.74741">
        <ele>1114.9</ele>
        <time>2018-11-26T04:58:31Z</time>
      </trkpt>
      <trkpt lat="42.42172" lon="2.7474">
        <ele>1114.3</ele>
        <time>2018-11-26T04:58:32Z</time>
      </trkpt>
      <trkpt lat="42.42172" lon="2.7474">
        <ele>1114</ele>
        <time>2018-11-26T04:58:32Z</time>
      </trkpt>
      <trkpt lat="42.42172" lon="2.7474">
        <ele>1114.2</ele>
        <time>2018-11-26T04:58:32Z</time>
      </trkpt>
      <trkpt lat="42.42172" lon="2.7474">
        <ele>1114.3</ele>
        <time>2018-11-26T04:58:32Z</time>
      </trkpt>
      <trkpt lat="42.42172" lon="2.7474">
        <ele>1114.5</ele>
        <time>2018-11-26T04:58:32Z</time>
      </trkpt>
      <trkpt lat="42.42172" lon="2.7474">
        <ele>1114.8</ele>
        <time>2018-11-26T04:58:32Z</time>
      </trkpt>
      <trkpt lat="42.42172" lon="2.7474">
        <ele>1114.8</ele>
        <time>2018-11-26T04:58:32Z</time>
      </trkpt>
      <trkpt lat="42.42172" lon="2.7474">
        <ele>1114.5</ele>
        <time>2018-11-26T04:58:32Z</time>
      </trkpt>
      <trkpt lat="42.42172" lon="2.7474">
        <ele>1114.4</ele>
        <time>2018-11-26T04:58:32Z</time>
      </trkpt>
      <trkpt lat="42.42172" lon="2.7474">
        <ele>1114.2</ele>
        <time>2018-11-26T04:58:32Z</time>
      </trkpt>
      <trkpt lat="42.42172" lon="2.7474">
        <ele>1114.2</ele>
        <time>2018-11-26T04:58:32Z</time>
      </trkpt>
      <trkpt lat="42.42171" lon="2.7474">
        <ele>1114.1</ele>
        <time>2018-11-26T04:58:33Z</time>
      </trkpt>
      <trkpt lat="42.42171" lon="2.7474">
        <ele>1113.9</ele>
        <time>2018-11-26T04:58:33Z</time>
      </trkpt>
      <trkpt lat="42.42171" lon="2.7474">
        <ele>1114.1</ele>
        <time>2018-11-26T04:58:33Z</time>
      </trkpt>
      <trkpt lat="42.42172" lon="2.7474">
        <ele>1114</ele>
        <time>2018-11-26T04:58:33Z</time>
      </trkpt>
      <trkpt lat="42.42172" lon="2.7474">
        <ele>1114.1</ele>
        <time>2018-11-26T04:58:33Z</time>
      </trkpt>
      <trkpt lat="42.42172" lon="2.7474">
        <ele>1114.4</ele>
        <time>2018-11-26T04:58:33Z</time>
      </trkpt>
      <trkpt lat="42.42172" lon="2.7474">
        <ele>1114.6</ele>
        <time>2018-11-26T04:58:33Z</time>
      </trkpt>
      <trkpt lat="42.42172" lon="2.7474">
        <ele>1115</ele>
        <time>2018-11-26T04:58:33Z</time>
      </trkpt>
      <trkpt lat="42.42172" lon="2.7474">
        <ele>1115</ele>
        <time>2018-11-26T04:58:33Z</time>
      </trkpt>
      <trkpt lat="42.42172" lon="2.7474">
        <ele>1115.1</ele>
        <time>2018-11-26T04:58:33Z</time>
      </trkpt>
      <trkpt lat="42.42172" lon="2.7474">
        <ele>1115.1</ele>
        <time>2018-11-26T04:58:33Z</time>
      </trkpt>
      <trkpt lat="42.42172" lon="2.7474">
        <ele>1115.1</ele>
        <time>2018-11-26T04:58:33Z</time>
      </trkpt>
      <trkpt lat="42.42172" lon="2.74739">
        <ele>1115.3</ele>
        <time>2018-11-26T04:58:33Z</time>
      </trkpt>
      <trkpt lat="42.42172" lon="2.74739">
        <ele>1115.3</ele>
        <time>2018-11-26T04:58:33Z</time>
      </trkpt>
      <trkpt lat="42.42172" lon="2.7474">
        <ele>1115.1</ele>
        <time>2018-11-26T04:58:33Z</time>
      </trkpt>
      <trkpt lat="42.42172" lon="2.7474">
        <ele>1115.2</ele>
        <time>2018-11-26T04:58:33Z</time>
      </trkpt>
      <trkpt lat="42.42172" lon="2.74739">
        <ele>1115.2</ele>
        <time>2018-11-26T04:58:34Z</time>
      </trkpt>
      <trkpt lat="42.42172" lon="2.7474">
        <ele>1115</ele>
        <time>2018-11-26T04:58:34Z</time>
      </trkpt>
      <trkpt lat="42.42172" lon="2.7474">
        <ele>1114.9</ele>
        <time>2018-11-26T04:58:34Z</time>
      </trkpt>
      <trkpt lat="42.42172" lon="2.74739">
        <ele>1114.7</ele>
        <time>2018-11-26T04:58:34Z</time>
      </trkpt>
      <trkpt lat="42.42172" lon="2.7474">
        <ele>1114.5</ele>
        <time>2018-11-26T04:58:34Z</time>
      </trkpt>
      <trkpt lat="42.42172" lon="2.7474">
        <ele>1114.7</ele>
        <time>2018-11-26T04:58:34Z</time>
      </trkpt>
      <trkpt lat="42.42172" lon="2.7474">
        <ele>1114.8</ele>
        <time>2018-11-26T04:58:34Z</time>
      </trkpt>
      <trkpt lat="42.42171" lon="2.74742">
        <ele>1114.8</ele>
        <time>2018-11-26T04:58:35Z</time>
      </trkpt>
      <trkpt lat="42.42171" lon="2.74743">
        <ele>1114.5</ele>
        <time>2018-11-26T04:58:35Z</time>
      </trkpt>
      <trkpt lat="42.42171" lon="2.74743">
        <ele>1114.2</ele>
        <time>2018-11-26T04:58:35Z</time>
      </trkpt>
      <trkpt lat="42.42172" lon="2.74743">
        <ele>1114.2</ele>
        <time>2018-11-26T04:58:35Z</time>
      </trkpt>
      <trkpt lat="42.42172" lon="2.74743">
        <ele>1114</ele>
        <time>2018-11-26T04:58:35Z</time>
      </trkpt>
      <trkpt lat="42.42172" lon="2.74743">
        <ele>1113.8</ele>
        <time>2018-11-26T04:58:35Z</time>
      </trkpt>
      <trkpt lat="42.42172" lon="2.74743">
        <ele>1113.8</ele>
        <time>2018-11-26T04:58:35Z</time>
      </trkpt>
      <trkpt lat="42.42172" lon="2.74744">
        <ele>1113.8</ele>
        <time>2018-11-26T04:58:36Z</time>
      </trkpt>
      <trkpt lat="42.42173" lon="2.74744">
        <ele>1113.9</ele>
        <time>2018-11-26T04:58:36Z</time>
      </trkpt>
      <trkpt lat="42.42173" lon="2.74744">
        <ele>1114</ele>
        <time>2018-11-26T04:58:36Z</time>
      </trkpt>
      <trkpt lat="42.42173" lon="2.74744">
        <ele>1113.8</ele>
        <time>2018-11-26T04:58:36Z</time>
      </trkpt>
      <trkpt lat="42.42173" lon="2.74744">
        <ele>1113.8</ele>
        <time>2018-11-26T04:58:36Z</time>
      </trkpt>
      <trkpt lat="42.42172" lon="2.74744">
        <ele>1113.6</ele>
        <time>2018-11-26T04:58:36Z</time>
      </trkpt>
      <trkpt lat="42.42172" lon="2.74745">
        <ele>1113.6</ele>
        <time>2018-11-26T04:58:36Z</time>
      </trkpt>
      <trkpt lat="42.42172" lon="2.74745">
        <ele>1113.5</ele>
        <time>2018-11-26T04:58:36Z</time>
      </trkpt>
      <trkpt lat="42.42172" lon="2.74745">
        <ele>1113.5</ele>
        <time>2018-11-26T04:58:36Z</time>
      </trkpt>
      <trkpt lat="42.42172" lon="2.74744">
        <ele>1113.7</ele>
        <time>2018-11-26T04:58:36Z</time>
      </trkpt>
      <trkpt lat="42.42171" lon="2.74744">
        <ele>1114.1</ele>
        <time>2018-11-26T04:58:36Z</time>
      </trkpt>
      <trkpt lat="42.42171" lon="2.74744">
        <ele>1114.4</ele>
        <time>2018-11-26T04:58:36Z</time>
      </trkpt>
      <trkpt lat="42.42171" lon="2.74744">
        <ele>1114.6</ele>
        <time>2018-11-26T04:58:37Z</time>
      </trkpt>
      <trkpt lat="42.42171" lon="2.74744">
        <ele>1114.6</ele>
        <time>2018-11-26T04:58:37Z</time>
      </trkpt>
      <trkpt lat="42.4217" lon="2.74745">
        <ele>1114.3</ele>
        <time>2018-11-26T04:58:37Z</time>
      </trkpt>
      <trkpt lat="42.42169" lon="2.74745">
        <ele>1114.1</ele>
        <time>2018-11-26T04:58:37Z</time>
      </trkpt>
      <trkpt lat="42.42169" lon="2.74745">
        <ele>1114.2</ele>
        <time>2018-11-26T04:58:37Z</time>
      </trkpt>
      <trkpt lat="42.4217" lon="2.74745">
        <ele>1114.2</ele>
        <time>2018-11-26T04:58:37Z</time>
      </trkpt>
      <trkpt lat="42.4217" lon="2.74745">
        <ele>1114.4</ele>
        <time>2018-11-26T04:58:37Z</time>
      </trkpt>
      <trkpt lat="42.4217" lon="2.74745">
        <ele>1114.2</ele>
        <time>2018-11-26T04:58:37Z</time>
      </trkpt>
      <trkpt lat="42.4217" lon="2.74745">
        <ele>1114.2</ele>
        <time>2018-11-26T04:58:37Z</time>
      </trkpt>
      <trkpt lat="42.4217" lon="2.74745">
        <ele>1113.8</ele>
        <time>2018-11-26T04:58:37Z</time>
      </trkpt>
      <trkpt lat="42.4217" lon="2.74745">
        <ele>1113.9</ele>
        <time>2018-11-26T04:58:37Z</time>
      </trkpt>
      <trkpt lat="42.4217" lon="2.74745">
        <ele>1113.8</ele>
        <time>2018-11-26T04:58:37Z</time>
      </trkpt>
      <trkpt lat="42.4217" lon="2.74745">
        <ele>1114</ele>
        <time>2018-11-26T04:58:37Z</time>
      </trkpt>
      <trkpt lat="42.4217" lon="2.74744">
        <ele>1113.8</ele>
        <time>2018-11-26T04:58:37Z</time>
      </trkpt>
      <trkpt lat="42.4217" lon="2.74744">
        <ele>1113.9</ele>
        <time>2018-11-26T04:58:38Z</time>
      </trkpt>
      <trkpt lat="42.4217" lon="2.74744">
        <ele>1113.8</ele>
        <time>2018-11-26T04:58:38Z</time>
      </trkpt>
      <trkpt lat="42.4217" lon="2.74744">
        <ele>1113.8</ele>
        <time>2018-11-26T04:58:38Z</time>
      </trkpt>
      <trkpt lat="42.4217" lon="2.74744">
        <ele>1113.8</ele>
        <time>2018-11-26T04:58:38Z</time>
      </trkpt>
      <trkpt lat="42.4217" lon="2.74744">
        <ele>1113.8</ele>
        <time>2018-11-26T04:58:38Z</time>
      </trkpt>
      <trkpt lat="42.4217" lon="2.74744">
        <ele>1114</ele>
        <time>2018-11-26T04:58:38Z</time>
      </trkpt>
      <trkpt lat="42.4217" lon="2.74744">
        <ele>1114.1</ele>
        <time>2018-11-26T04:58:38Z</time>
      </trkpt>
      <trkpt lat="42.42169" lon="2.74744">
        <ele>1114.4</ele>
        <time>2018-11-26T04:58:38Z</time>
      </trkpt>
      <trkpt lat="42.4217" lon="2.74744">
        <ele>1114.7</ele>
        <time>2018-11-26T04:58:38Z</time>
      </trkpt>
      <trkpt lat="42.42169" lon="2.74744">
        <ele>1114.5</ele>
        <time>2018-11-26T04:58:38Z</time>
      </trkpt>
      <trkpt lat="42.42169" lon="2.74744">
        <ele>1114.1</ele>
        <time>2018-11-26T04:58:38Z</time>
      </trkpt>
      <trkpt lat="42.42169" lon="2.74744">
        <ele>1113.8</ele>
        <time>2018-11-26T04:58:38Z</time>
      </trkpt>
      <trkpt lat="42.42169" lon="2.74744">
        <ele>1114</ele>
        <time>2018-11-26T04:58:38Z</time>
      </trkpt>
      <trkpt lat="42.42169" lon="2.74744">
        <ele>1114.1</ele>
        <time>2018-11-26T04:58:38Z</time>
      </trkpt>
      <trkpt lat="42.42169" lon="2.74744">
        <ele>1114.4</ele>
        <time>2018-11-26T04:58:38Z</time>
      </trkpt>
      <trkpt lat="42.4217" lon="2.74744">
        <ele>1114.4</ele>
        <time>2018-11-26T04:58:39Z</time>
      </trkpt>
      <trkpt lat="42.42171" lon="2.74744">
        <ele>1114.5</ele>
        <time>2018-11-26T04:58:39Z</time>
      </trkpt>
      <trkpt lat="42.42171" lon="2.74744">
        <ele>1114.5</ele>
        <time>2018-11-26T04:58:39Z</time>
      </trkpt>
      <trkpt lat="42.42171" lon="2.74744">
        <ele>1114.6</ele>
        <time>2018-11-26T04:58:39Z</time>
      </trkpt>
      <trkpt lat="42.42171" lon="2.74744">
        <ele>1114.7</ele>
        <time>2018-11-26T04:58:39Z</time>
      </trkpt>
      <trkpt lat="42.42171" lon="2.74744">
        <ele>1114.9</ele>
        <time>2018-11-26T04:58:39Z</time>
      </trkpt>
      <trkpt lat="42.42171" lon="2.74744">
        <ele>1115.1</ele>
        <time>2018-11-26T04:58:40Z</time>
      </trkpt>
      <trkpt lat="42.4217" lon="2.74744">
        <ele>1114.9</ele>
        <time>2018-11-26T04:58:40Z</time>
      </trkpt>
      <trkpt lat="42.4217" lon="2.74744">
        <ele>1114.8</ele>
        <time>2018-11-26T04:58:40Z</time>
      </trkpt>
      <trkpt lat="42.4217" lon="2.74744">
        <ele>1114.5</ele>
        <time>2018-11-26T04:58:40Z</time>
      </trkpt>
      <trkpt lat="42.4217" lon="2.74744">
        <ele>1114.4</ele>
        <time>2018-11-26T04:58:40Z</time>
      </trkpt>
      <trkpt lat="42.4217" lon="2.74744">
        <ele>1114.1</ele>
        <time>2018-11-26T04:58:40Z</time>
      </trkpt>
      <trkpt lat="42.4217" lon="2.74744">
        <ele>1113.7</ele>
        <time>2018-11-26T04:58:40Z</time>
      </trkpt>
      <trkpt lat="42.4217" lon="2.74745">
        <ele>1113.1</ele>
        <time>2018-11-26T04:58:40Z</time>
      </trkpt>
      <trkpt lat="42.42169" lon="2.74745">
        <ele>1112.3</ele>
        <time>2018-11-26T04:58:41Z</time>
      </trkpt>
      <trkpt lat="42.42167" lon="2.74747">
        <ele>1102.6</ele>
        <time>2018-11-26T04:58:42Z</time>
      </trkpt>
      <trkpt lat="42.42167" lon="2.74747">
        <ele>1098.8</ele>
        <time>2018-11-26T04:58:42Z</time>
      </trkpt>
      <trkpt lat="42.42167" lon="2.74748">
        <ele>1093.5</ele>
        <time>2018-11-26T04:58:42Z</time>
      </trkpt>
      <trkpt lat="42.42166" lon="2.74748">
        <ele>1077.7</ele>
        <time>2018-11-26T04:58:42Z</time>
      </trkpt>
      <trkpt lat="42.42166" lon="2.74748">
        <ele>1077.8</ele>
        <time>2018-11-26T04:58:42Z</time>
      </trkpt>
      <trkpt lat="42.42166" lon="2.74748">
        <ele>1077.9</ele>
        <time>2018-11-26T04:58:42Z</time>
      </trkpt>
      <trkpt lat="42.42166" lon="2.74748">
        <ele>1078</ele>
        <time>2018-11-26T04:58:42Z</time>
      </trkpt>
      <trkpt lat="42.42166" lon="2.74749">
        <ele>1078.1</ele>
        <time>2018-11-26T04:58:42Z</time>
      </trkpt>
      <trkpt lat="42.42165" lon="2.74749">
        <ele>1078</ele>
        <time>2018-11-26T04:58:43Z</time>
      </trkpt>
      <trkpt lat="42.42165" lon="2.74749">
        <ele>1077.9</ele>
        <time>2018-11-26T04:58:43Z</time>
      </trkpt>
      <trkpt lat="42.42165" lon="2.7475">
        <ele>1077.7</ele>
        <time>2018-11-26T04:58:43Z</time>
      </trkpt>
      <trkpt lat="42.42165" lon="2.7475">
        <ele>1077.3</ele>
        <time>2018-11-26T04:58:43Z</time>
      </trkpt>
      <trkpt lat="42.42165" lon="2.7475">
        <ele>1077.6</ele>
        <time>2018-11-26T04:58:43Z</time>
      </trkpt>
      <trkpt lat="42.42165" lon="2.74751">
        <ele>1078</ele>
        <time>2018-11-26T04:58:43Z</time>
      </trkpt>
      <trkpt lat="42.42166" lon="2.74751">
        <ele>1078.6</ele>
        <time>2018-11-26T04:58:43Z</time>
      </trkpt>
      <trkpt lat="42.42166" lon="2.74751">
        <ele>1078.5</ele>
        <time>2018-11-26T04:58:44Z</time>
      </trkpt>
      <trkpt lat="42.42167" lon="2.74752">
        <ele>1078.7</ele>
        <time>2018-11-26T04:58:44Z</time>
      </trkpt>
      <trkpt lat="42.42167" lon="2.74753">
        <ele>1078.7</ele>
        <time>2018-11-26T04:58:44Z</time>
      </trkpt>
      <trkpt lat="42.42167" lon="2.74753">
        <ele>1078.9</ele>
        <time>2018-11-26T04:58:44Z</time>
      </trkpt>
      <trkpt lat="42.42167" lon="2.74754">
        <ele>1079.1</ele>
        <time>2018-11-26T04:58:45Z</time>
      </trkpt>
      <trkpt lat="42.42168" lon="2.74754">
        <ele>1079.3</ele>
        <time>2018-11-26T04:58:45Z</time>
      </trkpt>
      <trkpt lat="42.42168" lon="2.74754">
        <ele>1079.4</ele>
        <time>2018-11-26T04:58:45Z</time>
      </trkpt>
      <trkpt lat="42.42168" lon="2.74755">
        <ele>1079.3</ele>
        <time>2018-11-26T04:58:45Z</time>
      </trkpt>
      <trkpt lat="42.42168" lon="2.74756">
        <ele>1079</ele>
        <time>2018-11-26T04:58:45Z</time>
      </trkpt>
      <trkpt lat="42.42169" lon="2.74756">
        <ele>1078.9</ele>
        <time>2018-11-26T04:58:45Z</time>
      </trkpt>
      <trkpt lat="42.42169" lon="2.74757">
        <ele>1079</ele>
        <time>2018-11-26T04:58:46Z</time>
      </trkpt>
      <trkpt lat="42.42169" lon="2.74758">
        <ele>1079.3</ele>
        <time>2018-11-26T04:58:46Z</time>
      </trkpt>
      <trkpt lat="42.4217" lon="2.74758">
        <ele>1079.5</ele>
        <time>2018-11-26T04:58:46Z</time>
      </trkpt>
      <trkpt lat="42.4217" lon="2.74759">
        <ele>1079.4</ele>
        <time>2018-11-26T04:58:46Z</time>
      </trkpt>
      <trkpt lat="42.4217" lon="2.7476">
        <ele>1079.1</ele>
        <time>2018-11-26T04:58:47Z</time>
      </trkpt>
      <trkpt lat="42.42171" lon="2.7476">
        <ele>1078.8</ele>
        <time>2018-11-26T04:58:47Z</time>
      </trkpt>
      <trkpt lat="42.42171" lon="2.7476">
        <ele>1078.9</ele>
        <time>2018-11-26T04:58:47Z</time>
      </trkpt>
      <trkpt lat="42.42171" lon="2.7476">
        <ele>1079.1</ele>
        <time>2018-11-26T04:58:47Z</time>
      </trkpt>
      <trkpt lat="42.4217" lon="2.7476">
        <ele>1079.2</ele>
        <time>2018-11-26T04:58:47Z</time>
      </trkpt>
      <trkpt lat="42.4217" lon="2.7476">
        <ele>1079.4</ele>
        <time>2018-11-26T04:58:47Z</time>
      </trkpt>
      <trkpt lat="42.42169" lon="2.74761">
        <ele>1079.6</ele>
        <time>2018-11-26T04:58:48Z</time>
      </trkpt>
      <trkpt lat="42.42169" lon="2.74761">
        <ele>1079.8</ele>
        <time>2018-11-26T04:58:48Z</time>
      </trkpt>
      <trkpt lat="42.42169" lon="2.74761">
        <ele>1080.1</ele>
        <time>2018-11-26T04:58:48Z</time>
      </trkpt>
      <trkpt lat="42.42168" lon="2.74762">
        <ele>1080.2</ele>
        <time>2018-11-26T04:58:48Z</time>
      </trkpt>
      <trkpt lat="42.42169" lon="2.74762">
        <ele>1080.4</ele>
        <time>2018-11-26T04:58:48Z</time>
      </trkpt>
      <trkpt lat="42.42169" lon="2.74761">
        <ele>1080.4</ele>
        <time>2018-11-26T04:58:49Z</time>
      </trkpt>
      <trkpt lat="42.42169" lon="2.74761">
        <ele>1080.4</ele>
        <time>2018-11-26T04:58:49Z</time>
      </trkpt>
      <trkpt lat="42.42169" lon="2.7476">
        <ele>1080.3</ele>
        <time>2018-11-26T04:58:49Z</time>
      </trkpt>
      <trkpt lat="42.42169" lon="2.74759">
        <ele>1080.4</ele>
        <time>2018-11-26T04:58:49Z</time>
      </trkpt>
      <trkpt lat="42.4217" lon="2.7476">
        <ele>1080.5</ele>
        <time>2018-11-26T04:58:50Z</time>
      </trkpt>
      <trkpt lat="42.4217" lon="2.7476">
        <ele>1080.7</ele>
        <time>2018-11-26T04:58:50Z</time>
      </trkpt>
      <trkpt lat="42.4217" lon="2.7476">
        <ele>1080.6</ele>
        <time>2018-11-26T04:58:50Z</time>
      </trkpt>
      <trkpt lat="42.42171" lon="2.7476">
        <ele>1080.6</ele>
        <time>2018-11-26T04:58:50Z</time>
      </trkpt>
      <trkpt lat="42.42171" lon="2.7476">
        <ele>1080.7</ele>
        <time>2018-11-26T04:58:50Z</time>
      </trkpt>
      <trkpt lat="42.42171" lon="2.7476">
        <ele>1080.4</ele>
        <time>2018-11-26T04:58:50Z</time>
      </trkpt>
      <trkpt lat="42.42171" lon="2.7476">
        <ele>1080.3</ele>
        <time>2018-11-26T04:58:50Z</time>
      </trkpt>
      <trkpt lat="42.42171" lon="2.7476">
        <ele>1080</ele>
        <time>2018-11-26T04:58:50Z</time>
      </trkpt>
      <trkpt lat="42.4217" lon="2.74761">
        <ele>1079.6</ele>
        <time>2018-11-26T04:58:51Z</time>
      </trkpt>
      <trkpt lat="42.4217" lon="2.74762">
        <ele>1079.5</ele>
        <time>2018-11-26T04:58:51Z</time>
      </trkpt>
      <trkpt lat="42.4217" lon="2.74762">
        <ele>1079.4</ele>
        <time>2018-11-26T04:58:51Z</time>
      </trkpt>
      <trkpt lat="42.4217" lon="2.74762">
        <ele>1079.1</ele>
        <time>2018-11-26T04:58:51Z</time>
      </trkpt>
      <trkpt lat="42.4217" lon="2.74762">
        <ele>1079.4</ele>
        <time>2018-11-26T04:58:51Z</time>
      </trkpt>
      <trkpt lat="42.4217" lon="2.74762">
        <ele>1079.8</ele>
        <time>2018-11-26T04:58:51Z</time>
      </trkpt>
      <trkpt lat="42.4217" lon="2.74761">
        <ele>1080.2</ele>
        <time>2018-11-26T04:58:51Z</time>
      </trkpt>
      <trkpt lat="42.42169" lon="2.74761">
        <ele>1080.2</ele>
        <time>2018-11-26T04:58:52Z</time>
      </trkpt>
      <trkpt lat="42.42169" lon="2.74761">
        <ele>1080</ele>
        <time>2018-11-26T04:58:52Z</time>
      </trkpt>
      <trkpt lat="42.42169" lon="2.7476">
        <ele>1079.7</ele>
        <time>2018-11-26T04:58:52Z</time>
      </trkpt>
      <trkpt lat="42.42169" lon="2.7476">
        <ele>1079.6</ele>
        <time>2018-11-26T04:58:52Z</time>
      </trkpt>
      <trkpt lat="42.4217" lon="2.74759">
        <ele>1079.6</ele>
        <time>2018-11-26T04:58:52Z</time>
      </trkpt>
      <trkpt lat="42.4217" lon="2.74759">
        <ele>1079.6</ele>
        <time>2018-11-26T04:58:52Z</time>
      </trkpt>
      <trkpt lat="42.4217" lon="2.74759">
        <ele>1079.8</ele>
        <time>2018-11-26T04:58:52Z</time>
      </trkpt>
      <trkpt lat="42.42171" lon="2.74762">
        <ele>1079.7</ele>
        <time>2018-11-26T04:58:53Z</time>
      </trkpt>
      <trkpt lat="42.42171" lon="2.74763">
        <ele>1079.9</ele>
        <time>2018-11-26T04:58:53Z</time>
      </trkpt>
      <trkpt lat="42.42171" lon="2.74763">
        <ele>1079.9</ele>
        <time>2018-11-26T04:58:54Z</time>
      </trkpt>
      <trkpt lat="42.42171" lon="2.74763">
        <ele>1080.2</ele>
        <time>2018-11-26T04:58:54Z</time>
      </trkpt>
      <trkpt lat="42.42171" lon="2.74763">
        <ele>1080.5</ele>
        <time>2018-11-26T04:58:54Z</time>
      </trkpt>
      <trkpt lat="42.42171" lon="2.74764">
        <ele>1081</ele>
        <time>2018-11-26T04:58:54Z</time>
      </trkpt>
      <trkpt lat="42.42172" lon="2.74764">
        <ele>1080.6</ele>
        <time>2018-11-26T04:58:54Z</time>
      </trkpt>
      <trkpt lat="42.42172" lon="2.74765">
        <ele>1080.2</ele>
        <time>2018-11-26T04:58:54Z</time>
      </trkpt>
      <trkpt lat="42.42172" lon="2.74765">
        <ele>1079.7</ele>
        <time>2018-11-26T04:58:54Z</time>
      </trkpt>
      <trkpt lat="42.42172" lon="2.74767">
        <ele>1079.9</ele>
        <time>2018-11-26T04:58:55Z</time>
      </trkpt>
      <trkpt lat="42.42172" lon="2.74768">
        <ele>1079.7</ele>
        <time>2018-11-26T04:58:55Z</time>
      </trkpt>
      <trkpt lat="42.42172" lon="2.74769">
        <ele>1079.6</ele>
        <time>2018-11-26T04:58:56Z</time>
      </trkpt>
      <trkpt lat="42.42171" lon="2.7477">
        <ele>1079.2</ele>
        <time>2018-11-26T04:58:56Z</time>
      </trkpt>
      <trkpt lat="42.42171" lon="2.74771">
        <ele>1079.2</ele>
        <time>2018-11-26T04:58:56Z</time>
      </trkpt>
      <trkpt lat="42.42171" lon="2.74772">
        <ele>1079.4</ele>
        <time>2018-11-26T04:58:57Z</time>
      </trkpt>
      <trkpt lat="42.42168" lon="2.74777">
        <ele>1080</ele>
        <time>2018-11-26T04:58:58Z</time>
      </trkpt>
      <trkpt lat="42.42168" lon="2.74779">
        <ele>1080.1</ele>
        <time>2018-11-26T04:58:59Z</time>
      </trkpt>
      <trkpt lat="42.42167" lon="2.7478">
        <ele>1080.1</ele>
        <time>2018-11-26T04:58:59Z</time>
      </trkpt>
      <trkpt lat="42.42166" lon="2.74781">
        <ele>1080.2</ele>
        <time>2018-11-26T04:59:00Z</time>
      </trkpt>
      <trkpt lat="42.42166" lon="2.74782">
        <ele>1080.3</ele>
        <time>2018-11-26T04:59:00Z</time>
      </trkpt>
      <trkpt lat="42.42165" lon="2.74785">
        <ele>1080</ele>
        <time>2018-11-26T04:59:01Z</time>
      </trkpt>
      <trkpt lat="42.42164" lon="2.74786">
        <ele>1080</ele>
        <time>2018-11-26T04:59:02Z</time>
      </trkpt>
      <trkpt lat="42.42163" lon="2.74788">
        <ele>1080.4</ele>
        <time>2018-11-26T04:59:02Z</time>
      </trkpt>
      <trkpt lat="42.42163" lon="2.74789">
        <ele>1080.8</ele>
        <time>2018-11-26T04:59:03Z</time>
      </trkpt>
      <trkpt lat="42.42162" lon="2.7479">
        <ele>1081.5</ele>
        <time>2018-11-26T04:59:03Z</time>
      </trkpt>
      <trkpt lat="42.42161" lon="2.74791">
        <ele>1081.3</ele>
        <time>2018-11-26T04:59:03Z</time>
      </trkpt>
      <trkpt lat="42.4216" lon="2.74792">
        <ele>1081.2</ele>
        <time>2018-11-26T04:59:04Z</time>
      </trkpt>
      <trkpt lat="42.42159" lon="2.74793">
        <ele>1081</ele>
        <time>2018-11-26T04:59:04Z</time>
      </trkpt>
      <trkpt lat="42.42159" lon="2.74794">
        <ele>1080.9</ele>
        <time>2018-11-26T04:59:05Z</time>
      </trkpt>
      <trkpt lat="42.42156" lon="2.74798">
        <ele>1081.2</ele>
        <time>2018-11-26T04:59:06Z</time>
      </trkpt>
      <trkpt lat="42.42155" lon="2.74798">
        <ele>1081.6</ele>
        <time>2018-11-26T04:59:07Z</time>
      </trkpt>
      <trkpt lat="42.42153" lon="2.74803">
        <ele>1082.2</ele>
        <time>2018-11-26T04:59:08Z</time>
      </trkpt>
      <trkpt lat="42.42151" lon="2.74805">
        <ele>1082</ele>
        <time>2018-11-26T04:59:09Z</time>
      </trkpt>
      <trkpt lat="42.42151" lon="2.74805">
        <ele>1081.7</ele>
        <time>2018-11-26T04:59:09Z</time>
      </trkpt>
      <trkpt lat="42.4215" lon="2.74806">
        <ele>1081.7</ele>
        <time>2018-11-26T04:59:10Z</time>
      </trkpt>
      <trkpt lat="42.4215" lon="2.74807">
        <ele>1081.6</ele>
        <time>2018-11-26T04:59:10Z</time>
      </trkpt>
      <trkpt lat="42.42148" lon="2.74809">
        <ele>1081.5</ele>
        <time>2018-11-26T04:59:11Z</time>
      </trkpt>
      <trkpt lat="42.42148" lon="2.7481">
        <ele>1081.6</ele>
        <time>2018-11-26T04:59:11Z</time>
      </trkpt>
      <trkpt lat="42.42146" lon="2.7481">
        <ele>1081.7</ele>
        <time>2018-11-26T04:59:12Z</time>
      </trkpt>
      <trkpt lat="42.42145" lon="2.74811">
        <ele>1081.8</ele>
        <time>2018-11-26T04:59:12Z</time>
      </trkpt>
      <trkpt lat="42.42143" lon="2.74812">
        <ele>1082</ele>
        <time>2018-11-26T04:59:13Z</time>
      </trkpt>
      <trkpt lat="42.42142" lon="2.74813">
        <ele>1081.8</ele>
        <time>2018-11-26T04:59:14Z</time>
      </trkpt>
      <trkpt lat="42.42142" lon="2.74813">
        <ele>1081.4</ele>
        <time>2018-11-26T04:59:14Z</time>
      </trkpt>
      <trkpt lat="42.42142" lon="2.74813">
        <ele>1081.3</ele>
        <time>2018-11-26T04:59:14Z</time>
      </trkpt>
      <trkpt lat="42.42142" lon="2.74813">
        <ele>1081.2</ele>
        <time>2018-11-26T04:59:14Z</time>
      </trkpt>
      <trkpt lat="42.42142" lon="2.74813">
        <ele>1080.8</ele>
        <time>2018-11-26T04:59:14Z</time>
      </trkpt>
      <trkpt lat="42.42142" lon="2.74813">
        <ele>1081</ele>
        <time>2018-11-26T04:59:14Z</time>
      </trkpt>
      <trkpt lat="42.42142" lon="2.74813">
        <ele>1081.2</ele>
        <time>2018-11-26T04:59:14Z</time>
      </trkpt>
      <trkpt lat="42.42142" lon="2.74813">
        <ele>1081.6</ele>
        <time>2018-11-26T04:59:14Z</time>
      </trkpt>
      <trkpt lat="42.42142" lon="2.74813">
        <ele>1081.5</ele>
        <time>2018-11-26T04:59:14Z</time>
      </trkpt>
      <trkpt lat="42.42142" lon="2.74813">
        <ele>1081.4</ele>
        <time>2018-11-26T04:59:14Z</time>
      </trkpt>
      <trkpt lat="42.42142" lon="2.74813">
        <ele>1081.4</ele>
        <time>2018-11-26T04:59:14Z</time>
      </trkpt>
      <trkpt lat="42.42142" lon="2.74813">
        <ele>1081.3</ele>
        <time>2018-11-26T04:59:14Z</time>
      </trkpt>
      <trkpt lat="42.42142" lon="2.74812">
        <ele>1081.3</ele>
        <time>2018-11-26T04:59:15Z</time>
      </trkpt>
      <trkpt lat="42.42143" lon="2.74812">
        <ele>1081.4</ele>
        <time>2018-11-26T04:59:15Z</time>
      </trkpt>
      <trkpt lat="42.42144" lon="2.74811">
        <ele>1081.6</ele>
        <time>2018-11-26T04:59:15Z</time>
      </trkpt>
      <trkpt lat="42.42145" lon="2.74812">
        <ele>1081.5</ele>
        <time>2018-11-26T04:59:16Z</time>
      </trkpt>
      <trkpt lat="42.42147" lon="2.74812">
        <ele>1081.5</ele>
        <time>2018-11-26T04:59:16Z</time>
      </trkpt>
      <trkpt lat="42.42148" lon="2.74812">
        <ele>1081.6</ele>
        <time>2018-11-26T04:59:17Z</time>
      </trkpt>
      <trkpt lat="42.42149" lon="2.74812">
        <ele>1081.4</ele>
        <time>2018-11-26T04:59:17Z</time>
      </trkpt>
      <trkpt lat="42.4215" lon="2.74813">
        <ele>1081.2</ele>
        <time>2018-11-26T04:59:18Z</time>
      </trkpt>
      <trkpt lat="42.42151" lon="2.74813">
        <ele>1080.8</ele>
        <time>2018-11-26T04:59:18Z</time>
      </trkpt>
      <trkpt lat="42.42152" lon="2.74813">
        <ele>1080.8</ele>
        <time>2018-11-26T04:59:19Z</time>
      </trkpt>
      <trkpt lat="42.42153" lon="2.74812">
        <ele>1080.7</ele>
        <time>2018-11-26T04:59:19Z</time>
      </trkpt>
      <trkpt lat="42.42154" lon="2.74812">
        <ele>1080.8</ele>
        <time>2018-11-26T04:59:19Z</time>
      </trkpt>
      <trkpt lat="42.42154" lon="2.74811">
        <ele>1080.7</ele>
        <time>2018-11-26T04:59:20Z</time>
      </trkpt>
      <trkpt lat="42.42153" lon="2.74812">
        <ele>1080.7</ele>
        <time>2018-11-26T04:59:20Z</time>
      </trkpt>
      <trkpt lat="42.42153" lon="2.74813">
        <ele>1080.8</ele>
        <time>2018-11-26T04:59:20Z</time>
      </trkpt>
      <trkpt lat="42.42152" lon="2.74814">
        <ele>1081</ele>
        <time>2018-11-26T04:59:21Z</time>
      </trkpt>
      <trkpt lat="42.42152" lon="2.74815">
        <ele>1081.3</ele>
        <time>2018-11-26T04:59:21Z</time>
      </trkpt>
      <trkpt lat="42.4215" lon="2.74818">
        <ele>1082.2</ele>
        <time>2018-11-26T04:59:22Z</time>
      </trkpt>
      <trkpt lat="42.4215" lon="2.74819">
        <ele>1082.3</ele>
        <time>2018-11-26T04:59:22Z</time>
      </trkpt>
      <trkpt lat="42.42149" lon="2.7482">
        <ele>1082.2</ele>
        <time>2018-11-26T04:59:23Z</time>
      </trkpt>
      <trkpt lat="42.42149" lon="2.74821">
        <ele>1082</ele>
        <time>2018-11-26T04:59:23Z</time>
      </trkpt>
      <trkpt lat="42.42145" lon="2.74832">
        <ele>1081.2</ele>
        <time>2018-11-26T04:59:27Z</time>
      </trkpt>
      <trkpt lat="42.42144" lon="2.74835">
        <ele>1081.1</ele>
        <time>2018-11-26T04:59:28Z</time>
      </trkpt>
      <trkpt lat="42.42143" lon="2.74836">
        <ele>1080.9</ele>
        <time>2018-11-26T04:59:28Z</time>
      </trkpt>
      <trkpt lat="42.42143" lon="2.74837">
        <ele>1080.7</ele>
        <time>2018-11-26T04:59:28Z</time>
      </trkpt>
      <trkpt lat="42.42141" lon="2.74843">
        <ele>1081.5</ele>
        <time>2018-11-26T04:59:30Z</time>
      </trkpt>
      <trkpt lat="42.42141" lon="2.74845">
        <ele>1081.6</ele>
        <time>2018-11-26T04:59:31Z</time>
      </trkpt>
      <trkpt lat="42.42139" lon="2.74849">
        <ele>1082</ele>
        <time>2018-11-26T04:59:32Z</time>
      </trkpt>
      <trkpt lat="42.42138" lon="2.7485">
        <ele>1082.2</ele>
        <time>2018-11-26T04:59:33Z</time>
      </trkpt>
      <trkpt lat="42.42138" lon="2.74851">
        <ele>1082.1</ele>
        <time>2018-11-26T04:59:33Z</time>
      </trkpt>
      <trkpt lat="42.42138" lon="2.74852">
        <ele>1082.1</ele>
        <time>2018-11-26T04:59:33Z</time>
      </trkpt>
      <trkpt lat="42.42137" lon="2.74857">
        <ele>1081.9</ele>
        <time>2018-11-26T04:59:35Z</time>
      </trkpt>
      <trkpt lat="42.42137" lon="2.74858">
        <ele>1081.9</ele>
        <time>2018-11-26T04:59:35Z</time>
      </trkpt>
      <trkpt lat="42.42136" lon="2.74859">
        <ele>1081.9</ele>
        <time>2018-11-26T04:59:35Z</time>
      </trkpt>
      <trkpt lat="42.42136" lon="2.7486">
        <ele>1081.5</ele>
        <time>2018-11-26T04:59:36Z</time>
      </trkpt>
      <trkpt lat="42.42135" lon="2.74861">
        <ele>1081.1</ele>
        <time>2018-11-26T04:59:36Z</time>
      </trkpt>
      <trkpt lat="42.42135" lon="2.74862">
        <ele>1080.4</ele>
        <time>2018-11-26T04:59:36Z</time>
      </trkpt>
      <trkpt lat="42.42135" lon="2.74863">
        <ele>1080.6</ele>
        <time>2018-11-26T04:59:37Z</time>
      </trkpt>
      <trkpt lat="42.42134" lon="2.74864">
        <ele>1080.6</ele>
        <time>2018-11-26T04:59:37Z</time>
      </trkpt>
      <trkpt lat="42.42134" lon="2.74865">
        <ele>1080.8</ele>
        <time>2018-11-26T04:59:38Z</time>
      </trkpt>
      <trkpt lat="42.42134" lon="2.74866">
        <ele>1080.8</ele>
        <time>2018-11-26T04:59:38Z</time>
      </trkpt>
      <trkpt lat="42.42133" lon="2.74867">
        <ele>1080.8</ele>
        <time>2018-11-26T04:59:38Z</time>
      </trkpt>
      <trkpt lat="42.42133" lon="2.74868">
        <ele>1080.9</ele>
        <time>2018-11-26T04:59:39Z</time>
      </trkpt>
      <trkpt lat="42.42133" lon="2.74869">
        <ele>1080.6</ele>
        <time>2018-11-26T04:59:39Z</time>
      </trkpt>
      <trkpt lat="42.42132" lon="2.7487">
        <ele>1080.3</ele>
        <time>2018-11-26T04:59:39Z</time>
      </trkpt>
      <trkpt lat="42.42132" lon="2.74871">
        <ele>1080</ele>
        <time>2018-11-26T04:59:39Z</time>
      </trkpt>
      <trkpt lat="42.42131" lon="2.74872">
        <ele>1079.6</ele>
        <time>2018-11-26T04:59:40Z</time>
      </trkpt>
      <trkpt lat="42.42131" lon="2.74873">
        <ele>1079.7</ele>
        <time>2018-11-26T04:59:40Z</time>
      </trkpt>
      <trkpt lat="42.42131" lon="2.74874">
        <ele>1079.9</ele>
        <time>2018-11-26T04:59:40Z</time>
      </trkpt>
      <trkpt lat="42.4213" lon="2.74875">
        <ele>1080.3</ele>
        <time>2018-11-26T04:59:41Z</time>
      </trkpt>
      <trkpt lat="42.4213" lon="2.74876">
        <ele>1080.2</ele>
        <time>2018-11-26T04:59:41Z</time>
      </trkpt>
      <trkpt lat="42.4213" lon="2.74877">
        <ele>1080.1</ele>
        <time>2018-11-26T04:59:41Z</time>
      </trkpt>
      <trkpt lat="42.42129" lon="2.74878">
        <ele>1080</ele>
        <time>2018-11-26T04:59:42Z</time>
      </trkpt>
      <trkpt lat="42.42129" lon="2.74879">
        <ele>1080.1</ele>
        <time>2018-11-26T04:59:42Z</time>
      </trkpt>
      <trkpt lat="42.42129" lon="2.7488">
        <ele>1080.3</ele>
        <time>2018-11-26T04:59:42Z</time>
      </trkpt>
      <trkpt lat="42.42128" lon="2.74881">
        <ele>1080.5</ele>
        <time>2018-11-26T04:59:43Z</time>
      </trkpt>
      <trkpt lat="42.42128" lon="2.74881">
        <ele>1080.4</ele>
        <time>2018-11-26T04:59:43Z</time>
      </trkpt>
      <trkpt lat="42.42128" lon="2.74882">
        <ele>1080.1</ele>
        <time>2018-11-26T04:59:43Z</time>
      </trkpt>
      <trkpt lat="42.42127" lon="2.74884">
        <ele>1080</ele>
        <time>2018-11-26T04:59:44Z</time>
      </trkpt>
      <trkpt lat="42.42126" lon="2.74885">
        <ele>1080.3</ele>
        <time>2018-11-26T04:59:44Z</time>
      </trkpt>
      <trkpt lat="42.42126" lon="2.74885">
        <ele>1081</ele>
        <time>2018-11-26T04:59:44Z</time>
      </trkpt>
      <trkpt lat="42.42126" lon="2.74886">
        <ele>1081.6</ele>
        <time>2018-11-26T04:59:45Z</time>
      </trkpt>
      <trkpt lat="42.42126" lon="2.74887">
        <ele>1081.4</ele>
        <time>2018-11-26T04:59:45Z</time>
      </trkpt>
      <trkpt lat="42.42125" lon="2.74888">
        <ele>1081.1</ele>
        <time>2018-11-26T04:59:45Z</time>
      </trkpt>
      <trkpt lat="42.42125" lon="2.74889">
        <ele>1080.6</ele>
        <time>2018-11-26T04:59:45Z</time>
      </trkpt>
      <trkpt lat="42.42125" lon="2.7489">
        <ele>1080.6</ele>
        <time>2018-11-26T04:59:46Z</time>
      </trkpt>
      <trkpt lat="42.42124" lon="2.74897">
        <ele>1080.2</ele>
        <time>2018-11-26T04:59:48Z</time>
      </trkpt>
      <trkpt lat="42.42124" lon="2.74898">
        <ele>1080.3</ele>
        <time>2018-11-26T04:59:48Z</time>
      </trkpt>
      <trkpt lat="42.42124" lon="2.74898">
        <ele>1080.5</ele>
        <time>2018-11-26T04:59:48Z</time>
      </trkpt>
      <trkpt lat="42.42124" lon="2.74899">
        <ele>1080.7</ele>
        <time>2018-11-26T04:59:48Z</time>
      </trkpt>
      <trkpt lat="42.42124" lon="2.749">
        <ele>1080.9</ele>
        <time>2018-11-26T04:59:49Z</time>
      </trkpt>
      <trkpt lat="42.42124" lon="2.749">
        <ele>1081.3</ele>
        <time>2018-11-26T04:59:49Z</time>
      </trkpt>
      <trkpt lat="42.42124" lon="2.749">
        <ele>1081.2</ele>
        <time>2018-11-26T04:59:49Z</time>
      </trkpt>
      <trkpt lat="42.42124" lon="2.749">
        <ele>1081.3</ele>
        <time>2018-11-26T04:59:49Z</time>
      </trkpt>
      <trkpt lat="42.42124" lon="2.749">
        <ele>1081.4</ele>
        <time>2018-11-26T04:59:49Z</time>
      </trkpt>
      <trkpt lat="42.42124" lon="2.749">
        <ele>1081.4</ele>
        <time>2018-11-26T04:59:49Z</time>
      </trkpt>
      <trkpt lat="42.42124" lon="2.749">
        <ele>1081.5</ele>
        <time>2018-11-26T04:59:49Z</time>
      </trkpt>
      <trkpt lat="42.42124" lon="2.749">
        <ele>1081.4</ele>
        <time>2018-11-26T04:59:49Z</time>
      </trkpt>
      <trkpt lat="42.42124" lon="2.749">
        <ele>1081.3</ele>
        <time>2018-11-26T04:59:49Z</time>
      </trkpt>
      <trkpt lat="42.42124" lon="2.749">
        <ele>1080.9</ele>
        <time>2018-11-26T04:59:49Z</time>
      </trkpt>
      <trkpt lat="42.42124" lon="2.749">
        <ele>1080.4</ele>
        <time>2018-11-26T04:59:49Z</time>
      </trkpt>
      <trkpt lat="42.42124" lon="2.749">
        <ele>1080.4</ele>
        <time>2018-11-26T04:59:49Z</time>
      </trkpt>
      <trkpt lat="42.42124" lon="2.749">
        <ele>1080.4</ele>
        <time>2018-11-26T04:59:49Z</time>
      </trkpt>
      <trkpt lat="42.42124" lon="2.749">
        <ele>1080.4</ele>
        <time>2018-11-26T04:59:49Z</time>
      </trkpt>
      <trkpt lat="42.42124" lon="2.749">
        <ele>1080.7</ele>
        <time>2018-11-26T04:59:49Z</time>
      </trkpt>
      <trkpt lat="42.42124" lon="2.74901">
        <ele>1081</ele>
        <time>2018-11-26T04:59:49Z</time>
      </trkpt>
      <trkpt lat="42.42124" lon="2.74901">
        <ele>1081.5</ele>
        <time>2018-11-26T04:59:49Z</time>
      </trkpt>
      <trkpt lat="42.42124" lon="2.74901">
        <ele>1082.1</ele>
        <time>2018-11-26T04:59:49Z</time>
      </trkpt>
      <trkpt lat="42.42124" lon="2.749">
        <ele>1081.9</ele>
        <time>2018-11-26T04:59:49Z</time>
      </trkpt>
      <trkpt lat="42.42124" lon="2.749">
        <ele>1081.4</ele>
        <time>2018-11-26T04:59:49Z</time>
      </trkpt>
      <trkpt lat="42.42124" lon="2.749">
        <ele>1080.9</ele>
        <time>2018-11-26T04:59:49Z</time>
      </trkpt>
      <trkpt lat="42.42124" lon="2.749">
        <ele>1081.1</ele>
        <time>2018-11-26T04:59:49Z</time>
      </trkpt>
      <trkpt lat="42.42124" lon="2.749">
        <ele>1081</ele>
        <time>2018-11-26T04:59:49Z</time>
      </trkpt>
      <trkpt lat="42.42124" lon="2.749">
        <ele>1081.1</ele>
        <time>2018-11-26T04:59:49Z</time>
      </trkpt>
      <trkpt lat="42.42124" lon="2.749">
        <ele>1081</ele>
        <time>2018-11-26T04:59:49Z</time>
      </trkpt>
      <trkpt lat="42.42124" lon="2.749">
        <ele>1081</ele>
        <time>2018-11-26T04:59:49Z</time>
      </trkpt>
      <trkpt lat="42.42124" lon="2.749">
        <ele>1080.8</ele>
        <time>2018-11-26T04:59:49Z</time>
      </trkpt>
      <trkpt lat="42.42124" lon="2.74901">
        <ele>1080.7</ele>
        <time>2018-11-26T04:59:49Z</time>
      </trkpt>
      <trkpt lat="42.42124" lon="2.74901">
        <ele>1080.7</ele>
        <time>2018-11-26T04:59:50Z</time>
      </trkpt>
      <trkpt lat="42.42123" lon="2.74902">
        <ele>1080.9</ele>
        <time>2018-11-26T04:59:50Z</time>
      </trkpt>
      <trkpt lat="42.42124" lon="2.74902">
        <ele>1080.8</ele>
        <time>2018-11-26T04:59:50Z</time>
      </trkpt>
      <trkpt lat="42.42123" lon="2.74902">
        <ele>1080.7</ele>
        <time>2018-11-26T04:59:50Z</time>
      </trkpt>
      <trkpt lat="42.42124" lon="2.74902">
        <ele>1080.5</ele>
        <time>2018-11-26T04:59:50Z</time>
      </trkpt>
      <trkpt lat="42.42124" lon="2.74902">
        <ele>1080.2</ele>
        <time>2018-11-26T04:59:50Z</time>
      </trkpt>
      <trkpt lat="42.42123" lon="2.74902">
        <ele>1080.3</ele>
        <time>2018-11-26T04:59:50Z</time>
      </trkpt>
      <trkpt lat="42.42123" lon="2.74902">
        <ele>1080.5</ele>
        <time>2018-11-26T04:59:50Z</time>
      </trkpt>
      <trkpt lat="42.42123" lon="2.74902">
        <ele>1080.6</ele>
        <time>2018-11-26T04:59:50Z</time>
      </trkpt>
      <trkpt lat="42.42123" lon="2.74902">
        <ele>1080.3</ele>
        <time>2018-11-26T04:59:50Z</time>
      </trkpt>
      <trkpt lat="42.42123" lon="2.74902">
        <ele>1080.1</ele>
        <time>2018-11-26T04:59:50Z</time>
      </trkpt>
      <trkpt lat="42.42123" lon="2.74902">
        <ele>1079.8</ele>
        <time>2018-11-26T04:59:50Z</time>
      </trkpt>
      <trkpt lat="42.42123" lon="2.74902">
        <ele>1079.9</ele>
        <time>2018-11-26T04:59:50Z</time>
      </trkpt>
      <trkpt lat="42.42123" lon="2.74902">
        <ele>1080.1</ele>
        <time>2018-11-26T04:59:50Z</time>
      </trkpt>
      <trkpt lat="42.42123" lon="2.74902">
        <ele>1080.2</ele>
        <time>2018-11-26T04:59:50Z</time>
      </trkpt>
      <trkpt lat="42.42123" lon="2.74902">
        <ele>1080.2</ele>
        <time>2018-11-26T04:59:50Z</time>
      </trkpt>
      <trkpt lat="42.42123" lon="2.74902">
        <ele>1080.2</ele>
        <time>2018-11-26T04:59:50Z</time>
      </trkpt>
      <trkpt lat="42.42123" lon="2.74902">
        <ele>1080.3</ele>
        <time>2018-11-26T04:59:50Z</time>
      </trkpt>
      <trkpt lat="42.42123" lon="2.74902">
        <ele>1080.6</ele>
        <time>2018-11-26T04:59:50Z</time>
      </trkpt>
      <trkpt lat="42.42123" lon="2.74902">
        <ele>1080.9</ele>
        <time>2018-11-26T04:59:50Z</time>
      </trkpt>
      <trkpt lat="42.42123" lon="2.74902">
        <ele>1081.3</ele>
        <time>2018-11-26T04:59:50Z</time>
      </trkpt>
      <trkpt lat="42.42123" lon="2.74902">
        <ele>1081.4</ele>
        <time>2018-11-26T04:59:50Z</time>
      </trkpt>
      <trkpt lat="42.42123" lon="2.74902">
        <ele>1081.3</ele>
        <time>2018-11-26T04:59:50Z</time>
      </trkpt>
      <trkpt lat="42.42123" lon="2.74902">
        <ele>1081.5</ele>
        <time>2018-11-26T04:59:50Z</time>
      </trkpt>
      <trkpt lat="42.42123" lon="2.74902">
        <ele>1081.6</ele>
        <time>2018-11-26T04:59:50Z</time>
      </trkpt>
      <trkpt lat="42.42123" lon="2.74902">
        <ele>1081.3</ele>
        <time>2018-11-26T04:59:50Z</time>
      </trkpt>
      <trkpt lat="42.42123" lon="2.74902">
        <ele>1081.1</ele>
        <time>2018-11-26T04:59:50Z</time>
      </trkpt>
      <trkpt lat="42.42123" lon="2.74902">
        <ele>1080.9</ele>
        <time>2018-11-26T04:59:50Z</time>
      </trkpt>
      <trkpt lat="42.42123" lon="2.74902">
        <ele>1081</ele>
        <time>2018-11-26T04:59:50Z</time>
      </trkpt>
      <trkpt lat="42.42123" lon="2.74902">
        <ele>1080.9</ele>
        <time>2018-11-26T04:59:50Z</time>
      </trkpt>
      <trkpt lat="42.42123" lon="2.74902">
        <ele>1080.9</ele>
        <time>2018-11-26T04:59:50Z</time>
      </trkpt>
      <trkpt lat="42.42123" lon="2.74902">
        <ele>1080.8</ele>
        <time>2018-11-26T04:59:51Z</time>
      </trkpt>
      <trkpt lat="42.42123" lon="2.74902">
        <ele>1080.7</ele>
        <time>2018-11-26T04:59:51Z</time>
      </trkpt>
      <trkpt lat="42.42123" lon="2.74902">
        <ele>1080.6</ele>
        <time>2018-11-26T04:59:51Z</time>
      </trkpt>
      <trkpt lat="42.42123" lon="2.74902">
        <ele>1080.6</ele>
        <time>2018-11-26T04:59:51Z</time>
      </trkpt>
      <trkpt lat="42.42123" lon="2.74903">
        <ele>1080.8</ele>
        <time>2018-11-26T04:59:51Z</time>
      </trkpt>
      <trkpt lat="42.42123" lon="2.74903">
        <ele>1080.9</ele>
        <time>2018-11-26T04:59:51Z</time>
      </trkpt>
      <trkpt lat="42.42123" lon="2.74903">
        <ele>1080.7</ele>
        <time>2018-11-26T04:59:51Z</time>
      </trkpt>
      <trkpt lat="42.42123" lon="2.74903">
        <ele>1080.6</ele>
        <time>2018-11-26T04:59:51Z</time>
      </trkpt>
      <trkpt lat="42.42123" lon="2.74903">
        <ele>1080.2</ele>
        <time>2018-11-26T04:59:51Z</time>
      </trkpt>
      <trkpt lat="42.42123" lon="2.74903">
        <ele>1079.9</ele>
        <time>2018-11-26T04:59:51Z</time>
      </trkpt>
      <trkpt lat="42.42123" lon="2.74903">
        <ele>1079.8</ele>
        <time>2018-11-26T04:59:51Z</time>
      </trkpt>
      <trkpt lat="42.42123" lon="2.74903">
        <ele>1079.6</ele>
        <time>2018-11-26T04:59:51Z</time>
      </trkpt>
      <trkpt lat="42.42122" lon="2.74903">
        <ele>1079.4</ele>
        <time>2018-11-26T04:59:51Z</time>
      </trkpt>
      <trkpt lat="42.42122" lon="2.74903">
        <ele>1079.6</ele>
        <time>2018-11-26T04:59:51Z</time>
      </trkpt>
      <trkpt lat="42.42123" lon="2.74903">
        <ele>1079.6</ele>
        <time>2018-11-26T04:59:51Z</time>
      </trkpt>
      <trkpt lat="42.42123" lon="2.74902">
        <ele>1079.7</ele>
        <time>2018-11-26T04:59:51Z</time>
      </trkpt>
      <trkpt lat="42.42123" lon="2.74902">
        <ele>1079.9</ele>
        <time>2018-11-26T04:59:51Z</time>
      </trkpt>
      <trkpt lat="42.42123" lon="2.74902">
        <ele>1080.1</ele>
        <time>2018-11-26T04:59:51Z</time>
      </trkpt>
      <trkpt lat="42.42123" lon="2.74903">
        <ele>1080.6</ele>
        <time>2018-11-26T04:59:52Z</time>
      </trkpt>
      <trkpt lat="42.42123" lon="2.74903">
        <ele>1080.5</ele>
        <time>2018-11-26T04:59:52Z</time>
      </trkpt>
      <trkpt lat="42.42122" lon="2.74903">
        <ele>1080.6</ele>
        <time>2018-11-26T04:59:52Z</time>
      </trkpt>
      <trkpt lat="42.42122" lon="2.74903">
        <ele>1080.6</ele>
        <time>2018-11-26T04:59:52Z</time>
      </trkpt>
      <trkpt lat="42.42122" lon="2.74903">
        <ele>1080.6</ele>
        <time>2018-11-26T04:59:52Z</time>
      </trkpt>
      <trkpt lat="42.42122" lon="2.74904">
        <ele>1080.6</ele>
        <time>2018-11-26T04:59:52Z</time>
      </trkpt>
      <trkpt lat="42.42122" lon="2.74904">
        <ele>1080.4</ele>
        <time>2018-11-26T04:59:52Z</time>
      </trkpt>
      <trkpt lat="42.42122" lon="2.74904">
        <ele>1080.3</ele>
        <time>2018-11-26T04:59:52Z</time>
      </trkpt>
      <trkpt lat="42.42122" lon="2.74905">
        <ele>1080.8</ele>
        <time>2018-11-26T04:59:52Z</time>
      </trkpt>
      <trkpt lat="42.42123" lon="2.74905">
        <ele>1081.4</ele>
        <time>2018-11-26T04:59:53Z</time>
      </trkpt>
      <trkpt lat="42.42123" lon="2.74906">
        <ele>1082.1</ele>
        <time>2018-11-26T04:59:53Z</time>
      </trkpt>
      <trkpt lat="42.42124" lon="2.74907">
        <ele>1082</ele>
        <time>2018-11-26T04:59:53Z</time>
      </trkpt>
      <trkpt lat="42.42124" lon="2.74908">
        <ele>1081.9</ele>
        <time>2018-11-26T04:59:54Z</time>
      </trkpt>
      <trkpt lat="42.42124" lon="2.74909">
        <ele>1081.8</ele>
        <time>2018-11-26T04:59:54Z</time>
      </trkpt>
      <trkpt lat="42.42124" lon="2.74909">
        <ele>1081.9</ele>
        <time>2018-11-26T04:59:54Z</time>
      </trkpt>
      <trkpt lat="42.42124" lon="2.7491">
        <ele>1082</ele>
        <time>2018-11-26T04:59:54Z</time>
      </trkpt>
      <trkpt lat="42.42124" lon="2.7491">
        <ele>1082</ele>
        <time>2018-11-26T04:59:54Z</time>
      </trkpt>
      <trkpt lat="42.42124" lon="2.7491">
        <ele>1081.9</ele>
        <time>2018-11-26T04:59:54Z</time>
      </trkpt>
      <trkpt lat="42.42124" lon="2.74911">
        <ele>1081.7</ele>
        <time>2018-11-26T04:59:54Z</time>
      </trkpt>
      <trkpt lat="42.42124" lon="2.74911">
        <ele>1081.6</ele>
        <time>2018-11-26T04:59:55Z</time>
      </trkpt>
      <trkpt lat="42.42124" lon="2.74911">
        <ele>1081.4</ele>
        <time>2018-11-26T04:59:55Z</time>
      </trkpt>
      <trkpt lat="42.42124" lon="2.74912">
        <ele>1081.2</ele>
        <time>2018-11-26T04:59:55Z</time>
      </trkpt>
      <trkpt lat="42.42124" lon="2.74912">
        <ele>1081.1</ele>
        <time>2018-11-26T04:59:55Z</time>
      </trkpt>
      <trkpt lat="42.42123" lon="2.74913">
        <ele>1080.7</ele>
        <time>2018-11-26T04:59:55Z</time>
      </trkpt>
      <trkpt lat="42.42123" lon="2.74913">
        <ele>1080.5</ele>
        <time>2018-11-26T04:59:55Z</time>
      </trkpt>
      <trkpt lat="42.42123" lon="2.74913">
        <ele>1080.5</ele>
        <time>2018-11-26T04:59:55Z</time>
      </trkpt>
      <trkpt lat="42.42122" lon="2.74913">
        <ele>1080.1</ele>
        <time>2018-11-26T04:59:56Z</time>
      </trkpt>
      <trkpt lat="42.42118" lon="2.74913">
        <ele>1080.2</ele>
        <time>2018-11-26T04:59:57Z</time>
      </trkpt>
      <trkpt lat="42.42118" lon="2.74913">
        <ele>1080</ele>
        <time>2018-11-26T04:59:57Z</time>
      </trkpt>
      <trkpt lat="42.42117" lon="2.74913">
        <ele>1079.9</ele>
        <time>2018-11-26T04:59:58Z</time>
      </trkpt>
      <trkpt lat="42.42116" lon="2.74914">
        <ele>1079.9</ele>
        <time>2018-11-26T04:59:58Z</time>
      </trkpt>
      <trkpt lat="42.42115" lon="2.74914">
        <ele>1080.2</ele>
        <time>2018-11-26T04:59:58Z</time>
      </trkpt>
      <trkpt lat="42.42114" lon="2.74916">
        <ele>1080.3</ele>
        <time>2018-11-26T04:59:59Z</time>
      </trkpt>
      <trkpt lat="42.42114" lon="2.74917">
        <ele>1080.6</ele>
        <time>2018-11-26T04:59:59Z</time>
      </trkpt>
      <trkpt lat="42.42113" lon="2.74918">
        <ele>1080.3</ele>
        <time>2018-11-26T05:00:00Z</time>
      </trkpt>
      <trkpt lat="42.42112" lon="2.74919">
        <ele>1080.2</ele>
        <time>2018-11-26T05:00:00Z</time>
      </trkpt>
      <trkpt lat="42.42112" lon="2.7492">
        <ele>1079.8</ele>
        <time>2018-11-26T05:00:01Z</time>
      </trkpt>
      <trkpt lat="42.4211" lon="2.74933">
        <ele>1080.2</ele>
        <time>2018-11-26T05:00:04Z</time>
      </trkpt>
      <trkpt lat="42.42109" lon="2.74935">
        <ele>1080.1</ele>
        <time>2018-11-26T05:00:05Z</time>
      </trkpt>
      <trkpt lat="42.42106" lon="2.74948">
        <ele>1078.5</ele>
        <time>2018-11-26T05:00:09Z</time>
      </trkpt>
      <trkpt lat="42.42105" lon="2.7495">
        <ele>1078.7</ele>
        <time>2018-11-26T05:00:10Z</time>
      </trkpt>
      <trkpt lat="42.42102" lon="2.74958">
        <ele>1078.6</ele>
        <time>2018-11-26T05:00:13Z</time>
      </trkpt>
      <trkpt lat="42.42101" lon="2.7496">
        <ele>1078.2</ele>
        <time>2018-11-26T05:00:13Z</time>
      </trkpt>
      <trkpt lat="42.421" lon="2.74962">
        <ele>1078.2</ele>
        <time>2018-11-26T05:00:14Z</time>
      </trkpt>
      <trkpt lat="42.42096" lon="2.74966">
        <ele>1078.2</ele>
        <time>2018-11-26T05:00:16Z</time>
      </trkpt>
      <trkpt lat="42.42095" lon="2.74967">
        <ele>1077.7</ele>
        <time>2018-11-26T05:00:16Z</time>
      </trkpt>
      <trkpt lat="42.42094" lon="2.74969">
        <ele>1076.9</ele>
        <time>2018-11-26T05:00:17Z</time>
      </trkpt>
      <trkpt lat="42.42093" lon="2.74971">
        <ele>1077</ele>
        <time>2018-11-26T05:00:18Z</time>
      </trkpt>
      <trkpt lat="42.42091" lon="2.74973">
        <ele>1076.9</ele>
        <time>2018-11-26T05:00:19Z</time>
      </trkpt>
      <trkpt lat="42.4209" lon="2.74973">
        <ele>1076.8</ele>
        <time>2018-11-26T05:00:19Z</time>
      </trkpt>
      <trkpt lat="42.42089" lon="2.74974">
        <ele>1076.7</ele>
        <time>2018-11-26T05:00:20Z</time>
      </trkpt>
      <trkpt lat="42.42088" lon="2.74974">
        <ele>1076.5</ele>
        <time>2018-11-26T05:00:20Z</time>
      </trkpt>
      <trkpt lat="42.42086" lon="2.74974">
        <ele>1075.9</ele>
        <time>2018-11-26T05:00:21Z</time>
      </trkpt>
      <trkpt lat="42.42085" lon="2.74974">
        <ele>1075.5</ele>
        <time>2018-11-26T05:00:21Z</time>
      </trkpt>
      <trkpt lat="42.42084" lon="2.74974">
        <ele>1075.5</ele>
        <time>2018-11-26T05:00:21Z</time>
      </trkpt>
      <trkpt lat="42.42084" lon="2.74973">
        <ele>1075.5</ele>
        <time>2018-11-26T05:00:22Z</time>
      </trkpt>
      <trkpt lat="42.42084" lon="2.74973">
        <ele>1075.4</ele>
        <time>2018-11-26T05:00:22Z</time>
      </trkpt>
      <trkpt lat="42.42084" lon="2.74973">
        <ele>1075.5</ele>
        <time>2018-11-26T05:00:22Z</time>
      </trkpt>
      <trkpt lat="42.42085" lon="2.74972">
        <ele>1075.6</ele>
        <time>2018-11-26T05:00:22Z</time>
      </trkpt>
      <trkpt lat="42.42086" lon="2.74971">
        <ele>1076.3</ele>
        <time>2018-11-26T05:00:23Z</time>
      </trkpt>
      <trkpt lat="42.42087" lon="2.7497">
        <ele>1076.9</ele>
        <time>2018-11-26T05:00:23Z</time>
      </trkpt>
      <trkpt lat="42.42087" lon="2.7497">
        <ele>1077.6</ele>
        <time>2018-11-26T05:00:23Z</time>
      </trkpt>
      <trkpt lat="42.42088" lon="2.74969">
        <ele>1077.5</ele>
        <time>2018-11-26T05:00:24Z</time>
      </trkpt>
      <trkpt lat="42.42088" lon="2.74968">
        <ele>1077.3</ele>
        <time>2018-11-26T05:00:24Z</time>
      </trkpt>
      <trkpt lat="42.42088" lon="2.74968">
        <ele>1077.1</ele>
        <time>2018-11-26T05:00:24Z</time>
      </trkpt>
      <trkpt lat="42.42088" lon="2.74968">
        <ele>1076.8</ele>
        <time>2018-11-26T05:00:24Z</time>
      </trkpt>
      <trkpt lat="42.42088" lon="2.74968">
        <ele>1076.6</ele>
        <time>2018-11-26T05:00:24Z</time>
      </trkpt>
      <trkpt lat="42.42088" lon="2.74967">
        <ele>1076.5</ele>
        <time>2018-11-26T05:00:24Z</time>
      </trkpt>
      <trkpt lat="42.42088" lon="2.74967">
        <ele>1076.5</ele>
        <time>2018-11-26T05:00:24Z</time>
      </trkpt>
      <trkpt lat="42.42088" lon="2.74968">
        <ele>1076.6</ele>
        <time>2018-11-26T05:00:24Z</time>
      </trkpt>
      <trkpt lat="42.42088" lon="2.74968">
        <ele>1076.8</ele>
        <time>2018-11-26T05:00:24Z</time>
      </trkpt>
      <trkpt lat="42.42089" lon="2.74969">
        <ele>1077.1</ele>
        <time>2018-11-26T05:00:25Z</time>
      </trkpt>
      <trkpt lat="42.42089" lon="2.7497">
        <ele>1076.9</ele>
        <time>2018-11-26T05:00:25Z</time>
      </trkpt>
      <trkpt lat="42.42088" lon="2.74971">
        <ele>1076.1</ele>
        <time>2018-11-26T05:00:26Z</time>
      </trkpt>
      <trkpt lat="42.42088" lon="2.74972">
        <ele>1075.9</ele>
        <time>2018-11-26T05:00:26Z</time>
      </trkpt>
      <trkpt lat="42.42087" lon="2.74972">
        <ele>1075.7</ele>
        <time>2018-11-26T05:00:26Z</time>
      </trkpt>
      <trkpt lat="42.42086" lon="2.74972">
        <ele>1075.6</ele>
        <time>2018-11-26T05:00:26Z</time>
      </trkpt>
      <trkpt lat="42.42085" lon="2.74973">
        <ele>1075.7</ele>
        <time>2018-11-26T05:00:27Z</time>
      </trkpt>
      <trkpt lat="42.42085" lon="2.74974">
        <ele>1075.8</ele>
        <time>2018-11-26T05:00:27Z</time>
      </trkpt>
      <trkpt lat="42.42085" lon="2.74974">
        <ele>1075.8</ele>
        <time>2018-11-26T05:00:27Z</time>
      </trkpt>
      <trkpt lat="42.42084" lon="2.74975">
        <ele>1075.8</ele>
        <time>2018-11-26T05:00:28Z</time>
      </trkpt>
      <trkpt lat="42.42084" lon="2.74976">
        <ele>1075.6</ele>
        <time>2018-11-26T05:00:28Z</time>
      </trkpt>
      <trkpt lat="42.42084" lon="2.74976">
        <ele>1075.5</ele>
        <time>2018-11-26T05:00:28Z</time>
      </trkpt>
      <trkpt lat="42.42083" lon="2.74977">
        <ele>1075.4</ele>
        <time>2018-11-26T05:00:28Z</time>
      </trkpt>
      <trkpt lat="42.42082" lon="2.74977">
        <ele>1075.4</ele>
        <time>2018-11-26T05:00:29Z</time>
      </trkpt>
      <trkpt lat="42.42082" lon="2.74978">
        <ele>1075.3</ele>
        <time>2018-11-26T05:00:29Z</time>
      </trkpt>
      <trkpt lat="42.42082" lon="2.74978">
        <ele>1075.3</ele>
        <time>2018-11-26T05:00:29Z</time>
      </trkpt>
      <trkpt lat="42.42082" lon="2.74979">
        <ele>1075.4</ele>
        <time>2018-11-26T05:00:29Z</time>
      </trkpt>
      <trkpt lat="42.42081" lon="2.7498">
        <ele>1075.7</ele>
        <time>2018-11-26T05:00:30Z</time>
      </trkpt>
      <trkpt lat="42.42081" lon="2.74981">
        <ele>1075.5</ele>
        <time>2018-11-26T05:00:30Z</time>
      </trkpt>
      <trkpt lat="42.42081" lon="2.74981">
        <ele>1075.6</ele>
        <time>2018-11-26T05:00:30Z</time>
      </trkpt>
      <trkpt lat="42.42081" lon="2.74982">
        <ele>1075.5</ele>
        <time>2018-11-26T05:00:30Z</time>
      </trkpt>
      <trkpt lat="42.42081" lon="2.74983">
        <ele>1075.3</ele>
        <time>2018-11-26T05:00:31Z</time>
      </trkpt>
      <trkpt lat="42.42081" lon="2.74983">
        <ele>1075</ele>
        <time>2018-11-26T05:00:31Z</time>
      </trkpt>
      <trkpt lat="42.4208" lon="2.74984">
        <ele>1074.5</ele>
        <time>2018-11-26T05:00:31Z</time>
      </trkpt>
      <trkpt lat="42.42081" lon="2.74985">
        <ele>1074.7</ele>
        <time>2018-11-26T05:00:31Z</time>
      </trkpt>
      <trkpt lat="42.42081" lon="2.74986">
        <ele>1074.8</ele>
        <time>2018-11-26T05:00:32Z</time>
      </trkpt>
      <trkpt lat="42.4208" lon="2.74987">
        <ele>1075</ele>
        <time>2018-11-26T05:00:32Z</time>
      </trkpt>
      <trkpt lat="42.4208" lon="2.74987">
        <ele>1075.3</ele>
        <time>2018-11-26T05:00:32Z</time>
      </trkpt>
      <trkpt lat="42.4208" lon="2.74987">
        <ele>1075.5</ele>
        <time>2018-11-26T05:00:32Z</time>
      </trkpt>
      <trkpt lat="42.42079" lon="2.74988">
        <ele>1075.6</ele>
        <time>2018-11-26T05:00:32Z</time>
      </trkpt>
      <trkpt lat="42.42078" lon="2.74988">
        <ele>1075.8</ele>
        <time>2018-11-26T05:00:33Z</time>
      </trkpt>
      <trkpt lat="42.42078" lon="2.74989">
        <ele>1075.7</ele>
        <time>2018-11-26T05:00:33Z</time>
      </trkpt>
      <trkpt lat="42.42078" lon="2.7499">
        <ele>1075.7</ele>
        <time>2018-11-26T05:00:33Z</time>
      </trkpt>
      <trkpt lat="42.42078" lon="2.7499">
        <ele>1075.6</ele>
        <time>2018-11-26T05:00:33Z</time>
      </trkpt>
      <trkpt lat="42.42077" lon="2.7499">
        <ele>1075.6</ele>
        <time>2018-11-26T05:00:33Z</time>
      </trkpt>
      <trkpt lat="42.42077" lon="2.7499">
        <ele>1075.3</ele>
        <time>2018-11-26T05:00:33Z</time>
      </trkpt>
      <trkpt lat="42.42077" lon="2.7499">
        <ele>1075.3</ele>
        <time>2018-11-26T05:00:34Z</time>
      </trkpt>
      <trkpt lat="42.42077" lon="2.7499">
        <ele>1075.4</ele>
        <time>2018-11-26T05:00:34Z</time>
      </trkpt>
      <trkpt lat="42.42077" lon="2.7499">
        <ele>1075.3</ele>
        <time>2018-11-26T05:00:34Z</time>
      </trkpt>
      <trkpt lat="42.42077" lon="2.7499">
        <ele>1075.3</ele>
        <time>2018-11-26T05:00:34Z</time>
      </trkpt>
      <trkpt lat="42.42077" lon="2.74989">
        <ele>1075.1</ele>
        <time>2018-11-26T05:00:34Z</time>
      </trkpt>
      <trkpt lat="42.42077" lon="2.74989">
        <ele>1074.9</ele>
        <time>2018-11-26T05:00:34Z</time>
      </trkpt>
      <trkpt lat="42.42077" lon="2.74989">
        <ele>1075</ele>
        <time>2018-11-26T05:00:34Z</time>
      </trkpt>
      <trkpt lat="42.42078" lon="2.74989">
        <ele>1075.1</ele>
        <time>2018-11-26T05:00:34Z</time>
      </trkpt>
      <trkpt lat="42.42078" lon="2.74988">
        <ele>1075.2</ele>
        <time>2018-11-26T05:00:34Z</time>
      </trkpt>
      <trkpt lat="42.42078" lon="2.74988">
        <ele>1075.2</ele>
        <time>2018-11-26T05:00:34Z</time>
      </trkpt>
      <trkpt lat="42.42078" lon="2.74988">
        <ele>1075.3</ele>
        <time>2018-11-26T05:00:34Z</time>
      </trkpt>
      <trkpt lat="42.42078" lon="2.74987">
        <ele>1075.5</ele>
        <time>2018-11-26T05:00:34Z</time>
      </trkpt>
      <trkpt lat="42.42078" lon="2.74987">
        <ele>1075.8</ele>
        <time>2018-11-26T05:00:34Z</time>
      </trkpt>
      <trkpt lat="42.42078" lon="2.74987">
        <ele>1075.7</ele>
        <time>2018-11-26T05:00:35Z</time>
      </trkpt>
      <trkpt lat="42.42078" lon="2.74987">
        <ele>1075.4</ele>
        <time>2018-11-26T05:00:35Z</time>
      </trkpt>
      <trkpt lat="42.42078" lon="2.74987">
        <ele>1075</ele>
        <time>2018-11-26T05:00:35Z</time>
      </trkpt>
      <trkpt lat="42.42078" lon="2.74987">
        <ele>1075.3</ele>
        <time>2018-11-26T05:00:35Z</time>
      </trkpt>
      <trkpt lat="42.42078" lon="2.74987">
        <ele>1075.4</ele>
        <time>2018-11-26T05:00:35Z</time>
      </trkpt>
      <trkpt lat="42.42079" lon="2.74986">
        <ele>1075.7</ele>
        <time>2018-11-26T05:00:35Z</time>
      </trkpt>
      <trkpt lat="42.42079" lon="2.74986">
        <ele>1075.5</ele>
        <time>2018-11-26T05:00:35Z</time>
      </trkpt>
      <trkpt lat="42.42079" lon="2.74986">
        <ele>1075.3</ele>
        <time>2018-11-26T05:00:35Z</time>
      </trkpt>
      <trkpt lat="42.42079" lon="2.74986">
        <ele>1075.1</ele>
        <time>2018-11-26T05:00:35Z</time>
      </trkpt>
      <trkpt lat="42.42079" lon="2.74986">
        <ele>1075</ele>
        <time>2018-11-26T05:00:35Z</time>
      </trkpt>
      <trkpt lat="42.42079" lon="2.74986">
        <ele>1074.9</ele>
        <time>2018-11-26T05:00:35Z</time>
      </trkpt>
      <trkpt lat="42.42079" lon="2.74986">
        <ele>1074.6</ele>
        <time>2018-11-26T05:00:35Z</time>
      </trkpt>
      <trkpt lat="42.42079" lon="2.74985">
        <ele>1074.8</ele>
        <time>2018-11-26T05:00:35Z</time>
      </trkpt>
      <trkpt lat="42.42079" lon="2.74985">
        <ele>1075.1</ele>
        <time>2018-11-26T05:00:35Z</time>
      </trkpt>
      <trkpt lat="42.42079" lon="2.74985">
        <ele>1075.3</ele>
        <time>2018-11-26T05:00:35Z</time>
      </trkpt>
      <trkpt lat="42.42079" lon="2.74985">
        <ele>1075.7</ele>
        <time>2018-11-26T05:00:35Z</time>
      </trkpt>
      <trkpt lat="42.42079" lon="2.74984">
        <ele>1075.4</ele>
        <time>2018-11-26T05:00:36Z</time>
      </trkpt>
      <trkpt lat="42.42079" lon="2.74984">
        <ele>1075.1</ele>
        <time>2018-11-26T05:00:36Z</time>
      </trkpt>
      <trkpt lat="42.42079" lon="2.74984">
        <ele>1074.8</ele>
        <time>2018-11-26T05:00:36Z</time>
      </trkpt>
      <trkpt lat="42.42079" lon="2.74983">
        <ele>1074.8</ele>
        <time>2018-11-26T05:00:36Z</time>
      </trkpt>
      <trkpt lat="42.42079" lon="2.74983">
        <ele>1074.8</ele>
        <time>2018-11-26T05:00:36Z</time>
      </trkpt>
      <trkpt lat="42.4208" lon="2.74982">
        <ele>1074.9</ele>
        <time>2018-11-26T05:00:36Z</time>
      </trkpt>
      <trkpt lat="42.4208" lon="2.74981">
        <ele>1074.9</ele>
        <time>2018-11-26T05:00:36Z</time>
      </trkpt>
      <trkpt lat="42.4208" lon="2.74981">
        <ele>1075.2</ele>
        <time>2018-11-26T05:00:37Z</time>
      </trkpt>
      <trkpt lat="42.4208" lon="2.7498">
        <ele>1075.5</ele>
        <time>2018-11-26T05:00:37Z</time>
      </trkpt>
      <trkpt lat="42.4208" lon="2.7498">
        <ele>1075.6</ele>
        <time>2018-11-26T05:00:37Z</time>
      </trkpt>
      <trkpt lat="42.4208" lon="2.74979">
        <ele>1076</ele>
        <time>2018-11-26T05:00:37Z</time>
      </trkpt>
      <trkpt lat="42.4208" lon="2.74979">
        <ele>1076.4</ele>
        <time>2018-11-26T05:00:37Z</time>
      </trkpt>
      <trkpt lat="42.4208" lon="2.74979">
        <ele>1076.3</ele>
        <time>2018-11-26T05:00:37Z</time>
      </trkpt>
      <trkpt lat="42.4208" lon="2.74979">
        <ele>1076</ele>
        <time>2018-11-26T05:00:37Z</time>
      </trkpt>
      <trkpt lat="42.4208" lon="2.74978">
        <ele>1075.5</ele>
        <time>2018-11-26T05:00:37Z</time>
      </trkpt>
      <trkpt lat="42.4208" lon="2.74978">
        <ele>1075</ele>
        <time>2018-11-26T05:00:38Z</time>
      </trkpt>
      <trkpt lat="42.4208" lon="2.74977">
        <ele>1074.9</ele>
        <time>2018-11-26T05:00:38Z</time>
      </trkpt>
      <trkpt lat="42.4208" lon="2.74977">
        <ele>1075</ele>
        <time>2018-11-26T05:00:38Z</time>
      </trkpt>
      <trkpt lat="42.4208" lon="2.74976">
        <ele>1075.2</ele>
        <time>2018-11-26T05:00:38Z</time>
      </trkpt>
      <trkpt lat="42.4208" lon="2.74976">
        <ele>1075.3</ele>
        <time>2018-11-26T05:00:38Z</time>
      </trkpt>
      <trkpt lat="42.4208" lon="2.74975">
        <ele>1075.3</ele>
        <time>2018-11-26T05:00:38Z</time>
      </trkpt>
      <trkpt lat="42.4208" lon="2.74975">
        <ele>1075.4</ele>
        <time>2018-11-26T05:00:38Z</time>
      </trkpt>
      <trkpt lat="42.4208" lon="2.74974">
        <ele>1075.2</ele>
        <time>2018-11-26T05:00:39Z</time>
      </trkpt>
      <trkpt lat="42.4208" lon="2.74974">
        <ele>1074.9</ele>
        <time>2018-11-26T05:00:39Z</time>
      </trkpt>
      <trkpt lat="42.4208" lon="2.74973">
        <ele>1074.6</ele>
        <time>2018-11-26T05:00:39Z</time>
      </trkpt>
      <trkpt lat="42.4208" lon="2.74973">
        <ele>1074.2</ele>
        <time>2018-11-26T05:00:39Z</time>
      </trkpt>
      <trkpt lat="42.4208" lon="2.74972">
        <ele>1074</ele>
        <time>2018-11-26T05:00:39Z</time>
      </trkpt>
      <trkpt lat="42.42081" lon="2.74972">
        <ele>1073.7</ele>
        <time>2018-11-26T05:00:39Z</time>
      </trkpt>
      <trkpt lat="42.42081" lon="2.74971">
        <ele>1073.8</ele>
        <time>2018-11-26T05:00:40Z</time>
      </trkpt>
      <trkpt lat="42.42081" lon="2.74971">
        <ele>1074.2</ele>
        <time>2018-11-26T05:00:40Z</time>
      </trkpt>
      <trkpt lat="42.42081" lon="2.7497">
        <ele>1074.5</ele>
        <time>2018-11-26T05:00:40Z</time>
      </trkpt>
      <trkpt lat="42.42081" lon="2.7497">
        <ele>1074.5</ele>
        <time>2018-11-26T05:00:40Z</time>
      </trkpt>
      <trkpt lat="42.42081" lon="2.7497">
        <ele>1074.5</ele>
        <time>2018-11-26T05:00:40Z</time>
      </trkpt>
      <trkpt lat="42.42081" lon="2.7497">
        <ele>1074.7</ele>
        <time>2018-11-26T05:00:40Z</time>
      </trkpt>
      <trkpt lat="42.42081" lon="2.7497">
        <ele>1074.7</ele>
        <time>2018-11-26T05:00:40Z</time>
      </trkpt>
      <trkpt lat="42.42081" lon="2.7497">
        <ele>1074.9</ele>
        <time>2018-11-26T05:00:40Z</time>
      </trkpt>
      <trkpt lat="42.42081" lon="2.7497">
        <ele>1075.2</ele>
        <time>2018-11-26T05:00:40Z</time>
      </trkpt>
      <trkpt lat="42.42081" lon="2.7497">
        <ele>1075.5</ele>
        <time>2018-11-26T05:00:40Z</time>
      </trkpt>
      <trkpt lat="42.42081" lon="2.7497">
        <ele>1075.6</ele>
        <time>2018-11-26T05:00:40Z</time>
      </trkpt>
      <trkpt lat="42.42081" lon="2.7497">
        <ele>1075.6</ele>
        <time>2018-11-26T05:00:40Z</time>
      </trkpt>
      <trkpt lat="42.42081" lon="2.74971">
        <ele>1075.5</ele>
        <time>2018-11-26T05:00:40Z</time>
      </trkpt>
      <trkpt lat="42.42081" lon="2.74971">
        <ele>1075.5</ele>
        <time>2018-11-26T05:00:40Z</time>
      </trkpt>
      <trkpt lat="42.42081" lon="2.74971">
        <ele>1075.6</ele>
        <time>2018-11-26T05:00:40Z</time>
      </trkpt>
      <trkpt lat="42.42081" lon="2.74971">
        <ele>1075.4</ele>
        <time>2018-11-26T05:00:40Z</time>
      </trkpt>
      <trkpt lat="42.42081" lon="2.74972">
        <ele>1075.3</ele>
        <time>2018-11-26T05:00:41Z</time>
      </trkpt>
      <trkpt lat="42.42081" lon="2.74972">
        <ele>1075.2</ele>
        <time>2018-11-26T05:00:41Z</time>
      </trkpt>
      <trkpt lat="42.42081" lon="2.74972">
        <ele>1074.9</ele>
        <time>2018-11-26T05:00:41Z</time>
      </trkpt>
      <trkpt lat="42.42081" lon="2.74972">
        <ele>1074.9</ele>
        <time>2018-11-26T05:00:41Z</time>
      </trkpt>
      <trkpt lat="42.42081" lon="2.74972">
        <ele>1074.9</ele>
        <time>2018-11-26T05:00:41Z</time>
      </trkpt>
      <trkpt lat="42.42081" lon="2.74972">
        <ele>1075</ele>
        <time>2018-11-26T05:00:41Z</time>
      </trkpt>
      <trkpt lat="42.42081" lon="2.74971">
        <ele>1074.8</ele>
        <time>2018-11-26T05:00:41Z</time>
      </trkpt>
      <trkpt lat="42.42082" lon="2.74971">
        <ele>1074.7</ele>
        <time>2018-11-26T05:00:41Z</time>
      </trkpt>
      <trkpt lat="42.42082" lon="2.74971">
        <ele>1074.5</ele>
        <time>2018-11-26T05:00:41Z</time>
      </trkpt>
      <trkpt lat="42.42082" lon="2.74971">
        <ele>1074.4</ele>
        <time>2018-11-26T05:00:41Z</time>
      </trkpt>
      <trkpt lat="42.42082" lon="2.7497">
        <ele>1074.6</ele>
        <time>2018-11-26T05:00:41Z</time>
      </trkpt>
      <trkpt lat="42.42082" lon="2.7497">
        <ele>1074.9</ele>
        <time>2018-11-26T05:00:41Z</time>
      </trkpt>
      <trkpt lat="42.42082" lon="2.7497">
        <ele>1075.3</ele>
        <time>2018-11-26T05:00:41Z</time>
      </trkpt>
      <trkpt lat="42.42082" lon="2.7497">
        <ele>1075.4</ele>
        <time>2018-11-26T05:00:41Z</time>
      </trkpt>
      <trkpt lat="42.42082" lon="2.7497">
        <ele>1075.4</ele>
        <time>2018-11-26T05:00:42Z</time>
      </trkpt>
      <trkpt lat="42.42082" lon="2.7497">
        <ele>1075.6</ele>
        <time>2018-11-26T05:00:42Z</time>
      </trkpt>
      <trkpt lat="42.42082" lon="2.7497">
        <ele>1075.5</ele>
        <time>2018-11-26T05:00:42Z</time>
      </trkpt>
      <trkpt lat="42.42083" lon="2.7497">
        <ele>1075.3</ele>
        <time>2018-11-26T05:00:42Z</time>
      </trkpt>
      <trkpt lat="42.42083" lon="2.7497">
        <ele>1075.2</ele>
        <time>2018-11-26T05:00:42Z</time>
      </trkpt>
      <trkpt lat="42.42083" lon="2.7497">
        <ele>1075.3</ele>
        <time>2018-11-26T05:00:42Z</time>
      </trkpt>
      <trkpt lat="42.42083" lon="2.74971">
        <ele>1075.2</ele>
        <time>2018-11-26T05:00:42Z</time>
      </trkpt>
      <trkpt lat="42.42083" lon="2.74971">
        <ele>1075.1</ele>
        <time>2018-11-26T05:00:42Z</time>
      </trkpt>
      <trkpt lat="42.42083" lon="2.74971">
        <ele>1075.2</ele>
        <time>2018-11-26T05:00:42Z</time>
      </trkpt>
      <trkpt lat="42.42082" lon="2.74971">
        <ele>1075.3</ele>
        <time>2018-11-26T05:00:42Z</time>
      </trkpt>
      <trkpt lat="42.42082" lon="2.74972">
        <ele>1075.6</ele>
        <time>2018-11-26T05:00:42Z</time>
      </trkpt>
      <trkpt lat="42.42082" lon="2.74972">
        <ele>1075.5</ele>
        <time>2018-11-26T05:00:42Z</time>
      </trkpt>
      <trkpt lat="42.42082" lon="2.74972">
        <ele>1075.2</ele>
        <time>2018-11-26T05:00:42Z</time>
      </trkpt>
      <trkpt lat="42.42082" lon="2.74973">
        <ele>1075</ele>
        <time>2018-11-26T05:00:42Z</time>
      </trkpt>
      <trkpt lat="42.42082" lon="2.74973">
        <ele>1074.9</ele>
        <time>2018-11-26T05:00:43Z</time>
      </trkpt>
      <trkpt lat="42.42082" lon="2.74974">
        <ele>1074.6</ele>
        <time>2018-11-26T05:00:43Z</time>
      </trkpt>
      <trkpt lat="42.42082" lon="2.74974">
        <ele>1074.6</ele>
        <time>2018-11-26T05:00:43Z</time>
      </trkpt>
      <trkpt lat="42.42082" lon="2.74974">
        <ele>1074.4</ele>
        <time>2018-11-26T05:00:43Z</time>
      </trkpt>
      <trkpt lat="42.42082" lon="2.74975">
        <ele>1074.4</ele>
        <time>2018-11-26T05:00:43Z</time>
      </trkpt>
      <trkpt lat="42.42081" lon="2.74975">
        <ele>1074.4</ele>
        <time>2018-11-26T05:00:43Z</time>
      </trkpt>
      <trkpt lat="42.42081" lon="2.74975">
        <ele>1074.6</ele>
        <time>2018-11-26T05:00:43Z</time>
      </trkpt>
      <trkpt lat="42.42081" lon="2.74976">
        <ele>1074.9</ele>
        <time>2018-11-26T05:00:43Z</time>
      </trkpt>
      <trkpt lat="42.42081" lon="2.74976">
        <ele>1075.1</ele>
        <time>2018-11-26T05:00:44Z</time>
      </trkpt>
      <trkpt lat="42.42081" lon="2.74976">
        <ele>1075.5</ele>
        <time>2018-11-26T05:00:44Z</time>
      </trkpt>
      <trkpt lat="42.42081" lon="2.74976">
        <ele>1075.4</ele>
        <time>2018-11-26T05:00:44Z</time>
      </trkpt>
      <trkpt lat="42.4208" lon="2.74977">
        <ele>1075.2</ele>
        <time>2018-11-26T05:00:44Z</time>
      </trkpt>
      <trkpt lat="42.4208" lon="2.74977">
        <ele>1074.8</ele>
        <time>2018-11-26T05:00:44Z</time>
      </trkpt>
      <trkpt lat="42.4208" lon="2.74977">
        <ele>1074.7</ele>
        <time>2018-11-26T05:00:44Z</time>
      </trkpt>
      <trkpt lat="42.4208" lon="2.74977">
        <ele>1074.5</ele>
        <time>2018-11-26T05:00:44Z</time>
      </trkpt>
      <trkpt lat="42.4208" lon="2.74978">
        <ele>1074.2</ele>
        <time>2018-11-26T05:00:44Z</time>
      </trkpt>
      <trkpt lat="42.4208" lon="2.74978">
        <ele>1073.8</ele>
        <time>2018-11-26T05:00:44Z</time>
      </trkpt>
      <trkpt lat="42.42079" lon="2.74978">
        <ele>1074.1</ele>
        <time>2018-11-26T05:00:45Z</time>
      </trkpt>
      <trkpt lat="42.42079" lon="2.74978">
        <ele>1074.2</ele>
        <time>2018-11-26T05:00:45Z</time>
      </trkpt>
      <trkpt lat="42.42079" lon="2.74979">
        <ele>1074.4</ele>
        <time>2018-11-26T05:00:45Z</time>
      </trkpt>
      <trkpt lat="42.42079" lon="2.74979">
        <ele>1074.5</ele>
        <time>2018-11-26T05:00:45Z</time>
      </trkpt>
      <trkpt lat="42.42079" lon="2.74979">
        <ele>1074.6</ele>
        <time>2018-11-26T05:00:45Z</time>
      </trkpt>
      <trkpt lat="42.42079" lon="2.74979">
        <ele>1074.7</ele>
        <time>2018-11-26T05:00:45Z</time>
      </trkpt>
      <trkpt lat="42.42079" lon="2.74979">
        <ele>1074.6</ele>
        <time>2018-11-26T05:00:45Z</time>
      </trkpt>
      <trkpt lat="42.42079" lon="2.74979">
        <ele>1074.5</ele>
        <time>2018-11-26T05:00:45Z</time>
      </trkpt>
      <trkpt lat="42.42079" lon="2.74979">
        <ele>1074.5</ele>
        <time>2018-11-26T05:00:45Z</time>
      </trkpt>
      <trkpt lat="42.42079" lon="2.74979">
        <ele>1074.3</ele>
        <time>2018-11-26T05:00:45Z</time>
      </trkpt>
      <trkpt lat="42.42079" lon="2.7498">
        <ele>1074.3</ele>
        <time>2018-11-26T05:00:45Z</time>
      </trkpt>
      <trkpt lat="42.42079" lon="2.7498">
        <ele>1073.9</ele>
        <time>2018-11-26T05:00:45Z</time>
      </trkpt>
      <trkpt lat="42.42079" lon="2.7498">
        <ele>1074.1</ele>
        <time>2018-11-26T05:00:45Z</time>
      </trkpt>
      <trkpt lat="42.42078" lon="2.7498">
        <ele>1074.5</ele>
        <time>2018-11-26T05:00:45Z</time>
      </trkpt>
      <trkpt lat="42.42078" lon="2.7498">
        <ele>1074.8</ele>
        <time>2018-11-26T05:00:45Z</time>
      </trkpt>
      <trkpt lat="42.42078" lon="2.74981">
        <ele>1074.8</ele>
        <time>2018-11-26T05:00:45Z</time>
      </trkpt>
      <trkpt lat="42.42078" lon="2.74981">
        <ele>1074.8</ele>
        <time>2018-11-26T05:00:46Z</time>
      </trkpt>
      <trkpt lat="42.42078" lon="2.74981">
        <ele>1074.7</ele>
        <time>2018-11-26T05:00:46Z</time>
      </trkpt>
      <trkpt lat="42.42078" lon="2.74982">
        <ele>1074.8</ele>
        <time>2018-11-26T05:00:46Z</time>
      </trkpt>
      <trkpt lat="42.42078" lon="2.74982">
        <ele>1074.7</ele>
        <time>2018-11-26T05:00:46Z</time>
      </trkpt>
      <trkpt lat="42.42078" lon="2.74982">
        <ele>1074.5</ele>
        <time>2018-11-26T05:00:46Z</time>
      </trkpt>
      <trkpt lat="42.42078" lon="2.74983">
        <ele>1074.2</ele>
        <time>2018-11-26T05:00:46Z</time>
      </trkpt>
      <trkpt lat="42.42078" lon="2.74983">
        <ele>1074.4</ele>
        <time>2018-11-26T05:00:46Z</time>
      </trkpt>
      <trkpt lat="42.42078" lon="2.74983">
        <ele>1074.6</ele>
        <time>2018-11-26T05:00:46Z</time>
      </trkpt>
      <trkpt lat="42.42078" lon="2.74983">
        <ele>1074.9</ele>
        <time>2018-11-26T05:00:46Z</time>
      </trkpt>
      <trkpt lat="42.42077" lon="2.74984">
        <ele>1074.9</ele>
        <time>2018-11-26T05:00:46Z</time>
      </trkpt>
      <trkpt lat="42.42077" lon="2.74984">
        <ele>1074.7</ele>
        <time>2018-11-26T05:00:46Z</time>
      </trkpt>
      <trkpt lat="42.42077" lon="2.74984">
        <ele>1074.5</ele>
        <time>2018-11-26T05:00:46Z</time>
      </trkpt>
      <trkpt lat="42.42077" lon="2.74984">
        <ele>1074.3</ele>
        <time>2018-11-26T05:00:47Z</time>
      </trkpt>
      <trkpt lat="42.42077" lon="2.74984">
        <ele>1074.1</ele>
        <time>2018-11-26T05:00:47Z</time>
      </trkpt>
      <trkpt lat="42.42077" lon="2.74984">
        <ele>1074</ele>
        <time>2018-11-26T05:00:47Z</time>
      </trkpt>
      <trkpt lat="42.42077" lon="2.74984">
        <ele>1074</ele>
        <time>2018-11-26T05:00:47Z</time>
      </trkpt>
      <trkpt lat="42.42077" lon="2.74984">
        <ele>1074</ele>
        <time>2018-11-26T05:00:47Z</time>
      </trkpt>
      <trkpt lat="42.42077" lon="2.74984">
        <ele>1074.2</ele>
        <time>2018-11-26T05:00:47Z</time>
      </trkpt>
      <trkpt lat="42.42078" lon="2.74984">
        <ele>1074.1</ele>
        <time>2018-11-26T05:00:47Z</time>
      </trkpt>
      <trkpt lat="42.42078" lon="2.74984">
        <ele>1073.9</ele>
        <time>2018-11-26T05:00:47Z</time>
      </trkpt>
      <trkpt lat="42.42078" lon="2.74984">
        <ele>1073.7</ele>
        <time>2018-11-26T05:00:47Z</time>
      </trkpt>
      <trkpt lat="42.42078" lon="2.74984">
        <ele>1073.5</ele>
        <time>2018-11-26T05:00:47Z</time>
      </trkpt>
      <trkpt lat="42.42078" lon="2.74984">
        <ele>1073.5</ele>
        <time>2018-11-26T05:00:47Z</time>
      </trkpt>
      <trkpt lat="42.42078" lon="2.74984">
        <ele>1073.4</ele>
        <time>2018-11-26T05:00:47Z</time>
      </trkpt>
      <trkpt lat="42.42078" lon="2.74984">
        <ele>1073.4</ele>
        <time>2018-11-26T05:00:47Z</time>
      </trkpt>
      <trkpt lat="42.42078" lon="2.74983">
        <ele>1073.8</ele>
        <time>2018-11-26T05:00:47Z</time>
      </trkpt>
      <trkpt lat="42.42078" lon="2.74983">
        <ele>1074.4</ele>
        <time>2018-11-26T05:00:47Z</time>
      </trkpt>
      <trkpt lat="42.42078" lon="2.74983">
        <ele>1075.1</ele>
        <time>2018-11-26T05:00:47Z</time>
      </trkpt>
      <trkpt lat="42.42078" lon="2.74983">
        <ele>1075.1</ele>
        <time>2018-11-26T05:00:47Z</time>
      </trkpt>
      <trkpt lat="42.42078" lon="2.74983">
        <ele>1075.1</ele>
        <time>2018-11-26T05:00:47Z</time>
      </trkpt>
      <trkpt lat="42.42078" lon="2.74983">
        <ele>1075</ele>
        <time>2018-11-26T05:00:47Z</time>
      </trkpt>
      <trkpt lat="42.42078" lon="2.74983">
        <ele>1074.8</ele>
        <time>2018-11-26T05:00:47Z</time>
      </trkpt>
      <trkpt lat="42.42079" lon="2.74982">
        <ele>1074.5</ele>
        <time>2018-11-26T05:00:48Z</time>
      </trkpt>
      <trkpt lat="42.42079" lon="2.74982">
        <ele>1074.1</ele>
        <time>2018-11-26T05:00:48Z</time>
      </trkpt>
      <trkpt lat="42.42079" lon="2.74982">
        <ele>1074.2</ele>
        <time>2018-11-26T05:00:48Z</time>
      </trkpt>
      <trkpt lat="42.42079" lon="2.74981">
        <ele>1074.2</ele>
        <time>2018-11-26T05:00:48Z</time>
      </trkpt>
      <trkpt lat="42.42079" lon="2.74981">
        <ele>1074.2</ele>
        <time>2018-11-26T05:00:48Z</time>
      </trkpt>
      <trkpt lat="42.42079" lon="2.74981">
        <ele>1074.4</ele>
        <time>2018-11-26T05:00:48Z</time>
      </trkpt>
      <trkpt lat="42.42079" lon="2.7498">
        <ele>1074.5</ele>
        <time>2018-11-26T05:00:48Z</time>
      </trkpt>
      <trkpt lat="42.42079" lon="2.7498">
        <ele>1074.7</ele>
        <time>2018-11-26T05:00:48Z</time>
      </trkpt>
      <trkpt lat="42.42079" lon="2.7498">
        <ele>1074.8</ele>
        <time>2018-11-26T05:00:48Z</time>
      </trkpt>
      <trkpt lat="42.42079" lon="2.74979">
        <ele>1074.9</ele>
        <time>2018-11-26T05:00:48Z</time>
      </trkpt>
      <trkpt lat="42.4208" lon="2.74979">
        <ele>1074.9</ele>
        <time>2018-11-26T05:00:49Z</time>
      </trkpt>
      <trkpt lat="42.4208" lon="2.74979">
        <ele>1074.9</ele>
        <time>2018-11-26T05:00:49Z</time>
      </trkpt>
      <trkpt lat="42.4208" lon="2.74978">
        <ele>1075</ele>
        <time>2018-11-26T05:00:49Z</time>
      </trkpt>
      <trkpt lat="42.4208" lon="2.74978">
        <ele>1074.9</ele>
        <time>2018-11-26T05:00:49Z</time>
      </trkpt>
      <trkpt lat="42.4208" lon="2.74978">
        <ele>1074.8</ele>
        <time>2018-11-26T05:00:49Z</time>
      </trkpt>
      <trkpt lat="42.4208" lon="2.74978">
        <ele>1074.9</ele>
        <time>2018-11-26T05:00:49Z</time>
      </trkpt>
      <trkpt lat="42.4208" lon="2.74977">
        <ele>1075</ele>
        <time>2018-11-26T05:00:49Z</time>
      </trkpt>
      <trkpt lat="42.4208" lon="2.74977">
        <ele>1075.1</ele>
        <time>2018-11-26T05:00:49Z</time>
      </trkpt>
      <trkpt lat="42.4208" lon="2.74977">
        <ele>1075.1</ele>
        <time>2018-11-26T05:00:49Z</time>
      </trkpt>
      <trkpt lat="42.4208" lon="2.74977">
        <ele>1075.5</ele>
        <time>2018-11-26T05:00:49Z</time>
      </trkpt>
      <trkpt lat="42.4208" lon="2.74977">
        <ele>1075.8</ele>
        <time>2018-11-26T05:00:49Z</time>
      </trkpt>
      <trkpt lat="42.4208" lon="2.74977">
        <ele>1075.7</ele>
        <time>2018-11-26T05:00:49Z</time>
      </trkpt>
      <trkpt lat="42.4208" lon="2.74977">
        <ele>1075.6</ele>
        <time>2018-11-26T05:00:49Z</time>
      </trkpt>
      <trkpt lat="42.4208" lon="2.74977">
        <ele>1075.5</ele>
        <time>2018-11-26T05:00:49Z</time>
      </trkpt>
      <trkpt lat="42.4208" lon="2.74977">
        <ele>1075.5</ele>
        <time>2018-11-26T05:00:49Z</time>
      </trkpt>
      <trkpt lat="42.4208" lon="2.74977">
        <ele>1075.5</ele>
        <time>2018-11-26T05:00:49Z</time>
      </trkpt>
      <trkpt lat="42.4208" lon="2.74977">
        <ele>1075.6</ele>
        <time>2018-11-26T05:00:50Z</time>
      </trkpt>
      <trkpt lat="42.4208" lon="2.74977">
        <ele>1075.8</ele>
        <time>2018-11-26T05:00:50Z</time>
      </trkpt>
      <trkpt lat="42.4208" lon="2.74977">
        <ele>1075.6</ele>
        <time>2018-11-26T05:00:50Z</time>
      </trkpt>
      <trkpt lat="42.4208" lon="2.74978">
        <ele>1075.5</ele>
        <time>2018-11-26T05:00:50Z</time>
      </trkpt>
      <trkpt lat="42.4208" lon="2.74978">
        <ele>1075.2</ele>
        <time>2018-11-26T05:00:50Z</time>
      </trkpt>
      <trkpt lat="42.4208" lon="2.74978">
        <ele>1074.9</ele>
        <time>2018-11-26T05:00:50Z</time>
      </trkpt>
      <trkpt lat="42.4208" lon="2.74978">
        <ele>1074.7</ele>
        <time>2018-11-26T05:00:50Z</time>
      </trkpt>
      <trkpt lat="42.4208" lon="2.74978">
        <ele>1074.3</ele>
        <time>2018-11-26T05:00:50Z</time>
      </trkpt>
      <trkpt lat="42.4208" lon="2.74978">
        <ele>1074.4</ele>
        <time>2018-11-26T05:00:50Z</time>
      </trkpt>
      <trkpt lat="42.4208" lon="2.74979">
        <ele>1074.5</ele>
        <time>2018-11-26T05:00:50Z</time>
      </trkpt>
      <trkpt lat="42.4208" lon="2.74979">
        <ele>1074.8</ele>
        <time>2018-11-26T05:00:50Z</time>
      </trkpt>
      <trkpt lat="42.4208" lon="2.74979">
        <ele>1074.8</ele>
        <time>2018-11-26T05:00:50Z</time>
      </trkpt>
      <trkpt lat="42.4208" lon="2.74979">
        <ele>1074.9</ele>
        <time>2018-11-26T05:00:50Z</time>
      </trkpt>
      <trkpt lat="42.4208" lon="2.74979">
        <ele>1075</ele>
        <time>2018-11-26T05:00:50Z</time>
      </trkpt>
      <trkpt lat="42.4208" lon="2.74979">
        <ele>1074.9</ele>
        <time>2018-11-26T05:00:50Z</time>
      </trkpt>
      <trkpt lat="42.4208" lon="2.7498">
        <ele>1074.7</ele>
        <time>2018-11-26T05:00:50Z</time>
      </trkpt>
      <trkpt lat="42.4208" lon="2.7498">
        <ele>1074.6</ele>
        <time>2018-11-26T05:00:50Z</time>
      </trkpt>
      <trkpt lat="42.4208" lon="2.7498">
        <ele>1074.2</ele>
        <time>2018-11-26T05:00:50Z</time>
      </trkpt>
      <trkpt lat="42.4208" lon="2.7498">
        <ele>1074.4</ele>
        <time>2018-11-26T05:00:50Z</time>
      </trkpt>
      <trkpt lat="42.4208" lon="2.7498">
        <ele>1074.8</ele>
        <time>2018-11-26T05:00:50Z</time>
      </trkpt>
      <trkpt lat="42.4208" lon="2.7498">
        <ele>1075.1</ele>
        <time>2018-11-26T05:00:50Z</time>
      </trkpt>
      <trkpt lat="42.4208" lon="2.7498">
        <ele>1075.4</ele>
        <time>2018-11-26T05:00:51Z</time>
      </trkpt>
      <trkpt lat="42.42079" lon="2.7498">
        <ele>1075.6</ele>
        <time>2018-11-26T05:00:51Z</time>
      </trkpt>
      <trkpt lat="42.42079" lon="2.7498">
        <ele>1076</ele>
        <time>2018-11-26T05:00:51Z</time>
      </trkpt>
      <trkpt lat="42.42079" lon="2.74979">
        <ele>1075.4</ele>
        <time>2018-11-26T05:00:51Z</time>
      </trkpt>
      <trkpt lat="42.4208" lon="2.74979">
        <ele>1074.9</ele>
        <time>2018-11-26T05:00:51Z</time>
      </trkpt>
      <trkpt lat="42.4208" lon="2.74979">
        <ele>1074.1</ele>
        <time>2018-11-26T05:00:51Z</time>
      </trkpt>
      <trkpt lat="42.4208" lon="2.74978">
        <ele>1074.2</ele>
        <time>2018-11-26T05:00:51Z</time>
      </trkpt>
      <trkpt lat="42.4208" lon="2.74978">
        <ele>1074.5</ele>
        <time>2018-11-26T05:00:51Z</time>
      </trkpt>
      <trkpt lat="42.4208" lon="2.74977">
        <ele>1074.9</ele>
        <time>2018-11-26T05:00:51Z</time>
      </trkpt>
      <trkpt lat="42.4208" lon="2.74977">
        <ele>1075.1</ele>
        <time>2018-11-26T05:00:51Z</time>
      </trkpt>
      <trkpt lat="42.4208" lon="2.74977">
        <ele>1075</ele>
        <time>2018-11-26T05:00:52Z</time>
      </trkpt>
      <trkpt lat="42.4208" lon="2.74976">
        <ele>1075.1</ele>
        <time>2018-11-26T05:00:52Z</time>
      </trkpt>
      <trkpt lat="42.4208" lon="2.74976">
        <ele>1074.9</ele>
        <time>2018-11-26T05:00:52Z</time>
      </trkpt>
      <trkpt lat="42.4208" lon="2.74976">
        <ele>1075</ele>
        <time>2018-11-26T05:00:52Z</time>
      </trkpt>
      <trkpt lat="42.4208" lon="2.74975">
        <ele>1074.8</ele>
        <time>2018-11-26T05:00:52Z</time>
      </trkpt>
      <trkpt lat="42.4208" lon="2.74975">
        <ele>1074.6</ele>
        <time>2018-11-26T05:00:52Z</time>
      </trkpt>
      <trkpt lat="42.4208" lon="2.74975">
        <ele>1074.7</ele>
        <time>2018-11-26T05:00:52Z</time>
      </trkpt>
      <trkpt lat="42.4208" lon="2.74975">
        <ele>1074.7</ele>
        <time>2018-11-26T05:00:52Z</time>
      </trkpt>
      <trkpt lat="42.4208" lon="2.74974">
        <ele>1074.8</ele>
        <time>2018-11-26T05:00:52Z</time>
      </trkpt>
      <trkpt lat="42.4208" lon="2.74974">
        <ele>1074.9</ele>
        <time>2018-11-26T05:00:52Z</time>
      </trkpt>
      <trkpt lat="42.4208" lon="2.74974">
        <ele>1075</ele>
        <time>2018-11-26T05:00:52Z</time>
      </trkpt>
      <trkpt lat="42.4208" lon="2.74974">
        <ele>1075.1</ele>
        <time>2018-11-26T05:00:53Z</time>
      </trkpt>
      <trkpt lat="42.4208" lon="2.74974">
        <ele>1075.2</ele>
        <time>2018-11-26T05:00:53Z</time>
      </trkpt>
      <trkpt lat="42.4208" lon="2.74974">
        <ele>1075.1</ele>
        <time>2018-11-26T05:00:53Z</time>
      </trkpt>
      <trkpt lat="42.4208" lon="2.74975">
        <ele>1075.2</ele>
        <time>2018-11-26T05:00:53Z</time>
      </trkpt>
      <trkpt lat="42.4208" lon="2.74975">
        <ele>1075.2</ele>
        <time>2018-11-26T05:00:53Z</time>
      </trkpt>
      <trkpt lat="42.4208" lon="2.74975">
        <ele>1075</ele>
        <time>2018-11-26T05:00:53Z</time>
      </trkpt>
      <trkpt lat="42.4208" lon="2.74975">
        <ele>1074.8</ele>
        <time>2018-11-26T05:00:53Z</time>
      </trkpt>
      <trkpt lat="42.4208" lon="2.74975">
        <ele>1074.8</ele>
        <time>2018-11-26T05:00:53Z</time>
      </trkpt>
      <trkpt lat="42.4208" lon="2.74975">
        <ele>1074.7</ele>
        <time>2018-11-26T05:00:53Z</time>
      </trkpt>
      <trkpt lat="42.4208" lon="2.74975">
        <ele>1074.6</ele>
        <time>2018-11-26T05:00:53Z</time>
      </trkpt>
      <trkpt lat="42.4208" lon="2.74975">
        <ele>1074.4</ele>
        <time>2018-11-26T05:00:53Z</time>
      </trkpt>
      <trkpt lat="42.4208" lon="2.74975">
        <ele>1074.3</ele>
        <time>2018-11-26T05:00:53Z</time>
      </trkpt>
      <trkpt lat="42.4208" lon="2.74975">
        <ele>1074</ele>
        <time>2018-11-26T05:00:53Z</time>
      </trkpt>
      <trkpt lat="42.4208" lon="2.74975">
        <ele>1073.8</ele>
        <time>2018-11-26T05:00:53Z</time>
      </trkpt>
      <trkpt lat="42.4208" lon="2.74975">
        <ele>1074</ele>
        <time>2018-11-26T05:00:53Z</time>
      </trkpt>
      <trkpt lat="42.4208" lon="2.74975">
        <ele>1073.9</ele>
        <time>2018-11-26T05:00:53Z</time>
      </trkpt>
      <trkpt lat="42.4208" lon="2.74974">
        <ele>1074</ele>
        <time>2018-11-26T05:00:53Z</time>
      </trkpt>
      <trkpt lat="42.4208" lon="2.74974">
        <ele>1073.9</ele>
        <time>2018-11-26T05:00:53Z</time>
      </trkpt>
      <trkpt lat="42.4208" lon="2.74974">
        <ele>1073.9</ele>
        <time>2018-11-26T05:00:53Z</time>
      </trkpt>
      <trkpt lat="42.4208" lon="2.74974">
        <ele>1073.7</ele>
        <time>2018-11-26T05:00:53Z</time>
      </trkpt>
      <trkpt lat="42.4208" lon="2.74974">
        <ele>1074.1</ele>
        <time>2018-11-26T05:00:53Z</time>
      </trkpt>
      <trkpt lat="42.4208" lon="2.74974">
        <ele>1074.4</ele>
        <time>2018-11-26T05:00:53Z</time>
      </trkpt>
      <trkpt lat="42.4208" lon="2.74974">
        <ele>1075</ele>
        <time>2018-11-26T05:00:53Z</time>
      </trkpt>
      <trkpt lat="42.4208" lon="2.74974">
        <ele>1075.1</ele>
        <time>2018-11-26T05:00:53Z</time>
      </trkpt>
      <trkpt lat="42.4208" lon="2.74974">
        <ele>1075.2</ele>
        <time>2018-11-26T05:00:53Z</time>
      </trkpt>
      <trkpt lat="42.4208" lon="2.74974">
        <ele>1075.3</ele>
        <time>2018-11-26T05:00:53Z</time>
      </trkpt>
      <trkpt lat="42.4208" lon="2.74974">
        <ele>1075.1</ele>
        <time>2018-11-26T05:00:53Z</time>
      </trkpt>
      <trkpt lat="42.4208" lon="2.74974">
        <ele>1074.9</ele>
        <time>2018-11-26T05:00:53Z</time>
      </trkpt>
      <trkpt lat="42.4208" lon="2.74974">
        <ele>1074.6</ele>
        <time>2018-11-26T05:00:53Z</time>
      </trkpt>
      <trkpt lat="42.4208" lon="2.74973">
        <ele>1074.3</ele>
        <time>2018-11-26T05:00:53Z</time>
      </trkpt>
      <trkpt lat="42.4208" lon="2.74973">
        <ele>1074.2</ele>
        <time>2018-11-26T05:00:54Z</time>
      </trkpt>
      <trkpt lat="42.4208" lon="2.74973">
        <ele>1074.1</ele>
        <time>2018-11-26T05:00:54Z</time>
      </trkpt>
      <trkpt lat="42.4208" lon="2.74972">
        <ele>1074.1</ele>
        <time>2018-11-26T05:00:54Z</time>
      </trkpt>
      <trkpt lat="42.4208" lon="2.74972">
        <ele>1074.3</ele>
        <time>2018-11-26T05:00:54Z</time>
      </trkpt>
      <trkpt lat="42.4208" lon="2.74972">
        <ele>1074.3</ele>
        <time>2018-11-26T05:00:54Z</time>
      </trkpt>
      <trkpt lat="42.42081" lon="2.74971">
        <ele>1074.6</ele>
        <time>2018-11-26T05:00:54Z</time>
      </trkpt>
      <trkpt lat="42.42081" lon="2.74971">
        <ele>1074.5</ele>
        <time>2018-11-26T05:00:54Z</time>
      </trkpt>
      <trkpt lat="42.42081" lon="2.7497">
        <ele>1074.5</ele>
        <time>2018-11-26T05:00:54Z</time>
      </trkpt>
      <trkpt lat="42.42081" lon="2.7497">
        <ele>1074.5</ele>
        <time>2018-11-26T05:00:55Z</time>
      </trkpt>
      <trkpt lat="42.42081" lon="2.74969">
        <ele>1074.4</ele>
        <time>2018-11-26T05:00:55Z</time>
      </trkpt>
      <trkpt lat="42.42081" lon="2.74969">
        <ele>1074.1</ele>
        <time>2018-11-26T05:00:55Z</time>
      </trkpt>
      <trkpt lat="42.42082" lon="2.74968">
        <ele>1074</ele>
        <time>2018-11-26T05:00:55Z</time>
      </trkpt>
      <trkpt lat="42.42082" lon="2.74968">
        <ele>1074.1</ele>
        <time>2018-11-26T05:00:55Z</time>
      </trkpt>
      <trkpt lat="42.42082" lon="2.74968">
        <ele>1074.1</ele>
        <time>2018-11-26T05:00:55Z</time>
      </trkpt>
      <trkpt lat="42.42082" lon="2.74968">
        <ele>1074.3</ele>
        <time>2018-11-26T05:00:55Z</time>
      </trkpt>
      <trkpt lat="42.42082" lon="2.74968">
        <ele>1074.3</ele>
        <time>2018-11-26T05:00:55Z</time>
      </trkpt>
      <trkpt lat="42.42082" lon="2.74968">
        <ele>1074.4</ele>
        <time>2018-11-26T05:00:55Z</time>
      </trkpt>
      <trkpt lat="42.42082" lon="2.74968">
        <ele>1074.6</ele>
        <time>2018-11-26T05:00:55Z</time>
      </trkpt>
      <trkpt lat="42.42082" lon="2.74967">
        <ele>1074.7</ele>
        <time>2018-11-26T05:00:55Z</time>
      </trkpt>
      <trkpt lat="42.42082" lon="2.74967">
        <ele>1074.7</ele>
        <time>2018-11-26T05:00:55Z</time>
      </trkpt>
      <trkpt lat="42.42082" lon="2.74968">
        <ele>1074.9</ele>
        <time>2018-11-26T05:00:56Z</time>
      </trkpt>
      <trkpt lat="42.42082" lon="2.74968">
        <ele>1074.9</ele>
        <time>2018-11-26T05:00:56Z</time>
      </trkpt>
      <trkpt lat="42.42082" lon="2.74968">
        <ele>1075</ele>
        <time>2018-11-26T05:00:56Z</time>
      </trkpt>
      <trkpt lat="42.42082" lon="2.74968">
        <ele>1075.4</ele>
        <time>2018-11-26T05:00:56Z</time>
      </trkpt>
      <trkpt lat="42.42083" lon="2.74968">
        <ele>1075.7</ele>
        <time>2018-11-26T05:00:56Z</time>
      </trkpt>
      <trkpt lat="42.42083" lon="2.74968">
        <ele>1075.5</ele>
        <time>2018-11-26T05:00:56Z</time>
      </trkpt>
      <trkpt lat="42.42083" lon="2.74968">
        <ele>1075.3</ele>
        <time>2018-11-26T05:00:56Z</time>
      </trkpt>
      <trkpt lat="42.42083" lon="2.74968">
        <ele>1075</ele>
        <time>2018-11-26T05:00:56Z</time>
      </trkpt>
      <trkpt lat="42.42083" lon="2.74968">
        <ele>1074.8</ele>
        <time>2018-11-26T05:00:56Z</time>
      </trkpt>
      <trkpt lat="42.42083" lon="2.74968">
        <ele>1074.6</ele>
        <time>2018-11-26T05:00:56Z</time>
      </trkpt>
      <trkpt lat="42.42083" lon="2.74968">
        <ele>1074.3</ele>
        <time>2018-11-26T05:00:56Z</time>
      </trkpt>
      <trkpt lat="42.42083" lon="2.74968">
        <ele>1074.4</ele>
        <time>2018-11-26T05:00:56Z</time>
      </trkpt>
      <trkpt lat="42.42083" lon="2.74968">
        <ele>1074.3</ele>
        <time>2018-11-26T05:00:56Z</time>
      </trkpt>
      <trkpt lat="42.42083" lon="2.74968">
        <ele>1074.4</ele>
        <time>2018-11-26T05:00:56Z</time>
      </trkpt>
      <trkpt lat="42.42083" lon="2.74968">
        <ele>1074.4</ele>
        <time>2018-11-26T05:00:56Z</time>
      </trkpt>
      <trkpt lat="42.42083" lon="2.74969">
        <ele>1074.5</ele>
        <time>2018-11-26T05:00:56Z</time>
      </trkpt>
      <trkpt lat="42.42083" lon="2.74969">
        <ele>1074.6</ele>
        <time>2018-11-26T05:00:56Z</time>
      </trkpt>
      <trkpt lat="42.42083" lon="2.74969">
        <ele>1074.7</ele>
        <time>2018-11-26T05:00:56Z</time>
      </trkpt>
      <trkpt lat="42.42082" lon="2.74969">
        <ele>1074.7</ele>
        <time>2018-11-26T05:00:56Z</time>
      </trkpt>
      <trkpt lat="42.42082" lon="2.74969">
        <ele>1074.5</ele>
        <time>2018-11-26T05:00:56Z</time>
      </trkpt>
      <trkpt lat="42.42082" lon="2.74969">
        <ele>1074.3</ele>
        <time>2018-11-26T05:00:56Z</time>
      </trkpt>
      <trkpt lat="42.42082" lon="2.74969">
        <ele>1074.5</ele>
        <time>2018-11-26T05:00:56Z</time>
      </trkpt>
      <trkpt lat="42.42082" lon="2.74969">
        <ele>1074.6</ele>
        <time>2018-11-26T05:00:56Z</time>
      </trkpt>
      <trkpt lat="42.42082" lon="2.7497">
        <ele>1075</ele>
        <time>2018-11-26T05:00:56Z</time>
      </trkpt>
      <trkpt lat="42.42082" lon="2.7497">
        <ele>1075</ele>
        <time>2018-11-26T05:00:56Z</time>
      </trkpt>
      <trkpt lat="42.42082" lon="2.7497">
        <ele>1074.8</ele>
        <time>2018-11-26T05:00:56Z</time>
      </trkpt>
      <trkpt lat="42.42082" lon="2.74969">
        <ele>1074.7</ele>
        <time>2018-11-26T05:00:57Z</time>
      </trkpt>
      <trkpt lat="42.42082" lon="2.74969">
        <ele>1074.5</ele>
        <time>2018-11-26T05:00:57Z</time>
      </trkpt>
      <trkpt lat="42.42082" lon="2.74969">
        <ele>1074.5</ele>
        <time>2018-11-26T05:00:57Z</time>
      </trkpt>
      <trkpt lat="42.42082" lon="2.74969">
        <ele>1074.3</ele>
        <time>2018-11-26T05:00:57Z</time>
      </trkpt>
      <trkpt lat="42.42082" lon="2.74969">
        <ele>1074.5</ele>
        <time>2018-11-26T05:00:57Z</time>
      </trkpt>
      <trkpt lat="42.42082" lon="2.74968">
        <ele>1074.7</ele>
        <time>2018-11-26T05:00:57Z</time>
      </trkpt>
      <trkpt lat="42.42082" lon="2.74968">
        <ele>1075</ele>
        <time>2018-11-26T05:00:57Z</time>
      </trkpt>
      <trkpt lat="42.42082" lon="2.74968">
        <ele>1075.4</ele>
        <time>2018-11-26T05:00:57Z</time>
      </trkpt>
      <trkpt lat="42.42082" lon="2.74967">
        <ele>1075.4</ele>
        <time>2018-11-26T05:00:57Z</time>
      </trkpt>
      <trkpt lat="42.42082" lon="2.74967">
        <ele>1075.2</ele>
        <time>2018-11-26T05:00:57Z</time>
      </trkpt>
      <trkpt lat="42.42082" lon="2.74967">
        <ele>1075.1</ele>
        <time>2018-11-26T05:00:57Z</time>
      </trkpt>
      <trkpt lat="42.42082" lon="2.74966">
        <ele>1075.4</ele>
        <time>2018-11-26T05:00:58Z</time>
      </trkpt>
      <trkpt lat="42.42082" lon="2.74966">
        <ele>1075.6</ele>
        <time>2018-11-26T05:00:58Z</time>
      </trkpt>
      <trkpt lat="42.42082" lon="2.74966">
        <ele>1076.1</ele>
        <time>2018-11-26T05:00:58Z</time>
      </trkpt>
      <trkpt lat="42.42082" lon="2.74965">
        <ele>1076</ele>
        <time>2018-11-26T05:00:58Z</time>
      </trkpt>
      <trkpt lat="42.42082" lon="2.74965">
        <ele>1075.7</ele>
        <time>2018-11-26T05:00:58Z</time>
      </trkpt>
      <trkpt lat="42.42082" lon="2.74965">
        <ele>1075.6</ele>
        <time>2018-11-26T05:00:58Z</time>
      </trkpt>
      <trkpt lat="42.42082" lon="2.74965">
        <ele>1075.6</ele>
        <time>2018-11-26T05:00:58Z</time>
      </trkpt>
      <trkpt lat="42.42081" lon="2.74965">
        <ele>1075.5</ele>
        <time>2018-11-26T05:00:58Z</time>
      </trkpt>
      <trkpt lat="42.42081" lon="2.74965">
        <ele>1075.6</ele>
        <time>2018-11-26T05:00:58Z</time>
      </trkpt>
      <trkpt lat="42.42081" lon="2.74965">
        <ele>1075.5</ele>
        <time>2018-11-26T05:00:58Z</time>
      </trkpt>
      <trkpt lat="42.42081" lon="2.74965">
        <ele>1075.4</ele>
        <time>2018-11-26T05:00:58Z</time>
      </trkpt>
      <trkpt lat="42.42081" lon="2.74966">
        <ele>1075.1</ele>
        <time>2018-11-26T05:00:58Z</time>
      </trkpt>
      <trkpt lat="42.42081" lon="2.74966">
        <ele>1075</ele>
        <time>2018-11-26T05:00:58Z</time>
      </trkpt>
      <trkpt lat="42.42081" lon="2.74966">
        <ele>1074.9</ele>
        <time>2018-11-26T05:00:58Z</time>
      </trkpt>
      <trkpt lat="42.42081" lon="2.74966">
        <ele>1074.7</ele>
        <time>2018-11-26T05:00:58Z</time>
      </trkpt>
      <trkpt lat="42.42081" lon="2.74966">
        <ele>1074.2</ele>
        <time>2018-11-26T05:00:58Z</time>
      </trkpt>
      <trkpt lat="42.42081" lon="2.74967">
        <ele>1074.3</ele>
        <time>2018-11-26T05:00:58Z</time>
      </trkpt>
      <trkpt lat="42.42081" lon="2.74967">
        <ele>1074.4</ele>
        <time>2018-11-26T05:00:58Z</time>
      </trkpt>
      <trkpt lat="42.42081" lon="2.74967">
        <ele>1074.5</ele>
        <time>2018-11-26T05:00:58Z</time>
      </trkpt>
      <trkpt lat="42.42081" lon="2.74967">
        <ele>1074.5</ele>
        <time>2018-11-26T05:00:58Z</time>
      </trkpt>
      <trkpt lat="42.42081" lon="2.74968">
        <ele>1074.5</ele>
        <time>2018-11-26T05:00:59Z</time>
      </trkpt>
      <trkpt lat="42.42081" lon="2.74968">
        <ele>1074.5</ele>
        <time>2018-11-26T05:00:59Z</time>
      </trkpt>
      <trkpt lat="42.42081" lon="2.74968">
        <ele>1074.8</ele>
        <time>2018-11-26T05:00:59Z</time>
      </trkpt>
      <trkpt lat="42.42081" lon="2.74968">
        <ele>1075</ele>
        <time>2018-11-26T05:00:59Z</time>
      </trkpt>
      <trkpt lat="42.42081" lon="2.74968">
        <ele>1075.4</ele>
        <time>2018-11-26T05:00:59Z</time>
      </trkpt>
      <trkpt lat="42.42081" lon="2.74969">
        <ele>1075.4</ele>
        <time>2018-11-26T05:00:59Z</time>
      </trkpt>
      <trkpt lat="42.42081" lon="2.74969">
        <ele>1075.4</ele>
        <time>2018-11-26T05:00:59Z</time>
      </trkpt>
      <trkpt lat="42.42081" lon="2.74969">
        <ele>1075.1</ele>
        <time>2018-11-26T05:00:59Z</time>
      </trkpt>
      <trkpt lat="42.42081" lon="2.74969">
        <ele>1075.1</ele>
        <time>2018-11-26T05:00:59Z</time>
      </trkpt>
      <trkpt lat="42.42081" lon="2.74969">
        <ele>1075.1</ele>
        <time>2018-11-26T05:00:59Z</time>
      </trkpt>
      <trkpt lat="42.42081" lon="2.7497">
        <ele>1075.1</ele>
        <time>2018-11-26T05:00:59Z</time>
      </trkpt>
      <trkpt lat="42.42081" lon="2.7497">
        <ele>1074.9</ele>
        <time>2018-11-26T05:00:59Z</time>
      </trkpt>
      <trkpt lat="42.42081" lon="2.7497">
        <ele>1074.8</ele>
        <time>2018-11-26T05:00:59Z</time>
      </trkpt>
      <trkpt lat="42.42081" lon="2.7497">
        <ele>1074.6</ele>
        <time>2018-11-26T05:00:59Z</time>
      </trkpt>
      <trkpt lat="42.42081" lon="2.7497">
        <ele>1074.2</ele>
        <time>2018-11-26T05:00:59Z</time>
      </trkpt>
      <trkpt lat="42.42081" lon="2.74971">
        <ele>1074.3</ele>
        <time>2018-11-26T05:01:00Z</time>
      </trkpt>
      <trkpt lat="42.42081" lon="2.74971">
        <ele>1074.3</ele>
        <time>2018-11-26T05:01:00Z</time>
      </trkpt>
      <trkpt lat="42.42081" lon="2.74972">
        <ele>1074.1</ele>
        <time>2018-11-26T05:01:00Z</time>
      </trkpt>
      <trkpt lat="42.42081" lon="2.74972">
        <ele>1074.2</ele>
        <time>2018-11-26T05:01:00Z</time>
      </trkpt>
      <trkpt lat="42.42081" lon="2.74972">
        <ele>1074.4</ele>
        <time>2018-11-26T05:01:00Z</time>
      </trkpt>
      <trkpt lat="42.42081" lon="2.74973">
        <ele>1074.7</ele>
        <time>2018-11-26T05:01:00Z</time>
      </trkpt>
      <trkpt lat="42.42081" lon="2.74973">
        <ele>1074.7</ele>
        <time>2018-11-26T05:01:00Z</time>
      </trkpt>
      <trkpt lat="42.42081" lon="2.74973">
        <ele>1074.9</ele>
        <time>2018-11-26T05:01:00Z</time>
      </trkpt>
      <trkpt lat="42.42081" lon="2.74974">
        <ele>1075.2</ele>
        <time>2018-11-26T05:01:00Z</time>
      </trkpt>
      <trkpt lat="42.42081" lon="2.74974">
        <ele>1075.3</ele>
        <time>2018-11-26T05:01:01Z</time>
      </trkpt>
      <trkpt lat="42.42081" lon="2.74975">
        <ele>1075.2</ele>
        <time>2018-11-26T05:01:01Z</time>
      </trkpt>
      <trkpt lat="42.42081" lon="2.74975">
        <ele>1075.3</ele>
        <time>2018-11-26T05:01:01Z</time>
      </trkpt>
      <trkpt lat="42.42081" lon="2.74976">
        <ele>1075.3</ele>
        <time>2018-11-26T05:01:01Z</time>
      </trkpt>
      <trkpt lat="42.42081" lon="2.74977">
        <ele>1075.2</ele>
        <time>2018-11-26T05:01:01Z</time>
      </trkpt>
      <trkpt lat="42.42081" lon="2.74977">
        <ele>1075.2</ele>
        <time>2018-11-26T05:01:01Z</time>
      </trkpt>
      <trkpt lat="42.42081" lon="2.74977">
        <ele>1075.3</ele>
        <time>2018-11-26T05:01:02Z</time>
      </trkpt>
      <trkpt lat="42.42081" lon="2.74978">
        <ele>1075.3</ele>
        <time>2018-11-26T05:01:02Z</time>
      </trkpt>
      <trkpt lat="42.42081" lon="2.74978">
        <ele>1075.3</ele>
        <time>2018-11-26T05:01:02Z</time>
      </trkpt>
      <trkpt lat="42.42081" lon="2.74978">
        <ele>1075.2</ele>
        <time>2018-11-26T05:01:02Z</time>
      </trkpt>
      <trkpt lat="42.42081" lon="2.74978">
        <ele>1074.9</ele>
        <time>2018-11-26T05:01:02Z</time>
      </trkpt>
      <trkpt lat="42.42081" lon="2.74978">
        <ele>1074.5</ele>
        <time>2018-11-26T05:01:02Z</time>
      </trkpt>
      <trkpt lat="42.42081" lon="2.74978">
        <ele>1074.1</ele>
        <time>2018-11-26T05:01:02Z</time>
      </trkpt>
      <trkpt lat="42.42081" lon="2.74979">
        <ele>1074</ele>
        <time>2018-11-26T05:01:02Z</time>
      </trkpt>
      <trkpt lat="42.42081" lon="2.74979">
        <ele>1073.8</ele>
        <time>2018-11-26T05:01:02Z</time>
      </trkpt>
      <trkpt lat="42.42081" lon="2.74979">
        <ele>1073.7</ele>
        <time>2018-11-26T05:01:02Z</time>
      </trkpt>
      <trkpt lat="42.42081" lon="2.7498">
        <ele>1074</ele>
        <time>2018-11-26T05:01:02Z</time>
      </trkpt>
      <trkpt lat="42.42081" lon="2.7498">
        <ele>1074.2</ele>
        <time>2018-11-26T05:01:02Z</time>
      </trkpt>
      <trkpt lat="42.42081" lon="2.7498">
        <ele>1074.4</ele>
        <time>2018-11-26T05:01:02Z</time>
      </trkpt>
      <trkpt lat="42.42081" lon="2.7498">
        <ele>1074.3</ele>
        <time>2018-11-26T05:01:02Z</time>
      </trkpt>
      <trkpt lat="42.42081" lon="2.7498">
        <ele>1074.1</ele>
        <time>2018-11-26T05:01:02Z</time>
      </trkpt>
      <trkpt lat="42.42081" lon="2.7498">
        <ele>1073.8</ele>
        <time>2018-11-26T05:01:02Z</time>
      </trkpt>
      <trkpt lat="42.42081" lon="2.7498">
        <ele>1074.1</ele>
        <time>2018-11-26T05:01:03Z</time>
      </trkpt>
      <trkpt lat="42.42081" lon="2.7498">
        <ele>1074.3</ele>
        <time>2018-11-26T05:01:03Z</time>
      </trkpt>
      <trkpt lat="42.42081" lon="2.7498">
        <ele>1074.5</ele>
        <time>2018-11-26T05:01:03Z</time>
      </trkpt>
      <trkpt lat="42.42081" lon="2.74979">
        <ele>1074.9</ele>
        <time>2018-11-26T05:01:03Z</time>
      </trkpt>
      <trkpt lat="42.42081" lon="2.74979">
        <ele>1074.8</ele>
        <time>2018-11-26T05:01:03Z</time>
      </trkpt>
      <trkpt lat="42.42081" lon="2.74979">
        <ele>1074.7</ele>
        <time>2018-11-26T05:01:03Z</time>
      </trkpt>
      <trkpt lat="42.42081" lon="2.74979">
        <ele>1074.6</ele>
        <time>2018-11-26T05:01:03Z</time>
      </trkpt>
      <trkpt lat="42.42081" lon="2.74978">
        <ele>1074.7</ele>
        <time>2018-11-26T05:01:03Z</time>
      </trkpt>
      <trkpt lat="42.42081" lon="2.74978">
        <ele>1074.9</ele>
        <time>2018-11-26T05:01:03Z</time>
      </trkpt>
      <trkpt lat="42.4208" lon="2.74977">
        <ele>1075.3</ele>
        <time>2018-11-26T05:01:03Z</time>
      </trkpt>
      <trkpt lat="42.4208" lon="2.74977">
        <ele>1075.3</ele>
        <time>2018-11-26T05:01:03Z</time>
      </trkpt>
      <trkpt lat="42.4208" lon="2.74977">
        <ele>1075.3</ele>
        <time>2018-11-26T05:01:04Z</time>
      </trkpt>
      <trkpt lat="42.4208" lon="2.74977">
        <ele>1075.4</ele>
        <time>2018-11-26T05:01:04Z</time>
      </trkpt>
      <trkpt lat="42.4208" lon="2.74977">
        <ele>1075.2</ele>
        <time>2018-11-26T05:01:04Z</time>
      </trkpt>
      <trkpt lat="42.4208" lon="2.74977">
        <ele>1074.9</ele>
        <time>2018-11-26T05:01:04Z</time>
      </trkpt>
      <trkpt lat="42.4208" lon="2.74977">
        <ele>1074.6</ele>
        <time>2018-11-26T05:01:04Z</time>
      </trkpt>
      <trkpt lat="42.4208" lon="2.74977">
        <ele>1074.8</ele>
        <time>2018-11-26T05:01:04Z</time>
      </trkpt>
      <trkpt lat="42.42079" lon="2.74976">
        <ele>1075</ele>
        <time>2018-11-26T05:01:04Z</time>
      </trkpt>
      <trkpt lat="42.42079" lon="2.74976">
        <ele>1075.1</ele>
        <time>2018-11-26T05:01:04Z</time>
      </trkpt>
      <trkpt lat="42.42079" lon="2.74976">
        <ele>1075.1</ele>
        <time>2018-11-26T05:01:04Z</time>
      </trkpt>
      <trkpt lat="42.42079" lon="2.74975">
        <ele>1075.2</ele>
        <time>2018-11-26T05:01:04Z</time>
      </trkpt>
      <trkpt lat="42.42079" lon="2.74975">
        <ele>1075</ele>
        <time>2018-11-26T05:01:04Z</time>
      </trkpt>
      <trkpt lat="42.42079" lon="2.74975">
        <ele>1075</ele>
        <time>2018-11-26T05:01:04Z</time>
      </trkpt>
      <trkpt lat="42.42079" lon="2.74975">
        <ele>1074.8</ele>
        <time>2018-11-26T05:01:05Z</time>
      </trkpt>
      <trkpt lat="42.42079" lon="2.74974">
        <ele>1074.7</ele>
        <time>2018-11-26T05:01:05Z</time>
      </trkpt>
      <trkpt lat="42.42079" lon="2.74974">
        <ele>1074.4</ele>
        <time>2018-11-26T05:01:05Z</time>
      </trkpt>
      <trkpt lat="42.42079" lon="2.74974">
        <ele>1074.5</ele>
        <time>2018-11-26T05:01:05Z</time>
      </trkpt>
      <trkpt lat="42.42079" lon="2.74973">
        <ele>1074.6</ele>
        <time>2018-11-26T05:01:05Z</time>
      </trkpt>
      <trkpt lat="42.42079" lon="2.74973">
        <ele>1074.8</ele>
        <time>2018-11-26T05:01:05Z</time>
      </trkpt>
      <trkpt lat="42.4208" lon="2.74972">
        <ele>1074.8</ele>
        <time>2018-11-26T05:01:05Z</time>
      </trkpt>
      <trkpt lat="42.4208" lon="2.74971">
        <ele>1074.8</ele>
        <time>2018-11-26T05:01:06Z</time>
      </trkpt>
      <trkpt lat="42.4208" lon="2.74971">
        <ele>1075</ele>
        <time>2018-11-26T05:01:06Z</time>
      </trkpt>
      <trkpt lat="42.4208" lon="2.74971">
        <ele>1074.9</ele>
        <time>2018-11-26T05:01:06Z</time>
      </trkpt>
      <trkpt lat="42.4208" lon="2.7497">
        <ele>1074.9</ele>
        <time>2018-11-26T05:01:06Z</time>
      </trkpt>
      <trkpt lat="42.4208" lon="2.7497">
        <ele>1074.9</ele>
        <time>2018-11-26T05:01:06Z</time>
      </trkpt>
      <trkpt lat="42.4208" lon="2.7497">
        <ele>1075</ele>
        <time>2018-11-26T05:01:06Z</time>
      </trkpt>
      <trkpt lat="42.4208" lon="2.74969">
        <ele>1075</ele>
        <time>2018-11-26T05:01:06Z</time>
      </trkpt>
      <trkpt lat="42.4208" lon="2.74969">
        <ele>1075</ele>
        <time>2018-11-26T05:01:06Z</time>
      </trkpt>
      <trkpt lat="42.4208" lon="2.74969">
        <ele>1075.1</ele>
        <time>2018-11-26T05:01:06Z</time>
      </trkpt>
      <trkpt lat="42.4208" lon="2.74969">
        <ele>1075.1</ele>
        <time>2018-11-26T05:01:06Z</time>
      </trkpt>
      <trkpt lat="42.4208" lon="2.74969">
        <ele>1075</ele>
        <time>2018-11-26T05:01:06Z</time>
      </trkpt>
      <trkpt lat="42.4208" lon="2.74969">
        <ele>1075.1</ele>
        <time>2018-11-26T05:01:06Z</time>
      </trkpt>
      <trkpt lat="42.42079" lon="2.74969">
        <ele>1074.9</ele>
        <time>2018-11-26T05:01:06Z</time>
      </trkpt>
      <trkpt lat="42.42079" lon="2.74968">
        <ele>1074.7</ele>
        <time>2018-11-26T05:01:06Z</time>
      </trkpt>
      <trkpt lat="42.42079" lon="2.74968">
        <ele>1074.6</ele>
        <time>2018-11-26T05:01:07Z</time>
      </trkpt>
      <trkpt lat="42.42079" lon="2.74968">
        <ele>1074.6</ele>
        <time>2018-11-26T05:01:07Z</time>
      </trkpt>
      <trkpt lat="42.42079" lon="2.74968">
        <ele>1074.7</ele>
        <time>2018-11-26T05:01:07Z</time>
      </trkpt>
      <trkpt lat="42.42079" lon="2.74968">
        <ele>1075</ele>
        <time>2018-11-26T05:01:07Z</time>
      </trkpt>
      <trkpt lat="42.42079" lon="2.74968">
        <ele>1075.1</ele>
        <time>2018-11-26T05:01:07Z</time>
      </trkpt>
      <trkpt lat="42.42079" lon="2.74968">
        <ele>1075.2</ele>
        <time>2018-11-26T05:01:07Z</time>
      </trkpt>
      <trkpt lat="42.42079" lon="2.74968">
        <ele>1075.3</ele>
        <time>2018-11-26T05:01:07Z</time>
      </trkpt>
      <trkpt lat="42.42079" lon="2.74968">
        <ele>1075.3</ele>
        <time>2018-11-26T05:01:07Z</time>
      </trkpt>
      <trkpt lat="42.42079" lon="2.74968">
        <ele>1075.3</ele>
        <time>2018-11-26T05:01:07Z</time>
      </trkpt>
      <trkpt lat="42.42079" lon="2.74968">
        <ele>1075.3</ele>
        <time>2018-11-26T05:01:07Z</time>
      </trkpt>
      <trkpt lat="42.42079" lon="2.74968">
        <ele>1075.4</ele>
        <time>2018-11-26T05:01:07Z</time>
      </trkpt>
      <trkpt lat="42.42079" lon="2.74968">
        <ele>1075.5</ele>
        <time>2018-11-26T05:01:07Z</time>
      </trkpt>
      <trkpt lat="42.42079" lon="2.74968">
        <ele>1075.6</ele>
        <time>2018-11-26T05:01:07Z</time>
      </trkpt>
      <trkpt lat="42.42079" lon="2.74968">
        <ele>1075.5</ele>
        <time>2018-11-26T05:01:07Z</time>
      </trkpt>
      <trkpt lat="42.42079" lon="2.74968">
        <ele>1075.3</ele>
        <time>2018-11-26T05:01:07Z</time>
      </trkpt>
      <trkpt lat="42.42079" lon="2.74968">
        <ele>1074.8</ele>
        <time>2018-11-26T05:01:07Z</time>
      </trkpt>
      <trkpt lat="42.42079" lon="2.74967">
        <ele>1074.3</ele>
        <time>2018-11-26T05:01:07Z</time>
      </trkpt>
      <trkpt lat="42.42079" lon="2.74966">
        <ele>1074.3</ele>
        <time>2018-11-26T05:01:08Z</time>
      </trkpt>
      <trkpt lat="42.42079" lon="2.74965">
        <ele>1074.2</ele>
        <time>2018-11-26T05:01:08Z</time>
      </trkpt>
      <trkpt lat="42.4208" lon="2.74964">
        <ele>1074.1</ele>
        <time>2018-11-26T05:01:08Z</time>
      </trkpt>
      <trkpt lat="42.4208" lon="2.74964">
        <ele>1074.3</ele>
        <time>2018-11-26T05:01:08Z</time>
      </trkpt>
      <trkpt lat="42.4208" lon="2.74963">
        <ele>1074.6</ele>
        <time>2018-11-26T05:01:09Z</time>
      </trkpt>
      <trkpt lat="42.4208" lon="2.74962">
        <ele>1074.8</ele>
        <time>2018-11-26T05:01:09Z</time>
      </trkpt>
      <trkpt lat="42.4208" lon="2.74962">
        <ele>1074.9</ele>
        <time>2018-11-26T05:01:09Z</time>
      </trkpt>
      <trkpt lat="42.42079" lon="2.74962">
        <ele>1074.9</ele>
        <time>2018-11-26T05:01:09Z</time>
      </trkpt>
      <trkpt lat="42.42079" lon="2.74962">
        <ele>1075</ele>
        <time>2018-11-26T05:01:09Z</time>
      </trkpt>
      <trkpt lat="42.42079" lon="2.74962">
        <ele>1075.1</ele>
        <time>2018-11-26T05:01:09Z</time>
      </trkpt>
      <trkpt lat="42.42079" lon="2.74962">
        <ele>1075.1</ele>
        <time>2018-11-26T05:01:09Z</time>
      </trkpt>
      <trkpt lat="42.42079" lon="2.74962">
        <ele>1075.2</ele>
        <time>2018-11-26T05:01:09Z</time>
      </trkpt>
      <trkpt lat="42.42079" lon="2.74962">
        <ele>1075.3</ele>
        <time>2018-11-26T05:01:09Z</time>
      </trkpt>
      <trkpt lat="42.42079" lon="2.74962">
        <ele>1075.5</ele>
        <time>2018-11-26T05:01:09Z</time>
      </trkpt>
      <trkpt lat="42.42079" lon="2.74961">
        <ele>1075.7</ele>
        <time>2018-11-26T05:01:09Z</time>
      </trkpt>
      <trkpt lat="42.42079" lon="2.74961">
        <ele>1076</ele>
        <time>2018-11-26T05:01:10Z</time>
      </trkpt>
      <trkpt lat="42.42078" lon="2.7496">
        <ele>1076</ele>
        <time>2018-11-26T05:01:10Z</time>
      </trkpt>
      <trkpt lat="42.42078" lon="2.74959">
        <ele>1076</ele>
        <time>2018-11-26T05:01:10Z</time>
      </trkpt>
      <trkpt lat="42.42078" lon="2.74958">
        <ele>1075.9</ele>
        <time>2018-11-26T05:01:10Z</time>
      </trkpt>
      <trkpt lat="42.42078" lon="2.74958">
        <ele>1076</ele>
        <time>2018-11-26T05:01:11Z</time>
      </trkpt>
      <trkpt lat="42.42078" lon="2.74958">
        <ele>1076.3</ele>
        <time>2018-11-26T05:01:11Z</time>
      </trkpt>
      <trkpt lat="42.42078" lon="2.74957">
        <ele>1076.5</ele>
        <time>2018-11-26T05:01:11Z</time>
      </trkpt>
      <trkpt lat="42.42078" lon="2.74957">
        <ele>1076.4</ele>
        <time>2018-11-26T05:01:11Z</time>
      </trkpt>
      <trkpt lat="42.42078" lon="2.74957">
        <ele>1076.2</ele>
        <time>2018-11-26T05:01:11Z</time>
      </trkpt>
      <trkpt lat="42.42078" lon="2.74958">
        <ele>1076</ele>
        <time>2018-11-26T05:01:11Z</time>
      </trkpt>
      <trkpt lat="42.42078" lon="2.74958">
        <ele>1076.1</ele>
        <time>2018-11-26T05:01:11Z</time>
      </trkpt>
      <trkpt lat="42.42078" lon="2.74958">
        <ele>1075.9</ele>
        <time>2018-11-26T05:01:11Z</time>
      </trkpt>
      <trkpt lat="42.42079" lon="2.74958">
        <ele>1075.8</ele>
        <time>2018-11-26T05:01:11Z</time>
      </trkpt>
      <trkpt lat="42.42079" lon="2.74959">
        <ele>1075.7</ele>
        <time>2018-11-26T05:01:12Z</time>
      </trkpt>
      <trkpt lat="42.42078" lon="2.74962">
        <ele>1075.4</ele>
        <time>2018-11-26T05:01:12Z</time>
      </trkpt>
      <trkpt lat="42.42078" lon="2.74961">
        <ele>1075.1</ele>
        <time>2018-11-26T05:01:12Z</time>
      </trkpt>
      <trkpt lat="42.42078" lon="2.74961">
        <ele>1074.9</ele>
        <time>2018-11-26T05:01:12Z</time>
      </trkpt>
      <trkpt lat="42.42078" lon="2.74962">
        <ele>1074.7</ele>
        <time>2018-11-26T05:01:12Z</time>
      </trkpt>
      <trkpt lat="42.42078" lon="2.74962">
        <ele>1074.5</ele>
        <time>2018-11-26T05:01:12Z</time>
      </trkpt>
      <trkpt lat="42.42078" lon="2.74962">
        <ele>1074.1</ele>
        <time>2018-11-26T05:01:12Z</time>
      </trkpt>
      <trkpt lat="42.42078" lon="2.74962">
        <ele>1074.6</ele>
        <time>2018-11-26T05:01:13Z</time>
      </trkpt>
      <trkpt lat="42.42079" lon="2.74962">
        <ele>1075.4</ele>
        <time>2018-11-26T05:01:13Z</time>
      </trkpt>
      <trkpt lat="42.42079" lon="2.74963">
        <ele>1076.5</ele>
        <time>2018-11-26T05:01:13Z</time>
      </trkpt>
      <trkpt lat="42.42079" lon="2.74963">
        <ele>1076.3</ele>
        <time>2018-11-26T05:01:13Z</time>
      </trkpt>
      <trkpt lat="42.42079" lon="2.74963">
        <ele>1075.9</ele>
        <time>2018-11-26T05:01:13Z</time>
      </trkpt>
      <trkpt lat="42.42079" lon="2.74962">
        <ele>1075.4</ele>
        <time>2018-11-26T05:01:13Z</time>
      </trkpt>
      <trkpt lat="42.42079" lon="2.74962">
        <ele>1075.5</ele>
        <time>2018-11-26T05:01:13Z</time>
      </trkpt>
      <trkpt lat="42.42079" lon="2.74961">
        <ele>1075.6</ele>
        <time>2018-11-26T05:01:13Z</time>
      </trkpt>
      <trkpt lat="42.42079" lon="2.74961">
        <ele>1076</ele>
        <time>2018-11-26T05:01:13Z</time>
      </trkpt>
      <trkpt lat="42.42079" lon="2.7496">
        <ele>1076.1</ele>
        <time>2018-11-26T05:01:14Z</time>
      </trkpt>
      <trkpt lat="42.42079" lon="2.7496">
        <ele>1076.3</ele>
        <time>2018-11-26T05:01:14Z</time>
      </trkpt>
      <trkpt lat="42.42079" lon="2.74959">
        <ele>1076.5</ele>
        <time>2018-11-26T05:01:14Z</time>
      </trkpt>
      <trkpt lat="42.42079" lon="2.74959">
        <ele>1076.2</ele>
        <time>2018-11-26T05:01:14Z</time>
      </trkpt>
      <trkpt lat="42.42079" lon="2.74959">
        <ele>1076.1</ele>
        <time>2018-11-26T05:01:14Z</time>
      </trkpt>
      <trkpt lat="42.42079" lon="2.74958">
        <ele>1075.8</ele>
        <time>2018-11-26T05:01:14Z</time>
      </trkpt>
      <trkpt lat="42.42079" lon="2.74958">
        <ele>1075.9</ele>
        <time>2018-11-26T05:01:14Z</time>
      </trkpt>
      <trkpt lat="42.4208" lon="2.74958">
        <ele>1075.9</ele>
        <time>2018-11-26T05:01:14Z</time>
      </trkpt>
      <trkpt lat="42.4208" lon="2.74957">
        <ele>1076</ele>
        <time>2018-11-26T05:01:14Z</time>
      </trkpt>
      <trkpt lat="42.4208" lon="2.74957">
        <ele>1076.2</ele>
        <time>2018-11-26T05:01:15Z</time>
      </trkpt>
      <trkpt lat="42.4208" lon="2.74957">
        <ele>1076</ele>
        <time>2018-11-26T05:01:15Z</time>
      </trkpt>
      <trkpt lat="42.4208" lon="2.74957">
        <ele>1075.6</ele>
        <time>2018-11-26T05:01:15Z</time>
      </trkpt>
      <trkpt lat="42.4208" lon="2.74957">
        <ele>1075</ele>
        <time>2018-11-26T05:01:15Z</time>
      </trkpt>
      <trkpt lat="42.4208" lon="2.74956">
        <ele>1075.1</ele>
        <time>2018-11-26T05:01:15Z</time>
      </trkpt>
      <trkpt lat="42.4208" lon="2.74956">
        <ele>1075.1</ele>
        <time>2018-11-26T05:01:15Z</time>
      </trkpt>
      <trkpt lat="42.4208" lon="2.74956">
        <ele>1075.3</ele>
        <time>2018-11-26T05:01:15Z</time>
      </trkpt>
      <trkpt lat="42.4208" lon="2.74955">
        <ele>1075.4</ele>
        <time>2018-11-26T05:01:15Z</time>
      </trkpt>
      <trkpt lat="42.4208" lon="2.74955">
        <ele>1075.7</ele>
        <time>2018-11-26T05:01:15Z</time>
      </trkpt>
      <trkpt lat="42.4208" lon="2.74954">
        <ele>1076.1</ele>
        <time>2018-11-26T05:01:15Z</time>
      </trkpt>
      <trkpt lat="42.4208" lon="2.74954">
        <ele>1075.7</ele>
        <time>2018-11-26T05:01:15Z</time>
      </trkpt>
      <trkpt lat="42.4208" lon="2.74954">
        <ele>1075.2</ele>
        <time>2018-11-26T05:01:16Z</time>
      </trkpt>
      <trkpt lat="42.4208" lon="2.74953">
        <ele>1074.7</ele>
        <time>2018-11-26T05:01:16Z</time>
      </trkpt>
      <trkpt lat="42.4208" lon="2.74953">
        <ele>1075</ele>
        <time>2018-11-26T05:01:16Z</time>
      </trkpt>
      <trkpt lat="42.42081" lon="2.74952">
        <ele>1075.3</ele>
        <time>2018-11-26T05:01:16Z</time>
      </trkpt>
      <trkpt lat="42.42081" lon="2.74952">
        <ele>1076</ele>
        <time>2018-11-26T05:01:16Z</time>
      </trkpt>
      <trkpt lat="42.42081" lon="2.74951">
        <ele>1076</ele>
        <time>2018-11-26T05:01:16Z</time>
      </trkpt>
      <trkpt lat="42.42081" lon="2.7495">
        <ele>1076</ele>
        <time>2018-11-26T05:01:17Z</time>
      </trkpt>
      <trkpt lat="42.42081" lon="2.7495">
        <ele>1075.8</ele>
        <time>2018-11-26T05:01:17Z</time>
      </trkpt>
      <trkpt lat="42.42081" lon="2.74949">
        <ele>1075.8</ele>
        <time>2018-11-26T05:01:17Z</time>
      </trkpt>
      <trkpt lat="42.42081" lon="2.74948">
        <ele>1076</ele>
        <time>2018-11-26T05:01:17Z</time>
      </trkpt>
      <trkpt lat="42.42081" lon="2.74947">
        <ele>1076.1</ele>
        <time>2018-11-26T05:01:18Z</time>
      </trkpt>
      <trkpt lat="42.42081" lon="2.74946">
        <ele>1076.3</ele>
        <time>2018-11-26T05:01:18Z</time>
      </trkpt>
      <trkpt lat="42.42081" lon="2.74945">
        <ele>1076.2</ele>
        <time>2018-11-26T05:01:18Z</time>
      </trkpt>
      <trkpt lat="42.42081" lon="2.74944">
        <ele>1076</ele>
        <time>2018-11-26T05:01:19Z</time>
      </trkpt>
      <trkpt lat="42.42082" lon="2.74943">
        <ele>1075.9</ele>
        <time>2018-11-26T05:01:19Z</time>
      </trkpt>
      <trkpt lat="42.42082" lon="2.74942">
        <ele>1075.6</ele>
        <time>2018-11-26T05:01:19Z</time>
      </trkpt>
      <trkpt lat="42.42082" lon="2.7494">
        <ele>1075.3</ele>
        <time>2018-11-26T05:01:20Z</time>
      </trkpt>
      <trkpt lat="42.42082" lon="2.74939">
        <ele>1074.7</ele>
        <time>2018-11-26T05:01:20Z</time>
      </trkpt>
      <trkpt lat="42.42082" lon="2.74938">
        <ele>1074.7</ele>
        <time>2018-11-26T05:01:20Z</time>
      </trkpt>
      <trkpt lat="42.42082" lon="2.74938">
        <ele>1074.6</ele>
        <time>2018-11-26T05:01:20Z</time>
      </trkpt>
      <trkpt lat="42.42082" lon="2.74937">
        <ele>1074.6</ele>
        <time>2018-11-26T05:01:21Z</time>
      </trkpt>
      <trkpt lat="42.42082" lon="2.74936">
        <ele>1074.7</ele>
        <time>2018-11-26T05:01:21Z</time>
      </trkpt>
      <trkpt lat="42.42081" lon="2.74936">
        <ele>1075.2</ele>
        <time>2018-11-26T05:01:21Z</time>
      </trkpt>
      <trkpt lat="42.42081" lon="2.74935">
        <ele>1075.5</ele>
        <time>2018-11-26T05:01:21Z</time>
      </trkpt>
      <trkpt lat="42.42081" lon="2.74935">
        <ele>1076.1</ele>
        <time>2018-11-26T05:01:21Z</time>
      </trkpt>
      <trkpt lat="42.42081" lon="2.74935">
        <ele>1076.3</ele>
        <time>2018-11-26T05:01:21Z</time>
      </trkpt>
      <trkpt lat="42.42081" lon="2.74934">
        <ele>1076.5</ele>
        <time>2018-11-26T05:01:22Z</time>
      </trkpt>
      <trkpt lat="42.42082" lon="2.74934">
        <ele>1076.6</ele>
        <time>2018-11-26T05:01:22Z</time>
      </trkpt>
      <trkpt lat="42.42082" lon="2.74933">
        <ele>1076.6</ele>
        <time>2018-11-26T05:01:22Z</time>
      </trkpt>
      <trkpt lat="42.42082" lon="2.74931">
        <ele>1076.5</ele>
        <time>2018-11-26T05:01:23Z</time>
      </trkpt>
      <trkpt lat="42.42083" lon="2.74929">
        <ele>1076.5</ele>
        <time>2018-11-26T05:01:23Z</time>
      </trkpt>
      <trkpt lat="42.42083" lon="2.74926">
        <ele>1076.7</ele>
        <time>2018-11-26T05:01:24Z</time>
      </trkpt>
      <trkpt lat="42.42082" lon="2.74923">
        <ele>1076.8</ele>
        <time>2018-11-26T05:01:25Z</time>
      </trkpt>
      <trkpt lat="42.42082" lon="2.74921">
        <ele>1077.1</ele>
        <time>2018-11-26T05:01:26Z</time>
      </trkpt>
      <trkpt lat="42.42081" lon="2.7492">
        <ele>1077.4</ele>
        <time>2018-11-26T05:01:26Z</time>
      </trkpt>
      <trkpt lat="42.42081" lon="2.74919">
        <ele>1077.7</ele>
        <time>2018-11-26T05:01:26Z</time>
      </trkpt>
      <trkpt lat="42.42081" lon="2.74918">
        <ele>1078</ele>
        <time>2018-11-26T05:01:27Z</time>
      </trkpt>
      <trkpt lat="42.4208" lon="2.74918">
        <ele>1077.5</ele>
        <time>2018-11-26T05:01:27Z</time>
      </trkpt>
      <trkpt lat="42.42081" lon="2.74918">
        <ele>1077</ele>
        <time>2018-11-26T05:01:27Z</time>
      </trkpt>
      <trkpt lat="42.42081" lon="2.74918">
        <ele>1076.3</ele>
        <time>2018-11-26T05:01:27Z</time>
      </trkpt>
      <trkpt lat="42.4208" lon="2.74916">
        <ele>1076.2</ele>
        <time>2018-11-26T05:01:27Z</time>
      </trkpt>
      <trkpt lat="42.42079" lon="2.74914">
        <ele>1076.3</ele>
        <time>2018-11-26T05:01:28Z</time>
      </trkpt>
      <trkpt lat="42.42079" lon="2.74912">
        <ele>1076.4</ele>
        <time>2018-11-26T05:01:29Z</time>
      </trkpt>
      <trkpt lat="42.42078" lon="2.74911">
        <ele>1076.7</ele>
        <time>2018-11-26T05:01:29Z</time>
      </trkpt>
      <trkpt lat="42.42078" lon="2.7491">
        <ele>1076.9</ele>
        <time>2018-11-26T05:01:30Z</time>
      </trkpt>
      <trkpt lat="42.42078" lon="2.74909">
        <ele>1077.4</ele>
        <time>2018-11-26T05:01:30Z</time>
      </trkpt>
      <trkpt lat="42.42078" lon="2.74909">
        <ele>1077.2</ele>
        <time>2018-11-26T05:01:30Z</time>
      </trkpt>
      <trkpt lat="42.42078" lon="2.74909">
        <ele>1076.9</ele>
        <time>2018-11-26T05:01:30Z</time>
      </trkpt>
      <trkpt lat="42.42082" lon="2.7491">
        <ele>1080.4</ele>
        <time>2018-11-26T05:01:31Z</time>
      </trkpt>
      <trkpt lat="42.42082" lon="2.7491">
        <ele>1080.2</ele>
        <time>2018-11-26T05:01:31Z</time>
      </trkpt>
      <trkpt lat="42.42082" lon="2.7491">
        <ele>1079.6</ele>
        <time>2018-11-26T05:01:31Z</time>
      </trkpt>
      <trkpt lat="42.42082" lon="2.7491">
        <ele>1079.6</ele>
        <time>2018-11-26T05:01:31Z</time>
      </trkpt>
      <trkpt lat="42.42082" lon="2.7491">
        <ele>1079.5</ele>
        <time>2018-11-26T05:01:31Z</time>
      </trkpt>
      <trkpt lat="42.42082" lon="2.7491">
        <ele>1079.6</ele>
        <time>2018-11-26T05:01:32Z</time>
      </trkpt>
      <trkpt lat="42.42081" lon="2.7491">
        <ele>1079.7</ele>
        <time>2018-11-26T05:01:32Z</time>
      </trkpt>
      <trkpt lat="42.42081" lon="2.74911">
        <ele>1079.1</ele>
        <time>2018-11-26T05:01:32Z</time>
      </trkpt>
      <trkpt lat="42.42081" lon="2.74911">
        <ele>1078.8</ele>
        <time>2018-11-26T05:01:32Z</time>
      </trkpt>
      <trkpt lat="42.42081" lon="2.74911">
        <ele>1078.8</ele>
        <time>2018-11-26T05:01:32Z</time>
      </trkpt>
      <trkpt lat="42.42081" lon="2.74911">
        <ele>1079</ele>
        <time>2018-11-26T05:01:32Z</time>
      </trkpt>
      <trkpt lat="42.4208" lon="2.74911">
        <ele>1079.3</ele>
        <time>2018-11-26T05:01:32Z</time>
      </trkpt>
      <trkpt lat="42.4208" lon="2.74911">
        <ele>1079.4</ele>
        <time>2018-11-26T05:01:32Z</time>
      </trkpt>
      <trkpt lat="42.4208" lon="2.74911">
        <ele>1079.5</ele>
        <time>2018-11-26T05:01:32Z</time>
      </trkpt>
      <trkpt lat="42.4208" lon="2.74911">
        <ele>1079.8</ele>
        <time>2018-11-26T05:01:32Z</time>
      </trkpt>
      <trkpt lat="42.4208" lon="2.74911">
        <ele>1080</ele>
        <time>2018-11-26T05:01:32Z</time>
      </trkpt>
      <trkpt lat="42.4208" lon="2.74911">
        <ele>1080.1</ele>
        <time>2018-11-26T05:01:32Z</time>
      </trkpt>
      <trkpt lat="42.4208" lon="2.74911">
        <ele>1080</ele>
        <time>2018-11-26T05:01:32Z</time>
      </trkpt>
      <trkpt lat="42.4208" lon="2.74911">
        <ele>1080.1</ele>
        <time>2018-11-26T05:01:32Z</time>
      </trkpt>
      <trkpt lat="42.4208" lon="2.74911">
        <ele>1080</ele>
        <time>2018-11-26T05:01:32Z</time>
      </trkpt>
      <trkpt lat="42.4208" lon="2.74911">
        <ele>1080</ele>
        <time>2018-11-26T05:01:32Z</time>
      </trkpt>
      <trkpt lat="42.4208" lon="2.74911">
        <ele>1080</ele>
        <time>2018-11-26T05:01:32Z</time>
      </trkpt>
      <trkpt lat="42.4208" lon="2.74911">
        <ele>1079.7</ele>
        <time>2018-11-26T05:01:32Z</time>
      </trkpt>
      <trkpt lat="42.4208" lon="2.74911">
        <ele>1079.5</ele>
        <time>2018-11-26T05:01:32Z</time>
      </trkpt>
      <trkpt lat="42.4208" lon="2.74911">
        <ele>1079.3</ele>
        <time>2018-11-26T05:01:32Z</time>
      </trkpt>
      <trkpt lat="42.4208" lon="2.74911">
        <ele>1079.2</ele>
        <time>2018-11-26T05:01:32Z</time>
      </trkpt>
      <trkpt lat="42.42079" lon="2.74911">
        <ele>1079.3</ele>
        <time>2018-11-26T05:01:33Z</time>
      </trkpt>
      <trkpt lat="42.42079" lon="2.74911">
        <ele>1079.3</ele>
        <time>2018-11-26T05:01:33Z</time>
      </trkpt>
      <trkpt lat="42.42079" lon="2.74912">
        <ele>1079.4</ele>
        <time>2018-11-26T05:01:33Z</time>
      </trkpt>
      <trkpt lat="42.42079" lon="2.74912">
        <ele>1079.4</ele>
        <time>2018-11-26T05:01:33Z</time>
      </trkpt>
      <trkpt lat="42.42078" lon="2.74912">
        <ele>1079.5</ele>
        <time>2018-11-26T05:01:33Z</time>
      </trkpt>
      <trkpt lat="42.42078" lon="2.74912">
        <ele>1079.5</ele>
        <time>2018-11-26T05:01:33Z</time>
      </trkpt>
      <trkpt lat="42.42078" lon="2.74912">
        <ele>1079.7</ele>
        <time>2018-11-26T05:01:33Z</time>
      </trkpt>
      <trkpt lat="42.42078" lon="2.74912">
        <ele>1079.7</ele>
        <time>2018-11-26T05:01:33Z</time>
      </trkpt>
      <trkpt lat="42.42078" lon="2.74912">
        <ele>1079.7</ele>
        <time>2018-11-26T05:01:33Z</time>
      </trkpt>
      <trkpt lat="42.42078" lon="2.74912">
        <ele>1079.5</ele>
        <time>2018-11-26T05:01:33Z</time>
      </trkpt>
      <trkpt lat="42.42078" lon="2.74912">
        <ele>1079.4</ele>
        <time>2018-11-26T05:01:33Z</time>
      </trkpt>
      <trkpt lat="42.42078" lon="2.74912">
        <ele>1079</ele>
        <time>2018-11-26T05:01:33Z</time>
      </trkpt>
      <trkpt lat="42.42078" lon="2.74912">
        <ele>1079</ele>
        <time>2018-11-26T05:01:33Z</time>
      </trkpt>
      <trkpt lat="42.42078" lon="2.74912">
        <ele>1078.8</ele>
        <time>2018-11-26T05:01:33Z</time>
      </trkpt>
      <trkpt lat="42.42077" lon="2.74912">
        <ele>1078.7</ele>
        <time>2018-11-26T05:01:33Z</time>
      </trkpt>
      <trkpt lat="42.42077" lon="2.74912">
        <ele>1078.8</ele>
        <time>2018-11-26T05:01:34Z</time>
      </trkpt>
      <trkpt lat="42.42077" lon="2.74912">
        <ele>1078.9</ele>
        <time>2018-11-26T05:01:34Z</time>
      </trkpt>
      <trkpt lat="42.42077" lon="2.74912">
        <ele>1078.9</ele>
        <time>2018-11-26T05:01:34Z</time>
      </trkpt>
      <trkpt lat="42.42077" lon="2.74912">
        <ele>1078.9</ele>
        <time>2018-11-26T05:01:34Z</time>
      </trkpt>
      <trkpt lat="42.42077" lon="2.74912">
        <ele>1078.7</ele>
        <time>2018-11-26T05:01:34Z</time>
      </trkpt>
      <trkpt lat="42.42077" lon="2.74912">
        <ele>1078.4</ele>
        <time>2018-11-26T05:01:34Z</time>
      </trkpt>
      <trkpt lat="42.42077" lon="2.74912">
        <ele>1078.6</ele>
        <time>2018-11-26T05:01:34Z</time>
      </trkpt>
      <trkpt lat="42.42077" lon="2.74912">
        <ele>1078.7</ele>
        <time>2018-11-26T05:01:34Z</time>
      </trkpt>
      <trkpt lat="42.42077" lon="2.74912">
        <ele>1079</ele>
        <time>2018-11-26T05:01:34Z</time>
      </trkpt>
      <trkpt lat="42.42077" lon="2.74912">
        <ele>1079.3</ele>
        <time>2018-11-26T05:01:34Z</time>
      </trkpt>
      <trkpt lat="42.42077" lon="2.74912">
        <ele>1079.3</ele>
        <time>2018-11-26T05:01:34Z</time>
      </trkpt>
      <trkpt lat="42.42077" lon="2.74912">
        <ele>1079.2</ele>
        <time>2018-11-26T05:01:34Z</time>
      </trkpt>
      <trkpt lat="42.42077" lon="2.74912">
        <ele>1079</ele>
        <time>2018-11-26T05:01:34Z</time>
      </trkpt>
      <trkpt lat="42.42077" lon="2.74912">
        <ele>1079.1</ele>
        <time>2018-11-26T05:01:34Z</time>
      </trkpt>
      <trkpt lat="42.42077" lon="2.74912">
        <ele>1079.3</ele>
        <time>2018-11-26T05:01:34Z</time>
      </trkpt>
      <trkpt lat="42.42077" lon="2.74912">
        <ele>1079.7</ele>
        <time>2018-11-26T05:01:34Z</time>
      </trkpt>
      <trkpt lat="42.42077" lon="2.74912">
        <ele>1079.7</ele>
        <time>2018-11-26T05:01:34Z</time>
      </trkpt>
      <trkpt lat="42.42077" lon="2.74912">
        <ele>1079.7</ele>
        <time>2018-11-26T05:01:34Z</time>
      </trkpt>
      <trkpt lat="42.42077" lon="2.74912">
        <ele>1079.7</ele>
        <time>2018-11-26T05:01:34Z</time>
      </trkpt>
      <trkpt lat="42.42076" lon="2.74912">
        <ele>1079.7</ele>
        <time>2018-11-26T05:01:34Z</time>
      </trkpt>
      <trkpt lat="42.42076" lon="2.74912">
        <ele>1079.9</ele>
        <time>2018-11-26T05:01:34Z</time>
      </trkpt>
      <trkpt lat="42.42076" lon="2.74912">
        <ele>1079.8</ele>
        <time>2018-11-26T05:01:35Z</time>
      </trkpt>
      <trkpt lat="42.42076" lon="2.74912">
        <ele>1079.8</ele>
        <time>2018-11-26T05:01:35Z</time>
      </trkpt>
      <trkpt lat="42.42076" lon="2.74912">
        <ele>1079.7</ele>
        <time>2018-11-26T05:01:35Z</time>
      </trkpt>
      <trkpt lat="42.42076" lon="2.74912">
        <ele>1079.7</ele>
        <time>2018-11-26T05:01:35Z</time>
      </trkpt>
      <trkpt lat="42.42076" lon="2.74912">
        <ele>1079.7</ele>
        <time>2018-11-26T05:01:35Z</time>
      </trkpt>
      <trkpt lat="42.42076" lon="2.74912">
        <ele>1079.7</ele>
        <time>2018-11-26T05:01:35Z</time>
      </trkpt>
      <trkpt lat="42.42076" lon="2.74912">
        <ele>1079.7</ele>
        <time>2018-11-26T05:01:35Z</time>
      </trkpt>
      <trkpt lat="42.42077" lon="2.74911">
        <ele>1079.6</ele>
        <time>2018-11-26T05:01:35Z</time>
      </trkpt>
      <trkpt lat="42.42077" lon="2.74911">
        <ele>1079.4</ele>
        <time>2018-11-26T05:01:35Z</time>
      </trkpt>
      <trkpt lat="42.42077" lon="2.74911">
        <ele>1079.3</ele>
        <time>2018-11-26T05:01:36Z</time>
      </trkpt>
      <trkpt lat="42.42078" lon="2.74911">
        <ele>1078.9</ele>
        <time>2018-11-26T05:01:36Z</time>
      </trkpt>
      <trkpt lat="42.42078" lon="2.74911">
        <ele>1079</ele>
        <time>2018-11-26T05:01:36Z</time>
      </trkpt>
      <trkpt lat="42.42078" lon="2.7491">
        <ele>1079.1</ele>
        <time>2018-11-26T05:01:36Z</time>
      </trkpt>
      <trkpt lat="42.42078" lon="2.7491">
        <ele>1079.1</ele>
        <time>2018-11-26T05:01:36Z</time>
      </trkpt>
      <trkpt lat="42.42078" lon="2.7491">
        <ele>1079.2</ele>
        <time>2018-11-26T05:01:36Z</time>
      </trkpt>
      <trkpt lat="42.42078" lon="2.7491">
        <ele>1079.1</ele>
        <time>2018-11-26T05:01:36Z</time>
      </trkpt>
      <trkpt lat="42.42078" lon="2.7491">
        <ele>1079.1</ele>
        <time>2018-11-26T05:01:36Z</time>
      </trkpt>
      <trkpt lat="42.42078" lon="2.7491">
        <ele>1079</ele>
        <time>2018-11-26T05:01:36Z</time>
      </trkpt>
      <trkpt lat="42.42078" lon="2.7491">
        <ele>1079</ele>
        <time>2018-11-26T05:01:36Z</time>
      </trkpt>
      <trkpt lat="42.42078" lon="2.7491">
        <ele>1079</ele>
        <time>2018-11-26T05:01:36Z</time>
      </trkpt>
      <trkpt lat="42.42078" lon="2.7491">
        <ele>1078.9</ele>
        <time>2018-11-26T05:01:36Z</time>
      </trkpt>
      <trkpt lat="42.42078" lon="2.7491">
        <ele>1078.9</ele>
        <time>2018-11-26T05:01:36Z</time>
      </trkpt>
      <trkpt lat="42.42078" lon="2.7491">
        <ele>1078.6</ele>
        <time>2018-11-26T05:01:36Z</time>
      </trkpt>
      <trkpt lat="42.42078" lon="2.74909">
        <ele>1078.3</ele>
        <time>2018-11-26T05:01:36Z</time>
      </trkpt>
      <trkpt lat="42.42078" lon="2.74909">
        <ele>1078.4</ele>
        <time>2018-11-26T05:01:36Z</time>
      </trkpt>
      <trkpt lat="42.42078" lon="2.74909">
        <ele>1078.4</ele>
        <time>2018-11-26T05:01:36Z</time>
      </trkpt>
      <trkpt lat="42.42078" lon="2.74909">
        <ele>1078.3</ele>
        <time>2018-11-26T05:01:36Z</time>
      </trkpt>
      <trkpt lat="42.42078" lon="2.74909">
        <ele>1078.6</ele>
        <time>2018-11-26T05:01:36Z</time>
      </trkpt>
      <trkpt lat="42.42078" lon="2.74909">
        <ele>1079</ele>
        <time>2018-11-26T05:01:36Z</time>
      </trkpt>
      <trkpt lat="42.42078" lon="2.74909">
        <ele>1079.5</ele>
        <time>2018-11-26T05:01:36Z</time>
      </trkpt>
      <trkpt lat="42.42078" lon="2.74909">
        <ele>1079.5</ele>
        <time>2018-11-26T05:01:36Z</time>
      </trkpt>
      <trkpt lat="42.42078" lon="2.74908">
        <ele>1079.6</ele>
        <time>2018-11-26T05:01:37Z</time>
      </trkpt>
      <trkpt lat="42.42077" lon="2.74908">
        <ele>1079.8</ele>
        <time>2018-11-26T05:01:37Z</time>
      </trkpt>
      <trkpt lat="42.42077" lon="2.74908">
        <ele>1079.6</ele>
        <time>2018-11-26T05:01:37Z</time>
      </trkpt>
      <trkpt lat="42.42076" lon="2.74908">
        <ele>1079.5</ele>
        <time>2018-11-26T05:01:37Z</time>
      </trkpt>
      <trkpt lat="42.42076" lon="2.74908">
        <ele>1079.1</ele>
        <time>2018-11-26T05:01:37Z</time>
      </trkpt>
      <trkpt lat="42.42076" lon="2.74908">
        <ele>1079.1</ele>
        <time>2018-11-26T05:01:37Z</time>
      </trkpt>
      <trkpt lat="42.42075" lon="2.74908">
        <ele>1078.8</ele>
        <time>2018-11-26T05:01:38Z</time>
      </trkpt>
      <trkpt lat="42.42075" lon="2.74908">
        <ele>1078.6</ele>
        <time>2018-11-26T05:01:38Z</time>
      </trkpt>
      <trkpt lat="42.42074" lon="2.74908">
        <ele>1078.7</ele>
        <time>2018-11-26T05:01:38Z</time>
      </trkpt>
      <trkpt lat="42.42073" lon="2.74908">
        <ele>1078.8</ele>
        <time>2018-11-26T05:01:38Z</time>
      </trkpt>
      <trkpt lat="42.42072" lon="2.74907">
        <ele>1078.9</ele>
        <time>2018-11-26T05:01:39Z</time>
      </trkpt>
      <trkpt lat="42.42072" lon="2.74907">
        <ele>1079.2</ele>
        <time>2018-11-26T05:01:39Z</time>
      </trkpt>
      <trkpt lat="42.42071" lon="2.74907">
        <ele>1079</ele>
        <time>2018-11-26T05:01:39Z</time>
      </trkpt>
      <trkpt lat="42.4207" lon="2.74907">
        <ele>1078.7</ele>
        <time>2018-11-26T05:01:40Z</time>
      </trkpt>
      <trkpt lat="42.42069" lon="2.74906">
        <ele>1078.5</ele>
        <time>2018-11-26T05:01:40Z</time>
      </trkpt>
      <trkpt lat="42.42068" lon="2.74906">
        <ele>1078.6</ele>
        <time>2018-11-26T05:01:40Z</time>
      </trkpt>
      <trkpt lat="42.42067" lon="2.74906">
        <ele>1078.6</ele>
        <time>2018-11-26T05:01:41Z</time>
      </trkpt>
      <trkpt lat="42.42066" lon="2.74906">
        <ele>1078.7</ele>
        <time>2018-11-26T05:01:41Z</time>
      </trkpt>
      <trkpt lat="42.42063" lon="2.74905">
        <ele>1079.2</ele>
        <time>2018-11-26T05:01:43Z</time>
      </trkpt>
      <trkpt lat="42.4206" lon="2.74904">
        <ele>1079.7</ele>
        <time>2018-11-26T05:01:44Z</time>
      </trkpt>
      <trkpt lat="42.42058" lon="2.74904">
        <ele>1080.1</ele>
        <time>2018-11-26T05:01:45Z</time>
      </trkpt>
      <trkpt lat="42.42057" lon="2.74904">
        <ele>1080.8</ele>
        <time>2018-11-26T05:01:45Z</time>
      </trkpt>
      <trkpt lat="42.42058" lon="2.74904">
        <ele>1080.7</ele>
        <time>2018-11-26T05:01:45Z</time>
      </trkpt>
      <trkpt lat="42.42058" lon="2.74904">
        <ele>1080.4</ele>
        <time>2018-11-26T05:01:45Z</time>
      </trkpt>
      <trkpt lat="42.42057" lon="2.74904">
        <ele>1080.2</ele>
        <time>2018-11-26T05:01:45Z</time>
      </trkpt>
      <trkpt lat="42.42057" lon="2.74904">
        <ele>1079.9</ele>
        <time>2018-11-26T05:01:45Z</time>
      </trkpt>
      <trkpt lat="42.42058" lon="2.74904">
        <ele>1079.6</ele>
        <time>2018-11-26T05:01:45Z</time>
      </trkpt>
      <trkpt lat="42.42059" lon="2.74904">
        <ele>1079.1</ele>
        <time>2018-11-26T05:01:46Z</time>
      </trkpt>
      <trkpt lat="42.42059" lon="2.74905">
        <ele>1079</ele>
        <time>2018-11-26T05:01:46Z</time>
      </trkpt>
      <trkpt lat="42.42061" lon="2.74905">
        <ele>1079</ele>
        <time>2018-11-26T05:01:47Z</time>
      </trkpt>
      <trkpt lat="42.42062" lon="2.74905">
        <ele>1078.7</ele>
        <time>2018-11-26T05:01:47Z</time>
      </trkpt>
      <trkpt lat="42.42063" lon="2.74905">
        <ele>1079</ele>
        <time>2018-11-26T05:01:48Z</time>
      </trkpt>
      <trkpt lat="42.42064" lon="2.74905">
        <ele>1079.2</ele>
        <time>2018-11-26T05:01:48Z</time>
      </trkpt>
      <trkpt lat="42.42066" lon="2.74906">
        <ele>1079.4</ele>
        <time>2018-11-26T05:01:49Z</time>
      </trkpt>
      <trkpt lat="42.42066" lon="2.74906">
        <ele>1079.4</ele>
        <time>2018-11-26T05:01:49Z</time>
      </trkpt>
      <trkpt lat="42.42067" lon="2.74906">
        <ele>1079.4</ele>
        <time>2018-11-26T05:01:49Z</time>
      </trkpt>
      <trkpt lat="42.42068" lon="2.74907">
        <ele>1079.4</ele>
        <time>2018-11-26T05:01:50Z</time>
      </trkpt>
      <trkpt lat="42.42069" lon="2.74907">
        <ele>1079.7</ele>
        <time>2018-11-26T05:01:50Z</time>
      </trkpt>
      <trkpt lat="42.42069" lon="2.74907">
        <ele>1080.1</ele>
        <time>2018-11-26T05:01:50Z</time>
      </trkpt>
      <trkpt lat="42.4207" lon="2.74908">
        <ele>1080.6</ele>
        <time>2018-11-26T05:01:50Z</time>
      </trkpt>
      <trkpt lat="42.4207" lon="2.74908">
        <ele>1080.2</ele>
        <time>2018-11-26T05:01:51Z</time>
      </trkpt>
      <trkpt lat="42.42071" lon="2.74908">
        <ele>1080</ele>
        <time>2018-11-26T05:01:51Z</time>
      </trkpt>
      <trkpt lat="42.42071" lon="2.74908">
        <ele>1079.6</ele>
        <time>2018-11-26T05:01:51Z</time>
      </trkpt>
      <trkpt lat="42.42071" lon="2.74908">
        <ele>1079.1</ele>
        <time>2018-11-26T05:01:51Z</time>
      </trkpt>
      <trkpt lat="42.42071" lon="2.74909">
        <ele>1079.2</ele>
        <time>2018-11-26T05:01:51Z</time>
      </trkpt>
      <trkpt lat="42.42074" lon="2.7491">
        <ele>1079.7</ele>
        <time>2018-11-26T05:01:52Z</time>
      </trkpt>
      <trkpt lat="42.42075" lon="2.7491">
        <ele>1079.3</ele>
        <time>2018-11-26T05:01:52Z</time>
      </trkpt>
      <trkpt lat="42.42075" lon="2.74911">
        <ele>1079</ele>
        <time>2018-11-26T05:01:53Z</time>
      </trkpt>
      <trkpt lat="42.42076" lon="2.74911">
        <ele>1078.9</ele>
        <time>2018-11-26T05:01:53Z</time>
      </trkpt>
      <trkpt lat="42.42076" lon="2.74911">
        <ele>1078.8</ele>
        <time>2018-11-26T05:01:53Z</time>
      </trkpt>
      <trkpt lat="42.42079" lon="2.74911">
        <ele>1078.8</ele>
        <time>2018-11-26T05:01:54Z</time>
      </trkpt>
      <trkpt lat="42.42079" lon="2.74911">
        <ele>1078.9</ele>
        <time>2018-11-26T05:01:54Z</time>
      </trkpt>
      <trkpt lat="42.42079" lon="2.74911">
        <ele>1078.7</ele>
        <time>2018-11-26T05:01:55Z</time>
      </trkpt>
      <trkpt lat="42.4208" lon="2.74911">
        <ele>1078.4</ele>
        <time>2018-11-26T05:01:55Z</time>
      </trkpt>
      <trkpt lat="42.4208" lon="2.74911">
        <ele>1078</ele>
        <time>2018-11-26T05:01:55Z</time>
      </trkpt>
      <trkpt lat="42.4208" lon="2.7491">
        <ele>1078.2</ele>
        <time>2018-11-26T05:01:55Z</time>
      </trkpt>
      <trkpt lat="42.4208" lon="2.7491">
        <ele>1078.3</ele>
        <time>2018-11-26T05:01:55Z</time>
      </trkpt>
      <trkpt lat="42.4208" lon="2.7491">
        <ele>1078.6</ele>
        <time>2018-11-26T05:01:55Z</time>
      </trkpt>
      <trkpt lat="42.4208" lon="2.7491">
        <ele>1078.8</ele>
        <time>2018-11-26T05:01:55Z</time>
      </trkpt>
      <trkpt lat="42.4208" lon="2.7491">
        <ele>1079.2</ele>
        <time>2018-11-26T05:01:55Z</time>
      </trkpt>
      <trkpt lat="42.4208" lon="2.7491">
        <ele>1079.6</ele>
        <time>2018-11-26T05:01:55Z</time>
      </trkpt>
      <trkpt lat="42.42079" lon="2.7491">
        <ele>1079.9</ele>
        <time>2018-11-26T05:01:55Z</time>
      </trkpt>
      <trkpt lat="42.42079" lon="2.7491">
        <ele>1080</ele>
        <time>2018-11-26T05:01:55Z</time>
      </trkpt>
      <trkpt lat="42.42079" lon="2.7491">
        <ele>1080</ele>
        <time>2018-11-26T05:01:55Z</time>
      </trkpt>
      <trkpt lat="42.42079" lon="2.7491">
        <ele>1080.2</ele>
        <time>2018-11-26T05:01:55Z</time>
      </trkpt>
      <trkpt lat="42.42079" lon="2.7491">
        <ele>1080.1</ele>
        <time>2018-11-26T05:01:55Z</time>
      </trkpt>
      <trkpt lat="42.42079" lon="2.7491">
        <ele>1080.2</ele>
        <time>2018-11-26T05:01:55Z</time>
      </trkpt>
      <trkpt lat="42.42079" lon="2.7491">
        <ele>1080.3</ele>
        <time>2018-11-26T05:01:55Z</time>
      </trkpt>
      <trkpt lat="42.42079" lon="2.7491">
        <ele>1080.2</ele>
        <time>2018-11-26T05:01:55Z</time>
      </trkpt>
      <trkpt lat="42.42079" lon="2.7491">
        <ele>1080.1</ele>
        <time>2018-11-26T05:01:55Z</time>
      </trkpt>
      <trkpt lat="42.42079" lon="2.7491">
        <ele>1079.8</ele>
        <time>2018-11-26T05:01:55Z</time>
      </trkpt>
      <trkpt lat="42.42079" lon="2.7491">
        <ele>1079.5</ele>
        <time>2018-11-26T05:01:55Z</time>
      </trkpt>
      <trkpt lat="42.42079" lon="2.7491">
        <ele>1079.4</ele>
        <time>2018-11-26T05:01:55Z</time>
      </trkpt>
      <trkpt lat="42.42079" lon="2.7491">
        <ele>1079.5</ele>
        <time>2018-11-26T05:01:55Z</time>
      </trkpt>
      <trkpt lat="42.42078" lon="2.7491">
        <ele>1079.4</ele>
        <time>2018-11-26T05:01:55Z</time>
      </trkpt>
      <trkpt lat="42.42078" lon="2.7491">
        <ele>1079.3</ele>
        <time>2018-11-26T05:01:55Z</time>
      </trkpt>
      <trkpt lat="42.42078" lon="2.7491">
        <ele>1079.2</ele>
        <time>2018-11-26T05:01:56Z</time>
      </trkpt>
      <trkpt lat="42.42078" lon="2.7491">
        <ele>1079.1</ele>
        <time>2018-11-26T05:01:56Z</time>
      </trkpt>
      <trkpt lat="42.42078" lon="2.7491">
        <ele>1079.3</ele>
        <time>2018-11-26T05:01:56Z</time>
      </trkpt>
      <trkpt lat="42.42078" lon="2.7491">
        <ele>1079.6</ele>
        <time>2018-11-26T05:01:56Z</time>
      </trkpt>
      <trkpt lat="42.42078" lon="2.7491">
        <ele>1079.9</ele>
        <time>2018-11-26T05:01:56Z</time>
      </trkpt>
      <trkpt lat="42.42078" lon="2.7491">
        <ele>1080</ele>
        <time>2018-11-26T05:01:56Z</time>
      </trkpt>
      <trkpt lat="42.42078" lon="2.7491">
        <ele>1080.4</ele>
        <time>2018-11-26T05:01:56Z</time>
      </trkpt>
      <trkpt lat="42.42078" lon="2.7491">
        <ele>1080.7</ele>
        <time>2018-11-26T05:01:56Z</time>
      </trkpt>
      <trkpt lat="42.42079" lon="2.7491">
        <ele>1080.7</ele>
        <time>2018-11-26T05:01:56Z</time>
      </trkpt>
      <trkpt lat="42.42079" lon="2.74909">
        <ele>1080.7</ele>
        <time>2018-11-26T05:01:56Z</time>
      </trkpt>
      <trkpt lat="42.42079" lon="2.74909">
        <ele>1080.5</ele>
        <time>2018-11-26T05:01:56Z</time>
      </trkpt>
      <trkpt lat="42.42079" lon="2.74909">
        <ele>1080.5</ele>
        <time>2018-11-26T05:01:56Z</time>
      </trkpt>
      <trkpt lat="42.42079" lon="2.74909">
        <ele>1080.4</ele>
        <time>2018-11-26T05:01:56Z</time>
      </trkpt>
      <trkpt lat="42.42079" lon="2.74909">
        <ele>1080.4</ele>
        <time>2018-11-26T05:01:56Z</time>
      </trkpt>
      <trkpt lat="42.42078" lon="2.7491">
        <ele>1080.3</ele>
        <time>2018-11-26T05:01:56Z</time>
      </trkpt>
      <trkpt lat="42.42078" lon="2.74909">
        <ele>1080.6</ele>
        <time>2018-11-26T05:01:56Z</time>
      </trkpt>
      <trkpt lat="42.42078" lon="2.7491">
        <ele>1080.9</ele>
        <time>2018-11-26T05:01:56Z</time>
      </trkpt>
      <trkpt lat="42.42078" lon="2.7491">
        <ele>1081.4</ele>
        <time>2018-11-26T05:01:56Z</time>
      </trkpt>
      <trkpt lat="42.42078" lon="2.7491">
        <ele>1081.2</ele>
        <time>2018-11-26T05:01:56Z</time>
      </trkpt>
      <trkpt lat="42.42078" lon="2.74909">
        <ele>1081.1</ele>
        <time>2018-11-26T05:01:56Z</time>
      </trkpt>
      <trkpt lat="42.42078" lon="2.74909">
        <ele>1080.8</ele>
        <time>2018-11-26T05:01:56Z</time>
      </trkpt>
      <trkpt lat="42.42078" lon="2.74909">
        <ele>1080.8</ele>
        <time>2018-11-26T05:01:56Z</time>
      </trkpt>
      <trkpt lat="42.42079" lon="2.74909">
        <ele>1080.9</ele>
        <time>2018-11-26T05:01:57Z</time>
      </trkpt>
      <trkpt lat="42.42079" lon="2.74909">
        <ele>1080.9</ele>
        <time>2018-11-26T05:01:57Z</time>
      </trkpt>
      <trkpt lat="42.42079" lon="2.74909">
        <ele>1080.9</ele>
        <time>2018-11-26T05:01:57Z</time>
      </trkpt>
      <trkpt lat="42.42079" lon="2.74909">
        <ele>1081</ele>
        <time>2018-11-26T05:01:57Z</time>
      </trkpt>
      <trkpt lat="42.42079" lon="2.74909">
        <ele>1081.1</ele>
        <time>2018-11-26T05:01:57Z</time>
      </trkpt>
      <trkpt lat="42.42079" lon="2.74909">
        <ele>1081.1</ele>
        <time>2018-11-26T05:01:57Z</time>
      </trkpt>
      <trkpt lat="42.42079" lon="2.74909">
        <ele>1081.1</ele>
        <time>2018-11-26T05:01:57Z</time>
      </trkpt>
      <trkpt lat="42.42078" lon="2.74909">
        <ele>1080.9</ele>
        <time>2018-11-26T05:01:57Z</time>
      </trkpt>
      <trkpt lat="42.42078" lon="2.74909">
        <ele>1080.7</ele>
        <time>2018-11-26T05:01:57Z</time>
      </trkpt>
      <trkpt lat="42.42078" lon="2.74909">
        <ele>1080.6</ele>
        <time>2018-11-26T05:01:57Z</time>
      </trkpt>
      <trkpt lat="42.42078" lon="2.74909">
        <ele>1080.6</ele>
        <time>2018-11-26T05:01:58Z</time>
      </trkpt>
      <trkpt lat="42.42077" lon="2.74909">
        <ele>1080.5</ele>
        <time>2018-11-26T05:01:58Z</time>
      </trkpt>
      <trkpt lat="42.42077" lon="2.74909">
        <ele>1080.3</ele>
        <time>2018-11-26T05:01:58Z</time>
      </trkpt>
      <trkpt lat="42.42077" lon="2.74908">
        <ele>1080.2</ele>
        <time>2018-11-26T05:01:58Z</time>
      </trkpt>
      <trkpt lat="42.42077" lon="2.74908">
        <ele>1079.9</ele>
        <time>2018-11-26T05:01:58Z</time>
      </trkpt>
      <trkpt lat="42.42077" lon="2.74908">
        <ele>1079.8</ele>
        <time>2018-11-26T05:01:58Z</time>
      </trkpt>
      <trkpt lat="42.42077" lon="2.74908">
        <ele>1079.8</ele>
        <time>2018-11-26T05:01:58Z</time>
      </trkpt>
      <trkpt lat="42.42077" lon="2.74908">
        <ele>1079.5</ele>
        <time>2018-11-26T05:01:58Z</time>
      </trkpt>
      <trkpt lat="42.42077" lon="2.74908">
        <ele>1079.3</ele>
        <time>2018-11-26T05:01:58Z</time>
      </trkpt>
      <trkpt lat="42.42077" lon="2.74908">
        <ele>1079.2</ele>
        <time>2018-11-26T05:01:58Z</time>
      </trkpt>
      <trkpt lat="42.42077" lon="2.74908">
        <ele>1079.1</ele>
        <time>2018-11-26T05:01:58Z</time>
      </trkpt>
      <trkpt lat="42.42078" lon="2.74908">
        <ele>1079.1</ele>
        <time>2018-11-26T05:01:59Z</time>
      </trkpt>
      <trkpt lat="42.42078" lon="2.74908">
        <ele>1079.2</ele>
        <time>2018-11-26T05:01:59Z</time>
      </trkpt>
      <trkpt lat="42.42079" lon="2.74907">
        <ele>1079.5</ele>
        <time>2018-11-26T05:01:59Z</time>
      </trkpt>
      <trkpt lat="42.42079" lon="2.74907">
        <ele>1079.7</ele>
        <time>2018-11-26T05:01:59Z</time>
      </trkpt>
      <trkpt lat="42.42079" lon="2.74907">
        <ele>1079.8</ele>
        <time>2018-11-26T05:01:59Z</time>
      </trkpt>
      <trkpt lat="42.42079" lon="2.74907">
        <ele>1080.2</ele>
        <time>2018-11-26T05:01:59Z</time>
      </trkpt>
      <trkpt lat="42.42079" lon="2.74907">
        <ele>1080.5</ele>
        <time>2018-11-26T05:01:59Z</time>
      </trkpt>
      <trkpt lat="42.42079" lon="2.74907">
        <ele>1080.2</ele>
        <time>2018-11-26T05:01:59Z</time>
      </trkpt>
      <trkpt lat="42.42079" lon="2.74907">
        <ele>1080</ele>
        <time>2018-11-26T05:01:59Z</time>
      </trkpt>
      <trkpt lat="42.42079" lon="2.74908">
        <ele>1079.6</ele>
        <time>2018-11-26T05:01:59Z</time>
      </trkpt>
      <trkpt lat="42.42079" lon="2.74908">
        <ele>1079.7</ele>
        <time>2018-11-26T05:01:59Z</time>
      </trkpt>
      <trkpt lat="42.42079" lon="2.74908">
        <ele>1079.5</ele>
        <time>2018-11-26T05:01:59Z</time>
      </trkpt>
      <trkpt lat="42.42079" lon="2.74908">
        <ele>1079.5</ele>
        <time>2018-11-26T05:02:00Z</time>
      </trkpt>
      <trkpt lat="42.42079" lon="2.74908">
        <ele>1079.7</ele>
        <time>2018-11-26T05:02:00Z</time>
      </trkpt>
      <trkpt lat="42.42079" lon="2.74908">
        <ele>1079.7</ele>
        <time>2018-11-26T05:02:00Z</time>
      </trkpt>
      <trkpt lat="42.42079" lon="2.74908">
        <ele>1079.9</ele>
        <time>2018-11-26T05:02:00Z</time>
      </trkpt>
      <trkpt lat="42.4208" lon="2.74908">
        <ele>1080.2</ele>
        <time>2018-11-26T05:02:00Z</time>
      </trkpt>
      <trkpt lat="42.4208" lon="2.74908">
        <ele>1080.4</ele>
        <time>2018-11-26T05:02:00Z</time>
      </trkpt>
      <trkpt lat="42.42081" lon="2.74908">
        <ele>1080.9</ele>
        <time>2018-11-26T05:02:00Z</time>
      </trkpt>
      <trkpt lat="42.42081" lon="2.74908">
        <ele>1080.9</ele>
        <time>2018-11-26T05:02:00Z</time>
      </trkpt>
      <trkpt lat="42.42081" lon="2.74908">
        <ele>1080.8</ele>
        <time>2018-11-26T05:02:00Z</time>
      </trkpt>
      <trkpt lat="42.42082" lon="2.74908">
        <ele>1080.7</ele>
        <time>2018-11-26T05:02:01Z</time>
      </trkpt>
      <trkpt lat="42.42082" lon="2.74908">
        <ele>1080.4</ele>
        <time>2018-11-26T05:02:01Z</time>
      </trkpt>
      <trkpt lat="42.42082" lon="2.74908">
        <ele>1080.6</ele>
        <time>2018-11-26T05:02:01Z</time>
      </trkpt>
      <trkpt lat="42.42082" lon="2.74908">
        <ele>1080.7</ele>
        <time>2018-11-26T05:02:01Z</time>
      </trkpt>
      <trkpt lat="42.42082" lon="2.74908">
        <ele>1080.9</ele>
        <time>2018-11-26T05:02:01Z</time>
      </trkpt>
      <trkpt lat="42.42082" lon="2.74908">
        <ele>1080.8</ele>
        <time>2018-11-26T05:02:01Z</time>
      </trkpt>
      <trkpt lat="42.42082" lon="2.74908">
        <ele>1080.7</ele>
        <time>2018-11-26T05:02:01Z</time>
      </trkpt>
      <trkpt lat="42.42082" lon="2.74908">
        <ele>1080.5</ele>
        <time>2018-11-26T05:02:01Z</time>
      </trkpt>
      <trkpt lat="42.42082" lon="2.74908">
        <ele>1080.7</ele>
        <time>2018-11-26T05:02:01Z</time>
      </trkpt>
      <trkpt lat="42.42082" lon="2.74908">
        <ele>1080.9</ele>
        <time>2018-11-26T05:02:01Z</time>
      </trkpt>
      <trkpt lat="42.42082" lon="2.74908">
        <ele>1081.2</ele>
        <time>2018-11-26T05:02:01Z</time>
      </trkpt>
      <trkpt lat="42.42082" lon="2.74908">
        <ele>1081.1</ele>
        <time>2018-11-26T05:02:01Z</time>
      </trkpt>
      <trkpt lat="42.42082" lon="2.74908">
        <ele>1081.1</ele>
        <time>2018-11-26T05:02:01Z</time>
      </trkpt>
      <trkpt lat="42.42082" lon="2.74908">
        <ele>1081.1</ele>
        <time>2018-11-26T05:02:01Z</time>
      </trkpt>
      <trkpt lat="42.42082" lon="2.74908">
        <ele>1080.9</ele>
        <time>2018-11-26T05:02:01Z</time>
      </trkpt>
      <trkpt lat="42.42082" lon="2.74908">
        <ele>1080.7</ele>
        <time>2018-11-26T05:02:01Z</time>
      </trkpt>
      <trkpt lat="42.42082" lon="2.74908">
        <ele>1080.2</ele>
        <time>2018-11-26T05:02:01Z</time>
      </trkpt>
      <trkpt lat="42.42081" lon="2.74908">
        <ele>1080.3</ele>
        <time>2018-11-26T05:02:01Z</time>
      </trkpt>
      <trkpt lat="42.42081" lon="2.74908">
        <ele>1080.4</ele>
        <time>2018-11-26T05:02:01Z</time>
      </trkpt>
      <trkpt lat="42.42081" lon="2.74909">
        <ele>1080.4</ele>
        <time>2018-11-26T05:02:01Z</time>
      </trkpt>
      <trkpt lat="42.42081" lon="2.74909">
        <ele>1080.6</ele>
        <time>2018-11-26T05:02:01Z</time>
      </trkpt>
      <trkpt lat="42.42081" lon="2.74909">
        <ele>1080.5</ele>
        <time>2018-11-26T05:02:01Z</time>
      </trkpt>
      <trkpt lat="42.42081" lon="2.74909">
        <ele>1080.2</ele>
        <time>2018-11-26T05:02:01Z</time>
      </trkpt>
      <trkpt lat="42.42081" lon="2.74909">
        <ele>1080</ele>
        <time>2018-11-26T05:02:01Z</time>
      </trkpt>
      <trkpt lat="42.42081" lon="2.74909">
        <ele>1080.2</ele>
        <time>2018-11-26T05:02:01Z</time>
      </trkpt>
      <trkpt lat="42.42081" lon="2.74909">
        <ele>1080.3</ele>
        <time>2018-11-26T05:02:01Z</time>
      </trkpt>
      <trkpt lat="42.42081" lon="2.74909">
        <ele>1080.4</ele>
        <time>2018-11-26T05:02:01Z</time>
      </trkpt>
      <trkpt lat="42.42081" lon="2.74909">
        <ele>1080.2</ele>
        <time>2018-11-26T05:02:01Z</time>
      </trkpt>
      <trkpt lat="42.42081" lon="2.74909">
        <ele>1080</ele>
        <time>2018-11-26T05:02:01Z</time>
      </trkpt>
      <trkpt lat="42.42082" lon="2.74908">
        <ele>1079.8</ele>
        <time>2018-11-26T05:02:01Z</time>
      </trkpt>
      <trkpt lat="42.42082" lon="2.74908">
        <ele>1080</ele>
        <time>2018-11-26T05:02:01Z</time>
      </trkpt>
      <trkpt lat="42.42082" lon="2.74908">
        <ele>1080.4</ele>
        <time>2018-11-26T05:02:01Z</time>
      </trkpt>
      <trkpt lat="42.42082" lon="2.74908">
        <ele>1081</ele>
        <time>2018-11-26T05:02:01Z</time>
      </trkpt>
      <trkpt lat="42.42082" lon="2.74908">
        <ele>1080.9</ele>
        <time>2018-11-26T05:02:02Z</time>
      </trkpt>
      <trkpt lat="42.42081" lon="2.74908">
        <ele>1081</ele>
        <time>2018-11-26T05:02:02Z</time>
      </trkpt>
      <trkpt lat="42.42081" lon="2.74909">
        <ele>1080.8</ele>
        <time>2018-11-26T05:02:02Z</time>
      </trkpt>
      <trkpt lat="42.42081" lon="2.74909">
        <ele>1080.6</ele>
        <time>2018-11-26T05:02:02Z</time>
      </trkpt>
      <trkpt lat="42.42081" lon="2.74909">
        <ele>1080.5</ele>
        <time>2018-11-26T05:02:02Z</time>
      </trkpt>
      <trkpt lat="42.42081" lon="2.74909">
        <ele>1080.4</ele>
        <time>2018-11-26T05:02:02Z</time>
      </trkpt>
      <trkpt lat="42.42081" lon="2.74909">
        <ele>1080.1</ele>
        <time>2018-11-26T05:02:02Z</time>
      </trkpt>
      <trkpt lat="42.42081" lon="2.74909">
        <ele>1080</ele>
        <time>2018-11-26T05:02:02Z</time>
      </trkpt>
      <trkpt lat="42.42081" lon="2.74909">
        <ele>1079.9</ele>
        <time>2018-11-26T05:02:02Z</time>
      </trkpt>
      <trkpt lat="42.42081" lon="2.74909">
        <ele>1079.8</ele>
        <time>2018-11-26T05:02:02Z</time>
      </trkpt>
      <trkpt lat="42.42081" lon="2.74909">
        <ele>1079.8</ele>
        <time>2018-11-26T05:02:02Z</time>
      </trkpt>
      <trkpt lat="42.42081" lon="2.74909">
        <ele>1079.8</ele>
        <time>2018-11-26T05:02:02Z</time>
      </trkpt>
      <trkpt lat="42.42081" lon="2.74909">
        <ele>1079.8</ele>
        <time>2018-11-26T05:02:02Z</time>
      </trkpt>
      <trkpt lat="42.42081" lon="2.74909">
        <ele>1079.9</ele>
        <time>2018-11-26T05:02:02Z</time>
      </trkpt>
      <trkpt lat="42.42081" lon="2.74909">
        <ele>1080.3</ele>
        <time>2018-11-26T05:02:02Z</time>
      </trkpt>
      <trkpt lat="42.42081" lon="2.74909">
        <ele>1080.8</ele>
        <time>2018-11-26T05:02:02Z</time>
      </trkpt>
      <trkpt lat="42.42081" lon="2.74909">
        <ele>1081</ele>
        <time>2018-11-26T05:02:02Z</time>
      </trkpt>
      <trkpt lat="42.42081" lon="2.74909">
        <ele>1081.2</ele>
        <time>2018-11-26T05:02:02Z</time>
      </trkpt>
      <trkpt lat="42.42081" lon="2.74909">
        <ele>1081.2</ele>
        <time>2018-11-26T05:02:02Z</time>
      </trkpt>
      <trkpt lat="42.42081" lon="2.74909">
        <ele>1081.3</ele>
        <time>2018-11-26T05:02:02Z</time>
      </trkpt>
      <trkpt lat="42.4208" lon="2.74909">
        <ele>1081.1</ele>
        <time>2018-11-26T05:02:02Z</time>
      </trkpt>
      <trkpt lat="42.4208" lon="2.74909">
        <ele>1081</ele>
        <time>2018-11-26T05:02:02Z</time>
      </trkpt>
      <trkpt lat="42.4208" lon="2.74909">
        <ele>1080.7</ele>
        <time>2018-11-26T05:02:02Z</time>
      </trkpt>
      <trkpt lat="42.4208" lon="2.74909">
        <ele>1080.8</ele>
        <time>2018-11-26T05:02:02Z</time>
      </trkpt>
      <trkpt lat="42.4208" lon="2.74909">
        <ele>1081</ele>
        <time>2018-11-26T05:02:02Z</time>
      </trkpt>
      <trkpt lat="42.4208" lon="2.74909">
        <ele>1081.4</ele>
        <time>2018-11-26T05:02:02Z</time>
      </trkpt>
      <trkpt lat="42.4208" lon="2.74909">
        <ele>1081.4</ele>
        <time>2018-11-26T05:02:02Z</time>
      </trkpt>
      <trkpt lat="42.4208" lon="2.74909">
        <ele>1081.5</ele>
        <time>2018-11-26T05:02:02Z</time>
      </trkpt>
      <trkpt lat="42.4208" lon="2.74909">
        <ele>1081.5</ele>
        <time>2018-11-26T05:02:02Z</time>
      </trkpt>
      <trkpt lat="42.4208" lon="2.74909">
        <ele>1081.4</ele>
        <time>2018-11-26T05:02:02Z</time>
      </trkpt>
      <trkpt lat="42.4208" lon="2.74909">
        <ele>1081.1</ele>
        <time>2018-11-26T05:02:02Z</time>
      </trkpt>
      <trkpt lat="42.4208" lon="2.74909">
        <ele>1080.9</ele>
        <time>2018-11-26T05:02:02Z</time>
      </trkpt>
      <trkpt lat="42.4208" lon="2.74909">
        <ele>1081</ele>
        <time>2018-11-26T05:02:02Z</time>
      </trkpt>
      <trkpt lat="42.4208" lon="2.74909">
        <ele>1080.8</ele>
        <time>2018-11-26T05:02:02Z</time>
      </trkpt>
      <trkpt lat="42.4208" lon="2.74909">
        <ele>1080.8</ele>
        <time>2018-11-26T05:02:02Z</time>
      </trkpt>
      <trkpt lat="42.4208" lon="2.74909">
        <ele>1080.6</ele>
        <time>2018-11-26T05:02:02Z</time>
      </trkpt>
      <trkpt lat="42.4208" lon="2.74909">
        <ele>1080.4</ele>
        <time>2018-11-26T05:02:02Z</time>
      </trkpt>
      <trkpt lat="42.4208" lon="2.74909">
        <ele>1080.2</ele>
        <time>2018-11-26T05:02:02Z</time>
      </trkpt>
      <trkpt lat="42.4208" lon="2.74909">
        <ele>1080.1</ele>
        <time>2018-11-26T05:02:03Z</time>
      </trkpt>
      <trkpt lat="42.4208" lon="2.74909">
        <ele>1080.2</ele>
        <time>2018-11-26T05:02:03Z</time>
      </trkpt>
      <trkpt lat="42.4208" lon="2.74909">
        <ele>1080.2</ele>
        <time>2018-11-26T05:02:03Z</time>
      </trkpt>
      <trkpt lat="42.4208" lon="2.74909">
        <ele>1080.2</ele>
        <time>2018-11-26T05:02:03Z</time>
      </trkpt>
      <trkpt lat="42.4208" lon="2.74909">
        <ele>1080.5</ele>
        <time>2018-11-26T05:02:03Z</time>
      </trkpt>
      <trkpt lat="42.4208" lon="2.74909">
        <ele>1080.8</ele>
        <time>2018-11-26T05:02:03Z</time>
      </trkpt>
      <trkpt lat="42.4208" lon="2.74909">
        <ele>1081.3</ele>
        <time>2018-11-26T05:02:03Z</time>
      </trkpt>
      <trkpt lat="42.4208" lon="2.74909">
        <ele>1081.1</ele>
        <time>2018-11-26T05:02:03Z</time>
      </trkpt>
      <trkpt lat="42.42079" lon="2.74909">
        <ele>1081.1</ele>
        <time>2018-11-26T05:02:03Z</time>
      </trkpt>
      <trkpt lat="42.42079" lon="2.74909">
        <ele>1080.9</ele>
        <time>2018-11-26T05:02:03Z</time>
      </trkpt>
      <trkpt lat="42.4208" lon="2.74909">
        <ele>1081</ele>
        <time>2018-11-26T05:02:03Z</time>
      </trkpt>
      <trkpt lat="42.4208" lon="2.74909">
        <ele>1081</ele>
        <time>2018-11-26T05:02:03Z</time>
      </trkpt>
      <trkpt lat="42.4208" lon="2.74909">
        <ele>1081.2</ele>
        <time>2018-11-26T05:02:03Z</time>
      </trkpt>
      <trkpt lat="42.42079" lon="2.74911">
        <ele>1081.1</ele>
        <time>2018-11-26T05:02:03Z</time>
      </trkpt>
      <trkpt lat="42.42079" lon="2.74911">
        <ele>1081</ele>
        <time>2018-11-26T05:02:03Z</time>
      </trkpt>
      <trkpt lat="42.42079" lon="2.74911">
        <ele>1080.9</ele>
        <time>2018-11-26T05:02:03Z</time>
      </trkpt>
      <trkpt lat="42.42079" lon="2.74911">
        <ele>1081</ele>
        <time>2018-11-26T05:02:03Z</time>
      </trkpt>
      <trkpt lat="42.42079" lon="2.74911">
        <ele>1081.2</ele>
        <time>2018-11-26T05:02:03Z</time>
      </trkpt>
      <trkpt lat="42.42078" lon="2.74911">
        <ele>1081.2</ele>
        <time>2018-11-26T05:02:04Z</time>
      </trkpt>
      <trkpt lat="42.42078" lon="2.74911">
        <ele>1081.3</ele>
        <time>2018-11-26T05:02:04Z</time>
      </trkpt>
      <trkpt lat="42.42078" lon="2.74911">
        <ele>1081.2</ele>
        <time>2018-11-26T05:02:04Z</time>
      </trkpt>
      <trkpt lat="42.42078" lon="2.74911">
        <ele>1081.2</ele>
        <time>2018-11-26T05:02:04Z</time>
      </trkpt>
      <trkpt lat="42.42078" lon="2.74911">
        <ele>1081.2</ele>
        <time>2018-11-26T05:02:04Z</time>
      </trkpt>
      <trkpt lat="42.42078" lon="2.74911">
        <ele>1081.3</ele>
        <time>2018-11-26T05:02:04Z</time>
      </trkpt>
      <trkpt lat="42.42078" lon="2.74911">
        <ele>1081.3</ele>
        <time>2018-11-26T05:02:04Z</time>
      </trkpt>
      <trkpt lat="42.42078" lon="2.74911">
        <ele>1081.2</ele>
        <time>2018-11-26T05:02:04Z</time>
      </trkpt>
      <trkpt lat="42.42078" lon="2.74911">
        <ele>1081.3</ele>
        <time>2018-11-26T05:02:04Z</time>
      </trkpt>
      <trkpt lat="42.42078" lon="2.74911">
        <ele>1081.4</ele>
        <time>2018-11-26T05:02:04Z</time>
      </trkpt>
      <trkpt lat="42.42078" lon="2.74911">
        <ele>1081.5</ele>
        <time>2018-11-26T05:02:04Z</time>
      </trkpt>
      <trkpt lat="42.42077" lon="2.74911">
        <ele>1081.5</ele>
        <time>2018-11-26T05:02:04Z</time>
      </trkpt>
      <trkpt lat="42.42077" lon="2.74911">
        <ele>1081.4</ele>
        <time>2018-11-26T05:02:04Z</time>
      </trkpt>
      <trkpt lat="42.42077" lon="2.74911">
        <ele>1081.2</ele>
        <time>2018-11-26T05:02:04Z</time>
      </trkpt>
      <trkpt lat="42.42077" lon="2.74911">
        <ele>1081.1</ele>
        <time>2018-11-26T05:02:04Z</time>
      </trkpt>
      <trkpt lat="42.42077" lon="2.74911">
        <ele>1081.1</ele>
        <time>2018-11-26T05:02:04Z</time>
      </trkpt>
      <trkpt lat="42.42077" lon="2.74911">
        <ele>1080.9</ele>
        <time>2018-11-26T05:02:04Z</time>
      </trkpt>
      <trkpt lat="42.42077" lon="2.74911">
        <ele>1080.9</ele>
        <time>2018-11-26T05:02:04Z</time>
      </trkpt>
      <trkpt lat="42.42077" lon="2.74911">
        <ele>1081.1</ele>
        <time>2018-11-26T05:02:04Z</time>
      </trkpt>
      <trkpt lat="42.42077" lon="2.74911">
        <ele>1081.4</ele>
        <time>2018-11-26T05:02:04Z</time>
      </trkpt>
      <trkpt lat="42.42077" lon="2.74911">
        <ele>1081.7</ele>
        <time>2018-11-26T05:02:04Z</time>
      </trkpt>
      <trkpt lat="42.42077" lon="2.74911">
        <ele>1081.8</ele>
        <time>2018-11-26T05:02:04Z</time>
      </trkpt>
      <trkpt lat="42.42077" lon="2.7491">
        <ele>1081.9</ele>
        <time>2018-11-26T05:02:04Z</time>
      </trkpt>
      <trkpt lat="42.42077" lon="2.7491">
        <ele>1081.9</ele>
        <time>2018-11-26T05:02:04Z</time>
      </trkpt>
      <trkpt lat="42.42077" lon="2.7491">
        <ele>1081.9</ele>
        <time>2018-11-26T05:02:04Z</time>
      </trkpt>
      <trkpt lat="42.42077" lon="2.7491">
        <ele>1081.9</ele>
        <time>2018-11-26T05:02:04Z</time>
      </trkpt>
      <trkpt lat="42.42077" lon="2.7491">
        <ele>1081.7</ele>
        <time>2018-11-26T05:02:04Z</time>
      </trkpt>
      <trkpt lat="42.42077" lon="2.7491">
        <ele>1081.6</ele>
        <time>2018-11-26T05:02:04Z</time>
      </trkpt>
      <trkpt lat="42.42077" lon="2.7491">
        <ele>1081.6</ele>
        <time>2018-11-26T05:02:04Z</time>
      </trkpt>
      <trkpt lat="42.42077" lon="2.7491">
        <ele>1081.6</ele>
        <time>2018-11-26T05:02:04Z</time>
      </trkpt>
      <trkpt lat="42.42077" lon="2.7491">
        <ele>1081.5</ele>
        <time>2018-11-26T05:02:04Z</time>
      </trkpt>
      <trkpt lat="42.42077" lon="2.7491">
        <ele>1081.5</ele>
        <time>2018-11-26T05:02:04Z</time>
      </trkpt>
      <trkpt lat="42.42078" lon="2.7491">
        <ele>1081.5</ele>
        <time>2018-11-26T05:02:04Z</time>
      </trkpt>
      <trkpt lat="42.42077" lon="2.7491">
        <ele>1081.5</ele>
        <time>2018-11-26T05:02:05Z</time>
      </trkpt>
      <trkpt lat="42.42077" lon="2.7491">
        <ele>1081.4</ele>
        <time>2018-11-26T05:02:05Z</time>
      </trkpt>
      <trkpt lat="42.42078" lon="2.7491">
        <ele>1081.4</ele>
        <time>2018-11-26T05:02:05Z</time>
      </trkpt>
      <trkpt lat="42.42078" lon="2.7491">
        <ele>1081.2</ele>
        <time>2018-11-26T05:02:05Z</time>
      </trkpt>
      <trkpt lat="42.42078" lon="2.7491">
        <ele>1081.1</ele>
        <time>2018-11-26T05:02:05Z</time>
      </trkpt>
      <trkpt lat="42.42078" lon="2.7491">
        <ele>1080.9</ele>
        <time>2018-11-26T05:02:05Z</time>
      </trkpt>
      <trkpt lat="42.42077" lon="2.7491">
        <ele>1080.9</ele>
        <time>2018-11-26T05:02:05Z</time>
      </trkpt>
      <trkpt lat="42.42077" lon="2.7491">
        <ele>1081</ele>
        <time>2018-11-26T05:02:05Z</time>
      </trkpt>
      <trkpt lat="42.42077" lon="2.7491">
        <ele>1081</ele>
        <time>2018-11-26T05:02:05Z</time>
      </trkpt>
      <trkpt lat="42.42077" lon="2.7491">
        <ele>1081.2</ele>
        <time>2018-11-26T05:02:05Z</time>
      </trkpt>
      <trkpt lat="42.42077" lon="2.7491">
        <ele>1081.2</ele>
        <time>2018-11-26T05:02:05Z</time>
      </trkpt>
      <trkpt lat="42.42077" lon="2.7491">
        <ele>1081</ele>
        <time>2018-11-26T05:02:05Z</time>
      </trkpt>
      <trkpt lat="42.42077" lon="2.7491">
        <ele>1081</ele>
        <time>2018-11-26T05:02:05Z</time>
      </trkpt>
      <trkpt lat="42.42077" lon="2.7491">
        <ele>1081.1</ele>
        <time>2018-11-26T05:02:05Z</time>
      </trkpt>
      <trkpt lat="42.42077" lon="2.7491">
        <ele>1081.1</ele>
        <time>2018-11-26T05:02:05Z</time>
      </trkpt>
      <trkpt lat="42.42077" lon="2.7491">
        <ele>1081.1</ele>
        <time>2018-11-26T05:02:05Z</time>
      </trkpt>
      <trkpt lat="42.42077" lon="2.7491">
        <ele>1081.1</ele>
        <time>2018-11-26T05:02:05Z</time>
      </trkpt>
      <trkpt lat="42.42077" lon="2.7491">
        <ele>1081.1</ele>
        <time>2018-11-26T05:02:05Z</time>
      </trkpt>
      <trkpt lat="42.42077" lon="2.7491">
        <ele>1081.2</ele>
        <time>2018-11-26T05:02:05Z</time>
      </trkpt>
      <trkpt lat="42.42077" lon="2.7491">
        <ele>1081.1</ele>
        <time>2018-11-26T05:02:05Z</time>
      </trkpt>
      <trkpt lat="42.42077" lon="2.7491">
        <ele>1080.9</ele>
        <time>2018-11-26T05:02:05Z</time>
      </trkpt>
      <trkpt lat="42.42077" lon="2.7491">
        <ele>1080.7</ele>
        <time>2018-11-26T05:02:05Z</time>
      </trkpt>
      <trkpt lat="42.42077" lon="2.7491">
        <ele>1080.8</ele>
        <time>2018-11-26T05:02:05Z</time>
      </trkpt>
      <trkpt lat="42.42077" lon="2.7491">
        <ele>1080.8</ele>
        <time>2018-11-26T05:02:05Z</time>
      </trkpt>
      <trkpt lat="42.42077" lon="2.7491">
        <ele>1081</ele>
        <time>2018-11-26T05:02:05Z</time>
      </trkpt>
      <trkpt lat="42.42077" lon="2.7491">
        <ele>1081.2</ele>
        <time>2018-11-26T05:02:05Z</time>
      </trkpt>
      <trkpt lat="42.42077" lon="2.74911">
        <ele>1081.1</ele>
        <time>2018-11-26T05:02:06Z</time>
      </trkpt>
      <trkpt lat="42.42077" lon="2.74911">
        <ele>1080.9</ele>
        <time>2018-11-26T05:02:06Z</time>
      </trkpt>
      <trkpt lat="42.42077" lon="2.74911">
        <ele>1080.6</ele>
        <time>2018-11-26T05:02:06Z</time>
      </trkpt>
      <trkpt lat="42.42077" lon="2.74911">
        <ele>1080.7</ele>
        <time>2018-11-26T05:02:06Z</time>
      </trkpt>
      <trkpt lat="42.42076" lon="2.74911">
        <ele>1080.8</ele>
        <time>2018-11-26T05:02:06Z</time>
      </trkpt>
      <trkpt lat="42.42076" lon="2.74911">
        <ele>1080.9</ele>
        <time>2018-11-26T05:02:06Z</time>
      </trkpt>
      <trkpt lat="42.42076" lon="2.74911">
        <ele>1081</ele>
        <time>2018-11-26T05:02:06Z</time>
      </trkpt>
      <trkpt lat="42.42076" lon="2.74911">
        <ele>1081</ele>
        <time>2018-11-26T05:02:06Z</time>
      </trkpt>
      <trkpt lat="42.42076" lon="2.74911">
        <ele>1081</ele>
        <time>2018-11-26T05:02:06Z</time>
      </trkpt>
      <trkpt lat="42.42076" lon="2.74911">
        <ele>1081</ele>
        <time>2018-11-26T05:02:06Z</time>
      </trkpt>
      <trkpt lat="42.42076" lon="2.74911">
        <ele>1081.1</ele>
        <time>2018-11-26T05:02:06Z</time>
      </trkpt>
      <trkpt lat="42.42076" lon="2.74911">
        <ele>1080.9</ele>
        <time>2018-11-26T05:02:06Z</time>
      </trkpt>
      <trkpt lat="42.42076" lon="2.74911">
        <ele>1081</ele>
        <time>2018-11-26T05:02:06Z</time>
      </trkpt>
      <trkpt lat="42.42076" lon="2.74911">
        <ele>1080.9</ele>
        <time>2018-11-26T05:02:06Z</time>
      </trkpt>
      <trkpt lat="42.42076" lon="2.74911">
        <ele>1081</ele>
        <time>2018-11-26T05:02:06Z</time>
      </trkpt>
      <trkpt lat="42.42076" lon="2.74911">
        <ele>1081</ele>
        <time>2018-11-26T05:02:06Z</time>
      </trkpt>
      <trkpt lat="42.42075" lon="2.74911">
        <ele>1080.9</ele>
        <time>2018-11-26T05:02:06Z</time>
      </trkpt>
      <trkpt lat="42.42075" lon="2.74911">
        <ele>1081</ele>
        <time>2018-11-26T05:02:06Z</time>
      </trkpt>
      <trkpt lat="42.42075" lon="2.74911">
        <ele>1081</ele>
        <time>2018-11-26T05:02:06Z</time>
      </trkpt>
      <trkpt lat="42.42075" lon="2.74911">
        <ele>1081.1</ele>
        <time>2018-11-26T05:02:06Z</time>
      </trkpt>
      <trkpt lat="42.42075" lon="2.74911">
        <ele>1081.2</ele>
        <time>2018-11-26T05:02:06Z</time>
      </trkpt>
      <trkpt lat="42.42075" lon="2.74911">
        <ele>1081.5</ele>
        <time>2018-11-26T05:02:06Z</time>
      </trkpt>
      <trkpt lat="42.42075" lon="2.74912">
        <ele>1081.4</ele>
        <time>2018-11-26T05:02:06Z</time>
      </trkpt>
      <trkpt lat="42.42074" lon="2.74912">
        <ele>1081.4</ele>
        <time>2018-11-26T05:02:07Z</time>
      </trkpt>
      <trkpt lat="42.42074" lon="2.74912">
        <ele>1081.3</ele>
        <time>2018-11-26T05:02:07Z</time>
      </trkpt>
      <trkpt lat="42.42074" lon="2.74912">
        <ele>1081.2</ele>
        <time>2018-11-26T05:02:07Z</time>
      </trkpt>
      <trkpt lat="42.42074" lon="2.74912">
        <ele>1081.2</ele>
        <time>2018-11-26T05:02:07Z</time>
      </trkpt>
      <trkpt lat="42.42074" lon="2.74912">
        <ele>1081.4</ele>
        <time>2018-11-26T05:02:07Z</time>
      </trkpt>
      <trkpt lat="42.42074" lon="2.74912">
        <ele>1081.5</ele>
        <time>2018-11-26T05:02:07Z</time>
      </trkpt>
      <trkpt lat="42.42074" lon="2.74912">
        <ele>1081.8</ele>
        <time>2018-11-26T05:02:07Z</time>
      </trkpt>
      <trkpt lat="42.42073" lon="2.74912">
        <ele>1082.2</ele>
        <time>2018-11-26T05:02:07Z</time>
      </trkpt>
      <trkpt lat="42.42073" lon="2.74912">
        <ele>1082.2</ele>
        <time>2018-11-26T05:02:07Z</time>
      </trkpt>
      <trkpt lat="42.42073" lon="2.74912">
        <ele>1082.3</ele>
        <time>2018-11-26T05:02:07Z</time>
      </trkpt>
      <trkpt lat="42.42073" lon="2.74912">
        <ele>1082.3</ele>
        <time>2018-11-26T05:02:07Z</time>
      </trkpt>
      <trkpt lat="42.42073" lon="2.74912">
        <ele>1082.4</ele>
        <time>2018-11-26T05:02:07Z</time>
      </trkpt>
      <trkpt lat="42.42073" lon="2.74912">
        <ele>1082.4</ele>
        <time>2018-11-26T05:02:07Z</time>
      </trkpt>
      <trkpt lat="42.42073" lon="2.74912">
        <ele>1082.2</ele>
        <time>2018-11-26T05:02:07Z</time>
      </trkpt>
      <trkpt lat="42.42073" lon="2.74912">
        <ele>1081.9</ele>
        <time>2018-11-26T05:02:07Z</time>
      </trkpt>
      <trkpt lat="42.42073" lon="2.74912">
        <ele>1081.9</ele>
        <time>2018-11-26T05:02:07Z</time>
      </trkpt>
      <trkpt lat="42.42073" lon="2.74912">
        <ele>1081.9</ele>
        <time>2018-11-26T05:02:07Z</time>
      </trkpt>
      <trkpt lat="42.42073" lon="2.74912">
        <ele>1081.9</ele>
        <time>2018-11-26T05:02:07Z</time>
      </trkpt>
      <trkpt lat="42.42073" lon="2.74912">
        <ele>1081.6</ele>
        <time>2018-11-26T05:02:07Z</time>
      </trkpt>
      <trkpt lat="42.42073" lon="2.74912">
        <ele>1081.3</ele>
        <time>2018-11-26T05:02:07Z</time>
      </trkpt>
      <trkpt lat="42.42073" lon="2.74912">
        <ele>1081</ele>
        <time>2018-11-26T05:02:07Z</time>
      </trkpt>
      <trkpt lat="42.42073" lon="2.74912">
        <ele>1080.8</ele>
        <time>2018-11-26T05:02:07Z</time>
      </trkpt>
      <trkpt lat="42.42073" lon="2.74912">
        <ele>1080.3</ele>
        <time>2018-11-26T05:02:07Z</time>
      </trkpt>
      <trkpt lat="42.42073" lon="2.74912">
        <ele>1080.6</ele>
        <time>2018-11-26T05:02:07Z</time>
      </trkpt>
      <trkpt lat="42.42073" lon="2.74912">
        <ele>1081</ele>
        <time>2018-11-26T05:02:07Z</time>
      </trkpt>
      <trkpt lat="42.42073" lon="2.74912">
        <ele>1081.4</ele>
        <time>2018-11-26T05:02:07Z</time>
      </trkpt>
      <trkpt lat="42.42073" lon="2.74912">
        <ele>1081.3</ele>
        <time>2018-11-26T05:02:07Z</time>
      </trkpt>
      <trkpt lat="42.42073" lon="2.74912">
        <ele>1081.3</ele>
        <time>2018-11-26T05:02:07Z</time>
      </trkpt>
      <trkpt lat="42.42072" lon="2.74912">
        <ele>1081</ele>
        <time>2018-11-26T05:02:08Z</time>
      </trkpt>
      <trkpt lat="42.42072" lon="2.74912">
        <ele>1080.9</ele>
        <time>2018-11-26T05:02:08Z</time>
      </trkpt>
      <trkpt lat="42.42072" lon="2.74912">
        <ele>1080.9</ele>
        <time>2018-11-26T05:02:08Z</time>
      </trkpt>
      <trkpt lat="42.42072" lon="2.74912">
        <ele>1080.7</ele>
        <time>2018-11-26T05:02:08Z</time>
      </trkpt>
      <trkpt lat="42.42072" lon="2.74911">
        <ele>1080.7</ele>
        <time>2018-11-26T05:02:08Z</time>
      </trkpt>
      <trkpt lat="42.42072" lon="2.74911">
        <ele>1081.1</ele>
        <time>2018-11-26T05:02:08Z</time>
      </trkpt>
      <trkpt lat="42.42072" lon="2.74911">
        <ele>1081.3</ele>
        <time>2018-11-26T05:02:08Z</time>
      </trkpt>
      <trkpt lat="42.42072" lon="2.74911">
        <ele>1081.7</ele>
        <time>2018-11-26T05:02:08Z</time>
      </trkpt>
      <trkpt lat="42.42072" lon="2.74911">
        <ele>1081.6</ele>
        <time>2018-11-26T05:02:08Z</time>
      </trkpt>
      <trkpt lat="42.42072" lon="2.74911">
        <ele>1081.5</ele>
        <time>2018-11-26T05:02:08Z</time>
      </trkpt>
      <trkpt lat="42.42072" lon="2.74911">
        <ele>1081.4</ele>
        <time>2018-11-26T05:02:08Z</time>
      </trkpt>
      <trkpt lat="42.42072" lon="2.74911">
        <ele>1081.4</ele>
        <time>2018-11-26T05:02:08Z</time>
      </trkpt>
      <trkpt lat="42.42072" lon="2.74911">
        <ele>1081.5</ele>
        <time>2018-11-26T05:02:08Z</time>
      </trkpt>
      <trkpt lat="42.42073" lon="2.74911">
        <ele>1081.5</ele>
        <time>2018-11-26T05:02:08Z</time>
      </trkpt>
      <trkpt lat="42.42073" lon="2.74911">
        <ele>1081.3</ele>
        <time>2018-11-26T05:02:08Z</time>
      </trkpt>
      <trkpt lat="42.42073" lon="2.7491">
        <ele>1081</ele>
        <time>2018-11-26T05:02:08Z</time>
      </trkpt>
      <trkpt lat="42.42073" lon="2.7491">
        <ele>1080.7</ele>
        <time>2018-11-26T05:02:08Z</time>
      </trkpt>
      <trkpt lat="42.42073" lon="2.7491">
        <ele>1080.8</ele>
        <time>2018-11-26T05:02:08Z</time>
      </trkpt>
      <trkpt lat="42.42073" lon="2.7491">
        <ele>1081</ele>
        <time>2018-11-26T05:02:09Z</time>
      </trkpt>
      <trkpt lat="42.42073" lon="2.7491">
        <ele>1081.1</ele>
        <time>2018-11-26T05:02:09Z</time>
      </trkpt>
      <trkpt lat="42.42074" lon="2.7491">
        <ele>1081.4</ele>
        <time>2018-11-26T05:02:09Z</time>
      </trkpt>
      <trkpt lat="42.42074" lon="2.7491">
        <ele>1081.4</ele>
        <time>2018-11-26T05:02:09Z</time>
      </trkpt>
      <trkpt lat="42.42074" lon="2.7491">
        <ele>1081.5</ele>
        <time>2018-11-26T05:02:09Z</time>
      </trkpt>
      <trkpt lat="42.42074" lon="2.7491">
        <ele>1081.6</ele>
        <time>2018-11-26T05:02:09Z</time>
      </trkpt>
      <trkpt lat="42.42074" lon="2.7491">
        <ele>1081.6</ele>
        <time>2018-11-26T05:02:09Z</time>
      </trkpt>
      <trkpt lat="42.42074" lon="2.7491">
        <ele>1081.5</ele>
        <time>2018-11-26T05:02:09Z</time>
      </trkpt>
      <trkpt lat="42.42074" lon="2.7491">
        <ele>1081.5</ele>
        <time>2018-11-26T05:02:09Z</time>
      </trkpt>
      <trkpt lat="42.42074" lon="2.7491">
        <ele>1081.4</ele>
        <time>2018-11-26T05:02:09Z</time>
      </trkpt>
      <trkpt lat="42.42074" lon="2.7491">
        <ele>1081.4</ele>
        <time>2018-11-26T05:02:09Z</time>
      </trkpt>
      <trkpt lat="42.42074" lon="2.7491">
        <ele>1081.5</ele>
        <time>2018-11-26T05:02:09Z</time>
      </trkpt>
      <trkpt lat="42.42074" lon="2.7491">
        <ele>1081.4</ele>
        <time>2018-11-26T05:02:09Z</time>
      </trkpt>
      <trkpt lat="42.42075" lon="2.7491">
        <ele>1081.3</ele>
        <time>2018-11-26T05:02:09Z</time>
      </trkpt>
      <trkpt lat="42.42075" lon="2.7491">
        <ele>1081.3</ele>
        <time>2018-11-26T05:02:09Z</time>
      </trkpt>
      <trkpt lat="42.42075" lon="2.7491">
        <ele>1081.7</ele>
        <time>2018-11-26T05:02:09Z</time>
      </trkpt>
      <trkpt lat="42.42075" lon="2.7491">
        <ele>1082.1</ele>
        <time>2018-11-26T05:02:09Z</time>
      </trkpt>
      <trkpt lat="42.42076" lon="2.7491">
        <ele>1082.5</ele>
        <time>2018-11-26T05:02:09Z</time>
      </trkpt>
      <trkpt lat="42.42076" lon="2.74909">
        <ele>1082.3</ele>
        <time>2018-11-26T05:02:10Z</time>
      </trkpt>
      <trkpt lat="42.42076" lon="2.74909">
        <ele>1082</ele>
        <time>2018-11-26T05:02:10Z</time>
      </trkpt>
      <trkpt lat="42.42076" lon="2.74909">
        <ele>1081.6</ele>
        <time>2018-11-26T05:02:10Z</time>
      </trkpt>
      <trkpt lat="42.42077" lon="2.74909">
        <ele>1081</ele>
        <time>2018-11-26T05:02:10Z</time>
      </trkpt>
      <trkpt lat="42.42077" lon="2.74909">
        <ele>1081.3</ele>
        <time>2018-11-26T05:02:10Z</time>
      </trkpt>
      <trkpt lat="42.42077" lon="2.74909">
        <ele>1081.6</ele>
        <time>2018-11-26T05:02:10Z</time>
      </trkpt>
      <trkpt lat="42.42077" lon="2.74909">
        <ele>1081.9</ele>
        <time>2018-11-26T05:02:10Z</time>
      </trkpt>
      <trkpt lat="42.42077" lon="2.74909">
        <ele>1082</ele>
        <time>2018-11-26T05:02:10Z</time>
      </trkpt>
      <trkpt lat="42.42078" lon="2.74909">
        <ele>1082</ele>
        <time>2018-11-26T05:02:10Z</time>
      </trkpt>
      <trkpt lat="42.42078" lon="2.74909">
        <ele>1082.2</ele>
        <time>2018-11-26T05:02:10Z</time>
      </trkpt>
      <trkpt lat="42.42078" lon="2.74909">
        <ele>1082</ele>
        <time>2018-11-26T05:02:10Z</time>
      </trkpt>
      <trkpt lat="42.42078" lon="2.74909">
        <ele>1081.7</ele>
        <time>2018-11-26T05:02:11Z</time>
      </trkpt>
      <trkpt lat="42.42078" lon="2.74909">
        <ele>1081.5</ele>
        <time>2018-11-26T05:02:11Z</time>
      </trkpt>
      <trkpt lat="42.42079" lon="2.74909">
        <ele>1081.8</ele>
        <time>2018-11-26T05:02:11Z</time>
      </trkpt>
      <trkpt lat="42.42079" lon="2.74909">
        <ele>1082</ele>
        <time>2018-11-26T05:02:11Z</time>
      </trkpt>
      <trkpt lat="42.42079" lon="2.74909">
        <ele>1082.3</ele>
        <time>2018-11-26T05:02:11Z</time>
      </trkpt>
      <trkpt lat="42.42079" lon="2.74909">
        <ele>1082.1</ele>
        <time>2018-11-26T05:02:11Z</time>
      </trkpt>
      <trkpt lat="42.42079" lon="2.74909">
        <ele>1082</ele>
        <time>2018-11-26T05:02:11Z</time>
      </trkpt>
      <trkpt lat="42.42079" lon="2.74909">
        <ele>1081.8</ele>
        <time>2018-11-26T05:02:11Z</time>
      </trkpt>
      <trkpt lat="42.42079" lon="2.74909">
        <ele>1082</ele>
        <time>2018-11-26T05:02:11Z</time>
      </trkpt>
      <trkpt lat="42.42079" lon="2.74909">
        <ele>1082.3</ele>
        <time>2018-11-26T05:02:11Z</time>
      </trkpt>
      <trkpt lat="42.4208" lon="2.74909">
        <ele>1082.5</ele>
        <time>2018-11-26T05:02:11Z</time>
      </trkpt>
      <trkpt lat="42.4208" lon="2.74909">
        <ele>1082.9</ele>
        <time>2018-11-26T05:02:11Z</time>
      </trkpt>
      <trkpt lat="42.4208" lon="2.74909">
        <ele>1083.1</ele>
        <time>2018-11-26T05:02:11Z</time>
      </trkpt>
      <trkpt lat="42.4208" lon="2.74909">
        <ele>1083.1</ele>
        <time>2018-11-26T05:02:11Z</time>
      </trkpt>
      <trkpt lat="42.4208" lon="2.74909">
        <ele>1083</ele>
        <time>2018-11-26T05:02:11Z</time>
      </trkpt>
      <trkpt lat="42.4208" lon="2.74909">
        <ele>1082.9</ele>
        <time>2018-11-26T05:02:11Z</time>
      </trkpt>
      <trkpt lat="42.4208" lon="2.74909">
        <ele>1082.5</ele>
        <time>2018-11-26T05:02:11Z</time>
      </trkpt>
      <trkpt lat="42.4208" lon="2.7491">
        <ele>1082.2</ele>
        <time>2018-11-26T05:02:11Z</time>
      </trkpt>
      <trkpt lat="42.4208" lon="2.7491">
        <ele>1082.2</ele>
        <time>2018-11-26T05:02:11Z</time>
      </trkpt>
      <trkpt lat="42.4208" lon="2.7491">
        <ele>1082.2</ele>
        <time>2018-11-26T05:02:11Z</time>
      </trkpt>
      <trkpt lat="42.4208" lon="2.7491">
        <ele>1082.1</ele>
        <time>2018-11-26T05:02:11Z</time>
      </trkpt>
      <trkpt lat="42.4208" lon="2.7491">
        <ele>1082</ele>
        <time>2018-11-26T05:02:11Z</time>
      </trkpt>
      <trkpt lat="42.4208" lon="2.7491">
        <ele>1082</ele>
        <time>2018-11-26T05:02:11Z</time>
      </trkpt>
      <trkpt lat="42.4208" lon="2.7491">
        <ele>1081.9</ele>
        <time>2018-11-26T05:02:11Z</time>
      </trkpt>
      <trkpt lat="42.4208" lon="2.7491">
        <ele>1081.8</ele>
        <time>2018-11-26T05:02:12Z</time>
      </trkpt>
      <trkpt lat="42.4208" lon="2.7491">
        <ele>1081.9</ele>
        <time>2018-11-26T05:02:12Z</time>
      </trkpt>
      <trkpt lat="42.4208" lon="2.7491">
        <ele>1081.8</ele>
        <time>2018-11-26T05:02:12Z</time>
      </trkpt>
      <trkpt lat="42.4208" lon="2.7491">
        <ele>1081.9</ele>
        <time>2018-11-26T05:02:12Z</time>
      </trkpt>
      <trkpt lat="42.4208" lon="2.7491">
        <ele>1082.2</ele>
        <time>2018-11-26T05:02:12Z</time>
      </trkpt>
      <trkpt lat="42.42079" lon="2.7491">
        <ele>1082.5</ele>
        <time>2018-11-26T05:02:12Z</time>
      </trkpt>
      <trkpt lat="42.42079" lon="2.7491">
        <ele>1082.8</ele>
        <time>2018-11-26T05:02:12Z</time>
      </trkpt>
      <trkpt lat="42.42079" lon="2.74911">
        <ele>1082.5</ele>
        <time>2018-11-26T05:02:12Z</time>
      </trkpt>
      <trkpt lat="42.42079" lon="2.74911">
        <ele>1082.2</ele>
        <time>2018-11-26T05:02:12Z</time>
      </trkpt>
      <trkpt lat="42.42079" lon="2.74911">
        <ele>1081.9</ele>
        <time>2018-11-26T05:02:12Z</time>
      </trkpt>
      <trkpt lat="42.42079" lon="2.74911">
        <ele>1081.9</ele>
        <time>2018-11-26T05:02:12Z</time>
      </trkpt>
      <trkpt lat="42.42079" lon="2.74911">
        <ele>1082.1</ele>
        <time>2018-11-26T05:02:12Z</time>
      </trkpt>
      <trkpt lat="42.42079" lon="2.74911">
        <ele>1082.2</ele>
        <time>2018-11-26T05:02:12Z</time>
      </trkpt>
      <trkpt lat="42.42079" lon="2.74911">
        <ele>1082.3</ele>
        <time>2018-11-26T05:02:12Z</time>
      </trkpt>
      <trkpt lat="42.42079" lon="2.74911">
        <ele>1082.2</ele>
        <time>2018-11-26T05:02:12Z</time>
      </trkpt>
      <trkpt lat="42.42079" lon="2.74911">
        <ele>1082.3</ele>
        <time>2018-11-26T05:02:12Z</time>
      </trkpt>
      <trkpt lat="42.42078" lon="2.74911">
        <ele>1082.4</ele>
        <time>2018-11-26T05:02:12Z</time>
      </trkpt>
      <trkpt lat="42.42078" lon="2.74911">
        <ele>1082.6</ele>
        <time>2018-11-26T05:02:12Z</time>
      </trkpt>
      <trkpt lat="42.42078" lon="2.74911">
        <ele>1083</ele>
        <time>2018-11-26T05:02:12Z</time>
      </trkpt>
      <trkpt lat="42.42078" lon="2.74911">
        <ele>1083</ele>
        <time>2018-11-26T05:02:12Z</time>
      </trkpt>
      <trkpt lat="42.42078" lon="2.74911">
        <ele>1083</ele>
        <time>2018-11-26T05:02:12Z</time>
      </trkpt>
      <trkpt lat="42.42078" lon="2.74911">
        <ele>1082.9</ele>
        <time>2018-11-26T05:02:12Z</time>
      </trkpt>
      <trkpt lat="42.42078" lon="2.74911">
        <ele>1083</ele>
        <time>2018-11-26T05:02:12Z</time>
      </trkpt>
      <trkpt lat="42.42078" lon="2.74911">
        <ele>1082.9</ele>
        <time>2018-11-26T05:02:12Z</time>
      </trkpt>
      <trkpt lat="42.42078" lon="2.74911">
        <ele>1083</ele>
        <time>2018-11-26T05:02:12Z</time>
      </trkpt>
      <trkpt lat="42.42078" lon="2.74911">
        <ele>1083</ele>
        <time>2018-11-26T05:02:12Z</time>
      </trkpt>
      <trkpt lat="42.42078" lon="2.74911">
        <ele>1082.8</ele>
        <time>2018-11-26T05:02:12Z</time>
      </trkpt>
      <trkpt lat="42.42078" lon="2.74911">
        <ele>1082.6</ele>
        <time>2018-11-26T05:02:12Z</time>
      </trkpt>
      <trkpt lat="42.42078" lon="2.74911">
        <ele>1082.4</ele>
        <time>2018-11-26T05:02:12Z</time>
      </trkpt>
      <trkpt lat="42.42078" lon="2.74911">
        <ele>1082.3</ele>
        <time>2018-11-26T05:02:12Z</time>
      </trkpt>
      <trkpt lat="42.42079" lon="2.74911">
        <ele>1082.4</ele>
        <time>2018-11-26T05:02:12Z</time>
      </trkpt>
      <trkpt lat="42.42079" lon="2.74911">
        <ele>1082.4</ele>
        <time>2018-11-26T05:02:12Z</time>
      </trkpt>
      <trkpt lat="42.42079" lon="2.74911">
        <ele>1082.5</ele>
        <time>2018-11-26T05:02:13Z</time>
      </trkpt>
      <trkpt lat="42.42079" lon="2.74911">
        <ele>1082.5</ele>
        <time>2018-11-26T05:02:13Z</time>
      </trkpt>
      <trkpt lat="42.42079" lon="2.74911">
        <ele>1082.8</ele>
        <time>2018-11-26T05:02:13Z</time>
      </trkpt>
      <trkpt lat="42.42079" lon="2.74911">
        <ele>1082.8</ele>
        <time>2018-11-26T05:02:13Z</time>
      </trkpt>
      <trkpt lat="42.42079" lon="2.74911">
        <ele>1082.8</ele>
        <time>2018-11-26T05:02:13Z</time>
      </trkpt>
      <trkpt lat="42.42079" lon="2.74911">
        <ele>1082.9</ele>
        <time>2018-11-26T05:02:13Z</time>
      </trkpt>
      <trkpt lat="42.42079" lon="2.74911">
        <ele>1083</ele>
        <time>2018-11-26T05:02:13Z</time>
      </trkpt>
      <trkpt lat="42.42079" lon="2.74911">
        <ele>1083.2</ele>
        <time>2018-11-26T05:02:13Z</time>
      </trkpt>
      <trkpt lat="42.42079" lon="2.74911">
        <ele>1083.3</ele>
        <time>2018-11-26T05:02:13Z</time>
      </trkpt>
      <trkpt lat="42.42079" lon="2.74911">
        <ele>1083.5</ele>
        <time>2018-11-26T05:02:13Z</time>
      </trkpt>
      <trkpt lat="42.42079" lon="2.74911">
        <ele>1083.6</ele>
        <time>2018-11-26T05:02:13Z</time>
      </trkpt>
      <trkpt lat="42.42079" lon="2.74911">
        <ele>1083.6</ele>
        <time>2018-11-26T05:02:13Z</time>
      </trkpt>
      <trkpt lat="42.42079" lon="2.74911">
        <ele>1083.6</ele>
        <time>2018-11-26T05:02:13Z</time>
      </trkpt>
      <trkpt lat="42.42079" lon="2.74911">
        <ele>1083.6</ele>
        <time>2018-11-26T05:02:13Z</time>
      </trkpt>
      <trkpt lat="42.42079" lon="2.74911">
        <ele>1083.5</ele>
        <time>2018-11-26T05:02:13Z</time>
      </trkpt>
      <trkpt lat="42.42079" lon="2.74911">
        <ele>1083.5</ele>
        <time>2018-11-26T05:02:13Z</time>
      </trkpt>
      <trkpt lat="42.42079" lon="2.74911">
        <ele>1083.8</ele>
        <time>2018-11-26T05:02:13Z</time>
      </trkpt>
      <trkpt lat="42.42079" lon="2.74911">
        <ele>1084.1</ele>
        <time>2018-11-26T05:02:13Z</time>
      </trkpt>
      <trkpt lat="42.42079" lon="2.74911">
        <ele>1084.6</ele>
        <time>2018-11-26T05:02:13Z</time>
      </trkpt>
      <trkpt lat="42.42079" lon="2.74911">
        <ele>1084.3</ele>
        <time>2018-11-26T05:02:13Z</time>
      </trkpt>
      <trkpt lat="42.42079" lon="2.74911">
        <ele>1083.6</ele>
        <time>2018-11-26T05:02:13Z</time>
      </trkpt>
      <trkpt lat="42.42079" lon="2.74911">
        <ele>1083</ele>
        <time>2018-11-26T05:02:13Z</time>
      </trkpt>
      <trkpt lat="42.42079" lon="2.74911">
        <ele>1082.9</ele>
        <time>2018-11-26T05:02:13Z</time>
      </trkpt>
      <trkpt lat="42.42079" lon="2.74911">
        <ele>1083</ele>
        <time>2018-11-26T05:02:13Z</time>
      </trkpt>
      <trkpt lat="42.42079" lon="2.74911">
        <ele>1082.8</ele>
        <time>2018-11-26T05:02:13Z</time>
      </trkpt>
      <trkpt lat="42.42079" lon="2.74911">
        <ele>1082.8</ele>
        <time>2018-11-26T05:02:13Z</time>
      </trkpt>
      <trkpt lat="42.42079" lon="2.74911">
        <ele>1082.8</ele>
        <time>2018-11-26T05:02:13Z</time>
      </trkpt>
      <trkpt lat="42.4208" lon="2.7491">
        <ele>1082.8</ele>
        <time>2018-11-26T05:02:13Z</time>
      </trkpt>
      <trkpt lat="42.4208" lon="2.7491">
        <ele>1082.7</ele>
        <time>2018-11-26T05:02:13Z</time>
      </trkpt>
      <trkpt lat="42.4208" lon="2.7491">
        <ele>1082.6</ele>
        <time>2018-11-26T05:02:13Z</time>
      </trkpt>
      <trkpt lat="42.4208" lon="2.7491">
        <ele>1082.7</ele>
        <time>2018-11-26T05:02:13Z</time>
      </trkpt>
      <trkpt lat="42.4208" lon="2.7491">
        <ele>1082.7</ele>
        <time>2018-11-26T05:02:13Z</time>
      </trkpt>
      <trkpt lat="42.4208" lon="2.7491">
        <ele>1082.7</ele>
        <time>2018-11-26T05:02:13Z</time>
      </trkpt>
      <trkpt lat="42.4208" lon="2.7491">
        <ele>1082.6</ele>
        <time>2018-11-26T05:02:13Z</time>
      </trkpt>
      <trkpt lat="42.4208" lon="2.7491">
        <ele>1082.5</ele>
        <time>2018-11-26T05:02:13Z</time>
      </trkpt>
      <trkpt lat="42.4208" lon="2.7491">
        <ele>1082.6</ele>
        <time>2018-11-26T05:02:13Z</time>
      </trkpt>
      <trkpt lat="42.4208" lon="2.7491">
        <ele>1083</ele>
        <time>2018-11-26T05:02:13Z</time>
      </trkpt>
      <trkpt lat="42.4208" lon="2.7491">
        <ele>1083.2</ele>
        <time>2018-11-26T05:02:14Z</time>
      </trkpt>
      <trkpt lat="42.4208" lon="2.7491">
        <ele>1083.1</ele>
        <time>2018-11-26T05:02:14Z</time>
      </trkpt>
      <trkpt lat="42.4208" lon="2.7491">
        <ele>1083</ele>
        <time>2018-11-26T05:02:14Z</time>
      </trkpt>
      <trkpt lat="42.4208" lon="2.7491">
        <ele>1082.7</ele>
        <time>2018-11-26T05:02:14Z</time>
      </trkpt>
      <trkpt lat="42.4208" lon="2.7491">
        <ele>1082.8</ele>
        <time>2018-11-26T05:02:14Z</time>
      </trkpt>
      <trkpt lat="42.4208" lon="2.7491">
        <ele>1082.7</ele>
        <time>2018-11-26T05:02:14Z</time>
      </trkpt>
      <trkpt lat="42.4208" lon="2.7491">
        <ele>1082.5</ele>
        <time>2018-11-26T05:02:14Z</time>
      </trkpt>
      <trkpt lat="42.4208" lon="2.74909">
        <ele>1082.3</ele>
        <time>2018-11-26T05:02:14Z</time>
      </trkpt>
      <trkpt lat="42.4208" lon="2.74909">
        <ele>1082.5</ele>
        <time>2018-11-26T05:02:14Z</time>
      </trkpt>
      <trkpt lat="42.4208" lon="2.74909">
        <ele>1082.8</ele>
        <time>2018-11-26T05:02:14Z</time>
      </trkpt>
      <trkpt lat="42.4208" lon="2.74909">
        <ele>1083.2</ele>
        <time>2018-11-26T05:02:14Z</time>
      </trkpt>
      <trkpt lat="42.4208" lon="2.74909">
        <ele>1083.2</ele>
        <time>2018-11-26T05:02:14Z</time>
      </trkpt>
      <trkpt lat="42.4208" lon="2.74909">
        <ele>1083.2</ele>
        <time>2018-11-26T05:02:14Z</time>
      </trkpt>
      <trkpt lat="42.4208" lon="2.74909">
        <ele>1083.1</ele>
        <time>2018-11-26T05:02:14Z</time>
      </trkpt>
      <trkpt lat="42.4208" lon="2.74909">
        <ele>1083</ele>
        <time>2018-11-26T05:02:14Z</time>
      </trkpt>
      <trkpt lat="42.4208" lon="2.74909">
        <ele>1082.9</ele>
        <time>2018-11-26T05:02:14Z</time>
      </trkpt>
      <trkpt lat="42.4208" lon="2.74909">
        <ele>1082.6</ele>
        <time>2018-11-26T05:02:14Z</time>
      </trkpt>
      <trkpt lat="42.4208" lon="2.74909">
        <ele>1082.5</ele>
        <time>2018-11-26T05:02:14Z</time>
      </trkpt>
      <trkpt lat="42.4208" lon="2.74909">
        <ele>1082.5</ele>
        <time>2018-11-26T05:02:14Z</time>
      </trkpt>
      <trkpt lat="42.4208" lon="2.74909">
        <ele>1082.6</ele>
        <time>2018-11-26T05:02:14Z</time>
      </trkpt>
      <trkpt lat="42.4208" lon="2.74909">
        <ele>1082.7</ele>
        <time>2018-11-26T05:02:14Z</time>
      </trkpt>
      <trkpt lat="42.4208" lon="2.74909">
        <ele>1082.8</ele>
        <time>2018-11-26T05:02:14Z</time>
      </trkpt>
      <trkpt lat="42.4208" lon="2.74909">
        <ele>1083.1</ele>
        <time>2018-11-26T05:02:14Z</time>
      </trkpt>
      <trkpt lat="42.4208" lon="2.74909">
        <ele>1082.9</ele>
        <time>2018-11-26T05:02:14Z</time>
      </trkpt>
      <trkpt lat="42.4208" lon="2.74909">
        <ele>1082.8</ele>
        <time>2018-11-26T05:02:14Z</time>
      </trkpt>
      <trkpt lat="42.4208" lon="2.74909">
        <ele>1082.5</ele>
        <time>2018-11-26T05:02:14Z</time>
      </trkpt>
      <trkpt lat="42.4208" lon="2.74909">
        <ele>1082.2</ele>
        <time>2018-11-26T05:02:14Z</time>
      </trkpt>
      <trkpt lat="42.4208" lon="2.74909">
        <ele>1082.1</ele>
        <time>2018-11-26T05:02:14Z</time>
      </trkpt>
      <trkpt lat="42.4208" lon="2.74909">
        <ele>1082.1</ele>
        <time>2018-11-26T05:02:14Z</time>
      </trkpt>
      <trkpt lat="42.4208" lon="2.74909">
        <ele>1082.1</ele>
        <time>2018-11-26T05:02:14Z</time>
      </trkpt>
      <trkpt lat="42.4208" lon="2.74909">
        <ele>1081.9</ele>
        <time>2018-11-26T05:02:14Z</time>
      </trkpt>
      <trkpt lat="42.42079" lon="2.74909">
        <ele>1081.8</ele>
        <time>2018-11-26T05:02:15Z</time>
      </trkpt>
      <trkpt lat="42.4208" lon="2.74909">
        <ele>1081.6</ele>
        <time>2018-11-26T05:02:15Z</time>
      </trkpt>
      <trkpt lat="42.42079" lon="2.74909">
        <ele>1081.9</ele>
        <time>2018-11-26T05:02:15Z</time>
      </trkpt>
      <trkpt lat="42.42079" lon="2.74909">
        <ele>1082</ele>
        <time>2018-11-26T05:02:15Z</time>
      </trkpt>
      <trkpt lat="42.42079" lon="2.74909">
        <ele>1082.4</ele>
        <time>2018-11-26T05:02:15Z</time>
      </trkpt>
      <trkpt lat="42.42079" lon="2.74909">
        <ele>1082.5</ele>
        <time>2018-11-26T05:02:15Z</time>
      </trkpt>
      <trkpt lat="42.42079" lon="2.74909">
        <ele>1082.9</ele>
        <time>2018-11-26T05:02:15Z</time>
      </trkpt>
      <trkpt lat="42.42079" lon="2.74909">
        <ele>1083.3</ele>
        <time>2018-11-26T05:02:15Z</time>
      </trkpt>
      <trkpt lat="42.42079" lon="2.74909">
        <ele>1083.1</ele>
        <time>2018-11-26T05:02:15Z</time>
      </trkpt>
      <trkpt lat="42.42079" lon="2.7491">
        <ele>1083</ele>
        <time>2018-11-26T05:02:15Z</time>
      </trkpt>
      <trkpt lat="42.42079" lon="2.7491">
        <ele>1082.5</ele>
        <time>2018-11-26T05:02:15Z</time>
      </trkpt>
      <trkpt lat="42.42079" lon="2.7491">
        <ele>1082.7</ele>
        <time>2018-11-26T05:02:15Z</time>
      </trkpt>
      <trkpt lat="42.42079" lon="2.7491">
        <ele>1082.7</ele>
        <time>2018-11-26T05:02:15Z</time>
      </trkpt>
      <trkpt lat="42.42079" lon="2.7491">
        <ele>1082.9</ele>
        <time>2018-11-26T05:02:15Z</time>
      </trkpt>
      <trkpt lat="42.42079" lon="2.7491">
        <ele>1083</ele>
        <time>2018-11-26T05:02:15Z</time>
      </trkpt>
      <trkpt lat="42.42078" lon="2.7491">
        <ele>1083.1</ele>
        <time>2018-11-26T05:02:15Z</time>
      </trkpt>
      <trkpt lat="42.42078" lon="2.7491">
        <ele>1083.1</ele>
        <time>2018-11-26T05:02:15Z</time>
      </trkpt>
      <trkpt lat="42.42078" lon="2.7491">
        <ele>1083.1</ele>
        <time>2018-11-26T05:02:16Z</time>
      </trkpt>
      <trkpt lat="42.42078" lon="2.7491">
        <ele>1083</ele>
        <time>2018-11-26T05:02:16Z</time>
      </trkpt>
      <trkpt lat="42.42078" lon="2.7491">
        <ele>1082.7</ele>
        <time>2018-11-26T05:02:16Z</time>
      </trkpt>
      <trkpt lat="42.42077" lon="2.74911">
        <ele>1082.2</ele>
        <time>2018-11-26T05:02:16Z</time>
      </trkpt>
      <trkpt lat="42.42077" lon="2.74911">
        <ele>1082.2</ele>
        <time>2018-11-26T05:02:16Z</time>
      </trkpt>
      <trkpt lat="42.42077" lon="2.74911">
        <ele>1082.4</ele>
        <time>2018-11-26T05:02:16Z</time>
      </trkpt>
      <trkpt lat="42.42077" lon="2.74911">
        <ele>1082.6</ele>
        <time>2018-11-26T05:02:16Z</time>
      </trkpt>
      <trkpt lat="42.42076" lon="2.74911">
        <ele>1082.6</ele>
        <time>2018-11-26T05:02:16Z</time>
      </trkpt>
      <trkpt lat="42.42076" lon="2.74911">
        <ele>1082.8</ele>
        <time>2018-11-26T05:02:16Z</time>
      </trkpt>
      <trkpt lat="42.42076" lon="2.74911">
        <ele>1082.7</ele>
        <time>2018-11-26T05:02:16Z</time>
      </trkpt>
      <trkpt lat="42.42076" lon="2.74911">
        <ele>1082.8</ele>
        <time>2018-11-26T05:02:17Z</time>
      </trkpt>
      <trkpt lat="42.42076" lon="2.74911">
        <ele>1083</ele>
        <time>2018-11-26T05:02:17Z</time>
      </trkpt>
      <trkpt lat="42.42075" lon="2.74911">
        <ele>1083.3</ele>
        <time>2018-11-26T05:02:17Z</time>
      </trkpt>
      <trkpt lat="42.42075" lon="2.74911">
        <ele>1083.5</ele>
        <time>2018-11-26T05:02:17Z</time>
      </trkpt>
      <trkpt lat="42.42075" lon="2.74911">
        <ele>1083.5</ele>
        <time>2018-11-26T05:02:17Z</time>
      </trkpt>
      <trkpt lat="42.42075" lon="2.74911">
        <ele>1083.6</ele>
        <time>2018-11-26T05:02:17Z</time>
      </trkpt>
      <trkpt lat="42.42075" lon="2.74911">
        <ele>1083.5</ele>
        <time>2018-11-26T05:02:17Z</time>
      </trkpt>
      <trkpt lat="42.42075" lon="2.74911">
        <ele>1083.1</ele>
        <time>2018-11-26T05:02:17Z</time>
      </trkpt>
      <trkpt lat="42.42075" lon="2.74911">
        <ele>1082.6</ele>
        <time>2018-11-26T05:02:17Z</time>
      </trkpt>
      <trkpt lat="42.42075" lon="2.74911">
        <ele>1081.8</ele>
        <time>2018-11-26T05:02:17Z</time>
      </trkpt>
      <trkpt lat="42.42075" lon="2.74911">
        <ele>1082</ele>
        <time>2018-11-26T05:02:17Z</time>
      </trkpt>
      <trkpt lat="42.42075" lon="2.74911">
        <ele>1082.2</ele>
        <time>2018-11-26T05:02:17Z</time>
      </trkpt>
      <trkpt lat="42.42075" lon="2.74911">
        <ele>1082.6</ele>
        <time>2018-11-26T05:02:17Z</time>
      </trkpt>
      <trkpt lat="42.42075" lon="2.74911">
        <ele>1082.5</ele>
        <time>2018-11-26T05:02:17Z</time>
      </trkpt>
      <trkpt lat="42.42075" lon="2.74911">
        <ele>1082.5</ele>
        <time>2018-11-26T05:02:17Z</time>
      </trkpt>
      <trkpt lat="42.42075" lon="2.74911">
        <ele>1082.3</ele>
        <time>2018-11-26T05:02:17Z</time>
      </trkpt>
      <trkpt lat="42.42075" lon="2.74911">
        <ele>1082.2</ele>
        <time>2018-11-26T05:02:17Z</time>
      </trkpt>
      <trkpt lat="42.42075" lon="2.74911">
        <ele>1082.2</ele>
        <time>2018-11-26T05:02:17Z</time>
      </trkpt>
      <trkpt lat="42.42075" lon="2.74911">
        <ele>1082.2</ele>
        <time>2018-11-26T05:02:17Z</time>
      </trkpt>
      <trkpt lat="42.42075" lon="2.74911">
        <ele>1082.1</ele>
        <time>2018-11-26T05:02:17Z</time>
      </trkpt>
      <trkpt lat="42.42075" lon="2.74911">
        <ele>1082.1</ele>
        <time>2018-11-26T05:02:17Z</time>
      </trkpt>
      <trkpt lat="42.42075" lon="2.74911">
        <ele>1082.1</ele>
        <time>2018-11-26T05:02:17Z</time>
      </trkpt>
      <trkpt lat="42.42075" lon="2.74911">
        <ele>1082.1</ele>
        <time>2018-11-26T05:02:17Z</time>
      </trkpt>
      <trkpt lat="42.42075" lon="2.74911">
        <ele>1082.1</ele>
        <time>2018-11-26T05:02:17Z</time>
      </trkpt>
      <trkpt lat="42.42075" lon="2.7491">
        <ele>1082.3</ele>
        <time>2018-11-26T05:02:17Z</time>
      </trkpt>
      <trkpt lat="42.42075" lon="2.7491">
        <ele>1082.4</ele>
        <time>2018-11-26T05:02:17Z</time>
      </trkpt>
      <trkpt lat="42.42075" lon="2.7491">
        <ele>1082.3</ele>
        <time>2018-11-26T05:02:17Z</time>
      </trkpt>
      <trkpt lat="42.42075" lon="2.7491">
        <ele>1082.3</ele>
        <time>2018-11-26T05:02:17Z</time>
      </trkpt>
      <trkpt lat="42.42075" lon="2.7491">
        <ele>1082.3</ele>
        <time>2018-11-26T05:02:17Z</time>
      </trkpt>
      <trkpt lat="42.42075" lon="2.7491">
        <ele>1082.3</ele>
        <time>2018-11-26T05:02:17Z</time>
      </trkpt>
      <trkpt lat="42.42075" lon="2.7491">
        <ele>1082.3</ele>
        <time>2018-11-26T05:02:17Z</time>
      </trkpt>
      <trkpt lat="42.42075" lon="2.7491">
        <ele>1082.2</ele>
        <time>2018-11-26T05:02:18Z</time>
      </trkpt>
      <trkpt lat="42.42075" lon="2.7491">
        <ele>1082.2</ele>
        <time>2018-11-26T05:02:18Z</time>
      </trkpt>
      <trkpt lat="42.42075" lon="2.7491">
        <ele>1082.1</ele>
        <time>2018-11-26T05:02:18Z</time>
      </trkpt>
      <trkpt lat="42.42075" lon="2.7491">
        <ele>1082.2</ele>
        <time>2018-11-26T05:02:18Z</time>
      </trkpt>
      <trkpt lat="42.42075" lon="2.7491">
        <ele>1082.1</ele>
        <time>2018-11-26T05:02:18Z</time>
      </trkpt>
      <trkpt lat="42.42075" lon="2.7491">
        <ele>1082.2</ele>
        <time>2018-11-26T05:02:18Z</time>
      </trkpt>
      <trkpt lat="42.42075" lon="2.7491">
        <ele>1082.5</ele>
        <time>2018-11-26T05:02:18Z</time>
      </trkpt>
      <trkpt lat="42.42076" lon="2.7491">
        <ele>1082.5</ele>
        <time>2018-11-26T05:02:18Z</time>
      </trkpt>
      <trkpt lat="42.42076" lon="2.7491">
        <ele>1082.5</ele>
        <time>2018-11-26T05:02:18Z</time>
      </trkpt>
      <trkpt lat="42.42076" lon="2.7491">
        <ele>1082.6</ele>
        <time>2018-11-26T05:02:18Z</time>
      </trkpt>
      <trkpt lat="42.42076" lon="2.7491">
        <ele>1082.8</ele>
        <time>2018-11-26T05:02:18Z</time>
      </trkpt>
      <trkpt lat="42.42076" lon="2.7491">
        <ele>1082.7</ele>
        <time>2018-11-26T05:02:18Z</time>
      </trkpt>
      <trkpt lat="42.42076" lon="2.7491">
        <ele>1082.7</ele>
        <time>2018-11-26T05:02:18Z</time>
      </trkpt>
      <trkpt lat="42.42076" lon="2.7491">
        <ele>1082.8</ele>
        <time>2018-11-26T05:02:18Z</time>
      </trkpt>
      <trkpt lat="42.42076" lon="2.74909">
        <ele>1082.6</ele>
        <time>2018-11-26T05:02:18Z</time>
      </trkpt>
      <trkpt lat="42.42076" lon="2.74909">
        <ele>1082.6</ele>
        <time>2018-11-26T05:02:18Z</time>
      </trkpt>
      <trkpt lat="42.42077" lon="2.74909">
        <ele>1082.5</ele>
        <time>2018-11-26T05:02:18Z</time>
      </trkpt>
      <trkpt lat="42.42077" lon="2.74909">
        <ele>1082.4</ele>
        <time>2018-11-26T05:02:18Z</time>
      </trkpt>
      <trkpt lat="42.42077" lon="2.74909">
        <ele>1082.3</ele>
        <time>2018-11-26T05:02:19Z</time>
      </trkpt>
      <trkpt lat="42.42078" lon="2.74909">
        <ele>1082.3</ele>
        <time>2018-11-26T05:02:19Z</time>
      </trkpt>
      <trkpt lat="42.42078" lon="2.74909">
        <ele>1082.2</ele>
        <time>2018-11-26T05:02:19Z</time>
      </trkpt>
      <trkpt lat="42.42078" lon="2.74909">
        <ele>1082.3</ele>
        <time>2018-11-26T05:02:19Z</time>
      </trkpt>
      <trkpt lat="42.42078" lon="2.74909">
        <ele>1082.2</ele>
        <time>2018-11-26T05:02:19Z</time>
      </trkpt>
      <trkpt lat="42.42078" lon="2.74909">
        <ele>1082</ele>
        <time>2018-11-26T05:02:19Z</time>
      </trkpt>
      <trkpt lat="42.42079" lon="2.74909">
        <ele>1082.2</ele>
        <time>2018-11-26T05:02:19Z</time>
      </trkpt>
      <trkpt lat="42.42079" lon="2.74908">
        <ele>1082.3</ele>
        <time>2018-11-26T05:02:19Z</time>
      </trkpt>
      <trkpt lat="42.42079" lon="2.74908">
        <ele>1082.5</ele>
        <time>2018-11-26T05:02:19Z</time>
      </trkpt>
      <trkpt lat="42.42079" lon="2.74908">
        <ele>1083</ele>
        <time>2018-11-26T05:02:19Z</time>
      </trkpt>
      <trkpt lat="42.42079" lon="2.74908">
        <ele>1082.9</ele>
        <time>2018-11-26T05:02:19Z</time>
      </trkpt>
      <trkpt lat="42.42079" lon="2.74908">
        <ele>1082.9</ele>
        <time>2018-11-26T05:02:19Z</time>
      </trkpt>
      <trkpt lat="42.4208" lon="2.74908">
        <ele>1083</ele>
        <time>2018-11-26T05:02:20Z</time>
      </trkpt>
      <trkpt lat="42.4208" lon="2.74908">
        <ele>1082.9</ele>
        <time>2018-11-26T05:02:20Z</time>
      </trkpt>
      <trkpt lat="42.4208" lon="2.74908">
        <ele>1083</ele>
        <time>2018-11-26T05:02:20Z</time>
      </trkpt>
      <trkpt lat="42.4208" lon="2.74908">
        <ele>1082.9</ele>
        <time>2018-11-26T05:02:20Z</time>
      </trkpt>
      <trkpt lat="42.4208" lon="2.74908">
        <ele>1082.5</ele>
        <time>2018-11-26T05:02:20Z</time>
      </trkpt>
      <trkpt lat="42.4208" lon="2.74908">
        <ele>1082.1</ele>
        <time>2018-11-26T05:02:20Z</time>
      </trkpt>
      <trkpt lat="42.4208" lon="2.74908">
        <ele>1081.7</ele>
        <time>2018-11-26T05:02:20Z</time>
      </trkpt>
      <trkpt lat="42.4208" lon="2.74908">
        <ele>1081.6</ele>
        <time>2018-11-26T05:02:20Z</time>
      </trkpt>
      <trkpt lat="42.4208" lon="2.74908">
        <ele>1081.7</ele>
        <time>2018-11-26T05:02:20Z</time>
      </trkpt>
      <trkpt lat="42.4208" lon="2.74909">
        <ele>1081.7</ele>
        <time>2018-11-26T05:02:20Z</time>
      </trkpt>
      <trkpt lat="42.4208" lon="2.74909">
        <ele>1082</ele>
        <time>2018-11-26T05:02:20Z</time>
      </trkpt>
      <trkpt lat="42.42079" lon="2.74909">
        <ele>1082.1</ele>
        <time>2018-11-26T05:02:20Z</time>
      </trkpt>
      <trkpt lat="42.42079" lon="2.74909">
        <ele>1082.4</ele>
        <time>2018-11-26T05:02:20Z</time>
      </trkpt>
      <trkpt lat="42.42079" lon="2.74909">
        <ele>1082.7</ele>
        <time>2018-11-26T05:02:20Z</time>
      </trkpt>
      <trkpt lat="42.42079" lon="2.74909">
        <ele>1082.9</ele>
        <time>2018-11-26T05:02:20Z</time>
      </trkpt>
      <trkpt lat="42.42078" lon="2.74909">
        <ele>1083</ele>
        <time>2018-11-26T05:02:20Z</time>
      </trkpt>
      <trkpt lat="42.42078" lon="2.74909">
        <ele>1083.4</ele>
        <time>2018-11-26T05:02:21Z</time>
      </trkpt>
      <trkpt lat="42.42078" lon="2.7491">
        <ele>1083.1</ele>
        <time>2018-11-26T05:02:21Z</time>
      </trkpt>
      <trkpt lat="42.42078" lon="2.7491">
        <ele>1082.9</ele>
        <time>2018-11-26T05:02:21Z</time>
      </trkpt>
      <trkpt lat="42.42078" lon="2.7491">
        <ele>1082.6</ele>
        <time>2018-11-26T05:02:21Z</time>
      </trkpt>
      <trkpt lat="42.42077" lon="2.7491">
        <ele>1082.7</ele>
        <time>2018-11-26T05:02:21Z</time>
      </trkpt>
      <trkpt lat="42.42077" lon="2.7491">
        <ele>1083</ele>
        <time>2018-11-26T05:02:21Z</time>
      </trkpt>
      <trkpt lat="42.42077" lon="2.7491">
        <ele>1083.3</ele>
        <time>2018-11-26T05:02:21Z</time>
      </trkpt>
      <trkpt lat="42.42077" lon="2.7491">
        <ele>1083.3</ele>
        <time>2018-11-26T05:02:21Z</time>
      </trkpt>
      <trkpt lat="42.42077" lon="2.7491">
        <ele>1083.3</ele>
        <time>2018-11-26T05:02:21Z</time>
      </trkpt>
      <trkpt lat="42.42077" lon="2.7491">
        <ele>1083.1</ele>
        <time>2018-11-26T05:02:21Z</time>
      </trkpt>
      <trkpt lat="42.42077" lon="2.7491">
        <ele>1083.2</ele>
        <time>2018-11-26T05:02:21Z</time>
      </trkpt>
      <trkpt lat="42.42077" lon="2.7491">
        <ele>1083.1</ele>
        <time>2018-11-26T05:02:21Z</time>
      </trkpt>
      <trkpt lat="42.42077" lon="2.7491">
        <ele>1082.8</ele>
        <time>2018-11-26T05:02:21Z</time>
      </trkpt>
      <trkpt lat="42.42077" lon="2.7491">
        <ele>1082.8</ele>
        <time>2018-11-26T05:02:21Z</time>
      </trkpt>
      <trkpt lat="42.42078" lon="2.7491">
        <ele>1082.8</ele>
        <time>2018-11-26T05:02:21Z</time>
      </trkpt>
      <trkpt lat="42.42078" lon="2.7491">
        <ele>1082.7</ele>
        <time>2018-11-26T05:02:21Z</time>
      </trkpt>
      <trkpt lat="42.42078" lon="2.7491">
        <ele>1082.8</ele>
        <time>2018-11-26T05:02:21Z</time>
      </trkpt>
      <trkpt lat="42.42078" lon="2.7491">
        <ele>1082.7</ele>
        <time>2018-11-26T05:02:21Z</time>
      </trkpt>
      <trkpt lat="42.42078" lon="2.7491">
        <ele>1082.7</ele>
        <time>2018-11-26T05:02:21Z</time>
      </trkpt>
      <trkpt lat="42.42078" lon="2.7491">
        <ele>1082.7</ele>
        <time>2018-11-26T05:02:21Z</time>
      </trkpt>
      <trkpt lat="42.42078" lon="2.7491">
        <ele>1082.9</ele>
        <time>2018-11-26T05:02:21Z</time>
      </trkpt>
      <trkpt lat="42.42078" lon="2.7491">
        <ele>1083</ele>
        <time>2018-11-26T05:02:21Z</time>
      </trkpt>
      <trkpt lat="42.42078" lon="2.7491">
        <ele>1083.1</ele>
        <time>2018-11-26T05:02:21Z</time>
      </trkpt>
      <trkpt lat="42.42078" lon="2.7491">
        <ele>1082.9</ele>
        <time>2018-11-26T05:02:21Z</time>
      </trkpt>
      <trkpt lat="42.42078" lon="2.7491">
        <ele>1082.7</ele>
        <time>2018-11-26T05:02:21Z</time>
      </trkpt>
      <trkpt lat="42.42078" lon="2.7491">
        <ele>1082.1</ele>
        <time>2018-11-26T05:02:22Z</time>
      </trkpt>
      <trkpt lat="42.42078" lon="2.7491">
        <ele>1082.2</ele>
        <time>2018-11-26T05:02:22Z</time>
      </trkpt>
      <trkpt lat="42.42078" lon="2.7491">
        <ele>1082.3</ele>
        <time>2018-11-26T05:02:22Z</time>
      </trkpt>
      <trkpt lat="42.42078" lon="2.7491">
        <ele>1082.2</ele>
        <time>2018-11-26T05:02:22Z</time>
      </trkpt>
      <trkpt lat="42.42078" lon="2.7491">
        <ele>1082.4</ele>
        <time>2018-11-26T05:02:22Z</time>
      </trkpt>
      <trkpt lat="42.42078" lon="2.7491">
        <ele>1082.3</ele>
        <time>2018-11-26T05:02:22Z</time>
      </trkpt>
      <trkpt lat="42.42078" lon="2.7491">
        <ele>1082.5</ele>
        <time>2018-11-26T05:02:22Z</time>
      </trkpt>
      <trkpt lat="42.42078" lon="2.7491">
        <ele>1082.5</ele>
        <time>2018-11-26T05:02:22Z</time>
      </trkpt>
      <trkpt lat="42.42078" lon="2.7491">
        <ele>1082.5</ele>
        <time>2018-11-26T05:02:22Z</time>
      </trkpt>
      <trkpt lat="42.42078" lon="2.7491">
        <ele>1082.6</ele>
        <time>2018-11-26T05:02:22Z</time>
      </trkpt>
      <trkpt lat="42.42078" lon="2.74911">
        <ele>1082.7</ele>
        <time>2018-11-26T05:02:22Z</time>
      </trkpt>
      <trkpt lat="42.42077" lon="2.74911">
        <ele>1082.4</ele>
        <time>2018-11-26T05:02:22Z</time>
      </trkpt>
      <trkpt lat="42.42077" lon="2.74911">
        <ele>1082.4</ele>
        <time>2018-11-26T05:02:22Z</time>
      </trkpt>
      <trkpt lat="42.42077" lon="2.74911">
        <ele>1082</ele>
        <time>2018-11-26T05:02:22Z</time>
      </trkpt>
      <trkpt lat="42.42077" lon="2.74911">
        <ele>1082.3</ele>
        <time>2018-11-26T05:02:22Z</time>
      </trkpt>
      <trkpt lat="42.42077" lon="2.74911">
        <ele>1082.8</ele>
        <time>2018-11-26T05:02:22Z</time>
      </trkpt>
      <trkpt lat="42.42077" lon="2.74911">
        <ele>1083.2</ele>
        <time>2018-11-26T05:02:22Z</time>
      </trkpt>
      <trkpt lat="42.42077" lon="2.74911">
        <ele>1083.2</ele>
        <time>2018-11-26T05:02:22Z</time>
      </trkpt>
      <trkpt lat="42.42077" lon="2.74911">
        <ele>1083.2</ele>
        <time>2018-11-26T05:02:22Z</time>
      </trkpt>
      <trkpt lat="42.42077" lon="2.74911">
        <ele>1083.3</ele>
        <time>2018-11-26T05:02:22Z</time>
      </trkpt>
      <trkpt lat="42.42078" lon="2.74911">
        <ele>1083.4</ele>
        <time>2018-11-26T05:02:22Z</time>
      </trkpt>
      <trkpt lat="42.42078" lon="2.74911">
        <ele>1083.4</ele>
        <time>2018-11-26T05:02:22Z</time>
      </trkpt>
      <trkpt lat="42.42078" lon="2.74911">
        <ele>1083.3</ele>
        <time>2018-11-26T05:02:22Z</time>
      </trkpt>
      <trkpt lat="42.42078" lon="2.74911">
        <ele>1083.4</ele>
        <time>2018-11-26T05:02:22Z</time>
      </trkpt>
      <trkpt lat="42.42078" lon="2.74911">
        <ele>1083.6</ele>
        <time>2018-11-26T05:02:22Z</time>
      </trkpt>
      <trkpt lat="42.42078" lon="2.7491">
        <ele>1083.6</ele>
        <time>2018-11-26T05:02:22Z</time>
      </trkpt>
      <trkpt lat="42.42078" lon="2.7491">
        <ele>1083.7</ele>
        <time>2018-11-26T05:02:22Z</time>
      </trkpt>
      <trkpt lat="42.42078" lon="2.7491">
        <ele>1083.7</ele>
        <time>2018-11-26T05:02:23Z</time>
      </trkpt>
      <trkpt lat="42.42078" lon="2.7491">
        <ele>1083.8</ele>
        <time>2018-11-26T05:02:23Z</time>
      </trkpt>
      <trkpt lat="42.42078" lon="2.7491">
        <ele>1083.9</ele>
        <time>2018-11-26T05:02:23Z</time>
      </trkpt>
      <trkpt lat="42.42078" lon="2.7491">
        <ele>1084</ele>
        <time>2018-11-26T05:02:23Z</time>
      </trkpt>
      <trkpt lat="42.42079" lon="2.7491">
        <ele>1084.3</ele>
        <time>2018-11-26T05:02:23Z</time>
      </trkpt>
      <trkpt lat="42.42079" lon="2.7491">
        <ele>1084.4</ele>
        <time>2018-11-26T05:02:23Z</time>
      </trkpt>
      <trkpt lat="42.42079" lon="2.7491">
        <ele>1084.5</ele>
        <time>2018-11-26T05:02:23Z</time>
      </trkpt>
      <trkpt lat="42.42079" lon="2.7491">
        <ele>1084.3</ele>
        <time>2018-11-26T05:02:23Z</time>
      </trkpt>
      <trkpt lat="42.42079" lon="2.7491">
        <ele>1084.2</ele>
        <time>2018-11-26T05:02:23Z</time>
      </trkpt>
      <trkpt lat="42.42079" lon="2.7491">
        <ele>1084.1</ele>
        <time>2018-11-26T05:02:23Z</time>
      </trkpt>
      <trkpt lat="42.42079" lon="2.7491">
        <ele>1083.9</ele>
        <time>2018-11-26T05:02:23Z</time>
      </trkpt>
      <trkpt lat="42.42079" lon="2.7491">
        <ele>1083.6</ele>
        <time>2018-11-26T05:02:23Z</time>
      </trkpt>
      <trkpt lat="42.42079" lon="2.7491">
        <ele>1083.7</ele>
        <time>2018-11-26T05:02:23Z</time>
      </trkpt>
      <trkpt lat="42.42079" lon="2.7491">
        <ele>1083.7</ele>
        <time>2018-11-26T05:02:23Z</time>
      </trkpt>
      <trkpt lat="42.42079" lon="2.7491">
        <ele>1083.9</ele>
        <time>2018-11-26T05:02:23Z</time>
      </trkpt>
      <trkpt lat="42.42079" lon="2.7491">
        <ele>1083.8</ele>
        <time>2018-11-26T05:02:23Z</time>
      </trkpt>
      <trkpt lat="42.42079" lon="2.7491">
        <ele>1083.9</ele>
        <time>2018-11-26T05:02:23Z</time>
      </trkpt>
      <trkpt lat="42.42079" lon="2.7491">
        <ele>1084</ele>
        <time>2018-11-26T05:02:23Z</time>
      </trkpt>
      <trkpt lat="42.42079" lon="2.7491">
        <ele>1083.9</ele>
        <time>2018-11-26T05:02:23Z</time>
      </trkpt>
      <trkpt lat="42.4208" lon="2.7491">
        <ele>1083.9</ele>
        <time>2018-11-26T05:02:23Z</time>
      </trkpt>
      <trkpt lat="42.4208" lon="2.7491">
        <ele>1083.7</ele>
        <time>2018-11-26T05:02:23Z</time>
      </trkpt>
      <trkpt lat="42.4208" lon="2.7491">
        <ele>1083.5</ele>
        <time>2018-11-26T05:02:23Z</time>
      </trkpt>
      <trkpt lat="42.42079" lon="2.7491">
        <ele>1083.4</ele>
        <time>2018-11-26T05:02:23Z</time>
      </trkpt>
      <trkpt lat="42.42079" lon="2.7491">
        <ele>1083.5</ele>
        <time>2018-11-26T05:02:23Z</time>
      </trkpt>
      <trkpt lat="42.42079" lon="2.7491">
        <ele>1083.3</ele>
        <time>2018-11-26T05:02:23Z</time>
      </trkpt>
      <trkpt lat="42.42079" lon="2.7491">
        <ele>1083.3</ele>
        <time>2018-11-26T05:02:23Z</time>
      </trkpt>
      <trkpt lat="42.42079" lon="2.7491">
        <ele>1083.5</ele>
        <time>2018-11-26T05:02:24Z</time>
      </trkpt>
      <trkpt lat="42.42079" lon="2.7491">
        <ele>1083.4</ele>
        <time>2018-11-26T05:02:24Z</time>
      </trkpt>
      <trkpt lat="42.42079" lon="2.7491">
        <ele>1083.5</ele>
        <time>2018-11-26T05:02:24Z</time>
      </trkpt>
      <trkpt lat="42.42079" lon="2.7491">
        <ele>1083.4</ele>
        <time>2018-11-26T05:02:24Z</time>
      </trkpt>
      <trkpt lat="42.42079" lon="2.7491">
        <ele>1083.2</ele>
        <time>2018-11-26T05:02:24Z</time>
      </trkpt>
      <trkpt lat="42.42079" lon="2.7491">
        <ele>1083.3</ele>
        <time>2018-11-26T05:02:24Z</time>
      </trkpt>
      <trkpt lat="42.42079" lon="2.7491">
        <ele>1083.5</ele>
        <time>2018-11-26T05:02:24Z</time>
      </trkpt>
      <trkpt lat="42.42079" lon="2.7491">
        <ele>1083.7</ele>
        <time>2018-11-26T05:02:24Z</time>
      </trkpt>
      <trkpt lat="42.42079" lon="2.7491">
        <ele>1083.7</ele>
        <time>2018-11-26T05:02:24Z</time>
      </trkpt>
      <trkpt lat="42.42079" lon="2.7491">
        <ele>1083.7</ele>
        <time>2018-11-26T05:02:24Z</time>
      </trkpt>
      <trkpt lat="42.42079" lon="2.74909">
        <ele>1083.7</ele>
        <time>2018-11-26T05:02:24Z</time>
      </trkpt>
      <trkpt lat="42.42079" lon="2.74909">
        <ele>1083.7</ele>
        <time>2018-11-26T05:02:24Z</time>
      </trkpt>
      <trkpt lat="42.42079" lon="2.74909">
        <ele>1083.5</ele>
        <time>2018-11-26T05:02:24Z</time>
      </trkpt>
      <trkpt lat="42.42079" lon="2.74909">
        <ele>1083.2</ele>
        <time>2018-11-26T05:02:24Z</time>
      </trkpt>
      <trkpt lat="42.42079" lon="2.74909">
        <ele>1082.7</ele>
        <time>2018-11-26T05:02:24Z</time>
      </trkpt>
      <trkpt lat="42.42079" lon="2.7491">
        <ele>1082.8</ele>
        <time>2018-11-26T05:02:24Z</time>
      </trkpt>
      <trkpt lat="42.42079" lon="2.7491">
        <ele>1082.9</ele>
        <time>2018-11-26T05:02:24Z</time>
      </trkpt>
      <trkpt lat="42.42079" lon="2.7491">
        <ele>1083.1</ele>
        <time>2018-11-26T05:02:24Z</time>
      </trkpt>
      <trkpt lat="42.42079" lon="2.7491">
        <ele>1083.1</ele>
        <time>2018-11-26T05:02:24Z</time>
      </trkpt>
      <trkpt lat="42.42079" lon="2.7491">
        <ele>1083.3</ele>
        <time>2018-11-26T05:02:24Z</time>
      </trkpt>
      <trkpt lat="42.42079" lon="2.7491">
        <ele>1083.6</ele>
        <time>2018-11-26T05:02:24Z</time>
      </trkpt>
      <trkpt lat="42.42078" lon="2.7491">
        <ele>1083.7</ele>
        <time>2018-11-26T05:02:24Z</time>
      </trkpt>
      <trkpt lat="42.42078" lon="2.7491">
        <ele>1083.9</ele>
        <time>2018-11-26T05:02:24Z</time>
      </trkpt>
      <trkpt lat="42.42078" lon="2.7491">
        <ele>1084.1</ele>
        <time>2018-11-26T05:02:24Z</time>
      </trkpt>
      <trkpt lat="42.42078" lon="2.7491">
        <ele>1083.8</ele>
        <time>2018-11-26T05:02:24Z</time>
      </trkpt>
      <trkpt lat="42.42078" lon="2.7491">
        <ele>1083.5</ele>
        <time>2018-11-26T05:02:24Z</time>
      </trkpt>
      <trkpt lat="42.42078" lon="2.7491">
        <ele>1083</ele>
        <time>2018-11-26T05:02:24Z</time>
      </trkpt>
      <trkpt lat="42.42078" lon="2.7491">
        <ele>1083.1</ele>
        <time>2018-11-26T05:02:24Z</time>
      </trkpt>
      <trkpt lat="42.42078" lon="2.7491">
        <ele>1083.5</ele>
        <time>2018-11-26T05:02:24Z</time>
      </trkpt>
      <trkpt lat="42.42078" lon="2.7491">
        <ele>1083.6</ele>
        <time>2018-11-26T05:02:24Z</time>
      </trkpt>
      <trkpt lat="42.42078" lon="2.74909">
        <ele>1084.1</ele>
        <time>2018-11-26T05:02:24Z</time>
      </trkpt>
      <trkpt lat="42.42078" lon="2.74909">
        <ele>1083.8</ele>
        <time>2018-11-26T05:02:24Z</time>
      </trkpt>
      <trkpt lat="42.42078" lon="2.74909">
        <ele>1083.5</ele>
        <time>2018-11-26T05:02:24Z</time>
      </trkpt>
      <trkpt lat="42.42078" lon="2.74909">
        <ele>1083.1</ele>
        <time>2018-11-26T05:02:24Z</time>
      </trkpt>
      <trkpt lat="42.42078" lon="2.74909">
        <ele>1083.1</ele>
        <time>2018-11-26T05:02:24Z</time>
      </trkpt>
      <trkpt lat="42.42078" lon="2.74909">
        <ele>1083.2</ele>
        <time>2018-11-26T05:02:24Z</time>
      </trkpt>
      <trkpt lat="42.42078" lon="2.74909">
        <ele>1083.1</ele>
        <time>2018-11-26T05:02:24Z</time>
      </trkpt>
      <trkpt lat="42.42078" lon="2.74909">
        <ele>1083.2</ele>
        <time>2018-11-26T05:02:24Z</time>
      </trkpt>
      <trkpt lat="42.42078" lon="2.74909">
        <ele>1083.1</ele>
        <time>2018-11-26T05:02:24Z</time>
      </trkpt>
      <trkpt lat="42.42078" lon="2.74909">
        <ele>1083.4</ele>
        <time>2018-11-26T05:02:24Z</time>
      </trkpt>
      <trkpt lat="42.42078" lon="2.74909">
        <ele>1083.6</ele>
        <time>2018-11-26T05:02:24Z</time>
      </trkpt>
      <trkpt lat="42.42078" lon="2.74909">
        <ele>1084.1</ele>
        <time>2018-11-26T05:02:24Z</time>
      </trkpt>
      <trkpt lat="42.42078" lon="2.74909">
        <ele>1084.1</ele>
        <time>2018-11-26T05:02:24Z</time>
      </trkpt>
      <trkpt lat="42.42078" lon="2.74909">
        <ele>1084.2</ele>
        <time>2018-11-26T05:02:24Z</time>
      </trkpt>
      <trkpt lat="42.42078" lon="2.74908">
        <ele>1084.2</ele>
        <time>2018-11-26T05:02:24Z</time>
      </trkpt>
      <trkpt lat="42.42079" lon="2.74908">
        <ele>1084.3</ele>
        <time>2018-11-26T05:02:25Z</time>
      </trkpt>
      <trkpt lat="42.42079" lon="2.74908">
        <ele>1084.4</ele>
        <time>2018-11-26T05:02:25Z</time>
      </trkpt>
      <trkpt lat="42.42079" lon="2.74908">
        <ele>1084.6</ele>
        <time>2018-11-26T05:02:25Z</time>
      </trkpt>
      <trkpt lat="42.42079" lon="2.74908">
        <ele>1084.2</ele>
        <time>2018-11-26T05:02:25Z</time>
      </trkpt>
      <trkpt lat="42.42079" lon="2.74908">
        <ele>1084</ele>
        <time>2018-11-26T05:02:25Z</time>
      </trkpt>
      <trkpt lat="42.42079" lon="2.74908">
        <ele>1083.4</ele>
        <time>2018-11-26T05:02:25Z</time>
      </trkpt>
      <trkpt lat="42.42079" lon="2.74908">
        <ele>1083.5</ele>
        <time>2018-11-26T05:02:25Z</time>
      </trkpt>
      <trkpt lat="42.4208" lon="2.74907">
        <ele>1083.4</ele>
        <time>2018-11-26T05:02:25Z</time>
      </trkpt>
      <trkpt lat="42.4208" lon="2.74907">
        <ele>1083.5</ele>
        <time>2018-11-26T05:02:25Z</time>
      </trkpt>
      <trkpt lat="42.4208" lon="2.74907">
        <ele>1083.6</ele>
        <time>2018-11-26T05:02:25Z</time>
      </trkpt>
      <trkpt lat="42.4208" lon="2.74907">
        <ele>1083.5</ele>
        <time>2018-11-26T05:02:25Z</time>
      </trkpt>
      <trkpt lat="42.4208" lon="2.74907">
        <ele>1083.4</ele>
        <time>2018-11-26T05:02:25Z</time>
      </trkpt>
      <trkpt lat="42.4208" lon="2.74907">
        <ele>1083.1</ele>
        <time>2018-11-26T05:02:25Z</time>
      </trkpt>
      <trkpt lat="42.4208" lon="2.74907">
        <ele>1083.3</ele>
        <time>2018-11-26T05:02:25Z</time>
      </trkpt>
      <trkpt lat="42.4208" lon="2.74906">
        <ele>1083.4</ele>
        <time>2018-11-26T05:02:25Z</time>
      </trkpt>
      <trkpt lat="42.4208" lon="2.74906">
        <ele>1083.8</ele>
        <time>2018-11-26T05:02:25Z</time>
      </trkpt>
      <trkpt lat="42.4208" lon="2.74906">
        <ele>1083.8</ele>
        <time>2018-11-26T05:02:26Z</time>
      </trkpt>
      <trkpt lat="42.4208" lon="2.74906">
        <ele>1083.7</ele>
        <time>2018-11-26T05:02:26Z</time>
      </trkpt>
      <trkpt lat="42.4208" lon="2.74906">
        <ele>1083.9</ele>
        <time>2018-11-26T05:02:26Z</time>
      </trkpt>
      <trkpt lat="42.4208" lon="2.74906">
        <ele>1083.8</ele>
        <time>2018-11-26T05:02:26Z</time>
      </trkpt>
      <trkpt lat="42.4208" lon="2.74906">
        <ele>1083.9</ele>
        <time>2018-11-26T05:02:26Z</time>
      </trkpt>
      <trkpt lat="42.4208" lon="2.74906">
        <ele>1084.1</ele>
        <time>2018-11-26T05:02:26Z</time>
      </trkpt>
      <trkpt lat="42.4208" lon="2.74906">
        <ele>1084.2</ele>
        <time>2018-11-26T05:02:26Z</time>
      </trkpt>
      <trkpt lat="42.4208" lon="2.74906">
        <ele>1084.3</ele>
        <time>2018-11-26T05:02:26Z</time>
      </trkpt>
      <trkpt lat="42.42081" lon="2.74906">
        <ele>1084.5</ele>
        <time>2018-11-26T05:02:26Z</time>
      </trkpt>
      <trkpt lat="42.42081" lon="2.74906">
        <ele>1084.6</ele>
        <time>2018-11-26T05:02:26Z</time>
      </trkpt>
      <trkpt lat="42.42081" lon="2.74905">
        <ele>1084.5</ele>
        <time>2018-11-26T05:02:26Z</time>
      </trkpt>
      <trkpt lat="42.42081" lon="2.74905">
        <ele>1084.5</ele>
        <time>2018-11-26T05:02:26Z</time>
      </trkpt>
      <trkpt lat="42.42081" lon="2.74905">
        <ele>1084.4</ele>
        <time>2018-11-26T05:02:26Z</time>
      </trkpt>
      <trkpt lat="42.42081" lon="2.74905">
        <ele>1084.4</ele>
        <time>2018-11-26T05:02:26Z</time>
      </trkpt>
      <trkpt lat="42.42081" lon="2.74905">
        <ele>1084.3</ele>
        <time>2018-11-26T05:02:26Z</time>
      </trkpt>
      <trkpt lat="42.42082" lon="2.74905">
        <ele>1084.3</ele>
        <time>2018-11-26T05:02:26Z</time>
      </trkpt>
      <trkpt lat="42.42082" lon="2.74905">
        <ele>1084.2</ele>
        <time>2018-11-26T05:02:26Z</time>
      </trkpt>
      <trkpt lat="42.42082" lon="2.74905">
        <ele>1084.1</ele>
        <time>2018-11-26T05:02:26Z</time>
      </trkpt>
      <trkpt lat="42.42082" lon="2.74905">
        <ele>1083.8</ele>
        <time>2018-11-26T05:02:26Z</time>
      </trkpt>
      <trkpt lat="42.42082" lon="2.74905">
        <ele>1083.9</ele>
        <time>2018-11-26T05:02:26Z</time>
      </trkpt>
      <trkpt lat="42.42082" lon="2.74905">
        <ele>1083.8</ele>
        <time>2018-11-26T05:02:26Z</time>
      </trkpt>
      <trkpt lat="42.42082" lon="2.74905">
        <ele>1083.8</ele>
        <time>2018-11-26T05:02:26Z</time>
      </trkpt>
      <trkpt lat="42.42082" lon="2.74904">
        <ele>1083.7</ele>
        <time>2018-11-26T05:02:26Z</time>
      </trkpt>
      <trkpt lat="42.42082" lon="2.74904">
        <ele>1083.8</ele>
        <time>2018-11-26T05:02:26Z</time>
      </trkpt>
      <trkpt lat="42.42081" lon="2.74904">
        <ele>1083.9</ele>
        <time>2018-11-26T05:02:27Z</time>
      </trkpt>
      <trkpt lat="42.42081" lon="2.74904">
        <ele>1084.1</ele>
        <time>2018-11-26T05:02:27Z</time>
      </trkpt>
      <trkpt lat="42.42081" lon="2.74904">
        <ele>1084.1</ele>
        <time>2018-11-26T05:02:27Z</time>
      </trkpt>
      <trkpt lat="42.42081" lon="2.74904">
        <ele>1084</ele>
        <time>2018-11-26T05:02:27Z</time>
      </trkpt>
      <trkpt lat="42.42081" lon="2.74904">
        <ele>1083.8</ele>
        <time>2018-11-26T05:02:27Z</time>
      </trkpt>
      <trkpt lat="42.42081" lon="2.74904">
        <ele>1083.9</ele>
        <time>2018-11-26T05:02:27Z</time>
      </trkpt>
      <trkpt lat="42.42081" lon="2.74904">
        <ele>1084.1</ele>
        <time>2018-11-26T05:02:27Z</time>
      </trkpt>
      <trkpt lat="42.42081" lon="2.74904">
        <ele>1084.3</ele>
        <time>2018-11-26T05:02:27Z</time>
      </trkpt>
      <trkpt lat="42.42081" lon="2.74904">
        <ele>1084.3</ele>
        <time>2018-11-26T05:02:27Z</time>
      </trkpt>
      <trkpt lat="42.42081" lon="2.74904">
        <ele>1084.3</ele>
        <time>2018-11-26T05:02:27Z</time>
      </trkpt>
      <trkpt lat="42.42081" lon="2.74904">
        <ele>1084.3</ele>
        <time>2018-11-26T05:02:27Z</time>
      </trkpt>
      <trkpt lat="42.42081" lon="2.74904">
        <ele>1084.5</ele>
        <time>2018-11-26T05:02:27Z</time>
      </trkpt>
      <trkpt lat="42.42081" lon="2.74904">
        <ele>1084.5</ele>
        <time>2018-11-26T05:02:27Z</time>
      </trkpt>
      <trkpt lat="42.42081" lon="2.74904">
        <ele>1084.6</ele>
        <time>2018-11-26T05:02:27Z</time>
      </trkpt>
      <trkpt lat="42.42081" lon="2.74904">
        <ele>1084.8</ele>
        <time>2018-11-26T05:02:27Z</time>
      </trkpt>
      <trkpt lat="42.42081" lon="2.74904">
        <ele>1084.6</ele>
        <time>2018-11-26T05:02:27Z</time>
      </trkpt>
      <trkpt lat="42.42081" lon="2.74904">
        <ele>1084.3</ele>
        <time>2018-11-26T05:02:27Z</time>
      </trkpt>
      <trkpt lat="42.42081" lon="2.74904">
        <ele>1083.8</ele>
        <time>2018-11-26T05:02:27Z</time>
      </trkpt>
      <trkpt lat="42.42081" lon="2.74904">
        <ele>1084</ele>
        <time>2018-11-26T05:02:27Z</time>
      </trkpt>
      <trkpt lat="42.42082" lon="2.74904">
        <ele>1084</ele>
        <time>2018-11-26T05:02:27Z</time>
      </trkpt>
      <trkpt lat="42.42082" lon="2.74904">
        <ele>1084.1</ele>
        <time>2018-11-26T05:02:27Z</time>
      </trkpt>
      <trkpt lat="42.42082" lon="2.74904">
        <ele>1084.3</ele>
        <time>2018-11-26T05:02:27Z</time>
      </trkpt>
      <trkpt lat="42.42082" lon="2.74904">
        <ele>1084.6</ele>
        <time>2018-11-26T05:02:27Z</time>
      </trkpt>
      <trkpt lat="42.42081" lon="2.74904">
        <ele>1084.8</ele>
        <time>2018-11-26T05:02:27Z</time>
      </trkpt>
      <trkpt lat="42.42081" lon="2.74904">
        <ele>1084.9</ele>
        <time>2018-11-26T05:02:27Z</time>
      </trkpt>
      <trkpt lat="42.42081" lon="2.74904">
        <ele>1085.1</ele>
        <time>2018-11-26T05:02:27Z</time>
      </trkpt>
      <trkpt lat="42.42081" lon="2.74904">
        <ele>1085.2</ele>
        <time>2018-11-26T05:02:28Z</time>
      </trkpt>
      <trkpt lat="42.42081" lon="2.74904">
        <ele>1085</ele>
        <time>2018-11-26T05:02:28Z</time>
      </trkpt>
      <trkpt lat="42.42081" lon="2.74904">
        <ele>1084.9</ele>
        <time>2018-11-26T05:02:28Z</time>
      </trkpt>
      <trkpt lat="42.4208" lon="2.74904">
        <ele>1084.8</ele>
        <time>2018-11-26T05:02:28Z</time>
      </trkpt>
      <trkpt lat="42.4208" lon="2.74905">
        <ele>1084.6</ele>
        <time>2018-11-26T05:02:28Z</time>
      </trkpt>
      <trkpt lat="42.4208" lon="2.74905">
        <ele>1084.9</ele>
        <time>2018-11-26T05:02:28Z</time>
      </trkpt>
      <trkpt lat="42.4208" lon="2.74905">
        <ele>1085</ele>
        <time>2018-11-26T05:02:28Z</time>
      </trkpt>
      <trkpt lat="42.4208" lon="2.74905">
        <ele>1085.2</ele>
        <time>2018-11-26T05:02:28Z</time>
      </trkpt>
      <trkpt lat="42.4208" lon="2.74905">
        <ele>1085.1</ele>
        <time>2018-11-26T05:02:28Z</time>
      </trkpt>
      <trkpt lat="42.4208" lon="2.74905">
        <ele>1085.1</ele>
        <time>2018-11-26T05:02:28Z</time>
      </trkpt>
      <trkpt lat="42.4208" lon="2.74905">
        <ele>1084.9</ele>
        <time>2018-11-26T05:02:28Z</time>
      </trkpt>
      <trkpt lat="42.4208" lon="2.74905">
        <ele>1085</ele>
        <time>2018-11-26T05:02:28Z</time>
      </trkpt>
      <trkpt lat="42.4208" lon="2.74905">
        <ele>1085.1</ele>
        <time>2018-11-26T05:02:28Z</time>
      </trkpt>
      <trkpt lat="42.4208" lon="2.74905">
        <ele>1085.2</ele>
        <time>2018-11-26T05:02:28Z</time>
      </trkpt>
      <trkpt lat="42.4208" lon="2.74905">
        <ele>1085.3</ele>
        <time>2018-11-26T05:02:28Z</time>
      </trkpt>
      <trkpt lat="42.4208" lon="2.74905">
        <ele>1085.4</ele>
        <time>2018-11-26T05:02:28Z</time>
      </trkpt>
      <trkpt lat="42.4208" lon="2.74905">
        <ele>1085.5</ele>
        <time>2018-11-26T05:02:28Z</time>
      </trkpt>
      <trkpt lat="42.4208" lon="2.74905">
        <ele>1085.6</ele>
        <time>2018-11-26T05:02:28Z</time>
      </trkpt>
      <trkpt lat="42.4208" lon="2.74905">
        <ele>1085.7</ele>
        <time>2018-11-26T05:02:28Z</time>
      </trkpt>
      <trkpt lat="42.4208" lon="2.74905">
        <ele>1085.7</ele>
        <time>2018-11-26T05:02:28Z</time>
      </trkpt>
      <trkpt lat="42.4208" lon="2.74905">
        <ele>1085.6</ele>
        <time>2018-11-26T05:02:28Z</time>
      </trkpt>
      <trkpt lat="42.4208" lon="2.74905">
        <ele>1085.5</ele>
        <time>2018-11-26T05:02:28Z</time>
      </trkpt>
      <trkpt lat="42.4208" lon="2.74905">
        <ele>1085.3</ele>
        <time>2018-11-26T05:02:29Z</time>
      </trkpt>
      <trkpt lat="42.4208" lon="2.74905">
        <ele>1085.1</ele>
        <time>2018-11-26T05:02:29Z</time>
      </trkpt>
      <trkpt lat="42.4208" lon="2.74905">
        <ele>1085.1</ele>
        <time>2018-11-26T05:02:29Z</time>
      </trkpt>
      <trkpt lat="42.4208" lon="2.74905">
        <ele>1085</ele>
        <time>2018-11-26T05:02:29Z</time>
      </trkpt>
      <trkpt lat="42.4208" lon="2.74905">
        <ele>1084.9</ele>
        <time>2018-11-26T05:02:29Z</time>
      </trkpt>
      <trkpt lat="42.4208" lon="2.74905">
        <ele>1084.9</ele>
        <time>2018-11-26T05:02:29Z</time>
      </trkpt>
      <trkpt lat="42.4208" lon="2.74905">
        <ele>1084.9</ele>
        <time>2018-11-26T05:02:29Z</time>
      </trkpt>
      <trkpt lat="42.4208" lon="2.74905">
        <ele>1085</ele>
        <time>2018-11-26T05:02:29Z</time>
      </trkpt>
      <trkpt lat="42.4208" lon="2.74906">
        <ele>1084.9</ele>
        <time>2018-11-26T05:02:29Z</time>
      </trkpt>
      <trkpt lat="42.4208" lon="2.74906">
        <ele>1084.9</ele>
        <time>2018-11-26T05:02:29Z</time>
      </trkpt>
      <trkpt lat="42.4208" lon="2.74906">
        <ele>1085.1</ele>
        <time>2018-11-26T05:02:29Z</time>
      </trkpt>
      <trkpt lat="42.4208" lon="2.74906">
        <ele>1084.8</ele>
        <time>2018-11-26T05:02:29Z</time>
      </trkpt>
      <trkpt lat="42.4208" lon="2.74906">
        <ele>1084.6</ele>
        <time>2018-11-26T05:02:29Z</time>
      </trkpt>
      <trkpt lat="42.4208" lon="2.74906">
        <ele>1084.5</ele>
        <time>2018-11-26T05:02:29Z</time>
      </trkpt>
      <trkpt lat="42.4208" lon="2.74906">
        <ele>1084.3</ele>
        <time>2018-11-26T05:02:29Z</time>
      </trkpt>
      <trkpt lat="42.4208" lon="2.74906">
        <ele>1084.2</ele>
        <time>2018-11-26T05:02:29Z</time>
      </trkpt>
      <trkpt lat="42.4208" lon="2.74906">
        <ele>1084.2</ele>
        <time>2018-11-26T05:02:29Z</time>
      </trkpt>
      <trkpt lat="42.4208" lon="2.74906">
        <ele>1084.1</ele>
        <time>2018-11-26T05:02:29Z</time>
      </trkpt>
      <trkpt lat="42.4208" lon="2.74906">
        <ele>1084.1</ele>
        <time>2018-11-26T05:02:29Z</time>
      </trkpt>
      <trkpt lat="42.4208" lon="2.74906">
        <ele>1084.1</ele>
        <time>2018-11-26T05:02:29Z</time>
      </trkpt>
      <trkpt lat="42.4208" lon="2.74906">
        <ele>1084</ele>
        <time>2018-11-26T05:02:29Z</time>
      </trkpt>
      <trkpt lat="42.4208" lon="2.74906">
        <ele>1084</ele>
        <time>2018-11-26T05:02:29Z</time>
      </trkpt>
      <trkpt lat="42.4208" lon="2.74907">
        <ele>1084.1</ele>
        <time>2018-11-26T05:02:29Z</time>
      </trkpt>
      <trkpt lat="42.4208" lon="2.74907">
        <ele>1084.3</ele>
        <time>2018-11-26T05:02:29Z</time>
      </trkpt>
      <trkpt lat="42.4208" lon="2.74907">
        <ele>1084.1</ele>
        <time>2018-11-26T05:02:29Z</time>
      </trkpt>
      <trkpt lat="42.42079" lon="2.74907">
        <ele>1084.1</ele>
        <time>2018-11-26T05:02:29Z</time>
      </trkpt>
      <trkpt lat="42.42079" lon="2.74907">
        <ele>1083.9</ele>
        <time>2018-11-26T05:02:29Z</time>
      </trkpt>
      <trkpt lat="42.42079" lon="2.74907">
        <ele>1084.2</ele>
        <time>2018-11-26T05:02:30Z</time>
      </trkpt>
      <trkpt lat="42.42079" lon="2.74907">
        <ele>1084.9</ele>
        <time>2018-11-26T05:02:30Z</time>
      </trkpt>
      <trkpt lat="42.42079" lon="2.74907">
        <ele>1085.5</ele>
        <time>2018-11-26T05:02:30Z</time>
      </trkpt>
      <trkpt lat="42.42079" lon="2.74907">
        <ele>1085.3</ele>
        <time>2018-11-26T05:02:30Z</time>
      </trkpt>
      <trkpt lat="42.42079" lon="2.74908">
        <ele>1085.1</ele>
        <time>2018-11-26T05:02:30Z</time>
      </trkpt>
      <trkpt lat="42.42079" lon="2.74908">
        <ele>1084.7</ele>
        <time>2018-11-26T05:02:30Z</time>
      </trkpt>
      <trkpt lat="42.42078" lon="2.74908">
        <ele>1084.9</ele>
        <time>2018-11-26T05:02:30Z</time>
      </trkpt>
      <trkpt lat="42.42078" lon="2.74908">
        <ele>1085.2</ele>
        <time>2018-11-26T05:02:30Z</time>
      </trkpt>
      <trkpt lat="42.42078" lon="2.74908">
        <ele>1085.4</ele>
        <time>2018-11-26T05:02:30Z</time>
      </trkpt>
      <trkpt lat="42.42078" lon="2.74908">
        <ele>1085.9</ele>
        <time>2018-11-26T05:02:30Z</time>
      </trkpt>
      <trkpt lat="42.42078" lon="2.74908">
        <ele>1085.5</ele>
        <time>2018-11-26T05:02:30Z</time>
      </trkpt>
      <trkpt lat="42.42077" lon="2.74908">
        <ele>1085.1</ele>
        <time>2018-11-26T05:02:30Z</time>
      </trkpt>
      <trkpt lat="42.42077" lon="2.74909">
        <ele>1084.6</ele>
        <time>2018-11-26T05:02:31Z</time>
      </trkpt>
      <trkpt lat="42.42077" lon="2.74909">
        <ele>1084.5</ele>
        <time>2018-11-26T05:02:31Z</time>
      </trkpt>
      <trkpt lat="42.42077" lon="2.74909">
        <ele>1084.4</ele>
        <time>2018-11-26T05:02:31Z</time>
      </trkpt>
      <trkpt lat="42.42077" lon="2.74909">
        <ele>1084.3</ele>
        <time>2018-11-26T05:02:31Z</time>
      </trkpt>
      <trkpt lat="42.42077" lon="2.74909">
        <ele>1084.4</ele>
        <time>2018-11-26T05:02:31Z</time>
      </trkpt>
      <trkpt lat="42.42076" lon="2.74909">
        <ele>1084.3</ele>
        <time>2018-11-26T05:02:31Z</time>
      </trkpt>
      <trkpt lat="42.42076" lon="2.74909">
        <ele>1084.2</ele>
        <time>2018-11-26T05:02:31Z</time>
      </trkpt>
      <trkpt lat="42.42076" lon="2.74909">
        <ele>1084.2</ele>
        <time>2018-11-26T05:02:31Z</time>
      </trkpt>
      <trkpt lat="42.42076" lon="2.7491">
        <ele>1084.2</ele>
        <time>2018-11-26T05:02:31Z</time>
      </trkpt>
      <trkpt lat="42.42076" lon="2.7491">
        <ele>1084.1</ele>
        <time>2018-11-26T05:02:31Z</time>
      </trkpt>
      <trkpt lat="42.42076" lon="2.7491">
        <ele>1084</ele>
        <time>2018-11-26T05:02:31Z</time>
      </trkpt>
      <trkpt lat="42.42076" lon="2.7491">
        <ele>1083.8</ele>
        <time>2018-11-26T05:02:31Z</time>
      </trkpt>
      <trkpt lat="42.42076" lon="2.7491">
        <ele>1083.6</ele>
        <time>2018-11-26T05:02:31Z</time>
      </trkpt>
      <trkpt lat="42.42075" lon="2.7491">
        <ele>1083.7</ele>
        <time>2018-11-26T05:02:31Z</time>
      </trkpt>
      <trkpt lat="42.42075" lon="2.7491">
        <ele>1083.7</ele>
        <time>2018-11-26T05:02:31Z</time>
      </trkpt>
      <trkpt lat="42.42075" lon="2.7491">
        <ele>1083.7</ele>
        <time>2018-11-26T05:02:32Z</time>
      </trkpt>
      <trkpt lat="42.42075" lon="2.7491">
        <ele>1083.7</ele>
        <time>2018-11-26T05:02:32Z</time>
      </trkpt>
      <trkpt lat="42.42075" lon="2.7491">
        <ele>1083.6</ele>
        <time>2018-11-26T05:02:32Z</time>
      </trkpt>
      <trkpt lat="42.42075" lon="2.74911">
        <ele>1083.6</ele>
        <time>2018-11-26T05:02:32Z</time>
      </trkpt>
      <trkpt lat="42.42075" lon="2.74911">
        <ele>1083.4</ele>
        <time>2018-11-26T05:02:32Z</time>
      </trkpt>
      <trkpt lat="42.42075" lon="2.74911">
        <ele>1083.3</ele>
        <time>2018-11-26T05:02:32Z</time>
      </trkpt>
      <trkpt lat="42.42075" lon="2.74911">
        <ele>1083.4</ele>
        <time>2018-11-26T05:02:32Z</time>
      </trkpt>
      <trkpt lat="42.42075" lon="2.74911">
        <ele>1083.3</ele>
        <time>2018-11-26T05:02:32Z</time>
      </trkpt>
      <trkpt lat="42.42075" lon="2.74911">
        <ele>1083.5</ele>
        <time>2018-11-26T05:02:32Z</time>
      </trkpt>
      <trkpt lat="42.42075" lon="2.74911">
        <ele>1083.9</ele>
        <time>2018-11-26T05:02:32Z</time>
      </trkpt>
      <trkpt lat="42.42075" lon="2.74911">
        <ele>1084.1</ele>
        <time>2018-11-26T05:02:32Z</time>
      </trkpt>
      <trkpt lat="42.42074" lon="2.74911">
        <ele>1084.1</ele>
        <time>2018-11-26T05:02:32Z</time>
      </trkpt>
      <trkpt lat="42.42074" lon="2.74911">
        <ele>1084.2</ele>
        <time>2018-11-26T05:02:32Z</time>
      </trkpt>
      <trkpt lat="42.42074" lon="2.74912">
        <ele>1084.3</ele>
        <time>2018-11-26T05:02:32Z</time>
      </trkpt>
      <trkpt lat="42.42073" lon="2.74912">
        <ele>1084.2</ele>
        <time>2018-11-26T05:02:33Z</time>
      </trkpt>
      <trkpt lat="42.42073" lon="2.74912">
        <ele>1084.1</ele>
        <time>2018-11-26T05:02:33Z</time>
      </trkpt>
      <trkpt lat="42.42072" lon="2.74912">
        <ele>1084</ele>
        <time>2018-11-26T05:02:33Z</time>
      </trkpt>
      <trkpt lat="42.42072" lon="2.74912">
        <ele>1084</ele>
        <time>2018-11-26T05:02:33Z</time>
      </trkpt>
      <trkpt lat="42.42072" lon="2.74912">
        <ele>1084</ele>
        <time>2018-11-26T05:02:33Z</time>
      </trkpt>
      <trkpt lat="42.42072" lon="2.74912">
        <ele>1084</ele>
        <time>2018-11-26T05:02:33Z</time>
      </trkpt>
      <trkpt lat="42.42072" lon="2.74912">
        <ele>1084.1</ele>
        <time>2018-11-26T05:02:33Z</time>
      </trkpt>
      <trkpt lat="42.42072" lon="2.74912">
        <ele>1084</ele>
        <time>2018-11-26T05:02:33Z</time>
      </trkpt>
      <trkpt lat="42.42072" lon="2.74912">
        <ele>1083.8</ele>
        <time>2018-11-26T05:02:33Z</time>
      </trkpt>
      <trkpt lat="42.42072" lon="2.74912">
        <ele>1083.5</ele>
        <time>2018-11-26T05:02:33Z</time>
      </trkpt>
      <trkpt lat="42.42072" lon="2.74912">
        <ele>1083.8</ele>
        <time>2018-11-26T05:02:33Z</time>
      </trkpt>
      <trkpt lat="42.42072" lon="2.74912">
        <ele>1083.8</ele>
        <time>2018-11-26T05:02:33Z</time>
      </trkpt>
      <trkpt lat="42.42072" lon="2.74912">
        <ele>1084</ele>
        <time>2018-11-26T05:02:33Z</time>
      </trkpt>
      <trkpt lat="42.42072" lon="2.74912">
        <ele>1084</ele>
        <time>2018-11-26T05:02:34Z</time>
      </trkpt>
      <trkpt lat="42.42072" lon="2.74912">
        <ele>1083.9</ele>
        <time>2018-11-26T05:02:34Z</time>
      </trkpt>
      <trkpt lat="42.42072" lon="2.74912">
        <ele>1083.9</ele>
        <time>2018-11-26T05:02:34Z</time>
      </trkpt>
      <trkpt lat="42.42072" lon="2.74912">
        <ele>1084</ele>
        <time>2018-11-26T05:02:34Z</time>
      </trkpt>
      <trkpt lat="42.42072" lon="2.74912">
        <ele>1084</ele>
        <time>2018-11-26T05:02:34Z</time>
      </trkpt>
      <trkpt lat="42.42072" lon="2.74912">
        <ele>1083.9</ele>
        <time>2018-11-26T05:02:34Z</time>
      </trkpt>
      <trkpt lat="42.42072" lon="2.74912">
        <ele>1083.8</ele>
        <time>2018-11-26T05:02:34Z</time>
      </trkpt>
      <trkpt lat="42.42072" lon="2.74912">
        <ele>1083.7</ele>
        <time>2018-11-26T05:02:34Z</time>
      </trkpt>
      <trkpt lat="42.42072" lon="2.74912">
        <ele>1083.5</ele>
        <time>2018-11-26T05:02:34Z</time>
      </trkpt>
      <trkpt lat="42.42072" lon="2.74912">
        <ele>1083.5</ele>
        <time>2018-11-26T05:02:34Z</time>
      </trkpt>
      <trkpt lat="42.42072" lon="2.74912">
        <ele>1083.4</ele>
        <time>2018-11-26T05:02:34Z</time>
      </trkpt>
      <trkpt lat="42.42072" lon="2.74912">
        <ele>1083.4</ele>
        <time>2018-11-26T05:02:34Z</time>
      </trkpt>
      <trkpt lat="42.42072" lon="2.74912">
        <ele>1083.3</ele>
        <time>2018-11-26T05:02:34Z</time>
      </trkpt>
      <trkpt lat="42.42071" lon="2.74913">
        <ele>1083.6</ele>
        <time>2018-11-26T05:02:34Z</time>
      </trkpt>
      <trkpt lat="42.42071" lon="2.74913">
        <ele>1083.7</ele>
        <time>2018-11-26T05:02:35Z</time>
      </trkpt>
      <trkpt lat="42.42071" lon="2.74913">
        <ele>1084.1</ele>
        <time>2018-11-26T05:02:35Z</time>
      </trkpt>
      <trkpt lat="42.4207" lon="2.74913">
        <ele>1083.9</ele>
        <time>2018-11-26T05:02:35Z</time>
      </trkpt>
      <trkpt lat="42.4207" lon="2.74913">
        <ele>1083.7</ele>
        <time>2018-11-26T05:02:35Z</time>
      </trkpt>
      <trkpt lat="42.4207" lon="2.74913">
        <ele>1083.3</ele>
        <time>2018-11-26T05:02:35Z</time>
      </trkpt>
      <trkpt lat="42.4207" lon="2.74914">
        <ele>1083.5</ele>
        <time>2018-11-26T05:02:35Z</time>
      </trkpt>
      <trkpt lat="42.4207" lon="2.74914">
        <ele>1083.9</ele>
        <time>2018-11-26T05:02:35Z</time>
      </trkpt>
      <trkpt lat="42.4207" lon="2.74914">
        <ele>1084.5</ele>
        <time>2018-11-26T05:02:35Z</time>
      </trkpt>
      <trkpt lat="42.4207" lon="2.74914">
        <ele>1084.6</ele>
        <time>2018-11-26T05:02:35Z</time>
      </trkpt>
      <trkpt lat="42.4207" lon="2.74914">
        <ele>1084.7</ele>
        <time>2018-11-26T05:02:35Z</time>
      </trkpt>
      <trkpt lat="42.4207" lon="2.74914">
        <ele>1084.9</ele>
        <time>2018-11-26T05:02:35Z</time>
      </trkpt>
      <trkpt lat="42.4207" lon="2.74914">
        <ele>1084.8</ele>
        <time>2018-11-26T05:02:35Z</time>
      </trkpt>
      <trkpt lat="42.4207" lon="2.74914">
        <ele>1084.8</ele>
        <time>2018-11-26T05:02:35Z</time>
      </trkpt>
      <trkpt lat="42.4207" lon="2.74914">
        <ele>1084.7</ele>
        <time>2018-11-26T05:02:35Z</time>
      </trkpt>
      <trkpt lat="42.4207" lon="2.74913">
        <ele>1084.6</ele>
        <time>2018-11-26T05:02:35Z</time>
      </trkpt>
      <trkpt lat="42.4207" lon="2.74913">
        <ele>1084.9</ele>
        <time>2018-11-26T05:02:35Z</time>
      </trkpt>
      <trkpt lat="42.42069" lon="2.74914">
        <ele>1085.1</ele>
        <time>2018-11-26T05:02:36Z</time>
      </trkpt>
      <trkpt lat="42.42069" lon="2.74914">
        <ele>1085.6</ele>
        <time>2018-11-26T05:02:36Z</time>
      </trkpt>
      <trkpt lat="42.42069" lon="2.74914">
        <ele>1085.2</ele>
        <time>2018-11-26T05:02:36Z</time>
      </trkpt>
      <trkpt lat="42.42069" lon="2.74914">
        <ele>1084.8</ele>
        <time>2018-11-26T05:02:36Z</time>
      </trkpt>
      <trkpt lat="42.42069" lon="2.74914">
        <ele>1084.3</ele>
        <time>2018-11-26T05:02:36Z</time>
      </trkpt>
      <trkpt lat="42.42069" lon="2.74914">
        <ele>1084.1</ele>
        <time>2018-11-26T05:02:36Z</time>
      </trkpt>
      <trkpt lat="42.42069" lon="2.74914">
        <ele>1084.1</ele>
        <time>2018-11-26T05:02:36Z</time>
      </trkpt>
      <trkpt lat="42.42069" lon="2.74914">
        <ele>1083.9</ele>
        <time>2018-11-26T05:02:36Z</time>
      </trkpt>
      <trkpt lat="42.42069" lon="2.74913">
        <ele>1083.8</ele>
        <time>2018-11-26T05:02:36Z</time>
      </trkpt>
      <trkpt lat="42.42069" lon="2.74913">
        <ele>1083.8</ele>
        <time>2018-11-26T05:02:36Z</time>
      </trkpt>
      <trkpt lat="42.42069" lon="2.74913">
        <ele>1083.8</ele>
        <time>2018-11-26T05:02:36Z</time>
      </trkpt>
      <trkpt lat="42.4207" lon="2.74913">
        <ele>1083.9</ele>
        <time>2018-11-26T05:02:36Z</time>
      </trkpt>
      <trkpt lat="42.4207" lon="2.74913">
        <ele>1084</ele>
        <time>2018-11-26T05:02:36Z</time>
      </trkpt>
      <trkpt lat="42.42071" lon="2.74913">
        <ele>1084.3</ele>
        <time>2018-11-26T05:02:36Z</time>
      </trkpt>
      <trkpt lat="42.42071" lon="2.74913">
        <ele>1084.4</ele>
        <time>2018-11-26T05:02:36Z</time>
      </trkpt>
      <trkpt lat="42.42071" lon="2.74913">
        <ele>1084.5</ele>
        <time>2018-11-26T05:02:37Z</time>
      </trkpt>
      <trkpt lat="42.4207" lon="2.74913">
        <ele>1084.5</ele>
        <time>2018-11-26T05:02:37Z</time>
      </trkpt>
      <trkpt lat="42.4207" lon="2.74913">
        <ele>1084.7</ele>
        <time>2018-11-26T05:02:37Z</time>
      </trkpt>
      <trkpt lat="42.4207" lon="2.74913">
        <ele>1084.5</ele>
        <time>2018-11-26T05:02:37Z</time>
      </trkpt>
      <trkpt lat="42.4207" lon="2.74913">
        <ele>1084.5</ele>
        <time>2018-11-26T05:02:37Z</time>
      </trkpt>
      <trkpt lat="42.4207" lon="2.74913">
        <ele>1084.2</ele>
        <time>2018-11-26T05:02:37Z</time>
      </trkpt>
      <trkpt lat="42.4207" lon="2.74913">
        <ele>1084.4</ele>
        <time>2018-11-26T05:02:37Z</time>
      </trkpt>
      <trkpt lat="42.42069" lon="2.74913">
        <ele>1084.7</ele>
        <time>2018-11-26T05:02:37Z</time>
      </trkpt>
      <trkpt lat="42.42069" lon="2.74913">
        <ele>1085</ele>
        <time>2018-11-26T05:02:37Z</time>
      </trkpt>
      <trkpt lat="42.42069" lon="2.74913">
        <ele>1084.9</ele>
        <time>2018-11-26T05:02:37Z</time>
      </trkpt>
      <trkpt lat="42.42069" lon="2.74913">
        <ele>1084.9</ele>
        <time>2018-11-26T05:02:37Z</time>
      </trkpt>
      <trkpt lat="42.42068" lon="2.74913">
        <ele>1085</ele>
        <time>2018-11-26T05:02:37Z</time>
      </trkpt>
      <trkpt lat="42.42068" lon="2.74913">
        <ele>1085</ele>
        <time>2018-11-26T05:02:37Z</time>
      </trkpt>
      <trkpt lat="42.42068" lon="2.74914">
        <ele>1085.1</ele>
        <time>2018-11-26T05:02:38Z</time>
      </trkpt>
      <trkpt lat="42.42068" lon="2.74914">
        <ele>1085.2</ele>
        <time>2018-11-26T05:02:38Z</time>
      </trkpt>
      <trkpt lat="42.42068" lon="2.74914">
        <ele>1085.1</ele>
        <time>2018-11-26T05:02:38Z</time>
      </trkpt>
      <trkpt lat="42.42068" lon="2.74914">
        <ele>1085.1</ele>
        <time>2018-11-26T05:02:38Z</time>
      </trkpt>
      <trkpt lat="42.42067" lon="2.74914">
        <ele>1085.2</ele>
        <time>2018-11-26T05:02:38Z</time>
      </trkpt>
      <trkpt lat="42.42067" lon="2.74914">
        <ele>1085.1</ele>
        <time>2018-11-26T05:02:38Z</time>
      </trkpt>
      <trkpt lat="42.42067" lon="2.74914">
        <ele>1084.8</ele>
        <time>2018-11-26T05:02:38Z</time>
      </trkpt>
      <trkpt lat="42.42067" lon="2.74914">
        <ele>1084.6</ele>
        <time>2018-11-26T05:02:38Z</time>
      </trkpt>
      <trkpt lat="42.42067" lon="2.74914">
        <ele>1084.1</ele>
        <time>2018-11-26T05:02:38Z</time>
      </trkpt>
      <trkpt lat="42.42067" lon="2.74914">
        <ele>1084.3</ele>
        <time>2018-11-26T05:02:38Z</time>
      </trkpt>
      <trkpt lat="42.42067" lon="2.74914">
        <ele>1084.6</ele>
        <time>2018-11-26T05:02:38Z</time>
      </trkpt>
      <trkpt lat="42.42067" lon="2.74913">
        <ele>1085</ele>
        <time>2018-11-26T05:02:38Z</time>
      </trkpt>
      <trkpt lat="42.42067" lon="2.74913">
        <ele>1085.2</ele>
        <time>2018-11-26T05:02:38Z</time>
      </trkpt>
      <trkpt lat="42.42067" lon="2.74913">
        <ele>1085.4</ele>
        <time>2018-11-26T05:02:38Z</time>
      </trkpt>
      <trkpt lat="42.42067" lon="2.74913">
        <ele>1085.8</ele>
        <time>2018-11-26T05:02:38Z</time>
      </trkpt>
      <trkpt lat="42.42067" lon="2.74913">
        <ele>1085.7</ele>
        <time>2018-11-26T05:02:38Z</time>
      </trkpt>
      <trkpt lat="42.42067" lon="2.74913">
        <ele>1085.5</ele>
        <time>2018-11-26T05:02:39Z</time>
      </trkpt>
      <trkpt lat="42.42067" lon="2.74913">
        <ele>1085.2</ele>
        <time>2018-11-26T05:02:39Z</time>
      </trkpt>
      <trkpt lat="42.42067" lon="2.74912">
        <ele>1085.2</ele>
        <time>2018-11-26T05:02:39Z</time>
      </trkpt>
      <trkpt lat="42.42067" lon="2.74912">
        <ele>1085.1</ele>
        <time>2018-11-26T05:02:39Z</time>
      </trkpt>
      <trkpt lat="42.42067" lon="2.74912">
        <ele>1085.1</ele>
        <time>2018-11-26T05:02:39Z</time>
      </trkpt>
      <trkpt lat="42.42067" lon="2.74912">
        <ele>1085.3</ele>
        <time>2018-11-26T05:02:39Z</time>
      </trkpt>
      <trkpt lat="42.42067" lon="2.74912">
        <ele>1085.7</ele>
        <time>2018-11-26T05:02:39Z</time>
      </trkpt>
      <trkpt lat="42.42067" lon="2.74912">
        <ele>1086.2</ele>
        <time>2018-11-26T05:02:39Z</time>
      </trkpt>
      <trkpt lat="42.42067" lon="2.74912">
        <ele>1086.3</ele>
        <time>2018-11-26T05:02:39Z</time>
      </trkpt>
      <trkpt lat="42.42067" lon="2.74912">
        <ele>1086.4</ele>
        <time>2018-11-26T05:02:39Z</time>
      </trkpt>
      <trkpt lat="42.42067" lon="2.74912">
        <ele>1086.5</ele>
        <time>2018-11-26T05:02:39Z</time>
      </trkpt>
      <trkpt lat="42.42067" lon="2.74912">
        <ele>1086.6</ele>
        <time>2018-11-26T05:02:39Z</time>
      </trkpt>
      <trkpt lat="42.42067" lon="2.74911">
        <ele>1086.3</ele>
        <time>2018-11-26T05:02:39Z</time>
      </trkpt>
      <trkpt lat="42.42068" lon="2.74911">
        <ele>1085.9</ele>
        <time>2018-11-26T05:02:39Z</time>
      </trkpt>
      <trkpt lat="42.42069" lon="2.74911">
        <ele>1085.4</ele>
        <time>2018-11-26T05:02:39Z</time>
      </trkpt>
      <trkpt lat="42.4207" lon="2.7491">
        <ele>1085.5</ele>
        <time>2018-11-26T05:02:40Z</time>
      </trkpt>
      <trkpt lat="42.42071" lon="2.7491">
        <ele>1085.6</ele>
        <time>2018-11-26T05:02:40Z</time>
      </trkpt>
      <trkpt lat="42.42071" lon="2.74909">
        <ele>1085.6</ele>
        <time>2018-11-26T05:02:41Z</time>
      </trkpt>
      <trkpt lat="42.42071" lon="2.74909">
        <ele>1085.8</ele>
        <time>2018-11-26T05:02:41Z</time>
      </trkpt>
      <trkpt lat="42.42072" lon="2.74909">
        <ele>1085.7</ele>
        <time>2018-11-26T05:02:41Z</time>
      </trkpt>
      <trkpt lat="42.42072" lon="2.74909">
        <ele>1085.8</ele>
        <time>2018-11-26T05:02:41Z</time>
      </trkpt>
      <trkpt lat="42.42073" lon="2.74909">
        <ele>1085.7</ele>
        <time>2018-11-26T05:02:41Z</time>
      </trkpt>
      <trkpt lat="42.42073" lon="2.74909">
        <ele>1085.5</ele>
        <time>2018-11-26T05:02:41Z</time>
      </trkpt>
      <trkpt lat="42.42073" lon="2.74908">
        <ele>1085.7</ele>
        <time>2018-11-26T05:02:41Z</time>
      </trkpt>
      <trkpt lat="42.42074" lon="2.74908">
        <ele>1085.8</ele>
        <time>2018-11-26T05:02:42Z</time>
      </trkpt>
      <trkpt lat="42.42074" lon="2.74908">
        <ele>1085.8</ele>
        <time>2018-11-26T05:02:42Z</time>
      </trkpt>
      <trkpt lat="42.42074" lon="2.74908">
        <ele>1086</ele>
        <time>2018-11-26T05:02:42Z</time>
      </trkpt>
      <trkpt lat="42.42074" lon="2.74908">
        <ele>1085.9</ele>
        <time>2018-11-26T05:02:42Z</time>
      </trkpt>
      <trkpt lat="42.42074" lon="2.74908">
        <ele>1085.7</ele>
        <time>2018-11-26T05:02:42Z</time>
      </trkpt>
      <trkpt lat="42.42074" lon="2.74908">
        <ele>1085.4</ele>
        <time>2018-11-26T05:02:42Z</time>
      </trkpt>
      <trkpt lat="42.42074" lon="2.74908">
        <ele>1085.4</ele>
        <time>2018-11-26T05:02:42Z</time>
      </trkpt>
      <trkpt lat="42.42074" lon="2.74908">
        <ele>1085.4</ele>
        <time>2018-11-26T05:02:42Z</time>
      </trkpt>
      <trkpt lat="42.42074" lon="2.74908">
        <ele>1085.4</ele>
        <time>2018-11-26T05:02:42Z</time>
      </trkpt>
      <trkpt lat="42.42075" lon="2.74907">
        <ele>1085.6</ele>
        <time>2018-11-26T05:02:42Z</time>
      </trkpt>
      <trkpt lat="42.42075" lon="2.74907">
        <ele>1085.7</ele>
        <time>2018-11-26T05:02:42Z</time>
      </trkpt>
      <trkpt lat="42.42075" lon="2.74907">
        <ele>1086.1</ele>
        <time>2018-11-26T05:02:42Z</time>
      </trkpt>
      <trkpt lat="42.42075" lon="2.74907">
        <ele>1086</ele>
        <time>2018-11-26T05:02:42Z</time>
      </trkpt>
      <trkpt lat="42.42075" lon="2.74907">
        <ele>1086</ele>
        <time>2018-11-26T05:02:42Z</time>
      </trkpt>
      <trkpt lat="42.42075" lon="2.74907">
        <ele>1085.9</ele>
        <time>2018-11-26T05:02:42Z</time>
      </trkpt>
      <trkpt lat="42.42075" lon="2.74907">
        <ele>1085.9</ele>
        <time>2018-11-26T05:02:42Z</time>
      </trkpt>
      <trkpt lat="42.42076" lon="2.74907">
        <ele>1086</ele>
        <time>2018-11-26T05:02:43Z</time>
      </trkpt>
      <trkpt lat="42.42076" lon="2.74907">
        <ele>1085.9</ele>
        <time>2018-11-26T05:02:43Z</time>
      </trkpt>
      <trkpt lat="42.42076" lon="2.74907">
        <ele>1086</ele>
        <time>2018-11-26T05:02:43Z</time>
      </trkpt>
      <trkpt lat="42.42076" lon="2.74907">
        <ele>1086</ele>
        <time>2018-11-26T05:02:43Z</time>
      </trkpt>
      <trkpt lat="42.42076" lon="2.74907">
        <ele>1086.1</ele>
        <time>2018-11-26T05:02:43Z</time>
      </trkpt>
      <trkpt lat="42.42076" lon="2.74906">
        <ele>1086</ele>
        <time>2018-11-26T05:02:43Z</time>
      </trkpt>
      <trkpt lat="42.42076" lon="2.74906">
        <ele>1086.1</ele>
        <time>2018-11-26T05:02:43Z</time>
      </trkpt>
      <trkpt lat="42.42076" lon="2.74906">
        <ele>1086.3</ele>
        <time>2018-11-26T05:02:43Z</time>
      </trkpt>
      <trkpt lat="42.42076" lon="2.74906">
        <ele>1086.5</ele>
        <time>2018-11-26T05:02:43Z</time>
      </trkpt>
      <trkpt lat="42.42076" lon="2.74906">
        <ele>1086.6</ele>
        <time>2018-11-26T05:02:43Z</time>
      </trkpt>
      <trkpt lat="42.42076" lon="2.74906">
        <ele>1086.5</ele>
        <time>2018-11-26T05:02:43Z</time>
      </trkpt>
      <trkpt lat="42.42076" lon="2.74906">
        <ele>1086.5</ele>
        <time>2018-11-26T05:02:43Z</time>
      </trkpt>
      <trkpt lat="42.42076" lon="2.74906">
        <ele>1086.4</ele>
        <time>2018-11-26T05:02:43Z</time>
      </trkpt>
      <trkpt lat="42.42076" lon="2.74906">
        <ele>1086.4</ele>
        <time>2018-11-26T05:02:43Z</time>
      </trkpt>
      <trkpt lat="42.42076" lon="2.74906">
        <ele>1086.2</ele>
        <time>2018-11-26T05:02:43Z</time>
      </trkpt>
      <trkpt lat="42.42076" lon="2.74906">
        <ele>1086.2</ele>
        <time>2018-11-26T05:02:43Z</time>
      </trkpt>
      <trkpt lat="42.42077" lon="2.74906">
        <ele>1086.2</ele>
        <time>2018-11-26T05:02:43Z</time>
      </trkpt>
      <trkpt lat="42.42077" lon="2.74907">
        <ele>1086.2</ele>
        <time>2018-11-26T05:02:43Z</time>
      </trkpt>
      <trkpt lat="42.42077" lon="2.74907">
        <ele>1086.3</ele>
        <time>2018-11-26T05:02:43Z</time>
      </trkpt>
      <trkpt lat="42.42077" lon="2.74907">
        <ele>1086.2</ele>
        <time>2018-11-26T05:02:43Z</time>
      </trkpt>
      <trkpt lat="42.42077" lon="2.74907">
        <ele>1086.2</ele>
        <time>2018-11-26T05:02:43Z</time>
      </trkpt>
      <trkpt lat="42.42077" lon="2.74907">
        <ele>1086.1</ele>
        <time>2018-11-26T05:02:44Z</time>
      </trkpt>
      <trkpt lat="42.42077" lon="2.74907">
        <ele>1086</ele>
        <time>2018-11-26T05:02:44Z</time>
      </trkpt>
      <trkpt lat="42.42077" lon="2.74907">
        <ele>1085.7</ele>
        <time>2018-11-26T05:02:44Z</time>
      </trkpt>
      <trkpt lat="42.42077" lon="2.74907">
        <ele>1085.8</ele>
        <time>2018-11-26T05:02:44Z</time>
      </trkpt>
      <trkpt lat="42.42077" lon="2.74907">
        <ele>1085.8</ele>
        <time>2018-11-26T05:02:44Z</time>
      </trkpt>
      <trkpt lat="42.42077" lon="2.74907">
        <ele>1085.8</ele>
        <time>2018-11-26T05:02:44Z</time>
      </trkpt>
      <trkpt lat="42.42077" lon="2.74907">
        <ele>1085.9</ele>
        <time>2018-11-26T05:02:44Z</time>
      </trkpt>
      <trkpt lat="42.42077" lon="2.74907">
        <ele>1085.8</ele>
        <time>2018-11-26T05:02:44Z</time>
      </trkpt>
      <trkpt lat="42.42077" lon="2.74907">
        <ele>1085.4</ele>
        <time>2018-11-26T05:02:44Z</time>
      </trkpt>
      <trkpt lat="42.42077" lon="2.74907">
        <ele>1085.1</ele>
        <time>2018-11-26T05:02:44Z</time>
      </trkpt>
      <trkpt lat="42.42077" lon="2.74907">
        <ele>1085.3</ele>
        <time>2018-11-26T05:02:44Z</time>
      </trkpt>
      <trkpt lat="42.42077" lon="2.74907">
        <ele>1085.4</ele>
        <time>2018-11-26T05:02:44Z</time>
      </trkpt>
      <trkpt lat="42.42077" lon="2.74907">
        <ele>1085.6</ele>
        <time>2018-11-26T05:02:44Z</time>
      </trkpt>
      <trkpt lat="42.42077" lon="2.74907">
        <ele>1085.5</ele>
        <time>2018-11-26T05:02:44Z</time>
      </trkpt>
      <trkpt lat="42.42077" lon="2.74908">
        <ele>1085.3</ele>
        <time>2018-11-26T05:02:44Z</time>
      </trkpt>
      <trkpt lat="42.42077" lon="2.74908">
        <ele>1085.2</ele>
        <time>2018-11-26T05:02:44Z</time>
      </trkpt>
      <trkpt lat="42.42076" lon="2.74908">
        <ele>1085.6</ele>
        <time>2018-11-26T05:02:44Z</time>
      </trkpt>
      <trkpt lat="42.42076" lon="2.74908">
        <ele>1086.2</ele>
        <time>2018-11-26T05:02:44Z</time>
      </trkpt>
      <trkpt lat="42.42076" lon="2.74908">
        <ele>1086.8</ele>
        <time>2018-11-26T05:02:44Z</time>
      </trkpt>
      <trkpt lat="42.42076" lon="2.74908">
        <ele>1086.9</ele>
        <time>2018-11-26T05:02:45Z</time>
      </trkpt>
      <trkpt lat="42.42076" lon="2.74908">
        <ele>1086.8</ele>
        <time>2018-11-26T05:02:45Z</time>
      </trkpt>
      <trkpt lat="42.42076" lon="2.74908">
        <ele>1086.8</ele>
        <time>2018-11-26T05:02:45Z</time>
      </trkpt>
      <trkpt lat="42.42076" lon="2.74908">
        <ele>1086.8</ele>
        <time>2018-11-26T05:02:45Z</time>
      </trkpt>
      <trkpt lat="42.42076" lon="2.74908">
        <ele>1086.7</ele>
        <time>2018-11-26T05:02:45Z</time>
      </trkpt>
      <trkpt lat="42.42076" lon="2.74908">
        <ele>1086.6</ele>
        <time>2018-11-26T05:02:45Z</time>
      </trkpt>
      <trkpt lat="42.42075" lon="2.74908">
        <ele>1086.4</ele>
        <time>2018-11-26T05:02:45Z</time>
      </trkpt>
      <trkpt lat="42.42075" lon="2.74908">
        <ele>1086.3</ele>
        <time>2018-11-26T05:02:45Z</time>
      </trkpt>
      <trkpt lat="42.42075" lon="2.74908">
        <ele>1086.1</ele>
        <time>2018-11-26T05:02:45Z</time>
      </trkpt>
      <trkpt lat="42.42075" lon="2.74908">
        <ele>1085.8</ele>
        <time>2018-11-26T05:02:45Z</time>
      </trkpt>
      <trkpt lat="42.42076" lon="2.74908">
        <ele>1085.8</ele>
        <time>2018-11-26T05:02:45Z</time>
      </trkpt>
      <trkpt lat="42.42076" lon="2.74908">
        <ele>1086</ele>
        <time>2018-11-26T05:02:45Z</time>
      </trkpt>
      <trkpt lat="42.42076" lon="2.74908">
        <ele>1086.2</ele>
        <time>2018-11-26T05:02:45Z</time>
      </trkpt>
      <trkpt lat="42.42076" lon="2.74908">
        <ele>1086.1</ele>
        <time>2018-11-26T05:02:45Z</time>
      </trkpt>
      <trkpt lat="42.42076" lon="2.74908">
        <ele>1086.1</ele>
        <time>2018-11-26T05:02:45Z</time>
      </trkpt>
      <trkpt lat="42.42076" lon="2.74908">
        <ele>1086.1</ele>
        <time>2018-11-26T05:02:45Z</time>
      </trkpt>
      <trkpt lat="42.42076" lon="2.74909">
        <ele>1086.2</ele>
        <time>2018-11-26T05:02:45Z</time>
      </trkpt>
      <trkpt lat="42.42076" lon="2.74909">
        <ele>1086.4</ele>
        <time>2018-11-26T05:02:45Z</time>
      </trkpt>
      <trkpt lat="42.42076" lon="2.74909">
        <ele>1086.6</ele>
        <time>2018-11-26T05:02:45Z</time>
      </trkpt>
      <trkpt lat="42.42075" lon="2.74909">
        <ele>1086.6</ele>
        <time>2018-11-26T05:02:45Z</time>
      </trkpt>
      <trkpt lat="42.42075" lon="2.74909">
        <ele>1086.5</ele>
        <time>2018-11-26T05:02:46Z</time>
      </trkpt>
      <trkpt lat="42.42075" lon="2.74909">
        <ele>1086.4</ele>
        <time>2018-11-26T05:02:46Z</time>
      </trkpt>
      <trkpt lat="42.42074" lon="2.74909">
        <ele>1086.2</ele>
        <time>2018-11-26T05:02:46Z</time>
      </trkpt>
      <trkpt lat="42.42074" lon="2.74909">
        <ele>1086</ele>
        <time>2018-11-26T05:02:46Z</time>
      </trkpt>
      <trkpt lat="42.42074" lon="2.74909">
        <ele>1085.8</ele>
        <time>2018-11-26T05:02:46Z</time>
      </trkpt>
      <trkpt lat="42.42074" lon="2.74909">
        <ele>1085.7</ele>
        <time>2018-11-26T05:02:46Z</time>
      </trkpt>
      <trkpt lat="42.42074" lon="2.74909">
        <ele>1085.7</ele>
        <time>2018-11-26T05:02:46Z</time>
      </trkpt>
      <trkpt lat="42.42074" lon="2.74909">
        <ele>1085.9</ele>
        <time>2018-11-26T05:02:46Z</time>
      </trkpt>
      <trkpt lat="42.42074" lon="2.74909">
        <ele>1086.2</ele>
        <time>2018-11-26T05:02:46Z</time>
      </trkpt>
      <trkpt lat="42.42074" lon="2.74909">
        <ele>1086.1</ele>
        <time>2018-11-26T05:02:46Z</time>
      </trkpt>
      <trkpt lat="42.42074" lon="2.74909">
        <ele>1086.2</ele>
        <time>2018-11-26T05:02:46Z</time>
      </trkpt>
      <trkpt lat="42.42074" lon="2.74909">
        <ele>1086.2</ele>
        <time>2018-11-26T05:02:46Z</time>
      </trkpt>
      <trkpt lat="42.42074" lon="2.74909">
        <ele>1086.2</ele>
        <time>2018-11-26T05:02:46Z</time>
      </trkpt>
      <trkpt lat="42.42074" lon="2.74909">
        <ele>1086</ele>
        <time>2018-11-26T05:02:46Z</time>
      </trkpt>
      <trkpt lat="42.42074" lon="2.74909">
        <ele>1085.9</ele>
        <time>2018-11-26T05:02:46Z</time>
      </trkpt>
      <trkpt lat="42.42074" lon="2.74909">
        <ele>1085.9</ele>
        <time>2018-11-26T05:02:46Z</time>
      </trkpt>
      <trkpt lat="42.42073" lon="2.74909">
        <ele>1086</ele>
        <time>2018-11-26T05:02:46Z</time>
      </trkpt>
      <trkpt lat="42.42073" lon="2.74909">
        <ele>1086</ele>
        <time>2018-11-26T05:02:46Z</time>
      </trkpt>
      <trkpt lat="42.42073" lon="2.74909">
        <ele>1086.1</ele>
        <time>2018-11-26T05:02:46Z</time>
      </trkpt>
      <trkpt lat="42.42073" lon="2.74909">
        <ele>1086.1</ele>
        <time>2018-11-26T05:02:47Z</time>
      </trkpt>
      <trkpt lat="42.42073" lon="2.74909">
        <ele>1086</ele>
        <time>2018-11-26T05:02:47Z</time>
      </trkpt>
      <trkpt lat="42.42073" lon="2.74909">
        <ele>1085.7</ele>
        <time>2018-11-26T05:02:47Z</time>
      </trkpt>
      <trkpt lat="42.42073" lon="2.74908">
        <ele>1085.8</ele>
        <time>2018-11-26T05:02:47Z</time>
      </trkpt>
      <trkpt lat="42.42073" lon="2.74908">
        <ele>1085.7</ele>
        <time>2018-11-26T05:02:47Z</time>
      </trkpt>
      <trkpt lat="42.42073" lon="2.74908">
        <ele>1085.8</ele>
        <time>2018-11-26T05:02:47Z</time>
      </trkpt>
      <trkpt lat="42.42074" lon="2.74908">
        <ele>1085.9</ele>
        <time>2018-11-26T05:02:47Z</time>
      </trkpt>
      <trkpt lat="42.42074" lon="2.74908">
        <ele>1086</ele>
        <time>2018-11-26T05:02:47Z</time>
      </trkpt>
      <trkpt lat="42.42074" lon="2.74908">
        <ele>1086.2</ele>
        <time>2018-11-26T05:02:47Z</time>
      </trkpt>
      <trkpt lat="42.42074" lon="2.74908">
        <ele>1086.5</ele>
        <time>2018-11-26T05:02:47Z</time>
      </trkpt>
      <trkpt lat="42.42074" lon="2.74908">
        <ele>1086.6</ele>
        <time>2018-11-26T05:02:47Z</time>
      </trkpt>
      <trkpt lat="42.42074" lon="2.74907">
        <ele>1087</ele>
        <time>2018-11-26T05:02:47Z</time>
      </trkpt>
      <trkpt lat="42.42074" lon="2.74907">
        <ele>1087</ele>
        <time>2018-11-26T05:02:47Z</time>
      </trkpt>
      <trkpt lat="42.42075" lon="2.74907">
        <ele>1086.9</ele>
        <time>2018-11-26T05:02:48Z</time>
      </trkpt>
      <trkpt lat="42.42075" lon="2.74907">
        <ele>1086.8</ele>
        <time>2018-11-26T05:02:48Z</time>
      </trkpt>
      <trkpt lat="42.42075" lon="2.74907">
        <ele>1086.8</ele>
        <time>2018-11-26T05:02:48Z</time>
      </trkpt>
      <trkpt lat="42.42075" lon="2.74907">
        <ele>1086.7</ele>
        <time>2018-11-26T05:02:48Z</time>
      </trkpt>
      <trkpt lat="42.42075" lon="2.74907">
        <ele>1086.5</ele>
        <time>2018-11-26T05:02:48Z</time>
      </trkpt>
      <trkpt lat="42.42075" lon="2.74907">
        <ele>1086.4</ele>
        <time>2018-11-26T05:02:48Z</time>
      </trkpt>
      <trkpt lat="42.42075" lon="2.74907">
        <ele>1086.5</ele>
        <time>2018-11-26T05:02:48Z</time>
      </trkpt>
      <trkpt lat="42.42076" lon="2.74906">
        <ele>1086.8</ele>
        <time>2018-11-26T05:02:48Z</time>
      </trkpt>
      <trkpt lat="42.42076" lon="2.74906">
        <ele>1086.9</ele>
        <time>2018-11-26T05:02:48Z</time>
      </trkpt>
      <trkpt lat="42.42076" lon="2.74906">
        <ele>1086.9</ele>
        <time>2018-11-26T05:02:48Z</time>
      </trkpt>
      <trkpt lat="42.42076" lon="2.74906">
        <ele>1086.7</ele>
        <time>2018-11-26T05:02:48Z</time>
      </trkpt>
      <trkpt lat="42.42076" lon="2.74906">
        <ele>1086.7</ele>
        <time>2018-11-26T05:02:48Z</time>
      </trkpt>
      <trkpt lat="42.42076" lon="2.74906">
        <ele>1086.6</ele>
        <time>2018-11-26T05:02:48Z</time>
      </trkpt>
      <trkpt lat="42.42076" lon="2.74906">
        <ele>1086.6</ele>
        <time>2018-11-26T05:02:48Z</time>
      </trkpt>
      <trkpt lat="42.42076" lon="2.74906">
        <ele>1086.5</ele>
        <time>2018-11-26T05:02:48Z</time>
      </trkpt>
      <trkpt lat="42.42075" lon="2.74906">
        <ele>1086.6</ele>
        <time>2018-11-26T05:02:49Z</time>
      </trkpt>
      <trkpt lat="42.42075" lon="2.74906">
        <ele>1086.9</ele>
        <time>2018-11-26T05:02:49Z</time>
      </trkpt>
      <trkpt lat="42.42075" lon="2.74906">
        <ele>1087</ele>
        <time>2018-11-26T05:02:49Z</time>
      </trkpt>
      <trkpt lat="42.42075" lon="2.74906">
        <ele>1087</ele>
        <time>2018-11-26T05:02:49Z</time>
      </trkpt>
      <trkpt lat="42.42075" lon="2.74906">
        <ele>1086.9</ele>
        <time>2018-11-26T05:02:49Z</time>
      </trkpt>
      <trkpt lat="42.42075" lon="2.74906">
        <ele>1087</ele>
        <time>2018-11-26T05:02:49Z</time>
      </trkpt>
      <trkpt lat="42.42075" lon="2.74906">
        <ele>1086.8</ele>
        <time>2018-11-26T05:02:49Z</time>
      </trkpt>
      <trkpt lat="42.42075" lon="2.74906">
        <ele>1086.8</ele>
        <time>2018-11-26T05:02:49Z</time>
      </trkpt>
      <trkpt lat="42.42075" lon="2.74906">
        <ele>1086.6</ele>
        <time>2018-11-26T05:02:49Z</time>
      </trkpt>
      <trkpt lat="42.42074" lon="2.74906">
        <ele>1086.4</ele>
        <time>2018-11-26T05:02:49Z</time>
      </trkpt>
      <trkpt lat="42.42074" lon="2.74906">
        <ele>1086.5</ele>
        <time>2018-11-26T05:02:49Z</time>
      </trkpt>
      <trkpt lat="42.42074" lon="2.74906">
        <ele>1086.6</ele>
        <time>2018-11-26T05:02:49Z</time>
      </trkpt>
      <trkpt lat="42.42074" lon="2.74906">
        <ele>1086.9</ele>
        <time>2018-11-26T05:02:49Z</time>
      </trkpt>
      <trkpt lat="42.42074" lon="2.74906">
        <ele>1086.8</ele>
        <time>2018-11-26T05:02:49Z</time>
      </trkpt>
      <trkpt lat="42.42074" lon="2.74906">
        <ele>1086.9</ele>
        <time>2018-11-26T05:02:49Z</time>
      </trkpt>
      <trkpt lat="42.42074" lon="2.74906">
        <ele>1086.7</ele>
        <time>2018-11-26T05:02:49Z</time>
      </trkpt>
      <trkpt lat="42.42074" lon="2.74906">
        <ele>1086.9</ele>
        <time>2018-11-26T05:02:49Z</time>
      </trkpt>
      <trkpt lat="42.42074" lon="2.74906">
        <ele>1087</ele>
        <time>2018-11-26T05:02:49Z</time>
      </trkpt>
      <trkpt lat="42.42074" lon="2.74906">
        <ele>1087.4</ele>
        <time>2018-11-26T05:02:49Z</time>
      </trkpt>
      <trkpt lat="42.42074" lon="2.74906">
        <ele>1087.3</ele>
        <time>2018-11-26T05:02:49Z</time>
      </trkpt>
      <trkpt lat="42.42074" lon="2.74906">
        <ele>1087.4</ele>
        <time>2018-11-26T05:02:49Z</time>
      </trkpt>
      <trkpt lat="42.42073" lon="2.74906">
        <ele>1087.5</ele>
        <time>2018-11-26T05:02:50Z</time>
      </trkpt>
      <trkpt lat="42.42073" lon="2.74906">
        <ele>1087.5</ele>
        <time>2018-11-26T05:02:50Z</time>
      </trkpt>
      <trkpt lat="42.42073" lon="2.74907">
        <ele>1087.4</ele>
        <time>2018-11-26T05:02:50Z</time>
      </trkpt>
      <trkpt lat="42.42073" lon="2.74907">
        <ele>1087.4</ele>
        <time>2018-11-26T05:02:50Z</time>
      </trkpt>
      <trkpt lat="42.42073" lon="2.74907">
        <ele>1087.3</ele>
        <time>2018-11-26T05:02:50Z</time>
      </trkpt>
      <trkpt lat="42.42073" lon="2.74906">
        <ele>1087.1</ele>
        <time>2018-11-26T05:02:50Z</time>
      </trkpt>
      <trkpt lat="42.42073" lon="2.74906">
        <ele>1086.9</ele>
        <time>2018-11-26T05:02:50Z</time>
      </trkpt>
      <trkpt lat="42.42073" lon="2.74906">
        <ele>1086.5</ele>
        <time>2018-11-26T05:02:50Z</time>
      </trkpt>
      <trkpt lat="42.42073" lon="2.74906">
        <ele>1086.6</ele>
        <time>2018-11-26T05:02:50Z</time>
      </trkpt>
      <trkpt lat="42.42073" lon="2.74906">
        <ele>1086.8</ele>
        <time>2018-11-26T05:02:50Z</time>
      </trkpt>
      <trkpt lat="42.42073" lon="2.74906">
        <ele>1087</ele>
        <time>2018-11-26T05:02:50Z</time>
      </trkpt>
      <trkpt lat="42.42073" lon="2.74906">
        <ele>1087.2</ele>
        <time>2018-11-26T05:02:50Z</time>
      </trkpt>
      <trkpt lat="42.42073" lon="2.74905">
        <ele>1087.2</ele>
        <time>2018-11-26T05:02:50Z</time>
      </trkpt>
      <trkpt lat="42.42074" lon="2.74905">
        <ele>1087.3</ele>
        <time>2018-11-26T05:02:50Z</time>
      </trkpt>
      <trkpt lat="42.42074" lon="2.74905">
        <ele>1087.3</ele>
        <time>2018-11-26T05:02:50Z</time>
      </trkpt>
      <trkpt lat="42.42074" lon="2.74905">
        <ele>1087.2</ele>
        <time>2018-11-26T05:02:51Z</time>
      </trkpt>
      <trkpt lat="42.42074" lon="2.74905">
        <ele>1087.1</ele>
        <time>2018-11-26T05:02:51Z</time>
      </trkpt>
      <trkpt lat="42.42075" lon="2.74905">
        <ele>1087.1</ele>
        <time>2018-11-26T05:02:51Z</time>
      </trkpt>
      <trkpt lat="42.42075" lon="2.74904">
        <ele>1086.9</ele>
        <time>2018-11-26T05:02:51Z</time>
      </trkpt>
      <trkpt lat="42.42075" lon="2.74904">
        <ele>1086.7</ele>
        <time>2018-11-26T05:02:51Z</time>
      </trkpt>
      <trkpt lat="42.42075" lon="2.74904">
        <ele>1086.6</ele>
        <time>2018-11-26T05:02:51Z</time>
      </trkpt>
      <trkpt lat="42.42075" lon="2.74904">
        <ele>1086.6</ele>
        <time>2018-11-26T05:02:51Z</time>
      </trkpt>
      <trkpt lat="42.42076" lon="2.74903">
        <ele>1086.3</ele>
        <time>2018-11-26T05:02:51Z</time>
      </trkpt>
      <trkpt lat="42.42076" lon="2.74903">
        <ele>1086</ele>
        <time>2018-11-26T05:02:51Z</time>
      </trkpt>
      <trkpt lat="42.42076" lon="2.74903">
        <ele>1086.2</ele>
        <time>2018-11-26T05:02:51Z</time>
      </trkpt>
      <trkpt lat="42.42076" lon="2.74903">
        <ele>1086.2</ele>
        <time>2018-11-26T05:02:51Z</time>
      </trkpt>
      <trkpt lat="42.42076" lon="2.74903">
        <ele>1086.2</ele>
        <time>2018-11-26T05:02:51Z</time>
      </trkpt>
      <trkpt lat="42.42076" lon="2.74903">
        <ele>1086.1</ele>
        <time>2018-11-26T05:02:51Z</time>
      </trkpt>
      <trkpt lat="42.42076" lon="2.74903">
        <ele>1086.1</ele>
        <time>2018-11-26T05:02:52Z</time>
      </trkpt>
      <trkpt lat="42.42076" lon="2.74903">
        <ele>1086</ele>
        <time>2018-11-26T05:02:52Z</time>
      </trkpt>
      <trkpt lat="42.42076" lon="2.74903">
        <ele>1086.2</ele>
        <time>2018-11-26T05:02:52Z</time>
      </trkpt>
      <trkpt lat="42.42076" lon="2.74903">
        <ele>1086.6</ele>
        <time>2018-11-26T05:02:52Z</time>
      </trkpt>
      <trkpt lat="42.42076" lon="2.74903">
        <ele>1086.9</ele>
        <time>2018-11-26T05:02:52Z</time>
      </trkpt>
      <trkpt lat="42.42076" lon="2.74903">
        <ele>1087</ele>
        <time>2018-11-26T05:02:52Z</time>
      </trkpt>
      <trkpt lat="42.42076" lon="2.74903">
        <ele>1087</ele>
        <time>2018-11-26T05:02:52Z</time>
      </trkpt>
      <trkpt lat="42.42076" lon="2.74903">
        <ele>1087.1</ele>
        <time>2018-11-26T05:02:52Z</time>
      </trkpt>
      <trkpt lat="42.42076" lon="2.74903">
        <ele>1087.1</ele>
        <time>2018-11-26T05:02:52Z</time>
      </trkpt>
      <trkpt lat="42.42076" lon="2.74903">
        <ele>1087.1</ele>
        <time>2018-11-26T05:02:52Z</time>
      </trkpt>
      <trkpt lat="42.42076" lon="2.74903">
        <ele>1087.1</ele>
        <time>2018-11-26T05:02:52Z</time>
      </trkpt>
      <trkpt lat="42.42076" lon="2.74903">
        <ele>1087</ele>
        <time>2018-11-26T05:02:52Z</time>
      </trkpt>
      <trkpt lat="42.42076" lon="2.74903">
        <ele>1087</ele>
        <time>2018-11-26T05:02:52Z</time>
      </trkpt>
      <trkpt lat="42.42077" lon="2.74903">
        <ele>1086.7</ele>
        <time>2018-11-26T05:02:52Z</time>
      </trkpt>
      <trkpt lat="42.42077" lon="2.74903">
        <ele>1086.6</ele>
        <time>2018-11-26T05:02:52Z</time>
      </trkpt>
      <trkpt lat="42.42077" lon="2.74903">
        <ele>1086.7</ele>
        <time>2018-11-26T05:02:52Z</time>
      </trkpt>
      <trkpt lat="42.42077" lon="2.74903">
        <ele>1087.1</ele>
        <time>2018-11-26T05:02:52Z</time>
      </trkpt>
      <trkpt lat="42.42077" lon="2.74903">
        <ele>1087.5</ele>
        <time>2018-11-26T05:02:52Z</time>
      </trkpt>
      <trkpt lat="42.42077" lon="2.74903">
        <ele>1087.3</ele>
        <time>2018-11-26T05:02:52Z</time>
      </trkpt>
      <trkpt lat="42.42077" lon="2.74903">
        <ele>1087</ele>
        <time>2018-11-26T05:02:53Z</time>
      </trkpt>
      <trkpt lat="42.42077" lon="2.74903">
        <ele>1086.5</ele>
        <time>2018-11-26T05:02:53Z</time>
      </trkpt>
      <trkpt lat="42.42078" lon="2.74902">
        <ele>1086.5</ele>
        <time>2018-11-26T05:02:53Z</time>
      </trkpt>
      <trkpt lat="42.42078" lon="2.74902">
        <ele>1086.6</ele>
        <time>2018-11-26T05:02:53Z</time>
      </trkpt>
      <trkpt lat="42.42078" lon="2.74902">
        <ele>1086.5</ele>
        <time>2018-11-26T05:02:53Z</time>
      </trkpt>
      <trkpt lat="42.42079" lon="2.74902">
        <ele>1086.7</ele>
        <time>2018-11-26T05:02:53Z</time>
      </trkpt>
      <trkpt lat="42.42079" lon="2.74902">
        <ele>1086.7</ele>
        <time>2018-11-26T05:02:53Z</time>
      </trkpt>
      <trkpt lat="42.42079" lon="2.74901">
        <ele>1086.6</ele>
        <time>2018-11-26T05:02:53Z</time>
      </trkpt>
      <trkpt lat="42.42079" lon="2.74901">
        <ele>1086.6</ele>
        <time>2018-11-26T05:02:53Z</time>
      </trkpt>
      <trkpt lat="42.42079" lon="2.74901">
        <ele>1086.5</ele>
        <time>2018-11-26T05:02:53Z</time>
      </trkpt>
      <trkpt lat="42.42079" lon="2.74901">
        <ele>1086.6</ele>
        <time>2018-11-26T05:02:53Z</time>
      </trkpt>
      <trkpt lat="42.42079" lon="2.74901">
        <ele>1086.4</ele>
        <time>2018-11-26T05:02:53Z</time>
      </trkpt>
      <trkpt lat="42.42079" lon="2.74901">
        <ele>1086.4</ele>
        <time>2018-11-26T05:02:53Z</time>
      </trkpt>
      <trkpt lat="42.42079" lon="2.74902">
        <ele>1086.4</ele>
        <time>2018-11-26T05:02:53Z</time>
      </trkpt>
      <trkpt lat="42.42078" lon="2.74902">
        <ele>1086.3</ele>
        <time>2018-11-26T05:02:54Z</time>
      </trkpt>
      <trkpt lat="42.42078" lon="2.74902">
        <ele>1086.5</ele>
        <time>2018-11-26T05:02:54Z</time>
      </trkpt>
      <trkpt lat="42.42078" lon="2.74902">
        <ele>1086.9</ele>
        <time>2018-11-26T05:02:54Z</time>
      </trkpt>
      <trkpt lat="42.42078" lon="2.74902">
        <ele>1087.2</ele>
        <time>2018-11-26T05:02:54Z</time>
      </trkpt>
      <trkpt lat="42.42078" lon="2.74902">
        <ele>1087.6</ele>
        <time>2018-11-26T05:02:54Z</time>
      </trkpt>
      <trkpt lat="42.42077" lon="2.74902">
        <ele>1088</ele>
        <time>2018-11-26T05:02:54Z</time>
      </trkpt>
      <trkpt lat="42.42077" lon="2.74902">
        <ele>1088.7</ele>
        <time>2018-11-26T05:02:54Z</time>
      </trkpt>
      <trkpt lat="42.42077" lon="2.74902">
        <ele>1088.6</ele>
        <time>2018-11-26T05:02:54Z</time>
      </trkpt>
      <trkpt lat="42.42077" lon="2.74902">
        <ele>1088.6</ele>
        <time>2018-11-26T05:02:54Z</time>
      </trkpt>
      <trkpt lat="42.42077" lon="2.74902">
        <ele>1088.5</ele>
        <time>2018-11-26T05:02:54Z</time>
      </trkpt>
      <trkpt lat="42.42077" lon="2.74902">
        <ele>1088.4</ele>
        <time>2018-11-26T05:02:54Z</time>
      </trkpt>
      <trkpt lat="42.42077" lon="2.74902">
        <ele>1088.2</ele>
        <time>2018-11-26T05:02:54Z</time>
      </trkpt>
      <trkpt lat="42.42077" lon="2.74902">
        <ele>1088.1</ele>
        <time>2018-11-26T05:02:54Z</time>
      </trkpt>
      <trkpt lat="42.42077" lon="2.74902">
        <ele>1087.8</ele>
        <time>2018-11-26T05:02:54Z</time>
      </trkpt>
      <trkpt lat="42.42077" lon="2.74902">
        <ele>1087.8</ele>
        <time>2018-11-26T05:02:54Z</time>
      </trkpt>
      <trkpt lat="42.42077" lon="2.74902">
        <ele>1087.6</ele>
        <time>2018-11-26T05:02:54Z</time>
      </trkpt>
      <trkpt lat="42.42077" lon="2.74902">
        <ele>1087.3</ele>
        <time>2018-11-26T05:02:54Z</time>
      </trkpt>
      <trkpt lat="42.42077" lon="2.74902">
        <ele>1087.2</ele>
        <time>2018-11-26T05:02:54Z</time>
      </trkpt>
      <trkpt lat="42.42077" lon="2.74902">
        <ele>1087</ele>
        <time>2018-11-26T05:02:54Z</time>
      </trkpt>
      <trkpt lat="42.42077" lon="2.74902">
        <ele>1086.8</ele>
        <time>2018-11-26T05:02:54Z</time>
      </trkpt>
      <trkpt lat="42.42077" lon="2.74902">
        <ele>1086.9</ele>
        <time>2018-11-26T05:02:54Z</time>
      </trkpt>
      <trkpt lat="42.42077" lon="2.74902">
        <ele>1087.1</ele>
        <time>2018-11-26T05:02:54Z</time>
      </trkpt>
      <trkpt lat="42.42077" lon="2.74902">
        <ele>1087.3</ele>
        <time>2018-11-26T05:02:54Z</time>
      </trkpt>
      <trkpt lat="42.42077" lon="2.74902">
        <ele>1087.2</ele>
        <time>2018-11-26T05:02:54Z</time>
      </trkpt>
      <trkpt lat="42.42077" lon="2.74902">
        <ele>1087.1</ele>
        <time>2018-11-26T05:02:54Z</time>
      </trkpt>
      <trkpt lat="42.42077" lon="2.74902">
        <ele>1087</ele>
        <time>2018-11-26T05:02:54Z</time>
      </trkpt>
      <trkpt lat="42.42077" lon="2.74902">
        <ele>1087.1</ele>
        <time>2018-11-26T05:02:54Z</time>
      </trkpt>
      <trkpt lat="42.42077" lon="2.74902">
        <ele>1087.3</ele>
        <time>2018-11-26T05:02:54Z</time>
      </trkpt>
      <trkpt lat="42.42077" lon="2.74902">
        <ele>1087.5</ele>
        <time>2018-11-26T05:02:54Z</time>
      </trkpt>
      <trkpt lat="42.42077" lon="2.74902">
        <ele>1087.6</ele>
        <time>2018-11-26T05:02:54Z</time>
      </trkpt>
      <trkpt lat="42.42077" lon="2.74902">
        <ele>1087.5</ele>
        <time>2018-11-26T05:02:55Z</time>
      </trkpt>
      <trkpt lat="42.42077" lon="2.74902">
        <ele>1087.4</ele>
        <time>2018-11-26T05:02:55Z</time>
      </trkpt>
      <trkpt lat="42.42077" lon="2.74903">
        <ele>1087.3</ele>
        <time>2018-11-26T05:02:55Z</time>
      </trkpt>
      <trkpt lat="42.42077" lon="2.74903">
        <ele>1087.1</ele>
        <time>2018-11-26T05:02:55Z</time>
      </trkpt>
      <trkpt lat="42.42077" lon="2.74903">
        <ele>1086.9</ele>
        <time>2018-11-26T05:02:55Z</time>
      </trkpt>
      <trkpt lat="42.42077" lon="2.74903">
        <ele>1086.6</ele>
        <time>2018-11-26T05:02:55Z</time>
      </trkpt>
      <trkpt lat="42.42078" lon="2.74903">
        <ele>1086.9</ele>
        <time>2018-11-26T05:02:55Z</time>
      </trkpt>
      <trkpt lat="42.42078" lon="2.74903">
        <ele>1087.2</ele>
        <time>2018-11-26T05:02:55Z</time>
      </trkpt>
      <trkpt lat="42.42078" lon="2.74903">
        <ele>1087.6</ele>
        <time>2018-11-26T05:02:55Z</time>
      </trkpt>
      <trkpt lat="42.42078" lon="2.74903">
        <ele>1087.6</ele>
        <time>2018-11-26T05:02:55Z</time>
      </trkpt>
      <trkpt lat="42.42079" lon="2.74903">
        <ele>1087.6</ele>
        <time>2018-11-26T05:02:55Z</time>
      </trkpt>
      <trkpt lat="42.42079" lon="2.74904">
        <ele>1087.5</ele>
        <time>2018-11-26T05:02:55Z</time>
      </trkpt>
      <trkpt lat="42.42079" lon="2.74903">
        <ele>1087.6</ele>
        <time>2018-11-26T05:02:55Z</time>
      </trkpt>
      <trkpt lat="42.42078" lon="2.74903">
        <ele>1087.8</ele>
        <time>2018-11-26T05:02:56Z</time>
      </trkpt>
      <trkpt lat="42.42078" lon="2.74903">
        <ele>1088.1</ele>
        <time>2018-11-26T05:02:56Z</time>
      </trkpt>
      <trkpt lat="42.42078" lon="2.74903">
        <ele>1088</ele>
        <time>2018-11-26T05:02:56Z</time>
      </trkpt>
      <trkpt lat="42.42077" lon="2.74902">
        <ele>1087.9</ele>
        <time>2018-11-26T05:02:56Z</time>
      </trkpt>
      <trkpt lat="42.42077" lon="2.74902">
        <ele>1087.8</ele>
        <time>2018-11-26T05:02:56Z</time>
      </trkpt>
      <trkpt lat="42.42077" lon="2.74902">
        <ele>1087.6</ele>
        <time>2018-11-26T05:02:56Z</time>
      </trkpt>
      <trkpt lat="42.42077" lon="2.74902">
        <ele>1087.4</ele>
        <time>2018-11-26T05:02:56Z</time>
      </trkpt>
      <trkpt lat="42.42077" lon="2.74902">
        <ele>1087</ele>
        <time>2018-11-26T05:02:56Z</time>
      </trkpt>
      <trkpt lat="42.42076" lon="2.74902">
        <ele>1087.2</ele>
        <time>2018-11-26T05:02:57Z</time>
      </trkpt>
      <trkpt lat="42.42076" lon="2.74902">
        <ele>1087.3</ele>
        <time>2018-11-26T05:02:57Z</time>
      </trkpt>
      <trkpt lat="42.42076" lon="2.74902">
        <ele>1087.5</ele>
        <time>2018-11-26T05:02:57Z</time>
      </trkpt>
      <trkpt lat="42.42076" lon="2.74901">
        <ele>1087.8</ele>
        <time>2018-11-26T05:02:57Z</time>
      </trkpt>
      <trkpt lat="42.42076" lon="2.74901">
        <ele>1088.1</ele>
        <time>2018-11-26T05:02:57Z</time>
      </trkpt>
      <trkpt lat="42.42076" lon="2.74901">
        <ele>1088.5</ele>
        <time>2018-11-26T05:02:57Z</time>
      </trkpt>
      <trkpt lat="42.42076" lon="2.74902">
        <ele>1088.8</ele>
        <time>2018-11-26T05:02:57Z</time>
      </trkpt>
      <trkpt lat="42.42075" lon="2.74902">
        <ele>1089.1</ele>
        <time>2018-11-26T05:02:57Z</time>
      </trkpt>
      <trkpt lat="42.42075" lon="2.74902">
        <ele>1089.5</ele>
        <time>2018-11-26T05:02:57Z</time>
      </trkpt>
      <trkpt lat="42.42075" lon="2.74902">
        <ele>1089.8</ele>
        <time>2018-11-26T05:02:57Z</time>
      </trkpt>
      <trkpt lat="42.42074" lon="2.74902">
        <ele>1089.7</ele>
        <time>2018-11-26T05:02:58Z</time>
      </trkpt>
      <trkpt lat="42.42074" lon="2.74902">
        <ele>1089.3</ele>
        <time>2018-11-26T05:02:58Z</time>
      </trkpt>
      <trkpt lat="42.42073" lon="2.74902">
        <ele>1088.9</ele>
        <time>2018-11-26T05:02:58Z</time>
      </trkpt>
      <trkpt lat="42.42072" lon="2.74902">
        <ele>1088.9</ele>
        <time>2018-11-26T05:02:58Z</time>
      </trkpt>
      <trkpt lat="42.42072" lon="2.74902">
        <ele>1088.8</ele>
        <time>2018-11-26T05:02:58Z</time>
      </trkpt>
      <trkpt lat="42.42071" lon="2.74902">
        <ele>1088.8</ele>
        <time>2018-11-26T05:02:59Z</time>
      </trkpt>
      <trkpt lat="42.42071" lon="2.74902">
        <ele>1088.7</ele>
        <time>2018-11-26T05:02:59Z</time>
      </trkpt>
      <trkpt lat="42.42071" lon="2.74902">
        <ele>1088.6</ele>
        <time>2018-11-26T05:02:59Z</time>
      </trkpt>
      <trkpt lat="42.42072" lon="2.74902">
        <ele>1088.6</ele>
        <time>2018-11-26T05:02:59Z</time>
      </trkpt>
      <trkpt lat="42.42072" lon="2.74903">
        <ele>1088.4</ele>
        <time>2018-11-26T05:02:59Z</time>
      </trkpt>
      <trkpt lat="42.42072" lon="2.74903">
        <ele>1088.5</ele>
        <time>2018-11-26T05:03:00Z</time>
      </trkpt>
      <trkpt lat="42.42073" lon="2.74903">
        <ele>1088.4</ele>
        <time>2018-11-26T05:03:00Z</time>
      </trkpt>
      <trkpt lat="42.42074" lon="2.74903">
        <ele>1088.6</ele>
        <time>2018-11-26T05:03:00Z</time>
      </trkpt>
      <trkpt lat="42.42074" lon="2.74903">
        <ele>1088.8</ele>
        <time>2018-11-26T05:03:00Z</time>
      </trkpt>
      <trkpt lat="42.42074" lon="2.74903">
        <ele>1088.8</ele>
        <time>2018-11-26T05:03:00Z</time>
      </trkpt>
      <trkpt lat="42.42075" lon="2.74904">
        <ele>1089</ele>
        <time>2018-11-26T05:03:00Z</time>
      </trkpt>
      <trkpt lat="42.42075" lon="2.74904">
        <ele>1089</ele>
        <time>2018-11-26T05:03:01Z</time>
      </trkpt>
      <trkpt lat="42.42076" lon="2.74904">
        <ele>1089</ele>
        <time>2018-11-26T05:03:01Z</time>
      </trkpt>
      <trkpt lat="42.42076" lon="2.74904">
        <ele>1089</ele>
        <time>2018-11-26T05:03:01Z</time>
      </trkpt>
      <trkpt lat="42.42076" lon="2.74904">
        <ele>1089</ele>
        <time>2018-11-26T05:03:01Z</time>
      </trkpt>
      <trkpt lat="42.42077" lon="2.74904">
        <ele>1088.9</ele>
        <time>2018-11-26T05:03:01Z</time>
      </trkpt>
      <trkpt lat="42.42077" lon="2.74904">
        <ele>1088.7</ele>
        <time>2018-11-26T05:03:02Z</time>
      </trkpt>
      <trkpt lat="42.42077" lon="2.74904">
        <ele>1088.4</ele>
        <time>2018-11-26T05:03:02Z</time>
      </trkpt>
      <trkpt lat="42.42078" lon="2.74904">
        <ele>1088.3</ele>
        <time>2018-11-26T05:03:02Z</time>
      </trkpt>
      <trkpt lat="42.42078" lon="2.74904">
        <ele>1088.1</ele>
        <time>2018-11-26T05:03:02Z</time>
      </trkpt>
      <trkpt lat="42.42078" lon="2.74904">
        <ele>1088</ele>
        <time>2018-11-26T05:03:02Z</time>
      </trkpt>
      <trkpt lat="42.42078" lon="2.74905">
        <ele>1088.1</ele>
        <time>2018-11-26T05:03:02Z</time>
      </trkpt>
      <trkpt lat="42.42078" lon="2.74905">
        <ele>1088.2</ele>
        <time>2018-11-26T05:03:02Z</time>
      </trkpt>
      <trkpt lat="42.42078" lon="2.74905">
        <ele>1088.4</ele>
        <time>2018-11-26T05:03:02Z</time>
      </trkpt>
      <trkpt lat="42.42079" lon="2.74905">
        <ele>1088.4</ele>
        <time>2018-11-26T05:03:02Z</time>
      </trkpt>
      <trkpt lat="42.42079" lon="2.74905">
        <ele>1088.5</ele>
        <time>2018-11-26T05:03:02Z</time>
      </trkpt>
      <trkpt lat="42.42079" lon="2.74905">
        <ele>1088.7</ele>
        <time>2018-11-26T05:03:02Z</time>
      </trkpt>
      <trkpt lat="42.42079" lon="2.74905">
        <ele>1088.7</ele>
        <time>2018-11-26T05:03:02Z</time>
      </trkpt>
      <trkpt lat="42.42079" lon="2.74905">
        <ele>1088.7</ele>
        <time>2018-11-26T05:03:03Z</time>
      </trkpt>
      <trkpt lat="42.42079" lon="2.74905">
        <ele>1088.6</ele>
        <time>2018-11-26T05:03:03Z</time>
      </trkpt>
      <trkpt lat="42.42079" lon="2.74905">
        <ele>1088.7</ele>
        <time>2018-11-26T05:03:03Z</time>
      </trkpt>
      <trkpt lat="42.4208" lon="2.74906">
        <ele>1088.7</ele>
        <time>2018-11-26T05:03:03Z</time>
      </trkpt>
      <trkpt lat="42.4208" lon="2.74906">
        <ele>1088.9</ele>
        <time>2018-11-26T05:03:03Z</time>
      </trkpt>
      <trkpt lat="42.4208" lon="2.74906">
        <ele>1088.9</ele>
        <time>2018-11-26T05:03:03Z</time>
      </trkpt>
      <trkpt lat="42.4208" lon="2.74906">
        <ele>1089.1</ele>
        <time>2018-11-26T05:03:03Z</time>
      </trkpt>
      <trkpt lat="42.4208" lon="2.74906">
        <ele>1089.1</ele>
        <time>2018-11-26T05:03:03Z</time>
      </trkpt>
      <trkpt lat="42.4208" lon="2.74906">
        <ele>1089</ele>
        <time>2018-11-26T05:03:03Z</time>
      </trkpt>
      <trkpt lat="42.4208" lon="2.74906">
        <ele>1088.9</ele>
        <time>2018-11-26T05:03:03Z</time>
      </trkpt>
      <trkpt lat="42.4208" lon="2.74906">
        <ele>1088.6</ele>
        <time>2018-11-26T05:03:03Z</time>
      </trkpt>
      <trkpt lat="42.4208" lon="2.74906">
        <ele>1088.7</ele>
        <time>2018-11-26T05:03:03Z</time>
      </trkpt>
      <trkpt lat="42.42081" lon="2.74906">
        <ele>1088.6</ele>
        <time>2018-11-26T05:03:03Z</time>
      </trkpt>
      <trkpt lat="42.42081" lon="2.74907">
        <ele>1088.5</ele>
        <time>2018-11-26T05:03:03Z</time>
      </trkpt>
      <trkpt lat="42.42081" lon="2.74907">
        <ele>1088.5</ele>
        <time>2018-11-26T05:03:03Z</time>
      </trkpt>
      <trkpt lat="42.42081" lon="2.74907">
        <ele>1088.3</ele>
        <time>2018-11-26T05:03:04Z</time>
      </trkpt>
      <trkpt lat="42.42081" lon="2.74907">
        <ele>1087.9</ele>
        <time>2018-11-26T05:03:04Z</time>
      </trkpt>
      <trkpt lat="42.42082" lon="2.74907">
        <ele>1087.5</ele>
        <time>2018-11-26T05:03:04Z</time>
      </trkpt>
      <trkpt lat="42.42082" lon="2.74907">
        <ele>1087.6</ele>
        <time>2018-11-26T05:03:04Z</time>
      </trkpt>
      <trkpt lat="42.42082" lon="2.74907">
        <ele>1087.7</ele>
        <time>2018-11-26T05:03:04Z</time>
      </trkpt>
      <trkpt lat="42.42082" lon="2.74907">
        <ele>1087.8</ele>
        <time>2018-11-26T05:03:04Z</time>
      </trkpt>
      <trkpt lat="42.42082" lon="2.74907">
        <ele>1087.9</ele>
        <time>2018-11-26T05:03:04Z</time>
      </trkpt>
      <trkpt lat="42.42082" lon="2.74907">
        <ele>1088.1</ele>
        <time>2018-11-26T05:03:04Z</time>
      </trkpt>
      <trkpt lat="42.42082" lon="2.74907">
        <ele>1088.3</ele>
        <time>2018-11-26T05:03:04Z</time>
      </trkpt>
      <trkpt lat="42.42082" lon="2.74907">
        <ele>1088.4</ele>
        <time>2018-11-26T05:03:04Z</time>
      </trkpt>
      <trkpt lat="42.42082" lon="2.74907">
        <ele>1088.7</ele>
        <time>2018-11-26T05:03:04Z</time>
      </trkpt>
      <trkpt lat="42.42082" lon="2.74907">
        <ele>1089</ele>
        <time>2018-11-26T05:03:04Z</time>
      </trkpt>
      <trkpt lat="42.42082" lon="2.74907">
        <ele>1088.9</ele>
        <time>2018-11-26T05:03:04Z</time>
      </trkpt>
      <trkpt lat="42.42082" lon="2.74907">
        <ele>1088.8</ele>
        <time>2018-11-26T05:03:04Z</time>
      </trkpt>
      <trkpt lat="42.42082" lon="2.74907">
        <ele>1088.6</ele>
        <time>2018-11-26T05:03:04Z</time>
      </trkpt>
      <trkpt lat="42.42082" lon="2.74907">
        <ele>1088.5</ele>
        <time>2018-11-26T05:03:04Z</time>
      </trkpt>
      <trkpt lat="42.42082" lon="2.74907">
        <ele>1088.1</ele>
        <time>2018-11-26T05:03:04Z</time>
      </trkpt>
      <trkpt lat="42.42082" lon="2.74907">
        <ele>1087.8</ele>
        <time>2018-11-26T05:03:04Z</time>
      </trkpt>
      <trkpt lat="42.42082" lon="2.74907">
        <ele>1087.4</ele>
        <time>2018-11-26T05:03:04Z</time>
      </trkpt>
      <trkpt lat="42.42082" lon="2.74907">
        <ele>1087.6</ele>
        <time>2018-11-26T05:03:04Z</time>
      </trkpt>
      <trkpt lat="42.42082" lon="2.74907">
        <ele>1088</ele>
        <time>2018-11-26T05:03:04Z</time>
      </trkpt>
      <trkpt lat="42.42082" lon="2.74907">
        <ele>1088.5</ele>
        <time>2018-11-26T05:03:04Z</time>
      </trkpt>
      <trkpt lat="42.42082" lon="2.74907">
        <ele>1088.4</ele>
        <time>2018-11-26T05:03:04Z</time>
      </trkpt>
      <trkpt lat="42.42082" lon="2.74907">
        <ele>1088.3</ele>
        <time>2018-11-26T05:03:04Z</time>
      </trkpt>
      <trkpt lat="42.42081" lon="2.74907">
        <ele>1088.2</ele>
        <time>2018-11-26T05:03:04Z</time>
      </trkpt>
      <trkpt lat="42.42081" lon="2.74907">
        <ele>1088.3</ele>
        <time>2018-11-26T05:03:04Z</time>
      </trkpt>
      <trkpt lat="42.42081" lon="2.74907">
        <ele>1088.6</ele>
        <time>2018-11-26T05:03:04Z</time>
      </trkpt>
      <trkpt lat="42.42081" lon="2.74907">
        <ele>1088.7</ele>
        <time>2018-11-26T05:03:04Z</time>
      </trkpt>
      <trkpt lat="42.42081" lon="2.74907">
        <ele>1088.6</ele>
        <time>2018-11-26T05:03:05Z</time>
      </trkpt>
      <trkpt lat="42.42081" lon="2.74907">
        <ele>1088.5</ele>
        <time>2018-11-26T05:03:05Z</time>
      </trkpt>
      <trkpt lat="42.42081" lon="2.74908">
        <ele>1088.4</ele>
        <time>2018-11-26T05:03:05Z</time>
      </trkpt>
      <trkpt lat="42.4208" lon="2.74908">
        <ele>1088.4</ele>
        <time>2018-11-26T05:03:05Z</time>
      </trkpt>
      <trkpt lat="42.4208" lon="2.74908">
        <ele>1088.3</ele>
        <time>2018-11-26T05:03:05Z</time>
      </trkpt>
      <trkpt lat="42.4208" lon="2.74908">
        <ele>1088.2</ele>
        <time>2018-11-26T05:03:05Z</time>
      </trkpt>
      <trkpt lat="42.4208" lon="2.74908">
        <ele>1088</ele>
        <time>2018-11-26T05:03:05Z</time>
      </trkpt>
      <trkpt lat="42.4208" lon="2.74908">
        <ele>1088</ele>
        <time>2018-11-26T05:03:05Z</time>
      </trkpt>
      <trkpt lat="42.4208" lon="2.74908">
        <ele>1088.2</ele>
        <time>2018-11-26T05:03:05Z</time>
      </trkpt>
      <trkpt lat="42.4208" lon="2.74908">
        <ele>1088.1</ele>
        <time>2018-11-26T05:03:05Z</time>
      </trkpt>
      <trkpt lat="42.4208" lon="2.74908">
        <ele>1088.2</ele>
        <time>2018-11-26T05:03:05Z</time>
      </trkpt>
      <trkpt lat="42.4208" lon="2.74908">
        <ele>1088.4</ele>
        <time>2018-11-26T05:03:05Z</time>
      </trkpt>
      <trkpt lat="42.4208" lon="2.74908">
        <ele>1088.6</ele>
        <time>2018-11-26T05:03:05Z</time>
      </trkpt>
      <trkpt lat="42.4208" lon="2.74908">
        <ele>1088.4</ele>
        <time>2018-11-26T05:03:05Z</time>
      </trkpt>
      <trkpt lat="42.42079" lon="2.74908">
        <ele>1088.2</ele>
        <time>2018-11-26T05:03:05Z</time>
      </trkpt>
      <trkpt lat="42.42079" lon="2.74908">
        <ele>1088.1</ele>
        <time>2018-11-26T05:03:05Z</time>
      </trkpt>
      <trkpt lat="42.42079" lon="2.74908">
        <ele>1088.2</ele>
        <time>2018-11-26T05:03:05Z</time>
      </trkpt>
      <trkpt lat="42.42079" lon="2.74908">
        <ele>1088.2</ele>
        <time>2018-11-26T05:03:05Z</time>
      </trkpt>
      <trkpt lat="42.42079" lon="2.74908">
        <ele>1088.4</ele>
        <time>2018-11-26T05:03:06Z</time>
      </trkpt>
      <trkpt lat="42.42079" lon="2.74908">
        <ele>1088.5</ele>
        <time>2018-11-26T05:03:06Z</time>
      </trkpt>
      <trkpt lat="42.42079" lon="2.74908">
        <ele>1088.5</ele>
        <time>2018-11-26T05:03:06Z</time>
      </trkpt>
      <trkpt lat="42.42078" lon="2.74908">
        <ele>1088.6</ele>
        <time>2018-11-26T05:03:06Z</time>
      </trkpt>
      <trkpt lat="42.42078" lon="2.74908">
        <ele>1088.7</ele>
        <time>2018-11-26T05:03:06Z</time>
      </trkpt>
      <trkpt lat="42.42078" lon="2.74909">
        <ele>1088.9</ele>
        <time>2018-11-26T05:03:06Z</time>
      </trkpt>
      <trkpt lat="42.42078" lon="2.74909">
        <ele>1089</ele>
        <time>2018-11-26T05:03:06Z</time>
      </trkpt>
      <trkpt lat="42.42078" lon="2.74909">
        <ele>1089</ele>
        <time>2018-11-26T05:03:06Z</time>
      </trkpt>
      <trkpt lat="42.42077" lon="2.74909">
        <ele>1089.1</ele>
        <time>2018-11-26T05:03:06Z</time>
      </trkpt>
      <trkpt lat="42.42077" lon="2.74909">
        <ele>1089.3</ele>
        <time>2018-11-26T05:03:06Z</time>
      </trkpt>
      <trkpt lat="42.42077" lon="2.74909">
        <ele>1089.3</ele>
        <time>2018-11-26T05:03:06Z</time>
      </trkpt>
      <trkpt lat="42.42077" lon="2.74909">
        <ele>1089.2</ele>
        <time>2018-11-26T05:03:06Z</time>
      </trkpt>
      <trkpt lat="42.42077" lon="2.74909">
        <ele>1088.8</ele>
        <time>2018-11-26T05:03:06Z</time>
      </trkpt>
      <trkpt lat="42.42077" lon="2.74909">
        <ele>1088.4</ele>
        <time>2018-11-26T05:03:06Z</time>
      </trkpt>
      <trkpt lat="42.42077" lon="2.74909">
        <ele>1088.5</ele>
        <time>2018-11-26T05:03:07Z</time>
      </trkpt>
      <trkpt lat="42.42076" lon="2.74909">
        <ele>1088.6</ele>
        <time>2018-11-26T05:03:07Z</time>
      </trkpt>
      <trkpt lat="42.42076" lon="2.74909">
        <ele>1088.7</ele>
        <time>2018-11-26T05:03:07Z</time>
      </trkpt>
      <trkpt lat="42.42076" lon="2.74909">
        <ele>1088.8</ele>
        <time>2018-11-26T05:03:07Z</time>
      </trkpt>
      <trkpt lat="42.42076" lon="2.74909">
        <ele>1088.9</ele>
        <time>2018-11-26T05:03:07Z</time>
      </trkpt>
      <trkpt lat="42.42076" lon="2.74909">
        <ele>1089.2</ele>
        <time>2018-11-26T05:03:07Z</time>
      </trkpt>
      <trkpt lat="42.42076" lon="2.74909">
        <ele>1089.2</ele>
        <time>2018-11-26T05:03:07Z</time>
      </trkpt>
      <trkpt lat="42.42076" lon="2.74909">
        <ele>1089.2</ele>
        <time>2018-11-26T05:03:07Z</time>
      </trkpt>
      <trkpt lat="42.42076" lon="2.74909">
        <ele>1089</ele>
        <time>2018-11-26T05:03:07Z</time>
      </trkpt>
      <trkpt lat="42.42076" lon="2.74909">
        <ele>1089.1</ele>
        <time>2018-11-26T05:03:07Z</time>
      </trkpt>
      <trkpt lat="42.42076" lon="2.74909">
        <ele>1089.4</ele>
        <time>2018-11-26T05:03:07Z</time>
      </trkpt>
      <trkpt lat="42.42077" lon="2.74908">
        <ele>1089.6</ele>
        <time>2018-11-26T05:03:07Z</time>
      </trkpt>
      <trkpt lat="42.42077" lon="2.74908">
        <ele>1089.8</ele>
        <time>2018-11-26T05:03:07Z</time>
      </trkpt>
      <trkpt lat="42.42077" lon="2.74908">
        <ele>1089.7</ele>
        <time>2018-11-26T05:03:07Z</time>
      </trkpt>
      <trkpt lat="42.42077" lon="2.74908">
        <ele>1089.3</ele>
        <time>2018-11-26T05:03:08Z</time>
      </trkpt>
      <trkpt lat="42.42077" lon="2.74908">
        <ele>1088.9</ele>
        <time>2018-11-26T05:03:08Z</time>
      </trkpt>
      <trkpt lat="42.42077" lon="2.74908">
        <ele>1089.1</ele>
        <time>2018-11-26T05:03:08Z</time>
      </trkpt>
      <trkpt lat="42.42078" lon="2.74908">
        <ele>1089.3</ele>
        <time>2018-11-26T05:03:08Z</time>
      </trkpt>
      <trkpt lat="42.42078" lon="2.74908">
        <ele>1089.4</ele>
        <time>2018-11-26T05:03:08Z</time>
      </trkpt>
      <trkpt lat="42.42078" lon="2.74908">
        <ele>1089.1</ele>
        <time>2018-11-26T05:03:08Z</time>
      </trkpt>
      <trkpt lat="42.42078" lon="2.74908">
        <ele>1088.8</ele>
        <time>2018-11-26T05:03:08Z</time>
      </trkpt>
      <trkpt lat="42.42077" lon="2.74908">
        <ele>1088.4</ele>
        <time>2018-11-26T05:03:08Z</time>
      </trkpt>
      <trkpt lat="42.42077" lon="2.74908">
        <ele>1088.4</ele>
        <time>2018-11-26T05:03:08Z</time>
      </trkpt>
      <trkpt lat="42.42077" lon="2.74908">
        <ele>1088.4</ele>
        <time>2018-11-26T05:03:08Z</time>
      </trkpt>
      <trkpt lat="42.42077" lon="2.74908">
        <ele>1088.3</ele>
        <time>2018-11-26T05:03:08Z</time>
      </trkpt>
      <trkpt lat="42.42077" lon="2.74908">
        <ele>1088.2</ele>
        <time>2018-11-26T05:03:08Z</time>
      </trkpt>
      <trkpt lat="42.42077" lon="2.74908">
        <ele>1088.2</ele>
        <time>2018-11-26T05:03:08Z</time>
      </trkpt>
      <trkpt lat="42.42077" lon="2.74908">
        <ele>1088.3</ele>
        <time>2018-11-26T05:03:08Z</time>
      </trkpt>
      <trkpt lat="42.42077" lon="2.74908">
        <ele>1088.2</ele>
        <time>2018-11-26T05:03:08Z</time>
      </trkpt>
      <trkpt lat="42.42077" lon="2.74908">
        <ele>1088.1</ele>
        <time>2018-11-26T05:03:08Z</time>
      </trkpt>
      <trkpt lat="42.42077" lon="2.74908">
        <ele>1088.2</ele>
        <time>2018-11-26T05:03:08Z</time>
      </trkpt>
      <trkpt lat="42.42077" lon="2.74908">
        <ele>1088.1</ele>
        <time>2018-11-26T05:03:08Z</time>
      </trkpt>
      <trkpt lat="42.42077" lon="2.74908">
        <ele>1087.9</ele>
        <time>2018-11-26T05:03:08Z</time>
      </trkpt>
      <trkpt lat="42.42077" lon="2.74908">
        <ele>1087.5</ele>
        <time>2018-11-26T05:03:08Z</time>
      </trkpt>
      <trkpt lat="42.42077" lon="2.74908">
        <ele>1087.2</ele>
        <time>2018-11-26T05:03:08Z</time>
      </trkpt>
      <trkpt lat="42.42077" lon="2.74908">
        <ele>1087.3</ele>
        <time>2018-11-26T05:03:08Z</time>
      </trkpt>
      <trkpt lat="42.42077" lon="2.74908">
        <ele>1087.5</ele>
        <time>2018-11-26T05:03:08Z</time>
      </trkpt>
      <trkpt lat="42.42077" lon="2.74908">
        <ele>1087.7</ele>
        <time>2018-11-26T05:03:08Z</time>
      </trkpt>
      <trkpt lat="42.42077" lon="2.74908">
        <ele>1087.6</ele>
        <time>2018-11-26T05:03:08Z</time>
      </trkpt>
      <trkpt lat="42.42077" lon="2.74908">
        <ele>1087.6</ele>
        <time>2018-11-26T05:03:08Z</time>
      </trkpt>
      <trkpt lat="42.42077" lon="2.74908">
        <ele>1087.7</ele>
        <time>2018-11-26T05:03:08Z</time>
      </trkpt>
      <trkpt lat="42.42077" lon="2.74908">
        <ele>1087.8</ele>
        <time>2018-11-26T05:03:09Z</time>
      </trkpt>
      <trkpt lat="42.42077" lon="2.74908">
        <ele>1087.8</ele>
        <time>2018-11-26T05:03:09Z</time>
      </trkpt>
      <trkpt lat="42.42077" lon="2.74908">
        <ele>1087.9</ele>
        <time>2018-11-26T05:03:09Z</time>
      </trkpt>
      <trkpt lat="42.42077" lon="2.74908">
        <ele>1088</ele>
        <time>2018-11-26T05:03:09Z</time>
      </trkpt>
      <trkpt lat="42.42077" lon="2.74908">
        <ele>1088.2</ele>
        <time>2018-11-26T05:03:09Z</time>
      </trkpt>
      <trkpt lat="42.42077" lon="2.74908">
        <ele>1088.5</ele>
        <time>2018-11-26T05:03:09Z</time>
      </trkpt>
      <trkpt lat="42.42077" lon="2.74908">
        <ele>1088.5</ele>
        <time>2018-11-26T05:03:09Z</time>
      </trkpt>
      <trkpt lat="42.42077" lon="2.74908">
        <ele>1088.6</ele>
        <time>2018-11-26T05:03:09Z</time>
      </trkpt>
      <trkpt lat="42.42077" lon="2.74908">
        <ele>1088.7</ele>
        <time>2018-11-26T05:03:09Z</time>
      </trkpt>
      <trkpt lat="42.42077" lon="2.74908">
        <ele>1088.8</ele>
        <time>2018-11-26T05:03:09Z</time>
      </trkpt>
      <trkpt lat="42.42077" lon="2.74908">
        <ele>1088.7</ele>
        <time>2018-11-26T05:03:09Z</time>
      </trkpt>
      <trkpt lat="42.42078" lon="2.74908">
        <ele>1088.7</ele>
        <time>2018-11-26T05:03:09Z</time>
      </trkpt>
      <trkpt lat="42.42078" lon="2.74908">
        <ele>1088.5</ele>
        <time>2018-11-26T05:03:09Z</time>
      </trkpt>
      <trkpt lat="42.42078" lon="2.74908">
        <ele>1088.7</ele>
        <time>2018-11-26T05:03:09Z</time>
      </trkpt>
      <trkpt lat="42.42078" lon="2.74908">
        <ele>1088.8</ele>
        <time>2018-11-26T05:03:09Z</time>
      </trkpt>
      <trkpt lat="42.42078" lon="2.74908">
        <ele>1089.1</ele>
        <time>2018-11-26T05:03:09Z</time>
      </trkpt>
      <trkpt lat="42.42078" lon="2.74908">
        <ele>1088.6</ele>
        <time>2018-11-26T05:03:09Z</time>
      </trkpt>
      <trkpt lat="42.42078" lon="2.74908">
        <ele>1087.9</ele>
        <time>2018-11-26T05:03:09Z</time>
      </trkpt>
      <trkpt lat="42.42078" lon="2.74908">
        <ele>1087</ele>
        <time>2018-11-26T05:03:09Z</time>
      </trkpt>
      <trkpt lat="42.42079" lon="2.74908">
        <ele>1087.2</ele>
        <time>2018-11-26T05:03:09Z</time>
      </trkpt>
      <trkpt lat="42.42079" lon="2.74908">
        <ele>1087.4</ele>
        <time>2018-11-26T05:03:10Z</time>
      </trkpt>
      <trkpt lat="42.42079" lon="2.74908">
        <ele>1087.6</ele>
        <time>2018-11-26T05:03:10Z</time>
      </trkpt>
      <trkpt lat="42.4208" lon="2.74908">
        <ele>1087.8</ele>
        <time>2018-11-26T05:03:10Z</time>
      </trkpt>
      <trkpt lat="42.4208" lon="2.74908">
        <ele>1087.9</ele>
        <time>2018-11-26T05:03:10Z</time>
      </trkpt>
      <trkpt lat="42.4208" lon="2.74908">
        <ele>1088.3</ele>
        <time>2018-11-26T05:03:10Z</time>
      </trkpt>
      <trkpt lat="42.4208" lon="2.74908">
        <ele>1088.5</ele>
        <time>2018-11-26T05:03:10Z</time>
      </trkpt>
      <trkpt lat="42.4208" lon="2.74908">
        <ele>1088.4</ele>
        <time>2018-11-26T05:03:10Z</time>
      </trkpt>
      <trkpt lat="42.42081" lon="2.74908">
        <ele>1088.2</ele>
        <time>2018-11-26T05:03:10Z</time>
      </trkpt>
      <trkpt lat="42.42081" lon="2.74908">
        <ele>1088</ele>
        <time>2018-11-26T05:03:10Z</time>
      </trkpt>
      <trkpt lat="42.42081" lon="2.74908">
        <ele>1088.2</ele>
        <time>2018-11-26T05:03:10Z</time>
      </trkpt>
      <trkpt lat="42.42081" lon="2.74908">
        <ele>1088.4</ele>
        <time>2018-11-26T05:03:10Z</time>
      </trkpt>
      <trkpt lat="42.42081" lon="2.74908">
        <ele>1088.7</ele>
        <time>2018-11-26T05:03:10Z</time>
      </trkpt>
      <trkpt lat="42.42081" lon="2.74908">
        <ele>1088.6</ele>
        <time>2018-11-26T05:03:10Z</time>
      </trkpt>
      <trkpt lat="42.42081" lon="2.74908">
        <ele>1088.4</ele>
        <time>2018-11-26T05:03:10Z</time>
      </trkpt>
      <trkpt lat="42.42081" lon="2.74908">
        <ele>1088.2</ele>
        <time>2018-11-26T05:03:10Z</time>
      </trkpt>
      <trkpt lat="42.42081" lon="2.74908">
        <ele>1088.3</ele>
        <time>2018-11-26T05:03:10Z</time>
      </trkpt>
      <trkpt lat="42.42081" lon="2.74908">
        <ele>1088.2</ele>
        <time>2018-11-26T05:03:10Z</time>
      </trkpt>
      <trkpt lat="42.42081" lon="2.74909">
        <ele>1088.3</ele>
        <time>2018-11-26T05:03:10Z</time>
      </trkpt>
      <trkpt lat="42.42081" lon="2.74909">
        <ele>1088.2</ele>
        <time>2018-11-26T05:03:10Z</time>
      </trkpt>
      <trkpt lat="42.42081" lon="2.74909">
        <ele>1088.1</ele>
        <time>2018-11-26T05:03:10Z</time>
      </trkpt>
      <trkpt lat="42.42081" lon="2.74909">
        <ele>1088</ele>
        <time>2018-11-26T05:03:10Z</time>
      </trkpt>
      <trkpt lat="42.42081" lon="2.74909">
        <ele>1088</ele>
        <time>2018-11-26T05:03:10Z</time>
      </trkpt>
      <trkpt lat="42.42081" lon="2.74909">
        <ele>1087.9</ele>
        <time>2018-11-26T05:03:10Z</time>
      </trkpt>
      <trkpt lat="42.42081" lon="2.74909">
        <ele>1087.9</ele>
        <time>2018-11-26T05:03:11Z</time>
      </trkpt>
      <trkpt lat="42.42081" lon="2.74909">
        <ele>1087.8</ele>
        <time>2018-11-26T05:03:11Z</time>
      </trkpt>
      <trkpt lat="42.42081" lon="2.74909">
        <ele>1087.7</ele>
        <time>2018-11-26T05:03:11Z</time>
      </trkpt>
      <trkpt lat="42.42081" lon="2.74909">
        <ele>1087.4</ele>
        <time>2018-11-26T05:03:11Z</time>
      </trkpt>
      <trkpt lat="42.42081" lon="2.74909">
        <ele>1087.1</ele>
        <time>2018-11-26T05:03:11Z</time>
      </trkpt>
      <trkpt lat="42.42081" lon="2.74909">
        <ele>1087.3</ele>
        <time>2018-11-26T05:03:11Z</time>
      </trkpt>
      <trkpt lat="42.42081" lon="2.74909">
        <ele>1087.5</ele>
        <time>2018-11-26T05:03:11Z</time>
      </trkpt>
      <trkpt lat="42.42081" lon="2.74909">
        <ele>1087.8</ele>
        <time>2018-11-26T05:03:11Z</time>
      </trkpt>
      <trkpt lat="42.42081" lon="2.74909">
        <ele>1087.8</ele>
        <time>2018-11-26T05:03:11Z</time>
      </trkpt>
      <trkpt lat="42.4208" lon="2.74909">
        <ele>1087.8</ele>
        <time>2018-11-26T05:03:11Z</time>
      </trkpt>
      <trkpt lat="42.4208" lon="2.74909">
        <ele>1087.8</ele>
        <time>2018-11-26T05:03:11Z</time>
      </trkpt>
      <trkpt lat="42.4208" lon="2.74909">
        <ele>1087.6</ele>
        <time>2018-11-26T05:03:11Z</time>
      </trkpt>
      <trkpt lat="42.4208" lon="2.74909">
        <ele>1087.3</ele>
        <time>2018-11-26T05:03:11Z</time>
      </trkpt>
      <trkpt lat="42.4208" lon="2.74909">
        <ele>1086.9</ele>
        <time>2018-11-26T05:03:11Z</time>
      </trkpt>
      <trkpt lat="42.4208" lon="2.74909">
        <ele>1086.9</ele>
        <time>2018-11-26T05:03:11Z</time>
      </trkpt>
      <trkpt lat="42.4208" lon="2.7491">
        <ele>1086.9</ele>
        <time>2018-11-26T05:03:11Z</time>
      </trkpt>
      <trkpt lat="42.4208" lon="2.7491">
        <ele>1087.1</ele>
        <time>2018-11-26T05:03:11Z</time>
      </trkpt>
      <trkpt lat="42.4208" lon="2.7491">
        <ele>1087.1</ele>
        <time>2018-11-26T05:03:11Z</time>
      </trkpt>
      <trkpt lat="42.4208" lon="2.7491">
        <ele>1087.3</ele>
        <time>2018-11-26T05:03:11Z</time>
      </trkpt>
      <trkpt lat="42.4208" lon="2.7491">
        <ele>1087.4</ele>
        <time>2018-11-26T05:03:11Z</time>
      </trkpt>
      <trkpt lat="42.4208" lon="2.7491">
        <ele>1087.5</ele>
        <time>2018-11-26T05:03:11Z</time>
      </trkpt>
      <trkpt lat="42.4208" lon="2.7491">
        <ele>1087.4</ele>
        <time>2018-11-26T05:03:11Z</time>
      </trkpt>
      <trkpt lat="42.4208" lon="2.7491">
        <ele>1087.6</ele>
        <time>2018-11-26T05:03:11Z</time>
      </trkpt>
      <trkpt lat="42.4208" lon="2.7491">
        <ele>1087.6</ele>
        <time>2018-11-26T05:03:11Z</time>
      </trkpt>
      <trkpt lat="42.4208" lon="2.7491">
        <ele>1087.7</ele>
        <time>2018-11-26T05:03:11Z</time>
      </trkpt>
      <trkpt lat="42.4208" lon="2.7491">
        <ele>1087.9</ele>
        <time>2018-11-26T05:03:11Z</time>
      </trkpt>
      <trkpt lat="42.4208" lon="2.7491">
        <ele>1088.2</ele>
        <time>2018-11-26T05:03:11Z</time>
      </trkpt>
      <trkpt lat="42.4208" lon="2.7491">
        <ele>1088</ele>
        <time>2018-11-26T05:03:11Z</time>
      </trkpt>
      <trkpt lat="42.4208" lon="2.7491">
        <ele>1087.8</ele>
        <time>2018-11-26T05:03:11Z</time>
      </trkpt>
      <trkpt lat="42.4208" lon="2.7491">
        <ele>1087.5</ele>
        <time>2018-11-26T05:03:11Z</time>
      </trkpt>
      <trkpt lat="42.4208" lon="2.7491">
        <ele>1087.5</ele>
        <time>2018-11-26T05:03:11Z</time>
      </trkpt>
      <trkpt lat="42.4208" lon="2.7491">
        <ele>1087.3</ele>
        <time>2018-11-26T05:03:11Z</time>
      </trkpt>
      <trkpt lat="42.4208" lon="2.7491">
        <ele>1087.1</ele>
        <time>2018-11-26T05:03:12Z</time>
      </trkpt>
      <trkpt lat="42.4208" lon="2.7491">
        <ele>1087</ele>
        <time>2018-11-26T05:03:12Z</time>
      </trkpt>
      <trkpt lat="42.4208" lon="2.7491">
        <ele>1087</ele>
        <time>2018-11-26T05:03:12Z</time>
      </trkpt>
      <trkpt lat="42.42079" lon="2.7491">
        <ele>1086.9</ele>
        <time>2018-11-26T05:03:12Z</time>
      </trkpt>
      <trkpt lat="42.42079" lon="2.7491">
        <ele>1086.8</ele>
        <time>2018-11-26T05:03:12Z</time>
      </trkpt>
      <trkpt lat="42.4208" lon="2.7491">
        <ele>1086.8</ele>
        <time>2018-11-26T05:03:12Z</time>
      </trkpt>
      <trkpt lat="42.4208" lon="2.7491">
        <ele>1086.9</ele>
        <time>2018-11-26T05:03:12Z</time>
      </trkpt>
      <trkpt lat="42.4208" lon="2.7491">
        <ele>1086.8</ele>
        <time>2018-11-26T05:03:12Z</time>
      </trkpt>
      <trkpt lat="42.4208" lon="2.7491">
        <ele>1087.1</ele>
        <time>2018-11-26T05:03:12Z</time>
      </trkpt>
      <trkpt lat="42.4208" lon="2.7491">
        <ele>1087.5</ele>
        <time>2018-11-26T05:03:12Z</time>
      </trkpt>
      <trkpt lat="42.4208" lon="2.7491">
        <ele>1087.9</ele>
        <time>2018-11-26T05:03:12Z</time>
      </trkpt>
      <trkpt lat="42.4208" lon="2.7491">
        <ele>1087.8</ele>
        <time>2018-11-26T05:03:12Z</time>
      </trkpt>
      <trkpt lat="42.4208" lon="2.7491">
        <ele>1087.7</ele>
        <time>2018-11-26T05:03:12Z</time>
      </trkpt>
      <trkpt lat="42.4208" lon="2.7491">
        <ele>1087.6</ele>
        <time>2018-11-26T05:03:12Z</time>
      </trkpt>
      <trkpt lat="42.4208" lon="2.7491">
        <ele>1087.6</ele>
        <time>2018-11-26T05:03:12Z</time>
      </trkpt>
      <trkpt lat="42.4208" lon="2.7491">
        <ele>1087.5</ele>
        <time>2018-11-26T05:03:12Z</time>
      </trkpt>
      <trkpt lat="42.4208" lon="2.7491">
        <ele>1087.6</ele>
        <time>2018-11-26T05:03:12Z</time>
      </trkpt>
      <trkpt lat="42.4208" lon="2.7491">
        <ele>1087.6</ele>
        <time>2018-11-26T05:03:12Z</time>
      </trkpt>
      <trkpt lat="42.4208" lon="2.7491">
        <ele>1087.7</ele>
        <time>2018-11-26T05:03:12Z</time>
      </trkpt>
      <trkpt lat="42.42081" lon="2.7491">
        <ele>1087.7</ele>
        <time>2018-11-26T05:03:12Z</time>
      </trkpt>
      <trkpt lat="42.42081" lon="2.7491">
        <ele>1087.7</ele>
        <time>2018-11-26T05:03:12Z</time>
      </trkpt>
      <trkpt lat="42.42081" lon="2.7491">
        <ele>1087.4</ele>
        <time>2018-11-26T05:03:12Z</time>
      </trkpt>
      <trkpt lat="42.42081" lon="2.7491">
        <ele>1087.1</ele>
        <time>2018-11-26T05:03:12Z</time>
      </trkpt>
      <trkpt lat="42.42081" lon="2.7491">
        <ele>1086.7</ele>
        <time>2018-11-26T05:03:12Z</time>
      </trkpt>
      <trkpt lat="42.42081" lon="2.7491">
        <ele>1087</ele>
        <time>2018-11-26T05:03:12Z</time>
      </trkpt>
      <trkpt lat="42.42081" lon="2.7491">
        <ele>1087.5</ele>
        <time>2018-11-26T05:03:12Z</time>
      </trkpt>
      <trkpt lat="42.42082" lon="2.7491">
        <ele>1088</ele>
        <time>2018-11-26T05:03:12Z</time>
      </trkpt>
      <trkpt lat="42.42082" lon="2.7491">
        <ele>1087.8</ele>
        <time>2018-11-26T05:03:12Z</time>
      </trkpt>
      <trkpt lat="42.42082" lon="2.7491">
        <ele>1087.5</ele>
        <time>2018-11-26T05:03:12Z</time>
      </trkpt>
      <trkpt lat="42.42082" lon="2.7491">
        <ele>1087.2</ele>
        <time>2018-11-26T05:03:12Z</time>
      </trkpt>
      <trkpt lat="42.42082" lon="2.7491">
        <ele>1087.1</ele>
        <time>2018-11-26T05:03:13Z</time>
      </trkpt>
      <trkpt lat="42.42082" lon="2.7491">
        <ele>1087.2</ele>
        <time>2018-11-26T05:03:13Z</time>
      </trkpt>
      <trkpt lat="42.42082" lon="2.7491">
        <ele>1087.1</ele>
        <time>2018-11-26T05:03:13Z</time>
      </trkpt>
      <trkpt lat="42.42082" lon="2.7491">
        <ele>1087.2</ele>
        <time>2018-11-26T05:03:13Z</time>
      </trkpt>
      <trkpt lat="42.42082" lon="2.7491">
        <ele>1087.5</ele>
        <time>2018-11-26T05:03:13Z</time>
      </trkpt>
      <trkpt lat="42.42082" lon="2.7491">
        <ele>1087.6</ele>
        <time>2018-11-26T05:03:13Z</time>
      </trkpt>
      <trkpt lat="42.42082" lon="2.7491">
        <ele>1087.6</ele>
        <time>2018-11-26T05:03:13Z</time>
      </trkpt>
      <trkpt lat="42.42082" lon="2.7491">
        <ele>1087.3</ele>
        <time>2018-11-26T05:03:13Z</time>
      </trkpt>
      <trkpt lat="42.42082" lon="2.7491">
        <ele>1086.9</ele>
        <time>2018-11-26T05:03:13Z</time>
      </trkpt>
      <trkpt lat="42.42082" lon="2.7491">
        <ele>1086.9</ele>
        <time>2018-11-26T05:03:13Z</time>
      </trkpt>
      <trkpt lat="42.42081" lon="2.7491">
        <ele>1087</ele>
        <time>2018-11-26T05:03:13Z</time>
      </trkpt>
      <trkpt lat="42.42081" lon="2.74911">
        <ele>1087.3</ele>
        <time>2018-11-26T05:03:13Z</time>
      </trkpt>
      <trkpt lat="42.42081" lon="2.74911">
        <ele>1087.3</ele>
        <time>2018-11-26T05:03:13Z</time>
      </trkpt>
      <trkpt lat="42.42081" lon="2.74911">
        <ele>1087.4</ele>
        <time>2018-11-26T05:03:13Z</time>
      </trkpt>
      <trkpt lat="42.42081" lon="2.74911">
        <ele>1087.5</ele>
        <time>2018-11-26T05:03:13Z</time>
      </trkpt>
      <trkpt lat="42.42081" lon="2.74911">
        <ele>1087.8</ele>
        <time>2018-11-26T05:03:13Z</time>
      </trkpt>
      <trkpt lat="42.42081" lon="2.74911">
        <ele>1087.8</ele>
        <time>2018-11-26T05:03:13Z</time>
      </trkpt>
      <trkpt lat="42.42081" lon="2.74911">
        <ele>1087.9</ele>
        <time>2018-11-26T05:03:13Z</time>
      </trkpt>
      <trkpt lat="42.4208" lon="2.74911">
        <ele>1087.9</ele>
        <time>2018-11-26T05:03:13Z</time>
      </trkpt>
      <trkpt lat="42.4208" lon="2.74911">
        <ele>1088</ele>
        <time>2018-11-26T05:03:13Z</time>
      </trkpt>
      <trkpt lat="42.4208" lon="2.74911">
        <ele>1088.3</ele>
        <time>2018-11-26T05:03:13Z</time>
      </trkpt>
      <trkpt lat="42.4208" lon="2.74911">
        <ele>1088.5</ele>
        <time>2018-11-26T05:03:13Z</time>
      </trkpt>
      <trkpt lat="42.4208" lon="2.74911">
        <ele>1088.2</ele>
        <time>2018-11-26T05:03:13Z</time>
      </trkpt>
      <trkpt lat="42.4208" lon="2.74911">
        <ele>1088</ele>
        <time>2018-11-26T05:03:13Z</time>
      </trkpt>
      <trkpt lat="42.4208" lon="2.74912">
        <ele>1087.7</ele>
        <time>2018-11-26T05:03:13Z</time>
      </trkpt>
      <trkpt lat="42.4208" lon="2.74912">
        <ele>1087.3</ele>
        <time>2018-11-26T05:03:14Z</time>
      </trkpt>
      <trkpt lat="42.4208" lon="2.74912">
        <ele>1086.7</ele>
        <time>2018-11-26T05:03:14Z</time>
      </trkpt>
      <trkpt lat="42.4208" lon="2.74912">
        <ele>1085.7</ele>
        <time>2018-11-26T05:03:14Z</time>
      </trkpt>
      <trkpt lat="42.4208" lon="2.74912">
        <ele>1085.9</ele>
        <time>2018-11-26T05:03:14Z</time>
      </trkpt>
      <trkpt lat="42.4208" lon="2.74912">
        <ele>1086</ele>
        <time>2018-11-26T05:03:14Z</time>
      </trkpt>
      <trkpt lat="42.4208" lon="2.74912">
        <ele>1086.2</ele>
        <time>2018-11-26T05:03:14Z</time>
      </trkpt>
      <trkpt lat="42.4208" lon="2.74912">
        <ele>1086.3</ele>
        <time>2018-11-26T05:03:14Z</time>
      </trkpt>
      <trkpt lat="42.4208" lon="2.74912">
        <ele>1086.4</ele>
        <time>2018-11-26T05:03:14Z</time>
      </trkpt>
      <trkpt lat="42.4208" lon="2.74912">
        <ele>1086.5</ele>
        <time>2018-11-26T05:03:14Z</time>
      </trkpt>
      <trkpt lat="42.4208" lon="2.74912">
        <ele>1086.8</ele>
        <time>2018-11-26T05:03:14Z</time>
      </trkpt>
      <trkpt lat="42.4208" lon="2.74912">
        <ele>1087</ele>
        <time>2018-11-26T05:03:14Z</time>
      </trkpt>
      <trkpt lat="42.4208" lon="2.74912">
        <ele>1087.3</ele>
        <time>2018-11-26T05:03:14Z</time>
      </trkpt>
      <trkpt lat="42.4208" lon="2.74912">
        <ele>1087.7</ele>
        <time>2018-11-26T05:03:14Z</time>
      </trkpt>
      <trkpt lat="42.4208" lon="2.74912">
        <ele>1087.4</ele>
        <time>2018-11-26T05:03:14Z</time>
      </trkpt>
      <trkpt lat="42.4208" lon="2.74912">
        <ele>1087.2</ele>
        <time>2018-11-26T05:03:14Z</time>
      </trkpt>
      <trkpt lat="42.4208" lon="2.74912">
        <ele>1087</ele>
        <time>2018-11-26T05:03:14Z</time>
      </trkpt>
      <trkpt lat="42.4208" lon="2.74912">
        <ele>1086.8</ele>
        <time>2018-11-26T05:03:14Z</time>
      </trkpt>
      <trkpt lat="42.42079" lon="2.74912">
        <ele>1086.6</ele>
        <time>2018-11-26T05:03:14Z</time>
      </trkpt>
      <trkpt lat="42.42079" lon="2.74912">
        <ele>1086.5</ele>
        <time>2018-11-26T05:03:14Z</time>
      </trkpt>
      <trkpt lat="42.42079" lon="2.74912">
        <ele>1086.5</ele>
        <time>2018-11-26T05:03:14Z</time>
      </trkpt>
      <trkpt lat="42.42079" lon="2.74912">
        <ele>1086.4</ele>
        <time>2018-11-26T05:03:14Z</time>
      </trkpt>
      <trkpt lat="42.42079" lon="2.74912">
        <ele>1086.5</ele>
        <time>2018-11-26T05:03:14Z</time>
      </trkpt>
      <trkpt lat="42.42079" lon="2.74912">
        <ele>1086.5</ele>
        <time>2018-11-26T05:03:14Z</time>
      </trkpt>
      <trkpt lat="42.42078" lon="2.74912">
        <ele>1086.5</ele>
        <time>2018-11-26T05:03:14Z</time>
      </trkpt>
      <trkpt lat="42.42078" lon="2.74912">
        <ele>1086.7</ele>
        <time>2018-11-26T05:03:14Z</time>
      </trkpt>
      <trkpt lat="42.42078" lon="2.74912">
        <ele>1086.7</ele>
        <time>2018-11-26T05:03:14Z</time>
      </trkpt>
      <trkpt lat="42.42078" lon="2.74912">
        <ele>1086.7</ele>
        <time>2018-11-26T05:03:14Z</time>
      </trkpt>
      <trkpt lat="42.42077" lon="2.74912">
        <ele>1086.7</ele>
        <time>2018-11-26T05:03:15Z</time>
      </trkpt>
      <trkpt lat="42.42077" lon="2.74912">
        <ele>1086.8</ele>
        <time>2018-11-26T05:03:15Z</time>
      </trkpt>
      <trkpt lat="42.42077" lon="2.74912">
        <ele>1087</ele>
        <time>2018-11-26T05:03:15Z</time>
      </trkpt>
      <trkpt lat="42.42076" lon="2.74912">
        <ele>1086.9</ele>
        <time>2018-11-26T05:03:15Z</time>
      </trkpt>
      <trkpt lat="42.42076" lon="2.74912">
        <ele>1087.1</ele>
        <time>2018-11-26T05:03:15Z</time>
      </trkpt>
      <trkpt lat="42.42076" lon="2.74912">
        <ele>1087</ele>
        <time>2018-11-26T05:03:15Z</time>
      </trkpt>
      <trkpt lat="42.42076" lon="2.74912">
        <ele>1087.1</ele>
        <time>2018-11-26T05:03:15Z</time>
      </trkpt>
      <trkpt lat="42.42075" lon="2.74913">
        <ele>1086.9</ele>
        <time>2018-11-26T05:03:15Z</time>
      </trkpt>
      <trkpt lat="42.42075" lon="2.74913">
        <ele>1087</ele>
        <time>2018-11-26T05:03:16Z</time>
      </trkpt>
      <trkpt lat="42.42075" lon="2.74913">
        <ele>1087</ele>
        <time>2018-11-26T05:03:16Z</time>
      </trkpt>
      <trkpt lat="42.42075" lon="2.74913">
        <ele>1087.1</ele>
        <time>2018-11-26T05:03:16Z</time>
      </trkpt>
      <trkpt lat="42.42075" lon="2.74913">
        <ele>1087.1</ele>
        <time>2018-11-26T05:03:16Z</time>
      </trkpt>
      <trkpt lat="42.42074" lon="2.74913">
        <ele>1087.2</ele>
        <time>2018-11-26T05:03:16Z</time>
      </trkpt>
      <trkpt lat="42.42074" lon="2.74913">
        <ele>1087.4</ele>
        <time>2018-11-26T05:03:16Z</time>
      </trkpt>
      <trkpt lat="42.42074" lon="2.74913">
        <ele>1087.4</ele>
        <time>2018-11-26T05:03:16Z</time>
      </trkpt>
      <trkpt lat="42.42074" lon="2.74914">
        <ele>1087.4</ele>
        <time>2018-11-26T05:03:16Z</time>
      </trkpt>
      <trkpt lat="42.42074" lon="2.74914">
        <ele>1087.4</ele>
        <time>2018-11-26T05:03:16Z</time>
      </trkpt>
      <trkpt lat="42.42073" lon="2.74914">
        <ele>1087.6</ele>
        <time>2018-11-26T05:03:16Z</time>
      </trkpt>
      <trkpt lat="42.42073" lon="2.74914">
        <ele>1087.5</ele>
        <time>2018-11-26T05:03:16Z</time>
      </trkpt>
      <trkpt lat="42.42073" lon="2.74914">
        <ele>1087.3</ele>
        <time>2018-11-26T05:03:16Z</time>
      </trkpt>
      <trkpt lat="42.42073" lon="2.74914">
        <ele>1087</ele>
        <time>2018-11-26T05:03:16Z</time>
      </trkpt>
      <trkpt lat="42.42073" lon="2.74914">
        <ele>1087.1</ele>
        <time>2018-11-26T05:03:17Z</time>
      </trkpt>
      <trkpt lat="42.42073" lon="2.74914">
        <ele>1087.1</ele>
        <time>2018-11-26T05:03:17Z</time>
      </trkpt>
      <trkpt lat="42.42073" lon="2.74914">
        <ele>1087.3</ele>
        <time>2018-11-26T05:03:17Z</time>
      </trkpt>
      <trkpt lat="42.42073" lon="2.74914">
        <ele>1087.3</ele>
        <time>2018-11-26T05:03:17Z</time>
      </trkpt>
      <trkpt lat="42.42073" lon="2.74914">
        <ele>1087.4</ele>
        <time>2018-11-26T05:03:17Z</time>
      </trkpt>
      <trkpt lat="42.42073" lon="2.74914">
        <ele>1087.5</ele>
        <time>2018-11-26T05:03:17Z</time>
      </trkpt>
      <trkpt lat="42.42073" lon="2.74914">
        <ele>1087.6</ele>
        <time>2018-11-26T05:03:17Z</time>
      </trkpt>
      <trkpt lat="42.42073" lon="2.74914">
        <ele>1087.9</ele>
        <time>2018-11-26T05:03:17Z</time>
      </trkpt>
      <trkpt lat="42.42073" lon="2.74914">
        <ele>1088.2</ele>
        <time>2018-11-26T05:03:17Z</time>
      </trkpt>
      <trkpt lat="42.42073" lon="2.74914">
        <ele>1087.8</ele>
        <time>2018-11-26T05:03:17Z</time>
      </trkpt>
      <trkpt lat="42.42073" lon="2.74914">
        <ele>1087.5</ele>
        <time>2018-11-26T05:03:17Z</time>
      </trkpt>
      <trkpt lat="42.42072" lon="2.74914">
        <ele>1087.1</ele>
        <time>2018-11-26T05:03:17Z</time>
      </trkpt>
      <trkpt lat="42.42072" lon="2.74914">
        <ele>1086.7</ele>
        <time>2018-11-26T05:03:17Z</time>
      </trkpt>
      <trkpt lat="42.42072" lon="2.74913">
        <ele>1086.7</ele>
        <time>2018-11-26T05:03:17Z</time>
      </trkpt>
      <trkpt lat="42.42072" lon="2.74913">
        <ele>1087</ele>
        <time>2018-11-26T05:03:17Z</time>
      </trkpt>
      <trkpt lat="42.42072" lon="2.74913">
        <ele>1087.2</ele>
        <time>2018-11-26T05:03:17Z</time>
      </trkpt>
      <trkpt lat="42.42072" lon="2.74913">
        <ele>1087.2</ele>
        <time>2018-11-26T05:03:17Z</time>
      </trkpt>
      <trkpt lat="42.42072" lon="2.74913">
        <ele>1087.1</ele>
        <time>2018-11-26T05:03:17Z</time>
      </trkpt>
      <trkpt lat="42.42072" lon="2.74913">
        <ele>1087</ele>
        <time>2018-11-26T05:03:18Z</time>
      </trkpt>
      <trkpt lat="42.42072" lon="2.74913">
        <ele>1086.8</ele>
        <time>2018-11-26T05:03:18Z</time>
      </trkpt>
      <trkpt lat="42.42072" lon="2.74913">
        <ele>1086.7</ele>
        <time>2018-11-26T05:03:18Z</time>
      </trkpt>
      <trkpt lat="42.42072" lon="2.74913">
        <ele>1086.6</ele>
        <time>2018-11-26T05:03:18Z</time>
      </trkpt>
      <trkpt lat="42.42072" lon="2.74912">
        <ele>1086.7</ele>
        <time>2018-11-26T05:03:18Z</time>
      </trkpt>
      <trkpt lat="42.42072" lon="2.74912">
        <ele>1086.9</ele>
        <time>2018-11-26T05:03:18Z</time>
      </trkpt>
      <trkpt lat="42.42072" lon="2.74912">
        <ele>1087.2</ele>
        <time>2018-11-26T05:03:18Z</time>
      </trkpt>
      <trkpt lat="42.42072" lon="2.74912">
        <ele>1087.1</ele>
        <time>2018-11-26T05:03:18Z</time>
      </trkpt>
      <trkpt lat="42.42072" lon="2.74912">
        <ele>1087.1</ele>
        <time>2018-11-26T05:03:18Z</time>
      </trkpt>
      <trkpt lat="42.42072" lon="2.74912">
        <ele>1087.1</ele>
        <time>2018-11-26T05:03:18Z</time>
      </trkpt>
      <trkpt lat="42.42072" lon="2.74912">
        <ele>1086.8</ele>
        <time>2018-11-26T05:03:18Z</time>
      </trkpt>
      <trkpt lat="42.42073" lon="2.74912">
        <ele>1086.5</ele>
        <time>2018-11-26T05:03:18Z</time>
      </trkpt>
      <trkpt lat="42.42073" lon="2.74911">
        <ele>1086.1</ele>
        <time>2018-11-26T05:03:18Z</time>
      </trkpt>
      <trkpt lat="42.42074" lon="2.74911">
        <ele>1085.6</ele>
        <time>2018-11-26T05:03:19Z</time>
      </trkpt>
      <trkpt lat="42.42074" lon="2.74911">
        <ele>1085.8</ele>
        <time>2018-11-26T05:03:19Z</time>
      </trkpt>
      <trkpt lat="42.42075" lon="2.7491">
        <ele>1086.1</ele>
        <time>2018-11-26T05:03:19Z</time>
      </trkpt>
      <trkpt lat="42.42075" lon="2.7491">
        <ele>1086.6</ele>
        <time>2018-11-26T05:03:19Z</time>
      </trkpt>
      <trkpt lat="42.42075" lon="2.74911">
        <ele>1086.7</ele>
        <time>2018-11-26T05:03:19Z</time>
      </trkpt>
      <trkpt lat="42.42075" lon="2.74911">
        <ele>1086.9</ele>
        <time>2018-11-26T05:03:19Z</time>
      </trkpt>
      <trkpt lat="42.42075" lon="2.74911">
        <ele>1087.1</ele>
        <time>2018-11-26T05:03:19Z</time>
      </trkpt>
      <trkpt lat="42.42075" lon="2.74911">
        <ele>1087</ele>
        <time>2018-11-26T05:03:19Z</time>
      </trkpt>
      <trkpt lat="42.42076" lon="2.74911">
        <ele>1086.9</ele>
        <time>2018-11-26T05:03:20Z</time>
      </trkpt>
      <trkpt lat="42.42076" lon="2.7491">
        <ele>1086.9</ele>
        <time>2018-11-26T05:03:20Z</time>
      </trkpt>
      <trkpt lat="42.42076" lon="2.74911">
        <ele>1087</ele>
        <time>2018-11-26T05:03:20Z</time>
      </trkpt>
      <trkpt lat="42.42076" lon="2.74911">
        <ele>1087.4</ele>
        <time>2018-11-26T05:03:20Z</time>
      </trkpt>
      <trkpt lat="42.42076" lon="2.74911">
        <ele>1087.6</ele>
        <time>2018-11-26T05:03:20Z</time>
      </trkpt>
      <trkpt lat="42.42075" lon="2.74911">
        <ele>1087.5</ele>
        <time>2018-11-26T05:03:20Z</time>
      </trkpt>
      <trkpt lat="42.42075" lon="2.74911">
        <ele>1087.2</ele>
        <time>2018-11-26T05:03:20Z</time>
      </trkpt>
      <trkpt lat="42.42075" lon="2.74912">
        <ele>1086.9</ele>
        <time>2018-11-26T05:03:20Z</time>
      </trkpt>
      <trkpt lat="42.42075" lon="2.74912">
        <ele>1086.6</ele>
        <time>2018-11-26T05:03:20Z</time>
      </trkpt>
      <trkpt lat="42.42075" lon="2.74912">
        <ele>1086.7</ele>
        <time>2018-11-26T05:03:20Z</time>
      </trkpt>
      <trkpt lat="42.42075" lon="2.74912">
        <ele>1086.7</ele>
        <time>2018-11-26T05:03:21Z</time>
      </trkpt>
      <trkpt lat="42.42075" lon="2.74912">
        <ele>1086.9</ele>
        <time>2018-11-26T05:03:21Z</time>
      </trkpt>
      <trkpt lat="42.42075" lon="2.74914">
        <ele>1087.1</ele>
        <time>2018-11-26T05:03:21Z</time>
      </trkpt>
      <trkpt lat="42.42075" lon="2.74914">
        <ele>1087.5</ele>
        <time>2018-11-26T05:03:21Z</time>
      </trkpt>
      <trkpt lat="42.42075" lon="2.74914">
        <ele>1087.9</ele>
        <time>2018-11-26T05:03:21Z</time>
      </trkpt>
      <trkpt lat="42.42075" lon="2.74914">
        <ele>1087.5</ele>
        <time>2018-11-26T05:03:21Z</time>
      </trkpt>
      <trkpt lat="42.42075" lon="2.74914">
        <ele>1087.3</ele>
        <time>2018-11-26T05:03:21Z</time>
      </trkpt>
      <trkpt lat="42.42075" lon="2.74914">
        <ele>1086.9</ele>
        <time>2018-11-26T05:03:21Z</time>
      </trkpt>
      <trkpt lat="42.42075" lon="2.74914">
        <ele>1086.6</ele>
        <time>2018-11-26T05:03:21Z</time>
      </trkpt>
      <trkpt lat="42.42075" lon="2.74914">
        <ele>1086.4</ele>
        <time>2018-11-26T05:03:21Z</time>
      </trkpt>
      <trkpt lat="42.42075" lon="2.74914">
        <ele>1086</ele>
        <time>2018-11-26T05:03:21Z</time>
      </trkpt>
      <trkpt lat="42.42075" lon="2.74914">
        <ele>1086</ele>
        <time>2018-11-26T05:03:21Z</time>
      </trkpt>
      <trkpt lat="42.42075" lon="2.74914">
        <ele>1085.9</ele>
        <time>2018-11-26T05:03:21Z</time>
      </trkpt>
      <trkpt lat="42.42075" lon="2.74914">
        <ele>1085.9</ele>
        <time>2018-11-26T05:03:21Z</time>
      </trkpt>
      <trkpt lat="42.42075" lon="2.74915">
        <ele>1086.1</ele>
        <time>2018-11-26T05:03:21Z</time>
      </trkpt>
      <trkpt lat="42.42076" lon="2.74915">
        <ele>1086.4</ele>
        <time>2018-11-26T05:03:22Z</time>
      </trkpt>
      <trkpt lat="42.42076" lon="2.74915">
        <ele>1086.8</ele>
        <time>2018-11-26T05:03:22Z</time>
      </trkpt>
      <trkpt lat="42.42076" lon="2.74915">
        <ele>1087.2</ele>
        <time>2018-11-26T05:03:22Z</time>
      </trkpt>
      <trkpt lat="42.42076" lon="2.74915">
        <ele>1087.4</ele>
        <time>2018-11-26T05:03:22Z</time>
      </trkpt>
      <trkpt lat="42.42076" lon="2.74915">
        <ele>1087.5</ele>
        <time>2018-11-26T05:03:22Z</time>
      </trkpt>
      <trkpt lat="42.42076" lon="2.74915">
        <ele>1087.7</ele>
        <time>2018-11-26T05:03:22Z</time>
      </trkpt>
      <trkpt lat="42.42076" lon="2.74914">
        <ele>1087.7</ele>
        <time>2018-11-26T05:03:22Z</time>
      </trkpt>
      <trkpt lat="42.42076" lon="2.74914">
        <ele>1087.5</ele>
        <time>2018-11-26T05:03:22Z</time>
      </trkpt>
      <trkpt lat="42.42076" lon="2.74914">
        <ele>1087.3</ele>
        <time>2018-11-26T05:03:22Z</time>
      </trkpt>
      <trkpt lat="42.42076" lon="2.74914">
        <ele>1087.2</ele>
        <time>2018-11-26T05:03:22Z</time>
      </trkpt>
      <trkpt lat="42.42076" lon="2.74914">
        <ele>1086.9</ele>
        <time>2018-11-26T05:03:22Z</time>
      </trkpt>
      <trkpt lat="42.42075" lon="2.74914">
        <ele>1086.6</ele>
        <time>2018-11-26T05:03:22Z</time>
      </trkpt>
      <trkpt lat="42.42075" lon="2.74914">
        <ele>1086.8</ele>
        <time>2018-11-26T05:03:22Z</time>
      </trkpt>
      <trkpt lat="42.42075" lon="2.74914">
        <ele>1087.1</ele>
        <time>2018-11-26T05:03:22Z</time>
      </trkpt>
      <trkpt lat="42.42075" lon="2.74914">
        <ele>1087.6</ele>
        <time>2018-11-26T05:03:22Z</time>
      </trkpt>
      <trkpt lat="42.42075" lon="2.74914">
        <ele>1087.3</ele>
        <time>2018-11-26T05:03:22Z</time>
      </trkpt>
      <trkpt lat="42.42075" lon="2.74914">
        <ele>1087</ele>
        <time>2018-11-26T05:03:22Z</time>
      </trkpt>
      <trkpt lat="42.42075" lon="2.74913">
        <ele>1086.6</ele>
        <time>2018-11-26T05:03:22Z</time>
      </trkpt>
      <trkpt lat="42.42075" lon="2.74913">
        <ele>1086.6</ele>
        <time>2018-11-26T05:03:22Z</time>
      </trkpt>
      <trkpt lat="42.42075" lon="2.74913">
        <ele>1086.6</ele>
        <time>2018-11-26T05:03:22Z</time>
      </trkpt>
      <trkpt lat="42.42075" lon="2.74913">
        <ele>1086.7</ele>
        <time>2018-11-26T05:03:22Z</time>
      </trkpt>
      <trkpt lat="42.42075" lon="2.74913">
        <ele>1086.8</ele>
        <time>2018-11-26T05:03:22Z</time>
      </trkpt>
      <trkpt lat="42.42075" lon="2.74912">
        <ele>1086.6</ele>
        <time>2018-11-26T05:03:22Z</time>
      </trkpt>
      <trkpt lat="42.42075" lon="2.74912">
        <ele>1086.3</ele>
        <time>2018-11-26T05:03:22Z</time>
      </trkpt>
      <trkpt lat="42.42075" lon="2.74912">
        <ele>1085.8</ele>
        <time>2018-11-26T05:03:23Z</time>
      </trkpt>
      <trkpt lat="42.42075" lon="2.74912">
        <ele>1086.2</ele>
        <time>2018-11-26T05:03:23Z</time>
      </trkpt>
      <trkpt lat="42.42075" lon="2.74912">
        <ele>1086.9</ele>
        <time>2018-11-26T05:03:23Z</time>
      </trkpt>
      <trkpt lat="42.42075" lon="2.74911">
        <ele>1087.9</ele>
        <time>2018-11-26T05:03:23Z</time>
      </trkpt>
      <trkpt lat="42.42075" lon="2.74911">
        <ele>1087.9</ele>
        <time>2018-11-26T05:03:23Z</time>
      </trkpt>
      <trkpt lat="42.42075" lon="2.74911">
        <ele>1087.8</ele>
        <time>2018-11-26T05:03:23Z</time>
      </trkpt>
      <trkpt lat="42.42076" lon="2.74911">
        <ele>1088</ele>
        <time>2018-11-26T05:03:23Z</time>
      </trkpt>
      <trkpt lat="42.42076" lon="2.74911">
        <ele>1088</ele>
        <time>2018-11-26T05:03:23Z</time>
      </trkpt>
      <trkpt lat="42.42076" lon="2.7491">
        <ele>1087.9</ele>
        <time>2018-11-26T05:03:23Z</time>
      </trkpt>
      <trkpt lat="42.42077" lon="2.7491">
        <ele>1088</ele>
        <time>2018-11-26T05:03:24Z</time>
      </trkpt>
      <trkpt lat="42.42077" lon="2.7491">
        <ele>1087.9</ele>
        <time>2018-11-26T05:03:24Z</time>
      </trkpt>
      <trkpt lat="42.42077" lon="2.7491">
        <ele>1087.7</ele>
        <time>2018-11-26T05:03:24Z</time>
      </trkpt>
      <trkpt lat="42.42078" lon="2.74909">
        <ele>1087.6</ele>
        <time>2018-11-26T05:03:24Z</time>
      </trkpt>
      <trkpt lat="42.42078" lon="2.74909">
        <ele>1087.5</ele>
        <time>2018-11-26T05:03:24Z</time>
      </trkpt>
      <trkpt lat="42.42078" lon="2.74909">
        <ele>1087.4</ele>
        <time>2018-11-26T05:03:24Z</time>
      </trkpt>
      <trkpt lat="42.42079" lon="2.74909">
        <ele>1087.4</ele>
        <time>2018-11-26T05:03:25Z</time>
      </trkpt>
      <trkpt lat="42.42079" lon="2.74909">
        <ele>1087.3</ele>
        <time>2018-11-26T05:03:25Z</time>
      </trkpt>
      <trkpt lat="42.42079" lon="2.74909">
        <ele>1087.1</ele>
        <time>2018-11-26T05:03:25Z</time>
      </trkpt>
      <trkpt lat="42.42079" lon="2.74909">
        <ele>1087</ele>
        <time>2018-11-26T05:03:25Z</time>
      </trkpt>
      <trkpt lat="42.4208" lon="2.74909">
        <ele>1086.8</ele>
        <time>2018-11-26T05:03:25Z</time>
      </trkpt>
      <trkpt lat="42.4208" lon="2.74908">
        <ele>1086.9</ele>
        <time>2018-11-26T05:03:25Z</time>
      </trkpt>
      <trkpt lat="42.4208" lon="2.74908">
        <ele>1086.8</ele>
        <time>2018-11-26T05:03:25Z</time>
      </trkpt>
      <trkpt lat="42.4208" lon="2.74908">
        <ele>1086.7</ele>
        <time>2018-11-26T05:03:25Z</time>
      </trkpt>
      <trkpt lat="42.4208" lon="2.74908">
        <ele>1086.8</ele>
        <time>2018-11-26T05:03:25Z</time>
      </trkpt>
      <trkpt lat="42.4208" lon="2.74908">
        <ele>1087</ele>
        <time>2018-11-26T05:03:25Z</time>
      </trkpt>
      <trkpt lat="42.4208" lon="2.74908">
        <ele>1087</ele>
        <time>2018-11-26T05:03:25Z</time>
      </trkpt>
      <trkpt lat="42.4208" lon="2.74908">
        <ele>1087</ele>
        <time>2018-11-26T05:03:25Z</time>
      </trkpt>
      <trkpt lat="42.4208" lon="2.74909">
        <ele>1086.9</ele>
        <time>2018-11-26T05:03:25Z</time>
      </trkpt>
      <trkpt lat="42.4208" lon="2.74909">
        <ele>1086.8</ele>
        <time>2018-11-26T05:03:25Z</time>
      </trkpt>
      <trkpt lat="42.4208" lon="2.74909">
        <ele>1086.9</ele>
        <time>2018-11-26T05:03:25Z</time>
      </trkpt>
      <trkpt lat="42.4208" lon="2.74909">
        <ele>1087</ele>
        <time>2018-11-26T05:03:25Z</time>
      </trkpt>
      <trkpt lat="42.4208" lon="2.74909">
        <ele>1087.2</ele>
        <time>2018-11-26T05:03:25Z</time>
      </trkpt>
      <trkpt lat="42.4208" lon="2.74909">
        <ele>1087.4</ele>
        <time>2018-11-26T05:03:26Z</time>
      </trkpt>
      <trkpt lat="42.4208" lon="2.74909">
        <ele>1087.4</ele>
        <time>2018-11-26T05:03:26Z</time>
      </trkpt>
      <trkpt lat="42.4208" lon="2.74909">
        <ele>1087.5</ele>
        <time>2018-11-26T05:03:26Z</time>
      </trkpt>
      <trkpt lat="42.4208" lon="2.74909">
        <ele>1087.5</ele>
        <time>2018-11-26T05:03:26Z</time>
      </trkpt>
      <trkpt lat="42.4208" lon="2.74909">
        <ele>1087.5</ele>
        <time>2018-11-26T05:03:26Z</time>
      </trkpt>
      <trkpt lat="42.4208" lon="2.74909">
        <ele>1087.5</ele>
        <time>2018-11-26T05:03:26Z</time>
      </trkpt>
      <trkpt lat="42.4208" lon="2.7491">
        <ele>1087.5</ele>
        <time>2018-11-26T05:03:26Z</time>
      </trkpt>
      <trkpt lat="42.4208" lon="2.7491">
        <ele>1087.7</ele>
        <time>2018-11-26T05:03:26Z</time>
      </trkpt>
      <trkpt lat="42.4208" lon="2.7491">
        <ele>1088</ele>
        <time>2018-11-26T05:03:26Z</time>
      </trkpt>
      <trkpt lat="42.4208" lon="2.7491">
        <ele>1088.2</ele>
        <time>2018-11-26T05:03:26Z</time>
      </trkpt>
      <trkpt lat="42.4208" lon="2.7491">
        <ele>1088.5</ele>
        <time>2018-11-26T05:03:26Z</time>
      </trkpt>
      <trkpt lat="42.4208" lon="2.7491">
        <ele>1089</ele>
        <time>2018-11-26T05:03:26Z</time>
      </trkpt>
      <trkpt lat="42.4208" lon="2.7491">
        <ele>1089.5</ele>
        <time>2018-11-26T05:03:26Z</time>
      </trkpt>
      <trkpt lat="42.4208" lon="2.7491">
        <ele>1089.3</ele>
        <time>2018-11-26T05:03:26Z</time>
      </trkpt>
      <trkpt lat="42.4208" lon="2.7491">
        <ele>1088.9</ele>
        <time>2018-11-26T05:03:26Z</time>
      </trkpt>
      <trkpt lat="42.4208" lon="2.74911">
        <ele>1088.4</ele>
        <time>2018-11-26T05:03:26Z</time>
      </trkpt>
      <trkpt lat="42.4208" lon="2.74911">
        <ele>1088.4</ele>
        <time>2018-11-26T05:03:26Z</time>
      </trkpt>
      <trkpt lat="42.4208" lon="2.74911">
        <ele>1088.4</ele>
        <time>2018-11-26T05:03:26Z</time>
      </trkpt>
      <trkpt lat="42.4208" lon="2.74911">
        <ele>1088.3</ele>
        <time>2018-11-26T05:03:26Z</time>
      </trkpt>
      <trkpt lat="42.4208" lon="2.74911">
        <ele>1088.1</ele>
        <time>2018-11-26T05:03:26Z</time>
      </trkpt>
      <trkpt lat="42.42079" lon="2.74911">
        <ele>1088.1</ele>
        <time>2018-11-26T05:03:26Z</time>
      </trkpt>
      <trkpt lat="42.42079" lon="2.74911">
        <ele>1088</ele>
        <time>2018-11-26T05:03:27Z</time>
      </trkpt>
      <trkpt lat="42.42079" lon="2.74911">
        <ele>1087.9</ele>
        <time>2018-11-26T05:03:27Z</time>
      </trkpt>
      <trkpt lat="42.42079" lon="2.74912">
        <ele>1087.7</ele>
        <time>2018-11-26T05:03:27Z</time>
      </trkpt>
      <trkpt lat="42.42079" lon="2.74912">
        <ele>1087.6</ele>
        <time>2018-11-26T05:03:27Z</time>
      </trkpt>
      <trkpt lat="42.42079" lon="2.74912">
        <ele>1087.1</ele>
        <time>2018-11-26T05:03:27Z</time>
      </trkpt>
      <trkpt lat="42.42079" lon="2.74912">
        <ele>1087.3</ele>
        <time>2018-11-26T05:03:27Z</time>
      </trkpt>
      <trkpt lat="42.42079" lon="2.74912">
        <ele>1087.5</ele>
        <time>2018-11-26T05:03:27Z</time>
      </trkpt>
      <trkpt lat="42.42079" lon="2.74912">
        <ele>1087.9</ele>
        <time>2018-11-26T05:03:27Z</time>
      </trkpt>
      <trkpt lat="42.42079" lon="2.74913">
        <ele>1087.6</ele>
        <time>2018-11-26T05:03:27Z</time>
      </trkpt>
      <trkpt lat="42.42079" lon="2.74913">
        <ele>1087.4</ele>
        <time>2018-11-26T05:03:27Z</time>
      </trkpt>
      <trkpt lat="42.42079" lon="2.74913">
        <ele>1087.1</ele>
        <time>2018-11-26T05:03:27Z</time>
      </trkpt>
      <trkpt lat="42.42078" lon="2.74913">
        <ele>1087.3</ele>
        <time>2018-11-26T05:03:27Z</time>
      </trkpt>
      <trkpt lat="42.42078" lon="2.74913">
        <ele>1087.6</ele>
        <time>2018-11-26T05:03:27Z</time>
      </trkpt>
      <trkpt lat="42.42078" lon="2.74913">
        <ele>1088</ele>
        <time>2018-11-26T05:03:27Z</time>
      </trkpt>
      <trkpt lat="42.42078" lon="2.74913">
        <ele>1088</ele>
        <time>2018-11-26T05:03:27Z</time>
      </trkpt>
      <trkpt lat="42.42078" lon="2.74914">
        <ele>1088.1</ele>
        <time>2018-11-26T05:03:27Z</time>
      </trkpt>
      <trkpt lat="42.42078" lon="2.74914">
        <ele>1088.2</ele>
        <time>2018-11-26T05:03:28Z</time>
      </trkpt>
      <trkpt lat="42.42078" lon="2.74914">
        <ele>1088.3</ele>
        <time>2018-11-26T05:03:28Z</time>
      </trkpt>
      <trkpt lat="42.42077" lon="2.74914">
        <ele>1088.4</ele>
        <time>2018-11-26T05:03:28Z</time>
      </trkpt>
      <trkpt lat="42.42077" lon="2.74914">
        <ele>1088.6</ele>
        <time>2018-11-26T05:03:28Z</time>
      </trkpt>
      <trkpt lat="42.42077" lon="2.74915">
        <ele>1088.9</ele>
        <time>2018-11-26T05:03:28Z</time>
      </trkpt>
      <trkpt lat="42.42077" lon="2.74915">
        <ele>1088.9</ele>
        <time>2018-11-26T05:03:28Z</time>
      </trkpt>
      <trkpt lat="42.42077" lon="2.74915">
        <ele>1089</ele>
        <time>2018-11-26T05:03:28Z</time>
      </trkpt>
      <trkpt lat="42.42076" lon="2.74915">
        <ele>1089</ele>
        <time>2018-11-26T05:03:28Z</time>
      </trkpt>
      <trkpt lat="42.42076" lon="2.74915">
        <ele>1089.1</ele>
        <time>2018-11-26T05:03:28Z</time>
      </trkpt>
      <trkpt lat="42.42076" lon="2.74916">
        <ele>1089.1</ele>
        <time>2018-11-26T05:03:29Z</time>
      </trkpt>
      <trkpt lat="42.42075" lon="2.74916">
        <ele>1089.1</ele>
        <time>2018-11-26T05:03:29Z</time>
      </trkpt>
      <trkpt lat="42.42075" lon="2.74916">
        <ele>1089</ele>
        <time>2018-11-26T05:03:29Z</time>
      </trkpt>
      <trkpt lat="42.42074" lon="2.74916">
        <ele>1088.8</ele>
        <time>2018-11-26T05:03:29Z</time>
      </trkpt>
      <trkpt lat="42.42074" lon="2.74916">
        <ele>1088.5</ele>
        <time>2018-11-26T05:03:29Z</time>
      </trkpt>
      <trkpt lat="42.42073" lon="2.74917">
        <ele>1088.5</ele>
        <time>2018-11-26T05:03:30Z</time>
      </trkpt>
      <trkpt lat="42.42073" lon="2.74917">
        <ele>1088.5</ele>
        <time>2018-11-26T05:03:30Z</time>
      </trkpt>
      <trkpt lat="42.42072" lon="2.74917">
        <ele>1088.5</ele>
        <time>2018-11-26T05:03:30Z</time>
      </trkpt>
      <trkpt lat="42.42072" lon="2.74917">
        <ele>1088.4</ele>
        <time>2018-11-26T05:03:30Z</time>
      </trkpt>
      <trkpt lat="42.42071" lon="2.74918">
        <ele>1088.3</ele>
        <time>2018-11-26T05:03:31Z</time>
      </trkpt>
      <trkpt lat="42.4207" lon="2.74918">
        <ele>1088.3</ele>
        <time>2018-11-26T05:03:31Z</time>
      </trkpt>
      <trkpt lat="42.4207" lon="2.74918">
        <ele>1088</ele>
        <time>2018-11-26T05:03:31Z</time>
      </trkpt>
      <trkpt lat="42.42069" lon="2.74919">
        <ele>1088.3</ele>
        <time>2018-11-26T05:03:31Z</time>
      </trkpt>
      <trkpt lat="42.42068" lon="2.74919">
        <ele>1088.5</ele>
        <time>2018-11-26T05:03:32Z</time>
      </trkpt>
      <trkpt lat="42.42068" lon="2.74919">
        <ele>1088.9</ele>
        <time>2018-11-26T05:03:32Z</time>
      </trkpt>
      <trkpt lat="42.42068" lon="2.74919">
        <ele>1088.9</ele>
        <time>2018-11-26T05:03:32Z</time>
      </trkpt>
      <trkpt lat="42.42067" lon="2.74919">
        <ele>1088.9</ele>
        <time>2018-11-26T05:03:32Z</time>
      </trkpt>
      <trkpt lat="42.42067" lon="2.74919">
        <ele>1088.7</ele>
        <time>2018-11-26T05:03:32Z</time>
      </trkpt>
      <trkpt lat="42.42067" lon="2.74919">
        <ele>1088.8</ele>
        <time>2018-11-26T05:03:32Z</time>
      </trkpt>
      <trkpt lat="42.42066" lon="2.74919">
        <ele>1088.8</ele>
        <time>2018-11-26T05:03:33Z</time>
      </trkpt>
      <trkpt lat="42.42066" lon="2.74919">
        <ele>1089</ele>
        <time>2018-11-26T05:03:33Z</time>
      </trkpt>
      <trkpt lat="42.42066" lon="2.74919">
        <ele>1089.1</ele>
        <time>2018-11-26T05:03:33Z</time>
      </trkpt>
      <trkpt lat="42.42064" lon="2.7492">
        <ele>1089.2</ele>
        <time>2018-11-26T05:03:33Z</time>
      </trkpt>
      <trkpt lat="42.42063" lon="2.7492">
        <ele>1089.2</ele>
        <time>2018-11-26T05:03:34Z</time>
      </trkpt>
      <trkpt lat="42.42062" lon="2.7492">
        <ele>1088.9</ele>
        <time>2018-11-26T05:03:34Z</time>
      </trkpt>
      <trkpt lat="42.42062" lon="2.74921">
        <ele>1088.7</ele>
        <time>2018-11-26T05:03:34Z</time>
      </trkpt>
      <trkpt lat="42.42061" lon="2.74921">
        <ele>1088.4</ele>
        <time>2018-11-26T05:03:35Z</time>
      </trkpt>
      <trkpt lat="42.4206" lon="2.74921">
        <ele>1087.9</ele>
        <time>2018-11-26T05:03:35Z</time>
      </trkpt>
      <trkpt lat="42.42058" lon="2.74922">
        <ele>1087.9</ele>
        <time>2018-11-26T05:03:36Z</time>
      </trkpt>
      <trkpt lat="42.42057" lon="2.74922">
        <ele>1088</ele>
        <time>2018-11-26T05:03:37Z</time>
      </trkpt>
      <trkpt lat="42.42055" lon="2.74922">
        <ele>1088.1</ele>
        <time>2018-11-26T05:03:37Z</time>
      </trkpt>
      <trkpt lat="42.42054" lon="2.74922">
        <ele>1088.1</ele>
        <time>2018-11-26T05:03:37Z</time>
      </trkpt>
      <trkpt lat="42.42054" lon="2.74921">
        <ele>1088.2</ele>
        <time>2018-11-26T05:03:38Z</time>
      </trkpt>
      <trkpt lat="42.42053" lon="2.74921">
        <ele>1088.3</ele>
        <time>2018-11-26T05:03:38Z</time>
      </trkpt>
      <trkpt lat="42.42053" lon="2.74921">
        <ele>1088.7</ele>
        <time>2018-11-26T05:03:38Z</time>
      </trkpt>
      <trkpt lat="42.42052" lon="2.74921">
        <ele>1089.2</ele>
        <time>2018-11-26T05:03:38Z</time>
      </trkpt>
      <trkpt lat="42.42052" lon="2.74921">
        <ele>1089.7</ele>
        <time>2018-11-26T05:03:38Z</time>
      </trkpt>
      <trkpt lat="42.42052" lon="2.74921">
        <ele>1090.1</ele>
        <time>2018-11-26T05:03:38Z</time>
      </trkpt>
      <trkpt lat="42.42052" lon="2.74921">
        <ele>1090.6</ele>
        <time>2018-11-26T05:03:39Z</time>
      </trkpt>
      <trkpt lat="42.42052" lon="2.7492">
        <ele>1091.4</ele>
        <time>2018-11-26T05:03:39Z</time>
      </trkpt>
      <trkpt lat="42.42051" lon="2.7492">
        <ele>1091.2</ele>
        <time>2018-11-26T05:03:39Z</time>
      </trkpt>
      <trkpt lat="42.42051" lon="2.7492">
        <ele>1090.7</ele>
        <time>2018-11-26T05:03:39Z</time>
      </trkpt>
      <trkpt lat="42.42051" lon="2.7492">
        <ele>1090.3</ele>
        <time>2018-11-26T05:03:39Z</time>
      </trkpt>
      <trkpt lat="42.42051" lon="2.7492">
        <ele>1090.1</ele>
        <time>2018-11-26T05:03:39Z</time>
      </trkpt>
      <trkpt lat="42.42051" lon="2.7492">
        <ele>1089.9</ele>
        <time>2018-11-26T05:03:39Z</time>
      </trkpt>
      <trkpt lat="42.4205" lon="2.7492">
        <ele>1089.8</ele>
        <time>2018-11-26T05:03:39Z</time>
      </trkpt>
      <trkpt lat="42.4205" lon="2.7492">
        <ele>1089.4</ele>
        <time>2018-11-26T05:03:39Z</time>
      </trkpt>
      <trkpt lat="42.4205" lon="2.7492">
        <ele>1089.4</ele>
        <time>2018-11-26T05:03:39Z</time>
      </trkpt>
      <trkpt lat="42.4205" lon="2.7492">
        <ele>1089.6</ele>
        <time>2018-11-26T05:03:39Z</time>
      </trkpt>
      <trkpt lat="42.4205" lon="2.7492">
        <ele>1089.6</ele>
        <time>2018-11-26T05:03:39Z</time>
      </trkpt>
      <trkpt lat="42.4205" lon="2.7492">
        <ele>1089.4</ele>
        <time>2018-11-26T05:03:39Z</time>
      </trkpt>
      <trkpt lat="42.42051" lon="2.7492">
        <ele>1089.4</ele>
        <time>2018-11-26T05:03:40Z</time>
      </trkpt>
      <trkpt lat="42.42051" lon="2.7492">
        <ele>1089.2</ele>
        <time>2018-11-26T05:03:40Z</time>
      </trkpt>
      <trkpt lat="42.42052" lon="2.74919">
        <ele>1089.1</ele>
        <time>2018-11-26T05:03:40Z</time>
      </trkpt>
      <trkpt lat="42.42052" lon="2.74919">
        <ele>1089</ele>
        <time>2018-11-26T05:03:40Z</time>
      </trkpt>
      <trkpt lat="42.42053" lon="2.74919">
        <ele>1088.9</ele>
        <time>2018-11-26T05:03:40Z</time>
      </trkpt>
      <trkpt lat="42.42053" lon="2.74918">
        <ele>1089.1</ele>
        <time>2018-11-26T05:03:41Z</time>
      </trkpt>
      <trkpt lat="42.42054" lon="2.74918">
        <ele>1089.2</ele>
        <time>2018-11-26T05:03:41Z</time>
      </trkpt>
      <trkpt lat="42.42054" lon="2.74918">
        <ele>1089.3</ele>
        <time>2018-11-26T05:03:41Z</time>
      </trkpt>
      <trkpt lat="42.42055" lon="2.74917">
        <ele>1089.3</ele>
        <time>2018-11-26T05:03:41Z</time>
      </trkpt>
      <trkpt lat="42.42055" lon="2.74917">
        <ele>1089.2</ele>
        <time>2018-11-26T05:03:41Z</time>
      </trkpt>
      <trkpt lat="42.42055" lon="2.74917">
        <ele>1089.3</ele>
        <time>2018-11-26T05:03:42Z</time>
      </trkpt>
      <trkpt lat="42.42056" lon="2.74916">
        <ele>1089.2</ele>
        <time>2018-11-26T05:03:42Z</time>
      </trkpt>
      <trkpt lat="42.42056" lon="2.74916">
        <ele>1089.2</ele>
        <time>2018-11-26T05:03:42Z</time>
      </trkpt>
      <trkpt lat="42.42057" lon="2.74916">
        <ele>1089.3</ele>
        <time>2018-11-26T05:03:42Z</time>
      </trkpt>
      <trkpt lat="42.42057" lon="2.74915">
        <ele>1089.5</ele>
        <time>2018-11-26T05:03:42Z</time>
      </trkpt>
      <trkpt lat="42.42057" lon="2.74915">
        <ele>1089.9</ele>
        <time>2018-11-26T05:03:43Z</time>
      </trkpt>
      <trkpt lat="42.42058" lon="2.74915">
        <ele>1090.4</ele>
        <time>2018-11-26T05:03:43Z</time>
      </trkpt>
      <trkpt lat="42.42058" lon="2.74914">
        <ele>1091.1</ele>
        <time>2018-11-26T05:03:43Z</time>
      </trkpt>
      <trkpt lat="42.42059" lon="2.74914">
        <ele>1090.9</ele>
        <time>2018-11-26T05:03:43Z</time>
      </trkpt>
      <trkpt lat="42.42059" lon="2.74913">
        <ele>1090.8</ele>
        <time>2018-11-26T05:03:43Z</time>
      </trkpt>
      <trkpt lat="42.4206" lon="2.74912">
        <ele>1090.5</ele>
        <time>2018-11-26T05:03:44Z</time>
      </trkpt>
      <trkpt lat="42.4206" lon="2.74912">
        <ele>1090.4</ele>
        <time>2018-11-26T05:03:44Z</time>
      </trkpt>
      <trkpt lat="42.4206" lon="2.74911">
        <ele>1090.1</ele>
        <time>2018-11-26T05:03:44Z</time>
      </trkpt>
      <trkpt lat="42.4206" lon="2.74911">
        <ele>1089.9</ele>
        <time>2018-11-26T05:03:44Z</time>
      </trkpt>
      <trkpt lat="42.4206" lon="2.74911">
        <ele>1089.9</ele>
        <time>2018-11-26T05:03:44Z</time>
      </trkpt>
      <trkpt lat="42.4206" lon="2.74911">
        <ele>1089.9</ele>
        <time>2018-11-26T05:03:44Z</time>
      </trkpt>
      <trkpt lat="42.4206" lon="2.74911">
        <ele>1090.1</ele>
        <time>2018-11-26T05:03:44Z</time>
      </trkpt>
      <trkpt lat="42.4206" lon="2.74911">
        <ele>1089.9</ele>
        <time>2018-11-26T05:03:44Z</time>
      </trkpt>
      <trkpt lat="42.4206" lon="2.74911">
        <ele>1089.9</ele>
        <time>2018-11-26T05:03:44Z</time>
      </trkpt>
      <trkpt lat="42.4206" lon="2.74911">
        <ele>1089.8</ele>
        <time>2018-11-26T05:03:44Z</time>
      </trkpt>
      <trkpt lat="42.4206" lon="2.74911">
        <ele>1089.8</ele>
        <time>2018-11-26T05:03:44Z</time>
      </trkpt>
      <trkpt lat="42.4206" lon="2.74911">
        <ele>1089.7</ele>
        <time>2018-11-26T05:03:44Z</time>
      </trkpt>
      <trkpt lat="42.4206" lon="2.74911">
        <ele>1089.4</ele>
        <time>2018-11-26T05:03:44Z</time>
      </trkpt>
      <trkpt lat="42.4206" lon="2.74911">
        <ele>1089.2</ele>
        <time>2018-11-26T05:03:44Z</time>
      </trkpt>
      <trkpt lat="42.4206" lon="2.74911">
        <ele>1089.5</ele>
        <time>2018-11-26T05:03:44Z</time>
      </trkpt>
      <trkpt lat="42.4206" lon="2.74911">
        <ele>1089.7</ele>
        <time>2018-11-26T05:03:44Z</time>
      </trkpt>
      <trkpt lat="42.4206" lon="2.74911">
        <ele>1090</ele>
        <time>2018-11-26T05:03:45Z</time>
      </trkpt>
      <trkpt lat="42.4206" lon="2.74911">
        <ele>1090.2</ele>
        <time>2018-11-26T05:03:45Z</time>
      </trkpt>
      <trkpt lat="42.42061" lon="2.7491">
        <ele>1090.5</ele>
        <time>2018-11-26T05:03:45Z</time>
      </trkpt>
      <trkpt lat="42.42062" lon="2.7491">
        <ele>1090.7</ele>
        <time>2018-11-26T05:03:45Z</time>
      </trkpt>
      <trkpt lat="42.42063" lon="2.74908">
        <ele>1090.5</ele>
        <time>2018-11-26T05:03:46Z</time>
      </trkpt>
      <trkpt lat="42.42064" lon="2.74908">
        <ele>1090.3</ele>
        <time>2018-11-26T05:03:47Z</time>
      </trkpt>
      <trkpt lat="42.42065" lon="2.74907">
        <ele>1090.3</ele>
        <time>2018-11-26T05:03:47Z</time>
      </trkpt>
      <trkpt lat="42.42066" lon="2.74907">
        <ele>1090.4</ele>
        <time>2018-11-26T05:03:47Z</time>
      </trkpt>
      <trkpt lat="42.42067" lon="2.74906">
        <ele>1090.4</ele>
        <time>2018-11-26T05:03:48Z</time>
      </trkpt>
      <trkpt lat="42.42068" lon="2.74906">
        <ele>1090.5</ele>
        <time>2018-11-26T05:03:48Z</time>
      </trkpt>
      <trkpt lat="42.42069" lon="2.74906">
        <ele>1090.4</ele>
        <time>2018-11-26T05:03:48Z</time>
      </trkpt>
      <trkpt lat="42.4207" lon="2.74905">
        <ele>1090.3</ele>
        <time>2018-11-26T05:03:49Z</time>
      </trkpt>
      <trkpt lat="42.4207" lon="2.74905">
        <ele>1090.1</ele>
        <time>2018-11-26T05:03:49Z</time>
      </trkpt>
      <trkpt lat="42.42071" lon="2.74905">
        <ele>1090.2</ele>
        <time>2018-11-26T05:03:49Z</time>
      </trkpt>
      <trkpt lat="42.42071" lon="2.74905">
        <ele>1090.3</ele>
        <time>2018-11-26T05:03:50Z</time>
      </trkpt>
      <trkpt lat="42.42072" lon="2.74905">
        <ele>1090.4</ele>
        <time>2018-11-26T05:03:50Z</time>
      </trkpt>
      <trkpt lat="42.42072" lon="2.74905">
        <ele>1090.1</ele>
        <time>2018-11-26T05:03:50Z</time>
      </trkpt>
      <trkpt lat="42.42072" lon="2.74904">
        <ele>1090</ele>
        <time>2018-11-26T05:03:50Z</time>
      </trkpt>
      <trkpt lat="42.42072" lon="2.74904">
        <ele>1089.9</ele>
        <time>2018-11-26T05:03:50Z</time>
      </trkpt>
      <trkpt lat="42.42072" lon="2.74904">
        <ele>1090</ele>
        <time>2018-11-26T05:03:50Z</time>
      </trkpt>
      <trkpt lat="42.42071" lon="2.74904">
        <ele>1090</ele>
        <time>2018-11-26T05:03:50Z</time>
      </trkpt>
      <trkpt lat="42.42071" lon="2.74903">
        <ele>1090.3</ele>
        <time>2018-11-26T05:03:51Z</time>
      </trkpt>
      <trkpt lat="42.42071" lon="2.74902">
        <ele>1090.2</ele>
        <time>2018-11-26T05:03:51Z</time>
      </trkpt>
      <trkpt lat="42.42071" lon="2.74902">
        <ele>1089.9</ele>
        <time>2018-11-26T05:03:51Z</time>
      </trkpt>
      <trkpt lat="42.4207" lon="2.74902">
        <ele>1089.7</ele>
        <time>2018-11-26T05:03:51Z</time>
      </trkpt>
      <trkpt lat="42.4207" lon="2.74902">
        <ele>1089.7</ele>
        <time>2018-11-26T05:03:51Z</time>
      </trkpt>
      <trkpt lat="42.4207" lon="2.74902">
        <ele>1089.5</ele>
        <time>2018-11-26T05:03:51Z</time>
      </trkpt>
      <trkpt lat="42.4207" lon="2.74902">
        <ele>1089.5</ele>
        <time>2018-11-26T05:03:52Z</time>
      </trkpt>
      <trkpt lat="42.4207" lon="2.74902">
        <ele>1089.4</ele>
        <time>2018-11-26T05:03:52Z</time>
      </trkpt>
      <trkpt lat="42.4207" lon="2.74902">
        <ele>1089.6</ele>
        <time>2018-11-26T05:03:52Z</time>
      </trkpt>
      <trkpt lat="42.4207" lon="2.74902">
        <ele>1089.6</ele>
        <time>2018-11-26T05:03:52Z</time>
      </trkpt>
      <trkpt lat="42.4207" lon="2.74902">
        <ele>1089.8</ele>
        <time>2018-11-26T05:03:52Z</time>
      </trkpt>
      <trkpt lat="42.42071" lon="2.74901">
        <ele>1089.7</ele>
        <time>2018-11-26T05:03:52Z</time>
      </trkpt>
      <trkpt lat="42.42072" lon="2.74901">
        <ele>1089.6</ele>
        <time>2018-11-26T05:03:53Z</time>
      </trkpt>
      <trkpt lat="42.42073" lon="2.74901">
        <ele>1089.5</ele>
        <time>2018-11-26T05:03:53Z</time>
      </trkpt>
      <trkpt lat="42.42073" lon="2.74901">
        <ele>1089.7</ele>
        <time>2018-11-26T05:03:53Z</time>
      </trkpt>
      <trkpt lat="42.42073" lon="2.749">
        <ele>1089.8</ele>
        <time>2018-11-26T05:03:53Z</time>
      </trkpt>
      <trkpt lat="42.42073" lon="2.749">
        <ele>1090.1</ele>
        <time>2018-11-26T05:03:53Z</time>
      </trkpt>
      <trkpt lat="42.42074" lon="2.749">
        <ele>1090</ele>
        <time>2018-11-26T05:03:54Z</time>
      </trkpt>
      <trkpt lat="42.42074" lon="2.74899">
        <ele>1089.9</ele>
        <time>2018-11-26T05:03:54Z</time>
      </trkpt>
      <trkpt lat="42.42075" lon="2.74899">
        <ele>1089.7</ele>
        <time>2018-11-26T05:03:54Z</time>
      </trkpt>
      <trkpt lat="42.42075" lon="2.74899">
        <ele>1089.6</ele>
        <time>2018-11-26T05:03:54Z</time>
      </trkpt>
      <trkpt lat="42.42075" lon="2.74899">
        <ele>1089.7</ele>
        <time>2018-11-26T05:03:54Z</time>
      </trkpt>
      <trkpt lat="42.42075" lon="2.74899">
        <ele>1089.5</ele>
        <time>2018-11-26T05:03:54Z</time>
      </trkpt>
      <trkpt lat="42.42076" lon="2.74899">
        <ele>1089.4</ele>
        <time>2018-11-26T05:03:55Z</time>
      </trkpt>
      <trkpt lat="42.42076" lon="2.74899">
        <ele>1089.4</ele>
        <time>2018-11-26T05:03:55Z</time>
      </trkpt>
      <trkpt lat="42.42077" lon="2.74899">
        <ele>1089.3</ele>
        <time>2018-11-26T05:03:55Z</time>
      </trkpt>
      <trkpt lat="42.42077" lon="2.74899">
        <ele>1089.2</ele>
        <time>2018-11-26T05:03:55Z</time>
      </trkpt>
      <trkpt lat="42.42077" lon="2.74899">
        <ele>1089.5</ele>
        <time>2018-11-26T05:03:55Z</time>
      </trkpt>
      <trkpt lat="42.42077" lon="2.74898">
        <ele>1089.7</ele>
        <time>2018-11-26T05:03:55Z</time>
      </trkpt>
      <trkpt lat="42.42077" lon="2.74898">
        <ele>1090</ele>
        <time>2018-11-26T05:03:55Z</time>
      </trkpt>
      <trkpt lat="42.42077" lon="2.74898">
        <ele>1090.1</ele>
        <time>2018-11-26T05:03:55Z</time>
      </trkpt>
      <trkpt lat="42.42077" lon="2.74898">
        <ele>1090.2</ele>
        <time>2018-11-26T05:03:55Z</time>
      </trkpt>
      <trkpt lat="42.42076" lon="2.74898">
        <ele>1090.2</ele>
        <time>2018-11-26T05:03:56Z</time>
      </trkpt>
      <trkpt lat="42.42076" lon="2.74898">
        <ele>1089.9</ele>
        <time>2018-11-26T05:03:56Z</time>
      </trkpt>
      <trkpt lat="42.42077" lon="2.74899">
        <ele>1089.8</ele>
        <time>2018-11-26T05:03:56Z</time>
      </trkpt>
      <trkpt lat="42.42077" lon="2.749">
        <ele>1089.3</ele>
        <time>2018-11-26T05:03:56Z</time>
      </trkpt>
      <trkpt lat="42.42078" lon="2.749">
        <ele>1089.4</ele>
        <time>2018-11-26T05:03:57Z</time>
      </trkpt>
      <trkpt lat="42.42079" lon="2.74901">
        <ele>1089.6</ele>
        <time>2018-11-26T05:03:57Z</time>
      </trkpt>
      <trkpt lat="42.42079" lon="2.74902">
        <ele>1090</ele>
        <time>2018-11-26T05:03:57Z</time>
      </trkpt>
      <trkpt lat="42.4208" lon="2.74903">
        <ele>1089.9</ele>
        <time>2018-11-26T05:03:58Z</time>
      </trkpt>
      <trkpt lat="42.42081" lon="2.74904">
        <ele>1090</ele>
        <time>2018-11-26T05:03:58Z</time>
      </trkpt>
      <trkpt lat="42.42081" lon="2.74904">
        <ele>1089.9</ele>
        <time>2018-11-26T05:03:58Z</time>
      </trkpt>
      <trkpt lat="42.42081" lon="2.74904">
        <ele>1090.1</ele>
        <time>2018-11-26T05:03:58Z</time>
      </trkpt>
      <trkpt lat="42.42081" lon="2.74904">
        <ele>1090.1</ele>
        <time>2018-11-26T05:03:58Z</time>
      </trkpt>
      <trkpt lat="42.42081" lon="2.74904">
        <ele>1090.3</ele>
        <time>2018-11-26T05:03:58Z</time>
      </trkpt>
      <trkpt lat="42.42082" lon="2.74904">
        <ele>1090.4</ele>
        <time>2018-11-26T05:03:59Z</time>
      </trkpt>
      <trkpt lat="42.42082" lon="2.74904">
        <ele>1090.1</ele>
        <time>2018-11-26T05:03:59Z</time>
      </trkpt>
      <trkpt lat="42.42082" lon="2.74904">
        <ele>1089.9</ele>
        <time>2018-11-26T05:03:59Z</time>
      </trkpt>
      <trkpt lat="42.42083" lon="2.74904">
        <ele>1089.4</ele>
        <time>2018-11-26T05:03:59Z</time>
      </trkpt>
      <trkpt lat="42.42083" lon="2.74905">
        <ele>1089.7</ele>
        <time>2018-11-26T05:03:59Z</time>
      </trkpt>
      <trkpt lat="42.42083" lon="2.74905">
        <ele>1090</ele>
        <time>2018-11-26T05:03:59Z</time>
      </trkpt>
      <trkpt lat="42.42083" lon="2.74904">
        <ele>1090.4</ele>
        <time>2018-11-26T05:03:59Z</time>
      </trkpt>
      <trkpt lat="42.42083" lon="2.74904">
        <ele>1090.3</ele>
        <time>2018-11-26T05:03:59Z</time>
      </trkpt>
      <trkpt lat="42.42083" lon="2.74904">
        <ele>1090.1</ele>
        <time>2018-11-26T05:03:59Z</time>
      </trkpt>
      <trkpt lat="42.42083" lon="2.74904">
        <ele>1090</ele>
        <time>2018-11-26T05:03:59Z</time>
      </trkpt>
      <trkpt lat="42.42083" lon="2.74904">
        <ele>1089.8</ele>
        <time>2018-11-26T05:03:59Z</time>
      </trkpt>
      <trkpt lat="42.42083" lon="2.74904">
        <ele>1089.7</ele>
        <time>2018-11-26T05:04:00Z</time>
      </trkpt>
      <trkpt lat="42.42083" lon="2.74904">
        <ele>1089.6</ele>
        <time>2018-11-26T05:04:00Z</time>
      </trkpt>
      <trkpt lat="42.42083" lon="2.74904">
        <ele>1089.4</ele>
        <time>2018-11-26T05:04:00Z</time>
      </trkpt>
      <trkpt lat="42.42083" lon="2.74904">
        <ele>1089.3</ele>
        <time>2018-11-26T05:04:00Z</time>
      </trkpt>
      <trkpt lat="42.42083" lon="2.74904">
        <ele>1089.1</ele>
        <time>2018-11-26T05:04:00Z</time>
      </trkpt>
      <trkpt lat="42.42082" lon="2.74904">
        <ele>1088.7</ele>
        <time>2018-11-26T05:04:00Z</time>
      </trkpt>
      <trkpt lat="42.42082" lon="2.74904">
        <ele>1088.9</ele>
        <time>2018-11-26T05:04:00Z</time>
      </trkpt>
      <trkpt lat="42.42082" lon="2.74904">
        <ele>1088.9</ele>
        <time>2018-11-26T05:04:00Z</time>
      </trkpt>
      <trkpt lat="42.42082" lon="2.74904">
        <ele>1089.2</ele>
        <time>2018-11-26T05:04:00Z</time>
      </trkpt>
      <trkpt lat="42.42082" lon="2.74905">
        <ele>1089.2</ele>
        <time>2018-11-26T05:04:00Z</time>
      </trkpt>
      <trkpt lat="42.42081" lon="2.74905">
        <ele>1089.4</ele>
        <time>2018-11-26T05:04:00Z</time>
      </trkpt>
      <trkpt lat="42.42081" lon="2.74905">
        <ele>1089.7</ele>
        <time>2018-11-26T05:04:00Z</time>
      </trkpt>
      <trkpt lat="42.4208" lon="2.74905">
        <ele>1089.6</ele>
        <time>2018-11-26T05:04:01Z</time>
      </trkpt>
      <trkpt lat="42.42079" lon="2.74906">
        <ele>1089.6</ele>
        <time>2018-11-26T05:04:01Z</time>
      </trkpt>
      <trkpt lat="42.42079" lon="2.74906">
        <ele>1089.3</ele>
        <time>2018-11-26T05:04:01Z</time>
      </trkpt>
      <trkpt lat="42.42078" lon="2.74906">
        <ele>1089.6</ele>
        <time>2018-11-26T05:04:02Z</time>
      </trkpt>
      <trkpt lat="42.42077" lon="2.74906">
        <ele>1089.9</ele>
        <time>2018-11-26T05:04:02Z</time>
      </trkpt>
      <trkpt lat="42.42077" lon="2.74907">
        <ele>1090.3</ele>
        <time>2018-11-26T05:04:02Z</time>
      </trkpt>
      <trkpt lat="42.42076" lon="2.74907">
        <ele>1090.2</ele>
        <time>2018-11-26T05:04:02Z</time>
      </trkpt>
      <trkpt lat="42.42076" lon="2.74907">
        <ele>1089.9</ele>
        <time>2018-11-26T05:04:02Z</time>
      </trkpt>
      <trkpt lat="42.42076" lon="2.74907">
        <ele>1089.7</ele>
        <time>2018-11-26T05:04:02Z</time>
      </trkpt>
      <trkpt lat="42.42076" lon="2.74907">
        <ele>1089.7</ele>
        <time>2018-11-26T05:04:02Z</time>
      </trkpt>
      <trkpt lat="42.42076" lon="2.74907">
        <ele>1089.4</ele>
        <time>2018-11-26T05:04:02Z</time>
      </trkpt>
      <trkpt lat="42.42076" lon="2.74907">
        <ele>1089.2</ele>
        <time>2018-11-26T05:04:03Z</time>
      </trkpt>
      <trkpt lat="42.42076" lon="2.74907">
        <ele>1088.9</ele>
        <time>2018-11-26T05:04:03Z</time>
      </trkpt>
      <trkpt lat="42.42076" lon="2.74908">
        <ele>1089</ele>
        <time>2018-11-26T05:04:03Z</time>
      </trkpt>
      <trkpt lat="42.42076" lon="2.74908">
        <ele>1089.2</ele>
        <time>2018-11-26T05:04:03Z</time>
      </trkpt>
      <trkpt lat="42.42076" lon="2.74908">
        <ele>1089.6</ele>
        <time>2018-11-26T05:04:03Z</time>
      </trkpt>
      <trkpt lat="42.42076" lon="2.74908">
        <ele>1089.6</ele>
        <time>2018-11-26T05:04:03Z</time>
      </trkpt>
      <trkpt lat="42.42076" lon="2.74908">
        <ele>1089.8</ele>
        <time>2018-11-26T05:04:03Z</time>
      </trkpt>
      <trkpt lat="42.42076" lon="2.74908">
        <ele>1090.1</ele>
        <time>2018-11-26T05:04:03Z</time>
      </trkpt>
      <trkpt lat="42.42076" lon="2.74908">
        <ele>1090.1</ele>
        <time>2018-11-26T05:04:03Z</time>
      </trkpt>
      <trkpt lat="42.42076" lon="2.74908">
        <ele>1090</ele>
        <time>2018-11-26T05:04:03Z</time>
      </trkpt>
      <trkpt lat="42.42076" lon="2.74908">
        <ele>1089.7</ele>
        <time>2018-11-26T05:04:03Z</time>
      </trkpt>
      <trkpt lat="42.42076" lon="2.74908">
        <ele>1089.7</ele>
        <time>2018-11-26T05:04:03Z</time>
      </trkpt>
      <trkpt lat="42.42076" lon="2.74908">
        <ele>1089.6</ele>
        <time>2018-11-26T05:04:03Z</time>
      </trkpt>
      <trkpt lat="42.42077" lon="2.74908">
        <ele>1089.3</ele>
        <time>2018-11-26T05:04:03Z</time>
      </trkpt>
      <trkpt lat="42.42077" lon="2.74908">
        <ele>1089.5</ele>
        <time>2018-11-26T05:04:03Z</time>
      </trkpt>
      <trkpt lat="42.42077" lon="2.74908">
        <ele>1089.5</ele>
        <time>2018-11-26T05:04:03Z</time>
      </trkpt>
      <trkpt lat="42.42077" lon="2.74908">
        <ele>1089.6</ele>
        <time>2018-11-26T05:04:03Z</time>
      </trkpt>
      <trkpt lat="42.42077" lon="2.74908">
        <ele>1089.8</ele>
        <time>2018-11-26T05:04:03Z</time>
      </trkpt>
      <trkpt lat="42.42077" lon="2.74908">
        <ele>1089.9</ele>
        <time>2018-11-26T05:04:03Z</time>
      </trkpt>
      <trkpt lat="42.42077" lon="2.74908">
        <ele>1090.2</ele>
        <time>2018-11-26T05:04:03Z</time>
      </trkpt>
      <trkpt lat="42.42077" lon="2.74908">
        <ele>1090.4</ele>
        <time>2018-11-26T05:04:03Z</time>
      </trkpt>
      <trkpt lat="42.42077" lon="2.74908">
        <ele>1090.3</ele>
        <time>2018-11-26T05:04:03Z</time>
      </trkpt>
      <trkpt lat="42.42077" lon="2.74908">
        <ele>1090.3</ele>
        <time>2018-11-26T05:04:03Z</time>
      </trkpt>
      <trkpt lat="42.42077" lon="2.74908">
        <ele>1090.3</ele>
        <time>2018-11-26T05:04:03Z</time>
      </trkpt>
      <trkpt lat="42.42077" lon="2.74907">
        <ele>1090.6</ele>
        <time>2018-11-26T05:04:03Z</time>
      </trkpt>
      <trkpt lat="42.42077" lon="2.74907">
        <ele>1090.9</ele>
        <time>2018-11-26T05:04:03Z</time>
      </trkpt>
      <trkpt lat="42.42077" lon="2.74907">
        <ele>1091.1</ele>
        <time>2018-11-26T05:04:03Z</time>
      </trkpt>
      <trkpt lat="42.42077" lon="2.74907">
        <ele>1090.9</ele>
        <time>2018-11-26T05:04:03Z</time>
      </trkpt>
      <trkpt lat="42.42077" lon="2.74907">
        <ele>1090.7</ele>
        <time>2018-11-26T05:04:03Z</time>
      </trkpt>
      <trkpt lat="42.42077" lon="2.74906">
        <ele>1090.1</ele>
        <time>2018-11-26T05:04:03Z</time>
      </trkpt>
      <trkpt lat="42.42077" lon="2.74906">
        <ele>1090.2</ele>
        <time>2018-11-26T05:04:03Z</time>
      </trkpt>
      <trkpt lat="42.42077" lon="2.74906">
        <ele>1090</ele>
        <time>2018-11-26T05:04:04Z</time>
      </trkpt>
      <trkpt lat="42.42077" lon="2.74906">
        <ele>1089.8</ele>
        <time>2018-11-26T05:04:04Z</time>
      </trkpt>
      <trkpt lat="42.42077" lon="2.74905">
        <ele>1089.9</ele>
        <time>2018-11-26T05:04:04Z</time>
      </trkpt>
      <trkpt lat="42.42078" lon="2.74905">
        <ele>1090.1</ele>
        <time>2018-11-26T05:04:04Z</time>
      </trkpt>
      <trkpt lat="42.42078" lon="2.74905">
        <ele>1090.3</ele>
        <time>2018-11-26T05:04:04Z</time>
      </trkpt>
      <trkpt lat="42.42078" lon="2.74904">
        <ele>1090.5</ele>
        <time>2018-11-26T05:04:04Z</time>
      </trkpt>
      <trkpt lat="42.42078" lon="2.74904">
        <ele>1090.6</ele>
        <time>2018-11-26T05:04:04Z</time>
      </trkpt>
      <trkpt lat="42.42078" lon="2.74903">
        <ele>1090.9</ele>
        <time>2018-11-26T05:04:04Z</time>
      </trkpt>
      <trkpt lat="42.42078" lon="2.74903">
        <ele>1091</ele>
        <time>2018-11-26T05:04:04Z</time>
      </trkpt>
      <trkpt lat="42.42079" lon="2.74903">
        <ele>1090.8</ele>
        <time>2018-11-26T05:04:05Z</time>
      </trkpt>
      <trkpt lat="42.42079" lon="2.74902">
        <ele>1090.8</ele>
        <time>2018-11-26T05:04:05Z</time>
      </trkpt>
      <trkpt lat="42.42079" lon="2.74902">
        <ele>1090.7</ele>
        <time>2018-11-26T05:04:05Z</time>
      </trkpt>
      <trkpt lat="42.42078" lon="2.74902">
        <ele>1090.6</ele>
        <time>2018-11-26T05:04:05Z</time>
      </trkpt>
      <trkpt lat="42.42078" lon="2.74902">
        <ele>1090.4</ele>
        <time>2018-11-26T05:04:05Z</time>
      </trkpt>
      <trkpt lat="42.42077" lon="2.74902">
        <ele>1090.3</ele>
        <time>2018-11-26T05:04:05Z</time>
      </trkpt>
      <trkpt lat="42.42077" lon="2.74903">
        <ele>1090.3</ele>
        <time>2018-11-26T05:04:05Z</time>
      </trkpt>
      <trkpt lat="42.42077" lon="2.74903">
        <ele>1090.5</ele>
        <time>2018-11-26T05:04:06Z</time>
      </trkpt>
      <trkpt lat="42.42076" lon="2.74903">
        <ele>1090.7</ele>
        <time>2018-11-26T05:04:06Z</time>
      </trkpt>
      <trkpt lat="42.42076" lon="2.74903">
        <ele>1090.6</ele>
        <time>2018-11-26T05:04:06Z</time>
      </trkpt>
      <trkpt lat="42.42075" lon="2.74903">
        <ele>1090.2</ele>
        <time>2018-11-26T05:04:06Z</time>
      </trkpt>
      <trkpt lat="42.42075" lon="2.74903">
        <ele>1089.8</ele>
        <time>2018-11-26T05:04:06Z</time>
      </trkpt>
      <trkpt lat="42.42075" lon="2.74903">
        <ele>1089.3</ele>
        <time>2018-11-26T05:04:06Z</time>
      </trkpt>
      <trkpt lat="42.42074" lon="2.74903">
        <ele>1089.2</ele>
        <time>2018-11-26T05:04:07Z</time>
      </trkpt>
      <trkpt lat="42.42074" lon="2.74903">
        <ele>1089.2</ele>
        <time>2018-11-26T05:04:07Z</time>
      </trkpt>
      <trkpt lat="42.42074" lon="2.74903">
        <ele>1089</ele>
        <time>2018-11-26T05:04:07Z</time>
      </trkpt>
      <trkpt lat="42.42073" lon="2.74903">
        <ele>1089.1</ele>
        <time>2018-11-26T05:04:07Z</time>
      </trkpt>
      <trkpt lat="42.42073" lon="2.74903">
        <ele>1089.2</ele>
        <time>2018-11-26T05:04:07Z</time>
      </trkpt>
      <trkpt lat="42.42073" lon="2.74903">
        <ele>1089.4</ele>
        <time>2018-11-26T05:04:07Z</time>
      </trkpt>
      <trkpt lat="42.42073" lon="2.74903">
        <ele>1089.4</ele>
        <time>2018-11-26T05:04:07Z</time>
      </trkpt>
      <trkpt lat="42.42072" lon="2.74903">
        <ele>1089.3</ele>
        <time>2018-11-26T05:04:07Z</time>
      </trkpt>
      <trkpt lat="42.42072" lon="2.74903">
        <ele>1089.3</ele>
        <time>2018-11-26T05:04:08Z</time>
      </trkpt>
      <trkpt lat="42.42071" lon="2.74904">
        <ele>1089.4</ele>
        <time>2018-11-26T05:04:08Z</time>
      </trkpt>
      <trkpt lat="42.42071" lon="2.74904">
        <ele>1089.6</ele>
        <time>2018-11-26T05:04:08Z</time>
      </trkpt>
      <trkpt lat="42.4207" lon="2.74905">
        <ele>1089.7</ele>
        <time>2018-11-26T05:04:08Z</time>
      </trkpt>
      <trkpt lat="42.4207" lon="2.74905">
        <ele>1089.9</ele>
        <time>2018-11-26T05:04:09Z</time>
      </trkpt>
      <trkpt lat="42.42069" lon="2.74905">
        <ele>1090.3</ele>
        <time>2018-11-26T05:04:09Z</time>
      </trkpt>
      <trkpt lat="42.42069" lon="2.74905">
        <ele>1090.7</ele>
        <time>2018-11-26T05:04:09Z</time>
      </trkpt>
      <trkpt lat="42.42069" lon="2.74906">
        <ele>1091.3</ele>
        <time>2018-11-26T05:04:09Z</time>
      </trkpt>
      <trkpt lat="42.42069" lon="2.74906">
        <ele>1091.2</ele>
        <time>2018-11-26T05:04:09Z</time>
      </trkpt>
      <trkpt lat="42.42069" lon="2.74905">
        <ele>1090.8</ele>
        <time>2018-11-26T05:04:09Z</time>
      </trkpt>
      <trkpt lat="42.42069" lon="2.74905">
        <ele>1090.5</ele>
        <time>2018-11-26T05:04:09Z</time>
      </trkpt>
      <trkpt lat="42.42069" lon="2.74905">
        <ele>1090.7</ele>
        <time>2018-11-26T05:04:09Z</time>
      </trkpt>
      <trkpt lat="42.42069" lon="2.74905">
        <ele>1090.9</ele>
        <time>2018-11-26T05:04:09Z</time>
      </trkpt>
      <trkpt lat="42.42069" lon="2.74904">
        <ele>1091.1</ele>
        <time>2018-11-26T05:04:10Z</time>
      </trkpt>
      <trkpt lat="42.4207" lon="2.74904">
        <ele>1091</ele>
        <time>2018-11-26T05:04:10Z</time>
      </trkpt>
      <trkpt lat="42.4207" lon="2.74904">
        <ele>1090.7</ele>
        <time>2018-11-26T05:04:10Z</time>
      </trkpt>
      <trkpt lat="42.4207" lon="2.74904">
        <ele>1090.4</ele>
        <time>2018-11-26T05:04:10Z</time>
      </trkpt>
      <trkpt lat="42.42071" lon="2.74903">
        <ele>1090.4</ele>
        <time>2018-11-26T05:04:10Z</time>
      </trkpt>
      <trkpt lat="42.42071" lon="2.74903">
        <ele>1090.3</ele>
        <time>2018-11-26T05:04:10Z</time>
      </trkpt>
      <trkpt lat="42.42071" lon="2.74903">
        <ele>1090.1</ele>
        <time>2018-11-26T05:04:10Z</time>
      </trkpt>
      <trkpt lat="42.42071" lon="2.74903">
        <ele>1090.1</ele>
        <time>2018-11-26T05:04:10Z</time>
      </trkpt>
      <trkpt lat="42.42071" lon="2.74903">
        <ele>1090.2</ele>
        <time>2018-11-26T05:04:11Z</time>
      </trkpt>
      <trkpt lat="42.42071" lon="2.74903">
        <ele>1090</ele>
        <time>2018-11-26T05:04:11Z</time>
      </trkpt>
      <trkpt lat="42.4207" lon="2.74904">
        <ele>1090.1</ele>
        <time>2018-11-26T05:04:11Z</time>
      </trkpt>
      <trkpt lat="42.4207" lon="2.74904">
        <ele>1090</ele>
        <time>2018-11-26T05:04:11Z</time>
      </trkpt>
      <trkpt lat="42.4207" lon="2.74904">
        <ele>1089.9</ele>
        <time>2018-11-26T05:04:11Z</time>
      </trkpt>
      <trkpt lat="42.42069" lon="2.74905">
        <ele>1089.9</ele>
        <time>2018-11-26T05:04:12Z</time>
      </trkpt>
      <trkpt lat="42.42068" lon="2.74905">
        <ele>1090.1</ele>
        <time>2018-11-26T05:04:12Z</time>
      </trkpt>
      <trkpt lat="42.42069" lon="2.74905">
        <ele>1090.4</ele>
        <time>2018-11-26T05:04:12Z</time>
      </trkpt>
      <trkpt lat="42.42069" lon="2.74905">
        <ele>1090.9</ele>
        <time>2018-11-26T05:04:12Z</time>
      </trkpt>
      <trkpt lat="42.4207" lon="2.74905">
        <ele>1091</ele>
        <time>2018-11-26T05:04:12Z</time>
      </trkpt>
      <trkpt lat="42.4207" lon="2.74905">
        <ele>1091.1</ele>
        <time>2018-11-26T05:04:13Z</time>
      </trkpt>
      <trkpt lat="42.42071" lon="2.74905">
        <ele>1091.2</ele>
        <time>2018-11-26T05:04:13Z</time>
      </trkpt>
      <trkpt lat="42.42071" lon="2.74905">
        <ele>1091.2</ele>
        <time>2018-11-26T05:04:13Z</time>
      </trkpt>
      <trkpt lat="42.42071" lon="2.74905">
        <ele>1091.2</ele>
        <time>2018-11-26T05:04:13Z</time>
      </trkpt>
      <trkpt lat="42.42071" lon="2.74905">
        <ele>1091.1</ele>
        <time>2018-11-26T05:04:13Z</time>
      </trkpt>
      <trkpt lat="42.42072" lon="2.74904">
        <ele>1091.1</ele>
        <time>2018-11-26T05:04:13Z</time>
      </trkpt>
      <trkpt lat="42.42072" lon="2.74904">
        <ele>1091.1</ele>
        <time>2018-11-26T05:04:13Z</time>
      </trkpt>
      <trkpt lat="42.42072" lon="2.74904">
        <ele>1091</ele>
        <time>2018-11-26T05:04:14Z</time>
      </trkpt>
      <trkpt lat="42.42073" lon="2.74904">
        <ele>1091</ele>
        <time>2018-11-26T05:04:14Z</time>
      </trkpt>
      <trkpt lat="42.42073" lon="2.74904">
        <ele>1090.9</ele>
        <time>2018-11-26T05:04:14Z</time>
      </trkpt>
      <trkpt lat="42.42073" lon="2.74904">
        <ele>1090.9</ele>
        <time>2018-11-26T05:04:14Z</time>
      </trkpt>
      <trkpt lat="42.42073" lon="2.74903">
        <ele>1090.9</ele>
        <time>2018-11-26T05:04:14Z</time>
      </trkpt>
      <trkpt lat="42.42074" lon="2.74903">
        <ele>1091</ele>
        <time>2018-11-26T05:04:14Z</time>
      </trkpt>
      <trkpt lat="42.42074" lon="2.74903">
        <ele>1091</ele>
        <time>2018-11-26T05:04:14Z</time>
      </trkpt>
      <trkpt lat="42.42074" lon="2.74903">
        <ele>1090.8</ele>
        <time>2018-11-26T05:04:14Z</time>
      </trkpt>
      <trkpt lat="42.42074" lon="2.74903">
        <ele>1090.7</ele>
        <time>2018-11-26T05:04:14Z</time>
      </trkpt>
      <trkpt lat="42.42074" lon="2.74902">
        <ele>1090.6</ele>
        <time>2018-11-26T05:04:15Z</time>
      </trkpt>
      <trkpt lat="42.42074" lon="2.74902">
        <ele>1090.3</ele>
        <time>2018-11-26T05:04:15Z</time>
      </trkpt>
      <trkpt lat="42.42074" lon="2.74902">
        <ele>1090.2</ele>
        <time>2018-11-26T05:04:15Z</time>
      </trkpt>
      <trkpt lat="42.42074" lon="2.74901">
        <ele>1090.1</ele>
        <time>2018-11-26T05:04:15Z</time>
      </trkpt>
      <trkpt lat="42.42075" lon="2.74901">
        <ele>1090.2</ele>
        <time>2018-11-26T05:04:15Z</time>
      </trkpt>
      <trkpt lat="42.42075" lon="2.74901">
        <ele>1090.3</ele>
        <time>2018-11-26T05:04:15Z</time>
      </trkpt>
      <trkpt lat="42.42075" lon="2.749">
        <ele>1090.6</ele>
        <time>2018-11-26T05:04:15Z</time>
      </trkpt>
      <trkpt lat="42.42076" lon="2.749">
        <ele>1090.8</ele>
        <time>2018-11-26T05:04:16Z</time>
      </trkpt>
      <trkpt lat="42.42076" lon="2.749">
        <ele>1090.6</ele>
        <time>2018-11-26T05:04:16Z</time>
      </trkpt>
      <trkpt lat="42.42077" lon="2.74899">
        <ele>1090.4</ele>
        <time>2018-11-26T05:04:16Z</time>
      </trkpt>
      <trkpt lat="42.42077" lon="2.74899">
        <ele>1090</ele>
        <time>2018-11-26T05:04:16Z</time>
      </trkpt>
      <trkpt lat="42.42078" lon="2.74898">
        <ele>1090.3</ele>
        <time>2018-11-26T05:04:17Z</time>
      </trkpt>
      <trkpt lat="42.42079" lon="2.74898">
        <ele>1090.7</ele>
        <time>2018-11-26T05:04:17Z</time>
      </trkpt>
      <trkpt lat="42.42079" lon="2.74898">
        <ele>1091.1</ele>
        <time>2018-11-26T05:04:17Z</time>
      </trkpt>
      <trkpt lat="42.4208" lon="2.74898">
        <ele>1091.6</ele>
        <time>2018-11-26T05:04:17Z</time>
      </trkpt>
      <trkpt lat="42.4208" lon="2.74898">
        <ele>1091.4</ele>
        <time>2018-11-26T05:04:17Z</time>
      </trkpt>
      <trkpt lat="42.4208" lon="2.74898">
        <ele>1091.2</ele>
        <time>2018-11-26T05:04:17Z</time>
      </trkpt>
      <trkpt lat="42.4208" lon="2.74898">
        <ele>1090.9</ele>
        <time>2018-11-26T05:04:17Z</time>
      </trkpt>
      <trkpt lat="42.4208" lon="2.74898">
        <ele>1091</ele>
        <time>2018-11-26T05:04:18Z</time>
      </trkpt>
      <trkpt lat="42.4208" lon="2.74897">
        <ele>1091.2</ele>
        <time>2018-11-26T05:04:18Z</time>
      </trkpt>
      <trkpt lat="42.4208" lon="2.74897">
        <ele>1091.5</ele>
        <time>2018-11-26T05:04:18Z</time>
      </trkpt>
      <trkpt lat="42.4208" lon="2.74897">
        <ele>1091.5</ele>
        <time>2018-11-26T05:04:18Z</time>
      </trkpt>
      <trkpt lat="42.4208" lon="2.74898">
        <ele>1091.5</ele>
        <time>2018-11-26T05:04:18Z</time>
      </trkpt>
      <trkpt lat="42.4208" lon="2.74898">
        <ele>1091.4</ele>
        <time>2018-11-26T05:04:18Z</time>
      </trkpt>
      <trkpt lat="42.4208" lon="2.74898">
        <ele>1091.5</ele>
        <time>2018-11-26T05:04:18Z</time>
      </trkpt>
      <trkpt lat="42.42079" lon="2.74898">
        <ele>1091.9</ele>
        <time>2018-11-26T05:04:18Z</time>
      </trkpt>
      <trkpt lat="42.42079" lon="2.74898">
        <ele>1092.2</ele>
        <time>2018-11-26T05:04:18Z</time>
      </trkpt>
      <trkpt lat="42.42079" lon="2.74899">
        <ele>1092.1</ele>
        <time>2018-11-26T05:04:19Z</time>
      </trkpt>
      <trkpt lat="42.42078" lon="2.74899">
        <ele>1091.8</ele>
        <time>2018-11-26T05:04:19Z</time>
      </trkpt>
      <trkpt lat="42.42078" lon="2.74899">
        <ele>1091.6</ele>
        <time>2018-11-26T05:04:19Z</time>
      </trkpt>
      <trkpt lat="42.42077" lon="2.74899">
        <ele>1091.5</ele>
        <time>2018-11-26T05:04:19Z</time>
      </trkpt>
      <trkpt lat="42.42077" lon="2.74899">
        <ele>1091.3</ele>
        <time>2018-11-26T05:04:19Z</time>
      </trkpt>
      <trkpt lat="42.42077" lon="2.74899">
        <ele>1091.2</ele>
        <time>2018-11-26T05:04:19Z</time>
      </trkpt>
      <trkpt lat="42.42076" lon="2.74899">
        <ele>1090.9</ele>
        <time>2018-11-26T05:04:19Z</time>
      </trkpt>
      <trkpt lat="42.42076" lon="2.74899">
        <ele>1091.1</ele>
        <time>2018-11-26T05:04:20Z</time>
      </trkpt>
      <trkpt lat="42.42076" lon="2.74899">
        <ele>1091.3</ele>
        <time>2018-11-26T05:04:20Z</time>
      </trkpt>
      <trkpt lat="42.42076" lon="2.74899">
        <ele>1091.5</ele>
        <time>2018-11-26T05:04:20Z</time>
      </trkpt>
      <trkpt lat="42.42076" lon="2.74899">
        <ele>1091.4</ele>
        <time>2018-11-26T05:04:20Z</time>
      </trkpt>
      <trkpt lat="42.42077" lon="2.74899">
        <ele>1091.3</ele>
        <time>2018-11-26T05:04:20Z</time>
      </trkpt>
      <trkpt lat="42.42077" lon="2.74898">
        <ele>1091.1</ele>
        <time>2018-11-26T05:04:20Z</time>
      </trkpt>
      <trkpt lat="42.42077" lon="2.74898">
        <ele>1091.3</ele>
        <time>2018-11-26T05:04:20Z</time>
      </trkpt>
      <trkpt lat="42.42077" lon="2.74898">
        <ele>1091.3</ele>
        <time>2018-11-26T05:04:20Z</time>
      </trkpt>
      <trkpt lat="42.42078" lon="2.74898">
        <ele>1091.2</ele>
        <time>2018-11-26T05:04:20Z</time>
      </trkpt>
      <trkpt lat="42.42078" lon="2.74898">
        <ele>1091.4</ele>
        <time>2018-11-26T05:04:21Z</time>
      </trkpt>
      <trkpt lat="42.42079" lon="2.74898">
        <ele>1091.3</ele>
        <time>2018-11-26T05:04:21Z</time>
      </trkpt>
      <trkpt lat="42.42079" lon="2.74898">
        <ele>1091.5</ele>
        <time>2018-11-26T05:04:21Z</time>
      </trkpt>
      <trkpt lat="42.42079" lon="2.74898">
        <ele>1091.5</ele>
        <time>2018-11-26T05:04:21Z</time>
      </trkpt>
      <trkpt lat="42.4208" lon="2.74898">
        <ele>1091.7</ele>
        <time>2018-11-26T05:04:21Z</time>
      </trkpt>
      <trkpt lat="42.4208" lon="2.74898">
        <ele>1092</ele>
        <time>2018-11-26T05:04:21Z</time>
      </trkpt>
      <trkpt lat="42.4208" lon="2.74898">
        <ele>1092.3</ele>
        <time>2018-11-26T05:04:21Z</time>
      </trkpt>
      <trkpt lat="42.42081" lon="2.74898">
        <ele>1092.2</ele>
        <time>2018-11-26T05:04:22Z</time>
      </trkpt>
      <trkpt lat="42.42081" lon="2.74898">
        <ele>1092.1</ele>
        <time>2018-11-26T05:04:22Z</time>
      </trkpt>
      <trkpt lat="42.42082" lon="2.74898">
        <ele>1092</ele>
        <time>2018-11-26T05:04:22Z</time>
      </trkpt>
      <trkpt lat="42.42081" lon="2.74899">
        <ele>1091.8</ele>
        <time>2018-11-26T05:04:22Z</time>
      </trkpt>
      <trkpt lat="42.42081" lon="2.74899">
        <ele>1091.6</ele>
        <time>2018-11-26T05:04:23Z</time>
      </trkpt>
      <trkpt lat="42.42081" lon="2.749">
        <ele>1091.4</ele>
        <time>2018-11-26T05:04:23Z</time>
      </trkpt>
      <trkpt lat="42.42081" lon="2.749">
        <ele>1091.2</ele>
        <time>2018-11-26T05:04:23Z</time>
      </trkpt>
      <trkpt lat="42.42081" lon="2.749">
        <ele>1091.1</ele>
        <time>2018-11-26T05:04:23Z</time>
      </trkpt>
      <trkpt lat="42.42081" lon="2.749">
        <ele>1090.8</ele>
        <time>2018-11-26T05:04:23Z</time>
      </trkpt>
      <trkpt lat="42.42081" lon="2.749">
        <ele>1090.9</ele>
        <time>2018-11-26T05:04:23Z</time>
      </trkpt>
      <trkpt lat="42.4208" lon="2.749">
        <ele>1091.1</ele>
        <time>2018-11-26T05:04:23Z</time>
      </trkpt>
      <trkpt lat="42.4208" lon="2.749">
        <ele>1091.4</ele>
        <time>2018-11-26T05:04:23Z</time>
      </trkpt>
      <trkpt lat="42.4208" lon="2.749">
        <ele>1091.6</ele>
        <time>2018-11-26T05:04:23Z</time>
      </trkpt>
      <trkpt lat="42.4208" lon="2.74901">
        <ele>1091.6</ele>
        <time>2018-11-26T05:04:23Z</time>
      </trkpt>
      <trkpt lat="42.4208" lon="2.74901">
        <ele>1091.7</ele>
        <time>2018-11-26T05:04:23Z</time>
      </trkpt>
      <trkpt lat="42.42079" lon="2.74901">
        <ele>1091.7</ele>
        <time>2018-11-26T05:04:23Z</time>
      </trkpt>
      <trkpt lat="42.42079" lon="2.74901">
        <ele>1091.6</ele>
        <time>2018-11-26T05:04:23Z</time>
      </trkpt>
      <trkpt lat="42.42079" lon="2.74901">
        <ele>1091.6</ele>
        <time>2018-11-26T05:04:24Z</time>
      </trkpt>
      <trkpt lat="42.42079" lon="2.74901">
        <ele>1091.7</ele>
        <time>2018-11-26T05:04:24Z</time>
      </trkpt>
      <trkpt lat="42.42079" lon="2.74901">
        <ele>1091.5</ele>
        <time>2018-11-26T05:04:24Z</time>
      </trkpt>
      <trkpt lat="42.42079" lon="2.74901">
        <ele>1091.4</ele>
        <time>2018-11-26T05:04:24Z</time>
      </trkpt>
      <trkpt lat="42.42079" lon="2.74902">
        <ele>1091.2</ele>
        <time>2018-11-26T05:04:24Z</time>
      </trkpt>
      <trkpt lat="42.42079" lon="2.74902">
        <ele>1091.3</ele>
        <time>2018-11-26T05:04:24Z</time>
      </trkpt>
      <trkpt lat="42.42079" lon="2.74902">
        <ele>1091.5</ele>
        <time>2018-11-26T05:04:24Z</time>
      </trkpt>
      <trkpt lat="42.42079" lon="2.74901">
        <ele>1091.8</ele>
        <time>2018-11-26T05:04:24Z</time>
      </trkpt>
      <trkpt lat="42.42079" lon="2.74901">
        <ele>1092</ele>
        <time>2018-11-26T05:04:24Z</time>
      </trkpt>
      <trkpt lat="42.42079" lon="2.74901">
        <ele>1092.1</ele>
        <time>2018-11-26T05:04:24Z</time>
      </trkpt>
      <trkpt lat="42.42079" lon="2.74901">
        <ele>1092.2</ele>
        <time>2018-11-26T05:04:24Z</time>
      </trkpt>
      <trkpt lat="42.42079" lon="2.74901">
        <ele>1092.2</ele>
        <time>2018-11-26T05:04:24Z</time>
      </trkpt>
      <trkpt lat="42.42079" lon="2.749">
        <ele>1092.1</ele>
        <time>2018-11-26T05:04:24Z</time>
      </trkpt>
      <trkpt lat="42.4208" lon="2.749">
        <ele>1092.1</ele>
        <time>2018-11-26T05:04:25Z</time>
      </trkpt>
      <trkpt lat="42.4208" lon="2.749">
        <ele>1092.1</ele>
        <time>2018-11-26T05:04:25Z</time>
      </trkpt>
      <trkpt lat="42.4208" lon="2.74899">
        <ele>1091.9</ele>
        <time>2018-11-26T05:04:25Z</time>
      </trkpt>
      <trkpt lat="42.4208" lon="2.74899">
        <ele>1091.8</ele>
        <time>2018-11-26T05:04:25Z</time>
      </trkpt>
      <trkpt lat="42.4208" lon="2.74899">
        <ele>1091.6</ele>
        <time>2018-11-26T05:04:25Z</time>
      </trkpt>
      <trkpt lat="42.42081" lon="2.74898">
        <ele>1091.9</ele>
        <time>2018-11-26T05:04:25Z</time>
      </trkpt>
      <trkpt lat="42.42081" lon="2.74897">
        <ele>1092</ele>
        <time>2018-11-26T05:04:25Z</time>
      </trkpt>
      <trkpt lat="42.42081" lon="2.74897">
        <ele>1092.3</ele>
        <time>2018-11-26T05:04:26Z</time>
      </trkpt>
      <trkpt lat="42.42081" lon="2.74896">
        <ele>1092.3</ele>
        <time>2018-11-26T05:04:26Z</time>
      </trkpt>
      <trkpt lat="42.42082" lon="2.74895">
        <ele>1092.4</ele>
        <time>2018-11-26T05:04:26Z</time>
      </trkpt>
      <trkpt lat="42.42082" lon="2.74894">
        <ele>1092.5</ele>
        <time>2018-11-26T05:04:26Z</time>
      </trkpt>
      <trkpt lat="42.42082" lon="2.74894">
        <ele>1092.4</ele>
        <time>2018-11-26T05:04:27Z</time>
      </trkpt>
      <trkpt lat="42.42082" lon="2.74893">
        <ele>1092.2</ele>
        <time>2018-11-26T05:04:27Z</time>
      </trkpt>
      <trkpt lat="42.42082" lon="2.74893">
        <ele>1091.9</ele>
        <time>2018-11-26T05:04:27Z</time>
      </trkpt>
      <trkpt lat="42.42082" lon="2.74893">
        <ele>1092</ele>
        <time>2018-11-26T05:04:27Z</time>
      </trkpt>
      <trkpt lat="42.42083" lon="2.74893">
        <ele>1091.9</ele>
        <time>2018-11-26T05:04:27Z</time>
      </trkpt>
      <trkpt lat="42.42083" lon="2.74893">
        <ele>1092</ele>
        <time>2018-11-26T05:04:27Z</time>
      </trkpt>
      <trkpt lat="42.42083" lon="2.74892">
        <ele>1092</ele>
        <time>2018-11-26T05:04:28Z</time>
      </trkpt>
      <trkpt lat="42.42084" lon="2.74892">
        <ele>1091.8</ele>
        <time>2018-11-26T05:04:28Z</time>
      </trkpt>
      <trkpt lat="42.42084" lon="2.74892">
        <ele>1091.8</ele>
        <time>2018-11-26T05:04:28Z</time>
      </trkpt>
      <trkpt lat="42.42084" lon="2.74892">
        <ele>1091.7</ele>
        <time>2018-11-26T05:04:28Z</time>
      </trkpt>
      <trkpt lat="42.42084" lon="2.74894">
        <ele>1091.8</ele>
        <time>2018-11-26T05:04:28Z</time>
      </trkpt>
      <trkpt lat="42.42083" lon="2.74896">
        <ele>1091.7</ele>
        <time>2018-11-26T05:04:29Z</time>
      </trkpt>
      <trkpt lat="42.42083" lon="2.74897">
        <ele>1091.7</ele>
        <time>2018-11-26T05:04:29Z</time>
      </trkpt>
      <trkpt lat="42.42083" lon="2.74897">
        <ele>1091.8</ele>
        <time>2018-11-26T05:04:30Z</time>
      </trkpt>
      <trkpt lat="42.42086" lon="2.74896">
        <ele>1091.7</ele>
        <time>2018-11-26T05:04:31Z</time>
      </trkpt>
      <trkpt lat="42.42087" lon="2.74895">
        <ele>1091.5</ele>
        <time>2018-11-26T05:04:31Z</time>
      </trkpt>
      <trkpt lat="42.42085" lon="2.74894">
        <ele>1091.5</ele>
        <time>2018-11-26T05:04:32Z</time>
      </trkpt>
      <trkpt lat="42.42087" lon="2.74893">
        <ele>1091.1</ele>
        <time>2018-11-26T05:04:33Z</time>
      </trkpt>
      <trkpt lat="42.42075" lon="2.7492">
        <ele>1091.2</ele>
        <time>2018-11-26T05:04:42Z</time>
      </trkpt>
      <trkpt lat="42.42087" lon="2.74947">
        <ele>1091.3</ele>
        <time>2018-11-26T05:04:51Z</time>
      </trkpt>
      <trkpt lat="42.42087" lon="2.74946">
        <ele>1091.7</ele>
        <time>2018-11-26T05:04:51Z</time>
      </trkpt>
      <trkpt lat="42.42087" lon="2.74946">
        <ele>1091.9</ele>
        <time>2018-11-26T05:04:51Z</time>
      </trkpt>
      <trkpt lat="42.42087" lon="2.74945">
        <ele>1091.7</ele>
        <time>2018-11-26T05:04:51Z</time>
      </trkpt>
      <trkpt lat="42.42087" lon="2.74945">
        <ele>1091.3</ele>
        <time>2018-11-26T05:04:52Z</time>
      </trkpt>
      <trkpt lat="42.42087" lon="2.74944">
        <ele>1090.7</ele>
        <time>2018-11-26T05:04:52Z</time>
      </trkpt>
      <trkpt lat="42.42087" lon="2.74943">
        <ele>1090.7</ele>
        <time>2018-11-26T05:04:52Z</time>
      </trkpt>
      <trkpt lat="42.42087" lon="2.74943">
        <ele>1090.9</ele>
        <time>2018-11-26T05:04:52Z</time>
      </trkpt>
      <trkpt lat="42.42088" lon="2.74942">
        <ele>1090.9</ele>
        <time>2018-11-26T05:04:52Z</time>
      </trkpt>
      <trkpt lat="42.42088" lon="2.74941">
        <ele>1091</ele>
        <time>2018-11-26T05:04:53Z</time>
      </trkpt>
      <trkpt lat="42.42088" lon="2.74941">
        <ele>1091.3</ele>
        <time>2018-11-26T05:04:53Z</time>
      </trkpt>
      <trkpt lat="42.42088" lon="2.7494">
        <ele>1091.6</ele>
        <time>2018-11-26T05:04:53Z</time>
      </trkpt>
      <trkpt lat="42.42088" lon="2.7494">
        <ele>1091.5</ele>
        <time>2018-11-26T05:04:53Z</time>
      </trkpt>
      <trkpt lat="42.42088" lon="2.74939">
        <ele>1091.6</ele>
        <time>2018-11-26T05:04:53Z</time>
      </trkpt>
      <trkpt lat="42.42088" lon="2.74938">
        <ele>1091.4</ele>
        <time>2018-11-26T05:04:54Z</time>
      </trkpt>
      <trkpt lat="42.42088" lon="2.74938">
        <ele>1091.5</ele>
        <time>2018-11-26T05:04:54Z</time>
      </trkpt>
      <trkpt lat="42.42088" lon="2.74938">
        <ele>1091.7</ele>
        <time>2018-11-26T05:04:54Z</time>
      </trkpt>
      <trkpt lat="42.42088" lon="2.74937">
        <ele>1091.8</ele>
        <time>2018-11-26T05:04:54Z</time>
      </trkpt>
      <trkpt lat="42.42088" lon="2.74937">
        <ele>1091.8</ele>
        <time>2018-11-26T05:04:54Z</time>
      </trkpt>
      <trkpt lat="42.42089" lon="2.74937">
        <ele>1091.7</ele>
        <time>2018-11-26T05:04:54Z</time>
      </trkpt>
      <trkpt lat="42.42089" lon="2.74936">
        <ele>1091.5</ele>
        <time>2018-11-26T05:04:54Z</time>
      </trkpt>
      <trkpt lat="42.42089" lon="2.74936">
        <ele>1091.4</ele>
        <time>2018-11-26T05:04:54Z</time>
      </trkpt>
      <trkpt lat="42.42089" lon="2.74936">
        <ele>1091.3</ele>
        <time>2018-11-26T05:04:54Z</time>
      </trkpt>
      <trkpt lat="42.42089" lon="2.74936">
        <ele>1091.2</ele>
        <time>2018-11-26T05:04:54Z</time>
      </trkpt>
      <trkpt lat="42.42089" lon="2.74936">
        <ele>1091.2</ele>
        <time>2018-11-26T05:04:55Z</time>
      </trkpt>
      <trkpt lat="42.42089" lon="2.74937">
        <ele>1091</ele>
        <time>2018-11-26T05:04:55Z</time>
      </trkpt>
      <trkpt lat="42.42089" lon="2.74938">
        <ele>1090.7</ele>
        <time>2018-11-26T05:04:55Z</time>
      </trkpt>
      <trkpt lat="42.42089" lon="2.74938">
        <ele>1090.3</ele>
        <time>2018-11-26T05:04:55Z</time>
      </trkpt>
      <trkpt lat="42.4209" lon="2.74939">
        <ele>1090.2</ele>
        <time>2018-11-26T05:04:56Z</time>
      </trkpt>
      <trkpt lat="42.4209" lon="2.7494">
        <ele>1090.2</ele>
        <time>2018-11-26T05:04:56Z</time>
      </trkpt>
      <trkpt lat="42.42092" lon="2.74942">
        <ele>1090.1</ele>
        <time>2018-11-26T05:04:57Z</time>
      </trkpt>
      <trkpt lat="42.42092" lon="2.74943">
        <ele>1090.2</ele>
        <time>2018-11-26T05:04:57Z</time>
      </trkpt>
      <trkpt lat="42.42093" lon="2.74944">
        <ele>1090.2</ele>
        <time>2018-11-26T05:04:57Z</time>
      </trkpt>
      <trkpt lat="42.42093" lon="2.74944">
        <ele>1090.2</ele>
        <time>2018-11-26T05:04:58Z</time>
      </trkpt>
      <trkpt lat="42.42093" lon="2.74944">
        <ele>1090.1</ele>
        <time>2018-11-26T05:04:58Z</time>
      </trkpt>
      <trkpt lat="42.42093" lon="2.74944">
        <ele>1090</ele>
        <time>2018-11-26T05:04:58Z</time>
      </trkpt>
      <trkpt lat="42.42093" lon="2.74944">
        <ele>1089.8</ele>
        <time>2018-11-26T05:04:58Z</time>
      </trkpt>
      <trkpt lat="42.42093" lon="2.74944">
        <ele>1089.6</ele>
        <time>2018-11-26T05:04:58Z</time>
      </trkpt>
      <trkpt lat="42.42094" lon="2.74945">
        <ele>1088.9</ele>
        <time>2018-11-26T05:04:58Z</time>
      </trkpt>
      <trkpt lat="42.42095" lon="2.74945">
        <ele>1089.2</ele>
        <time>2018-11-26T05:04:58Z</time>
      </trkpt>
      <trkpt lat="42.42098" lon="2.74948">
        <ele>1090.1</ele>
        <time>2018-11-26T05:05:00Z</time>
      </trkpt>
      <trkpt lat="42.42098" lon="2.74949">
        <ele>1090.2</ele>
        <time>2018-11-26T05:05:00Z</time>
      </trkpt>
      <trkpt lat="42.42099" lon="2.74951">
        <ele>1090.4</ele>
        <time>2018-11-26T05:05:01Z</time>
      </trkpt>
      <trkpt lat="42.421" lon="2.74951">
        <ele>1090.4</ele>
        <time>2018-11-26T05:05:01Z</time>
      </trkpt>
      <trkpt lat="42.421" lon="2.74951">
        <ele>1090.2</ele>
        <time>2018-11-26T05:05:01Z</time>
      </trkpt>
      <trkpt lat="42.421" lon="2.74951">
        <ele>1090.1</ele>
        <time>2018-11-26T05:05:01Z</time>
      </trkpt>
      <trkpt lat="42.421" lon="2.74951">
        <ele>1089.9</ele>
        <time>2018-11-26T05:05:01Z</time>
      </trkpt>
      <trkpt lat="42.421" lon="2.74951">
        <ele>1090.2</ele>
        <time>2018-11-26T05:05:01Z</time>
      </trkpt>
      <trkpt lat="42.421" lon="2.74951">
        <ele>1090.2</ele>
        <time>2018-11-26T05:05:01Z</time>
      </trkpt>
      <trkpt lat="42.421" lon="2.74951">
        <ele>1090.5</ele>
        <time>2018-11-26T05:05:01Z</time>
      </trkpt>
      <trkpt lat="42.421" lon="2.7495">
        <ele>1090.3</ele>
        <time>2018-11-26T05:05:01Z</time>
      </trkpt>
      <trkpt lat="42.421" lon="2.7495">
        <ele>1089.9</ele>
        <time>2018-11-26T05:05:01Z</time>
      </trkpt>
      <trkpt lat="42.421" lon="2.7495">
        <ele>1089.6</ele>
        <time>2018-11-26T05:05:01Z</time>
      </trkpt>
      <trkpt lat="42.421" lon="2.7495">
        <ele>1089.6</ele>
        <time>2018-11-26T05:05:02Z</time>
      </trkpt>
      <trkpt lat="42.421" lon="2.7495">
        <ele>1089.8</ele>
        <time>2018-11-26T05:05:02Z</time>
      </trkpt>
      <trkpt lat="42.42101" lon="2.7495">
        <ele>1090</ele>
        <time>2018-11-26T05:05:02Z</time>
      </trkpt>
      <trkpt lat="42.42101" lon="2.7495">
        <ele>1089.9</ele>
        <time>2018-11-26T05:05:02Z</time>
      </trkpt>
      <trkpt lat="42.42101" lon="2.7495">
        <ele>1089.8</ele>
        <time>2018-11-26T05:05:02Z</time>
      </trkpt>
      <trkpt lat="42.42101" lon="2.7495">
        <ele>1089.5</ele>
        <time>2018-11-26T05:05:02Z</time>
      </trkpt>
      <trkpt lat="42.42101" lon="2.7495">
        <ele>1089.7</ele>
        <time>2018-11-26T05:05:02Z</time>
      </trkpt>
      <trkpt lat="42.42101" lon="2.7495">
        <ele>1090.1</ele>
        <time>2018-11-26T05:05:02Z</time>
      </trkpt>
      <trkpt lat="42.42101" lon="2.7495">
        <ele>1090.4</ele>
        <time>2018-11-26T05:05:02Z</time>
      </trkpt>
      <trkpt lat="42.42102" lon="2.7495">
        <ele>1090.1</ele>
        <time>2018-11-26T05:05:02Z</time>
      </trkpt>
      <trkpt lat="42.42101" lon="2.7495">
        <ele>1089.8</ele>
        <time>2018-11-26T05:05:02Z</time>
      </trkpt>
      <trkpt lat="42.42101" lon="2.7495">
        <ele>1089.4</ele>
        <time>2018-11-26T05:05:02Z</time>
      </trkpt>
      <trkpt lat="42.42101" lon="2.7495">
        <ele>1088.7</ele>
        <time>2018-11-26T05:05:02Z</time>
      </trkpt>
      <trkpt lat="42.42101" lon="2.74949">
        <ele>1088.7</ele>
        <time>2018-11-26T05:05:02Z</time>
      </trkpt>
      <trkpt lat="42.42101" lon="2.74949">
        <ele>1088.4</ele>
        <time>2018-11-26T05:05:02Z</time>
      </trkpt>
      <trkpt lat="42.42102" lon="2.74949">
        <ele>1088.3</ele>
        <time>2018-11-26T05:05:02Z</time>
      </trkpt>
      <trkpt lat="42.42102" lon="2.74949">
        <ele>1088.5</ele>
        <time>2018-11-26T05:05:02Z</time>
      </trkpt>
      <trkpt lat="42.42102" lon="2.74949">
        <ele>1088.7</ele>
        <time>2018-11-26T05:05:02Z</time>
      </trkpt>
      <trkpt lat="42.42102" lon="2.74949">
        <ele>1089</ele>
        <time>2018-11-26T05:05:03Z</time>
      </trkpt>
      <trkpt lat="42.42102" lon="2.74949">
        <ele>1089</ele>
        <time>2018-11-26T05:05:03Z</time>
      </trkpt>
      <trkpt lat="42.42103" lon="2.74949">
        <ele>1088.9</ele>
        <time>2018-11-26T05:05:03Z</time>
      </trkpt>
      <trkpt lat="42.42103" lon="2.74949">
        <ele>1088.9</ele>
        <time>2018-11-26T05:05:03Z</time>
      </trkpt>
      <trkpt lat="42.42103" lon="2.74949">
        <ele>1089.2</ele>
        <time>2018-11-26T05:05:03Z</time>
      </trkpt>
      <trkpt lat="42.42103" lon="2.74949">
        <ele>1089.4</ele>
        <time>2018-11-26T05:05:03Z</time>
      </trkpt>
      <trkpt lat="42.42103" lon="2.74949">
        <ele>1090</ele>
        <time>2018-11-26T05:05:03Z</time>
      </trkpt>
      <trkpt lat="42.42102" lon="2.74949">
        <ele>1089.8</ele>
        <time>2018-11-26T05:05:03Z</time>
      </trkpt>
      <trkpt lat="42.42102" lon="2.74949">
        <ele>1089.7</ele>
        <time>2018-11-26T05:05:03Z</time>
      </trkpt>
      <trkpt lat="42.42102" lon="2.74949">
        <ele>1089.6</ele>
        <time>2018-11-26T05:05:04Z</time>
      </trkpt>
      <trkpt lat="42.42102" lon="2.74949">
        <ele>1089.4</ele>
        <time>2018-11-26T05:05:04Z</time>
      </trkpt>
      <trkpt lat="42.42102" lon="2.74949">
        <ele>1089.5</ele>
        <time>2018-11-26T05:05:04Z</time>
      </trkpt>
      <trkpt lat="42.42102" lon="2.74949">
        <ele>1089.6</ele>
        <time>2018-11-26T05:05:04Z</time>
      </trkpt>
      <trkpt lat="42.42102" lon="2.74949">
        <ele>1089.8</ele>
        <time>2018-11-26T05:05:04Z</time>
      </trkpt>
      <trkpt lat="42.42102" lon="2.74949">
        <ele>1089.7</ele>
        <time>2018-11-26T05:05:04Z</time>
      </trkpt>
      <trkpt lat="42.42102" lon="2.74949">
        <ele>1089.6</ele>
        <time>2018-11-26T05:05:04Z</time>
      </trkpt>
      <trkpt lat="42.42102" lon="2.74949">
        <ele>1089.4</ele>
        <time>2018-11-26T05:05:04Z</time>
      </trkpt>
      <trkpt lat="42.42102" lon="2.74949">
        <ele>1089.1</ele>
        <time>2018-11-26T05:05:04Z</time>
      </trkpt>
      <trkpt lat="42.42102" lon="2.74949">
        <ele>1088.9</ele>
        <time>2018-11-26T05:05:04Z</time>
      </trkpt>
      <trkpt lat="42.42102" lon="2.7495">
        <ele>1088.6</ele>
        <time>2018-11-26T05:05:04Z</time>
      </trkpt>
      <trkpt lat="42.42103" lon="2.7495">
        <ele>1088.7</ele>
        <time>2018-11-26T05:05:04Z</time>
      </trkpt>
      <trkpt lat="42.42103" lon="2.7495">
        <ele>1088.8</ele>
        <time>2018-11-26T05:05:04Z</time>
      </trkpt>
      <trkpt lat="42.42103" lon="2.7495">
        <ele>1088.8</ele>
        <time>2018-11-26T05:05:04Z</time>
      </trkpt>
      <trkpt lat="42.42103" lon="2.7495">
        <ele>1088.8</ele>
        <time>2018-11-26T05:05:04Z</time>
      </trkpt>
      <trkpt lat="42.42103" lon="2.7495">
        <ele>1088.8</ele>
        <time>2018-11-26T05:05:04Z</time>
      </trkpt>
      <trkpt lat="42.42103" lon="2.7495">
        <ele>1088.9</ele>
        <time>2018-11-26T05:05:04Z</time>
      </trkpt>
      <trkpt lat="42.42103" lon="2.7495">
        <ele>1088.9</ele>
        <time>2018-11-26T05:05:04Z</time>
      </trkpt>
      <trkpt lat="42.42103" lon="2.7495">
        <ele>1089.2</ele>
        <time>2018-11-26T05:05:05Z</time>
      </trkpt>
      <trkpt lat="42.42103" lon="2.74951">
        <ele>1089.5</ele>
        <time>2018-11-26T05:05:05Z</time>
      </trkpt>
      <trkpt lat="42.42104" lon="2.74951">
        <ele>1089.9</ele>
        <time>2018-11-26T05:05:05Z</time>
      </trkpt>
      <trkpt lat="42.42104" lon="2.74951">
        <ele>1089.9</ele>
        <time>2018-11-26T05:05:05Z</time>
      </trkpt>
      <trkpt lat="42.42104" lon="2.74951">
        <ele>1089.8</ele>
        <time>2018-11-26T05:05:05Z</time>
      </trkpt>
      <trkpt lat="42.42104" lon="2.74951">
        <ele>1089.8</ele>
        <time>2018-11-26T05:05:05Z</time>
      </trkpt>
      <trkpt lat="42.42103" lon="2.74951">
        <ele>1089.7</ele>
        <time>2018-11-26T05:05:05Z</time>
      </trkpt>
      <trkpt lat="42.42103" lon="2.74951">
        <ele>1089.6</ele>
        <time>2018-11-26T05:05:05Z</time>
      </trkpt>
      <trkpt lat="42.42103" lon="2.74951">
        <ele>1089.7</ele>
        <time>2018-11-26T05:05:05Z</time>
      </trkpt>
      <trkpt lat="42.42103" lon="2.74951">
        <ele>1089.9</ele>
        <time>2018-11-26T05:05:05Z</time>
      </trkpt>
      <trkpt lat="42.42103" lon="2.7495">
        <ele>1090</ele>
        <time>2018-11-26T05:05:05Z</time>
      </trkpt>
      <trkpt lat="42.42103" lon="2.7495">
        <ele>1090.4</ele>
        <time>2018-11-26T05:05:05Z</time>
      </trkpt>
      <trkpt lat="42.42103" lon="2.7495">
        <ele>1090.2</ele>
        <time>2018-11-26T05:05:05Z</time>
      </trkpt>
      <trkpt lat="42.42103" lon="2.7495">
        <ele>1089.9</ele>
        <time>2018-11-26T05:05:06Z</time>
      </trkpt>
      <trkpt lat="42.42102" lon="2.7495">
        <ele>1089.7</ele>
        <time>2018-11-26T05:05:06Z</time>
      </trkpt>
      <trkpt lat="42.42102" lon="2.7495">
        <ele>1089.2</ele>
        <time>2018-11-26T05:05:06Z</time>
      </trkpt>
      <trkpt lat="42.42102" lon="2.7495">
        <ele>1089.4</ele>
        <time>2018-11-26T05:05:06Z</time>
      </trkpt>
      <trkpt lat="42.42102" lon="2.7495">
        <ele>1089.6</ele>
        <time>2018-11-26T05:05:06Z</time>
      </trkpt>
      <trkpt lat="42.42102" lon="2.74949">
        <ele>1089.5</ele>
        <time>2018-11-26T05:05:06Z</time>
      </trkpt>
      <trkpt lat="42.42102" lon="2.74949">
        <ele>1089.4</ele>
        <time>2018-11-26T05:05:06Z</time>
      </trkpt>
      <trkpt lat="42.42102" lon="2.74949">
        <ele>1089.1</ele>
        <time>2018-11-26T05:05:06Z</time>
      </trkpt>
      <trkpt lat="42.42102" lon="2.74949">
        <ele>1089.3</ele>
        <time>2018-11-26T05:05:06Z</time>
      </trkpt>
      <trkpt lat="42.42102" lon="2.74949">
        <ele>1089.4</ele>
        <time>2018-11-26T05:05:06Z</time>
      </trkpt>
      <trkpt lat="42.42101" lon="2.74949">
        <ele>1089.7</ele>
        <time>2018-11-26T05:05:06Z</time>
      </trkpt>
      <trkpt lat="42.42101" lon="2.74949">
        <ele>1089.7</ele>
        <time>2018-11-26T05:05:06Z</time>
      </trkpt>
      <trkpt lat="42.42101" lon="2.74949">
        <ele>1089.7</ele>
        <time>2018-11-26T05:05:06Z</time>
      </trkpt>
      <trkpt lat="42.42101" lon="2.74949">
        <ele>1089.8</ele>
        <time>2018-11-26T05:05:06Z</time>
      </trkpt>
      <trkpt lat="42.42101" lon="2.74949">
        <ele>1089.7</ele>
        <time>2018-11-26T05:05:06Z</time>
      </trkpt>
      <trkpt lat="42.42101" lon="2.74949">
        <ele>1089.6</ele>
        <time>2018-11-26T05:05:06Z</time>
      </trkpt>
      <trkpt lat="42.42101" lon="2.74949">
        <ele>1089.5</ele>
        <time>2018-11-26T05:05:06Z</time>
      </trkpt>
      <trkpt lat="42.42101" lon="2.74948">
        <ele>1089.5</ele>
        <time>2018-11-26T05:05:07Z</time>
      </trkpt>
      <trkpt lat="42.42099" lon="2.74949">
        <ele>1089.5</ele>
        <time>2018-11-26T05:05:07Z</time>
      </trkpt>
      <trkpt lat="42.42099" lon="2.74949">
        <ele>1089.7</ele>
        <time>2018-11-26T05:05:07Z</time>
      </trkpt>
      <trkpt lat="42.42099" lon="2.7495">
        <ele>1089.7</ele>
        <time>2018-11-26T05:05:08Z</time>
      </trkpt>
      <trkpt lat="42.42099" lon="2.7495">
        <ele>1089.6</ele>
        <time>2018-11-26T05:05:08Z</time>
      </trkpt>
      <trkpt lat="42.42098" lon="2.7495">
        <ele>1089.6</ele>
        <time>2018-11-26T05:05:08Z</time>
      </trkpt>
      <trkpt lat="42.42098" lon="2.7495">
        <ele>1089.5</ele>
        <time>2018-11-26T05:05:08Z</time>
      </trkpt>
      <trkpt lat="42.42098" lon="2.7495">
        <ele>1089.6</ele>
        <time>2018-11-26T05:05:08Z</time>
      </trkpt>
      <trkpt lat="42.42097" lon="2.7495">
        <ele>1089.8</ele>
        <time>2018-11-26T05:05:08Z</time>
      </trkpt>
      <trkpt lat="42.42097" lon="2.7495">
        <ele>1089.9</ele>
        <time>2018-11-26T05:05:08Z</time>
      </trkpt>
      <trkpt lat="42.42096" lon="2.7495">
        <ele>1089.6</ele>
        <time>2018-11-26T05:05:09Z</time>
      </trkpt>
      <trkpt lat="42.42095" lon="2.74949">
        <ele>1089.3</ele>
        <time>2018-11-26T05:05:09Z</time>
      </trkpt>
      <trkpt lat="42.42094" lon="2.74949">
        <ele>1088.8</ele>
        <time>2018-11-26T05:05:10Z</time>
      </trkpt>
      <trkpt lat="42.4209" lon="2.74944">
        <ele>1090.4</ele>
        <time>2018-11-26T05:05:12Z</time>
      </trkpt>
      <trkpt lat="42.42086" lon="2.7494">
        <ele>1091</ele>
        <time>2018-11-26T05:05:14Z</time>
      </trkpt>
      <trkpt lat="42.42085" lon="2.7494">
        <ele>1091.1</ele>
        <time>2018-11-26T05:05:14Z</time>
      </trkpt>
      <trkpt lat="42.42085" lon="2.74939">
        <ele>1090.9</ele>
        <time>2018-11-26T05:05:14Z</time>
      </trkpt>
      <trkpt lat="42.42084" lon="2.74938">
        <ele>1090.9</ele>
        <time>2018-11-26T05:05:15Z</time>
      </trkpt>
      <trkpt lat="42.42083" lon="2.74938">
        <ele>1090.8</ele>
        <time>2018-11-26T05:05:15Z</time>
      </trkpt>
      <trkpt lat="42.42082" lon="2.74937">
        <ele>1090.9</ele>
        <time>2018-11-26T05:05:15Z</time>
      </trkpt>
      <trkpt lat="42.42082" lon="2.74938">
        <ele>1090.9</ele>
        <time>2018-11-26T05:05:16Z</time>
      </trkpt>
      <trkpt lat="42.42081" lon="2.74938">
        <ele>1091.1</ele>
        <time>2018-11-26T05:05:16Z</time>
      </trkpt>
      <trkpt lat="42.4208" lon="2.74938">
        <ele>1090.9</ele>
        <time>2018-11-26T05:05:16Z</time>
      </trkpt>
      <trkpt lat="42.4208" lon="2.74938">
        <ele>1090.7</ele>
        <time>2018-11-26T05:05:16Z</time>
      </trkpt>
      <trkpt lat="42.42079" lon="2.74938">
        <ele>1090.2</ele>
        <time>2018-11-26T05:05:17Z</time>
      </trkpt>
      <trkpt lat="42.42079" lon="2.74938">
        <ele>1090.1</ele>
        <time>2018-11-26T05:05:17Z</time>
      </trkpt>
      <trkpt lat="42.42078" lon="2.74939">
        <ele>1090</ele>
        <time>2018-11-26T05:05:17Z</time>
      </trkpt>
      <trkpt lat="42.42077" lon="2.74939">
        <ele>1089.9</ele>
        <time>2018-11-26T05:05:17Z</time>
      </trkpt>
      <trkpt lat="42.42077" lon="2.74939">
        <ele>1089.7</ele>
        <time>2018-11-26T05:05:18Z</time>
      </trkpt>
      <trkpt lat="42.42076" lon="2.74939">
        <ele>1089.6</ele>
        <time>2018-11-26T05:05:18Z</time>
      </trkpt>
      <trkpt lat="42.42075" lon="2.74939">
        <ele>1089.3</ele>
        <time>2018-11-26T05:05:18Z</time>
      </trkpt>
      <trkpt lat="42.42075" lon="2.74939">
        <ele>1089</ele>
        <time>2018-11-26T05:05:19Z</time>
      </trkpt>
      <trkpt lat="42.42074" lon="2.74938">
        <ele>1088.6</ele>
        <time>2018-11-26T05:05:19Z</time>
      </trkpt>
      <trkpt lat="42.42073" lon="2.74938">
        <ele>1088.1</ele>
        <time>2018-11-26T05:05:19Z</time>
      </trkpt>
      <trkpt lat="42.42073" lon="2.74938">
        <ele>1087.4</ele>
        <time>2018-11-26T05:05:19Z</time>
      </trkpt>
      <trkpt lat="42.42072" lon="2.74938">
        <ele>1087.4</ele>
        <time>2018-11-26T05:05:20Z</time>
      </trkpt>
      <trkpt lat="42.42071" lon="2.74939">
        <ele>1087.5</ele>
        <time>2018-11-26T05:05:20Z</time>
      </trkpt>
      <trkpt lat="42.4207" lon="2.74939">
        <ele>1087.7</ele>
        <time>2018-11-26T05:05:20Z</time>
      </trkpt>
      <trkpt lat="42.4207" lon="2.7494">
        <ele>1087.6</ele>
        <time>2018-11-26T05:05:21Z</time>
      </trkpt>
      <trkpt lat="42.4207" lon="2.74941">
        <ele>1087.8</ele>
        <time>2018-11-26T05:05:21Z</time>
      </trkpt>
      <trkpt lat="42.4207" lon="2.74942">
        <ele>1087.8</ele>
        <time>2018-11-26T05:05:21Z</time>
      </trkpt>
      <trkpt lat="42.42069" lon="2.74943">
        <ele>1087.6</ele>
        <time>2018-11-26T05:05:22Z</time>
      </trkpt>
      <trkpt lat="42.42069" lon="2.74944">
        <ele>1087.4</ele>
        <time>2018-11-26T05:05:22Z</time>
      </trkpt>
      <trkpt lat="42.42069" lon="2.74945">
        <ele>1087.1</ele>
        <time>2018-11-26T05:05:22Z</time>
      </trkpt>
      <trkpt lat="42.42068" lon="2.74945">
        <ele>1086.7</ele>
        <time>2018-11-26T05:05:22Z</time>
      </trkpt>
      <trkpt lat="42.42068" lon="2.74946">
        <ele>1086.3</ele>
        <time>2018-11-26T05:05:23Z</time>
      </trkpt>
      <trkpt lat="42.42067" lon="2.74947">
        <ele>1086</ele>
        <time>2018-11-26T05:05:23Z</time>
      </trkpt>
      <trkpt lat="42.42067" lon="2.74947">
        <ele>1085.4</ele>
        <time>2018-11-26T05:05:23Z</time>
      </trkpt>
      <trkpt lat="42.42066" lon="2.74948">
        <ele>1085.1</ele>
        <time>2018-11-26T05:05:24Z</time>
      </trkpt>
      <trkpt lat="42.42066" lon="2.74949">
        <ele>1084.5</ele>
        <time>2018-11-26T05:05:24Z</time>
      </trkpt>
      <trkpt lat="42.42065" lon="2.74951">
        <ele>1083.9</ele>
        <time>2018-11-26T05:05:25Z</time>
      </trkpt>
      <trkpt lat="42.42064" lon="2.74952">
        <ele>1084</ele>
        <time>2018-11-26T05:05:25Z</time>
      </trkpt>
      <trkpt lat="42.42064" lon="2.74953">
        <ele>1084.1</ele>
        <time>2018-11-26T05:05:25Z</time>
      </trkpt>
      <trkpt lat="42.42064" lon="2.74954">
        <ele>1084</ele>
        <time>2018-11-26T05:05:26Z</time>
      </trkpt>
      <trkpt lat="42.42063" lon="2.74955">
        <ele>1083.6</ele>
        <time>2018-11-26T05:05:26Z</time>
      </trkpt>
      <trkpt lat="42.42063" lon="2.74956">
        <ele>1083.2</ele>
        <time>2018-11-26T05:05:26Z</time>
      </trkpt>
      <trkpt lat="42.42063" lon="2.74957">
        <ele>1083.2</ele>
        <time>2018-11-26T05:05:27Z</time>
      </trkpt>
      <trkpt lat="42.42062" lon="2.74958">
        <ele>1083.4</ele>
        <time>2018-11-26T05:05:27Z</time>
      </trkpt>
      <trkpt lat="42.42062" lon="2.74959">
        <ele>1083.4</ele>
        <time>2018-11-26T05:05:27Z</time>
      </trkpt>
      <trkpt lat="42.42061" lon="2.7496">
        <ele>1083.3</ele>
        <time>2018-11-26T05:05:28Z</time>
      </trkpt>
      <trkpt lat="42.42061" lon="2.74962">
        <ele>1083</ele>
        <time>2018-11-26T05:05:28Z</time>
      </trkpt>
      <trkpt lat="42.42061" lon="2.74963">
        <ele>1082.8</ele>
        <time>2018-11-26T05:05:29Z</time>
      </trkpt>
      <trkpt lat="42.4206" lon="2.74964">
        <ele>1082.5</ele>
        <time>2018-11-26T05:05:29Z</time>
      </trkpt>
      <trkpt lat="42.4206" lon="2.74965">
        <ele>1082.1</ele>
        <time>2018-11-26T05:05:29Z</time>
      </trkpt>
      <trkpt lat="42.42059" lon="2.74967">
        <ele>1080.9</ele>
        <time>2018-11-26T05:05:30Z</time>
      </trkpt>
      <trkpt lat="42.42059" lon="2.74968">
        <ele>1080.6</ele>
        <time>2018-11-26T05:05:30Z</time>
      </trkpt>
      <trkpt lat="42.42057" lon="2.74972">
        <ele>1079.6</ele>
        <time>2018-11-26T05:05:32Z</time>
      </trkpt>
      <trkpt lat="42.42056" lon="2.74974">
        <ele>1079</ele>
        <time>2018-11-26T05:05:32Z</time>
      </trkpt>
      <trkpt lat="42.42056" lon="2.74975">
        <ele>1078.9</ele>
        <time>2018-11-26T05:05:33Z</time>
      </trkpt>
      <trkpt lat="42.42056" lon="2.74976">
        <ele>1078.9</ele>
        <time>2018-11-26T05:05:33Z</time>
      </trkpt>
      <trkpt lat="42.42055" lon="2.74977">
        <ele>1078.7</ele>
        <time>2018-11-26T05:05:33Z</time>
      </trkpt>
      <trkpt lat="42.42055" lon="2.74978">
        <ele>1078.5</ele>
        <time>2018-11-26T05:05:34Z</time>
      </trkpt>
      <trkpt lat="42.42055" lon="2.7498">
        <ele>1078.4</ele>
        <time>2018-11-26T05:05:34Z</time>
      </trkpt>
      <trkpt lat="42.42055" lon="2.74981">
        <ele>1078.3</ele>
        <time>2018-11-26T05:05:34Z</time>
      </trkpt>
      <trkpt lat="42.42054" lon="2.74982">
        <ele>1078.2</ele>
        <time>2018-11-26T05:05:35Z</time>
      </trkpt>
      <trkpt lat="42.42054" lon="2.74983">
        <ele>1078.3</ele>
        <time>2018-11-26T05:05:35Z</time>
      </trkpt>
      <trkpt lat="42.42054" lon="2.74983">
        <ele>1078.6</ele>
        <time>2018-11-26T05:05:35Z</time>
      </trkpt>
      <trkpt lat="42.42054" lon="2.74984">
        <ele>1078.9</ele>
        <time>2018-11-26T05:05:36Z</time>
      </trkpt>
      <trkpt lat="42.42054" lon="2.74985">
        <ele>1078.7</ele>
        <time>2018-11-26T05:05:36Z</time>
      </trkpt>
      <trkpt lat="42.42054" lon="2.74986">
        <ele>1078.6</ele>
        <time>2018-11-26T05:05:36Z</time>
      </trkpt>
      <trkpt lat="42.42054" lon="2.74987">
        <ele>1078.3</ele>
        <time>2018-11-26T05:05:36Z</time>
      </trkpt>
      <trkpt lat="42.42054" lon="2.74987">
        <ele>1078.2</ele>
        <time>2018-11-26T05:05:36Z</time>
      </trkpt>
      <trkpt lat="42.42054" lon="2.74987">
        <ele>1078.3</ele>
        <time>2018-11-26T05:05:36Z</time>
      </trkpt>
      <trkpt lat="42.42054" lon="2.74987">
        <ele>1078.2</ele>
        <time>2018-11-26T05:05:37Z</time>
      </trkpt>
      <trkpt lat="42.42054" lon="2.74987">
        <ele>1078</ele>
        <time>2018-11-26T05:05:37Z</time>
      </trkpt>
      <trkpt lat="42.42054" lon="2.74987">
        <ele>1077.7</ele>
        <time>2018-11-26T05:05:37Z</time>
      </trkpt>
      <trkpt lat="42.42054" lon="2.74987">
        <ele>1077.3</ele>
        <time>2018-11-26T05:05:37Z</time>
      </trkpt>
      <trkpt lat="42.42054" lon="2.74986">
        <ele>1077.3</ele>
        <time>2018-11-26T05:05:37Z</time>
      </trkpt>
      <trkpt lat="42.42054" lon="2.74986">
        <ele>1077.1</ele>
        <time>2018-11-26T05:05:37Z</time>
      </trkpt>
      <trkpt lat="42.42054" lon="2.74986">
        <ele>1077</ele>
        <time>2018-11-26T05:05:37Z</time>
      </trkpt>
      <trkpt lat="42.42054" lon="2.74986">
        <ele>1076.8</ele>
        <time>2018-11-26T05:05:37Z</time>
      </trkpt>
      <trkpt lat="42.42054" lon="2.74986">
        <ele>1076.9</ele>
        <time>2018-11-26T05:05:37Z</time>
      </trkpt>
      <trkpt lat="42.42054" lon="2.74986">
        <ele>1077</ele>
        <time>2018-11-26T05:05:37Z</time>
      </trkpt>
      <trkpt lat="42.42054" lon="2.74987">
        <ele>1077.2</ele>
        <time>2018-11-26T05:05:37Z</time>
      </trkpt>
      <trkpt lat="42.42054" lon="2.74987">
        <ele>1076.9</ele>
        <time>2018-11-26T05:05:37Z</time>
      </trkpt>
      <trkpt lat="42.42054" lon="2.74987">
        <ele>1076.8</ele>
        <time>2018-11-26T05:05:37Z</time>
      </trkpt>
      <trkpt lat="42.42054" lon="2.74987">
        <ele>1076.5</ele>
        <time>2018-11-26T05:05:37Z</time>
      </trkpt>
      <trkpt lat="42.42054" lon="2.74987">
        <ele>1076.2</ele>
        <time>2018-11-26T05:05:37Z</time>
      </trkpt>
      <trkpt lat="42.42054" lon="2.74987">
        <ele>1076.2</ele>
        <time>2018-11-26T05:05:37Z</time>
      </trkpt>
      <trkpt lat="42.42054" lon="2.74988">
        <ele>1075.9</ele>
        <time>2018-11-26T05:05:38Z</time>
      </trkpt>
      <trkpt lat="42.42054" lon="2.74989">
        <ele>1075.8</ele>
        <time>2018-11-26T05:05:38Z</time>
      </trkpt>
      <trkpt lat="42.42054" lon="2.7499">
        <ele>1075.7</ele>
        <time>2018-11-26T05:05:38Z</time>
      </trkpt>
      <trkpt lat="42.42054" lon="2.74991">
        <ele>1075.7</ele>
        <time>2018-11-26T05:05:39Z</time>
      </trkpt>
      <trkpt lat="42.42054" lon="2.74992">
        <ele>1075.6</ele>
        <time>2018-11-26T05:05:39Z</time>
      </trkpt>
      <trkpt lat="42.42054" lon="2.74993">
        <ele>1075.7</ele>
        <time>2018-11-26T05:05:39Z</time>
      </trkpt>
      <trkpt lat="42.42054" lon="2.74994">
        <ele>1075.7</ele>
        <time>2018-11-26T05:05:40Z</time>
      </trkpt>
      <trkpt lat="42.42053" lon="2.74995">
        <ele>1075.6</ele>
        <time>2018-11-26T05:05:40Z</time>
      </trkpt>
      <trkpt lat="42.42053" lon="2.74997">
        <ele>1075.5</ele>
        <time>2018-11-26T05:05:40Z</time>
      </trkpt>
      <trkpt lat="42.42053" lon="2.74999">
        <ele>1075</ele>
        <time>2018-11-26T05:05:41Z</time>
      </trkpt>
      <trkpt lat="42.42052" lon="2.75001">
        <ele>1074.9</ele>
        <time>2018-11-26T05:05:42Z</time>
      </trkpt>
      <trkpt lat="42.42052" lon="2.75002">
        <ele>1074.8</ele>
        <time>2018-11-26T05:05:42Z</time>
      </trkpt>
      <trkpt lat="42.42052" lon="2.75003">
        <ele>1074.8</ele>
        <time>2018-11-26T05:05:42Z</time>
      </trkpt>
      <trkpt lat="42.42052" lon="2.75004">
        <ele>1074.6</ele>
        <time>2018-11-26T05:05:43Z</time>
      </trkpt>
      <trkpt lat="42.42052" lon="2.75005">
        <ele>1074.1</ele>
        <time>2018-11-26T05:05:43Z</time>
      </trkpt>
      <trkpt lat="42.42052" lon="2.75007">
        <ele>1073.5</ele>
        <time>2018-11-26T05:05:43Z</time>
      </trkpt>
      <trkpt lat="42.42052" lon="2.75008">
        <ele>1073.3</ele>
        <time>2018-11-26T05:05:44Z</time>
      </trkpt>
      <trkpt lat="42.42052" lon="2.75009">
        <ele>1073.3</ele>
        <time>2018-11-26T05:05:44Z</time>
      </trkpt>
      <trkpt lat="42.42052" lon="2.7501">
        <ele>1073.4</ele>
        <time>2018-11-26T05:05:45Z</time>
      </trkpt>
      <trkpt lat="42.42051" lon="2.75011">
        <ele>1073</ele>
        <time>2018-11-26T05:05:45Z</time>
      </trkpt>
      <trkpt lat="42.42051" lon="2.75012">
        <ele>1072.8</ele>
        <time>2018-11-26T05:05:45Z</time>
      </trkpt>
      <trkpt lat="42.42051" lon="2.75014">
        <ele>1072.2</ele>
        <time>2018-11-26T05:05:46Z</time>
      </trkpt>
      <trkpt lat="42.42051" lon="2.75015">
        <ele>1071.6</ele>
        <time>2018-11-26T05:05:46Z</time>
      </trkpt>
      <trkpt lat="42.4205" lon="2.75018">
        <ele>1072</ele>
        <time>2018-11-26T05:05:47Z</time>
      </trkpt>
      <trkpt lat="42.4205" lon="2.7502">
        <ele>1071.8</ele>
        <time>2018-11-26T05:05:47Z</time>
      </trkpt>
      <trkpt lat="42.42049" lon="2.75021">
        <ele>1071.5</ele>
        <time>2018-11-26T05:05:48Z</time>
      </trkpt>
      <trkpt lat="42.42048" lon="2.75022">
        <ele>1071.1</ele>
        <time>2018-11-26T05:05:48Z</time>
      </trkpt>
      <trkpt lat="42.42048" lon="2.75022">
        <ele>1070.9</ele>
        <time>2018-11-26T05:05:49Z</time>
      </trkpt>
      <trkpt lat="42.42046" lon="2.75024">
        <ele>1070</ele>
        <time>2018-11-26T05:05:49Z</time>
      </trkpt>
      <trkpt lat="42.42046" lon="2.75025">
        <ele>1069.8</ele>
        <time>2018-11-26T05:05:50Z</time>
      </trkpt>
      <trkpt lat="42.42045" lon="2.75025">
        <ele>1069.5</ele>
        <time>2018-11-26T05:05:50Z</time>
      </trkpt>
      <trkpt lat="42.42044" lon="2.75026">
        <ele>1068.9</ele>
        <time>2018-11-26T05:05:50Z</time>
      </trkpt>
      <trkpt lat="42.42043" lon="2.75026">
        <ele>1068.8</ele>
        <time>2018-11-26T05:05:51Z</time>
      </trkpt>
      <trkpt lat="42.42043" lon="2.75027">
        <ele>1068.6</ele>
        <time>2018-11-26T05:05:51Z</time>
      </trkpt>
      <trkpt lat="42.42042" lon="2.75028">
        <ele>1068.4</ele>
        <time>2018-11-26T05:05:51Z</time>
      </trkpt>
      <trkpt lat="42.42042" lon="2.75029">
        <ele>1068.2</ele>
        <time>2018-11-26T05:05:52Z</time>
      </trkpt>
      <trkpt lat="42.42041" lon="2.75029">
        <ele>1068.2</ele>
        <time>2018-11-26T05:05:52Z</time>
      </trkpt>
      <trkpt lat="42.42041" lon="2.7503">
        <ele>1068.2</ele>
        <time>2018-11-26T05:05:52Z</time>
      </trkpt>
      <trkpt lat="42.4204" lon="2.7503">
        <ele>1068</ele>
        <time>2018-11-26T05:05:52Z</time>
      </trkpt>
      <trkpt lat="42.4204" lon="2.75031">
        <ele>1067.9</ele>
        <time>2018-11-26T05:05:53Z</time>
      </trkpt>
      <trkpt lat="42.42039" lon="2.75031">
        <ele>1067.6</ele>
        <time>2018-11-26T05:05:53Z</time>
      </trkpt>
      <trkpt lat="42.42038" lon="2.75032">
        <ele>1067.2</ele>
        <time>2018-11-26T05:05:53Z</time>
      </trkpt>
      <trkpt lat="42.42037" lon="2.75032">
        <ele>1067.2</ele>
        <time>2018-11-26T05:05:54Z</time>
      </trkpt>
      <trkpt lat="42.42037" lon="2.75033">
        <ele>1067.3</ele>
        <time>2018-11-26T05:05:54Z</time>
      </trkpt>
      <trkpt lat="42.42036" lon="2.75033">
        <ele>1067.2</ele>
        <time>2018-11-26T05:05:54Z</time>
      </trkpt>
      <trkpt lat="42.42035" lon="2.75034">
        <ele>1067</ele>
        <time>2018-11-26T05:05:55Z</time>
      </trkpt>
      <trkpt lat="42.42035" lon="2.75035">
        <ele>1066.9</ele>
        <time>2018-11-26T05:05:55Z</time>
      </trkpt>
      <trkpt lat="42.42034" lon="2.75036">
        <ele>1066.8</ele>
        <time>2018-11-26T05:05:56Z</time>
      </trkpt>
      <trkpt lat="42.42033" lon="2.75037">
        <ele>1066.6</ele>
        <time>2018-11-26T05:05:56Z</time>
      </trkpt>
      <trkpt lat="42.42032" lon="2.75037">
        <ele>1066.4</ele>
        <time>2018-11-26T05:05:56Z</time>
      </trkpt>
      <trkpt lat="42.42031" lon="2.75038">
        <ele>1066.3</ele>
        <time>2018-11-26T05:05:57Z</time>
      </trkpt>
      <trkpt lat="42.4203" lon="2.75039">
        <ele>1066</ele>
        <time>2018-11-26T05:05:57Z</time>
      </trkpt>
      <trkpt lat="42.42029" lon="2.75039">
        <ele>1065.9</ele>
        <time>2018-11-26T05:05:57Z</time>
      </trkpt>
      <trkpt lat="42.42028" lon="2.75039">
        <ele>1065.7</ele>
        <time>2018-11-26T05:05:58Z</time>
      </trkpt>
      <trkpt lat="42.42027" lon="2.75039">
        <ele>1065.6</ele>
        <time>2018-11-26T05:05:58Z</time>
      </trkpt>
      <trkpt lat="42.42026" lon="2.7504">
        <ele>1065.4</ele>
        <time>2018-11-26T05:05:59Z</time>
      </trkpt>
      <trkpt lat="42.42025" lon="2.7504">
        <ele>1065.3</ele>
        <time>2018-11-26T05:05:59Z</time>
      </trkpt>
      <trkpt lat="42.42025" lon="2.75041">
        <ele>1065</ele>
        <time>2018-11-26T05:06:00Z</time>
      </trkpt>
      <trkpt lat="42.42024" lon="2.75042">
        <ele>1064.7</ele>
        <time>2018-11-26T05:06:00Z</time>
      </trkpt>
      <trkpt lat="42.42023" lon="2.75043">
        <ele>1064.3</ele>
        <time>2018-11-26T05:06:00Z</time>
      </trkpt>
      <trkpt lat="42.42022" lon="2.75044">
        <ele>1063.9</ele>
        <time>2018-11-26T05:06:01Z</time>
      </trkpt>
      <trkpt lat="42.42021" lon="2.75044">
        <ele>1063.8</ele>
        <time>2018-11-26T05:06:01Z</time>
      </trkpt>
      <trkpt lat="42.42021" lon="2.75045">
        <ele>1063.8</ele>
        <time>2018-11-26T05:06:01Z</time>
      </trkpt>
      <trkpt lat="42.4202" lon="2.75045">
        <ele>1063.9</ele>
        <time>2018-11-26T05:06:02Z</time>
      </trkpt>
      <trkpt lat="42.42019" lon="2.75046">
        <ele>1063.6</ele>
        <time>2018-11-26T05:06:02Z</time>
      </trkpt>
      <trkpt lat="42.42018" lon="2.75047">
        <ele>1063.1</ele>
        <time>2018-11-26T05:06:03Z</time>
      </trkpt>
      <trkpt lat="42.42018" lon="2.75047">
        <ele>1062.4</ele>
        <time>2018-11-26T05:06:03Z</time>
      </trkpt>
      <trkpt lat="42.42017" lon="2.75047">
        <ele>1062.3</ele>
        <time>2018-11-26T05:06:03Z</time>
      </trkpt>
      <trkpt lat="42.42016" lon="2.75048">
        <ele>1062.4</ele>
        <time>2018-11-26T05:06:03Z</time>
      </trkpt>
      <trkpt lat="42.42015" lon="2.75048">
        <ele>1062.3</ele>
        <time>2018-11-26T05:06:04Z</time>
      </trkpt>
      <trkpt lat="42.42015" lon="2.75048">
        <ele>1062.4</ele>
        <time>2018-11-26T05:06:04Z</time>
      </trkpt>
      <trkpt lat="42.42014" lon="2.75049">
        <ele>1062.1</ele>
        <time>2018-11-26T05:06:04Z</time>
      </trkpt>
      <trkpt lat="42.42013" lon="2.75049">
        <ele>1061.7</ele>
        <time>2018-11-26T05:06:05Z</time>
      </trkpt>
      <trkpt lat="42.42013" lon="2.7505">
        <ele>1061.3</ele>
        <time>2018-11-26T05:06:05Z</time>
      </trkpt>
      <trkpt lat="42.42013" lon="2.75051">
        <ele>1060.9</ele>
        <time>2018-11-26T05:06:05Z</time>
      </trkpt>
      <trkpt lat="42.42013" lon="2.75051">
        <ele>1060.2</ele>
        <time>2018-11-26T05:06:05Z</time>
      </trkpt>
      <trkpt lat="42.42012" lon="2.75052">
        <ele>1059.5</ele>
        <time>2018-11-26T05:06:06Z</time>
      </trkpt>
      <trkpt lat="42.42012" lon="2.75052">
        <ele>1059.4</ele>
        <time>2018-11-26T05:06:06Z</time>
      </trkpt>
      <trkpt lat="42.42012" lon="2.75052">
        <ele>1059.2</ele>
        <time>2018-11-26T05:06:06Z</time>
      </trkpt>
      <trkpt lat="42.42011" lon="2.75053">
        <ele>1059.1</ele>
        <time>2018-11-26T05:06:06Z</time>
      </trkpt>
      <trkpt lat="42.42011" lon="2.75054">
        <ele>1059.1</ele>
        <time>2018-11-26T05:06:07Z</time>
      </trkpt>
      <trkpt lat="42.4201" lon="2.75054">
        <ele>1059.1</ele>
        <time>2018-11-26T05:06:07Z</time>
      </trkpt>
      <trkpt lat="42.4201" lon="2.75055">
        <ele>1059.1</ele>
        <time>2018-11-26T05:06:07Z</time>
      </trkpt>
      <trkpt lat="42.42009" lon="2.75056">
        <ele>1059.2</ele>
        <time>2018-11-26T05:06:07Z</time>
      </trkpt>
      <trkpt lat="42.42008" lon="2.75056">
        <ele>1059</ele>
        <time>2018-11-26T05:06:08Z</time>
      </trkpt>
      <trkpt lat="42.42008" lon="2.75057">
        <ele>1058.9</ele>
        <time>2018-11-26T05:06:08Z</time>
      </trkpt>
      <trkpt lat="42.42007" lon="2.75058">
        <ele>1058.8</ele>
        <time>2018-11-26T05:06:09Z</time>
      </trkpt>
      <trkpt lat="42.42006" lon="2.75059">
        <ele>1058.8</ele>
        <time>2018-11-26T05:06:09Z</time>
      </trkpt>
      <trkpt lat="42.42005" lon="2.7506">
        <ele>1058.2</ele>
        <time>2018-11-26T05:06:10Z</time>
      </trkpt>
      <trkpt lat="42.42004" lon="2.75061">
        <ele>1058.1</ele>
        <time>2018-11-26T05:06:10Z</time>
      </trkpt>
      <trkpt lat="42.42003" lon="2.75062">
        <ele>1058.1</ele>
        <time>2018-11-26T05:06:10Z</time>
      </trkpt>
      <trkpt lat="42.42003" lon="2.75063">
        <ele>1057.9</ele>
        <time>2018-11-26T05:06:11Z</time>
      </trkpt>
      <trkpt lat="42.42002" lon="2.75064">
        <ele>1058</ele>
        <time>2018-11-26T05:06:11Z</time>
      </trkpt>
      <trkpt lat="42.42001" lon="2.75064">
        <ele>1058</ele>
        <time>2018-11-26T05:06:12Z</time>
      </trkpt>
      <trkpt lat="42.42001" lon="2.75065">
        <ele>1058.2</ele>
        <time>2018-11-26T05:06:12Z</time>
      </trkpt>
      <trkpt lat="42.42" lon="2.75065">
        <ele>1058</ele>
        <time>2018-11-26T05:06:12Z</time>
      </trkpt>
      <trkpt lat="42.42" lon="2.75066">
        <ele>1057.7</ele>
        <time>2018-11-26T05:06:12Z</time>
      </trkpt>
      <trkpt lat="42.42" lon="2.75067">
        <ele>1057.3</ele>
        <time>2018-11-26T05:06:12Z</time>
      </trkpt>
      <trkpt lat="42.41999" lon="2.75067">
        <ele>1057.2</ele>
        <time>2018-11-26T05:06:13Z</time>
      </trkpt>
      <trkpt lat="42.41999" lon="2.75068">
        <ele>1056.9</ele>
        <time>2018-11-26T05:06:13Z</time>
      </trkpt>
      <trkpt lat="42.41999" lon="2.75069">
        <ele>1056.8</ele>
        <time>2018-11-26T05:06:13Z</time>
      </trkpt>
      <trkpt lat="42.41998" lon="2.75069">
        <ele>1056.5</ele>
        <time>2018-11-26T05:06:14Z</time>
      </trkpt>
      <trkpt lat="42.41997" lon="2.75069">
        <ele>1056.5</ele>
        <time>2018-11-26T05:06:14Z</time>
      </trkpt>
      <trkpt lat="42.41997" lon="2.7507">
        <ele>1056.4</ele>
        <time>2018-11-26T05:06:14Z</time>
      </trkpt>
      <trkpt lat="42.41996" lon="2.7507">
        <ele>1056.1</ele>
        <time>2018-11-26T05:06:14Z</time>
      </trkpt>
      <trkpt lat="42.41996" lon="2.7507">
        <ele>1055.7</ele>
        <time>2018-11-26T05:06:14Z</time>
      </trkpt>
      <trkpt lat="42.41995" lon="2.75071">
        <ele>1055.3</ele>
        <time>2018-11-26T05:06:15Z</time>
      </trkpt>
      <trkpt lat="42.41995" lon="2.75071">
        <ele>1055.4</ele>
        <time>2018-11-26T05:06:15Z</time>
      </trkpt>
      <trkpt lat="42.41994" lon="2.75072">
        <ele>1055.5</ele>
        <time>2018-11-26T05:06:15Z</time>
      </trkpt>
      <trkpt lat="42.41994" lon="2.75072">
        <ele>1055.6</ele>
        <time>2018-11-26T05:06:16Z</time>
      </trkpt>
      <trkpt lat="42.41993" lon="2.75073">
        <ele>1055.2</ele>
        <time>2018-11-26T05:06:16Z</time>
      </trkpt>
      <trkpt lat="42.41992" lon="2.75074">
        <ele>1054.7</ele>
        <time>2018-11-26T05:06:16Z</time>
      </trkpt>
      <trkpt lat="42.41991" lon="2.75074">
        <ele>1054.1</ele>
        <time>2018-11-26T05:06:17Z</time>
      </trkpt>
      <trkpt lat="42.41991" lon="2.75075">
        <ele>1054.1</ele>
        <time>2018-11-26T05:06:17Z</time>
      </trkpt>
      <trkpt lat="42.4199" lon="2.75076">
        <ele>1054.4</ele>
        <time>2018-11-26T05:06:17Z</time>
      </trkpt>
      <trkpt lat="42.4199" lon="2.75076">
        <ele>1054.4</ele>
        <time>2018-11-26T05:06:17Z</time>
      </trkpt>
      <trkpt lat="42.41989" lon="2.75077">
        <ele>1054.5</ele>
        <time>2018-11-26T05:06:18Z</time>
      </trkpt>
      <trkpt lat="42.41989" lon="2.75077">
        <ele>1054.6</ele>
        <time>2018-11-26T05:06:18Z</time>
      </trkpt>
      <trkpt lat="42.41989" lon="2.75078">
        <ele>1054.7</ele>
        <time>2018-11-26T05:06:18Z</time>
      </trkpt>
      <trkpt lat="42.41988" lon="2.75079">
        <ele>1054.8</ele>
        <time>2018-11-26T05:06:18Z</time>
      </trkpt>
      <trkpt lat="42.41987" lon="2.7508">
        <ele>1054.2</ele>
        <time>2018-11-26T05:06:19Z</time>
      </trkpt>
      <trkpt lat="42.41986" lon="2.7508">
        <ele>1053.8</ele>
        <time>2018-11-26T05:06:19Z</time>
      </trkpt>
      <trkpt lat="42.41985" lon="2.75081">
        <ele>1053.6</ele>
        <time>2018-11-26T05:06:20Z</time>
      </trkpt>
      <trkpt lat="42.41985" lon="2.75081">
        <ele>1053.5</ele>
        <time>2018-11-26T05:06:20Z</time>
      </trkpt>
      <trkpt lat="42.41984" lon="2.75082">
        <ele>1053.1</ele>
        <time>2018-11-26T05:06:20Z</time>
      </trkpt>
      <trkpt lat="42.41983" lon="2.75082">
        <ele>1053.1</ele>
        <time>2018-11-26T05:06:21Z</time>
      </trkpt>
      <trkpt lat="42.41983" lon="2.75082">
        <ele>1052.9</ele>
        <time>2018-11-26T05:06:21Z</time>
      </trkpt>
      <trkpt lat="42.41982" lon="2.75082">
        <ele>1052.7</ele>
        <time>2018-11-26T05:06:21Z</time>
      </trkpt>
      <trkpt lat="42.41981" lon="2.75083">
        <ele>1052.2</ele>
        <time>2018-11-26T05:06:22Z</time>
      </trkpt>
      <trkpt lat="42.41981" lon="2.75083">
        <ele>1051.6</ele>
        <time>2018-11-26T05:06:22Z</time>
      </trkpt>
      <trkpt lat="42.4198" lon="2.75083">
        <ele>1051.8</ele>
        <time>2018-11-26T05:06:22Z</time>
      </trkpt>
      <trkpt lat="42.41979" lon="2.75084">
        <ele>1052</ele>
        <time>2018-11-26T05:06:22Z</time>
      </trkpt>
      <trkpt lat="42.41979" lon="2.75083">
        <ele>1052.4</ele>
        <time>2018-11-26T05:06:23Z</time>
      </trkpt>
      <trkpt lat="42.41979" lon="2.75083">
        <ele>1052.9</ele>
        <time>2018-11-26T05:06:23Z</time>
      </trkpt>
      <trkpt lat="42.41978" lon="2.75082">
        <ele>1052.6</ele>
        <time>2018-11-26T05:06:23Z</time>
      </trkpt>
      <trkpt lat="42.41978" lon="2.75082">
        <ele>1052.1</ele>
        <time>2018-11-26T05:06:23Z</time>
      </trkpt>
      <trkpt lat="42.41977" lon="2.75081">
        <ele>1051.4</ele>
        <time>2018-11-26T05:06:24Z</time>
      </trkpt>
      <trkpt lat="42.41977" lon="2.7508">
        <ele>1051.1</ele>
        <time>2018-11-26T05:06:24Z</time>
      </trkpt>
      <trkpt lat="42.41977" lon="2.7508">
        <ele>1050.8</ele>
        <time>2018-11-26T05:06:24Z</time>
      </trkpt>
      <trkpt lat="42.41976" lon="2.7508">
        <ele>1050.2</ele>
        <time>2018-11-26T05:06:24Z</time>
      </trkpt>
      <trkpt lat="42.41976" lon="2.75081">
        <ele>1050.4</ele>
        <time>2018-11-26T05:06:24Z</time>
      </trkpt>
      <trkpt lat="42.41975" lon="2.75081">
        <ele>1050.5</ele>
        <time>2018-11-26T05:06:25Z</time>
      </trkpt>
      <trkpt lat="42.41975" lon="2.7508">
        <ele>1050.8</ele>
        <time>2018-11-26T05:06:25Z</time>
      </trkpt>
      <trkpt lat="42.41974" lon="2.7508">
        <ele>1050.9</ele>
        <time>2018-11-26T05:06:25Z</time>
      </trkpt>
      <trkpt lat="42.41974" lon="2.75079">
        <ele>1050.9</ele>
        <time>2018-11-26T05:06:25Z</time>
      </trkpt>
      <trkpt lat="42.41974" lon="2.75077">
        <ele>1050.9</ele>
        <time>2018-11-26T05:06:26Z</time>
      </trkpt>
      <trkpt lat="42.41974" lon="2.75075">
        <ele>1050.9</ele>
        <time>2018-11-26T05:06:27Z</time>
      </trkpt>
      <trkpt lat="42.41974" lon="2.75074">
        <ele>1050.7</ele>
        <time>2018-11-26T05:06:27Z</time>
      </trkpt>
      <trkpt lat="42.41974" lon="2.75074">
        <ele>1050.6</ele>
        <time>2018-11-26T05:06:27Z</time>
      </trkpt>
      <trkpt lat="42.41974" lon="2.75073">
        <ele>1050.5</ele>
        <time>2018-11-26T05:06:27Z</time>
      </trkpt>
      <trkpt lat="42.41974" lon="2.75072">
        <ele>1050.4</ele>
        <time>2018-11-26T05:06:28Z</time>
      </trkpt>
      <trkpt lat="42.41973" lon="2.75071">
        <ele>1050.2</ele>
        <time>2018-11-26T05:06:28Z</time>
      </trkpt>
      <trkpt lat="42.41973" lon="2.7507">
        <ele>1050.1</ele>
        <time>2018-11-26T05:06:28Z</time>
      </trkpt>
      <trkpt lat="42.41973" lon="2.7507">
        <ele>1049.9</ele>
        <time>2018-11-26T05:06:28Z</time>
      </trkpt>
      <trkpt lat="42.41973" lon="2.75069">
        <ele>1049.8</ele>
        <time>2018-11-26T05:06:28Z</time>
      </trkpt>
      <trkpt lat="42.41973" lon="2.75068">
        <ele>1049.4</ele>
        <time>2018-11-26T05:06:29Z</time>
      </trkpt>
      <trkpt lat="42.41973" lon="2.75067">
        <ele>1049.2</ele>
        <time>2018-11-26T05:06:29Z</time>
      </trkpt>
      <trkpt lat="42.41973" lon="2.75067">
        <ele>1048.7</ele>
        <time>2018-11-26T05:06:29Z</time>
      </trkpt>
      <trkpt lat="42.41973" lon="2.75066">
        <ele>1048.3</ele>
        <time>2018-11-26T05:06:29Z</time>
      </trkpt>
      <trkpt lat="42.41973" lon="2.75066">
        <ele>1048</ele>
        <time>2018-11-26T05:06:29Z</time>
      </trkpt>
      <trkpt lat="42.41973" lon="2.75065">
        <ele>1047.4</ele>
        <time>2018-11-26T05:06:30Z</time>
      </trkpt>
      <trkpt lat="42.41973" lon="2.75065">
        <ele>1047.6</ele>
        <time>2018-11-26T05:06:30Z</time>
      </trkpt>
      <trkpt lat="42.41973" lon="2.75065">
        <ele>1047.9</ele>
        <time>2018-11-26T05:06:30Z</time>
      </trkpt>
      <trkpt lat="42.41972" lon="2.75065">
        <ele>1048.3</ele>
        <time>2018-11-26T05:06:30Z</time>
      </trkpt>
      <trkpt lat="42.41972" lon="2.75065">
        <ele>1048.8</ele>
        <time>2018-11-26T05:06:30Z</time>
      </trkpt>
      <trkpt lat="42.41972" lon="2.75065">
        <ele>1048.6</ele>
        <time>2018-11-26T05:06:30Z</time>
      </trkpt>
      <trkpt lat="42.41972" lon="2.75065">
        <ele>1048.2</ele>
        <time>2018-11-26T05:06:30Z</time>
      </trkpt>
      <trkpt lat="42.41971" lon="2.75065">
        <ele>1047.6</ele>
        <time>2018-11-26T05:06:31Z</time>
      </trkpt>
      <trkpt lat="42.41971" lon="2.75066">
        <ele>1047.7</ele>
        <time>2018-11-26T05:06:31Z</time>
      </trkpt>
      <trkpt lat="42.4197" lon="2.75067">
        <ele>1047.8</ele>
        <time>2018-11-26T05:06:31Z</time>
      </trkpt>
      <trkpt lat="42.4197" lon="2.75068">
        <ele>1047.9</ele>
        <time>2018-11-26T05:06:31Z</time>
      </trkpt>
      <trkpt lat="42.41969" lon="2.75068">
        <ele>1047.5</ele>
        <time>2018-11-26T05:06:32Z</time>
      </trkpt>
      <trkpt lat="42.41969" lon="2.75069">
        <ele>1047.2</ele>
        <time>2018-11-26T05:06:32Z</time>
      </trkpt>
      <trkpt lat="42.41968" lon="2.7507">
        <ele>1046.9</ele>
        <time>2018-11-26T05:06:32Z</time>
      </trkpt>
      <trkpt lat="42.41968" lon="2.75071">
        <ele>1046.9</ele>
        <time>2018-11-26T05:06:33Z</time>
      </trkpt>
      <trkpt lat="42.41968" lon="2.75072">
        <ele>1046.8</ele>
        <time>2018-11-26T05:06:33Z</time>
      </trkpt>
      <trkpt lat="42.41968" lon="2.75073">
        <ele>1046.9</ele>
        <time>2018-11-26T05:06:33Z</time>
      </trkpt>
      <trkpt lat="42.41967" lon="2.75073">
        <ele>1046.9</ele>
        <time>2018-11-26T05:06:33Z</time>
      </trkpt>
      <trkpt lat="42.41967" lon="2.75074">
        <ele>1046.9</ele>
        <time>2018-11-26T05:06:34Z</time>
      </trkpt>
      <trkpt lat="42.41966" lon="2.75074">
        <ele>1047</ele>
        <time>2018-11-26T05:06:34Z</time>
      </trkpt>
      <trkpt lat="42.41965" lon="2.75074">
        <ele>1047.1</ele>
        <time>2018-11-26T05:06:34Z</time>
      </trkpt>
      <trkpt lat="42.41965" lon="2.75074">
        <ele>1046.9</ele>
        <time>2018-11-26T05:06:34Z</time>
      </trkpt>
      <trkpt lat="42.41965" lon="2.75074">
        <ele>1046.7</ele>
        <time>2018-11-26T05:06:34Z</time>
      </trkpt>
      <trkpt lat="42.41965" lon="2.75074">
        <ele>1046.2</ele>
        <time>2018-11-26T05:06:34Z</time>
      </trkpt>
      <trkpt lat="42.41965" lon="2.75074">
        <ele>1046.1</ele>
        <time>2018-11-26T05:06:34Z</time>
      </trkpt>
      <trkpt lat="42.41965" lon="2.75074">
        <ele>1045.9</ele>
        <time>2018-11-26T05:06:35Z</time>
      </trkpt>
      <trkpt lat="42.41964" lon="2.75075">
        <ele>1045.8</ele>
        <time>2018-11-26T05:06:35Z</time>
      </trkpt>
      <trkpt lat="42.41964" lon="2.75075">
        <ele>1045.8</ele>
        <time>2018-11-26T05:06:35Z</time>
      </trkpt>
      <trkpt lat="42.41963" lon="2.75076">
        <ele>1045.9</ele>
        <time>2018-11-26T05:06:35Z</time>
      </trkpt>
      <trkpt lat="42.41963" lon="2.75077">
        <ele>1045.8</ele>
        <time>2018-11-26T05:06:36Z</time>
      </trkpt>
      <trkpt lat="42.41963" lon="2.75078">
        <ele>1045.6</ele>
        <time>2018-11-26T05:06:36Z</time>
      </trkpt>
      <trkpt lat="42.41962" lon="2.75078">
        <ele>1045.2</ele>
        <time>2018-11-26T05:06:36Z</time>
      </trkpt>
      <trkpt lat="42.41962" lon="2.75078">
        <ele>1045.1</ele>
        <time>2018-11-26T05:06:36Z</time>
      </trkpt>
      <trkpt lat="42.41962" lon="2.75079">
        <ele>1044.8</ele>
        <time>2018-11-26T05:06:36Z</time>
      </trkpt>
      <trkpt lat="42.41961" lon="2.75079">
        <ele>1044.6</ele>
        <time>2018-11-26T05:06:36Z</time>
      </trkpt>
      <trkpt lat="42.41961" lon="2.75079">
        <ele>1044.2</ele>
        <time>2018-11-26T05:06:37Z</time>
      </trkpt>
      <trkpt lat="42.41961" lon="2.7508">
        <ele>1044</ele>
        <time>2018-11-26T05:06:37Z</time>
      </trkpt>
      <trkpt lat="42.4196" lon="2.7508">
        <ele>1043.7</ele>
        <time>2018-11-26T05:06:37Z</time>
      </trkpt>
      <trkpt lat="42.41959" lon="2.75081">
        <ele>1043.8</ele>
        <time>2018-11-26T05:06:37Z</time>
      </trkpt>
      <trkpt lat="42.41959" lon="2.75082">
        <ele>1043.7</ele>
        <time>2018-11-26T05:06:38Z</time>
      </trkpt>
      <trkpt lat="42.41958" lon="2.75082">
        <ele>1043.6</ele>
        <time>2018-11-26T05:06:38Z</time>
      </trkpt>
      <trkpt lat="42.41958" lon="2.75083">
        <ele>1043.2</ele>
        <time>2018-11-26T05:06:38Z</time>
      </trkpt>
      <trkpt lat="42.41958" lon="2.75084">
        <ele>1042.8</ele>
        <time>2018-11-26T05:06:39Z</time>
      </trkpt>
      <trkpt lat="42.41957" lon="2.75084">
        <ele>1042.4</ele>
        <time>2018-11-26T05:06:39Z</time>
      </trkpt>
      <trkpt lat="42.41957" lon="2.75084">
        <ele>1042.3</ele>
        <time>2018-11-26T05:06:39Z</time>
      </trkpt>
      <trkpt lat="42.41957" lon="2.75085">
        <ele>1042.2</ele>
        <time>2018-11-26T05:06:39Z</time>
      </trkpt>
      <trkpt lat="42.41956" lon="2.75085">
        <ele>1042.1</ele>
        <time>2018-11-26T05:06:39Z</time>
      </trkpt>
      <trkpt lat="42.41956" lon="2.75085">
        <ele>1041.9</ele>
        <time>2018-11-26T05:06:40Z</time>
      </trkpt>
      <trkpt lat="42.41956" lon="2.75085">
        <ele>1041.8</ele>
        <time>2018-11-26T05:06:40Z</time>
      </trkpt>
      <trkpt lat="42.41956" lon="2.75085">
        <ele>1041.7</ele>
        <time>2018-11-26T05:06:40Z</time>
      </trkpt>
      <trkpt lat="42.41955" lon="2.75086">
        <ele>1041.4</ele>
        <time>2018-11-26T05:06:40Z</time>
      </trkpt>
      <trkpt lat="42.41955" lon="2.75086">
        <ele>1041.3</ele>
        <time>2018-11-26T05:06:40Z</time>
      </trkpt>
      <trkpt lat="42.41955" lon="2.75086">
        <ele>1041.2</ele>
        <time>2018-11-26T05:06:40Z</time>
      </trkpt>
      <trkpt lat="42.41954" lon="2.75087">
        <ele>1041</ele>
        <time>2018-11-26T05:06:40Z</time>
      </trkpt>
      <trkpt lat="42.41954" lon="2.75087">
        <ele>1041.1</ele>
        <time>2018-11-26T05:06:40Z</time>
      </trkpt>
      <trkpt lat="42.41954" lon="2.75087">
        <ele>1041.1</ele>
        <time>2018-11-26T05:06:40Z</time>
      </trkpt>
      <trkpt lat="42.41954" lon="2.75087">
        <ele>1041.1</ele>
        <time>2018-11-26T05:06:40Z</time>
      </trkpt>
      <trkpt lat="42.41954" lon="2.75087">
        <ele>1041.1</ele>
        <time>2018-11-26T05:06:41Z</time>
      </trkpt>
      <trkpt lat="42.41953" lon="2.75088">
        <ele>1041.1</ele>
        <time>2018-11-26T05:06:41Z</time>
      </trkpt>
      <trkpt lat="42.41953" lon="2.75089">
        <ele>1041.2</ele>
        <time>2018-11-26T05:06:41Z</time>
      </trkpt>
      <trkpt lat="42.41953" lon="2.75089">
        <ele>1041.3</ele>
        <time>2018-11-26T05:06:41Z</time>
      </trkpt>
      <trkpt lat="42.41953" lon="2.75089">
        <ele>1041.3</ele>
        <time>2018-11-26T05:06:41Z</time>
      </trkpt>
      <trkpt lat="42.41952" lon="2.75089">
        <ele>1041.5</ele>
        <time>2018-11-26T05:06:41Z</time>
      </trkpt>
      <trkpt lat="42.41952" lon="2.7509">
        <ele>1041.9</ele>
        <time>2018-11-26T05:06:42Z</time>
      </trkpt>
      <trkpt lat="42.41952" lon="2.75091">
        <ele>1042.5</ele>
        <time>2018-11-26T05:06:42Z</time>
      </trkpt>
      <trkpt lat="42.41952" lon="2.75092">
        <ele>1042.2</ele>
        <time>2018-11-26T05:06:42Z</time>
      </trkpt>
      <trkpt lat="42.41951" lon="2.75093">
        <ele>1041.9</ele>
        <time>2018-11-26T05:06:43Z</time>
      </trkpt>
      <trkpt lat="42.41951" lon="2.75094">
        <ele>1041.6</ele>
        <time>2018-11-26T05:06:43Z</time>
      </trkpt>
      <trkpt lat="42.41951" lon="2.75094">
        <ele>1041.2</ele>
        <time>2018-11-26T05:06:43Z</time>
      </trkpt>
      <trkpt lat="42.41951" lon="2.75095">
        <ele>1041.2</ele>
        <time>2018-11-26T05:06:43Z</time>
      </trkpt>
      <trkpt lat="42.4195" lon="2.75095">
        <ele>1041.3</ele>
        <time>2018-11-26T05:06:43Z</time>
      </trkpt>
      <trkpt lat="42.4195" lon="2.75095">
        <ele>1041.5</ele>
        <time>2018-11-26T05:06:43Z</time>
      </trkpt>
      <trkpt lat="42.4195" lon="2.75095">
        <ele>1041.3</ele>
        <time>2018-11-26T05:06:43Z</time>
      </trkpt>
      <trkpt lat="42.4195" lon="2.75095">
        <ele>1041.2</ele>
        <time>2018-11-26T05:06:43Z</time>
      </trkpt>
      <trkpt lat="42.4195" lon="2.75096">
        <ele>1040.9</ele>
        <time>2018-11-26T05:06:44Z</time>
      </trkpt>
      <trkpt lat="42.4195" lon="2.75096">
        <ele>1040.8</ele>
        <time>2018-11-26T05:06:44Z</time>
      </trkpt>
      <trkpt lat="42.4195" lon="2.75096">
        <ele>1040.9</ele>
        <time>2018-11-26T05:06:44Z</time>
      </trkpt>
      <trkpt lat="42.4195" lon="2.75096">
        <ele>1041</ele>
        <time>2018-11-26T05:06:44Z</time>
      </trkpt>
      <trkpt lat="42.4195" lon="2.75096">
        <ele>1040.9</ele>
        <time>2018-11-26T05:06:44Z</time>
      </trkpt>
      <trkpt lat="42.4195" lon="2.75096">
        <ele>1040.8</ele>
        <time>2018-11-26T05:06:44Z</time>
      </trkpt>
      <trkpt lat="42.4195" lon="2.75096">
        <ele>1040.6</ele>
        <time>2018-11-26T05:06:44Z</time>
      </trkpt>
      <trkpt lat="42.4195" lon="2.75096">
        <ele>1040.5</ele>
        <time>2018-11-26T05:06:44Z</time>
      </trkpt>
      <trkpt lat="42.41949" lon="2.75096">
        <ele>1040.5</ele>
        <time>2018-11-26T05:06:44Z</time>
      </trkpt>
      <trkpt lat="42.41949" lon="2.75096">
        <ele>1040.5</ele>
        <time>2018-11-26T05:06:44Z</time>
      </trkpt>
      <trkpt lat="42.41949" lon="2.75096">
        <ele>1040.5</ele>
        <time>2018-11-26T05:06:44Z</time>
      </trkpt>
      <trkpt lat="42.41949" lon="2.75097">
        <ele>1040.5</ele>
        <time>2018-11-26T05:06:44Z</time>
      </trkpt>
      <trkpt lat="42.41949" lon="2.75097">
        <ele>1040.5</ele>
        <time>2018-11-26T05:06:44Z</time>
      </trkpt>
      <trkpt lat="42.41948" lon="2.75098">
        <ele>1040.7</ele>
        <time>2018-11-26T05:06:45Z</time>
      </trkpt>
      <trkpt lat="42.41948" lon="2.75098">
        <ele>1040.6</ele>
        <time>2018-11-26T05:06:45Z</time>
      </trkpt>
      <trkpt lat="42.41948" lon="2.75098">
        <ele>1040.3</ele>
        <time>2018-11-26T05:06:45Z</time>
      </trkpt>
      <trkpt lat="42.41948" lon="2.75098">
        <ele>1040.1</ele>
        <time>2018-11-26T05:06:45Z</time>
      </trkpt>
      <trkpt lat="42.41948" lon="2.75098">
        <ele>1040.1</ele>
        <time>2018-11-26T05:06:45Z</time>
      </trkpt>
      <trkpt lat="42.41948" lon="2.75098">
        <ele>1040.2</ele>
        <time>2018-11-26T05:06:45Z</time>
      </trkpt>
      <trkpt lat="42.41948" lon="2.75099">
        <ele>1040.3</ele>
        <time>2018-11-26T05:06:45Z</time>
      </trkpt>
      <trkpt lat="42.41947" lon="2.75099">
        <ele>1040.3</ele>
        <time>2018-11-26T05:06:45Z</time>
      </trkpt>
      <trkpt lat="42.41947" lon="2.75099">
        <ele>1040.2</ele>
        <time>2018-11-26T05:06:45Z</time>
      </trkpt>
      <trkpt lat="42.41947" lon="2.75099">
        <ele>1040.2</ele>
        <time>2018-11-26T05:06:45Z</time>
      </trkpt>
      <trkpt lat="42.41947" lon="2.75099">
        <ele>1040.1</ele>
        <time>2018-11-26T05:06:45Z</time>
      </trkpt>
      <trkpt lat="42.41946" lon="2.75099">
        <ele>1040.2</ele>
        <time>2018-11-26T05:06:46Z</time>
      </trkpt>
      <trkpt lat="42.41946" lon="2.75099">
        <ele>1040.4</ele>
        <time>2018-11-26T05:06:46Z</time>
      </trkpt>
      <trkpt lat="42.41946" lon="2.75099">
        <ele>1040.5</ele>
        <time>2018-11-26T05:06:46Z</time>
      </trkpt>
      <trkpt lat="42.41945" lon="2.75099">
        <ele>1040.6</ele>
        <time>2018-11-26T05:06:46Z</time>
      </trkpt>
      <trkpt lat="42.41945" lon="2.75099">
        <ele>1040.7</ele>
        <time>2018-11-26T05:06:46Z</time>
      </trkpt>
      <trkpt lat="42.41945" lon="2.75099">
        <ele>1040.9</ele>
        <time>2018-11-26T05:06:46Z</time>
      </trkpt>
      <trkpt lat="42.41945" lon="2.751">
        <ele>1041</ele>
        <time>2018-11-26T05:06:46Z</time>
      </trkpt>
      <trkpt lat="42.41944" lon="2.751">
        <ele>1041</ele>
        <time>2018-11-26T05:06:46Z</time>
      </trkpt>
      <trkpt lat="42.41944" lon="2.751">
        <ele>1041.2</ele>
        <time>2018-11-26T05:06:47Z</time>
      </trkpt>
      <trkpt lat="42.41943" lon="2.751">
        <ele>1041</ele>
        <time>2018-11-26T05:06:47Z</time>
      </trkpt>
      <trkpt lat="42.41943" lon="2.751">
        <ele>1040.8</ele>
        <time>2018-11-26T05:06:47Z</time>
      </trkpt>
      <trkpt lat="42.41943" lon="2.75101">
        <ele>1040.5</ele>
        <time>2018-11-26T05:06:47Z</time>
      </trkpt>
      <trkpt lat="42.41943" lon="2.75101">
        <ele>1040.2</ele>
        <time>2018-11-26T05:06:47Z</time>
      </trkpt>
      <trkpt lat="42.41942" lon="2.75101">
        <ele>1039.9</ele>
        <time>2018-11-26T05:06:47Z</time>
      </trkpt>
      <trkpt lat="42.41942" lon="2.75102">
        <ele>1039.5</ele>
        <time>2018-11-26T05:06:48Z</time>
      </trkpt>
      <trkpt lat="42.41942" lon="2.75102">
        <ele>1039.7</ele>
        <time>2018-11-26T05:06:48Z</time>
      </trkpt>
      <trkpt lat="42.41941" lon="2.75102">
        <ele>1039.7</ele>
        <time>2018-11-26T05:06:48Z</time>
      </trkpt>
      <trkpt lat="42.41941" lon="2.75102">
        <ele>1039.9</ele>
        <time>2018-11-26T05:06:48Z</time>
      </trkpt>
      <trkpt lat="42.4194" lon="2.75103">
        <ele>1040</ele>
        <time>2018-11-26T05:06:48Z</time>
      </trkpt>
      <trkpt lat="42.4194" lon="2.75103">
        <ele>1040.3</ele>
        <time>2018-11-26T05:06:49Z</time>
      </trkpt>
      <trkpt lat="42.41939" lon="2.75104">
        <ele>1040.4</ele>
        <time>2018-11-26T05:06:49Z</time>
      </trkpt>
      <trkpt lat="42.41939" lon="2.75105">
        <ele>1040.7</ele>
        <time>2018-11-26T05:06:49Z</time>
      </trkpt>
      <trkpt lat="42.41938" lon="2.75105">
        <ele>1040.7</ele>
        <time>2018-11-26T05:06:50Z</time>
      </trkpt>
      <trkpt lat="42.41938" lon="2.75106">
        <ele>1040.7</ele>
        <time>2018-11-26T05:06:50Z</time>
      </trkpt>
      <trkpt lat="42.41937" lon="2.75107">
        <ele>1040.7</ele>
        <time>2018-11-26T05:06:50Z</time>
      </trkpt>
      <trkpt lat="42.41937" lon="2.75108">
        <ele>1040.7</ele>
        <time>2018-11-26T05:06:50Z</time>
      </trkpt>
      <trkpt lat="42.41936" lon="2.75109">
        <ele>1040.6</ele>
        <time>2018-11-26T05:06:51Z</time>
      </trkpt>
      <trkpt lat="42.41936" lon="2.75109">
        <ele>1040.4</ele>
        <time>2018-11-26T05:06:51Z</time>
      </trkpt>
      <trkpt lat="42.41935" lon="2.7511">
        <ele>1040.5</ele>
        <time>2018-11-26T05:06:51Z</time>
      </trkpt>
      <trkpt lat="42.41935" lon="2.7511">
        <ele>1040.7</ele>
        <time>2018-11-26T05:06:51Z</time>
      </trkpt>
      <trkpt lat="42.41935" lon="2.75111">
        <ele>1040.8</ele>
        <time>2018-11-26T05:06:52Z</time>
      </trkpt>
      <trkpt lat="42.41934" lon="2.75112">
        <ele>1040.6</ele>
        <time>2018-11-26T05:06:52Z</time>
      </trkpt>
      <trkpt lat="42.41934" lon="2.75113">
        <ele>1040.6</ele>
        <time>2018-11-26T05:06:53Z</time>
      </trkpt>
      <trkpt lat="42.41933" lon="2.75115">
        <ele>1040.3</ele>
        <time>2018-11-26T05:06:53Z</time>
      </trkpt>
      <trkpt lat="42.41932" lon="2.75116">
        <ele>1040.3</ele>
        <time>2018-11-26T05:06:53Z</time>
      </trkpt>
      <trkpt lat="42.41932" lon="2.75116">
        <ele>1040.4</ele>
        <time>2018-11-26T05:06:54Z</time>
      </trkpt>
      <trkpt lat="42.41931" lon="2.75117">
        <ele>1040.5</ele>
        <time>2018-11-26T05:06:54Z</time>
      </trkpt>
      <trkpt lat="42.41931" lon="2.75117">
        <ele>1040.6</ele>
        <time>2018-11-26T05:06:54Z</time>
      </trkpt>
      <trkpt lat="42.4193" lon="2.75117">
        <ele>1040.6</ele>
        <time>2018-11-26T05:06:55Z</time>
      </trkpt>
      <trkpt lat="42.41929" lon="2.75118">
        <ele>1040.8</ele>
        <time>2018-11-26T05:06:55Z</time>
      </trkpt>
      <trkpt lat="42.41929" lon="2.75118">
        <ele>1040.9</ele>
        <time>2018-11-26T05:06:55Z</time>
      </trkpt>
      <trkpt lat="42.41928" lon="2.75118">
        <ele>1040.7</ele>
        <time>2018-11-26T05:06:55Z</time>
      </trkpt>
      <trkpt lat="42.41928" lon="2.75119">
        <ele>1040.4</ele>
        <time>2018-11-26T05:06:56Z</time>
      </trkpt>
      <trkpt lat="42.41927" lon="2.7512">
        <ele>1040</ele>
        <time>2018-11-26T05:06:56Z</time>
      </trkpt>
      <trkpt lat="42.41927" lon="2.75121">
        <ele>1039.7</ele>
        <time>2018-11-26T05:06:56Z</time>
      </trkpt>
      <trkpt lat="42.41926" lon="2.75121">
        <ele>1039.5</ele>
        <time>2018-11-26T05:06:57Z</time>
      </trkpt>
      <trkpt lat="42.41925" lon="2.75122">
        <ele>1039</ele>
        <time>2018-11-26T05:06:57Z</time>
      </trkpt>
      <trkpt lat="42.41924" lon="2.75123">
        <ele>1039.3</ele>
        <time>2018-11-26T05:06:57Z</time>
      </trkpt>
      <trkpt lat="42.41924" lon="2.75124">
        <ele>1039.7</ele>
        <time>2018-11-26T05:06:58Z</time>
      </trkpt>
      <trkpt lat="42.41923" lon="2.75124">
        <ele>1040.1</ele>
        <time>2018-11-26T05:06:58Z</time>
      </trkpt>
      <trkpt lat="42.41922" lon="2.75125">
        <ele>1040</ele>
        <time>2018-11-26T05:06:58Z</time>
      </trkpt>
      <trkpt lat="42.41922" lon="2.75126">
        <ele>1040.1</ele>
        <time>2018-11-26T05:06:59Z</time>
      </trkpt>
      <trkpt lat="42.41921" lon="2.75127">
        <ele>1040.1</ele>
        <time>2018-11-26T05:06:59Z</time>
      </trkpt>
      <trkpt lat="42.41921" lon="2.75127">
        <ele>1040</ele>
        <time>2018-11-26T05:06:59Z</time>
      </trkpt>
      <trkpt lat="42.4192" lon="2.75128">
        <ele>1040.4</ele>
        <time>2018-11-26T05:07:00Z</time>
      </trkpt>
      <trkpt lat="42.4192" lon="2.75129">
        <ele>1041</ele>
        <time>2018-11-26T05:07:00Z</time>
      </trkpt>
      <trkpt lat="42.41919" lon="2.75129">
        <ele>1041.7</ele>
        <time>2018-11-26T05:07:00Z</time>
      </trkpt>
      <trkpt lat="42.41919" lon="2.7513">
        <ele>1041.4</ele>
        <time>2018-11-26T05:07:00Z</time>
      </trkpt>
      <trkpt lat="42.41919" lon="2.7513">
        <ele>1041.4</ele>
        <time>2018-11-26T05:07:00Z</time>
      </trkpt>
      <trkpt lat="42.41919" lon="2.75131">
        <ele>1041.2</ele>
        <time>2018-11-26T05:07:01Z</time>
      </trkpt>
      <trkpt lat="42.41918" lon="2.75132">
        <ele>1040.6</ele>
        <time>2018-11-26T05:07:01Z</time>
      </trkpt>
      <trkpt lat="42.41918" lon="2.75132">
        <ele>1040.1</ele>
        <time>2018-11-26T05:07:01Z</time>
      </trkpt>
      <trkpt lat="42.41917" lon="2.75133">
        <ele>1039.3</ele>
        <time>2018-11-26T05:07:02Z</time>
      </trkpt>
      <trkpt lat="42.41917" lon="2.75134">
        <ele>1039</ele>
        <time>2018-11-26T05:07:02Z</time>
      </trkpt>
      <trkpt lat="42.41916" lon="2.75135">
        <ele>1038.8</ele>
        <time>2018-11-26T05:07:02Z</time>
      </trkpt>
      <trkpt lat="42.41916" lon="2.75135">
        <ele>1038.5</ele>
        <time>2018-11-26T05:07:02Z</time>
      </trkpt>
      <trkpt lat="42.41915" lon="2.75136">
        <ele>1038.6</ele>
        <time>2018-11-26T05:07:03Z</time>
      </trkpt>
      <trkpt lat="42.41915" lon="2.75137">
        <ele>1038.6</ele>
        <time>2018-11-26T05:07:03Z</time>
      </trkpt>
      <trkpt lat="42.41914" lon="2.75137">
        <ele>1038.7</ele>
        <time>2018-11-26T05:07:03Z</time>
      </trkpt>
      <trkpt lat="42.41914" lon="2.75138">
        <ele>1038.9</ele>
        <time>2018-11-26T05:07:03Z</time>
      </trkpt>
      <trkpt lat="42.41913" lon="2.75139">
        <ele>1038.7</ele>
        <time>2018-11-26T05:07:04Z</time>
      </trkpt>
      <trkpt lat="42.41913" lon="2.75139">
        <ele>1038.6</ele>
        <time>2018-11-26T05:07:04Z</time>
      </trkpt>
      <trkpt lat="42.41913" lon="2.75139">
        <ele>1038.6</ele>
        <time>2018-11-26T05:07:04Z</time>
      </trkpt>
      <trkpt lat="42.41912" lon="2.7514">
        <ele>1038.7</ele>
        <time>2018-11-26T05:07:04Z</time>
      </trkpt>
      <trkpt lat="42.41912" lon="2.75141">
        <ele>1039</ele>
        <time>2018-11-26T05:07:05Z</time>
      </trkpt>
      <trkpt lat="42.41911" lon="2.75141">
        <ele>1039.5</ele>
        <time>2018-11-26T05:07:05Z</time>
      </trkpt>
      <trkpt lat="42.41911" lon="2.75142">
        <ele>1039.4</ele>
        <time>2018-11-26T05:07:05Z</time>
      </trkpt>
      <trkpt lat="42.4191" lon="2.75143">
        <ele>1038.9</ele>
        <time>2018-11-26T05:07:06Z</time>
      </trkpt>
      <trkpt lat="42.4191" lon="2.75144">
        <ele>1039</ele>
        <time>2018-11-26T05:07:06Z</time>
      </trkpt>
      <trkpt lat="42.41909" lon="2.75145">
        <ele>1039.1</ele>
        <time>2018-11-26T05:07:06Z</time>
      </trkpt>
      <trkpt lat="42.41909" lon="2.75146">
        <ele>1039.2</ele>
        <time>2018-11-26T05:07:07Z</time>
      </trkpt>
      <trkpt lat="42.41909" lon="2.75146">
        <ele>1039.3</ele>
        <time>2018-11-26T05:07:07Z</time>
      </trkpt>
      <trkpt lat="42.41908" lon="2.75147">
        <ele>1039.3</ele>
        <time>2018-11-26T05:07:07Z</time>
      </trkpt>
      <trkpt lat="42.41908" lon="2.75148">
        <ele>1039.5</ele>
        <time>2018-11-26T05:07:07Z</time>
      </trkpt>
      <trkpt lat="42.41907" lon="2.75149">
        <ele>1039.8</ele>
        <time>2018-11-26T05:07:08Z</time>
      </trkpt>
      <trkpt lat="42.41906" lon="2.7515">
        <ele>1039.6</ele>
        <time>2018-11-26T05:07:08Z</time>
      </trkpt>
      <trkpt lat="42.41906" lon="2.75151">
        <ele>1039.5</ele>
        <time>2018-11-26T05:07:09Z</time>
      </trkpt>
      <trkpt lat="42.41905" lon="2.75152">
        <ele>1039.2</ele>
        <time>2018-11-26T05:07:09Z</time>
      </trkpt>
      <trkpt lat="42.41905" lon="2.75153">
        <ele>1039.3</ele>
        <time>2018-11-26T05:07:09Z</time>
      </trkpt>
      <trkpt lat="42.41904" lon="2.75154">
        <ele>1039.6</ele>
        <time>2018-11-26T05:07:10Z</time>
      </trkpt>
      <trkpt lat="42.41904" lon="2.75155">
        <ele>1039.8</ele>
        <time>2018-11-26T05:07:10Z</time>
      </trkpt>
      <trkpt lat="42.41904" lon="2.75156">
        <ele>1039.9</ele>
        <time>2018-11-26T05:07:10Z</time>
      </trkpt>
      <trkpt lat="42.41903" lon="2.75157">
        <ele>1039.8</ele>
        <time>2018-11-26T05:07:11Z</time>
      </trkpt>
      <trkpt lat="42.41902" lon="2.75158">
        <ele>1039.9</ele>
        <time>2018-11-26T05:07:11Z</time>
      </trkpt>
      <trkpt lat="42.41902" lon="2.75159">
        <ele>1039.7</ele>
        <time>2018-11-26T05:07:12Z</time>
      </trkpt>
      <trkpt lat="42.41902" lon="2.7516">
        <ele>1039.7</ele>
        <time>2018-11-26T05:07:12Z</time>
      </trkpt>
      <trkpt lat="42.41901" lon="2.75161">
        <ele>1039.4</ele>
        <time>2018-11-26T05:07:12Z</time>
      </trkpt>
      <trkpt lat="42.419" lon="2.75162">
        <ele>1039.3</ele>
        <time>2018-11-26T05:07:13Z</time>
      </trkpt>
      <trkpt lat="42.419" lon="2.75163">
        <ele>1039.3</ele>
        <time>2018-11-26T05:07:13Z</time>
      </trkpt>
      <trkpt lat="42.41899" lon="2.75165">
        <ele>1039.1</ele>
        <time>2018-11-26T05:07:14Z</time>
      </trkpt>
      <trkpt lat="42.41899" lon="2.75166">
        <ele>1039.1</ele>
        <time>2018-11-26T05:07:14Z</time>
      </trkpt>
      <trkpt lat="42.41898" lon="2.75167">
        <ele>1039.3</ele>
        <time>2018-11-26T05:07:14Z</time>
      </trkpt>
      <trkpt lat="42.41898" lon="2.75168">
        <ele>1039.4</ele>
        <time>2018-11-26T05:07:15Z</time>
      </trkpt>
      <trkpt lat="42.41897" lon="2.75169">
        <ele>1039.5</ele>
        <time>2018-11-26T05:07:15Z</time>
      </trkpt>
      <trkpt lat="42.41896" lon="2.7517">
        <ele>1039.4</ele>
        <time>2018-11-26T05:07:15Z</time>
      </trkpt>
      <trkpt lat="42.41896" lon="2.75171">
        <ele>1039.4</ele>
        <time>2018-11-26T05:07:16Z</time>
      </trkpt>
      <trkpt lat="42.41895" lon="2.75172">
        <ele>1039.2</ele>
        <time>2018-11-26T05:07:16Z</time>
      </trkpt>
      <trkpt lat="42.41895" lon="2.75173">
        <ele>1039.1</ele>
        <time>2018-11-26T05:07:17Z</time>
      </trkpt>
      <trkpt lat="42.41895" lon="2.75175">
        <ele>1039.1</ele>
        <time>2018-11-26T05:07:17Z</time>
      </trkpt>
      <trkpt lat="42.41894" lon="2.75176">
        <ele>1039.2</ele>
        <time>2018-11-26T05:07:17Z</time>
      </trkpt>
      <trkpt lat="42.41894" lon="2.75177">
        <ele>1039.2</ele>
        <time>2018-11-26T05:07:18Z</time>
      </trkpt>
      <trkpt lat="42.41894" lon="2.75178">
        <ele>1039.3</ele>
        <time>2018-11-26T05:07:18Z</time>
      </trkpt>
      <trkpt lat="42.41893" lon="2.7518">
        <ele>1039.3</ele>
        <time>2018-11-26T05:07:19Z</time>
      </trkpt>
      <trkpt lat="42.41893" lon="2.75181">
        <ele>1039.2</ele>
        <time>2018-11-26T05:07:19Z</time>
      </trkpt>
      <trkpt lat="42.41893" lon="2.75182">
        <ele>1039.1</ele>
        <time>2018-11-26T05:07:19Z</time>
      </trkpt>
      <trkpt lat="42.41893" lon="2.75182">
        <ele>1038.9</ele>
        <time>2018-11-26T05:07:19Z</time>
      </trkpt>
      <trkpt lat="42.41893" lon="2.75183">
        <ele>1038.7</ele>
        <time>2018-11-26T05:07:20Z</time>
      </trkpt>
      <trkpt lat="42.41893" lon="2.75184">
        <ele>1038.8</ele>
        <time>2018-11-26T05:07:20Z</time>
      </trkpt>
      <trkpt lat="42.41893" lon="2.75185">
        <ele>1038.8</ele>
        <time>2018-11-26T05:07:20Z</time>
      </trkpt>
      <trkpt lat="42.41893" lon="2.75186">
        <ele>1038.8</ele>
        <time>2018-11-26T05:07:20Z</time>
      </trkpt>
      <trkpt lat="42.41892" lon="2.75187">
        <ele>1038.8</ele>
        <time>2018-11-26T05:07:21Z</time>
      </trkpt>
      <trkpt lat="42.41892" lon="2.75188">
        <ele>1039</ele>
        <time>2018-11-26T05:07:21Z</time>
      </trkpt>
      <trkpt lat="42.41891" lon="2.7519">
        <ele>1038.6</ele>
        <time>2018-11-26T05:07:22Z</time>
      </trkpt>
      <trkpt lat="42.41891" lon="2.7519">
        <ele>1038.2</ele>
        <time>2018-11-26T05:07:22Z</time>
      </trkpt>
      <trkpt lat="42.4189" lon="2.75191">
        <ele>1038.4</ele>
        <time>2018-11-26T05:07:23Z</time>
      </trkpt>
      <trkpt lat="42.4189" lon="2.75193">
        <ele>1038.7</ele>
        <time>2018-11-26T05:07:23Z</time>
      </trkpt>
      <trkpt lat="42.41889" lon="2.75194">
        <ele>1039</ele>
        <time>2018-11-26T05:07:24Z</time>
      </trkpt>
      <trkpt lat="42.41889" lon="2.75196">
        <ele>1038.9</ele>
        <time>2018-11-26T05:07:24Z</time>
      </trkpt>
      <trkpt lat="42.41888" lon="2.75197">
        <ele>1038.9</ele>
        <time>2018-11-26T05:07:24Z</time>
      </trkpt>
      <trkpt lat="42.41888" lon="2.75199">
        <ele>1038.6</ele>
        <time>2018-11-26T05:07:25Z</time>
      </trkpt>
      <trkpt lat="42.41887" lon="2.752">
        <ele>1038.5</ele>
        <time>2018-11-26T05:07:26Z</time>
      </trkpt>
      <trkpt lat="42.41886" lon="2.75202">
        <ele>1038.5</ele>
        <time>2018-11-26T05:07:26Z</time>
      </trkpt>
      <trkpt lat="42.41885" lon="2.75203">
        <ele>1038.3</ele>
        <time>2018-11-26T05:07:27Z</time>
      </trkpt>
      <trkpt lat="42.41884" lon="2.75204">
        <ele>1037.9</ele>
        <time>2018-11-26T05:07:27Z</time>
      </trkpt>
      <trkpt lat="42.41884" lon="2.75206">
        <ele>1038</ele>
        <time>2018-11-26T05:07:28Z</time>
      </trkpt>
      <trkpt lat="42.41883" lon="2.75207">
        <ele>1038.2</ele>
        <time>2018-11-26T05:07:28Z</time>
      </trkpt>
      <trkpt lat="42.41882" lon="2.75208">
        <ele>1038.5</ele>
        <time>2018-11-26T05:07:29Z</time>
      </trkpt>
      <trkpt lat="42.41881" lon="2.75209">
        <ele>1038.3</ele>
        <time>2018-11-26T05:07:29Z</time>
      </trkpt>
      <trkpt lat="42.4188" lon="2.7521">
        <ele>1038</ele>
        <time>2018-11-26T05:07:29Z</time>
      </trkpt>
      <trkpt lat="42.4188" lon="2.7521">
        <ele>1037.8</ele>
        <time>2018-11-26T05:07:30Z</time>
      </trkpt>
      <trkpt lat="42.41879" lon="2.75212">
        <ele>1037.8</ele>
        <time>2018-11-26T05:07:30Z</time>
      </trkpt>
      <trkpt lat="42.41878" lon="2.75213">
        <ele>1037.6</ele>
        <time>2018-11-26T05:07:31Z</time>
      </trkpt>
      <trkpt lat="42.41877" lon="2.75214">
        <ele>1037.3</ele>
        <time>2018-11-26T05:07:31Z</time>
      </trkpt>
      <trkpt lat="42.41876" lon="2.75215">
        <ele>1037.3</ele>
        <time>2018-11-26T05:07:32Z</time>
      </trkpt>
      <trkpt lat="42.41875" lon="2.75216">
        <ele>1037.5</ele>
        <time>2018-11-26T05:07:32Z</time>
      </trkpt>
      <trkpt lat="42.41874" lon="2.75217">
        <ele>1037.7</ele>
        <time>2018-11-26T05:07:33Z</time>
      </trkpt>
      <trkpt lat="42.41873" lon="2.75218">
        <ele>1037.6</ele>
        <time>2018-11-26T05:07:33Z</time>
      </trkpt>
      <trkpt lat="42.41872" lon="2.75219">
        <ele>1037.6</ele>
        <time>2018-11-26T05:07:34Z</time>
      </trkpt>
      <trkpt lat="42.41871" lon="2.7522">
        <ele>1037.5</ele>
        <time>2018-11-26T05:07:34Z</time>
      </trkpt>
      <trkpt lat="42.41869" lon="2.75221">
        <ele>1037.5</ele>
        <time>2018-11-26T05:07:35Z</time>
      </trkpt>
      <trkpt lat="42.41868" lon="2.75221">
        <ele>1037.5</ele>
        <time>2018-11-26T05:07:35Z</time>
      </trkpt>
      <trkpt lat="42.41867" lon="2.75222">
        <ele>1037.5</ele>
        <time>2018-11-26T05:07:36Z</time>
      </trkpt>
      <trkpt lat="42.41866" lon="2.75223">
        <ele>1037.5</ele>
        <time>2018-11-26T05:07:36Z</time>
      </trkpt>
      <trkpt lat="42.41865" lon="2.75224">
        <ele>1037.2</ele>
        <time>2018-11-26T05:07:37Z</time>
      </trkpt>
      <trkpt lat="42.41864" lon="2.75225">
        <ele>1036.9</ele>
        <time>2018-11-26T05:07:37Z</time>
      </trkpt>
      <trkpt lat="42.41863" lon="2.75226">
        <ele>1036.6</ele>
        <time>2018-11-26T05:07:38Z</time>
      </trkpt>
      <trkpt lat="42.41862" lon="2.75227">
        <ele>1036.7</ele>
        <time>2018-11-26T05:07:38Z</time>
      </trkpt>
      <trkpt lat="42.41861" lon="2.75228">
        <ele>1037</ele>
        <time>2018-11-26T05:07:39Z</time>
      </trkpt>
      <trkpt lat="42.41861" lon="2.75229">
        <ele>1037.2</ele>
        <time>2018-11-26T05:07:39Z</time>
      </trkpt>
      <trkpt lat="42.4186" lon="2.7523">
        <ele>1036.9</ele>
        <time>2018-11-26T05:07:40Z</time>
      </trkpt>
      <trkpt lat="42.41859" lon="2.75231">
        <ele>1036.5</ele>
        <time>2018-11-26T05:07:40Z</time>
      </trkpt>
      <trkpt lat="42.41858" lon="2.75232">
        <ele>1035.8</ele>
        <time>2018-11-26T05:07:41Z</time>
      </trkpt>
      <trkpt lat="42.41856" lon="2.75234">
        <ele>1035.8</ele>
        <time>2018-11-26T05:07:42Z</time>
      </trkpt>
      <trkpt lat="42.41855" lon="2.75235">
        <ele>1035.6</ele>
        <time>2018-11-26T05:07:42Z</time>
      </trkpt>
      <trkpt lat="42.41854" lon="2.75236">
        <ele>1035.5</ele>
        <time>2018-11-26T05:07:43Z</time>
      </trkpt>
      <trkpt lat="42.41853" lon="2.75237">
        <ele>1035.6</ele>
        <time>2018-11-26T05:07:43Z</time>
      </trkpt>
      <trkpt lat="42.41852" lon="2.75238">
        <ele>1035.4</ele>
        <time>2018-11-26T05:07:44Z</time>
      </trkpt>
      <trkpt lat="42.4185" lon="2.7524">
        <ele>1035.7</ele>
        <time>2018-11-26T05:07:45Z</time>
      </trkpt>
      <trkpt lat="42.41849" lon="2.75241">
        <ele>1035.9</ele>
        <time>2018-11-26T05:07:45Z</time>
      </trkpt>
      <trkpt lat="42.41848" lon="2.75242">
        <ele>1036.1</ele>
        <time>2018-11-26T05:07:46Z</time>
      </trkpt>
      <trkpt lat="42.41846" lon="2.75244">
        <ele>1036.4</ele>
        <time>2018-11-26T05:07:46Z</time>
      </trkpt>
      <trkpt lat="42.41846" lon="2.75245">
        <ele>1036.5</ele>
        <time>2018-11-26T05:07:47Z</time>
      </trkpt>
      <trkpt lat="42.41844" lon="2.75245">
        <ele>1036.4</ele>
        <time>2018-11-26T05:07:47Z</time>
      </trkpt>
      <trkpt lat="42.41843" lon="2.75246">
        <ele>1036.2</ele>
        <time>2018-11-26T05:07:48Z</time>
      </trkpt>
      <trkpt lat="42.41842" lon="2.75247">
        <ele>1035.9</ele>
        <time>2018-11-26T05:07:48Z</time>
      </trkpt>
      <trkpt lat="42.41839" lon="2.75251">
        <ele>1036</ele>
        <time>2018-11-26T05:07:50Z</time>
      </trkpt>
      <trkpt lat="42.41838" lon="2.75252">
        <ele>1036.1</ele>
        <time>2018-11-26T05:07:51Z</time>
      </trkpt>
      <trkpt lat="42.41838" lon="2.75252">
        <ele>1036</ele>
        <time>2018-11-26T05:07:51Z</time>
      </trkpt>
      <trkpt lat="42.41837" lon="2.75253">
        <ele>1035.8</ele>
        <time>2018-11-26T05:07:51Z</time>
      </trkpt>
      <trkpt lat="42.41834" lon="2.75256">
        <ele>1035.7</ele>
        <time>2018-11-26T05:07:53Z</time>
      </trkpt>
      <trkpt lat="42.41833" lon="2.75257">
        <ele>1035.7</ele>
        <time>2018-11-26T05:07:53Z</time>
      </trkpt>
      <trkpt lat="42.41832" lon="2.75258">
        <ele>1035.6</ele>
        <time>2018-11-26T05:07:54Z</time>
      </trkpt>
      <trkpt lat="42.4183" lon="2.7526">
        <ele>1035.7</ele>
        <time>2018-11-26T05:07:55Z</time>
      </trkpt>
      <trkpt lat="42.41829" lon="2.75262">
        <ele>1035.7</ele>
        <time>2018-11-26T05:07:55Z</time>
      </trkpt>
      <trkpt lat="42.41827" lon="2.75263">
        <ele>1035.8</ele>
        <time>2018-11-26T05:07:56Z</time>
      </trkpt>
      <trkpt lat="42.41827" lon="2.75264">
        <ele>1035.7</ele>
        <time>2018-11-26T05:07:57Z</time>
      </trkpt>
      <trkpt lat="42.41825" lon="2.75265">
        <ele>1035.7</ele>
        <time>2018-11-26T05:07:57Z</time>
      </trkpt>
      <trkpt lat="42.41824" lon="2.75266">
        <ele>1035.4</ele>
        <time>2018-11-26T05:07:58Z</time>
      </trkpt>
      <trkpt lat="42.41823" lon="2.75266">
        <ele>1035.2</ele>
        <time>2018-11-26T05:07:58Z</time>
      </trkpt>
      <trkpt lat="42.41822" lon="2.75266">
        <ele>1035.2</ele>
        <time>2018-11-26T05:07:58Z</time>
      </trkpt>
      <trkpt lat="42.41822" lon="2.75266">
        <ele>1035.1</ele>
        <time>2018-11-26T05:07:59Z</time>
      </trkpt>
      <trkpt lat="42.41821" lon="2.75266">
        <ele>1034.8</ele>
        <time>2018-11-26T05:07:59Z</time>
      </trkpt>
      <trkpt lat="42.4182" lon="2.75266">
        <ele>1034.9</ele>
        <time>2018-11-26T05:07:59Z</time>
      </trkpt>
      <trkpt lat="42.4182" lon="2.75266">
        <ele>1034.7</ele>
        <time>2018-11-26T05:07:59Z</time>
      </trkpt>
      <trkpt lat="42.41819" lon="2.75267">
        <ele>1034.7</ele>
        <time>2018-11-26T05:08:00Z</time>
      </trkpt>
      <trkpt lat="42.41818" lon="2.75268">
        <ele>1034.6</ele>
        <time>2018-11-26T05:08:00Z</time>
      </trkpt>
      <trkpt lat="42.41818" lon="2.75269">
        <ele>1034.5</ele>
        <time>2018-11-26T05:08:00Z</time>
      </trkpt>
      <trkpt lat="42.41817" lon="2.7527">
        <ele>1034.2</ele>
        <time>2018-11-26T05:08:01Z</time>
      </trkpt>
      <trkpt lat="42.41817" lon="2.75271">
        <ele>1034</ele>
        <time>2018-11-26T05:08:01Z</time>
      </trkpt>
      <trkpt lat="42.41815" lon="2.75274">
        <ele>1033.4</ele>
        <time>2018-11-26T05:08:02Z</time>
      </trkpt>
      <trkpt lat="42.41813" lon="2.75277">
        <ele>1033.2</ele>
        <time>2018-11-26T05:08:03Z</time>
      </trkpt>
      <trkpt lat="42.41813" lon="2.75278">
        <ele>1033.2</ele>
        <time>2018-11-26T05:08:04Z</time>
      </trkpt>
      <trkpt lat="42.41812" lon="2.75279">
        <ele>1033.1</ele>
        <time>2018-11-26T05:08:04Z</time>
      </trkpt>
      <trkpt lat="42.41811" lon="2.7528">
        <ele>1033</ele>
        <time>2018-11-26T05:08:05Z</time>
      </trkpt>
      <trkpt lat="42.4181" lon="2.75281">
        <ele>1032.9</ele>
        <time>2018-11-26T05:08:05Z</time>
      </trkpt>
      <trkpt lat="42.41808" lon="2.75282">
        <ele>1032.8</ele>
        <time>2018-11-26T05:08:06Z</time>
      </trkpt>
      <trkpt lat="42.41807" lon="2.75283">
        <ele>1032.7</ele>
        <time>2018-11-26T05:08:07Z</time>
      </trkpt>
      <trkpt lat="42.41806" lon="2.75285">
        <ele>1032.5</ele>
        <time>2018-11-26T05:08:07Z</time>
      </trkpt>
      <trkpt lat="42.41805" lon="2.75286">
        <ele>1032.6</ele>
        <time>2018-11-26T05:08:08Z</time>
      </trkpt>
      <trkpt lat="42.41804" lon="2.75287">
        <ele>1032.8</ele>
        <time>2018-11-26T05:08:08Z</time>
      </trkpt>
      <trkpt lat="42.41802" lon="2.75289">
        <ele>1032.7</ele>
        <time>2018-11-26T05:08:09Z</time>
      </trkpt>
      <trkpt lat="42.41801" lon="2.7529">
        <ele>1032.4</ele>
        <time>2018-11-26T05:08:10Z</time>
      </trkpt>
      <trkpt lat="42.418" lon="2.75291">
        <ele>1032</ele>
        <time>2018-11-26T05:08:10Z</time>
      </trkpt>
      <trkpt lat="42.41799" lon="2.75292">
        <ele>1031.9</ele>
        <time>2018-11-26T05:08:11Z</time>
      </trkpt>
      <trkpt lat="42.41792" lon="2.75299">
        <ele>1032.8</ele>
        <time>2018-11-26T05:08:14Z</time>
      </trkpt>
      <trkpt lat="42.41791" lon="2.753">
        <ele>1032.9</ele>
        <time>2018-11-26T05:08:15Z</time>
      </trkpt>
      <trkpt lat="42.4179" lon="2.75301">
        <ele>1032.8</ele>
        <time>2018-11-26T05:08:15Z</time>
      </trkpt>
      <trkpt lat="42.41789" lon="2.75302">
        <ele>1032.8</ele>
        <time>2018-11-26T05:08:16Z</time>
      </trkpt>
      <trkpt lat="42.41788" lon="2.75303">
        <ele>1032.5</ele>
        <time>2018-11-26T05:08:16Z</time>
      </trkpt>
      <trkpt lat="42.41787" lon="2.75304">
        <ele>1032.3</ele>
        <time>2018-11-26T05:08:17Z</time>
      </trkpt>
      <trkpt lat="42.41784" lon="2.75308">
        <ele>1032.7</ele>
        <time>2018-11-26T05:08:19Z</time>
      </trkpt>
      <trkpt lat="42.41783" lon="2.75309">
        <ele>1032.7</ele>
        <time>2018-11-26T05:08:19Z</time>
      </trkpt>
      <trkpt lat="42.41782" lon="2.7531">
        <ele>1032.4</ele>
        <time>2018-11-26T05:08:19Z</time>
      </trkpt>
      <trkpt lat="42.41781" lon="2.75311">
        <ele>1032.1</ele>
        <time>2018-11-26T05:08:20Z</time>
      </trkpt>
      <trkpt lat="42.4178" lon="2.75312">
        <ele>1032.1</ele>
        <time>2018-11-26T05:08:20Z</time>
      </trkpt>
      <trkpt lat="42.41778" lon="2.75315">
        <ele>1032</ele>
        <time>2018-11-26T05:08:22Z</time>
      </trkpt>
      <trkpt lat="42.41777" lon="2.75316">
        <ele>1032</ele>
        <time>2018-11-26T05:08:22Z</time>
      </trkpt>
      <trkpt lat="42.41775" lon="2.75318">
        <ele>1031.9</ele>
        <time>2018-11-26T05:08:23Z</time>
      </trkpt>
      <trkpt lat="42.41774" lon="2.75319">
        <ele>1031.9</ele>
        <time>2018-11-26T05:08:24Z</time>
      </trkpt>
      <trkpt lat="42.41773" lon="2.7532">
        <ele>1032.3</ele>
        <time>2018-11-26T05:08:24Z</time>
      </trkpt>
      <trkpt lat="42.41772" lon="2.75321">
        <ele>1032.6</ele>
        <time>2018-11-26T05:08:25Z</time>
      </trkpt>
      <trkpt lat="42.4177" lon="2.75323">
        <ele>1033.2</ele>
        <time>2018-11-26T05:08:26Z</time>
      </trkpt>
      <trkpt lat="42.41769" lon="2.75324">
        <ele>1033.3</ele>
        <time>2018-11-26T05:08:26Z</time>
      </trkpt>
      <trkpt lat="42.41768" lon="2.75325">
        <ele>1033.3</ele>
        <time>2018-11-26T05:08:27Z</time>
      </trkpt>
      <trkpt lat="42.41767" lon="2.75326">
        <ele>1033.4</ele>
        <time>2018-11-26T05:08:27Z</time>
      </trkpt>
      <trkpt lat="42.41764" lon="2.75329">
        <ele>1033.6</ele>
        <time>2018-11-26T05:08:29Z</time>
      </trkpt>
      <trkpt lat="42.41763" lon="2.7533">
        <ele>1033.4</ele>
        <time>2018-11-26T05:08:29Z</time>
      </trkpt>
      <trkpt lat="42.41762" lon="2.75332">
        <ele>1033.1</ele>
        <time>2018-11-26T05:08:30Z</time>
      </trkpt>
      <trkpt lat="42.41761" lon="2.75333">
        <ele>1032.8</ele>
        <time>2018-11-26T05:08:30Z</time>
      </trkpt>
      <trkpt lat="42.4176" lon="2.75334">
        <ele>1032.9</ele>
        <time>2018-11-26T05:08:31Z</time>
      </trkpt>
      <trkpt lat="42.41759" lon="2.75335">
        <ele>1032.8</ele>
        <time>2018-11-26T05:08:31Z</time>
      </trkpt>
      <trkpt lat="42.41759" lon="2.75336">
        <ele>1032.9</ele>
        <time>2018-11-26T05:08:32Z</time>
      </trkpt>
      <trkpt lat="42.41758" lon="2.75337">
        <ele>1032.8</ele>
        <time>2018-11-26T05:08:32Z</time>
      </trkpt>
      <trkpt lat="42.41758" lon="2.75337">
        <ele>1032.7</ele>
        <time>2018-11-26T05:08:32Z</time>
      </trkpt>
      <trkpt lat="42.41757" lon="2.75338">
        <ele>1032.7</ele>
        <time>2018-11-26T05:08:33Z</time>
      </trkpt>
      <trkpt lat="42.41756" lon="2.75339">
        <ele>1032.4</ele>
        <time>2018-11-26T05:08:33Z</time>
      </trkpt>
      <trkpt lat="42.41755" lon="2.75341">
        <ele>1031.6</ele>
        <time>2018-11-26T05:08:34Z</time>
      </trkpt>
      <trkpt lat="42.41754" lon="2.75342">
        <ele>1031.4</ele>
        <time>2018-11-26T05:08:34Z</time>
      </trkpt>
      <trkpt lat="42.41754" lon="2.75342">
        <ele>1031.2</ele>
        <time>2018-11-26T05:08:34Z</time>
      </trkpt>
      <trkpt lat="42.41753" lon="2.75343">
        <ele>1031.1</ele>
        <time>2018-11-26T05:08:35Z</time>
      </trkpt>
      <trkpt lat="42.41752" lon="2.75343">
        <ele>1030.8</ele>
        <time>2018-11-26T05:08:35Z</time>
      </trkpt>
      <trkpt lat="42.41751" lon="2.75343">
        <ele>1030.6</ele>
        <time>2018-11-26T05:08:35Z</time>
      </trkpt>
      <trkpt lat="42.4175" lon="2.75344">
        <ele>1030.3</ele>
        <time>2018-11-26T05:08:36Z</time>
      </trkpt>
      <trkpt lat="42.41749" lon="2.75345">
        <ele>1030.2</ele>
        <time>2018-11-26T05:08:36Z</time>
      </trkpt>
      <trkpt lat="42.41749" lon="2.75346">
        <ele>1030.3</ele>
        <time>2018-11-26T05:08:37Z</time>
      </trkpt>
      <trkpt lat="42.41748" lon="2.75347">
        <ele>1030.5</ele>
        <time>2018-11-26T05:08:37Z</time>
      </trkpt>
      <trkpt lat="42.41747" lon="2.75347">
        <ele>1030.6</ele>
        <time>2018-11-26T05:08:37Z</time>
      </trkpt>
      <trkpt lat="42.41746" lon="2.75348">
        <ele>1030.7</ele>
        <time>2018-11-26T05:08:38Z</time>
      </trkpt>
      <trkpt lat="42.41746" lon="2.75349">
        <ele>1030.6</ele>
        <time>2018-11-26T05:08:38Z</time>
      </trkpt>
      <trkpt lat="42.41742" lon="2.75351">
        <ele>1030.7</ele>
        <time>2018-11-26T05:08:40Z</time>
      </trkpt>
      <trkpt lat="42.41742" lon="2.75352">
        <ele>1030.8</ele>
        <time>2018-11-26T05:08:40Z</time>
      </trkpt>
      <trkpt lat="42.41741" lon="2.75353">
        <ele>1030.5</ele>
        <time>2018-11-26T05:08:41Z</time>
      </trkpt>
      <trkpt lat="42.41739" lon="2.75354">
        <ele>1030.1</ele>
        <time>2018-11-26T05:08:41Z</time>
      </trkpt>
      <trkpt lat="42.41738" lon="2.75355">
        <ele>1029.7</ele>
        <time>2018-11-26T05:08:42Z</time>
      </trkpt>
      <trkpt lat="42.41737" lon="2.75356">
        <ele>1029.6</ele>
        <time>2018-11-26T05:08:42Z</time>
      </trkpt>
      <trkpt lat="42.41736" lon="2.75357">
        <ele>1029.4</ele>
        <time>2018-11-26T05:08:43Z</time>
      </trkpt>
      <trkpt lat="42.41735" lon="2.75357">
        <ele>1029.3</ele>
        <time>2018-11-26T05:08:43Z</time>
      </trkpt>
      <trkpt lat="42.41734" lon="2.75358">
        <ele>1029.5</ele>
        <time>2018-11-26T05:08:44Z</time>
      </trkpt>
      <trkpt lat="42.41734" lon="2.75359">
        <ele>1029.6</ele>
        <time>2018-11-26T05:08:44Z</time>
      </trkpt>
      <trkpt lat="42.41733" lon="2.7536">
        <ele>1029.8</ele>
        <time>2018-11-26T05:08:44Z</time>
      </trkpt>
      <trkpt lat="42.41732" lon="2.75361">
        <ele>1030.2</ele>
        <time>2018-11-26T05:08:45Z</time>
      </trkpt>
      <trkpt lat="42.41731" lon="2.75362">
        <ele>1030.2</ele>
        <time>2018-11-26T05:08:45Z</time>
      </trkpt>
      <trkpt lat="42.4173" lon="2.75363">
        <ele>1030.1</ele>
        <time>2018-11-26T05:08:46Z</time>
      </trkpt>
      <trkpt lat="42.41729" lon="2.75363">
        <ele>1030.1</ele>
        <time>2018-11-26T05:08:46Z</time>
      </trkpt>
      <trkpt lat="42.41728" lon="2.75364">
        <ele>1030.1</ele>
        <time>2018-11-26T05:08:47Z</time>
      </trkpt>
      <trkpt lat="42.41727" lon="2.75365">
        <ele>1030.1</ele>
        <time>2018-11-26T05:08:47Z</time>
      </trkpt>
      <trkpt lat="42.41726" lon="2.75366">
        <ele>1030</ele>
        <time>2018-11-26T05:08:48Z</time>
      </trkpt>
      <trkpt lat="42.41725" lon="2.75367">
        <ele>1029.8</ele>
        <time>2018-11-26T05:08:48Z</time>
      </trkpt>
      <trkpt lat="42.41724" lon="2.75368">
        <ele>1029.5</ele>
        <time>2018-11-26T05:08:49Z</time>
      </trkpt>
      <trkpt lat="42.41723" lon="2.75369">
        <ele>1029</ele>
        <time>2018-11-26T05:08:49Z</time>
      </trkpt>
      <trkpt lat="42.41722" lon="2.7537">
        <ele>1029.2</ele>
        <time>2018-11-26T05:08:50Z</time>
      </trkpt>
      <trkpt lat="42.41721" lon="2.75371">
        <ele>1029.5</ele>
        <time>2018-11-26T05:08:50Z</time>
      </trkpt>
      <trkpt lat="42.4172" lon="2.75372">
        <ele>1030</ele>
        <time>2018-11-26T05:08:51Z</time>
      </trkpt>
      <trkpt lat="42.41718" lon="2.75374">
        <ele>1029.8</ele>
        <time>2018-11-26T05:08:52Z</time>
      </trkpt>
      <trkpt lat="42.41717" lon="2.75374">
        <ele>1029.8</ele>
        <time>2018-11-26T05:08:52Z</time>
      </trkpt>
      <trkpt lat="42.41716" lon="2.75375">
        <ele>1029.8</ele>
        <time>2018-11-26T05:08:53Z</time>
      </trkpt>
      <trkpt lat="42.41715" lon="2.75376">
        <ele>1029.7</ele>
        <time>2018-11-26T05:08:53Z</time>
      </trkpt>
      <trkpt lat="42.41714" lon="2.75378">
        <ele>1029.8</ele>
        <time>2018-11-26T05:08:54Z</time>
      </trkpt>
      <trkpt lat="42.41713" lon="2.75379">
        <ele>1029.7</ele>
        <time>2018-11-26T05:08:54Z</time>
      </trkpt>
      <trkpt lat="42.41712" lon="2.7538">
        <ele>1029.6</ele>
        <time>2018-11-26T05:08:55Z</time>
      </trkpt>
      <trkpt lat="42.41712" lon="2.75381">
        <ele>1029.7</ele>
        <time>2018-11-26T05:08:55Z</time>
      </trkpt>
      <trkpt lat="42.41711" lon="2.75382">
        <ele>1029.6</ele>
        <time>2018-11-26T05:08:55Z</time>
      </trkpt>
      <trkpt lat="42.41708" lon="2.75384">
        <ele>1029</ele>
        <time>2018-11-26T05:08:57Z</time>
      </trkpt>
      <trkpt lat="42.41707" lon="2.75384">
        <ele>1028.9</ele>
        <time>2018-11-26T05:08:57Z</time>
      </trkpt>
      <trkpt lat="42.41707" lon="2.75384">
        <ele>1029</ele>
        <time>2018-11-26T05:08:57Z</time>
      </trkpt>
      <trkpt lat="42.41706" lon="2.75385">
        <ele>1029.1</ele>
        <time>2018-11-26T05:08:58Z</time>
      </trkpt>
      <trkpt lat="42.41705" lon="2.75386">
        <ele>1029.3</ele>
        <time>2018-11-26T05:08:58Z</time>
      </trkpt>
      <trkpt lat="42.41704" lon="2.75386">
        <ele>1029.2</ele>
        <time>2018-11-26T05:08:58Z</time>
      </trkpt>
      <trkpt lat="42.41703" lon="2.75387">
        <ele>1029.4</ele>
        <time>2018-11-26T05:08:59Z</time>
      </trkpt>
      <trkpt lat="42.41702" lon="2.75388">
        <ele>1029.5</ele>
        <time>2018-11-26T05:08:59Z</time>
      </trkpt>
      <trkpt lat="42.41702" lon="2.75388">
        <ele>1029.6</ele>
        <time>2018-11-26T05:08:59Z</time>
      </trkpt>
      <trkpt lat="42.41701" lon="2.75389">
        <ele>1029.8</ele>
        <time>2018-11-26T05:09:00Z</time>
      </trkpt>
      <trkpt lat="42.417" lon="2.75389">
        <ele>1030.1</ele>
        <time>2018-11-26T05:09:00Z</time>
      </trkpt>
      <trkpt lat="42.41698" lon="2.75391">
        <ele>1029.6</ele>
        <time>2018-11-26T05:09:01Z</time>
      </trkpt>
      <trkpt lat="42.41697" lon="2.75391">
        <ele>1029.3</ele>
        <time>2018-11-26T05:09:02Z</time>
      </trkpt>
      <trkpt lat="42.41696" lon="2.75392">
        <ele>1029.4</ele>
        <time>2018-11-26T05:09:02Z</time>
      </trkpt>
      <trkpt lat="42.41696" lon="2.75393">
        <ele>1029.4</ele>
        <time>2018-11-26T05:09:02Z</time>
      </trkpt>
      <trkpt lat="42.41695" lon="2.75394">
        <ele>1029.5</ele>
        <time>2018-11-26T05:09:03Z</time>
      </trkpt>
      <trkpt lat="42.41694" lon="2.75395">
        <ele>1029.4</ele>
        <time>2018-11-26T05:09:03Z</time>
      </trkpt>
      <trkpt lat="42.41694" lon="2.75396">
        <ele>1029.2</ele>
        <time>2018-11-26T05:09:03Z</time>
      </trkpt>
      <trkpt lat="42.41693" lon="2.75396">
        <ele>1028.9</ele>
        <time>2018-11-26T05:09:04Z</time>
      </trkpt>
      <trkpt lat="42.41692" lon="2.75397">
        <ele>1028.7</ele>
        <time>2018-11-26T05:09:04Z</time>
      </trkpt>
      <trkpt lat="42.41692" lon="2.75398">
        <ele>1028.6</ele>
        <time>2018-11-26T05:09:04Z</time>
      </trkpt>
      <trkpt lat="42.41691" lon="2.75399">
        <ele>1028.5</ele>
        <time>2018-11-26T05:09:05Z</time>
      </trkpt>
      <trkpt lat="42.4169" lon="2.754">
        <ele>1028.3</ele>
        <time>2018-11-26T05:09:05Z</time>
      </trkpt>
      <trkpt lat="42.41688" lon="2.754">
        <ele>1028.3</ele>
        <time>2018-11-26T05:09:06Z</time>
      </trkpt>
      <trkpt lat="42.41687" lon="2.75401">
        <ele>1028.5</ele>
        <time>2018-11-26T05:09:06Z</time>
      </trkpt>
      <trkpt lat="42.41686" lon="2.75402">
        <ele>1028.7</ele>
        <time>2018-11-26T05:09:07Z</time>
      </trkpt>
      <trkpt lat="42.41685" lon="2.75403">
        <ele>1028.3</ele>
        <time>2018-11-26T05:09:07Z</time>
      </trkpt>
      <trkpt lat="42.41685" lon="2.75404">
        <ele>1028</ele>
        <time>2018-11-26T05:09:08Z</time>
      </trkpt>
      <trkpt lat="42.41683" lon="2.75404">
        <ele>1027.6</ele>
        <time>2018-11-26T05:09:08Z</time>
      </trkpt>
      <trkpt lat="42.41682" lon="2.75405">
        <ele>1027.6</ele>
        <time>2018-11-26T05:09:09Z</time>
      </trkpt>
      <trkpt lat="42.41681" lon="2.75406">
        <ele>1027.5</ele>
        <time>2018-11-26T05:09:09Z</time>
      </trkpt>
      <trkpt lat="42.4168" lon="2.75408">
        <ele>1027.4</ele>
        <time>2018-11-26T05:09:10Z</time>
      </trkpt>
      <trkpt lat="42.41679" lon="2.75408">
        <ele>1027.3</ele>
        <time>2018-11-26T05:09:10Z</time>
      </trkpt>
      <trkpt lat="42.41678" lon="2.75409">
        <ele>1027.3</ele>
        <time>2018-11-26T05:09:11Z</time>
      </trkpt>
      <trkpt lat="42.41677" lon="2.7541">
        <ele>1027.4</ele>
        <time>2018-11-26T05:09:11Z</time>
      </trkpt>
      <trkpt lat="42.41676" lon="2.75411">
        <ele>1027.2</ele>
        <time>2018-11-26T05:09:12Z</time>
      </trkpt>
      <trkpt lat="42.41675" lon="2.75412">
        <ele>1026.9</ele>
        <time>2018-11-26T05:09:12Z</time>
      </trkpt>
      <trkpt lat="42.41674" lon="2.75413">
        <ele>1026.5</ele>
        <time>2018-11-26T05:09:13Z</time>
      </trkpt>
      <trkpt lat="42.41673" lon="2.75413">
        <ele>1025.9</ele>
        <time>2018-11-26T05:09:13Z</time>
      </trkpt>
      <trkpt lat="42.41672" lon="2.75414">
        <ele>1026.2</ele>
        <time>2018-11-26T05:09:14Z</time>
      </trkpt>
      <trkpt lat="42.41671" lon="2.75415">
        <ele>1026.5</ele>
        <time>2018-11-26T05:09:14Z</time>
      </trkpt>
      <trkpt lat="42.4167" lon="2.75415">
        <ele>1026.9</ele>
        <time>2018-11-26T05:09:15Z</time>
      </trkpt>
      <trkpt lat="42.41669" lon="2.75416">
        <ele>1027.1</ele>
        <time>2018-11-26T05:09:15Z</time>
      </trkpt>
      <trkpt lat="42.41668" lon="2.75416">
        <ele>1027.4</ele>
        <time>2018-11-26T05:09:16Z</time>
      </trkpt>
      <trkpt lat="42.41667" lon="2.75417">
        <ele>1027.8</ele>
        <time>2018-11-26T05:09:16Z</time>
      </trkpt>
      <trkpt lat="42.41665" lon="2.75418">
        <ele>1027.7</ele>
        <time>2018-11-26T05:09:17Z</time>
      </trkpt>
      <trkpt lat="42.41665" lon="2.75419">
        <ele>1027.5</ele>
        <time>2018-11-26T05:09:17Z</time>
      </trkpt>
      <trkpt lat="42.41664" lon="2.75419">
        <ele>1027.4</ele>
        <time>2018-11-26T05:09:17Z</time>
      </trkpt>
      <trkpt lat="42.41663" lon="2.7542">
        <ele>1027.4</ele>
        <time>2018-11-26T05:09:18Z</time>
      </trkpt>
      <trkpt lat="42.41662" lon="2.7542">
        <ele>1027.5</ele>
        <time>2018-11-26T05:09:18Z</time>
      </trkpt>
      <trkpt lat="42.41661" lon="2.75421">
        <ele>1027.5</ele>
        <time>2018-11-26T05:09:19Z</time>
      </trkpt>
      <trkpt lat="42.41659" lon="2.75422">
        <ele>1027.3</ele>
        <time>2018-11-26T05:09:19Z</time>
      </trkpt>
      <trkpt lat="42.41658" lon="2.75423">
        <ele>1026.9</ele>
        <time>2018-11-26T05:09:20Z</time>
      </trkpt>
      <trkpt lat="42.41657" lon="2.75425">
        <ele>1026.6</ele>
        <time>2018-11-26T05:09:21Z</time>
      </trkpt>
      <trkpt lat="42.41654" lon="2.75429">
        <ele>1026.7</ele>
        <time>2018-11-26T05:09:22Z</time>
      </trkpt>
      <trkpt lat="42.41653" lon="2.7543">
        <ele>1026.8</ele>
        <time>2018-11-26T05:09:23Z</time>
      </trkpt>
      <trkpt lat="42.41652" lon="2.75431">
        <ele>1027.1</ele>
        <time>2018-11-26T05:09:23Z</time>
      </trkpt>
      <trkpt lat="42.41651" lon="2.75432">
        <ele>1027.4</ele>
        <time>2018-11-26T05:09:24Z</time>
      </trkpt>
      <trkpt lat="42.41651" lon="2.75433">
        <ele>1027.7</ele>
        <time>2018-11-26T05:09:24Z</time>
      </trkpt>
      <trkpt lat="42.4165" lon="2.75433">
        <ele>1027.5</ele>
        <time>2018-11-26T05:09:25Z</time>
      </trkpt>
      <trkpt lat="42.41649" lon="2.75434">
        <ele>1027.2</ele>
        <time>2018-11-26T05:09:25Z</time>
      </trkpt>
      <trkpt lat="42.41647" lon="2.75435">
        <ele>1026.9</ele>
        <time>2018-11-26T05:09:26Z</time>
      </trkpt>
      <trkpt lat="42.41646" lon="2.75435">
        <ele>1027</ele>
        <time>2018-11-26T05:09:26Z</time>
      </trkpt>
      <trkpt lat="42.41646" lon="2.75436">
        <ele>1027.1</ele>
        <time>2018-11-26T05:09:26Z</time>
      </trkpt>
      <trkpt lat="42.41645" lon="2.75436">
        <ele>1027.3</ele>
        <time>2018-11-26T05:09:27Z</time>
      </trkpt>
      <trkpt lat="42.41644" lon="2.75436">
        <ele>1027.3</ele>
        <time>2018-11-26T05:09:27Z</time>
      </trkpt>
      <trkpt lat="42.41643" lon="2.75437">
        <ele>1027</ele>
        <time>2018-11-26T05:09:28Z</time>
      </trkpt>
      <trkpt lat="42.41642" lon="2.75437">
        <ele>1027</ele>
        <time>2018-11-26T05:09:28Z</time>
      </trkpt>
      <trkpt lat="42.4164" lon="2.75438">
        <ele>1026.8</ele>
        <time>2018-11-26T05:09:29Z</time>
      </trkpt>
      <trkpt lat="42.41639" lon="2.75438">
        <ele>1026.9</ele>
        <time>2018-11-26T05:09:29Z</time>
      </trkpt>
      <trkpt lat="42.41638" lon="2.75439">
        <ele>1026.8</ele>
        <time>2018-11-26T05:09:29Z</time>
      </trkpt>
      <trkpt lat="42.41638" lon="2.75439">
        <ele>1026.7</ele>
        <time>2018-11-26T05:09:30Z</time>
      </trkpt>
      <trkpt lat="42.41637" lon="2.7544">
        <ele>1026.7</ele>
        <time>2018-11-26T05:09:30Z</time>
      </trkpt>
      <trkpt lat="42.41636" lon="2.7544">
        <ele>1026.8</ele>
        <time>2018-11-26T05:09:30Z</time>
      </trkpt>
      <trkpt lat="42.41635" lon="2.7544">
        <ele>1026.8</ele>
        <time>2018-11-26T05:09:31Z</time>
      </trkpt>
      <trkpt lat="42.41634" lon="2.75441">
        <ele>1026.9</ele>
        <time>2018-11-26T05:09:31Z</time>
      </trkpt>
      <trkpt lat="42.41633" lon="2.75442">
        <ele>1026.9</ele>
        <time>2018-11-26T05:09:32Z</time>
      </trkpt>
      <trkpt lat="42.41633" lon="2.75442">
        <ele>1027.2</ele>
        <time>2018-11-26T05:09:32Z</time>
      </trkpt>
      <trkpt lat="42.41632" lon="2.75443">
        <ele>1027.2</ele>
        <time>2018-11-26T05:09:32Z</time>
      </trkpt>
      <trkpt lat="42.4163" lon="2.75443">
        <ele>1027.2</ele>
        <time>2018-11-26T05:09:33Z</time>
      </trkpt>
      <trkpt lat="42.4163" lon="2.75444">
        <ele>1027.2</ele>
        <time>2018-11-26T05:09:33Z</time>
      </trkpt>
      <trkpt lat="42.41628" lon="2.75445">
        <ele>1027.3</ele>
        <time>2018-11-26T05:09:34Z</time>
      </trkpt>
      <trkpt lat="42.41627" lon="2.75446">
        <ele>1027.5</ele>
        <time>2018-11-26T05:09:34Z</time>
      </trkpt>
      <trkpt lat="42.41626" lon="2.75446">
        <ele>1027.7</ele>
        <time>2018-11-26T05:09:35Z</time>
      </trkpt>
      <trkpt lat="42.41625" lon="2.75447">
        <ele>1027.5</ele>
        <time>2018-11-26T05:09:35Z</time>
      </trkpt>
      <trkpt lat="42.41624" lon="2.75448">
        <ele>1027.3</ele>
        <time>2018-11-26T05:09:36Z</time>
      </trkpt>
      <trkpt lat="42.41623" lon="2.75448">
        <ele>1027.1</ele>
        <time>2018-11-26T05:09:36Z</time>
      </trkpt>
      <trkpt lat="42.41621" lon="2.75449">
        <ele>1026.5</ele>
        <time>2018-11-26T05:09:37Z</time>
      </trkpt>
      <trkpt lat="42.4162" lon="2.75449">
        <ele>1026.4</ele>
        <time>2018-11-26T05:09:37Z</time>
      </trkpt>
      <trkpt lat="42.41619" lon="2.7545">
        <ele>1026.2</ele>
        <time>2018-11-26T05:09:38Z</time>
      </trkpt>
      <trkpt lat="42.41618" lon="2.7545">
        <ele>1026.1</ele>
        <time>2018-11-26T05:09:38Z</time>
      </trkpt>
      <trkpt lat="42.41617" lon="2.75451">
        <ele>1026.1</ele>
        <time>2018-11-26T05:09:39Z</time>
      </trkpt>
      <trkpt lat="42.41616" lon="2.75451">
        <ele>1026.2</ele>
        <time>2018-11-26T05:09:39Z</time>
      </trkpt>
      <trkpt lat="42.41615" lon="2.75452">
        <ele>1026.4</ele>
        <time>2018-11-26T05:09:40Z</time>
      </trkpt>
      <trkpt lat="42.41614" lon="2.75453">
        <ele>1026.3</ele>
        <time>2018-11-26T05:09:40Z</time>
      </trkpt>
      <trkpt lat="42.41613" lon="2.75453">
        <ele>1026.1</ele>
        <time>2018-11-26T05:09:40Z</time>
      </trkpt>
      <trkpt lat="42.41612" lon="2.75454">
        <ele>1025.7</ele>
        <time>2018-11-26T05:09:41Z</time>
      </trkpt>
      <trkpt lat="42.41611" lon="2.75455">
        <ele>1025.8</ele>
        <time>2018-11-26T05:09:41Z</time>
      </trkpt>
      <trkpt lat="42.4161" lon="2.75456">
        <ele>1025.9</ele>
        <time>2018-11-26T05:09:42Z</time>
      </trkpt>
      <trkpt lat="42.41609" lon="2.75457">
        <ele>1026.1</ele>
        <time>2018-11-26T05:09:42Z</time>
      </trkpt>
      <trkpt lat="42.41608" lon="2.75458">
        <ele>1026</ele>
        <time>2018-11-26T05:09:43Z</time>
      </trkpt>
      <trkpt lat="42.41608" lon="2.75458">
        <ele>1025.9</ele>
        <time>2018-11-26T05:09:43Z</time>
      </trkpt>
      <trkpt lat="42.41607" lon="2.75459">
        <ele>1025.7</ele>
        <time>2018-11-26T05:09:44Z</time>
      </trkpt>
      <trkpt lat="42.41606" lon="2.7546">
        <ele>1025.5</ele>
        <time>2018-11-26T05:09:44Z</time>
      </trkpt>
      <trkpt lat="42.41604" lon="2.7546">
        <ele>1025.6</ele>
        <time>2018-11-26T05:09:45Z</time>
      </trkpt>
      <trkpt lat="42.41604" lon="2.75461">
        <ele>1025.6</ele>
        <time>2018-11-26T05:09:45Z</time>
      </trkpt>
      <trkpt lat="42.41603" lon="2.75462">
        <ele>1025.8</ele>
        <time>2018-11-26T05:09:45Z</time>
      </trkpt>
      <trkpt lat="42.41602" lon="2.75463">
        <ele>1025.7</ele>
        <time>2018-11-26T05:09:46Z</time>
      </trkpt>
      <trkpt lat="42.41601" lon="2.75464">
        <ele>1025.6</ele>
        <time>2018-11-26T05:09:46Z</time>
      </trkpt>
      <trkpt lat="42.416" lon="2.75465">
        <ele>1025.6</ele>
        <time>2018-11-26T05:09:47Z</time>
      </trkpt>
      <trkpt lat="42.416" lon="2.75466">
        <ele>1025.5</ele>
        <time>2018-11-26T05:09:47Z</time>
      </trkpt>
      <trkpt lat="42.41599" lon="2.75467">
        <ele>1025.2</ele>
        <time>2018-11-26T05:09:47Z</time>
      </trkpt>
      <trkpt lat="42.41598" lon="2.75468">
        <ele>1024.9</ele>
        <time>2018-11-26T05:09:48Z</time>
      </trkpt>
      <trkpt lat="42.41597" lon="2.75469">
        <ele>1025.1</ele>
        <time>2018-11-26T05:09:48Z</time>
      </trkpt>
      <trkpt lat="42.41596" lon="2.7547">
        <ele>1025.1</ele>
        <time>2018-11-26T05:09:49Z</time>
      </trkpt>
      <trkpt lat="42.41595" lon="2.75471">
        <ele>1025.3</ele>
        <time>2018-11-26T05:09:49Z</time>
      </trkpt>
      <trkpt lat="42.41594" lon="2.75471">
        <ele>1025.1</ele>
        <time>2018-11-26T05:09:50Z</time>
      </trkpt>
      <trkpt lat="42.41594" lon="2.75472">
        <ele>1024.8</ele>
        <time>2018-11-26T05:09:50Z</time>
      </trkpt>
      <trkpt lat="42.41593" lon="2.75473">
        <ele>1024.2</ele>
        <time>2018-11-26T05:09:51Z</time>
      </trkpt>
      <trkpt lat="42.41592" lon="2.75473">
        <ele>1023.6</ele>
        <time>2018-11-26T05:09:51Z</time>
      </trkpt>
      <trkpt lat="42.41591" lon="2.75474">
        <ele>1023.6</ele>
        <time>2018-11-26T05:09:51Z</time>
      </trkpt>
      <trkpt lat="42.4159" lon="2.75475">
        <ele>1023.5</ele>
        <time>2018-11-26T05:09:52Z</time>
      </trkpt>
      <trkpt lat="42.41589" lon="2.75476">
        <ele>1023.5</ele>
        <time>2018-11-26T05:09:52Z</time>
      </trkpt>
      <trkpt lat="42.41588" lon="2.75476">
        <ele>1023.6</ele>
        <time>2018-11-26T05:09:53Z</time>
      </trkpt>
      <trkpt lat="42.41588" lon="2.75477">
        <ele>1023.8</ele>
        <time>2018-11-26T05:09:53Z</time>
      </trkpt>
      <trkpt lat="42.41587" lon="2.75478">
        <ele>1024</ele>
        <time>2018-11-26T05:09:53Z</time>
      </trkpt>
      <trkpt lat="42.41586" lon="2.75479">
        <ele>1024</ele>
        <time>2018-11-26T05:09:54Z</time>
      </trkpt>
      <trkpt lat="42.41585" lon="2.7548">
        <ele>1023.9</ele>
        <time>2018-11-26T05:09:54Z</time>
      </trkpt>
      <trkpt lat="42.41584" lon="2.7548">
        <ele>1023.9</ele>
        <time>2018-11-26T05:09:55Z</time>
      </trkpt>
      <trkpt lat="42.41583" lon="2.75481">
        <ele>1023.7</ele>
        <time>2018-11-26T05:09:55Z</time>
      </trkpt>
      <trkpt lat="42.41582" lon="2.75482">
        <ele>1023.5</ele>
        <time>2018-11-26T05:09:55Z</time>
      </trkpt>
      <trkpt lat="42.41582" lon="2.75482">
        <ele>1023.1</ele>
        <time>2018-11-26T05:09:56Z</time>
      </trkpt>
      <trkpt lat="42.41581" lon="2.75483">
        <ele>1023.1</ele>
        <time>2018-11-26T05:09:56Z</time>
      </trkpt>
      <trkpt lat="42.4158" lon="2.75483">
        <ele>1023.2</ele>
        <time>2018-11-26T05:09:56Z</time>
      </trkpt>
      <trkpt lat="42.41579" lon="2.75484">
        <ele>1023.2</ele>
        <time>2018-11-26T05:09:57Z</time>
      </trkpt>
      <trkpt lat="42.41579" lon="2.75485">
        <ele>1023.1</ele>
        <time>2018-11-26T05:09:57Z</time>
      </trkpt>
      <trkpt lat="42.41578" lon="2.75486">
        <ele>1022.9</ele>
        <time>2018-11-26T05:09:58Z</time>
      </trkpt>
      <trkpt lat="42.41577" lon="2.75486">
        <ele>1022.7</ele>
        <time>2018-11-26T05:09:58Z</time>
      </trkpt>
      <trkpt lat="42.41576" lon="2.75487">
        <ele>1022.4</ele>
        <time>2018-11-26T05:09:58Z</time>
      </trkpt>
      <trkpt lat="42.41575" lon="2.75488">
        <ele>1022.8</ele>
        <time>2018-11-26T05:09:59Z</time>
      </trkpt>
      <trkpt lat="42.41574" lon="2.75489">
        <ele>1023.1</ele>
        <time>2018-11-26T05:09:59Z</time>
      </trkpt>
      <trkpt lat="42.41573" lon="2.75489">
        <ele>1023.5</ele>
        <time>2018-11-26T05:10:00Z</time>
      </trkpt>
      <trkpt lat="42.41572" lon="2.7549">
        <ele>1023.4</ele>
        <time>2018-11-26T05:10:00Z</time>
      </trkpt>
      <trkpt lat="42.41571" lon="2.75491">
        <ele>1023.4</ele>
        <time>2018-11-26T05:10:01Z</time>
      </trkpt>
      <trkpt lat="42.4157" lon="2.75492">
        <ele>1023.2</ele>
        <time>2018-11-26T05:10:01Z</time>
      </trkpt>
      <trkpt lat="42.41569" lon="2.75493">
        <ele>1022.9</ele>
        <time>2018-11-26T05:10:02Z</time>
      </trkpt>
      <trkpt lat="42.41568" lon="2.75494">
        <ele>1022.9</ele>
        <time>2018-11-26T05:10:02Z</time>
      </trkpt>
      <trkpt lat="42.41567" lon="2.75495">
        <ele>1022.6</ele>
        <time>2018-11-26T05:10:03Z</time>
      </trkpt>
      <trkpt lat="42.41566" lon="2.75495">
        <ele>1022.7</ele>
        <time>2018-11-26T05:10:03Z</time>
      </trkpt>
      <trkpt lat="42.41565" lon="2.75496">
        <ele>1022.6</ele>
        <time>2018-11-26T05:10:04Z</time>
      </trkpt>
      <trkpt lat="42.41564" lon="2.75497">
        <ele>1022.4</ele>
        <time>2018-11-26T05:10:04Z</time>
      </trkpt>
      <trkpt lat="42.41563" lon="2.75498">
        <ele>1022.1</ele>
        <time>2018-11-26T05:10:05Z</time>
      </trkpt>
      <trkpt lat="42.41562" lon="2.755">
        <ele>1021.8</ele>
        <time>2018-11-26T05:10:05Z</time>
      </trkpt>
      <trkpt lat="42.41561" lon="2.755">
        <ele>1021.4</ele>
        <time>2018-11-26T05:10:06Z</time>
      </trkpt>
      <trkpt lat="42.4156" lon="2.75501">
        <ele>1020.9</ele>
        <time>2018-11-26T05:10:06Z</time>
      </trkpt>
      <trkpt lat="42.41558" lon="2.75502">
        <ele>1021.1</ele>
        <time>2018-11-26T05:10:07Z</time>
      </trkpt>
      <trkpt lat="42.41557" lon="2.75503">
        <ele>1021.2</ele>
        <time>2018-11-26T05:10:07Z</time>
      </trkpt>
      <trkpt lat="42.41556" lon="2.75504">
        <ele>1021.5</ele>
        <time>2018-11-26T05:10:08Z</time>
      </trkpt>
      <trkpt lat="42.41555" lon="2.75504">
        <ele>1021.5</ele>
        <time>2018-11-26T05:10:08Z</time>
      </trkpt>
      <trkpt lat="42.41554" lon="2.75505">
        <ele>1021.5</ele>
        <time>2018-11-26T05:10:09Z</time>
      </trkpt>
      <trkpt lat="42.41553" lon="2.75506">
        <ele>1021.4</ele>
        <time>2018-11-26T05:10:09Z</time>
      </trkpt>
      <trkpt lat="42.41552" lon="2.75507">
        <ele>1021.5</ele>
        <time>2018-11-26T05:10:10Z</time>
      </trkpt>
      <trkpt lat="42.41551" lon="2.75508">
        <ele>1021.6</ele>
        <time>2018-11-26T05:10:10Z</time>
      </trkpt>
      <trkpt lat="42.4155" lon="2.75509">
        <ele>1021.9</ele>
        <time>2018-11-26T05:10:11Z</time>
      </trkpt>
      <trkpt lat="42.41549" lon="2.7551">
        <ele>1021.9</ele>
        <time>2018-11-26T05:10:11Z</time>
      </trkpt>
      <trkpt lat="42.41549" lon="2.75511">
        <ele>1021.8</ele>
        <time>2018-11-26T05:10:12Z</time>
      </trkpt>
      <trkpt lat="42.41548" lon="2.75512">
        <ele>1021.9</ele>
        <time>2018-11-26T05:10:12Z</time>
      </trkpt>
      <trkpt lat="42.41547" lon="2.75513">
        <ele>1022.1</ele>
        <time>2018-11-26T05:10:13Z</time>
      </trkpt>
      <trkpt lat="42.41546" lon="2.75514">
        <ele>1022.3</ele>
        <time>2018-11-26T05:10:13Z</time>
      </trkpt>
      <trkpt lat="42.41545" lon="2.75515">
        <ele>1022.6</ele>
        <time>2018-11-26T05:10:14Z</time>
      </trkpt>
      <trkpt lat="42.41544" lon="2.75516">
        <ele>1023.2</ele>
        <time>2018-11-26T05:10:14Z</time>
      </trkpt>
      <trkpt lat="42.41543" lon="2.75517">
        <ele>1023</ele>
        <time>2018-11-26T05:10:15Z</time>
      </trkpt>
      <trkpt lat="42.41542" lon="2.75518">
        <ele>1022.9</ele>
        <time>2018-11-26T05:10:15Z</time>
      </trkpt>
      <trkpt lat="42.41541" lon="2.75519">
        <ele>1022.9</ele>
        <time>2018-11-26T05:10:16Z</time>
      </trkpt>
      <trkpt lat="42.4154" lon="2.7552">
        <ele>1022.8</ele>
        <time>2018-11-26T05:10:16Z</time>
      </trkpt>
      <trkpt lat="42.41539" lon="2.75521">
        <ele>1022.6</ele>
        <time>2018-11-26T05:10:17Z</time>
      </trkpt>
      <trkpt lat="42.41537" lon="2.75521">
        <ele>1022.4</ele>
        <time>2018-11-26T05:10:17Z</time>
      </trkpt>
      <trkpt lat="42.41537" lon="2.75522">
        <ele>1022.3</ele>
        <time>2018-11-26T05:10:17Z</time>
      </trkpt>
      <trkpt lat="42.41535" lon="2.75523">
        <ele>1022.2</ele>
        <time>2018-11-26T05:10:18Z</time>
      </trkpt>
      <trkpt lat="42.41535" lon="2.75523">
        <ele>1022.1</ele>
        <time>2018-11-26T05:10:18Z</time>
      </trkpt>
      <trkpt lat="42.41534" lon="2.75524">
        <ele>1022</ele>
        <time>2018-11-26T05:10:19Z</time>
      </trkpt>
      <trkpt lat="42.41533" lon="2.75525">
        <ele>1022.1</ele>
        <time>2018-11-26T05:10:19Z</time>
      </trkpt>
      <trkpt lat="42.41532" lon="2.75525">
        <ele>1022.2</ele>
        <time>2018-11-26T05:10:20Z</time>
      </trkpt>
      <trkpt lat="42.41531" lon="2.75526">
        <ele>1022.4</ele>
        <time>2018-11-26T05:10:20Z</time>
      </trkpt>
      <trkpt lat="42.4153" lon="2.75527">
        <ele>1022.4</ele>
        <time>2018-11-26T05:10:21Z</time>
      </trkpt>
      <trkpt lat="42.41529" lon="2.75528">
        <ele>1022.3</ele>
        <time>2018-11-26T05:10:21Z</time>
      </trkpt>
      <trkpt lat="42.41528" lon="2.75529">
        <ele>1022.4</ele>
        <time>2018-11-26T05:10:21Z</time>
      </trkpt>
      <trkpt lat="42.41527" lon="2.75529">
        <ele>1022.5</ele>
        <time>2018-11-26T05:10:22Z</time>
      </trkpt>
      <trkpt lat="42.41526" lon="2.7553">
        <ele>1022.4</ele>
        <time>2018-11-26T05:10:22Z</time>
      </trkpt>
      <trkpt lat="42.41526" lon="2.75531">
        <ele>1022.4</ele>
        <time>2018-11-26T05:10:23Z</time>
      </trkpt>
      <trkpt lat="42.41525" lon="2.75532">
        <ele>1022.5</ele>
        <time>2018-11-26T05:10:23Z</time>
      </trkpt>
      <trkpt lat="42.41523" lon="2.75534">
        <ele>1022.9</ele>
        <time>2018-11-26T05:10:24Z</time>
      </trkpt>
      <trkpt lat="42.41522" lon="2.75535">
        <ele>1023</ele>
        <time>2018-11-26T05:10:25Z</time>
      </trkpt>
      <trkpt lat="42.41521" lon="2.75536">
        <ele>1023.2</ele>
        <time>2018-11-26T05:10:25Z</time>
      </trkpt>
      <trkpt lat="42.4152" lon="2.75537">
        <ele>1023.4</ele>
        <time>2018-11-26T05:10:25Z</time>
      </trkpt>
      <trkpt lat="42.41519" lon="2.75538">
        <ele>1023.2</ele>
        <time>2018-11-26T05:10:26Z</time>
      </trkpt>
      <trkpt lat="42.41518" lon="2.75539">
        <ele>1023.1</ele>
        <time>2018-11-26T05:10:26Z</time>
      </trkpt>
      <trkpt lat="42.41517" lon="2.7554">
        <ele>1022.8</ele>
        <time>2018-11-26T05:10:27Z</time>
      </trkpt>
      <trkpt lat="42.41516" lon="2.7554">
        <ele>1023</ele>
        <time>2018-11-26T05:10:27Z</time>
      </trkpt>
      <trkpt lat="42.41516" lon="2.75541">
        <ele>1023.1</ele>
        <time>2018-11-26T05:10:28Z</time>
      </trkpt>
      <trkpt lat="42.41515" lon="2.75541">
        <ele>1023.1</ele>
        <time>2018-11-26T05:10:28Z</time>
      </trkpt>
      <trkpt lat="42.41514" lon="2.75541">
        <ele>1023.3</ele>
        <time>2018-11-26T05:10:28Z</time>
      </trkpt>
      <trkpt lat="42.41514" lon="2.75542">
        <ele>1023.1</ele>
        <time>2018-11-26T05:10:29Z</time>
      </trkpt>
      <trkpt lat="42.41513" lon="2.75542">
        <ele>1023</ele>
        <time>2018-11-26T05:10:29Z</time>
      </trkpt>
      <trkpt lat="42.41512" lon="2.75543">
        <ele>1022.9</ele>
        <time>2018-11-26T05:10:29Z</time>
      </trkpt>
      <trkpt lat="42.41511" lon="2.75544">
        <ele>1022.9</ele>
        <time>2018-11-26T05:10:30Z</time>
      </trkpt>
      <trkpt lat="42.4151" lon="2.75544">
        <ele>1022.9</ele>
        <time>2018-11-26T05:10:30Z</time>
      </trkpt>
      <trkpt lat="42.4151" lon="2.75545">
        <ele>1023.2</ele>
        <time>2018-11-26T05:10:30Z</time>
      </trkpt>
      <trkpt lat="42.41509" lon="2.75546">
        <ele>1023.2</ele>
        <time>2018-11-26T05:10:31Z</time>
      </trkpt>
      <trkpt lat="42.41508" lon="2.75546">
        <ele>1023.2</ele>
        <time>2018-11-26T05:10:31Z</time>
      </trkpt>
      <trkpt lat="42.41508" lon="2.75547">
        <ele>1023.3</ele>
        <time>2018-11-26T05:10:31Z</time>
      </trkpt>
      <trkpt lat="42.41507" lon="2.75548">
        <ele>1023.2</ele>
        <time>2018-11-26T05:10:32Z</time>
      </trkpt>
      <trkpt lat="42.41506" lon="2.75548">
        <ele>1023.2</ele>
        <time>2018-11-26T05:10:32Z</time>
      </trkpt>
      <trkpt lat="42.41505" lon="2.75549">
        <ele>1023.2</ele>
        <time>2018-11-26T05:10:33Z</time>
      </trkpt>
      <trkpt lat="42.41504" lon="2.75551">
        <ele>1023.9</ele>
        <time>2018-11-26T05:10:33Z</time>
      </trkpt>
      <trkpt lat="42.41503" lon="2.75552">
        <ele>1024.5</ele>
        <time>2018-11-26T05:10:34Z</time>
      </trkpt>
      <trkpt lat="42.41502" lon="2.75552">
        <ele>1024.5</ele>
        <time>2018-11-26T05:10:34Z</time>
      </trkpt>
      <trkpt lat="42.41502" lon="2.75553">
        <ele>1024.6</ele>
        <time>2018-11-26T05:10:34Z</time>
      </trkpt>
      <trkpt lat="42.41501" lon="2.75554">
        <ele>1024.6</ele>
        <time>2018-11-26T05:10:35Z</time>
      </trkpt>
      <trkpt lat="42.41501" lon="2.75554">
        <ele>1024.9</ele>
        <time>2018-11-26T05:10:35Z</time>
      </trkpt>
      <trkpt lat="42.415" lon="2.75555">
        <ele>1024.6</ele>
        <time>2018-11-26T05:10:35Z</time>
      </trkpt>
      <trkpt lat="42.415" lon="2.75556">
        <ele>1024.3</ele>
        <time>2018-11-26T05:10:36Z</time>
      </trkpt>
      <trkpt lat="42.41499" lon="2.75556">
        <ele>1024</ele>
        <time>2018-11-26T05:10:36Z</time>
      </trkpt>
      <trkpt lat="42.41498" lon="2.75557">
        <ele>1024.1</ele>
        <time>2018-11-26T05:10:36Z</time>
      </trkpt>
      <trkpt lat="42.41498" lon="2.75557">
        <ele>1024.1</ele>
        <time>2018-11-26T05:10:36Z</time>
      </trkpt>
      <trkpt lat="42.41497" lon="2.75557">
        <ele>1024</ele>
        <time>2018-11-26T05:10:37Z</time>
      </trkpt>
      <trkpt lat="42.41497" lon="2.75558">
        <ele>1024</ele>
        <time>2018-11-26T05:10:37Z</time>
      </trkpt>
      <trkpt lat="42.41497" lon="2.75558">
        <ele>1023.8</ele>
        <time>2018-11-26T05:10:37Z</time>
      </trkpt>
      <trkpt lat="42.41497" lon="2.75559">
        <ele>1023.6</ele>
        <time>2018-11-26T05:10:37Z</time>
      </trkpt>
      <trkpt lat="42.41496" lon="2.7556">
        <ele>1023.7</ele>
        <time>2018-11-26T05:10:38Z</time>
      </trkpt>
      <trkpt lat="42.41495" lon="2.7556">
        <ele>1023.8</ele>
        <time>2018-11-26T05:10:38Z</time>
      </trkpt>
      <trkpt lat="42.41495" lon="2.7556">
        <ele>1024</ele>
        <time>2018-11-26T05:10:38Z</time>
      </trkpt>
      <trkpt lat="42.41495" lon="2.75561">
        <ele>1024</ele>
        <time>2018-11-26T05:10:38Z</time>
      </trkpt>
      <trkpt lat="42.41495" lon="2.75561">
        <ele>1024.1</ele>
        <time>2018-11-26T05:10:38Z</time>
      </trkpt>
      <trkpt lat="42.41495" lon="2.75562">
        <ele>1024.2</ele>
        <time>2018-11-26T05:10:38Z</time>
      </trkpt>
      <trkpt lat="42.41494" lon="2.75563">
        <ele>1024.4</ele>
        <time>2018-11-26T05:10:39Z</time>
      </trkpt>
      <trkpt lat="42.41494" lon="2.75564">
        <ele>1024.4</ele>
        <time>2018-11-26T05:10:39Z</time>
      </trkpt>
      <trkpt lat="42.41494" lon="2.75565">
        <ele>1024.6</ele>
        <time>2018-11-26T05:10:40Z</time>
      </trkpt>
      <trkpt lat="42.41493" lon="2.75566">
        <ele>1024.8</ele>
        <time>2018-11-26T05:10:40Z</time>
      </trkpt>
      <trkpt lat="42.41493" lon="2.75567">
        <ele>1024.6</ele>
        <time>2018-11-26T05:10:40Z</time>
      </trkpt>
      <trkpt lat="42.41493" lon="2.75568">
        <ele>1024.4</ele>
        <time>2018-11-26T05:10:41Z</time>
      </trkpt>
      <trkpt lat="42.41491" lon="2.75573">
        <ele>1023.6</ele>
        <time>2018-11-26T05:10:42Z</time>
      </trkpt>
      <trkpt lat="42.41491" lon="2.75574">
        <ele>1023.2</ele>
        <time>2018-11-26T05:10:42Z</time>
      </trkpt>
      <trkpt lat="42.4149" lon="2.75575">
        <ele>1023.3</ele>
        <time>2018-11-26T05:10:43Z</time>
      </trkpt>
      <trkpt lat="42.4149" lon="2.75577">
        <ele>1023.3</ele>
        <time>2018-11-26T05:10:43Z</time>
      </trkpt>
      <trkpt lat="42.41489" lon="2.75578">
        <ele>1023.4</ele>
        <time>2018-11-26T05:10:44Z</time>
      </trkpt>
      <trkpt lat="42.41489" lon="2.75579">
        <ele>1023.6</ele>
        <time>2018-11-26T05:10:44Z</time>
      </trkpt>
      <trkpt lat="42.41488" lon="2.75581">
        <ele>1023.6</ele>
        <time>2018-11-26T05:10:45Z</time>
      </trkpt>
      <trkpt lat="42.41488" lon="2.75582">
        <ele>1023.8</ele>
        <time>2018-11-26T05:10:45Z</time>
      </trkpt>
      <trkpt lat="42.41462" lon="2.75586">
        <ele>1002.4</ele>
        <time>2018-11-26T05:25:25Z</time>
      </trkpt>
      <trkpt lat="42.41455" lon="2.75587">
        <ele>1002.4</ele>
        <time>2018-11-26T05:25:27Z</time>
      </trkpt>
      <trkpt lat="42.41444" lon="2.75585">
        <ele>1001.9</ele>
        <time>2018-11-26T05:25:32Z</time>
      </trkpt>
      <trkpt lat="42.41421" lon="2.75584">
        <ele>1000.5</ele>
        <time>2018-11-26T05:25:41Z</time>
      </trkpt>
      <trkpt lat="42.41414" lon="2.75588">
        <ele>998.6</ele>
        <time>2018-11-26T05:25:44Z</time>
      </trkpt>
      <trkpt lat="42.4141" lon="2.7559">
        <ele>996.6</ele>
        <time>2018-11-26T05:25:46Z</time>
      </trkpt>
      <trkpt lat="42.414" lon="2.75595">
        <ele>992.8</ele>
        <time>2018-11-26T05:25:50Z</time>
      </trkpt>
      <trkpt lat="42.41387" lon="2.75605">
        <ele>989.9</ele>
        <time>2018-11-26T05:25:56Z</time>
      </trkpt>
      <trkpt lat="42.41375" lon="2.75622">
        <ele>986.5</ele>
        <time>2018-11-26T05:26:03Z</time>
      </trkpt>
      <trkpt lat="42.4137" lon="2.75631">
        <ele>985</ele>
        <time>2018-11-26T05:26:06Z</time>
      </trkpt>
      <trkpt lat="42.41367" lon="2.75636">
        <ele>981.6</ele>
        <time>2018-11-26T05:26:08Z</time>
      </trkpt>
      <trkpt lat="42.41362" lon="2.75639">
        <ele>980.7</ele>
        <time>2018-11-26T05:26:10Z</time>
      </trkpt>
      <trkpt lat="42.41353" lon="2.7565">
        <ele>979.3</ele>
        <time>2018-11-26T05:26:15Z</time>
      </trkpt>
      <trkpt lat="42.41345" lon="2.75655">
        <ele>976.8</ele>
        <time>2018-11-26T05:26:19Z</time>
      </trkpt>
      <trkpt lat="42.41337" lon="2.75665">
        <ele>975</ele>
        <time>2018-11-26T05:26:23Z</time>
      </trkpt>
      <trkpt lat="42.41336" lon="2.75666">
        <ele>974.5</ele>
        <time>2018-11-26T05:26:23Z</time>
      </trkpt>
      <trkpt lat="42.41329" lon="2.7567">
        <ele>973.5</ele>
        <time>2018-11-26T05:26:27Z</time>
      </trkpt>
      <trkpt lat="42.41329" lon="2.7567">
        <ele>968.3</ele>
        <time>2018-11-26T05:26:27Z</time>
      </trkpt>
      <trkpt lat="42.41329" lon="2.75671">
        <ele>972.6</ele>
        <time>2018-11-26T05:26:27Z</time>
      </trkpt>
      <trkpt lat="42.41329" lon="2.75671">
        <ele>973.5</ele>
        <time>2018-11-26T05:26:27Z</time>
      </trkpt>
      <trkpt lat="42.41329" lon="2.75671">
        <ele>976.8</ele>
        <time>2018-11-26T05:26:27Z</time>
      </trkpt>
      <trkpt lat="42.41329" lon="2.75671">
        <ele>970.7</ele>
        <time>2018-11-26T05:26:27Z</time>
      </trkpt>
      <trkpt lat="42.41329" lon="2.75671">
        <ele>974.9</ele>
        <time>2018-11-26T05:26:27Z</time>
      </trkpt>
      <trkpt lat="42.41329" lon="2.75671">
        <ele>968.3</ele>
        <time>2018-11-26T05:26:27Z</time>
      </trkpt>
      <trkpt lat="42.41329" lon="2.75671">
        <ele>974.5</ele>
        <time>2018-11-26T05:26:27Z</time>
      </trkpt>
      <trkpt lat="42.41329" lon="2.75671">
        <ele>970.6</ele>
        <time>2018-11-26T05:26:27Z</time>
      </trkpt>
      <trkpt lat="42.41329" lon="2.75671">
        <ele>974.1</ele>
        <time>2018-11-26T05:26:27Z</time>
      </trkpt>
      <trkpt lat="42.41329" lon="2.75671">
        <ele>969.7</ele>
        <time>2018-11-26T05:26:27Z</time>
      </trkpt>
      <trkpt lat="42.41329" lon="2.75671">
        <ele>975</ele>
        <time>2018-11-26T05:26:27Z</time>
      </trkpt>
      <trkpt lat="42.41329" lon="2.75671">
        <ele>972.1</ele>
        <time>2018-11-26T05:26:27Z</time>
      </trkpt>
      <trkpt lat="42.41329" lon="2.75671">
        <ele>975.4</ele>
        <time>2018-11-26T05:26:27Z</time>
      </trkpt>
      <trkpt lat="42.41328" lon="2.75669">
        <ele>971.1</ele>
        <time>2018-11-26T05:26:27Z</time>
      </trkpt>
      <trkpt lat="42.41318" lon="2.75668">
        <ele>969.3</ele>
        <time>2018-11-26T05:26:31Z</time>
      </trkpt>
      <trkpt lat="42.41313" lon="2.7567">
        <ele>965.9</ele>
        <time>2018-11-26T05:26:33Z</time>
      </trkpt>
      <trkpt lat="42.41305" lon="2.75669">
        <ele>963</ele>
        <time>2018-11-26T05:26:36Z</time>
      </trkpt>
      <trkpt lat="42.41296" lon="2.7567">
        <ele>960.6</ele>
        <time>2018-11-26T05:26:40Z</time>
      </trkpt>
      <trkpt lat="42.4129" lon="2.75671">
        <ele>958.2</ele>
        <time>2018-11-26T05:26:43Z</time>
      </trkpt>
      <trkpt lat="42.41281" lon="2.75677">
        <ele>956.3</ele>
        <time>2018-11-26T05:26:47Z</time>
      </trkpt>
      <trkpt lat="42.41275" lon="2.75676">
        <ele>953.3</ele>
        <time>2018-11-26T05:26:49Z</time>
      </trkpt>
      <trkpt lat="42.41262" lon="2.75677">
        <ele>951.9</ele>
        <time>2018-11-26T05:26:54Z</time>
      </trkpt>
      <trkpt lat="42.4126" lon="2.75682">
        <ele>949</ele>
        <time>2018-11-26T05:26:56Z</time>
      </trkpt>
      <trkpt lat="42.41252" lon="2.75686">
        <ele>946.6</ele>
        <time>2018-11-26T05:26:59Z</time>
      </trkpt>
      <trkpt lat="42.41245" lon="2.7569">
        <ele>944.2</ele>
        <time>2018-11-26T05:27:03Z</time>
      </trkpt>
      <trkpt lat="42.4124" lon="2.75699">
        <ele>942.3</ele>
        <time>2018-11-26T05:27:06Z</time>
      </trkpt>
      <trkpt lat="42.41233" lon="2.75712">
        <ele>939.8</ele>
        <time>2018-11-26T05:27:11Z</time>
      </trkpt>
      <trkpt lat="42.41228" lon="2.75722">
        <ele>936.5</ele>
        <time>2018-11-26T05:27:14Z</time>
      </trkpt>
      <trkpt lat="42.41228" lon="2.75722">
        <ele>936.6</ele>
        <time>2018-11-26T05:27:14Z</time>
      </trkpt>
      <trkpt lat="42.41228" lon="2.75722">
        <ele>932.2</ele>
        <time>2018-11-26T05:27:14Z</time>
      </trkpt>
      <trkpt lat="42.41228" lon="2.75722">
        <ele>936.9</ele>
        <time>2018-11-26T05:27:14Z</time>
      </trkpt>
      <trkpt lat="42.41223" lon="2.75722">
        <ele>935</ele>
        <time>2018-11-26T05:27:16Z</time>
      </trkpt>
      <trkpt lat="42.41223" lon="2.75722">
        <ele>936.9</ele>
        <time>2018-11-26T05:27:16Z</time>
      </trkpt>
      <trkpt lat="42.41216" lon="2.75721">
        <ele>934.2</ele>
        <time>2018-11-26T05:27:19Z</time>
      </trkpt>
      <trkpt lat="42.41216" lon="2.75721">
        <ele>933.1</ele>
        <time>2018-11-26T05:27:19Z</time>
      </trkpt>
      <trkpt lat="42.41214" lon="2.75736">
        <ele>931.2</ele>
        <time>2018-11-26T05:27:23Z</time>
      </trkpt>
      <trkpt lat="42.41209" lon="2.75741">
        <ele>930.7</ele>
        <time>2018-11-26T05:27:26Z</time>
      </trkpt>
      <trkpt lat="42.41205" lon="2.75749">
        <ele>928.8</ele>
        <time>2018-11-26T05:27:29Z</time>
      </trkpt>
      <trkpt lat="42.41204" lon="2.75751">
        <ele>927.9</ele>
        <time>2018-11-26T05:27:30Z</time>
      </trkpt>
      <trkpt lat="42.41202" lon="2.75753">
        <ele>926.4</ele>
        <time>2018-11-26T05:27:31Z</time>
      </trkpt>
      <trkpt lat="42.41194" lon="2.75759">
        <ele>924.6</ele>
        <time>2018-11-26T05:27:34Z</time>
      </trkpt>
      <trkpt lat="42.41184" lon="2.75769">
        <ele>921.6</ele>
        <time>2018-11-26T05:27:39Z</time>
      </trkpt>
      <trkpt lat="42.41177" lon="2.75779">
        <ele>918.7</ele>
        <time>2018-11-26T05:27:43Z</time>
      </trkpt>
      <trkpt lat="42.41178" lon="2.75786">
        <ele>918.3</ele>
        <time>2018-11-26T05:27:45Z</time>
      </trkpt>
      <trkpt lat="42.41173" lon="2.75793">
        <ele>914.8</ele>
        <time>2018-11-26T05:27:48Z</time>
      </trkpt>
      <trkpt lat="42.4117" lon="2.75801">
        <ele>911.5</ele>
        <time>2018-11-26T05:27:51Z</time>
      </trkpt>
      <trkpt lat="42.41165" lon="2.75808">
        <ele>909.1</ele>
        <time>2018-11-26T05:27:54Z</time>
      </trkpt>
      <trkpt lat="42.41159" lon="2.75818">
        <ele>906.8</ele>
        <time>2018-11-26T05:27:57Z</time>
      </trkpt>
      <trkpt lat="42.41158" lon="2.75826">
        <ele>903.9</ele>
        <time>2018-11-26T05:28:00Z</time>
      </trkpt>
      <trkpt lat="42.41156" lon="2.75833">
        <ele>900.4</ele>
        <time>2018-11-26T05:28:02Z</time>
      </trkpt>
      <trkpt lat="42.41142" lon="2.75831">
        <ele>897.5</ele>
        <time>2018-11-26T05:28:08Z</time>
      </trkpt>
      <trkpt lat="42.41135" lon="2.75842">
        <ele>895.2</ele>
        <time>2018-11-26T05:28:12Z</time>
      </trkpt>
      <trkpt lat="42.4113" lon="2.7585">
        <ele>892.7</ele>
        <time>2018-11-26T05:28:15Z</time>
      </trkpt>
      <trkpt lat="42.41124" lon="2.75853">
        <ele>889.8</ele>
        <time>2018-11-26T05:28:17Z</time>
      </trkpt>
      <trkpt lat="42.41118" lon="2.75858">
        <ele>887</ele>
        <time>2018-11-26T05:28:20Z</time>
      </trkpt>
      <trkpt lat="42.41109" lon="2.7585">
        <ele>885.1</ele>
        <time>2018-11-26T05:28:25Z</time>
      </trkpt>
      <trkpt lat="42.41101" lon="2.75842">
        <ele>882.2</ele>
        <time>2018-11-26T05:28:28Z</time>
      </trkpt>
      <trkpt lat="42.41093" lon="2.75838">
        <ele>880.2</ele>
        <time>2018-11-26T05:28:32Z</time>
      </trkpt>
      <trkpt lat="42.4109" lon="2.75837">
        <ele>878.8</ele>
        <time>2018-11-26T05:28:33Z</time>
      </trkpt>
      <trkpt lat="42.41083" lon="2.75826">
        <ele>876.5</ele>
        <time>2018-11-26T05:28:38Z</time>
      </trkpt>
      <trkpt lat="42.41077" lon="2.7582">
        <ele>873.1</ele>
        <time>2018-11-26T05:28:41Z</time>
      </trkpt>
      <trkpt lat="42.41075" lon="2.75828">
        <ele>871.2</ele>
        <time>2018-11-26T05:28:43Z</time>
      </trkpt>
      <trkpt lat="42.41072" lon="2.7584">
        <ele>869.7</ele>
        <time>2018-11-26T05:28:47Z</time>
      </trkpt>
      <trkpt lat="42.41061" lon="2.75843">
        <ele>866.4</ele>
        <time>2018-11-26T05:28:52Z</time>
      </trkpt>
      <trkpt lat="42.41063" lon="2.75855">
        <ele>862.9</ele>
        <time>2018-11-26T05:28:55Z</time>
      </trkpt>
      <trkpt lat="42.41062" lon="2.75874">
        <ele>860.1</ele>
        <time>2018-11-26T05:29:01Z</time>
      </trkpt>
      <trkpt lat="42.41061" lon="2.75889">
        <ele>856.7</ele>
        <time>2018-11-26T05:29:05Z</time>
      </trkpt>
      <trkpt lat="42.41067" lon="2.75906">
        <ele>853.8</ele>
        <time>2018-11-26T05:29:11Z</time>
      </trkpt>
      <trkpt lat="42.41062" lon="2.75914">
        <ele>850.9</ele>
        <time>2018-11-26T05:29:14Z</time>
      </trkpt>
      <trkpt lat="42.41061" lon="2.7592">
        <ele>847.5</ele>
        <time>2018-11-26T05:29:16Z</time>
      </trkpt>
      <trkpt lat="42.41059" lon="2.75926">
        <ele>846.2</ele>
        <time>2018-11-26T05:29:18Z</time>
      </trkpt>
      <trkpt lat="42.41058" lon="2.75937">
        <ele>842.7</ele>
        <time>2018-11-26T05:29:21Z</time>
      </trkpt>
      <trkpt lat="42.41058" lon="2.75946">
        <ele>840.8</ele>
        <time>2018-11-26T05:29:24Z</time>
      </trkpt>
      <trkpt lat="42.41055" lon="2.75953">
        <ele>838</ele>
        <time>2018-11-26T05:29:26Z</time>
      </trkpt>
      <trkpt lat="42.41048" lon="2.75957">
        <ele>835.1</ele>
        <time>2018-11-26T05:29:29Z</time>
      </trkpt>
      <trkpt lat="42.41041" lon="2.75956">
        <ele>833.1</ele>
        <time>2018-11-26T05:29:32Z</time>
      </trkpt>
      <trkpt lat="42.41039" lon="2.75959">
        <ele>830.3</ele>
        <time>2018-11-26T05:29:33Z</time>
      </trkpt>
      <trkpt lat="42.41041" lon="2.75973">
        <ele>829.3</ele>
        <time>2018-11-26T05:29:37Z</time>
      </trkpt>
      <trkpt lat="42.4104" lon="2.75974">
        <ele>829.3</ele>
        <time>2018-11-26T05:29:37Z</time>
      </trkpt>
      <trkpt lat="42.41039" lon="2.75978">
        <ele>826.4</ele>
        <time>2018-11-26T05:29:39Z</time>
      </trkpt>
      <trkpt lat="42.41033" lon="2.75994">
        <ele>823</ele>
        <time>2018-11-26T05:29:44Z</time>
      </trkpt>
      <trkpt lat="42.41031" lon="2.75997">
        <ele>820.2</ele>
        <time>2018-11-26T05:29:46Z</time>
      </trkpt>
      <trkpt lat="42.41026" lon="2.76002">
        <ele>818.8</ele>
        <time>2018-11-26T05:29:48Z</time>
      </trkpt>
      <trkpt lat="42.4103" lon="2.76012">
        <ele>817.7</ele>
        <time>2018-11-26T05:29:51Z</time>
      </trkpt>
      <trkpt lat="42.41034" lon="2.7602">
        <ele>816.3</ele>
        <time>2018-11-26T05:29:54Z</time>
      </trkpt>
      <trkpt lat="42.41037" lon="2.76022">
        <ele>815.3</ele>
        <time>2018-11-26T05:29:55Z</time>
      </trkpt>
      <trkpt lat="42.41032" lon="2.76028">
        <ele>813.4</ele>
        <time>2018-11-26T05:29:58Z</time>
      </trkpt>
      <trkpt lat="42.4103" lon="2.7603">
        <ele>812.6</ele>
        <time>2018-11-26T05:29:59Z</time>
      </trkpt>
      <trkpt lat="42.41022" lon="2.76036">
        <ele>810.6</ele>
        <time>2018-11-26T05:30:02Z</time>
      </trkpt>
      <trkpt lat="42.4101" lon="2.76046">
        <ele>809.1</ele>
        <time>2018-11-26T05:30:08Z</time>
      </trkpt>
      <trkpt lat="42.41002" lon="2.76051">
        <ele>808.6</ele>
        <time>2018-11-26T05:30:11Z</time>
      </trkpt>
      <trkpt lat="42.40995" lon="2.76051">
        <ele>806.7</ele>
        <time>2018-11-26T05:30:15Z</time>
      </trkpt>
      <trkpt lat="42.40987" lon="2.76041">
        <ele>804.4</ele>
        <time>2018-11-26T05:30:19Z</time>
      </trkpt>
      <trkpt lat="42.4098" lon="2.76031">
        <ele>802.9</ele>
        <time>2018-11-26T05:30:23Z</time>
      </trkpt>
      <trkpt lat="42.40971" lon="2.7602">
        <ele>801.5</ele>
        <time>2018-11-26T05:30:28Z</time>
      </trkpt>
      <trkpt lat="42.40966" lon="2.76016">
        <ele>800</ele>
        <time>2018-11-26T05:30:30Z</time>
      </trkpt>
      <trkpt lat="42.4096" lon="2.7601">
        <ele>799.5</ele>
        <time>2018-11-26T05:30:33Z</time>
      </trkpt>
      <trkpt lat="42.40954" lon="2.76001">
        <ele>797.7</ele>
        <time>2018-11-26T05:30:37Z</time>
      </trkpt>
      <trkpt lat="42.40951" lon="2.76">
        <ele>794.8</ele>
        <time>2018-11-26T05:30:38Z</time>
      </trkpt>
      <trkpt lat="42.40948" lon="2.75989">
        <ele>792.7</ele>
        <time>2018-11-26T05:30:41Z</time>
      </trkpt>
      <trkpt lat="42.40944" lon="2.75977">
        <ele>791.3</ele>
        <time>2018-11-26T05:30:45Z</time>
      </trkpt>
      <trkpt lat="42.40943" lon="2.75963">
        <ele>789.9</ele>
        <time>2018-11-26T05:30:50Z</time>
      </trkpt>
      <trkpt lat="42.40943" lon="2.75962">
        <ele>789.4</ele>
        <time>2018-11-26T05:30:50Z</time>
      </trkpt>
      <trkpt lat="42.40939" lon="2.75954">
        <ele>788</ele>
        <time>2018-11-26T05:30:52Z</time>
      </trkpt>
      <trkpt lat="42.40938" lon="2.75949">
        <ele>787.6</ele>
        <time>2018-11-26T05:30:54Z</time>
      </trkpt>
      <trkpt lat="42.40936" lon="2.75936">
        <ele>785.6</ele>
        <time>2018-11-26T05:30:58Z</time>
      </trkpt>
      <trkpt lat="42.40935" lon="2.75932">
        <ele>785.2</ele>
        <time>2018-11-26T05:30:59Z</time>
      </trkpt>
      <trkpt lat="42.40936" lon="2.75923">
        <ele>784.1</ele>
        <time>2018-11-26T05:31:02Z</time>
      </trkpt>
      <trkpt lat="42.40937" lon="2.75911">
        <ele>782.8</ele>
        <time>2018-11-26T05:31:06Z</time>
      </trkpt>
      <trkpt lat="42.4093" lon="2.75913">
        <ele>779.4</ele>
        <time>2018-11-26T05:31:08Z</time>
      </trkpt>
      <trkpt lat="42.40925" lon="2.75928">
        <ele>777.5</ele>
        <time>2018-11-26T05:31:13Z</time>
      </trkpt>
      <trkpt lat="42.4092" lon="2.75932">
        <ele>776.9</ele>
        <time>2018-11-26T05:31:15Z</time>
      </trkpt>
      <trkpt lat="42.40912" lon="2.75948">
        <ele>773.5</ele>
        <time>2018-11-26T05:31:21Z</time>
      </trkpt>
      <trkpt lat="42.40905" lon="2.75946">
        <ele>771.6</ele>
        <time>2018-11-26T05:31:24Z</time>
      </trkpt>
      <trkpt lat="42.4091" lon="2.75932">
        <ele>769.7</ele>
        <time>2018-11-26T05:31:29Z</time>
      </trkpt>
      <trkpt lat="42.40908" lon="2.75924">
        <ele>768.3</ele>
        <time>2018-11-26T05:31:31Z</time>
      </trkpt>
      <trkpt lat="42.40911" lon="2.75907">
        <ele>765.4</ele>
        <time>2018-11-26T05:31:36Z</time>
      </trkpt>
      <trkpt lat="42.40907" lon="2.75895">
        <ele>763</ele>
        <time>2018-11-26T05:31:40Z</time>
      </trkpt>
      <trkpt lat="42.40904" lon="2.75886">
        <ele>760.2</ele>
        <time>2018-11-26T05:31:43Z</time>
      </trkpt>
      <trkpt lat="42.40899" lon="2.75882">
        <ele>757.2</ele>
        <time>2018-11-26T05:31:45Z</time>
      </trkpt>
      <trkpt lat="42.40899" lon="2.75873">
        <ele>755.7</ele>
        <time>2018-11-26T05:31:48Z</time>
      </trkpt>
      <trkpt lat="42.40898" lon="2.7587">
        <ele>754.9</ele>
        <time>2018-11-26T05:31:49Z</time>
      </trkpt>
      <trkpt lat="42.40894" lon="2.75866">
        <ele>752.4</ele>
        <time>2018-11-26T05:31:51Z</time>
      </trkpt>
      <trkpt lat="42.40892" lon="2.75856">
        <ele>750</ele>
        <time>2018-11-26T05:31:54Z</time>
      </trkpt>
      <trkpt lat="42.40894" lon="2.75833">
        <ele>747.1</ele>
        <time>2018-11-26T05:32:01Z</time>
      </trkpt>
      <trkpt lat="42.40893" lon="2.75827">
        <ele>744.2</ele>
        <time>2018-11-26T05:32:03Z</time>
      </trkpt>
      <trkpt lat="42.40891" lon="2.75816">
        <ele>741.8</ele>
        <time>2018-11-26T05:32:06Z</time>
      </trkpt>
      <trkpt lat="42.40889" lon="2.75815">
        <ele>738.9</ele>
        <time>2018-11-26T05:32:07Z</time>
      </trkpt>
      <trkpt lat="42.40885" lon="2.75822">
        <ele>737.5</ele>
        <time>2018-11-26T05:32:10Z</time>
      </trkpt>
      <trkpt lat="42.40882" lon="2.75825">
        <ele>736.6</ele>
        <time>2018-11-26T05:32:11Z</time>
      </trkpt>
      <trkpt lat="42.40876" lon="2.75833">
        <ele>733.7</ele>
        <time>2018-11-26T05:32:15Z</time>
      </trkpt>
      <trkpt lat="42.40872" lon="2.75843">
        <ele>731.8</ele>
        <time>2018-11-26T05:32:18Z</time>
      </trkpt>
      <trkpt lat="42.40866" lon="2.75849">
        <ele>730.3</ele>
        <time>2018-11-26T05:32:21Z</time>
      </trkpt>
      <trkpt lat="42.40861" lon="2.75863">
        <ele>727.4</ele>
        <time>2018-11-26T05:32:25Z</time>
      </trkpt>
      <trkpt lat="42.40856" lon="2.7587">
        <ele>725.5</ele>
        <time>2018-11-26T05:32:28Z</time>
      </trkpt>
      <trkpt lat="42.40852" lon="2.75881">
        <ele>723.5</ele>
        <time>2018-11-26T05:32:32Z</time>
      </trkpt>
      <trkpt lat="42.40844" lon="2.75893">
        <ele>722.7</ele>
        <time>2018-11-26T05:32:37Z</time>
      </trkpt>
      <trkpt lat="42.40839" lon="2.75903">
        <ele>720.3</ele>
        <time>2018-11-26T05:32:40Z</time>
      </trkpt>
      <trkpt lat="42.40833" lon="2.75909">
        <ele>718.7</ele>
        <time>2018-11-26T05:32:43Z</time>
      </trkpt>
      <trkpt lat="42.40827" lon="2.75917">
        <ele>715.4</ele>
        <time>2018-11-26T05:32:47Z</time>
      </trkpt>
      <trkpt lat="42.40821" lon="2.75923">
        <ele>713.1</ele>
        <time>2018-11-26T05:32:49Z</time>
      </trkpt>
      <trkpt lat="42.40824" lon="2.75905">
        <ele>711</ele>
        <time>2018-11-26T05:32:55Z</time>
      </trkpt>
      <trkpt lat="42.40824" lon="2.75894">
        <ele>710.6</ele>
        <time>2018-11-26T05:32:58Z</time>
      </trkpt>
      <trkpt lat="42.40825" lon="2.75886">
        <ele>710.2</ele>
        <time>2018-11-26T05:33:00Z</time>
      </trkpt>
      <trkpt lat="42.40828" lon="2.7587">
        <ele>708.6</ele>
        <time>2018-11-26T05:33:05Z</time>
      </trkpt>
      <trkpt lat="42.40829" lon="2.75859">
        <ele>706.7</ele>
        <time>2018-11-26T05:33:09Z</time>
      </trkpt>
      <trkpt lat="42.40829" lon="2.75847">
        <ele>705.8</ele>
        <time>2018-11-26T05:33:12Z</time>
      </trkpt>
      <trkpt lat="42.40829" lon="2.75845">
        <ele>704.8</ele>
        <time>2018-11-26T05:33:13Z</time>
      </trkpt>
      <trkpt lat="42.40832" lon="2.75833">
        <ele>703.9</ele>
        <time>2018-11-26T05:33:16Z</time>
      </trkpt>
      <trkpt lat="42.40827" lon="2.75833">
        <ele>700.9</ele>
        <time>2018-11-26T05:33:18Z</time>
      </trkpt>
      <trkpt lat="42.40822" lon="2.75819">
        <ele>698.5</ele>
        <time>2018-11-26T05:33:23Z</time>
      </trkpt>
      <trkpt lat="42.40819" lon="2.75801">
        <ele>695.2</ele>
        <time>2018-11-26T05:33:28Z</time>
      </trkpt>
      <trkpt lat="42.40816" lon="2.75791">
        <ele>692.4</ele>
        <time>2018-11-26T05:33:31Z</time>
      </trkpt>
      <trkpt lat="42.40821" lon="2.75777">
        <ele>690.8</ele>
        <time>2018-11-26T05:33:36Z</time>
      </trkpt>
      <trkpt lat="42.40823" lon="2.75772">
        <ele>691.4</ele>
        <time>2018-11-26T05:33:38Z</time>
      </trkpt>
      <trkpt lat="42.40826" lon="2.75761">
        <ele>691.3</ele>
        <time>2018-11-26T05:33:41Z</time>
      </trkpt>
      <trkpt lat="42.40824" lon="2.75754">
        <ele>691.3</ele>
        <time>2018-11-26T05:33:43Z</time>
      </trkpt>
      <trkpt lat="42.40818" lon="2.75742">
        <ele>689.9</ele>
        <time>2018-11-26T05:33:48Z</time>
      </trkpt>
      <trkpt lat="42.40814" lon="2.75737">
        <ele>688.9</ele>
        <time>2018-11-26T05:33:50Z</time>
      </trkpt>
      <trkpt lat="42.40809" lon="2.75727">
        <ele>687.1</ele>
        <time>2018-11-26T05:33:53Z</time>
      </trkpt>
      <trkpt lat="42.40807" lon="2.75708">
        <ele>684.6</ele>
        <time>2018-11-26T05:33:59Z</time>
      </trkpt>
      <trkpt lat="42.40802" lon="2.75695">
        <ele>681.2</ele>
        <time>2018-11-26T05:34:03Z</time>
      </trkpt>
      <trkpt lat="42.40794" lon="2.75681">
        <ele>679.4</ele>
        <time>2018-11-26T05:34:09Z</time>
      </trkpt>
      <trkpt lat="42.40792" lon="2.75674">
        <ele>676.9</ele>
        <time>2018-11-26T05:34:11Z</time>
      </trkpt>
      <trkpt lat="42.40786" lon="2.75663">
        <ele>674.1</ele>
        <time>2018-11-26T05:34:15Z</time>
      </trkpt>
      <trkpt lat="42.40785" lon="2.75643">
        <ele>671.1</ele>
        <time>2018-11-26T05:34:21Z</time>
      </trkpt>
      <trkpt lat="42.40786" lon="2.75641">
        <ele>671.1</ele>
        <time>2018-11-26T05:34:21Z</time>
      </trkpt>
      <trkpt lat="42.40788" lon="2.75626">
        <ele>668.7</ele>
        <time>2018-11-26T05:34:26Z</time>
      </trkpt>
      <trkpt lat="42.4079" lon="2.75617">
        <ele>666.8</ele>
        <time>2018-11-26T05:34:29Z</time>
      </trkpt>
      <trkpt lat="42.40787" lon="2.75606">
        <ele>664</ele>
        <time>2018-11-26T05:34:32Z</time>
      </trkpt>
      <trkpt lat="42.40782" lon="2.75591">
        <ele>661.1</ele>
        <time>2018-11-26T05:34:37Z</time>
      </trkpt>
      <trkpt lat="42.40773" lon="2.75587">
        <ele>660.7</ele>
        <time>2018-11-26T05:34:41Z</time>
      </trkpt>
      <trkpt lat="42.40762" lon="2.75589">
        <ele>660.1</ele>
        <time>2018-11-26T05:34:45Z</time>
      </trkpt>
      <trkpt lat="42.4075" lon="2.75591">
        <ele>659.7</ele>
        <time>2018-11-26T05:34:50Z</time>
      </trkpt>
      <trkpt lat="42.40738" lon="2.75598">
        <ele>659.1</ele>
        <time>2018-11-26T05:34:55Z</time>
      </trkpt>
      <trkpt lat="42.40728" lon="2.75601">
        <ele>656.2</ele>
        <time>2018-11-26T05:34:59Z</time>
      </trkpt>
      <trkpt lat="42.40721" lon="2.75604">
        <ele>653.5</ele>
        <time>2018-11-26T05:35:02Z</time>
      </trkpt>
      <trkpt lat="42.40709" lon="2.75607">
        <ele>651.4</ele>
        <time>2018-11-26T05:35:07Z</time>
      </trkpt>
      <trkpt lat="42.40696" lon="2.7561">
        <ele>649.5</ele>
        <time>2018-11-26T05:35:13Z</time>
      </trkpt>
      <trkpt lat="42.40687" lon="2.75615">
        <ele>646.1</ele>
        <time>2018-11-26T05:35:16Z</time>
      </trkpt>
      <trkpt lat="42.40679" lon="2.75618">
        <ele>644.8</ele>
        <time>2018-11-26T05:35:19Z</time>
      </trkpt>
      <trkpt lat="42.4067" lon="2.75623">
        <ele>643.4</ele>
        <time>2018-11-26T05:35:23Z</time>
      </trkpt>
      <trkpt lat="42.4066" lon="2.75625">
        <ele>640.9</ele>
        <time>2018-11-26T05:35:27Z</time>
      </trkpt>
      <trkpt lat="42.40648" lon="2.75627">
        <ele>639.5</ele>
        <time>2018-11-26T05:35:32Z</time>
      </trkpt>
      <trkpt lat="42.40642" lon="2.75629">
        <ele>638</ele>
        <time>2018-11-26T05:35:35Z</time>
      </trkpt>
      <trkpt lat="42.40634" lon="2.7563">
        <ele>634.7</ele>
        <time>2018-11-26T05:35:38Z</time>
      </trkpt>
      <trkpt lat="42.40626" lon="2.75623">
        <ele>633.3</ele>
        <time>2018-11-26T05:35:42Z</time>
      </trkpt>
      <trkpt lat="42.40624" lon="2.75622">
        <ele>632.8</ele>
        <time>2018-11-26T05:35:43Z</time>
      </trkpt>
      <trkpt lat="42.40611" lon="2.75624">
        <ele>629.8</ele>
        <time>2018-11-26T05:35:48Z</time>
      </trkpt>
      <trkpt lat="42.40605" lon="2.75633">
        <ele>627.9</ele>
        <time>2018-11-26T05:35:51Z</time>
      </trkpt>
      <trkpt lat="42.40598" lon="2.7564">
        <ele>626</ele>
        <time>2018-11-26T05:35:55Z</time>
      </trkpt>
      <trkpt lat="42.40593" lon="2.75645">
        <ele>624</ele>
        <time>2018-11-26T05:35:58Z</time>
      </trkpt>
      <trkpt lat="42.40587" lon="2.75657">
        <ele>621.6</ele>
        <time>2018-11-26T05:36:02Z</time>
      </trkpt>
      <trkpt lat="42.4058" lon="2.7567">
        <ele>621.3</ele>
        <time>2018-11-26T05:36:07Z</time>
      </trkpt>
      <trkpt lat="42.40572" lon="2.75678">
        <ele>620.8</ele>
        <time>2018-11-26T05:36:11Z</time>
      </trkpt>
      <trkpt lat="42.40571" lon="2.75682">
        <ele>619.7</ele>
        <time>2018-11-26T05:36:12Z</time>
      </trkpt>
      <trkpt lat="42.40566" lon="2.75695">
        <ele>618.4</ele>
        <time>2018-11-26T05:36:16Z</time>
      </trkpt>
      <trkpt lat="42.40556" lon="2.75703">
        <ele>617.3</ele>
        <time>2018-11-26T05:36:21Z</time>
      </trkpt>
      <trkpt lat="42.40547" lon="2.75707">
        <ele>615</ele>
        <time>2018-11-26T05:36:24Z</time>
      </trkpt>
      <trkpt lat="42.40538" lon="2.75713">
        <ele>612.5</ele>
        <time>2018-11-26T05:36:29Z</time>
      </trkpt>
      <trkpt lat="42.40523" lon="2.75713">
        <ele>610.1</ele>
        <time>2018-11-26T05:36:35Z</time>
      </trkpt>
      <trkpt lat="42.40509" lon="2.75707">
        <ele>608.7</ele>
        <time>2018-11-26T05:36:41Z</time>
      </trkpt>
      <trkpt lat="42.40495" lon="2.75695">
        <ele>608.8</ele>
        <time>2018-11-26T05:36:47Z</time>
      </trkpt>
      <trkpt lat="42.40479" lon="2.75682">
        <ele>607.2</ele>
        <time>2018-11-26T05:36:55Z</time>
      </trkpt>
      <trkpt lat="42.40471" lon="2.75677">
        <ele>605.8</ele>
        <time>2018-11-26T05:36:58Z</time>
      </trkpt>
      <trkpt lat="42.40453" lon="2.75674">
        <ele>603</ele>
        <time>2018-11-26T05:37:05Z</time>
      </trkpt>
      <trkpt lat="42.40446" lon="2.75684">
        <ele>601</ele>
        <time>2018-11-26T05:37:10Z</time>
      </trkpt>
      <trkpt lat="42.40443" lon="2.7569">
        <ele>599.6</ele>
        <time>2018-11-26T05:37:12Z</time>
      </trkpt>
      <trkpt lat="42.40452" lon="2.75701">
        <ele>597.6</ele>
        <time>2018-11-26T05:37:16Z</time>
      </trkpt>
      <trkpt lat="42.40459" lon="2.75712">
        <ele>596.2</ele>
        <time>2018-11-26T05:37:21Z</time>
      </trkpt>
      <trkpt lat="42.40465" lon="2.75722">
        <ele>594.2</ele>
        <time>2018-11-26T05:37:25Z</time>
      </trkpt>
      <trkpt lat="42.40469" lon="2.75726">
        <ele>593.3</ele>
        <time>2018-11-26T05:37:27Z</time>
      </trkpt>
      <trkpt lat="42.4048" lon="2.75743">
        <ele>590.4</ele>
        <time>2018-11-26T05:37:33Z</time>
      </trkpt>
      <trkpt lat="42.40486" lon="2.75753">
        <ele>591</ele>
        <time>2018-11-26T05:37:37Z</time>
      </trkpt>
      <trkpt lat="42.40492" lon="2.75764">
        <ele>589.9</ele>
        <time>2018-11-26T05:37:41Z</time>
      </trkpt>
      <trkpt lat="42.405" lon="2.75777">
        <ele>589.1</ele>
        <time>2018-11-26T05:37:46Z</time>
      </trkpt>
      <trkpt lat="42.40508" lon="2.75795">
        <ele>589.1</ele>
        <time>2018-11-26T05:37:52Z</time>
      </trkpt>
      <trkpt lat="42.40516" lon="2.75809">
        <ele>588.5</ele>
        <time>2018-11-26T05:37:57Z</time>
      </trkpt>
      <trkpt lat="42.40524" lon="2.75822">
        <ele>589</ele>
        <time>2018-11-26T05:38:03Z</time>
      </trkpt>
      <trkpt lat="42.40535" lon="2.75841">
        <ele>588</ele>
        <time>2018-11-26T05:38:10Z</time>
      </trkpt>
      <trkpt lat="42.40533" lon="2.75852">
        <ele>586.2</ele>
        <time>2018-11-26T05:38:13Z</time>
      </trkpt>
      <trkpt lat="42.40533" lon="2.7587">
        <ele>583.7</ele>
        <time>2018-11-26T05:38:18Z</time>
      </trkpt>
      <trkpt lat="42.40528" lon="2.75881">
        <ele>581.7</ele>
        <time>2018-11-26T05:38:22Z</time>
      </trkpt>
      <trkpt lat="42.40525" lon="2.75883">
        <ele>580.8</ele>
        <time>2018-11-26T05:38:24Z</time>
      </trkpt>
      <trkpt lat="42.40516" lon="2.75882">
        <ele>578</ele>
        <time>2018-11-26T05:38:27Z</time>
      </trkpt>
      <trkpt lat="42.40508" lon="2.7588">
        <ele>576</ele>
        <time>2018-11-26T05:38:30Z</time>
      </trkpt>
      <trkpt lat="42.40501" lon="2.75873">
        <ele>574.1</ele>
        <time>2018-11-26T05:38:34Z</time>
      </trkpt>
      <trkpt lat="42.40492" lon="2.7587">
        <ele>572.1</ele>
        <time>2018-11-26T05:38:38Z</time>
      </trkpt>
      <trkpt lat="42.40492" lon="2.7587">
        <ele>575.1</ele>
        <time>2018-11-26T05:38:38Z</time>
      </trkpt>
      <trkpt lat="42.40492" lon="2.75868">
        <ele>570.2</ele>
        <time>2018-11-26T05:38:38Z</time>
      </trkpt>
      <trkpt lat="42.40492" lon="2.75868">
        <ele>572.2</ele>
        <time>2018-11-26T05:38:38Z</time>
      </trkpt>
      <trkpt lat="42.40492" lon="2.75868">
        <ele>576.5</ele>
        <time>2018-11-26T05:38:38Z</time>
      </trkpt>
      <trkpt lat="42.40492" lon="2.75868">
        <ele>552.9</ele>
        <time>2018-11-26T05:38:38Z</time>
      </trkpt>
      <trkpt lat="42.40491" lon="2.75868">
        <ele>569.2</ele>
        <time>2018-11-26T05:38:38Z</time>
      </trkpt>
      <trkpt lat="42.40491" lon="2.75865">
        <ele>570.2</ele>
        <time>2018-11-26T05:38:39Z</time>
      </trkpt>
      <trkpt lat="42.40483" lon="2.75859">
        <ele>567.8</ele>
        <time>2018-11-26T05:38:43Z</time>
      </trkpt>
      <trkpt lat="42.40479" lon="2.75856">
        <ele>566.4</ele>
        <time>2018-11-26T05:38:44Z</time>
      </trkpt>
      <trkpt lat="42.40468" lon="2.75845">
        <ele>565.9</ele>
        <time>2018-11-26T05:38:50Z</time>
      </trkpt>
      <trkpt lat="42.40458" lon="2.7583">
        <ele>565</ele>
        <time>2018-11-26T05:38:56Z</time>
      </trkpt>
      <trkpt lat="42.40454" lon="2.75827">
        <ele>564.4</ele>
        <time>2018-11-26T05:38:58Z</time>
      </trkpt>
      <trkpt lat="42.40446" lon="2.75823">
        <ele>562</ele>
        <time>2018-11-26T05:39:01Z</time>
      </trkpt>
      <trkpt lat="42.40442" lon="2.75822">
        <ele>561.1</ele>
        <time>2018-11-26T05:39:03Z</time>
      </trkpt>
      <trkpt lat="42.40434" lon="2.7582">
        <ele>559.7</ele>
        <time>2018-11-26T05:39:06Z</time>
      </trkpt>
      <trkpt lat="42.4043" lon="2.7582">
        <ele>559.1</ele>
        <time>2018-11-26T05:39:08Z</time>
      </trkpt>
      <trkpt lat="42.40424" lon="2.75814">
        <ele>558.7</ele>
        <time>2018-11-26T05:39:11Z</time>
      </trkpt>
      <trkpt lat="42.40414" lon="2.75808">
        <ele>557.8</ele>
        <time>2018-11-26T05:39:15Z</time>
      </trkpt>
      <trkpt lat="42.40413" lon="2.75807">
        <ele>557.7</ele>
        <time>2018-11-26T05:39:15Z</time>
      </trkpt>
      <trkpt lat="42.40402" lon="2.75799">
        <ele>556.3</ele>
        <time>2018-11-26T05:39:20Z</time>
      </trkpt>
      <trkpt lat="42.40398" lon="2.75796">
        <ele>555.3</ele>
        <time>2018-11-26T05:39:22Z</time>
      </trkpt>
      <trkpt lat="42.40391" lon="2.75787">
        <ele>553.5</ele>
        <time>2018-11-26T05:39:26Z</time>
      </trkpt>
      <trkpt lat="42.40386" lon="2.75783">
        <ele>552.9</ele>
        <time>2018-11-26T05:39:29Z</time>
      </trkpt>
      <trkpt lat="42.40376" lon="2.75778">
        <ele>552.4</ele>
        <time>2018-11-26T05:39:33Z</time>
      </trkpt>
      <trkpt lat="42.40364" lon="2.7577">
        <ele>550.5</ele>
        <time>2018-11-26T05:39:38Z</time>
      </trkpt>
      <trkpt lat="42.40351" lon="2.75769">
        <ele>549.5</ele>
        <time>2018-11-26T05:39:43Z</time>
      </trkpt>
      <trkpt lat="42.40349" lon="2.7577">
        <ele>549.1</ele>
        <time>2018-11-26T05:39:44Z</time>
      </trkpt>
      <trkpt lat="42.40345" lon="2.75772">
        <ele>548.6</ele>
        <time>2018-11-26T05:39:46Z</time>
      </trkpt>
      <trkpt lat="42.40337" lon="2.7577">
        <ele>548.2</ele>
        <time>2018-11-26T05:39:49Z</time>
      </trkpt>
      <trkpt lat="42.4033" lon="2.75768">
        <ele>546.8</ele>
        <time>2018-11-26T05:39:52Z</time>
      </trkpt>
      <trkpt lat="42.40317" lon="2.75766">
        <ele>545.3</ele>
        <time>2018-11-26T05:39:57Z</time>
      </trkpt>
      <trkpt lat="42.40307" lon="2.75762">
        <ele>542.8</ele>
        <time>2018-11-26T05:40:02Z</time>
      </trkpt>
      <trkpt lat="42.40298" lon="2.75752">
        <ele>540.9</ele>
        <time>2018-11-26T05:40:06Z</time>
      </trkpt>
      <trkpt lat="42.40292" lon="2.7574">
        <ele>538.6</ele>
        <time>2018-11-26T05:40:10Z</time>
      </trkpt>
      <trkpt lat="42.40282" lon="2.7573">
        <ele>536.7</ele>
        <time>2018-11-26T05:40:15Z</time>
      </trkpt>
      <trkpt lat="42.40264" lon="2.7572">
        <ele>534.7</ele>
        <time>2018-11-26T05:40:23Z</time>
      </trkpt>
      <trkpt lat="42.40257" lon="2.75709">
        <ele>533.8</ele>
        <time>2018-11-26T05:40:28Z</time>
      </trkpt>
      <trkpt lat="42.40249" lon="2.75701">
        <ele>531.8</ele>
        <time>2018-11-26T05:40:32Z</time>
      </trkpt>
      <trkpt lat="42.40241" lon="2.7569">
        <ele>529.3</ele>
        <time>2018-11-26T05:40:36Z</time>
      </trkpt>
      <trkpt lat="42.40231" lon="2.75682">
        <ele>527.4</ele>
        <time>2018-11-26T05:40:41Z</time>
      </trkpt>
      <trkpt lat="42.40221" lon="2.75679">
        <ele>526.1</ele>
        <time>2018-11-26T05:40:45Z</time>
      </trkpt>
      <trkpt lat="42.40209" lon="2.75673">
        <ele>524.2</ele>
        <time>2018-11-26T05:40:50Z</time>
      </trkpt>
      <trkpt lat="42.40201" lon="2.7567">
        <ele>522.7</ele>
        <time>2018-11-26T05:40:53Z</time>
      </trkpt>
      <trkpt lat="42.40188" lon="2.7566">
        <ele>520.8</ele>
        <time>2018-11-26T05:40:59Z</time>
      </trkpt>
      <trkpt lat="42.40187" lon="2.75659">
        <ele>520.8</ele>
        <time>2018-11-26T05:41:00Z</time>
      </trkpt>
      <trkpt lat="42.40175" lon="2.75656">
        <ele>518.3</ele>
        <time>2018-11-26T05:41:05Z</time>
      </trkpt>
      <trkpt lat="42.40172" lon="2.75654">
        <ele>518.4</ele>
        <time>2018-11-26T05:41:06Z</time>
      </trkpt>
      <trkpt lat="42.40165" lon="2.75651">
        <ele>517.9</ele>
        <time>2018-11-26T05:41:09Z</time>
      </trkpt>
      <trkpt lat="42.40147" lon="2.75647">
        <ele>516.4</ele>
        <time>2018-11-26T05:41:16Z</time>
      </trkpt>
      <trkpt lat="42.40143" lon="2.75646">
        <ele>515.9</ele>
        <time>2018-11-26T05:41:18Z</time>
      </trkpt>
      <trkpt lat="42.40139" lon="2.75644">
        <ele>515.4</ele>
        <time>2018-11-26T05:41:20Z</time>
      </trkpt>
      <trkpt lat="42.40126" lon="2.7564">
        <ele>513.5</ele>
        <time>2018-11-26T05:41:25Z</time>
      </trkpt>
      <trkpt lat="42.4012" lon="2.7564">
        <ele>513.1</ele>
        <time>2018-11-26T05:41:27Z</time>
      </trkpt>
      <trkpt lat="42.40115" lon="2.75637">
        <ele>513.6</ele>
        <time>2018-11-26T05:41:29Z</time>
      </trkpt>
      <trkpt lat="42.40106" lon="2.75633">
        <ele>512.6</ele>
        <time>2018-11-26T05:41:33Z</time>
      </trkpt>
      <trkpt lat="42.40095" lon="2.75623">
        <ele>510.7</ele>
        <time>2018-11-26T05:41:38Z</time>
      </trkpt>
      <trkpt lat="42.40093" lon="2.75622">
        <ele>510.7</ele>
        <time>2018-11-26T05:41:39Z</time>
      </trkpt>
      <trkpt lat="42.40083" lon="2.75618">
        <ele>509.2</ele>
        <time>2018-11-26T05:41:44Z</time>
      </trkpt>
      <trkpt lat="42.40073" lon="2.75616">
        <ele>507.8</ele>
        <time>2018-11-26T05:41:47Z</time>
      </trkpt>
      <trkpt lat="42.40067" lon="2.756">
        <ele>506.3</ele>
        <time>2018-11-26T05:41:53Z</time>
      </trkpt>
      <trkpt lat="42.40067" lon="2.75599">
        <ele>506.8</ele>
        <time>2018-11-26T05:41:53Z</time>
      </trkpt>
      <trkpt lat="42.40058" lon="2.75595">
        <ele>503.9</ele>
        <time>2018-11-26T05:41:57Z</time>
      </trkpt>
      <trkpt lat="42.40055" lon="2.75597">
        <ele>503</ele>
        <time>2018-11-26T05:41:58Z</time>
      </trkpt>
      <trkpt lat="42.4004" lon="2.75598">
        <ele>501</ele>
        <time>2018-11-26T05:42:04Z</time>
      </trkpt>
      <trkpt lat="42.40033" lon="2.75599">
        <ele>499.1</ele>
        <time>2018-11-26T05:42:07Z</time>
      </trkpt>
      <trkpt lat="42.40024" lon="2.75598">
        <ele>497.2</ele>
        <time>2018-11-26T05:42:11Z</time>
      </trkpt>
      <trkpt lat="42.4002" lon="2.75591">
        <ele>495.3</ele>
        <time>2018-11-26T05:42:13Z</time>
      </trkpt>
      <trkpt lat="42.4001" lon="2.75587">
        <ele>492.8</ele>
        <time>2018-11-26T05:42:17Z</time>
      </trkpt>
      <trkpt lat="42.40001" lon="2.75584">
        <ele>491</ele>
        <time>2018-11-26T05:42:21Z</time>
      </trkpt>
      <trkpt lat="42.39983" lon="2.75581">
        <ele>488.1</ele>
        <time>2018-11-26T05:42:28Z</time>
      </trkpt>
      <trkpt lat="42.39976" lon="2.75577">
        <ele>484.6</ele>
        <time>2018-11-26T05:42:31Z</time>
      </trkpt>
      <trkpt lat="42.39968" lon="2.75578">
        <ele>481.8</ele>
        <time>2018-11-26T05:42:34Z</time>
      </trkpt>
      <trkpt lat="42.39953" lon="2.75583">
        <ele>481.3</ele>
        <time>2018-11-26T05:42:41Z</time>
      </trkpt>
      <trkpt lat="42.39929" lon="2.75581">
        <ele>479.5</ele>
        <time>2018-11-26T05:42:51Z</time>
      </trkpt>
      <trkpt lat="42.39921" lon="2.75569">
        <ele>477.5</ele>
        <time>2018-11-26T05:42:55Z</time>
      </trkpt>
      <trkpt lat="42.39908" lon="2.75561">
        <ele>476.5</ele>
        <time>2018-11-26T05:43:01Z</time>
      </trkpt>
      <trkpt lat="42.39904" lon="2.75552">
        <ele>476.1</ele>
        <time>2018-11-26T05:43:04Z</time>
      </trkpt>
      <trkpt lat="42.39897" lon="2.75546">
        <ele>475.5</ele>
        <time>2018-11-26T05:43:07Z</time>
      </trkpt>
      <trkpt lat="42.3988" lon="2.75542">
        <ele>473.1</ele>
        <time>2018-11-26T05:43:14Z</time>
      </trkpt>
      <trkpt lat="42.3987" lon="2.7554">
        <ele>471.2</ele>
        <time>2018-11-26T05:43:18Z</time>
      </trkpt>
      <trkpt lat="42.39856" lon="2.75541">
        <ele>468.9</ele>
        <time>2018-11-26T05:43:24Z</time>
      </trkpt>
      <trkpt lat="42.39853" lon="2.75545">
        <ele>467.8</ele>
        <time>2018-11-26T05:43:26Z</time>
      </trkpt>
      <trkpt lat="42.39849" lon="2.75547">
        <ele>468.3</ele>
        <time>2018-11-26T05:43:27Z</time>
      </trkpt>
      <trkpt lat="42.39844" lon="2.7555">
        <ele>467.3</ele>
        <time>2018-11-26T05:43:29Z</time>
      </trkpt>
      <trkpt lat="42.39834" lon="2.75551">
        <ele>466</ele>
        <time>2018-11-26T05:43:33Z</time>
      </trkpt>
      <trkpt lat="42.39823" lon="2.7555">
        <ele>464.1</ele>
        <time>2018-11-26T05:43:38Z</time>
      </trkpt>
      <trkpt lat="42.39815" lon="2.75546">
        <ele>464.1</ele>
        <time>2018-11-26T05:43:41Z</time>
      </trkpt>
      <trkpt lat="42.3981" lon="2.75539">
        <ele>464.1</ele>
        <time>2018-11-26T05:43:44Z</time>
      </trkpt>
      <trkpt lat="42.39806" lon="2.75536">
        <ele>463.6</ele>
        <time>2018-11-26T05:43:46Z</time>
      </trkpt>
      <trkpt lat="42.39806" lon="2.75536">
        <ele>463</ele>
        <time>2018-11-26T05:43:46Z</time>
      </trkpt>
      <trkpt lat="42.39806" lon="2.75535">
        <ele>463.5</ele>
        <time>2018-11-26T05:43:46Z</time>
      </trkpt>
      <trkpt lat="42.39806" lon="2.75525">
        <ele>461.7</ele>
        <time>2018-11-26T05:43:49Z</time>
      </trkpt>
      <trkpt lat="42.39807" lon="2.75505">
        <ele>459.7</ele>
        <time>2018-11-26T05:43:55Z</time>
      </trkpt>
      <trkpt lat="42.39805" lon="2.75495">
        <ele>458.7</ele>
        <time>2018-11-26T05:43:58Z</time>
      </trkpt>
      <trkpt lat="42.398" lon="2.75483">
        <ele>457.3</ele>
        <time>2018-11-26T05:44:02Z</time>
      </trkpt>
      <trkpt lat="42.39798" lon="2.7548">
        <ele>457.2</ele>
        <time>2018-11-26T05:44:04Z</time>
      </trkpt>
      <trkpt lat="42.39793" lon="2.75476">
        <ele>456.3</ele>
        <time>2018-11-26T05:44:06Z</time>
      </trkpt>
      <trkpt lat="42.3978" lon="2.7547">
        <ele>454.8</ele>
        <time>2018-11-26T05:44:11Z</time>
      </trkpt>
      <trkpt lat="42.39771" lon="2.75463">
        <ele>453</ele>
        <time>2018-11-26T05:44:15Z</time>
      </trkpt>
      <trkpt lat="42.3976" lon="2.75455">
        <ele>451.6</ele>
        <time>2018-11-26T05:44:20Z</time>
      </trkpt>
      <trkpt lat="42.39747" lon="2.75445">
        <ele>450.1</ele>
        <time>2018-11-26T05:44:26Z</time>
      </trkpt>
      <trkpt lat="42.39738" lon="2.75438">
        <ele>449.1</ele>
        <time>2018-11-26T05:44:31Z</time>
      </trkpt>
      <trkpt lat="42.39735" lon="2.75435">
        <ele>448.2</ele>
        <time>2018-11-26T05:44:32Z</time>
      </trkpt>
      <trkpt lat="42.39732" lon="2.75432">
        <ele>448.1</ele>
        <time>2018-11-26T05:44:34Z</time>
      </trkpt>
      <trkpt lat="42.3972" lon="2.75424">
        <ele>446.7</ele>
        <time>2018-11-26T05:44:39Z</time>
      </trkpt>
      <trkpt lat="42.39708" lon="2.75415">
        <ele>444.9</ele>
        <time>2018-11-26T05:44:44Z</time>
      </trkpt>
      <trkpt lat="42.39698" lon="2.7541">
        <ele>442.9</ele>
        <time>2018-11-26T05:44:49Z</time>
      </trkpt>
      <trkpt lat="42.3969" lon="2.75404">
        <ele>440.4</ele>
        <time>2018-11-26T05:44:52Z</time>
      </trkpt>
      <trkpt lat="42.39675" lon="2.75397">
        <ele>437.5</ele>
        <time>2018-11-26T05:44:59Z</time>
      </trkpt>
      <trkpt lat="42.39664" lon="2.75395">
        <ele>435.2</ele>
        <time>2018-11-26T05:45:03Z</time>
      </trkpt>
      <trkpt lat="42.3965" lon="2.75394">
        <ele>432.4</ele>
        <time>2018-11-26T05:45:09Z</time>
      </trkpt>
      <trkpt lat="42.39633" lon="2.75392">
        <ele>429.5</ele>
        <time>2018-11-26T05:45:15Z</time>
      </trkpt>
      <trkpt lat="42.39619" lon="2.75393">
        <ele>427.5</ele>
        <time>2018-11-26T05:45:21Z</time>
      </trkpt>
      <trkpt lat="42.39608" lon="2.75388">
        <ele>426.1</ele>
        <time>2018-11-26T05:45:26Z</time>
      </trkpt>
      <trkpt lat="42.39597" lon="2.75381">
        <ele>424.6</ele>
        <time>2018-11-26T05:45:31Z</time>
      </trkpt>
      <trkpt lat="42.39586" lon="2.7537">
        <ele>422.6</ele>
        <time>2018-11-26T05:45:36Z</time>
      </trkpt>
      <trkpt lat="42.39568" lon="2.75353">
        <ele>420.8</ele>
        <time>2018-11-26T05:45:45Z</time>
      </trkpt>
      <trkpt lat="42.3955" lon="2.75347">
        <ele>417.4</ele>
        <time>2018-11-26T05:45:52Z</time>
      </trkpt>
      <trkpt lat="42.39541" lon="2.75344">
        <ele>415.4</ele>
        <time>2018-11-26T05:45:56Z</time>
      </trkpt>
      <trkpt lat="42.39534" lon="2.75345">
        <ele>414.5</ele>
        <time>2018-11-26T05:45:59Z</time>
      </trkpt>
      <trkpt lat="42.39525" lon="2.75345">
        <ele>413.5</ele>
        <time>2018-11-26T05:46:02Z</time>
      </trkpt>
      <trkpt lat="42.39517" lon="2.75344">
        <ele>413.1</ele>
        <time>2018-11-26T05:46:06Z</time>
      </trkpt>
      <trkpt lat="42.39516" lon="2.75341">
        <ele>411.6</ele>
        <time>2018-11-26T05:46:07Z</time>
      </trkpt>
      <trkpt lat="42.39514" lon="2.75337">
        <ele>412.2</ele>
        <time>2018-11-26T05:46:08Z</time>
      </trkpt>
      <trkpt lat="42.39508" lon="2.75321">
        <ele>414.1</ele>
        <time>2018-11-26T05:46:13Z</time>
      </trkpt>
      <trkpt lat="42.39498" lon="2.75313">
        <ele>412.5</ele>
        <time>2018-11-26T05:46:18Z</time>
      </trkpt>
      <trkpt lat="42.39487" lon="2.75299">
        <ele>413.5</ele>
        <time>2018-11-26T05:46:24Z</time>
      </trkpt>
      <trkpt lat="42.39477" lon="2.75297">
        <ele>413.5</ele>
        <time>2018-11-26T05:46:28Z</time>
      </trkpt>
      <trkpt lat="42.39465" lon="2.75294">
        <ele>414.5</ele>
        <time>2018-11-26T05:46:33Z</time>
      </trkpt>
      <trkpt lat="42.39458" lon="2.75288">
        <ele>415.1</ele>
        <time>2018-11-26T05:46:36Z</time>
      </trkpt>
      <trkpt lat="42.39455" lon="2.75284">
        <ele>415.1</ele>
        <time>2018-11-26T05:46:38Z</time>
      </trkpt>
      <trkpt lat="42.39453" lon="2.7528">
        <ele>415</ele>
        <time>2018-11-26T05:46:39Z</time>
      </trkpt>
      <trkpt lat="42.39438" lon="2.75254">
        <ele>415.9</ele>
        <time>2018-11-26T05:46:49Z</time>
      </trkpt>
      <trkpt lat="42.39427" lon="2.75247">
        <ele>417</ele>
        <time>2018-11-26T05:46:54Z</time>
      </trkpt>
      <trkpt lat="42.39416" lon="2.75246">
        <ele>418.4</ele>
        <time>2018-11-26T05:46:58Z</time>
      </trkpt>
      <trkpt lat="42.39403" lon="2.75243">
        <ele>418.3</ele>
        <time>2018-11-26T05:47:04Z</time>
      </trkpt>
      <trkpt lat="42.3939" lon="2.75239">
        <ele>418.8</ele>
        <time>2018-11-26T05:47:09Z</time>
      </trkpt>
      <trkpt lat="42.39388" lon="2.75237">
        <ele>418.8</ele>
        <time>2018-11-26T05:47:10Z</time>
      </trkpt>
      <trkpt lat="42.39372" lon="2.75237">
        <ele>417</ele>
        <time>2018-11-26T05:47:16Z</time>
      </trkpt>
      <trkpt lat="42.39358" lon="2.75237">
        <ele>416.4</ele>
        <time>2018-11-26T05:47:22Z</time>
      </trkpt>
      <trkpt lat="42.39348" lon="2.75234">
        <ele>415.5</ele>
        <time>2018-11-26T05:47:26Z</time>
      </trkpt>
      <trkpt lat="42.39333" lon="2.75223">
        <ele>415</ele>
        <time>2018-11-26T05:47:33Z</time>
      </trkpt>
      <trkpt lat="42.39324" lon="2.75216">
        <ele>415.1</ele>
        <time>2018-11-26T05:47:37Z</time>
      </trkpt>
      <trkpt lat="42.39319" lon="2.75211">
        <ele>415.1</ele>
        <time>2018-11-26T05:47:40Z</time>
      </trkpt>
      <trkpt lat="42.3931" lon="2.75199">
        <ele>414.1</ele>
        <time>2018-11-26T05:47:45Z</time>
      </trkpt>
      <trkpt lat="42.39301" lon="2.75189">
        <ele>412.2</ele>
        <time>2018-11-26T05:47:49Z</time>
      </trkpt>
      <trkpt lat="42.39295" lon="2.7518">
        <ele>410.6</ele>
        <time>2018-11-26T05:47:53Z</time>
      </trkpt>
      <trkpt lat="42.39293" lon="2.75175">
        <ele>410.6</ele>
        <time>2018-11-26T05:47:54Z</time>
      </trkpt>
      <trkpt lat="42.39289" lon="2.75152">
        <ele>410.6</ele>
        <time>2018-11-26T05:48:01Z</time>
      </trkpt>
      <trkpt lat="42.39289" lon="2.75136">
        <ele>409.2</ele>
        <time>2018-11-26T05:48:06Z</time>
      </trkpt>
      <trkpt lat="42.39286" lon="2.75128">
        <ele>407.8</ele>
        <time>2018-11-26T05:48:09Z</time>
      </trkpt>
      <trkpt lat="42.39282" lon="2.7512">
        <ele>406.9</ele>
        <time>2018-11-26T05:48:12Z</time>
      </trkpt>
      <trkpt lat="42.39281" lon="2.75101">
        <ele>405.3</ele>
        <time>2018-11-26T05:48:17Z</time>
      </trkpt>
      <trkpt lat="42.39277" lon="2.75088">
        <ele>404.9</ele>
        <time>2018-11-26T05:48:21Z</time>
      </trkpt>
      <trkpt lat="42.3927" lon="2.75068">
        <ele>403</ele>
        <time>2018-11-26T05:48:28Z</time>
      </trkpt>
      <trkpt lat="42.39263" lon="2.75056">
        <ele>401.6</ele>
        <time>2018-11-26T05:48:32Z</time>
      </trkpt>
      <trkpt lat="42.39262" lon="2.75055">
        <ele>401.6</ele>
        <time>2018-11-26T05:48:33Z</time>
      </trkpt>
      <trkpt lat="42.39252" lon="2.75054">
        <ele>400.1</ele>
        <time>2018-11-26T05:48:37Z</time>
      </trkpt>
      <trkpt lat="42.39245" lon="2.75055">
        <ele>397.6</ele>
        <time>2018-11-26T05:48:40Z</time>
      </trkpt>
      <trkpt lat="42.39238" lon="2.75054">
        <ele>395.2</ele>
        <time>2018-11-26T05:48:42Z</time>
      </trkpt>
      <trkpt lat="42.39228" lon="2.75055">
        <ele>393.4</ele>
        <time>2018-11-26T05:48:47Z</time>
      </trkpt>
      <trkpt lat="42.39225" lon="2.7506">
        <ele>392.5</ele>
        <time>2018-11-26T05:48:48Z</time>
      </trkpt>
      <trkpt lat="42.39215" lon="2.75068">
        <ele>391</ele>
        <time>2018-11-26T05:48:53Z</time>
      </trkpt>
      <trkpt lat="42.39213" lon="2.75071">
        <ele>390.4</ele>
        <time>2018-11-26T05:48:54Z</time>
      </trkpt>
      <trkpt lat="42.39211" lon="2.75071">
        <ele>390.5</ele>
        <time>2018-11-26T05:48:55Z</time>
      </trkpt>
      <trkpt lat="42.39202" lon="2.75079">
        <ele>388</ele>
        <time>2018-11-26T05:48:59Z</time>
      </trkpt>
      <trkpt lat="42.39198" lon="2.7508">
        <ele>388.1</ele>
        <time>2018-11-26T05:49:01Z</time>
      </trkpt>
      <trkpt lat="42.39197" lon="2.75081">
        <ele>387.7</ele>
        <time>2018-11-26T05:49:01Z</time>
      </trkpt>
      <trkpt lat="42.39184" lon="2.75087">
        <ele>385.3</ele>
        <time>2018-11-26T05:49:07Z</time>
      </trkpt>
      <trkpt lat="42.3917" lon="2.7509">
        <ele>382.3</ele>
        <time>2018-11-26T05:49:13Z</time>
      </trkpt>
      <trkpt lat="42.39163" lon="2.75092">
        <ele>381.3</ele>
        <time>2018-11-26T05:49:15Z</time>
      </trkpt>
      <trkpt lat="42.39157" lon="2.75095">
        <ele>380.4</ele>
        <time>2018-11-26T05:49:18Z</time>
      </trkpt>
      <trkpt lat="42.39155" lon="2.75096">
        <ele>380</ele>
        <time>2018-11-26T05:49:19Z</time>
      </trkpt>
      <trkpt lat="42.39153" lon="2.75098">
        <ele>379.4</ele>
        <time>2018-11-26T05:49:20Z</time>
      </trkpt>
      <trkpt lat="42.39141" lon="2.75105">
        <ele>377.1</ele>
        <time>2018-11-26T05:49:25Z</time>
      </trkpt>
      <trkpt lat="42.39131" lon="2.75109">
        <ele>376.1</ele>
        <time>2018-11-26T05:49:29Z</time>
      </trkpt>
      <trkpt lat="42.39117" lon="2.75108">
        <ele>373.2</ele>
        <time>2018-11-26T05:49:35Z</time>
      </trkpt>
      <trkpt lat="42.39114" lon="2.75121">
        <ele>373.2</ele>
        <time>2018-11-26T05:49:39Z</time>
      </trkpt>
      <trkpt lat="42.39105" lon="2.75118">
        <ele>371.3</ele>
        <time>2018-11-26T05:49:43Z</time>
      </trkpt>
      <trkpt lat="42.39098" lon="2.75108">
        <ele>368.8</ele>
        <time>2018-11-26T05:49:47Z</time>
      </trkpt>
      <trkpt lat="42.39089" lon="2.75098">
        <ele>368.8</ele>
        <time>2018-11-26T05:49:51Z</time>
      </trkpt>
      <trkpt lat="42.39082" lon="2.751">
        <ele>367.8</ele>
        <time>2018-11-26T05:49:54Z</time>
      </trkpt>
      <trkpt lat="42.39075" lon="2.75103">
        <ele>367.5</ele>
        <time>2018-11-26T05:49:57Z</time>
      </trkpt>
      <trkpt lat="42.39067" lon="2.75104">
        <ele>366.5</ele>
        <time>2018-11-26T05:50:00Z</time>
      </trkpt>
      <trkpt lat="42.39063" lon="2.75105">
        <ele>366.4</ele>
        <time>2018-11-26T05:50:02Z</time>
      </trkpt>
      <trkpt lat="42.39053" lon="2.75107">
        <ele>365.5</ele>
        <time>2018-11-26T05:50:06Z</time>
      </trkpt>
      <trkpt lat="42.39049" lon="2.75109">
        <ele>365.5</ele>
        <time>2018-11-26T05:50:08Z</time>
      </trkpt>
      <trkpt lat="42.3904" lon="2.75115">
        <ele>364</ele>
        <time>2018-11-26T05:50:12Z</time>
      </trkpt>
      <trkpt lat="42.39036" lon="2.75111">
        <ele>363.5</ele>
        <time>2018-11-26T05:50:13Z</time>
      </trkpt>
      <trkpt lat="42.39036" lon="2.75109">
        <ele>363.6</ele>
        <time>2018-11-26T05:50:14Z</time>
      </trkpt>
      <trkpt lat="42.39022" lon="2.75099">
        <ele>363</ele>
        <time>2018-11-26T05:50:21Z</time>
      </trkpt>
      <trkpt lat="42.39009" lon="2.75093">
        <ele>363</ele>
        <time>2018-11-26T05:50:26Z</time>
      </trkpt>
      <trkpt lat="42.39001" lon="2.75089">
        <ele>363</ele>
        <time>2018-11-26T05:50:29Z</time>
      </trkpt>
      <trkpt lat="42.38986" lon="2.7508">
        <ele>363.1</ele>
        <time>2018-11-26T05:50:36Z</time>
      </trkpt>
      <trkpt lat="42.38983" lon="2.75078">
        <ele>363</ele>
        <time>2018-11-26T05:50:38Z</time>
      </trkpt>
      <trkpt lat="42.38967" lon="2.75077">
        <ele>362.2</ele>
        <time>2018-11-26T05:50:44Z</time>
      </trkpt>
      <trkpt lat="42.38958" lon="2.75065">
        <ele>362.2</ele>
        <time>2018-11-26T05:50:49Z</time>
      </trkpt>
      <trkpt lat="42.38952" lon="2.75049">
        <ele>361.1</ele>
        <time>2018-11-26T05:50:54Z</time>
      </trkpt>
      <trkpt lat="42.38944" lon="2.75034">
        <ele>360.6</ele>
        <time>2018-11-26T05:51:00Z</time>
      </trkpt>
      <trkpt lat="42.38941" lon="2.75028">
        <ele>360.3</ele>
        <time>2018-11-26T05:51:02Z</time>
      </trkpt>
      <trkpt lat="42.38935" lon="2.75021">
        <ele>360.3</ele>
        <time>2018-11-26T05:51:05Z</time>
      </trkpt>
      <trkpt lat="42.38934" lon="2.75017">
        <ele>360.6</ele>
        <time>2018-11-26T05:51:06Z</time>
      </trkpt>
      <trkpt lat="42.38932" lon="2.75015">
        <ele>360.2</ele>
        <time>2018-11-26T05:51:07Z</time>
      </trkpt>
      <trkpt lat="42.38921" lon="2.74999">
        <ele>360.2</ele>
        <time>2018-11-26T05:51:14Z</time>
      </trkpt>
      <trkpt lat="42.3892" lon="2.7498">
        <ele>360.7</ele>
        <time>2018-11-26T05:51:19Z</time>
      </trkpt>
      <trkpt lat="42.38928" lon="2.74954">
        <ele>360.2</ele>
        <time>2018-11-26T05:51:28Z</time>
      </trkpt>
      <trkpt lat="42.38928" lon="2.7495">
        <ele>359.2</ele>
        <time>2018-11-26T05:51:29Z</time>
      </trkpt>
      <trkpt lat="42.38927" lon="2.74941">
        <ele>358.7</ele>
        <time>2018-11-26T05:51:32Z</time>
      </trkpt>
      <trkpt lat="42.38921" lon="2.74932">
        <ele>358.3</ele>
        <time>2018-11-26T05:51:35Z</time>
      </trkpt>
      <trkpt lat="42.3892" lon="2.74932">
        <ele>357.4</ele>
        <time>2018-11-26T05:51:35Z</time>
      </trkpt>
      <trkpt lat="42.38911" lon="2.74929">
        <ele>355.9</ele>
        <time>2018-11-26T05:51:39Z</time>
      </trkpt>
      <trkpt lat="42.389" lon="2.74926">
        <ele>357.4</ele>
        <time>2018-11-26T05:51:44Z</time>
      </trkpt>
      <trkpt lat="42.38892" lon="2.74913">
        <ele>357.3</ele>
        <time>2018-11-26T05:51:49Z</time>
      </trkpt>
      <trkpt lat="42.38876" lon="2.7489">
        <ele>358.2</ele>
        <time>2018-11-26T05:51:58Z</time>
      </trkpt>
      <trkpt lat="42.38857" lon="2.74886">
        <ele>358.7</ele>
        <time>2018-11-26T05:52:06Z</time>
      </trkpt>
      <trkpt lat="42.38849" lon="2.74885">
        <ele>359.3</ele>
        <time>2018-11-26T05:52:09Z</time>
      </trkpt>
      <trkpt lat="42.38834" lon="2.74876">
        <ele>359.2</ele>
        <time>2018-11-26T05:52:16Z</time>
      </trkpt>
      <trkpt lat="42.38828" lon="2.74871">
        <ele>360.3</ele>
        <time>2018-11-26T05:52:18Z</time>
      </trkpt>
      <trkpt lat="42.38813" lon="2.7486">
        <ele>360.2</ele>
        <time>2018-11-26T05:52:25Z</time>
      </trkpt>
      <trkpt lat="42.38799" lon="2.74847">
        <ele>360.7</ele>
        <time>2018-11-26T05:52:32Z</time>
      </trkpt>
      <trkpt lat="42.38782" lon="2.74836">
        <ele>361.1</ele>
        <time>2018-11-26T05:52:40Z</time>
      </trkpt>
      <trkpt lat="42.3877" lon="2.74833">
        <ele>360.2</ele>
        <time>2018-11-26T05:52:45Z</time>
      </trkpt>
      <trkpt lat="42.38753" lon="2.74823">
        <ele>358.7</ele>
        <time>2018-11-26T05:52:52Z</time>
      </trkpt>
      <trkpt lat="42.38744" lon="2.74822">
        <ele>357.3</ele>
        <time>2018-11-26T05:52:56Z</time>
      </trkpt>
      <trkpt lat="42.38734" lon="2.74823">
        <ele>357.3</ele>
        <time>2018-11-26T05:52:59Z</time>
      </trkpt>
      <trkpt lat="42.38728" lon="2.74824">
        <ele>356.3</ele>
        <time>2018-11-26T05:53:02Z</time>
      </trkpt>
      <trkpt lat="42.38724" lon="2.74828">
        <ele>356.3</ele>
        <time>2018-11-26T05:53:04Z</time>
      </trkpt>
      <trkpt lat="42.38718" lon="2.74834">
        <ele>355.8</ele>
        <time>2018-11-26T05:53:07Z</time>
      </trkpt>
      <trkpt lat="42.38714" lon="2.74839">
        <ele>355.4</ele>
        <time>2018-11-26T05:53:09Z</time>
      </trkpt>
      <trkpt lat="42.38712" lon="2.74842">
        <ele>352.9</ele>
        <time>2018-11-26T05:53:10Z</time>
      </trkpt>
      <trkpt lat="42.38711" lon="2.74843">
        <ele>349.2</ele>
        <time>2018-11-26T05:53:11Z</time>
      </trkpt>
      <trkpt lat="42.38704" lon="2.74847">
        <ele>354.5</ele>
        <time>2018-11-26T05:53:14Z</time>
      </trkpt>
      <trkpt lat="42.38703" lon="2.74847">
        <ele>354.5</ele>
        <time>2018-11-26T05:53:14Z</time>
      </trkpt>
      <trkpt lat="42.38703" lon="2.74847">
        <ele>357.3</ele>
        <time>2018-11-26T05:53:14Z</time>
      </trkpt>
      <trkpt lat="42.38703" lon="2.74847">
        <ele>357.9</ele>
        <time>2018-11-26T05:53:14Z</time>
      </trkpt>
      <trkpt lat="42.38704" lon="2.74848">
        <ele>354.9</ele>
        <time>2018-11-26T05:53:14Z</time>
      </trkpt>
      <trkpt lat="42.38704" lon="2.74848">
        <ele>351.5</ele>
        <time>2018-11-26T05:53:14Z</time>
      </trkpt>
      <trkpt lat="42.38704" lon="2.74848">
        <ele>359.2</ele>
        <time>2018-11-26T05:53:14Z</time>
      </trkpt>
      <trkpt lat="42.38704" lon="2.74848">
        <ele>350.5</ele>
        <time>2018-11-26T05:53:14Z</time>
      </trkpt>
      <trkpt lat="42.38594" lon="2.74737">
        <ele>351</ele>
        <time>2018-11-26T07:06:06Z</time>
      </trkpt>
      <trkpt lat="42.38594" lon="2.74737">
        <ele>333.3</ele>
        <time>2018-11-26T07:06:06Z</time>
      </trkpt>
      <trkpt lat="42.38594" lon="2.74737">
        <ele>352.9</ele>
        <time>2018-11-26T07:06:06Z</time>
      </trkpt>
      <trkpt lat="42.38594" lon="2.74737">
        <ele>349.6</ele>
        <time>2018-11-26T07:06:06Z</time>
      </trkpt>
      <trkpt lat="42.38594" lon="2.74737">
        <ele>359.7</ele>
        <time>2018-11-26T07:06:06Z</time>
      </trkpt>
      <trkpt lat="42.38594" lon="2.74737">
        <ele>351.1</ele>
        <time>2018-11-26T07:06:06Z</time>
      </trkpt>
      <trkpt lat="42.38594" lon="2.74737">
        <ele>339.1</ele>
        <time>2018-11-26T07:06:06Z</time>
      </trkpt>
      <trkpt lat="42.38586" lon="2.74741">
        <ele>349.7</ele>
        <time>2018-11-26T07:06:09Z</time>
      </trkpt>
      <trkpt lat="42.38562" lon="2.74737">
        <ele>349.7</ele>
        <time>2018-11-26T07:06:19Z</time>
      </trkpt>
      <trkpt lat="42.38548" lon="2.74735">
        <ele>348.7</ele>
        <time>2018-11-26T07:06:24Z</time>
      </trkpt>
      <trkpt lat="42.38545" lon="2.74738">
        <ele>348.6</ele>
        <time>2018-11-26T07:06:26Z</time>
      </trkpt>
      <trkpt lat="42.38536" lon="2.74748">
        <ele>348.6</ele>
        <time>2018-11-26T07:06:30Z</time>
      </trkpt>
      <trkpt lat="42.38529" lon="2.7475">
        <ele>348.2</ele>
        <time>2018-11-26T07:06:33Z</time>
      </trkpt>
      <trkpt lat="42.38525" lon="2.74753">
        <ele>347.7</ele>
        <time>2018-11-26T07:06:35Z</time>
      </trkpt>
      <trkpt lat="42.38516" lon="2.7476">
        <ele>348.1</ele>
        <time>2018-11-26T07:06:39Z</time>
      </trkpt>
      <trkpt lat="42.38517" lon="2.74758">
        <ele>348.6</ele>
        <time>2018-11-26T07:06:40Z</time>
      </trkpt>
      <trkpt lat="42.38513" lon="2.74766">
        <ele>348.7</ele>
        <time>2018-11-26T07:06:43Z</time>
      </trkpt>
      <trkpt lat="42.38508" lon="2.74769">
        <ele>348.1</ele>
        <time>2018-11-26T07:06:45Z</time>
      </trkpt>
      <trkpt lat="42.38497" lon="2.7478">
        <ele>347.8</ele>
        <time>2018-11-26T07:06:51Z</time>
      </trkpt>
      <trkpt lat="42.38482" lon="2.74797">
        <ele>347.3</ele>
        <time>2018-11-26T07:06:58Z</time>
      </trkpt>
      <trkpt lat="42.3847" lon="2.7482">
        <ele>347.3</ele>
        <time>2018-11-26T07:07:07Z</time>
      </trkpt>
      <trkpt lat="42.38461" lon="2.74828">
        <ele>347.2</ele>
        <time>2018-11-26T07:07:11Z</time>
      </trkpt>
      <trkpt lat="42.38447" lon="2.74838">
        <ele>347.2</ele>
        <time>2018-11-26T07:07:17Z</time>
      </trkpt>
      <trkpt lat="42.38434" lon="2.74859">
        <ele>347.7</ele>
        <time>2018-11-26T07:07:25Z</time>
      </trkpt>
      <trkpt lat="42.38422" lon="2.74871">
        <ele>347.7</ele>
        <time>2018-11-26T07:07:31Z</time>
      </trkpt>
      <trkpt lat="42.38418" lon="2.74875">
        <ele>348.6</ele>
        <time>2018-11-26T07:07:33Z</time>
      </trkpt>
      <trkpt lat="42.38389" lon="2.74876">
        <ele>347.3</ele>
        <time>2018-11-26T07:07:45Z</time>
      </trkpt>
      <trkpt lat="42.38382" lon="2.74846">
        <ele>347.7</ele>
        <time>2018-11-26T07:07:54Z</time>
      </trkpt>
      <trkpt lat="42.38384" lon="2.74837">
        <ele>347.7</ele>
        <time>2018-11-26T07:07:57Z</time>
      </trkpt>
      <trkpt lat="42.38377" lon="2.74833">
        <ele>348.1</ele>
        <time>2018-11-26T07:08:00Z</time>
      </trkpt>
      <trkpt lat="42.38371" lon="2.74833">
        <ele>348.6</ele>
        <time>2018-11-26T07:08:02Z</time>
      </trkpt>
      <trkpt lat="42.38365" lon="2.74829">
        <ele>348.1</ele>
        <time>2018-11-26T07:08:05Z</time>
      </trkpt>
      <trkpt lat="42.38361" lon="2.74826">
        <ele>348.1</ele>
        <time>2018-11-26T07:08:07Z</time>
      </trkpt>
      <trkpt lat="42.38354" lon="2.7482">
        <ele>348.7</ele>
        <time>2018-11-26T07:08:10Z</time>
      </trkpt>
      <trkpt lat="42.38334" lon="2.74807">
        <ele>350.2</ele>
        <time>2018-11-26T07:08:19Z</time>
      </trkpt>
      <trkpt lat="42.38317" lon="2.74797">
        <ele>351.5</ele>
        <time>2018-11-26T07:08:27Z</time>
      </trkpt>
      <trkpt lat="42.38302" lon="2.74791">
        <ele>352.9</ele>
        <time>2018-11-26T07:08:33Z</time>
      </trkpt>
      <trkpt lat="42.38298" lon="2.74791">
        <ele>354</ele>
        <time>2018-11-26T07:08:35Z</time>
      </trkpt>
      <trkpt lat="42.38295" lon="2.74791">
        <ele>354</ele>
        <time>2018-11-26T07:08:36Z</time>
      </trkpt>
      <trkpt lat="42.38291" lon="2.74801">
        <ele>353.4</ele>
        <time>2018-11-26T07:08:39Z</time>
      </trkpt>
      <trkpt lat="42.38288" lon="2.74808">
        <ele>354</ele>
        <time>2018-11-26T07:08:41Z</time>
      </trkpt>
      <trkpt lat="42.38288" lon="2.74809">
        <ele>358.2</ele>
        <time>2018-11-26T07:08:42Z</time>
      </trkpt>
      <trkpt lat="42.38288" lon="2.7482">
        <ele>353.5</ele>
        <time>2018-11-26T07:08:45Z</time>
      </trkpt>
      <trkpt lat="42.38287" lon="2.74831">
        <ele>353.9</ele>
        <time>2018-11-26T07:08:48Z</time>
      </trkpt>
      <trkpt lat="42.38285" lon="2.74854">
        <ele>354.5</ele>
        <time>2018-11-26T07:08:55Z</time>
      </trkpt>
      <trkpt lat="42.38284" lon="2.7488">
        <ele>355.3</ele>
        <time>2018-11-26T07:09:03Z</time>
      </trkpt>
      <trkpt lat="42.3828" lon="2.749">
        <ele>355.3</ele>
        <time>2018-11-26T07:09:09Z</time>
      </trkpt>
      <trkpt lat="42.38275" lon="2.74903">
        <ele>355.8</ele>
        <time>2018-11-26T07:09:11Z</time>
      </trkpt>
      <trkpt lat="42.38269" lon="2.74909">
        <ele>355.8</ele>
        <time>2018-11-26T07:09:14Z</time>
      </trkpt>
      <trkpt lat="42.38259" lon="2.74916">
        <ele>356.9</ele>
        <time>2018-11-26T07:09:18Z</time>
      </trkpt>
      <trkpt lat="42.38243" lon="2.74918">
        <ele>356.9</ele>
        <time>2018-11-26T07:09:25Z</time>
      </trkpt>
      <trkpt lat="42.38235" lon="2.74921">
        <ele>357.9</ele>
        <time>2018-11-26T07:09:28Z</time>
      </trkpt>
      <trkpt lat="42.38225" lon="2.74923">
        <ele>357.4</ele>
        <time>2018-11-26T07:09:32Z</time>
      </trkpt>
      <trkpt lat="42.38199" lon="2.74928">
        <ele>357.4</ele>
        <time>2018-11-26T07:09:43Z</time>
      </trkpt>
      <trkpt lat="42.38178" lon="2.74936">
        <ele>356.4</ele>
        <time>2018-11-26T07:09:51Z</time>
      </trkpt>
      <trkpt lat="42.38156" lon="2.74948">
        <ele>355.9</ele>
        <time>2018-11-26T07:10:01Z</time>
      </trkpt>
      <trkpt lat="42.38134" lon="2.7496">
        <ele>354.4</ele>
        <time>2018-11-26T07:10:11Z</time>
      </trkpt>
      <trkpt lat="42.38128" lon="2.74964">
        <ele>354.4</ele>
        <time>2018-11-26T07:10:13Z</time>
      </trkpt>
      <trkpt lat="42.3811" lon="2.74971">
        <ele>354.4</ele>
        <time>2018-11-26T07:10:21Z</time>
      </trkpt>
      <trkpt lat="42.38079" lon="2.74981">
        <ele>354.4</ele>
        <time>2018-11-26T07:10:34Z</time>
      </trkpt>
      <trkpt lat="42.3807" lon="2.74983">
        <ele>353.9</ele>
        <time>2018-11-26T07:10:37Z</time>
      </trkpt>
      <trkpt lat="42.38046" lon="2.75001">
        <ele>353.4</ele>
        <time>2018-11-26T07:10:48Z</time>
      </trkpt>
      <trkpt lat="42.38036" lon="2.75016">
        <ele>352.6</ele>
        <time>2018-11-26T07:10:54Z</time>
      </trkpt>
      <trkpt lat="42.38026" lon="2.75027">
        <ele>352</ele>
        <time>2018-11-26T07:10:59Z</time>
      </trkpt>
      <trkpt lat="42.38018" lon="2.7504">
        <ele>351.5</ele>
        <time>2018-11-26T07:11:04Z</time>
      </trkpt>
      <trkpt lat="42.37999" lon="2.75052">
        <ele>350.5</ele>
        <time>2018-11-26T07:11:13Z</time>
      </trkpt>
      <trkpt lat="42.37992" lon="2.75061">
        <ele>349.1</ele>
        <time>2018-11-26T07:11:16Z</time>
      </trkpt>
      <trkpt lat="42.37982" lon="2.75076">
        <ele>348.6</ele>
        <time>2018-11-26T07:11:23Z</time>
      </trkpt>
      <trkpt lat="42.37977" lon="2.75085">
        <ele>348.6</ele>
        <time>2018-11-26T07:11:26Z</time>
      </trkpt>
      <trkpt lat="42.3797" lon="2.75097">
        <ele>348.1</ele>
        <time>2018-11-26T07:11:30Z</time>
      </trkpt>
      <trkpt lat="42.37968" lon="2.75081">
        <ele>348.1</ele>
        <time>2018-11-26T07:11:35Z</time>
      </trkpt>
      <trkpt lat="42.3795" lon="2.75084">
        <ele>347.8</ele>
        <time>2018-11-26T07:11:42Z</time>
      </trkpt>
      <trkpt lat="42.37948" lon="2.75081">
        <ele>347.7</ele>
        <time>2018-11-26T07:11:43Z</time>
      </trkpt>
      <trkpt lat="42.37943" lon="2.75078">
        <ele>347.3</ele>
        <time>2018-11-26T07:11:45Z</time>
      </trkpt>
      <trkpt lat="42.3793" lon="2.75058">
        <ele>347.2</ele>
        <time>2018-11-26T07:11:53Z</time>
      </trkpt>
      <trkpt lat="42.37928" lon="2.75055">
        <ele>348.2</ele>
        <time>2018-11-26T07:11:54Z</time>
      </trkpt>
      <trkpt lat="42.37927" lon="2.75053">
        <ele>352.1</ele>
        <time>2018-11-26T07:11:55Z</time>
      </trkpt>
      <trkpt lat="42.37915" lon="2.75034">
        <ele>346.7</ele>
        <time>2018-11-26T07:12:03Z</time>
      </trkpt>
      <trkpt lat="42.37899" lon="2.75023">
        <ele>345.8</ele>
        <time>2018-11-26T07:12:10Z</time>
      </trkpt>
      <trkpt lat="42.37891" lon="2.75017">
        <ele>345.7</ele>
        <time>2018-11-26T07:12:14Z</time>
      </trkpt>
      <trkpt lat="42.3789" lon="2.75016">
        <ele>345.3</ele>
        <time>2018-11-26T07:12:14Z</time>
      </trkpt>
      <trkpt lat="42.37856" lon="2.75018">
        <ele>345.3</ele>
        <time>2018-11-26T07:12:28Z</time>
      </trkpt>
      <trkpt lat="42.37841" lon="2.75003">
        <ele>344.8</ele>
        <time>2018-11-26T07:12:35Z</time>
      </trkpt>
      <trkpt lat="42.37839" lon="2.74996">
        <ele>344.8</ele>
        <time>2018-11-26T07:12:37Z</time>
      </trkpt>
      <trkpt lat="42.37821" lon="2.74998">
        <ele>343.4</ele>
        <time>2018-11-26T07:12:45Z</time>
      </trkpt>
      <trkpt lat="42.37819" lon="2.74995">
        <ele>343</ele>
        <time>2018-11-26T07:12:46Z</time>
      </trkpt>
      <trkpt lat="42.3781" lon="2.74995">
        <ele>341.9</ele>
        <time>2018-11-26T07:12:50Z</time>
      </trkpt>
      <trkpt lat="42.37803" lon="2.74997">
        <ele>341.4</ele>
        <time>2018-11-26T07:12:53Z</time>
      </trkpt>
      <trkpt lat="42.37787" lon="2.74999">
        <ele>340.9</ele>
        <time>2018-11-26T07:12:59Z</time>
      </trkpt>
      <trkpt lat="42.37764" lon="2.75007">
        <ele>341</ele>
        <time>2018-11-26T07:13:08Z</time>
      </trkpt>
      <trkpt lat="42.37758" lon="2.7501">
        <ele>340.9</ele>
        <time>2018-11-26T07:13:11Z</time>
      </trkpt>
      <trkpt lat="42.37742" lon="2.75024">
        <ele>341.4</ele>
        <time>2018-11-26T07:13:19Z</time>
      </trkpt>
      <trkpt lat="42.37731" lon="2.75032">
        <ele>341.4</ele>
        <time>2018-11-26T07:13:23Z</time>
      </trkpt>
      <trkpt lat="42.37723" lon="2.75027">
        <ele>340.9</ele>
        <time>2018-11-26T07:13:27Z</time>
      </trkpt>
      <trkpt lat="42.37722" lon="2.7502">
        <ele>341</ele>
        <time>2018-11-26T07:13:29Z</time>
      </trkpt>
      <trkpt lat="42.37722" lon="2.75011">
        <ele>340.4</ele>
        <time>2018-11-26T07:13:32Z</time>
      </trkpt>
      <trkpt lat="42.37724" lon="2.74971">
        <ele>340.9</ele>
        <time>2018-11-26T07:13:43Z</time>
      </trkpt>
      <trkpt lat="42.37725" lon="2.74966">
        <ele>340.5</ele>
        <time>2018-11-26T07:13:45Z</time>
      </trkpt>
      <trkpt lat="42.37726" lon="2.74938">
        <ele>340.4</ele>
        <time>2018-11-26T07:13:53Z</time>
      </trkpt>
      <trkpt lat="42.37725" lon="2.74926">
        <ele>340.5</ele>
        <time>2018-11-26T07:13:57Z</time>
      </trkpt>
      <trkpt lat="42.37723" lon="2.74916">
        <ele>340.4</ele>
        <time>2018-11-26T07:14:00Z</time>
      </trkpt>
      <trkpt lat="42.3772" lon="2.74909">
        <ele>340</ele>
        <time>2018-11-26T07:14:02Z</time>
      </trkpt>
      <trkpt lat="42.37707" lon="2.74886">
        <ele>338</ele>
        <time>2018-11-26T07:14:11Z</time>
      </trkpt>
      <trkpt lat="42.37699" lon="2.74878">
        <ele>336.7</ele>
        <time>2018-11-26T07:14:15Z</time>
      </trkpt>
      <trkpt lat="42.3769" lon="2.74869">
        <ele>336.1</ele>
        <time>2018-11-26T07:14:19Z</time>
      </trkpt>
      <trkpt lat="42.37693" lon="2.74855">
        <ele>336.1</ele>
        <time>2018-11-26T07:14:24Z</time>
      </trkpt>
      <trkpt lat="42.37695" lon="2.74849">
        <ele>336.2</ele>
        <time>2018-11-26T07:14:26Z</time>
      </trkpt>
      <trkpt lat="42.37703" lon="2.74808">
        <ele>336.1</ele>
        <time>2018-11-26T07:14:38Z</time>
      </trkpt>
      <trkpt lat="42.37695" lon="2.74801">
        <ele>335.6</ele>
        <time>2018-11-26T07:14:42Z</time>
      </trkpt>
      <trkpt lat="42.37692" lon="2.74795">
        <ele>336.1</ele>
        <time>2018-11-26T07:14:44Z</time>
      </trkpt>
      <trkpt lat="42.37683" lon="2.74789">
        <ele>337.1</ele>
        <time>2018-11-26T07:14:48Z</time>
      </trkpt>
      <trkpt lat="42.37671" lon="2.74781">
        <ele>339</ele>
        <time>2018-11-26T07:14:54Z</time>
      </trkpt>
      <trkpt lat="42.37671" lon="2.74765">
        <ele>340.9</ele>
        <time>2018-11-26T07:14:58Z</time>
      </trkpt>
      <trkpt lat="42.37675" lon="2.74756">
        <ele>341.4</ele>
        <time>2018-11-26T07:15:01Z</time>
      </trkpt>
      <trkpt lat="42.37676" lon="2.74754">
        <ele>340.9</ele>
        <time>2018-11-26T07:15:02Z</time>
      </trkpt>
      <trkpt lat="42.37676" lon="2.74754">
        <ele>344.4</ele>
        <time>2018-11-26T07:15:02Z</time>
      </trkpt>
      <trkpt lat="42.37676" lon="2.74754">
        <ele>339.5</ele>
        <time>2018-11-26T07:15:02Z</time>
      </trkpt>
      <trkpt lat="42.37676" lon="2.74754">
        <ele>342.9</ele>
        <time>2018-11-26T07:15:02Z</time>
      </trkpt>
      <trkpt lat="42.37676" lon="2.74754">
        <ele>338.5</ele>
        <time>2018-11-26T07:15:02Z</time>
      </trkpt>
      <trkpt lat="42.37676" lon="2.74754">
        <ele>343.4</ele>
        <time>2018-11-26T07:15:02Z</time>
      </trkpt>
      <trkpt lat="42.37676" lon="2.74754">
        <ele>338</ele>
        <time>2018-11-26T07:15:02Z</time>
      </trkpt>
      <trkpt lat="42.37676" lon="2.74755">
        <ele>342.4</ele>
        <time>2018-11-26T07:15:02Z</time>
      </trkpt>
      <trkpt lat="42.37676" lon="2.74755">
        <ele>347.3</ele>
        <time>2018-11-26T07:15:03Z</time>
      </trkpt>
      <trkpt lat="42.37675" lon="2.74756">
        <ele>339</ele>
        <time>2018-11-26T07:15:03Z</time>
      </trkpt>
      <trkpt lat="42.37675" lon="2.74757">
        <ele>342.4</ele>
        <time>2018-11-26T07:15:03Z</time>
      </trkpt>
      <trkpt lat="42.37674" lon="2.74758">
        <ele>334.8</ele>
        <time>2018-11-26T07:15:04Z</time>
      </trkpt>
      <trkpt lat="42.37674" lon="2.74759">
        <ele>342.9</ele>
        <time>2018-11-26T07:15:04Z</time>
      </trkpt>
      <trkpt lat="42.37674" lon="2.7476">
        <ele>329.5</ele>
        <time>2018-11-26T07:15:04Z</time>
      </trkpt>
      <trkpt lat="42.37673" lon="2.74762">
        <ele>349.1</ele>
        <time>2018-11-26T07:15:05Z</time>
      </trkpt>
      <trkpt lat="42.37673" lon="2.74763">
        <ele>344.9</ele>
        <time>2018-11-26T07:15:05Z</time>
      </trkpt>
      <trkpt lat="42.37671" lon="2.74767">
        <ele>341</ele>
        <time>2018-11-26T07:15:07Z</time>
      </trkpt>
      <trkpt lat="42.37669" lon="2.74776">
        <ele>340</ele>
        <time>2018-11-26T07:15:09Z</time>
      </trkpt>
      <trkpt lat="42.37673" lon="2.74785">
        <ele>339.1</ele>
        <time>2018-11-26T07:15:13Z</time>
      </trkpt>
      <trkpt lat="42.37674" lon="2.74786">
        <ele>339.1</ele>
        <time>2018-11-26T07:15:13Z</time>
      </trkpt>
      <trkpt lat="42.37675" lon="2.74787">
        <ele>342.4</ele>
        <time>2018-11-26T07:15:13Z</time>
      </trkpt>
      <trkpt lat="42.37676" lon="2.74788">
        <ele>342.4</ele>
        <time>2018-11-26T07:15:14Z</time>
      </trkpt>
      <trkpt lat="42.37677" lon="2.74789">
        <ele>332.8</ele>
        <time>2018-11-26T07:15:14Z</time>
      </trkpt>
      <trkpt lat="42.37682" lon="2.74794">
        <ele>338.1</ele>
        <time>2018-11-26T07:15:17Z</time>
      </trkpt>
      <trkpt lat="42.37688" lon="2.74797">
        <ele>337.6</ele>
        <time>2018-11-26T07:15:20Z</time>
      </trkpt>
      <trkpt lat="42.3769" lon="2.74796">
        <ele>338.1</ele>
        <time>2018-11-26T07:15:21Z</time>
      </trkpt>
      <trkpt lat="42.3769" lon="2.74796">
        <ele>341.5</ele>
        <time>2018-11-26T07:15:21Z</time>
      </trkpt>
      <trkpt lat="42.3769" lon="2.74796">
        <ele>332.8</ele>
        <time>2018-11-26T07:15:21Z</time>
      </trkpt>
      <trkpt lat="42.37691" lon="2.74796">
        <ele>339.5</ele>
        <time>2018-11-26T07:15:21Z</time>
      </trkpt>
      <trkpt lat="42.37691" lon="2.74796">
        <ele>339.5</ele>
        <time>2018-11-26T07:15:21Z</time>
      </trkpt>
      <trkpt lat="42.37691" lon="2.74796">
        <ele>334.2</ele>
        <time>2018-11-26T07:15:21Z</time>
      </trkpt>
      <trkpt lat="42.37691" lon="2.74796">
        <ele>331.8</ele>
        <time>2018-11-26T07:15:21Z</time>
      </trkpt>
      <trkpt lat="42.37691" lon="2.74796">
        <ele>339</ele>
        <time>2018-11-26T07:15:21Z</time>
      </trkpt>
      <trkpt lat="42.37691" lon="2.74796">
        <ele>330.8</ele>
        <time>2018-11-26T07:15:21Z</time>
      </trkpt>
      <trkpt lat="42.37691" lon="2.74796">
        <ele>337.7</ele>
        <time>2018-11-26T07:15:21Z</time>
      </trkpt>
      <trkpt lat="42.37691" lon="2.74796">
        <ele>340.9</ele>
        <time>2018-11-26T07:15:21Z</time>
      </trkpt>
      <trkpt lat="42.37693" lon="2.748">
        <ele>337.2</ele>
        <time>2018-11-26T07:15:22Z</time>
      </trkpt>
      <trkpt lat="42.37683" lon="2.74789">
        <ele>336.2</ele>
        <time>2018-11-26T07:15:27Z</time>
      </trkpt>
      <trkpt lat="42.37682" lon="2.74788">
        <ele>336.6</ele>
        <time>2018-11-26T07:15:27Z</time>
      </trkpt>
      <trkpt lat="42.37677" lon="2.74782">
        <ele>335.6</ele>
        <time>2018-11-26T07:15:30Z</time>
      </trkpt>
      <trkpt lat="42.37671" lon="2.74778">
        <ele>335.6</ele>
        <time>2018-11-26T07:15:33Z</time>
      </trkpt>
      <trkpt lat="42.37658" lon="2.74766">
        <ele>335.6</ele>
        <time>2018-11-26T07:15:39Z</time>
      </trkpt>
      <trkpt lat="42.37653" lon="2.74751">
        <ele>334.7</ele>
        <time>2018-11-26T07:15:44Z</time>
      </trkpt>
      <trkpt lat="42.37652" lon="2.74726">
        <ele>334.7</ele>
        <time>2018-11-26T07:15:52Z</time>
      </trkpt>
      <trkpt lat="42.37651" lon="2.74709">
        <ele>334.7</ele>
        <time>2018-11-26T07:15:57Z</time>
      </trkpt>
      <trkpt lat="42.37657" lon="2.74677">
        <ele>334.3</ele>
        <time>2018-11-26T07:16:06Z</time>
      </trkpt>
      <trkpt lat="42.37658" lon="2.7465">
        <ele>334.3</ele>
        <time>2018-11-26T07:16:14Z</time>
      </trkpt>
      <trkpt lat="42.37654" lon="2.74646">
        <ele>333.7</ele>
        <time>2018-11-26T07:16:16Z</time>
      </trkpt>
      <trkpt lat="42.37645" lon="2.74632">
        <ele>333.2</ele>
        <time>2018-11-26T07:16:22Z</time>
      </trkpt>
      <trkpt lat="42.37641" lon="2.74627">
        <ele>333.2</ele>
        <time>2018-11-26T07:16:24Z</time>
      </trkpt>
      <trkpt lat="42.37638" lon="2.7462">
        <ele>333.2</ele>
        <time>2018-11-26T07:16:26Z</time>
      </trkpt>
      <trkpt lat="42.37634" lon="2.74613">
        <ele>332.8</ele>
        <time>2018-11-26T07:16:29Z</time>
      </trkpt>
      <trkpt lat="42.37633" lon="2.74611">
        <ele>336.1</ele>
        <time>2018-11-26T07:16:30Z</time>
      </trkpt>
      <trkpt lat="42.37634" lon="2.74595">
        <ele>332.8</ele>
        <time>2018-11-26T07:16:34Z</time>
      </trkpt>
      <trkpt lat="42.37635" lon="2.74593">
        <ele>332.3</ele>
        <time>2018-11-26T07:16:35Z</time>
      </trkpt>
      <trkpt lat="42.37649" lon="2.74578">
        <ele>331.8</ele>
        <time>2018-11-26T07:16:42Z</time>
      </trkpt>
      <trkpt lat="42.37654" lon="2.74567">
        <ele>330.8</ele>
        <time>2018-11-26T07:16:46Z</time>
      </trkpt>
      <trkpt lat="42.37661" lon="2.74551">
        <ele>330</ele>
        <time>2018-11-26T07:16:51Z</time>
      </trkpt>
      <trkpt lat="42.37663" lon="2.7454">
        <ele>330.4</ele>
        <time>2018-11-26T07:16:55Z</time>
      </trkpt>
      <trkpt lat="42.37664" lon="2.74532">
        <ele>329.5</ele>
        <time>2018-11-26T07:16:57Z</time>
      </trkpt>
      <trkpt lat="42.37664" lon="2.74524">
        <ele>329.4</ele>
        <time>2018-11-26T07:17:00Z</time>
      </trkpt>
      <trkpt lat="42.37664" lon="2.74504">
        <ele>329</ele>
        <time>2018-11-26T07:17:06Z</time>
      </trkpt>
      <trkpt lat="42.37665" lon="2.74502">
        <ele>329.4</ele>
        <time>2018-11-26T07:17:06Z</time>
      </trkpt>
      <trkpt lat="42.37666" lon="2.74499">
        <ele>324.7</ele>
        <time>2018-11-26T07:17:07Z</time>
      </trkpt>
      <trkpt lat="42.37677" lon="2.74488">
        <ele>328</ele>
        <time>2018-11-26T07:17:12Z</time>
      </trkpt>
      <trkpt lat="42.37684" lon="2.74487">
        <ele>327.5</ele>
        <time>2018-11-26T07:17:15Z</time>
      </trkpt>
      <trkpt lat="42.37685" lon="2.74465">
        <ele>327.1</ele>
        <time>2018-11-26T07:17:22Z</time>
      </trkpt>
      <trkpt lat="42.37673" lon="2.74462">
        <ele>325.1</ele>
        <time>2018-11-26T07:17:26Z</time>
      </trkpt>
      <trkpt lat="42.37664" lon="2.74454">
        <ele>325.5</ele>
        <time>2018-11-26T07:17:31Z</time>
      </trkpt>
      <trkpt lat="42.37664" lon="2.74452">
        <ele>314</ele>
        <time>2018-11-26T07:17:31Z</time>
      </trkpt>
      <trkpt lat="42.37663" lon="2.7445">
        <ele>326</ele>
        <time>2018-11-26T07:17:32Z</time>
      </trkpt>
      <trkpt lat="42.37662" lon="2.74448">
        <ele>320.7</ele>
        <time>2018-11-26T07:17:33Z</time>
      </trkpt>
      <trkpt lat="42.3766" lon="2.74443">
        <ele>326.6</ele>
        <time>2018-11-26T07:17:34Z</time>
      </trkpt>
      <trkpt lat="42.37658" lon="2.74441">
        <ele>324.6</ele>
        <time>2018-11-26T07:17:35Z</time>
      </trkpt>
      <trkpt lat="42.37654" lon="2.74436">
        <ele>324.2</ele>
        <time>2018-11-26T07:17:38Z</time>
      </trkpt>
      <trkpt lat="42.37639" lon="2.7443">
        <ele>323.6</ele>
        <time>2018-11-26T07:17:44Z</time>
      </trkpt>
      <trkpt lat="42.37637" lon="2.74429">
        <ele>323.1</ele>
        <time>2018-11-26T07:17:45Z</time>
      </trkpt>
      <trkpt lat="42.37628" lon="2.74418">
        <ele>323.1</ele>
        <time>2018-11-26T07:17:49Z</time>
      </trkpt>
      <trkpt lat="42.37625" lon="2.74402">
        <ele>322.7</ele>
        <time>2018-11-26T07:17:54Z</time>
      </trkpt>
      <trkpt lat="42.37625" lon="2.74398">
        <ele>322.7</ele>
        <time>2018-11-26T07:17:56Z</time>
      </trkpt>
      <trkpt lat="42.37627" lon="2.74389">
        <ele>323.7</ele>
        <time>2018-11-26T07:17:58Z</time>
      </trkpt>
      <trkpt lat="42.37628" lon="2.74387">
        <ele>323.6</ele>
        <time>2018-11-26T07:17:59Z</time>
      </trkpt>
      <trkpt lat="42.37632" lon="2.74368">
        <ele>326.5</ele>
        <time>2018-11-26T07:18:05Z</time>
      </trkpt>
      <trkpt lat="42.37632" lon="2.74368">
        <ele>324.7</ele>
        <time>2018-11-26T07:18:05Z</time>
      </trkpt>
      <trkpt lat="42.37633" lon="2.74362">
        <ele>328.1</ele>
        <time>2018-11-26T07:18:07Z</time>
      </trkpt>
      <trkpt lat="42.37633" lon="2.74362">
        <ele>332.8</ele>
        <time>2018-11-26T07:18:07Z</time>
      </trkpt>
      <trkpt lat="42.37633" lon="2.74362">
        <ele>328.4</ele>
        <time>2018-11-26T07:18:07Z</time>
      </trkpt>
      <trkpt lat="42.37633" lon="2.74362">
        <ele>320.3</ele>
        <time>2018-11-26T07:18:07Z</time>
      </trkpt>
      <trkpt lat="42.37633" lon="2.74362">
        <ele>329.4</ele>
        <time>2018-11-26T07:18:07Z</time>
      </trkpt>
      <trkpt lat="42.37634" lon="2.74362">
        <ele>325.2</ele>
        <time>2018-11-26T07:18:07Z</time>
      </trkpt>
      <trkpt lat="42.37634" lon="2.74362">
        <ele>328.9</ele>
        <time>2018-11-26T07:18:07Z</time>
      </trkpt>
      <trkpt lat="42.37634" lon="2.74362">
        <ele>330.5</ele>
        <time>2018-11-26T07:18:07Z</time>
      </trkpt>
      <trkpt lat="42.37634" lon="2.74362">
        <ele>327.1</ele>
        <time>2018-11-26T07:18:07Z</time>
      </trkpt>
      <trkpt lat="42.37631" lon="2.74372">
        <ele>325.6</ele>
        <time>2018-11-26T07:18:10Z</time>
      </trkpt>
      <trkpt lat="42.37625" lon="2.74384">
        <ele>324.2</ele>
        <time>2018-11-26T07:18:14Z</time>
      </trkpt>
      <trkpt lat="42.37621" lon="2.74395">
        <ele>323.2</ele>
        <time>2018-11-26T07:18:18Z</time>
      </trkpt>
      <trkpt lat="42.37621" lon="2.74395">
        <ele>318</ele>
        <time>2018-11-26T07:18:18Z</time>
      </trkpt>
      <trkpt lat="42.37621" lon="2.74395">
        <ele>321.2</ele>
        <time>2018-11-26T07:18:18Z</time>
      </trkpt>
      <trkpt lat="42.37621" lon="2.74395">
        <ele>325.1</ele>
        <time>2018-11-26T07:18:18Z</time>
      </trkpt>
      <trkpt lat="42.37621" lon="2.74394">
        <ele>330.9</ele>
        <time>2018-11-26T07:18:18Z</time>
      </trkpt>
      <trkpt lat="42.37621" lon="2.74394">
        <ele>326.1</ele>
        <time>2018-11-26T07:18:18Z</time>
      </trkpt>
      <trkpt lat="42.37621" lon="2.74394">
        <ele>319.4</ele>
        <time>2018-11-26T07:18:18Z</time>
      </trkpt>
      <trkpt lat="42.37621" lon="2.74394">
        <ele>327</ele>
        <time>2018-11-26T07:18:18Z</time>
      </trkpt>
      <trkpt lat="42.37621" lon="2.74394">
        <ele>320.4</ele>
        <time>2018-11-26T07:18:18Z</time>
      </trkpt>
      <trkpt lat="42.37621" lon="2.74394">
        <ele>327</ele>
        <time>2018-11-26T07:18:18Z</time>
      </trkpt>
      <trkpt lat="42.37621" lon="2.74394">
        <ele>322.2</ele>
        <time>2018-11-26T07:18:18Z</time>
      </trkpt>
      <trkpt lat="42.37621" lon="2.74394">
        <ele>327</ele>
        <time>2018-11-26T07:18:18Z</time>
      </trkpt>
      <trkpt lat="42.37621" lon="2.74394">
        <ele>320.4</ele>
        <time>2018-11-26T07:18:18Z</time>
      </trkpt>
      <trkpt lat="42.37621" lon="2.74394">
        <ele>324.6</ele>
        <time>2018-11-26T07:18:18Z</time>
      </trkpt>
      <trkpt lat="42.37621" lon="2.74394">
        <ele>318.8</ele>
        <time>2018-11-26T07:18:18Z</time>
      </trkpt>
      <trkpt lat="42.37621" lon="2.74394">
        <ele>324.7</ele>
        <time>2018-11-26T07:18:18Z</time>
      </trkpt>
      <trkpt lat="42.37621" lon="2.74394">
        <ele>314.1</ele>
        <time>2018-11-26T07:18:18Z</time>
      </trkpt>
      <trkpt lat="42.37621" lon="2.74394">
        <ele>306.9</ele>
        <time>2018-11-26T07:18:18Z</time>
      </trkpt>
      <trkpt lat="42.37621" lon="2.74394">
        <ele>324.6</ele>
        <time>2018-11-26T07:18:18Z</time>
      </trkpt>
      <trkpt lat="42.37621" lon="2.74394">
        <ele>318.3</ele>
        <time>2018-11-26T07:18:18Z</time>
      </trkpt>
      <trkpt lat="42.37621" lon="2.74394">
        <ele>323.2</ele>
        <time>2018-11-26T07:18:18Z</time>
      </trkpt>
      <trkpt lat="42.37613" lon="2.74386">
        <ele>321.8</ele>
        <time>2018-11-26T07:18:22Z</time>
      </trkpt>
      <trkpt lat="42.3761" lon="2.74385">
        <ele>322.2</ele>
        <time>2018-11-26T07:18:23Z</time>
      </trkpt>
      <trkpt lat="42.37599" lon="2.74375">
        <ele>321.7</ele>
        <time>2018-11-26T07:18:28Z</time>
      </trkpt>
      <trkpt lat="42.37589" lon="2.74362">
        <ele>322.2</ele>
        <time>2018-11-26T07:18:34Z</time>
      </trkpt>
      <trkpt lat="42.37589" lon="2.74351">
        <ele>322.7</ele>
        <time>2018-11-26T07:18:37Z</time>
      </trkpt>
      <trkpt lat="42.37592" lon="2.74331">
        <ele>323.6</ele>
        <time>2018-11-26T07:18:43Z</time>
      </trkpt>
      <trkpt lat="42.37595" lon="2.74318">
        <ele>325.1</ele>
        <time>2018-11-26T07:18:47Z</time>
      </trkpt>
      <trkpt lat="42.37599" lon="2.74307">
        <ele>325.5</ele>
        <time>2018-11-26T07:18:51Z</time>
      </trkpt>
      <trkpt lat="42.37601" lon="2.74303">
        <ele>328.1</ele>
        <time>2018-11-26T07:18:52Z</time>
      </trkpt>
      <trkpt lat="42.37602" lon="2.74302">
        <ele>329.5</ele>
        <time>2018-11-26T07:18:53Z</time>
      </trkpt>
      <trkpt lat="42.37606" lon="2.74287">
        <ele>326</ele>
        <time>2018-11-26T07:18:58Z</time>
      </trkpt>
      <trkpt lat="42.37609" lon="2.7428">
        <ele>329.4</ele>
        <time>2018-11-26T07:19:00Z</time>
      </trkpt>
      <trkpt lat="42.37609" lon="2.7428">
        <ele>322.3</ele>
        <time>2018-11-26T07:19:00Z</time>
      </trkpt>
      <trkpt lat="42.37609" lon="2.7428">
        <ele>328</ele>
        <time>2018-11-26T07:19:00Z</time>
      </trkpt>
      <trkpt lat="42.37609" lon="2.7428">
        <ele>323.1</ele>
        <time>2018-11-26T07:19:00Z</time>
      </trkpt>
      <trkpt lat="42.37609" lon="2.7428">
        <ele>331.8</ele>
        <time>2018-11-26T07:19:00Z</time>
      </trkpt>
      <trkpt lat="42.37609" lon="2.7428">
        <ele>328.5</ele>
        <time>2018-11-26T07:19:00Z</time>
      </trkpt>
      <trkpt lat="42.37609" lon="2.7428">
        <ele>318.4</ele>
        <time>2018-11-26T07:19:00Z</time>
      </trkpt>
      <trkpt lat="42.37609" lon="2.7428">
        <ele>332.9</ele>
        <time>2018-11-26T07:19:00Z</time>
      </trkpt>
      <trkpt lat="42.37609" lon="2.74277">
        <ele>326.6</ele>
        <time>2018-11-26T07:19:01Z</time>
      </trkpt>
      <trkpt lat="42.37609" lon="2.74277">
        <ele>327.5</ele>
        <time>2018-11-26T07:19:01Z</time>
      </trkpt>
      <trkpt lat="42.37609" lon="2.74277">
        <ele>336.1</ele>
        <time>2018-11-26T07:19:01Z</time>
      </trkpt>
      <trkpt lat="42.37609" lon="2.74277">
        <ele>329.5</ele>
        <time>2018-11-26T07:19:01Z</time>
      </trkpt>
      <trkpt lat="42.37609" lon="2.74277">
        <ele>323.6</ele>
        <time>2018-11-26T07:19:01Z</time>
      </trkpt>
      <trkpt lat="42.37609" lon="2.74277">
        <ele>323.7</ele>
        <time>2018-11-26T07:19:01Z</time>
      </trkpt>
      <trkpt lat="42.37609" lon="2.74277">
        <ele>328</ele>
        <time>2018-11-26T07:19:01Z</time>
      </trkpt>
      <trkpt lat="42.37609" lon="2.74277">
        <ele>332.8</ele>
        <time>2018-11-26T07:19:01Z</time>
      </trkpt>
      <trkpt lat="42.3761" lon="2.74272">
        <ele>326</ele>
        <time>2018-11-26T07:19:02Z</time>
      </trkpt>
      <trkpt lat="42.37611" lon="2.74243">
        <ele>327</ele>
        <time>2018-11-26T07:19:11Z</time>
      </trkpt>
      <trkpt lat="42.37613" lon="2.74236">
        <ele>326.1</ele>
        <time>2018-11-26T07:19:13Z</time>
      </trkpt>
      <trkpt lat="42.37612" lon="2.74233">
        <ele>325.1</ele>
        <time>2018-11-26T07:19:14Z</time>
      </trkpt>
      <trkpt lat="42.3761" lon="2.74212">
        <ele>325.1</ele>
        <time>2018-11-26T07:19:20Z</time>
      </trkpt>
      <trkpt lat="42.37613" lon="2.74196">
        <ele>325.1</ele>
        <time>2018-11-26T07:19:25Z</time>
      </trkpt>
      <trkpt lat="42.37617" lon="2.74189">
        <ele>327.5</ele>
        <time>2018-11-26T07:19:28Z</time>
      </trkpt>
      <trkpt lat="42.37624" lon="2.74174">
        <ele>329.9</ele>
        <time>2018-11-26T07:19:33Z</time>
      </trkpt>
      <trkpt lat="42.37627" lon="2.74159">
        <ele>331.8</ele>
        <time>2018-11-26T07:19:38Z</time>
      </trkpt>
      <trkpt lat="42.37633" lon="2.74134">
        <ele>334.2</ele>
        <time>2018-11-26T07:19:45Z</time>
      </trkpt>
      <trkpt lat="42.37642" lon="2.74101">
        <ele>336.1</ele>
        <time>2018-11-26T07:19:56Z</time>
      </trkpt>
      <trkpt lat="42.3765" lon="2.74083">
        <ele>339.6</ele>
        <time>2018-11-26T07:20:02Z</time>
      </trkpt>
      <trkpt lat="42.37653" lon="2.74078">
        <ele>340.5</ele>
        <time>2018-11-26T07:20:04Z</time>
      </trkpt>
      <trkpt lat="42.37659" lon="2.74058">
        <ele>342.9</ele>
        <time>2018-11-26T07:20:10Z</time>
      </trkpt>
      <trkpt lat="42.37658" lon="2.74057">
        <ele>344.9</ele>
        <time>2018-11-26T07:20:11Z</time>
      </trkpt>
      <trkpt lat="42.37653" lon="2.74038">
        <ele>347.7</ele>
        <time>2018-11-26T07:20:17Z</time>
      </trkpt>
      <trkpt lat="42.37649" lon="2.74023">
        <ele>350.2</ele>
        <time>2018-11-26T07:20:22Z</time>
      </trkpt>
      <trkpt lat="42.37648" lon="2.74019">
        <ele>351.6</ele>
        <time>2018-11-26T07:20:23Z</time>
      </trkpt>
      <trkpt lat="42.37643" lon="2.74005">
        <ele>354.5</ele>
        <time>2018-11-26T07:20:27Z</time>
      </trkpt>
      <trkpt lat="42.37629" lon="2.7399">
        <ele>355.9</ele>
        <time>2018-11-26T07:20:34Z</time>
      </trkpt>
      <trkpt lat="42.37622" lon="2.73967">
        <ele>356.3</ele>
        <time>2018-11-26T07:20:42Z</time>
      </trkpt>
      <trkpt lat="42.3762" lon="2.73956">
        <ele>356.8</ele>
        <time>2018-11-26T07:20:45Z</time>
      </trkpt>
      <trkpt lat="42.37619" lon="2.73952">
        <ele>357.3</ele>
        <time>2018-11-26T07:20:46Z</time>
      </trkpt>
      <trkpt lat="42.3762" lon="2.7393">
        <ele>356.4</ele>
        <time>2018-11-26T07:20:53Z</time>
      </trkpt>
      <trkpt lat="42.3762" lon="2.73924">
        <ele>355.9</ele>
        <time>2018-11-26T07:20:55Z</time>
      </trkpt>
      <trkpt lat="42.37614" lon="2.73912">
        <ele>356.8</ele>
        <time>2018-11-26T07:20:59Z</time>
      </trkpt>
      <trkpt lat="42.3761" lon="2.73903">
        <ele>358.8</ele>
        <time>2018-11-26T07:21:02Z</time>
      </trkpt>
      <trkpt lat="42.37605" lon="2.73895">
        <ele>361.1</ele>
        <time>2018-11-26T07:21:05Z</time>
      </trkpt>
      <trkpt lat="42.37604" lon="2.73894">
        <ele>361.2</ele>
        <time>2018-11-26T07:21:06Z</time>
      </trkpt>
      <trkpt lat="42.37597" lon="2.73879">
        <ele>364.6</ele>
        <time>2018-11-26T07:21:11Z</time>
      </trkpt>
      <trkpt lat="42.37598" lon="2.73877">
        <ele>365.5</ele>
        <time>2018-11-26T07:21:12Z</time>
      </trkpt>
      <trkpt lat="42.37604" lon="2.73879">
        <ele>367.4</ele>
        <time>2018-11-26T07:21:14Z</time>
      </trkpt>
      <trkpt lat="42.37616" lon="2.73878">
        <ele>369.8</ele>
        <time>2018-11-26T07:21:19Z</time>
      </trkpt>
      <trkpt lat="42.37623" lon="2.73874">
        <ele>371.3</ele>
        <time>2018-11-26T07:21:22Z</time>
      </trkpt>
      <trkpt lat="42.37625" lon="2.7387">
        <ele>372.3</ele>
        <time>2018-11-26T07:21:23Z</time>
      </trkpt>
      <trkpt lat="42.37633" lon="2.73856">
        <ele>373.7</ele>
        <time>2018-11-26T07:21:29Z</time>
      </trkpt>
      <trkpt lat="42.37639" lon="2.73842">
        <ele>377.5</ele>
        <time>2018-11-26T07:21:34Z</time>
      </trkpt>
      <trkpt lat="42.37647" lon="2.73836">
        <ele>378.9</ele>
        <time>2018-11-26T07:21:37Z</time>
      </trkpt>
      <trkpt lat="42.37655" lon="2.73829">
        <ele>381.3</ele>
        <time>2018-11-26T07:21:41Z</time>
      </trkpt>
      <trkpt lat="42.37656" lon="2.73824">
        <ele>381.9</ele>
        <time>2018-11-26T07:21:43Z</time>
      </trkpt>
      <trkpt lat="42.37654" lon="2.73815">
        <ele>383.2</ele>
        <time>2018-11-26T07:21:45Z</time>
      </trkpt>
      <trkpt lat="42.37644" lon="2.73813">
        <ele>385.7</ele>
        <time>2018-11-26T07:21:49Z</time>
      </trkpt>
      <trkpt lat="42.37636" lon="2.73818">
        <ele>387.1</ele>
        <time>2018-11-26T07:21:53Z</time>
      </trkpt>
      <trkpt lat="42.37624" lon="2.73818">
        <ele>389.5</ele>
        <time>2018-11-26T07:21:58Z</time>
      </trkpt>
      <trkpt lat="42.37616" lon="2.73818">
        <ele>391.4</ele>
        <time>2018-11-26T07:22:01Z</time>
      </trkpt>
      <trkpt lat="42.3761" lon="2.73805">
        <ele>393.8</ele>
        <time>2018-11-26T07:22:05Z</time>
      </trkpt>
      <trkpt lat="42.37604" lon="2.73801">
        <ele>396.7</ele>
        <time>2018-11-26T07:22:08Z</time>
      </trkpt>
      <trkpt lat="42.37589" lon="2.73795">
        <ele>398.6</ele>
        <time>2018-11-26T07:22:14Z</time>
      </trkpt>
      <trkpt lat="42.37583" lon="2.73794">
        <ele>401.6</ele>
        <time>2018-11-26T07:22:17Z</time>
      </trkpt>
      <trkpt lat="42.37565" lon="2.73806">
        <ele>404</ele>
        <time>2018-11-26T07:22:25Z</time>
      </trkpt>
      <trkpt lat="42.37564" lon="2.73807">
        <ele>403.9</ele>
        <time>2018-11-26T07:22:25Z</time>
      </trkpt>
      <trkpt lat="42.3755" lon="2.73805">
        <ele>407.4</ele>
        <time>2018-11-26T07:22:31Z</time>
      </trkpt>
      <trkpt lat="42.37545" lon="2.73797">
        <ele>408.3</ele>
        <time>2018-11-26T07:22:34Z</time>
      </trkpt>
      <trkpt lat="42.37541" lon="2.73786">
        <ele>408.2</ele>
        <time>2018-11-26T07:22:37Z</time>
      </trkpt>
      <trkpt lat="42.37539" lon="2.73776">
        <ele>408.7</ele>
        <time>2018-11-26T07:22:41Z</time>
      </trkpt>
      <trkpt lat="42.3753" lon="2.73748">
        <ele>411.2</ele>
        <time>2018-11-26T07:22:50Z</time>
      </trkpt>
      <trkpt lat="42.37524" lon="2.73741">
        <ele>412.5</ele>
        <time>2018-11-26T07:22:53Z</time>
      </trkpt>
      <trkpt lat="42.37518" lon="2.73725">
        <ele>415.4</ele>
        <time>2018-11-26T07:22:58Z</time>
      </trkpt>
      <trkpt lat="42.37517" lon="2.73723">
        <ele>415.5</ele>
        <time>2018-11-26T07:22:59Z</time>
      </trkpt>
      <trkpt lat="42.37517" lon="2.73722">
        <ele>415.5</ele>
        <time>2018-11-26T07:22:59Z</time>
      </trkpt>
      <trkpt lat="42.37509" lon="2.73708">
        <ele>417.9</ele>
        <time>2018-11-26T07:23:04Z</time>
      </trkpt>
      <trkpt lat="42.37503" lon="2.73691">
        <ele>418.3</ele>
        <time>2018-11-26T07:23:10Z</time>
      </trkpt>
      <trkpt lat="42.37503" lon="2.73689">
        <ele>418.4</ele>
        <time>2018-11-26T07:23:11Z</time>
      </trkpt>
      <trkpt lat="42.37504" lon="2.73669">
        <ele>419.9</ele>
        <time>2018-11-26T07:23:17Z</time>
      </trkpt>
      <trkpt lat="42.37505" lon="2.73637">
        <ele>421.7</ele>
        <time>2018-11-26T07:23:26Z</time>
      </trkpt>
      <trkpt lat="42.37509" lon="2.73616">
        <ele>424.1</ele>
        <time>2018-11-26T07:23:33Z</time>
      </trkpt>
      <trkpt lat="42.37508" lon="2.73608">
        <ele>424.2</ele>
        <time>2018-11-26T07:23:35Z</time>
      </trkpt>
      <trkpt lat="42.37503" lon="2.73591">
        <ele>425.1</ele>
        <time>2018-11-26T07:23:40Z</time>
      </trkpt>
      <trkpt lat="42.37502" lon="2.7359">
        <ele>425.6</ele>
        <time>2018-11-26T07:23:41Z</time>
      </trkpt>
      <trkpt lat="42.37499" lon="2.73572">
        <ele>428.5</ele>
        <time>2018-11-26T07:23:46Z</time>
      </trkpt>
      <trkpt lat="42.37498" lon="2.73566">
        <ele>428.5</ele>
        <time>2018-11-26T07:23:48Z</time>
      </trkpt>
      <trkpt lat="42.375" lon="2.73552">
        <ele>429</ele>
        <time>2018-11-26T07:23:52Z</time>
      </trkpt>
      <trkpt lat="42.37502" lon="2.73545">
        <ele>428.9</ele>
        <time>2018-11-26T07:23:54Z</time>
      </trkpt>
      <trkpt lat="42.37506" lon="2.73517">
        <ele>429.4</ele>
        <time>2018-11-26T07:24:03Z</time>
      </trkpt>
      <trkpt lat="42.37504" lon="2.73485">
        <ele>430.4</ele>
        <time>2018-11-26T07:24:12Z</time>
      </trkpt>
      <trkpt lat="42.37504" lon="2.73473">
        <ele>430.8</ele>
        <time>2018-11-26T07:24:16Z</time>
      </trkpt>
      <trkpt lat="42.37505" lon="2.73471">
        <ele>430.8</ele>
        <time>2018-11-26T07:24:17Z</time>
      </trkpt>
      <trkpt lat="42.37505" lon="2.73447">
        <ele>431.8</ele>
        <time>2018-11-26T07:24:24Z</time>
      </trkpt>
      <trkpt lat="42.37503" lon="2.73427">
        <ele>432.8</ele>
        <time>2018-11-26T07:24:30Z</time>
      </trkpt>
      <trkpt lat="42.37502" lon="2.73404">
        <ele>433.8</ele>
        <time>2018-11-26T07:24:37Z</time>
      </trkpt>
      <trkpt lat="42.37507" lon="2.73389">
        <ele>434.8</ele>
        <time>2018-11-26T07:24:41Z</time>
      </trkpt>
      <trkpt lat="42.37509" lon="2.73385">
        <ele>435.1</ele>
        <time>2018-11-26T07:24:43Z</time>
      </trkpt>
      <trkpt lat="42.3751" lon="2.73364">
        <ele>436.6</ele>
        <time>2018-11-26T07:24:49Z</time>
      </trkpt>
      <trkpt lat="42.375" lon="2.73348">
        <ele>437.6</ele>
        <time>2018-11-26T07:24:55Z</time>
      </trkpt>
      <trkpt lat="42.37493" lon="2.73341">
        <ele>438.1</ele>
        <time>2018-11-26T07:24:58Z</time>
      </trkpt>
      <trkpt lat="42.37488" lon="2.73337">
        <ele>439.6</ele>
        <time>2018-11-26T07:25:01Z</time>
      </trkpt>
      <trkpt lat="42.37475" lon="2.73322">
        <ele>441.9</ele>
        <time>2018-11-26T07:25:08Z</time>
      </trkpt>
      <trkpt lat="42.37464" lon="2.7331">
        <ele>443.3</ele>
        <time>2018-11-26T07:25:13Z</time>
      </trkpt>
      <trkpt lat="42.37458" lon="2.73302">
        <ele>445.2</ele>
        <time>2018-11-26T07:25:17Z</time>
      </trkpt>
      <trkpt lat="42.37452" lon="2.73299">
        <ele>445.3</ele>
        <time>2018-11-26T07:25:19Z</time>
      </trkpt>
      <trkpt lat="42.37448" lon="2.73294">
        <ele>446.3</ele>
        <time>2018-11-26T07:25:22Z</time>
      </trkpt>
      <trkpt lat="42.37436" lon="2.73281">
        <ele>447.6</ele>
        <time>2018-11-26T07:25:27Z</time>
      </trkpt>
      <trkpt lat="42.37434" lon="2.73279">
        <ele>448.6</ele>
        <time>2018-11-26T07:25:29Z</time>
      </trkpt>
      <trkpt lat="42.3743" lon="2.73269">
        <ele>449.6</ele>
        <time>2018-11-26T07:25:32Z</time>
      </trkpt>
      <trkpt lat="42.37422" lon="2.73257">
        <ele>451.5</ele>
        <time>2018-11-26T07:25:37Z</time>
      </trkpt>
      <trkpt lat="42.3742" lon="2.73253">
        <ele>452.1</ele>
        <time>2018-11-26T07:25:38Z</time>
      </trkpt>
      <trkpt lat="42.37415" lon="2.73229">
        <ele>452.5</ele>
        <time>2018-11-26T07:25:45Z</time>
      </trkpt>
      <trkpt lat="42.37412" lon="2.73221">
        <ele>452.4</ele>
        <time>2018-11-26T07:25:48Z</time>
      </trkpt>
      <trkpt lat="42.37412" lon="2.73218">
        <ele>452</ele>
        <time>2018-11-26T07:25:49Z</time>
      </trkpt>
      <trkpt lat="42.37408" lon="2.73194">
        <ele>452.9</ele>
        <time>2018-11-26T07:25:56Z</time>
      </trkpt>
      <trkpt lat="42.37397" lon="2.73178">
        <ele>453.5</ele>
        <time>2018-11-26T07:26:03Z</time>
      </trkpt>
      <trkpt lat="42.37389" lon="2.73177">
        <ele>453.9</ele>
        <time>2018-11-26T07:26:06Z</time>
      </trkpt>
      <trkpt lat="42.37371" lon="2.73168">
        <ele>454.9</ele>
        <time>2018-11-26T07:26:13Z</time>
      </trkpt>
      <trkpt lat="42.37356" lon="2.73164">
        <ele>457.7</ele>
        <time>2018-11-26T07:26:20Z</time>
      </trkpt>
      <trkpt lat="42.37354" lon="2.73154">
        <ele>459.8</ele>
        <time>2018-11-26T07:26:23Z</time>
      </trkpt>
      <trkpt lat="42.37337" lon="2.73165">
        <ele>462.6</ele>
        <time>2018-11-26T07:26:30Z</time>
      </trkpt>
      <trkpt lat="42.37315" lon="2.73176">
        <ele>466</ele>
        <time>2018-11-26T07:26:39Z</time>
      </trkpt>
      <trkpt lat="42.37305" lon="2.73174">
        <ele>468.8</ele>
        <time>2018-11-26T07:26:44Z</time>
      </trkpt>
      <trkpt lat="42.3729" lon="2.73168">
        <ele>470.2</ele>
        <time>2018-11-26T07:26:50Z</time>
      </trkpt>
      <trkpt lat="42.37272" lon="2.73166">
        <ele>471.2</ele>
        <time>2018-11-26T07:26:57Z</time>
      </trkpt>
      <trkpt lat="42.37263" lon="2.73167">
        <ele>472.1</ele>
        <time>2018-11-26T07:27:01Z</time>
      </trkpt>
      <trkpt lat="42.37254" lon="2.73166">
        <ele>472.7</ele>
        <time>2018-11-26T07:27:04Z</time>
      </trkpt>
      <trkpt lat="42.37248" lon="2.73162">
        <ele>472.7</ele>
        <time>2018-11-26T07:27:07Z</time>
      </trkpt>
      <trkpt lat="42.37241" lon="2.73162">
        <ele>471.7</ele>
        <time>2018-11-26T07:27:10Z</time>
      </trkpt>
      <trkpt lat="42.37235" lon="2.7316">
        <ele>471.8</ele>
        <time>2018-11-26T07:27:12Z</time>
      </trkpt>
      <trkpt lat="42.37227" lon="2.73158">
        <ele>471.2</ele>
        <time>2018-11-26T07:27:16Z</time>
      </trkpt>
      <trkpt lat="42.37213" lon="2.73146">
        <ele>471.3</ele>
        <time>2018-11-26T07:27:22Z</time>
      </trkpt>
      <trkpt lat="42.37211" lon="2.73144">
        <ele>471.7</ele>
        <time>2018-11-26T07:27:23Z</time>
      </trkpt>
      <trkpt lat="42.37192" lon="2.73136">
        <ele>472.1</ele>
        <time>2018-11-26T07:27:31Z</time>
      </trkpt>
      <trkpt lat="42.37186" lon="2.73132">
        <ele>471.7</ele>
        <time>2018-11-26T07:27:34Z</time>
      </trkpt>
      <trkpt lat="42.37177" lon="2.73128">
        <ele>472.6</ele>
        <time>2018-11-26T07:27:37Z</time>
      </trkpt>
      <trkpt lat="42.37159" lon="2.73119">
        <ele>473.7</ele>
        <time>2018-11-26T07:27:45Z</time>
      </trkpt>
      <trkpt lat="42.37137" lon="2.73106">
        <ele>475</ele>
        <time>2018-11-26T07:27:55Z</time>
      </trkpt>
      <trkpt lat="42.37127" lon="2.73102">
        <ele>476</ele>
        <time>2018-11-26T07:27:59Z</time>
      </trkpt>
      <trkpt lat="42.37121" lon="2.731">
        <ele>476.5</ele>
        <time>2018-11-26T07:28:02Z</time>
      </trkpt>
      <trkpt lat="42.37106" lon="2.73095">
        <ele>478</ele>
        <time>2018-11-26T07:28:08Z</time>
      </trkpt>
      <trkpt lat="42.37095" lon="2.73086">
        <ele>480.8</ele>
        <time>2018-11-26T07:28:13Z</time>
      </trkpt>
      <trkpt lat="42.37086" lon="2.73078">
        <ele>481.9</ele>
        <time>2018-11-26T07:28:17Z</time>
      </trkpt>
      <trkpt lat="42.37077" lon="2.73073">
        <ele>483.3</ele>
        <time>2018-11-26T07:28:21Z</time>
      </trkpt>
      <trkpt lat="42.37056" lon="2.7307">
        <ele>485.6</ele>
        <time>2018-11-26T07:28:29Z</time>
      </trkpt>
      <trkpt lat="42.37048" lon="2.73068">
        <ele>486.1</ele>
        <time>2018-11-26T07:28:33Z</time>
      </trkpt>
      <trkpt lat="42.37021" lon="2.73082">
        <ele>487.5</ele>
        <time>2018-11-26T07:28:44Z</time>
      </trkpt>
      <trkpt lat="42.37014" lon="2.73088">
        <ele>488.6</ele>
        <time>2018-11-26T07:28:48Z</time>
      </trkpt>
      <trkpt lat="42.37003" lon="2.73091">
        <ele>487.5</ele>
        <time>2018-11-26T07:28:52Z</time>
      </trkpt>
      <trkpt lat="42.36981" lon="2.73092">
        <ele>488.1</ele>
        <time>2018-11-26T07:29:01Z</time>
      </trkpt>
      <trkpt lat="42.3697" lon="2.73088">
        <ele>488.1</ele>
        <time>2018-11-26T07:29:06Z</time>
      </trkpt>
      <trkpt lat="42.36951" lon="2.73096">
        <ele>488.5</ele>
        <time>2018-11-26T07:29:14Z</time>
      </trkpt>
      <trkpt lat="42.3694" lon="2.73094">
        <ele>489.5</ele>
        <time>2018-11-26T07:29:18Z</time>
      </trkpt>
      <trkpt lat="42.36927" lon="2.73085">
        <ele>492</ele>
        <time>2018-11-26T07:29:24Z</time>
      </trkpt>
      <trkpt lat="42.36926" lon="2.73085">
        <ele>491.9</ele>
        <time>2018-11-26T07:29:24Z</time>
      </trkpt>
      <trkpt lat="42.36912" lon="2.73078">
        <ele>494.3</ele>
        <time>2018-11-26T07:29:30Z</time>
      </trkpt>
      <trkpt lat="42.36901" lon="2.73066">
        <ele>494.3</ele>
        <time>2018-11-26T07:29:36Z</time>
      </trkpt>
      <trkpt lat="42.36899" lon="2.73061">
        <ele>494.7</ele>
        <time>2018-11-26T07:29:37Z</time>
      </trkpt>
      <trkpt lat="42.36885" lon="2.73051">
        <ele>495.3</ele>
        <time>2018-11-26T07:29:44Z</time>
      </trkpt>
      <trkpt lat="42.36878" lon="2.73047">
        <ele>495.8</ele>
        <time>2018-11-26T07:29:47Z</time>
      </trkpt>
      <trkpt lat="42.36869" lon="2.73042">
        <ele>496.8</ele>
        <time>2018-11-26T07:29:51Z</time>
      </trkpt>
      <trkpt lat="42.36857" lon="2.73024">
        <ele>497.7</ele>
        <time>2018-11-26T07:29:58Z</time>
      </trkpt>
      <trkpt lat="42.36854" lon="2.7302">
        <ele>497.6</ele>
        <time>2018-11-26T07:30:00Z</time>
      </trkpt>
      <trkpt lat="42.3684" lon="2.73007">
        <ele>498.6</ele>
        <time>2018-11-26T07:30:06Z</time>
      </trkpt>
      <trkpt lat="42.36833" lon="2.73002">
        <ele>498.6</ele>
        <time>2018-11-26T07:30:09Z</time>
      </trkpt>
      <trkpt lat="42.36821" lon="2.72991">
        <ele>501.6</ele>
        <time>2018-11-26T07:30:15Z</time>
      </trkpt>
      <trkpt lat="42.36813" lon="2.72977">
        <ele>501.5</ele>
        <time>2018-11-26T07:30:21Z</time>
      </trkpt>
      <trkpt lat="42.36802" lon="2.72967">
        <ele>501</ele>
        <time>2018-11-26T07:30:26Z</time>
      </trkpt>
      <trkpt lat="42.36798" lon="2.72958">
        <ele>501.5</ele>
        <time>2018-11-26T07:30:29Z</time>
      </trkpt>
      <trkpt lat="42.36795" lon="2.72947">
        <ele>502</ele>
        <time>2018-11-26T07:30:32Z</time>
      </trkpt>
      <trkpt lat="42.36787" lon="2.72935">
        <ele>504.4</ele>
        <time>2018-11-26T07:30:37Z</time>
      </trkpt>
      <trkpt lat="42.36782" lon="2.72932">
        <ele>505.4</ele>
        <time>2018-11-26T07:30:39Z</time>
      </trkpt>
      <trkpt lat="42.36766" lon="2.72927">
        <ele>508.8</ele>
        <time>2018-11-26T07:30:46Z</time>
      </trkpt>
      <trkpt lat="42.36763" lon="2.72925">
        <ele>509.3</ele>
        <time>2018-11-26T07:30:47Z</time>
      </trkpt>
      <trkpt lat="42.36762" lon="2.72927">
        <ele>510.2</ele>
        <time>2018-11-26T07:30:48Z</time>
      </trkpt>
      <trkpt lat="42.36763" lon="2.72927">
        <ele>509.7</ele>
        <time>2018-11-26T07:30:48Z</time>
      </trkpt>
      <trkpt lat="42.36764" lon="2.72926">
        <ele>509.6</ele>
        <time>2018-11-26T07:30:49Z</time>
      </trkpt>
      <trkpt lat="42.36763" lon="2.72928">
        <ele>510.1</ele>
        <time>2018-11-26T07:30:49Z</time>
      </trkpt>
      <trkpt lat="42.36763" lon="2.72928">
        <ele>510.1</ele>
        <time>2018-11-26T07:30:49Z</time>
      </trkpt>
      <trkpt lat="42.36763" lon="2.72928">
        <ele>501.5</ele>
        <time>2018-11-26T07:30:49Z</time>
      </trkpt>
      <trkpt lat="42.36763" lon="2.72928">
        <ele>507.8</ele>
        <time>2018-11-26T07:30:49Z</time>
      </trkpt>
      <trkpt lat="42.36763" lon="2.72928">
        <ele>512.6</ele>
        <time>2018-11-26T07:30:49Z</time>
      </trkpt>
      <trkpt lat="42.36763" lon="2.72928">
        <ele>505.8</ele>
        <time>2018-11-26T07:30:49Z</time>
      </trkpt>
      <trkpt lat="42.36763" lon="2.72928">
        <ele>512.1</ele>
        <time>2018-11-26T07:30:49Z</time>
      </trkpt>
      <trkpt lat="42.36763" lon="2.72928">
        <ele>505.8</ele>
        <time>2018-11-26T07:30:49Z</time>
      </trkpt>
      <trkpt lat="42.36763" lon="2.72928">
        <ele>510.7</ele>
        <time>2018-11-26T07:30:49Z</time>
      </trkpt>
      <trkpt lat="42.36763" lon="2.72928">
        <ele>506.8</ele>
        <time>2018-11-26T07:30:49Z</time>
      </trkpt>
      <trkpt lat="42.36762" lon="2.72928">
        <ele>510.7</ele>
        <time>2018-11-26T07:30:50Z</time>
      </trkpt>
      <trkpt lat="42.36762" lon="2.72928">
        <ele>516.5</ele>
        <time>2018-11-26T07:30:50Z</time>
      </trkpt>
      <trkpt lat="42.36762" lon="2.72928">
        <ele>508.2</ele>
        <time>2018-11-26T07:30:50Z</time>
      </trkpt>
      <trkpt lat="42.36762" lon="2.72928">
        <ele>507.7</ele>
        <time>2018-11-26T07:30:50Z</time>
      </trkpt>
      <trkpt lat="42.36762" lon="2.72928">
        <ele>512.5</ele>
        <time>2018-11-26T07:30:50Z</time>
      </trkpt>
      <trkpt lat="42.36762" lon="2.72928">
        <ele>505.9</ele>
        <time>2018-11-26T07:30:50Z</time>
      </trkpt>
      <trkpt lat="42.36762" lon="2.72928">
        <ele>514.1</ele>
        <time>2018-11-26T07:30:50Z</time>
      </trkpt>
      <trkpt lat="42.36762" lon="2.72928">
        <ele>507.8</ele>
        <time>2018-11-26T07:30:50Z</time>
      </trkpt>
      <trkpt lat="42.36762" lon="2.72928">
        <ele>515</ele>
        <time>2018-11-26T07:30:50Z</time>
      </trkpt>
      <trkpt lat="42.36762" lon="2.72928">
        <ele>511.7</ele>
        <time>2018-11-26T07:30:50Z</time>
      </trkpt>
      <trkpt lat="42.36762" lon="2.72928">
        <ele>508.3</ele>
        <time>2018-11-26T07:30:50Z</time>
      </trkpt>
      <trkpt lat="42.36762" lon="2.72928">
        <ele>514</ele>
        <time>2018-11-26T07:30:50Z</time>
      </trkpt>
      <trkpt lat="42.36762" lon="2.72928">
        <ele>510.7</ele>
        <time>2018-11-26T07:30:50Z</time>
      </trkpt>
      <trkpt lat="42.36762" lon="2.72928">
        <ele>504.8</ele>
        <time>2018-11-26T07:30:50Z</time>
      </trkpt>
      <trkpt lat="42.36762" lon="2.72928">
        <ele>510.6</ele>
        <time>2018-11-26T07:30:50Z</time>
      </trkpt>
      <trkpt lat="42.36762" lon="2.72928">
        <ele>505.8</ele>
        <time>2018-11-26T07:30:50Z</time>
      </trkpt>
      <trkpt lat="42.36762" lon="2.72928">
        <ele>509.2</ele>
        <time>2018-11-26T07:30:50Z</time>
      </trkpt>
      <trkpt lat="42.36762" lon="2.72928">
        <ele>518.8</ele>
        <time>2018-11-26T07:30:50Z</time>
      </trkpt>
      <trkpt lat="42.36762" lon="2.72928">
        <ele>510.6</ele>
        <time>2018-11-26T07:30:50Z</time>
      </trkpt>
      <trkpt lat="42.36762" lon="2.72928">
        <ele>505.4</ele>
        <time>2018-11-26T07:30:50Z</time>
      </trkpt>
      <trkpt lat="42.36762" lon="2.72928">
        <ele>502</ele>
        <time>2018-11-26T07:30:50Z</time>
      </trkpt>
      <trkpt lat="42.36762" lon="2.72928">
        <ele>516.9</ele>
        <time>2018-11-26T07:30:50Z</time>
      </trkpt>
      <trkpt lat="42.36762" lon="2.72928">
        <ele>509.3</ele>
        <time>2018-11-26T07:30:50Z</time>
      </trkpt>
      <trkpt lat="42.36756" lon="2.72922">
        <ele>511.1</ele>
        <time>2018-11-26T07:30:53Z</time>
      </trkpt>
      <trkpt lat="42.36755" lon="2.72921">
        <ele>506.3</ele>
        <time>2018-11-26T07:30:53Z</time>
      </trkpt>
      <trkpt lat="42.36754" lon="2.7292">
        <ele>511.6</ele>
        <time>2018-11-26T07:30:54Z</time>
      </trkpt>
      <trkpt lat="42.36754" lon="2.72919">
        <ele>513.5</ele>
        <time>2018-11-26T07:30:54Z</time>
      </trkpt>
      <trkpt lat="42.36753" lon="2.72918">
        <ele>507.8</ele>
        <time>2018-11-26T07:30:54Z</time>
      </trkpt>
      <trkpt lat="42.36752" lon="2.72917">
        <ele>505.9</ele>
        <time>2018-11-26T07:30:55Z</time>
      </trkpt>
      <trkpt lat="42.36752" lon="2.72916">
        <ele>512.1</ele>
        <time>2018-11-26T07:30:55Z</time>
      </trkpt>
      <trkpt lat="42.3675" lon="2.72914">
        <ele>515.5</ele>
        <time>2018-11-26T07:30:56Z</time>
      </trkpt>
      <trkpt lat="42.36749" lon="2.72913">
        <ele>504.9</ele>
        <time>2018-11-26T07:30:57Z</time>
      </trkpt>
      <trkpt lat="42.36741" lon="2.72902">
        <ele>511.6</ele>
        <time>2018-11-26T07:31:01Z</time>
      </trkpt>
      <trkpt lat="42.3674" lon="2.72901">
        <ele>516.4</ele>
        <time>2018-11-26T07:31:02Z</time>
      </trkpt>
      <trkpt lat="42.3674" lon="2.729">
        <ele>512.5</ele>
        <time>2018-11-26T07:31:02Z</time>
      </trkpt>
      <trkpt lat="42.36738" lon="2.72897">
        <ele>513.5</ele>
        <time>2018-11-26T07:31:03Z</time>
      </trkpt>
      <trkpt lat="42.36735" lon="2.72895">
        <ele>514</ele>
        <time>2018-11-26T07:31:05Z</time>
      </trkpt>
      <trkpt lat="42.36733" lon="2.7289">
        <ele>514.1</ele>
        <time>2018-11-26T07:31:06Z</time>
      </trkpt>
      <trkpt lat="42.3673" lon="2.72881">
        <ele>515.9</ele>
        <time>2018-11-26T07:31:09Z</time>
      </trkpt>
      <trkpt lat="42.3673" lon="2.72879">
        <ele>515.5</ele>
        <time>2018-11-26T07:31:10Z</time>
      </trkpt>
      <trkpt lat="42.36724" lon="2.72863">
        <ele>518.9</ele>
        <time>2018-11-26T07:31:15Z</time>
      </trkpt>
      <trkpt lat="42.36717" lon="2.72855">
        <ele>519.4</ele>
        <time>2018-11-26T07:31:19Z</time>
      </trkpt>
      <trkpt lat="42.36711" lon="2.72839">
        <ele>522.2</ele>
        <time>2018-11-26T07:31:24Z</time>
      </trkpt>
      <trkpt lat="42.36708" lon="2.7283">
        <ele>523.2</ele>
        <time>2018-11-26T07:31:27Z</time>
      </trkpt>
      <trkpt lat="42.36708" lon="2.72824">
        <ele>525.1</ele>
        <time>2018-11-26T07:31:29Z</time>
      </trkpt>
      <trkpt lat="42.36707" lon="2.7282">
        <ele>526</ele>
        <time>2018-11-26T07:31:30Z</time>
      </trkpt>
      <trkpt lat="42.36707" lon="2.72809">
        <ele>529.3</ele>
        <time>2018-11-26T07:31:33Z</time>
      </trkpt>
      <trkpt lat="42.36707" lon="2.72801">
        <ele>530.3</ele>
        <time>2018-11-26T07:31:35Z</time>
      </trkpt>
      <trkpt lat="42.36707" lon="2.72798">
        <ele>531.4</ele>
        <time>2018-11-26T07:31:36Z</time>
      </trkpt>
      <trkpt lat="42.36707" lon="2.72784">
        <ele>534.2</ele>
        <time>2018-11-26T07:31:41Z</time>
      </trkpt>
      <trkpt lat="42.36712" lon="2.72764">
        <ele>536.6</ele>
        <time>2018-11-26T07:31:47Z</time>
      </trkpt>
      <trkpt lat="42.36716" lon="2.72754">
        <ele>539.1</ele>
        <time>2018-11-26T07:31:50Z</time>
      </trkpt>
      <trkpt lat="42.36715" lon="2.72751">
        <ele>539.9</ele>
        <time>2018-11-26T07:31:51Z</time>
      </trkpt>
      <trkpt lat="42.3671" lon="2.72739">
        <ele>542.9</ele>
        <time>2018-11-26T07:31:55Z</time>
      </trkpt>
      <trkpt lat="42.36708" lon="2.72737">
        <ele>542.8</ele>
        <time>2018-11-26T07:31:56Z</time>
      </trkpt>
      <trkpt lat="42.36697" lon="2.72732">
        <ele>546.2</ele>
        <time>2018-11-26T07:32:01Z</time>
      </trkpt>
      <trkpt lat="42.36694" lon="2.7273">
        <ele>549.1</ele>
        <time>2018-11-26T07:32:02Z</time>
      </trkpt>
      <trkpt lat="42.36689" lon="2.72717">
        <ele>551.5</ele>
        <time>2018-11-26T07:32:07Z</time>
      </trkpt>
      <trkpt lat="42.36688" lon="2.72711">
        <ele>554.8</ele>
        <time>2018-11-26T07:32:08Z</time>
      </trkpt>
      <trkpt lat="42.36686" lon="2.72698">
        <ele>558.2</ele>
        <time>2018-11-26T07:32:12Z</time>
      </trkpt>
      <trkpt lat="42.36682" lon="2.7269">
        <ele>561.2</ele>
        <time>2018-11-26T07:32:15Z</time>
      </trkpt>
      <trkpt lat="42.36674" lon="2.72678">
        <ele>564.1</ele>
        <time>2018-11-26T07:32:20Z</time>
      </trkpt>
      <trkpt lat="42.36669" lon="2.72673">
        <ele>566.5</ele>
        <time>2018-11-26T07:32:22Z</time>
      </trkpt>
      <trkpt lat="42.36662" lon="2.72672">
        <ele>568.4</ele>
        <time>2018-11-26T07:32:25Z</time>
      </trkpt>
      <trkpt lat="42.36649" lon="2.72676">
        <ele>571.7</ele>
        <time>2018-11-26T07:32:31Z</time>
      </trkpt>
      <trkpt lat="42.36646" lon="2.72676">
        <ele>572.2</ele>
        <time>2018-11-26T07:32:32Z</time>
      </trkpt>
      <trkpt lat="42.36645" lon="2.72681">
        <ele>575.1</ele>
        <time>2018-11-26T07:32:33Z</time>
      </trkpt>
      <trkpt lat="42.36633" lon="2.72676">
        <ele>577</ele>
        <time>2018-11-26T07:32:38Z</time>
      </trkpt>
      <trkpt lat="42.3662" lon="2.72673">
        <ele>579.8</ele>
        <time>2018-11-26T07:32:43Z</time>
      </trkpt>
      <trkpt lat="42.36613" lon="2.72677">
        <ele>583.2</ele>
        <time>2018-11-26T07:32:46Z</time>
      </trkpt>
      <trkpt lat="42.36607" lon="2.72671">
        <ele>586.2</ele>
        <time>2018-11-26T07:32:49Z</time>
      </trkpt>
      <trkpt lat="42.36597" lon="2.7266">
        <ele>588.1</ele>
        <time>2018-11-26T07:32:54Z</time>
      </trkpt>
      <trkpt lat="42.36583" lon="2.72648">
        <ele>590.9</ele>
        <time>2018-11-26T07:33:01Z</time>
      </trkpt>
      <trkpt lat="42.36568" lon="2.72643">
        <ele>593.9</ele>
        <time>2018-11-26T07:33:07Z</time>
      </trkpt>
      <trkpt lat="42.3656" lon="2.72637">
        <ele>595.2</ele>
        <time>2018-11-26T07:33:11Z</time>
      </trkpt>
      <trkpt lat="42.36554" lon="2.72636">
        <ele>597.7</ele>
        <time>2018-11-26T07:33:13Z</time>
      </trkpt>
      <trkpt lat="42.36542" lon="2.72628">
        <ele>600.5</ele>
        <time>2018-11-26T07:33:19Z</time>
      </trkpt>
      <trkpt lat="42.36533" lon="2.72629">
        <ele>603.5</ele>
        <time>2018-11-26T07:33:22Z</time>
      </trkpt>
      <trkpt lat="42.36516" lon="2.7263">
        <ele>606.8</ele>
        <time>2018-11-26T07:33:29Z</time>
      </trkpt>
      <trkpt lat="42.36508" lon="2.7263">
        <ele>608.2</ele>
        <time>2018-11-26T07:33:32Z</time>
      </trkpt>
      <trkpt lat="42.36494" lon="2.72617">
        <ele>610.6</ele>
        <time>2018-11-26T07:33:39Z</time>
      </trkpt>
      <trkpt lat="42.36487" lon="2.72613">
        <ele>612</ele>
        <time>2018-11-26T07:33:42Z</time>
      </trkpt>
      <trkpt lat="42.36484" lon="2.72614">
        <ele>613.6</ele>
        <time>2018-11-26T07:33:44Z</time>
      </trkpt>
      <trkpt lat="42.36481" lon="2.72616">
        <ele>613.6</ele>
        <time>2018-11-26T07:33:45Z</time>
      </trkpt>
      <trkpt lat="42.36481" lon="2.72616">
        <ele>613.9</ele>
        <time>2018-11-26T07:33:45Z</time>
      </trkpt>
      <trkpt lat="42.36474" lon="2.72618">
        <ele>614.4</ele>
        <time>2018-11-26T07:33:47Z</time>
      </trkpt>
      <trkpt lat="42.36466" lon="2.72608">
        <ele>617.4</ele>
        <time>2018-11-26T07:33:52Z</time>
      </trkpt>
      <trkpt lat="42.36455" lon="2.726">
        <ele>618.9</ele>
        <time>2018-11-26T07:33:57Z</time>
      </trkpt>
      <trkpt lat="42.36444" lon="2.72583">
        <ele>621.7</ele>
        <time>2018-11-26T07:34:04Z</time>
      </trkpt>
      <trkpt lat="42.36436" lon="2.72571">
        <ele>623.7</ele>
        <time>2018-11-26T07:34:09Z</time>
      </trkpt>
      <trkpt lat="42.36427" lon="2.72558">
        <ele>626.4</ele>
        <time>2018-11-26T07:34:14Z</time>
      </trkpt>
      <trkpt lat="42.36415" lon="2.72545">
        <ele>629.3</ele>
        <time>2018-11-26T07:34:20Z</time>
      </trkpt>
      <trkpt lat="42.36412" lon="2.72539">
        <ele>631.2</ele>
        <time>2018-11-26T07:34:22Z</time>
      </trkpt>
      <trkpt lat="42.36413" lon="2.72538">
        <ele>627</ele>
        <time>2018-11-26T07:34:22Z</time>
      </trkpt>
      <trkpt lat="42.36417" lon="2.72533">
        <ele>632.2</ele>
        <time>2018-11-26T07:34:25Z</time>
      </trkpt>
      <trkpt lat="42.36419" lon="2.7253">
        <ele>633.8</ele>
        <time>2018-11-26T07:34:26Z</time>
      </trkpt>
      <trkpt lat="42.36419" lon="2.7253">
        <ele>629.3</ele>
        <time>2018-11-26T07:34:26Z</time>
      </trkpt>
      <trkpt lat="42.36419" lon="2.7253">
        <ele>639.5</ele>
        <time>2018-11-26T07:34:26Z</time>
      </trkpt>
      <trkpt lat="42.36419" lon="2.7253">
        <ele>628.5</ele>
        <time>2018-11-26T07:34:26Z</time>
      </trkpt>
      <trkpt lat="42.3642" lon="2.7253">
        <ele>632.3</ele>
        <time>2018-11-26T07:34:26Z</time>
      </trkpt>
      <trkpt lat="42.36411" lon="2.72521">
        <ele>635.2</ele>
        <time>2018-11-26T07:34:30Z</time>
      </trkpt>
      <trkpt lat="42.36405" lon="2.72506">
        <ele>638</ele>
        <time>2018-11-26T07:34:35Z</time>
      </trkpt>
      <trkpt lat="42.36402" lon="2.725">
        <ele>639.4</ele>
        <time>2018-11-26T07:34:37Z</time>
      </trkpt>
      <trkpt lat="42.36401" lon="2.72484">
        <ele>642.9</ele>
        <time>2018-11-26T07:34:42Z</time>
      </trkpt>
      <trkpt lat="42.36393" lon="2.72464">
        <ele>645.8</ele>
        <time>2018-11-26T07:34:49Z</time>
      </trkpt>
      <trkpt lat="42.36385" lon="2.72451">
        <ele>648.6</ele>
        <time>2018-11-26T07:34:54Z</time>
      </trkpt>
      <trkpt lat="42.36374" lon="2.7244">
        <ele>651.4</ele>
        <time>2018-11-26T07:35:00Z</time>
      </trkpt>
      <trkpt lat="42.3636" lon="2.72437">
        <ele>653.4</ele>
        <time>2018-11-26T07:35:05Z</time>
      </trkpt>
      <trkpt lat="42.36357" lon="2.72442">
        <ele>655.9</ele>
        <time>2018-11-26T07:35:07Z</time>
      </trkpt>
      <trkpt lat="42.36345" lon="2.72448">
        <ele>658.2</ele>
        <time>2018-11-26T07:35:12Z</time>
      </trkpt>
      <trkpt lat="42.36333" lon="2.72444">
        <ele>661.6</ele>
        <time>2018-11-26T07:35:17Z</time>
      </trkpt>
      <trkpt lat="42.36322" lon="2.72437">
        <ele>665</ele>
        <time>2018-11-26T07:35:22Z</time>
      </trkpt>
      <trkpt lat="42.36316" lon="2.72432">
        <ele>667.8</ele>
        <time>2018-11-26T07:35:25Z</time>
      </trkpt>
      <trkpt lat="42.36308" lon="2.72427">
        <ele>670.2</ele>
        <time>2018-11-26T07:35:29Z</time>
      </trkpt>
      <trkpt lat="42.36299" lon="2.7242">
        <ele>673.5</ele>
        <time>2018-11-26T07:35:33Z</time>
      </trkpt>
      <trkpt lat="42.36292" lon="2.72418">
        <ele>675.9</ele>
        <time>2018-11-26T07:35:35Z</time>
      </trkpt>
      <trkpt lat="42.36285" lon="2.7242">
        <ele>679.9</ele>
        <time>2018-11-26T07:35:38Z</time>
      </trkpt>
      <trkpt lat="42.36282" lon="2.72423">
        <ele>683.2</ele>
        <time>2018-11-26T07:35:40Z</time>
      </trkpt>
      <trkpt lat="42.36282" lon="2.72427">
        <ele>684.2</ele>
        <time>2018-11-26T07:35:41Z</time>
      </trkpt>
      <trkpt lat="42.36278" lon="2.72435">
        <ele>686.5</ele>
        <time>2018-11-26T07:35:44Z</time>
      </trkpt>
      <trkpt lat="42.36271" lon="2.72426">
        <ele>688.5</ele>
        <time>2018-11-26T07:35:47Z</time>
      </trkpt>
      <trkpt lat="42.36255" lon="2.72424">
        <ele>691.3</ele>
        <time>2018-11-26T07:35:54Z</time>
      </trkpt>
      <trkpt lat="42.36248" lon="2.72435">
        <ele>694.7</ele>
        <time>2018-11-26T07:35:58Z</time>
      </trkpt>
      <trkpt lat="42.36245" lon="2.7242">
        <ele>697.1</ele>
        <time>2018-11-26T07:36:03Z</time>
      </trkpt>
      <trkpt lat="42.36244" lon="2.72398">
        <ele>698.1</ele>
        <time>2018-11-26T07:36:09Z</time>
      </trkpt>
      <trkpt lat="42.36245" lon="2.72391">
        <ele>699</ele>
        <time>2018-11-26T07:36:11Z</time>
      </trkpt>
      <trkpt lat="42.36236" lon="2.72374">
        <ele>701.4</ele>
        <time>2018-11-26T07:36:17Z</time>
      </trkpt>
      <trkpt lat="42.3623" lon="2.72366">
        <ele>701.5</ele>
        <time>2018-11-26T07:36:21Z</time>
      </trkpt>
      <trkpt lat="42.36221" lon="2.72349">
        <ele>703</ele>
        <time>2018-11-26T07:36:27Z</time>
      </trkpt>
      <trkpt lat="42.36217" lon="2.72337">
        <ele>703.8</ele>
        <time>2018-11-26T07:36:31Z</time>
      </trkpt>
      <trkpt lat="42.36214" lon="2.72332">
        <ele>705.3</ele>
        <time>2018-11-26T07:36:33Z</time>
      </trkpt>
      <trkpt lat="42.36212" lon="2.72323">
        <ele>705.8</ele>
        <time>2018-11-26T07:36:35Z</time>
      </trkpt>
      <trkpt lat="42.3621" lon="2.72318">
        <ele>706.2</ele>
        <time>2018-11-26T07:36:37Z</time>
      </trkpt>
      <trkpt lat="42.36205" lon="2.72313">
        <ele>707.7</ele>
        <time>2018-11-26T07:36:40Z</time>
      </trkpt>
      <trkpt lat="42.36196" lon="2.7231">
        <ele>708.2</ele>
        <time>2018-11-26T07:36:43Z</time>
      </trkpt>
      <trkpt lat="42.3618" lon="2.72303">
        <ele>708.6</ele>
        <time>2018-11-26T07:36:50Z</time>
      </trkpt>
      <trkpt lat="42.36161" lon="2.72291">
        <ele>710.6</ele>
        <time>2018-11-26T07:36:58Z</time>
      </trkpt>
      <trkpt lat="42.36157" lon="2.72279">
        <ele>712</ele>
        <time>2018-11-26T07:37:02Z</time>
      </trkpt>
      <trkpt lat="42.36156" lon="2.72272">
        <ele>712.1</ele>
        <time>2018-11-26T07:37:04Z</time>
      </trkpt>
      <trkpt lat="42.36152" lon="2.72254">
        <ele>714.9</ele>
        <time>2018-11-26T07:37:10Z</time>
      </trkpt>
      <trkpt lat="42.36154" lon="2.72232">
        <ele>716.8</ele>
        <time>2018-11-26T07:37:16Z</time>
      </trkpt>
      <trkpt lat="42.36156" lon="2.72227">
        <ele>717.3</ele>
        <time>2018-11-26T07:37:18Z</time>
      </trkpt>
      <trkpt lat="42.36153" lon="2.7221">
        <ele>720.7</ele>
        <time>2018-11-26T07:37:23Z</time>
      </trkpt>
      <trkpt lat="42.3615" lon="2.72205">
        <ele>722.2</ele>
        <time>2018-11-26T07:37:25Z</time>
      </trkpt>
      <trkpt lat="42.36131" lon="2.72206">
        <ele>722.6</ele>
        <time>2018-11-26T07:37:33Z</time>
      </trkpt>
      <trkpt lat="42.36127" lon="2.72209">
        <ele>722.6</ele>
        <time>2018-11-26T07:37:34Z</time>
      </trkpt>
      <trkpt lat="42.36119" lon="2.72211">
        <ele>722.1</ele>
        <time>2018-11-26T07:37:38Z</time>
      </trkpt>
      <trkpt lat="42.36112" lon="2.72205">
        <ele>723.5</ele>
        <time>2018-11-26T07:37:41Z</time>
      </trkpt>
      <trkpt lat="42.36102" lon="2.72196">
        <ele>726</ele>
        <time>2018-11-26T07:37:46Z</time>
      </trkpt>
      <trkpt lat="42.36094" lon="2.72194">
        <ele>727</ele>
        <time>2018-11-26T07:37:49Z</time>
      </trkpt>
      <trkpt lat="42.36084" lon="2.72187">
        <ele>727.4</ele>
        <time>2018-11-26T07:37:54Z</time>
      </trkpt>
      <trkpt lat="42.3607" lon="2.72179">
        <ele>727.9</ele>
        <time>2018-11-26T07:38:00Z</time>
      </trkpt>
      <trkpt lat="42.36068" lon="2.72179">
        <ele>725</ele>
        <time>2018-11-26T07:38:00Z</time>
      </trkpt>
      <trkpt lat="42.36062" lon="2.72173">
        <ele>728.4</ele>
        <time>2018-11-26T07:38:04Z</time>
      </trkpt>
      <trkpt lat="42.36051" lon="2.72151">
        <ele>729.8</ele>
        <time>2018-11-26T07:38:11Z</time>
      </trkpt>
      <trkpt lat="42.36055" lon="2.72122">
        <ele>731.8</ele>
        <time>2018-11-26T07:38:20Z</time>
      </trkpt>
      <trkpt lat="42.3606" lon="2.72111">
        <ele>732.7</ele>
        <time>2018-11-26T07:38:24Z</time>
      </trkpt>
      <trkpt lat="42.36062" lon="2.72105">
        <ele>733.1</ele>
        <time>2018-11-26T07:38:26Z</time>
      </trkpt>
      <trkpt lat="42.36073" lon="2.72081">
        <ele>734.6</ele>
        <time>2018-11-26T07:38:34Z</time>
      </trkpt>
      <trkpt lat="42.36081" lon="2.7206">
        <ele>737.1</ele>
        <time>2018-11-26T07:38:41Z</time>
      </trkpt>
      <trkpt lat="42.36082" lon="2.72053">
        <ele>737</ele>
        <time>2018-11-26T07:38:43Z</time>
      </trkpt>
      <trkpt lat="42.36085" lon="2.7204">
        <ele>736.1</ele>
        <time>2018-11-26T07:38:47Z</time>
      </trkpt>
      <trkpt lat="42.36087" lon="2.72015">
        <ele>736.1</ele>
        <time>2018-11-26T07:38:55Z</time>
      </trkpt>
      <trkpt lat="42.36085" lon="2.7199">
        <ele>737.6</ele>
        <time>2018-11-26T07:39:02Z</time>
      </trkpt>
      <trkpt lat="42.3608" lon="2.71962">
        <ele>738</ele>
        <time>2018-11-26T07:39:11Z</time>
      </trkpt>
      <trkpt lat="42.36075" lon="2.71946">
        <ele>739</ele>
        <time>2018-11-26T07:39:16Z</time>
      </trkpt>
      <trkpt lat="42.36072" lon="2.71935">
        <ele>740</ele>
        <time>2018-11-26T07:39:19Z</time>
      </trkpt>
      <trkpt lat="42.36071" lon="2.71931">
        <ele>739.9</ele>
        <time>2018-11-26T07:39:21Z</time>
      </trkpt>
      <trkpt lat="42.36067" lon="2.71919">
        <ele>740.8</ele>
        <time>2018-11-26T07:39:24Z</time>
      </trkpt>
      <trkpt lat="42.36064" lon="2.7191">
        <ele>742.3</ele>
        <time>2018-11-26T07:39:27Z</time>
      </trkpt>
      <trkpt lat="42.36063" lon="2.71907">
        <ele>742.9</ele>
        <time>2018-11-26T07:39:28Z</time>
      </trkpt>
      <trkpt lat="42.36059" lon="2.71896">
        <ele>743.3</ele>
        <time>2018-11-26T07:39:32Z</time>
      </trkpt>
      <trkpt lat="42.36052" lon="2.71882">
        <ele>745.3</ele>
        <time>2018-11-26T07:39:37Z</time>
      </trkpt>
      <trkpt lat="42.36051" lon="2.71873">
        <ele>746.7</ele>
        <time>2018-11-26T07:39:40Z</time>
      </trkpt>
      <trkpt lat="42.3605" lon="2.71872">
        <ele>747.1</ele>
        <time>2018-11-26T07:39:40Z</time>
      </trkpt>
      <trkpt lat="42.36044" lon="2.71855">
        <ele>749.6</ele>
        <time>2018-11-26T07:39:46Z</time>
      </trkpt>
      <trkpt lat="42.36043" lon="2.71851">
        <ele>750.6</ele>
        <time>2018-11-26T07:39:47Z</time>
      </trkpt>
      <trkpt lat="42.36041" lon="2.71846">
        <ele>750.6</ele>
        <time>2018-11-26T07:39:49Z</time>
      </trkpt>
      <trkpt lat="42.3604" lon="2.7184">
        <ele>751.4</ele>
        <time>2018-11-26T07:39:50Z</time>
      </trkpt>
      <trkpt lat="42.36035" lon="2.71818">
        <ele>753.3</ele>
        <time>2018-11-26T07:39:57Z</time>
      </trkpt>
      <trkpt lat="42.36033" lon="2.71805">
        <ele>755.4</ele>
        <time>2018-11-26T07:40:01Z</time>
      </trkpt>
      <trkpt lat="42.36033" lon="2.71803">
        <ele>755.3</ele>
        <time>2018-11-26T07:40:02Z</time>
      </trkpt>
      <trkpt lat="42.36028" lon="2.71783">
        <ele>757.8</ele>
        <time>2018-11-26T07:40:08Z</time>
      </trkpt>
      <trkpt lat="42.36027" lon="2.71775">
        <ele>758.6</ele>
        <time>2018-11-26T07:40:10Z</time>
      </trkpt>
      <trkpt lat="42.36022" lon="2.71763">
        <ele>759.7</ele>
        <time>2018-11-26T07:40:15Z</time>
      </trkpt>
      <trkpt lat="42.36019" lon="2.71758">
        <ele>759.1</ele>
        <time>2018-11-26T07:40:16Z</time>
      </trkpt>
      <trkpt lat="42.36015" lon="2.71747">
        <ele>759.6</ele>
        <time>2018-11-26T07:40:20Z</time>
      </trkpt>
      <trkpt lat="42.36011" lon="2.71737">
        <ele>760.1</ele>
        <time>2018-11-26T07:40:23Z</time>
      </trkpt>
      <trkpt lat="42.36009" lon="2.71717">
        <ele>761</ele>
        <time>2018-11-26T07:40:29Z</time>
      </trkpt>
      <trkpt lat="42.3601" lon="2.71709">
        <ele>761.5</ele>
        <time>2018-11-26T07:40:32Z</time>
      </trkpt>
      <trkpt lat="42.36011" lon="2.71702">
        <ele>762</ele>
        <time>2018-11-26T07:40:34Z</time>
      </trkpt>
      <trkpt lat="42.36017" lon="2.71683">
        <ele>764.9</ele>
        <time>2018-11-26T07:40:40Z</time>
      </trkpt>
      <trkpt lat="42.36018" lon="2.71681">
        <ele>765</ele>
        <time>2018-11-26T07:40:40Z</time>
      </trkpt>
      <trkpt lat="42.36024" lon="2.71665">
        <ele>766.9</ele>
        <time>2018-11-26T07:40:46Z</time>
      </trkpt>
      <trkpt lat="42.36026" lon="2.71641">
        <ele>769.7</ele>
        <time>2018-11-26T07:40:53Z</time>
      </trkpt>
      <trkpt lat="42.36024" lon="2.71629">
        <ele>770.3</ele>
        <time>2018-11-26T07:40:57Z</time>
      </trkpt>
      <trkpt lat="42.36019" lon="2.7161">
        <ele>772.1</ele>
        <time>2018-11-26T07:41:03Z</time>
      </trkpt>
      <trkpt lat="42.36013" lon="2.71602">
        <ele>773</ele>
        <time>2018-11-26T07:41:06Z</time>
      </trkpt>
      <trkpt lat="42.36005" lon="2.71584">
        <ele>774.5</ele>
        <time>2018-11-26T07:41:12Z</time>
      </trkpt>
      <trkpt lat="42.35989" lon="2.71568">
        <ele>777.5</ele>
        <time>2018-11-26T07:41:20Z</time>
      </trkpt>
      <trkpt lat="42.35975" lon="2.71556">
        <ele>778.3</ele>
        <time>2018-11-26T07:41:27Z</time>
      </trkpt>
      <trkpt lat="42.35968" lon="2.7154">
        <ele>779.8</ele>
        <time>2018-11-26T07:41:32Z</time>
      </trkpt>
      <trkpt lat="42.35965" lon="2.71516">
        <ele>781.2</ele>
        <time>2018-11-26T07:41:39Z</time>
      </trkpt>
      <trkpt lat="42.35966" lon="2.71505">
        <ele>782.3</ele>
        <time>2018-11-26T07:41:43Z</time>
      </trkpt>
      <trkpt lat="42.35965" lon="2.71497">
        <ele>784.7</ele>
        <time>2018-11-26T07:41:45Z</time>
      </trkpt>
      <trkpt lat="42.35957" lon="2.7147">
        <ele>786.6</ele>
        <time>2018-11-26T07:41:54Z</time>
      </trkpt>
      <trkpt lat="42.3596" lon="2.71441">
        <ele>788.4</ele>
        <time>2018-11-26T07:42:02Z</time>
      </trkpt>
      <trkpt lat="42.35963" lon="2.71418">
        <ele>788.5</ele>
        <time>2018-11-26T07:42:09Z</time>
      </trkpt>
      <trkpt lat="42.35961" lon="2.71404">
        <ele>791.3</ele>
        <time>2018-11-26T07:42:13Z</time>
      </trkpt>
      <trkpt lat="42.35963" lon="2.71379">
        <ele>793.8</ele>
        <time>2018-11-26T07:42:21Z</time>
      </trkpt>
      <trkpt lat="42.35964" lon="2.71373">
        <ele>794.3</ele>
        <time>2018-11-26T07:42:23Z</time>
      </trkpt>
      <trkpt lat="42.35964" lon="2.71371">
        <ele>795.2</ele>
        <time>2018-11-26T07:42:23Z</time>
      </trkpt>
      <trkpt lat="42.35969" lon="2.7135">
        <ele>798</ele>
        <time>2018-11-26T07:42:30Z</time>
      </trkpt>
      <trkpt lat="42.3597" lon="2.71342">
        <ele>798.5</ele>
        <time>2018-11-26T07:42:32Z</time>
      </trkpt>
      <trkpt lat="42.35963" lon="2.71323">
        <ele>801.9</ele>
        <time>2018-11-26T07:42:39Z</time>
      </trkpt>
      <trkpt lat="42.35949" lon="2.71307">
        <ele>805.8</ele>
        <time>2018-11-26T07:42:46Z</time>
      </trkpt>
      <trkpt lat="42.35946" lon="2.713">
        <ele>805.8</ele>
        <time>2018-11-26T07:42:48Z</time>
      </trkpt>
      <trkpt lat="42.35945" lon="2.71288">
        <ele>807.2</ele>
        <time>2018-11-26T07:42:52Z</time>
      </trkpt>
      <trkpt lat="42.3596" lon="2.71253">
        <ele>809.1</ele>
        <time>2018-11-26T07:43:04Z</time>
      </trkpt>
      <trkpt lat="42.35965" lon="2.71249">
        <ele>809.6</ele>
        <time>2018-11-26T07:43:07Z</time>
      </trkpt>
      <trkpt lat="42.35967" lon="2.71249">
        <ele>809.1</ele>
        <time>2018-11-26T07:43:07Z</time>
      </trkpt>
      <trkpt lat="42.35981" lon="2.71236">
        <ele>810.1</ele>
        <time>2018-11-26T07:43:14Z</time>
      </trkpt>
      <trkpt lat="42.35985" lon="2.71232">
        <ele>810.1</ele>
        <time>2018-11-26T07:43:16Z</time>
      </trkpt>
      <trkpt lat="42.35994" lon="2.71224">
        <ele>810.1</ele>
        <time>2018-11-26T07:43:21Z</time>
      </trkpt>
      <trkpt lat="42.36006" lon="2.71217">
        <ele>811.1</ele>
        <time>2018-11-26T07:43:26Z</time>
      </trkpt>
      <trkpt lat="42.36016" lon="2.71198">
        <ele>812.5</ele>
        <time>2018-11-26T07:43:33Z</time>
      </trkpt>
      <trkpt lat="42.36027" lon="2.71181">
        <ele>815</ele>
        <time>2018-11-26T07:43:39Z</time>
      </trkpt>
      <trkpt lat="42.36035" lon="2.71174">
        <ele>816.3</ele>
        <time>2018-11-26T07:43:43Z</time>
      </trkpt>
      <trkpt lat="42.36045" lon="2.71158">
        <ele>815.9</ele>
        <time>2018-11-26T07:43:49Z</time>
      </trkpt>
      <trkpt lat="42.36046" lon="2.71156">
        <ele>815.4</ele>
        <time>2018-11-26T07:43:50Z</time>
      </trkpt>
      <trkpt lat="42.36055" lon="2.71149">
        <ele>816.3</ele>
        <time>2018-11-26T07:43:54Z</time>
      </trkpt>
      <trkpt lat="42.36061" lon="2.71145">
        <ele>816.8</ele>
        <time>2018-11-26T07:43:57Z</time>
      </trkpt>
      <trkpt lat="42.3607" lon="2.71133">
        <ele>817.8</ele>
        <time>2018-11-26T07:44:02Z</time>
      </trkpt>
      <trkpt lat="42.36073" lon="2.71128">
        <ele>818.2</ele>
        <time>2018-11-26T07:44:04Z</time>
      </trkpt>
      <trkpt lat="42.36074" lon="2.71126">
        <ele>821.1</ele>
        <time>2018-11-26T07:44:05Z</time>
      </trkpt>
      <trkpt lat="42.36075" lon="2.71125">
        <ele>817.3</ele>
        <time>2018-11-26T07:44:05Z</time>
      </trkpt>
      <trkpt lat="42.36076" lon="2.71124">
        <ele>825.1</ele>
        <time>2018-11-26T07:44:06Z</time>
      </trkpt>
      <trkpt lat="42.36083" lon="2.71119">
        <ele>817.3</ele>
        <time>2018-11-26T07:44:09Z</time>
      </trkpt>
      <trkpt lat="42.3609" lon="2.71114">
        <ele>820.2</ele>
        <time>2018-11-26T07:44:12Z</time>
      </trkpt>
      <trkpt lat="42.36091" lon="2.71112">
        <ele>813.4</ele>
        <time>2018-11-26T07:44:13Z</time>
      </trkpt>
      <trkpt lat="42.36092" lon="2.71112">
        <ele>821.7</ele>
        <time>2018-11-26T07:44:13Z</time>
      </trkpt>
      <trkpt lat="42.36093" lon="2.71111">
        <ele>826</ele>
        <time>2018-11-26T07:44:14Z</time>
      </trkpt>
      <trkpt lat="42.36098" lon="2.71104">
        <ele>817.7</ele>
        <time>2018-11-26T07:44:16Z</time>
      </trkpt>
      <trkpt lat="42.36099" lon="2.71102">
        <ele>812.6</ele>
        <time>2018-11-26T07:44:17Z</time>
      </trkpt>
      <trkpt lat="42.361" lon="2.71101">
        <ele>821.6</ele>
        <time>2018-11-26T07:44:18Z</time>
      </trkpt>
      <trkpt lat="42.36102" lon="2.71099">
        <ele>813.9</ele>
        <time>2018-11-26T07:44:18Z</time>
      </trkpt>
      <trkpt lat="42.36103" lon="2.71097">
        <ele>817.8</ele>
        <time>2018-11-26T07:44:19Z</time>
      </trkpt>
      <trkpt lat="42.36104" lon="2.71095">
        <ele>828.4</ele>
        <time>2018-11-26T07:44:20Z</time>
      </trkpt>
      <trkpt lat="42.36105" lon="2.71091">
        <ele>819.3</ele>
        <time>2018-11-26T07:44:21Z</time>
      </trkpt>
      <trkpt lat="42.36106" lon="2.7109">
        <ele>825.9</ele>
        <time>2018-11-26T07:44:21Z</time>
      </trkpt>
      <trkpt lat="42.36108" lon="2.71085">
        <ele>818.7</ele>
        <time>2018-11-26T07:44:23Z</time>
      </trkpt>
      <trkpt lat="42.36109" lon="2.71083">
        <ele>811.1</ele>
        <time>2018-11-26T07:44:24Z</time>
      </trkpt>
      <trkpt lat="42.36114" lon="2.71073">
        <ele>818.8</ele>
        <time>2018-11-26T07:44:28Z</time>
      </trkpt>
      <trkpt lat="42.36115" lon="2.71072">
        <ele>814.5</ele>
        <time>2018-11-26T07:44:28Z</time>
      </trkpt>
      <trkpt lat="42.36126" lon="2.71054">
        <ele>818.3</ele>
        <time>2018-11-26T07:44:35Z</time>
      </trkpt>
      <trkpt lat="42.36131" lon="2.71047">
        <ele>819.7</ele>
        <time>2018-11-26T07:44:38Z</time>
      </trkpt>
      <trkpt lat="42.36143" lon="2.71028">
        <ele>820.6</ele>
        <time>2018-11-26T07:44:45Z</time>
      </trkpt>
      <trkpt lat="42.36153" lon="2.7101">
        <ele>821.6</ele>
        <time>2018-11-26T07:44:52Z</time>
      </trkpt>
      <trkpt lat="42.36159" lon="2.70985">
        <ele>822.6</ele>
        <time>2018-11-26T07:45:00Z</time>
      </trkpt>
      <trkpt lat="42.36163" lon="2.70963">
        <ele>823</ele>
        <time>2018-11-26T07:45:06Z</time>
      </trkpt>
      <trkpt lat="42.36173" lon="2.70947">
        <ele>822.1</ele>
        <time>2018-11-26T07:45:12Z</time>
      </trkpt>
      <trkpt lat="42.36187" lon="2.70922">
        <ele>820.6</ele>
        <time>2018-11-26T07:45:22Z</time>
      </trkpt>
      <trkpt lat="42.36189" lon="2.70899">
        <ele>820.7</ele>
        <time>2018-11-26T07:45:29Z</time>
      </trkpt>
      <trkpt lat="42.3619" lon="2.70893">
        <ele>820.2</ele>
        <time>2018-11-26T07:45:30Z</time>
      </trkpt>
      <trkpt lat="42.36192" lon="2.70876">
        <ele>821.1</ele>
        <time>2018-11-26T07:45:36Z</time>
      </trkpt>
      <trkpt lat="42.36195" lon="2.70861">
        <ele>822.1</ele>
        <time>2018-11-26T07:45:40Z</time>
      </trkpt>
      <trkpt lat="42.36198" lon="2.70855">
        <ele>822.6</ele>
        <time>2018-11-26T07:45:42Z</time>
      </trkpt>
      <trkpt lat="42.36198" lon="2.70853">
        <ele>822.1</ele>
        <time>2018-11-26T07:45:43Z</time>
      </trkpt>
      <trkpt lat="42.36204" lon="2.70842">
        <ele>822.6</ele>
        <time>2018-11-26T07:45:47Z</time>
      </trkpt>
      <trkpt lat="42.36204" lon="2.70841">
        <ele>823.1</ele>
        <time>2018-11-26T07:45:47Z</time>
      </trkpt>
      <trkpt lat="42.36206" lon="2.70839">
        <ele>825.5</ele>
        <time>2018-11-26T07:45:48Z</time>
      </trkpt>
      <trkpt lat="42.36206" lon="2.70839">
        <ele>825</ele>
        <time>2018-11-26T07:45:48Z</time>
      </trkpt>
      <trkpt lat="42.36206" lon="2.70839">
        <ele>823.1</ele>
        <time>2018-11-26T07:45:48Z</time>
      </trkpt>
      <trkpt lat="42.36206" lon="2.70839">
        <ele>824.6</ele>
        <time>2018-11-26T07:45:48Z</time>
      </trkpt>
      <trkpt lat="42.36206" lon="2.70839">
        <ele>826.5</ele>
        <time>2018-11-26T07:45:48Z</time>
      </trkpt>
      <trkpt lat="42.36206" lon="2.70839">
        <ele>821.1</ele>
        <time>2018-11-26T07:45:48Z</time>
      </trkpt>
      <trkpt lat="42.36206" lon="2.70839">
        <ele>824.6</ele>
        <time>2018-11-26T07:45:48Z</time>
      </trkpt>
      <trkpt lat="42.36206" lon="2.70839">
        <ele>824</ele>
        <time>2018-11-26T07:45:48Z</time>
      </trkpt>
      <trkpt lat="42.36206" lon="2.70839">
        <ele>813.9</ele>
        <time>2018-11-26T07:45:48Z</time>
      </trkpt>
      <trkpt lat="42.36206" lon="2.70839">
        <ele>819.2</ele>
        <time>2018-11-26T07:45:48Z</time>
      </trkpt>
      <trkpt lat="42.36205" lon="2.7084">
        <ele>823.1</ele>
        <time>2018-11-26T07:45:49Z</time>
      </trkpt>
      <trkpt lat="42.36198" lon="2.70852">
        <ele>822.6</ele>
        <time>2018-11-26T07:45:53Z</time>
      </trkpt>
      <trkpt lat="42.36194" lon="2.7085">
        <ele>823.1</ele>
        <time>2018-11-26T07:45:55Z</time>
      </trkpt>
      <trkpt lat="42.3619" lon="2.70851">
        <ele>824.1</ele>
        <time>2018-11-26T07:45:56Z</time>
      </trkpt>
      <trkpt lat="42.36181" lon="2.70859">
        <ele>825</ele>
        <time>2018-11-26T07:46:01Z</time>
      </trkpt>
      <trkpt lat="42.36174" lon="2.7088">
        <ele>827.5</ele>
        <time>2018-11-26T07:46:07Z</time>
      </trkpt>
      <trkpt lat="42.36171" lon="2.70888">
        <ele>827.4</ele>
        <time>2018-11-26T07:46:10Z</time>
      </trkpt>
      <trkpt lat="42.36165" lon="2.70895">
        <ele>828.3</ele>
        <time>2018-11-26T07:46:14Z</time>
      </trkpt>
      <trkpt lat="42.36157" lon="2.70907">
        <ele>828.8</ele>
        <time>2018-11-26T07:46:18Z</time>
      </trkpt>
      <trkpt lat="42.36146" lon="2.70922">
        <ele>830.7</ele>
        <time>2018-11-26T07:46:24Z</time>
      </trkpt>
      <trkpt lat="42.36131" lon="2.70933">
        <ele>833.6</ele>
        <time>2018-11-26T07:46:31Z</time>
      </trkpt>
      <trkpt lat="42.36129" lon="2.70935">
        <ele>833.6</ele>
        <time>2018-11-26T07:46:32Z</time>
      </trkpt>
      <trkpt lat="42.36105" lon="2.70944">
        <ele>835</ele>
        <time>2018-11-26T07:46:42Z</time>
      </trkpt>
      <trkpt lat="42.36094" lon="2.70955">
        <ele>836.5</ele>
        <time>2018-11-26T07:46:48Z</time>
      </trkpt>
      <trkpt lat="42.36094" lon="2.70955">
        <ele>837.1</ele>
        <time>2018-11-26T07:46:48Z</time>
      </trkpt>
      <trkpt lat="42.36078" lon="2.70962">
        <ele>839.9</ele>
        <time>2018-11-26T07:46:54Z</time>
      </trkpt>
      <trkpt lat="42.36056" lon="2.70967">
        <ele>842.7</ele>
        <time>2018-11-26T07:47:04Z</time>
      </trkpt>
      <trkpt lat="42.36037" lon="2.70974">
        <ele>844.8</ele>
        <time>2018-11-26T07:47:11Z</time>
      </trkpt>
      <trkpt lat="42.36029" lon="2.70982">
        <ele>846.7</ele>
        <time>2018-11-26T07:47:15Z</time>
      </trkpt>
      <trkpt lat="42.36023" lon="2.7099">
        <ele>849</ele>
        <time>2018-11-26T07:47:19Z</time>
      </trkpt>
      <trkpt lat="42.36015" lon="2.71004">
        <ele>850.4</ele>
        <time>2018-11-26T07:47:24Z</time>
      </trkpt>
      <trkpt lat="42.36013" lon="2.71014">
        <ele>853.3</ele>
        <time>2018-11-26T07:47:27Z</time>
      </trkpt>
      <trkpt lat="42.36002" lon="2.71029">
        <ele>855.3</ele>
        <time>2018-11-26T07:47:33Z</time>
      </trkpt>
      <trkpt lat="42.35996" lon="2.71032">
        <ele>856.2</ele>
        <time>2018-11-26T07:47:36Z</time>
      </trkpt>
      <trkpt lat="42.35984" lon="2.71044">
        <ele>857.3</ele>
        <time>2018-11-26T07:47:42Z</time>
      </trkpt>
      <trkpt lat="42.35975" lon="2.71052">
        <ele>859.2</ele>
        <time>2018-11-26T07:47:46Z</time>
      </trkpt>
      <trkpt lat="42.35968" lon="2.7106">
        <ele>861.6</ele>
        <time>2018-11-26T07:47:50Z</time>
      </trkpt>
      <trkpt lat="42.35951" lon="2.71073">
        <ele>862.4</ele>
        <time>2018-11-26T07:47:58Z</time>
      </trkpt>
      <trkpt lat="42.35944" lon="2.71083">
        <ele>861.5</ele>
        <time>2018-11-26T07:48:02Z</time>
      </trkpt>
      <trkpt lat="42.35935" lon="2.71085">
        <ele>863.9</ele>
        <time>2018-11-26T07:48:05Z</time>
      </trkpt>
      <trkpt lat="42.35933" lon="2.71085">
        <ele>864.4</ele>
        <time>2018-11-26T07:48:06Z</time>
      </trkpt>
      <trkpt lat="42.35926" lon="2.71086">
        <ele>867.7</ele>
        <time>2018-11-26T07:48:09Z</time>
      </trkpt>
      <trkpt lat="42.35923" lon="2.71088">
        <ele>858.1</ele>
        <time>2018-11-26T07:48:10Z</time>
      </trkpt>
      <trkpt lat="42.35909" lon="2.71099">
        <ele>864.8</ele>
        <time>2018-11-26T07:48:17Z</time>
      </trkpt>
      <trkpt lat="42.35903" lon="2.71113">
        <ele>864</ele>
        <time>2018-11-26T07:48:21Z</time>
      </trkpt>
      <trkpt lat="42.359" lon="2.71117">
        <ele>864.5</ele>
        <time>2018-11-26T07:48:23Z</time>
      </trkpt>
      <trkpt lat="42.35894" lon="2.71127">
        <ele>864</ele>
        <time>2018-11-26T07:48:27Z</time>
      </trkpt>
      <trkpt lat="42.3589" lon="2.71131">
        <ele>864.4</ele>
        <time>2018-11-26T07:48:29Z</time>
      </trkpt>
      <trkpt lat="42.3589" lon="2.71141">
        <ele>866.4</ele>
        <time>2018-11-26T07:48:32Z</time>
      </trkpt>
      <trkpt lat="42.3588" lon="2.71142">
        <ele>868.8</ele>
        <time>2018-11-26T07:48:36Z</time>
      </trkpt>
      <trkpt lat="42.3587" lon="2.71142">
        <ele>872.2</ele>
        <time>2018-11-26T07:48:40Z</time>
      </trkpt>
      <trkpt lat="42.35861" lon="2.71144">
        <ele>874.9</ele>
        <time>2018-11-26T07:48:43Z</time>
      </trkpt>
      <trkpt lat="42.35847" lon="2.71154">
        <ele>876.4</ele>
        <time>2018-11-26T07:48:50Z</time>
      </trkpt>
      <trkpt lat="42.35839" lon="2.71166">
        <ele>879.3</ele>
        <time>2018-11-26T07:48:55Z</time>
      </trkpt>
      <trkpt lat="42.35829" lon="2.71176">
        <ele>882.6</ele>
        <time>2018-11-26T07:49:00Z</time>
      </trkpt>
      <trkpt lat="42.35815" lon="2.71186">
        <ele>885.6</ele>
        <time>2018-11-26T07:49:06Z</time>
      </trkpt>
      <trkpt lat="42.35804" lon="2.71195">
        <ele>888.5</ele>
        <time>2018-11-26T07:49:11Z</time>
      </trkpt>
      <trkpt lat="42.35796" lon="2.71204">
        <ele>891.3</ele>
        <time>2018-11-26T07:49:15Z</time>
      </trkpt>
      <trkpt lat="42.35793" lon="2.71212">
        <ele>894.3</ele>
        <time>2018-11-26T07:49:18Z</time>
      </trkpt>
      <trkpt lat="42.3579" lon="2.71214">
        <ele>897.5</ele>
        <time>2018-11-26T07:49:19Z</time>
      </trkpt>
      <trkpt lat="42.35778" lon="2.71218">
        <ele>900</ele>
        <time>2018-11-26T07:49:24Z</time>
      </trkpt>
      <trkpt lat="42.35768" lon="2.71227">
        <ele>902.4</ele>
        <time>2018-11-26T07:49:29Z</time>
      </trkpt>
      <trkpt lat="42.3576" lon="2.71237">
        <ele>905.7</ele>
        <time>2018-11-26T07:49:33Z</time>
      </trkpt>
      <trkpt lat="42.35747" lon="2.71251">
        <ele>907.1</ele>
        <time>2018-11-26T07:49:40Z</time>
      </trkpt>
      <trkpt lat="42.35738" lon="2.71257">
        <ele>907.7</ele>
        <time>2018-11-26T07:49:44Z</time>
      </trkpt>
      <trkpt lat="42.35737" lon="2.7126">
        <ele>907.6</ele>
        <time>2018-11-26T07:49:45Z</time>
      </trkpt>
      <trkpt lat="42.35734" lon="2.71267">
        <ele>908.2</ele>
        <time>2018-11-26T07:49:47Z</time>
      </trkpt>
      <trkpt lat="42.35729" lon="2.71273">
        <ele>909.6</ele>
        <time>2018-11-26T07:49:50Z</time>
      </trkpt>
      <trkpt lat="42.35723" lon="2.71282">
        <ele>913</ele>
        <time>2018-11-26T07:49:53Z</time>
      </trkpt>
      <trkpt lat="42.35723" lon="2.71282">
        <ele>913.4</ele>
        <time>2018-11-26T07:49:53Z</time>
      </trkpt>
      <trkpt lat="42.3572" lon="2.7128">
        <ele>916.8</ele>
        <time>2018-11-26T07:49:55Z</time>
      </trkpt>
      <trkpt lat="42.35714" lon="2.7127">
        <ele>920.2</ele>
        <time>2018-11-26T07:49:58Z</time>
      </trkpt>
      <trkpt lat="42.35705" lon="2.71266">
        <ele>922.5</ele>
        <time>2018-11-26T07:50:02Z</time>
      </trkpt>
      <trkpt lat="42.35704" lon="2.71266">
        <ele>924</ele>
        <time>2018-11-26T07:50:02Z</time>
      </trkpt>
      <trkpt lat="42.35704" lon="2.71266">
        <ele>913.9</ele>
        <time>2018-11-26T07:50:02Z</time>
      </trkpt>
      <trkpt lat="42.35702" lon="2.71266">
        <ele>921.6</ele>
        <time>2018-11-26T07:50:04Z</time>
      </trkpt>
      <trkpt lat="42.35702" lon="2.71266">
        <ele>925.9</ele>
        <time>2018-11-26T07:50:04Z</time>
      </trkpt>
      <trkpt lat="42.35702" lon="2.71266">
        <ele>921.2</ele>
        <time>2018-11-26T07:50:04Z</time>
      </trkpt>
      <trkpt lat="42.357" lon="2.71268">
        <ele>924.6</ele>
        <time>2018-11-26T07:50:04Z</time>
      </trkpt>
      <trkpt lat="42.35695" lon="2.71281">
        <ele>925.9</ele>
        <time>2018-11-26T07:50:09Z</time>
      </trkpt>
      <trkpt lat="42.35687" lon="2.71298">
        <ele>927.4</ele>
        <time>2018-11-26T07:50:15Z</time>
      </trkpt>
      <trkpt lat="42.35683" lon="2.7131">
        <ele>928.8</ele>
        <time>2018-11-26T07:50:19Z</time>
      </trkpt>
      <trkpt lat="42.35683" lon="2.71317">
        <ele>929.3</ele>
        <time>2018-11-26T07:50:21Z</time>
      </trkpt>
      <trkpt lat="42.35679" lon="2.71326">
        <ele>931.2</ele>
        <time>2018-11-26T07:50:24Z</time>
      </trkpt>
      <trkpt lat="42.35667" lon="2.7133">
        <ele>932.6</ele>
        <time>2018-11-26T07:50:29Z</time>
      </trkpt>
      <trkpt lat="42.35665" lon="2.71334">
        <ele>934.1</ele>
        <time>2018-11-26T07:50:30Z</time>
      </trkpt>
      <trkpt lat="42.35659" lon="2.71348">
        <ele>936.9</ele>
        <time>2018-11-26T07:50:35Z</time>
      </trkpt>
      <trkpt lat="42.35652" lon="2.7136">
        <ele>939.9</ele>
        <time>2018-11-26T07:50:39Z</time>
      </trkpt>
      <trkpt lat="42.35645" lon="2.71372">
        <ele>942.2</ele>
        <time>2018-11-26T07:50:44Z</time>
      </trkpt>
      <trkpt lat="42.3564" lon="2.71388">
        <ele>945.2</ele>
        <time>2018-11-26T07:50:49Z</time>
      </trkpt>
      <trkpt lat="42.35637" lon="2.71394">
        <ele>947.1</ele>
        <time>2018-11-26T07:50:51Z</time>
      </trkpt>
      <trkpt lat="42.35635" lon="2.71397">
        <ele>950.5</ele>
        <time>2018-11-26T07:50:52Z</time>
      </trkpt>
      <trkpt lat="42.35626" lon="2.71407">
        <ele>949</ele>
        <time>2018-11-26T07:50:57Z</time>
      </trkpt>
      <trkpt lat="42.35618" lon="2.71423">
        <ele>951.5</ele>
        <time>2018-11-26T07:51:03Z</time>
      </trkpt>
      <trkpt lat="42.35618" lon="2.7143">
        <ele>953.4</ele>
        <time>2018-11-26T07:51:05Z</time>
      </trkpt>
      <trkpt lat="42.35611" lon="2.71446">
        <ele>955.2</ele>
        <time>2018-11-26T07:51:10Z</time>
      </trkpt>
      <trkpt lat="42.35607" lon="2.71447">
        <ele>955.7</ele>
        <time>2018-11-26T07:51:12Z</time>
      </trkpt>
      <trkpt lat="42.35607" lon="2.71447">
        <ele>956.3</ele>
        <time>2018-11-26T07:51:12Z</time>
      </trkpt>
      <trkpt lat="42.35607" lon="2.71447">
        <ele>957.1</ele>
        <time>2018-11-26T07:51:12Z</time>
      </trkpt>
      <trkpt lat="42.35607" lon="2.71447">
        <ele>951.5</ele>
        <time>2018-11-26T07:51:12Z</time>
      </trkpt>
      <trkpt lat="42.35607" lon="2.71447">
        <ele>955.8</ele>
        <time>2018-11-26T07:51:12Z</time>
      </trkpt>
      <trkpt lat="42.35607" lon="2.71449">
        <ele>952.3</ele>
        <time>2018-11-26T07:51:13Z</time>
      </trkpt>
      <trkpt lat="42.35607" lon="2.71448">
        <ele>949.4</ele>
        <time>2018-11-26T07:51:13Z</time>
      </trkpt>
      <trkpt lat="42.35608" lon="2.71446">
        <ele>948.5</ele>
        <time>2018-11-26T07:51:14Z</time>
      </trkpt>
      <trkpt lat="42.3561" lon="2.71446">
        <ele>949.5</ele>
        <time>2018-11-26T07:51:14Z</time>
      </trkpt>
      <trkpt lat="42.3561" lon="2.71446">
        <ele>949.4</ele>
        <time>2018-11-26T07:51:15Z</time>
      </trkpt>
      <trkpt lat="42.35611" lon="2.71447">
        <ele>952.3</ele>
        <time>2018-11-26T07:51:15Z</time>
      </trkpt>
      <trkpt lat="42.35611" lon="2.71447">
        <ele>945.1</ele>
        <time>2018-11-26T07:51:15Z</time>
      </trkpt>
      <trkpt lat="42.3561" lon="2.71448">
        <ele>950.4</ele>
        <time>2018-11-26T07:51:16Z</time>
      </trkpt>
      <trkpt lat="42.3561" lon="2.71448">
        <ele>947.6</ele>
        <time>2018-11-26T07:51:16Z</time>
      </trkpt>
      <trkpt lat="42.3561" lon="2.71448">
        <ele>951.5</ele>
        <time>2018-11-26T07:51:16Z</time>
      </trkpt>
      <trkpt lat="42.3561" lon="2.71448">
        <ele>950</ele>
        <time>2018-11-26T07:51:16Z</time>
      </trkpt>
      <trkpt lat="42.3561" lon="2.71448">
        <ele>953.8</ele>
        <time>2018-11-26T07:51:16Z</time>
      </trkpt>
      <trkpt lat="42.3561" lon="2.71448">
        <ele>944.3</ele>
        <time>2018-11-26T07:51:16Z</time>
      </trkpt>
      <trkpt lat="42.3561" lon="2.71448">
        <ele>949.1</ele>
        <time>2018-11-26T07:51:16Z</time>
      </trkpt>
      <trkpt lat="42.3561" lon="2.71448">
        <ele>950.9</ele>
        <time>2018-11-26T07:51:16Z</time>
      </trkpt>
      <trkpt lat="42.3561" lon="2.71448">
        <ele>947.1</ele>
        <time>2018-11-26T07:51:16Z</time>
      </trkpt>
      <trkpt lat="42.3561" lon="2.71448">
        <ele>952.8</ele>
        <time>2018-11-26T07:51:16Z</time>
      </trkpt>
      <trkpt lat="42.3561" lon="2.71448">
        <ele>948</ele>
        <time>2018-11-26T07:51:16Z</time>
      </trkpt>
      <trkpt lat="42.3561" lon="2.71448">
        <ele>948.1</ele>
        <time>2018-11-26T07:51:16Z</time>
      </trkpt>
      <trkpt lat="42.3561" lon="2.71448">
        <ele>952.3</ele>
        <time>2018-11-26T07:51:16Z</time>
      </trkpt>
      <trkpt lat="42.3561" lon="2.71448">
        <ele>953.3</ele>
        <time>2018-11-26T07:51:16Z</time>
      </trkpt>
      <trkpt lat="42.3561" lon="2.71448">
        <ele>949.1</ele>
        <time>2018-11-26T07:51:16Z</time>
      </trkpt>
      <trkpt lat="42.3561" lon="2.71448">
        <ele>951.9</ele>
        <time>2018-11-26T07:51:16Z</time>
      </trkpt>
      <trkpt lat="42.3561" lon="2.71448">
        <ele>948.5</ele>
        <time>2018-11-26T07:51:16Z</time>
      </trkpt>
      <trkpt lat="42.3561" lon="2.71448">
        <ele>946.7</ele>
        <time>2018-11-26T07:51:16Z</time>
      </trkpt>
      <trkpt lat="42.3561" lon="2.71448">
        <ele>953.4</ele>
        <time>2018-11-26T07:51:16Z</time>
      </trkpt>
      <trkpt lat="42.3561" lon="2.71448">
        <ele>954.7</ele>
        <time>2018-11-26T07:51:16Z</time>
      </trkpt>
      <trkpt lat="42.3561" lon="2.71448">
        <ele>944.6</ele>
        <time>2018-11-26T07:51:16Z</time>
      </trkpt>
      <trkpt lat="42.35611" lon="2.71447">
        <ele>949.9</ele>
        <time>2018-11-26T07:51:16Z</time>
      </trkpt>
      <trkpt lat="42.35615" lon="2.71441">
        <ele>949</ele>
        <time>2018-11-26T07:51:18Z</time>
      </trkpt>
      <trkpt lat="42.3562" lon="2.71421">
        <ele>947.1</ele>
        <time>2018-11-26T07:51:25Z</time>
      </trkpt>
      <trkpt lat="42.35625" lon="2.71409">
        <ele>943.8</ele>
        <time>2018-11-26T07:51:28Z</time>
      </trkpt>
      <trkpt lat="42.35636" lon="2.71399">
        <ele>942.2</ele>
        <time>2018-11-26T07:51:34Z</time>
      </trkpt>
      <trkpt lat="42.35646" lon="2.71382">
        <ele>940.3</ele>
        <time>2018-11-26T07:51:40Z</time>
      </trkpt>
      <trkpt lat="42.35651" lon="2.71374">
        <ele>938</ele>
        <time>2018-11-26T07:51:43Z</time>
      </trkpt>
      <trkpt lat="42.35659" lon="2.71358">
        <ele>935.6</ele>
        <time>2018-11-26T07:51:49Z</time>
      </trkpt>
      <trkpt lat="42.35667" lon="2.71345">
        <ele>934.1</ele>
        <time>2018-11-26T07:51:54Z</time>
      </trkpt>
      <trkpt lat="42.3567" lon="2.71338">
        <ele>930.8</ele>
        <time>2018-11-26T07:51:56Z</time>
      </trkpt>
      <trkpt lat="42.35674" lon="2.7133">
        <ele>927.8</ele>
        <time>2018-11-26T07:52:00Z</time>
      </trkpt>
      <trkpt lat="42.35683" lon="2.71318">
        <ele>925.4</ele>
        <time>2018-11-26T07:52:04Z</time>
      </trkpt>
      <trkpt lat="42.35686" lon="2.71303">
        <ele>923.5</ele>
        <time>2018-11-26T07:52:09Z</time>
      </trkpt>
      <trkpt lat="42.35689" lon="2.71297">
        <ele>923</ele>
        <time>2018-11-26T07:52:11Z</time>
      </trkpt>
      <trkpt lat="42.35695" lon="2.71288">
        <ele>921.2</ele>
        <time>2018-11-26T07:52:15Z</time>
      </trkpt>
      <trkpt lat="42.35704" lon="2.71272">
        <ele>920.7</ele>
        <time>2018-11-26T07:52:21Z</time>
      </trkpt>
      <trkpt lat="42.35704" lon="2.71271">
        <ele>916.9</ele>
        <time>2018-11-26T07:52:21Z</time>
      </trkpt>
      <trkpt lat="42.35704" lon="2.71269">
        <ele>922.1</ele>
        <time>2018-11-26T07:52:21Z</time>
      </trkpt>
      <trkpt lat="42.35704" lon="2.71269">
        <ele>916.3</ele>
        <time>2018-11-26T07:52:21Z</time>
      </trkpt>
      <trkpt lat="42.35704" lon="2.71269">
        <ele>919.6</ele>
        <time>2018-11-26T07:52:21Z</time>
      </trkpt>
      <trkpt lat="42.35704" lon="2.71269">
        <ele>924.9</ele>
        <time>2018-11-26T07:52:21Z</time>
      </trkpt>
      <trkpt lat="42.35704" lon="2.71269">
        <ele>920.1</ele>
        <time>2018-11-26T07:52:21Z</time>
      </trkpt>
      <trkpt lat="42.35704" lon="2.71269">
        <ele>916.3</ele>
        <time>2018-11-26T07:52:21Z</time>
      </trkpt>
      <trkpt lat="42.35704" lon="2.71269">
        <ele>924.9</ele>
        <time>2018-11-26T07:52:21Z</time>
      </trkpt>
      <trkpt lat="42.35704" lon="2.71269">
        <ele>912</ele>
        <time>2018-11-26T07:52:21Z</time>
      </trkpt>
      <trkpt lat="42.35704" lon="2.71269">
        <ele>925</ele>
        <time>2018-11-26T07:52:21Z</time>
      </trkpt>
      <trkpt lat="42.35704" lon="2.71269">
        <ele>917.7</ele>
        <time>2018-11-26T07:52:21Z</time>
      </trkpt>
      <trkpt lat="42.35704" lon="2.71269">
        <ele>914.5</ele>
        <time>2018-11-26T07:52:21Z</time>
      </trkpt>
      <trkpt lat="42.35704" lon="2.71269">
        <ele>920.7</ele>
        <time>2018-11-26T07:52:21Z</time>
      </trkpt>
      <trkpt lat="42.35704" lon="2.7127">
        <ele>914.9</ele>
        <time>2018-11-26T07:52:21Z</time>
      </trkpt>
      <trkpt lat="42.35704" lon="2.7127">
        <ele>922.5</ele>
        <time>2018-11-26T07:52:21Z</time>
      </trkpt>
      <trkpt lat="42.35704" lon="2.7127">
        <ele>919.2</ele>
        <time>2018-11-26T07:52:21Z</time>
      </trkpt>
      <trkpt lat="42.35704" lon="2.7127">
        <ele>920.6</ele>
        <time>2018-11-26T07:52:21Z</time>
      </trkpt>
      <trkpt lat="42.35704" lon="2.7127">
        <ele>912.4</ele>
        <time>2018-11-26T07:52:21Z</time>
      </trkpt>
      <trkpt lat="42.35704" lon="2.7127">
        <ele>918.2</ele>
        <time>2018-11-26T07:52:21Z</time>
      </trkpt>
      <trkpt lat="42.35704" lon="2.7127">
        <ele>923</ele>
        <time>2018-11-26T07:52:21Z</time>
      </trkpt>
      <trkpt lat="42.35704" lon="2.7127">
        <ele>919.7</ele>
        <time>2018-11-26T07:52:21Z</time>
      </trkpt>
      <trkpt lat="42.35704" lon="2.7127">
        <ele>914</ele>
        <time>2018-11-26T07:52:21Z</time>
      </trkpt>
      <trkpt lat="42.35704" lon="2.7127">
        <ele>919.6</ele>
        <time>2018-11-26T07:52:21Z</time>
      </trkpt>
      <trkpt lat="42.35704" lon="2.7127">
        <ele>919.6</ele>
        <time>2018-11-26T07:52:21Z</time>
      </trkpt>
      <trkpt lat="42.35704" lon="2.7127">
        <ele>916.9</ele>
        <time>2018-11-26T07:52:21Z</time>
      </trkpt>
      <trkpt lat="42.35704" lon="2.7127">
        <ele>920.1</ele>
        <time>2018-11-26T07:52:21Z</time>
      </trkpt>
      <trkpt lat="42.35704" lon="2.7127">
        <ele>915.4</ele>
        <time>2018-11-26T07:52:21Z</time>
      </trkpt>
      <trkpt lat="42.35704" lon="2.7127">
        <ele>918.7</ele>
        <time>2018-11-26T07:52:21Z</time>
      </trkpt>
      <trkpt lat="42.35704" lon="2.7127">
        <ele>914.4</ele>
        <time>2018-11-26T07:52:21Z</time>
      </trkpt>
      <trkpt lat="42.35704" lon="2.7127">
        <ele>920.1</ele>
        <time>2018-11-26T07:52:21Z</time>
      </trkpt>
      <trkpt lat="42.35704" lon="2.7127">
        <ele>916.9</ele>
        <time>2018-11-26T07:52:21Z</time>
      </trkpt>
      <trkpt lat="42.35704" lon="2.7127">
        <ele>919.6</ele>
        <time>2018-11-26T07:52:22Z</time>
      </trkpt>
      <trkpt lat="42.35704" lon="2.7127">
        <ele>922.5</ele>
        <time>2018-11-26T07:52:22Z</time>
      </trkpt>
      <trkpt lat="42.35704" lon="2.7127">
        <ele>919.6</ele>
        <time>2018-11-26T07:52:22Z</time>
      </trkpt>
      <trkpt lat="42.35704" lon="2.7127">
        <ele>910.5</ele>
        <time>2018-11-26T07:52:22Z</time>
      </trkpt>
      <trkpt lat="42.35704" lon="2.7127">
        <ele>920.7</ele>
        <time>2018-11-26T07:52:22Z</time>
      </trkpt>
      <trkpt lat="42.35704" lon="2.7127">
        <ele>913.5</ele>
        <time>2018-11-26T07:52:22Z</time>
      </trkpt>
      <trkpt lat="42.35704" lon="2.7127">
        <ele>927.4</ele>
        <time>2018-11-26T07:52:22Z</time>
      </trkpt>
      <trkpt lat="42.35704" lon="2.7127">
        <ele>923.5</ele>
        <time>2018-11-26T07:52:22Z</time>
      </trkpt>
      <trkpt lat="42.35704" lon="2.7127">
        <ele>919.6</ele>
        <time>2018-11-26T07:52:22Z</time>
      </trkpt>
      <trkpt lat="42.35704" lon="2.7127">
        <ele>916.3</ele>
        <time>2018-11-26T07:52:22Z</time>
      </trkpt>
      <trkpt lat="42.35704" lon="2.7127">
        <ele>923.1</ele>
        <time>2018-11-26T07:52:22Z</time>
      </trkpt>
      <trkpt lat="42.35704" lon="2.7127">
        <ele>916.4</ele>
        <time>2018-11-26T07:52:22Z</time>
      </trkpt>
      <trkpt lat="42.35704" lon="2.7127">
        <ele>916.9</ele>
        <time>2018-11-26T07:52:22Z</time>
      </trkpt>
      <trkpt lat="42.35704" lon="2.7127">
        <ele>921.1</ele>
        <time>2018-11-26T07:52:22Z</time>
      </trkpt>
      <trkpt lat="42.35704" lon="2.7127">
        <ele>915.8</ele>
        <time>2018-11-26T07:52:22Z</time>
      </trkpt>
      <trkpt lat="42.35699" lon="2.71266">
        <ele>919.2</ele>
        <time>2018-11-26T07:52:24Z</time>
      </trkpt>
      <trkpt lat="42.35699" lon="2.71266">
        <ele>914</ele>
        <time>2018-11-26T07:52:24Z</time>
      </trkpt>
      <trkpt lat="42.35699" lon="2.71267">
        <ele>918.3</ele>
        <time>2018-11-26T07:52:24Z</time>
      </trkpt>
      <trkpt lat="42.35701" lon="2.71258">
        <ele>917.7</ele>
        <time>2018-11-26T07:52:27Z</time>
      </trkpt>
      <trkpt lat="42.35707" lon="2.71233">
        <ele>918.2</ele>
        <time>2018-11-26T07:52:34Z</time>
      </trkpt>
      <trkpt lat="42.35707" lon="2.71227">
        <ele>917.8</ele>
        <time>2018-11-26T07:52:36Z</time>
      </trkpt>
      <trkpt lat="42.35707" lon="2.71215">
        <ele>917.2</ele>
        <time>2018-11-26T07:52:40Z</time>
      </trkpt>
      <trkpt lat="42.35707" lon="2.71202">
        <ele>918.2</ele>
        <time>2018-11-26T07:52:44Z</time>
      </trkpt>
      <trkpt lat="42.35704" lon="2.71191">
        <ele>917.8</ele>
        <time>2018-11-26T07:52:47Z</time>
      </trkpt>
      <trkpt lat="42.35699" lon="2.71181">
        <ele>916.9</ele>
        <time>2018-11-26T07:52:51Z</time>
      </trkpt>
      <trkpt lat="42.35699" lon="2.71156">
        <ele>916.3</ele>
        <time>2018-11-26T07:52:58Z</time>
      </trkpt>
      <trkpt lat="42.35699" lon="2.71139">
        <ele>916.4</ele>
        <time>2018-11-26T07:53:03Z</time>
      </trkpt>
      <trkpt lat="42.35698" lon="2.71127">
        <ele>916.9</ele>
        <time>2018-11-26T07:53:06Z</time>
      </trkpt>
      <trkpt lat="42.35698" lon="2.71111">
        <ele>917.8</ele>
        <time>2018-11-26T07:53:11Z</time>
      </trkpt>
      <trkpt lat="42.35695" lon="2.711">
        <ele>917.7</ele>
        <time>2018-11-26T07:53:15Z</time>
      </trkpt>
      <trkpt lat="42.35695" lon="2.71083">
        <ele>918.7</ele>
        <time>2018-11-26T07:53:20Z</time>
      </trkpt>
      <trkpt lat="42.35692" lon="2.71075">
        <ele>917.3</ele>
        <time>2018-11-26T07:53:22Z</time>
      </trkpt>
      <trkpt lat="42.35689" lon="2.7106">
        <ele>916.4</ele>
        <time>2018-11-26T07:53:27Z</time>
      </trkpt>
      <trkpt lat="42.35687" lon="2.71048">
        <ele>914.9</ele>
        <time>2018-11-26T07:53:31Z</time>
      </trkpt>
      <trkpt lat="42.35687" lon="2.71032">
        <ele>914.4</ele>
        <time>2018-11-26T07:53:35Z</time>
      </trkpt>
      <trkpt lat="42.3569" lon="2.71014">
        <ele>914</ele>
        <time>2018-11-26T07:53:41Z</time>
      </trkpt>
      <trkpt lat="42.35693" lon="2.71004">
        <ele>912.4</ele>
        <time>2018-11-26T07:53:44Z</time>
      </trkpt>
      <trkpt lat="42.35697" lon="2.70985">
        <ele>909.5</ele>
        <time>2018-11-26T07:53:50Z</time>
      </trkpt>
      <trkpt lat="42.35701" lon="2.70973">
        <ele>909.2</ele>
        <time>2018-11-26T07:53:54Z</time>
      </trkpt>
      <trkpt lat="42.35703" lon="2.70971">
        <ele>908.6</ele>
        <time>2018-11-26T07:53:55Z</time>
      </trkpt>
      <trkpt lat="42.35703" lon="2.70965">
        <ele>908.6</ele>
        <time>2018-11-26T07:53:56Z</time>
      </trkpt>
      <trkpt lat="42.35703" lon="2.70964">
        <ele>901.9</ele>
        <time>2018-11-26T07:53:57Z</time>
      </trkpt>
      <trkpt lat="42.35704" lon="2.70963">
        <ele>908.2</ele>
        <time>2018-11-26T07:53:57Z</time>
      </trkpt>
      <trkpt lat="42.35704" lon="2.7096">
        <ele>908.7</ele>
        <time>2018-11-26T07:53:58Z</time>
      </trkpt>
      <trkpt lat="42.35705" lon="2.70959">
        <ele>915.3</ele>
        <time>2018-11-26T07:53:58Z</time>
      </trkpt>
      <trkpt lat="42.35705" lon="2.70957">
        <ele>907.2</ele>
        <time>2018-11-26T07:53:59Z</time>
      </trkpt>
      <trkpt lat="42.35706" lon="2.70955">
        <ele>907.1</ele>
        <time>2018-11-26T07:53:59Z</time>
      </trkpt>
      <trkpt lat="42.35706" lon="2.70955">
        <ele>911</ele>
        <time>2018-11-26T07:54:00Z</time>
      </trkpt>
      <trkpt lat="42.35707" lon="2.70954">
        <ele>911.5</ele>
        <time>2018-11-26T07:54:00Z</time>
      </trkpt>
      <trkpt lat="42.35709" lon="2.70947">
        <ele>906.7</ele>
        <time>2018-11-26T07:54:02Z</time>
      </trkpt>
      <trkpt lat="42.35715" lon="2.70936">
        <ele>905.7</ele>
        <time>2018-11-26T07:54:06Z</time>
      </trkpt>
      <trkpt lat="42.35725" lon="2.70924">
        <ele>904.3</ele>
        <time>2018-11-26T07:54:12Z</time>
      </trkpt>
      <trkpt lat="42.35729" lon="2.70916">
        <ele>902.8</ele>
        <time>2018-11-26T07:54:15Z</time>
      </trkpt>
      <trkpt lat="42.35733" lon="2.70904">
        <ele>900.9</ele>
        <time>2018-11-26T07:54:18Z</time>
      </trkpt>
      <trkpt lat="42.35738" lon="2.70892">
        <ele>900</ele>
        <time>2018-11-26T07:54:22Z</time>
      </trkpt>
      <trkpt lat="42.35742" lon="2.7088">
        <ele>899.1</ele>
        <time>2018-11-26T07:54:26Z</time>
      </trkpt>
      <trkpt lat="42.35745" lon="2.70872">
        <ele>898.1</ele>
        <time>2018-11-26T07:54:29Z</time>
      </trkpt>
      <trkpt lat="42.35746" lon="2.70857">
        <ele>896.1</ele>
        <time>2018-11-26T07:54:34Z</time>
      </trkpt>
      <trkpt lat="42.35746" lon="2.70842">
        <ele>894.7</ele>
        <time>2018-11-26T07:54:38Z</time>
      </trkpt>
      <trkpt lat="42.35747" lon="2.70826">
        <ele>895.1</ele>
        <time>2018-11-26T07:54:43Z</time>
      </trkpt>
      <trkpt lat="42.35748" lon="2.70809">
        <ele>894.2</ele>
        <time>2018-11-26T07:54:48Z</time>
      </trkpt>
      <trkpt lat="42.35749" lon="2.70801">
        <ele>892.7</ele>
        <time>2018-11-26T07:54:50Z</time>
      </trkpt>
      <trkpt lat="42.35748" lon="2.70787">
        <ele>890.3</ele>
        <time>2018-11-26T07:54:54Z</time>
      </trkpt>
      <trkpt lat="42.35752" lon="2.70774">
        <ele>889.4</ele>
        <time>2018-11-26T07:54:58Z</time>
      </trkpt>
      <trkpt lat="42.35759" lon="2.70764">
        <ele>889</ele>
        <time>2018-11-26T07:55:03Z</time>
      </trkpt>
      <trkpt lat="42.35764" lon="2.70756">
        <ele>887.9</ele>
        <time>2018-11-26T07:55:06Z</time>
      </trkpt>
      <trkpt lat="42.35769" lon="2.70753">
        <ele>888.5</ele>
        <time>2018-11-26T07:55:08Z</time>
      </trkpt>
      <trkpt lat="42.35775" lon="2.70744">
        <ele>887</ele>
        <time>2018-11-26T07:55:11Z</time>
      </trkpt>
      <trkpt lat="42.35785" lon="2.70734">
        <ele>887</ele>
        <time>2018-11-26T07:55:17Z</time>
      </trkpt>
      <trkpt lat="42.35787" lon="2.70732">
        <ele>886.6</ele>
        <time>2018-11-26T07:55:18Z</time>
      </trkpt>
      <trkpt lat="42.35792" lon="2.7072">
        <ele>885.1</ele>
        <time>2018-11-26T07:55:22Z</time>
      </trkpt>
      <trkpt lat="42.35796" lon="2.70706">
        <ele>885.5</ele>
        <time>2018-11-26T07:55:26Z</time>
      </trkpt>
      <trkpt lat="42.35799" lon="2.70687">
        <ele>884.2</ele>
        <time>2018-11-26T07:55:32Z</time>
      </trkpt>
      <trkpt lat="42.35802" lon="2.70676">
        <ele>884.6</ele>
        <time>2018-11-26T07:55:35Z</time>
      </trkpt>
      <trkpt lat="42.35807" lon="2.7067">
        <ele>886</ele>
        <time>2018-11-26T07:55:38Z</time>
      </trkpt>
      <trkpt lat="42.35807" lon="2.7067">
        <ele>882.3</ele>
        <time>2018-11-26T07:55:38Z</time>
      </trkpt>
      <trkpt lat="42.35807" lon="2.7067">
        <ele>886.5</ele>
        <time>2018-11-26T07:55:38Z</time>
      </trkpt>
      <trkpt lat="42.35807" lon="2.7067">
        <ele>878.9</ele>
        <time>2018-11-26T07:55:38Z</time>
      </trkpt>
      <trkpt lat="42.35807" lon="2.7067">
        <ele>885.5</ele>
        <time>2018-11-26T07:55:38Z</time>
      </trkpt>
      <trkpt lat="42.35807" lon="2.7067">
        <ele>883.6</ele>
        <time>2018-11-26T07:55:38Z</time>
      </trkpt>
      <trkpt lat="42.35807" lon="2.7067">
        <ele>879.4</ele>
        <time>2018-11-26T07:55:38Z</time>
      </trkpt>
      <trkpt lat="42.35807" lon="2.7067">
        <ele>887.4</ele>
        <time>2018-11-26T07:55:38Z</time>
      </trkpt>
      <trkpt lat="42.35807" lon="2.7067">
        <ele>890.3</ele>
        <time>2018-11-26T07:55:38Z</time>
      </trkpt>
      <trkpt lat="42.35807" lon="2.7067">
        <ele>877.9</ele>
        <time>2018-11-26T07:55:38Z</time>
      </trkpt>
      <trkpt lat="42.35807" lon="2.7067">
        <ele>892.7</ele>
        <time>2018-11-26T07:55:38Z</time>
      </trkpt>
      <trkpt lat="42.35807" lon="2.7067">
        <ele>885.5</ele>
        <time>2018-11-26T07:55:38Z</time>
      </trkpt>
      <trkpt lat="42.35807" lon="2.7067">
        <ele>875</ele>
        <time>2018-11-26T07:55:38Z</time>
      </trkpt>
      <trkpt lat="42.35807" lon="2.7067">
        <ele>885</ele>
        <time>2018-11-26T07:55:38Z</time>
      </trkpt>
      <trkpt lat="42.35807" lon="2.7067">
        <ele>891.3</ele>
        <time>2018-11-26T07:55:38Z</time>
      </trkpt>
      <trkpt lat="42.35807" lon="2.7067">
        <ele>885.1</ele>
        <time>2018-11-26T07:55:38Z</time>
      </trkpt>
      <trkpt lat="42.35807" lon="2.7067">
        <ele>890.4</ele>
        <time>2018-11-26T07:55:38Z</time>
      </trkpt>
      <trkpt lat="42.35807" lon="2.7067">
        <ele>885.5</ele>
        <time>2018-11-26T07:55:38Z</time>
      </trkpt>
      <trkpt lat="42.35807" lon="2.7067">
        <ele>896.2</ele>
        <time>2018-11-26T07:55:38Z</time>
      </trkpt>
      <trkpt lat="42.35807" lon="2.7067">
        <ele>880.7</ele>
        <time>2018-11-26T07:55:38Z</time>
      </trkpt>
      <trkpt lat="42.35807" lon="2.7067">
        <ele>886.1</ele>
        <time>2018-11-26T07:55:38Z</time>
      </trkpt>
      <trkpt lat="42.35807" lon="2.7067">
        <ele>889.4</ele>
        <time>2018-11-26T07:55:38Z</time>
      </trkpt>
      <trkpt lat="42.35807" lon="2.7067">
        <ele>884.6</ele>
        <time>2018-11-26T07:55:38Z</time>
      </trkpt>
      <trkpt lat="42.35807" lon="2.7067">
        <ele>876.9</ele>
        <time>2018-11-26T07:55:38Z</time>
      </trkpt>
      <trkpt lat="42.35807" lon="2.7067">
        <ele>885.6</ele>
        <time>2018-11-26T07:55:38Z</time>
      </trkpt>
      <trkpt lat="42.35807" lon="2.7067">
        <ele>879.8</ele>
        <time>2018-11-26T07:55:38Z</time>
      </trkpt>
      <trkpt lat="42.35807" lon="2.7067">
        <ele>891.8</ele>
        <time>2018-11-26T07:55:38Z</time>
      </trkpt>
      <trkpt lat="42.35807" lon="2.7067">
        <ele>884.7</ele>
        <time>2018-11-26T07:55:38Z</time>
      </trkpt>
      <trkpt lat="42.35807" lon="2.7067">
        <ele>890.9</ele>
        <time>2018-11-26T07:55:38Z</time>
      </trkpt>
      <trkpt lat="42.35807" lon="2.7067">
        <ele>886.5</ele>
        <time>2018-11-26T07:55:38Z</time>
      </trkpt>
      <trkpt lat="42.35807" lon="2.7067">
        <ele>876.9</ele>
        <time>2018-11-26T07:55:38Z</time>
      </trkpt>
      <trkpt lat="42.35807" lon="2.7067">
        <ele>885</ele>
        <time>2018-11-26T07:55:38Z</time>
      </trkpt>
      <trkpt lat="42.35807" lon="2.7067">
        <ele>877.8</ele>
        <time>2018-11-26T07:55:38Z</time>
      </trkpt>
      <trkpt lat="42.35807" lon="2.7067">
        <ele>884.1</ele>
        <time>2018-11-26T07:55:38Z</time>
      </trkpt>
      <trkpt lat="42.35807" lon="2.7067">
        <ele>889</ele>
        <time>2018-11-26T07:55:38Z</time>
      </trkpt>
      <trkpt lat="42.35807" lon="2.7067">
        <ele>884.6</ele>
        <time>2018-11-26T07:55:38Z</time>
      </trkpt>
      <trkpt lat="42.35807" lon="2.7067">
        <ele>886.5</ele>
        <time>2018-11-26T07:55:38Z</time>
      </trkpt>
      <trkpt lat="42.35807" lon="2.7067">
        <ele>882.3</ele>
        <time>2018-11-26T07:55:38Z</time>
      </trkpt>
      <trkpt lat="42.35807" lon="2.7067">
        <ele>888.9</ele>
        <time>2018-11-26T07:55:38Z</time>
      </trkpt>
      <trkpt lat="42.35807" lon="2.7067">
        <ele>885</ele>
        <time>2018-11-26T07:55:38Z</time>
      </trkpt>
      <trkpt lat="42.35807" lon="2.7067">
        <ele>889</ele>
        <time>2018-11-26T07:55:38Z</time>
      </trkpt>
      <trkpt lat="42.35807" lon="2.7067">
        <ele>868.7</ele>
        <time>2018-11-26T07:55:38Z</time>
      </trkpt>
      <trkpt lat="42.35807" lon="2.7067">
        <ele>885.6</ele>
        <time>2018-11-26T07:55:38Z</time>
      </trkpt>
      <trkpt lat="42.35807" lon="2.7067">
        <ele>892.2</ele>
        <time>2018-11-26T07:55:38Z</time>
      </trkpt>
      <trkpt lat="42.35807" lon="2.7067">
        <ele>885</ele>
        <time>2018-11-26T07:55:38Z</time>
      </trkpt>
      <trkpt lat="42.35807" lon="2.7067">
        <ele>891.3</ele>
        <time>2018-11-26T07:55:38Z</time>
      </trkpt>
      <trkpt lat="42.35807" lon="2.7067">
        <ele>880.2</ele>
        <time>2018-11-26T07:55:38Z</time>
      </trkpt>
      <trkpt lat="42.35807" lon="2.7067">
        <ele>888.5</ele>
        <time>2018-11-26T07:55:38Z</time>
      </trkpt>
      <trkpt lat="42.35808" lon="2.7067">
        <ele>885.1</ele>
        <time>2018-11-26T07:55:38Z</time>
      </trkpt>
      <trkpt lat="42.35811" lon="2.70657">
        <ele>885.1</ele>
        <time>2018-11-26T07:55:42Z</time>
      </trkpt>
      <trkpt lat="42.35811" lon="2.70644">
        <ele>884.2</ele>
        <time>2018-11-26T07:55:46Z</time>
      </trkpt>
      <trkpt lat="42.35813" lon="2.70633">
        <ele>885.6</ele>
        <time>2018-11-26T07:55:49Z</time>
      </trkpt>
      <trkpt lat="42.35817" lon="2.7062">
        <ele>886.6</ele>
        <time>2018-11-26T07:55:54Z</time>
      </trkpt>
      <trkpt lat="42.3582" lon="2.706">
        <ele>886.6</ele>
        <time>2018-11-26T07:56:00Z</time>
      </trkpt>
      <trkpt lat="42.35818" lon="2.70595">
        <ele>886</ele>
        <time>2018-11-26T07:56:01Z</time>
      </trkpt>
      <trkpt lat="42.35816" lon="2.70577">
        <ele>885.5</ele>
        <time>2018-11-26T07:56:07Z</time>
      </trkpt>
      <trkpt lat="42.35803" lon="2.70561">
        <ele>887.5</ele>
        <time>2018-11-26T07:56:14Z</time>
      </trkpt>
      <trkpt lat="42.358" lon="2.7056">
        <ele>887.9</ele>
        <time>2018-11-26T07:56:15Z</time>
      </trkpt>
      <trkpt lat="42.35793" lon="2.70555">
        <ele>889.9</ele>
        <time>2018-11-26T07:56:18Z</time>
      </trkpt>
      <trkpt lat="42.35782" lon="2.70554">
        <ele>891.4</ele>
        <time>2018-11-26T07:56:22Z</time>
      </trkpt>
      <trkpt lat="42.35774" lon="2.70551">
        <ele>891.3</ele>
        <time>2018-11-26T07:56:26Z</time>
      </trkpt>
      <trkpt lat="42.35774" lon="2.70551">
        <ele>885.1</ele>
        <time>2018-11-26T07:56:26Z</time>
      </trkpt>
      <trkpt lat="42.35774" lon="2.70551">
        <ele>897.1</ele>
        <time>2018-11-26T07:56:26Z</time>
      </trkpt>
      <trkpt lat="42.35774" lon="2.70551">
        <ele>890.8</ele>
        <time>2018-11-26T07:56:26Z</time>
      </trkpt>
      <trkpt lat="42.35774" lon="2.70551">
        <ele>896.7</ele>
        <time>2018-11-26T07:56:26Z</time>
      </trkpt>
      <trkpt lat="42.35774" lon="2.70551">
        <ele>885.5</ele>
        <time>2018-11-26T07:56:26Z</time>
      </trkpt>
      <trkpt lat="42.35774" lon="2.70551">
        <ele>891.3</ele>
        <time>2018-11-26T07:56:26Z</time>
      </trkpt>
      <trkpt lat="42.35774" lon="2.70551">
        <ele>896.1</ele>
        <time>2018-11-26T07:56:26Z</time>
      </trkpt>
      <trkpt lat="42.35774" lon="2.70551">
        <ele>890.4</ele>
        <time>2018-11-26T07:56:26Z</time>
      </trkpt>
      <trkpt lat="42.35774" lon="2.70551">
        <ele>881.8</ele>
        <time>2018-11-26T07:56:26Z</time>
      </trkpt>
      <trkpt lat="42.35774" lon="2.70551">
        <ele>890.8</ele>
        <time>2018-11-26T07:56:26Z</time>
      </trkpt>
      <trkpt lat="42.35774" lon="2.70551">
        <ele>891.3</ele>
        <time>2018-11-26T07:56:26Z</time>
      </trkpt>
      <trkpt lat="42.35774" lon="2.70551">
        <ele>894.6</ele>
        <time>2018-11-26T07:56:26Z</time>
      </trkpt>
      <trkpt lat="42.35774" lon="2.70551">
        <ele>896.2</ele>
        <time>2018-11-26T07:56:26Z</time>
      </trkpt>
      <trkpt lat="42.35774" lon="2.70551">
        <ele>891.9</ele>
        <time>2018-11-26T07:56:26Z</time>
      </trkpt>
      <trkpt lat="42.35774" lon="2.70551">
        <ele>886</ele>
        <time>2018-11-26T07:56:26Z</time>
      </trkpt>
      <trkpt lat="42.35774" lon="2.70551">
        <ele>893.7</ele>
        <time>2018-11-26T07:56:26Z</time>
      </trkpt>
      <trkpt lat="42.35774" lon="2.70551">
        <ele>885</ele>
        <time>2018-11-26T07:56:26Z</time>
      </trkpt>
      <trkpt lat="42.35774" lon="2.70551">
        <ele>891.3</ele>
        <time>2018-11-26T07:56:26Z</time>
      </trkpt>
      <trkpt lat="42.35774" lon="2.70551">
        <ele>897.6</ele>
        <time>2018-11-26T07:56:26Z</time>
      </trkpt>
      <trkpt lat="42.35774" lon="2.70551">
        <ele>891.3</ele>
        <time>2018-11-26T07:56:26Z</time>
      </trkpt>
      <trkpt lat="42.35774" lon="2.70551">
        <ele>893.7</ele>
        <time>2018-11-26T07:56:26Z</time>
      </trkpt>
      <trkpt lat="42.35774" lon="2.70551">
        <ele>879.8</ele>
        <time>2018-11-26T07:56:26Z</time>
      </trkpt>
      <trkpt lat="42.35774" lon="2.70551">
        <ele>883.7</ele>
        <time>2018-11-26T07:56:26Z</time>
      </trkpt>
      <trkpt lat="42.35774" lon="2.70551">
        <ele>891.4</ele>
        <time>2018-11-26T07:56:26Z</time>
      </trkpt>
      <trkpt lat="42.35774" lon="2.70551">
        <ele>888</ele>
        <time>2018-11-26T07:56:26Z</time>
      </trkpt>
      <trkpt lat="42.35774" lon="2.70551">
        <ele>893.3</ele>
        <time>2018-11-26T07:56:26Z</time>
      </trkpt>
      <trkpt lat="42.35774" lon="2.70551">
        <ele>888.4</ele>
        <time>2018-11-26T07:56:26Z</time>
      </trkpt>
      <trkpt lat="42.35774" lon="2.70551">
        <ele>891.8</ele>
        <time>2018-11-26T07:56:26Z</time>
      </trkpt>
      <trkpt lat="42.35774" lon="2.70551">
        <ele>891.3</ele>
        <time>2018-11-26T07:56:26Z</time>
      </trkpt>
      <trkpt lat="42.35774" lon="2.70551">
        <ele>894.2</ele>
        <time>2018-11-26T07:56:26Z</time>
      </trkpt>
      <trkpt lat="42.35774" lon="2.70551">
        <ele>895.2</ele>
        <time>2018-11-26T07:56:26Z</time>
      </trkpt>
      <trkpt lat="42.35774" lon="2.70551">
        <ele>884.2</ele>
        <time>2018-11-26T07:56:26Z</time>
      </trkpt>
      <trkpt lat="42.35772" lon="2.70548">
        <ele>890.8</ele>
        <time>2018-11-26T07:56:27Z</time>
      </trkpt>
      <trkpt lat="42.35772" lon="2.70549">
        <ele>894.3</ele>
        <time>2018-11-26T07:56:27Z</time>
      </trkpt>
      <trkpt lat="42.35772" lon="2.70549">
        <ele>890.4</ele>
        <time>2018-11-26T07:56:27Z</time>
      </trkpt>
      <trkpt lat="42.35772" lon="2.70549">
        <ele>894.6</ele>
        <time>2018-11-26T07:56:27Z</time>
      </trkpt>
      <trkpt lat="42.35772" lon="2.70549">
        <ele>895.7</ele>
        <time>2018-11-26T07:56:27Z</time>
      </trkpt>
      <trkpt lat="42.35772" lon="2.70549">
        <ele>891.8</ele>
        <time>2018-11-26T07:56:27Z</time>
      </trkpt>
      <trkpt lat="42.35772" lon="2.70549">
        <ele>901.4</ele>
        <time>2018-11-26T07:56:27Z</time>
      </trkpt>
      <trkpt lat="42.35772" lon="2.70549">
        <ele>883.6</ele>
        <time>2018-11-26T07:56:27Z</time>
      </trkpt>
      <trkpt lat="42.35766" lon="2.7055">
        <ele>891.3</ele>
        <time>2018-11-26T07:56:30Z</time>
      </trkpt>
      <trkpt lat="42.35765" lon="2.7055">
        <ele>891.8</ele>
        <time>2018-11-26T07:56:30Z</time>
      </trkpt>
      <trkpt lat="42.35755" lon="2.70548">
        <ele>892.8</ele>
        <time>2018-11-26T07:56:34Z</time>
      </trkpt>
      <trkpt lat="42.35749" lon="2.70544">
        <ele>894.2</ele>
        <time>2018-11-26T07:56:37Z</time>
      </trkpt>
      <trkpt lat="42.35744" lon="2.70543">
        <ele>894.7</ele>
        <time>2018-11-26T07:56:39Z</time>
      </trkpt>
      <trkpt lat="42.35741" lon="2.70536">
        <ele>896.1</ele>
        <time>2018-11-26T07:56:41Z</time>
      </trkpt>
      <trkpt lat="42.35737" lon="2.70528">
        <ele>897.2</ele>
        <time>2018-11-26T07:56:44Z</time>
      </trkpt>
      <trkpt lat="42.35733" lon="2.70513">
        <ele>898.1</ele>
        <time>2018-11-26T07:56:49Z</time>
      </trkpt>
      <trkpt lat="42.35731" lon="2.70502">
        <ele>897.5</ele>
        <time>2018-11-26T07:56:52Z</time>
      </trkpt>
      <trkpt lat="42.35723" lon="2.7049">
        <ele>898</ele>
        <time>2018-11-26T07:56:57Z</time>
      </trkpt>
      <trkpt lat="42.35718" lon="2.70481">
        <ele>898.6</ele>
        <time>2018-11-26T07:57:00Z</time>
      </trkpt>
      <trkpt lat="42.3571" lon="2.70464">
        <ele>898.6</ele>
        <time>2018-11-26T07:57:06Z</time>
      </trkpt>
      <trkpt lat="42.35709" lon="2.70462">
        <ele>899.1</ele>
        <time>2018-11-26T07:57:07Z</time>
      </trkpt>
      <trkpt lat="42.357" lon="2.70448">
        <ele>899</ele>
        <time>2018-11-26T07:57:12Z</time>
      </trkpt>
      <trkpt lat="42.35699" lon="2.70446">
        <ele>899.6</ele>
        <time>2018-11-26T07:57:13Z</time>
      </trkpt>
      <trkpt lat="42.35692" lon="2.70439">
        <ele>899.6</ele>
        <time>2018-11-26T07:57:17Z</time>
      </trkpt>
      <trkpt lat="42.35691" lon="2.70438">
        <ele>894.6</ele>
        <time>2018-11-26T07:57:17Z</time>
      </trkpt>
      <trkpt lat="42.35689" lon="2.70437">
        <ele>899.1</ele>
        <time>2018-11-26T07:57:18Z</time>
      </trkpt>
      <trkpt lat="42.35687" lon="2.70435">
        <ele>900</ele>
        <time>2018-11-26T07:57:19Z</time>
      </trkpt>
      <trkpt lat="42.35687" lon="2.70434">
        <ele>895.1</ele>
        <time>2018-11-26T07:57:19Z</time>
      </trkpt>
      <trkpt lat="42.35687" lon="2.70434">
        <ele>898.5</ele>
        <time>2018-11-26T07:57:19Z</time>
      </trkpt>
      <trkpt lat="42.35693" lon="2.70422">
        <ele>897.5</ele>
        <time>2018-11-26T07:57:23Z</time>
      </trkpt>
      <trkpt lat="42.35697" lon="2.70411">
        <ele>895.6</ele>
        <time>2018-11-26T07:57:27Z</time>
      </trkpt>
      <trkpt lat="42.35704" lon="2.70406">
        <ele>896.6</ele>
        <time>2018-11-26T07:57:30Z</time>
      </trkpt>
      <trkpt lat="42.35711" lon="2.70398">
        <ele>896.2</ele>
        <time>2018-11-26T07:57:34Z</time>
      </trkpt>
      <trkpt lat="42.35723" lon="2.70389">
        <ele>896.2</ele>
        <time>2018-11-26T07:57:39Z</time>
      </trkpt>
      <trkpt lat="42.35729" lon="2.70381">
        <ele>895.1</ele>
        <time>2018-11-26T07:57:43Z</time>
      </trkpt>
      <trkpt lat="42.35738" lon="2.70372">
        <ele>892.8</ele>
        <time>2018-11-26T07:57:47Z</time>
      </trkpt>
      <trkpt lat="42.35744" lon="2.70365">
        <ele>891.4</ele>
        <time>2018-11-26T07:57:50Z</time>
      </trkpt>
      <trkpt lat="42.35754" lon="2.70364">
        <ele>891.8</ele>
        <time>2018-11-26T07:57:54Z</time>
      </trkpt>
      <trkpt lat="42.35766" lon="2.7036">
        <ele>889.8</ele>
        <time>2018-11-26T07:57:59Z</time>
      </trkpt>
      <trkpt lat="42.35771" lon="2.70353">
        <ele>887.4</ele>
        <time>2018-11-26T07:58:02Z</time>
      </trkpt>
      <trkpt lat="42.35779" lon="2.70351">
        <ele>885.6</ele>
        <time>2018-11-26T07:58:05Z</time>
      </trkpt>
      <trkpt lat="42.35787" lon="2.70348">
        <ele>884.1</ele>
        <time>2018-11-26T07:58:09Z</time>
      </trkpt>
      <trkpt lat="42.35797" lon="2.70345">
        <ele>882.7</ele>
        <time>2018-11-26T07:58:13Z</time>
      </trkpt>
      <trkpt lat="42.35804" lon="2.70341">
        <ele>881.3</ele>
        <time>2018-11-26T07:58:16Z</time>
      </trkpt>
      <trkpt lat="42.3581" lon="2.70338">
        <ele>878.4</ele>
        <time>2018-11-26T07:58:18Z</time>
      </trkpt>
      <trkpt lat="42.35817" lon="2.70332">
        <ele>876</ele>
        <time>2018-11-26T07:58:22Z</time>
      </trkpt>
      <trkpt lat="42.35826" lon="2.70329">
        <ele>874.1</ele>
        <time>2018-11-26T07:58:25Z</time>
      </trkpt>
      <trkpt lat="42.35835" lon="2.70327">
        <ele>871.7</ele>
        <time>2018-11-26T07:58:29Z</time>
      </trkpt>
      <trkpt lat="42.35847" lon="2.7032">
        <ele>869.2</ele>
        <time>2018-11-26T07:58:34Z</time>
      </trkpt>
      <trkpt lat="42.35852" lon="2.70306">
        <ele>867.3</ele>
        <time>2018-11-26T07:58:39Z</time>
      </trkpt>
      <trkpt lat="42.35855" lon="2.70296">
        <ele>866.8</ele>
        <time>2018-11-26T07:58:42Z</time>
      </trkpt>
      <trkpt lat="42.35859" lon="2.70282">
        <ele>868.8</ele>
        <time>2018-11-26T07:58:47Z</time>
      </trkpt>
      <trkpt lat="42.35862" lon="2.7027">
        <ele>867.8</ele>
        <time>2018-11-26T07:58:50Z</time>
      </trkpt>
      <trkpt lat="42.35862" lon="2.70262">
        <ele>867.3</ele>
        <time>2018-11-26T07:58:53Z</time>
      </trkpt>
      <trkpt lat="42.35863" lon="2.70248">
        <ele>867.7</ele>
        <time>2018-11-26T07:58:57Z</time>
      </trkpt>
      <trkpt lat="42.35859" lon="2.70243">
        <ele>869.8</ele>
        <time>2018-11-26T07:58:59Z</time>
      </trkpt>
      <trkpt lat="42.35858" lon="2.70237">
        <ele>870.7</ele>
        <time>2018-11-26T07:59:01Z</time>
      </trkpt>
      <trkpt lat="42.35855" lon="2.7022">
        <ele>872.1</ele>
        <time>2018-11-26T07:59:06Z</time>
      </trkpt>
      <trkpt lat="42.35855" lon="2.70214">
        <ele>872.5</ele>
        <time>2018-11-26T07:59:08Z</time>
      </trkpt>
      <trkpt lat="42.35853" lon="2.70192">
        <ele>874.6</ele>
        <time>2018-11-26T07:59:14Z</time>
      </trkpt>
      <trkpt lat="42.35852" lon="2.70189">
        <ele>874</ele>
        <time>2018-11-26T07:59:15Z</time>
      </trkpt>
      <trkpt lat="42.35854" lon="2.70178">
        <ele>873</ele>
        <time>2018-11-26T07:59:19Z</time>
      </trkpt>
      <trkpt lat="42.35856" lon="2.70171">
        <ele>870.7</ele>
        <time>2018-11-26T07:59:21Z</time>
      </trkpt>
      <trkpt lat="42.35858" lon="2.70167">
        <ele>870.7</ele>
        <time>2018-11-26T07:59:22Z</time>
      </trkpt>
      <trkpt lat="42.35863" lon="2.70161">
        <ele>869.7</ele>
        <time>2018-11-26T07:59:25Z</time>
      </trkpt>
      <trkpt lat="42.35866" lon="2.70157">
        <ele>869.7</ele>
        <time>2018-11-26T07:59:27Z</time>
      </trkpt>
      <trkpt lat="42.35874" lon="2.70146">
        <ele>867.4</ele>
        <time>2018-11-26T07:59:31Z</time>
      </trkpt>
      <trkpt lat="42.35875" lon="2.70136">
        <ele>866.4</ele>
        <time>2018-11-26T07:59:34Z</time>
      </trkpt>
      <trkpt lat="42.3587" lon="2.70124">
        <ele>865.9</ele>
        <time>2018-11-26T07:59:38Z</time>
      </trkpt>
      <trkpt lat="42.35874" lon="2.701">
        <ele>866.4</ele>
        <time>2018-11-26T07:59:46Z</time>
      </trkpt>
      <trkpt lat="42.35875" lon="2.70096">
        <ele>866.4</ele>
        <time>2018-11-26T07:59:47Z</time>
      </trkpt>
      <trkpt lat="42.3588" lon="2.70079">
        <ele>864.8</ele>
        <time>2018-11-26T07:59:52Z</time>
      </trkpt>
      <trkpt lat="42.35885" lon="2.70071">
        <ele>864.8</ele>
        <time>2018-11-26T07:59:55Z</time>
      </trkpt>
      <trkpt lat="42.35886" lon="2.70054">
        <ele>865.3</ele>
        <time>2018-11-26T08:00:00Z</time>
      </trkpt>
      <trkpt lat="42.35887" lon="2.70047">
        <ele>864.8</ele>
        <time>2018-11-26T08:00:02Z</time>
      </trkpt>
      <trkpt lat="42.35883" lon="2.7003">
        <ele>864.5</ele>
        <time>2018-11-26T08:00:08Z</time>
      </trkpt>
      <trkpt lat="42.35874" lon="2.70025">
        <ele>867.4</ele>
        <time>2018-11-26T08:00:12Z</time>
      </trkpt>
      <trkpt lat="42.35864" lon="2.70021">
        <ele>868.7</ele>
        <time>2018-11-26T08:00:16Z</time>
      </trkpt>
      <trkpt lat="42.35863" lon="2.70019">
        <ele>868.7</ele>
        <time>2018-11-26T08:00:17Z</time>
      </trkpt>
      <trkpt lat="42.35861" lon="2.70009">
        <ele>870.6</ele>
        <time>2018-11-26T08:00:20Z</time>
      </trkpt>
      <trkpt lat="42.3586" lon="2.69993">
        <ele>871.2</ele>
        <time>2018-11-26T08:00:24Z</time>
      </trkpt>
      <trkpt lat="42.3586" lon="2.6999">
        <ele>871.7</ele>
        <time>2018-11-26T08:00:25Z</time>
      </trkpt>
      <trkpt lat="42.35858" lon="2.69973">
        <ele>870.6</ele>
        <time>2018-11-26T08:00:31Z</time>
      </trkpt>
      <trkpt lat="42.35854" lon="2.69958">
        <ele>869.7</ele>
        <time>2018-11-26T08:00:35Z</time>
      </trkpt>
      <trkpt lat="42.35845" lon="2.69953">
        <ele>870.7</ele>
        <time>2018-11-26T08:00:39Z</time>
      </trkpt>
      <trkpt lat="42.35844" lon="2.69952">
        <ele>871.2</ele>
        <time>2018-11-26T08:00:39Z</time>
      </trkpt>
      <trkpt lat="42.35835" lon="2.69947">
        <ele>873</ele>
        <time>2018-11-26T08:00:43Z</time>
      </trkpt>
      <trkpt lat="42.35825" lon="2.6994">
        <ele>875.5</ele>
        <time>2018-11-26T08:00:48Z</time>
      </trkpt>
      <trkpt lat="42.35818" lon="2.69936">
        <ele>877.3</ele>
        <time>2018-11-26T08:00:51Z</time>
      </trkpt>
      <trkpt lat="42.35809" lon="2.69928">
        <ele>878.8</ele>
        <time>2018-11-26T08:00:55Z</time>
      </trkpt>
      <trkpt lat="42.358" lon="2.6992">
        <ele>881.3</ele>
        <time>2018-11-26T08:00:59Z</time>
      </trkpt>
      <trkpt lat="42.3579" lon="2.6991">
        <ele>882.7</ele>
        <time>2018-11-26T08:01:05Z</time>
      </trkpt>
      <trkpt lat="42.35782" lon="2.69906">
        <ele>881.7</ele>
        <time>2018-11-26T08:01:08Z</time>
      </trkpt>
      <trkpt lat="42.3578" lon="2.69913">
        <ele>879.3</ele>
        <time>2018-11-26T08:01:10Z</time>
      </trkpt>
      <trkpt lat="42.35781" lon="2.6991">
        <ele>880.7</ele>
        <time>2018-11-26T08:01:12Z</time>
      </trkpt>
      <trkpt lat="42.35778" lon="2.69908">
        <ele>883.7</ele>
        <time>2018-11-26T08:01:13Z</time>
      </trkpt>
      <trkpt lat="42.35778" lon="2.69908">
        <ele>874.9</ele>
        <time>2018-11-26T08:01:13Z</time>
      </trkpt>
      <trkpt lat="42.35775" lon="2.69909">
        <ele>882.7</ele>
        <time>2018-11-26T08:01:14Z</time>
      </trkpt>
      <trkpt lat="42.35775" lon="2.69909">
        <ele>886.6</ele>
        <time>2018-11-26T08:01:14Z</time>
      </trkpt>
      <trkpt lat="42.35775" lon="2.69909">
        <ele>882.7</ele>
        <time>2018-11-26T08:01:14Z</time>
      </trkpt>
      <trkpt lat="42.35775" lon="2.69909">
        <ele>878.8</ele>
        <time>2018-11-26T08:01:14Z</time>
      </trkpt>
      <trkpt lat="42.35775" lon="2.69909">
        <ele>882.7</ele>
        <time>2018-11-26T08:01:14Z</time>
      </trkpt>
      <trkpt lat="42.35775" lon="2.69909">
        <ele>878.9</ele>
        <time>2018-11-26T08:01:14Z</time>
      </trkpt>
      <trkpt lat="42.35775" lon="2.69909">
        <ele>885.5</ele>
        <time>2018-11-26T08:01:14Z</time>
      </trkpt>
      <trkpt lat="42.35775" lon="2.69909">
        <ele>878.3</ele>
        <time>2018-11-26T08:01:14Z</time>
      </trkpt>
      <trkpt lat="42.35775" lon="2.69909">
        <ele>883.1</ele>
        <time>2018-11-26T08:01:14Z</time>
      </trkpt>
      <trkpt lat="42.35775" lon="2.69909">
        <ele>877.3</ele>
        <time>2018-11-26T08:01:14Z</time>
      </trkpt>
      <trkpt lat="42.35775" lon="2.69909">
        <ele>882.7</ele>
        <time>2018-11-26T08:01:14Z</time>
      </trkpt>
      <trkpt lat="42.35775" lon="2.69909">
        <ele>876.5</ele>
        <time>2018-11-26T08:01:14Z</time>
      </trkpt>
      <trkpt lat="42.35775" lon="2.69909">
        <ele>882.7</ele>
        <time>2018-11-26T08:01:14Z</time>
      </trkpt>
      <trkpt lat="42.35775" lon="2.69909">
        <ele>880.2</ele>
        <time>2018-11-26T08:01:14Z</time>
      </trkpt>
      <trkpt lat="42.35775" lon="2.69909">
        <ele>880.2</ele>
        <time>2018-11-26T08:01:14Z</time>
      </trkpt>
      <trkpt lat="42.35775" lon="2.69909">
        <ele>889</ele>
        <time>2018-11-26T08:01:14Z</time>
      </trkpt>
      <trkpt lat="42.35775" lon="2.69909">
        <ele>882.3</ele>
        <time>2018-11-26T08:01:14Z</time>
      </trkpt>
      <trkpt lat="42.35775" lon="2.69909">
        <ele>887.1</ele>
        <time>2018-11-26T08:01:14Z</time>
      </trkpt>
      <trkpt lat="42.35775" lon="2.69909">
        <ele>882.2</ele>
        <time>2018-11-26T08:01:14Z</time>
      </trkpt>
      <trkpt lat="42.35775" lon="2.69909">
        <ele>883.6</ele>
        <time>2018-11-26T08:01:14Z</time>
      </trkpt>
      <trkpt lat="42.35775" lon="2.69909">
        <ele>878.4</ele>
        <time>2018-11-26T08:01:14Z</time>
      </trkpt>
      <trkpt lat="42.35775" lon="2.69909">
        <ele>874.6</ele>
        <time>2018-11-26T08:01:14Z</time>
      </trkpt>
      <trkpt lat="42.35775" lon="2.69909">
        <ele>882.3</ele>
        <time>2018-11-26T08:01:14Z</time>
      </trkpt>
      <trkpt lat="42.35775" lon="2.69908">
        <ele>882.3</ele>
        <time>2018-11-26T08:01:14Z</time>
      </trkpt>
      <trkpt lat="42.35779" lon="2.69905">
        <ele>880.8</ele>
        <time>2018-11-26T08:01:16Z</time>
      </trkpt>
      <trkpt lat="42.3578" lon="2.69904">
        <ele>880.8</ele>
        <time>2018-11-26T08:01:17Z</time>
      </trkpt>
      <trkpt lat="42.35782" lon="2.69901">
        <ele>880.3</ele>
        <time>2018-11-26T08:01:18Z</time>
      </trkpt>
      <trkpt lat="42.35791" lon="2.69896">
        <ele>881.3</ele>
        <time>2018-11-26T08:01:22Z</time>
      </trkpt>
      <trkpt lat="42.35802" lon="2.6989">
        <ele>881.7</ele>
        <time>2018-11-26T08:01:27Z</time>
      </trkpt>
      <trkpt lat="42.35809" lon="2.69882">
        <ele>880.7</ele>
        <time>2018-11-26T08:01:31Z</time>
      </trkpt>
      <trkpt lat="42.35818" lon="2.6987">
        <ele>879.7</ele>
        <time>2018-11-26T08:01:36Z</time>
      </trkpt>
      <trkpt lat="42.35826" lon="2.69857">
        <ele>879.7</ele>
        <time>2018-11-26T08:01:40Z</time>
      </trkpt>
      <trkpt lat="42.35828" lon="2.69855">
        <ele>879.8</ele>
        <time>2018-11-26T08:01:42Z</time>
      </trkpt>
      <trkpt lat="42.35833" lon="2.69842">
        <ele>878.4</ele>
        <time>2018-11-26T08:01:46Z</time>
      </trkpt>
      <trkpt lat="42.35842" lon="2.69836">
        <ele>877.8</ele>
        <time>2018-11-26T08:01:50Z</time>
      </trkpt>
      <trkpt lat="42.35845" lon="2.69833">
        <ele>877.3</ele>
        <time>2018-11-26T08:01:51Z</time>
      </trkpt>
      <trkpt lat="42.35849" lon="2.69825">
        <ele>876.5</ele>
        <time>2018-11-26T08:01:54Z</time>
      </trkpt>
      <trkpt lat="42.35858" lon="2.69812">
        <ele>874.9</ele>
        <time>2018-11-26T08:01:59Z</time>
      </trkpt>
      <trkpt lat="42.35862" lon="2.69803">
        <ele>874</ele>
        <time>2018-11-26T08:02:03Z</time>
      </trkpt>
      <trkpt lat="42.35863" lon="2.69799">
        <ele>874.1</ele>
        <time>2018-11-26T08:02:04Z</time>
      </trkpt>
      <trkpt lat="42.35862" lon="2.69793">
        <ele>874.9</ele>
        <time>2018-11-26T08:02:06Z</time>
      </trkpt>
      <trkpt lat="42.35863" lon="2.69786">
        <ele>877.8</ele>
        <time>2018-11-26T08:02:08Z</time>
      </trkpt>
      <trkpt lat="42.3586" lon="2.69781">
        <ele>875</ele>
        <time>2018-11-26T08:02:10Z</time>
      </trkpt>
      <trkpt lat="42.35857" lon="2.69777">
        <ele>875</ele>
        <time>2018-11-26T08:02:12Z</time>
      </trkpt>
      <trkpt lat="42.35853" lon="2.69766">
        <ele>874</ele>
        <time>2018-11-26T08:02:15Z</time>
      </trkpt>
      <trkpt lat="42.35851" lon="2.69761">
        <ele>875</ele>
        <time>2018-11-26T08:02:17Z</time>
      </trkpt>
      <trkpt lat="42.3585" lon="2.69751">
        <ele>875.9</ele>
        <time>2018-11-26T08:02:20Z</time>
      </trkpt>
      <trkpt lat="42.35851" lon="2.69741">
        <ele>875</ele>
        <time>2018-11-26T08:02:23Z</time>
      </trkpt>
      <trkpt lat="42.35849" lon="2.69732">
        <ele>873.6</ele>
        <time>2018-11-26T08:02:26Z</time>
      </trkpt>
      <trkpt lat="42.35844" lon="2.69722">
        <ele>874</ele>
        <time>2018-11-26T08:02:29Z</time>
      </trkpt>
      <trkpt lat="42.35837" lon="2.69716">
        <ele>873.6</ele>
        <time>2018-11-26T08:02:33Z</time>
      </trkpt>
      <trkpt lat="42.35827" lon="2.69709">
        <ele>874.9</ele>
        <time>2018-11-26T08:02:37Z</time>
      </trkpt>
      <trkpt lat="42.35821" lon="2.69703">
        <ele>874.9</ele>
        <time>2018-11-26T08:02:40Z</time>
      </trkpt>
      <trkpt lat="42.35816" lon="2.69685">
        <ele>876.4</ele>
        <time>2018-11-26T08:02:46Z</time>
      </trkpt>
      <trkpt lat="42.35816" lon="2.69663">
        <ele>875.9</ele>
        <time>2018-11-26T08:02:52Z</time>
      </trkpt>
      <trkpt lat="42.35818" lon="2.69655">
        <ele>874.9</ele>
        <time>2018-11-26T08:02:55Z</time>
      </trkpt>
      <trkpt lat="42.35817" lon="2.69646">
        <ele>874.9</ele>
        <time>2018-11-26T08:02:57Z</time>
      </trkpt>
      <trkpt lat="42.35815" lon="2.69642">
        <ele>876.5</ele>
        <time>2018-11-26T08:02:59Z</time>
      </trkpt>
      <trkpt lat="42.35814" lon="2.69628">
        <ele>877.4</ele>
        <time>2018-11-26T08:03:03Z</time>
      </trkpt>
      <trkpt lat="42.35805" lon="2.69619">
        <ele>879.3</ele>
        <time>2018-11-26T08:03:07Z</time>
      </trkpt>
      <trkpt lat="42.35801" lon="2.69613">
        <ele>879.7</ele>
        <time>2018-11-26T08:03:10Z</time>
      </trkpt>
      <trkpt lat="42.35797" lon="2.69608">
        <ele>880.3</ele>
        <time>2018-11-26T08:03:12Z</time>
      </trkpt>
      <trkpt lat="42.35793" lon="2.69601">
        <ele>881.2</ele>
        <time>2018-11-26T08:03:14Z</time>
      </trkpt>
      <trkpt lat="42.35792" lon="2.69589">
        <ele>881.2</ele>
        <time>2018-11-26T08:03:18Z</time>
      </trkpt>
      <trkpt lat="42.35794" lon="2.69572">
        <ele>880.8</ele>
        <time>2018-11-26T08:03:23Z</time>
      </trkpt>
      <trkpt lat="42.35794" lon="2.6956">
        <ele>879.8</ele>
        <time>2018-11-26T08:03:26Z</time>
      </trkpt>
      <trkpt lat="42.35795" lon="2.69545">
        <ele>880.2</ele>
        <time>2018-11-26T08:03:31Z</time>
      </trkpt>
      <trkpt lat="42.35791" lon="2.6953">
        <ele>880.7</ele>
        <time>2018-11-26T08:03:36Z</time>
      </trkpt>
      <trkpt lat="42.3579" lon="2.69522">
        <ele>881.3</ele>
        <time>2018-11-26T08:03:38Z</time>
      </trkpt>
      <trkpt lat="42.35785" lon="2.69513">
        <ele>881.2</ele>
        <time>2018-11-26T08:03:41Z</time>
      </trkpt>
      <trkpt lat="42.35774" lon="2.69503">
        <ele>883.1</ele>
        <time>2018-11-26T08:03:47Z</time>
      </trkpt>
      <trkpt lat="42.35764" lon="2.69497">
        <ele>884.7</ele>
        <time>2018-11-26T08:03:51Z</time>
      </trkpt>
      <trkpt lat="42.35757" lon="2.69491">
        <ele>884.6</ele>
        <time>2018-11-26T08:03:54Z</time>
      </trkpt>
      <trkpt lat="42.35753" lon="2.69488">
        <ele>884.6</ele>
        <time>2018-11-26T08:03:56Z</time>
      </trkpt>
      <trkpt lat="42.35748" lon="2.69484">
        <ele>886.5</ele>
        <time>2018-11-26T08:03:58Z</time>
      </trkpt>
      <trkpt lat="42.3574" lon="2.69472">
        <ele>889.5</ele>
        <time>2018-11-26T08:04:03Z</time>
      </trkpt>
      <trkpt lat="42.35739" lon="2.69471">
        <ele>892.8</ele>
        <time>2018-11-26T08:04:04Z</time>
      </trkpt>
      <trkpt lat="42.35739" lon="2.69469">
        <ele>889.8</ele>
        <time>2018-11-26T08:04:04Z</time>
      </trkpt>
      <trkpt lat="42.35739" lon="2.69469">
        <ele>886</ele>
        <time>2018-11-26T08:04:04Z</time>
      </trkpt>
      <trkpt lat="42.35739" lon="2.69469">
        <ele>897.1</ele>
        <time>2018-11-26T08:04:04Z</time>
      </trkpt>
      <trkpt lat="42.35739" lon="2.69469">
        <ele>889.8</ele>
        <time>2018-11-26T08:04:04Z</time>
      </trkpt>
      <trkpt lat="42.35739" lon="2.69469">
        <ele>898.5</ele>
        <time>2018-11-26T08:04:04Z</time>
      </trkpt>
      <trkpt lat="42.35739" lon="2.69468">
        <ele>889.8</ele>
        <time>2018-11-26T08:04:05Z</time>
      </trkpt>
      <trkpt lat="42.35739" lon="2.69468">
        <ele>885</ele>
        <time>2018-11-26T08:04:05Z</time>
      </trkpt>
      <trkpt lat="42.35739" lon="2.69468">
        <ele>890.8</ele>
        <time>2018-11-26T08:04:05Z</time>
      </trkpt>
      <trkpt lat="42.35739" lon="2.69468">
        <ele>877.8</ele>
        <time>2018-11-26T08:04:05Z</time>
      </trkpt>
      <trkpt lat="42.35739" lon="2.69468">
        <ele>889.5</ele>
        <time>2018-11-26T08:04:05Z</time>
      </trkpt>
      <trkpt lat="42.35739" lon="2.69468">
        <ele>890.4</ele>
        <time>2018-11-26T08:04:05Z</time>
      </trkpt>
      <trkpt lat="42.35739" lon="2.69468">
        <ele>885</ele>
        <time>2018-11-26T08:04:05Z</time>
      </trkpt>
      <trkpt lat="42.35739" lon="2.69468">
        <ele>883.7</ele>
        <time>2018-11-26T08:04:05Z</time>
      </trkpt>
      <trkpt lat="42.35739" lon="2.69468">
        <ele>889.4</ele>
        <time>2018-11-26T08:04:05Z</time>
      </trkpt>
      <trkpt lat="42.35739" lon="2.69468">
        <ele>889.4</ele>
        <time>2018-11-26T08:04:05Z</time>
      </trkpt>
      <trkpt lat="42.35739" lon="2.69468">
        <ele>885.5</ele>
        <time>2018-11-26T08:04:05Z</time>
      </trkpt>
      <trkpt lat="42.35739" lon="2.69468">
        <ele>890.4</ele>
        <time>2018-11-26T08:04:05Z</time>
      </trkpt>
      <trkpt lat="42.35739" lon="2.69468">
        <ele>882.3</ele>
        <time>2018-11-26T08:04:05Z</time>
      </trkpt>
      <trkpt lat="42.35739" lon="2.69468">
        <ele>897.1</ele>
        <time>2018-11-26T08:04:05Z</time>
      </trkpt>
      <trkpt lat="42.35739" lon="2.69468">
        <ele>888.9</ele>
        <time>2018-11-26T08:04:05Z</time>
      </trkpt>
      <trkpt lat="42.35739" lon="2.69468">
        <ele>885.5</ele>
        <time>2018-11-26T08:04:05Z</time>
      </trkpt>
      <trkpt lat="42.35739" lon="2.69467">
        <ele>889</ele>
        <time>2018-11-26T08:04:05Z</time>
      </trkpt>
      <trkpt lat="42.35739" lon="2.69467">
        <ele>889.9</ele>
        <time>2018-11-26T08:04:05Z</time>
      </trkpt>
      <trkpt lat="42.35739" lon="2.69467">
        <ele>886</ele>
        <time>2018-11-26T08:04:05Z</time>
      </trkpt>
      <trkpt lat="42.35739" lon="2.69467">
        <ele>883.2</ele>
        <time>2018-11-26T08:04:05Z</time>
      </trkpt>
      <trkpt lat="42.35739" lon="2.69467">
        <ele>887</ele>
        <time>2018-11-26T08:04:05Z</time>
      </trkpt>
      <trkpt lat="42.35739" lon="2.69467">
        <ele>886.6</ele>
        <time>2018-11-26T08:04:05Z</time>
      </trkpt>
      <trkpt lat="42.35739" lon="2.69467">
        <ele>898.1</ele>
        <time>2018-11-26T08:04:05Z</time>
      </trkpt>
      <trkpt lat="42.35739" lon="2.69467">
        <ele>890.9</ele>
        <time>2018-11-26T08:04:05Z</time>
      </trkpt>
      <trkpt lat="42.35739" lon="2.69467">
        <ele>883.1</ele>
        <time>2018-11-26T08:04:05Z</time>
      </trkpt>
      <trkpt lat="42.35739" lon="2.69467">
        <ele>889.4</ele>
        <time>2018-11-26T08:04:05Z</time>
      </trkpt>
      <trkpt lat="42.35739" lon="2.69467">
        <ele>897.2</ele>
        <time>2018-11-26T08:04:05Z</time>
      </trkpt>
      <trkpt lat="42.35739" lon="2.69467">
        <ele>889.4</ele>
        <time>2018-11-26T08:04:05Z</time>
      </trkpt>
      <trkpt lat="42.35739" lon="2.69467">
        <ele>882.7</ele>
        <time>2018-11-26T08:04:05Z</time>
      </trkpt>
      <trkpt lat="42.35739" lon="2.69467">
        <ele>899.1</ele>
        <time>2018-11-26T08:04:05Z</time>
      </trkpt>
      <trkpt lat="42.35739" lon="2.69467">
        <ele>875</ele>
        <time>2018-11-26T08:04:05Z</time>
      </trkpt>
      <trkpt lat="42.35737" lon="2.69466">
        <ele>889</ele>
        <time>2018-11-26T08:04:06Z</time>
      </trkpt>
      <trkpt lat="42.35734" lon="2.69458">
        <ele>890.4</ele>
        <time>2018-11-26T08:04:09Z</time>
      </trkpt>
      <trkpt lat="42.35728" lon="2.69451">
        <ele>888.9</ele>
        <time>2018-11-26T08:04:12Z</time>
      </trkpt>
      <trkpt lat="42.35725" lon="2.69444">
        <ele>890.3</ele>
        <time>2018-11-26T08:04:14Z</time>
      </trkpt>
      <trkpt lat="42.35719" lon="2.69437">
        <ele>891.8</ele>
        <time>2018-11-26T08:04:17Z</time>
      </trkpt>
      <trkpt lat="42.35717" lon="2.69429">
        <ele>894.2</ele>
        <time>2018-11-26T08:04:20Z</time>
      </trkpt>
      <trkpt lat="42.35715" lon="2.69424">
        <ele>894.6</ele>
        <time>2018-11-26T08:04:21Z</time>
      </trkpt>
      <trkpt lat="42.35714" lon="2.69422">
        <ele>894.7</ele>
        <time>2018-11-26T08:04:22Z</time>
      </trkpt>
      <trkpt lat="42.35717" lon="2.69411">
        <ele>896.6</ele>
        <time>2018-11-26T08:04:25Z</time>
      </trkpt>
      <trkpt lat="42.3572" lon="2.6941">
        <ele>896.7</ele>
        <time>2018-11-26T08:04:27Z</time>
      </trkpt>
      <trkpt lat="42.35722" lon="2.69409">
        <ele>896.7</ele>
        <time>2018-11-26T08:04:27Z</time>
      </trkpt>
      <trkpt lat="42.35724" lon="2.69401">
        <ele>895.2</ele>
        <time>2018-11-26T08:04:30Z</time>
      </trkpt>
      <trkpt lat="42.35729" lon="2.69397">
        <ele>893.7</ele>
        <time>2018-11-26T08:04:32Z</time>
      </trkpt>
      <trkpt lat="42.35736" lon="2.69386">
        <ele>892.8</ele>
        <time>2018-11-26T08:04:36Z</time>
      </trkpt>
      <trkpt lat="42.35739" lon="2.69382">
        <ele>892.7</ele>
        <time>2018-11-26T08:04:38Z</time>
      </trkpt>
      <trkpt lat="42.3574" lon="2.69378">
        <ele>892.7</ele>
        <time>2018-11-26T08:04:40Z</time>
      </trkpt>
      <trkpt lat="42.35749" lon="2.69368">
        <ele>894.6</ele>
        <time>2018-11-26T08:04:44Z</time>
      </trkpt>
      <trkpt lat="42.3576" lon="2.69361">
        <ele>892.8</ele>
        <time>2018-11-26T08:04:49Z</time>
      </trkpt>
      <trkpt lat="42.35768" lon="2.69357">
        <ele>890.9</ele>
        <time>2018-11-26T08:04:52Z</time>
      </trkpt>
      <trkpt lat="42.35774" lon="2.69356">
        <ele>889.9</ele>
        <time>2018-11-26T08:04:55Z</time>
      </trkpt>
      <trkpt lat="42.35786" lon="2.69355">
        <ele>888.4</ele>
        <time>2018-11-26T08:04:59Z</time>
      </trkpt>
      <trkpt lat="42.35793" lon="2.69354">
        <ele>887.5</ele>
        <time>2018-11-26T08:05:02Z</time>
      </trkpt>
      <trkpt lat="42.35804" lon="2.69351">
        <ele>887.4</ele>
        <time>2018-11-26T08:05:07Z</time>
      </trkpt>
      <trkpt lat="42.35806" lon="2.69349">
        <ele>887</ele>
        <time>2018-11-26T08:05:08Z</time>
      </trkpt>
      <trkpt lat="42.35814" lon="2.69345">
        <ele>886.5</ele>
        <time>2018-11-26T08:05:11Z</time>
      </trkpt>
      <trkpt lat="42.35824" lon="2.69338">
        <ele>886.5</ele>
        <time>2018-11-26T08:05:16Z</time>
      </trkpt>
      <trkpt lat="42.35825" lon="2.69338">
        <ele>886</ele>
        <time>2018-11-26T08:05:16Z</time>
      </trkpt>
      <trkpt lat="42.35838" lon="2.69333">
        <ele>885.5</ele>
        <time>2018-11-26T08:05:22Z</time>
      </trkpt>
      <trkpt lat="42.35845" lon="2.69331">
        <ele>885.1</ele>
        <time>2018-11-26T08:05:24Z</time>
      </trkpt>
      <trkpt lat="42.35858" lon="2.69331">
        <ele>884.7</ele>
        <time>2018-11-26T08:05:30Z</time>
      </trkpt>
      <trkpt lat="42.35872" lon="2.69328">
        <ele>884.2</ele>
        <time>2018-11-26T08:05:35Z</time>
      </trkpt>
      <trkpt lat="42.35885" lon="2.69329">
        <ele>884.7</ele>
        <time>2018-11-26T08:05:41Z</time>
      </trkpt>
      <trkpt lat="42.3589" lon="2.69328">
        <ele>883.7</ele>
        <time>2018-11-26T08:05:43Z</time>
      </trkpt>
      <trkpt lat="42.35895" lon="2.69326">
        <ele>881.7</ele>
        <time>2018-11-26T08:05:45Z</time>
      </trkpt>
      <trkpt lat="42.35905" lon="2.69313">
        <ele>882.2</ele>
        <time>2018-11-26T08:05:50Z</time>
      </trkpt>
      <trkpt lat="42.35906" lon="2.69312">
        <ele>882.3</ele>
        <time>2018-11-26T08:05:51Z</time>
      </trkpt>
      <trkpt lat="42.35911" lon="2.69299">
        <ele>883.2</ele>
        <time>2018-11-26T08:05:55Z</time>
      </trkpt>
      <trkpt lat="42.3591" lon="2.69293">
        <ele>882.6</ele>
        <time>2018-11-26T08:05:57Z</time>
      </trkpt>
      <trkpt lat="42.35913" lon="2.69282">
        <ele>885</ele>
        <time>2018-11-26T08:06:00Z</time>
      </trkpt>
      <trkpt lat="42.35916" lon="2.69274">
        <ele>887.9</ele>
        <time>2018-11-26T08:06:03Z</time>
      </trkpt>
      <trkpt lat="42.35916" lon="2.69274">
        <ele>883.1</ele>
        <time>2018-11-26T08:06:03Z</time>
      </trkpt>
      <trkpt lat="42.35916" lon="2.69274">
        <ele>887.5</ele>
        <time>2018-11-26T08:06:03Z</time>
      </trkpt>
      <trkpt lat="42.35916" lon="2.69274">
        <ele>893.3</ele>
        <time>2018-11-26T08:06:03Z</time>
      </trkpt>
      <trkpt lat="42.35916" lon="2.69274">
        <ele>888</ele>
        <time>2018-11-26T08:06:03Z</time>
      </trkpt>
      <trkpt lat="42.35916" lon="2.69274">
        <ele>886.1</ele>
        <time>2018-11-26T08:06:03Z</time>
      </trkpt>
      <trkpt lat="42.35916" lon="2.69274">
        <ele>891.9</ele>
        <time>2018-11-26T08:06:03Z</time>
      </trkpt>
      <trkpt lat="42.35916" lon="2.69274">
        <ele>892.2</ele>
        <time>2018-11-26T08:06:03Z</time>
      </trkpt>
      <trkpt lat="42.35916" lon="2.69274">
        <ele>887.5</ele>
        <time>2018-11-26T08:06:03Z</time>
      </trkpt>
      <trkpt lat="42.35916" lon="2.69274">
        <ele>890.3</ele>
        <time>2018-11-26T08:06:03Z</time>
      </trkpt>
      <trkpt lat="42.35916" lon="2.69274">
        <ele>887</ele>
        <time>2018-11-26T08:06:03Z</time>
      </trkpt>
      <trkpt lat="42.3592" lon="2.69264">
        <ele>887.4</ele>
        <time>2018-11-26T08:06:06Z</time>
      </trkpt>
      <trkpt lat="42.35919" lon="2.69251">
        <ele>886.5</ele>
        <time>2018-11-26T08:06:10Z</time>
      </trkpt>
      <trkpt lat="42.35915" lon="2.69237">
        <ele>884.6</ele>
        <time>2018-11-26T08:06:15Z</time>
      </trkpt>
      <trkpt lat="42.35911" lon="2.69222">
        <ele>884.2</ele>
        <time>2018-11-26T08:06:19Z</time>
      </trkpt>
      <trkpt lat="42.35907" lon="2.6921">
        <ele>883.1</ele>
        <time>2018-11-26T08:06:23Z</time>
      </trkpt>
      <trkpt lat="42.35905" lon="2.69207">
        <ele>883.6</ele>
        <time>2018-11-26T08:06:25Z</time>
      </trkpt>
      <trkpt lat="42.35898" lon="2.69194">
        <ele>882.3</ele>
        <time>2018-11-26T08:06:29Z</time>
      </trkpt>
      <trkpt lat="42.35894" lon="2.6918">
        <ele>880.8</ele>
        <time>2018-11-26T08:06:34Z</time>
      </trkpt>
      <trkpt lat="42.35894" lon="2.69179">
        <ele>880.8</ele>
        <time>2018-11-26T08:06:34Z</time>
      </trkpt>
      <trkpt lat="42.35888" lon="2.69172">
        <ele>879.7</ele>
        <time>2018-11-26T08:06:37Z</time>
      </trkpt>
      <trkpt lat="42.35884" lon="2.69152">
        <ele>878.8</ele>
        <time>2018-11-26T08:06:43Z</time>
      </trkpt>
      <trkpt lat="42.35879" lon="2.69144">
        <ele>878.9</ele>
        <time>2018-11-26T08:06:46Z</time>
      </trkpt>
      <trkpt lat="42.35879" lon="2.69141">
        <ele>879.3</ele>
        <time>2018-11-26T08:06:47Z</time>
      </trkpt>
      <trkpt lat="42.35879" lon="2.6913">
        <ele>877.4</ele>
        <time>2018-11-26T08:06:50Z</time>
      </trkpt>
      <trkpt lat="42.35875" lon="2.69117">
        <ele>877</ele>
        <time>2018-11-26T08:06:54Z</time>
      </trkpt>
      <trkpt lat="42.35871" lon="2.69108">
        <ele>876.9</ele>
        <time>2018-11-26T08:06:57Z</time>
      </trkpt>
      <trkpt lat="42.35871" lon="2.69099">
        <ele>877.4</ele>
        <time>2018-11-26T08:07:00Z</time>
      </trkpt>
      <trkpt lat="42.35868" lon="2.6909">
        <ele>876.4</ele>
        <time>2018-11-26T08:07:03Z</time>
      </trkpt>
      <trkpt lat="42.35865" lon="2.6908">
        <ele>874.5</ele>
        <time>2018-11-26T08:07:06Z</time>
      </trkpt>
      <trkpt lat="42.3586" lon="2.69069">
        <ele>873.1</ele>
        <time>2018-11-26T08:07:10Z</time>
      </trkpt>
      <trkpt lat="42.35862" lon="2.69055">
        <ele>872.1</ele>
        <time>2018-11-26T08:07:14Z</time>
      </trkpt>
      <trkpt lat="42.35864" lon="2.69042">
        <ele>870.1</ele>
        <time>2018-11-26T08:07:18Z</time>
      </trkpt>
      <trkpt lat="42.35861" lon="2.69029">
        <ele>868.7</ele>
        <time>2018-11-26T08:07:22Z</time>
      </trkpt>
      <trkpt lat="42.35861" lon="2.69028">
        <ele>868.7</ele>
        <time>2018-11-26T08:07:22Z</time>
      </trkpt>
      <trkpt lat="42.35857" lon="2.69016">
        <ele>867.4</ele>
        <time>2018-11-26T08:07:26Z</time>
      </trkpt>
      <trkpt lat="42.35854" lon="2.69011">
        <ele>865.4</ele>
        <time>2018-11-26T08:07:28Z</time>
      </trkpt>
      <trkpt lat="42.3585" lon="2.69006">
        <ele>862.9</ele>
        <time>2018-11-26T08:07:30Z</time>
      </trkpt>
      <trkpt lat="42.35848" lon="2.68997">
        <ele>861.5</ele>
        <time>2018-11-26T08:07:33Z</time>
      </trkpt>
      <trkpt lat="42.35847" lon="2.68992">
        <ele>858.6</ele>
        <time>2018-11-26T08:07:35Z</time>
      </trkpt>
      <trkpt lat="42.35846" lon="2.68983">
        <ele>855.7</ele>
        <time>2018-11-26T08:07:37Z</time>
      </trkpt>
      <trkpt lat="42.35845" lon="2.68978">
        <ele>853.3</ele>
        <time>2018-11-26T08:07:39Z</time>
      </trkpt>
      <trkpt lat="42.35844" lon="2.68971">
        <ele>851.4</ele>
        <time>2018-11-26T08:07:41Z</time>
      </trkpt>
      <trkpt lat="42.35843" lon="2.68963">
        <ele>848.5</ele>
        <time>2018-11-26T08:07:43Z</time>
      </trkpt>
      <trkpt lat="42.3584" lon="2.68957">
        <ele>846.7</ele>
        <time>2018-11-26T08:07:46Z</time>
      </trkpt>
      <trkpt lat="42.35837" lon="2.68949">
        <ele>843.8</ele>
        <time>2018-11-26T08:07:48Z</time>
      </trkpt>
      <trkpt lat="42.35832" lon="2.68943">
        <ele>841.9</ele>
        <time>2018-11-26T08:07:51Z</time>
      </trkpt>
      <trkpt lat="42.35824" lon="2.68942">
        <ele>839</ele>
        <time>2018-11-26T08:07:54Z</time>
      </trkpt>
      <trkpt lat="42.35815" lon="2.68942">
        <ele>837</ele>
        <time>2018-11-26T08:07:57Z</time>
      </trkpt>
      <trkpt lat="42.35805" lon="2.68938">
        <ele>834.7</ele>
        <time>2018-11-26T08:08:02Z</time>
      </trkpt>
      <trkpt lat="42.358" lon="2.68936">
        <ele>832.3</ele>
        <time>2018-11-26T08:08:04Z</time>
      </trkpt>
      <trkpt lat="42.35797" lon="2.68927">
        <ele>830.2</ele>
        <time>2018-11-26T08:08:07Z</time>
      </trkpt>
      <trkpt lat="42.35793" lon="2.68927">
        <ele>827.8</ele>
        <time>2018-11-26T08:08:09Z</time>
      </trkpt>
      <trkpt lat="42.35785" lon="2.68929">
        <ele>825</ele>
        <time>2018-11-26T08:08:12Z</time>
      </trkpt>
      <trkpt lat="42.35776" lon="2.6893">
        <ele>822.1</ele>
        <time>2018-11-26T08:08:15Z</time>
      </trkpt>
      <trkpt lat="42.35769" lon="2.68932">
        <ele>819.2</ele>
        <time>2018-11-26T08:08:18Z</time>
      </trkpt>
      <trkpt lat="42.35762" lon="2.68935">
        <ele>815.8</ele>
        <time>2018-11-26T08:08:21Z</time>
      </trkpt>
      <trkpt lat="42.35757" lon="2.68939">
        <ele>812.9</ele>
        <time>2018-11-26T08:08:24Z</time>
      </trkpt>
      <trkpt lat="42.35753" lon="2.68936">
        <ele>810.2</ele>
        <time>2018-11-26T08:08:25Z</time>
      </trkpt>
      <trkpt lat="42.35744" lon="2.68932">
        <ele>808.2</ele>
        <time>2018-11-26T08:08:29Z</time>
      </trkpt>
      <trkpt lat="42.3574" lon="2.68933">
        <ele>807.2</ele>
        <time>2018-11-26T08:08:31Z</time>
      </trkpt>
      <trkpt lat="42.35744" lon="2.68932">
        <ele>807.6</ele>
        <time>2018-11-26T08:08:32Z</time>
      </trkpt>
      <trkpt lat="42.35742" lon="2.68926">
        <ele>806.8</ele>
        <time>2018-11-26T08:08:34Z</time>
      </trkpt>
      <trkpt lat="42.35743" lon="2.68916">
        <ele>805.2</ele>
        <time>2018-11-26T08:08:37Z</time>
      </trkpt>
      <trkpt lat="42.35739" lon="2.68903">
        <ele>802.8</ele>
        <time>2018-11-26T08:08:41Z</time>
      </trkpt>
      <trkpt lat="42.35741" lon="2.68896">
        <ele>802.8</ele>
        <time>2018-11-26T08:08:43Z</time>
      </trkpt>
      <trkpt lat="42.35742" lon="2.68893">
        <ele>802.5</ele>
        <time>2018-11-26T08:08:44Z</time>
      </trkpt>
      <trkpt lat="42.35745" lon="2.68884">
        <ele>802</ele>
        <time>2018-11-26T08:08:47Z</time>
      </trkpt>
      <trkpt lat="42.35751" lon="2.68871">
        <ele>800.5</ele>
        <time>2018-11-26T08:08:52Z</time>
      </trkpt>
      <trkpt lat="42.35755" lon="2.68865">
        <ele>800</ele>
        <time>2018-11-26T08:08:54Z</time>
      </trkpt>
      <trkpt lat="42.35758" lon="2.68864">
        <ele>799.6</ele>
        <time>2018-11-26T08:08:55Z</time>
      </trkpt>
      <trkpt lat="42.35756" lon="2.68854">
        <ele>797.6</ele>
        <time>2018-11-26T08:08:58Z</time>
      </trkpt>
      <trkpt lat="42.35749" lon="2.68854">
        <ele>796.1</ele>
        <time>2018-11-26T08:09:01Z</time>
      </trkpt>
      <trkpt lat="42.3574" lon="2.68859">
        <ele>794.2</ele>
        <time>2018-11-26T08:09:05Z</time>
      </trkpt>
      <trkpt lat="42.35843" lon="2.6897">
        <ele>860.6</ele>
        <time>2018-11-26T09:06:27Z</time>
      </trkpt>
      <trkpt lat="42.3584" lon="2.68962">
        <ele>858.7</ele>
        <time>2018-11-26T09:06:29Z</time>
      </trkpt>
      <trkpt lat="42.35839" lon="2.68953">
        <ele>856.3</ele>
        <time>2018-11-26T09:06:32Z</time>
      </trkpt>
      <trkpt lat="42.35837" lon="2.68944">
        <ele>855.7</ele>
        <time>2018-11-26T09:06:35Z</time>
      </trkpt>
      <trkpt lat="42.35823" lon="2.68942">
        <ele>847.1</ele>
        <time>2018-11-26T09:06:40Z</time>
      </trkpt>
      <trkpt lat="42.35812" lon="2.68941">
        <ele>845.2</ele>
        <time>2018-11-26T09:06:45Z</time>
      </trkpt>
      <trkpt lat="42.358" lon="2.68937">
        <ele>842.4</ele>
        <time>2018-11-26T09:06:50Z</time>
      </trkpt>
      <trkpt lat="42.35797" lon="2.68929">
        <ele>839.9</ele>
        <time>2018-11-26T09:06:52Z</time>
      </trkpt>
      <trkpt lat="42.35797" lon="2.68923">
        <ele>838.4</ele>
        <time>2018-11-26T09:06:54Z</time>
      </trkpt>
      <trkpt lat="42.3579" lon="2.68927">
        <ele>836</ele>
        <time>2018-11-26T09:06:57Z</time>
      </trkpt>
      <trkpt lat="42.35782" lon="2.68928">
        <ele>835</ele>
        <time>2018-11-26T09:07:00Z</time>
      </trkpt>
      <trkpt lat="42.35776" lon="2.68926">
        <ele>833.7</ele>
        <time>2018-11-26T09:07:03Z</time>
      </trkpt>
      <trkpt lat="42.35769" lon="2.68929">
        <ele>830.8</ele>
        <time>2018-11-26T09:07:06Z</time>
      </trkpt>
      <trkpt lat="42.35761" lon="2.68936">
        <ele>826.5</ele>
        <time>2018-11-26T09:07:09Z</time>
      </trkpt>
      <trkpt lat="42.35756" lon="2.68939">
        <ele>822.6</ele>
        <time>2018-11-26T09:07:12Z</time>
      </trkpt>
      <trkpt lat="42.3575" lon="2.68933">
        <ele>819.7</ele>
        <time>2018-11-26T09:07:15Z</time>
      </trkpt>
      <trkpt lat="42.35747" lon="2.68932">
        <ele>819.8</ele>
        <time>2018-11-26T09:07:16Z</time>
      </trkpt>
      <trkpt lat="42.35743" lon="2.68924">
        <ele>819.2</ele>
        <time>2018-11-26T09:07:19Z</time>
      </trkpt>
      <trkpt lat="42.35743" lon="2.68923">
        <ele>818.8</ele>
        <time>2018-11-26T09:07:19Z</time>
      </trkpt>
      <trkpt lat="42.35742" lon="2.68913">
        <ele>817.4</ele>
        <time>2018-11-26T09:07:22Z</time>
      </trkpt>
      <trkpt lat="42.35738" lon="2.68914">
        <ele>815.8</ele>
        <time>2018-11-26T09:07:24Z</time>
      </trkpt>
      <trkpt lat="42.35731" lon="2.68906">
        <ele>812.5</ele>
        <time>2018-11-26T09:07:27Z</time>
      </trkpt>
      <trkpt lat="42.35723" lon="2.68905">
        <ele>810.1</ele>
        <time>2018-11-26T09:07:30Z</time>
      </trkpt>
      <trkpt lat="42.35718" lon="2.68906">
        <ele>809.1</ele>
        <time>2018-11-26T09:07:32Z</time>
      </trkpt>
      <trkpt lat="42.35713" lon="2.6891">
        <ele>808.2</ele>
        <time>2018-11-26T09:07:35Z</time>
      </trkpt>
      <trkpt lat="42.35706" lon="2.68915">
        <ele>807.2</ele>
        <time>2018-11-26T09:07:38Z</time>
      </trkpt>
      <trkpt lat="42.35705" lon="2.68913">
        <ele>806.7</ele>
        <time>2018-11-26T09:07:39Z</time>
      </trkpt>
      <trkpt lat="42.35704" lon="2.68913">
        <ele>805.8</ele>
        <time>2018-11-26T09:07:39Z</time>
      </trkpt>
      <trkpt lat="42.35705" lon="2.68917">
        <ele>804.9</ele>
        <time>2018-11-26T09:07:40Z</time>
      </trkpt>
      <trkpt lat="42.357" lon="2.68919">
        <ele>802.9</ele>
        <time>2018-11-26T09:07:42Z</time>
      </trkpt>
      <trkpt lat="42.35699" lon="2.68917">
        <ele>801.5</ele>
        <time>2018-11-26T09:07:43Z</time>
      </trkpt>
      <trkpt lat="42.35694" lon="2.68914">
        <ele>800.5</ele>
        <time>2018-11-26T09:07:45Z</time>
      </trkpt>
      <trkpt lat="42.35688" lon="2.68903">
        <ele>801.4</ele>
        <time>2018-11-26T09:07:49Z</time>
      </trkpt>
      <trkpt lat="42.35687" lon="2.68903">
        <ele>800.4</ele>
        <time>2018-11-26T09:07:50Z</time>
      </trkpt>
      <trkpt lat="42.35688" lon="2.68886">
        <ele>800.5</ele>
        <time>2018-11-26T09:07:55Z</time>
      </trkpt>
      <trkpt lat="42.35682" lon="2.68879">
        <ele>800.1</ele>
        <time>2018-11-26T09:07:58Z</time>
      </trkpt>
      <trkpt lat="42.35665" lon="2.68893">
        <ele>797.1</ele>
        <time>2018-11-26T09:08:05Z</time>
      </trkpt>
      <trkpt lat="42.35647" lon="2.68898">
        <ele>793.2</ele>
        <time>2018-11-26T09:08:13Z</time>
      </trkpt>
      <trkpt lat="42.35635" lon="2.68896">
        <ele>791.8</ele>
        <time>2018-11-26T09:08:18Z</time>
      </trkpt>
      <trkpt lat="42.3562" lon="2.68902">
        <ele>793.2</ele>
        <time>2018-11-26T09:08:24Z</time>
      </trkpt>
      <trkpt lat="42.35612" lon="2.68908">
        <ele>797.7</ele>
        <time>2018-11-26T09:08:28Z</time>
      </trkpt>
      <trkpt lat="42.35603" lon="2.68899">
        <ele>801</ele>
        <time>2018-11-26T09:08:32Z</time>
      </trkpt>
      <trkpt lat="42.35591" lon="2.68897">
        <ele>801.4</ele>
        <time>2018-11-26T09:08:37Z</time>
      </trkpt>
      <trkpt lat="42.35588" lon="2.68896">
        <ele>801.5</ele>
        <time>2018-11-26T09:08:38Z</time>
      </trkpt>
      <trkpt lat="42.35574" lon="2.68908">
        <ele>802.8</ele>
        <time>2018-11-26T09:08:45Z</time>
      </trkpt>
      <trkpt lat="42.35576" lon="2.68907">
        <ele>802.8</ele>
        <time>2018-11-26T09:08:46Z</time>
      </trkpt>
      <trkpt lat="42.35576" lon="2.68905">
        <ele>800.1</ele>
        <time>2018-11-26T09:08:46Z</time>
      </trkpt>
      <trkpt lat="42.35568" lon="2.68905">
        <ele>801</ele>
        <time>2018-11-26T09:08:50Z</time>
      </trkpt>
      <trkpt lat="42.35555" lon="2.689">
        <ele>802.9</ele>
        <time>2018-11-26T09:08:55Z</time>
      </trkpt>
      <trkpt lat="42.3554" lon="2.68896">
        <ele>804.9</ele>
        <time>2018-11-26T09:09:01Z</time>
      </trkpt>
      <trkpt lat="42.35527" lon="2.68894">
        <ele>799.5</ele>
        <time>2018-11-26T09:09:06Z</time>
      </trkpt>
      <trkpt lat="42.35525" lon="2.68894">
        <ele>799.6</ele>
        <time>2018-11-26T09:09:07Z</time>
      </trkpt>
      <trkpt lat="42.35516" lon="2.68893">
        <ele>795.7</ele>
        <time>2018-11-26T09:09:11Z</time>
      </trkpt>
      <trkpt lat="42.35514" lon="2.68893">
        <ele>795.6</ele>
        <time>2018-11-26T09:09:12Z</time>
      </trkpt>
      <trkpt lat="42.35503" lon="2.68896">
        <ele>792.8</ele>
        <time>2018-11-26T09:09:16Z</time>
      </trkpt>
      <trkpt lat="42.35489" lon="2.68893">
        <ele>789.4</ele>
        <time>2018-11-26T09:09:22Z</time>
      </trkpt>
      <trkpt lat="42.35479" lon="2.68894">
        <ele>784.6</ele>
        <time>2018-11-26T09:09:26Z</time>
      </trkpt>
      <trkpt lat="42.3547" lon="2.68891">
        <ele>781.2</ele>
        <time>2018-11-26T09:09:30Z</time>
      </trkpt>
      <trkpt lat="42.35464" lon="2.68889">
        <ele>779.3</ele>
        <time>2018-11-26T09:09:32Z</time>
      </trkpt>
      <trkpt lat="42.35459" lon="2.68888">
        <ele>778.4</ele>
        <time>2018-11-26T09:09:34Z</time>
      </trkpt>
      <trkpt lat="42.35439" lon="2.6888">
        <ele>775.1</ele>
        <time>2018-11-26T09:09:42Z</time>
      </trkpt>
      <trkpt lat="42.35433" lon="2.68878">
        <ele>773.5</ele>
        <time>2018-11-26T09:09:45Z</time>
      </trkpt>
      <trkpt lat="42.35422" lon="2.68873">
        <ele>772.6</ele>
        <time>2018-11-26T09:09:49Z</time>
      </trkpt>
      <trkpt lat="42.3542" lon="2.68873">
        <ele>772.6</ele>
        <time>2018-11-26T09:09:50Z</time>
      </trkpt>
      <trkpt lat="42.35413" lon="2.6887">
        <ele>771.1</ele>
        <time>2018-11-26T09:09:53Z</time>
      </trkpt>
      <trkpt lat="42.35405" lon="2.68869">
        <ele>770.7</ele>
        <time>2018-11-26T09:09:56Z</time>
      </trkpt>
      <trkpt lat="42.35396" lon="2.68858">
        <ele>772.2</ele>
        <time>2018-11-26T09:10:01Z</time>
      </trkpt>
      <trkpt lat="42.35393" lon="2.68857">
        <ele>773.1</ele>
        <time>2018-11-26T09:10:02Z</time>
      </trkpt>
      <trkpt lat="42.35377" lon="2.68848">
        <ele>772.1</ele>
        <time>2018-11-26T09:10:09Z</time>
      </trkpt>
      <trkpt lat="42.3537" lon="2.68844">
        <ele>772.1</ele>
        <time>2018-11-26T09:10:12Z</time>
      </trkpt>
      <trkpt lat="42.35356" lon="2.68833">
        <ele>770.2</ele>
        <time>2018-11-26T09:10:19Z</time>
      </trkpt>
      <trkpt lat="42.35347" lon="2.68823">
        <ele>768.8</ele>
        <time>2018-11-26T09:10:24Z</time>
      </trkpt>
      <trkpt lat="42.35337" lon="2.68811">
        <ele>765.9</ele>
        <time>2018-11-26T09:10:29Z</time>
      </trkpt>
      <trkpt lat="42.35327" lon="2.68795">
        <ele>764.4</ele>
        <time>2018-11-26T09:10:35Z</time>
      </trkpt>
      <trkpt lat="42.35323" lon="2.68787">
        <ele>763.4</ele>
        <time>2018-11-26T09:10:38Z</time>
      </trkpt>
      <trkpt lat="42.35312" lon="2.68778">
        <ele>764</ele>
        <time>2018-11-26T09:10:43Z</time>
      </trkpt>
      <trkpt lat="42.35299" lon="2.68769">
        <ele>765</ele>
        <time>2018-11-26T09:10:49Z</time>
      </trkpt>
      <trkpt lat="42.3529" lon="2.68762">
        <ele>765</ele>
        <time>2018-11-26T09:10:53Z</time>
      </trkpt>
      <trkpt lat="42.35288" lon="2.68758">
        <ele>764.5</ele>
        <time>2018-11-26T09:10:54Z</time>
      </trkpt>
      <trkpt lat="42.35279" lon="2.68751">
        <ele>765.5</ele>
        <time>2018-11-26T09:10:58Z</time>
      </trkpt>
      <trkpt lat="42.35274" lon="2.68748">
        <ele>766.3</ele>
        <time>2018-11-26T09:11:01Z</time>
      </trkpt>
      <trkpt lat="42.35272" lon="2.68746">
        <ele>766.8</ele>
        <time>2018-11-26T09:11:02Z</time>
      </trkpt>
      <trkpt lat="42.3526" lon="2.68732">
        <ele>767.9</ele>
        <time>2018-11-26T09:11:08Z</time>
      </trkpt>
      <trkpt lat="42.35252" lon="2.6872">
        <ele>767.4</ele>
        <time>2018-11-26T09:11:13Z</time>
      </trkpt>
      <trkpt lat="42.35246" lon="2.68715">
        <ele>766.4</ele>
        <time>2018-11-26T09:11:16Z</time>
      </trkpt>
      <trkpt lat="42.35239" lon="2.68704">
        <ele>766.4</ele>
        <time>2018-11-26T09:11:20Z</time>
      </trkpt>
      <trkpt lat="42.35224" lon="2.6869">
        <ele>764</ele>
        <time>2018-11-26T09:11:27Z</time>
      </trkpt>
      <trkpt lat="42.35214" lon="2.68673">
        <ele>763.4</ele>
        <time>2018-11-26T09:11:34Z</time>
      </trkpt>
      <trkpt lat="42.35205" lon="2.68662">
        <ele>764</ele>
        <time>2018-11-26T09:11:39Z</time>
      </trkpt>
      <trkpt lat="42.35194" lon="2.68652">
        <ele>764.4</ele>
        <time>2018-11-26T09:11:44Z</time>
      </trkpt>
      <trkpt lat="42.35189" lon="2.68642">
        <ele>765.5</ele>
        <time>2018-11-26T09:11:47Z</time>
      </trkpt>
      <trkpt lat="42.35183" lon="2.68636">
        <ele>765.4</ele>
        <time>2018-11-26T09:11:51Z</time>
      </trkpt>
      <trkpt lat="42.35172" lon="2.68624">
        <ele>765.4</ele>
        <time>2018-11-26T09:11:56Z</time>
      </trkpt>
      <trkpt lat="42.35159" lon="2.6861">
        <ele>765.8</ele>
        <time>2018-11-26T09:12:03Z</time>
      </trkpt>
      <trkpt lat="42.35158" lon="2.6861">
        <ele>765.8</ele>
        <time>2018-11-26T09:12:03Z</time>
      </trkpt>
      <trkpt lat="42.35161" lon="2.686">
        <ele>767.3</ele>
        <time>2018-11-26T09:12:06Z</time>
      </trkpt>
      <trkpt lat="42.35169" lon="2.68593">
        <ele>769.7</ele>
        <time>2018-11-26T09:12:10Z</time>
      </trkpt>
      <trkpt lat="42.35174" lon="2.68591">
        <ele>771.1</ele>
        <time>2018-11-26T09:12:12Z</time>
      </trkpt>
      <trkpt lat="42.35174" lon="2.6859">
        <ele>775</ele>
        <time>2018-11-26T09:12:12Z</time>
      </trkpt>
      <trkpt lat="42.35171" lon="2.68592">
        <ele>775.4</ele>
        <time>2018-11-26T09:12:14Z</time>
      </trkpt>
      <trkpt lat="42.35166" lon="2.68593">
        <ele>779.4</ele>
        <time>2018-11-26T09:12:16Z</time>
      </trkpt>
      <trkpt lat="42.35164" lon="2.68599">
        <ele>781.2</ele>
        <time>2018-11-26T09:12:18Z</time>
      </trkpt>
      <trkpt lat="42.35159" lon="2.68606">
        <ele>779.9</ele>
        <time>2018-11-26T09:12:21Z</time>
      </trkpt>
      <trkpt lat="42.35151" lon="2.68614">
        <ele>780.7</ele>
        <time>2018-11-26T09:12:25Z</time>
      </trkpt>
      <trkpt lat="42.35147" lon="2.68625">
        <ele>779.3</ele>
        <time>2018-11-26T09:12:28Z</time>
      </trkpt>
      <trkpt lat="42.35135" lon="2.68649">
        <ele>779.3</ele>
        <time>2018-11-26T09:12:37Z</time>
      </trkpt>
      <trkpt lat="42.35123" lon="2.68677">
        <ele>779.8</ele>
        <time>2018-11-26T09:12:46Z</time>
      </trkpt>
      <trkpt lat="42.3511" lon="2.68707">
        <ele>779.3</ele>
        <time>2018-11-26T09:12:57Z</time>
      </trkpt>
      <trkpt lat="42.35099" lon="2.68734">
        <ele>780.3</ele>
        <time>2018-11-26T09:13:06Z</time>
      </trkpt>
      <trkpt lat="42.3509" lon="2.68749">
        <ele>780.7</ele>
        <time>2018-11-26T09:13:11Z</time>
      </trkpt>
      <trkpt lat="42.3508" lon="2.68768">
        <ele>781.7</ele>
        <time>2018-11-26T09:13:18Z</time>
      </trkpt>
      <trkpt lat="42.35072" lon="2.68788">
        <ele>782.7</ele>
        <time>2018-11-26T09:13:25Z</time>
      </trkpt>
      <trkpt lat="42.35062" lon="2.68804">
        <ele>781.3</ele>
        <time>2018-11-26T09:13:31Z</time>
      </trkpt>
      <trkpt lat="42.35063" lon="2.68817">
        <ele>779.9</ele>
        <time>2018-11-26T09:13:35Z</time>
      </trkpt>
      <trkpt lat="42.35063" lon="2.68827">
        <ele>779.3</ele>
        <time>2018-11-26T09:13:38Z</time>
      </trkpt>
      <trkpt lat="42.35061" lon="2.68837">
        <ele>781.3</ele>
        <time>2018-11-26T09:13:41Z</time>
      </trkpt>
      <trkpt lat="42.35049" lon="2.68851">
        <ele>777.8</ele>
        <time>2018-11-26T09:13:47Z</time>
      </trkpt>
      <trkpt lat="42.35034" lon="2.68856">
        <ele>778.3</ele>
        <time>2018-11-26T09:13:53Z</time>
      </trkpt>
      <trkpt lat="42.35018" lon="2.68863">
        <ele>779.8</ele>
        <time>2018-11-26T09:14:00Z</time>
      </trkpt>
      <trkpt lat="42.34998" lon="2.68883">
        <ele>784.6</ele>
        <time>2018-11-26T09:14:10Z</time>
      </trkpt>
      <trkpt lat="42.34982" lon="2.68906">
        <ele>788.5</ele>
        <time>2018-11-26T09:14:20Z</time>
      </trkpt>
      <trkpt lat="42.34979" lon="2.68907">
        <ele>785.2</ele>
        <time>2018-11-26T09:14:21Z</time>
      </trkpt>
      <trkpt lat="42.34978" lon="2.68906">
        <ele>784.1</ele>
        <time>2018-11-26T09:14:21Z</time>
      </trkpt>
      <trkpt lat="42.3497" lon="2.68909">
        <ele>782.7</ele>
        <time>2018-11-26T09:14:25Z</time>
      </trkpt>
      <trkpt lat="42.34971" lon="2.68909">
        <ele>783.7</ele>
        <time>2018-11-26T09:14:25Z</time>
      </trkpt>
      <trkpt lat="42.3497" lon="2.6891">
        <ele>785.1</ele>
        <time>2018-11-26T09:14:26Z</time>
      </trkpt>
      <trkpt lat="42.34967" lon="2.68935">
        <ele>787.5</ele>
        <time>2018-11-26T09:14:33Z</time>
      </trkpt>
      <trkpt lat="42.34968" lon="2.68945">
        <ele>789</ele>
        <time>2018-11-26T09:14:36Z</time>
      </trkpt>
      <trkpt lat="42.34965" lon="2.68961">
        <ele>792.7</ele>
        <time>2018-11-26T09:14:41Z</time>
      </trkpt>
      <trkpt lat="42.34957" lon="2.68965">
        <ele>799</ele>
        <time>2018-11-26T09:14:45Z</time>
      </trkpt>
      <trkpt lat="42.34958" lon="2.68979">
        <ele>806.3</ele>
        <time>2018-11-26T09:14:49Z</time>
      </trkpt>
      <trkpt lat="42.34952" lon="2.68988">
        <ele>811.5</ele>
        <time>2018-11-26T09:14:52Z</time>
      </trkpt>
      <trkpt lat="42.34948" lon="2.68996">
        <ele>816.4</ele>
        <time>2018-11-26T09:14:55Z</time>
      </trkpt>
      <trkpt lat="42.34953" lon="2.68996">
        <ele>819.2</ele>
        <time>2018-11-26T09:14:57Z</time>
      </trkpt>
      <trkpt lat="42.3495" lon="2.69002">
        <ele>823.6</ele>
        <time>2018-11-26T09:15:00Z</time>
      </trkpt>
      <trkpt lat="42.3495" lon="2.69001">
        <ele>826.9</ele>
        <time>2018-11-26T09:15:00Z</time>
      </trkpt>
      <trkpt lat="42.34945" lon="2.68999">
        <ele>828.3</ele>
        <time>2018-11-26T09:15:02Z</time>
      </trkpt>
      <trkpt lat="42.34942" lon="2.68999">
        <ele>830.2</ele>
        <time>2018-11-26T09:15:03Z</time>
      </trkpt>
      <trkpt lat="42.34942" lon="2.69007">
        <ele>832.7</ele>
        <time>2018-11-26T09:15:06Z</time>
      </trkpt>
      <trkpt lat="42.34944" lon="2.6901">
        <ele>833.7</ele>
        <time>2018-11-26T09:15:07Z</time>
      </trkpt>
      <trkpt lat="42.34943" lon="2.69013">
        <ele>832.6</ele>
        <time>2018-11-26T09:15:08Z</time>
      </trkpt>
      <trkpt lat="42.34946" lon="2.69011">
        <ele>831.2</ele>
        <time>2018-11-26T09:15:09Z</time>
      </trkpt>
      <trkpt lat="42.34948" lon="2.69009">
        <ele>832.2</ele>
        <time>2018-11-26T09:15:10Z</time>
      </trkpt>
      <trkpt lat="42.34949" lon="2.69018">
        <ele>837</ele>
        <time>2018-11-26T09:15:13Z</time>
      </trkpt>
      <trkpt lat="42.34951" lon="2.69021">
        <ele>839.4</ele>
        <time>2018-11-26T09:15:14Z</time>
      </trkpt>
      <trkpt lat="42.34952" lon="2.69022">
        <ele>838.4</ele>
        <time>2018-11-26T09:15:15Z</time>
      </trkpt>
      <trkpt lat="42.34953" lon="2.69023">
        <ele>834.7</ele>
        <time>2018-11-26T09:15:15Z</time>
      </trkpt>
      <trkpt lat="42.34952" lon="2.69025">
        <ele>833.6</ele>
        <time>2018-11-26T09:15:16Z</time>
      </trkpt>
      <trkpt lat="42.34952" lon="2.69023">
        <ele>833.2</ele>
        <time>2018-11-26T09:15:16Z</time>
      </trkpt>
      <trkpt lat="42.3495" lon="2.6902">
        <ele>832.7</ele>
        <time>2018-11-26T09:15:18Z</time>
      </trkpt>
      <trkpt lat="42.34951" lon="2.69012">
        <ele>833.2</ele>
        <time>2018-11-26T09:15:20Z</time>
      </trkpt>
      <trkpt lat="42.34947" lon="2.69009">
        <ele>834.6</ele>
        <time>2018-11-26T09:15:22Z</time>
      </trkpt>
      <trkpt lat="42.34943" lon="2.69009">
        <ele>835.5</ele>
        <time>2018-11-26T09:15:24Z</time>
      </trkpt>
      <trkpt lat="42.34941" lon="2.69011">
        <ele>835.5</ele>
        <time>2018-11-26T09:15:25Z</time>
      </trkpt>
      <trkpt lat="42.3494" lon="2.69012">
        <ele>834.1</ele>
        <time>2018-11-26T09:15:25Z</time>
      </trkpt>
      <trkpt lat="42.3494" lon="2.69012">
        <ele>834.1</ele>
        <time>2018-11-26T09:15:26Z</time>
      </trkpt>
      <trkpt lat="42.34939" lon="2.69015">
        <ele>834.1</ele>
        <time>2018-11-26T09:15:27Z</time>
      </trkpt>
      <trkpt lat="42.34941" lon="2.69014">
        <ele>837.1</ele>
        <time>2018-11-26T09:15:27Z</time>
      </trkpt>
      <trkpt lat="42.34942" lon="2.69014">
        <ele>837.5</ele>
        <time>2018-11-26T09:15:28Z</time>
      </trkpt>
      <trkpt lat="42.34942" lon="2.69015">
        <ele>836</ele>
        <time>2018-11-26T09:15:28Z</time>
      </trkpt>
      <trkpt lat="42.34943" lon="2.69012">
        <ele>836.6</ele>
        <time>2018-11-26T09:15:29Z</time>
      </trkpt>
      <trkpt lat="42.34941" lon="2.69013">
        <ele>836</ele>
        <time>2018-11-26T09:15:30Z</time>
      </trkpt>
      <trkpt lat="42.34942" lon="2.69012">
        <ele>831.2</ele>
        <time>2018-11-26T09:15:30Z</time>
      </trkpt>
      <trkpt lat="42.34941" lon="2.6901">
        <ele>827</ele>
        <time>2018-11-26T09:15:31Z</time>
      </trkpt>
      <trkpt lat="42.34943" lon="2.69002">
        <ele>822.6</ele>
        <time>2018-11-26T09:15:34Z</time>
      </trkpt>
      <trkpt lat="42.34939" lon="2.69008">
        <ele>814.9</ele>
        <time>2018-11-26T09:15:36Z</time>
      </trkpt>
      <trkpt lat="42.34949" lon="2.69009">
        <ele>815.3</ele>
        <time>2018-11-26T09:15:40Z</time>
      </trkpt>
      <trkpt lat="42.34954" lon="2.68999">
        <ele>815.8</ele>
        <time>2018-11-26T09:15:43Z</time>
      </trkpt>
      <trkpt lat="42.34951" lon="2.68997">
        <ele>812</ele>
        <time>2018-11-26T09:15:45Z</time>
      </trkpt>
      <trkpt lat="42.34948" lon="2.68996">
        <ele>812</ele>
        <time>2018-11-26T09:15:46Z</time>
      </trkpt>
      <trkpt lat="42.34951" lon="2.68996">
        <ele>812.1</ele>
        <time>2018-11-26T09:15:47Z</time>
      </trkpt>
      <trkpt lat="42.34953" lon="2.68997">
        <ele>811.5</ele>
        <time>2018-11-26T09:15:48Z</time>
      </trkpt>
      <trkpt lat="42.34961" lon="2.68993">
        <ele>808.7</ele>
        <time>2018-11-26T09:15:51Z</time>
      </trkpt>
      <trkpt lat="42.34961" lon="2.68988">
        <ele>805.7</ele>
        <time>2018-11-26T09:15:53Z</time>
      </trkpt>
      <trkpt lat="42.34958" lon="2.68974">
        <ele>801.4</ele>
        <time>2018-11-26T09:15:57Z</time>
      </trkpt>
      <trkpt lat="42.34955" lon="2.68967">
        <ele>799</ele>
        <time>2018-11-26T09:16:00Z</time>
      </trkpt>
      <trkpt lat="42.34962" lon="2.68959">
        <ele>796.6</ele>
        <time>2018-11-26T09:16:03Z</time>
      </trkpt>
      <trkpt lat="42.34971" lon="2.6896">
        <ele>793.2</ele>
        <time>2018-11-26T09:16:07Z</time>
      </trkpt>
      <trkpt lat="42.34972" lon="2.6895">
        <ele>790.3</ele>
        <time>2018-11-26T09:16:10Z</time>
      </trkpt>
      <trkpt lat="42.34971" lon="2.68937">
        <ele>786.6</ele>
        <time>2018-11-26T09:16:14Z</time>
      </trkpt>
      <trkpt lat="42.3497" lon="2.68924">
        <ele>782.7</ele>
        <time>2018-11-26T09:16:18Z</time>
      </trkpt>
      <trkpt lat="42.34974" lon="2.68909">
        <ele>776.4</ele>
        <time>2018-11-26T09:16:22Z</time>
      </trkpt>
      <trkpt lat="42.34981" lon="2.68902">
        <ele>767.4</ele>
        <time>2018-11-26T09:16:26Z</time>
      </trkpt>
      <trkpt lat="42.34986" lon="2.68896">
        <ele>765.4</ele>
        <time>2018-11-26T09:16:29Z</time>
      </trkpt>
      <trkpt lat="42.35005" lon="2.68874">
        <ele>770.6</ele>
        <time>2018-11-26T09:16:39Z</time>
      </trkpt>
      <trkpt lat="42.35022" lon="2.68861">
        <ele>774.6</ele>
        <time>2018-11-26T09:16:46Z</time>
      </trkpt>
      <trkpt lat="42.35036" lon="2.68851">
        <ele>776</ele>
        <time>2018-11-26T09:16:53Z</time>
      </trkpt>
      <trkpt lat="42.35052" lon="2.68851">
        <ele>778.3</ele>
        <time>2018-11-26T09:16:59Z</time>
      </trkpt>
      <trkpt lat="42.3506" lon="2.68842">
        <ele>780.7</ele>
        <time>2018-11-26T09:17:03Z</time>
      </trkpt>
      <trkpt lat="42.35063" lon="2.68832">
        <ele>782.2</ele>
        <time>2018-11-26T09:17:06Z</time>
      </trkpt>
      <trkpt lat="42.35065" lon="2.68833">
        <ele>781.3</ele>
        <time>2018-11-26T09:17:07Z</time>
      </trkpt>
      <trkpt lat="42.35066" lon="2.68822">
        <ele>779.4</ele>
        <time>2018-11-26T09:17:11Z</time>
      </trkpt>
      <trkpt lat="42.35068" lon="2.68809">
        <ele>778.4</ele>
        <time>2018-11-26T09:17:15Z</time>
      </trkpt>
      <trkpt lat="42.3507" lon="2.68799">
        <ele>777.4</ele>
        <time>2018-11-26T09:17:18Z</time>
      </trkpt>
      <trkpt lat="42.35072" lon="2.68792">
        <ele>777.8</ele>
        <time>2018-11-26T09:17:20Z</time>
      </trkpt>
      <trkpt lat="42.35078" lon="2.68779">
        <ele>777.5</ele>
        <time>2018-11-26T09:17:24Z</time>
      </trkpt>
      <trkpt lat="42.35082" lon="2.68768">
        <ele>776.5</ele>
        <time>2018-11-26T09:17:28Z</time>
      </trkpt>
      <trkpt lat="42.35085" lon="2.68757">
        <ele>774.5</ele>
        <time>2018-11-26T09:17:32Z</time>
      </trkpt>
      <trkpt lat="42.35087" lon="2.68753">
        <ele>773.1</ele>
        <time>2018-11-26T09:17:33Z</time>
      </trkpt>
      <trkpt lat="42.35091" lon="2.68748">
        <ele>770.6</ele>
        <time>2018-11-26T09:17:35Z</time>
      </trkpt>
      <trkpt lat="42.35101" lon="2.68736">
        <ele>768.7</ele>
        <time>2018-11-26T09:17:40Z</time>
      </trkpt>
      <trkpt lat="42.35108" lon="2.68719">
        <ele>768.7</ele>
        <time>2018-11-26T09:17:46Z</time>
      </trkpt>
      <trkpt lat="42.3511" lon="2.68707">
        <ele>770.6</ele>
        <time>2018-11-26T09:17:50Z</time>
      </trkpt>
      <trkpt lat="42.35116" lon="2.68696">
        <ele>770.3</ele>
        <time>2018-11-26T09:17:54Z</time>
      </trkpt>
      <trkpt lat="42.35123" lon="2.68677">
        <ele>769.7</ele>
        <time>2018-11-26T09:18:00Z</time>
      </trkpt>
      <trkpt lat="42.35133" lon="2.68661">
        <ele>766.9</ele>
        <time>2018-11-26T09:18:06Z</time>
      </trkpt>
      <trkpt lat="42.35139" lon="2.68645">
        <ele>763.4</ele>
        <time>2018-11-26T09:18:11Z</time>
      </trkpt>
      <trkpt lat="42.35146" lon="2.68624">
        <ele>765.8</ele>
        <time>2018-11-26T09:18:18Z</time>
      </trkpt>
      <trkpt lat="42.35146" lon="2.68608">
        <ele>768.7</ele>
        <time>2018-11-26T09:18:23Z</time>
      </trkpt>
      <trkpt lat="42.3514" lon="2.68594">
        <ele>770.2</ele>
        <time>2018-11-26T09:18:28Z</time>
      </trkpt>
      <trkpt lat="42.35145" lon="2.68593">
        <ele>770.2</ele>
        <time>2018-11-26T09:18:29Z</time>
      </trkpt>
      <trkpt lat="42.35145" lon="2.68591">
        <ele>770.6</ele>
        <time>2018-11-26T09:18:30Z</time>
      </trkpt>
      <trkpt lat="42.35146" lon="2.68593">
        <ele>768.7</ele>
        <time>2018-11-26T09:18:31Z</time>
      </trkpt>
      <trkpt lat="42.35146" lon="2.68592">
        <ele>768.2</ele>
        <time>2018-11-26T09:18:31Z</time>
      </trkpt>
      <trkpt lat="42.35146" lon="2.68589">
        <ele>768.7</ele>
        <time>2018-11-26T09:18:32Z</time>
      </trkpt>
      <trkpt lat="42.3514" lon="2.68577">
        <ele>769.8</ele>
        <time>2018-11-26T09:18:37Z</time>
      </trkpt>
      <trkpt lat="42.35138" lon="2.68573">
        <ele>769.8</ele>
        <time>2018-11-26T09:18:38Z</time>
      </trkpt>
      <trkpt lat="42.35133" lon="2.68568">
        <ele>769.7</ele>
        <time>2018-11-26T09:18:40Z</time>
      </trkpt>
      <trkpt lat="42.35126" lon="2.68564">
        <ele>770.3</ele>
        <time>2018-11-26T09:18:43Z</time>
      </trkpt>
      <trkpt lat="42.35118" lon="2.68554">
        <ele>770.7</ele>
        <time>2018-11-26T09:18:48Z</time>
      </trkpt>
      <trkpt lat="42.35115" lon="2.68553">
        <ele>771.2</ele>
        <time>2018-11-26T09:18:49Z</time>
      </trkpt>
      <trkpt lat="42.35117" lon="2.68553">
        <ele>769.7</ele>
        <time>2018-11-26T09:18:50Z</time>
      </trkpt>
      <trkpt lat="42.35116" lon="2.68554">
        <ele>769.3</ele>
        <time>2018-11-26T09:18:51Z</time>
      </trkpt>
      <trkpt lat="42.35117" lon="2.68555">
        <ele>765.4</ele>
        <time>2018-11-26T09:18:51Z</time>
      </trkpt>
      <trkpt lat="42.35106" lon="2.68551">
        <ele>761</ele>
        <time>2018-11-26T09:18:56Z</time>
      </trkpt>
      <trkpt lat="42.35096" lon="2.68547">
        <ele>760.1</ele>
        <time>2018-11-26T09:19:00Z</time>
      </trkpt>
      <trkpt lat="42.35093" lon="2.68545">
        <ele>760.2</ele>
        <time>2018-11-26T09:19:01Z</time>
      </trkpt>
      <trkpt lat="42.35084" lon="2.6854">
        <ele>756.7</ele>
        <time>2018-11-26T09:19:05Z</time>
      </trkpt>
      <trkpt lat="42.35082" lon="2.68532">
        <ele>755.3</ele>
        <time>2018-11-26T09:19:07Z</time>
      </trkpt>
      <trkpt lat="42.35084" lon="2.68535">
        <ele>755.3</ele>
        <time>2018-11-26T09:19:09Z</time>
      </trkpt>
      <trkpt lat="42.35082" lon="2.68536">
        <ele>754.3</ele>
        <time>2018-11-26T09:19:09Z</time>
      </trkpt>
      <trkpt lat="42.35082" lon="2.68534">
        <ele>753.4</ele>
        <time>2018-11-26T09:19:10Z</time>
      </trkpt>
      <trkpt lat="42.35082" lon="2.68535">
        <ele>752</ele>
        <time>2018-11-26T09:19:10Z</time>
      </trkpt>
      <trkpt lat="42.35078" lon="2.68529">
        <ele>751</ele>
        <time>2018-11-26T09:19:12Z</time>
      </trkpt>
      <trkpt lat="42.35077" lon="2.68529">
        <ele>751.4</ele>
        <time>2018-11-26T09:19:13Z</time>
      </trkpt>
      <trkpt lat="42.35063" lon="2.68533">
        <ele>750.1</ele>
        <time>2018-11-26T09:19:19Z</time>
      </trkpt>
      <trkpt lat="42.35057" lon="2.68528">
        <ele>748.5</ele>
        <time>2018-11-26T09:19:22Z</time>
      </trkpt>
      <trkpt lat="42.35053" lon="2.68527">
        <ele>747.1</ele>
        <time>2018-11-26T09:19:23Z</time>
      </trkpt>
      <trkpt lat="42.35047" lon="2.68523">
        <ele>745.6</ele>
        <time>2018-11-26T09:19:26Z</time>
      </trkpt>
      <trkpt lat="42.3504" lon="2.68522">
        <ele>744.8</ele>
        <time>2018-11-26T09:19:29Z</time>
      </trkpt>
      <trkpt lat="42.35039" lon="2.68522">
        <ele>745.2</ele>
        <time>2018-11-26T09:19:29Z</time>
      </trkpt>
      <trkpt lat="42.35037" lon="2.6851">
        <ele>740.4</ele>
        <time>2018-11-26T09:19:33Z</time>
      </trkpt>
      <trkpt lat="42.3504" lon="2.68503">
        <ele>738</ele>
        <time>2018-11-26T09:19:35Z</time>
      </trkpt>
      <trkpt lat="42.35035" lon="2.68493">
        <ele>736.1</ele>
        <time>2018-11-26T09:19:39Z</time>
      </trkpt>
      <trkpt lat="42.35033" lon="2.68492">
        <ele>735.2</ele>
        <time>2018-11-26T09:19:40Z</time>
      </trkpt>
      <trkpt lat="42.35029" lon="2.68491">
        <ele>730.8</ele>
        <time>2018-11-26T09:19:41Z</time>
      </trkpt>
      <trkpt lat="42.35028" lon="2.68491">
        <ele>730.3</ele>
        <time>2018-11-26T09:19:42Z</time>
      </trkpt>
      <trkpt lat="42.35021" lon="2.68478">
        <ele>725.9</ele>
        <time>2018-11-26T09:19:47Z</time>
      </trkpt>
      <trkpt lat="42.35022" lon="2.68465">
        <ele>724.5</ele>
        <time>2018-11-26T09:19:50Z</time>
      </trkpt>
      <trkpt lat="42.35021" lon="2.68462">
        <ele>723.5</ele>
        <time>2018-11-26T09:19:51Z</time>
      </trkpt>
      <trkpt lat="42.3502" lon="2.68454">
        <ele>722.2</ele>
        <time>2018-11-26T09:19:54Z</time>
      </trkpt>
      <trkpt lat="42.3502" lon="2.68447">
        <ele>721.1</ele>
        <time>2018-11-26T09:19:56Z</time>
      </trkpt>
      <trkpt lat="42.35019" lon="2.6844">
        <ele>719.2</ele>
        <time>2018-11-26T09:19:58Z</time>
      </trkpt>
      <trkpt lat="42.35019" lon="2.68429">
        <ele>715.5</ele>
        <time>2018-11-26T09:20:01Z</time>
      </trkpt>
      <trkpt lat="42.35022" lon="2.68424">
        <ele>713.9</ele>
        <time>2018-11-26T09:20:03Z</time>
      </trkpt>
      <trkpt lat="42.35021" lon="2.68416">
        <ele>711.6</ele>
        <time>2018-11-26T09:20:05Z</time>
      </trkpt>
      <trkpt lat="42.35025" lon="2.68414">
        <ele>709.7</ele>
        <time>2018-11-26T09:20:07Z</time>
      </trkpt>
      <trkpt lat="42.35021" lon="2.68412">
        <ele>705.8</ele>
        <time>2018-11-26T09:20:09Z</time>
      </trkpt>
      <trkpt lat="42.35015" lon="2.68408">
        <ele>702.5</ele>
        <time>2018-11-26T09:20:11Z</time>
      </trkpt>
      <trkpt lat="42.35014" lon="2.68402">
        <ele>700.9</ele>
        <time>2018-11-26T09:20:14Z</time>
      </trkpt>
      <trkpt lat="42.35014" lon="2.68393">
        <ele>700.5</ele>
        <time>2018-11-26T09:20:16Z</time>
      </trkpt>
      <trkpt lat="42.35005" lon="2.68397">
        <ele>698.1</ele>
        <time>2018-11-26T09:20:20Z</time>
      </trkpt>
      <trkpt lat="42.35005" lon="2.68397">
        <ele>698.5</ele>
        <time>2018-11-26T09:20:20Z</time>
      </trkpt>
      <trkpt lat="42.35" lon="2.684">
        <ele>698.2</ele>
        <time>2018-11-26T09:20:22Z</time>
      </trkpt>
      <trkpt lat="42.35" lon="2.68401">
        <ele>698.2</ele>
        <time>2018-11-26T09:20:22Z</time>
      </trkpt>
      <trkpt lat="42.34999" lon="2.68398">
        <ele>695.8</ele>
        <time>2018-11-26T09:20:23Z</time>
      </trkpt>
      <trkpt lat="42.34998" lon="2.68392">
        <ele>693.8</ele>
        <time>2018-11-26T09:20:25Z</time>
      </trkpt>
      <trkpt lat="42.35001" lon="2.68383">
        <ele>692.9</ele>
        <time>2018-11-26T09:20:28Z</time>
      </trkpt>
      <trkpt lat="42.35002" lon="2.68374">
        <ele>691.3</ele>
        <time>2018-11-26T09:20:31Z</time>
      </trkpt>
      <trkpt lat="42.35005" lon="2.68359">
        <ele>690.5</ele>
        <time>2018-11-26T09:20:35Z</time>
      </trkpt>
      <trkpt lat="42.35006" lon="2.68347">
        <ele>687.1</ele>
        <time>2018-11-26T09:20:39Z</time>
      </trkpt>
      <trkpt lat="42.35011" lon="2.68341">
        <ele>685.2</ele>
        <time>2018-11-26T09:20:42Z</time>
      </trkpt>
      <trkpt lat="42.35015" lon="2.68334">
        <ele>680.8</ele>
        <time>2018-11-26T09:20:44Z</time>
      </trkpt>
      <trkpt lat="42.35011" lon="2.68321">
        <ele>679.8</ele>
        <time>2018-11-26T09:20:49Z</time>
      </trkpt>
      <trkpt lat="42.35008" lon="2.68315">
        <ele>680.4</ele>
        <time>2018-11-26T09:20:51Z</time>
      </trkpt>
      <trkpt lat="42.35001" lon="2.68297">
        <ele>678.9</ele>
        <time>2018-11-26T09:20:56Z</time>
      </trkpt>
      <trkpt lat="42.34998" lon="2.6829">
        <ele>678.5</ele>
        <time>2018-11-26T09:20:59Z</time>
      </trkpt>
      <trkpt lat="42.34995" lon="2.68277">
        <ele>676.4</ele>
        <time>2018-11-26T09:21:03Z</time>
      </trkpt>
      <trkpt lat="42.35" lon="2.68267">
        <ele>673.6</ele>
        <time>2018-11-26T09:21:06Z</time>
      </trkpt>
      <trkpt lat="42.34996" lon="2.68259">
        <ele>672.7</ele>
        <time>2018-11-26T09:21:09Z</time>
      </trkpt>
      <trkpt lat="42.34997" lon="2.68237">
        <ele>671.6</ele>
        <time>2018-11-26T09:21:15Z</time>
      </trkpt>
      <trkpt lat="42.34993" lon="2.68228">
        <ele>671.7</ele>
        <time>2018-11-26T09:21:19Z</time>
      </trkpt>
      <trkpt lat="42.34992" lon="2.68226">
        <ele>671.7</ele>
        <time>2018-11-26T09:21:19Z</time>
      </trkpt>
      <trkpt lat="42.34986" lon="2.68212">
        <ele>671.1</ele>
        <time>2018-11-26T09:21:24Z</time>
      </trkpt>
      <trkpt lat="42.34987" lon="2.68208">
        <ele>671.6</ele>
        <time>2018-11-26T09:21:25Z</time>
      </trkpt>
      <trkpt lat="42.34987" lon="2.68208">
        <ele>671.1</ele>
        <time>2018-11-26T09:21:25Z</time>
      </trkpt>
      <trkpt lat="42.34987" lon="2.68203">
        <ele>669.2</ele>
        <time>2018-11-26T09:21:27Z</time>
      </trkpt>
      <trkpt lat="42.34979" lon="2.682">
        <ele>667.8</ele>
        <time>2018-11-26T09:21:30Z</time>
      </trkpt>
      <trkpt lat="42.34976" lon="2.68193">
        <ele>666.3</ele>
        <time>2018-11-26T09:21:32Z</time>
      </trkpt>
      <trkpt lat="42.34972" lon="2.68187">
        <ele>663</ele>
        <time>2018-11-26T09:21:34Z</time>
      </trkpt>
      <trkpt lat="42.34974" lon="2.68178">
        <ele>659.1</ele>
        <time>2018-11-26T09:21:37Z</time>
      </trkpt>
      <trkpt lat="42.34975" lon="2.68169">
        <ele>656.8</ele>
        <time>2018-11-26T09:21:40Z</time>
      </trkpt>
      <trkpt lat="42.3497" lon="2.6816">
        <ele>653</ele>
        <time>2018-11-26T09:21:43Z</time>
      </trkpt>
      <trkpt lat="42.34968" lon="2.68152">
        <ele>650</ele>
        <time>2018-11-26T09:21:46Z</time>
      </trkpt>
      <trkpt lat="42.34965" lon="2.68142">
        <ele>650.1</ele>
        <time>2018-11-26T09:21:49Z</time>
      </trkpt>
      <trkpt lat="42.34965" lon="2.68142">
        <ele>649.6</ele>
        <time>2018-11-26T09:21:49Z</time>
      </trkpt>
      <trkpt lat="42.34961" lon="2.68132">
        <ele>647.1</ele>
        <time>2018-11-26T09:21:52Z</time>
      </trkpt>
      <trkpt lat="42.34954" lon="2.68132">
        <ele>646.1</ele>
        <time>2018-11-26T09:21:55Z</time>
      </trkpt>
      <trkpt lat="42.34949" lon="2.68125">
        <ele>645.3</ele>
        <time>2018-11-26T09:21:58Z</time>
      </trkpt>
      <trkpt lat="42.34947" lon="2.68118">
        <ele>642.8</ele>
        <time>2018-11-26T09:22:00Z</time>
      </trkpt>
      <trkpt lat="42.34941" lon="2.68109">
        <ele>640.4</ele>
        <time>2018-11-26T09:22:04Z</time>
      </trkpt>
      <trkpt lat="42.34939" lon="2.68105">
        <ele>637.6</ele>
        <time>2018-11-26T09:22:05Z</time>
      </trkpt>
      <trkpt lat="42.34938" lon="2.68108">
        <ele>636.2</ele>
        <time>2018-11-26T09:22:06Z</time>
      </trkpt>
      <trkpt lat="42.34937" lon="2.68111">
        <ele>636.1</ele>
        <time>2018-11-26T09:22:07Z</time>
      </trkpt>
      <trkpt lat="42.34937" lon="2.68105">
        <ele>637.6</ele>
        <time>2018-11-26T09:22:09Z</time>
      </trkpt>
      <trkpt lat="42.34937" lon="2.68104">
        <ele>637.6</ele>
        <time>2018-11-26T09:22:09Z</time>
      </trkpt>
      <trkpt lat="42.34927" lon="2.68094">
        <ele>635.1</ele>
        <time>2018-11-26T09:22:14Z</time>
      </trkpt>
      <trkpt lat="42.34913" lon="2.68081">
        <ele>631.8</ele>
        <time>2018-11-26T09:22:21Z</time>
      </trkpt>
      <trkpt lat="42.34905" lon="2.68074">
        <ele>627.4</ele>
        <time>2018-11-26T09:22:25Z</time>
      </trkpt>
      <trkpt lat="42.34904" lon="2.68069">
        <ele>623.1</ele>
        <time>2018-11-26T09:22:27Z</time>
      </trkpt>
      <trkpt lat="42.34895" lon="2.68063">
        <ele>619.8</ele>
        <time>2018-11-26T09:22:31Z</time>
      </trkpt>
      <trkpt lat="42.3489" lon="2.68074">
        <ele>617.3</ele>
        <time>2018-11-26T09:22:34Z</time>
      </trkpt>
      <trkpt lat="42.34884" lon="2.68087">
        <ele>616.3</ele>
        <time>2018-11-26T09:22:39Z</time>
      </trkpt>
      <trkpt lat="42.34874" lon="2.68099">
        <ele>616</ele>
        <time>2018-11-26T09:22:44Z</time>
      </trkpt>
      <trkpt lat="42.34867" lon="2.68092">
        <ele>610.6</ele>
        <time>2018-11-26T09:22:48Z</time>
      </trkpt>
      <trkpt lat="42.34867" lon="2.68092">
        <ele>610.1</ele>
        <time>2018-11-26T09:22:48Z</time>
      </trkpt>
      <trkpt lat="42.34864" lon="2.68095">
        <ele>607.3</ele>
        <time>2018-11-26T09:22:49Z</time>
      </trkpt>
      <trkpt lat="42.34857" lon="2.68093">
        <ele>608.3</ele>
        <time>2018-11-26T09:22:52Z</time>
      </trkpt>
      <trkpt lat="42.34851" lon="2.681">
        <ele>607.7</ele>
        <time>2018-11-26T09:22:55Z</time>
      </trkpt>
      <trkpt lat="42.34846" lon="2.68096">
        <ele>605.8</ele>
        <time>2018-11-26T09:22:58Z</time>
      </trkpt>
      <trkpt lat="42.3484" lon="2.68101">
        <ele>601.9</ele>
        <time>2018-11-26T09:23:01Z</time>
      </trkpt>
      <trkpt lat="42.34837" lon="2.68097">
        <ele>599.5</ele>
        <time>2018-11-26T09:23:02Z</time>
      </trkpt>
      <trkpt lat="42.34833" lon="2.68105">
        <ele>597.6</ele>
        <time>2018-11-26T09:23:05Z</time>
      </trkpt>
      <trkpt lat="42.34829" lon="2.68104">
        <ele>596.7</ele>
        <time>2018-11-26T09:23:07Z</time>
      </trkpt>
      <trkpt lat="42.34831" lon="2.681">
        <ele>591.8</ele>
        <time>2018-11-26T09:23:08Z</time>
      </trkpt>
      <trkpt lat="42.34832" lon="2.68101">
        <ele>587.6</ele>
        <time>2018-11-26T09:23:09Z</time>
      </trkpt>
      <trkpt lat="42.3483" lon="2.68098">
        <ele>583.8</ele>
        <time>2018-11-26T09:23:10Z</time>
      </trkpt>
      <trkpt lat="42.34829" lon="2.68098">
        <ele>580.8</ele>
        <time>2018-11-26T09:23:11Z</time>
      </trkpt>
      <trkpt lat="42.34827" lon="2.6809">
        <ele>576.9</ele>
        <time>2018-11-26T09:23:13Z</time>
      </trkpt>
      <trkpt lat="42.3483" lon="2.68087">
        <ele>579.3</ele>
        <time>2018-11-26T09:23:15Z</time>
      </trkpt>
      <trkpt lat="42.3483" lon="2.68077">
        <ele>584.2</ele>
        <time>2018-11-26T09:23:18Z</time>
      </trkpt>
      <trkpt lat="42.34836" lon="2.68069">
        <ele>589</ele>
        <time>2018-11-26T09:23:21Z</time>
      </trkpt>
      <trkpt lat="42.3484" lon="2.68063">
        <ele>590.4</ele>
        <time>2018-11-26T09:23:23Z</time>
      </trkpt>
      <trkpt lat="42.3484" lon="2.68065">
        <ele>588.5</ele>
        <time>2018-11-26T09:23:24Z</time>
      </trkpt>
      <trkpt lat="42.34837" lon="2.68065">
        <ele>585.2</ele>
        <time>2018-11-26T09:23:25Z</time>
      </trkpt>
      <trkpt lat="42.34829" lon="2.68073">
        <ele>584.1</ele>
        <time>2018-11-26T09:23:29Z</time>
      </trkpt>
      <trkpt lat="42.34824" lon="2.68083">
        <ele>583.2</ele>
        <time>2018-11-26T09:23:33Z</time>
      </trkpt>
      <trkpt lat="42.34823" lon="2.6809">
        <ele>583.8</ele>
        <time>2018-11-26T09:23:35Z</time>
      </trkpt>
      <trkpt lat="42.34822" lon="2.68095">
        <ele>584.1</ele>
        <time>2018-11-26T09:23:37Z</time>
      </trkpt>
      <trkpt lat="42.34822" lon="2.68095">
        <ele>583.3</ele>
        <time>2018-11-26T09:23:37Z</time>
      </trkpt>
      <trkpt lat="42.34822" lon="2.68096">
        <ele>583.2</ele>
        <time>2018-11-26T09:23:37Z</time>
      </trkpt>
      <trkpt lat="42.34816" lon="2.68102">
        <ele>582.3</ele>
        <time>2018-11-26T09:23:40Z</time>
      </trkpt>
      <trkpt lat="42.34812" lon="2.68107">
        <ele>578.5</ele>
        <time>2018-11-26T09:23:42Z</time>
      </trkpt>
      <trkpt lat="42.34811" lon="2.68108">
        <ele>578.4</ele>
        <time>2018-11-26T09:23:43Z</time>
      </trkpt>
      <trkpt lat="42.3481" lon="2.68111">
        <ele>576</ele>
        <time>2018-11-26T09:23:44Z</time>
      </trkpt>
      <trkpt lat="42.34807" lon="2.68115">
        <ele>574.5</ele>
        <time>2018-11-26T09:23:45Z</time>
      </trkpt>
      <trkpt lat="42.34807" lon="2.68116">
        <ele>573.2</ele>
        <time>2018-11-26T09:23:46Z</time>
      </trkpt>
      <trkpt lat="42.34804" lon="2.68119">
        <ele>572.1</ele>
        <time>2018-11-26T09:23:47Z</time>
      </trkpt>
      <trkpt lat="42.34802" lon="2.68129">
        <ele>572.6</ele>
        <time>2018-11-26T09:23:50Z</time>
      </trkpt>
      <trkpt lat="42.348" lon="2.68133">
        <ele>572.2</ele>
        <time>2018-11-26T09:23:52Z</time>
      </trkpt>
      <trkpt lat="42.34791" lon="2.68144">
        <ele>570.3</ele>
        <time>2018-11-26T09:23:56Z</time>
      </trkpt>
      <trkpt lat="42.34787" lon="2.68139">
        <ele>566.4</ele>
        <time>2018-11-26T09:23:59Z</time>
      </trkpt>
      <trkpt lat="42.34781" lon="2.68132">
        <ele>563.6</ele>
        <time>2018-11-26T09:24:02Z</time>
      </trkpt>
      <trkpt lat="42.34777" lon="2.68136">
        <ele>562.1</ele>
        <time>2018-11-26T09:24:04Z</time>
      </trkpt>
      <trkpt lat="42.34776" lon="2.6814">
        <ele>559.2</ele>
        <time>2018-11-26T09:24:05Z</time>
      </trkpt>
      <trkpt lat="42.34769" lon="2.68141">
        <ele>554.8</ele>
        <time>2018-11-26T09:24:08Z</time>
      </trkpt>
      <trkpt lat="42.34764" lon="2.68147">
        <ele>551</ele>
        <time>2018-11-26T09:24:10Z</time>
      </trkpt>
      <trkpt lat="42.34757" lon="2.68134">
        <ele>546.7</ele>
        <time>2018-11-26T09:24:15Z</time>
      </trkpt>
      <trkpt lat="42.34751" lon="2.68125">
        <ele>541.9</ele>
        <time>2018-11-26T09:24:18Z</time>
      </trkpt>
      <trkpt lat="42.34747" lon="2.68126">
        <ele>535.6</ele>
        <time>2018-11-26T09:24:20Z</time>
      </trkpt>
      <trkpt lat="42.34744" lon="2.68134">
        <ele>532.3</ele>
        <time>2018-11-26T09:24:23Z</time>
      </trkpt>
      <trkpt lat="42.34738" lon="2.68141">
        <ele>527.5</ele>
        <time>2018-11-26T09:24:26Z</time>
      </trkpt>
      <trkpt lat="42.34728" lon="2.68135">
        <ele>522.7</ele>
        <time>2018-11-26T09:24:30Z</time>
      </trkpt>
      <trkpt lat="42.34721" lon="2.68128">
        <ele>519.4</ele>
        <time>2018-11-26T09:24:34Z</time>
      </trkpt>
      <trkpt lat="42.34715" lon="2.68125">
        <ele>518.3</ele>
        <time>2018-11-26T09:24:37Z</time>
      </trkpt>
      <trkpt lat="42.34706" lon="2.68121">
        <ele>517.3</ele>
        <time>2018-11-26T09:24:40Z</time>
      </trkpt>
      <trkpt lat="42.34701" lon="2.68115">
        <ele>514.4</ele>
        <time>2018-11-26T09:24:43Z</time>
      </trkpt>
      <trkpt lat="42.34697" lon="2.68105">
        <ele>512.6</ele>
        <time>2018-11-26T09:24:46Z</time>
      </trkpt>
      <trkpt lat="42.34694" lon="2.68093">
        <ele>511.6</ele>
        <time>2018-11-26T09:24:50Z</time>
      </trkpt>
      <trkpt lat="42.34691" lon="2.6809">
        <ele>509.2</ele>
        <time>2018-11-26T09:24:52Z</time>
      </trkpt>
      <trkpt lat="42.3468" lon="2.68094">
        <ele>508.8</ele>
        <time>2018-11-26T09:24:56Z</time>
      </trkpt>
      <trkpt lat="42.34671" lon="2.68092">
        <ele>507.8</ele>
        <time>2018-11-26T09:25:00Z</time>
      </trkpt>
      <trkpt lat="42.3466" lon="2.68081">
        <ele>510.2</ele>
        <time>2018-11-26T09:25:05Z</time>
      </trkpt>
      <trkpt lat="42.34653" lon="2.68072">
        <ele>511.1</ele>
        <time>2018-11-26T09:25:09Z</time>
      </trkpt>
      <trkpt lat="42.34643" lon="2.68074">
        <ele>512.1</ele>
        <time>2018-11-26T09:25:13Z</time>
      </trkpt>
      <trkpt lat="42.34638" lon="2.68074">
        <ele>512.1</ele>
        <time>2018-11-26T09:25:15Z</time>
      </trkpt>
      <trkpt lat="42.34638" lon="2.68076">
        <ele>508.3</ele>
        <time>2018-11-26T09:25:16Z</time>
      </trkpt>
      <trkpt lat="42.34637" lon="2.68076">
        <ele>501</ele>
        <time>2018-11-26T09:25:16Z</time>
      </trkpt>
      <trkpt lat="42.34631" lon="2.68076">
        <ele>500.6</ele>
        <time>2018-11-26T09:25:18Z</time>
      </trkpt>
      <trkpt lat="42.34632" lon="2.68079">
        <ele>502</ele>
        <time>2018-11-26T09:25:19Z</time>
      </trkpt>
      <trkpt lat="42.3463" lon="2.68078">
        <ele>498.1</ele>
        <time>2018-11-26T09:25:20Z</time>
      </trkpt>
      <trkpt lat="42.34624" lon="2.68078">
        <ele>499.1</ele>
        <time>2018-11-26T09:25:23Z</time>
      </trkpt>
      <trkpt lat="42.34612" lon="2.68078">
        <ele>495.2</ele>
        <time>2018-11-26T09:25:28Z</time>
      </trkpt>
      <trkpt lat="42.34611" lon="2.68078">
        <ele>494.8</ele>
        <time>2018-11-26T09:25:28Z</time>
      </trkpt>
      <trkpt lat="42.34603" lon="2.68078">
        <ele>490.9</ele>
        <time>2018-11-26T09:25:31Z</time>
      </trkpt>
      <trkpt lat="42.34596" lon="2.68082">
        <ele>490</ele>
        <time>2018-11-26T09:25:34Z</time>
      </trkpt>
      <trkpt lat="42.34593" lon="2.68094">
        <ele>488.1</ele>
        <time>2018-11-26T09:25:38Z</time>
      </trkpt>
      <trkpt lat="42.3459" lon="2.6811">
        <ele>486.6</ele>
        <time>2018-11-26T09:25:43Z</time>
      </trkpt>
      <trkpt lat="42.34592" lon="2.68127">
        <ele>485.1</ele>
        <time>2018-11-26T09:25:48Z</time>
      </trkpt>
      <trkpt lat="42.34593" lon="2.68133">
        <ele>484.2</ele>
        <time>2018-11-26T09:25:50Z</time>
      </trkpt>
      <trkpt lat="42.34591" lon="2.68144">
        <ele>482.8</ele>
        <time>2018-11-26T09:25:53Z</time>
      </trkpt>
      <trkpt lat="42.34591" lon="2.68145">
        <ele>482.3</ele>
        <time>2018-11-26T09:25:54Z</time>
      </trkpt>
      <trkpt lat="42.34586" lon="2.68155">
        <ele>481.3</ele>
        <time>2018-11-26T09:25:57Z</time>
      </trkpt>
      <trkpt lat="42.34583" lon="2.68174">
        <ele>481.8</ele>
        <time>2018-11-26T09:26:03Z</time>
      </trkpt>
      <trkpt lat="42.34583" lon="2.68193">
        <ele>481.8</ele>
        <time>2018-11-26T09:26:08Z</time>
      </trkpt>
      <trkpt lat="42.34583" lon="2.68196">
        <ele>481.3</ele>
        <time>2018-11-26T09:26:09Z</time>
      </trkpt>
      <trkpt lat="42.34585" lon="2.68218">
        <ele>479.8</ele>
        <time>2018-11-26T09:26:16Z</time>
      </trkpt>
      <trkpt lat="42.34589" lon="2.68234">
        <ele>477.9</ele>
        <time>2018-11-26T09:26:21Z</time>
      </trkpt>
      <trkpt lat="42.34589" lon="2.68251">
        <ele>473.7</ele>
        <time>2018-11-26T09:26:26Z</time>
      </trkpt>
      <trkpt lat="42.34593" lon="2.68271">
        <ele>469.7</ele>
        <time>2018-11-26T09:26:32Z</time>
      </trkpt>
      <trkpt lat="42.3459" lon="2.68282">
        <ele>466.4</ele>
        <time>2018-11-26T09:26:35Z</time>
      </trkpt>
      <trkpt lat="42.34586" lon="2.68293">
        <ele>464.1</ele>
        <time>2018-11-26T09:26:39Z</time>
      </trkpt>
      <trkpt lat="42.34578" lon="2.683">
        <ele>461.6</ele>
        <time>2018-11-26T09:26:43Z</time>
      </trkpt>
      <trkpt lat="42.34577" lon="2.683">
        <ele>461.6</ele>
        <time>2018-11-26T09:26:43Z</time>
      </trkpt>
      <trkpt lat="42.34572" lon="2.68311">
        <ele>463.5</ele>
        <time>2018-11-26T09:26:47Z</time>
      </trkpt>
      <trkpt lat="42.34569" lon="2.68321">
        <ele>462.1</ele>
        <time>2018-11-26T09:26:50Z</time>
      </trkpt>
      <trkpt lat="42.34572" lon="2.68336">
        <ele>458.2</ele>
        <time>2018-11-26T09:26:55Z</time>
      </trkpt>
      <trkpt lat="42.34572" lon="2.68337">
        <ele>457.8</ele>
        <time>2018-11-26T09:26:55Z</time>
      </trkpt>
      <trkpt lat="42.34571" lon="2.68345">
        <ele>455.4</ele>
        <time>2018-11-26T09:26:58Z</time>
      </trkpt>
      <trkpt lat="42.34562" lon="2.68345">
        <ele>453</ele>
        <time>2018-11-26T09:27:01Z</time>
      </trkpt>
      <trkpt lat="42.34553" lon="2.68339">
        <ele>451</ele>
        <time>2018-11-26T09:27:05Z</time>
      </trkpt>
      <trkpt lat="42.34546" lon="2.68333">
        <ele>449.7</ele>
        <time>2018-11-26T09:27:08Z</time>
      </trkpt>
      <trkpt lat="42.3454" lon="2.68326">
        <ele>447.7</ele>
        <time>2018-11-26T09:27:12Z</time>
      </trkpt>
      <trkpt lat="42.34534" lon="2.68323">
        <ele>445.7</ele>
        <time>2018-11-26T09:27:14Z</time>
      </trkpt>
      <trkpt lat="42.34527" lon="2.68314">
        <ele>443.8</ele>
        <time>2018-11-26T09:27:18Z</time>
      </trkpt>
      <trkpt lat="42.34517" lon="2.68309">
        <ele>443.3</ele>
        <time>2018-11-26T09:27:23Z</time>
      </trkpt>
      <trkpt lat="42.34506" lon="2.68297">
        <ele>442.8</ele>
        <time>2018-11-26T09:27:28Z</time>
      </trkpt>
      <trkpt lat="42.34498" lon="2.68292">
        <ele>439.5</ele>
        <time>2018-11-26T09:27:32Z</time>
      </trkpt>
      <trkpt lat="42.34485" lon="2.68287">
        <ele>434.2</ele>
        <time>2018-11-26T09:27:37Z</time>
      </trkpt>
      <trkpt lat="42.34484" lon="2.68286">
        <ele>434.3</ele>
        <time>2018-11-26T09:27:37Z</time>
      </trkpt>
      <trkpt lat="42.34476" lon="2.68282">
        <ele>431.9</ele>
        <time>2018-11-26T09:27:41Z</time>
      </trkpt>
      <trkpt lat="42.34461" lon="2.6828">
        <ele>430</ele>
        <time>2018-11-26T09:27:47Z</time>
      </trkpt>
      <trkpt lat="42.34454" lon="2.68282">
        <ele>429.9</ele>
        <time>2018-11-26T09:27:50Z</time>
      </trkpt>
      <trkpt lat="42.34445" lon="2.68274">
        <ele>429.4</ele>
        <time>2018-11-26T09:27:54Z</time>
      </trkpt>
      <trkpt lat="42.34433" lon="2.68271">
        <ele>429.9</ele>
        <time>2018-11-26T09:27:59Z</time>
      </trkpt>
      <trkpt lat="42.34428" lon="2.68275">
        <ele>430</ele>
        <time>2018-11-26T09:28:01Z</time>
      </trkpt>
      <trkpt lat="42.34421" lon="2.68278">
        <ele>429.5</ele>
        <time>2018-11-26T09:28:04Z</time>
      </trkpt>
      <trkpt lat="42.34423" lon="2.68277">
        <ele>427.5</ele>
        <time>2018-11-26T09:28:05Z</time>
      </trkpt>
      <trkpt lat="42.34421" lon="2.68279">
        <ele>425</ele>
        <time>2018-11-26T09:28:06Z</time>
      </trkpt>
      <trkpt lat="42.34414" lon="2.68288">
        <ele>424.1</ele>
        <time>2018-11-26T09:28:10Z</time>
      </trkpt>
      <trkpt lat="42.34411" lon="2.68302">
        <ele>423.6</ele>
        <time>2018-11-26T09:28:14Z</time>
      </trkpt>
      <trkpt lat="42.3441" lon="2.68312">
        <ele>423.7</ele>
        <time>2018-11-26T09:28:17Z</time>
      </trkpt>
      <trkpt lat="42.34409" lon="2.68322">
        <ele>423.2</ele>
        <time>2018-11-26T09:28:20Z</time>
      </trkpt>
      <trkpt lat="42.34407" lon="2.68336">
        <ele>420.8</ele>
        <time>2018-11-26T09:28:24Z</time>
      </trkpt>
      <trkpt lat="42.34405" lon="2.68348">
        <ele>418.9</ele>
        <time>2018-11-26T09:28:28Z</time>
      </trkpt>
      <trkpt lat="42.34401" lon="2.68361">
        <ele>417</ele>
        <time>2018-11-26T09:28:32Z</time>
      </trkpt>
      <trkpt lat="42.34393" lon="2.6837">
        <ele>415.9</ele>
        <time>2018-11-26T09:28:36Z</time>
      </trkpt>
      <trkpt lat="42.34389" lon="2.68373">
        <ele>417.5</ele>
        <time>2018-11-26T09:28:38Z</time>
      </trkpt>
      <trkpt lat="42.3438" lon="2.6838">
        <ele>419.9</ele>
        <time>2018-11-26T09:28:42Z</time>
      </trkpt>
      <trkpt lat="42.34371" lon="2.68384">
        <ele>422.3</ele>
        <time>2018-11-26T09:28:46Z</time>
      </trkpt>
      <trkpt lat="42.34361" lon="2.6839">
        <ele>424.1</ele>
        <time>2018-11-26T09:28:51Z</time>
      </trkpt>
      <trkpt lat="42.34355" lon="2.68398">
        <ele>426</ele>
        <time>2018-11-26T09:28:54Z</time>
      </trkpt>
      <trkpt lat="42.34346" lon="2.68406">
        <ele>426</ele>
        <time>2018-11-26T09:28:58Z</time>
      </trkpt>
      <trkpt lat="42.34342" lon="2.68411">
        <ele>426.5</ele>
        <time>2018-11-26T09:29:00Z</time>
      </trkpt>
      <trkpt lat="42.34333" lon="2.6842">
        <ele>429.5</ele>
        <time>2018-11-26T09:29:05Z</time>
      </trkpt>
      <trkpt lat="42.34331" lon="2.68423">
        <ele>429.5</ele>
        <time>2018-11-26T09:29:06Z</time>
      </trkpt>
      <trkpt lat="42.34319" lon="2.68441">
        <ele>431.9</ele>
        <time>2018-11-26T09:29:13Z</time>
      </trkpt>
      <trkpt lat="42.34302" lon="2.68449">
        <ele>430.4</ele>
        <time>2018-11-26T09:29:20Z</time>
      </trkpt>
      <trkpt lat="42.343" lon="2.68448">
        <ele>430</ele>
        <time>2018-11-26T09:29:21Z</time>
      </trkpt>
      <trkpt lat="42.34289" lon="2.68447">
        <ele>427.4</ele>
        <time>2018-11-26T09:29:26Z</time>
      </trkpt>
      <trkpt lat="42.34284" lon="2.68444">
        <ele>426.5</ele>
        <time>2018-11-26T09:29:28Z</time>
      </trkpt>
      <trkpt lat="42.34285" lon="2.68443">
        <ele>424.7</ele>
        <time>2018-11-26T09:29:28Z</time>
      </trkpt>
      <trkpt lat="42.34278" lon="2.68441">
        <ele>423.6</ele>
        <time>2018-11-26T09:29:31Z</time>
      </trkpt>
      <trkpt lat="42.34276" lon="2.68441">
        <ele>422.6</ele>
        <time>2018-11-26T09:29:32Z</time>
      </trkpt>
      <trkpt lat="42.3426" lon="2.68437">
        <ele>424.7</ele>
        <time>2018-11-26T09:29:39Z</time>
      </trkpt>
      <trkpt lat="42.34256" lon="2.68437">
        <ele>425</ele>
        <time>2018-11-26T09:29:40Z</time>
      </trkpt>
      <trkpt lat="42.34252" lon="2.68438">
        <ele>425.1</ele>
        <time>2018-11-26T09:29:42Z</time>
      </trkpt>
      <trkpt lat="42.34237" lon="2.68436">
        <ele>424.6</ele>
        <time>2018-11-26T09:29:48Z</time>
      </trkpt>
      <trkpt lat="42.34233" lon="2.68435">
        <ele>424.7</ele>
        <time>2018-11-26T09:29:49Z</time>
      </trkpt>
      <trkpt lat="42.34221" lon="2.68441">
        <ele>424.7</ele>
        <time>2018-11-26T09:29:54Z</time>
      </trkpt>
      <trkpt lat="42.34213" lon="2.68437">
        <ele>424.6</ele>
        <time>2018-11-26T09:29:58Z</time>
      </trkpt>
      <trkpt lat="42.34204" lon="2.68429">
        <ele>421.8</ele>
        <time>2018-11-26T09:30:02Z</time>
      </trkpt>
      <trkpt lat="42.34196" lon="2.68417">
        <ele>418.9</ele>
        <time>2018-11-26T09:30:07Z</time>
      </trkpt>
      <trkpt lat="42.34195" lon="2.68416">
        <ele>418.8</ele>
        <time>2018-11-26T09:30:08Z</time>
      </trkpt>
      <trkpt lat="42.34183" lon="2.68416">
        <ele>415.9</ele>
        <time>2018-11-26T09:30:12Z</time>
      </trkpt>
      <trkpt lat="42.3418" lon="2.68414">
        <ele>415.4</ele>
        <time>2018-11-26T09:30:14Z</time>
      </trkpt>
      <trkpt lat="42.34163" lon="2.68424">
        <ele>414</ele>
        <time>2018-11-26T09:30:21Z</time>
      </trkpt>
      <trkpt lat="42.34149" lon="2.68432">
        <ele>413.1</ele>
        <time>2018-11-26T09:30:27Z</time>
      </trkpt>
      <trkpt lat="42.34139" lon="2.68441">
        <ele>413.1</ele>
        <time>2018-11-26T09:30:32Z</time>
      </trkpt>
      <trkpt lat="42.34131" lon="2.68455">
        <ele>412.5</ele>
        <time>2018-11-26T09:30:37Z</time>
      </trkpt>
      <trkpt lat="42.34124" lon="2.68464">
        <ele>410.6</ele>
        <time>2018-11-26T09:30:41Z</time>
      </trkpt>
      <trkpt lat="42.34115" lon="2.68474">
        <ele>409.3</ele>
        <time>2018-11-26T09:30:46Z</time>
      </trkpt>
      <trkpt lat="42.34113" lon="2.68477">
        <ele>408.2</ele>
        <time>2018-11-26T09:30:47Z</time>
      </trkpt>
      <trkpt lat="42.34102" lon="2.68484">
        <ele>406.9</ele>
        <time>2018-11-26T09:30:52Z</time>
      </trkpt>
      <trkpt lat="42.341" lon="2.68486">
        <ele>406.9</ele>
        <time>2018-11-26T09:30:53Z</time>
      </trkpt>
      <trkpt lat="42.34095" lon="2.68497">
        <ele>406.3</ele>
        <time>2018-11-26T09:30:56Z</time>
      </trkpt>
      <trkpt lat="42.34087" lon="2.68505">
        <ele>404.9</ele>
        <time>2018-11-26T09:31:00Z</time>
      </trkpt>
      <trkpt lat="42.34081" lon="2.68507">
        <ele>404.4</ele>
        <time>2018-11-26T09:31:03Z</time>
      </trkpt>
      <trkpt lat="42.34069" lon="2.68512">
        <ele>405.8</ele>
        <time>2018-11-26T09:31:08Z</time>
      </trkpt>
      <trkpt lat="42.34064" lon="2.68514">
        <ele>404.4</ele>
        <time>2018-11-26T09:31:10Z</time>
      </trkpt>
      <trkpt lat="42.34053" lon="2.68515">
        <ele>404.5</ele>
        <time>2018-11-26T09:31:15Z</time>
      </trkpt>
      <trkpt lat="42.34043" lon="2.68512">
        <ele>402.1</ele>
        <time>2018-11-26T09:31:18Z</time>
      </trkpt>
      <trkpt lat="42.34032" lon="2.68511">
        <ele>401.1</ele>
        <time>2018-11-26T09:31:23Z</time>
      </trkpt>
      <trkpt lat="42.34021" lon="2.6851">
        <ele>398.7</ele>
        <time>2018-11-26T09:31:28Z</time>
      </trkpt>
      <trkpt lat="42.34008" lon="2.68508">
        <ele>398.1</ele>
        <time>2018-11-26T09:31:33Z</time>
      </trkpt>
      <trkpt lat="42.33999" lon="2.68504">
        <ele>394.8</ele>
        <time>2018-11-26T09:31:37Z</time>
      </trkpt>
      <trkpt lat="42.33986" lon="2.685">
        <ele>393.4</ele>
        <time>2018-11-26T09:31:42Z</time>
      </trkpt>
      <trkpt lat="42.33974" lon="2.68497">
        <ele>393.8</ele>
        <time>2018-11-26T09:31:47Z</time>
      </trkpt>
      <trkpt lat="42.3396" lon="2.68485">
        <ele>395.7</ele>
        <time>2018-11-26T09:31:53Z</time>
      </trkpt>
      <trkpt lat="42.33948" lon="2.68477">
        <ele>399.6</ele>
        <time>2018-11-26T09:31:59Z</time>
      </trkpt>
      <trkpt lat="42.33938" lon="2.68473">
        <ele>404</ele>
        <time>2018-11-26T09:32:03Z</time>
      </trkpt>
      <trkpt lat="42.33936" lon="2.68474">
        <ele>405</ele>
        <time>2018-11-26T09:32:04Z</time>
      </trkpt>
      <trkpt lat="42.3392" lon="2.68472">
        <ele>408.8</ele>
        <time>2018-11-26T09:32:10Z</time>
      </trkpt>
      <trkpt lat="42.33915" lon="2.68475">
        <ele>408.7</ele>
        <time>2018-11-26T09:32:12Z</time>
      </trkpt>
      <trkpt lat="42.33908" lon="2.6848">
        <ele>408.3</ele>
        <time>2018-11-26T09:32:15Z</time>
      </trkpt>
      <trkpt lat="42.33901" lon="2.68487">
        <ele>405</ele>
        <time>2018-11-26T09:32:19Z</time>
      </trkpt>
      <trkpt lat="42.33898" lon="2.68489">
        <ele>402.6</ele>
        <time>2018-11-26T09:32:20Z</time>
      </trkpt>
      <trkpt lat="42.33896" lon="2.68488">
        <ele>401.1</ele>
        <time>2018-11-26T09:32:21Z</time>
      </trkpt>
      <trkpt lat="42.33891" lon="2.68487">
        <ele>398.7</ele>
        <time>2018-11-26T09:32:23Z</time>
      </trkpt>
      <trkpt lat="42.33885" lon="2.68488">
        <ele>397.7</ele>
        <time>2018-11-26T09:32:26Z</time>
      </trkpt>
      <trkpt lat="42.33882" lon="2.68496">
        <ele>397.2</ele>
        <time>2018-11-26T09:32:28Z</time>
      </trkpt>
      <trkpt lat="42.3388" lon="2.68499">
        <ele>395.7</ele>
        <time>2018-11-26T09:32:29Z</time>
      </trkpt>
      <trkpt lat="42.33883" lon="2.6849">
        <ele>394.8</ele>
        <time>2018-11-26T09:32:32Z</time>
      </trkpt>
      <trkpt lat="42.33882" lon="2.68485">
        <ele>393.9</ele>
        <time>2018-11-26T09:32:34Z</time>
      </trkpt>
      <trkpt lat="42.3388" lon="2.68478">
        <ele>389.6</ele>
        <time>2018-11-26T09:32:36Z</time>
      </trkpt>
      <trkpt lat="42.3388" lon="2.68478">
        <ele>388.1</ele>
        <time>2018-11-26T09:32:36Z</time>
      </trkpt>
      <trkpt lat="42.33874" lon="2.68482">
        <ele>386.1</ele>
        <time>2018-11-26T09:32:39Z</time>
      </trkpt>
      <trkpt lat="42.33869" lon="2.68491">
        <ele>386.6</ele>
        <time>2018-11-26T09:32:42Z</time>
      </trkpt>
      <trkpt lat="42.33867" lon="2.68492">
        <ele>388.6</ele>
        <time>2018-11-26T09:32:43Z</time>
      </trkpt>
      <trkpt lat="42.3386" lon="2.68494">
        <ele>390.5</ele>
        <time>2018-11-26T09:32:46Z</time>
      </trkpt>
      <trkpt lat="42.33855" lon="2.68503">
        <ele>392.5</ele>
        <time>2018-11-26T09:32:49Z</time>
      </trkpt>
      <trkpt lat="42.33851" lon="2.68507">
        <ele>392.5</ele>
        <time>2018-11-26T09:32:51Z</time>
      </trkpt>
      <trkpt lat="42.33844" lon="2.68505">
        <ele>390.9</ele>
        <time>2018-11-26T09:32:54Z</time>
      </trkpt>
      <trkpt lat="42.3384" lon="2.68506">
        <ele>389.5</ele>
        <time>2018-11-26T09:32:56Z</time>
      </trkpt>
      <trkpt lat="42.33835" lon="2.68506">
        <ele>389</ele>
        <time>2018-11-26T09:32:58Z</time>
      </trkpt>
      <trkpt lat="42.33837" lon="2.68505">
        <ele>386.7</ele>
        <time>2018-11-26T09:32:59Z</time>
      </trkpt>
      <trkpt lat="42.33838" lon="2.68512">
        <ele>382.8</ele>
        <time>2018-11-26T09:33:01Z</time>
      </trkpt>
      <trkpt lat="42.33837" lon="2.68514">
        <ele>381.8</ele>
        <time>2018-11-26T09:33:02Z</time>
      </trkpt>
      <trkpt lat="42.33837" lon="2.68513">
        <ele>381.4</ele>
        <time>2018-11-26T09:33:02Z</time>
      </trkpt>
      <trkpt lat="42.33833" lon="2.68514">
        <ele>380.9</ele>
        <time>2018-11-26T09:33:04Z</time>
      </trkpt>
      <trkpt lat="42.33824" lon="2.68525">
        <ele>384.3</ele>
        <time>2018-11-26T09:33:08Z</time>
      </trkpt>
      <trkpt lat="42.33819" lon="2.68533">
        <ele>386.6</ele>
        <time>2018-11-26T09:33:11Z</time>
      </trkpt>
      <trkpt lat="42.33818" lon="2.68541">
        <ele>387.2</ele>
        <time>2018-11-26T09:33:14Z</time>
      </trkpt>
      <trkpt lat="42.33809" lon="2.68557">
        <ele>385.7</ele>
        <time>2018-11-26T09:33:20Z</time>
      </trkpt>
      <trkpt lat="42.33802" lon="2.6857">
        <ele>385.2</ele>
        <time>2018-11-26T09:33:24Z</time>
      </trkpt>
      <trkpt lat="42.33796" lon="2.68581">
        <ele>384.7</ele>
        <time>2018-11-26T09:33:29Z</time>
      </trkpt>
      <trkpt lat="42.33785" lon="2.68595">
        <ele>386.1</ele>
        <time>2018-11-26T09:33:35Z</time>
      </trkpt>
      <trkpt lat="42.33784" lon="2.68599">
        <ele>386.7</ele>
        <time>2018-11-26T09:33:36Z</time>
      </trkpt>
      <trkpt lat="42.33779" lon="2.68611">
        <ele>386.2</ele>
        <time>2018-11-26T09:33:40Z</time>
      </trkpt>
      <trkpt lat="42.33778" lon="2.68613">
        <ele>385.7</ele>
        <time>2018-11-26T09:33:40Z</time>
      </trkpt>
      <trkpt lat="42.33776" lon="2.6862">
        <ele>385.2</ele>
        <time>2018-11-26T09:33:43Z</time>
      </trkpt>
      <trkpt lat="42.33774" lon="2.68632">
        <ele>383.3</ele>
        <time>2018-11-26T09:33:46Z</time>
      </trkpt>
      <trkpt lat="42.3377" lon="2.68643">
        <ele>381.4</ele>
        <time>2018-11-26T09:33:50Z</time>
      </trkpt>
      <trkpt lat="42.33769" lon="2.68667">
        <ele>377.9</ele>
        <time>2018-11-26T09:33:57Z</time>
      </trkpt>
      <trkpt lat="42.33769" lon="2.6867">
        <ele>378</ele>
        <time>2018-11-26T09:33:58Z</time>
      </trkpt>
      <trkpt lat="42.33759" lon="2.68686">
        <ele>377.9</ele>
        <time>2018-11-26T09:34:04Z</time>
      </trkpt>
      <trkpt lat="42.33755" lon="2.68693">
        <ele>377.9</ele>
        <time>2018-11-26T09:34:07Z</time>
      </trkpt>
      <trkpt lat="42.33754" lon="2.68694">
        <ele>377.9</ele>
        <time>2018-11-26T09:34:07Z</time>
      </trkpt>
      <trkpt lat="42.33749" lon="2.68702">
        <ele>379</ele>
        <time>2018-11-26T09:34:10Z</time>
      </trkpt>
      <trkpt lat="42.33745" lon="2.68726">
        <ele>378.4</ele>
        <time>2018-11-26T09:34:18Z</time>
      </trkpt>
      <trkpt lat="42.33733" lon="2.68746">
        <ele>373.7</ele>
        <time>2018-11-26T09:34:25Z</time>
      </trkpt>
      <trkpt lat="42.33728" lon="2.68745">
        <ele>371.8</ele>
        <time>2018-11-26T09:34:28Z</time>
      </trkpt>
      <trkpt lat="42.33724" lon="2.68743">
        <ele>371.7</ele>
        <time>2018-11-26T09:34:29Z</time>
      </trkpt>
      <trkpt lat="42.33721" lon="2.68742">
        <ele>372.8</ele>
        <time>2018-11-26T09:34:30Z</time>
      </trkpt>
      <trkpt lat="42.33719" lon="2.6874">
        <ele>375.2</ele>
        <time>2018-11-26T09:34:32Z</time>
      </trkpt>
      <trkpt lat="42.33716" lon="2.68731">
        <ele>372.7</ele>
        <time>2018-11-26T09:34:34Z</time>
      </trkpt>
      <trkpt lat="42.33712" lon="2.68713">
        <ele>371.2</ele>
        <time>2018-11-26T09:34:40Z</time>
      </trkpt>
      <trkpt lat="42.33713" lon="2.68707">
        <ele>370.7</ele>
        <time>2018-11-26T09:34:42Z</time>
      </trkpt>
      <trkpt lat="42.3373" lon="2.68681">
        <ele>368.8</ele>
        <time>2018-11-26T09:34:52Z</time>
      </trkpt>
      <trkpt lat="42.3373" lon="2.6868">
        <ele>368.8</ele>
        <time>2018-11-26T09:34:52Z</time>
      </trkpt>
      <trkpt lat="42.33735" lon="2.68663">
        <ele>369.3</ele>
        <time>2018-11-26T09:34:58Z</time>
      </trkpt>
      <trkpt lat="42.33734" lon="2.6866">
        <ele>369.3</ele>
        <time>2018-11-26T09:34:59Z</time>
      </trkpt>
      <trkpt lat="42.33733" lon="2.68636">
        <ele>365.5</ele>
        <time>2018-11-26T09:35:06Z</time>
      </trkpt>
      <trkpt lat="42.33741" lon="2.68615">
        <ele>365.5</ele>
        <time>2018-11-26T09:35:13Z</time>
      </trkpt>
      <trkpt lat="42.33747" lon="2.68571">
        <ele>364.6</ele>
        <time>2018-11-26T09:35:26Z</time>
      </trkpt>
      <trkpt lat="42.33753" lon="2.68543">
        <ele>364.6</ele>
        <time>2018-11-26T09:35:35Z</time>
      </trkpt>
      <trkpt lat="42.33757" lon="2.68528">
        <ele>364.1</ele>
        <time>2018-11-26T09:35:39Z</time>
      </trkpt>
      <trkpt lat="42.33758" lon="2.68516">
        <ele>359.8</ele>
        <time>2018-11-26T09:35:43Z</time>
      </trkpt>
      <trkpt lat="42.33751" lon="2.68512">
        <ele>357.9</ele>
        <time>2018-11-26T09:35:46Z</time>
      </trkpt>
      <trkpt lat="42.33747" lon="2.68513">
        <ele>357.4</ele>
        <time>2018-11-26T09:35:48Z</time>
      </trkpt>
      <trkpt lat="42.33746" lon="2.68513">
        <ele>356.8</ele>
        <time>2018-11-26T09:35:48Z</time>
      </trkpt>
      <trkpt lat="42.33731" lon="2.68529">
        <ele>355.3</ele>
        <time>2018-11-26T09:35:56Z</time>
      </trkpt>
      <trkpt lat="42.33717" lon="2.68546">
        <ele>356.9</ele>
        <time>2018-11-26T09:36:03Z</time>
      </trkpt>
      <trkpt lat="42.33714" lon="2.68547">
        <ele>356.9</ele>
        <time>2018-11-26T09:36:04Z</time>
      </trkpt>
      <trkpt lat="42.3371" lon="2.68531">
        <ele>360.7</ele>
        <time>2018-11-26T09:36:09Z</time>
      </trkpt>
      <trkpt lat="42.33713" lon="2.68524">
        <ele>361.2</ele>
        <time>2018-11-26T09:36:12Z</time>
      </trkpt>
      <trkpt lat="42.33733" lon="2.68504">
        <ele>359.3</ele>
        <time>2018-11-26T09:36:22Z</time>
      </trkpt>
      <trkpt lat="42.33741" lon="2.68495">
        <ele>358.7</ele>
        <time>2018-11-26T09:36:26Z</time>
      </trkpt>
      <trkpt lat="42.33741" lon="2.68494">
        <ele>359.2</ele>
        <time>2018-11-26T09:36:26Z</time>
      </trkpt>
      <trkpt lat="42.3374" lon="2.68493">
        <ele>360.2</ele>
        <time>2018-11-26T09:36:27Z</time>
      </trkpt>
      <trkpt lat="42.33738" lon="2.68493">
        <ele>360.7</ele>
        <time>2018-11-26T09:36:28Z</time>
      </trkpt>
      <trkpt lat="42.33731" lon="2.68491">
        <ele>361.7</ele>
        <time>2018-11-26T09:36:31Z</time>
      </trkpt>
      <trkpt lat="42.3371" lon="2.68513">
        <ele>361.6</ele>
        <time>2018-11-26T09:36:41Z</time>
      </trkpt>
      <trkpt lat="42.33699" lon="2.68515">
        <ele>361.6</ele>
        <time>2018-11-26T09:36:45Z</time>
      </trkpt>
      <trkpt lat="42.33685" lon="2.68526">
        <ele>362.2</ele>
        <time>2018-11-26T09:36:52Z</time>
      </trkpt>
      <trkpt lat="42.33664" lon="2.68538">
        <ele>364</ele>
        <time>2018-11-26T09:37:01Z</time>
      </trkpt>
      <trkpt lat="42.33662" lon="2.6854">
        <ele>364.6</ele>
        <time>2018-11-26T09:37:02Z</time>
      </trkpt>
      <trkpt lat="42.3365" lon="2.68553">
        <ele>364.1</ele>
        <time>2018-11-26T09:37:08Z</time>
      </trkpt>
      <trkpt lat="42.33635" lon="2.68564">
        <ele>364</ele>
        <time>2018-11-26T09:37:15Z</time>
      </trkpt>
      <trkpt lat="42.33617" lon="2.68573">
        <ele>360.2</ele>
        <time>2018-11-26T09:37:23Z</time>
      </trkpt>
      <trkpt lat="42.33595" lon="2.68575">
        <ele>356.8</ele>
        <time>2018-11-26T09:37:32Z</time>
      </trkpt>
      <trkpt lat="42.33581" lon="2.68566">
        <ele>356.8</ele>
        <time>2018-11-26T09:37:38Z</time>
      </trkpt>
      <trkpt lat="42.33565" lon="2.68549">
        <ele>355</ele>
        <time>2018-11-26T09:37:46Z</time>
      </trkpt>
      <trkpt lat="42.33544" lon="2.68529">
        <ele>354.9</ele>
        <time>2018-11-26T09:37:56Z</time>
      </trkpt>
      <trkpt lat="42.33542" lon="2.68512">
        <ele>356.3</ele>
        <time>2018-11-26T09:38:01Z</time>
      </trkpt>
      <trkpt lat="42.33534" lon="2.68481">
        <ele>355.8</ele>
        <time>2018-11-26T09:38:11Z</time>
      </trkpt>
      <trkpt lat="42.3353" lon="2.68464">
        <ele>355.8</ele>
        <time>2018-11-26T09:38:16Z</time>
      </trkpt>
      <trkpt lat="42.33526" lon="2.68448">
        <ele>356.4</ele>
        <time>2018-11-26T09:38:21Z</time>
      </trkpt>
      <trkpt lat="42.33521" lon="2.68431">
        <ele>355.3</ele>
        <time>2018-11-26T09:38:27Z</time>
      </trkpt>
      <trkpt lat="42.33519" lon="2.68418">
        <ele>354.4</ele>
        <time>2018-11-26T09:38:31Z</time>
      </trkpt>
      <trkpt lat="42.33512" lon="2.68389">
        <ele>353.4</ele>
        <time>2018-11-26T09:38:40Z</time>
      </trkpt>
      <trkpt lat="42.33512" lon="2.68376">
        <ele>352.1</ele>
        <time>2018-11-26T09:38:44Z</time>
      </trkpt>
      <trkpt lat="42.33508" lon="2.68344">
        <ele>348.2</ele>
        <time>2018-11-26T09:38:53Z</time>
      </trkpt>
      <trkpt lat="42.33505" lon="2.68337">
        <ele>347.3</ele>
        <time>2018-11-26T09:38:56Z</time>
      </trkpt>
      <trkpt lat="42.33503" lon="2.68325">
        <ele>346.3</ele>
        <time>2018-11-26T09:38:59Z</time>
      </trkpt>
      <trkpt lat="42.33501" lon="2.68316">
        <ele>347.2</ele>
        <time>2018-11-26T09:39:02Z</time>
      </trkpt>
      <trkpt lat="42.33498" lon="2.68293">
        <ele>349.6</ele>
        <time>2018-11-26T09:39:09Z</time>
      </trkpt>
      <trkpt lat="42.335" lon="2.68277">
        <ele>346.2</ele>
        <time>2018-11-26T09:39:14Z</time>
      </trkpt>
      <trkpt lat="42.33501" lon="2.68273">
        <ele>344.8</ele>
        <time>2018-11-26T09:39:15Z</time>
      </trkpt>
      <trkpt lat="42.33503" lon="2.68271">
        <ele>344.9</ele>
        <time>2018-11-26T09:39:16Z</time>
      </trkpt>
      <trkpt lat="42.33504" lon="2.68269">
        <ele>344.9</ele>
        <time>2018-11-26T09:39:17Z</time>
      </trkpt>
      <trkpt lat="42.33504" lon="2.68266">
        <ele>344.8</ele>
        <time>2018-11-26T09:39:17Z</time>
      </trkpt>
      <trkpt lat="42.33504" lon="2.68261">
        <ele>345.8</ele>
        <time>2018-11-26T09:39:19Z</time>
      </trkpt>
      <trkpt lat="42.33505" lon="2.68259">
        <ele>347.3</ele>
        <time>2018-11-26T09:39:20Z</time>
      </trkpt>
      <trkpt lat="42.33505" lon="2.68256">
        <ele>348.1</ele>
        <time>2018-11-26T09:39:21Z</time>
      </trkpt>
      <trkpt lat="42.33505" lon="2.68249">
        <ele>352</ele>
        <time>2018-11-26T09:39:23Z</time>
      </trkpt>
      <trkpt lat="42.335" lon="2.68221">
        <ele>355.3</ele>
        <time>2018-11-26T09:39:31Z</time>
      </trkpt>
      <trkpt lat="42.33491" lon="2.6819">
        <ele>355.8</ele>
        <time>2018-11-26T09:39:41Z</time>
      </trkpt>
      <trkpt lat="42.33468" lon="2.68164">
        <ele>355.8</ele>
        <time>2018-11-26T09:39:53Z</time>
      </trkpt>
      <trkpt lat="42.33434" lon="2.68158">
        <ele>355.8</ele>
        <time>2018-11-26T09:40:07Z</time>
      </trkpt>
      <trkpt lat="42.3342" lon="2.68156">
        <ele>355.3</ele>
        <time>2018-11-26T09:40:12Z</time>
      </trkpt>
      <trkpt lat="42.33416" lon="2.68153">
        <ele>355.3</ele>
        <time>2018-11-26T09:40:15Z</time>
      </trkpt>
      <trkpt lat="42.33408" lon="2.68137">
        <ele>354.4</ele>
        <time>2018-11-26T09:40:20Z</time>
      </trkpt>
      <trkpt lat="42.33405" lon="2.68129">
        <ele>354</ele>
        <time>2018-11-26T09:40:23Z</time>
      </trkpt>
      <trkpt lat="42.33401" lon="2.68116">
        <ele>353.4</ele>
        <time>2018-11-26T09:40:27Z</time>
      </trkpt>
      <trkpt lat="42.334" lon="2.68103">
        <ele>354</ele>
        <time>2018-11-26T09:40:31Z</time>
      </trkpt>
      <trkpt lat="42.33398" lon="2.68084">
        <ele>353.4</ele>
        <time>2018-11-26T09:40:37Z</time>
      </trkpt>
      <trkpt lat="42.33394" lon="2.68044">
        <ele>355</ele>
        <time>2018-11-26T09:40:49Z</time>
      </trkpt>
      <trkpt lat="42.33392" lon="2.68034">
        <ele>356.9</ele>
        <time>2018-11-26T09:40:52Z</time>
      </trkpt>
      <trkpt lat="42.3339" lon="2.68028">
        <ele>357.9</ele>
        <time>2018-11-26T09:40:53Z</time>
      </trkpt>
      <trkpt lat="42.33395" lon="2.67997">
        <ele>361.6</ele>
        <time>2018-11-26T09:41:03Z</time>
      </trkpt>
      <trkpt lat="42.33412" lon="2.67965">
        <ele>365.9</ele>
        <time>2018-11-26T09:41:15Z</time>
      </trkpt>
      <trkpt lat="42.33413" lon="2.67962">
        <ele>365.9</ele>
        <time>2018-11-26T09:41:16Z</time>
      </trkpt>
      <trkpt lat="42.33432" lon="2.67928">
        <ele>373.2</ele>
        <time>2018-11-26T09:41:28Z</time>
      </trkpt>
      <trkpt lat="42.33424" lon="2.67913">
        <ele>377.6</ele>
        <time>2018-11-26T09:41:34Z</time>
      </trkpt>
      <trkpt lat="42.33412" lon="2.67914">
        <ele>378.5</ele>
        <time>2018-11-26T09:41:38Z</time>
      </trkpt>
      <trkpt lat="42.33367" lon="2.67945">
        <ele>380</ele>
        <time>2018-11-26T09:41:59Z</time>
      </trkpt>
      <trkpt lat="42.33362" lon="2.67915">
        <ele>382.3</ele>
        <time>2018-11-26T09:42:08Z</time>
      </trkpt>
      <trkpt lat="42.33366" lon="2.67896">
        <ele>383.7</ele>
        <time>2018-11-26T09:42:14Z</time>
      </trkpt>
      <trkpt lat="42.33361" lon="2.67882">
        <ele>386.1</ele>
        <time>2018-11-26T09:42:18Z</time>
      </trkpt>
      <trkpt lat="42.33355" lon="2.67873">
        <ele>389</ele>
        <time>2018-11-26T09:42:22Z</time>
      </trkpt>
      <trkpt lat="42.3333" lon="2.67858">
        <ele>394.3</ele>
        <time>2018-11-26T09:42:33Z</time>
      </trkpt>
      <trkpt lat="42.33329" lon="2.67857">
        <ele>394.8</ele>
        <time>2018-11-26T09:42:34Z</time>
      </trkpt>
      <trkpt lat="42.33324" lon="2.67854">
        <ele>394.8</ele>
        <time>2018-11-26T09:42:36Z</time>
      </trkpt>
      <trkpt lat="42.33322" lon="2.67844">
        <ele>394.3</ele>
        <time>2018-11-26T09:42:39Z</time>
      </trkpt>
      <trkpt lat="42.33324" lon="2.67842">
        <ele>393.9</ele>
        <time>2018-11-26T09:42:40Z</time>
      </trkpt>
      <trkpt lat="42.33357" lon="2.67827">
        <ele>395.8</ele>
        <time>2018-11-26T09:42:54Z</time>
      </trkpt>
      <trkpt lat="42.3337" lon="2.67813">
        <ele>397.3</ele>
        <time>2018-11-26T09:43:00Z</time>
      </trkpt>
      <trkpt lat="42.33393" lon="2.67794">
        <ele>398.1</ele>
        <time>2018-11-26T09:43:11Z</time>
      </trkpt>
      <trkpt lat="42.33405" lon="2.67764">
        <ele>397.2</ele>
        <time>2018-11-26T09:43:21Z</time>
      </trkpt>
      <trkpt lat="42.33398" lon="2.67726">
        <ele>397.2</ele>
        <time>2018-11-26T09:43:33Z</time>
      </trkpt>
      <trkpt lat="42.33409" lon="2.67697">
        <ele>399.7</ele>
        <time>2018-11-26T09:43:43Z</time>
      </trkpt>
      <trkpt lat="42.33414" lon="2.67693">
        <ele>400.5</ele>
        <time>2018-11-26T09:43:45Z</time>
      </trkpt>
      <trkpt lat="42.3344" lon="2.67691">
        <ele>402.9</ele>
        <time>2018-11-26T09:43:55Z</time>
      </trkpt>
      <trkpt lat="42.33458" lon="2.67706">
        <ele>406.3</ele>
        <time>2018-11-26T09:44:04Z</time>
      </trkpt>
      <trkpt lat="42.33469" lon="2.67708">
        <ele>408.7</ele>
        <time>2018-11-26T09:44:08Z</time>
      </trkpt>
      <trkpt lat="42.33486" lon="2.67694">
        <ele>411.1</ele>
        <time>2018-11-26T09:44:17Z</time>
      </trkpt>
      <trkpt lat="42.33503" lon="2.67669">
        <ele>411.6</ele>
        <time>2018-11-26T09:44:27Z</time>
      </trkpt>
      <trkpt lat="42.33513" lon="2.6766">
        <ele>412.1</ele>
        <time>2018-11-26T09:44:31Z</time>
      </trkpt>
      <trkpt lat="42.33532" lon="2.67641">
        <ele>413.1</ele>
        <time>2018-11-26T09:44:41Z</time>
      </trkpt>
      <trkpt lat="42.33546" lon="2.67626">
        <ele>414.6</ele>
        <time>2018-11-26T09:44:48Z</time>
      </trkpt>
      <trkpt lat="42.33547" lon="2.67623">
        <ele>415.1</ele>
        <time>2018-11-26T09:44:49Z</time>
      </trkpt>
      <trkpt lat="42.33539" lon="2.67606">
        <ele>419.3</ele>
        <time>2018-11-26T09:44:55Z</time>
      </trkpt>
      <trkpt lat="42.33532" lon="2.67603">
        <ele>420.2</ele>
        <time>2018-11-26T09:44:58Z</time>
      </trkpt>
      <trkpt lat="42.33525" lon="2.67606">
        <ele>421.2</ele>
        <time>2018-11-26T09:45:01Z</time>
      </trkpt>
      <trkpt lat="42.33505" lon="2.67611">
        <ele>422.6</ele>
        <time>2018-11-26T09:45:09Z</time>
      </trkpt>
      <trkpt lat="42.33483" lon="2.67622">
        <ele>422.6</ele>
        <time>2018-11-26T09:45:18Z</time>
      </trkpt>
      <trkpt lat="42.33465" lon="2.67634">
        <ele>422.6</ele>
        <time>2018-11-26T09:45:26Z</time>
      </trkpt>
      <trkpt lat="42.33461" lon="2.67631">
        <ele>422.7</ele>
        <time>2018-11-26T09:45:28Z</time>
      </trkpt>
      <trkpt lat="42.33461" lon="2.67628">
        <ele>423.2</ele>
        <time>2018-11-26T09:45:29Z</time>
      </trkpt>
      <trkpt lat="42.33462" lon="2.6763">
        <ele>422.3</ele>
        <time>2018-11-26T09:45:29Z</time>
      </trkpt>
      <trkpt lat="42.33453" lon="2.67632">
        <ele>426.1</ele>
        <time>2018-11-26T09:45:33Z</time>
      </trkpt>
      <trkpt lat="42.33446" lon="2.67625">
        <ele>429.4</ele>
        <time>2018-11-26T09:45:37Z</time>
      </trkpt>
      <trkpt lat="42.33441" lon="2.67618">
        <ele>430.9</ele>
        <time>2018-11-26T09:45:40Z</time>
      </trkpt>
      <trkpt lat="42.33426" lon="2.6761">
        <ele>432.3</ele>
        <time>2018-11-26T09:45:46Z</time>
      </trkpt>
      <trkpt lat="42.33418" lon="2.67598">
        <ele>437.1</ele>
        <time>2018-11-26T09:45:51Z</time>
      </trkpt>
      <trkpt lat="42.33416" lon="2.67593">
        <ele>438.5</ele>
        <time>2018-11-26T09:45:53Z</time>
      </trkpt>
      <trkpt lat="42.33404" lon="2.67579">
        <ele>444.8</ele>
        <time>2018-11-26T09:45:59Z</time>
      </trkpt>
      <trkpt lat="42.33393" lon="2.6757">
        <ele>450.5</ele>
        <time>2018-11-26T09:46:04Z</time>
      </trkpt>
      <trkpt lat="42.33387" lon="2.67562">
        <ele>455.3</ele>
        <time>2018-11-26T09:46:07Z</time>
      </trkpt>
      <trkpt lat="42.33385" lon="2.6756">
        <ele>456.3</ele>
        <time>2018-11-26T09:46:08Z</time>
      </trkpt>
      <trkpt lat="42.33376" lon="2.67561">
        <ele>458.3</ele>
        <time>2018-11-26T09:46:12Z</time>
      </trkpt>
      <trkpt lat="42.33376" lon="2.67558">
        <ele>457.3</ele>
        <time>2018-11-26T09:46:13Z</time>
      </trkpt>
      <trkpt lat="42.33373" lon="2.67561">
        <ele>458.2</ele>
        <time>2018-11-26T09:46:14Z</time>
      </trkpt>
      <trkpt lat="42.33364" lon="2.6757">
        <ele>462.2</ele>
        <time>2018-11-26T09:46:19Z</time>
      </trkpt>
      <trkpt lat="42.33355" lon="2.67577">
        <ele>465.5</ele>
        <time>2018-11-26T09:46:23Z</time>
      </trkpt>
      <trkpt lat="42.33347" lon="2.6758">
        <ele>469.7</ele>
        <time>2018-11-26T09:46:26Z</time>
      </trkpt>
      <trkpt lat="42.33337" lon="2.67578">
        <ele>471.2</ele>
        <time>2018-11-26T09:46:30Z</time>
      </trkpt>
      <trkpt lat="42.33326" lon="2.67581">
        <ele>472.7</ele>
        <time>2018-11-26T09:46:35Z</time>
      </trkpt>
      <trkpt lat="42.33316" lon="2.67582">
        <ele>477</ele>
        <time>2018-11-26T09:46:39Z</time>
      </trkpt>
      <trkpt lat="42.33309" lon="2.67579">
        <ele>481.3</ele>
        <time>2018-11-26T09:46:42Z</time>
      </trkpt>
      <trkpt lat="42.33302" lon="2.67587">
        <ele>485.1</ele>
        <time>2018-11-26T09:46:45Z</time>
      </trkpt>
      <trkpt lat="42.33293" lon="2.67595">
        <ele>488.1</ele>
        <time>2018-11-26T09:46:50Z</time>
      </trkpt>
      <trkpt lat="42.33289" lon="2.67599">
        <ele>490.5</ele>
        <time>2018-11-26T09:46:52Z</time>
      </trkpt>
      <trkpt lat="42.33283" lon="2.67604">
        <ele>494.4</ele>
        <time>2018-11-26T09:46:54Z</time>
      </trkpt>
      <trkpt lat="42.3328" lon="2.67604">
        <ele>495.2</ele>
        <time>2018-11-26T09:46:56Z</time>
      </trkpt>
      <trkpt lat="42.33276" lon="2.67608">
        <ele>496.3</ele>
        <time>2018-11-26T09:46:58Z</time>
      </trkpt>
      <trkpt lat="42.33265" lon="2.67612">
        <ele>498.2</ele>
        <time>2018-11-26T09:47:02Z</time>
      </trkpt>
      <trkpt lat="42.33263" lon="2.67615">
        <ele>498.6</ele>
        <time>2018-11-26T09:47:03Z</time>
      </trkpt>
      <trkpt lat="42.33257" lon="2.67626">
        <ele>499.6</ele>
        <time>2018-11-26T09:47:07Z</time>
      </trkpt>
      <trkpt lat="42.33253" lon="2.67627">
        <ele>500</ele>
        <time>2018-11-26T09:47:09Z</time>
      </trkpt>
      <trkpt lat="42.3325" lon="2.6763">
        <ele>500.5</ele>
        <time>2018-11-26T09:47:11Z</time>
      </trkpt>
      <trkpt lat="42.33244" lon="2.67636">
        <ele>502</ele>
        <time>2018-11-26T09:47:13Z</time>
      </trkpt>
      <trkpt lat="42.33244" lon="2.67636">
        <ele>502.4</ele>
        <time>2018-11-26T09:47:14Z</time>
      </trkpt>
      <trkpt lat="42.33237" lon="2.67638">
        <ele>504</ele>
        <time>2018-11-26T09:47:16Z</time>
      </trkpt>
      <trkpt lat="42.33232" lon="2.6764">
        <ele>505.9</ele>
        <time>2018-11-26T09:47:18Z</time>
      </trkpt>
      <trkpt lat="42.33229" lon="2.67641">
        <ele>506.4</ele>
        <time>2018-11-26T09:47:20Z</time>
      </trkpt>
      <trkpt lat="42.33228" lon="2.67642">
        <ele>507.2</ele>
        <time>2018-11-26T09:47:20Z</time>
      </trkpt>
      <trkpt lat="42.33226" lon="2.67641">
        <ele>510.2</ele>
        <time>2018-11-26T09:47:21Z</time>
      </trkpt>
      <trkpt lat="42.33228" lon="2.67638">
        <ele>513.6</ele>
        <time>2018-11-26T09:47:22Z</time>
      </trkpt>
      <trkpt lat="42.33227" lon="2.67629">
        <ele>518.3</ele>
        <time>2018-11-26T09:47:25Z</time>
      </trkpt>
      <trkpt lat="42.33224" lon="2.67618">
        <ele>523.1</ele>
        <time>2018-11-26T09:47:28Z</time>
      </trkpt>
      <trkpt lat="42.33217" lon="2.67621">
        <ele>527.4</ele>
        <time>2018-11-26T09:47:31Z</time>
      </trkpt>
      <trkpt lat="42.33209" lon="2.67625">
        <ele>529.3</ele>
        <time>2018-11-26T09:47:35Z</time>
      </trkpt>
      <trkpt lat="42.33202" lon="2.67628">
        <ele>531.3</ele>
        <time>2018-11-26T09:47:38Z</time>
      </trkpt>
      <trkpt lat="42.33194" lon="2.67631">
        <ele>532.2</ele>
        <time>2018-11-26T09:47:41Z</time>
      </trkpt>
      <trkpt lat="42.33191" lon="2.67635">
        <ele>532.8</ele>
        <time>2018-11-26T09:47:43Z</time>
      </trkpt>
      <trkpt lat="42.33186" lon="2.67638">
        <ele>533.2</ele>
        <time>2018-11-26T09:47:45Z</time>
      </trkpt>
      <trkpt lat="42.33176" lon="2.67643">
        <ele>534.3</ele>
        <time>2018-11-26T09:47:49Z</time>
      </trkpt>
      <trkpt lat="42.33168" lon="2.67638">
        <ele>536.7</ele>
        <time>2018-11-26T09:47:53Z</time>
      </trkpt>
      <trkpt lat="42.33151" lon="2.67636">
        <ele>540.9</ele>
        <time>2018-11-26T09:47:59Z</time>
      </trkpt>
      <trkpt lat="42.33141" lon="2.67631">
        <ele>542.9</ele>
        <time>2018-11-26T09:48:04Z</time>
      </trkpt>
      <trkpt lat="42.33134" lon="2.67627">
        <ele>546.7</ele>
        <time>2018-11-26T09:48:07Z</time>
      </trkpt>
      <trkpt lat="42.33126" lon="2.67627">
        <ele>550</ele>
        <time>2018-11-26T09:48:10Z</time>
      </trkpt>
      <trkpt lat="42.3312" lon="2.67622">
        <ele>553.9</ele>
        <time>2018-11-26T09:48:13Z</time>
      </trkpt>
      <trkpt lat="42.33114" lon="2.67621">
        <ele>555.9</ele>
        <time>2018-11-26T09:48:15Z</time>
      </trkpt>
      <trkpt lat="42.33109" lon="2.67616">
        <ele>557.2</ele>
        <time>2018-11-26T09:48:18Z</time>
      </trkpt>
      <trkpt lat="42.33103" lon="2.67618">
        <ele>561.6</ele>
        <time>2018-11-26T09:48:20Z</time>
      </trkpt>
      <trkpt lat="42.331" lon="2.67614">
        <ele>564.5</ele>
        <time>2018-11-26T09:48:22Z</time>
      </trkpt>
      <trkpt lat="42.33093" lon="2.67611">
        <ele>566.4</ele>
        <time>2018-11-26T09:48:25Z</time>
      </trkpt>
      <trkpt lat="42.33083" lon="2.67608">
        <ele>569.8</ele>
        <time>2018-11-26T09:48:29Z</time>
      </trkpt>
      <trkpt lat="42.33076" lon="2.67607">
        <ele>571.6</ele>
        <time>2018-11-26T09:48:32Z</time>
      </trkpt>
      <trkpt lat="42.33063" lon="2.67607">
        <ele>573.7</ele>
        <time>2018-11-26T09:48:37Z</time>
      </trkpt>
      <trkpt lat="42.33054" lon="2.67606">
        <ele>576.1</ele>
        <time>2018-11-26T09:48:40Z</time>
      </trkpt>
      <trkpt lat="42.33045" lon="2.67602">
        <ele>581.3</ele>
        <time>2018-11-26T09:48:44Z</time>
      </trkpt>
      <trkpt lat="42.3304" lon="2.67597">
        <ele>583.7</ele>
        <time>2018-11-26T09:48:47Z</time>
      </trkpt>
      <trkpt lat="42.33038" lon="2.67594">
        <ele>584.1</ele>
        <time>2018-11-26T09:48:48Z</time>
      </trkpt>
      <trkpt lat="42.33028" lon="2.67593">
        <ele>588.6</ele>
        <time>2018-11-26T09:48:52Z</time>
      </trkpt>
      <trkpt lat="42.33018" lon="2.6759">
        <ele>591.8</ele>
        <time>2018-11-26T09:48:56Z</time>
      </trkpt>
      <trkpt lat="42.33008" lon="2.67589">
        <ele>593.8</ele>
        <time>2018-11-26T09:49:00Z</time>
      </trkpt>
      <trkpt lat="42.32998" lon="2.67588">
        <ele>598.2</ele>
        <time>2018-11-26T09:49:04Z</time>
      </trkpt>
      <trkpt lat="42.3299" lon="2.67582">
        <ele>601.5</ele>
        <time>2018-11-26T09:49:08Z</time>
      </trkpt>
      <trkpt lat="42.32986" lon="2.67583">
        <ele>602</ele>
        <time>2018-11-26T09:49:09Z</time>
      </trkpt>
      <trkpt lat="42.32978" lon="2.67583">
        <ele>603.5</ele>
        <time>2018-11-26T09:49:13Z</time>
      </trkpt>
      <trkpt lat="42.32976" lon="2.67583">
        <ele>604.4</ele>
        <time>2018-11-26T09:49:13Z</time>
      </trkpt>
      <trkpt lat="42.32961" lon="2.67584">
        <ele>607.7</ele>
        <time>2018-11-26T09:49:19Z</time>
      </trkpt>
      <trkpt lat="42.32951" lon="2.67586">
        <ele>607.8</ele>
        <time>2018-11-26T09:49:23Z</time>
      </trkpt>
      <trkpt lat="42.32937" lon="2.67584">
        <ele>605.4</ele>
        <time>2018-11-26T09:49:29Z</time>
      </trkpt>
      <trkpt lat="42.32921" lon="2.67589">
        <ele>604</ele>
        <time>2018-11-26T09:49:36Z</time>
      </trkpt>
      <trkpt lat="42.32912" lon="2.67592">
        <ele>602.9</ele>
        <time>2018-11-26T09:49:39Z</time>
      </trkpt>
      <trkpt lat="42.32903" lon="2.67589">
        <ele>605.3</ele>
        <time>2018-11-26T09:49:43Z</time>
      </trkpt>
      <trkpt lat="42.32898" lon="2.67597">
        <ele>601.9</ele>
        <time>2018-11-26T09:49:46Z</time>
      </trkpt>
      <trkpt lat="42.32892" lon="2.67603">
        <ele>598.7</ele>
        <time>2018-11-26T09:49:49Z</time>
      </trkpt>
      <trkpt lat="42.32883" lon="2.67601">
        <ele>595.7</ele>
        <time>2018-11-26T09:49:53Z</time>
      </trkpt>
      <trkpt lat="42.32871" lon="2.67607">
        <ele>595.7</ele>
        <time>2018-11-26T09:49:58Z</time>
      </trkpt>
      <trkpt lat="42.32868" lon="2.67609">
        <ele>594.8</ele>
        <time>2018-11-26T09:49:59Z</time>
      </trkpt>
      <trkpt lat="42.32868" lon="2.67607">
        <ele>596.2</ele>
        <time>2018-11-26T09:50:00Z</time>
      </trkpt>
      <trkpt lat="42.32865" lon="2.67598">
        <ele>596.7</ele>
        <time>2018-11-26T09:50:03Z</time>
      </trkpt>
      <trkpt lat="42.32864" lon="2.67597">
        <ele>597.2</ele>
        <time>2018-11-26T09:50:03Z</time>
      </trkpt>
      <trkpt lat="42.32865" lon="2.67604">
        <ele>600.1</ele>
        <time>2018-11-26T09:50:05Z</time>
      </trkpt>
      <trkpt lat="42.32863" lon="2.67604">
        <ele>600.5</ele>
        <time>2018-11-26T09:50:07Z</time>
      </trkpt>
      <trkpt lat="42.32868" lon="2.676">
        <ele>598.7</ele>
        <time>2018-11-26T09:50:09Z</time>
      </trkpt>
      <trkpt lat="42.32872" lon="2.67597">
        <ele>597.6</ele>
        <time>2018-11-26T09:50:11Z</time>
      </trkpt>
      <trkpt lat="42.32874" lon="2.67597">
        <ele>600.5</ele>
        <time>2018-11-26T09:50:11Z</time>
      </trkpt>
      <trkpt lat="42.32877" lon="2.6759">
        <ele>606.3</ele>
        <time>2018-11-26T09:50:14Z</time>
      </trkpt>
      <trkpt lat="42.32876" lon="2.67591">
        <ele>610.6</ele>
        <time>2018-11-26T09:50:15Z</time>
      </trkpt>
      <trkpt lat="42.32873" lon="2.67594">
        <ele>601.9</ele>
        <time>2018-11-26T09:50:16Z</time>
      </trkpt>
      <trkpt lat="42.32872" lon="2.67598">
        <ele>599</ele>
        <time>2018-11-26T09:50:17Z</time>
      </trkpt>
      <trkpt lat="42.32873" lon="2.67597">
        <ele>601.1</ele>
        <time>2018-11-26T09:50:18Z</time>
      </trkpt>
      <trkpt lat="42.32877" lon="2.67587">
        <ele>601.5</ele>
        <time>2018-11-26T09:50:21Z</time>
      </trkpt>
      <trkpt lat="42.32875" lon="2.67598">
        <ele>597.7</ele>
        <time>2018-11-26T09:50:24Z</time>
      </trkpt>
      <trkpt lat="42.32868" lon="2.67602">
        <ele>595.3</ele>
        <time>2018-11-26T09:50:27Z</time>
      </trkpt>
      <trkpt lat="42.32871" lon="2.676">
        <ele>603.4</ele>
        <time>2018-11-26T09:50:29Z</time>
      </trkpt>
      <trkpt lat="42.32868" lon="2.67601">
        <ele>602.4</ele>
        <time>2018-11-26T09:50:30Z</time>
      </trkpt>
      <trkpt lat="42.32872" lon="2.67604">
        <ele>601.9</ele>
        <time>2018-11-26T09:50:32Z</time>
      </trkpt>
      <trkpt lat="42.32874" lon="2.67606">
        <ele>602.4</ele>
        <time>2018-11-26T09:50:33Z</time>
      </trkpt>
      <trkpt lat="42.32877" lon="2.67605">
        <ele>602</ele>
        <time>2018-11-26T09:50:34Z</time>
      </trkpt>
      <trkpt lat="42.32877" lon="2.67604">
        <ele>601.4</ele>
        <time>2018-11-26T09:50:34Z</time>
      </trkpt>
      <trkpt lat="42.32878" lon="2.67597">
        <ele>604.9</ele>
        <time>2018-11-26T09:50:36Z</time>
      </trkpt>
      <trkpt lat="42.32875" lon="2.67601">
        <ele>603</ele>
        <time>2018-11-26T09:50:38Z</time>
      </trkpt>
      <trkpt lat="42.32875" lon="2.67594">
        <ele>601.5</ele>
        <time>2018-11-26T09:50:40Z</time>
      </trkpt>
      <trkpt lat="42.32878" lon="2.67595">
        <ele>600.5</ele>
        <time>2018-11-26T09:50:42Z</time>
      </trkpt>
      <trkpt lat="42.32876" lon="2.67596">
        <ele>599.6</ele>
        <time>2018-11-26T09:50:42Z</time>
      </trkpt>
      <trkpt lat="42.32875" lon="2.67598">
        <ele>599.1</ele>
        <time>2018-11-26T09:50:43Z</time>
      </trkpt>
      <trkpt lat="42.32875" lon="2.67596">
        <ele>599.6</ele>
        <time>2018-11-26T09:50:44Z</time>
      </trkpt>
      <trkpt lat="42.32876" lon="2.67597">
        <ele>601</ele>
        <time>2018-11-26T09:50:44Z</time>
      </trkpt>
      <trkpt lat="42.32876" lon="2.676">
        <ele>603.4</ele>
        <time>2018-11-26T09:50:45Z</time>
      </trkpt>
      <trkpt lat="42.32878" lon="2.67597">
        <ele>605.3</ele>
        <time>2018-11-26T09:50:46Z</time>
      </trkpt>
      <trkpt lat="42.32876" lon="2.676">
        <ele>604.4</ele>
        <time>2018-11-26T09:50:48Z</time>
      </trkpt>
      <trkpt lat="42.32876" lon="2.676">
        <ele>602.5</ele>
        <time>2018-11-26T09:50:48Z</time>
      </trkpt>
      <trkpt lat="42.32876" lon="2.67598">
        <ele>605.4</ele>
        <time>2018-11-26T09:50:48Z</time>
      </trkpt>
      <trkpt lat="42.32877" lon="2.67597">
        <ele>602.4</ele>
        <time>2018-11-26T09:50:49Z</time>
      </trkpt>
      <trkpt lat="42.32876" lon="2.67603">
        <ele>599.5</ele>
        <time>2018-11-26T09:50:51Z</time>
      </trkpt>
      <trkpt lat="42.32878" lon="2.67591">
        <ele>600.1</ele>
        <time>2018-11-26T09:50:54Z</time>
      </trkpt>
      <trkpt lat="42.32876" lon="2.67596">
        <ele>601.4</ele>
        <time>2018-11-26T09:50:56Z</time>
      </trkpt>
      <trkpt lat="42.32874" lon="2.676">
        <ele>603.4</ele>
        <time>2018-11-26T09:50:58Z</time>
      </trkpt>
      <trkpt lat="42.32875" lon="2.67597">
        <ele>600.1</ele>
        <time>2018-11-26T09:50:59Z</time>
      </trkpt>
      <trkpt lat="42.32877" lon="2.67597">
        <ele>601.1</ele>
        <time>2018-11-26T09:50:59Z</time>
      </trkpt>
      <trkpt lat="42.32876" lon="2.67598">
        <ele>601.9</ele>
        <time>2018-11-26T09:51:00Z</time>
      </trkpt>
      <trkpt lat="42.32875" lon="2.67598">
        <ele>600.5</ele>
        <time>2018-11-26T09:51:00Z</time>
      </trkpt>
      <trkpt lat="42.32874" lon="2.67598">
        <ele>600</ele>
        <time>2018-11-26T09:51:00Z</time>
      </trkpt>
      <trkpt lat="42.32874" lon="2.67598">
        <ele>599.1</ele>
        <time>2018-11-26T09:51:01Z</time>
      </trkpt>
      <trkpt lat="42.32875" lon="2.67597">
        <ele>599.6</ele>
        <time>2018-11-26T09:51:01Z</time>
      </trkpt>
      <trkpt lat="42.32877" lon="2.67597">
        <ele>601</ele>
        <time>2018-11-26T09:51:02Z</time>
      </trkpt>
      <trkpt lat="42.32874" lon="2.67597">
        <ele>601</ele>
        <time>2018-11-26T09:51:03Z</time>
      </trkpt>
      <trkpt lat="42.32874" lon="2.67597">
        <ele>601.4</ele>
        <time>2018-11-26T09:51:03Z</time>
      </trkpt>
      <trkpt lat="42.32873" lon="2.67598">
        <ele>601.1</ele>
        <time>2018-11-26T09:51:04Z</time>
      </trkpt>
      <trkpt lat="42.32875" lon="2.67599">
        <ele>604.3</ele>
        <time>2018-11-26T09:51:05Z</time>
      </trkpt>
      <trkpt lat="42.32873" lon="2.67598">
        <ele>605.4</ele>
        <time>2018-11-26T09:51:06Z</time>
      </trkpt>
      <trkpt lat="42.32868" lon="2.67604">
        <ele>606.8</ele>
        <time>2018-11-26T09:51:08Z</time>
      </trkpt>
      <trkpt lat="42.32871" lon="2.67599">
        <ele>605.3</ele>
        <time>2018-11-26T09:51:10Z</time>
      </trkpt>
      <trkpt lat="42.32873" lon="2.67597">
        <ele>604.3</ele>
        <time>2018-11-26T09:51:11Z</time>
      </trkpt>
      <trkpt lat="42.32872" lon="2.67601">
        <ele>604</ele>
        <time>2018-11-26T09:51:12Z</time>
      </trkpt>
      <trkpt lat="42.32871" lon="2.67603">
        <ele>597.6</ele>
        <time>2018-11-26T09:51:13Z</time>
      </trkpt>
      <trkpt lat="42.32848" lon="2.67604">
        <ele>593.8</ele>
        <time>2018-11-26T11:07:20Z</time>
      </trkpt>
      <trkpt lat="42.32849" lon="2.67606">
        <ele>595.3</ele>
        <time>2018-11-26T11:07:20Z</time>
      </trkpt>
      <trkpt lat="42.32851" lon="2.67606">
        <ele>596.2</ele>
        <time>2018-11-26T11:07:21Z</time>
      </trkpt>
      <trkpt lat="42.32851" lon="2.6761">
        <ele>595.8</ele>
        <time>2018-11-26T11:07:22Z</time>
      </trkpt>
      <trkpt lat="42.32837" lon="2.67612">
        <ele>597.1</ele>
        <time>2018-11-26T11:07:28Z</time>
      </trkpt>
      <trkpt lat="42.32827" lon="2.67606">
        <ele>597.6</ele>
        <time>2018-11-26T11:07:32Z</time>
      </trkpt>
      <trkpt lat="42.32809" lon="2.67601">
        <ele>601.5</ele>
        <time>2018-11-26T11:07:39Z</time>
      </trkpt>
      <trkpt lat="42.32804" lon="2.67598">
        <ele>603.4</ele>
        <time>2018-11-26T11:07:42Z</time>
      </trkpt>
      <trkpt lat="42.32785" lon="2.67586">
        <ele>609.2</ele>
        <time>2018-11-26T11:07:50Z</time>
      </trkpt>
      <trkpt lat="42.32766" lon="2.67587">
        <ele>610.7</ele>
        <time>2018-11-26T11:07:58Z</time>
      </trkpt>
      <trkpt lat="42.32747" lon="2.67593">
        <ele>610.1</ele>
        <time>2018-11-26T11:08:06Z</time>
      </trkpt>
      <trkpt lat="42.32742" lon="2.67596">
        <ele>610.1</ele>
        <time>2018-11-26T11:08:08Z</time>
      </trkpt>
      <trkpt lat="42.32726" lon="2.67609">
        <ele>614</ele>
        <time>2018-11-26T11:08:15Z</time>
      </trkpt>
      <trkpt lat="42.32705" lon="2.67623">
        <ele>616.9</ele>
        <time>2018-11-26T11:08:24Z</time>
      </trkpt>
      <trkpt lat="42.32696" lon="2.67631">
        <ele>616</ele>
        <time>2018-11-26T11:08:29Z</time>
      </trkpt>
      <trkpt lat="42.32689" lon="2.67637">
        <ele>616</ele>
        <time>2018-11-26T11:08:32Z</time>
      </trkpt>
      <trkpt lat="42.32672" lon="2.67646">
        <ele>609.1</ele>
        <time>2018-11-26T11:08:39Z</time>
      </trkpt>
      <trkpt lat="42.32658" lon="2.67664">
        <ele>606.3</ele>
        <time>2018-11-26T11:08:47Z</time>
      </trkpt>
      <trkpt lat="42.32653" lon="2.67672">
        <ele>605.8</ele>
        <time>2018-11-26T11:08:50Z</time>
      </trkpt>
      <trkpt lat="42.32647" lon="2.67686">
        <ele>603</ele>
        <time>2018-11-26T11:08:55Z</time>
      </trkpt>
      <trkpt lat="42.32642" lon="2.67698">
        <ele>601.1</ele>
        <time>2018-11-26T11:08:59Z</time>
      </trkpt>
      <trkpt lat="42.3264" lon="2.67708">
        <ele>600.1</ele>
        <time>2018-11-26T11:09:02Z</time>
      </trkpt>
      <trkpt lat="42.32629" lon="2.67723">
        <ele>603</ele>
        <time>2018-11-26T11:09:08Z</time>
      </trkpt>
      <trkpt lat="42.32622" lon="2.67737">
        <ele>603.5</ele>
        <time>2018-11-26T11:09:13Z</time>
      </trkpt>
      <trkpt lat="42.32615" lon="2.6775">
        <ele>606.7</ele>
        <time>2018-11-26T11:09:18Z</time>
      </trkpt>
      <trkpt lat="42.32604" lon="2.67763">
        <ele>607.2</ele>
        <time>2018-11-26T11:09:24Z</time>
      </trkpt>
      <trkpt lat="42.32593" lon="2.67786">
        <ele>612.5</ele>
        <time>2018-11-26T11:09:32Z</time>
      </trkpt>
      <trkpt lat="42.32583" lon="2.6781">
        <ele>617.3</ele>
        <time>2018-11-26T11:09:40Z</time>
      </trkpt>
      <trkpt lat="42.32583" lon="2.67812">
        <ele>617.3</ele>
        <time>2018-11-26T11:09:41Z</time>
      </trkpt>
      <trkpt lat="42.32582" lon="2.67828">
        <ele>616.3</ele>
        <time>2018-11-26T11:09:46Z</time>
      </trkpt>
      <trkpt lat="42.32581" lon="2.67838">
        <ele>613.6</ele>
        <time>2018-11-26T11:09:49Z</time>
      </trkpt>
      <trkpt lat="42.32576" lon="2.67853">
        <ele>614.5</ele>
        <time>2018-11-26T11:09:53Z</time>
      </trkpt>
      <trkpt lat="42.3257" lon="2.67882">
        <ele>615.9</ele>
        <time>2018-11-26T11:10:02Z</time>
      </trkpt>
      <trkpt lat="42.32567" lon="2.67888">
        <ele>616.4</ele>
        <time>2018-11-26T11:10:04Z</time>
      </trkpt>
      <trkpt lat="42.32566" lon="2.67894">
        <ele>617.4</ele>
        <time>2018-11-26T11:10:06Z</time>
      </trkpt>
      <trkpt lat="42.32564" lon="2.679">
        <ele>617.9</ele>
        <time>2018-11-26T11:10:08Z</time>
      </trkpt>
      <trkpt lat="42.32562" lon="2.67904">
        <ele>618.3</ele>
        <time>2018-11-26T11:10:10Z</time>
      </trkpt>
      <trkpt lat="42.32559" lon="2.67914">
        <ele>618.3</ele>
        <time>2018-11-26T11:10:13Z</time>
      </trkpt>
      <trkpt lat="42.32561" lon="2.67911">
        <ele>617.8</ele>
        <time>2018-11-26T11:10:14Z</time>
      </trkpt>
      <trkpt lat="42.32563" lon="2.67911">
        <ele>617.4</ele>
        <time>2018-11-26T11:10:15Z</time>
      </trkpt>
      <trkpt lat="42.32562" lon="2.67913">
        <ele>617.8</ele>
        <time>2018-11-26T11:10:15Z</time>
      </trkpt>
      <trkpt lat="42.32564" lon="2.67911">
        <ele>619.7</ele>
        <time>2018-11-26T11:10:17Z</time>
      </trkpt>
      <trkpt lat="42.32562" lon="2.6791">
        <ele>618.8</ele>
        <time>2018-11-26T11:10:18Z</time>
      </trkpt>
      <trkpt lat="42.32562" lon="2.6791">
        <ele>619.2</ele>
        <time>2018-11-26T11:10:18Z</time>
      </trkpt>
      <trkpt lat="42.32561" lon="2.67908">
        <ele>617.9</ele>
        <time>2018-11-26T11:10:18Z</time>
      </trkpt>
      <trkpt lat="42.32561" lon="2.67906">
        <ele>620.3</ele>
        <time>2018-11-26T11:10:19Z</time>
      </trkpt>
      <trkpt lat="42.32561" lon="2.67906">
        <ele>620.8</ele>
        <time>2018-11-26T11:10:19Z</time>
      </trkpt>
      <trkpt lat="42.32556" lon="2.67904">
        <ele>623.7</ele>
        <time>2018-11-26T11:10:21Z</time>
      </trkpt>
      <trkpt lat="42.32552" lon="2.679">
        <ele>625.5</ele>
        <time>2018-11-26T11:10:23Z</time>
      </trkpt>
      <trkpt lat="42.32551" lon="2.67898">
        <ele>625</ele>
        <time>2018-11-26T11:10:24Z</time>
      </trkpt>
      <trkpt lat="42.32552" lon="2.67906">
        <ele>627.9</ele>
        <time>2018-11-26T11:10:26Z</time>
      </trkpt>
      <trkpt lat="42.32546" lon="2.67907">
        <ele>629.8</ele>
        <time>2018-11-26T11:10:29Z</time>
      </trkpt>
      <trkpt lat="42.32536" lon="2.67895">
        <ele>631.7</ele>
        <time>2018-11-26T11:10:34Z</time>
      </trkpt>
      <trkpt lat="42.32523" lon="2.67857">
        <ele>636.5</ele>
        <time>2018-11-26T11:10:46Z</time>
      </trkpt>
      <trkpt lat="42.32512" lon="2.67821">
        <ele>642.8</ele>
        <time>2018-11-26T11:10:58Z</time>
      </trkpt>
      <trkpt lat="42.32503" lon="2.67781">
        <ele>645.2</ele>
        <time>2018-11-26T11:11:10Z</time>
      </trkpt>
      <trkpt lat="42.32484" lon="2.67764">
        <ele>646.2</ele>
        <time>2018-11-26T11:11:19Z</time>
      </trkpt>
      <trkpt lat="42.32461" lon="2.67737">
        <ele>647.7</ele>
        <time>2018-11-26T11:11:31Z</time>
      </trkpt>
      <trkpt lat="42.32423" lon="2.67711">
        <ele>651</ele>
        <time>2018-11-26T11:11:49Z</time>
      </trkpt>
      <trkpt lat="42.32396" lon="2.67713">
        <ele>650</ele>
        <time>2018-11-26T11:11:59Z</time>
      </trkpt>
      <trkpt lat="42.32381" lon="2.67701">
        <ele>649.6</ele>
        <time>2018-11-26T11:12:06Z</time>
      </trkpt>
      <trkpt lat="42.32382" lon="2.67707">
        <ele>649.6</ele>
        <time>2018-11-26T11:12:08Z</time>
      </trkpt>
      <trkpt lat="42.32387" lon="2.67719">
        <ele>650</ele>
        <time>2018-11-26T11:12:12Z</time>
      </trkpt>
      <trkpt lat="42.32405" lon="2.67737">
        <ele>651.5</ele>
        <time>2018-11-26T11:12:21Z</time>
      </trkpt>
      <trkpt lat="42.32424" lon="2.67755">
        <ele>656.2</ele>
        <time>2018-11-26T11:12:31Z</time>
      </trkpt>
      <trkpt lat="42.32422" lon="2.67771">
        <ele>657.7</ele>
        <time>2018-11-26T11:12:36Z</time>
      </trkpt>
      <trkpt lat="42.32419" lon="2.67772">
        <ele>656.8</ele>
        <time>2018-11-26T11:12:37Z</time>
      </trkpt>
      <trkpt lat="42.32401" lon="2.67786">
        <ele>655.8</ele>
        <time>2018-11-26T11:12:45Z</time>
      </trkpt>
      <trkpt lat="42.32387" lon="2.67819">
        <ele>657.7</ele>
        <time>2018-11-26T11:12:56Z</time>
      </trkpt>
      <trkpt lat="42.32383" lon="2.67854">
        <ele>660.6</ele>
        <time>2018-11-26T11:13:07Z</time>
      </trkpt>
      <trkpt lat="42.3238" lon="2.67895">
        <ele>664</ele>
        <time>2018-11-26T11:13:19Z</time>
      </trkpt>
      <trkpt lat="42.32374" lon="2.67934">
        <ele>667.3</ele>
        <time>2018-11-26T11:13:31Z</time>
      </trkpt>
      <trkpt lat="42.32364" lon="2.67942">
        <ele>669.3</ele>
        <time>2018-11-26T11:13:35Z</time>
      </trkpt>
      <trkpt lat="42.32341" lon="2.67945">
        <ele>668.8</ele>
        <time>2018-11-26T11:13:45Z</time>
      </trkpt>
      <trkpt lat="42.32311" lon="2.67961">
        <ele>670.8</ele>
        <time>2018-11-26T11:13:58Z</time>
      </trkpt>
      <trkpt lat="42.32284" lon="2.67972">
        <ele>671.6</ele>
        <time>2018-11-26T11:14:09Z</time>
      </trkpt>
      <trkpt lat="42.3226" lon="2.67983">
        <ele>670.2</ele>
        <time>2018-11-26T11:14:19Z</time>
      </trkpt>
      <trkpt lat="42.32233" lon="2.67988">
        <ele>668.7</ele>
        <time>2018-11-26T11:14:30Z</time>
      </trkpt>
      <trkpt lat="42.32207" lon="2.68024">
        <ele>668.4</ele>
        <time>2018-11-26T11:14:45Z</time>
      </trkpt>
      <trkpt lat="42.322" lon="2.68064">
        <ele>670.2</ele>
        <time>2018-11-26T11:14:57Z</time>
      </trkpt>
      <trkpt lat="42.32217" lon="2.68084">
        <ele>671.6</ele>
        <time>2018-11-26T11:15:06Z</time>
      </trkpt>
      <trkpt lat="42.32228" lon="2.68109">
        <ele>673.6</ele>
        <time>2018-11-26T11:15:14Z</time>
      </trkpt>
      <trkpt lat="42.32234" lon="2.68113">
        <ele>675.1</ele>
        <time>2018-11-26T11:15:17Z</time>
      </trkpt>
      <trkpt lat="42.32251" lon="2.68134">
        <ele>676.4</ele>
        <time>2018-11-26T11:15:26Z</time>
      </trkpt>
      <trkpt lat="42.32256" lon="2.68173">
        <ele>678.9</ele>
        <time>2018-11-26T11:15:38Z</time>
      </trkpt>
      <trkpt lat="42.3224" lon="2.68203">
        <ele>679.8</ele>
        <time>2018-11-26T11:15:49Z</time>
      </trkpt>
      <trkpt lat="42.32211" lon="2.68225">
        <ele>680.3</ele>
        <time>2018-11-26T11:16:02Z</time>
      </trkpt>
      <trkpt lat="42.32181" lon="2.68245">
        <ele>679.8</ele>
        <time>2018-11-26T11:16:16Z</time>
      </trkpt>
      <trkpt lat="42.32157" lon="2.6826">
        <ele>677.9</ele>
        <time>2018-11-26T11:16:26Z</time>
      </trkpt>
      <trkpt lat="42.32131" lon="2.68263">
        <ele>675</ele>
        <time>2018-11-26T11:16:37Z</time>
      </trkpt>
      <trkpt lat="42.32096" lon="2.68258">
        <ele>672.1</ele>
        <time>2018-11-26T11:16:51Z</time>
      </trkpt>
      <trkpt lat="42.32065" lon="2.68262">
        <ele>671.1</ele>
        <time>2018-11-26T11:17:03Z</time>
      </trkpt>
      <trkpt lat="42.32061" lon="2.68264">
        <ele>671.2</ele>
        <time>2018-11-26T11:17:05Z</time>
      </trkpt>
      <trkpt lat="42.32035" lon="2.68287">
        <ele>671.7</ele>
        <time>2018-11-26T11:17:17Z</time>
      </trkpt>
      <trkpt lat="42.32011" lon="2.68308">
        <ele>672.6</ele>
        <time>2018-11-26T11:17:29Z</time>
      </trkpt>
      <trkpt lat="42.32007" lon="2.68312">
        <ele>673.2</ele>
        <time>2018-11-26T11:17:31Z</time>
      </trkpt>
      <trkpt lat="42.31993" lon="2.68327">
        <ele>673.6</ele>
        <time>2018-11-26T11:17:38Z</time>
      </trkpt>
      <trkpt lat="42.31984" lon="2.68339">
        <ele>673.1</ele>
        <time>2018-11-26T11:17:43Z</time>
      </trkpt>
      <trkpt lat="42.31982" lon="2.68339">
        <ele>672.6</ele>
        <time>2018-11-26T11:17:44Z</time>
      </trkpt>
      <trkpt lat="42.31977" lon="2.68344">
        <ele>676</ele>
        <time>2018-11-26T11:17:46Z</time>
      </trkpt>
      <trkpt lat="42.31976" lon="2.68351">
        <ele>678.4</ele>
        <time>2018-11-26T11:17:48Z</time>
      </trkpt>
      <trkpt lat="42.31943" lon="2.68315">
        <ele>676.2</ele>
        <time>2018-11-26T12:08:15Z</time>
      </trkpt>
      <trkpt lat="42.31951" lon="2.68323">
        <ele>676.6</ele>
        <time>2018-11-26T12:08:18Z</time>
      </trkpt>
      <trkpt lat="42.31959" lon="2.6833">
        <ele>677.5</ele>
        <time>2018-11-26T12:08:22Z</time>
      </trkpt>
      <trkpt lat="42.31965" lon="2.68342">
        <ele>681.1</ele>
        <time>2018-11-26T12:08:26Z</time>
      </trkpt>
      <trkpt lat="42.31974" lon="2.68338">
        <ele>684.8</ele>
        <time>2018-11-26T12:08:30Z</time>
      </trkpt>
      <trkpt lat="42.31973" lon="2.68325">
        <ele>687.2</ele>
        <time>2018-11-26T12:08:34Z</time>
      </trkpt>
      <trkpt lat="42.31971" lon="2.68313">
        <ele>689.7</ele>
        <time>2018-11-26T12:08:38Z</time>
      </trkpt>
      <trkpt lat="42.3197" lon="2.68301">
        <ele>692.1</ele>
        <time>2018-11-26T12:08:41Z</time>
      </trkpt>
      <trkpt lat="42.31967" lon="2.68289">
        <ele>694.9</ele>
        <time>2018-11-26T12:08:45Z</time>
      </trkpt>
      <trkpt lat="42.31967" lon="2.68276">
        <ele>698.7</ele>
        <time>2018-11-26T12:08:49Z</time>
      </trkpt>
      <trkpt lat="42.3197" lon="2.68264">
        <ele>701.6</ele>
        <time>2018-11-26T12:08:53Z</time>
      </trkpt>
      <trkpt lat="42.31978" lon="2.68256">
        <ele>703.3</ele>
        <time>2018-11-26T12:08:57Z</time>
      </trkpt>
      <trkpt lat="42.31979" lon="2.68243">
        <ele>705</ele>
        <time>2018-11-26T12:09:01Z</time>
      </trkpt>
      <trkpt lat="42.31974" lon="2.68233">
        <ele>707.6</ele>
        <time>2018-11-26T12:09:04Z</time>
      </trkpt>
      <trkpt lat="42.31978" lon="2.68221">
        <ele>710.6</ele>
        <time>2018-11-26T12:09:08Z</time>
      </trkpt>
      <trkpt lat="42.31982" lon="2.68211">
        <ele>711.6</ele>
        <time>2018-11-26T12:09:12Z</time>
      </trkpt>
      <trkpt lat="42.31993" lon="2.68203">
        <ele>714</ele>
        <time>2018-11-26T12:09:17Z</time>
      </trkpt>
      <trkpt lat="42.31998" lon="2.68192">
        <ele>717.4</ele>
        <time>2018-11-26T12:09:20Z</time>
      </trkpt>
      <trkpt lat="42.32" lon="2.6818">
        <ele>720.7</ele>
        <time>2018-11-26T12:09:24Z</time>
      </trkpt>
      <trkpt lat="42.32004" lon="2.68165">
        <ele>724.2</ele>
        <time>2018-11-26T12:09:29Z</time>
      </trkpt>
      <trkpt lat="42.32007" lon="2.68153">
        <ele>729.1</ele>
        <time>2018-11-26T12:09:33Z</time>
      </trkpt>
      <trkpt lat="42.32004" lon="2.68141">
        <ele>734.1</ele>
        <time>2018-11-26T12:09:36Z</time>
      </trkpt>
      <trkpt lat="42.32004" lon="2.68129">
        <ele>738.1</ele>
        <time>2018-11-26T12:09:40Z</time>
      </trkpt>
      <trkpt lat="42.32007" lon="2.68116">
        <ele>742.3</ele>
        <time>2018-11-26T12:09:44Z</time>
      </trkpt>
      <trkpt lat="42.32007" lon="2.68103">
        <ele>745.2</ele>
        <time>2018-11-26T12:09:48Z</time>
      </trkpt>
      <trkpt lat="42.32008" lon="2.6809">
        <ele>748.7</ele>
        <time>2018-11-26T12:09:52Z</time>
      </trkpt>
      <trkpt lat="42.32" lon="2.68084">
        <ele>750.8</ele>
        <time>2018-11-26T12:09:55Z</time>
      </trkpt>
      <trkpt lat="42.31991" lon="2.68083">
        <ele>753.6</ele>
        <time>2018-11-26T12:09:59Z</time>
      </trkpt>
      <trkpt lat="42.31982" lon="2.68083">
        <ele>754.1</ele>
        <time>2018-11-26T12:10:03Z</time>
      </trkpt>
      <trkpt lat="42.31972" lon="2.68082">
        <ele>757</ele>
        <time>2018-11-26T12:10:07Z</time>
      </trkpt>
      <trkpt lat="42.31973" lon="2.68069">
        <ele>758.9</ele>
        <time>2018-11-26T12:10:11Z</time>
      </trkpt>
      <trkpt lat="42.31975" lon="2.68057">
        <ele>760.5</ele>
        <time>2018-11-26T12:10:14Z</time>
      </trkpt>
      <trkpt lat="42.31981" lon="2.68047">
        <ele>762.3</ele>
        <time>2018-11-26T12:10:18Z</time>
      </trkpt>
      <trkpt lat="42.31988" lon="2.68038">
        <ele>762.7</ele>
        <time>2018-11-26T12:10:22Z</time>
      </trkpt>
      <trkpt lat="42.31996" lon="2.68032">
        <ele>763.8</ele>
        <time>2018-11-26T12:10:26Z</time>
      </trkpt>
      <trkpt lat="42.32006" lon="2.68031">
        <ele>765.4</ele>
        <time>2018-11-26T12:10:30Z</time>
      </trkpt>
      <trkpt lat="42.32014" lon="2.68022">
        <ele>768</ele>
        <time>2018-11-26T12:10:34Z</time>
      </trkpt>
      <trkpt lat="42.32021" lon="2.68013">
        <ele>771.1</ele>
        <time>2018-11-26T12:10:38Z</time>
      </trkpt>
      <trkpt lat="42.32028" lon="2.68001">
        <ele>775</ele>
        <time>2018-11-26T12:10:42Z</time>
      </trkpt>
      <trkpt lat="42.32033" lon="2.67991">
        <ele>778.4</ele>
        <time>2018-11-26T12:10:46Z</time>
      </trkpt>
      <trkpt lat="42.32036" lon="2.67979">
        <ele>781.2</ele>
        <time>2018-11-26T12:10:50Z</time>
      </trkpt>
      <trkpt lat="42.32034" lon="2.67966">
        <ele>785.9</ele>
        <time>2018-11-26T12:10:53Z</time>
      </trkpt>
      <trkpt lat="42.32035" lon="2.67954">
        <ele>789.2</ele>
        <time>2018-11-26T12:10:57Z</time>
      </trkpt>
      <trkpt lat="42.32038" lon="2.67943">
        <ele>792.6</ele>
        <time>2018-11-26T12:11:01Z</time>
      </trkpt>
      <trkpt lat="42.32034" lon="2.67931">
        <ele>796</ele>
        <time>2018-11-26T12:11:05Z</time>
      </trkpt>
      <trkpt lat="42.32033" lon="2.67919">
        <ele>799.9</ele>
        <time>2018-11-26T12:11:08Z</time>
      </trkpt>
      <trkpt lat="42.32025" lon="2.67915">
        <ele>803</ele>
        <time>2018-11-26T12:11:12Z</time>
      </trkpt>
      <trkpt lat="42.32014" lon="2.67915">
        <ele>806</ele>
        <time>2018-11-26T12:11:16Z</time>
      </trkpt>
      <trkpt lat="42.32004" lon="2.67919">
        <ele>808.5</ele>
        <time>2018-11-26T12:11:20Z</time>
      </trkpt>
      <trkpt lat="42.31996" lon="2.67913">
        <ele>811</ele>
        <time>2018-11-26T12:11:24Z</time>
      </trkpt>
      <trkpt lat="42.31987" lon="2.67911">
        <ele>812.3</ele>
        <time>2018-11-26T12:11:28Z</time>
      </trkpt>
      <trkpt lat="42.31988" lon="2.67899">
        <ele>816.8</ele>
        <time>2018-11-26T12:11:32Z</time>
      </trkpt>
      <trkpt lat="42.31979" lon="2.67895">
        <ele>817.8</ele>
        <time>2018-11-26T12:11:35Z</time>
      </trkpt>
      <trkpt lat="42.31975" lon="2.67883">
        <ele>820.7</ele>
        <time>2018-11-26T12:11:39Z</time>
      </trkpt>
      <trkpt lat="42.31967" lon="2.67876">
        <ele>822.5</ele>
        <time>2018-11-26T12:11:43Z</time>
      </trkpt>
      <trkpt lat="42.31962" lon="2.67864">
        <ele>825.5</ele>
        <time>2018-11-26T12:11:47Z</time>
      </trkpt>
      <trkpt lat="42.31965" lon="2.6785">
        <ele>831.8</ele>
        <time>2018-11-26T12:11:51Z</time>
      </trkpt>
      <trkpt lat="42.31967" lon="2.67838">
        <ele>837.1</ele>
        <time>2018-11-26T12:11:55Z</time>
      </trkpt>
      <trkpt lat="42.31968" lon="2.67825">
        <ele>841.2</ele>
        <time>2018-11-26T12:11:59Z</time>
      </trkpt>
      <trkpt lat="42.31973" lon="2.67814">
        <ele>844</ele>
        <time>2018-11-26T12:12:03Z</time>
      </trkpt>
      <trkpt lat="42.31971" lon="2.67802">
        <ele>849.6</ele>
        <time>2018-11-26T12:12:06Z</time>
      </trkpt>
      <trkpt lat="42.31974" lon="2.6779">
        <ele>854</ele>
        <time>2018-11-26T12:12:10Z</time>
      </trkpt>
      <trkpt lat="42.31979" lon="2.67778">
        <ele>858.2</ele>
        <time>2018-11-26T12:12:14Z</time>
      </trkpt>
      <trkpt lat="42.3198" lon="2.67765">
        <ele>862</ele>
        <time>2018-11-26T12:12:18Z</time>
      </trkpt>
      <trkpt lat="42.31989" lon="2.6776">
        <ele>867.8</ele>
        <time>2018-11-26T12:12:22Z</time>
      </trkpt>
      <trkpt lat="42.31984" lon="2.6775">
        <ele>871.4</ele>
        <time>2018-11-26T12:12:25Z</time>
      </trkpt>
      <trkpt lat="42.3198" lon="2.67734">
        <ele>875</ele>
        <time>2018-11-26T12:12:30Z</time>
      </trkpt>
      <trkpt lat="42.31986" lon="2.67725">
        <ele>878.7</ele>
        <time>2018-11-26T12:12:34Z</time>
      </trkpt>
      <trkpt lat="42.31989" lon="2.67712">
        <ele>882.3</ele>
        <time>2018-11-26T12:12:38Z</time>
      </trkpt>
      <trkpt lat="42.31987" lon="2.67699">
        <ele>880.5</ele>
        <time>2018-11-26T12:12:42Z</time>
      </trkpt>
      <trkpt lat="42.31985" lon="2.67687">
        <ele>888</ele>
        <time>2018-11-26T12:12:45Z</time>
      </trkpt>
      <trkpt lat="42.31989" lon="2.67674">
        <ele>891</ele>
        <time>2018-11-26T12:12:49Z</time>
      </trkpt>
      <trkpt lat="42.31993" lon="2.67663">
        <ele>893.8</ele>
        <time>2018-11-26T12:12:53Z</time>
      </trkpt>
      <trkpt lat="42.31996" lon="2.67651">
        <ele>896.5</ele>
        <time>2018-11-26T12:12:57Z</time>
      </trkpt>
      <trkpt lat="42.31999" lon="2.67637">
        <ele>897.8</ele>
        <time>2018-11-26T12:13:01Z</time>
      </trkpt>
      <trkpt lat="42.32008" lon="2.67638">
        <ele>900.8</ele>
        <time>2018-11-26T12:13:05Z</time>
      </trkpt>
      <trkpt lat="42.32014" lon="2.67649">
        <ele>898.9</ele>
        <time>2018-11-26T12:13:09Z</time>
      </trkpt>
      <trkpt lat="42.32023" lon="2.67646">
        <ele>897.5</ele>
        <time>2018-11-26T12:13:12Z</time>
      </trkpt>
      <trkpt lat="42.32014" lon="2.67643">
        <ele>899</ele>
        <time>2018-11-26T12:13:16Z</time>
      </trkpt>
      <trkpt lat="42.32012" lon="2.6763">
        <ele>900</ele>
        <time>2018-11-26T12:13:20Z</time>
      </trkpt>
      <trkpt lat="42.32006" lon="2.67621">
        <ele>898.1</ele>
        <time>2018-11-26T12:13:24Z</time>
      </trkpt>
      <trkpt lat="42.31997" lon="2.67622">
        <ele>898</ele>
        <time>2018-11-26T12:13:27Z</time>
      </trkpt>
      <trkpt lat="42.32006" lon="2.67619">
        <ele>897.7</ele>
        <time>2018-11-26T12:13:31Z</time>
      </trkpt>
      <trkpt lat="42.31998" lon="2.67612">
        <ele>893.1</ele>
        <time>2018-11-26T12:13:35Z</time>
      </trkpt>
      <trkpt lat="42.31993" lon="2.67622">
        <ele>891.1</ele>
        <time>2018-11-26T12:13:38Z</time>
      </trkpt>
      <trkpt lat="42.31986" lon="2.67614">
        <ele>888</ele>
        <time>2018-11-26T12:13:42Z</time>
      </trkpt>
      <trkpt lat="42.31983" lon="2.67602">
        <ele>886.8</ele>
        <time>2018-11-26T12:13:46Z</time>
      </trkpt>
      <trkpt lat="42.31986" lon="2.6759">
        <ele>885.3</ele>
        <time>2018-11-26T12:13:50Z</time>
      </trkpt>
      <trkpt lat="42.31987" lon="2.67577">
        <ele>882.1</ele>
        <time>2018-11-26T12:13:53Z</time>
      </trkpt>
      <trkpt lat="42.31982" lon="2.67566">
        <ele>880.2</ele>
        <time>2018-11-26T12:13:57Z</time>
      </trkpt>
      <trkpt lat="42.31978" lon="2.67555">
        <ele>878.2</ele>
        <time>2018-11-26T12:14:01Z</time>
      </trkpt>
      <trkpt lat="42.31977" lon="2.67542">
        <ele>876.7</ele>
        <time>2018-11-26T12:14:05Z</time>
      </trkpt>
      <trkpt lat="42.31977" lon="2.67529">
        <ele>875.8</ele>
        <time>2018-11-26T12:14:09Z</time>
      </trkpt>
      <trkpt lat="42.31973" lon="2.67516">
        <ele>876.5</ele>
        <time>2018-11-26T12:14:13Z</time>
      </trkpt>
      <trkpt lat="42.3197" lon="2.67504">
        <ele>878.1</ele>
        <time>2018-11-26T12:14:16Z</time>
      </trkpt>
      <trkpt lat="42.31971" lon="2.6749">
        <ele>879.5</ele>
        <time>2018-11-26T12:14:20Z</time>
      </trkpt>
      <trkpt lat="42.31968" lon="2.67478">
        <ele>881</ele>
        <time>2018-11-26T12:14:24Z</time>
      </trkpt>
      <trkpt lat="42.31966" lon="2.67465">
        <ele>883.8</ele>
        <time>2018-11-26T12:14:28Z</time>
      </trkpt>
      <trkpt lat="42.31969" lon="2.67452">
        <ele>886</ele>
        <time>2018-11-26T12:14:32Z</time>
      </trkpt>
      <trkpt lat="42.31968" lon="2.6744">
        <ele>890.8</ele>
        <time>2018-11-26T12:14:36Z</time>
      </trkpt>
      <trkpt lat="42.31969" lon="2.67427">
        <ele>893.5</ele>
        <time>2018-11-26T12:14:39Z</time>
      </trkpt>
      <trkpt lat="42.31967" lon="2.67415">
        <ele>896.5</ele>
        <time>2018-11-26T12:14:43Z</time>
      </trkpt>
      <trkpt lat="42.31962" lon="2.67404">
        <ele>899</ele>
        <time>2018-11-26T12:14:47Z</time>
      </trkpt>
      <trkpt lat="42.31959" lon="2.67391">
        <ele>902.5</ele>
        <time>2018-11-26T12:14:51Z</time>
      </trkpt>
      <trkpt lat="42.31958" lon="2.67378">
        <ele>904.8</ele>
        <time>2018-11-26T12:14:55Z</time>
      </trkpt>
      <trkpt lat="42.3196" lon="2.67366">
        <ele>905.2</ele>
        <time>2018-11-26T12:14:58Z</time>
      </trkpt>
      <trkpt lat="42.31954" lon="2.67355">
        <ele>907.5</ele>
        <time>2018-11-26T12:15:02Z</time>
      </trkpt>
      <trkpt lat="42.3195" lon="2.67342">
        <ele>910.5</ele>
        <time>2018-11-26T12:15:07Z</time>
      </trkpt>
      <trkpt lat="42.31953" lon="2.67329">
        <ele>912.5</ele>
        <time>2018-11-26T12:15:11Z</time>
      </trkpt>
      <trkpt lat="42.3195" lon="2.67317">
        <ele>915.5</ele>
        <time>2018-11-26T12:15:14Z</time>
      </trkpt>
      <trkpt lat="42.31944" lon="2.67306">
        <ele>918.1</ele>
        <time>2018-11-26T12:15:18Z</time>
      </trkpt>
      <trkpt lat="42.31941" lon="2.67292">
        <ele>920.6</ele>
        <time>2018-11-26T12:15:23Z</time>
      </trkpt>
      <trkpt lat="42.31941" lon="2.67279">
        <ele>919.4</ele>
        <time>2018-11-26T12:15:27Z</time>
      </trkpt>
      <trkpt lat="42.31937" lon="2.67267">
        <ele>918.5</ele>
        <time>2018-11-26T12:15:30Z</time>
      </trkpt>
      <trkpt lat="42.31939" lon="2.67255">
        <ele>917.7</ele>
        <time>2018-11-26T12:15:34Z</time>
      </trkpt>
      <trkpt lat="42.31934" lon="2.67243">
        <ele>919.1</ele>
        <time>2018-11-26T12:15:38Z</time>
      </trkpt>
      <trkpt lat="42.31933" lon="2.67231">
        <ele>920.1</ele>
        <time>2018-11-26T12:15:42Z</time>
      </trkpt>
      <trkpt lat="42.3193" lon="2.67218">
        <ele>920.6</ele>
        <time>2018-11-26T12:15:46Z</time>
      </trkpt>
      <trkpt lat="42.31928" lon="2.67206">
        <ele>920.2</ele>
        <time>2018-11-26T12:15:49Z</time>
      </trkpt>
      <trkpt lat="42.31928" lon="2.67193">
        <ele>918.9</ele>
        <time>2018-11-26T12:15:53Z</time>
      </trkpt>
      <trkpt lat="42.31927" lon="2.6718">
        <ele>916.5</ele>
        <time>2018-11-26T12:15:57Z</time>
      </trkpt>
      <trkpt lat="42.31918" lon="2.67176">
        <ele>914.8</ele>
        <time>2018-11-26T12:16:01Z</time>
      </trkpt>
      <trkpt lat="42.31911" lon="2.67167">
        <ele>916.7</ele>
        <time>2018-11-26T12:16:05Z</time>
      </trkpt>
      <trkpt lat="42.31909" lon="2.67155">
        <ele>917.2</ele>
        <time>2018-11-26T12:16:08Z</time>
      </trkpt>
      <trkpt lat="42.31903" lon="2.67143">
        <ele>917.5</ele>
        <time>2018-11-26T12:16:12Z</time>
      </trkpt>
      <trkpt lat="42.319" lon="2.67132">
        <ele>918</ele>
        <time>2018-11-26T12:16:16Z</time>
      </trkpt>
      <trkpt lat="42.319" lon="2.67117">
        <ele>918</ele>
        <time>2018-11-26T12:16:20Z</time>
      </trkpt>
      <trkpt lat="42.31904" lon="2.67106">
        <ele>920.5</ele>
        <time>2018-11-26T12:16:24Z</time>
      </trkpt>
      <trkpt lat="42.319" lon="2.67095">
        <ele>920.7</ele>
        <time>2018-11-26T12:16:28Z</time>
      </trkpt>
      <trkpt lat="42.31897" lon="2.67082">
        <ele>918.8</ele>
        <time>2018-11-26T12:16:32Z</time>
      </trkpt>
      <trkpt lat="42.31897" lon="2.67069">
        <ele>921.5</ele>
        <time>2018-11-26T12:16:36Z</time>
      </trkpt>
      <trkpt lat="42.31897" lon="2.67055">
        <ele>925.2</ele>
        <time>2018-11-26T12:16:40Z</time>
      </trkpt>
      <trkpt lat="42.31899" lon="2.67042">
        <ele>928.3</ele>
        <time>2018-11-26T12:16:44Z</time>
      </trkpt>
      <trkpt lat="42.31903" lon="2.67031">
        <ele>930.8</ele>
        <time>2018-11-26T12:16:47Z</time>
      </trkpt>
      <trkpt lat="42.31905" lon="2.67018">
        <ele>933.7</ele>
        <time>2018-11-26T12:16:51Z</time>
      </trkpt>
      <trkpt lat="42.31901" lon="2.67006">
        <ele>932.8</ele>
        <time>2018-11-26T12:16:55Z</time>
      </trkpt>
      <trkpt lat="42.31896" lon="2.66995">
        <ele>929.5</ele>
        <time>2018-11-26T12:16:59Z</time>
      </trkpt>
      <trkpt lat="42.31891" lon="2.66985">
        <ele>929.4</ele>
        <time>2018-11-26T12:17:03Z</time>
      </trkpt>
      <trkpt lat="42.31892" lon="2.66973">
        <ele>928.5</ele>
        <time>2018-11-26T12:17:06Z</time>
      </trkpt>
      <trkpt lat="42.31893" lon="2.6696">
        <ele>929.4</ele>
        <time>2018-11-26T12:17:10Z</time>
      </trkpt>
      <trkpt lat="42.31892" lon="2.66948">
        <ele>929.5</ele>
        <time>2018-11-26T12:17:14Z</time>
      </trkpt>
      <trkpt lat="42.31888" lon="2.66936">
        <ele>929.7</ele>
        <time>2018-11-26T12:17:18Z</time>
      </trkpt>
      <trkpt lat="42.31891" lon="2.66923">
        <ele>932</ele>
        <time>2018-11-26T12:17:22Z</time>
      </trkpt>
      <trkpt lat="42.31882" lon="2.66915">
        <ele>932.9</ele>
        <time>2018-11-26T12:17:26Z</time>
      </trkpt>
      <trkpt lat="42.31876" lon="2.66905">
        <ele>933.8</ele>
        <time>2018-11-26T12:17:30Z</time>
      </trkpt>
      <trkpt lat="42.31872" lon="2.66892">
        <ele>933.4</ele>
        <time>2018-11-26T12:17:34Z</time>
      </trkpt>
      <trkpt lat="42.31871" lon="2.66879">
        <ele>934.4</ele>
        <time>2018-11-26T12:17:38Z</time>
      </trkpt>
      <trkpt lat="42.31869" lon="2.66867">
        <ele>934.7</ele>
        <time>2018-11-26T12:17:42Z</time>
      </trkpt>
      <trkpt lat="42.3187" lon="2.66855">
        <ele>934.5</ele>
        <time>2018-11-26T12:17:45Z</time>
      </trkpt>
      <trkpt lat="42.3187" lon="2.66841">
        <ele>933.9</ele>
        <time>2018-11-26T12:17:49Z</time>
      </trkpt>
      <trkpt lat="42.31872" lon="2.66829">
        <ele>931.5</ele>
        <time>2018-11-26T12:17:53Z</time>
      </trkpt>
      <trkpt lat="42.31876" lon="2.66817">
        <ele>926.3</ele>
        <time>2018-11-26T12:17:57Z</time>
      </trkpt>
      <trkpt lat="42.31871" lon="2.66807">
        <ele>927</ele>
        <time>2018-11-26T12:18:01Z</time>
      </trkpt>
      <trkpt lat="42.31873" lon="2.66794">
        <ele>925.9</ele>
        <time>2018-11-26T12:18:04Z</time>
      </trkpt>
      <trkpt lat="42.31877" lon="2.66783">
        <ele>926.6</ele>
        <time>2018-11-26T12:18:08Z</time>
      </trkpt>
      <trkpt lat="42.31877" lon="2.6677">
        <ele>927.5</ele>
        <time>2018-11-26T12:18:12Z</time>
      </trkpt>
      <trkpt lat="42.31881" lon="2.66759">
        <ele>929</ele>
        <time>2018-11-26T12:18:15Z</time>
      </trkpt>
      <trkpt lat="42.31881" lon="2.66747">
        <ele>929.1</ele>
        <time>2018-11-26T12:18:19Z</time>
      </trkpt>
      <trkpt lat="42.3188" lon="2.66734">
        <ele>930.8</ele>
        <time>2018-11-26T12:18:23Z</time>
      </trkpt>
      <trkpt lat="42.3188" lon="2.66721">
        <ele>931.8</ele>
        <time>2018-11-26T12:18:27Z</time>
      </trkpt>
      <trkpt lat="42.31881" lon="2.66709">
        <ele>932.2</ele>
        <time>2018-11-26T12:18:30Z</time>
      </trkpt>
      <trkpt lat="42.31882" lon="2.66697">
        <ele>932.7</ele>
        <time>2018-11-26T12:18:34Z</time>
      </trkpt>
      <trkpt lat="42.31885" lon="2.66684">
        <ele>932.5</ele>
        <time>2018-11-26T12:18:38Z</time>
      </trkpt>
      <trkpt lat="42.31887" lon="2.66671">
        <ele>932.5</ele>
        <time>2018-11-26T12:18:42Z</time>
      </trkpt>
      <trkpt lat="42.31885" lon="2.66659">
        <ele>932.5</ele>
        <time>2018-11-26T12:18:45Z</time>
      </trkpt>
      <trkpt lat="42.31885" lon="2.66646">
        <ele>933</ele>
        <time>2018-11-26T12:18:49Z</time>
      </trkpt>
      <trkpt lat="42.31884" lon="2.66634">
        <ele>933.8</ele>
        <time>2018-11-26T12:18:53Z</time>
      </trkpt>
      <trkpt lat="42.31885" lon="2.66621">
        <ele>934.5</ele>
        <time>2018-11-26T12:18:57Z</time>
      </trkpt>
      <trkpt lat="42.31885" lon="2.66608">
        <ele>935.8</ele>
        <time>2018-11-26T12:19:01Z</time>
      </trkpt>
      <trkpt lat="42.31882" lon="2.66596">
        <ele>939.3</ele>
        <time>2018-11-26T12:19:04Z</time>
      </trkpt>
      <trkpt lat="42.31875" lon="2.66586">
        <ele>941.5</ele>
        <time>2018-11-26T12:19:08Z</time>
      </trkpt>
      <trkpt lat="42.31876" lon="2.66574">
        <ele>944</ele>
        <time>2018-11-26T12:19:12Z</time>
      </trkpt>
      <trkpt lat="42.31877" lon="2.66561">
        <ele>946.6</ele>
        <time>2018-11-26T12:19:16Z</time>
      </trkpt>
      <trkpt lat="42.31876" lon="2.66548">
        <ele>947.2</ele>
        <time>2018-11-26T12:19:20Z</time>
      </trkpt>
      <trkpt lat="42.31877" lon="2.66534">
        <ele>949.2</ele>
        <time>2018-11-26T12:19:24Z</time>
      </trkpt>
      <trkpt lat="42.31874" lon="2.66522">
        <ele>951.6</ele>
        <time>2018-11-26T12:19:28Z</time>
      </trkpt>
      <trkpt lat="42.31874" lon="2.6651">
        <ele>953.7</ele>
        <time>2018-11-26T12:19:31Z</time>
      </trkpt>
      <trkpt lat="42.31882" lon="2.66503">
        <ele>947.2</ele>
        <time>2018-11-26T12:19:35Z</time>
      </trkpt>
      <trkpt lat="42.3188" lon="2.66489">
        <ele>953.1</ele>
        <time>2018-11-26T12:19:39Z</time>
      </trkpt>
      <trkpt lat="42.31879" lon="2.66476">
        <ele>953.8</ele>
        <time>2018-11-26T12:19:43Z</time>
      </trkpt>
      <trkpt lat="42.31881" lon="2.66462">
        <ele>957.5</ele>
        <time>2018-11-26T12:19:47Z</time>
      </trkpt>
      <trkpt lat="42.31881" lon="2.6645">
        <ele>960.9</ele>
        <time>2018-11-26T12:19:51Z</time>
      </trkpt>
      <trkpt lat="42.31885" lon="2.66438">
        <ele>961.5</ele>
        <time>2018-11-26T12:19:55Z</time>
      </trkpt>
      <trkpt lat="42.31893" lon="2.66427">
        <ele>963</ele>
        <time>2018-11-26T12:19:59Z</time>
      </trkpt>
      <trkpt lat="42.31894" lon="2.66414">
        <ele>965.3</ele>
        <time>2018-11-26T12:20:03Z</time>
      </trkpt>
      <trkpt lat="42.31897" lon="2.66401">
        <ele>966.5</ele>
        <time>2018-11-26T12:20:07Z</time>
      </trkpt>
      <trkpt lat="42.31901" lon="2.6639">
        <ele>967.5</ele>
        <time>2018-11-26T12:20:11Z</time>
      </trkpt>
      <trkpt lat="42.319" lon="2.66377">
        <ele>970.8</ele>
        <time>2018-11-26T12:20:14Z</time>
      </trkpt>
      <trkpt lat="42.319" lon="2.66364">
        <ele>972.7</ele>
        <time>2018-11-26T12:20:18Z</time>
      </trkpt>
      <trkpt lat="42.31907" lon="2.66357">
        <ele>977.9</ele>
        <time>2018-11-26T12:20:22Z</time>
      </trkpt>
      <trkpt lat="42.31914" lon="2.66348">
        <ele>978.7</ele>
        <time>2018-11-26T12:20:26Z</time>
      </trkpt>
      <trkpt lat="42.31921" lon="2.6634">
        <ele>975.3</ele>
        <time>2018-11-26T12:20:29Z</time>
      </trkpt>
      <trkpt lat="42.3193" lon="2.6634">
        <ele>972.7</ele>
        <time>2018-11-26T12:20:33Z</time>
      </trkpt>
      <trkpt lat="42.31938" lon="2.66335">
        <ele>971.8</ele>
        <time>2018-11-26T12:20:37Z</time>
      </trkpt>
      <trkpt lat="42.31946" lon="2.66327">
        <ele>972</ele>
        <time>2018-11-26T12:20:41Z</time>
      </trkpt>
      <trkpt lat="42.31953" lon="2.66319">
        <ele>971.8</ele>
        <time>2018-11-26T12:20:44Z</time>
      </trkpt>
      <trkpt lat="42.31961" lon="2.66312">
        <ele>972.6</ele>
        <time>2018-11-26T12:20:48Z</time>
      </trkpt>
      <trkpt lat="42.31965" lon="2.66299">
        <ele>973.7</ele>
        <time>2018-11-26T12:20:52Z</time>
      </trkpt>
      <trkpt lat="42.31972" lon="2.66291">
        <ele>974.9</ele>
        <time>2018-11-26T12:20:56Z</time>
      </trkpt>
      <trkpt lat="42.31978" lon="2.66283">
        <ele>977.8</ele>
        <time>2018-11-26T12:21:00Z</time>
      </trkpt>
      <trkpt lat="42.31983" lon="2.66272">
        <ele>979.9</ele>
        <time>2018-11-26T12:21:03Z</time>
      </trkpt>
      <trkpt lat="42.31988" lon="2.6626">
        <ele>982.4</ele>
        <time>2018-11-26T12:21:07Z</time>
      </trkpt>
      <trkpt lat="42.31995" lon="2.66251">
        <ele>984.9</ele>
        <time>2018-11-26T12:21:11Z</time>
      </trkpt>
      <trkpt lat="42.32003" lon="2.66245">
        <ele>986.8</ele>
        <time>2018-11-26T12:21:15Z</time>
      </trkpt>
      <trkpt lat="42.32012" lon="2.66242">
        <ele>990</ele>
        <time>2018-11-26T12:21:19Z</time>
      </trkpt>
      <trkpt lat="42.3202" lon="2.66235">
        <ele>993.8</ele>
        <time>2018-11-26T12:21:22Z</time>
      </trkpt>
      <trkpt lat="42.32026" lon="2.66224">
        <ele>995.2</ele>
        <time>2018-11-26T12:21:26Z</time>
      </trkpt>
      <trkpt lat="42.32033" lon="2.66214">
        <ele>997.5</ele>
        <time>2018-11-26T12:21:31Z</time>
      </trkpt>
      <trkpt lat="42.3204" lon="2.66205">
        <ele>1000.6</ele>
        <time>2018-11-26T12:21:35Z</time>
      </trkpt>
      <trkpt lat="42.32049" lon="2.662">
        <ele>1002</ele>
        <time>2018-11-26T12:21:38Z</time>
      </trkpt>
      <trkpt lat="42.32057" lon="2.66195">
        <ele>1004</ele>
        <time>2018-11-26T12:21:42Z</time>
      </trkpt>
      <trkpt lat="42.32064" lon="2.66187">
        <ele>1005.9</ele>
        <time>2018-11-26T12:21:46Z</time>
      </trkpt>
      <trkpt lat="42.32072" lon="2.66181">
        <ele>1009.3</ele>
        <time>2018-11-26T12:21:49Z</time>
      </trkpt>
      <trkpt lat="42.32082" lon="2.66179">
        <ele>1012.5</ele>
        <time>2018-11-26T12:21:53Z</time>
      </trkpt>
      <trkpt lat="42.32092" lon="2.66176">
        <ele>1015.1</ele>
        <time>2018-11-26T12:21:57Z</time>
      </trkpt>
      <trkpt lat="42.32102" lon="2.66176">
        <ele>1016.8</ele>
        <time>2018-11-26T12:22:01Z</time>
      </trkpt>
      <trkpt lat="42.32111" lon="2.66179">
        <ele>1009.6</ele>
        <time>2018-11-26T12:22:05Z</time>
      </trkpt>
      <trkpt lat="42.32115" lon="2.6619">
        <ele>1019.3</ele>
        <time>2018-11-26T12:22:09Z</time>
      </trkpt>
      <trkpt lat="42.32121" lon="2.662">
        <ele>1018.9</ele>
        <time>2018-11-26T12:22:12Z</time>
      </trkpt>
      <trkpt lat="42.32118" lon="2.66188">
        <ele>1022.2</ele>
        <time>2018-11-26T12:22:16Z</time>
      </trkpt>
      <trkpt lat="42.32126" lon="2.66193">
        <ele>1026.1</ele>
        <time>2018-11-26T12:22:20Z</time>
      </trkpt>
      <trkpt lat="42.32132" lon="2.66183">
        <ele>1031.9</ele>
        <time>2018-11-26T12:22:24Z</time>
      </trkpt>
      <trkpt lat="42.3214" lon="2.66176">
        <ele>1038.3</ele>
        <time>2018-11-26T12:22:27Z</time>
      </trkpt>
      <trkpt lat="42.32134" lon="2.66167">
        <ele>1044.2</ele>
        <time>2018-11-26T12:22:31Z</time>
      </trkpt>
      <trkpt lat="42.32134" lon="2.66155">
        <ele>1047.3</ele>
        <time>2018-11-26T12:22:35Z</time>
      </trkpt>
      <trkpt lat="42.32135" lon="2.66142">
        <ele>1051.1</ele>
        <time>2018-11-26T12:22:38Z</time>
      </trkpt>
      <trkpt lat="42.32131" lon="2.6613">
        <ele>1055.1</ele>
        <time>2018-11-26T12:22:42Z</time>
      </trkpt>
      <trkpt lat="42.32125" lon="2.66121">
        <ele>1061.5</ele>
        <time>2018-11-26T12:22:46Z</time>
      </trkpt>
      <trkpt lat="42.3212" lon="2.66132">
        <ele>1065</ele>
        <time>2018-11-26T12:22:50Z</time>
      </trkpt>
      <trkpt lat="42.32111" lon="2.66129">
        <ele>1073.1</ele>
        <time>2018-11-26T12:22:53Z</time>
      </trkpt>
      <trkpt lat="42.32102" lon="2.66126">
        <ele>1080</ele>
        <time>2018-11-26T12:22:57Z</time>
      </trkpt>
      <trkpt lat="42.32091" lon="2.66123">
        <ele>1086.6</ele>
        <time>2018-11-26T12:23:01Z</time>
      </trkpt>
      <trkpt lat="42.32086" lon="2.66113">
        <ele>1088.6</ele>
        <time>2018-11-26T12:23:05Z</time>
      </trkpt>
      <trkpt lat="42.32077" lon="2.66115">
        <ele>1092.1</ele>
        <time>2018-11-26T12:23:09Z</time>
      </trkpt>
      <trkpt lat="42.32068" lon="2.66122">
        <ele>1093.3</ele>
        <time>2018-11-26T12:23:13Z</time>
      </trkpt>
      <trkpt lat="42.32063" lon="2.66132">
        <ele>1092</ele>
        <time>2018-11-26T12:23:17Z</time>
      </trkpt>
      <trkpt lat="42.32061" lon="2.66145">
        <ele>1090</ele>
        <time>2018-11-26T12:23:20Z</time>
      </trkpt>
      <trkpt lat="42.32052" lon="2.66144">
        <ele>1092.2</ele>
        <time>2018-11-26T12:23:24Z</time>
      </trkpt>
      <trkpt lat="42.32057" lon="2.66134">
        <ele>1100</ele>
        <time>2018-11-26T12:23:28Z</time>
      </trkpt>
      <trkpt lat="42.32056" lon="2.66122">
        <ele>1103.6</ele>
        <time>2018-11-26T12:23:31Z</time>
      </trkpt>
      <trkpt lat="42.3205" lon="2.66112">
        <ele>1115</ele>
        <time>2018-11-26T12:23:35Z</time>
      </trkpt>
      <trkpt lat="42.32043" lon="2.66104">
        <ele>1121</ele>
        <time>2018-11-26T12:23:39Z</time>
      </trkpt>
      <trkpt lat="42.32035" lon="2.6611">
        <ele>1122.5</ele>
        <time>2018-11-26T12:23:42Z</time>
      </trkpt>
      <trkpt lat="42.32028" lon="2.66118">
        <ele>1127.1</ele>
        <time>2018-11-26T12:23:46Z</time>
      </trkpt>
      <trkpt lat="42.3202" lon="2.6611">
        <ele>1134.9</ele>
        <time>2018-11-26T12:23:50Z</time>
      </trkpt>
      <trkpt lat="42.32011" lon="2.66106">
        <ele>1137.5</ele>
        <time>2018-11-26T12:23:54Z</time>
      </trkpt>
      <trkpt lat="42.3201" lon="2.66094">
        <ele>1140</ele>
        <time>2018-11-26T12:23:57Z</time>
      </trkpt>
      <trkpt lat="42.32012" lon="2.66082">
        <ele>1143.8</ele>
        <time>2018-11-26T12:24:01Z</time>
      </trkpt>
      <trkpt lat="42.3201" lon="2.6607">
        <ele>1142.1</ele>
        <time>2018-11-26T12:24:05Z</time>
      </trkpt>
      <trkpt lat="42.32009" lon="2.66057">
        <ele>1141.8</ele>
        <time>2018-11-26T12:24:09Z</time>
      </trkpt>
      <trkpt lat="42.32002" lon="2.66049">
        <ele>1143</ele>
        <time>2018-11-26T12:24:12Z</time>
      </trkpt>
      <trkpt lat="42.32001" lon="2.66035">
        <ele>1142.8</ele>
        <time>2018-11-26T12:24:16Z</time>
      </trkpt>
      <trkpt lat="42.31999" lon="2.66023">
        <ele>1144.1</ele>
        <time>2018-11-26T12:24:20Z</time>
      </trkpt>
      <trkpt lat="42.32002" lon="2.66011">
        <ele>1143.4</ele>
        <time>2018-11-26T12:24:24Z</time>
      </trkpt>
      <trkpt lat="42.32005" lon="2.65999">
        <ele>1140.6</ele>
        <time>2018-11-26T12:24:27Z</time>
      </trkpt>
      <trkpt lat="42.31999" lon="2.65991">
        <ele>1140.6</ele>
        <time>2018-11-26T12:24:31Z</time>
      </trkpt>
      <trkpt lat="42.31996" lon="2.65979">
        <ele>1142</ele>
        <time>2018-11-26T12:24:35Z</time>
      </trkpt>
      <trkpt lat="42.31991" lon="2.65968">
        <ele>1142.5</ele>
        <time>2018-11-26T12:24:39Z</time>
      </trkpt>
      <trkpt lat="42.31987" lon="2.65957">
        <ele>1142.3</ele>
        <time>2018-11-26T12:24:42Z</time>
      </trkpt>
      <trkpt lat="42.31987" lon="2.65944">
        <ele>1142.1</ele>
        <time>2018-11-26T12:24:46Z</time>
      </trkpt>
      <trkpt lat="42.31989" lon="2.65932">
        <ele>1141.5</ele>
        <time>2018-11-26T12:24:50Z</time>
      </trkpt>
      <trkpt lat="42.31987" lon="2.65919">
        <ele>1141.1</ele>
        <time>2018-11-26T12:24:54Z</time>
      </trkpt>
      <trkpt lat="42.31986" lon="2.65906">
        <ele>1141.1</ele>
        <time>2018-11-26T12:24:58Z</time>
      </trkpt>
      <trkpt lat="42.31981" lon="2.65895">
        <ele>1140.5</ele>
        <time>2018-11-26T12:25:01Z</time>
      </trkpt>
      <trkpt lat="42.31975" lon="2.65885">
        <ele>1141.1</ele>
        <time>2018-11-26T12:25:05Z</time>
      </trkpt>
      <trkpt lat="42.31969" lon="2.65875">
        <ele>1142.3</ele>
        <time>2018-11-26T12:25:09Z</time>
      </trkpt>
      <trkpt lat="42.3196" lon="2.65871">
        <ele>1143.4</ele>
        <time>2018-11-26T12:25:13Z</time>
      </trkpt>
      <trkpt lat="42.31951" lon="2.65873">
        <ele>1145.6</ele>
        <time>2018-11-26T12:25:16Z</time>
      </trkpt>
      <trkpt lat="42.31959" lon="2.65866">
        <ele>1141.4</ele>
        <time>2018-11-26T12:25:20Z</time>
      </trkpt>
      <trkpt lat="42.31966" lon="2.65856">
        <ele>1140.5</ele>
        <time>2018-11-26T12:25:24Z</time>
      </trkpt>
      <trkpt lat="42.31961" lon="2.65846">
        <ele>1142.1</ele>
        <time>2018-11-26T12:25:28Z</time>
      </trkpt>
      <trkpt lat="42.31956" lon="2.65835">
        <ele>1145.9</ele>
        <time>2018-11-26T12:25:32Z</time>
      </trkpt>
      <trkpt lat="42.31954" lon="2.65823">
        <ele>1143.1</ele>
        <time>2018-11-26T12:25:36Z</time>
      </trkpt>
      <trkpt lat="42.31956" lon="2.6581">
        <ele>1142</ele>
        <time>2018-11-26T12:25:39Z</time>
      </trkpt>
      <trkpt lat="42.31952" lon="2.65799">
        <ele>1142.6</ele>
        <time>2018-11-26T12:25:43Z</time>
      </trkpt>
      <trkpt lat="42.31951" lon="2.65787">
        <ele>1143</ele>
        <time>2018-11-26T12:25:47Z</time>
      </trkpt>
      <trkpt lat="42.31949" lon="2.65775">
        <ele>1144</ele>
        <time>2018-11-26T12:25:50Z</time>
      </trkpt>
      <trkpt lat="42.31946" lon="2.65763">
        <ele>1148.1</ele>
        <time>2018-11-26T12:25:54Z</time>
      </trkpt>
      <trkpt lat="42.31943" lon="2.65751">
        <ele>1149.5</ele>
        <time>2018-11-26T12:25:58Z</time>
      </trkpt>
      <trkpt lat="42.3194" lon="2.6574">
        <ele>1150.4</ele>
        <time>2018-11-26T12:26:01Z</time>
      </trkpt>
      <trkpt lat="42.31941" lon="2.65728">
        <ele>1150.3</ele>
        <time>2018-11-26T12:26:05Z</time>
      </trkpt>
      <trkpt lat="42.31943" lon="2.65715">
        <ele>1150.3</ele>
        <time>2018-11-26T12:26:09Z</time>
      </trkpt>
      <trkpt lat="42.31942" lon="2.65703">
        <ele>1149.5</ele>
        <time>2018-11-26T12:26:12Z</time>
      </trkpt>
      <trkpt lat="42.31948" lon="2.65693">
        <ele>1149.1</ele>
        <time>2018-11-26T12:26:16Z</time>
      </trkpt>
      <trkpt lat="42.31952" lon="2.65682">
        <ele>1149.6</ele>
        <time>2018-11-26T12:26:20Z</time>
      </trkpt>
      <trkpt lat="42.31949" lon="2.6567">
        <ele>1150.4</ele>
        <time>2018-11-26T12:26:24Z</time>
      </trkpt>
      <trkpt lat="42.3195" lon="2.65657">
        <ele>1152.1</ele>
        <time>2018-11-26T12:26:28Z</time>
      </trkpt>
      <trkpt lat="42.31953" lon="2.65644">
        <ele>1154.1</ele>
        <time>2018-11-26T12:26:31Z</time>
      </trkpt>
      <trkpt lat="42.31952" lon="2.65631">
        <ele>1156.3</ele>
        <time>2018-11-26T12:26:35Z</time>
      </trkpt>
      <trkpt lat="42.31946" lon="2.65623">
        <ele>1157.1</ele>
        <time>2018-11-26T12:26:39Z</time>
      </trkpt>
      <trkpt lat="42.31941" lon="2.65612">
        <ele>1157.8</ele>
        <time>2018-11-26T12:26:42Z</time>
      </trkpt>
      <trkpt lat="42.31934" lon="2.65603">
        <ele>1162.1</ele>
        <time>2018-11-26T12:26:46Z</time>
      </trkpt>
      <trkpt lat="42.31928" lon="2.65593">
        <ele>1164</ele>
        <time>2018-11-26T12:26:50Z</time>
      </trkpt>
      <trkpt lat="42.31924" lon="2.65582">
        <ele>1166.6</ele>
        <time>2018-11-26T12:26:54Z</time>
      </trkpt>
      <trkpt lat="42.3192" lon="2.6557">
        <ele>1169.3</ele>
        <time>2018-11-26T12:26:58Z</time>
      </trkpt>
      <trkpt lat="42.31917" lon="2.65558">
        <ele>1172.1</ele>
        <time>2018-11-26T12:27:02Z</time>
      </trkpt>
      <trkpt lat="42.31918" lon="2.65544">
        <ele>1170.9</ele>
        <time>2018-11-26T12:27:06Z</time>
      </trkpt>
      <trkpt lat="42.31925" lon="2.65535">
        <ele>1168.9</ele>
        <time>2018-11-26T12:27:09Z</time>
      </trkpt>
      <trkpt lat="42.31917" lon="2.65542">
        <ele>1167.4</ele>
        <time>2018-11-26T12:27:13Z</time>
      </trkpt>
      <trkpt lat="42.31909" lon="2.65535">
        <ele>1166.6</ele>
        <time>2018-11-26T12:27:17Z</time>
      </trkpt>
      <trkpt lat="42.31902" lon="2.65526">
        <ele>1166.2</ele>
        <time>2018-11-26T12:27:21Z</time>
      </trkpt>
      <trkpt lat="42.31903" lon="2.65514">
        <ele>1164.7</ele>
        <time>2018-11-26T12:27:24Z</time>
      </trkpt>
      <trkpt lat="42.31897" lon="2.65504">
        <ele>1163.6</ele>
        <time>2018-11-26T12:27:28Z</time>
      </trkpt>
      <trkpt lat="42.3189" lon="2.65495">
        <ele>1162.4</ele>
        <time>2018-11-26T12:27:32Z</time>
      </trkpt>
      <trkpt lat="42.31893" lon="2.65483">
        <ele>1160.9</ele>
        <time>2018-11-26T12:27:35Z</time>
      </trkpt>
      <trkpt lat="42.31892" lon="2.6547">
        <ele>1159.5</ele>
        <time>2018-11-26T12:27:39Z</time>
      </trkpt>
      <trkpt lat="42.31888" lon="2.65458">
        <ele>1159</ele>
        <time>2018-11-26T12:27:43Z</time>
      </trkpt>
      <trkpt lat="42.31896" lon="2.6545">
        <ele>1158.1</ele>
        <time>2018-11-26T12:27:47Z</time>
      </trkpt>
      <trkpt lat="42.31898" lon="2.65438">
        <ele>1157.4</ele>
        <time>2018-11-26T12:27:51Z</time>
      </trkpt>
      <trkpt lat="42.31893" lon="2.65424">
        <ele>1157</ele>
        <time>2018-11-26T12:27:55Z</time>
      </trkpt>
      <trkpt lat="42.31895" lon="2.65411">
        <ele>1155.9</ele>
        <time>2018-11-26T12:27:59Z</time>
      </trkpt>
      <trkpt lat="42.31897" lon="2.65399">
        <ele>1155</ele>
        <time>2018-11-26T12:28:03Z</time>
      </trkpt>
      <trkpt lat="42.31902" lon="2.65385">
        <ele>1154.8</ele>
        <time>2018-11-26T12:28:07Z</time>
      </trkpt>
      <trkpt lat="42.31901" lon="2.65372">
        <ele>1155.3</ele>
        <time>2018-11-26T12:28:11Z</time>
      </trkpt>
      <trkpt lat="42.31907" lon="2.65361">
        <ele>1157.4</ele>
        <time>2018-11-26T12:28:15Z</time>
      </trkpt>
      <trkpt lat="42.31914" lon="2.65352">
        <ele>1156</ele>
        <time>2018-11-26T12:28:19Z</time>
      </trkpt>
      <trkpt lat="42.31919" lon="2.65342">
        <ele>1159.6</ele>
        <time>2018-11-26T12:28:23Z</time>
      </trkpt>
      <trkpt lat="42.31927" lon="2.65334">
        <ele>1155.3</ele>
        <time>2018-11-26T12:28:27Z</time>
      </trkpt>
      <trkpt lat="42.31934" lon="2.65325">
        <ele>1159.1</ele>
        <time>2018-11-26T12:28:31Z</time>
      </trkpt>
      <trkpt lat="42.31933" lon="2.65312">
        <ele>1159.5</ele>
        <time>2018-11-26T12:28:35Z</time>
      </trkpt>
      <trkpt lat="42.3194" lon="2.65302">
        <ele>1158.9</ele>
        <time>2018-11-26T12:28:39Z</time>
      </trkpt>
      <trkpt lat="42.31938" lon="2.6529">
        <ele>1157.9</ele>
        <time>2018-11-26T12:28:42Z</time>
      </trkpt>
      <trkpt lat="42.31938" lon="2.65277">
        <ele>1157.7</ele>
        <time>2018-11-26T12:28:46Z</time>
      </trkpt>
      <trkpt lat="42.31939" lon="2.65264">
        <ele>1157</ele>
        <time>2018-11-26T12:28:50Z</time>
      </trkpt>
      <trkpt lat="42.31942" lon="2.65251">
        <ele>1156.9</ele>
        <time>2018-11-26T12:28:54Z</time>
      </trkpt>
      <trkpt lat="42.31951" lon="2.65252">
        <ele>1153.9</ele>
        <time>2018-11-26T12:28:58Z</time>
      </trkpt>
      <trkpt lat="42.31959" lon="2.65245">
        <ele>1153.7</ele>
        <time>2018-11-26T12:29:02Z</time>
      </trkpt>
      <trkpt lat="42.3195" lon="2.65249">
        <ele>1155.6</ele>
        <time>2018-11-26T12:29:05Z</time>
      </trkpt>
      <trkpt lat="42.31943" lon="2.65241">
        <ele>1155.9</ele>
        <time>2018-11-26T12:29:09Z</time>
      </trkpt>
      <trkpt lat="42.31936" lon="2.65232">
        <ele>1155</ele>
        <time>2018-11-26T12:29:13Z</time>
      </trkpt>
      <trkpt lat="42.31933" lon="2.6522">
        <ele>1154.1</ele>
        <time>2018-11-26T12:29:17Z</time>
      </trkpt>
      <trkpt lat="42.31932" lon="2.65207">
        <ele>1154.6</ele>
        <time>2018-11-26T12:29:21Z</time>
      </trkpt>
      <trkpt lat="42.31932" lon="2.65194">
        <ele>1153.6</ele>
        <time>2018-11-26T12:29:24Z</time>
      </trkpt>
      <trkpt lat="42.31928" lon="2.65182">
        <ele>1152.1</ele>
        <time>2018-11-26T12:29:28Z</time>
      </trkpt>
      <trkpt lat="42.31928" lon="2.65169">
        <ele>1152</ele>
        <time>2018-11-26T12:29:32Z</time>
      </trkpt>
      <trkpt lat="42.31926" lon="2.65157">
        <ele>1151.6</ele>
        <time>2018-11-26T12:29:36Z</time>
      </trkpt>
      <trkpt lat="42.31922" lon="2.65146">
        <ele>1151.1</ele>
        <time>2018-11-26T12:29:39Z</time>
      </trkpt>
      <trkpt lat="42.31916" lon="2.65137">
        <ele>1150.7</ele>
        <time>2018-11-26T12:29:43Z</time>
      </trkpt>
      <trkpt lat="42.31913" lon="2.65123">
        <ele>1149.9</ele>
        <time>2018-11-26T12:29:47Z</time>
      </trkpt>
      <trkpt lat="42.31909" lon="2.65111">
        <ele>1149</ele>
        <time>2018-11-26T12:29:51Z</time>
      </trkpt>
      <trkpt lat="42.3191" lon="2.65098">
        <ele>1147.7</ele>
        <time>2018-11-26T12:29:55Z</time>
      </trkpt>
      <trkpt lat="42.31908" lon="2.65086">
        <ele>1145</ele>
        <time>2018-11-26T12:29:59Z</time>
      </trkpt>
      <trkpt lat="42.31911" lon="2.65074">
        <ele>1143.5</ele>
        <time>2018-11-26T12:30:03Z</time>
      </trkpt>
      <trkpt lat="42.31913" lon="2.65062">
        <ele>1143.1</ele>
        <time>2018-11-26T12:30:06Z</time>
      </trkpt>
      <trkpt lat="42.31907" lon="2.65052">
        <ele>1143.1</ele>
        <time>2018-11-26T12:30:10Z</time>
      </trkpt>
      <trkpt lat="42.31903" lon="2.65041">
        <ele>1139.5</ele>
        <time>2018-11-26T12:30:14Z</time>
      </trkpt>
      <trkpt lat="42.31899" lon="2.65027">
        <ele>1139.4</ele>
        <time>2018-11-26T12:30:18Z</time>
      </trkpt>
      <trkpt lat="42.31896" lon="2.65015">
        <ele>1139</ele>
        <time>2018-11-26T12:30:22Z</time>
      </trkpt>
      <trkpt lat="42.31893" lon="2.65003">
        <ele>1138</ele>
        <time>2018-11-26T12:30:26Z</time>
      </trkpt>
      <trkpt lat="42.31897" lon="2.64991">
        <ele>1137.1</ele>
        <time>2018-11-26T12:30:30Z</time>
      </trkpt>
      <trkpt lat="42.31893" lon="2.64978">
        <ele>1136.9</ele>
        <time>2018-11-26T12:30:34Z</time>
      </trkpt>
      <trkpt lat="42.31886" lon="2.64971">
        <ele>1136.5</ele>
        <time>2018-11-26T12:30:37Z</time>
      </trkpt>
      <trkpt lat="42.31884" lon="2.64957">
        <ele>1136.5</ele>
        <time>2018-11-26T12:30:41Z</time>
      </trkpt>
      <trkpt lat="42.31883" lon="2.64945">
        <ele>1136.4</ele>
        <time>2018-11-26T12:30:45Z</time>
      </trkpt>
      <trkpt lat="42.31879" lon="2.64933">
        <ele>1135.9</ele>
        <time>2018-11-26T12:30:49Z</time>
      </trkpt>
      <trkpt lat="42.31871" lon="2.64923">
        <ele>1135.4</ele>
        <time>2018-11-26T12:30:53Z</time>
      </trkpt>
      <trkpt lat="42.31864" lon="2.64913">
        <ele>1134.7</ele>
        <time>2018-11-26T12:30:57Z</time>
      </trkpt>
      <trkpt lat="42.31857" lon="2.64905">
        <ele>1133.8</ele>
        <time>2018-11-26T12:31:01Z</time>
      </trkpt>
      <trkpt lat="42.31851" lon="2.64895">
        <ele>1133.1</ele>
        <time>2018-11-26T12:31:04Z</time>
      </trkpt>
      <trkpt lat="42.31848" lon="2.64883">
        <ele>1131</ele>
        <time>2018-11-26T12:31:08Z</time>
      </trkpt>
      <trkpt lat="42.31846" lon="2.64871">
        <ele>1129.4</ele>
        <time>2018-11-26T12:31:12Z</time>
      </trkpt>
      <trkpt lat="42.31843" lon="2.64859">
        <ele>1128.9</ele>
        <time>2018-11-26T12:31:16Z</time>
      </trkpt>
      <trkpt lat="42.31838" lon="2.64848">
        <ele>1127.6</ele>
        <time>2018-11-26T12:31:19Z</time>
      </trkpt>
      <trkpt lat="42.31837" lon="2.64835">
        <ele>1127.2</ele>
        <time>2018-11-26T12:31:23Z</time>
      </trkpt>
      <trkpt lat="42.31832" lon="2.64823">
        <ele>1124.9</ele>
        <time>2018-11-26T12:31:27Z</time>
      </trkpt>
      <trkpt lat="42.31836" lon="2.64812">
        <ele>1124.5</ele>
        <time>2018-11-26T12:31:31Z</time>
      </trkpt>
      <trkpt lat="42.31832" lon="2.648">
        <ele>1124.6</ele>
        <time>2018-11-26T12:31:35Z</time>
      </trkpt>
      <trkpt lat="42.3183" lon="2.64787">
        <ele>1124.4</ele>
        <time>2018-11-26T12:31:39Z</time>
      </trkpt>
      <trkpt lat="42.31828" lon="2.64775">
        <ele>1124.2</ele>
        <time>2018-11-26T12:31:42Z</time>
      </trkpt>
      <trkpt lat="42.31824" lon="2.64764">
        <ele>1123.6</ele>
        <time>2018-11-26T12:31:46Z</time>
      </trkpt>
      <trkpt lat="42.31817" lon="2.64755">
        <ele>1122.6</ele>
        <time>2018-11-26T12:31:50Z</time>
      </trkpt>
      <trkpt lat="42.31818" lon="2.64742">
        <ele>1122</ele>
        <time>2018-11-26T12:31:54Z</time>
      </trkpt>
      <trkpt lat="42.31823" lon="2.64731">
        <ele>1120.6</ele>
        <time>2018-11-26T12:31:58Z</time>
      </trkpt>
      <trkpt lat="42.31826" lon="2.64719">
        <ele>1120.4</ele>
        <time>2018-11-26T12:32:02Z</time>
      </trkpt>
      <trkpt lat="42.31825" lon="2.64706">
        <ele>1119.8</ele>
        <time>2018-11-26T12:32:05Z</time>
      </trkpt>
      <trkpt lat="42.31827" lon="2.64694">
        <ele>1119.6</ele>
        <time>2018-11-26T12:32:09Z</time>
      </trkpt>
      <trkpt lat="42.31826" lon="2.64681">
        <ele>1119</ele>
        <time>2018-11-26T12:32:13Z</time>
      </trkpt>
      <trkpt lat="42.31826" lon="2.64667">
        <ele>1118</ele>
        <time>2018-11-26T12:32:17Z</time>
      </trkpt>
      <trkpt lat="42.31823" lon="2.64655">
        <ele>1116.5</ele>
        <time>2018-11-26T12:32:21Z</time>
      </trkpt>
      <trkpt lat="42.31817" lon="2.64644">
        <ele>1115.4</ele>
        <time>2018-11-26T12:32:25Z</time>
      </trkpt>
      <trkpt lat="42.31819" lon="2.6463">
        <ele>1114</ele>
        <time>2018-11-26T12:32:29Z</time>
      </trkpt>
      <trkpt lat="42.31819" lon="2.64618">
        <ele>1113</ele>
        <time>2018-11-26T12:32:33Z</time>
      </trkpt>
      <trkpt lat="42.31816" lon="2.64607">
        <ele>1111.9</ele>
        <time>2018-11-26T12:32:36Z</time>
      </trkpt>
      <trkpt lat="42.31813" lon="2.64594">
        <ele>1111</ele>
        <time>2018-11-26T12:32:40Z</time>
      </trkpt>
      <trkpt lat="42.31806" lon="2.64585">
        <ele>1109.5</ele>
        <time>2018-11-26T12:32:44Z</time>
      </trkpt>
      <trkpt lat="42.31805" lon="2.64572">
        <ele>1109</ele>
        <time>2018-11-26T12:32:48Z</time>
      </trkpt>
      <trkpt lat="42.31801" lon="2.64561">
        <ele>1108.3</ele>
        <time>2018-11-26T12:32:52Z</time>
      </trkpt>
      <trkpt lat="42.31801" lon="2.64548">
        <ele>1108.1</ele>
        <time>2018-11-26T12:32:56Z</time>
      </trkpt>
      <trkpt lat="42.31801" lon="2.64535">
        <ele>1107.9</ele>
        <time>2018-11-26T12:32:59Z</time>
      </trkpt>
      <trkpt lat="42.318" lon="2.64522">
        <ele>1107.6</ele>
        <time>2018-11-26T12:33:03Z</time>
      </trkpt>
      <trkpt lat="42.31797" lon="2.64509">
        <ele>1107.5</ele>
        <time>2018-11-26T12:33:07Z</time>
      </trkpt>
      <trkpt lat="42.31793" lon="2.64497">
        <ele>1107.4</ele>
        <time>2018-11-26T12:33:11Z</time>
      </trkpt>
      <trkpt lat="42.31785" lon="2.64488">
        <ele>1107.7</ele>
        <time>2018-11-26T12:33:15Z</time>
      </trkpt>
      <trkpt lat="42.31778" lon="2.64479">
        <ele>1107.6</ele>
        <time>2018-11-26T12:33:19Z</time>
      </trkpt>
      <trkpt lat="42.31773" lon="2.64469">
        <ele>1107.4</ele>
        <time>2018-11-26T12:33:23Z</time>
      </trkpt>
      <trkpt lat="42.31765" lon="2.64461">
        <ele>1107.2</ele>
        <time>2018-11-26T12:33:27Z</time>
      </trkpt>
      <trkpt lat="42.3176" lon="2.6445">
        <ele>1107</ele>
        <time>2018-11-26T12:33:30Z</time>
      </trkpt>
      <trkpt lat="42.31751" lon="2.64444">
        <ele>1107.2</ele>
        <time>2018-11-26T12:33:34Z</time>
      </trkpt>
      <trkpt lat="42.31743" lon="2.6444">
        <ele>1106.9</ele>
        <time>2018-11-26T12:33:38Z</time>
      </trkpt>
      <trkpt lat="42.31739" lon="2.64429">
        <ele>1103.6</ele>
        <time>2018-11-26T12:33:42Z</time>
      </trkpt>
      <trkpt lat="42.31735" lon="2.64417">
        <ele>1101.4</ele>
        <time>2018-11-26T12:33:45Z</time>
      </trkpt>
      <trkpt lat="42.31735" lon="2.64405">
        <ele>1103.5</ele>
        <time>2018-11-26T12:33:49Z</time>
      </trkpt>
      <trkpt lat="42.31736" lon="2.64391">
        <ele>1102.8</ele>
        <time>2018-11-26T12:33:53Z</time>
      </trkpt>
      <trkpt lat="42.31735" lon="2.64379">
        <ele>1102.3</ele>
        <time>2018-11-26T12:33:57Z</time>
      </trkpt>
      <trkpt lat="42.31733" lon="2.64366">
        <ele>1102.4</ele>
        <time>2018-11-26T12:34:01Z</time>
      </trkpt>
      <trkpt lat="42.31735" lon="2.64354">
        <ele>1102.6</ele>
        <time>2018-11-26T12:34:04Z</time>
      </trkpt>
      <trkpt lat="42.31731" lon="2.64341">
        <ele>1102.9</ele>
        <time>2018-11-26T12:34:08Z</time>
      </trkpt>
      <trkpt lat="42.31726" lon="2.64329">
        <ele>1100.4</ele>
        <time>2018-11-26T12:34:12Z</time>
      </trkpt>
      <trkpt lat="42.31721" lon="2.64319">
        <ele>1101.5</ele>
        <time>2018-11-26T12:34:16Z</time>
      </trkpt>
      <trkpt lat="42.31713" lon="2.64313">
        <ele>1102</ele>
        <time>2018-11-26T12:34:20Z</time>
      </trkpt>
      <trkpt lat="42.31705" lon="2.64304">
        <ele>1102.5</ele>
        <time>2018-11-26T12:34:24Z</time>
      </trkpt>
      <trkpt lat="42.31698" lon="2.64296">
        <ele>1101.6</ele>
        <time>2018-11-26T12:34:28Z</time>
      </trkpt>
      <trkpt lat="42.31692" lon="2.64287">
        <ele>1102.6</ele>
        <time>2018-11-26T12:34:31Z</time>
      </trkpt>
      <trkpt lat="42.31689" lon="2.64275">
        <ele>1102.9</ele>
        <time>2018-11-26T12:34:35Z</time>
      </trkpt>
      <trkpt lat="42.3169" lon="2.64261">
        <ele>1103.8</ele>
        <time>2018-11-26T12:34:39Z</time>
      </trkpt>
      <trkpt lat="42.31685" lon="2.64248">
        <ele>1104.3</ele>
        <time>2018-11-26T12:34:43Z</time>
      </trkpt>
      <trkpt lat="42.31685" lon="2.64236">
        <ele>1105.4</ele>
        <time>2018-11-26T12:34:47Z</time>
      </trkpt>
      <trkpt lat="42.31687" lon="2.64223">
        <ele>1106.5</ele>
        <time>2018-11-26T12:34:51Z</time>
      </trkpt>
      <trkpt lat="42.31687" lon="2.6421">
        <ele>1108</ele>
        <time>2018-11-26T12:34:55Z</time>
      </trkpt>
      <trkpt lat="42.31688" lon="2.64197">
        <ele>1106.4</ele>
        <time>2018-11-26T12:34:59Z</time>
      </trkpt>
      <trkpt lat="42.31686" lon="2.64184">
        <ele>1106</ele>
        <time>2018-11-26T12:35:03Z</time>
      </trkpt>
      <trkpt lat="42.31688" lon="2.6417">
        <ele>1105.7</ele>
        <time>2018-11-26T12:35:07Z</time>
      </trkpt>
      <trkpt lat="42.31695" lon="2.64161">
        <ele>1104</ele>
        <time>2018-11-26T12:35:11Z</time>
      </trkpt>
      <trkpt lat="42.31699" lon="2.6415">
        <ele>1103.1</ele>
        <time>2018-11-26T12:35:14Z</time>
      </trkpt>
      <trkpt lat="42.31698" lon="2.64137">
        <ele>1102</ele>
        <time>2018-11-26T12:35:18Z</time>
      </trkpt>
      <trkpt lat="42.31697" lon="2.64125">
        <ele>1101</ele>
        <time>2018-11-26T12:35:22Z</time>
      </trkpt>
      <trkpt lat="42.31691" lon="2.64113">
        <ele>1100</ele>
        <time>2018-11-26T12:35:26Z</time>
      </trkpt>
      <trkpt lat="42.31689" lon="2.64101">
        <ele>1099</ele>
        <time>2018-11-26T12:35:30Z</time>
      </trkpt>
      <trkpt lat="42.31684" lon="2.64088">
        <ele>1097.8</ele>
        <time>2018-11-26T12:35:34Z</time>
      </trkpt>
      <trkpt lat="42.3168" lon="2.64077">
        <ele>1096.5</ele>
        <time>2018-11-26T12:35:38Z</time>
      </trkpt>
      <trkpt lat="42.31679" lon="2.64064">
        <ele>1095.8</ele>
        <time>2018-11-26T12:35:41Z</time>
      </trkpt>
      <trkpt lat="42.31677" lon="2.64051">
        <ele>1095.2</ele>
        <time>2018-11-26T12:35:45Z</time>
      </trkpt>
      <trkpt lat="42.31679" lon="2.64039">
        <ele>1094.1</ele>
        <time>2018-11-26T12:35:49Z</time>
      </trkpt>
      <trkpt lat="42.3167" lon="2.64035">
        <ele>1092.9</ele>
        <time>2018-11-26T12:35:53Z</time>
      </trkpt>
      <trkpt lat="42.3166" lon="2.64033">
        <ele>1092.1</ele>
        <time>2018-11-26T12:35:57Z</time>
      </trkpt>
      <trkpt lat="42.31651" lon="2.6403">
        <ele>1091</ele>
        <time>2018-11-26T12:36:01Z</time>
      </trkpt>
      <trkpt lat="42.31642" lon="2.6403">
        <ele>1089</ele>
        <time>2018-11-26T12:36:04Z</time>
      </trkpt>
      <trkpt lat="42.31632" lon="2.6403">
        <ele>1087</ele>
        <time>2018-11-26T12:36:08Z</time>
      </trkpt>
      <trkpt lat="42.31625" lon="2.64021">
        <ele>1086.1</ele>
        <time>2018-11-26T12:36:12Z</time>
      </trkpt>
      <trkpt lat="42.31619" lon="2.64011">
        <ele>1084.9</ele>
        <time>2018-11-26T12:36:16Z</time>
      </trkpt>
      <trkpt lat="42.31613" lon="2.64">
        <ele>1083.7</ele>
        <time>2018-11-26T12:36:20Z</time>
      </trkpt>
      <trkpt lat="42.31609" lon="2.63989">
        <ele>1082.1</ele>
        <time>2018-11-26T12:36:24Z</time>
      </trkpt>
      <trkpt lat="42.31602" lon="2.63981">
        <ele>1081.4</ele>
        <time>2018-11-26T12:36:27Z</time>
      </trkpt>
      <trkpt lat="42.31604" lon="2.64034">
        <ele>1098.4</ele>
        <time>2018-11-26T13:08:36Z</time>
      </trkpt>
      <trkpt lat="42.3161" lon="2.64021">
        <ele>1100</ele>
        <time>2018-11-26T13:08:40Z</time>
      </trkpt>
      <trkpt lat="42.31617" lon="2.6402">
        <ele>1100</ele>
        <time>2018-11-26T13:08:43Z</time>
      </trkpt>
      <trkpt lat="42.3162" lon="2.64019">
        <ele>1099.5</ele>
        <time>2018-11-26T13:08:44Z</time>
      </trkpt>
      <trkpt lat="42.31626" lon="2.64027">
        <ele>1097.1</ele>
        <time>2018-11-26T13:08:48Z</time>
      </trkpt>
      <trkpt lat="42.31645" lon="2.64029">
        <ele>1095.6</ele>
        <time>2018-11-26T13:08:55Z</time>
      </trkpt>
      <trkpt lat="42.31666" lon="2.64036">
        <ele>1093.7</ele>
        <time>2018-11-26T13:09:04Z</time>
      </trkpt>
      <trkpt lat="42.31672" lon="2.64037">
        <ele>1092.7</ele>
        <time>2018-11-26T13:09:06Z</time>
      </trkpt>
      <trkpt lat="42.31678" lon="2.64037">
        <ele>1092.8</ele>
        <time>2018-11-26T13:09:09Z</time>
      </trkpt>
      <trkpt lat="42.31679" lon="2.64038">
        <ele>1092.7</ele>
        <time>2018-11-26T13:09:09Z</time>
      </trkpt>
      <trkpt lat="42.31678" lon="2.6404">
        <ele>1094.7</ele>
        <time>2018-11-26T13:09:10Z</time>
      </trkpt>
      <trkpt lat="42.31678" lon="2.64038">
        <ele>1089.3</ele>
        <time>2018-11-26T13:09:10Z</time>
      </trkpt>
      <trkpt lat="42.31677" lon="2.64035">
        <ele>1088.8</ele>
        <time>2018-11-26T13:09:11Z</time>
      </trkpt>
      <trkpt lat="42.31675" lon="2.64033">
        <ele>1089.3</ele>
        <time>2018-11-26T13:09:12Z</time>
      </trkpt>
      <trkpt lat="42.31678" lon="2.64023">
        <ele>1091.8</ele>
        <time>2018-11-26T13:09:16Z</time>
      </trkpt>
      <trkpt lat="42.31683" lon="2.64006">
        <ele>1092.3</ele>
        <time>2018-11-26T13:09:21Z</time>
      </trkpt>
      <trkpt lat="42.31687" lon="2.63982">
        <ele>1095.7</ele>
        <time>2018-11-26T13:09:28Z</time>
      </trkpt>
      <trkpt lat="42.31686" lon="2.63962">
        <ele>1099.5</ele>
        <time>2018-11-26T13:09:34Z</time>
      </trkpt>
      <trkpt lat="42.31686" lon="2.63952">
        <ele>1105.8</ele>
        <time>2018-11-26T13:09:37Z</time>
      </trkpt>
      <trkpt lat="42.31693" lon="2.63932">
        <ele>1109.1</ele>
        <time>2018-11-26T13:09:44Z</time>
      </trkpt>
      <trkpt lat="42.31695" lon="2.63921">
        <ele>1110.5</ele>
        <time>2018-11-26T13:09:47Z</time>
      </trkpt>
      <trkpt lat="42.31699" lon="2.63906">
        <ele>1115.3</ele>
        <time>2018-11-26T13:09:52Z</time>
      </trkpt>
      <trkpt lat="42.31706" lon="2.63886">
        <ele>1117.7</ele>
        <time>2018-11-26T13:09:59Z</time>
      </trkpt>
      <trkpt lat="42.31707" lon="2.6388">
        <ele>1118.2</ele>
        <time>2018-11-26T13:10:00Z</time>
      </trkpt>
      <trkpt lat="42.31704" lon="2.63864">
        <ele>1120.6</ele>
        <time>2018-11-26T13:10:05Z</time>
      </trkpt>
      <trkpt lat="42.31705" lon="2.63857">
        <ele>1121.6</ele>
        <time>2018-11-26T13:10:07Z</time>
      </trkpt>
      <trkpt lat="42.31704" lon="2.63841">
        <ele>1125.5</ele>
        <time>2018-11-26T13:10:12Z</time>
      </trkpt>
      <trkpt lat="42.31704" lon="2.63829">
        <ele>1126.9</ele>
        <time>2018-11-26T13:10:16Z</time>
      </trkpt>
      <trkpt lat="42.31704" lon="2.63814">
        <ele>1127.9</ele>
        <time>2018-11-26T13:10:20Z</time>
      </trkpt>
      <trkpt lat="42.31704" lon="2.63812">
        <ele>1127.9</ele>
        <time>2018-11-26T13:10:21Z</time>
      </trkpt>
      <trkpt lat="42.31702" lon="2.63802">
        <ele>1130.2</ele>
        <time>2018-11-26T13:10:24Z</time>
      </trkpt>
      <trkpt lat="42.317" lon="2.63789">
        <ele>1131.2</ele>
        <time>2018-11-26T13:10:28Z</time>
      </trkpt>
      <trkpt lat="42.31697" lon="2.63772">
        <ele>1131.2</ele>
        <time>2018-11-26T13:10:33Z</time>
      </trkpt>
      <trkpt lat="42.31696" lon="2.63765">
        <ele>1133.1</ele>
        <time>2018-11-26T13:10:35Z</time>
      </trkpt>
      <trkpt lat="42.3169" lon="2.63742">
        <ele>1138</ele>
        <time>2018-11-26T13:10:42Z</time>
      </trkpt>
      <trkpt lat="42.31689" lon="2.63738">
        <ele>1138.8</ele>
        <time>2018-11-26T13:10:43Z</time>
      </trkpt>
      <trkpt lat="42.31688" lon="2.63737">
        <ele>1139.3</ele>
        <time>2018-11-26T13:10:44Z</time>
      </trkpt>
      <trkpt lat="42.31678" lon="2.63729">
        <ele>1143.7</ele>
        <time>2018-11-26T13:10:48Z</time>
      </trkpt>
      <trkpt lat="42.31674" lon="2.63728">
        <ele>1144.1</ele>
        <time>2018-11-26T13:10:50Z</time>
      </trkpt>
      <trkpt lat="42.31669" lon="2.63727">
        <ele>1143.2</ele>
        <time>2018-11-26T13:10:52Z</time>
      </trkpt>
      <trkpt lat="42.31661" lon="2.63712">
        <ele>1142.8</ele>
        <time>2018-11-26T13:10:58Z</time>
      </trkpt>
      <trkpt lat="42.3166" lon="2.6371">
        <ele>1142.7</ele>
        <time>2018-11-26T13:10:59Z</time>
      </trkpt>
      <trkpt lat="42.31654" lon="2.63704">
        <ele>1144.7</ele>
        <time>2018-11-26T13:11:02Z</time>
      </trkpt>
      <trkpt lat="42.31653" lon="2.63702">
        <ele>1145.2</ele>
        <time>2018-11-26T13:11:02Z</time>
      </trkpt>
      <trkpt lat="42.31644" lon="2.63681">
        <ele>1150</ele>
        <time>2018-11-26T13:11:10Z</time>
      </trkpt>
      <trkpt lat="42.31642" lon="2.63668">
        <ele>1150.4</ele>
        <time>2018-11-26T13:11:14Z</time>
      </trkpt>
      <trkpt lat="42.31643" lon="2.63639">
        <ele>1149</ele>
        <time>2018-11-26T13:11:22Z</time>
      </trkpt>
      <trkpt lat="42.3164" lon="2.63627">
        <ele>1149.4</ele>
        <time>2018-11-26T13:11:26Z</time>
      </trkpt>
      <trkpt lat="42.31637" lon="2.63623">
        <ele>1149.9</ele>
        <time>2018-11-26T13:11:28Z</time>
      </trkpt>
      <trkpt lat="42.31634" lon="2.63606">
        <ele>1153.7</ele>
        <time>2018-11-26T13:11:33Z</time>
      </trkpt>
      <trkpt lat="42.31635" lon="2.63594">
        <ele>1156.7</ele>
        <time>2018-11-26T13:11:36Z</time>
      </trkpt>
      <trkpt lat="42.3164" lon="2.63582">
        <ele>1158.1</ele>
        <time>2018-11-26T13:11:41Z</time>
      </trkpt>
      <trkpt lat="42.31641" lon="2.63579">
        <ele>1159.6</ele>
        <time>2018-11-26T13:11:41Z</time>
      </trkpt>
      <trkpt lat="42.31643" lon="2.63562">
        <ele>1165.8</ele>
        <time>2018-11-26T13:11:47Z</time>
      </trkpt>
      <trkpt lat="42.31643" lon="2.6355">
        <ele>1172.6</ele>
        <time>2018-11-26T13:11:50Z</time>
      </trkpt>
      <trkpt lat="42.31633" lon="2.6353">
        <ele>1176.3</ele>
        <time>2018-11-26T13:11:57Z</time>
      </trkpt>
      <trkpt lat="42.31631" lon="2.63527">
        <ele>1176.3</ele>
        <time>2018-11-26T13:11:59Z</time>
      </trkpt>
      <trkpt lat="42.31626" lon="2.6352">
        <ele>1177.3</ele>
        <time>2018-11-26T13:12:01Z</time>
      </trkpt>
      <trkpt lat="42.31625" lon="2.63518">
        <ele>1176.8</ele>
        <time>2018-11-26T13:12:02Z</time>
      </trkpt>
      <trkpt lat="42.31625" lon="2.63515">
        <ele>1177.3</ele>
        <time>2018-11-26T13:12:03Z</time>
      </trkpt>
      <trkpt lat="42.31626" lon="2.63518">
        <ele>1178.2</ele>
        <time>2018-11-26T13:12:04Z</time>
      </trkpt>
      <trkpt lat="42.31625" lon="2.63516">
        <ele>1175.4</ele>
        <time>2018-11-26T13:12:04Z</time>
      </trkpt>
      <trkpt lat="42.31624" lon="2.63511">
        <ele>1174.5</ele>
        <time>2018-11-26T13:12:06Z</time>
      </trkpt>
      <trkpt lat="42.31615" lon="2.63481">
        <ele>1174.5</ele>
        <time>2018-11-26T13:12:16Z</time>
      </trkpt>
      <trkpt lat="42.3161" lon="2.63473">
        <ele>1173.9</ele>
        <time>2018-11-26T13:12:19Z</time>
      </trkpt>
      <trkpt lat="42.31605" lon="2.63461">
        <ele>1175.4</ele>
        <time>2018-11-26T13:12:23Z</time>
      </trkpt>
      <trkpt lat="42.31603" lon="2.63451">
        <ele>1176.3</ele>
        <time>2018-11-26T13:12:26Z</time>
      </trkpt>
      <trkpt lat="42.31601" lon="2.63444">
        <ele>1176.8</ele>
        <time>2018-11-26T13:12:28Z</time>
      </trkpt>
      <trkpt lat="42.31597" lon="2.63428">
        <ele>1177.4</ele>
        <time>2018-11-26T13:12:33Z</time>
      </trkpt>
      <trkpt lat="42.31595" lon="2.63423">
        <ele>1177.4</ele>
        <time>2018-11-26T13:12:35Z</time>
      </trkpt>
      <trkpt lat="42.31591" lon="2.6339">
        <ele>1176.3</ele>
        <time>2018-11-26T13:12:45Z</time>
      </trkpt>
      <trkpt lat="42.31581" lon="2.63365">
        <ele>1181.6</ele>
        <time>2018-11-26T13:12:53Z</time>
      </trkpt>
      <trkpt lat="42.31562" lon="2.63349">
        <ele>1185.4</ele>
        <time>2018-11-26T13:13:02Z</time>
      </trkpt>
      <trkpt lat="42.31558" lon="2.63347">
        <ele>1186</ele>
        <time>2018-11-26T13:13:04Z</time>
      </trkpt>
      <trkpt lat="42.31546" lon="2.63335">
        <ele>1191.7</ele>
        <time>2018-11-26T13:13:10Z</time>
      </trkpt>
      <trkpt lat="42.31531" lon="2.63323">
        <ele>1199.5</ele>
        <time>2018-11-26T13:13:17Z</time>
      </trkpt>
      <trkpt lat="42.31523" lon="2.63319">
        <ele>1201.8</ele>
        <time>2018-11-26T13:13:20Z</time>
      </trkpt>
      <trkpt lat="42.31513" lon="2.63316">
        <ele>1205.7</ele>
        <time>2018-11-26T13:13:24Z</time>
      </trkpt>
      <trkpt lat="42.31508" lon="2.63304">
        <ele>1211.4</ele>
        <time>2018-11-26T13:13:28Z</time>
      </trkpt>
      <trkpt lat="42.31496" lon="2.63303">
        <ele>1218.7</ele>
        <time>2018-11-26T13:13:33Z</time>
      </trkpt>
      <trkpt lat="42.31489" lon="2.63303">
        <ele>1222.6</ele>
        <time>2018-11-26T13:13:36Z</time>
      </trkpt>
      <trkpt lat="42.31486" lon="2.63301">
        <ele>1224.5</ele>
        <time>2018-11-26T13:13:37Z</time>
      </trkpt>
      <trkpt lat="42.31483" lon="2.633">
        <ele>1226.4</ele>
        <time>2018-11-26T13:13:39Z</time>
      </trkpt>
      <trkpt lat="42.31479" lon="2.63289">
        <ele>1230.6</ele>
        <time>2018-11-26T13:13:43Z</time>
      </trkpt>
      <trkpt lat="42.31476" lon="2.63285">
        <ele>1234</ele>
        <time>2018-11-26T13:13:44Z</time>
      </trkpt>
      <trkpt lat="42.31472" lon="2.63275">
        <ele>1237.5</ele>
        <time>2018-11-26T13:13:48Z</time>
      </trkpt>
      <trkpt lat="42.31471" lon="2.63266">
        <ele>1240.7</ele>
        <time>2018-11-26T13:13:50Z</time>
      </trkpt>
      <trkpt lat="42.31464" lon="2.63264">
        <ele>1245</ele>
        <time>2018-11-26T13:13:53Z</time>
      </trkpt>
      <trkpt lat="42.31462" lon="2.63273">
        <ele>1248.9</ele>
        <time>2018-11-26T13:13:56Z</time>
      </trkpt>
      <trkpt lat="42.31456" lon="2.63275">
        <ele>1252.8</ele>
        <time>2018-11-26T13:13:58Z</time>
      </trkpt>
      <trkpt lat="42.31448" lon="2.63284">
        <ele>1256.6</ele>
        <time>2018-11-26T13:14:03Z</time>
      </trkpt>
      <trkpt lat="42.31447" lon="2.63285">
        <ele>1258.1</ele>
        <time>2018-11-26T13:14:03Z</time>
      </trkpt>
      <trkpt lat="42.3144" lon="2.63287">
        <ele>1261.4</ele>
        <time>2018-11-26T13:14:06Z</time>
      </trkpt>
      <trkpt lat="42.31433" lon="2.63278">
        <ele>1266.2</ele>
        <time>2018-11-26T13:14:10Z</time>
      </trkpt>
      <trkpt lat="42.31425" lon="2.63266">
        <ele>1270</ele>
        <time>2018-11-26T13:14:15Z</time>
      </trkpt>
      <trkpt lat="42.31416" lon="2.63261">
        <ele>1275.3</ele>
        <time>2018-11-26T13:14:18Z</time>
      </trkpt>
      <trkpt lat="42.31411" lon="2.63256">
        <ele>1278.2</ele>
        <time>2018-11-26T13:14:21Z</time>
      </trkpt>
      <trkpt lat="42.31407" lon="2.63253">
        <ele>1281.6</ele>
        <time>2018-11-26T13:14:23Z</time>
      </trkpt>
      <trkpt lat="42.314" lon="2.63241">
        <ele>1288.4</ele>
        <time>2018-11-26T13:14:27Z</time>
      </trkpt>
      <trkpt lat="42.31391" lon="2.63238">
        <ele>1290.7</ele>
        <time>2018-11-26T13:14:31Z</time>
      </trkpt>
      <trkpt lat="42.31388" lon="2.63234">
        <ele>1292.6</ele>
        <time>2018-11-26T13:14:33Z</time>
      </trkpt>
      <trkpt lat="42.31378" lon="2.63222">
        <ele>1298.4</ele>
        <time>2018-11-26T13:14:38Z</time>
      </trkpt>
      <trkpt lat="42.31373" lon="2.63218">
        <ele>1300.8</ele>
        <time>2018-11-26T13:14:41Z</time>
      </trkpt>
      <trkpt lat="42.31364" lon="2.63209">
        <ele>1306.1</ele>
        <time>2018-11-26T13:14:45Z</time>
      </trkpt>
      <trkpt lat="42.31355" lon="2.63205">
        <ele>1308.6</ele>
        <time>2018-11-26T13:14:49Z</time>
      </trkpt>
      <trkpt lat="42.31353" lon="2.63199">
        <ele>1309.6</ele>
        <time>2018-11-26T13:14:51Z</time>
      </trkpt>
      <trkpt lat="42.31342" lon="2.63178">
        <ele>1314.8</ele>
        <time>2018-11-26T13:14:58Z</time>
      </trkpt>
      <trkpt lat="42.31339" lon="2.63173">
        <ele>1316.2</ele>
        <time>2018-11-26T13:15:00Z</time>
      </trkpt>
      <trkpt lat="42.31337" lon="2.63171">
        <ele>1317.1</ele>
        <time>2018-11-26T13:15:01Z</time>
      </trkpt>
      <trkpt lat="42.31313" lon="2.63161">
        <ele>1318.1</ele>
        <time>2018-11-26T13:15:11Z</time>
      </trkpt>
      <trkpt lat="42.31303" lon="2.63144">
        <ele>1321.1</ele>
        <time>2018-11-26T13:15:18Z</time>
      </trkpt>
      <trkpt lat="42.31299" lon="2.63139">
        <ele>1323.4</ele>
        <time>2018-11-26T13:15:20Z</time>
      </trkpt>
      <trkpt lat="42.31289" lon="2.63134">
        <ele>1324.8</ele>
        <time>2018-11-26T13:15:24Z</time>
      </trkpt>
      <trkpt lat="42.31276" lon="2.63126">
        <ele>1281.1</ele>
        <time>2018-11-26T13:15:30Z</time>
      </trkpt>
      <trkpt lat="42.31289" lon="2.63129">
        <ele>1334.1</ele>
        <time>2018-11-26T13:15:35Z</time>
      </trkpt>
      <trkpt lat="42.31289" lon="2.63129">
        <ele>1336</ele>
        <time>2018-11-26T13:15:35Z</time>
      </trkpt>
      <trkpt lat="42.31288" lon="2.63126">
        <ele>1337.9</ele>
        <time>2018-11-26T13:15:36Z</time>
      </trkpt>
      <trkpt lat="42.31287" lon="2.63126">
        <ele>1336</ele>
        <time>2018-11-26T13:15:36Z</time>
      </trkpt>
      <trkpt lat="42.31288" lon="2.63126">
        <ele>1337.9</ele>
        <time>2018-11-26T13:15:37Z</time>
      </trkpt>
      <trkpt lat="42.31288" lon="2.63127">
        <ele>1337.8</ele>
        <time>2018-11-26T13:15:38Z</time>
      </trkpt>
      <trkpt lat="42.31287" lon="2.63128">
        <ele>1337.8</ele>
        <time>2018-11-26T13:15:38Z</time>
      </trkpt>
      <trkpt lat="42.31287" lon="2.63128">
        <ele>1336</ele>
        <time>2018-11-26T13:15:38Z</time>
      </trkpt>
      <trkpt lat="42.31286" lon="2.63126">
        <ele>1336</ele>
        <time>2018-11-26T13:15:39Z</time>
      </trkpt>
      <trkpt lat="42.31286" lon="2.6313">
        <ele>1337.3</ele>
        <time>2018-11-26T13:15:40Z</time>
      </trkpt>
      <trkpt lat="42.31288" lon="2.63129">
        <ele>1335.9</ele>
        <time>2018-11-26T13:15:41Z</time>
      </trkpt>
      <trkpt lat="42.31286" lon="2.63124">
        <ele>1336.5</ele>
        <time>2018-11-26T13:15:43Z</time>
      </trkpt>
      <trkpt lat="42.31285" lon="2.63129">
        <ele>1335.4</ele>
        <time>2018-11-26T13:15:44Z</time>
      </trkpt>
      <trkpt lat="42.31286" lon="2.63127">
        <ele>1335.9</ele>
        <time>2018-11-26T13:15:45Z</time>
      </trkpt>
      <trkpt lat="42.31287" lon="2.63128">
        <ele>1337.4</ele>
        <time>2018-11-26T13:15:45Z</time>
      </trkpt>
      <trkpt lat="42.31287" lon="2.63129">
        <ele>1337.4</ele>
        <time>2018-11-26T13:15:46Z</time>
      </trkpt>
      <trkpt lat="42.31288" lon="2.63127">
        <ele>1334.6</ele>
        <time>2018-11-26T13:15:47Z</time>
      </trkpt>
      <trkpt lat="42.31287" lon="2.63126">
        <ele>1335.9</ele>
        <time>2018-11-26T13:15:47Z</time>
      </trkpt>
      <trkpt lat="42.31286" lon="2.63128">
        <ele>1336.9</ele>
        <time>2018-11-26T13:15:48Z</time>
      </trkpt>
      <trkpt lat="42.31286" lon="2.63127">
        <ele>1336.4</ele>
        <time>2018-11-26T13:15:48Z</time>
      </trkpt>
      <trkpt lat="42.31285" lon="2.63128">
        <ele>1337</ele>
        <time>2018-11-26T13:15:48Z</time>
      </trkpt>
      <trkpt lat="42.31285" lon="2.63126">
        <ele>1336</ele>
        <time>2018-11-26T13:15:49Z</time>
      </trkpt>
      <trkpt lat="42.31285" lon="2.63127">
        <ele>1336</ele>
        <time>2018-11-26T13:15:49Z</time>
      </trkpt>
      <trkpt lat="42.31284" lon="2.63129">
        <ele>1336.5</ele>
        <time>2018-11-26T13:15:50Z</time>
      </trkpt>
      <trkpt lat="42.31285" lon="2.63129">
        <ele>1336.9</ele>
        <time>2018-11-26T13:15:50Z</time>
      </trkpt>
      <trkpt lat="42.31285" lon="2.63128">
        <ele>1336.4</ele>
        <time>2018-11-26T13:15:50Z</time>
      </trkpt>
      <trkpt lat="42.31285" lon="2.63129">
        <ele>1337.4</ele>
        <time>2018-11-26T13:15:51Z</time>
      </trkpt>
      <trkpt lat="42.31286" lon="2.63127">
        <ele>1338.3</ele>
        <time>2018-11-26T13:15:51Z</time>
      </trkpt>
      <trkpt lat="42.31286" lon="2.63124">
        <ele>1332.5</ele>
        <time>2018-11-26T13:15:52Z</time>
      </trkpt>
      <trkpt lat="42.31287" lon="2.63126">
        <ele>1333</ele>
        <time>2018-11-26T13:15:53Z</time>
      </trkpt>
      <trkpt lat="42.31286" lon="2.63124">
        <ele>1334.5</ele>
        <time>2018-11-26T13:15:54Z</time>
      </trkpt>
      <trkpt lat="42.31284" lon="2.63125">
        <ele>1333.6</ele>
        <time>2018-11-26T13:15:55Z</time>
      </trkpt>
      <trkpt lat="42.31283" lon="2.6313">
        <ele>1333.1</ele>
        <time>2018-11-26T13:15:56Z</time>
      </trkpt>
      <trkpt lat="42.31291" lon="2.63138">
        <ele>1332</ele>
        <time>2018-11-26T13:16:00Z</time>
      </trkpt>
      <trkpt lat="42.31298" lon="2.63146">
        <ele>1329.3</ele>
        <time>2018-11-26T13:16:04Z</time>
      </trkpt>
      <trkpt lat="42.31306" lon="2.63157">
        <ele>1323.4</ele>
        <time>2018-11-26T13:16:09Z</time>
      </trkpt>
      <trkpt lat="42.31319" lon="2.63169">
        <ele>1319.7</ele>
        <time>2018-11-26T13:16:15Z</time>
      </trkpt>
      <trkpt lat="42.31337" lon="2.63174">
        <ele>1315.8</ele>
        <time>2018-11-26T13:16:22Z</time>
      </trkpt>
      <trkpt lat="42.31342" lon="2.63185">
        <ele>1316.8</ele>
        <time>2018-11-26T13:16:26Z</time>
      </trkpt>
      <trkpt lat="42.31349" lon="2.63198">
        <ele>1314.4</ele>
        <time>2018-11-26T13:16:30Z</time>
      </trkpt>
      <trkpt lat="42.31354" lon="2.63211">
        <ele>1311.9</ele>
        <time>2018-11-26T13:16:35Z</time>
      </trkpt>
      <trkpt lat="42.31362" lon="2.63217">
        <ele>1307.5</ele>
        <time>2018-11-26T13:16:39Z</time>
      </trkpt>
      <trkpt lat="42.31368" lon="2.63218">
        <ele>1304.7</ele>
        <time>2018-11-26T13:16:41Z</time>
      </trkpt>
      <trkpt lat="42.31376" lon="2.63227">
        <ele>1299.8</ele>
        <time>2018-11-26T13:16:45Z</time>
      </trkpt>
      <trkpt lat="42.31386" lon="2.63239">
        <ele>1297.5</ele>
        <time>2018-11-26T13:16:50Z</time>
      </trkpt>
      <trkpt lat="42.31391" lon="2.63246">
        <ele>1294.1</ele>
        <time>2018-11-26T13:16:53Z</time>
      </trkpt>
      <trkpt lat="42.31395" lon="2.63244">
        <ele>1291.8</ele>
        <time>2018-11-26T13:16:55Z</time>
      </trkpt>
      <trkpt lat="42.314" lon="2.63249">
        <ele>1287</ele>
        <time>2018-11-26T13:16:58Z</time>
      </trkpt>
      <trkpt lat="42.31405" lon="2.63258">
        <ele>1282.5</ele>
        <time>2018-11-26T13:17:01Z</time>
      </trkpt>
      <trkpt lat="42.31408" lon="2.63262">
        <ele>1279.7</ele>
        <time>2018-11-26T13:17:03Z</time>
      </trkpt>
      <trkpt lat="42.31416" lon="2.63268">
        <ele>1276.8</ele>
        <time>2018-11-26T13:17:06Z</time>
      </trkpt>
      <trkpt lat="42.31421" lon="2.6327">
        <ele>1272.9</ele>
        <time>2018-11-26T13:17:08Z</time>
      </trkpt>
      <trkpt lat="42.31428" lon="2.63274">
        <ele>1268.1</ele>
        <time>2018-11-26T13:17:11Z</time>
      </trkpt>
      <trkpt lat="42.31432" lon="2.63283">
        <ele>1266.2</ele>
        <time>2018-11-26T13:17:14Z</time>
      </trkpt>
      <trkpt lat="42.31434" lon="2.63283">
        <ele>1266.2</ele>
        <time>2018-11-26T13:17:15Z</time>
      </trkpt>
      <trkpt lat="42.31432" lon="2.63283">
        <ele>1265.2</ele>
        <time>2018-11-26T13:17:16Z</time>
      </trkpt>
      <trkpt lat="42.31432" lon="2.63283">
        <ele>1265.8</ele>
        <time>2018-11-26T13:17:16Z</time>
      </trkpt>
      <trkpt lat="42.31435" lon="2.63282">
        <ele>1267.3</ele>
        <time>2018-11-26T13:17:17Z</time>
      </trkpt>
      <trkpt lat="42.31435" lon="2.63282">
        <ele>1269.1</ele>
        <time>2018-11-26T13:17:17Z</time>
      </trkpt>
      <trkpt lat="42.31436" lon="2.63284">
        <ele>1267.6</ele>
        <time>2018-11-26T13:17:18Z</time>
      </trkpt>
      <trkpt lat="42.31435" lon="2.63285">
        <ele>1266.7</ele>
        <time>2018-11-26T13:17:18Z</time>
      </trkpt>
      <trkpt lat="42.31437" lon="2.63286">
        <ele>1262</ele>
        <time>2018-11-26T13:17:19Z</time>
      </trkpt>
      <trkpt lat="42.3144" lon="2.63289">
        <ele>1256.1</ele>
        <time>2018-11-26T13:17:21Z</time>
      </trkpt>
      <trkpt lat="42.31447" lon="2.63284">
        <ele>1253.8</ele>
        <time>2018-11-26T13:17:24Z</time>
      </trkpt>
      <trkpt lat="42.31454" lon="2.63278">
        <ele>1251.3</ele>
        <time>2018-11-26T13:17:27Z</time>
      </trkpt>
      <trkpt lat="42.31459" lon="2.63275">
        <ele>1247.9</ele>
        <time>2018-11-26T13:17:29Z</time>
      </trkpt>
      <trkpt lat="42.31461" lon="2.63269">
        <ele>1244.6</ele>
        <time>2018-11-26T13:17:32Z</time>
      </trkpt>
      <trkpt lat="42.31467" lon="2.63266">
        <ele>1239.8</ele>
        <time>2018-11-26T13:17:34Z</time>
      </trkpt>
      <trkpt lat="42.31468" lon="2.63276">
        <ele>1237</ele>
        <time>2018-11-26T13:17:37Z</time>
      </trkpt>
      <trkpt lat="42.31471" lon="2.63283">
        <ele>1233.5</ele>
        <time>2018-11-26T13:17:39Z</time>
      </trkpt>
      <trkpt lat="42.31473" lon="2.63291">
        <ele>1229.8</ele>
        <time>2018-11-26T13:17:42Z</time>
      </trkpt>
      <trkpt lat="42.31477" lon="2.63295">
        <ele>1224.5</ele>
        <time>2018-11-26T13:17:44Z</time>
      </trkpt>
      <trkpt lat="42.31483" lon="2.63303">
        <ele>1223</ele>
        <time>2018-11-26T13:17:47Z</time>
      </trkpt>
      <trkpt lat="42.31485" lon="2.63311">
        <ele>1215.2</ele>
        <time>2018-11-26T13:17:50Z</time>
      </trkpt>
      <trkpt lat="42.31495" lon="2.63306">
        <ele>1210.5</ele>
        <time>2018-11-26T13:17:54Z</time>
      </trkpt>
      <trkpt lat="42.31502" lon="2.63306">
        <ele>1209.1</ele>
        <time>2018-11-26T13:17:57Z</time>
      </trkpt>
      <trkpt lat="42.31503" lon="2.63321">
        <ele>1206.2</ele>
        <time>2018-11-26T13:18:01Z</time>
      </trkpt>
      <trkpt lat="42.31512" lon="2.63325">
        <ele>1203.2</ele>
        <time>2018-11-26T13:18:05Z</time>
      </trkpt>
      <trkpt lat="42.31522" lon="2.63326">
        <ele>1200.3</ele>
        <time>2018-11-26T13:18:09Z</time>
      </trkpt>
      <trkpt lat="42.31529" lon="2.63334">
        <ele>1196.6</ele>
        <time>2018-11-26T13:18:13Z</time>
      </trkpt>
      <trkpt lat="42.31533" lon="2.63338">
        <ele>1193.2</ele>
        <time>2018-11-26T13:18:15Z</time>
      </trkpt>
      <trkpt lat="42.31544" lon="2.63348">
        <ele>1189.9</ele>
        <time>2018-11-26T13:18:20Z</time>
      </trkpt>
      <trkpt lat="42.31554" lon="2.63357">
        <ele>1187</ele>
        <time>2018-11-26T13:18:25Z</time>
      </trkpt>
      <trkpt lat="42.31561" lon="2.63361">
        <ele>1183.6</ele>
        <time>2018-11-26T13:18:28Z</time>
      </trkpt>
      <trkpt lat="42.31571" lon="2.63371">
        <ele>1182.1</ele>
        <time>2018-11-26T13:18:33Z</time>
      </trkpt>
      <trkpt lat="42.3158" lon="2.63373">
        <ele>1181.2</ele>
        <time>2018-11-26T13:18:36Z</time>
      </trkpt>
      <trkpt lat="42.3158" lon="2.63375">
        <ele>1176.3</ele>
        <time>2018-11-26T13:18:37Z</time>
      </trkpt>
      <trkpt lat="42.31581" lon="2.63373">
        <ele>1176.4</ele>
        <time>2018-11-26T13:18:37Z</time>
      </trkpt>
      <trkpt lat="42.31581" lon="2.63375">
        <ele>1179.2</ele>
        <time>2018-11-26T13:18:38Z</time>
      </trkpt>
      <trkpt lat="42.31585" lon="2.63382">
        <ele>1176.8</ele>
        <time>2018-11-26T13:18:41Z</time>
      </trkpt>
      <trkpt lat="42.31597" lon="2.63409">
        <ele>1173</ele>
        <time>2018-11-26T13:18:50Z</time>
      </trkpt>
      <trkpt lat="42.31596" lon="2.63427">
        <ele>1172</ele>
        <time>2018-11-26T13:18:55Z</time>
      </trkpt>
      <trkpt lat="42.31599" lon="2.63437">
        <ele>1171</ele>
        <time>2018-11-26T13:18:58Z</time>
      </trkpt>
      <trkpt lat="42.31603" lon="2.63455">
        <ele>1169.1</ele>
        <time>2018-11-26T13:19:04Z</time>
      </trkpt>
      <trkpt lat="42.31611" lon="2.63481">
        <ele>1168.6</ele>
        <time>2018-11-26T13:19:12Z</time>
      </trkpt>
      <trkpt lat="42.31618" lon="2.635">
        <ele>1167.2</ele>
        <time>2018-11-26T13:19:19Z</time>
      </trkpt>
      <trkpt lat="42.31625" lon="2.63521">
        <ele>1166.2</ele>
        <time>2018-11-26T13:19:25Z</time>
      </trkpt>
      <trkpt lat="42.31626" lon="2.63526">
        <ele>1164.9</ele>
        <time>2018-11-26T13:19:27Z</time>
      </trkpt>
      <trkpt lat="42.31635" lon="2.6354">
        <ele>1159.6</ele>
        <time>2018-11-26T13:19:32Z</time>
      </trkpt>
      <trkpt lat="42.31635" lon="2.63542">
        <ele>1157.7</ele>
        <time>2018-11-26T13:19:33Z</time>
      </trkpt>
      <trkpt lat="42.31629" lon="2.63557">
        <ele>1144.7</ele>
        <time>2018-11-26T13:19:38Z</time>
      </trkpt>
      <trkpt lat="42.31632" lon="2.63579">
        <ele>1138.8</ele>
        <time>2018-11-26T13:19:45Z</time>
      </trkpt>
      <trkpt lat="42.31631" lon="2.63594">
        <ele>1136.4</ele>
        <time>2018-11-26T13:19:49Z</time>
      </trkpt>
      <trkpt lat="42.31637" lon="2.6361">
        <ele>1131.6</ele>
        <time>2018-11-26T13:19:55Z</time>
      </trkpt>
      <trkpt lat="42.31641" lon="2.63632">
        <ele>1128.8</ele>
        <time>2018-11-26T13:20:01Z</time>
      </trkpt>
      <trkpt lat="42.31643" lon="2.63644">
        <ele>1129.3</ele>
        <time>2018-11-26T13:20:05Z</time>
      </trkpt>
      <trkpt lat="42.31643" lon="2.63657">
        <ele>1131.2</ele>
        <time>2018-11-26T13:20:09Z</time>
      </trkpt>
      <trkpt lat="42.31646" lon="2.6368">
        <ele>1132.7</ele>
        <time>2018-11-26T13:20:16Z</time>
      </trkpt>
      <trkpt lat="42.31641" lon="2.63689">
        <ele>1133.6</ele>
        <time>2018-11-26T13:20:19Z</time>
      </trkpt>
      <trkpt lat="42.31646" lon="2.63692">
        <ele>1130.8</ele>
        <time>2018-11-26T13:20:21Z</time>
      </trkpt>
      <trkpt lat="42.31648" lon="2.63684">
        <ele>1128.8</ele>
        <time>2018-11-26T13:20:24Z</time>
      </trkpt>
      <trkpt lat="42.3165" lon="2.63672">
        <ele>1126.8</ele>
        <time>2018-11-26T13:20:27Z</time>
      </trkpt>
      <trkpt lat="42.31659" lon="2.63653">
        <ele>1124.9</ele>
        <time>2018-11-26T13:20:34Z</time>
      </trkpt>
      <trkpt lat="42.3167" lon="2.63636">
        <ele>1125.8</ele>
        <time>2018-11-26T13:20:41Z</time>
      </trkpt>
      <trkpt lat="42.31677" lon="2.63622">
        <ele>1127.8</ele>
        <time>2018-11-26T13:20:46Z</time>
      </trkpt>
      <trkpt lat="42.31688" lon="2.63615">
        <ele>1127.3</ele>
        <time>2018-11-26T13:20:51Z</time>
      </trkpt>
      <trkpt lat="42.31708" lon="2.63604">
        <ele>1124.4</ele>
        <time>2018-11-26T13:20:59Z</time>
      </trkpt>
      <trkpt lat="42.31716" lon="2.63603">
        <ele>1126.4</ele>
        <time>2018-11-26T13:21:03Z</time>
      </trkpt>
      <trkpt lat="42.31728" lon="2.63599">
        <ele>1124</ele>
        <time>2018-11-26T13:21:07Z</time>
      </trkpt>
      <trkpt lat="42.31742" lon="2.63594">
        <ele>1122.5</ele>
        <time>2018-11-26T13:21:13Z</time>
      </trkpt>
      <trkpt lat="42.31756" lon="2.63587">
        <ele>1120.6</ele>
        <time>2018-11-26T13:21:19Z</time>
      </trkpt>
      <trkpt lat="42.31773" lon="2.6358">
        <ele>1116.7</ele>
        <time>2018-11-26T13:21:26Z</time>
      </trkpt>
      <trkpt lat="42.31787" lon="2.63578">
        <ele>1116.3</ele>
        <time>2018-11-26T13:21:32Z</time>
      </trkpt>
      <trkpt lat="42.31802" lon="2.63582">
        <ele>1115.8</ele>
        <time>2018-11-26T13:21:38Z</time>
      </trkpt>
      <trkpt lat="42.31821" lon="2.63591">
        <ele>1116.8</ele>
        <time>2018-11-26T13:21:46Z</time>
      </trkpt>
      <trkpt lat="42.31844" lon="2.63598">
        <ele>1118.2</ele>
        <time>2018-11-26T13:21:56Z</time>
      </trkpt>
      <trkpt lat="42.31847" lon="2.63597">
        <ele>1118.2</ele>
        <time>2018-11-26T13:21:57Z</time>
      </trkpt>
      <trkpt lat="42.31862" lon="2.63582">
        <ele>1114.3</ele>
        <time>2018-11-26T13:22:04Z</time>
      </trkpt>
      <trkpt lat="42.31875" lon="2.6357">
        <ele>1110.6</ele>
        <time>2018-11-26T13:22:11Z</time>
      </trkpt>
      <trkpt lat="42.31889" lon="2.63548">
        <ele>1109</ele>
        <time>2018-11-26T13:22:19Z</time>
      </trkpt>
      <trkpt lat="42.319" lon="2.63539">
        <ele>1111</ele>
        <time>2018-11-26T13:22:25Z</time>
      </trkpt>
      <trkpt lat="42.31921" lon="2.63527">
        <ele>1111.9</ele>
        <time>2018-11-26T13:22:33Z</time>
      </trkpt>
      <trkpt lat="42.31936" lon="2.63508">
        <ele>1111.4</ele>
        <time>2018-11-26T13:22:42Z</time>
      </trkpt>
      <trkpt lat="42.31949" lon="2.63495">
        <ele>1107.2</ele>
        <time>2018-11-26T13:22:48Z</time>
      </trkpt>
      <trkpt lat="42.31951" lon="2.63494">
        <ele>1105.2</ele>
        <time>2018-11-26T13:22:49Z</time>
      </trkpt>
      <trkpt lat="42.31969" lon="2.63485">
        <ele>1084</ele>
        <time>2018-11-26T13:22:57Z</time>
      </trkpt>
      <trkpt lat="42.3199" lon="2.63472">
        <ele>1084.1</ele>
        <time>2018-11-26T13:23:06Z</time>
      </trkpt>
      <trkpt lat="42.31997" lon="2.63458">
        <ele>1088.8</ele>
        <time>2018-11-26T13:23:11Z</time>
      </trkpt>
      <trkpt lat="42.3201" lon="2.63444">
        <ele>1089.8</ele>
        <time>2018-11-26T13:23:18Z</time>
      </trkpt>
      <trkpt lat="42.32025" lon="2.63427">
        <ele>1091.8</ele>
        <time>2018-11-26T13:23:26Z</time>
      </trkpt>
      <trkpt lat="42.32037" lon="2.63411">
        <ele>1099</ele>
        <time>2018-11-26T13:23:32Z</time>
      </trkpt>
      <trkpt lat="42.32052" lon="2.63399">
        <ele>1102.8</ele>
        <time>2018-11-26T13:23:39Z</time>
      </trkpt>
      <trkpt lat="42.3206" lon="2.63385">
        <ele>1105.2</ele>
        <time>2018-11-26T13:23:44Z</time>
      </trkpt>
      <trkpt lat="42.32066" lon="2.63378">
        <ele>1105.2</ele>
        <time>2018-11-26T13:23:48Z</time>
      </trkpt>
      <trkpt lat="42.32063" lon="2.63375">
        <ele>1108.5</ele>
        <time>2018-11-26T13:23:49Z</time>
      </trkpt>
      <trkpt lat="42.32061" lon="2.63371">
        <ele>1106.6</ele>
        <time>2018-11-26T13:23:50Z</time>
      </trkpt>
      <trkpt lat="42.32063" lon="2.63376">
        <ele>1106.1</ele>
        <time>2018-11-26T13:23:52Z</time>
      </trkpt>
      <trkpt lat="42.32065" lon="2.63373">
        <ele>1107.7</ele>
        <time>2018-11-26T13:23:53Z</time>
      </trkpt>
      <trkpt lat="42.32067" lon="2.63373">
        <ele>1104.8</ele>
        <time>2018-11-26T13:23:54Z</time>
      </trkpt>
      <trkpt lat="42.32071" lon="2.63366">
        <ele>1104.2</ele>
        <time>2018-11-26T13:23:57Z</time>
      </trkpt>
      <trkpt lat="42.32075" lon="2.63359">
        <ele>1105.2</ele>
        <time>2018-11-26T13:23:59Z</time>
      </trkpt>
      <trkpt lat="42.32078" lon="2.63355">
        <ele>1107.1</ele>
        <time>2018-11-26T13:24:01Z</time>
      </trkpt>
      <trkpt lat="42.32076" lon="2.63353">
        <ele>1106.7</ele>
        <time>2018-11-26T13:24:02Z</time>
      </trkpt>
      <trkpt lat="42.32073" lon="2.63359">
        <ele>1102.3</ele>
        <time>2018-11-26T13:24:04Z</time>
      </trkpt>
      <trkpt lat="42.32075" lon="2.63358">
        <ele>1103.8</ele>
        <time>2018-11-26T13:24:05Z</time>
      </trkpt>
      <trkpt lat="42.32078" lon="2.63361">
        <ele>1099.5</ele>
        <time>2018-11-26T13:24:06Z</time>
      </trkpt>
      <trkpt lat="42.32076" lon="2.63364">
        <ele>1098.5</ele>
        <time>2018-11-26T13:24:07Z</time>
      </trkpt>
      <trkpt lat="42.32081" lon="2.63364">
        <ele>1097</ele>
        <time>2018-11-26T13:24:09Z</time>
      </trkpt>
      <trkpt lat="42.32083" lon="2.63358">
        <ele>1092.8</ele>
        <time>2018-11-26T13:24:11Z</time>
      </trkpt>
      <trkpt lat="42.32078" lon="2.63353">
        <ele>1089.3</ele>
        <time>2018-11-26T13:24:13Z</time>
      </trkpt>
      <trkpt lat="42.32076" lon="2.63343">
        <ele>1085.5</ele>
        <time>2018-11-26T13:24:17Z</time>
      </trkpt>
      <trkpt lat="42.32074" lon="2.63339">
        <ele>1083.1</ele>
        <time>2018-11-26T13:24:18Z</time>
      </trkpt>
      <trkpt lat="42.3208" lon="2.63317">
        <ele>1076.3</ele>
        <time>2018-11-26T13:24:25Z</time>
      </trkpt>
      <trkpt lat="42.32079" lon="2.63296">
        <ele>1073.5</ele>
        <time>2018-11-26T13:24:31Z</time>
      </trkpt>
      <trkpt lat="42.32074" lon="2.63286">
        <ele>1070.2</ele>
        <time>2018-11-26T13:24:35Z</time>
      </trkpt>
      <trkpt lat="42.32076" lon="2.63276">
        <ele>1067.8</ele>
        <time>2018-11-26T13:24:38Z</time>
      </trkpt>
      <trkpt lat="42.32083" lon="2.63256">
        <ele>1061.5</ele>
        <time>2018-11-26T13:24:45Z</time>
      </trkpt>
      <trkpt lat="42.32086" lon="2.63239">
        <ele>1057.1</ele>
        <time>2018-11-26T13:24:50Z</time>
      </trkpt>
      <trkpt lat="42.32086" lon="2.63215">
        <ele>1054.2</ele>
        <time>2018-11-26T13:24:57Z</time>
      </trkpt>
      <trkpt lat="42.3209" lon="2.63204">
        <ele>1053.7</ele>
        <time>2018-11-26T13:25:01Z</time>
      </trkpt>
      <trkpt lat="42.32092" lon="2.6318">
        <ele>1051.4</ele>
        <time>2018-11-26T13:25:08Z</time>
      </trkpt>
      <trkpt lat="42.32091" lon="2.63158">
        <ele>1051</ele>
        <time>2018-11-26T13:25:14Z</time>
      </trkpt>
      <trkpt lat="42.3209" lon="2.63142">
        <ele>1046.2</ele>
        <time>2018-11-26T13:25:19Z</time>
      </trkpt>
      <trkpt lat="42.32086" lon="2.63148">
        <ele>1039.3</ele>
        <time>2018-11-26T13:25:21Z</time>
      </trkpt>
      <trkpt lat="42.3209" lon="2.63136">
        <ele>1033.6</ele>
        <time>2018-11-26T13:25:25Z</time>
      </trkpt>
      <trkpt lat="42.32089" lon="2.63138">
        <ele>1027.8</ele>
        <time>2018-11-26T13:25:27Z</time>
      </trkpt>
      <trkpt lat="42.32091" lon="2.63123">
        <ele>1022.6</ele>
        <time>2018-11-26T13:25:31Z</time>
      </trkpt>
      <trkpt lat="42.32091" lon="2.63104">
        <ele>1017.3</ele>
        <time>2018-11-26T13:25:37Z</time>
      </trkpt>
      <trkpt lat="42.32085" lon="2.63082">
        <ele>1011.1</ele>
        <time>2018-11-26T13:25:44Z</time>
      </trkpt>
      <trkpt lat="42.32087" lon="2.63067">
        <ele>1006.6</ele>
        <time>2018-11-26T13:25:48Z</time>
      </trkpt>
      <trkpt lat="42.32079" lon="2.63041">
        <ele>1001</ele>
        <time>2018-11-26T13:25:56Z</time>
      </trkpt>
      <trkpt lat="42.32081" lon="2.63019">
        <ele>999.4</ele>
        <time>2018-11-26T13:26:03Z</time>
      </trkpt>
      <trkpt lat="42.3208" lon="2.62998">
        <ele>997.6</ele>
        <time>2018-11-26T13:26:09Z</time>
      </trkpt>
      <trkpt lat="42.32088" lon="2.62981">
        <ele>997</ele>
        <time>2018-11-26T13:26:15Z</time>
      </trkpt>
      <trkpt lat="42.32093" lon="2.62961">
        <ele>993.2</ele>
        <time>2018-11-26T13:26:22Z</time>
      </trkpt>
      <trkpt lat="42.32096" lon="2.62949">
        <ele>985.5</ele>
        <time>2018-11-26T13:26:25Z</time>
      </trkpt>
      <trkpt lat="42.32098" lon="2.62931">
        <ele>977.3</ele>
        <time>2018-11-26T13:26:31Z</time>
      </trkpt>
      <trkpt lat="42.32098" lon="2.62911">
        <ele>971.6</ele>
        <time>2018-11-26T13:26:36Z</time>
      </trkpt>
      <trkpt lat="42.32099" lon="2.62892">
        <ele>967.3</ele>
        <time>2018-11-26T13:26:42Z</time>
      </trkpt>
      <trkpt lat="42.321" lon="2.62882">
        <ele>962.5</ele>
        <time>2018-11-26T13:26:45Z</time>
      </trkpt>
      <trkpt lat="42.32099" lon="2.62871">
        <ele>956.3</ele>
        <time>2018-11-26T13:26:48Z</time>
      </trkpt>
      <trkpt lat="42.32101" lon="2.62856">
        <ele>954.3</ele>
        <time>2018-11-26T13:26:53Z</time>
      </trkpt>
      <trkpt lat="42.32101" lon="2.62841">
        <ele>950</ele>
        <time>2018-11-26T13:26:57Z</time>
      </trkpt>
      <trkpt lat="42.32102" lon="2.62825">
        <ele>951.4</ele>
        <time>2018-11-26T13:27:02Z</time>
      </trkpt>
      <trkpt lat="42.32096" lon="2.6282">
        <ele>953.8</ele>
        <time>2018-11-26T13:27:05Z</time>
      </trkpt>
      <trkpt lat="42.3209" lon="2.62826">
        <ele>953.9</ele>
        <time>2018-11-26T13:27:08Z</time>
      </trkpt>
      <trkpt lat="42.32082" lon="2.62835">
        <ele>951.4</ele>
        <time>2018-11-26T13:27:12Z</time>
      </trkpt>
      <trkpt lat="42.32071" lon="2.62848">
        <ele>947.5</ele>
        <time>2018-11-26T13:27:18Z</time>
      </trkpt>
      <trkpt lat="42.32065" lon="2.62861">
        <ele>940.3</ele>
        <time>2018-11-26T13:27:23Z</time>
      </trkpt>
      <trkpt lat="42.32063" lon="2.62851">
        <ele>937</ele>
        <time>2018-11-26T13:27:26Z</time>
      </trkpt>
      <trkpt lat="42.32063" lon="2.62832">
        <ele>936.1</ele>
        <time>2018-11-26T13:27:31Z</time>
      </trkpt>
      <trkpt lat="42.32066" lon="2.62816">
        <ele>934.2</ele>
        <time>2018-11-26T13:27:36Z</time>
      </trkpt>
      <trkpt lat="42.32057" lon="2.62812">
        <ele>930.8</ele>
        <time>2018-11-26T13:27:40Z</time>
      </trkpt>
      <trkpt lat="42.32045" lon="2.62806">
        <ele>929.8</ele>
        <time>2018-11-26T13:27:45Z</time>
      </trkpt>
      <trkpt lat="42.32043" lon="2.62805">
        <ele>929.4</ele>
        <time>2018-11-26T13:27:46Z</time>
      </trkpt>
      <trkpt lat="42.32055" lon="2.62801">
        <ele>919.2</ele>
        <time>2018-11-26T13:27:51Z</time>
      </trkpt>
      <trkpt lat="42.3207" lon="2.62791">
        <ele>915.8</ele>
        <time>2018-11-26T13:27:58Z</time>
      </trkpt>
      <trkpt lat="42.32079" lon="2.6277">
        <ele>918.3</ele>
        <time>2018-11-26T13:28:05Z</time>
      </trkpt>
      <trkpt lat="42.32095" lon="2.6275">
        <ele>926.4</ele>
        <time>2018-11-26T13:28:14Z</time>
      </trkpt>
      <trkpt lat="42.32109" lon="2.62743">
        <ele>928.8</ele>
        <time>2018-11-26T13:28:20Z</time>
      </trkpt>
      <trkpt lat="42.32121" lon="2.62744">
        <ele>928.8</ele>
        <time>2018-11-26T13:28:25Z</time>
      </trkpt>
      <trkpt lat="42.32123" lon="2.62741">
        <ele>928.9</ele>
        <time>2018-11-26T13:28:26Z</time>
      </trkpt>
      <trkpt lat="42.32119" lon="2.62743">
        <ele>929.4</ele>
        <time>2018-11-26T13:28:27Z</time>
      </trkpt>
      <trkpt lat="42.32117" lon="2.62744">
        <ele>929.8</ele>
        <time>2018-11-26T13:28:28Z</time>
      </trkpt>
      <trkpt lat="42.32115" lon="2.62747">
        <ele>930.3</ele>
        <time>2018-11-26T13:28:30Z</time>
      </trkpt>
      <trkpt lat="42.32119" lon="2.62746">
        <ele>923.6</ele>
        <time>2018-11-26T13:28:31Z</time>
      </trkpt>
      <trkpt lat="42.32121" lon="2.62754">
        <ele>923.1</ele>
        <time>2018-11-26T13:28:34Z</time>
      </trkpt>
      <trkpt lat="42.32129" lon="2.62757">
        <ele>922.1</ele>
        <time>2018-11-26T13:28:37Z</time>
      </trkpt>
      <trkpt lat="42.32152" lon="2.62745">
        <ele>918.3</ele>
        <time>2018-11-26T13:28:47Z</time>
      </trkpt>
      <trkpt lat="42.32154" lon="2.62744">
        <ele>917.7</ele>
        <time>2018-11-26T13:28:48Z</time>
      </trkpt>
      <trkpt lat="42.32163" lon="2.62731">
        <ele>912</ele>
        <time>2018-11-26T13:28:53Z</time>
      </trkpt>
      <trkpt lat="42.32167" lon="2.62722">
        <ele>909.1</ele>
        <time>2018-11-26T13:28:56Z</time>
      </trkpt>
      <trkpt lat="42.32175" lon="2.62717">
        <ele>907.6</ele>
        <time>2018-11-26T13:29:00Z</time>
      </trkpt>
      <trkpt lat="42.32171" lon="2.62706">
        <ele>906.7</ele>
        <time>2018-11-26T13:29:04Z</time>
      </trkpt>
      <trkpt lat="42.32183" lon="2.62695">
        <ele>902.4</ele>
        <time>2018-11-26T13:29:10Z</time>
      </trkpt>
      <trkpt lat="42.32187" lon="2.62686">
        <ele>900</ele>
        <time>2018-11-26T13:29:13Z</time>
      </trkpt>
      <trkpt lat="42.32199" lon="2.62685">
        <ele>897.6</ele>
        <time>2018-11-26T13:29:18Z</time>
      </trkpt>
      <trkpt lat="42.32192" lon="2.62666">
        <ele>897.2</ele>
        <time>2018-11-26T13:29:24Z</time>
      </trkpt>
      <trkpt lat="42.32177" lon="2.62651">
        <ele>897.5</ele>
        <time>2018-11-26T13:29:32Z</time>
      </trkpt>
      <trkpt lat="42.32174" lon="2.62648">
        <ele>897.6</ele>
        <time>2018-11-26T13:29:33Z</time>
      </trkpt>
      <trkpt lat="42.32173" lon="2.62644">
        <ele>897.5</ele>
        <time>2018-11-26T13:29:34Z</time>
      </trkpt>
      <trkpt lat="42.32169" lon="2.6263">
        <ele>897.5</ele>
        <time>2018-11-26T13:29:39Z</time>
      </trkpt>
      <trkpt lat="42.32168" lon="2.62627">
        <ele>897.6</ele>
        <time>2018-11-26T13:29:39Z</time>
      </trkpt>
      <trkpt lat="42.32157" lon="2.62612">
        <ele>902.8</ele>
        <time>2018-11-26T13:29:46Z</time>
      </trkpt>
      <trkpt lat="42.32149" lon="2.626">
        <ele>904.7</ele>
        <time>2018-11-26T13:29:51Z</time>
      </trkpt>
      <trkpt lat="42.32133" lon="2.62567">
        <ele>909.2</ele>
        <time>2018-11-26T13:30:02Z</time>
      </trkpt>
      <trkpt lat="42.32125" lon="2.62539">
        <ele>904.4</ele>
        <time>2018-11-26T13:30:11Z</time>
      </trkpt>
      <trkpt lat="42.32123" lon="2.62512">
        <ele>901.5</ele>
        <time>2018-11-26T13:30:19Z</time>
      </trkpt>
      <trkpt lat="42.32122" lon="2.62471">
        <ele>898.6</ele>
        <time>2018-11-26T13:30:31Z</time>
      </trkpt>
      <trkpt lat="42.32119" lon="2.62438">
        <ele>902.8</ele>
        <time>2018-11-26T13:30:41Z</time>
      </trkpt>
      <trkpt lat="42.32116" lon="2.62403">
        <ele>906.3</ele>
        <time>2018-11-26T13:30:51Z</time>
      </trkpt>
      <trkpt lat="42.32107" lon="2.62379">
        <ele>907.7</ele>
        <time>2018-11-26T13:31:00Z</time>
      </trkpt>
      <trkpt lat="42.32092" lon="2.62345">
        <ele>905.8</ele>
        <time>2018-11-26T13:31:11Z</time>
      </trkpt>
      <trkpt lat="42.32086" lon="2.62316">
        <ele>904.4</ele>
        <time>2018-11-26T13:31:20Z</time>
      </trkpt>
      <trkpt lat="42.32086" lon="2.623">
        <ele>904.4</ele>
        <time>2018-11-26T13:31:25Z</time>
      </trkpt>
      <trkpt lat="42.32079" lon="2.62286">
        <ele>904.7</ele>
        <time>2018-11-26T13:31:30Z</time>
      </trkpt>
      <trkpt lat="42.32062" lon="2.62256">
        <ele>906.2</ele>
        <time>2018-11-26T13:31:41Z</time>
      </trkpt>
      <trkpt lat="42.32036" lon="2.62227">
        <ele>907.2</ele>
        <time>2018-11-26T13:31:54Z</time>
      </trkpt>
      <trkpt lat="42.32018" lon="2.62204">
        <ele>908.1</ele>
        <time>2018-11-26T13:32:05Z</time>
      </trkpt>
      <trkpt lat="42.32002" lon="2.62176">
        <ele>909.2</ele>
        <time>2018-11-26T13:32:15Z</time>
      </trkpt>
      <trkpt lat="42.31988" lon="2.62138">
        <ele>914</ele>
        <time>2018-11-26T13:32:28Z</time>
      </trkpt>
      <trkpt lat="42.31978" lon="2.62105">
        <ele>915.9</ele>
        <time>2018-11-26T13:32:38Z</time>
      </trkpt>
      <trkpt lat="42.31966" lon="2.62086">
        <ele>914.5</ele>
        <time>2018-11-26T13:32:46Z</time>
      </trkpt>
      <trkpt lat="42.31961" lon="2.62084">
        <ele>913.9</ele>
        <time>2018-11-26T13:32:48Z</time>
      </trkpt>
      <trkpt lat="42.31951" lon="2.62082">
        <ele>909.5</ele>
        <time>2018-11-26T13:32:52Z</time>
      </trkpt>
      <trkpt lat="42.31939" lon="2.62071">
        <ele>907.1</ele>
        <time>2018-11-26T13:32:58Z</time>
      </trkpt>
      <trkpt lat="42.31932" lon="2.62048">
        <ele>904.7</ele>
        <time>2018-11-26T13:33:05Z</time>
      </trkpt>
      <trkpt lat="42.31926" lon="2.62043">
        <ele>903.3</ele>
        <time>2018-11-26T13:33:08Z</time>
      </trkpt>
      <trkpt lat="42.31913" lon="2.62038">
        <ele>899.5</ele>
        <time>2018-11-26T13:33:13Z</time>
      </trkpt>
      <trkpt lat="42.31896" lon="2.62021">
        <ele>894.7</ele>
        <time>2018-11-26T13:33:22Z</time>
      </trkpt>
      <trkpt lat="42.31892" lon="2.62014">
        <ele>893.3</ele>
        <time>2018-11-26T13:33:24Z</time>
      </trkpt>
      <trkpt lat="42.31885" lon="2.62008">
        <ele>890.3</ele>
        <time>2018-11-26T13:33:28Z</time>
      </trkpt>
      <trkpt lat="42.31879" lon="2.62008">
        <ele>888.4</ele>
        <time>2018-11-26T13:33:30Z</time>
      </trkpt>
      <trkpt lat="42.31875" lon="2.61995">
        <ele>884.1</ele>
        <time>2018-11-26T13:33:34Z</time>
      </trkpt>
      <trkpt lat="42.31874" lon="2.61986">
        <ele>881.3</ele>
        <time>2018-11-26T13:33:37Z</time>
      </trkpt>
      <trkpt lat="42.3188" lon="2.61976">
        <ele>879.7</ele>
        <time>2018-11-26T13:33:41Z</time>
      </trkpt>
      <trkpt lat="42.31882" lon="2.61966">
        <ele>875.5</ele>
        <time>2018-11-26T13:33:44Z</time>
      </trkpt>
      <trkpt lat="42.31896" lon="2.61959">
        <ele>872.6</ele>
        <time>2018-11-26T13:33:50Z</time>
      </trkpt>
      <trkpt lat="42.31902" lon="2.6194">
        <ele>872.2</ele>
        <time>2018-11-26T13:33:56Z</time>
      </trkpt>
      <trkpt lat="42.3191" lon="2.61921">
        <ele>871.1</ele>
        <time>2018-11-26T13:34:03Z</time>
      </trkpt>
      <trkpt lat="42.31915" lon="2.61904">
        <ele>871.6</ele>
        <time>2018-11-26T13:34:08Z</time>
      </trkpt>
      <trkpt lat="42.31923" lon="2.61887">
        <ele>872.1</ele>
        <time>2018-11-26T13:34:14Z</time>
      </trkpt>
      <trkpt lat="42.31933" lon="2.61868">
        <ele>863.5</ele>
        <time>2018-11-26T13:34:21Z</time>
      </trkpt>
      <trkpt lat="42.31937" lon="2.61852">
        <ele>863.4</ele>
        <time>2018-11-26T13:34:26Z</time>
      </trkpt>
      <trkpt lat="42.3194" lon="2.61839">
        <ele>863.9</ele>
        <time>2018-11-26T13:34:30Z</time>
      </trkpt>
      <trkpt lat="42.31942" lon="2.61824">
        <ele>865.3</ele>
        <time>2018-11-26T13:34:34Z</time>
      </trkpt>
      <trkpt lat="42.31947" lon="2.61816">
        <ele>865.8</ele>
        <time>2018-11-26T13:34:37Z</time>
      </trkpt>
      <trkpt lat="42.31944" lon="2.61816">
        <ele>866.3</ele>
        <time>2018-11-26T13:34:39Z</time>
      </trkpt>
      <trkpt lat="42.31945" lon="2.61813">
        <ele>867.8</ele>
        <time>2018-11-26T13:34:39Z</time>
      </trkpt>
      <trkpt lat="42.31947" lon="2.61815">
        <ele>868.3</ele>
        <time>2018-11-26T13:34:40Z</time>
      </trkpt>
      <trkpt lat="42.31946" lon="2.61822">
        <ele>867.3</ele>
        <time>2018-11-26T13:34:42Z</time>
      </trkpt>
      <trkpt lat="42.31942" lon="2.61817">
        <ele>864.8</ele>
        <time>2018-11-26T13:34:44Z</time>
      </trkpt>
      <trkpt lat="42.31946" lon="2.61817">
        <ele>862.9</ele>
        <time>2018-11-26T13:34:46Z</time>
      </trkpt>
      <trkpt lat="42.31949" lon="2.61815">
        <ele>861.5</ele>
        <time>2018-11-26T13:34:47Z</time>
      </trkpt>
      <trkpt lat="42.3195" lon="2.61812">
        <ele>861.6</ele>
        <time>2018-11-26T13:34:48Z</time>
      </trkpt>
      <trkpt lat="42.31945" lon="2.61804">
        <ele>862.4</ele>
        <time>2018-11-26T13:34:51Z</time>
      </trkpt>
      <trkpt lat="42.31935" lon="2.61783">
        <ele>864.8</ele>
        <time>2018-11-26T13:34:58Z</time>
      </trkpt>
      <trkpt lat="42.31932" lon="2.61769">
        <ele>865.4</ele>
        <time>2018-11-26T13:35:03Z</time>
      </trkpt>
      <trkpt lat="42.31921" lon="2.61761">
        <ele>865.4</ele>
        <time>2018-11-26T13:35:08Z</time>
      </trkpt>
      <trkpt lat="42.31915" lon="2.61749">
        <ele>864.5</ele>
        <time>2018-11-26T13:35:12Z</time>
      </trkpt>
      <trkpt lat="42.3191" lon="2.61741">
        <ele>865.4</ele>
        <time>2018-11-26T13:35:15Z</time>
      </trkpt>
      <trkpt lat="42.31899" lon="2.61734">
        <ele>866.8</ele>
        <time>2018-11-26T13:35:20Z</time>
      </trkpt>
      <trkpt lat="42.31894" lon="2.61729">
        <ele>867.8</ele>
        <time>2018-11-26T13:35:23Z</time>
      </trkpt>
      <trkpt lat="42.31889" lon="2.61725">
        <ele>867.7</ele>
        <time>2018-11-26T13:35:25Z</time>
      </trkpt>
      <trkpt lat="42.31876" lon="2.61718">
        <ele>867.7</ele>
        <time>2018-11-26T13:35:30Z</time>
      </trkpt>
      <trkpt lat="42.31847" lon="2.61709">
        <ele>867.7</ele>
        <time>2018-11-26T13:35:42Z</time>
      </trkpt>
      <trkpt lat="42.31826" lon="2.61708">
        <ele>871.1</ele>
        <time>2018-11-26T13:35:51Z</time>
      </trkpt>
      <trkpt lat="42.31815" lon="2.61694">
        <ele>868.7</ele>
        <time>2018-11-26T13:35:57Z</time>
      </trkpt>
      <trkpt lat="42.3182" lon="2.61646">
        <ele>852</ele>
        <time>2018-11-26T13:36:11Z</time>
      </trkpt>
      <trkpt lat="42.31824" lon="2.61604">
        <ele>849.6</ele>
        <time>2018-11-26T13:36:24Z</time>
      </trkpt>
      <trkpt lat="42.31824" lon="2.61583">
        <ele>848.5</ele>
        <time>2018-11-26T13:36:30Z</time>
      </trkpt>
      <trkpt lat="42.31788" lon="2.61569">
        <ele>839.9</ele>
        <time>2018-11-26T13:36:45Z</time>
      </trkpt>
      <trkpt lat="42.31756" lon="2.61535">
        <ele>829.3</ele>
        <time>2018-11-26T13:37:02Z</time>
      </trkpt>
      <trkpt lat="42.31752" lon="2.61528">
        <ele>828.8</ele>
        <time>2018-11-26T13:37:04Z</time>
      </trkpt>
      <trkpt lat="42.31747" lon="2.61528">
        <ele>829.3</ele>
        <time>2018-11-26T13:37:06Z</time>
      </trkpt>
      <trkpt lat="42.31745" lon="2.61527">
        <ele>830.2</ele>
        <time>2018-11-26T13:37:07Z</time>
      </trkpt>
      <trkpt lat="42.31739" lon="2.61527">
        <ele>832.2</ele>
        <time>2018-11-26T13:37:09Z</time>
      </trkpt>
      <trkpt lat="42.31733" lon="2.6152">
        <ele>836.1</ele>
        <time>2018-11-26T13:37:13Z</time>
      </trkpt>
      <trkpt lat="42.31719" lon="2.61518">
        <ele>843.3</ele>
        <time>2018-11-26T13:37:18Z</time>
      </trkpt>
      <trkpt lat="42.31704" lon="2.61521">
        <ele>850.9</ele>
        <time>2018-11-26T13:37:24Z</time>
      </trkpt>
      <trkpt lat="42.31689" lon="2.61522">
        <ele>856.3</ele>
        <time>2018-11-26T13:37:30Z</time>
      </trkpt>
      <trkpt lat="42.31676" lon="2.61514">
        <ele>855.8</ele>
        <time>2018-11-26T13:37:36Z</time>
      </trkpt>
      <trkpt lat="42.31672" lon="2.61485">
        <ele>842.8</ele>
        <time>2018-11-26T13:37:45Z</time>
      </trkpt>
      <trkpt lat="42.31665" lon="2.61456">
        <ele>834.1</ele>
        <time>2018-11-26T13:37:54Z</time>
      </trkpt>
      <trkpt lat="42.31647" lon="2.61444">
        <ele>835</ele>
        <time>2018-11-26T13:38:02Z</time>
      </trkpt>
      <trkpt lat="42.31628" lon="2.61446">
        <ele>833.7</ele>
        <time>2018-11-26T13:38:10Z</time>
      </trkpt>
      <trkpt lat="42.31612" lon="2.61441">
        <ele>828.8</ele>
        <time>2018-11-26T13:38:16Z</time>
      </trkpt>
      <trkpt lat="42.31602" lon="2.61419">
        <ele>826.9</ele>
        <time>2018-11-26T13:38:23Z</time>
      </trkpt>
      <trkpt lat="42.31587" lon="2.61407">
        <ele>832.2</ele>
        <time>2018-11-26T13:38:30Z</time>
      </trkpt>
      <trkpt lat="42.31575" lon="2.61393">
        <ele>835</ele>
        <time>2018-11-26T13:38:37Z</time>
      </trkpt>
      <trkpt lat="42.31571" lon="2.61372">
        <ele>834.7</ele>
        <time>2018-11-26T13:38:43Z</time>
      </trkpt>
      <trkpt lat="42.31564" lon="2.61357">
        <ele>834.2</ele>
        <time>2018-11-26T13:38:49Z</time>
      </trkpt>
      <trkpt lat="42.31562" lon="2.61338">
        <ele>827.9</ele>
        <time>2018-11-26T13:38:54Z</time>
      </trkpt>
      <trkpt lat="42.31558" lon="2.61318">
        <ele>820.2</ele>
        <time>2018-11-26T13:39:01Z</time>
      </trkpt>
      <trkpt lat="42.31547" lon="2.61301">
        <ele>818.7</ele>
        <time>2018-11-26T13:39:07Z</time>
      </trkpt>
      <trkpt lat="42.31535" lon="2.61291">
        <ele>817.4</ele>
        <time>2018-11-26T13:39:13Z</time>
      </trkpt>
      <trkpt lat="42.31522" lon="2.61282">
        <ele>819.2</ele>
        <time>2018-11-26T13:39:19Z</time>
      </trkpt>
      <trkpt lat="42.31506" lon="2.61259">
        <ele>821.7</ele>
        <time>2018-11-26T13:39:28Z</time>
      </trkpt>
      <trkpt lat="42.31491" lon="2.61221">
        <ele>828.3</ele>
        <time>2018-11-26T13:39:41Z</time>
      </trkpt>
      <trkpt lat="42.31488" lon="2.61212">
        <ele>832.2</ele>
        <time>2018-11-26T13:39:44Z</time>
      </trkpt>
      <trkpt lat="42.31489" lon="2.61211">
        <ele>832.2</ele>
        <time>2018-11-26T13:39:44Z</time>
      </trkpt>
      <trkpt lat="42.31496" lon="2.61209">
        <ele>832.2</ele>
        <time>2018-11-26T13:39:47Z</time>
      </trkpt>
      <trkpt lat="42.31491" lon="2.61212">
        <ele>830.8</ele>
        <time>2018-11-26T13:39:49Z</time>
      </trkpt>
      <trkpt lat="42.31487" lon="2.61218">
        <ele>828.9</ele>
        <time>2018-11-26T13:39:51Z</time>
      </trkpt>
      <trkpt lat="42.31488" lon="2.61215">
        <ele>828.4</ele>
        <time>2018-11-26T13:39:52Z</time>
      </trkpt>
      <trkpt lat="42.31491" lon="2.61215">
        <ele>830.3</ele>
        <time>2018-11-26T13:39:53Z</time>
      </trkpt>
      <trkpt lat="42.31486" lon="2.61217">
        <ele>831.2</ele>
        <time>2018-11-26T13:39:55Z</time>
      </trkpt>
      <trkpt lat="42.31487" lon="2.61215">
        <ele>833.7</ele>
        <time>2018-11-26T13:39:56Z</time>
      </trkpt>
      <trkpt lat="42.31487" lon="2.61217">
        <ele>835.6</ele>
        <time>2018-11-26T13:39:57Z</time>
      </trkpt>
      <trkpt lat="42.31487" lon="2.61208">
        <ele>835.1</ele>
        <time>2018-11-26T13:39:59Z</time>
      </trkpt>
      <trkpt lat="42.31489" lon="2.6121">
        <ele>829.9</ele>
        <time>2018-11-26T13:40:00Z</time>
      </trkpt>
      <trkpt lat="42.31478" lon="2.61213">
        <ele>829.3</ele>
        <time>2018-11-26T13:40:04Z</time>
      </trkpt>
      <trkpt lat="42.31488" lon="2.6121">
        <ele>830.7</ele>
        <time>2018-11-26T13:40:08Z</time>
      </trkpt>
      <trkpt lat="42.3149" lon="2.61213">
        <ele>831.3</ele>
        <time>2018-11-26T13:40:09Z</time>
      </trkpt>
      <trkpt lat="42.31489" lon="2.61203">
        <ele>827</ele>
        <time>2018-11-26T13:40:12Z</time>
      </trkpt>
      <trkpt lat="42.31486" lon="2.61187">
        <ele>820.1</ele>
        <time>2018-11-26T13:40:17Z</time>
      </trkpt>
      <trkpt lat="42.31489" lon="2.61235">
        <ele>838.5</ele>
        <time>2018-11-26T14:08:58Z</time>
      </trkpt>
      <trkpt lat="42.31489" lon="2.61242">
        <ele>836.5</ele>
        <time>2018-11-26T14:08:59Z</time>
      </trkpt>
      <trkpt lat="42.31488" lon="2.61243">
        <ele>835.5</ele>
        <time>2018-11-26T14:09:00Z</time>
      </trkpt>
      <trkpt lat="42.31486" lon="2.6125">
        <ele>833.2</ele>
        <time>2018-11-26T14:09:02Z</time>
      </trkpt>
      <trkpt lat="42.31488" lon="2.6126">
        <ele>831.8</ele>
        <time>2018-11-26T14:09:05Z</time>
      </trkpt>
      <trkpt lat="42.31488" lon="2.61267">
        <ele>829.8</ele>
        <time>2018-11-26T14:09:07Z</time>
      </trkpt>
      <trkpt lat="42.31483" lon="2.61267">
        <ele>827.9</ele>
        <time>2018-11-26T14:09:09Z</time>
      </trkpt>
      <trkpt lat="42.3148" lon="2.6127">
        <ele>826.5</ele>
        <time>2018-11-26T14:09:11Z</time>
      </trkpt>
      <trkpt lat="42.31482" lon="2.61275">
        <ele>825</ele>
        <time>2018-11-26T14:09:13Z</time>
      </trkpt>
      <trkpt lat="42.31483" lon="2.61285">
        <ele>824</ele>
        <time>2018-11-26T14:09:16Z</time>
      </trkpt>
      <trkpt lat="42.31481" lon="2.61288">
        <ele>822.1</ele>
        <time>2018-11-26T14:09:17Z</time>
      </trkpt>
      <trkpt lat="42.31483" lon="2.61299">
        <ele>820.1</ele>
        <time>2018-11-26T14:09:20Z</time>
      </trkpt>
      <trkpt lat="42.31482" lon="2.61302">
        <ele>818.2</ele>
        <time>2018-11-26T14:09:21Z</time>
      </trkpt>
      <trkpt lat="42.31479" lon="2.61304">
        <ele>817.4</ele>
        <time>2018-11-26T14:09:23Z</time>
      </trkpt>
      <trkpt lat="42.31479" lon="2.61305">
        <ele>816.9</ele>
        <time>2018-11-26T14:09:23Z</time>
      </trkpt>
      <trkpt lat="42.31479" lon="2.61304">
        <ele>817.4</ele>
        <time>2018-11-26T14:09:24Z</time>
      </trkpt>
      <trkpt lat="42.3148" lon="2.61303">
        <ele>817.3</ele>
        <time>2018-11-26T14:09:24Z</time>
      </trkpt>
      <trkpt lat="42.31482" lon="2.61304">
        <ele>817.4</ele>
        <time>2018-11-26T14:09:25Z</time>
      </trkpt>
      <trkpt lat="42.31486" lon="2.6131">
        <ele>816.4</ele>
        <time>2018-11-26T14:09:27Z</time>
      </trkpt>
      <trkpt lat="42.31488" lon="2.61315">
        <ele>815</ele>
        <time>2018-11-26T14:09:29Z</time>
      </trkpt>
      <trkpt lat="42.31488" lon="2.61324">
        <ele>814.4</ele>
        <time>2018-11-26T14:09:32Z</time>
      </trkpt>
      <trkpt lat="42.31485" lon="2.61325">
        <ele>812.5</ele>
        <time>2018-11-26T14:09:33Z</time>
      </trkpt>
      <trkpt lat="42.31482" lon="2.61331">
        <ele>811</ele>
        <time>2018-11-26T14:09:35Z</time>
      </trkpt>
      <trkpt lat="42.3148" lon="2.61337">
        <ele>809.2</ele>
        <time>2018-11-26T14:09:37Z</time>
      </trkpt>
      <trkpt lat="42.31477" lon="2.61337">
        <ele>808.1</ele>
        <time>2018-11-26T14:09:38Z</time>
      </trkpt>
      <trkpt lat="42.31474" lon="2.6134">
        <ele>806.8</ele>
        <time>2018-11-26T14:09:40Z</time>
      </trkpt>
      <trkpt lat="42.31476" lon="2.61349">
        <ele>805.3</ele>
        <time>2018-11-26T14:09:42Z</time>
      </trkpt>
      <trkpt lat="42.31473" lon="2.61351">
        <ele>803.9</ele>
        <time>2018-11-26T14:09:44Z</time>
      </trkpt>
      <trkpt lat="42.31474" lon="2.61361">
        <ele>801.9</ele>
        <time>2018-11-26T14:09:47Z</time>
      </trkpt>
      <trkpt lat="42.31473" lon="2.61367">
        <ele>800.5</ele>
        <time>2018-11-26T14:09:48Z</time>
      </trkpt>
      <trkpt lat="42.31475" lon="2.61372">
        <ele>798.5</ele>
        <time>2018-11-26T14:09:50Z</time>
      </trkpt>
      <trkpt lat="42.31474" lon="2.61379">
        <ele>797.1</ele>
        <time>2018-11-26T14:09:52Z</time>
      </trkpt>
      <trkpt lat="42.31472" lon="2.61381">
        <ele>795.6</ele>
        <time>2018-11-26T14:09:53Z</time>
      </trkpt>
      <trkpt lat="42.31472" lon="2.61386">
        <ele>794.7</ele>
        <time>2018-11-26T14:09:55Z</time>
      </trkpt>
      <trkpt lat="42.31472" lon="2.61387">
        <ele>794.8</ele>
        <time>2018-11-26T14:09:55Z</time>
      </trkpt>
      <trkpt lat="42.31474" lon="2.61396">
        <ele>792.8</ele>
        <time>2018-11-26T14:09:58Z</time>
      </trkpt>
      <trkpt lat="42.31471" lon="2.61405">
        <ele>791.9</ele>
        <time>2018-11-26T14:10:01Z</time>
      </trkpt>
      <trkpt lat="42.31468" lon="2.61414">
        <ele>790.8</ele>
        <time>2018-11-26T14:10:04Z</time>
      </trkpt>
      <trkpt lat="42.31467" lon="2.6142">
        <ele>788.4</ele>
        <time>2018-11-26T14:10:05Z</time>
      </trkpt>
      <trkpt lat="42.31465" lon="2.61428">
        <ele>787</ele>
        <time>2018-11-26T14:10:08Z</time>
      </trkpt>
      <trkpt lat="42.31466" lon="2.61435">
        <ele>785.5</ele>
        <time>2018-11-26T14:10:10Z</time>
      </trkpt>
      <trkpt lat="42.31465" lon="2.61438">
        <ele>784.1</ele>
        <time>2018-11-26T14:10:11Z</time>
      </trkpt>
      <trkpt lat="42.31464" lon="2.61448">
        <ele>783.1</ele>
        <time>2018-11-26T14:10:14Z</time>
      </trkpt>
      <trkpt lat="42.31463" lon="2.61456">
        <ele>782.2</ele>
        <time>2018-11-26T14:10:16Z</time>
      </trkpt>
      <trkpt lat="42.31462" lon="2.61464">
        <ele>780.7</ele>
        <time>2018-11-26T14:10:19Z</time>
      </trkpt>
      <trkpt lat="42.31461" lon="2.61474">
        <ele>779.8</ele>
        <time>2018-11-26T14:10:22Z</time>
      </trkpt>
      <trkpt lat="42.3146" lon="2.61482">
        <ele>779.8</ele>
        <time>2018-11-26T14:10:24Z</time>
      </trkpt>
      <trkpt lat="42.3146" lon="2.61484">
        <ele>779.9</ele>
        <time>2018-11-26T14:10:25Z</time>
      </trkpt>
      <trkpt lat="42.31459" lon="2.61485">
        <ele>779.3</ele>
        <time>2018-11-26T14:10:25Z</time>
      </trkpt>
      <trkpt lat="42.31461" lon="2.61499">
        <ele>779.4</ele>
        <time>2018-11-26T14:10:29Z</time>
      </trkpt>
      <trkpt lat="42.31459" lon="2.61507">
        <ele>778.9</ele>
        <time>2018-11-26T14:10:32Z</time>
      </trkpt>
      <trkpt lat="42.31457" lon="2.61513">
        <ele>777.8</ele>
        <time>2018-11-26T14:10:34Z</time>
      </trkpt>
      <trkpt lat="42.31455" lon="2.61526">
        <ele>777.5</ele>
        <time>2018-11-26T14:10:38Z</time>
      </trkpt>
      <trkpt lat="42.31451" lon="2.61539">
        <ele>776.9</ele>
        <time>2018-11-26T14:10:42Z</time>
      </trkpt>
      <trkpt lat="42.31452" lon="2.6155">
        <ele>776.4</ele>
        <time>2018-11-26T14:10:45Z</time>
      </trkpt>
      <trkpt lat="42.31454" lon="2.61567">
        <ele>777</ele>
        <time>2018-11-26T14:10:50Z</time>
      </trkpt>
      <trkpt lat="42.31454" lon="2.61568">
        <ele>777.4</ele>
        <time>2018-11-26T14:10:51Z</time>
      </trkpt>
      <trkpt lat="42.31453" lon="2.61576">
        <ele>776.4</ele>
        <time>2018-11-26T14:10:53Z</time>
      </trkpt>
      <trkpt lat="42.31453" lon="2.61582">
        <ele>776.5</ele>
        <time>2018-11-26T14:10:55Z</time>
      </trkpt>
      <trkpt lat="42.31452" lon="2.61586">
        <ele>776</ele>
        <time>2018-11-26T14:10:56Z</time>
      </trkpt>
      <trkpt lat="42.3145" lon="2.616">
        <ele>775</ele>
        <time>2018-11-26T14:11:00Z</time>
      </trkpt>
      <trkpt lat="42.31452" lon="2.6161">
        <ele>774.6</ele>
        <time>2018-11-26T14:11:03Z</time>
      </trkpt>
      <trkpt lat="42.31453" lon="2.61618">
        <ele>773.1</ele>
        <time>2018-11-26T14:11:06Z</time>
      </trkpt>
      <trkpt lat="42.31455" lon="2.61624">
        <ele>771.7</ele>
        <time>2018-11-26T14:11:08Z</time>
      </trkpt>
      <trkpt lat="42.31458" lon="2.61629">
        <ele>769.7</ele>
        <time>2018-11-26T14:11:10Z</time>
      </trkpt>
      <trkpt lat="42.31459" lon="2.61635">
        <ele>768.7</ele>
        <time>2018-11-26T14:11:11Z</time>
      </trkpt>
      <trkpt lat="42.31463" lon="2.61642">
        <ele>767.9</ele>
        <time>2018-11-26T14:11:14Z</time>
      </trkpt>
      <trkpt lat="42.3147" lon="2.61646">
        <ele>766.4</ele>
        <time>2018-11-26T14:11:17Z</time>
      </trkpt>
      <trkpt lat="42.31476" lon="2.6165">
        <ele>764.9</ele>
        <time>2018-11-26T14:11:20Z</time>
      </trkpt>
      <trkpt lat="42.31478" lon="2.61655">
        <ele>763.9</ele>
        <time>2018-11-26T14:11:21Z</time>
      </trkpt>
      <trkpt lat="42.31486" lon="2.61661">
        <ele>762.1</ele>
        <time>2018-11-26T14:11:25Z</time>
      </trkpt>
      <trkpt lat="42.31488" lon="2.61667">
        <ele>761.5</ele>
        <time>2018-11-26T14:11:27Z</time>
      </trkpt>
      <trkpt lat="42.31494" lon="2.61675">
        <ele>760.2</ele>
        <time>2018-11-26T14:11:31Z</time>
      </trkpt>
      <trkpt lat="42.31498" lon="2.61681">
        <ele>759.2</ele>
        <time>2018-11-26T14:11:33Z</time>
      </trkpt>
      <trkpt lat="42.31502" lon="2.61688">
        <ele>757.7</ele>
        <time>2018-11-26T14:11:36Z</time>
      </trkpt>
      <trkpt lat="42.31508" lon="2.61694">
        <ele>756.2</ele>
        <time>2018-11-26T14:11:38Z</time>
      </trkpt>
      <trkpt lat="42.31511" lon="2.61698">
        <ele>755.4</ele>
        <time>2018-11-26T14:11:40Z</time>
      </trkpt>
      <trkpt lat="42.3151" lon="2.617">
        <ele>754.8</ele>
        <time>2018-11-26T14:11:41Z</time>
      </trkpt>
      <trkpt lat="42.31509" lon="2.61702">
        <ele>754.4</ele>
        <time>2018-11-26T14:11:42Z</time>
      </trkpt>
      <trkpt lat="42.31505" lon="2.617">
        <ele>753.9</ele>
        <time>2018-11-26T14:11:43Z</time>
      </trkpt>
      <trkpt lat="42.31512" lon="2.61701">
        <ele>753.8</ele>
        <time>2018-11-26T14:11:46Z</time>
      </trkpt>
      <trkpt lat="42.31513" lon="2.61701">
        <ele>753.8</ele>
        <time>2018-11-26T14:11:47Z</time>
      </trkpt>
      <trkpt lat="42.31519" lon="2.61704">
        <ele>754.8</ele>
        <time>2018-11-26T14:11:49Z</time>
      </trkpt>
      <trkpt lat="42.31522" lon="2.61703">
        <ele>754.8</ele>
        <time>2018-11-26T14:11:50Z</time>
      </trkpt>
      <trkpt lat="42.31522" lon="2.61705">
        <ele>754.9</ele>
        <time>2018-11-26T14:11:51Z</time>
      </trkpt>
      <trkpt lat="42.31522" lon="2.61705">
        <ele>754.9</ele>
        <time>2018-11-26T14:11:51Z</time>
      </trkpt>
      <trkpt lat="42.31524" lon="2.61704">
        <ele>753.3</ele>
        <time>2018-11-26T14:11:52Z</time>
      </trkpt>
      <trkpt lat="42.31527" lon="2.61706">
        <ele>753.9</ele>
        <time>2018-11-26T14:11:53Z</time>
      </trkpt>
      <trkpt lat="42.31528" lon="2.61712">
        <ele>753.9</ele>
        <time>2018-11-26T14:11:55Z</time>
      </trkpt>
      <trkpt lat="42.31536" lon="2.61721">
        <ele>755.8</ele>
        <time>2018-11-26T14:12:00Z</time>
      </trkpt>
      <trkpt lat="42.31547" lon="2.61728">
        <ele>756.3</ele>
        <time>2018-11-26T14:12:04Z</time>
      </trkpt>
      <trkpt lat="42.31547" lon="2.6173">
        <ele>756.7</ele>
        <time>2018-11-26T14:12:05Z</time>
      </trkpt>
      <trkpt lat="42.31549" lon="2.6174">
        <ele>757.7</ele>
        <time>2018-11-26T14:12:08Z</time>
      </trkpt>
      <trkpt lat="42.31548" lon="2.61744">
        <ele>757.7</ele>
        <time>2018-11-26T14:12:09Z</time>
      </trkpt>
      <trkpt lat="42.31541" lon="2.6175">
        <ele>760.2</ele>
        <time>2018-11-26T14:12:13Z</time>
      </trkpt>
      <trkpt lat="42.31536" lon="2.61752">
        <ele>762</ele>
        <time>2018-11-26T14:12:15Z</time>
      </trkpt>
      <trkpt lat="42.31533" lon="2.61753">
        <ele>764</ele>
        <time>2018-11-26T14:12:16Z</time>
      </trkpt>
      <trkpt lat="42.31527" lon="2.61758">
        <ele>765.5</ele>
        <time>2018-11-26T14:12:19Z</time>
      </trkpt>
      <trkpt lat="42.31525" lon="2.61758">
        <ele>766.4</ele>
        <time>2018-11-26T14:12:20Z</time>
      </trkpt>
      <trkpt lat="42.31522" lon="2.61749">
        <ele>768.7</ele>
        <time>2018-11-26T14:12:23Z</time>
      </trkpt>
      <trkpt lat="42.31521" lon="2.61746">
        <ele>770.2</ele>
        <time>2018-11-26T14:12:24Z</time>
      </trkpt>
      <trkpt lat="42.31513" lon="2.61745">
        <ele>770.3</ele>
        <time>2018-11-26T14:12:27Z</time>
      </trkpt>
      <trkpt lat="42.31502" lon="2.61744">
        <ele>771.1</ele>
        <time>2018-11-26T14:12:32Z</time>
      </trkpt>
      <trkpt lat="42.31491" lon="2.61744">
        <ele>772.1</ele>
        <time>2018-11-26T14:12:36Z</time>
      </trkpt>
      <trkpt lat="42.31484" lon="2.61746">
        <ele>772.1</ele>
        <time>2018-11-26T14:12:39Z</time>
      </trkpt>
      <trkpt lat="42.3147" lon="2.61743">
        <ele>771.6</ele>
        <time>2018-11-26T14:12:44Z</time>
      </trkpt>
      <trkpt lat="42.31461" lon="2.61741">
        <ele>773.1</ele>
        <time>2018-11-26T14:12:48Z</time>
      </trkpt>
      <trkpt lat="42.31456" lon="2.6174">
        <ele>774.1</ele>
        <time>2018-11-26T14:12:50Z</time>
      </trkpt>
      <trkpt lat="42.31447" lon="2.6174">
        <ele>775</ele>
        <time>2018-11-26T14:12:54Z</time>
      </trkpt>
      <trkpt lat="42.31436" lon="2.61736">
        <ele>776</ele>
        <time>2018-11-26T14:12:58Z</time>
      </trkpt>
      <trkpt lat="42.31427" lon="2.61735">
        <ele>777</ele>
        <time>2018-11-26T14:13:02Z</time>
      </trkpt>
      <trkpt lat="42.31419" lon="2.61729">
        <ele>777.8</ele>
        <time>2018-11-26T14:13:06Z</time>
      </trkpt>
      <trkpt lat="42.31409" lon="2.61725">
        <ele>777.8</ele>
        <time>2018-11-26T14:13:10Z</time>
      </trkpt>
      <trkpt lat="42.31405" lon="2.61723">
        <ele>777.5</ele>
        <time>2018-11-26T14:13:12Z</time>
      </trkpt>
      <trkpt lat="42.31397" lon="2.61722">
        <ele>778.9</ele>
        <time>2018-11-26T14:13:15Z</time>
      </trkpt>
      <trkpt lat="42.31395" lon="2.61721">
        <ele>778.8</ele>
        <time>2018-11-26T14:13:15Z</time>
      </trkpt>
      <trkpt lat="42.3139" lon="2.61718">
        <ele>780.3</ele>
        <time>2018-11-26T14:13:18Z</time>
      </trkpt>
      <trkpt lat="42.31382" lon="2.61715">
        <ele>781.2</ele>
        <time>2018-11-26T14:13:21Z</time>
      </trkpt>
      <trkpt lat="42.31372" lon="2.61711">
        <ele>783.2</ele>
        <time>2018-11-26T14:13:25Z</time>
      </trkpt>
      <trkpt lat="42.31364" lon="2.61705">
        <ele>785.1</ele>
        <time>2018-11-26T14:13:29Z</time>
      </trkpt>
      <trkpt lat="42.31356" lon="2.61701">
        <ele>787.1</ele>
        <time>2018-11-26T14:13:32Z</time>
      </trkpt>
      <trkpt lat="42.31352" lon="2.61703">
        <ele>788.9</ele>
        <time>2018-11-26T14:13:34Z</time>
      </trkpt>
      <trkpt lat="42.31345" lon="2.61702">
        <ele>790.8</ele>
        <time>2018-11-26T14:13:37Z</time>
      </trkpt>
      <trkpt lat="42.31337" lon="2.61709">
        <ele>792.8</ele>
        <time>2018-11-26T14:13:41Z</time>
      </trkpt>
      <trkpt lat="42.31332" lon="2.61713">
        <ele>794.8</ele>
        <time>2018-11-26T14:13:43Z</time>
      </trkpt>
      <trkpt lat="42.31326" lon="2.61716">
        <ele>796.2</ele>
        <time>2018-11-26T14:13:46Z</time>
      </trkpt>
      <trkpt lat="42.31315" lon="2.61722">
        <ele>797.6</ele>
        <time>2018-11-26T14:13:50Z</time>
      </trkpt>
      <trkpt lat="42.31303" lon="2.61728">
        <ele>799.5</ele>
        <time>2018-11-26T14:13:56Z</time>
      </trkpt>
      <trkpt lat="42.31298" lon="2.61731">
        <ele>800.9</ele>
        <time>2018-11-26T14:13:58Z</time>
      </trkpt>
      <trkpt lat="42.31287" lon="2.61731">
        <ele>802.4</ele>
        <time>2018-11-26T14:14:02Z</time>
      </trkpt>
      <trkpt lat="42.31278" lon="2.61735">
        <ele>803.9</ele>
        <time>2018-11-26T14:14:06Z</time>
      </trkpt>
      <trkpt lat="42.3127" lon="2.6174">
        <ele>805.8</ele>
        <time>2018-11-26T14:14:09Z</time>
      </trkpt>
      <trkpt lat="42.31259" lon="2.61738">
        <ele>807.2</ele>
        <time>2018-11-26T14:14:14Z</time>
      </trkpt>
      <trkpt lat="42.31258" lon="2.61737">
        <ele>807.6</ele>
        <time>2018-11-26T14:14:14Z</time>
      </trkpt>
      <trkpt lat="42.31253" lon="2.61736">
        <ele>809.2</ele>
        <time>2018-11-26T14:14:16Z</time>
      </trkpt>
      <trkpt lat="42.31241" lon="2.61736">
        <ele>809.7</ele>
        <time>2018-11-26T14:14:21Z</time>
      </trkpt>
      <trkpt lat="42.31238" lon="2.61734">
        <ele>809.7</ele>
        <time>2018-11-26T14:14:22Z</time>
      </trkpt>
      <trkpt lat="42.31232" lon="2.61734">
        <ele>810.2</ele>
        <time>2018-11-26T14:14:25Z</time>
      </trkpt>
      <trkpt lat="42.31225" lon="2.61737">
        <ele>810.1</ele>
        <time>2018-11-26T14:14:28Z</time>
      </trkpt>
      <trkpt lat="42.31215" lon="2.61737">
        <ele>810.2</ele>
        <time>2018-11-26T14:14:32Z</time>
      </trkpt>
      <trkpt lat="42.31213" lon="2.61736">
        <ele>810.5</ele>
        <time>2018-11-26T14:14:32Z</time>
      </trkpt>
      <trkpt lat="42.31206" lon="2.61734">
        <ele>812</ele>
        <time>2018-11-26T14:14:35Z</time>
      </trkpt>
      <trkpt lat="42.31202" lon="2.61738">
        <ele>814</ele>
        <time>2018-11-26T14:14:37Z</time>
      </trkpt>
      <trkpt lat="42.312" lon="2.61742">
        <ele>816.4</ele>
        <time>2018-11-26T14:14:39Z</time>
      </trkpt>
      <trkpt lat="42.31196" lon="2.61749">
        <ele>818.8</ele>
        <time>2018-11-26T14:14:42Z</time>
      </trkpt>
      <trkpt lat="42.3119" lon="2.61748">
        <ele>821.1</ele>
        <time>2018-11-26T14:14:44Z</time>
      </trkpt>
      <trkpt lat="42.31186" lon="2.61746">
        <ele>823.5</ele>
        <time>2018-11-26T14:14:46Z</time>
      </trkpt>
      <trkpt lat="42.31184" lon="2.61746">
        <ele>825.1</ele>
        <time>2018-11-26T14:14:46Z</time>
      </trkpt>
      <trkpt lat="42.31182" lon="2.61747">
        <ele>825.9</ele>
        <time>2018-11-26T14:14:47Z</time>
      </trkpt>
      <trkpt lat="42.31182" lon="2.61747">
        <ele>825.9</ele>
        <time>2018-11-26T14:14:47Z</time>
      </trkpt>
      <trkpt lat="42.31183" lon="2.61748">
        <ele>825.9</ele>
        <time>2018-11-26T14:14:48Z</time>
      </trkpt>
      <trkpt lat="42.3118" lon="2.61745">
        <ele>827.9</ele>
        <time>2018-11-26T14:14:49Z</time>
      </trkpt>
      <trkpt lat="42.31178" lon="2.61743">
        <ele>829.3</ele>
        <time>2018-11-26T14:14:50Z</time>
      </trkpt>
      <trkpt lat="42.31177" lon="2.61743">
        <ele>829.3</ele>
        <time>2018-11-26T14:14:51Z</time>
      </trkpt>
      <trkpt lat="42.31178" lon="2.61743">
        <ele>829.4</ele>
        <time>2018-11-26T14:14:51Z</time>
      </trkpt>
      <trkpt lat="42.31177" lon="2.61744">
        <ele>829.3</ele>
        <time>2018-11-26T14:14:51Z</time>
      </trkpt>
      <trkpt lat="42.31177" lon="2.61743">
        <ele>829.4</ele>
        <time>2018-11-26T14:14:52Z</time>
      </trkpt>
      <trkpt lat="42.31177" lon="2.61744">
        <ele>828.4</ele>
        <time>2018-11-26T14:14:52Z</time>
      </trkpt>
      <trkpt lat="42.31175" lon="2.61739">
        <ele>829.8</ele>
        <time>2018-11-26T14:14:54Z</time>
      </trkpt>
      <trkpt lat="42.31172" lon="2.61736">
        <ele>832.7</ele>
        <time>2018-11-26T14:14:55Z</time>
      </trkpt>
      <trkpt lat="42.31167" lon="2.61738">
        <ele>834.6</ele>
        <time>2018-11-26T14:14:58Z</time>
      </trkpt>
      <trkpt lat="42.31161" lon="2.61742">
        <ele>837.1</ele>
        <time>2018-11-26T14:15:00Z</time>
      </trkpt>
      <trkpt lat="42.31159" lon="2.6174">
        <ele>839</ele>
        <time>2018-11-26T14:15:01Z</time>
      </trkpt>
      <trkpt lat="42.31157" lon="2.61745">
        <ele>841.4</ele>
        <time>2018-11-26T14:15:03Z</time>
      </trkpt>
      <trkpt lat="42.31158" lon="2.6175">
        <ele>843.7</ele>
        <time>2018-11-26T14:15:05Z</time>
      </trkpt>
      <trkpt lat="42.31155" lon="2.61754">
        <ele>846.1</ele>
        <time>2018-11-26T14:15:06Z</time>
      </trkpt>
      <trkpt lat="42.31153" lon="2.61753">
        <ele>847.1</ele>
        <time>2018-11-26T14:15:07Z</time>
      </trkpt>
      <trkpt lat="42.31148" lon="2.6174">
        <ele>849.5</ele>
        <time>2018-11-26T14:15:11Z</time>
      </trkpt>
      <trkpt lat="42.31145" lon="2.6173">
        <ele>850.9</ele>
        <time>2018-11-26T14:15:14Z</time>
      </trkpt>
      <trkpt lat="42.31144" lon="2.61721">
        <ele>852.5</ele>
        <time>2018-11-26T14:15:17Z</time>
      </trkpt>
      <trkpt lat="42.31143" lon="2.61711">
        <ele>853.3</ele>
        <time>2018-11-26T14:15:20Z</time>
      </trkpt>
      <trkpt lat="42.31141" lon="2.61708">
        <ele>853.9</ele>
        <time>2018-11-26T14:15:21Z</time>
      </trkpt>
      <trkpt lat="42.31138" lon="2.61705">
        <ele>853.3</ele>
        <time>2018-11-26T14:15:23Z</time>
      </trkpt>
      <trkpt lat="42.31134" lon="2.61704">
        <ele>853.8</ele>
        <time>2018-11-26T14:15:25Z</time>
      </trkpt>
      <trkpt lat="42.31126" lon="2.617">
        <ele>852.9</ele>
        <time>2018-11-26T14:15:28Z</time>
      </trkpt>
      <trkpt lat="42.3112" lon="2.61698">
        <ele>852</ele>
        <time>2018-11-26T14:15:31Z</time>
      </trkpt>
      <trkpt lat="42.31112" lon="2.61696">
        <ele>850.9</ele>
        <time>2018-11-26T14:15:34Z</time>
      </trkpt>
      <trkpt lat="42.31101" lon="2.61693">
        <ele>849.9</ele>
        <time>2018-11-26T14:15:38Z</time>
      </trkpt>
      <trkpt lat="42.31094" lon="2.6169">
        <ele>849.5</ele>
        <time>2018-11-26T14:15:41Z</time>
      </trkpt>
      <trkpt lat="42.31086" lon="2.61693">
        <ele>850</ele>
        <time>2018-11-26T14:15:44Z</time>
      </trkpt>
      <trkpt lat="42.31073" lon="2.61691">
        <ele>849.5</ele>
        <time>2018-11-26T14:15:49Z</time>
      </trkpt>
      <trkpt lat="42.3107" lon="2.61687">
        <ele>848.6</ele>
        <time>2018-11-26T14:15:51Z</time>
      </trkpt>
      <trkpt lat="42.31061" lon="2.61684">
        <ele>848.1</ele>
        <time>2018-11-26T14:15:55Z</time>
      </trkpt>
      <trkpt lat="42.3106" lon="2.61682">
        <ele>848.1</ele>
        <time>2018-11-26T14:15:56Z</time>
      </trkpt>
      <trkpt lat="42.31056" lon="2.6168">
        <ele>848.6</ele>
        <time>2018-11-26T14:15:57Z</time>
      </trkpt>
      <trkpt lat="42.3105" lon="2.61675">
        <ele>849</ele>
        <time>2018-11-26T14:16:00Z</time>
      </trkpt>
      <trkpt lat="42.31047" lon="2.61673">
        <ele>849.6</ele>
        <time>2018-11-26T14:16:02Z</time>
      </trkpt>
      <trkpt lat="42.31033" lon="2.61661">
        <ele>850.5</ele>
        <time>2018-11-26T14:16:08Z</time>
      </trkpt>
      <trkpt lat="42.31029" lon="2.61657">
        <ele>851.4</ele>
        <time>2018-11-26T14:16:10Z</time>
      </trkpt>
      <trkpt lat="42.31024" lon="2.61652">
        <ele>852.8</ele>
        <time>2018-11-26T14:16:13Z</time>
      </trkpt>
      <trkpt lat="42.31019" lon="2.61651">
        <ele>854.9</ele>
        <time>2018-11-26T14:16:15Z</time>
      </trkpt>
      <trkpt lat="42.31013" lon="2.61645">
        <ele>856.8</ele>
        <time>2018-11-26T14:16:18Z</time>
      </trkpt>
      <trkpt lat="42.31007" lon="2.6164">
        <ele>859.6</ele>
        <time>2018-11-26T14:16:20Z</time>
      </trkpt>
      <trkpt lat="42.31003" lon="2.61633">
        <ele>862.1</ele>
        <time>2018-11-26T14:16:23Z</time>
      </trkpt>
      <trkpt lat="42.31" lon="2.61627">
        <ele>863.9</ele>
        <time>2018-11-26T14:16:25Z</time>
      </trkpt>
      <trkpt lat="42.31001" lon="2.61614">
        <ele>865.9</ele>
        <time>2018-11-26T14:16:29Z</time>
      </trkpt>
      <trkpt lat="42.31001" lon="2.61605">
        <ele>867.4</ele>
        <time>2018-11-26T14:16:32Z</time>
      </trkpt>
      <trkpt lat="42.30996" lon="2.61604">
        <ele>869.3</ele>
        <time>2018-11-26T14:16:34Z</time>
      </trkpt>
      <trkpt lat="42.30994" lon="2.61592">
        <ele>870.6</ele>
        <time>2018-11-26T14:16:37Z</time>
      </trkpt>
      <trkpt lat="42.30993" lon="2.6159">
        <ele>871.7</ele>
        <time>2018-11-26T14:16:38Z</time>
      </trkpt>
      <trkpt lat="42.30988" lon="2.61594">
        <ele>872.1</ele>
        <time>2018-11-26T14:16:40Z</time>
      </trkpt>
      <trkpt lat="42.30987" lon="2.61596">
        <ele>872.5</ele>
        <time>2018-11-26T14:16:41Z</time>
      </trkpt>
      <trkpt lat="42.30978" lon="2.61602">
        <ele>874</ele>
        <time>2018-11-26T14:16:45Z</time>
      </trkpt>
      <trkpt lat="42.3097" lon="2.61603">
        <ele>876.5</ele>
        <time>2018-11-26T14:16:48Z</time>
      </trkpt>
      <trkpt lat="42.30966" lon="2.61604">
        <ele>877.8</ele>
        <time>2018-11-26T14:16:50Z</time>
      </trkpt>
      <trkpt lat="42.30955" lon="2.61607">
        <ele>879.7</ele>
        <time>2018-11-26T14:16:54Z</time>
      </trkpt>
      <trkpt lat="42.30948" lon="2.61611">
        <ele>881.2</ele>
        <time>2018-11-26T14:16:57Z</time>
      </trkpt>
      <trkpt lat="42.30939" lon="2.61611">
        <ele>882.6</ele>
        <time>2018-11-26T14:17:01Z</time>
      </trkpt>
      <trkpt lat="42.30931" lon="2.61608">
        <ele>884.7</ele>
        <time>2018-11-26T14:17:04Z</time>
      </trkpt>
      <trkpt lat="42.30924" lon="2.61608">
        <ele>885.5</ele>
        <time>2018-11-26T14:17:07Z</time>
      </trkpt>
      <trkpt lat="42.30912" lon="2.61614">
        <ele>886.6</ele>
        <time>2018-11-26T14:17:12Z</time>
      </trkpt>
      <trkpt lat="42.30907" lon="2.61618">
        <ele>887.9</ele>
        <time>2018-11-26T14:17:14Z</time>
      </trkpt>
      <trkpt lat="42.30906" lon="2.61619">
        <ele>887.9</ele>
        <time>2018-11-26T14:17:15Z</time>
      </trkpt>
      <trkpt lat="42.30896" lon="2.61625">
        <ele>887</ele>
        <time>2018-11-26T14:17:19Z</time>
      </trkpt>
      <trkpt lat="42.30894" lon="2.61627">
        <ele>887.4</ele>
        <time>2018-11-26T14:17:20Z</time>
      </trkpt>
      <trkpt lat="42.30883" lon="2.61637">
        <ele>888.4</ele>
        <time>2018-11-26T14:17:26Z</time>
      </trkpt>
      <trkpt lat="42.30875" lon="2.61646">
        <ele>888.9</ele>
        <time>2018-11-26T14:17:30Z</time>
      </trkpt>
      <trkpt lat="42.30871" lon="2.61653">
        <ele>889.8</ele>
        <time>2018-11-26T14:17:32Z</time>
      </trkpt>
      <trkpt lat="42.3087" lon="2.61653">
        <ele>890.4</ele>
        <time>2018-11-26T14:17:33Z</time>
      </trkpt>
      <trkpt lat="42.30871" lon="2.61653">
        <ele>890.4</ele>
        <time>2018-11-26T14:17:33Z</time>
      </trkpt>
      <trkpt lat="42.3087" lon="2.61654">
        <ele>890.4</ele>
        <time>2018-11-26T14:17:33Z</time>
      </trkpt>
      <trkpt lat="42.30869" lon="2.61658">
        <ele>890.4</ele>
        <time>2018-11-26T14:17:34Z</time>
      </trkpt>
      <trkpt lat="42.30863" lon="2.6167">
        <ele>891.9</ele>
        <time>2018-11-26T14:17:39Z</time>
      </trkpt>
      <trkpt lat="42.30855" lon="2.6168">
        <ele>891.8</ele>
        <time>2018-11-26T14:17:43Z</time>
      </trkpt>
      <trkpt lat="42.30849" lon="2.61687">
        <ele>891.8</ele>
        <time>2018-11-26T14:17:46Z</time>
      </trkpt>
      <trkpt lat="42.30839" lon="2.61702">
        <ele>891.3</ele>
        <time>2018-11-26T14:17:52Z</time>
      </trkpt>
      <trkpt lat="42.30835" lon="2.6171">
        <ele>892.2</ele>
        <time>2018-11-26T14:17:55Z</time>
      </trkpt>
      <trkpt lat="42.3083" lon="2.61714">
        <ele>893.3</ele>
        <time>2018-11-26T14:17:57Z</time>
      </trkpt>
      <trkpt lat="42.30829" lon="2.61718">
        <ele>894.7</ele>
        <time>2018-11-26T14:17:58Z</time>
      </trkpt>
      <trkpt lat="42.30824" lon="2.61723">
        <ele>895.6</ele>
        <time>2018-11-26T14:18:01Z</time>
      </trkpt>
      <trkpt lat="42.30816" lon="2.6173">
        <ele>897.2</ele>
        <time>2018-11-26T14:18:05Z</time>
      </trkpt>
      <trkpt lat="42.30809" lon="2.61738">
        <ele>898.5</ele>
        <time>2018-11-26T14:18:09Z</time>
      </trkpt>
      <trkpt lat="42.30799" lon="2.61745">
        <ele>897.6</ele>
        <time>2018-11-26T14:18:13Z</time>
      </trkpt>
      <trkpt lat="42.30794" lon="2.61753">
        <ele>897.1</ele>
        <time>2018-11-26T14:18:16Z</time>
      </trkpt>
      <trkpt lat="42.30787" lon="2.61757">
        <ele>898</ele>
        <time>2018-11-26T14:18:19Z</time>
      </trkpt>
      <trkpt lat="42.30782" lon="2.61761">
        <ele>899.1</ele>
        <time>2018-11-26T14:18:21Z</time>
      </trkpt>
      <trkpt lat="42.30776" lon="2.61767">
        <ele>899.9</ele>
        <time>2018-11-26T14:18:24Z</time>
      </trkpt>
      <trkpt lat="42.30772" lon="2.61769">
        <ele>900.9</ele>
        <time>2018-11-26T14:18:26Z</time>
      </trkpt>
      <trkpt lat="42.30765" lon="2.61769">
        <ele>901.4</ele>
        <time>2018-11-26T14:18:29Z</time>
      </trkpt>
      <trkpt lat="42.30763" lon="2.61769">
        <ele>901.4</ele>
        <time>2018-11-26T14:18:30Z</time>
      </trkpt>
      <trkpt lat="42.3076" lon="2.61769">
        <ele>902</ele>
        <time>2018-11-26T14:18:31Z</time>
      </trkpt>
      <trkpt lat="42.30759" lon="2.61769">
        <ele>902.3</ele>
        <time>2018-11-26T14:18:31Z</time>
      </trkpt>
      <trkpt lat="42.30754" lon="2.61771">
        <ele>903.8</ele>
        <time>2018-11-26T14:18:34Z</time>
      </trkpt>
      <trkpt lat="42.30756" lon="2.61771">
        <ele>905.8</ele>
        <time>2018-11-26T14:18:35Z</time>
      </trkpt>
      <trkpt lat="42.30759" lon="2.61769">
        <ele>906.7</ele>
        <time>2018-11-26T14:18:36Z</time>
      </trkpt>
      <trkpt lat="42.3076" lon="2.6177">
        <ele>908.1</ele>
        <time>2018-11-26T14:18:36Z</time>
      </trkpt>
      <trkpt lat="42.30757" lon="2.61774">
        <ele>909.5</ele>
        <time>2018-11-26T14:18:38Z</time>
      </trkpt>
      <trkpt lat="42.30749" lon="2.61773">
        <ele>911.5</ele>
        <time>2018-11-26T14:18:41Z</time>
      </trkpt>
      <trkpt lat="42.30745" lon="2.61775">
        <ele>912.4</ele>
        <time>2018-11-26T14:18:43Z</time>
      </trkpt>
      <trkpt lat="42.30745" lon="2.61779">
        <ele>913.4</ele>
        <time>2018-11-26T14:18:44Z</time>
      </trkpt>
      <trkpt lat="42.30744" lon="2.6178">
        <ele>914</ele>
        <time>2018-11-26T14:18:45Z</time>
      </trkpt>
      <trkpt lat="42.30742" lon="2.61788">
        <ele>915.8</ele>
        <time>2018-11-26T14:18:47Z</time>
      </trkpt>
      <trkpt lat="42.30737" lon="2.61791">
        <ele>917.2</ele>
        <time>2018-11-26T14:18:50Z</time>
      </trkpt>
      <trkpt lat="42.30735" lon="2.61791">
        <ele>918.3</ele>
        <time>2018-11-26T14:18:50Z</time>
      </trkpt>
      <trkpt lat="42.30734" lon="2.61792">
        <ele>918.3</ele>
        <time>2018-11-26T14:18:51Z</time>
      </trkpt>
      <trkpt lat="42.3073" lon="2.61796">
        <ele>918.7</ele>
        <time>2018-11-26T14:18:53Z</time>
      </trkpt>
      <trkpt lat="42.30726" lon="2.61796">
        <ele>919.6</ele>
        <time>2018-11-26T14:18:54Z</time>
      </trkpt>
      <trkpt lat="42.30719" lon="2.61796">
        <ele>921.7</ele>
        <time>2018-11-26T14:18:57Z</time>
      </trkpt>
      <trkpt lat="42.30716" lon="2.61796">
        <ele>923.1</ele>
        <time>2018-11-26T14:18:58Z</time>
      </trkpt>
      <trkpt lat="42.30716" lon="2.61805">
        <ele>924</ele>
        <time>2018-11-26T14:19:01Z</time>
      </trkpt>
      <trkpt lat="42.30716" lon="2.61807">
        <ele>924.5</ele>
        <time>2018-11-26T14:19:02Z</time>
      </trkpt>
      <trkpt lat="42.30716" lon="2.61809">
        <ele>924.5</ele>
        <time>2018-11-26T14:19:03Z</time>
      </trkpt>
      <trkpt lat="42.30716" lon="2.61814">
        <ele>924.6</ele>
        <time>2018-11-26T14:19:04Z</time>
      </trkpt>
      <trkpt lat="42.30716" lon="2.61817">
        <ele>924</ele>
        <time>2018-11-26T14:19:05Z</time>
      </trkpt>
      <trkpt lat="42.30716" lon="2.61828">
        <ele>923.1</ele>
        <time>2018-11-26T14:19:08Z</time>
      </trkpt>
      <trkpt lat="42.30719" lon="2.6184">
        <ele>922.5</ele>
        <time>2018-11-26T14:19:12Z</time>
      </trkpt>
      <trkpt lat="42.30723" lon="2.61851">
        <ele>923.6</ele>
        <time>2018-11-26T14:19:15Z</time>
      </trkpt>
      <trkpt lat="42.30723" lon="2.61857">
        <ele>922</ele>
        <time>2018-11-26T14:19:17Z</time>
      </trkpt>
      <trkpt lat="42.30722" lon="2.61865">
        <ele>921.6</ele>
        <time>2018-11-26T14:19:20Z</time>
      </trkpt>
      <trkpt lat="42.30725" lon="2.61877">
        <ele>922.1</ele>
        <time>2018-11-26T14:19:23Z</time>
      </trkpt>
      <trkpt lat="42.30728" lon="2.61889">
        <ele>922</ele>
        <time>2018-11-26T14:19:27Z</time>
      </trkpt>
      <trkpt lat="42.30732" lon="2.61897">
        <ele>922.5</ele>
        <time>2018-11-26T14:19:30Z</time>
      </trkpt>
      <trkpt lat="42.30733" lon="2.619">
        <ele>922</ele>
        <time>2018-11-26T14:19:31Z</time>
      </trkpt>
      <trkpt lat="42.30732" lon="2.61908">
        <ele>920.1</ele>
        <time>2018-11-26T14:19:33Z</time>
      </trkpt>
      <trkpt lat="42.30734" lon="2.61917">
        <ele>919.3</ele>
        <time>2018-11-26T14:19:36Z</time>
      </trkpt>
      <trkpt lat="42.30735" lon="2.61933">
        <ele>917.7</ele>
        <time>2018-11-26T14:19:41Z</time>
      </trkpt>
      <trkpt lat="42.30741" lon="2.61943">
        <ele>916.3</ele>
        <time>2018-11-26T14:19:45Z</time>
      </trkpt>
      <trkpt lat="42.30741" lon="2.61945">
        <ele>916.3</ele>
        <time>2018-11-26T14:19:45Z</time>
      </trkpt>
      <trkpt lat="42.30741" lon="2.61952">
        <ele>914.8</ele>
        <time>2018-11-26T14:19:47Z</time>
      </trkpt>
      <trkpt lat="42.30747" lon="2.61967">
        <ele>913.9</ele>
        <time>2018-11-26T14:19:53Z</time>
      </trkpt>
      <trkpt lat="42.30749" lon="2.6197">
        <ele>914</ele>
        <time>2018-11-26T14:19:54Z</time>
      </trkpt>
      <trkpt lat="42.30752" lon="2.61984">
        <ele>913</ele>
        <time>2018-11-26T14:19:58Z</time>
      </trkpt>
      <trkpt lat="42.30753" lon="2.61986">
        <ele>913</ele>
        <time>2018-11-26T14:19:59Z</time>
      </trkpt>
      <trkpt lat="42.30755" lon="2.61995">
        <ele>911.6</ele>
        <time>2018-11-26T14:20:01Z</time>
      </trkpt>
      <trkpt lat="42.30756" lon="2.62001">
        <ele>910</ele>
        <time>2018-11-26T14:20:03Z</time>
      </trkpt>
      <trkpt lat="42.30754" lon="2.62011">
        <ele>909.1</ele>
        <time>2018-11-26T14:20:06Z</time>
      </trkpt>
      <trkpt lat="42.3075" lon="2.62024">
        <ele>907.6</ele>
        <time>2018-11-26T14:20:11Z</time>
      </trkpt>
      <trkpt lat="42.3075" lon="2.62026">
        <ele>907.6</ele>
        <time>2018-11-26T14:20:11Z</time>
      </trkpt>
      <trkpt lat="42.30749" lon="2.6204">
        <ele>907.6</ele>
        <time>2018-11-26T14:20:15Z</time>
      </trkpt>
      <trkpt lat="42.30745" lon="2.62048">
        <ele>908.2</ele>
        <time>2018-11-26T14:20:18Z</time>
      </trkpt>
      <trkpt lat="42.30743" lon="2.62049">
        <ele>907.6</ele>
        <time>2018-11-26T14:20:19Z</time>
      </trkpt>
      <trkpt lat="42.30738" lon="2.62054">
        <ele>907.1</ele>
        <time>2018-11-26T14:20:21Z</time>
      </trkpt>
      <trkpt lat="42.30735" lon="2.62065">
        <ele>906.2</ele>
        <time>2018-11-26T14:20:25Z</time>
      </trkpt>
      <trkpt lat="42.30731" lon="2.62075">
        <ele>906.2</ele>
        <time>2018-11-26T14:20:28Z</time>
      </trkpt>
      <trkpt lat="42.30726" lon="2.62088">
        <ele>906.2</ele>
        <time>2018-11-26T14:20:33Z</time>
      </trkpt>
      <trkpt lat="42.30725" lon="2.62094">
        <ele>906.2</ele>
        <time>2018-11-26T14:20:34Z</time>
      </trkpt>
      <trkpt lat="42.30721" lon="2.62106">
        <ele>905.2</ele>
        <time>2018-11-26T14:20:38Z</time>
      </trkpt>
      <trkpt lat="42.30718" lon="2.62115">
        <ele>905.2</ele>
        <time>2018-11-26T14:20:41Z</time>
      </trkpt>
      <trkpt lat="42.30715" lon="2.62122">
        <ele>903.9</ele>
        <time>2018-11-26T14:20:44Z</time>
      </trkpt>
      <trkpt lat="42.30711" lon="2.62129">
        <ele>903.4</ele>
        <time>2018-11-26T14:20:46Z</time>
      </trkpt>
      <trkpt lat="42.3071" lon="2.62134">
        <ele>902.8</ele>
        <time>2018-11-26T14:20:48Z</time>
      </trkpt>
      <trkpt lat="42.30707" lon="2.62139">
        <ele>901.9</ele>
        <time>2018-11-26T14:20:49Z</time>
      </trkpt>
      <trkpt lat="42.30706" lon="2.62141">
        <ele>901.9</ele>
        <time>2018-11-26T14:20:50Z</time>
      </trkpt>
      <trkpt lat="42.30704" lon="2.62145">
        <ele>901.5</ele>
        <time>2018-11-26T14:20:52Z</time>
      </trkpt>
      <trkpt lat="42.30703" lon="2.62147">
        <ele>901</ele>
        <time>2018-11-26T14:20:53Z</time>
      </trkpt>
      <trkpt lat="42.30699" lon="2.62153">
        <ele>899.6</ele>
        <time>2018-11-26T14:20:55Z</time>
      </trkpt>
      <trkpt lat="42.30695" lon="2.62164">
        <ele>898.5</ele>
        <time>2018-11-26T14:20:58Z</time>
      </trkpt>
      <trkpt lat="42.3069" lon="2.62173">
        <ele>897.5</ele>
        <time>2018-11-26T14:21:02Z</time>
      </trkpt>
      <trkpt lat="42.30685" lon="2.62181">
        <ele>896.1</ele>
        <time>2018-11-26T14:21:05Z</time>
      </trkpt>
      <trkpt lat="42.30678" lon="2.62193">
        <ele>895.1</ele>
        <time>2018-11-26T14:21:10Z</time>
      </trkpt>
      <trkpt lat="42.30676" lon="2.62196">
        <ele>894.7</ele>
        <time>2018-11-26T14:21:11Z</time>
      </trkpt>
      <trkpt lat="42.30669" lon="2.62206">
        <ele>893.8</ele>
        <time>2018-11-26T14:21:15Z</time>
      </trkpt>
      <trkpt lat="42.30661" lon="2.62218">
        <ele>892.7</ele>
        <time>2018-11-26T14:21:19Z</time>
      </trkpt>
      <trkpt lat="42.30653" lon="2.62224">
        <ele>890.9</ele>
        <time>2018-11-26T14:21:23Z</time>
      </trkpt>
      <trkpt lat="42.30643" lon="2.62228">
        <ele>889.4</ele>
        <time>2018-11-26T14:21:27Z</time>
      </trkpt>
      <trkpt lat="42.30634" lon="2.6223">
        <ele>888.5</ele>
        <time>2018-11-26T14:21:31Z</time>
      </trkpt>
      <trkpt lat="42.30626" lon="2.62232">
        <ele>887.1</ele>
        <time>2018-11-26T14:21:34Z</time>
      </trkpt>
      <trkpt lat="42.30621" lon="2.62235">
        <ele>885.1</ele>
        <time>2018-11-26T14:21:36Z</time>
      </trkpt>
      <trkpt lat="42.30617" lon="2.62239">
        <ele>884.2</ele>
        <time>2018-11-26T14:21:38Z</time>
      </trkpt>
      <trkpt lat="42.30611" lon="2.62238">
        <ele>882.6</ele>
        <time>2018-11-26T14:21:41Z</time>
      </trkpt>
      <trkpt lat="42.30604" lon="2.62239">
        <ele>880.2</ele>
        <time>2018-11-26T14:21:44Z</time>
      </trkpt>
      <trkpt lat="42.30601" lon="2.62236">
        <ele>879.3</ele>
        <time>2018-11-26T14:21:45Z</time>
      </trkpt>
      <trkpt lat="42.30595" lon="2.62231">
        <ele>877.4</ele>
        <time>2018-11-26T14:21:48Z</time>
      </trkpt>
      <trkpt lat="42.30594" lon="2.62222">
        <ele>876</ele>
        <time>2018-11-26T14:21:51Z</time>
      </trkpt>
      <trkpt lat="42.30593" lon="2.62212">
        <ele>874</ele>
        <time>2018-11-26T14:21:54Z</time>
      </trkpt>
      <trkpt lat="42.30592" lon="2.62207">
        <ele>874.1</ele>
        <time>2018-11-26T14:21:55Z</time>
      </trkpt>
      <trkpt lat="42.30592" lon="2.62207">
        <ele>874</ele>
        <time>2018-11-26T14:21:55Z</time>
      </trkpt>
      <trkpt lat="42.30592" lon="2.62207">
        <ele>874</ele>
        <time>2018-11-26T14:21:56Z</time>
      </trkpt>
      <trkpt lat="42.30592" lon="2.62206">
        <ele>873.5</ele>
        <time>2018-11-26T14:21:56Z</time>
      </trkpt>
      <trkpt lat="42.30592" lon="2.62206">
        <ele>874</ele>
        <time>2018-11-26T14:21:56Z</time>
      </trkpt>
      <trkpt lat="42.30595" lon="2.62205">
        <ele>873.1</ele>
        <time>2018-11-26T14:21:57Z</time>
      </trkpt>
      <trkpt lat="42.30595" lon="2.62205">
        <ele>872.6</ele>
        <time>2018-11-26T14:21:57Z</time>
      </trkpt>
      <trkpt lat="42.30595" lon="2.62205">
        <ele>872.5</ele>
        <time>2018-11-26T14:21:57Z</time>
      </trkpt>
      <trkpt lat="42.30594" lon="2.62206">
        <ele>872.5</ele>
        <time>2018-11-26T14:21:58Z</time>
      </trkpt>
      <trkpt lat="42.30594" lon="2.62206">
        <ele>872.2</ele>
        <time>2018-11-26T14:21:58Z</time>
      </trkpt>
      <trkpt lat="42.30593" lon="2.62206">
        <ele>872.1</ele>
        <time>2018-11-26T14:21:58Z</time>
      </trkpt>
      <trkpt lat="42.30592" lon="2.62205">
        <ele>871.7</ele>
        <time>2018-11-26T14:21:58Z</time>
      </trkpt>
      <trkpt lat="42.30593" lon="2.62205">
        <ele>872.1</ele>
        <time>2018-11-26T14:21:59Z</time>
      </trkpt>
      <trkpt lat="42.30593" lon="2.62206">
        <ele>871.7</ele>
        <time>2018-11-26T14:21:59Z</time>
      </trkpt>
      <trkpt lat="42.30594" lon="2.62205">
        <ele>871.7</ele>
        <time>2018-11-26T14:21:59Z</time>
      </trkpt>
      <trkpt lat="42.30595" lon="2.62207">
        <ele>871.7</ele>
        <time>2018-11-26T14:22:00Z</time>
      </trkpt>
      <trkpt lat="42.30594" lon="2.62206">
        <ele>871.6</ele>
        <time>2018-11-26T14:22:00Z</time>
      </trkpt>
      <trkpt lat="42.30595" lon="2.62205">
        <ele>871.2</ele>
        <time>2018-11-26T14:22:00Z</time>
      </trkpt>
      <trkpt lat="42.30595" lon="2.62208">
        <ele>871.6</ele>
        <time>2018-11-26T14:22:01Z</time>
      </trkpt>
      <trkpt lat="42.30594" lon="2.62207">
        <ele>871.6</ele>
        <time>2018-11-26T14:22:02Z</time>
      </trkpt>
      <trkpt lat="42.30594" lon="2.62205">
        <ele>871.1</ele>
        <time>2018-11-26T14:22:02Z</time>
      </trkpt>
      <trkpt lat="42.30593" lon="2.62205">
        <ele>871.7</ele>
        <time>2018-11-26T14:22:03Z</time>
      </trkpt>
      <trkpt lat="42.30593" lon="2.62205">
        <ele>871.1</ele>
        <time>2018-11-26T14:22:03Z</time>
      </trkpt>
      <trkpt lat="42.30594" lon="2.62205">
        <ele>871.2</ele>
        <time>2018-11-26T14:22:03Z</time>
      </trkpt>
      <trkpt lat="42.30594" lon="2.62206">
        <ele>871.1</ele>
        <time>2018-11-26T14:22:04Z</time>
      </trkpt>
      <trkpt lat="42.30594" lon="2.62205">
        <ele>871.2</ele>
        <time>2018-11-26T14:22:04Z</time>
      </trkpt>
      <trkpt lat="42.30592" lon="2.62204">
        <ele>871.2</ele>
        <time>2018-11-26T14:22:05Z</time>
      </trkpt>
      <trkpt lat="42.30592" lon="2.62206">
        <ele>870.6</ele>
        <time>2018-11-26T14:22:05Z</time>
      </trkpt>
      <trkpt lat="42.30592" lon="2.62207">
        <ele>870.7</ele>
        <time>2018-11-26T14:22:06Z</time>
      </trkpt>
      <trkpt lat="42.30591" lon="2.62207">
        <ele>870.7</ele>
        <time>2018-11-26T14:22:06Z</time>
      </trkpt>
      <trkpt lat="42.3059" lon="2.62206">
        <ele>871.1</ele>
        <time>2018-11-26T14:22:07Z</time>
      </trkpt>
      <trkpt lat="42.30592" lon="2.62207">
        <ele>870.6</ele>
        <time>2018-11-26T14:22:08Z</time>
      </trkpt>
      <trkpt lat="42.30593" lon="2.62207">
        <ele>870.1</ele>
        <time>2018-11-26T14:22:08Z</time>
      </trkpt>
      <trkpt lat="42.30592" lon="2.62208">
        <ele>870.7</ele>
        <time>2018-11-26T14:22:08Z</time>
      </trkpt>
      <trkpt lat="42.30592" lon="2.62207">
        <ele>870.1</ele>
        <time>2018-11-26T14:22:08Z</time>
      </trkpt>
      <trkpt lat="42.30593" lon="2.62208">
        <ele>870.7</ele>
        <time>2018-11-26T14:22:09Z</time>
      </trkpt>
      <trkpt lat="42.30593" lon="2.62207">
        <ele>870.2</ele>
        <time>2018-11-26T14:22:09Z</time>
      </trkpt>
      <trkpt lat="42.30592" lon="2.62207">
        <ele>870.7</ele>
        <time>2018-11-26T14:22:09Z</time>
      </trkpt>
      <trkpt lat="42.30592" lon="2.62206">
        <ele>870.1</ele>
        <time>2018-11-26T14:22:09Z</time>
      </trkpt>
      <trkpt lat="42.30592" lon="2.62204">
        <ele>871.7</ele>
        <time>2018-11-26T14:22:10Z</time>
      </trkpt>
      <trkpt lat="42.30591" lon="2.62205">
        <ele>871.6</ele>
        <time>2018-11-26T14:22:10Z</time>
      </trkpt>
      <trkpt lat="42.30585" lon="2.62204">
        <ele>870.2</ele>
        <time>2018-11-26T14:22:13Z</time>
      </trkpt>
      <trkpt lat="42.30584" lon="2.62203">
        <ele>869.8</ele>
        <time>2018-11-26T14:22:13Z</time>
      </trkpt>
      <trkpt lat="42.30583" lon="2.62194">
        <ele>868.2</ele>
        <time>2018-11-26T14:22:16Z</time>
      </trkpt>
      <trkpt lat="42.30586" lon="2.6219">
        <ele>867.3</ele>
        <time>2018-11-26T14:22:18Z</time>
      </trkpt>
      <trkpt lat="42.30584" lon="2.62178">
        <ele>865.4</ele>
        <time>2018-11-26T14:22:21Z</time>
      </trkpt>
      <trkpt lat="42.30581" lon="2.62173">
        <ele>863.5</ele>
        <time>2018-11-26T14:22:23Z</time>
      </trkpt>
      <trkpt lat="42.30578" lon="2.62169">
        <ele>861</ele>
        <time>2018-11-26T14:22:25Z</time>
      </trkpt>
      <trkpt lat="42.30576" lon="2.62166">
        <ele>859.1</ele>
        <time>2018-11-26T14:22:26Z</time>
      </trkpt>
      <trkpt lat="42.30568" lon="2.62161">
        <ele>857.2</ele>
        <time>2018-11-26T14:22:30Z</time>
      </trkpt>
      <trkpt lat="42.30566" lon="2.62155">
        <ele>855.7</ele>
        <time>2018-11-26T14:22:32Z</time>
      </trkpt>
      <trkpt lat="42.30562" lon="2.62151">
        <ele>853.9</ele>
        <time>2018-11-26T14:22:34Z</time>
      </trkpt>
      <trkpt lat="42.30558" lon="2.62147">
        <ele>852.5</ele>
        <time>2018-11-26T14:22:35Z</time>
      </trkpt>
      <trkpt lat="42.30555" lon="2.62144">
        <ele>850.4</ele>
        <time>2018-11-26T14:22:37Z</time>
      </trkpt>
      <trkpt lat="42.30548" lon="2.6214">
        <ele>849.6</ele>
        <time>2018-11-26T14:22:40Z</time>
      </trkpt>
      <trkpt lat="42.30545" lon="2.62137">
        <ele>847.1</ele>
        <time>2018-11-26T14:22:41Z</time>
      </trkpt>
      <trkpt lat="42.30543" lon="2.62135">
        <ele>845.1</ele>
        <time>2018-11-26T14:22:43Z</time>
      </trkpt>
      <trkpt lat="42.30538" lon="2.62131">
        <ele>842.7</ele>
        <time>2018-11-26T14:22:45Z</time>
      </trkpt>
      <trkpt lat="42.30537" lon="2.62131">
        <ele>842.7</ele>
        <time>2018-11-26T14:22:45Z</time>
      </trkpt>
      <trkpt lat="42.30533" lon="2.62129">
        <ele>840.9</ele>
        <time>2018-11-26T14:22:47Z</time>
      </trkpt>
      <trkpt lat="42.3053" lon="2.62128">
        <ele>838.5</ele>
        <time>2018-11-26T14:22:48Z</time>
      </trkpt>
      <trkpt lat="42.30529" lon="2.62128">
        <ele>836.6</ele>
        <time>2018-11-26T14:22:48Z</time>
      </trkpt>
      <trkpt lat="42.30524" lon="2.62122">
        <ele>834.1</ele>
        <time>2018-11-26T14:22:51Z</time>
      </trkpt>
      <trkpt lat="42.30523" lon="2.6212">
        <ele>833.2</ele>
        <time>2018-11-26T14:22:52Z</time>
      </trkpt>
      <trkpt lat="42.30523" lon="2.62117">
        <ele>830.7</ele>
        <time>2018-11-26T14:22:53Z</time>
      </trkpt>
      <trkpt lat="42.30526" lon="2.62114">
        <ele>829.4</ele>
        <time>2018-11-26T14:22:54Z</time>
      </trkpt>
      <trkpt lat="42.30526" lon="2.62109">
        <ele>827.5</ele>
        <time>2018-11-26T14:22:56Z</time>
      </trkpt>
      <trkpt lat="42.30525" lon="2.62107">
        <ele>826.4</ele>
        <time>2018-11-26T14:22:56Z</time>
      </trkpt>
      <trkpt lat="42.30526" lon="2.62102">
        <ele>825.4</ele>
        <time>2018-11-26T14:22:58Z</time>
      </trkpt>
      <trkpt lat="42.30528" lon="2.62098">
        <ele>825</ele>
        <time>2018-11-26T14:22:59Z</time>
      </trkpt>
      <trkpt lat="42.30531" lon="2.62094">
        <ele>823.6</ele>
        <time>2018-11-26T14:23:01Z</time>
      </trkpt>
      <trkpt lat="42.3053" lon="2.62089">
        <ele>822.7</ele>
        <time>2018-11-26T14:23:02Z</time>
      </trkpt>
      <trkpt lat="42.30531" lon="2.62086">
        <ele>821.2</ele>
        <time>2018-11-26T14:23:04Z</time>
      </trkpt>
      <trkpt lat="42.30528" lon="2.62088">
        <ele>819.7</ele>
        <time>2018-11-26T14:23:05Z</time>
      </trkpt>
      <trkpt lat="42.3052" lon="2.6209">
        <ele>817.8</ele>
        <time>2018-11-26T14:23:08Z</time>
      </trkpt>
      <trkpt lat="42.30517" lon="2.62096">
        <ele>816.3</ele>
        <time>2018-11-26T14:23:10Z</time>
      </trkpt>
      <trkpt lat="42.30514" lon="2.621">
        <ele>814.5</ele>
        <time>2018-11-26T14:23:12Z</time>
      </trkpt>
      <trkpt lat="42.30508" lon="2.62104">
        <ele>813</ele>
        <time>2018-11-26T14:23:15Z</time>
      </trkpt>
      <trkpt lat="42.30503" lon="2.62102">
        <ele>810.6</ele>
        <time>2018-11-26T14:23:17Z</time>
      </trkpt>
      <trkpt lat="42.30498" lon="2.62101">
        <ele>808.1</ele>
        <time>2018-11-26T14:23:19Z</time>
      </trkpt>
      <trkpt lat="42.30494" lon="2.62095">
        <ele>807.2</ele>
        <time>2018-11-26T14:23:21Z</time>
      </trkpt>
      <trkpt lat="42.30491" lon="2.62093">
        <ele>806.3</ele>
        <time>2018-11-26T14:23:23Z</time>
      </trkpt>
      <trkpt lat="42.30489" lon="2.62085">
        <ele>804.4</ele>
        <time>2018-11-26T14:23:25Z</time>
      </trkpt>
      <trkpt lat="42.3049" lon="2.62081">
        <ele>802.8</ele>
        <time>2018-11-26T14:23:26Z</time>
      </trkpt>
      <trkpt lat="42.30487" lon="2.62076">
        <ele>800.9</ele>
        <time>2018-11-26T14:23:28Z</time>
      </trkpt>
      <trkpt lat="42.30486" lon="2.62075">
        <ele>799.5</ele>
        <time>2018-11-26T14:23:29Z</time>
      </trkpt>
      <trkpt lat="42.30483" lon="2.62074">
        <ele>798.1</ele>
        <time>2018-11-26T14:23:30Z</time>
      </trkpt>
      <trkpt lat="42.30478" lon="2.62072">
        <ele>796.7</ele>
        <time>2018-11-26T14:23:32Z</time>
      </trkpt>
      <trkpt lat="42.3047" lon="2.6208">
        <ele>795.3</ele>
        <time>2018-11-26T14:23:36Z</time>
      </trkpt>
      <trkpt lat="42.30466" lon="2.62087">
        <ele>793.8</ele>
        <time>2018-11-26T14:23:38Z</time>
      </trkpt>
      <trkpt lat="42.30461" lon="2.62091">
        <ele>791.9</ele>
        <time>2018-11-26T14:23:41Z</time>
      </trkpt>
      <trkpt lat="42.30456" lon="2.62087">
        <ele>789.9</ele>
        <time>2018-11-26T14:23:43Z</time>
      </trkpt>
      <trkpt lat="42.30452" lon="2.62084">
        <ele>788.9</ele>
        <time>2018-11-26T14:23:45Z</time>
      </trkpt>
      <trkpt lat="42.30448" lon="2.62074">
        <ele>787</ele>
        <time>2018-11-26T14:23:48Z</time>
      </trkpt>
      <trkpt lat="42.30446" lon="2.62073">
        <ele>786.6</ele>
        <time>2018-11-26T14:23:49Z</time>
      </trkpt>
      <trkpt lat="42.30441" lon="2.62067">
        <ele>785.2</ele>
        <time>2018-11-26T14:23:52Z</time>
      </trkpt>
      <trkpt lat="42.30438" lon="2.62062">
        <ele>783.2</ele>
        <time>2018-11-26T14:23:54Z</time>
      </trkpt>
      <trkpt lat="42.30436" lon="2.62057">
        <ele>781.7</ele>
        <time>2018-11-26T14:23:55Z</time>
      </trkpt>
      <trkpt lat="42.30437" lon="2.62052">
        <ele>780.3</ele>
        <time>2018-11-26T14:23:57Z</time>
      </trkpt>
      <trkpt lat="42.30436" lon="2.62043">
        <ele>778.4</ele>
        <time>2018-11-26T14:24:00Z</time>
      </trkpt>
      <trkpt lat="42.30432" lon="2.62039">
        <ele>776.5</ele>
        <time>2018-11-26T14:24:02Z</time>
      </trkpt>
      <trkpt lat="42.30428" lon="2.62033">
        <ele>775.4</ele>
        <time>2018-11-26T14:24:04Z</time>
      </trkpt>
      <trkpt lat="42.30422" lon="2.62026">
        <ele>774.1</ele>
        <time>2018-11-26T14:24:07Z</time>
      </trkpt>
      <trkpt lat="42.30416" lon="2.6202">
        <ele>772.6</ele>
        <time>2018-11-26T14:24:10Z</time>
      </trkpt>
      <trkpt lat="42.30415" lon="2.62014">
        <ele>771.1</ele>
        <time>2018-11-26T14:24:12Z</time>
      </trkpt>
      <trkpt lat="42.30411" lon="2.62011">
        <ele>770.3</ele>
        <time>2018-11-26T14:24:14Z</time>
      </trkpt>
      <trkpt lat="42.30406" lon="2.62009">
        <ele>768.3</ele>
        <time>2018-11-26T14:24:16Z</time>
      </trkpt>
      <trkpt lat="42.30399" lon="2.62005">
        <ele>766.9</ele>
        <time>2018-11-26T14:24:18Z</time>
      </trkpt>
      <trkpt lat="42.30395" lon="2.62002">
        <ele>764.9</ele>
        <time>2018-11-26T14:24:20Z</time>
      </trkpt>
      <trkpt lat="42.30391" lon="2.61997">
        <ele>763</ele>
        <time>2018-11-26T14:24:22Z</time>
      </trkpt>
      <trkpt lat="42.30391" lon="2.61997">
        <ele>762.5</ele>
        <time>2018-11-26T14:24:23Z</time>
      </trkpt>
      <trkpt lat="42.30387" lon="2.6199">
        <ele>760.5</ele>
        <time>2018-11-26T14:24:25Z</time>
      </trkpt>
      <trkpt lat="42.3038" lon="2.61983">
        <ele>758.7</ele>
        <time>2018-11-26T14:24:29Z</time>
      </trkpt>
      <trkpt lat="42.30376" lon="2.61978">
        <ele>756.7</ele>
        <time>2018-11-26T14:24:31Z</time>
      </trkpt>
      <trkpt lat="42.30372" lon="2.61975">
        <ele>755.3</ele>
        <time>2018-11-26T14:24:33Z</time>
      </trkpt>
      <trkpt lat="42.30366" lon="2.61971">
        <ele>753.8</ele>
        <time>2018-11-26T14:24:36Z</time>
      </trkpt>
      <trkpt lat="42.30365" lon="2.6197">
        <ele>753.8</ele>
        <time>2018-11-26T14:24:36Z</time>
      </trkpt>
      <trkpt lat="42.30359" lon="2.61969">
        <ele>751.9</ele>
        <time>2018-11-26T14:24:38Z</time>
      </trkpt>
      <trkpt lat="42.30353" lon="2.61965">
        <ele>750.5</ele>
        <time>2018-11-26T14:24:41Z</time>
      </trkpt>
      <trkpt lat="42.3035" lon="2.61963">
        <ele>749</ele>
        <time>2018-11-26T14:24:42Z</time>
      </trkpt>
      <trkpt lat="42.30345" lon="2.61961">
        <ele>747.6</ele>
        <time>2018-11-26T14:24:45Z</time>
      </trkpt>
      <trkpt lat="42.30338" lon="2.61958">
        <ele>746.2</ele>
        <time>2018-11-26T14:24:47Z</time>
      </trkpt>
      <trkpt lat="42.30335" lon="2.61957">
        <ele>745.3</ele>
        <time>2018-11-26T14:24:49Z</time>
      </trkpt>
      <trkpt lat="42.30333" lon="2.61956">
        <ele>744.7</ele>
        <time>2018-11-26T14:24:50Z</time>
      </trkpt>
      <trkpt lat="42.30325" lon="2.6195">
        <ele>742.8</ele>
        <time>2018-11-26T14:24:53Z</time>
      </trkpt>
      <trkpt lat="42.30322" lon="2.61945">
        <ele>741.8</ele>
        <time>2018-11-26T14:24:55Z</time>
      </trkpt>
      <trkpt lat="42.30314" lon="2.61943">
        <ele>740</ele>
        <time>2018-11-26T14:24:58Z</time>
      </trkpt>
      <trkpt lat="42.30305" lon="2.61938">
        <ele>738.4</ele>
        <time>2018-11-26T14:25:02Z</time>
      </trkpt>
      <trkpt lat="42.30297" lon="2.61937">
        <ele>736</ele>
        <time>2018-11-26T14:25:05Z</time>
      </trkpt>
      <trkpt lat="42.30295" lon="2.61931">
        <ele>734.7</ele>
        <time>2018-11-26T14:25:07Z</time>
      </trkpt>
      <trkpt lat="42.30292" lon="2.61927">
        <ele>732.7</ele>
        <time>2018-11-26T14:25:09Z</time>
      </trkpt>
      <trkpt lat="42.30288" lon="2.61924">
        <ele>731.2</ele>
        <time>2018-11-26T14:25:11Z</time>
      </trkpt>
      <trkpt lat="42.30284" lon="2.61922">
        <ele>729.8</ele>
        <time>2018-11-26T14:25:12Z</time>
      </trkpt>
      <trkpt lat="42.3028" lon="2.61919">
        <ele>727.9</ele>
        <time>2018-11-26T14:25:14Z</time>
      </trkpt>
      <trkpt lat="42.30277" lon="2.61917">
        <ele>725.5</ele>
        <time>2018-11-26T14:25:16Z</time>
      </trkpt>
      <trkpt lat="42.30274" lon="2.61913">
        <ele>723.6</ele>
        <time>2018-11-26T14:25:18Z</time>
      </trkpt>
      <trkpt lat="42.30272" lon="2.61911">
        <ele>723.6</ele>
        <time>2018-11-26T14:25:18Z</time>
      </trkpt>
      <trkpt lat="42.30265" lon="2.61908">
        <ele>722.2</ele>
        <time>2018-11-26T14:25:22Z</time>
      </trkpt>
      <trkpt lat="42.30261" lon="2.61903">
        <ele>719.7</ele>
        <time>2018-11-26T14:25:24Z</time>
      </trkpt>
      <trkpt lat="42.30259" lon="2.61894">
        <ele>717.8</ele>
        <time>2018-11-26T14:25:26Z</time>
      </trkpt>
      <trkpt lat="42.30255" lon="2.61893">
        <ele>716.3</ele>
        <time>2018-11-26T14:25:28Z</time>
      </trkpt>
      <trkpt lat="42.30251" lon="2.61891">
        <ele>715.4</ele>
        <time>2018-11-26T14:25:30Z</time>
      </trkpt>
      <trkpt lat="42.30249" lon="2.61889">
        <ele>714.5</ele>
        <time>2018-11-26T14:25:31Z</time>
      </trkpt>
      <trkpt lat="42.30248" lon="2.61887">
        <ele>713.9</ele>
        <time>2018-11-26T14:25:32Z</time>
      </trkpt>
      <trkpt lat="42.30244" lon="2.61883">
        <ele>712.5</ele>
        <time>2018-11-26T14:25:34Z</time>
      </trkpt>
      <trkpt lat="42.30242" lon="2.61879">
        <ele>710.1</ele>
        <time>2018-11-26T14:25:35Z</time>
      </trkpt>
      <trkpt lat="42.30236" lon="2.61876">
        <ele>708.6</ele>
        <time>2018-11-26T14:25:37Z</time>
      </trkpt>
      <trkpt lat="42.3023" lon="2.61875">
        <ele>707.2</ele>
        <time>2018-11-26T14:25:40Z</time>
      </trkpt>
      <trkpt lat="42.30224" lon="2.61872">
        <ele>704.9</ele>
        <time>2018-11-26T14:25:42Z</time>
      </trkpt>
      <trkpt lat="42.30223" lon="2.61868">
        <ele>703.4</ele>
        <time>2018-11-26T14:25:44Z</time>
      </trkpt>
      <trkpt lat="42.30223" lon="2.61866">
        <ele>701.5</ele>
        <time>2018-11-26T14:25:44Z</time>
      </trkpt>
      <trkpt lat="42.30222" lon="2.61862">
        <ele>700</ele>
        <time>2018-11-26T14:25:46Z</time>
      </trkpt>
      <trkpt lat="42.30219" lon="2.61856">
        <ele>698.1</ele>
        <time>2018-11-26T14:25:48Z</time>
      </trkpt>
      <trkpt lat="42.30212" lon="2.61852">
        <ele>696.6</ele>
        <time>2018-11-26T14:25:51Z</time>
      </trkpt>
      <trkpt lat="42.30208" lon="2.6185">
        <ele>695.2</ele>
        <time>2018-11-26T14:25:53Z</time>
      </trkpt>
      <trkpt lat="42.30208" lon="2.6185">
        <ele>695.2</ele>
        <time>2018-11-26T14:25:53Z</time>
      </trkpt>
      <trkpt lat="42.30204" lon="2.61841">
        <ele>693.8</ele>
        <time>2018-11-26T14:25:56Z</time>
      </trkpt>
      <trkpt lat="42.30204" lon="2.61835">
        <ele>692.8</ele>
        <time>2018-11-26T14:25:58Z</time>
      </trkpt>
      <trkpt lat="42.30203" lon="2.61829">
        <ele>692.3</ele>
        <time>2018-11-26T14:26:00Z</time>
      </trkpt>
      <trkpt lat="42.30203" lon="2.61829">
        <ele>692.3</ele>
        <time>2018-11-26T14:26:00Z</time>
      </trkpt>
      <trkpt lat="42.30203" lon="2.6183">
        <ele>692.4</ele>
        <time>2018-11-26T14:26:00Z</time>
      </trkpt>
      <trkpt lat="42.30203" lon="2.61829">
        <ele>692.9</ele>
        <time>2018-11-26T14:26:00Z</time>
      </trkpt>
      <trkpt lat="42.30203" lon="2.61827">
        <ele>692.8</ele>
        <time>2018-11-26T14:26:01Z</time>
      </trkpt>
      <trkpt lat="42.30203" lon="2.6183">
        <ele>692.3</ele>
        <time>2018-11-26T14:26:02Z</time>
      </trkpt>
      <trkpt lat="42.30204" lon="2.61831">
        <ele>692.3</ele>
        <time>2018-11-26T14:26:02Z</time>
      </trkpt>
      <trkpt lat="42.30203" lon="2.61832">
        <ele>692.3</ele>
        <time>2018-11-26T14:26:03Z</time>
      </trkpt>
      <trkpt lat="42.30202" lon="2.61834">
        <ele>692.4</ele>
        <time>2018-11-26T14:26:03Z</time>
      </trkpt>
      <trkpt lat="42.30201" lon="2.61835">
        <ele>691.4</ele>
        <time>2018-11-26T14:26:04Z</time>
      </trkpt>
      <trkpt lat="42.30201" lon="2.61834">
        <ele>691.4</ele>
        <time>2018-11-26T14:26:04Z</time>
      </trkpt>
      <trkpt lat="42.30201" lon="2.61834">
        <ele>691.8</ele>
        <time>2018-11-26T14:26:04Z</time>
      </trkpt>
      <trkpt lat="42.30202" lon="2.61833">
        <ele>691.4</ele>
        <time>2018-11-26T14:26:05Z</time>
      </trkpt>
      <trkpt lat="42.30205" lon="2.61833">
        <ele>692.4</ele>
        <time>2018-11-26T14:26:06Z</time>
      </trkpt>
      <trkpt lat="42.30208" lon="2.61831">
        <ele>691.8</ele>
        <time>2018-11-26T14:26:08Z</time>
      </trkpt>
      <trkpt lat="42.30215" lon="2.61817">
        <ele>689.9</ele>
        <time>2018-11-26T14:26:12Z</time>
      </trkpt>
      <trkpt lat="42.30223" lon="2.61813">
        <ele>688.4</ele>
        <time>2018-11-26T14:26:16Z</time>
      </trkpt>
      <trkpt lat="42.30229" lon="2.618">
        <ele>687</ele>
        <time>2018-11-26T14:26:20Z</time>
      </trkpt>
      <trkpt lat="42.30234" lon="2.61795">
        <ele>685.1</ele>
        <time>2018-11-26T14:26:23Z</time>
      </trkpt>
      <trkpt lat="42.30245" lon="2.61796">
        <ele>683.2</ele>
        <time>2018-11-26T14:26:27Z</time>
      </trkpt>
      <trkpt lat="42.30248" lon="2.61796">
        <ele>681.7</ele>
        <time>2018-11-26T14:26:28Z</time>
      </trkpt>
      <trkpt lat="42.30254" lon="2.61792">
        <ele>679.8</ele>
        <time>2018-11-26T14:26:31Z</time>
      </trkpt>
      <trkpt lat="42.30262" lon="2.61785">
        <ele>678.8</ele>
        <time>2018-11-26T14:26:35Z</time>
      </trkpt>
      <trkpt lat="42.30273" lon="2.61777">
        <ele>676.5</ele>
        <time>2018-11-26T14:26:40Z</time>
      </trkpt>
      <trkpt lat="42.30276" lon="2.61772">
        <ele>675.1</ele>
        <time>2018-11-26T14:26:42Z</time>
      </trkpt>
      <trkpt lat="42.3028" lon="2.61766">
        <ele>673.5</ele>
        <time>2018-11-26T14:26:44Z</time>
      </trkpt>
      <trkpt lat="42.30286" lon="2.61759">
        <ele>671.7</ele>
        <time>2018-11-26T14:26:47Z</time>
      </trkpt>
      <trkpt lat="42.30287" lon="2.61753">
        <ele>669.7</ele>
        <time>2018-11-26T14:26:49Z</time>
      </trkpt>
      <trkpt lat="42.3029" lon="2.61746">
        <ele>668.3</ele>
        <time>2018-11-26T14:26:51Z</time>
      </trkpt>
      <trkpt lat="42.30294" lon="2.61736">
        <ele>665.9</ele>
        <time>2018-11-26T14:26:55Z</time>
      </trkpt>
      <trkpt lat="42.30304" lon="2.61729">
        <ele>664.4</ele>
        <time>2018-11-26T14:26:59Z</time>
      </trkpt>
      <trkpt lat="42.30319" lon="2.61728">
        <ele>665</ele>
        <time>2018-11-26T14:27:05Z</time>
      </trkpt>
      <trkpt lat="42.30325" lon="2.6172">
        <ele>664.5</ele>
        <time>2018-11-26T14:27:09Z</time>
      </trkpt>
      <trkpt lat="42.30323" lon="2.61708">
        <ele>663.6</ele>
        <time>2018-11-26T14:27:12Z</time>
      </trkpt>
      <trkpt lat="42.3032" lon="2.61698">
        <ele>661.1</ele>
        <time>2018-11-26T14:27:15Z</time>
      </trkpt>
      <trkpt lat="42.3032" lon="2.61686">
        <ele>659.6</ele>
        <time>2018-11-26T14:27:19Z</time>
      </trkpt>
      <trkpt lat="42.30318" lon="2.61673">
        <ele>657.8</ele>
        <time>2018-11-26T14:27:23Z</time>
      </trkpt>
      <trkpt lat="42.30316" lon="2.61665">
        <ele>656.3</ele>
        <time>2018-11-26T14:27:25Z</time>
      </trkpt>
      <trkpt lat="42.30311" lon="2.61658">
        <ele>654.8</ele>
        <time>2018-11-26T14:27:28Z</time>
      </trkpt>
      <trkpt lat="42.3031" lon="2.61655">
        <ele>653</ele>
        <time>2018-11-26T14:27:29Z</time>
      </trkpt>
      <trkpt lat="42.30309" lon="2.61648">
        <ele>651.1</ele>
        <time>2018-11-26T14:27:31Z</time>
      </trkpt>
      <trkpt lat="42.30305" lon="2.61638">
        <ele>649</ele>
        <time>2018-11-26T14:27:35Z</time>
      </trkpt>
      <trkpt lat="42.30304" lon="2.61632">
        <ele>648.1</ele>
        <time>2018-11-26T14:27:37Z</time>
      </trkpt>
      <trkpt lat="42.30308" lon="2.6162">
        <ele>646.2</ele>
        <time>2018-11-26T14:27:41Z</time>
      </trkpt>
      <trkpt lat="42.3031" lon="2.61615">
        <ele>646.2</ele>
        <time>2018-11-26T14:27:42Z</time>
      </trkpt>
      <trkpt lat="42.30315" lon="2.61601">
        <ele>646.1</ele>
        <time>2018-11-26T14:27:47Z</time>
      </trkpt>
      <trkpt lat="42.30317" lon="2.61594">
        <ele>645.7</ele>
        <time>2018-11-26T14:27:49Z</time>
      </trkpt>
      <trkpt lat="42.30317" lon="2.61587">
        <ele>644.2</ele>
        <time>2018-11-26T14:27:51Z</time>
      </trkpt>
      <trkpt lat="42.30319" lon="2.61577">
        <ele>643.4</ele>
        <time>2018-11-26T14:27:54Z</time>
      </trkpt>
      <trkpt lat="42.3032" lon="2.61568">
        <ele>641.9</ele>
        <time>2018-11-26T14:27:57Z</time>
      </trkpt>
      <trkpt lat="42.30318" lon="2.61561">
        <ele>639.9</ele>
        <time>2018-11-26T14:27:59Z</time>
      </trkpt>
      <trkpt lat="42.30316" lon="2.61553">
        <ele>638</ele>
        <time>2018-11-26T14:28:02Z</time>
      </trkpt>
      <trkpt lat="42.30312" lon="2.6154">
        <ele>636.6</ele>
        <time>2018-11-26T14:28:06Z</time>
      </trkpt>
      <trkpt lat="42.30315" lon="2.61532">
        <ele>635.1</ele>
        <time>2018-11-26T14:28:08Z</time>
      </trkpt>
      <trkpt lat="42.30312" lon="2.61521">
        <ele>633.2</ele>
        <time>2018-11-26T14:28:12Z</time>
      </trkpt>
      <trkpt lat="42.30311" lon="2.61511">
        <ele>631.2</ele>
        <time>2018-11-26T14:28:15Z</time>
      </trkpt>
      <trkpt lat="42.30312" lon="2.61506">
        <ele>630.3</ele>
        <time>2018-11-26T14:28:16Z</time>
      </trkpt>
      <trkpt lat="42.30314" lon="2.61496">
        <ele>628.9</ele>
        <time>2018-11-26T14:28:19Z</time>
      </trkpt>
      <trkpt lat="42.30316" lon="2.61487">
        <ele>628</ele>
        <time>2018-11-26T14:28:22Z</time>
      </trkpt>
      <trkpt lat="42.30316" lon="2.61483">
        <ele>627.5</ele>
        <time>2018-11-26T14:28:23Z</time>
      </trkpt>
      <trkpt lat="42.30317" lon="2.61474">
        <ele>627</ele>
        <time>2018-11-26T14:28:26Z</time>
      </trkpt>
      <trkpt lat="42.30316" lon="2.61471">
        <ele>626.4</ele>
        <time>2018-11-26T14:28:27Z</time>
      </trkpt>
      <trkpt lat="42.30313" lon="2.61466">
        <ele>624.6</ele>
        <time>2018-11-26T14:28:29Z</time>
      </trkpt>
      <trkpt lat="42.30307" lon="2.61458">
        <ele>623.7</ele>
        <time>2018-11-26T14:28:32Z</time>
      </trkpt>
      <trkpt lat="42.30302" lon="2.61448">
        <ele>621.3</ele>
        <time>2018-11-26T14:28:36Z</time>
      </trkpt>
      <trkpt lat="42.303" lon="2.61444">
        <ele>621.2</ele>
        <time>2018-11-26T14:28:37Z</time>
      </trkpt>
      <trkpt lat="42.30301" lon="2.61442">
        <ele>621.2</ele>
        <time>2018-11-26T14:28:38Z</time>
      </trkpt>
      <trkpt lat="42.30298" lon="2.61438">
        <ele>620.8</ele>
        <time>2018-11-26T14:28:40Z</time>
      </trkpt>
      <trkpt lat="42.30297" lon="2.61437">
        <ele>620.3</ele>
        <time>2018-11-26T14:28:40Z</time>
      </trkpt>
      <trkpt lat="42.30295" lon="2.61435">
        <ele>618.9</ele>
        <time>2018-11-26T14:28:41Z</time>
      </trkpt>
      <trkpt lat="42.30295" lon="2.61431">
        <ele>618.3</ele>
        <time>2018-11-26T14:28:42Z</time>
      </trkpt>
      <trkpt lat="42.30293" lon="2.61429">
        <ele>617.9</ele>
        <time>2018-11-26T14:28:43Z</time>
      </trkpt>
      <trkpt lat="42.30294" lon="2.61425">
        <ele>618.3</ele>
        <time>2018-11-26T14:28:44Z</time>
      </trkpt>
      <trkpt lat="42.30295" lon="2.61423">
        <ele>618.4</ele>
        <time>2018-11-26T14:28:45Z</time>
      </trkpt>
      <trkpt lat="42.30298" lon="2.61408">
        <ele>617.8</ele>
        <time>2018-11-26T14:28:50Z</time>
      </trkpt>
      <trkpt lat="42.30299" lon="2.61402">
        <ele>617.4</ele>
        <time>2018-11-26T14:28:52Z</time>
      </trkpt>
      <trkpt lat="42.30302" lon="2.61388">
        <ele>616.9</ele>
        <time>2018-11-26T14:28:56Z</time>
      </trkpt>
      <trkpt lat="42.30311" lon="2.61373">
        <ele>616.3</ele>
        <time>2018-11-26T14:29:01Z</time>
      </trkpt>
      <trkpt lat="42.30313" lon="2.61365">
        <ele>615.4</ele>
        <time>2018-11-26T14:29:04Z</time>
      </trkpt>
      <trkpt lat="42.30317" lon="2.61356">
        <ele>613.9</ele>
        <time>2018-11-26T14:29:07Z</time>
      </trkpt>
      <trkpt lat="42.30321" lon="2.6135">
        <ele>613.6</ele>
        <time>2018-11-26T14:29:09Z</time>
      </trkpt>
      <trkpt lat="42.30322" lon="2.61346">
        <ele>613.1</ele>
        <time>2018-11-26T14:29:11Z</time>
      </trkpt>
      <trkpt lat="42.30323" lon="2.6133">
        <ele>612.1</ele>
        <time>2018-11-26T14:29:15Z</time>
      </trkpt>
      <trkpt lat="42.30322" lon="2.61328">
        <ele>611.6</ele>
        <time>2018-11-26T14:29:16Z</time>
      </trkpt>
      <trkpt lat="42.30321" lon="2.61319">
        <ele>610.7</ele>
        <time>2018-11-26T14:29:19Z</time>
      </trkpt>
      <trkpt lat="42.30322" lon="2.61316">
        <ele>610.7</ele>
        <time>2018-11-26T14:29:20Z</time>
      </trkpt>
      <trkpt lat="42.30322" lon="2.61309">
        <ele>610.7</ele>
        <time>2018-11-26T14:29:22Z</time>
      </trkpt>
      <trkpt lat="42.30324" lon="2.61299">
        <ele>610.2</ele>
        <time>2018-11-26T14:29:25Z</time>
      </trkpt>
      <trkpt lat="42.30326" lon="2.61292">
        <ele>609.7</ele>
        <time>2018-11-26T14:29:27Z</time>
      </trkpt>
      <trkpt lat="42.30321" lon="2.61285">
        <ele>607.7</ele>
        <time>2018-11-26T14:29:30Z</time>
      </trkpt>
      <trkpt lat="42.30313" lon="2.6128">
        <ele>606.3</ele>
        <time>2018-11-26T14:29:33Z</time>
      </trkpt>
      <trkpt lat="42.30312" lon="2.61277">
        <ele>606.3</ele>
        <time>2018-11-26T14:29:34Z</time>
      </trkpt>
      <trkpt lat="42.30313" lon="2.61271">
        <ele>606.4</ele>
        <time>2018-11-26T14:29:36Z</time>
      </trkpt>
      <trkpt lat="42.30312" lon="2.6127">
        <ele>606.4</ele>
        <time>2018-11-26T14:29:36Z</time>
      </trkpt>
      <trkpt lat="42.30311" lon="2.61271">
        <ele>606.3</ele>
        <time>2018-11-26T14:29:37Z</time>
      </trkpt>
      <trkpt lat="42.30313" lon="2.61272">
        <ele>605.8</ele>
        <time>2018-11-26T14:29:38Z</time>
      </trkpt>
      <trkpt lat="42.30312" lon="2.61272">
        <ele>606.4</ele>
        <time>2018-11-26T14:29:38Z</time>
      </trkpt>
      <trkpt lat="42.30309" lon="2.61266">
        <ele>605.8</ele>
        <time>2018-11-26T14:29:40Z</time>
      </trkpt>
      <trkpt lat="42.30306" lon="2.61261">
        <ele>605.9</ele>
        <time>2018-11-26T14:29:42Z</time>
      </trkpt>
      <trkpt lat="42.30306" lon="2.61258">
        <ele>605.9</ele>
        <time>2018-11-26T14:29:43Z</time>
      </trkpt>
      <trkpt lat="42.30301" lon="2.61254">
        <ele>604.8</ele>
        <time>2018-11-26T14:29:45Z</time>
      </trkpt>
      <trkpt lat="42.30293" lon="2.61257">
        <ele>603.9</ele>
        <time>2018-11-26T14:29:48Z</time>
      </trkpt>
      <trkpt lat="42.3029" lon="2.6126">
        <ele>603.4</ele>
        <time>2018-11-26T14:29:50Z</time>
      </trkpt>
      <trkpt lat="42.30288" lon="2.61259">
        <ele>603.4</ele>
        <time>2018-11-26T14:29:51Z</time>
      </trkpt>
      <trkpt lat="42.30286" lon="2.6126">
        <ele>603.4</ele>
        <time>2018-11-26T14:29:51Z</time>
      </trkpt>
      <trkpt lat="42.30278" lon="2.61265">
        <ele>601.4</ele>
        <time>2018-11-26T14:29:55Z</time>
      </trkpt>
      <trkpt lat="42.30276" lon="2.61264">
        <ele>601.5</ele>
        <time>2018-11-26T14:29:56Z</time>
      </trkpt>
      <trkpt lat="42.30275" lon="2.61261">
        <ele>601.1</ele>
        <time>2018-11-26T14:29:57Z</time>
      </trkpt>
      <trkpt lat="42.30274" lon="2.61259">
        <ele>601.1</ele>
        <time>2018-11-26T14:29:58Z</time>
      </trkpt>
      <trkpt lat="42.30273" lon="2.61257">
        <ele>601.1</ele>
        <time>2018-11-26T14:29:58Z</time>
      </trkpt>
      <trkpt lat="42.30268" lon="2.61253">
        <ele>600.6</ele>
        <time>2018-11-26T14:30:01Z</time>
      </trkpt>
      <trkpt lat="42.30266" lon="2.61254">
        <ele>600.5</ele>
        <time>2018-11-26T14:30:01Z</time>
      </trkpt>
      <trkpt lat="42.30261" lon="2.6125">
        <ele>601.1</ele>
        <time>2018-11-26T14:30:04Z</time>
      </trkpt>
      <trkpt lat="42.3026" lon="2.61247">
        <ele>601</ele>
        <time>2018-11-26T14:30:05Z</time>
      </trkpt>
      <trkpt lat="42.30258" lon="2.61244">
        <ele>601</ele>
        <time>2018-11-26T14:30:06Z</time>
      </trkpt>
      <trkpt lat="42.30257" lon="2.61242">
        <ele>601.1</ele>
        <time>2018-11-26T14:30:07Z</time>
      </trkpt>
      <trkpt lat="42.30256" lon="2.6124">
        <ele>601.1</ele>
        <time>2018-11-26T14:30:08Z</time>
      </trkpt>
      <trkpt lat="42.30255" lon="2.61236">
        <ele>601.5</ele>
        <time>2018-11-26T14:30:09Z</time>
      </trkpt>
      <trkpt lat="42.30252" lon="2.61232">
        <ele>602.9</ele>
        <time>2018-11-26T14:30:10Z</time>
      </trkpt>
      <trkpt lat="42.30246" lon="2.61231">
        <ele>604.4</ele>
        <time>2018-11-26T14:30:13Z</time>
      </trkpt>
      <trkpt lat="42.30241" lon="2.61227">
        <ele>604</ele>
        <time>2018-11-26T14:30:15Z</time>
      </trkpt>
      <trkpt lat="42.30239" lon="2.61225">
        <ele>603.9</ele>
        <time>2018-11-26T14:30:16Z</time>
      </trkpt>
      <trkpt lat="42.30238" lon="2.61222">
        <ele>603.9</ele>
        <time>2018-11-26T14:30:17Z</time>
      </trkpt>
      <trkpt lat="42.30231" lon="2.61218">
        <ele>603.9</ele>
        <time>2018-11-26T14:30:20Z</time>
      </trkpt>
      <trkpt lat="42.30226" lon="2.61217">
        <ele>604</ele>
        <time>2018-11-26T14:30:22Z</time>
      </trkpt>
      <trkpt lat="42.30228" lon="2.61217">
        <ele>603.9</ele>
        <time>2018-11-26T14:30:23Z</time>
      </trkpt>
      <trkpt lat="42.30229" lon="2.61218">
        <ele>603.9</ele>
        <time>2018-11-26T14:30:23Z</time>
      </trkpt>
      <trkpt lat="42.30228" lon="2.61218">
        <ele>603.9</ele>
        <time>2018-11-26T14:30:24Z</time>
      </trkpt>
      <trkpt lat="42.30227" lon="2.61217">
        <ele>604</ele>
        <time>2018-11-26T14:30:24Z</time>
      </trkpt>
      <trkpt lat="42.30225" lon="2.61214">
        <ele>604</ele>
        <time>2018-11-26T14:30:25Z</time>
      </trkpt>
      <trkpt lat="42.30224" lon="2.61215">
        <ele>603.9</ele>
        <time>2018-11-26T14:30:26Z</time>
      </trkpt>
      <trkpt lat="42.30221" lon="2.61215">
        <ele>603.4</ele>
        <time>2018-11-26T14:30:27Z</time>
      </trkpt>
      <trkpt lat="42.30207" lon="2.61231">
        <ele>602</ele>
        <time>2018-11-26T14:30:34Z</time>
      </trkpt>
      <trkpt lat="42.30202" lon="2.61243">
        <ele>602</ele>
        <time>2018-11-26T14:30:39Z</time>
      </trkpt>
      <trkpt lat="42.30191" lon="2.61259">
        <ele>603</ele>
        <time>2018-11-26T14:30:45Z</time>
      </trkpt>
      <trkpt lat="42.3019" lon="2.6126">
        <ele>603</ele>
        <time>2018-11-26T14:30:45Z</time>
      </trkpt>
      <trkpt lat="42.30179" lon="2.61269">
        <ele>603.5</ele>
        <time>2018-11-26T14:30:50Z</time>
      </trkpt>
      <trkpt lat="42.30174" lon="2.61272">
        <ele>603.4</ele>
        <time>2018-11-26T14:30:53Z</time>
      </trkpt>
      <trkpt lat="42.30171" lon="2.61274">
        <ele>603.4</ele>
        <time>2018-11-26T14:30:54Z</time>
      </trkpt>
      <trkpt lat="42.30154" lon="2.61276">
        <ele>603.9</ele>
        <time>2018-11-26T14:31:01Z</time>
      </trkpt>
      <trkpt lat="42.30151" lon="2.61276">
        <ele>603.5</ele>
        <time>2018-11-26T14:31:02Z</time>
      </trkpt>
      <trkpt lat="42.30148" lon="2.61274">
        <ele>603.9</ele>
        <time>2018-11-26T14:31:03Z</time>
      </trkpt>
      <trkpt lat="42.30149" lon="2.61259">
        <ele>605.8</ele>
        <time>2018-11-26T14:31:08Z</time>
      </trkpt>
      <trkpt lat="42.30147" lon="2.61252">
        <ele>606.3</ele>
        <time>2018-11-26T14:31:10Z</time>
      </trkpt>
      <trkpt lat="42.30146" lon="2.61248">
        <ele>606.7</ele>
        <time>2018-11-26T14:31:11Z</time>
      </trkpt>
      <trkpt lat="42.30147" lon="2.61234">
        <ele>608.3</ele>
        <time>2018-11-26T14:31:15Z</time>
      </trkpt>
      <trkpt lat="42.30145" lon="2.61223">
        <ele>609.2</ele>
        <time>2018-11-26T14:31:19Z</time>
      </trkpt>
      <trkpt lat="42.30145" lon="2.6122">
        <ele>609.7</ele>
        <time>2018-11-26T14:31:20Z</time>
      </trkpt>
      <trkpt lat="42.30145" lon="2.61205">
        <ele>612</ele>
        <time>2018-11-26T14:31:24Z</time>
      </trkpt>
      <trkpt lat="42.30139" lon="2.61192">
        <ele>613.9</ele>
        <time>2018-11-26T14:31:28Z</time>
      </trkpt>
      <trkpt lat="42.30138" lon="2.61191">
        <ele>614.4</ele>
        <time>2018-11-26T14:31:29Z</time>
      </trkpt>
      <trkpt lat="42.3013" lon="2.61186">
        <ele>615.9</ele>
        <time>2018-11-26T14:31:32Z</time>
      </trkpt>
      <trkpt lat="42.30123" lon="2.6118">
        <ele>617.3</ele>
        <time>2018-11-26T14:31:36Z</time>
      </trkpt>
      <trkpt lat="42.30115" lon="2.6117">
        <ele>617.9</ele>
        <time>2018-11-26T14:31:40Z</time>
      </trkpt>
      <trkpt lat="42.3011" lon="2.61166">
        <ele>618.4</ele>
        <time>2018-11-26T14:31:43Z</time>
      </trkpt>
      <trkpt lat="42.30105" lon="2.61163">
        <ele>618.8</ele>
        <time>2018-11-26T14:31:45Z</time>
      </trkpt>
      <trkpt lat="42.30104" lon="2.61161">
        <ele>618.8</ele>
        <time>2018-11-26T14:31:45Z</time>
      </trkpt>
      <trkpt lat="42.30102" lon="2.6116">
        <ele>619.2</ele>
        <time>2018-11-26T14:31:46Z</time>
      </trkpt>
      <trkpt lat="42.301" lon="2.61156">
        <ele>619.8</ele>
        <time>2018-11-26T14:31:48Z</time>
      </trkpt>
      <trkpt lat="42.30098" lon="2.61154">
        <ele>620.3</ele>
        <time>2018-11-26T14:31:49Z</time>
      </trkpt>
      <trkpt lat="42.30095" lon="2.61153">
        <ele>620.7</ele>
        <time>2018-11-26T14:31:50Z</time>
      </trkpt>
      <trkpt lat="42.30089" lon="2.61145">
        <ele>621.6</ele>
        <time>2018-11-26T14:31:53Z</time>
      </trkpt>
      <trkpt lat="42.30079" lon="2.61136">
        <ele>623.6</ele>
        <time>2018-11-26T14:31:58Z</time>
      </trkpt>
      <trkpt lat="42.30077" lon="2.61134">
        <ele>623.7</ele>
        <time>2018-11-26T14:31:59Z</time>
      </trkpt>
      <trkpt lat="42.30076" lon="2.61132">
        <ele>623.7</ele>
        <time>2018-11-26T14:32:00Z</time>
      </trkpt>
      <trkpt lat="42.30065" lon="2.61114">
        <ele>624.6</ele>
        <time>2018-11-26T14:32:06Z</time>
      </trkpt>
      <trkpt lat="42.30054" lon="2.61102">
        <ele>625.1</ele>
        <time>2018-11-26T14:32:12Z</time>
      </trkpt>
      <trkpt lat="42.30053" lon="2.61098">
        <ele>625</ele>
        <time>2018-11-26T14:32:14Z</time>
      </trkpt>
      <trkpt lat="42.30049" lon="2.61091">
        <ele>625.1</ele>
        <time>2018-11-26T14:32:16Z</time>
      </trkpt>
      <trkpt lat="42.30048" lon="2.61085">
        <ele>625.1</ele>
        <time>2018-11-26T14:32:18Z</time>
      </trkpt>
      <trkpt lat="42.30048" lon="2.61085">
        <ele>625.1</ele>
        <time>2018-11-26T14:32:18Z</time>
      </trkpt>
      <trkpt lat="42.30046" lon="2.61076">
        <ele>625</ele>
        <time>2018-11-26T14:32:21Z</time>
      </trkpt>
      <trkpt lat="42.30044" lon="2.61071">
        <ele>625.1</ele>
        <time>2018-11-26T14:32:22Z</time>
      </trkpt>
      <trkpt lat="42.30043" lon="2.61067">
        <ele>625</ele>
        <time>2018-11-26T14:32:24Z</time>
      </trkpt>
      <trkpt lat="42.30042" lon="2.61065">
        <ele>625</ele>
        <time>2018-11-26T14:32:24Z</time>
      </trkpt>
      <trkpt lat="42.30041" lon="2.61062">
        <ele>625.1</ele>
        <time>2018-11-26T14:32:25Z</time>
      </trkpt>
      <trkpt lat="42.3004" lon="2.61056">
        <ele>625</ele>
        <time>2018-11-26T14:32:27Z</time>
      </trkpt>
      <trkpt lat="42.3004" lon="2.6105">
        <ele>625</ele>
        <time>2018-11-26T14:32:29Z</time>
      </trkpt>
      <trkpt lat="42.30039" lon="2.61046">
        <ele>625</ele>
        <time>2018-11-26T14:32:30Z</time>
      </trkpt>
      <trkpt lat="42.30039" lon="2.61042">
        <ele>625.5</ele>
        <time>2018-11-26T14:32:31Z</time>
      </trkpt>
      <trkpt lat="42.30035" lon="2.61023">
        <ele>626.1</ele>
        <time>2018-11-26T14:32:37Z</time>
      </trkpt>
      <trkpt lat="42.3003" lon="2.6101">
        <ele>626.5</ele>
        <time>2018-11-26T14:32:42Z</time>
      </trkpt>
      <trkpt lat="42.30028" lon="2.61">
        <ele>626.4</ele>
        <time>2018-11-26T14:32:45Z</time>
      </trkpt>
      <trkpt lat="42.30026" lon="2.60992">
        <ele>626.9</ele>
        <time>2018-11-26T14:32:47Z</time>
      </trkpt>
      <trkpt lat="42.30025" lon="2.6099">
        <ele>627.5</ele>
        <time>2018-11-26T14:32:48Z</time>
      </trkpt>
      <trkpt lat="42.30025" lon="2.6099">
        <ele>627.4</ele>
        <time>2018-11-26T14:32:48Z</time>
      </trkpt>
      <trkpt lat="42.30022" lon="2.6098">
        <ele>627.4</ele>
        <time>2018-11-26T14:32:51Z</time>
      </trkpt>
      <trkpt lat="42.30012" lon="2.60958">
        <ele>628.5</ele>
        <time>2018-11-26T14:32:59Z</time>
      </trkpt>
      <trkpt lat="42.30012" lon="2.60952">
        <ele>628.8</ele>
        <time>2018-11-26T14:33:01Z</time>
      </trkpt>
      <trkpt lat="42.30013" lon="2.60948">
        <ele>628.9</ele>
        <time>2018-11-26T14:33:02Z</time>
      </trkpt>
      <trkpt lat="42.30011" lon="2.60946">
        <ele>629.3</ele>
        <time>2018-11-26T14:33:03Z</time>
      </trkpt>
      <trkpt lat="42.3001" lon="2.6094">
        <ele>629.4</ele>
        <time>2018-11-26T14:33:05Z</time>
      </trkpt>
      <trkpt lat="42.30005" lon="2.60928">
        <ele>629.8</ele>
        <time>2018-11-26T14:33:09Z</time>
      </trkpt>
      <trkpt lat="42.30003" lon="2.60915">
        <ele>630.9</ele>
        <time>2018-11-26T14:33:13Z</time>
      </trkpt>
      <trkpt lat="42.30002" lon="2.60904">
        <ele>631.3</ele>
        <time>2018-11-26T14:33:16Z</time>
      </trkpt>
      <trkpt lat="42.29998" lon="2.6089">
        <ele>632.2</ele>
        <time>2018-11-26T14:33:21Z</time>
      </trkpt>
      <trkpt lat="42.29995" lon="2.60882">
        <ele>632.7</ele>
        <time>2018-11-26T14:33:23Z</time>
      </trkpt>
      <trkpt lat="42.29987" lon="2.60872">
        <ele>633.2</ele>
        <time>2018-11-26T14:33:27Z</time>
      </trkpt>
      <trkpt lat="42.29983" lon="2.60867">
        <ele>633.7</ele>
        <time>2018-11-26T14:33:30Z</time>
      </trkpt>
      <trkpt lat="42.29972" lon="2.60852">
        <ele>633.7</ele>
        <time>2018-11-26T14:33:36Z</time>
      </trkpt>
      <trkpt lat="42.29967" lon="2.60834">
        <ele>633.8</ele>
        <time>2018-11-26T14:33:42Z</time>
      </trkpt>
      <trkpt lat="42.29967" lon="2.60827">
        <ele>633.8</ele>
        <time>2018-11-26T14:33:44Z</time>
      </trkpt>
      <trkpt lat="42.29964" lon="2.60819">
        <ele>633.7</ele>
        <time>2018-11-26T14:33:47Z</time>
      </trkpt>
      <trkpt lat="42.29959" lon="2.60814">
        <ele>633.8</ele>
        <time>2018-11-26T14:33:49Z</time>
      </trkpt>
      <trkpt lat="42.2996" lon="2.60814">
        <ele>633.8</ele>
        <time>2018-11-26T14:33:49Z</time>
      </trkpt>
      <trkpt lat="42.29958" lon="2.60803">
        <ele>633.7</ele>
        <time>2018-11-26T14:33:52Z</time>
      </trkpt>
      <trkpt lat="42.29958" lon="2.60802">
        <ele>633.7</ele>
        <time>2018-11-26T14:33:53Z</time>
      </trkpt>
      <trkpt lat="42.29955" lon="2.60788">
        <ele>632.8</ele>
        <time>2018-11-26T14:33:57Z</time>
      </trkpt>
      <trkpt lat="42.29954" lon="2.60785">
        <ele>632.8</ele>
        <time>2018-11-26T14:33:58Z</time>
      </trkpt>
      <trkpt lat="42.29953" lon="2.60768">
        <ele>631.7</ele>
        <time>2018-11-26T14:34:03Z</time>
      </trkpt>
      <trkpt lat="42.29951" lon="2.60763">
        <ele>631.2</ele>
        <time>2018-11-26T14:34:05Z</time>
      </trkpt>
      <trkpt lat="42.29948" lon="2.6076">
        <ele>630.3</ele>
        <time>2018-11-26T14:34:06Z</time>
      </trkpt>
      <trkpt lat="42.29944" lon="2.60756">
        <ele>629.4</ele>
        <time>2018-11-26T14:34:08Z</time>
      </trkpt>
      <trkpt lat="42.2994" lon="2.60751">
        <ele>627.9</ele>
        <time>2018-11-26T14:34:10Z</time>
      </trkpt>
      <trkpt lat="42.29935" lon="2.60745">
        <ele>626.4</ele>
        <time>2018-11-26T14:34:13Z</time>
      </trkpt>
      <trkpt lat="42.29935" lon="2.60745">
        <ele>626.4</ele>
        <time>2018-11-26T14:34:13Z</time>
      </trkpt>
      <trkpt lat="42.29935" lon="2.60733">
        <ele>625.6</ele>
        <time>2018-11-26T14:34:17Z</time>
      </trkpt>
      <trkpt lat="42.29939" lon="2.60728">
        <ele>625.5</ele>
        <time>2018-11-26T14:34:19Z</time>
      </trkpt>
      <trkpt lat="42.29943" lon="2.60711">
        <ele>624.1</ele>
        <time>2018-11-26T14:34:24Z</time>
      </trkpt>
      <trkpt lat="42.29942" lon="2.60707">
        <ele>623.6</ele>
        <time>2018-11-26T14:34:26Z</time>
      </trkpt>
      <trkpt lat="42.29942" lon="2.60702">
        <ele>623.1</ele>
        <time>2018-11-26T14:34:27Z</time>
      </trkpt>
      <trkpt lat="42.29943" lon="2.60696">
        <ele>622.6</ele>
        <time>2018-11-26T14:34:29Z</time>
      </trkpt>
      <trkpt lat="42.29943" lon="2.6068">
        <ele>622.1</ele>
        <time>2018-11-26T14:34:34Z</time>
      </trkpt>
      <trkpt lat="42.29943" lon="2.60676">
        <ele>621.6</ele>
        <time>2018-11-26T14:34:35Z</time>
      </trkpt>
      <trkpt lat="42.29943" lon="2.60675">
        <ele>621.6</ele>
        <time>2018-11-26T14:34:35Z</time>
      </trkpt>
      <trkpt lat="42.2994" lon="2.6066">
        <ele>620.7</ele>
        <time>2018-11-26T14:34:40Z</time>
      </trkpt>
      <trkpt lat="42.29939" lon="2.60654">
        <ele>620.7</ele>
        <time>2018-11-26T14:34:41Z</time>
      </trkpt>
      <trkpt lat="42.29938" lon="2.60649">
        <ele>620.3</ele>
        <time>2018-11-26T14:34:43Z</time>
      </trkpt>
      <trkpt lat="42.29936" lon="2.60646">
        <ele>620.3</ele>
        <time>2018-11-26T14:34:44Z</time>
      </trkpt>
      <trkpt lat="42.29937" lon="2.60642">
        <ele>619.7</ele>
        <time>2018-11-26T14:34:45Z</time>
      </trkpt>
      <trkpt lat="42.29938" lon="2.60639">
        <ele>619.3</ele>
        <time>2018-11-26T14:34:46Z</time>
      </trkpt>
      <trkpt lat="42.29937" lon="2.60632">
        <ele>618.9</ele>
        <time>2018-11-26T14:34:48Z</time>
      </trkpt>
      <trkpt lat="42.29934" lon="2.60625">
        <ele>618.4</ele>
        <time>2018-11-26T14:34:51Z</time>
      </trkpt>
      <trkpt lat="42.29933" lon="2.60616">
        <ele>618.3</ele>
        <time>2018-11-26T14:34:53Z</time>
      </trkpt>
      <trkpt lat="42.29932" lon="2.60612">
        <ele>617.8</ele>
        <time>2018-11-26T14:34:55Z</time>
      </trkpt>
      <trkpt lat="42.29929" lon="2.60606">
        <ele>618.8</ele>
        <time>2018-11-26T14:34:57Z</time>
      </trkpt>
      <trkpt lat="42.29924" lon="2.60601">
        <ele>617.4</ele>
        <time>2018-11-26T14:34:59Z</time>
      </trkpt>
      <trkpt lat="42.29922" lon="2.60597">
        <ele>617.9</ele>
        <time>2018-11-26T14:35:01Z</time>
      </trkpt>
      <trkpt lat="42.29918" lon="2.60593">
        <ele>617.4</ele>
        <time>2018-11-26T14:35:03Z</time>
      </trkpt>
      <trkpt lat="42.29916" lon="2.60583">
        <ele>617.9</ele>
        <time>2018-11-26T14:35:06Z</time>
      </trkpt>
      <trkpt lat="42.29913" lon="2.60575">
        <ele>618.4</ele>
        <time>2018-11-26T14:35:09Z</time>
      </trkpt>
      <trkpt lat="42.29906" lon="2.60559">
        <ele>618.8</ele>
        <time>2018-11-26T14:35:14Z</time>
      </trkpt>
      <trkpt lat="42.29905" lon="2.60553">
        <ele>618.9</ele>
        <time>2018-11-26T14:35:16Z</time>
      </trkpt>
      <trkpt lat="42.29904" lon="2.60549">
        <ele>618.4</ele>
        <time>2018-11-26T14:35:17Z</time>
      </trkpt>
      <trkpt lat="42.29898" lon="2.60539">
        <ele>617.3</ele>
        <time>2018-11-26T14:35:21Z</time>
      </trkpt>
      <trkpt lat="42.29897" lon="2.60537">
        <ele>617.3</ele>
        <time>2018-11-26T14:35:22Z</time>
      </trkpt>
      <trkpt lat="42.29896" lon="2.60534">
        <ele>616.8</ele>
        <time>2018-11-26T14:35:23Z</time>
      </trkpt>
      <trkpt lat="42.29895" lon="2.60528">
        <ele>616.3</ele>
        <time>2018-11-26T14:35:25Z</time>
      </trkpt>
      <trkpt lat="42.29892" lon="2.60523">
        <ele>616.3</ele>
        <time>2018-11-26T14:35:26Z</time>
      </trkpt>
      <trkpt lat="42.29886" lon="2.60515">
        <ele>615.5</ele>
        <time>2018-11-26T14:35:30Z</time>
      </trkpt>
      <trkpt lat="42.29884" lon="2.60506">
        <ele>614.4</ele>
        <time>2018-11-26T14:35:32Z</time>
      </trkpt>
      <trkpt lat="42.29883" lon="2.60498">
        <ele>613.9</ele>
        <time>2018-11-26T14:35:35Z</time>
      </trkpt>
      <trkpt lat="42.2988" lon="2.60485">
        <ele>612.6</ele>
        <time>2018-11-26T14:35:39Z</time>
      </trkpt>
      <trkpt lat="42.29876" lon="2.60473">
        <ele>611.2</ele>
        <time>2018-11-26T14:35:43Z</time>
      </trkpt>
      <trkpt lat="42.29876" lon="2.6047">
        <ele>611.2</ele>
        <time>2018-11-26T14:35:44Z</time>
      </trkpt>
      <trkpt lat="42.29874" lon="2.60467">
        <ele>610.6</ele>
        <time>2018-11-26T14:35:45Z</time>
      </trkpt>
      <trkpt lat="42.2987" lon="2.60459">
        <ele>609.7</ele>
        <time>2018-11-26T14:35:48Z</time>
      </trkpt>
      <trkpt lat="42.29866" lon="2.60443">
        <ele>608.7</ele>
        <time>2018-11-26T14:35:53Z</time>
      </trkpt>
      <trkpt lat="42.29865" lon="2.60438">
        <ele>608.2</ele>
        <time>2018-11-26T14:35:54Z</time>
      </trkpt>
      <trkpt lat="42.29862" lon="2.60428">
        <ele>607.3</ele>
        <time>2018-11-26T14:35:57Z</time>
      </trkpt>
      <trkpt lat="42.29861" lon="2.60425">
        <ele>606.7</ele>
        <time>2018-11-26T14:35:58Z</time>
      </trkpt>
      <trkpt lat="42.29859" lon="2.60423">
        <ele>606.3</ele>
        <time>2018-11-26T14:35:59Z</time>
      </trkpt>
      <trkpt lat="42.29858" lon="2.60418">
        <ele>605.8</ele>
        <time>2018-11-26T14:36:01Z</time>
      </trkpt>
      <trkpt lat="42.29855" lon="2.6041">
        <ele>604.9</ele>
        <time>2018-11-26T14:36:03Z</time>
      </trkpt>
      <trkpt lat="42.29855" lon="2.60408">
        <ele>604.4</ele>
        <time>2018-11-26T14:36:04Z</time>
      </trkpt>
      <trkpt lat="42.29855" lon="2.60407">
        <ele>604.3</ele>
        <time>2018-11-26T14:36:04Z</time>
      </trkpt>
      <trkpt lat="42.29855" lon="2.60394">
        <ele>602.9</ele>
        <time>2018-11-26T14:36:08Z</time>
      </trkpt>
      <trkpt lat="42.29852" lon="2.60384">
        <ele>601.5</ele>
        <time>2018-11-26T14:36:11Z</time>
      </trkpt>
      <trkpt lat="42.29851" lon="2.60371">
        <ele>600</ele>
        <time>2018-11-26T14:36:15Z</time>
      </trkpt>
      <trkpt lat="42.29849" lon="2.60368">
        <ele>599.5</ele>
        <time>2018-11-26T14:36:17Z</time>
      </trkpt>
      <trkpt lat="42.29843" lon="2.6036">
        <ele>598.1</ele>
        <time>2018-11-26T14:36:20Z</time>
      </trkpt>
      <trkpt lat="42.29836" lon="2.60355">
        <ele>596.7</ele>
        <time>2018-11-26T14:36:23Z</time>
      </trkpt>
      <trkpt lat="42.29829" lon="2.60352">
        <ele>594.8</ele>
        <time>2018-11-26T14:36:26Z</time>
      </trkpt>
      <trkpt lat="42.29827" lon="2.60346">
        <ele>593.3</ele>
        <time>2018-11-26T14:36:28Z</time>
      </trkpt>
      <trkpt lat="42.29833" lon="2.60341">
        <ele>591.5</ele>
        <time>2018-11-26T14:36:31Z</time>
      </trkpt>
      <trkpt lat="42.29838" lon="2.60339">
        <ele>590</ele>
        <time>2018-11-26T14:36:33Z</time>
      </trkpt>
      <trkpt lat="42.29847" lon="2.60335">
        <ele>588.1</ele>
        <time>2018-11-26T14:36:37Z</time>
      </trkpt>
      <trkpt lat="42.29855" lon="2.60333">
        <ele>586.6</ele>
        <time>2018-11-26T14:36:40Z</time>
      </trkpt>
      <trkpt lat="42.29859" lon="2.60332">
        <ele>585.7</ele>
        <time>2018-11-26T14:36:41Z</time>
      </trkpt>
      <trkpt lat="42.29866" lon="2.60333">
        <ele>583.7</ele>
        <time>2018-11-26T14:36:44Z</time>
      </trkpt>
      <trkpt lat="42.29871" lon="2.60333">
        <ele>582.8</ele>
        <time>2018-11-26T14:36:47Z</time>
      </trkpt>
      <trkpt lat="42.29879" lon="2.60338">
        <ele>580.3</ele>
        <time>2018-11-26T14:36:50Z</time>
      </trkpt>
      <trkpt lat="42.29882" lon="2.60341">
        <ele>579.8</ele>
        <time>2018-11-26T14:36:51Z</time>
      </trkpt>
      <trkpt lat="42.29884" lon="2.60345">
        <ele>578.9</ele>
        <time>2018-11-26T14:36:53Z</time>
      </trkpt>
      <trkpt lat="42.29887" lon="2.60348">
        <ele>577.9</ele>
        <time>2018-11-26T14:36:54Z</time>
      </trkpt>
      <trkpt lat="42.29891" lon="2.60349">
        <ele>577.4</ele>
        <time>2018-11-26T14:36:56Z</time>
      </trkpt>
      <trkpt lat="42.29896" lon="2.60345">
        <ele>576.6</ele>
        <time>2018-11-26T14:36:58Z</time>
      </trkpt>
      <trkpt lat="42.29897" lon="2.60337">
        <ele>576</ele>
        <time>2018-11-26T14:37:01Z</time>
      </trkpt>
      <trkpt lat="42.29897" lon="2.60337">
        <ele>575.5</ele>
        <time>2018-11-26T14:37:01Z</time>
      </trkpt>
      <trkpt lat="42.29892" lon="2.60322">
        <ele>574</ele>
        <time>2018-11-26T14:37:06Z</time>
      </trkpt>
      <trkpt lat="42.29892" lon="2.60317">
        <ele>573.6</ele>
        <time>2018-11-26T14:37:07Z</time>
      </trkpt>
      <trkpt lat="42.29882" lon="2.60306">
        <ele>572.6</ele>
        <time>2018-11-26T14:37:12Z</time>
      </trkpt>
      <trkpt lat="42.29878" lon="2.60304">
        <ele>571.6</ele>
        <time>2018-11-26T14:37:14Z</time>
      </trkpt>
      <trkpt lat="42.29865" lon="2.60297">
        <ele>570.2</ele>
        <time>2018-11-26T14:37:20Z</time>
      </trkpt>
      <trkpt lat="42.29853" lon="2.6029">
        <ele>568.3</ele>
        <time>2018-11-26T14:37:25Z</time>
      </trkpt>
      <trkpt lat="42.29841" lon="2.60283">
        <ele>566.5</ele>
        <time>2018-11-26T14:37:30Z</time>
      </trkpt>
      <trkpt lat="42.29837" lon="2.6028">
        <ele>566.4</ele>
        <time>2018-11-26T14:37:32Z</time>
      </trkpt>
      <trkpt lat="42.29827" lon="2.60276">
        <ele>564.4</ele>
        <time>2018-11-26T14:37:36Z</time>
      </trkpt>
      <trkpt lat="42.29812" lon="2.60271">
        <ele>563</ele>
        <time>2018-11-26T14:37:42Z</time>
      </trkpt>
      <trkpt lat="42.29806" lon="2.60262">
        <ele>563.1</ele>
        <time>2018-11-26T14:37:46Z</time>
      </trkpt>
      <trkpt lat="42.29802" lon="2.60251">
        <ele>563.1</ele>
        <time>2018-11-26T14:37:49Z</time>
      </trkpt>
      <trkpt lat="42.29803" lon="2.60237">
        <ele>564</ele>
        <time>2018-11-26T14:37:53Z</time>
      </trkpt>
      <trkpt lat="42.29804" lon="2.60222">
        <ele>564.5</ele>
        <time>2018-11-26T14:37:58Z</time>
      </trkpt>
      <trkpt lat="42.29803" lon="2.60219">
        <ele>564.5</ele>
        <time>2018-11-26T14:37:59Z</time>
      </trkpt>
      <trkpt lat="42.29803" lon="2.60214">
        <ele>564.5</ele>
        <time>2018-11-26T14:38:00Z</time>
      </trkpt>
      <trkpt lat="42.29805" lon="2.60207">
        <ele>564.4</ele>
        <time>2018-11-26T14:38:03Z</time>
      </trkpt>
      <trkpt lat="42.29803" lon="2.60197">
        <ele>564</ele>
        <time>2018-11-26T14:38:06Z</time>
      </trkpt>
      <trkpt lat="42.29803" lon="2.6019">
        <ele>563.6</ele>
        <time>2018-11-26T14:38:08Z</time>
      </trkpt>
      <trkpt lat="42.29801" lon="2.60184">
        <ele>563.1</ele>
        <time>2018-11-26T14:38:10Z</time>
      </trkpt>
      <trkpt lat="42.29804" lon="2.60178">
        <ele>562.5</ele>
        <time>2018-11-26T14:38:12Z</time>
      </trkpt>
      <trkpt lat="42.29804" lon="2.60173">
        <ele>562.1</ele>
        <time>2018-11-26T14:38:13Z</time>
      </trkpt>
      <trkpt lat="42.29803" lon="2.60162">
        <ele>561.2</ele>
        <time>2018-11-26T14:38:16Z</time>
      </trkpt>
      <trkpt lat="42.29803" lon="2.60155">
        <ele>560.7</ele>
        <time>2018-11-26T14:38:18Z</time>
      </trkpt>
      <trkpt lat="42.29802" lon="2.60152">
        <ele>560.1</ele>
        <time>2018-11-26T14:38:20Z</time>
      </trkpt>
      <trkpt lat="42.29802" lon="2.60146">
        <ele>559.6</ele>
        <time>2018-11-26T14:38:21Z</time>
      </trkpt>
      <trkpt lat="42.298" lon="2.60141">
        <ele>559.2</ele>
        <time>2018-11-26T14:38:23Z</time>
      </trkpt>
      <trkpt lat="42.29798" lon="2.60126">
        <ele>558.3</ele>
        <time>2018-11-26T14:38:28Z</time>
      </trkpt>
      <trkpt lat="42.29802" lon="2.60118">
        <ele>557.2</ele>
        <time>2018-11-26T14:38:30Z</time>
      </trkpt>
      <trkpt lat="42.29801" lon="2.60101">
        <ele>556.7</ele>
        <time>2018-11-26T14:38:35Z</time>
      </trkpt>
      <trkpt lat="42.29801" lon="2.60091">
        <ele>556.4</ele>
        <time>2018-11-26T14:38:38Z</time>
      </trkpt>
      <trkpt lat="42.29802" lon="2.60084">
        <ele>555.9</ele>
        <time>2018-11-26T14:38:40Z</time>
      </trkpt>
      <trkpt lat="42.298" lon="2.60074">
        <ele>555.4</ele>
        <time>2018-11-26T14:38:43Z</time>
      </trkpt>
      <trkpt lat="42.29797" lon="2.60056">
        <ele>554.4</ele>
        <time>2018-11-26T14:38:49Z</time>
      </trkpt>
      <trkpt lat="42.29797" lon="2.60045">
        <ele>554.4</ele>
        <time>2018-11-26T14:38:52Z</time>
      </trkpt>
      <trkpt lat="42.29796" lon="2.6004">
        <ele>554.3</ele>
        <time>2018-11-26T14:38:54Z</time>
      </trkpt>
      <trkpt lat="42.29796" lon="2.6003">
        <ele>553.9</ele>
        <time>2018-11-26T14:38:57Z</time>
      </trkpt>
      <trkpt lat="42.29796" lon="2.60028">
        <ele>554</ele>
        <time>2018-11-26T14:38:57Z</time>
      </trkpt>
      <trkpt lat="42.29794" lon="2.60019">
        <ele>553.9</ele>
        <time>2018-11-26T14:39:00Z</time>
      </trkpt>
      <trkpt lat="42.29788" lon="2.6">
        <ele>554</ele>
        <time>2018-11-26T14:39:06Z</time>
      </trkpt>
      <trkpt lat="42.29787" lon="2.59994">
        <ele>554.3</ele>
        <time>2018-11-26T14:39:08Z</time>
      </trkpt>
      <trkpt lat="42.29783" lon="2.59984">
        <ele>554.8</ele>
        <time>2018-11-26T14:39:11Z</time>
      </trkpt>
      <trkpt lat="42.29782" lon="2.59979">
        <ele>554.8</ele>
        <time>2018-11-26T14:39:13Z</time>
      </trkpt>
      <trkpt lat="42.29775" lon="2.5997">
        <ele>554.8</ele>
        <time>2018-11-26T14:39:17Z</time>
      </trkpt>
      <trkpt lat="42.29774" lon="2.59966">
        <ele>554.9</ele>
        <time>2018-11-26T14:39:18Z</time>
      </trkpt>
      <trkpt lat="42.29774" lon="2.59966">
        <ele>554.9</ele>
        <time>2018-11-26T14:39:18Z</time>
      </trkpt>
      <trkpt lat="42.29771" lon="2.5996">
        <ele>554.8</ele>
        <time>2018-11-26T14:39:20Z</time>
      </trkpt>
      <trkpt lat="42.2976" lon="2.59944">
        <ele>554.4</ele>
        <time>2018-11-26T14:39:26Z</time>
      </trkpt>
      <trkpt lat="42.29752" lon="2.59934">
        <ele>554</ele>
        <time>2018-11-26T14:39:31Z</time>
      </trkpt>
      <trkpt lat="42.29747" lon="2.59925">
        <ele>554</ele>
        <time>2018-11-26T14:39:34Z</time>
      </trkpt>
      <trkpt lat="42.29739" lon="2.59907">
        <ele>554.4</ele>
        <time>2018-11-26T14:39:40Z</time>
      </trkpt>
      <trkpt lat="42.29738" lon="2.59901">
        <ele>554.4</ele>
        <time>2018-11-26T14:39:42Z</time>
      </trkpt>
      <trkpt lat="42.29734" lon="2.59894">
        <ele>554.8</ele>
        <time>2018-11-26T14:39:45Z</time>
      </trkpt>
      <trkpt lat="42.29732" lon="2.59891">
        <ele>555.3</ele>
        <time>2018-11-26T14:39:46Z</time>
      </trkpt>
      <trkpt lat="42.2973" lon="2.59875">
        <ele>556.8</ele>
        <time>2018-11-26T14:39:51Z</time>
      </trkpt>
      <trkpt lat="42.2973" lon="2.59869">
        <ele>556.8</ele>
        <time>2018-11-26T14:39:53Z</time>
      </trkpt>
      <trkpt lat="42.29728" lon="2.59858">
        <ele>555.8</ele>
        <time>2018-11-26T14:39:56Z</time>
      </trkpt>
      <trkpt lat="42.29724" lon="2.59846">
        <ele>554.8</ele>
        <time>2018-11-26T14:40:00Z</time>
      </trkpt>
      <trkpt lat="42.29722" lon="2.59843">
        <ele>554.4</ele>
        <time>2018-11-26T14:40:01Z</time>
      </trkpt>
      <trkpt lat="42.2972" lon="2.5984">
        <ele>554.4</ele>
        <time>2018-11-26T14:40:02Z</time>
      </trkpt>
      <trkpt lat="42.29713" lon="2.59837">
        <ele>553.9</ele>
        <time>2018-11-26T14:40:05Z</time>
      </trkpt>
      <trkpt lat="42.2971" lon="2.59827">
        <ele>554</ele>
        <time>2018-11-26T14:40:08Z</time>
      </trkpt>
      <trkpt lat="42.29711" lon="2.5981">
        <ele>552.9</ele>
        <time>2018-11-26T14:40:13Z</time>
      </trkpt>
      <trkpt lat="42.29714" lon="2.59805">
        <ele>552.9</ele>
        <time>2018-11-26T14:40:15Z</time>
      </trkpt>
      <trkpt lat="42.29714" lon="2.59797">
        <ele>552.9</ele>
        <time>2018-11-26T14:40:17Z</time>
      </trkpt>
      <trkpt lat="42.29716" lon="2.5979">
        <ele>552.4</ele>
        <time>2018-11-26T14:40:20Z</time>
      </trkpt>
      <trkpt lat="42.29719" lon="2.59785">
        <ele>552</ele>
        <time>2018-11-26T14:40:21Z</time>
      </trkpt>
      <trkpt lat="42.29721" lon="2.59776">
        <ele>551.5</ele>
        <time>2018-11-26T14:40:24Z</time>
      </trkpt>
      <trkpt lat="42.29721" lon="2.59773">
        <ele>551.1</ele>
        <time>2018-11-26T14:40:25Z</time>
      </trkpt>
      <trkpt lat="42.29722" lon="2.59762">
        <ele>550.5</ele>
        <time>2018-11-26T14:40:28Z</time>
      </trkpt>
      <trkpt lat="42.29721" lon="2.59758">
        <ele>550</ele>
        <time>2018-11-26T14:40:30Z</time>
      </trkpt>
      <trkpt lat="42.29721" lon="2.59748">
        <ele>549.5</ele>
        <time>2018-11-26T14:40:33Z</time>
      </trkpt>
      <trkpt lat="42.29722" lon="2.59746">
        <ele>549.2</ele>
        <time>2018-11-26T14:40:33Z</time>
      </trkpt>
      <trkpt lat="42.29722" lon="2.59741">
        <ele>548.6</ele>
        <time>2018-11-26T14:40:35Z</time>
      </trkpt>
      <trkpt lat="42.29722" lon="2.59733">
        <ele>548.2</ele>
        <time>2018-11-26T14:40:37Z</time>
      </trkpt>
      <trkpt lat="42.29721" lon="2.59728">
        <ele>548.1</ele>
        <time>2018-11-26T14:40:39Z</time>
      </trkpt>
      <trkpt lat="42.29721" lon="2.59721">
        <ele>547.6</ele>
        <time>2018-11-26T14:40:41Z</time>
      </trkpt>
      <trkpt lat="42.2972" lon="2.59709">
        <ele>547.1</ele>
        <time>2018-11-26T14:40:44Z</time>
      </trkpt>
      <trkpt lat="42.29718" lon="2.59701">
        <ele>546.7</ele>
        <time>2018-11-26T14:40:47Z</time>
      </trkpt>
      <trkpt lat="42.29717" lon="2.5969">
        <ele>546.3</ele>
        <time>2018-11-26T14:40:50Z</time>
      </trkpt>
      <trkpt lat="42.29716" lon="2.59684">
        <ele>546.2</ele>
        <time>2018-11-26T14:40:52Z</time>
      </trkpt>
      <trkpt lat="42.29716" lon="2.59678">
        <ele>546.3</ele>
        <time>2018-11-26T14:40:54Z</time>
      </trkpt>
      <trkpt lat="42.29715" lon="2.59675">
        <ele>545.7</ele>
        <time>2018-11-26T14:40:55Z</time>
      </trkpt>
      <trkpt lat="42.29712" lon="2.59662">
        <ele>544.7</ele>
        <time>2018-11-26T14:40:59Z</time>
      </trkpt>
      <trkpt lat="42.29711" lon="2.59655">
        <ele>544.2</ele>
        <time>2018-11-26T14:41:01Z</time>
      </trkpt>
      <trkpt lat="42.29709" lon="2.59649">
        <ele>544.2</ele>
        <time>2018-11-26T14:41:03Z</time>
      </trkpt>
      <trkpt lat="42.29708" lon="2.59645">
        <ele>544.3</ele>
        <time>2018-11-26T14:41:04Z</time>
      </trkpt>
      <trkpt lat="42.297" lon="2.59627">
        <ele>542.8</ele>
        <time>2018-11-26T14:41:10Z</time>
      </trkpt>
      <trkpt lat="42.29696" lon="2.59615">
        <ele>541.8</ele>
        <time>2018-11-26T14:41:14Z</time>
      </trkpt>
      <trkpt lat="42.29695" lon="2.59612">
        <ele>541.8</ele>
        <time>2018-11-26T14:41:15Z</time>
      </trkpt>
      <trkpt lat="42.29693" lon="2.596">
        <ele>540.9</ele>
        <time>2018-11-26T14:41:19Z</time>
      </trkpt>
      <trkpt lat="42.29692" lon="2.59592">
        <ele>540.4</ele>
        <time>2018-11-26T14:41:21Z</time>
      </trkpt>
      <trkpt lat="42.29692" lon="2.5959">
        <ele>540</ele>
        <time>2018-11-26T14:41:22Z</time>
      </trkpt>
      <trkpt lat="42.29689" lon="2.59583">
        <ele>539.5</ele>
        <time>2018-11-26T14:41:24Z</time>
      </trkpt>
      <trkpt lat="42.29687" lon="2.59579">
        <ele>539.5</ele>
        <time>2018-11-26T14:41:25Z</time>
      </trkpt>
      <trkpt lat="42.29685" lon="2.5957">
        <ele>539</ele>
        <time>2018-11-26T14:41:28Z</time>
      </trkpt>
      <trkpt lat="42.29685" lon="2.59563">
        <ele>538.5</ele>
        <time>2018-11-26T14:41:30Z</time>
      </trkpt>
      <trkpt lat="42.29685" lon="2.5956">
        <ele>538</ele>
        <time>2018-11-26T14:41:31Z</time>
      </trkpt>
      <trkpt lat="42.29682" lon="2.59541">
        <ele>537.1</ele>
        <time>2018-11-26T14:41:37Z</time>
      </trkpt>
      <trkpt lat="42.29682" lon="2.59536">
        <ele>536.6</ele>
        <time>2018-11-26T14:41:38Z</time>
      </trkpt>
      <trkpt lat="42.29681" lon="2.59526">
        <ele>536.1</ele>
        <time>2018-11-26T14:41:41Z</time>
      </trkpt>
      <trkpt lat="42.29681" lon="2.59519">
        <ele>535.6</ele>
        <time>2018-11-26T14:41:44Z</time>
      </trkpt>
      <trkpt lat="42.29679" lon="2.59516">
        <ele>535.6</ele>
        <time>2018-11-26T14:41:45Z</time>
      </trkpt>
      <trkpt lat="42.29676" lon="2.59511">
        <ele>536.2</ele>
        <time>2018-11-26T14:41:47Z</time>
      </trkpt>
      <trkpt lat="42.29675" lon="2.5951">
        <ele>536.6</ele>
        <time>2018-11-26T14:41:47Z</time>
      </trkpt>
      <trkpt lat="42.29672" lon="2.59497">
        <ele>537.1</ele>
        <time>2018-11-26T14:41:51Z</time>
      </trkpt>
      <trkpt lat="42.29672" lon="2.59491">
        <ele>537.5</ele>
        <time>2018-11-26T14:41:53Z</time>
      </trkpt>
      <trkpt lat="42.29671" lon="2.59488">
        <ele>538.1</ele>
        <time>2018-11-26T14:41:54Z</time>
      </trkpt>
      <trkpt lat="42.29669" lon="2.59477">
        <ele>539.1</ele>
        <time>2018-11-26T14:41:57Z</time>
      </trkpt>
      <trkpt lat="42.29666" lon="2.59464">
        <ele>540.5</ele>
        <time>2018-11-26T14:42:02Z</time>
      </trkpt>
      <trkpt lat="42.29663" lon="2.59451">
        <ele>542.8</ele>
        <time>2018-11-26T14:42:05Z</time>
      </trkpt>
      <trkpt lat="42.29659" lon="2.59447">
        <ele>543.3</ele>
        <time>2018-11-26T14:42:07Z</time>
      </trkpt>
      <trkpt lat="42.29658" lon="2.59445">
        <ele>543.8</ele>
        <time>2018-11-26T14:42:08Z</time>
      </trkpt>
      <trkpt lat="42.29658" lon="2.59442">
        <ele>543.8</ele>
        <time>2018-11-26T14:42:09Z</time>
      </trkpt>
      <trkpt lat="42.29656" lon="2.59437">
        <ele>544.8</ele>
        <time>2018-11-26T14:42:11Z</time>
      </trkpt>
      <trkpt lat="42.29653" lon="2.59426">
        <ele>543.8</ele>
        <time>2018-11-26T14:42:14Z</time>
      </trkpt>
      <trkpt lat="42.29651" lon="2.59416">
        <ele>543.4</ele>
        <time>2018-11-26T14:42:17Z</time>
      </trkpt>
      <trkpt lat="42.29649" lon="2.59413">
        <ele>543.3</ele>
        <time>2018-11-26T14:42:18Z</time>
      </trkpt>
      <trkpt lat="42.29647" lon="2.59399">
        <ele>542.4</ele>
        <time>2018-11-26T14:42:22Z</time>
      </trkpt>
      <trkpt lat="42.29647" lon="2.59397">
        <ele>542.4</ele>
        <time>2018-11-26T14:42:23Z</time>
      </trkpt>
      <trkpt lat="42.29644" lon="2.59387">
        <ele>540.5</ele>
        <time>2018-11-26T14:42:26Z</time>
      </trkpt>
      <trkpt lat="42.29644" lon="2.5938">
        <ele>539.1</ele>
        <time>2018-11-26T14:42:28Z</time>
      </trkpt>
      <trkpt lat="42.29642" lon="2.59377">
        <ele>538.6</ele>
        <time>2018-11-26T14:42:30Z</time>
      </trkpt>
      <trkpt lat="42.29641" lon="2.59376">
        <ele>538.5</ele>
        <time>2018-11-26T14:42:30Z</time>
      </trkpt>
      <trkpt lat="42.2964" lon="2.59377">
        <ele>538.5</ele>
        <time>2018-11-26T14:42:31Z</time>
      </trkpt>
      <trkpt lat="42.2964" lon="2.59377">
        <ele>538.5</ele>
        <time>2018-11-26T14:42:31Z</time>
      </trkpt>
      <trkpt lat="42.29642" lon="2.59375">
        <ele>538.1</ele>
        <time>2018-11-26T14:42:32Z</time>
      </trkpt>
      <trkpt lat="42.29641" lon="2.59376">
        <ele>538.1</ele>
        <time>2018-11-26T14:42:32Z</time>
      </trkpt>
      <trkpt lat="42.2964" lon="2.59376">
        <ele>538.1</ele>
        <time>2018-11-26T14:42:33Z</time>
      </trkpt>
      <trkpt lat="42.29639" lon="2.59377">
        <ele>537.6</ele>
        <time>2018-11-26T14:42:33Z</time>
      </trkpt>
      <trkpt lat="42.29636" lon="2.59374">
        <ele>537.1</ele>
        <time>2018-11-26T14:42:34Z</time>
      </trkpt>
      <trkpt lat="42.29635" lon="2.59374">
        <ele>537.1</ele>
        <time>2018-11-26T14:42:35Z</time>
      </trkpt>
      <trkpt lat="42.29634" lon="2.59375">
        <ele>536.7</ele>
        <time>2018-11-26T14:42:35Z</time>
      </trkpt>
      <trkpt lat="42.29635" lon="2.59374">
        <ele>537.1</ele>
        <time>2018-11-26T14:42:36Z</time>
      </trkpt>
      <trkpt lat="42.29634" lon="2.59374">
        <ele>536.2</ele>
        <time>2018-11-26T14:42:36Z</time>
      </trkpt>
      <trkpt lat="42.29633" lon="2.59374">
        <ele>536.2</ele>
        <time>2018-11-26T14:42:37Z</time>
      </trkpt>
      <trkpt lat="42.29633" lon="2.59373">
        <ele>535.6</ele>
        <time>2018-11-26T14:42:37Z</time>
      </trkpt>
      <trkpt lat="42.29635" lon="2.59373">
        <ele>535.6</ele>
        <time>2018-11-26T14:42:38Z</time>
      </trkpt>
      <trkpt lat="42.29635" lon="2.59372">
        <ele>535.7</ele>
        <time>2018-11-26T14:42:38Z</time>
      </trkpt>
      <trkpt lat="42.29636" lon="2.59373">
        <ele>535.7</ele>
        <time>2018-11-26T14:42:39Z</time>
      </trkpt>
      <trkpt lat="42.29636" lon="2.59372">
        <ele>535.6</ele>
        <time>2018-11-26T14:42:39Z</time>
      </trkpt>
      <trkpt lat="42.29636" lon="2.59372">
        <ele>535.7</ele>
        <time>2018-11-26T14:42:39Z</time>
      </trkpt>
      <trkpt lat="42.29635" lon="2.59373">
        <ele>535.7</ele>
        <time>2018-11-26T14:42:39Z</time>
      </trkpt>
      <trkpt lat="42.29634" lon="2.59374">
        <ele>535.7</ele>
        <time>2018-11-26T14:42:40Z</time>
      </trkpt>
      <trkpt lat="42.29634" lon="2.59374">
        <ele>535.7</ele>
        <time>2018-11-26T14:42:40Z</time>
      </trkpt>
      <trkpt lat="42.29634" lon="2.59374">
        <ele>535.1</ele>
        <time>2018-11-26T14:42:40Z</time>
      </trkpt>
      <trkpt lat="42.29634" lon="2.59374">
        <ele>535.2</ele>
        <time>2018-11-26T14:42:40Z</time>
      </trkpt>
      <trkpt lat="42.29634" lon="2.59375">
        <ele>535.1</ele>
        <time>2018-11-26T14:42:41Z</time>
      </trkpt>
      <trkpt lat="42.29634" lon="2.59373">
        <ele>535.1</ele>
        <time>2018-11-26T14:42:41Z</time>
      </trkpt>
      <trkpt lat="42.29634" lon="2.59373">
        <ele>534.6</ele>
        <time>2018-11-26T14:42:41Z</time>
      </trkpt>
      <trkpt lat="42.29634" lon="2.59374">
        <ele>534.7</ele>
        <time>2018-11-26T14:42:41Z</time>
      </trkpt>
      <trkpt lat="42.29635" lon="2.59374">
        <ele>534.7</ele>
        <time>2018-11-26T14:42:41Z</time>
      </trkpt>
      <trkpt lat="42.29635" lon="2.59374">
        <ele>534.7</ele>
        <time>2018-11-26T14:42:42Z</time>
      </trkpt>
      <trkpt lat="42.29635" lon="2.59374">
        <ele>534.6</ele>
        <time>2018-11-26T14:42:42Z</time>
      </trkpt>
      <trkpt lat="42.29634" lon="2.59373">
        <ele>534.7</ele>
        <time>2018-11-26T14:42:42Z</time>
      </trkpt>
      <trkpt lat="42.29634" lon="2.59374">
        <ele>534.2</ele>
        <time>2018-11-26T14:42:42Z</time>
      </trkpt>
      <trkpt lat="42.29635" lon="2.59374">
        <ele>534.6</ele>
        <time>2018-11-26T14:42:43Z</time>
      </trkpt>
      <trkpt lat="42.29635" lon="2.59374">
        <ele>534.3</ele>
        <time>2018-11-26T14:42:43Z</time>
      </trkpt>
      <trkpt lat="42.29634" lon="2.59374">
        <ele>534.3</ele>
        <time>2018-11-26T14:42:43Z</time>
      </trkpt>
      <trkpt lat="42.29634" lon="2.59375">
        <ele>534.3</ele>
        <time>2018-11-26T14:42:43Z</time>
      </trkpt>
      <trkpt lat="42.29634" lon="2.59375">
        <ele>534.2</ele>
        <time>2018-11-26T14:42:43Z</time>
      </trkpt>
      <trkpt lat="42.29634" lon="2.59375">
        <ele>534.2</ele>
        <time>2018-11-26T14:42:43Z</time>
      </trkpt>
      <trkpt lat="42.29635" lon="2.59376">
        <ele>534.2</ele>
        <time>2018-11-26T14:42:44Z</time>
      </trkpt>
      <trkpt lat="42.29634" lon="2.59377">
        <ele>534.7</ele>
        <time>2018-11-26T14:42:44Z</time>
      </trkpt>
      <trkpt lat="42.29632" lon="2.59377">
        <ele>534.6</ele>
        <time>2018-11-26T14:42:45Z</time>
      </trkpt>
      <trkpt lat="42.29634" lon="2.59375">
        <ele>534.7</ele>
        <time>2018-11-26T14:42:46Z</time>
      </trkpt>
      <trkpt lat="42.29636" lon="2.59376">
        <ele>535.1</ele>
        <time>2018-11-26T14:42:47Z</time>
      </trkpt>
      <trkpt lat="42.29641" lon="2.59388">
        <ele>537.6</ele>
        <time>2018-11-26T14:42:51Z</time>
      </trkpt>
      <trkpt lat="42.29637" lon="2.59397">
        <ele>537.1</ele>
        <time>2018-11-26T14:42:54Z</time>
      </trkpt>
      <trkpt lat="42.29635" lon="2.59404">
        <ele>536.6</ele>
        <time>2018-11-26T14:42:56Z</time>
      </trkpt>
      <trkpt lat="42.29632" lon="2.59406">
        <ele>536.7</ele>
        <time>2018-11-26T14:42:57Z</time>
      </trkpt>
      <trkpt lat="42.29626" lon="2.59414">
        <ele>537</ele>
        <time>2018-11-26T14:43:01Z</time>
      </trkpt>
      <trkpt lat="42.29625" lon="2.5942">
        <ele>538</ele>
        <time>2018-11-26T14:43:02Z</time>
      </trkpt>
      <trkpt lat="42.29624" lon="2.59424">
        <ele>538.5</ele>
        <time>2018-11-26T14:43:04Z</time>
      </trkpt>
      <trkpt lat="42.29624" lon="2.59425">
        <ele>538.6</ele>
        <time>2018-11-26T14:43:04Z</time>
      </trkpt>
      <trkpt lat="42.29624" lon="2.59426">
        <ele>539.1</ele>
        <time>2018-11-26T14:43:04Z</time>
      </trkpt>
      <trkpt lat="42.29625" lon="2.59424">
        <ele>538.6</ele>
        <time>2018-11-26T14:43:05Z</time>
      </trkpt>
      <trkpt lat="42.29624" lon="2.59424">
        <ele>539.1</ele>
        <time>2018-11-26T14:43:05Z</time>
      </trkpt>
      <trkpt lat="42.29625" lon="2.59424">
        <ele>538.5</ele>
        <time>2018-11-26T14:43:05Z</time>
      </trkpt>
      <trkpt lat="42.29625" lon="2.59424">
        <ele>538</ele>
        <time>2018-11-26T14:43:06Z</time>
      </trkpt>
      <trkpt lat="42.29624" lon="2.5942">
        <ele>537</ele>
        <time>2018-11-26T14:43:07Z</time>
      </trkpt>
      <trkpt lat="42.29623" lon="2.59422">
        <ele>537</ele>
        <time>2018-11-26T14:43:07Z</time>
      </trkpt>
      <trkpt lat="42.29622" lon="2.59423">
        <ele>537.1</ele>
        <time>2018-11-26T14:43:08Z</time>
      </trkpt>
      <trkpt lat="42.29622" lon="2.59425">
        <ele>537.1</ele>
        <time>2018-11-26T14:43:08Z</time>
      </trkpt>
      <trkpt lat="42.29622" lon="2.59424">
        <ele>537</ele>
        <time>2018-11-26T14:43:09Z</time>
      </trkpt>
      <trkpt lat="42.29625" lon="2.59426">
        <ele>538</ele>
        <time>2018-11-26T14:43:10Z</time>
      </trkpt>
      <trkpt lat="42.29625" lon="2.59431">
        <ele>538.5</ele>
        <time>2018-11-26T14:43:11Z</time>
      </trkpt>
      <trkpt lat="42.2962" lon="2.59439">
        <ele>539</ele>
        <time>2018-11-26T14:43:14Z</time>
      </trkpt>
      <trkpt lat="42.29615" lon="2.59458">
        <ele>540.5</ele>
        <time>2018-11-26T14:43:20Z</time>
      </trkpt>
      <trkpt lat="42.29613" lon="2.59475">
        <ele>542.9</ele>
        <time>2018-11-26T14:43:25Z</time>
      </trkpt>
      <trkpt lat="42.29611" lon="2.59484">
        <ele>544.8</ele>
        <time>2018-11-26T14:43:28Z</time>
      </trkpt>
      <trkpt lat="42.29608" lon="2.59493">
        <ele>545.3</ele>
        <time>2018-11-26T14:43:31Z</time>
      </trkpt>
      <trkpt lat="42.29605" lon="2.59497">
        <ele>544.2</ele>
        <time>2018-11-26T14:43:33Z</time>
      </trkpt>
      <trkpt lat="42.296" lon="2.59497">
        <ele>541.8</ele>
        <time>2018-11-26T14:43:35Z</time>
      </trkpt>
      <trkpt lat="42.29593" lon="2.59502">
        <ele>540.5</ele>
        <time>2018-11-26T14:43:38Z</time>
      </trkpt>
      <trkpt lat="42.29586" lon="2.59513">
        <ele>539</ele>
        <time>2018-11-26T14:43:42Z</time>
      </trkpt>
      <trkpt lat="42.2958" lon="2.59522">
        <ele>539</ele>
        <time>2018-11-26T14:43:46Z</time>
      </trkpt>
      <trkpt lat="42.29578" lon="2.59525">
        <ele>539</ele>
        <time>2018-11-26T14:43:47Z</time>
      </trkpt>
      <trkpt lat="42.29576" lon="2.59533">
        <ele>538.5</ele>
        <time>2018-11-26T14:43:49Z</time>
      </trkpt>
      <trkpt lat="42.29572" lon="2.59539">
        <ele>539.5</ele>
        <time>2018-11-26T14:43:52Z</time>
      </trkpt>
      <trkpt lat="42.29562" lon="2.59547">
        <ele>541.4</ele>
        <time>2018-11-26T14:43:57Z</time>
      </trkpt>
      <trkpt lat="42.29558" lon="2.59551">
        <ele>541.9</ele>
        <time>2018-11-26T14:43:59Z</time>
      </trkpt>
      <trkpt lat="42.2955" lon="2.59554">
        <ele>541.9</ele>
        <time>2018-11-26T14:44:02Z</time>
      </trkpt>
      <trkpt lat="42.29537" lon="2.59557">
        <ele>541.8</ele>
        <time>2018-11-26T14:44:07Z</time>
      </trkpt>
      <trkpt lat="42.29528" lon="2.59562">
        <ele>542.8</ele>
        <time>2018-11-26T14:44:11Z</time>
      </trkpt>
      <trkpt lat="42.29521" lon="2.59568">
        <ele>543.8</ele>
        <time>2018-11-26T14:44:14Z</time>
      </trkpt>
      <trkpt lat="42.29514" lon="2.59577">
        <ele>544.2</ele>
        <time>2018-11-26T14:44:18Z</time>
      </trkpt>
      <trkpt lat="42.2951" lon="2.5958">
        <ele>544.2</ele>
        <time>2018-11-26T14:44:20Z</time>
      </trkpt>
      <trkpt lat="42.29507" lon="2.59581">
        <ele>543.8</ele>
        <time>2018-11-26T14:44:22Z</time>
      </trkpt>
      <trkpt lat="42.29502" lon="2.5958">
        <ele>543.3</ele>
        <time>2018-11-26T14:44:23Z</time>
      </trkpt>
      <trkpt lat="42.29495" lon="2.59583">
        <ele>542.8</ele>
        <time>2018-11-26T14:44:26Z</time>
      </trkpt>
      <trkpt lat="42.29486" lon="2.59586">
        <ele>542.4</ele>
        <time>2018-11-26T14:44:30Z</time>
      </trkpt>
      <trkpt lat="42.29477" lon="2.5959">
        <ele>542.4</ele>
        <time>2018-11-26T14:44:34Z</time>
      </trkpt>
      <trkpt lat="42.29467" lon="2.59598">
        <ele>540</ele>
        <time>2018-11-26T14:44:38Z</time>
      </trkpt>
      <trkpt lat="42.29463" lon="2.59602">
        <ele>539.4</ele>
        <time>2018-11-26T14:44:40Z</time>
      </trkpt>
      <trkpt lat="42.29454" lon="2.596">
        <ele>539.9</ele>
        <time>2018-11-26T14:44:44Z</time>
      </trkpt>
      <trkpt lat="42.29448" lon="2.59589">
        <ele>540.4</ele>
        <time>2018-11-26T14:44:48Z</time>
      </trkpt>
      <trkpt lat="42.29444" lon="2.59579">
        <ele>540.9</ele>
        <time>2018-11-26T14:44:51Z</time>
      </trkpt>
      <trkpt lat="42.29436" lon="2.59572">
        <ele>542.8</ele>
        <time>2018-11-26T14:44:55Z</time>
      </trkpt>
      <trkpt lat="42.2943" lon="2.59565">
        <ele>544.3</ele>
        <time>2018-11-26T14:44:58Z</time>
      </trkpt>
      <trkpt lat="42.29429" lon="2.59565">
        <ele>544.7</ele>
        <time>2018-11-26T14:44:59Z</time>
      </trkpt>
      <trkpt lat="42.29414" lon="2.59558">
        <ele>546.2</ele>
        <time>2018-11-26T14:45:05Z</time>
      </trkpt>
      <trkpt lat="42.29407" lon="2.59554">
        <ele>548.6</ele>
        <time>2018-11-26T14:45:08Z</time>
      </trkpt>
      <trkpt lat="42.29395" lon="2.59545">
        <ele>550.1</ele>
        <time>2018-11-26T14:45:14Z</time>
      </trkpt>
      <trkpt lat="42.29387" lon="2.5954">
        <ele>550.1</ele>
        <time>2018-11-26T14:45:17Z</time>
      </trkpt>
      <trkpt lat="42.29383" lon="2.59536">
        <ele>551.6</ele>
        <time>2018-11-26T14:45:19Z</time>
      </trkpt>
      <trkpt lat="42.29375" lon="2.59524">
        <ele>552.5</ele>
        <time>2018-11-26T14:45:24Z</time>
      </trkpt>
      <trkpt lat="42.29372" lon="2.59514">
        <ele>552.4</ele>
        <time>2018-11-26T14:45:27Z</time>
      </trkpt>
      <trkpt lat="42.29368" lon="2.59508">
        <ele>553</ele>
        <time>2018-11-26T14:45:30Z</time>
      </trkpt>
      <trkpt lat="42.29367" lon="2.59507">
        <ele>552.4</ele>
        <time>2018-11-26T14:45:30Z</time>
      </trkpt>
      <trkpt lat="42.29368" lon="2.59506">
        <ele>553</ele>
        <time>2018-11-26T14:45:30Z</time>
      </trkpt>
      <trkpt lat="42.29364" lon="2.59501">
        <ele>553</ele>
        <time>2018-11-26T14:45:32Z</time>
      </trkpt>
      <trkpt lat="42.29359" lon="2.59492">
        <ele>553.4</ele>
        <time>2018-11-26T14:45:36Z</time>
      </trkpt>
      <trkpt lat="42.29351" lon="2.59485">
        <ele>554.3</ele>
        <time>2018-11-26T14:45:39Z</time>
      </trkpt>
      <trkpt lat="42.29347" lon="2.59485">
        <ele>554.8</ele>
        <time>2018-11-26T14:45:41Z</time>
      </trkpt>
      <trkpt lat="42.29336" lon="2.59487">
        <ele>557.2</ele>
        <time>2018-11-26T14:45:45Z</time>
      </trkpt>
      <trkpt lat="42.29327" lon="2.59492">
        <ele>555.8</ele>
        <time>2018-11-26T14:45:49Z</time>
      </trkpt>
      <trkpt lat="42.29325" lon="2.59492">
        <ele>555.3</ele>
        <time>2018-11-26T14:45:50Z</time>
      </trkpt>
      <trkpt lat="42.29323" lon="2.59493">
        <ele>554.9</ele>
        <time>2018-11-26T14:45:51Z</time>
      </trkpt>
      <trkpt lat="42.2932" lon="2.59493">
        <ele>554.3</ele>
        <time>2018-11-26T14:45:52Z</time>
      </trkpt>
      <trkpt lat="42.29311" lon="2.59492">
        <ele>554</ele>
        <time>2018-11-26T14:45:56Z</time>
      </trkpt>
      <trkpt lat="42.29307" lon="2.59492">
        <ele>554.3</ele>
        <time>2018-11-26T14:45:57Z</time>
      </trkpt>
      <trkpt lat="42.293" lon="2.59493">
        <ele>554.3</ele>
        <time>2018-11-26T14:46:00Z</time>
      </trkpt>
      <trkpt lat="42.29298" lon="2.59493">
        <ele>554.9</ele>
        <time>2018-11-26T14:46:01Z</time>
      </trkpt>
      <trkpt lat="42.2929" lon="2.59493">
        <ele>554.8</ele>
        <time>2018-11-26T14:46:04Z</time>
      </trkpt>
      <trkpt lat="42.29281" lon="2.59494">
        <ele>555.3</ele>
        <time>2018-11-26T14:46:08Z</time>
      </trkpt>
      <trkpt lat="42.29277" lon="2.59496">
        <ele>555.4</ele>
        <time>2018-11-26T14:46:10Z</time>
      </trkpt>
      <trkpt lat="42.29275" lon="2.59496">
        <ele>555.8</ele>
        <time>2018-11-26T14:46:10Z</time>
      </trkpt>
      <trkpt lat="42.29273" lon="2.59492">
        <ele>555.8</ele>
        <time>2018-11-26T14:46:12Z</time>
      </trkpt>
      <trkpt lat="42.29272" lon="2.59483">
        <ele>554.9</ele>
        <time>2018-11-26T14:46:14Z</time>
      </trkpt>
      <trkpt lat="42.29267" lon="2.59476">
        <ele>554.3</ele>
        <time>2018-11-26T14:46:17Z</time>
      </trkpt>
      <trkpt lat="42.29266" lon="2.59472">
        <ele>554.3</ele>
        <time>2018-11-26T14:46:19Z</time>
      </trkpt>
      <trkpt lat="42.29264" lon="2.59468">
        <ele>554.3</ele>
        <time>2018-11-26T14:46:20Z</time>
      </trkpt>
      <trkpt lat="42.2926" lon="2.59457">
        <ele>554.8</ele>
        <time>2018-11-26T14:46:24Z</time>
      </trkpt>
      <trkpt lat="42.29258" lon="2.59454">
        <ele>554.3</ele>
        <time>2018-11-26T14:46:25Z</time>
      </trkpt>
      <trkpt lat="42.29252" lon="2.59451">
        <ele>554.4</ele>
        <time>2018-11-26T14:46:27Z</time>
      </trkpt>
      <trkpt lat="42.29245" lon="2.59442">
        <ele>554.8</ele>
        <time>2018-11-26T14:46:31Z</time>
      </trkpt>
      <trkpt lat="42.29241" lon="2.59441">
        <ele>554.8</ele>
        <time>2018-11-26T14:46:33Z</time>
      </trkpt>
      <trkpt lat="42.29236" lon="2.59438">
        <ele>554.3</ele>
        <time>2018-11-26T14:46:35Z</time>
      </trkpt>
      <trkpt lat="42.29235" lon="2.59438">
        <ele>554.4</ele>
        <time>2018-11-26T14:46:35Z</time>
      </trkpt>
      <trkpt lat="42.29228" lon="2.59423">
        <ele>554.3</ele>
        <time>2018-11-26T14:46:40Z</time>
      </trkpt>
      <trkpt lat="42.29227" lon="2.59423">
        <ele>554.4</ele>
        <time>2018-11-26T14:46:41Z</time>
      </trkpt>
      <trkpt lat="42.29222" lon="2.59417">
        <ele>554</ele>
        <time>2018-11-26T14:46:43Z</time>
      </trkpt>
      <trkpt lat="42.29211" lon="2.59405">
        <ele>553.5</ele>
        <time>2018-11-26T14:46:49Z</time>
      </trkpt>
      <trkpt lat="42.29206" lon="2.59393">
        <ele>552</ele>
        <time>2018-11-26T14:46:53Z</time>
      </trkpt>
      <trkpt lat="42.29201" lon="2.59379">
        <ele>551.6</ele>
        <time>2018-11-26T14:46:58Z</time>
      </trkpt>
      <trkpt lat="42.29197" lon="2.59376">
        <ele>550.6</ele>
        <time>2018-11-26T14:47:00Z</time>
      </trkpt>
      <trkpt lat="42.29194" lon="2.59371">
        <ele>549.6</ele>
        <time>2018-11-26T14:47:02Z</time>
      </trkpt>
      <trkpt lat="42.2919" lon="2.59366">
        <ele>548.1</ele>
        <time>2018-11-26T14:47:04Z</time>
      </trkpt>
      <trkpt lat="42.2919" lon="2.59357">
        <ele>546.2</ele>
        <time>2018-11-26T14:47:06Z</time>
      </trkpt>
      <trkpt lat="42.29189" lon="2.59353">
        <ele>545.7</ele>
        <time>2018-11-26T14:47:08Z</time>
      </trkpt>
      <trkpt lat="42.29188" lon="2.59348">
        <ele>544.8</ele>
        <time>2018-11-26T14:47:09Z</time>
      </trkpt>
      <trkpt lat="42.29187" lon="2.5934">
        <ele>542.9</ele>
        <time>2018-11-26T14:47:12Z</time>
      </trkpt>
      <trkpt lat="42.29185" lon="2.59329">
        <ele>540.4</ele>
        <time>2018-11-26T14:47:15Z</time>
      </trkpt>
      <trkpt lat="42.29183" lon="2.59319">
        <ele>539</ele>
        <time>2018-11-26T14:47:18Z</time>
      </trkpt>
      <trkpt lat="42.29183" lon="2.59318">
        <ele>539.5</ele>
        <time>2018-11-26T14:47:18Z</time>
      </trkpt>
      <trkpt lat="42.29179" lon="2.59308">
        <ele>538.5</ele>
        <time>2018-11-26T14:47:22Z</time>
      </trkpt>
      <trkpt lat="42.29174" lon="2.59303">
        <ele>537.6</ele>
        <time>2018-11-26T14:47:24Z</time>
      </trkpt>
      <trkpt lat="42.29169" lon="2.593">
        <ele>535.7</ele>
        <time>2018-11-26T14:47:27Z</time>
      </trkpt>
      <trkpt lat="42.29166" lon="2.59298">
        <ele>534.7</ele>
        <time>2018-11-26T14:47:28Z</time>
      </trkpt>
      <trkpt lat="42.29164" lon="2.59298">
        <ele>534.6</ele>
        <time>2018-11-26T14:47:29Z</time>
      </trkpt>
      <trkpt lat="42.29163" lon="2.593">
        <ele>534.6</ele>
        <time>2018-11-26T14:47:29Z</time>
      </trkpt>
      <trkpt lat="42.29162" lon="2.59299">
        <ele>534.6</ele>
        <time>2018-11-26T14:47:30Z</time>
      </trkpt>
      <trkpt lat="42.29162" lon="2.593">
        <ele>534.2</ele>
        <time>2018-11-26T14:47:30Z</time>
      </trkpt>
      <trkpt lat="42.29162" lon="2.593">
        <ele>534.2</ele>
        <time>2018-11-26T14:47:30Z</time>
      </trkpt>
      <trkpt lat="42.29162" lon="2.59301">
        <ele>534.3</ele>
        <time>2018-11-26T14:47:30Z</time>
      </trkpt>
      <trkpt lat="42.29162" lon="2.59302">
        <ele>534.2</ele>
        <time>2018-11-26T14:47:31Z</time>
      </trkpt>
      <trkpt lat="42.2916" lon="2.59304">
        <ele>534.3</ele>
        <time>2018-11-26T14:47:32Z</time>
      </trkpt>
      <trkpt lat="42.2916" lon="2.5931">
        <ele>533.3</ele>
        <time>2018-11-26T14:47:33Z</time>
      </trkpt>
      <trkpt lat="42.29157" lon="2.59316">
        <ele>532.2</ele>
        <time>2018-11-26T14:47:36Z</time>
      </trkpt>
      <trkpt lat="42.29154" lon="2.5932">
        <ele>529.9</ele>
        <time>2018-11-26T14:47:37Z</time>
      </trkpt>
      <trkpt lat="42.29152" lon="2.59325">
        <ele>528.5</ele>
        <time>2018-11-26T14:47:39Z</time>
      </trkpt>
      <trkpt lat="42.2915" lon="2.59328">
        <ele>526.5</ele>
        <time>2018-11-26T14:47:40Z</time>
      </trkpt>
      <trkpt lat="42.29148" lon="2.59329">
        <ele>525.5</ele>
        <time>2018-11-26T14:47:41Z</time>
      </trkpt>
      <trkpt lat="42.29145" lon="2.59331">
        <ele>523.7</ele>
        <time>2018-11-26T14:47:42Z</time>
      </trkpt>
      <trkpt lat="42.29141" lon="2.59335">
        <ele>522.6</ele>
        <time>2018-11-26T14:47:44Z</time>
      </trkpt>
      <trkpt lat="42.29139" lon="2.59339">
        <ele>522.6</ele>
        <time>2018-11-26T14:47:46Z</time>
      </trkpt>
      <trkpt lat="42.29137" lon="2.59349">
        <ele>523.2</ele>
        <time>2018-11-26T14:47:49Z</time>
      </trkpt>
      <trkpt lat="42.29133" lon="2.59349">
        <ele>521.8</ele>
        <time>2018-11-26T14:47:50Z</time>
      </trkpt>
      <trkpt lat="42.29129" lon="2.5935">
        <ele>519.4</ele>
        <time>2018-11-26T14:47:51Z</time>
      </trkpt>
      <trkpt lat="42.29126" lon="2.59349">
        <ele>518.8</ele>
        <time>2018-11-26T14:47:53Z</time>
      </trkpt>
      <trkpt lat="42.29111" lon="2.59348">
        <ele>517.9</ele>
        <time>2018-11-26T14:47:59Z</time>
      </trkpt>
      <trkpt lat="42.2911" lon="2.59347">
        <ele>516.4</ele>
        <time>2018-11-26T14:47:59Z</time>
      </trkpt>
      <trkpt lat="42.29104" lon="2.59348">
        <ele>514.5</ele>
        <time>2018-11-26T14:48:02Z</time>
      </trkpt>
      <trkpt lat="42.29095" lon="2.59347">
        <ele>514</ele>
        <time>2018-11-26T14:48:06Z</time>
      </trkpt>
      <trkpt lat="42.29094" lon="2.59347">
        <ele>513.5</ele>
        <time>2018-11-26T14:48:06Z</time>
      </trkpt>
      <trkpt lat="42.29089" lon="2.59347">
        <ele>512</ele>
        <time>2018-11-26T14:48:08Z</time>
      </trkpt>
      <trkpt lat="42.29087" lon="2.59348">
        <ele>512.1</ele>
        <time>2018-11-26T14:48:09Z</time>
      </trkpt>
      <trkpt lat="42.2908" lon="2.59349">
        <ele>512.6</ele>
        <time>2018-11-26T14:48:12Z</time>
      </trkpt>
      <trkpt lat="42.29076" lon="2.59351">
        <ele>512.1</ele>
        <time>2018-11-26T14:48:13Z</time>
      </trkpt>
      <trkpt lat="42.29069" lon="2.59348">
        <ele>510.6</ele>
        <time>2018-11-26T14:48:16Z</time>
      </trkpt>
      <trkpt lat="42.29063" lon="2.59348">
        <ele>508.7</ele>
        <time>2018-11-26T14:48:19Z</time>
      </trkpt>
      <trkpt lat="42.29062" lon="2.59348">
        <ele>507.8</ele>
        <time>2018-11-26T14:48:19Z</time>
      </trkpt>
      <trkpt lat="42.29058" lon="2.59347">
        <ele>507.3</ele>
        <time>2018-11-26T14:48:20Z</time>
      </trkpt>
      <trkpt lat="42.29052" lon="2.59343">
        <ele>505.9</ele>
        <time>2018-11-26T14:48:23Z</time>
      </trkpt>
      <trkpt lat="42.29045" lon="2.59341">
        <ele>503.4</ele>
        <time>2018-11-26T14:48:26Z</time>
      </trkpt>
      <trkpt lat="42.29042" lon="2.59337">
        <ele>501.5</ele>
        <time>2018-11-26T14:48:28Z</time>
      </trkpt>
      <trkpt lat="42.29036" lon="2.5933">
        <ele>501</ele>
        <time>2018-11-26T14:48:31Z</time>
      </trkpt>
      <trkpt lat="42.29031" lon="2.59327">
        <ele>503</ele>
        <time>2018-11-26T14:48:33Z</time>
      </trkpt>
      <trkpt lat="42.29022" lon="2.59321">
        <ele>503</ele>
        <time>2018-11-26T14:48:37Z</time>
      </trkpt>
      <trkpt lat="42.29011" lon="2.5932">
        <ele>502.1</ele>
        <time>2018-11-26T14:48:41Z</time>
      </trkpt>
      <trkpt lat="42.2901" lon="2.59319">
        <ele>502</ele>
        <time>2018-11-26T14:48:42Z</time>
      </trkpt>
      <trkpt lat="42.29008" lon="2.59319">
        <ele>502.1</ele>
        <time>2018-11-26T14:48:43Z</time>
      </trkpt>
      <trkpt lat="42.29002" lon="2.5932">
        <ele>501.1</ele>
        <time>2018-11-26T14:48:45Z</time>
      </trkpt>
      <trkpt lat="42.28973" lon="2.59298">
        <ele>500</ele>
        <time>2018-11-26T14:48:59Z</time>
      </trkpt>
      <trkpt lat="42.28961" lon="2.59295">
        <ele>498.2</ele>
        <time>2018-11-26T14:49:03Z</time>
      </trkpt>
      <trkpt lat="42.28956" lon="2.59292">
        <ele>496.8</ele>
        <time>2018-11-26T14:49:05Z</time>
      </trkpt>
      <trkpt lat="42.28952" lon="2.5929">
        <ele>495.2</ele>
        <time>2018-11-26T14:49:07Z</time>
      </trkpt>
      <trkpt lat="42.28951" lon="2.59288">
        <ele>492.3</ele>
        <time>2018-11-26T14:49:08Z</time>
      </trkpt>
      <trkpt lat="42.2895" lon="2.59285">
        <ele>490.4</ele>
        <time>2018-11-26T14:49:09Z</time>
      </trkpt>
      <trkpt lat="42.28948" lon="2.59283">
        <ele>489.1</ele>
        <time>2018-11-26T14:49:10Z</time>
      </trkpt>
      <trkpt lat="42.28947" lon="2.59282">
        <ele>486.6</ele>
        <time>2018-11-26T14:49:10Z</time>
      </trkpt>
      <trkpt lat="42.28944" lon="2.5928">
        <ele>485.1</ele>
        <time>2018-11-26T14:49:12Z</time>
      </trkpt>
      <trkpt lat="42.28941" lon="2.59275">
        <ele>482.8</ele>
        <time>2018-11-26T14:49:14Z</time>
      </trkpt>
      <trkpt lat="42.28939" lon="2.5927">
        <ele>481.4</ele>
        <time>2018-11-26T14:49:15Z</time>
      </trkpt>
      <trkpt lat="42.28938" lon="2.59267">
        <ele>479.4</ele>
        <time>2018-11-26T14:49:16Z</time>
      </trkpt>
      <trkpt lat="42.28936" lon="2.59263">
        <ele>477.9</ele>
        <time>2018-11-26T14:49:18Z</time>
      </trkpt>
      <trkpt lat="42.28934" lon="2.5926">
        <ele>475.5</ele>
        <time>2018-11-26T14:49:19Z</time>
      </trkpt>
      <trkpt lat="42.28933" lon="2.59257">
        <ele>473.7</ele>
        <time>2018-11-26T14:49:20Z</time>
      </trkpt>
      <trkpt lat="42.28932" lon="2.59255">
        <ele>471.7</ele>
        <time>2018-11-26T14:49:21Z</time>
      </trkpt>
      <trkpt lat="42.28931" lon="2.59252">
        <ele>469.7</ele>
        <time>2018-11-26T14:49:21Z</time>
      </trkpt>
      <trkpt lat="42.28931" lon="2.5925">
        <ele>466.4</ele>
        <time>2018-11-26T14:49:22Z</time>
      </trkpt>
      <trkpt lat="42.28932" lon="2.59248">
        <ele>464.9</ele>
        <time>2018-11-26T14:49:23Z</time>
      </trkpt>
      <trkpt lat="42.2893" lon="2.59239">
        <ele>463.6</ele>
        <time>2018-11-26T14:49:26Z</time>
      </trkpt>
      <trkpt lat="42.28932" lon="2.59229">
        <ele>461.1</ele>
        <time>2018-11-26T14:49:29Z</time>
      </trkpt>
      <trkpt lat="42.28932" lon="2.59217">
        <ele>460.7</ele>
        <time>2018-11-26T14:49:32Z</time>
      </trkpt>
      <trkpt lat="42.28932" lon="2.59217">
        <ele>460.2</ele>
        <time>2018-11-26T14:49:32Z</time>
      </trkpt>
      <trkpt lat="42.28932" lon="2.59213">
        <ele>460.1</ele>
        <time>2018-11-26T14:49:33Z</time>
      </trkpt>
      <trkpt lat="42.28932" lon="2.59205">
        <ele>459.8</ele>
        <time>2018-11-26T14:49:36Z</time>
      </trkpt>
      <trkpt lat="42.28932" lon="2.59201">
        <ele>458.2</ele>
        <time>2018-11-26T14:49:37Z</time>
      </trkpt>
      <trkpt lat="42.2893" lon="2.59197">
        <ele>456.4</ele>
        <time>2018-11-26T14:49:38Z</time>
      </trkpt>
      <trkpt lat="42.28929" lon="2.59195">
        <ele>454</ele>
        <time>2018-11-26T14:49:39Z</time>
      </trkpt>
      <trkpt lat="42.28929" lon="2.59193">
        <ele>452.4</ele>
        <time>2018-11-26T14:49:40Z</time>
      </trkpt>
      <trkpt lat="42.2893" lon="2.59187">
        <ele>451</ele>
        <time>2018-11-26T14:49:42Z</time>
      </trkpt>
      <trkpt lat="42.28922" lon="2.5918">
        <ele>449.1</ele>
        <time>2018-11-26T14:49:45Z</time>
      </trkpt>
      <trkpt lat="42.2892" lon="2.59178">
        <ele>447.3</ele>
        <time>2018-11-26T14:49:46Z</time>
      </trkpt>
      <trkpt lat="42.2892" lon="2.59178">
        <ele>445.2</ele>
        <time>2018-11-26T14:49:46Z</time>
      </trkpt>
      <trkpt lat="42.2892" lon="2.59174">
        <ele>443.3</ele>
        <time>2018-11-26T14:49:47Z</time>
      </trkpt>
      <trkpt lat="42.28925" lon="2.59171">
        <ele>442</ele>
        <time>2018-11-26T14:49:50Z</time>
      </trkpt>
      <trkpt lat="42.28929" lon="2.59165">
        <ele>439.9</ele>
        <time>2018-11-26T14:49:52Z</time>
      </trkpt>
      <trkpt lat="42.28935" lon="2.5916">
        <ele>438.5</ele>
        <time>2018-11-26T14:49:55Z</time>
      </trkpt>
      <trkpt lat="42.28936" lon="2.5916">
        <ele>438.5</ele>
        <time>2018-11-26T14:49:55Z</time>
      </trkpt>
      <trkpt lat="42.28944" lon="2.59159">
        <ele>437.2</ele>
        <time>2018-11-26T14:49:58Z</time>
      </trkpt>
      <trkpt lat="42.28947" lon="2.59161">
        <ele>437.5</ele>
        <time>2018-11-26T14:50:00Z</time>
      </trkpt>
      <trkpt lat="42.28946" lon="2.59161">
        <ele>437.1</ele>
        <time>2018-11-26T14:50:00Z</time>
      </trkpt>
      <trkpt lat="42.28945" lon="2.59158">
        <ele>435.1</ele>
        <time>2018-11-26T14:50:01Z</time>
      </trkpt>
      <trkpt lat="42.28943" lon="2.59152">
        <ele>433.8</ele>
        <time>2018-11-26T14:50:03Z</time>
      </trkpt>
      <trkpt lat="42.2894" lon="2.5915">
        <ele>431.3</ele>
        <time>2018-11-26T14:50:04Z</time>
      </trkpt>
      <trkpt lat="42.28935" lon="2.59146">
        <ele>430.3</ele>
        <time>2018-11-26T14:50:06Z</time>
      </trkpt>
      <trkpt lat="42.28926" lon="2.59142">
        <ele>428.9</ele>
        <time>2018-11-26T14:50:10Z</time>
      </trkpt>
      <trkpt lat="42.28923" lon="2.59141">
        <ele>427.5</ele>
        <time>2018-11-26T14:50:11Z</time>
      </trkpt>
      <trkpt lat="42.28916" lon="2.59141">
        <ele>426</ele>
        <time>2018-11-26T14:50:14Z</time>
      </trkpt>
      <trkpt lat="42.28906" lon="2.59143">
        <ele>425.1</ele>
        <time>2018-11-26T14:50:18Z</time>
      </trkpt>
      <trkpt lat="42.289" lon="2.59142">
        <ele>424.1</ele>
        <time>2018-11-26T14:50:20Z</time>
      </trkpt>
      <trkpt lat="42.28897" lon="2.59148">
        <ele>422.7</ele>
        <time>2018-11-26T14:50:23Z</time>
      </trkpt>
      <trkpt lat="42.28894" lon="2.59147">
        <ele>420.7</ele>
        <time>2018-11-26T14:50:24Z</time>
      </trkpt>
      <trkpt lat="42.28893" lon="2.59148">
        <ele>419.3</ele>
        <time>2018-11-26T14:50:24Z</time>
      </trkpt>
      <trkpt lat="42.2889" lon="2.59149">
        <ele>416.9</ele>
        <time>2018-11-26T14:50:25Z</time>
      </trkpt>
      <trkpt lat="42.28884" lon="2.5915">
        <ele>415</ele>
        <time>2018-11-26T14:50:28Z</time>
      </trkpt>
      <trkpt lat="42.28881" lon="2.59147">
        <ele>413.1</ele>
        <time>2018-11-26T14:50:29Z</time>
      </trkpt>
      <trkpt lat="42.28879" lon="2.59143">
        <ele>410.6</ele>
        <time>2018-11-26T14:50:31Z</time>
      </trkpt>
      <trkpt lat="42.28878" lon="2.59141">
        <ele>408.8</ele>
        <time>2018-11-26T14:50:32Z</time>
      </trkpt>
      <trkpt lat="42.2887" lon="2.59146">
        <ele>407.4</ele>
        <time>2018-11-26T14:50:35Z</time>
      </trkpt>
      <trkpt lat="42.2886" lon="2.59153">
        <ele>405.3</ele>
        <time>2018-11-26T14:50:40Z</time>
      </trkpt>
      <trkpt lat="42.28851" lon="2.59155">
        <ele>405.8</ele>
        <time>2018-11-26T14:50:43Z</time>
      </trkpt>
      <trkpt lat="42.28848" lon="2.59156">
        <ele>404.4</ele>
        <time>2018-11-26T14:50:44Z</time>
      </trkpt>
      <trkpt lat="42.28845" lon="2.59157">
        <ele>403</ele>
        <time>2018-11-26T14:50:46Z</time>
      </trkpt>
      <trkpt lat="42.28842" lon="2.59155">
        <ele>401.5</ele>
        <time>2018-11-26T14:50:47Z</time>
      </trkpt>
      <trkpt lat="42.2884" lon="2.59155">
        <ele>401.5</ele>
        <time>2018-11-26T14:50:48Z</time>
      </trkpt>
      <trkpt lat="42.28839" lon="2.59156">
        <ele>400.1</ele>
        <time>2018-11-26T14:50:48Z</time>
      </trkpt>
      <trkpt lat="42.28838" lon="2.59156">
        <ele>400.6</ele>
        <time>2018-11-26T14:50:49Z</time>
      </trkpt>
      <trkpt lat="42.28837" lon="2.59154">
        <ele>400.6</ele>
        <time>2018-11-26T14:50:49Z</time>
      </trkpt>
      <trkpt lat="42.28835" lon="2.59152">
        <ele>401.5</ele>
        <time>2018-11-26T14:50:50Z</time>
      </trkpt>
      <trkpt lat="42.2883" lon="2.59151">
        <ele>401</ele>
        <time>2018-11-26T14:50:52Z</time>
      </trkpt>
      <trkpt lat="42.28822" lon="2.59147">
        <ele>399.7</ele>
        <time>2018-11-26T14:50:56Z</time>
      </trkpt>
      <trkpt lat="42.28815" lon="2.59144">
        <ele>398.1</ele>
        <time>2018-11-26T14:50:59Z</time>
      </trkpt>
      <trkpt lat="42.28809" lon="2.5914">
        <ele>396.3</ele>
        <time>2018-11-26T14:51:01Z</time>
      </trkpt>
      <trkpt lat="42.28804" lon="2.59138">
        <ele>394.4</ele>
        <time>2018-11-26T14:51:03Z</time>
      </trkpt>
      <trkpt lat="42.28801" lon="2.59138">
        <ele>392.8</ele>
        <time>2018-11-26T14:51:04Z</time>
      </trkpt>
      <trkpt lat="42.28798" lon="2.59136">
        <ele>390.9</ele>
        <time>2018-11-26T14:51:06Z</time>
      </trkpt>
      <trkpt lat="42.28794" lon="2.59133">
        <ele>390</ele>
        <time>2018-11-26T14:51:08Z</time>
      </trkpt>
      <trkpt lat="42.28792" lon="2.5913">
        <ele>388</ele>
        <time>2018-11-26T14:51:09Z</time>
      </trkpt>
      <trkpt lat="42.2879" lon="2.59128">
        <ele>386.1</ele>
        <time>2018-11-26T14:51:10Z</time>
      </trkpt>
      <trkpt lat="42.28788" lon="2.59125">
        <ele>384.7</ele>
        <time>2018-11-26T14:51:11Z</time>
      </trkpt>
      <trkpt lat="42.28787" lon="2.59122">
        <ele>383.2</ele>
        <time>2018-11-26T14:51:12Z</time>
      </trkpt>
      <trkpt lat="42.28785" lon="2.59118">
        <ele>381.3</ele>
        <time>2018-11-26T14:51:14Z</time>
      </trkpt>
      <trkpt lat="42.28781" lon="2.59111">
        <ele>379.4</ele>
        <time>2018-11-26T14:51:16Z</time>
      </trkpt>
      <trkpt lat="42.2878" lon="2.59108">
        <ele>378.5</ele>
        <time>2018-11-26T14:51:17Z</time>
      </trkpt>
      <trkpt lat="42.2878" lon="2.59106">
        <ele>377</ele>
        <time>2018-11-26T14:51:18Z</time>
      </trkpt>
      <trkpt lat="42.28777" lon="2.59104">
        <ele>375.2</ele>
        <time>2018-11-26T14:51:19Z</time>
      </trkpt>
      <trkpt lat="42.28773" lon="2.59103">
        <ele>372.7</ele>
        <time>2018-11-26T14:51:21Z</time>
      </trkpt>
      <trkpt lat="42.2877" lon="2.59102">
        <ele>370.8</ele>
        <time>2018-11-26T14:51:22Z</time>
      </trkpt>
      <trkpt lat="42.28766" lon="2.59099">
        <ele>369.3</ele>
        <time>2018-11-26T14:51:24Z</time>
      </trkpt>
      <trkpt lat="42.28761" lon="2.59098">
        <ele>367.8</ele>
        <time>2018-11-26T14:51:26Z</time>
      </trkpt>
      <trkpt lat="42.28759" lon="2.59098">
        <ele>367.4</ele>
        <time>2018-11-26T14:51:27Z</time>
      </trkpt>
      <trkpt lat="42.28757" lon="2.59097">
        <ele>366.5</ele>
        <time>2018-11-26T14:51:28Z</time>
      </trkpt>
      <trkpt lat="42.28755" lon="2.59096">
        <ele>364.1</ele>
        <time>2018-11-26T14:51:29Z</time>
      </trkpt>
      <trkpt lat="42.28753" lon="2.59094">
        <ele>362.6</ele>
        <time>2018-11-26T14:51:29Z</time>
      </trkpt>
      <trkpt lat="42.28752" lon="2.59092">
        <ele>361.1</ele>
        <time>2018-11-26T14:51:30Z</time>
      </trkpt>
      <trkpt lat="42.28751" lon="2.59091">
        <ele>359.2</ele>
        <time>2018-11-26T14:51:31Z</time>
      </trkpt>
      <trkpt lat="42.28752" lon="2.59088">
        <ele>357.3</ele>
        <time>2018-11-26T14:51:32Z</time>
      </trkpt>
      <trkpt lat="42.28754" lon="2.59087">
        <ele>355.8</ele>
        <time>2018-11-26T14:51:32Z</time>
      </trkpt>
      <trkpt lat="42.28759" lon="2.59082">
        <ele>354.4</ele>
        <time>2018-11-26T14:51:35Z</time>
      </trkpt>
      <trkpt lat="42.28761" lon="2.59076">
        <ele>352.6</ele>
        <time>2018-11-26T14:51:37Z</time>
      </trkpt>
      <trkpt lat="42.28762" lon="2.59075">
        <ele>352</ele>
        <time>2018-11-26T14:51:37Z</time>
      </trkpt>
      <trkpt lat="42.28759" lon="2.59068">
        <ele>350.1</ele>
        <time>2018-11-26T14:51:40Z</time>
      </trkpt>
      <trkpt lat="42.28752" lon="2.59065">
        <ele>348.1</ele>
        <time>2018-11-26T14:51:43Z</time>
      </trkpt>
      <trkpt lat="42.28752" lon="2.59058">
        <ele>346.8</ele>
        <time>2018-11-26T14:51:45Z</time>
      </trkpt>
      <trkpt lat="42.28747" lon="2.59055">
        <ele>343.9</ele>
        <time>2018-11-26T14:51:47Z</time>
      </trkpt>
      <trkpt lat="42.2874" lon="2.59054">
        <ele>342</ele>
        <time>2018-11-26T14:51:50Z</time>
      </trkpt>
      <trkpt lat="42.28735" lon="2.59053">
        <ele>340.9</ele>
        <time>2018-11-26T14:51:52Z</time>
      </trkpt>
      <trkpt lat="42.28724" lon="2.59052">
        <ele>339.5</ele>
        <time>2018-11-26T14:51:56Z</time>
      </trkpt>
      <trkpt lat="42.28719" lon="2.5905">
        <ele>338.1</ele>
        <time>2018-11-26T14:51:58Z</time>
      </trkpt>
      <trkpt lat="42.28711" lon="2.5905">
        <ele>336.1</ele>
        <time>2018-11-26T14:52:01Z</time>
      </trkpt>
      <trkpt lat="42.28708" lon="2.59051">
        <ele>335.3</ele>
        <time>2018-11-26T14:52:02Z</time>
      </trkpt>
      <trkpt lat="42.287" lon="2.5905">
        <ele>332.8</ele>
        <time>2018-11-26T14:52:06Z</time>
      </trkpt>
      <trkpt lat="42.28697" lon="2.5905">
        <ele>331.3</ele>
        <time>2018-11-26T14:52:07Z</time>
      </trkpt>
      <trkpt lat="42.28695" lon="2.59049">
        <ele>329.4</ele>
        <time>2018-11-26T14:52:08Z</time>
      </trkpt>
      <trkpt lat="42.28694" lon="2.59048">
        <ele>327.5</ele>
        <time>2018-11-26T14:52:09Z</time>
      </trkpt>
      <trkpt lat="42.28694" lon="2.59046">
        <ele>324.6</ele>
        <time>2018-11-26T14:52:09Z</time>
      </trkpt>
      <trkpt lat="42.28694" lon="2.59047">
        <ele>324.2</ele>
        <time>2018-11-26T14:52:09Z</time>
      </trkpt>
      <trkpt lat="42.28694" lon="2.59047">
        <ele>324.2</ele>
        <time>2018-11-26T14:52:09Z</time>
      </trkpt>
      <trkpt lat="42.28694" lon="2.59048">
        <ele>323.7</ele>
        <time>2018-11-26T14:52:10Z</time>
      </trkpt>
      <trkpt lat="42.28693" lon="2.59048">
        <ele>323.2</ele>
        <time>2018-11-26T14:52:10Z</time>
      </trkpt>
      <trkpt lat="42.28692" lon="2.59047">
        <ele>323.1</ele>
        <time>2018-11-26T14:52:10Z</time>
      </trkpt>
      <trkpt lat="42.28692" lon="2.59045">
        <ele>322.7</ele>
        <time>2018-11-26T14:52:11Z</time>
      </trkpt>
      <trkpt lat="42.28689" lon="2.59044">
        <ele>322.3</ele>
        <time>2018-11-26T14:52:12Z</time>
      </trkpt>
      <trkpt lat="42.28686" lon="2.59043">
        <ele>321.7</ele>
        <time>2018-11-26T14:52:14Z</time>
      </trkpt>
      <trkpt lat="42.28676" lon="2.59038">
        <ele>320.7</ele>
        <time>2018-11-26T14:52:18Z</time>
      </trkpt>
      <trkpt lat="42.28669" lon="2.59032">
        <ele>319.8</ele>
        <time>2018-11-26T14:52:21Z</time>
      </trkpt>
      <trkpt lat="42.28663" lon="2.5903">
        <ele>319.3</ele>
        <time>2018-11-26T14:52:24Z</time>
      </trkpt>
      <trkpt lat="42.28662" lon="2.59029">
        <ele>319.4</ele>
        <time>2018-11-26T14:52:24Z</time>
      </trkpt>
      <trkpt lat="42.28651" lon="2.59023">
        <ele>318</ele>
        <time>2018-11-26T14:52:29Z</time>
      </trkpt>
      <trkpt lat="42.28646" lon="2.59021">
        <ele>318</ele>
        <time>2018-11-26T14:52:31Z</time>
      </trkpt>
      <trkpt lat="42.28639" lon="2.59017">
        <ele>315.9</ele>
        <time>2018-11-26T14:52:34Z</time>
      </trkpt>
      <trkpt lat="42.28635" lon="2.59013">
        <ele>315.1</ele>
        <time>2018-11-26T14:52:36Z</time>
      </trkpt>
      <trkpt lat="42.28631" lon="2.59012">
        <ele>314.6</ele>
        <time>2018-11-26T14:52:37Z</time>
      </trkpt>
      <trkpt lat="42.28617" lon="2.59008">
        <ele>312.7</ele>
        <time>2018-11-26T14:52:43Z</time>
      </trkpt>
      <trkpt lat="42.28612" lon="2.59008">
        <ele>311.6</ele>
        <time>2018-11-26T14:52:45Z</time>
      </trkpt>
      <trkpt lat="42.28603" lon="2.59003">
        <ele>310.6</ele>
        <time>2018-11-26T14:52:49Z</time>
      </trkpt>
      <trkpt lat="42.28589" lon="2.58999">
        <ele>309.7</ele>
        <time>2018-11-26T14:52:55Z</time>
      </trkpt>
      <trkpt lat="42.28577" lon="2.58997">
        <ele>308.2</ele>
        <time>2018-11-26T14:53:00Z</time>
      </trkpt>
      <trkpt lat="42.2857" lon="2.58999">
        <ele>307.4</ele>
        <time>2018-11-26T14:53:02Z</time>
      </trkpt>
      <trkpt lat="42.28559" lon="2.58995">
        <ele>307.4</ele>
        <time>2018-11-26T14:53:07Z</time>
      </trkpt>
      <trkpt lat="42.28554" lon="2.58989">
        <ele>307.4</ele>
        <time>2018-11-26T14:53:10Z</time>
      </trkpt>
      <trkpt lat="42.28553" lon="2.58989">
        <ele>307.3</ele>
        <time>2018-11-26T14:53:10Z</time>
      </trkpt>
      <trkpt lat="42.2855" lon="2.58986">
        <ele>307.4</ele>
        <time>2018-11-26T14:53:12Z</time>
      </trkpt>
      <trkpt lat="42.28539" lon="2.58982">
        <ele>305.8</ele>
        <time>2018-11-26T14:53:16Z</time>
      </trkpt>
      <trkpt lat="42.28534" lon="2.58982">
        <ele>305</ele>
        <time>2018-11-26T14:53:18Z</time>
      </trkpt>
      <trkpt lat="42.28525" lon="2.58976">
        <ele>304</ele>
        <time>2018-11-26T14:53:22Z</time>
      </trkpt>
      <trkpt lat="42.28522" lon="2.58973">
        <ele>303.5</ele>
        <time>2018-11-26T14:53:24Z</time>
      </trkpt>
      <trkpt lat="42.28515" lon="2.58972">
        <ele>302.5</ele>
        <time>2018-11-26T14:53:26Z</time>
      </trkpt>
      <trkpt lat="42.28509" lon="2.58972">
        <ele>301.5</ele>
        <time>2018-11-26T14:53:29Z</time>
      </trkpt>
      <trkpt lat="42.28507" lon="2.58971">
        <ele>301.5</ele>
        <time>2018-11-26T14:53:30Z</time>
      </trkpt>
      <trkpt lat="42.28504" lon="2.58973">
        <ele>301</ele>
        <time>2018-11-26T14:53:31Z</time>
      </trkpt>
      <trkpt lat="42.28504" lon="2.58973">
        <ele>300.6</ele>
        <time>2018-11-26T14:53:31Z</time>
      </trkpt>
      <trkpt lat="42.28496" lon="2.5898">
        <ele>299.7</ele>
        <time>2018-11-26T14:53:35Z</time>
      </trkpt>
      <trkpt lat="42.28487" lon="2.58992">
        <ele>298.2</ele>
        <time>2018-11-26T14:53:40Z</time>
      </trkpt>
      <trkpt lat="42.28478" lon="2.58994">
        <ele>297.7</ele>
        <time>2018-11-26T14:53:43Z</time>
      </trkpt>
      <trkpt lat="42.28475" lon="2.58994">
        <ele>297.2</ele>
        <time>2018-11-26T14:53:45Z</time>
      </trkpt>
      <trkpt lat="42.2847" lon="2.58991">
        <ele>297.3</ele>
        <time>2018-11-26T14:53:47Z</time>
      </trkpt>
      <trkpt lat="42.28468" lon="2.58989">
        <ele>297.3</ele>
        <time>2018-11-26T14:53:48Z</time>
      </trkpt>
      <trkpt lat="42.28465" lon="2.58991">
        <ele>296.8</ele>
        <time>2018-11-26T14:53:49Z</time>
      </trkpt>
      <trkpt lat="42.28457" lon="2.58992">
        <ele>296.2</ele>
        <time>2018-11-26T14:53:52Z</time>
      </trkpt>
      <trkpt lat="42.28452" lon="2.58997">
        <ele>295.7</ele>
        <time>2018-11-26T14:53:55Z</time>
      </trkpt>
      <trkpt lat="42.2845" lon="2.58998">
        <ele>295.7</ele>
        <time>2018-11-26T14:53:55Z</time>
      </trkpt>
      <trkpt lat="42.28439" lon="2.59004">
        <ele>294.9</ele>
        <time>2018-11-26T14:54:00Z</time>
      </trkpt>
      <trkpt lat="42.28437" lon="2.59005">
        <ele>294.8</ele>
        <time>2018-11-26T14:54:01Z</time>
      </trkpt>
      <trkpt lat="42.28424" lon="2.5901">
        <ele>293.3</ele>
        <time>2018-11-26T14:54:07Z</time>
      </trkpt>
      <trkpt lat="42.28409" lon="2.59012">
        <ele>292.4</ele>
        <time>2018-11-26T14:54:13Z</time>
      </trkpt>
      <trkpt lat="42.28404" lon="2.59012">
        <ele>292</ele>
        <time>2018-11-26T14:54:15Z</time>
      </trkpt>
      <trkpt lat="42.28399" lon="2.59016">
        <ele>290.9</ele>
        <time>2018-11-26T14:54:17Z</time>
      </trkpt>
      <trkpt lat="42.28384" lon="2.59023">
        <ele>290.6</ele>
        <time>2018-11-26T14:54:23Z</time>
      </trkpt>
      <trkpt lat="42.28378" lon="2.59027">
        <ele>289.1</ele>
        <time>2018-11-26T14:54:26Z</time>
      </trkpt>
      <trkpt lat="42.28373" lon="2.59029">
        <ele>288.2</ele>
        <time>2018-11-26T14:54:28Z</time>
      </trkpt>
      <trkpt lat="42.28363" lon="2.59035">
        <ele>286.1</ele>
        <time>2018-11-26T14:54:33Z</time>
      </trkpt>
      <trkpt lat="42.28359" lon="2.59037">
        <ele>285.7</ele>
        <time>2018-11-26T14:54:34Z</time>
      </trkpt>
      <trkpt lat="42.28357" lon="2.59039">
        <ele>285.7</ele>
        <time>2018-11-26T14:54:35Z</time>
      </trkpt>
      <trkpt lat="42.28351" lon="2.59043">
        <ele>285.2</ele>
        <time>2018-11-26T14:54:38Z</time>
      </trkpt>
      <trkpt lat="42.28342" lon="2.5904">
        <ele>284.8</ele>
        <time>2018-11-26T14:54:41Z</time>
      </trkpt>
      <trkpt lat="42.28326" lon="2.59027">
        <ele>283.8</ele>
        <time>2018-11-26T14:54:49Z</time>
      </trkpt>
      <trkpt lat="42.28316" lon="2.59024">
        <ele>283.4</ele>
        <time>2018-11-26T14:54:53Z</time>
      </trkpt>
      <trkpt lat="42.28306" lon="2.59013">
        <ele>282.9</ele>
        <time>2018-11-26T14:54:58Z</time>
      </trkpt>
      <trkpt lat="42.28292" lon="2.59003">
        <ele>281.4</ele>
        <time>2018-11-26T14:55:04Z</time>
      </trkpt>
      <trkpt lat="42.28283" lon="2.58997">
        <ele>280.5</ele>
        <time>2018-11-26T14:55:08Z</time>
      </trkpt>
      <trkpt lat="42.2828" lon="2.58997">
        <ele>279.4</ele>
        <time>2018-11-26T14:55:10Z</time>
      </trkpt>
      <trkpt lat="42.28269" lon="2.58995">
        <ele>278.5</ele>
        <time>2018-11-26T14:55:14Z</time>
      </trkpt>
      <trkpt lat="42.28258" lon="2.58992">
        <ele>276.6</ele>
        <time>2018-11-26T14:55:19Z</time>
      </trkpt>
      <trkpt lat="42.28256" lon="2.58992">
        <ele>276</ele>
        <time>2018-11-26T14:55:20Z</time>
      </trkpt>
      <trkpt lat="42.28245" lon="2.58989">
        <ele>275.6</ele>
        <time>2018-11-26T14:55:24Z</time>
      </trkpt>
      <trkpt lat="42.2823" lon="2.58993">
        <ele>274.7</ele>
        <time>2018-11-26T14:55:30Z</time>
      </trkpt>
      <trkpt lat="42.28224" lon="2.58994">
        <ele>274.6</ele>
        <time>2018-11-26T14:55:32Z</time>
      </trkpt>
      <trkpt lat="42.28217" lon="2.58999">
        <ele>274.1</ele>
        <time>2018-11-26T14:55:36Z</time>
      </trkpt>
      <trkpt lat="42.2821" lon="2.59003">
        <ele>273.7</ele>
        <time>2018-11-26T14:55:39Z</time>
      </trkpt>
      <trkpt lat="42.28201" lon="2.5901">
        <ele>272.3</ele>
        <time>2018-11-26T14:55:43Z</time>
      </trkpt>
      <trkpt lat="42.28195" lon="2.59017">
        <ele>270.3</ele>
        <time>2018-11-26T14:55:46Z</time>
      </trkpt>
      <trkpt lat="42.28189" lon="2.59022">
        <ele>269.4</ele>
        <time>2018-11-26T14:55:49Z</time>
      </trkpt>
      <trkpt lat="42.28181" lon="2.59029">
        <ele>267.5</ele>
        <time>2018-11-26T14:55:53Z</time>
      </trkpt>
      <trkpt lat="42.28171" lon="2.59036">
        <ele>265.9</ele>
        <time>2018-11-26T14:55:57Z</time>
      </trkpt>
      <trkpt lat="42.28169" lon="2.59037">
        <ele>265.6</ele>
        <time>2018-11-26T14:55:58Z</time>
      </trkpt>
      <trkpt lat="42.28168" lon="2.59037">
        <ele>265.5</ele>
        <time>2018-11-26T14:55:59Z</time>
      </trkpt>
      <trkpt lat="42.28164" lon="2.59037">
        <ele>265</ele>
        <time>2018-11-26T14:56:00Z</time>
      </trkpt>
      <trkpt lat="42.28162" lon="2.59025">
        <ele>265.5</ele>
        <time>2018-11-26T14:56:04Z</time>
      </trkpt>
      <trkpt lat="42.28157" lon="2.59025">
        <ele>265</ele>
        <time>2018-11-26T14:56:06Z</time>
      </trkpt>
      <trkpt lat="42.28151" lon="2.59017">
        <ele>265.6</ele>
        <time>2018-11-26T14:56:09Z</time>
      </trkpt>
      <trkpt lat="42.28149" lon="2.59017">
        <ele>265.1</ele>
        <time>2018-11-26T14:56:09Z</time>
      </trkpt>
      <trkpt lat="42.28147" lon="2.59013">
        <ele>265</ele>
        <time>2018-11-26T14:56:11Z</time>
      </trkpt>
      <trkpt lat="42.28139" lon="2.59006">
        <ele>265.6</ele>
        <time>2018-11-26T14:56:15Z</time>
      </trkpt>
      <trkpt lat="42.28134" lon="2.59001">
        <ele>265.6</ele>
        <time>2018-11-26T14:56:17Z</time>
      </trkpt>
      <trkpt lat="42.28127" lon="2.58998">
        <ele>265.6</ele>
        <time>2018-11-26T14:56:20Z</time>
      </trkpt>
      <trkpt lat="42.28125" lon="2.58989">
        <ele>265.9</ele>
        <time>2018-11-26T14:56:23Z</time>
      </trkpt>
      <trkpt lat="42.2812" lon="2.58985">
        <ele>266.5</ele>
        <time>2018-11-26T14:56:25Z</time>
      </trkpt>
      <trkpt lat="42.28119" lon="2.58984">
        <ele>266.4</ele>
        <time>2018-11-26T14:56:26Z</time>
      </trkpt>
      <trkpt lat="42.28112" lon="2.5897">
        <ele>266.9</ele>
        <time>2018-11-26T14:56:31Z</time>
      </trkpt>
      <trkpt lat="42.28104" lon="2.58957">
        <ele>267.4</ele>
        <time>2018-11-26T14:56:36Z</time>
      </trkpt>
      <trkpt lat="42.28097" lon="2.58945">
        <ele>267</ele>
        <time>2018-11-26T14:56:40Z</time>
      </trkpt>
      <trkpt lat="42.28093" lon="2.5894">
        <ele>267</ele>
        <time>2018-11-26T14:56:42Z</time>
      </trkpt>
      <trkpt lat="42.28092" lon="2.58937">
        <ele>267</ele>
        <time>2018-11-26T14:56:43Z</time>
      </trkpt>
      <trkpt lat="42.28085" lon="2.58927">
        <ele>267</ele>
        <time>2018-11-26T14:56:48Z</time>
      </trkpt>
      <trkpt lat="42.28075" lon="2.58918">
        <ele>267</ele>
        <time>2018-11-26T14:56:52Z</time>
      </trkpt>
      <trkpt lat="42.2807" lon="2.58913">
        <ele>266.5</ele>
        <time>2018-11-26T14:56:55Z</time>
      </trkpt>
      <trkpt lat="42.28068" lon="2.58911">
        <ele>266.5</ele>
        <time>2018-11-26T14:56:56Z</time>
      </trkpt>
      <trkpt lat="42.28066" lon="2.58908">
        <ele>266.4</ele>
        <time>2018-11-26T14:56:57Z</time>
      </trkpt>
      <trkpt lat="42.28064" lon="2.58902">
        <ele>266.5</ele>
        <time>2018-11-26T14:56:59Z</time>
      </trkpt>
      <trkpt lat="42.28057" lon="2.58888">
        <ele>265.9</ele>
        <time>2018-11-26T14:57:04Z</time>
      </trkpt>
      <trkpt lat="42.28052" lon="2.58884">
        <ele>265.9</ele>
        <time>2018-11-26T14:57:06Z</time>
      </trkpt>
      <trkpt lat="42.28051" lon="2.58883">
        <ele>265.6</ele>
        <time>2018-11-26T14:57:07Z</time>
      </trkpt>
      <trkpt lat="42.28046" lon="2.58883">
        <ele>265.5</ele>
        <time>2018-11-26T14:57:09Z</time>
      </trkpt>
      <trkpt lat="42.28044" lon="2.58881">
        <ele>265.1</ele>
        <time>2018-11-26T14:57:10Z</time>
      </trkpt>
      <trkpt lat="42.28045" lon="2.58882">
        <ele>265</ele>
        <time>2018-11-26T14:57:10Z</time>
      </trkpt>
      <trkpt lat="42.28037" lon="2.58889">
        <ele>265.6</ele>
        <time>2018-11-26T14:57:14Z</time>
      </trkpt>
      <trkpt lat="42.28022" lon="2.58896">
        <ele>266.5</ele>
        <time>2018-11-26T14:57:20Z</time>
      </trkpt>
      <trkpt lat="42.28017" lon="2.58897">
        <ele>266.5</ele>
        <time>2018-11-26T14:57:22Z</time>
      </trkpt>
      <trkpt lat="42.27999" lon="2.58911">
        <ele>267.5</ele>
        <time>2018-11-26T14:57:30Z</time>
      </trkpt>
      <trkpt lat="42.27989" lon="2.58916">
        <ele>267.5</ele>
        <time>2018-11-26T14:57:34Z</time>
      </trkpt>
      <trkpt lat="42.27974" lon="2.58925">
        <ele>267</ele>
        <time>2018-11-26T14:57:41Z</time>
      </trkpt>
      <trkpt lat="42.27961" lon="2.58931">
        <ele>266.9</ele>
        <time>2018-11-26T14:57:47Z</time>
      </trkpt>
      <trkpt lat="42.27957" lon="2.58933">
        <ele>266.9</ele>
        <time>2018-11-26T14:57:48Z</time>
      </trkpt>
      <trkpt lat="42.27942" lon="2.58937">
        <ele>266.9</ele>
        <time>2018-11-26T14:57:54Z</time>
      </trkpt>
      <trkpt lat="42.27928" lon="2.58941">
        <ele>266.9</ele>
        <time>2018-11-26T14:58:00Z</time>
      </trkpt>
      <trkpt lat="42.27923" lon="2.5894">
        <ele>266.9</ele>
        <time>2018-11-26T14:58:02Z</time>
      </trkpt>
      <trkpt lat="42.27918" lon="2.58938">
        <ele>267.4</ele>
        <time>2018-11-26T14:58:04Z</time>
      </trkpt>
      <trkpt lat="42.27914" lon="2.58936">
        <ele>267.5</ele>
        <time>2018-11-26T14:58:06Z</time>
      </trkpt>
      <trkpt lat="42.27905" lon="2.58937">
        <ele>266.9</ele>
        <time>2018-11-26T14:58:09Z</time>
      </trkpt>
      <trkpt lat="42.27894" lon="2.5894">
        <ele>264.1</ele>
        <time>2018-11-26T14:58:14Z</time>
      </trkpt>
      <trkpt lat="42.27881" lon="2.58943">
        <ele>261.6</ele>
        <time>2018-11-26T14:58:19Z</time>
      </trkpt>
      <trkpt lat="42.27871" lon="2.58947">
        <ele>259.8</ele>
        <time>2018-11-26T14:58:24Z</time>
      </trkpt>
      <trkpt lat="42.27862" lon="2.58949">
        <ele>258.4</ele>
        <time>2018-11-26T14:58:27Z</time>
      </trkpt>
      <trkpt lat="42.27853" lon="2.58948">
        <ele>257.3</ele>
        <time>2018-11-26T14:58:31Z</time>
      </trkpt>
      <trkpt lat="42.2784" lon="2.58951">
        <ele>256.3</ele>
        <time>2018-11-26T14:58:36Z</time>
      </trkpt>
      <trkpt lat="42.27827" lon="2.58958">
        <ele>255.4</ele>
        <time>2018-11-26T14:58:42Z</time>
      </trkpt>
      <trkpt lat="42.27827" lon="2.58958">
        <ele>255.5</ele>
        <time>2018-11-26T14:58:42Z</time>
      </trkpt>
      <trkpt lat="42.27825" lon="2.58958">
        <ele>254.9</ele>
        <time>2018-11-26T14:58:42Z</time>
      </trkpt>
      <trkpt lat="42.27825" lon="2.58957">
        <ele>254.5</ele>
        <time>2018-11-26T14:58:43Z</time>
      </trkpt>
      <trkpt lat="42.27823" lon="2.58957">
        <ele>254</ele>
        <time>2018-11-26T14:58:44Z</time>
      </trkpt>
      <trkpt lat="42.27821" lon="2.58959">
        <ele>254</ele>
        <time>2018-11-26T14:58:44Z</time>
      </trkpt>
      <trkpt lat="42.27819" lon="2.58961">
        <ele>253.5</ele>
        <time>2018-11-26T14:58:45Z</time>
      </trkpt>
      <trkpt lat="42.27819" lon="2.5896">
        <ele>253.4</ele>
        <time>2018-11-26T14:58:45Z</time>
      </trkpt>
      <trkpt lat="42.27819" lon="2.5896">
        <ele>252.1</ele>
        <time>2018-11-26T14:58:46Z</time>
      </trkpt>
      <trkpt lat="42.2782" lon="2.5896">
        <ele>251</ele>
        <time>2018-11-26T14:58:46Z</time>
      </trkpt>
      <trkpt lat="42.27823" lon="2.58962">
        <ele>250.6</ele>
        <time>2018-11-26T14:58:47Z</time>
      </trkpt>
      <trkpt lat="42.2782" lon="2.58969">
        <ele>250.1</ele>
        <time>2018-11-26T14:58:50Z</time>
      </trkpt>
      <trkpt lat="42.27822" lon="2.58965">
        <ele>249.7</ele>
        <time>2018-11-26T14:58:51Z</time>
      </trkpt>
      <trkpt lat="42.27821" lon="2.58964">
        <ele>249.7</ele>
        <time>2018-11-26T14:58:51Z</time>
      </trkpt>
    </trkseg>
  </trk>
</gpx>